<?xml version="1.0" encoding="UTF-8"?>
<gpx xmlns:xsi="http://www.w3.org/2001/XMLSchema-instance" xmlns="http://www.topografix.com/GPX/1/0" version="1.0" xsi:schemaLocation="http://www.topografix.com/GPX/1/0 http://www.topografix.com/GPX/1/0/gpx.xsd" creator="gpx.py -- https://github.com/tkrajina/gpxpy">
<name>丙察察线之昆明-大理-六库-福贡-贡山-丙中洛。之后丙中洛-察瓦龙乡-察隅县路线，地图无标注。</name>
<desc>行者骑行软件</desc>
<author>行者骑行软件</author>
<url>http://www.imxingzhe.com</url>
<urlname>行者骑行软件</urlname>
<time>2014-08-04T08:36:05Z</time>
<keywords>行者骑行软件</keywords>
<distance>942.864</distance>
<trk>
<name>行者骑行软件</name>
<desc/>
<trkseg>
<trkpt lat="25.021524" lon="102.720083">
<time>2014-08-04T16:36:06Z</time></trkpt>
<trkpt lat="25.021524" lon="102.720043">
<time>2014-08-04T16:36:07Z</time></trkpt>
<trkpt lat="25.021525" lon="102.719893">
<time>2014-08-04T16:36:08Z</time></trkpt>
<trkpt lat="25.021357" lon="102.717377">
<time>2014-08-04T16:36:09Z</time></trkpt>
<trkpt lat="25.021288" lon="102.716678">
<time>2014-08-04T16:36:10Z</time></trkpt>
<trkpt lat="25.02117" lon="102.715361">
<time>2014-08-04T16:36:11Z</time></trkpt>
<trkpt lat="25.02111" lon="102.714702">
<time>2014-08-04T16:36:12Z</time></trkpt>
<trkpt lat="25.021091" lon="102.714442">
<time>2014-08-04T16:36:13Z</time></trkpt>
<trkpt lat="25.021071" lon="102.714243">
<time>2014-08-04T16:36:14Z</time></trkpt>
<trkpt lat="25.021071" lon="102.714243">
<time>2014-08-04T16:36:15Z</time></trkpt>
<trkpt lat="25.023341" lon="102.713953">
<time>2014-08-04T16:36:16Z</time></trkpt>
<trkpt lat="25.023831" lon="102.713913">
<time>2014-08-04T16:36:17Z</time></trkpt>
<trkpt lat="25.023981" lon="102.713893">
<time>2014-08-04T16:36:18Z</time></trkpt>
<trkpt lat="25.024391" lon="102.713843">
<time>2014-08-04T16:36:19Z</time></trkpt>
<trkpt lat="25.025181" lon="102.713754">
<time>2014-08-04T16:36:20Z</time></trkpt>
<trkpt lat="25.025551" lon="102.713704">
<time>2014-08-04T16:36:21Z</time></trkpt>
<trkpt lat="25.025761" lon="102.713664">
<time>2014-08-04T16:36:22Z</time></trkpt>
<trkpt lat="25.025911" lon="102.713614">
<time>2014-08-04T16:36:23Z</time></trkpt>
<trkpt lat="25.026031" lon="102.713544">
<time>2014-08-04T16:36:24Z</time></trkpt>
<trkpt lat="25.026071" lon="102.713524">
<time>2014-08-04T16:36:25Z</time></trkpt>
<trkpt lat="25.026221" lon="102.713424">
<time>2014-08-04T16:36:26Z</time></trkpt>
<trkpt lat="25.026502" lon="102.713214">
<time>2014-08-04T16:36:27Z</time></trkpt>
<trkpt lat="25.026612" lon="102.713145">
<time>2014-08-04T16:36:28Z</time></trkpt>
<trkpt lat="25.026612" lon="102.713145">
<time>2014-08-04T16:36:29Z</time></trkpt>
<trkpt lat="25.026602" lon="102.712995">
<time>2014-08-04T16:36:30Z</time></trkpt>
<trkpt lat="25.026573" lon="102.712506">
<time>2014-08-04T16:36:31Z</time></trkpt>
<trkpt lat="25.026553" lon="102.712276">
<time>2014-08-04T16:36:32Z</time></trkpt>
<trkpt lat="25.026503" lon="102.711757">
<time>2014-08-04T16:36:33Z</time></trkpt>
<trkpt lat="25.026435" lon="102.710949">
<time>2014-08-04T16:36:34Z</time></trkpt>
<trkpt lat="25.026345" lon="102.71027">
<time>2014-08-04T16:36:35Z</time></trkpt>
<trkpt lat="25.026256" lon="102.709531">
<time>2014-08-04T16:36:36Z</time></trkpt>
<trkpt lat="25.026168" lon="102.708693">
<time>2014-08-04T16:36:37Z</time></trkpt>
<trkpt lat="25.026108" lon="102.708174">
<time>2014-08-04T16:36:38Z</time></trkpt>
<trkpt lat="25.026089" lon="102.708004">
<time>2014-08-04T16:36:39Z</time></trkpt>
<trkpt lat="25.026079" lon="102.707935">
<time>2014-08-04T16:36:40Z</time></trkpt>
<trkpt lat="25.026039" lon="102.707635">
<time>2014-08-04T16:36:41Z</time></trkpt>
<trkpt lat="25.02599" lon="102.707146">
<time>2014-08-04T16:36:42Z</time></trkpt>
<trkpt lat="25.02598" lon="102.706907">
<time>2014-08-04T16:36:43Z</time></trkpt>
<trkpt lat="25.02599" lon="102.706727">
<time>2014-08-04T16:36:44Z</time></trkpt>
<trkpt lat="25.026001" lon="102.706477">
<time>2014-08-04T16:36:45Z</time></trkpt>
<trkpt lat="25.026011" lon="102.706258">
<time>2014-08-04T16:36:46Z</time></trkpt>
<trkpt lat="25.026022" lon="102.705669">
<time>2014-08-04T16:36:47Z</time></trkpt>
<trkpt lat="25.026032" lon="102.705489">
<time>2014-08-04T16:36:48Z</time></trkpt>
<trkpt lat="25.026042" lon="102.7053">
<time>2014-08-04T16:36:49Z</time></trkpt>
<trkpt lat="25.026043" lon="102.70521">
<time>2014-08-04T16:36:50Z</time></trkpt>
<trkpt lat="25.026033" lon="102.704911">
<time>2014-08-04T16:36:51Z</time></trkpt>
<trkpt lat="25.025974" lon="102.703983">
<time>2014-08-04T16:36:52Z</time></trkpt>
<trkpt lat="25.025945" lon="102.703623">
<time>2014-08-04T16:36:53Z</time></trkpt>
<trkpt lat="25.025925" lon="102.703324">
<time>2014-08-04T16:36:54Z</time></trkpt>
<trkpt lat="25.025925" lon="102.703264">
<time>2014-08-04T16:36:55Z</time></trkpt>
<trkpt lat="25.025916" lon="102.702945">
<time>2014-08-04T16:36:56Z</time></trkpt>
<trkpt lat="25.025906" lon="102.702735">
<time>2014-08-04T16:36:57Z</time></trkpt>
<trkpt lat="25.025896" lon="102.702625">
<time>2014-08-04T16:36:58Z</time></trkpt>
<trkpt lat="25.025877" lon="102.702486">
<time>2014-08-04T16:36:59Z</time></trkpt>
<trkpt lat="25.025837" lon="102.702246">
<time>2014-08-04T16:37:00Z</time></trkpt>
<trkpt lat="25.025767" lon="102.702027">
<time>2014-08-04T16:37:01Z</time></trkpt>
<trkpt lat="25.025698" lon="102.701797">
<time>2014-08-04T16:37:02Z</time></trkpt>
<trkpt lat="25.025359" lon="102.700889">
<time>2014-08-04T16:37:03Z</time></trkpt>
<trkpt lat="25.02519" lon="102.70045">
<time>2014-08-04T16:37:04Z</time></trkpt>
<trkpt lat="25.024901" lon="102.699682">
<time>2014-08-04T16:37:05Z</time></trkpt>
<trkpt lat="25.024871" lon="102.699592">
<time>2014-08-04T16:37:06Z</time></trkpt>
<trkpt lat="25.024672" lon="102.699083">
<time>2014-08-04T16:37:07Z</time></trkpt>
<trkpt lat="25.024672" lon="102.699083">
<time>2014-08-04T16:37:08Z</time></trkpt>
<trkpt lat="25.024642" lon="102.699023">
<time>2014-08-04T16:37:09Z</time></trkpt>
<trkpt lat="25.024543" lon="102.698804">
<time>2014-08-04T16:37:10Z</time></trkpt>
<trkpt lat="25.024473" lon="102.698634">
<time>2014-08-04T16:37:11Z</time></trkpt>
<trkpt lat="25.024164" lon="102.697936">
<time>2014-08-04T16:37:12Z</time></trkpt>
<trkpt lat="25.023925" lon="102.697487">
<time>2014-08-04T16:37:13Z</time></trkpt>
<trkpt lat="25.023646" lon="102.696968">
<time>2014-08-04T16:37:14Z</time></trkpt>
<trkpt lat="25.023616" lon="102.696918">
<time>2014-08-04T16:37:15Z</time></trkpt>
<trkpt lat="25.023586" lon="102.696868">
<time>2014-08-04T16:37:16Z</time></trkpt>
<trkpt lat="25.023586" lon="102.696868">
<time>2014-08-04T16:37:17Z</time></trkpt>
<trkpt lat="25.023656" lon="102.696669">
<time>2014-08-04T16:37:18Z</time></trkpt>
<trkpt lat="25.024087" lon="102.69593">
<time>2014-08-04T16:37:19Z</time></trkpt>
<trkpt lat="25.024158" lon="102.69582">
<time>2014-08-04T16:37:20Z</time></trkpt>
<trkpt lat="25.024709" lon="102.694952">
<time>2014-08-04T16:37:21Z</time></trkpt>
<trkpt lat="25.025742" lon="102.693316">
<time>2014-08-04T16:37:22Z</time></trkpt>
<trkpt lat="25.025742" lon="102.693316">
<time>2014-08-04T16:37:23Z</time></trkpt>
<trkpt lat="25.025292" lon="102.692827">
<time>2014-08-04T16:37:24Z</time></trkpt>
<trkpt lat="25.025253" lon="102.692787">
<time>2014-08-04T16:37:25Z</time></trkpt>
<trkpt lat="25.025003" lon="102.692508">
<time>2014-08-04T16:37:26Z</time></trkpt>
<trkpt lat="25.024803" lon="102.692259">
<time>2014-08-04T16:37:27Z</time></trkpt>
<trkpt lat="25.024714" lon="102.692109">
<time>2014-08-04T16:37:28Z</time></trkpt>
<trkpt lat="25.024644" lon="102.691939">
<time>2014-08-04T16:37:29Z</time></trkpt>
<trkpt lat="25.024545" lon="102.6916">
<time>2014-08-04T16:37:30Z</time></trkpt>
<trkpt lat="25.024495" lon="102.691421">
<time>2014-08-04T16:37:31Z</time></trkpt>
<trkpt lat="25.024416" lon="102.691101">
<time>2014-08-04T16:37:32Z</time></trkpt>
<trkpt lat="25.024396" lon="102.690962">
<time>2014-08-04T16:37:33Z</time></trkpt>
<trkpt lat="25.024406" lon="102.690832">
<time>2014-08-04T16:37:34Z</time></trkpt>
<trkpt lat="25.024406" lon="102.690802">
<time>2014-08-04T16:37:35Z</time></trkpt>
<trkpt lat="25.024426" lon="102.690682">
<time>2014-08-04T16:37:36Z</time></trkpt>
<trkpt lat="25.024436" lon="102.690632">
<time>2014-08-04T16:37:37Z</time></trkpt>
<trkpt lat="25.024457" lon="102.690513">
<time>2014-08-04T16:37:38Z</time></trkpt>
<trkpt lat="25.024467" lon="102.690403">
<time>2014-08-04T16:37:39Z</time></trkpt>
<trkpt lat="25.024457" lon="102.690323">
<time>2014-08-04T16:37:40Z</time></trkpt>
<trkpt lat="25.024457" lon="102.690253">
<time>2014-08-04T16:37:41Z</time></trkpt>
<trkpt lat="25.024437" lon="102.690184">
<time>2014-08-04T16:37:42Z</time></trkpt>
<trkpt lat="25.024407" lon="102.690074">
<time>2014-08-04T16:37:43Z</time></trkpt>
<trkpt lat="25.024318" lon="102.689974">
<time>2014-08-04T16:37:44Z</time></trkpt>
<trkpt lat="25.024308" lon="102.689964">
<time>2014-08-04T16:37:45Z</time></trkpt>
<trkpt lat="25.024168" lon="102.689854">
<time>2014-08-04T16:37:46Z</time></trkpt>
<trkpt lat="25.024168" lon="102.689854">
<time>2014-08-04T16:37:47Z</time></trkpt>
<trkpt lat="25.024198" lon="102.689794">
<time>2014-08-04T16:37:48Z</time></trkpt>
<trkpt lat="25.024689" lon="102.688986">
<time>2014-08-04T16:37:49Z</time></trkpt>
<trkpt lat="25.025" lon="102.688498">
<time>2014-08-04T16:37:50Z</time></trkpt>
<trkpt lat="25.025351" lon="102.687949">
<time>2014-08-04T16:37:51Z</time></trkpt>
<trkpt lat="25.026264" lon="102.686442">
<time>2014-08-04T16:37:52Z</time></trkpt>
<trkpt lat="25.026344" lon="102.686313">
<time>2014-08-04T16:37:53Z</time></trkpt>
<trkpt lat="25.026835" lon="102.685545">
<time>2014-08-04T16:37:54Z</time></trkpt>
<trkpt lat="25.028049" lon="102.683669">
<time>2014-08-04T16:37:55Z</time></trkpt>
<trkpt lat="25.028079" lon="102.683619">
<time>2014-08-04T16:37:56Z</time></trkpt>
<trkpt lat="25.0285" lon="102.682961">
<time>2014-08-04T16:37:57Z</time></trkpt>
<trkpt lat="25.029152" lon="102.681933">
<time>2014-08-04T16:37:58Z</time></trkpt>
<trkpt lat="25.029152" lon="102.681933">
<time>2014-08-04T16:37:59Z</time></trkpt>
<trkpt lat="25.029192" lon="102.681883">
<time>2014-08-04T16:38:00Z</time></trkpt>
<trkpt lat="25.029352" lon="102.681624">
<time>2014-08-04T16:38:01Z</time></trkpt>
<trkpt lat="25.029412" lon="102.681544">
<time>2014-08-04T16:38:02Z</time></trkpt>
<trkpt lat="25.029462" lon="102.681455">
<time>2014-08-04T16:38:03Z</time></trkpt>
<trkpt lat="25.029984" lon="102.680656">
<time>2014-08-04T16:38:04Z</time></trkpt>
<trkpt lat="25.030545" lon="102.679829">
<time>2014-08-04T16:38:05Z</time></trkpt>
<trkpt lat="25.031117" lon="102.67902">
<time>2014-08-04T16:38:06Z</time></trkpt>
<trkpt lat="25.031167" lon="102.678921">
<time>2014-08-04T16:38:07Z</time></trkpt>
<trkpt lat="25.031177" lon="102.678891">
<time>2014-08-04T16:38:08Z</time></trkpt>
<trkpt lat="25.031197" lon="102.678851">
<time>2014-08-04T16:38:09Z</time></trkpt>
<trkpt lat="25.031197" lon="102.678841">
<time>2014-08-04T16:38:10Z</time></trkpt>
<trkpt lat="25.031207" lon="102.678811">
<time>2014-08-04T16:38:11Z</time></trkpt>
<trkpt lat="25.031227" lon="102.678731">
<time>2014-08-04T16:38:12Z</time></trkpt>
<trkpt lat="25.031227" lon="102.678731">
<time>2014-08-04T16:38:13Z</time></trkpt>
<trkpt lat="25.031358" lon="102.678522">
<time>2014-08-04T16:38:14Z</time></trkpt>
<trkpt lat="25.031699" lon="102.677983">
<time>2014-08-04T16:38:15Z</time></trkpt>
<trkpt lat="25.03227" lon="102.677105">
<time>2014-08-04T16:38:16Z</time></trkpt>
<trkpt lat="25.032441" lon="102.676846">
<time>2014-08-04T16:38:17Z</time></trkpt>
<trkpt lat="25.032501" lon="102.676756">
<time>2014-08-04T16:38:18Z</time></trkpt>
<trkpt lat="25.033103" lon="102.675798">
<time>2014-08-04T16:38:19Z</time></trkpt>
<trkpt lat="25.033343" lon="102.675399">
<time>2014-08-04T16:38:20Z</time></trkpt>
<trkpt lat="25.033564" lon="102.67502">
<time>2014-08-04T16:38:21Z</time></trkpt>
<trkpt lat="25.033725" lon="102.674671">
<time>2014-08-04T16:38:22Z</time></trkpt>
<trkpt lat="25.033825" lon="102.674422">
<time>2014-08-04T16:38:23Z</time></trkpt>
<trkpt lat="25.033956" lon="102.674043">
<time>2014-08-04T16:38:24Z</time></trkpt>
<trkpt lat="25.033996" lon="102.673943">
<time>2014-08-04T16:38:25Z</time></trkpt>
<trkpt lat="25.034057" lon="102.673694">
<time>2014-08-04T16:38:26Z</time></trkpt>
<trkpt lat="25.034127" lon="102.673384">
<time>2014-08-04T16:38:27Z</time></trkpt>
<trkpt lat="25.034157" lon="102.673255">
<time>2014-08-04T16:38:28Z</time></trkpt>
<trkpt lat="25.034198" lon="102.673045">
<time>2014-08-04T16:38:29Z</time></trkpt>
<trkpt lat="25.034228" lon="102.672766">
<time>2014-08-04T16:38:30Z</time></trkpt>
<trkpt lat="25.034229" lon="102.672646">
<time>2014-08-04T16:38:31Z</time></trkpt>
<trkpt lat="25.034229" lon="102.672586">
<time>2014-08-04T16:38:32Z</time></trkpt>
<trkpt lat="25.03422" lon="102.672108">
<time>2014-08-04T16:38:33Z</time></trkpt>
<trkpt lat="25.03423" lon="102.671749">
<time>2014-08-04T16:38:34Z</time></trkpt>
<trkpt lat="25.034191" lon="102.671469">
<time>2014-08-04T16:38:35Z</time></trkpt>
<trkpt lat="25.034151" lon="102.67124">
<time>2014-08-04T16:38:36Z</time></trkpt>
<trkpt lat="25.034052" lon="102.670851">
<time>2014-08-04T16:38:37Z</time></trkpt>
<trkpt lat="25.034042" lon="102.670831">
<time>2014-08-04T16:38:38Z</time></trkpt>
<trkpt lat="25.033953" lon="102.670502">
<time>2014-08-04T16:38:39Z</time></trkpt>
<trkpt lat="25.033834" lon="102.670103">
<time>2014-08-04T16:38:40Z</time></trkpt>
<trkpt lat="25.033595" lon="102.669235">
<time>2014-08-04T16:38:41Z</time></trkpt>
<trkpt lat="25.033585" lon="102.669185">
<time>2014-08-04T16:38:42Z</time></trkpt>
<trkpt lat="25.033446" lon="102.668666">
<time>2014-08-04T16:38:43Z</time></trkpt>
<trkpt lat="25.033407" lon="102.668537">
<time>2014-08-04T16:38:44Z</time></trkpt>
<trkpt lat="25.033367" lon="102.668397">
<time>2014-08-04T16:38:45Z</time></trkpt>
<trkpt lat="25.033238" lon="102.667938">
<time>2014-08-04T16:38:46Z</time></trkpt>
<trkpt lat="25.033178" lon="102.667739">
<time>2014-08-04T16:38:47Z</time></trkpt>
<trkpt lat="25.033059" lon="102.66735">
<time>2014-08-04T16:38:48Z</time></trkpt>
<trkpt lat="25.03285" lon="102.666691">
<time>2014-08-04T16:38:49Z</time></trkpt>
<trkpt lat="25.032691" lon="102.666183">
<time>2014-08-04T16:38:50Z</time></trkpt>
<trkpt lat="25.032632" lon="102.665963">
<time>2014-08-04T16:38:51Z</time></trkpt>
<trkpt lat="25.032373" lon="102.665145">
<time>2014-08-04T16:38:52Z</time></trkpt>
<trkpt lat="25.031608" lon="102.662701">
<time>2014-08-04T16:38:53Z</time></trkpt>
<trkpt lat="25.030932" lon="102.660527">
<time>2014-08-04T16:38:54Z</time></trkpt>
<trkpt lat="25.030912" lon="102.660477">
<time>2014-08-04T16:38:55Z</time></trkpt>
<trkpt lat="25.030048" lon="102.657634">
<time>2014-08-04T16:38:56Z</time></trkpt>
<trkpt lat="25.02967" lon="102.656417">
<time>2014-08-04T16:38:57Z</time></trkpt>
<trkpt lat="25.029451" lon="102.655688">
<time>2014-08-04T16:38:58Z</time></trkpt>
<trkpt lat="25.029123" lon="102.654591">
<time>2014-08-04T16:38:59Z</time></trkpt>
<trkpt lat="25.028825" lon="102.653573">
<time>2014-08-04T16:39:00Z</time></trkpt>
<trkpt lat="25.028765" lon="102.653364">
<time>2014-08-04T16:39:01Z</time></trkpt>
<trkpt lat="25.028716" lon="102.653204">
<time>2014-08-04T16:39:02Z</time></trkpt>
<trkpt lat="25.028686" lon="102.653085">
<time>2014-08-04T16:39:03Z</time></trkpt>
<trkpt lat="25.028646" lon="102.652965">
<time>2014-08-04T16:39:04Z</time></trkpt>
<trkpt lat="25.028567" lon="102.652665">
<time>2014-08-04T16:39:05Z</time></trkpt>
<trkpt lat="25.028328" lon="102.651917">
<time>2014-08-04T16:39:06Z</time></trkpt>
<trkpt lat="25.027264" lon="102.648435">
<time>2014-08-04T16:39:07Z</time></trkpt>
<trkpt lat="25.027234" lon="102.648355">
<time>2014-08-04T16:39:08Z</time></trkpt>
<trkpt lat="25.027165" lon="102.648106">
<time>2014-08-04T16:39:09Z</time></trkpt>
<trkpt lat="25.027095" lon="102.647887">
<time>2014-08-04T16:39:10Z</time></trkpt>
<trkpt lat="25.026986" lon="102.647567">
<time>2014-08-04T16:39:11Z</time></trkpt>
<trkpt lat="25.026886" lon="102.647338">
<time>2014-08-04T16:39:12Z</time></trkpt>
<trkpt lat="25.026797" lon="102.647148">
<time>2014-08-04T16:39:13Z</time></trkpt>
<trkpt lat="25.026577" lon="102.646719">
<time>2014-08-04T16:39:14Z</time></trkpt>
<trkpt lat="25.026338" lon="102.6463">
<time>2014-08-04T16:39:15Z</time></trkpt>
<trkpt lat="25.026049" lon="102.645811">
<time>2014-08-04T16:39:16Z</time></trkpt>
<trkpt lat="25.026019" lon="102.645761">
<time>2014-08-04T16:39:17Z</time></trkpt>
<trkpt lat="25.0257" lon="102.645212">
<time>2014-08-04T16:39:18Z</time></trkpt>
<trkpt lat="25.024813" lon="102.643616">
<time>2014-08-04T16:39:19Z</time></trkpt>
<trkpt lat="25.024673" lon="102.643386">
<time>2014-08-04T16:39:20Z</time></trkpt>
<trkpt lat="25.022948" lon="102.640433">
<time>2014-08-04T16:39:21Z</time></trkpt>
<trkpt lat="25.02223" lon="102.639185">
<time>2014-08-04T16:39:22Z</time></trkpt>
<trkpt lat="25.021592" lon="102.638088">
<time>2014-08-04T16:39:23Z</time></trkpt>
<trkpt lat="25.021432" lon="102.637808">
<time>2014-08-04T16:39:24Z</time></trkpt>
<trkpt lat="25.021223" lon="102.637459">
<time>2014-08-04T16:39:25Z</time></trkpt>
<trkpt lat="25.021023" lon="102.63711">
<time>2014-08-04T16:39:26Z</time></trkpt>
<trkpt lat="25.020784" lon="102.63671">
<time>2014-08-04T16:39:27Z</time></trkpt>
<trkpt lat="25.020076" lon="102.635513">
<time>2014-08-04T16:39:28Z</time></trkpt>
<trkpt lat="25.020046" lon="102.635463">
<time>2014-08-04T16:39:29Z</time></trkpt>
<trkpt lat="25.019427" lon="102.634395">
<time>2014-08-04T16:39:30Z</time></trkpt>
<trkpt lat="25.019318" lon="102.634205">
<time>2014-08-04T16:39:31Z</time></trkpt>
<trkpt lat="25.019258" lon="102.634115">
<time>2014-08-04T16:39:32Z</time></trkpt>
<trkpt lat="25.019088" lon="102.633836">
<time>2014-08-04T16:39:33Z</time></trkpt>
<trkpt lat="25.018939" lon="102.633606">
<time>2014-08-04T16:39:34Z</time></trkpt>
<trkpt lat="25.018739" lon="102.633337">
<time>2014-08-04T16:39:35Z</time></trkpt>
<trkpt lat="25.018459" lon="102.632978">
<time>2014-08-04T16:39:36Z</time></trkpt>
<trkpt lat="25.01814" lon="102.632618">
<time>2014-08-04T16:39:37Z</time></trkpt>
<trkpt lat="25.01792" lon="102.632399">
<time>2014-08-04T16:39:38Z</time></trkpt>
<trkpt lat="25.017601" lon="102.632089">
<time>2014-08-04T16:39:39Z</time></trkpt>
<trkpt lat="25.017311" lon="102.63185">
<time>2014-08-04T16:39:40Z</time></trkpt>
<trkpt lat="25.017171" lon="102.63174">
<time>2014-08-04T16:39:41Z</time></trkpt>
<trkpt lat="25.016772" lon="102.63147">
<time>2014-08-04T16:39:42Z</time></trkpt>
<trkpt lat="25.016092" lon="102.631101">
<time>2014-08-04T16:39:43Z</time></trkpt>
<trkpt lat="25.016052" lon="102.631081">
<time>2014-08-04T16:39:44Z</time></trkpt>
<trkpt lat="25.015383" lon="102.630712">
<time>2014-08-04T16:39:45Z</time></trkpt>
<trkpt lat="25.014843" lon="102.630412">
<time>2014-08-04T16:39:46Z</time></trkpt>
<trkpt lat="25.012235" lon="102.628995">
<time>2014-08-04T16:39:47Z</time></trkpt>
<trkpt lat="25.010307" lon="102.627937">
<time>2014-08-04T16:39:48Z</time></trkpt>
<trkpt lat="25.009617" lon="102.627587">
<time>2014-08-04T16:39:49Z</time></trkpt>
<trkpt lat="25.009158" lon="102.627358">
<time>2014-08-04T16:39:50Z</time></trkpt>
<trkpt lat="25.008298" lon="102.627008">
<time>2014-08-04T16:39:51Z</time></trkpt>
<trkpt lat="25.007589" lon="102.626759">
<time>2014-08-04T16:39:52Z</time></trkpt>
<trkpt lat="25.006979" lon="102.626559">
<time>2014-08-04T16:39:53Z</time></trkpt>
<trkpt lat="25.00478" lon="102.62596">
<time>2014-08-04T16:39:54Z</time></trkpt>
<trkpt lat="25.003041" lon="102.625481">
<time>2014-08-04T16:39:55Z</time></trkpt>
<trkpt lat="25.002891" lon="102.625431">
<time>2014-08-04T16:39:56Z</time></trkpt>
<trkpt lat="25.002261" lon="102.625271">
<time>2014-08-04T16:39:57Z</time></trkpt>
<trkpt lat="25.001561" lon="102.625082">
<time>2014-08-04T16:39:58Z</time></trkpt>
<trkpt lat="25.001511" lon="102.625062">
<time>2014-08-04T16:39:59Z</time></trkpt>
<trkpt lat="25.001322" lon="102.625012">
<time>2014-08-04T16:40:00Z</time></trkpt>
<trkpt lat="25.000682" lon="102.624842">
<time>2014-08-04T16:40:01Z</time></trkpt>
<trkpt lat="25.000552" lon="102.624802">
<time>2014-08-04T16:40:02Z</time></trkpt>
<trkpt lat="25.000172" lon="102.624692">
<time>2014-08-04T16:40:03Z</time></trkpt>
<trkpt lat="25.000012" lon="102.624652">
<time>2014-08-04T16:40:04Z</time></trkpt>
<trkpt lat="24.999762" lon="102.624582">
<time>2014-08-04T16:40:05Z</time></trkpt>
<trkpt lat="24.999542" lon="102.624493">
<time>2014-08-04T16:40:06Z</time></trkpt>
<trkpt lat="24.999193" lon="102.624343">
<time>2014-08-04T16:40:07Z</time></trkpt>
<trkpt lat="24.998993" lon="102.624243">
<time>2014-08-04T16:40:08Z</time></trkpt>
<trkpt lat="24.998713" lon="102.624083">
<time>2014-08-04T16:40:09Z</time></trkpt>
<trkpt lat="24.998383" lon="102.623893">
<time>2014-08-04T16:40:10Z</time></trkpt>
<trkpt lat="24.998223" lon="102.623774">
<time>2014-08-04T16:40:11Z</time></trkpt>
<trkpt lat="24.997973" lon="102.623604">
<time>2014-08-04T16:40:12Z</time></trkpt>
<trkpt lat="24.997834" lon="102.623494">
<time>2014-08-04T16:40:13Z</time></trkpt>
<trkpt lat="24.997814" lon="102.623474">
<time>2014-08-04T16:40:14Z</time></trkpt>
<trkpt lat="24.997684" lon="102.623364">
<time>2014-08-04T16:40:15Z</time></trkpt>
<trkpt lat="24.997464" lon="102.623195">
<time>2014-08-04T16:40:16Z</time></trkpt>
<trkpt lat="24.997454" lon="102.623175">
<time>2014-08-04T16:40:17Z</time></trkpt>
<trkpt lat="24.997084" lon="102.622825">
<time>2014-08-04T16:40:18Z</time></trkpt>
<trkpt lat="24.996735" lon="102.622426">
<time>2014-08-04T16:40:19Z</time></trkpt>
<trkpt lat="24.996705" lon="102.622386">
<time>2014-08-04T16:40:20Z</time></trkpt>
<trkpt lat="24.996475" lon="102.622096">
<time>2014-08-04T16:40:21Z</time></trkpt>
<trkpt lat="24.996455" lon="102.622066">
<time>2014-08-04T16:40:22Z</time></trkpt>
<trkpt lat="24.996246" lon="102.621717">
<time>2014-08-04T16:40:23Z</time></trkpt>
<trkpt lat="24.996016" lon="102.621297">
<time>2014-08-04T16:40:24Z</time></trkpt>
<trkpt lat="24.995996" lon="102.621247">
<time>2014-08-04T16:40:25Z</time></trkpt>
<trkpt lat="24.995976" lon="102.621188">
<time>2014-08-04T16:40:26Z</time></trkpt>
<trkpt lat="24.995877" lon="102.620908">
<time>2014-08-04T16:40:27Z</time></trkpt>
<trkpt lat="24.995747" lon="102.620489">
<time>2014-08-04T16:40:28Z</time></trkpt>
<trkpt lat="24.995687" lon="102.620169">
<time>2014-08-04T16:40:29Z</time></trkpt>
<trkpt lat="24.995648" lon="102.619899">
<time>2014-08-04T16:40:30Z</time></trkpt>
<trkpt lat="24.995648" lon="102.619849">
<time>2014-08-04T16:40:31Z</time></trkpt>
<trkpt lat="24.995618" lon="102.61943">
<time>2014-08-04T16:40:32Z</time></trkpt>
<trkpt lat="24.995608" lon="102.6193">
<time>2014-08-04T16:40:33Z</time></trkpt>
<trkpt lat="24.995608" lon="102.61918">
<time>2014-08-04T16:40:34Z</time></trkpt>
<trkpt lat="24.995598" lon="102.618891">
<time>2014-08-04T16:40:35Z</time></trkpt>
<trkpt lat="24.995629" lon="102.618291">
<time>2014-08-04T16:40:36Z</time></trkpt>
<trkpt lat="24.99565" lon="102.617582">
<time>2014-08-04T16:40:37Z</time></trkpt>
<trkpt lat="24.99567" lon="102.617043">
<time>2014-08-04T16:40:38Z</time></trkpt>
<trkpt lat="24.99567" lon="102.617043">
<time>2014-08-04T16:40:39Z</time></trkpt>
<trkpt lat="24.995691" lon="102.616404">
<time>2014-08-04T16:40:40Z</time></trkpt>
<trkpt lat="24.995701" lon="102.616374">
<time>2014-08-04T16:40:41Z</time></trkpt>
<trkpt lat="24.995762" lon="102.614936">
<time>2014-08-04T16:40:42Z</time></trkpt>
<trkpt lat="24.995813" lon="102.613387">
<time>2014-08-04T16:40:43Z</time></trkpt>
<trkpt lat="24.995833" lon="102.612928">
<time>2014-08-04T16:40:44Z</time></trkpt>
<trkpt lat="24.995823" lon="102.612478">
<time>2014-08-04T16:40:45Z</time></trkpt>
<trkpt lat="24.995784" lon="102.612169">
<time>2014-08-04T16:40:46Z</time></trkpt>
<trkpt lat="24.995714" lon="102.611899">
<time>2014-08-04T16:40:47Z</time></trkpt>
<trkpt lat="24.995624" lon="102.611659">
<time>2014-08-04T16:40:48Z</time></trkpt>
<trkpt lat="24.995524" lon="102.611429">
<time>2014-08-04T16:40:49Z</time></trkpt>
<trkpt lat="24.995404" lon="102.61123">
<time>2014-08-04T16:40:50Z</time></trkpt>
<trkpt lat="24.995264" lon="102.61105">
<time>2014-08-04T16:40:51Z</time></trkpt>
<trkpt lat="24.995115" lon="102.61085">
<time>2014-08-04T16:40:52Z</time></trkpt>
<trkpt lat="24.994985" lon="102.61071">
<time>2014-08-04T16:40:53Z</time></trkpt>
<trkpt lat="24.994875" lon="102.61061">
<time>2014-08-04T16:40:54Z</time></trkpt>
<trkpt lat="24.994775" lon="102.61052">
<time>2014-08-04T16:40:55Z</time></trkpt>
<trkpt lat="24.994675" lon="102.61045">
<time>2014-08-04T16:40:56Z</time></trkpt>
<trkpt lat="24.994305" lon="102.610221">
<time>2014-08-04T16:40:57Z</time></trkpt>
<trkpt lat="24.994025" lon="102.610021">
<time>2014-08-04T16:40:58Z</time></trkpt>
<trkpt lat="24.993865" lon="102.609891">
<time>2014-08-04T16:40:59Z</time></trkpt>
<trkpt lat="24.993725" lon="102.609751">
<time>2014-08-04T16:41:00Z</time></trkpt>
<trkpt lat="24.993556" lon="102.609571">
<time>2014-08-04T16:41:01Z</time></trkpt>
<trkpt lat="24.993416" lon="102.609371">
<time>2014-08-04T16:41:02Z</time></trkpt>
<trkpt lat="24.993266" lon="102.609132">
<time>2014-08-04T16:41:03Z</time></trkpt>
<trkpt lat="24.992926" lon="102.608382">
<time>2014-08-04T16:41:04Z</time></trkpt>
<trkpt lat="24.992846" lon="102.608212">
<time>2014-08-04T16:41:05Z</time></trkpt>
<trkpt lat="24.992746" lon="102.608023">
<time>2014-08-04T16:41:06Z</time></trkpt>
<trkpt lat="24.992647" lon="102.607863">
<time>2014-08-04T16:41:07Z</time></trkpt>
<trkpt lat="24.992547" lon="102.607713">
<time>2014-08-04T16:41:08Z</time></trkpt>
<trkpt lat="24.992427" lon="102.607563">
<time>2014-08-04T16:41:09Z</time></trkpt>
<trkpt lat="24.992297" lon="102.607433">
<time>2014-08-04T16:41:10Z</time></trkpt>
<trkpt lat="24.992167" lon="102.607323">
<time>2014-08-04T16:41:11Z</time></trkpt>
<trkpt lat="24.992047" lon="102.607233">
<time>2014-08-04T16:41:12Z</time></trkpt>
<trkpt lat="24.991857" lon="102.607113">
<time>2014-08-04T16:41:13Z</time></trkpt>
<trkpt lat="24.991637" lon="102.606974">
<time>2014-08-04T16:41:14Z</time></trkpt>
<trkpt lat="24.991407" lon="102.606834">
<time>2014-08-04T16:41:15Z</time></trkpt>
<trkpt lat="24.991217" lon="102.606724">
<time>2014-08-04T16:41:16Z</time></trkpt>
<trkpt lat="24.991147" lon="102.606674">
<time>2014-08-04T16:41:17Z</time></trkpt>
<trkpt lat="24.991077" lon="102.606624">
<time>2014-08-04T16:41:18Z</time></trkpt>
<trkpt lat="24.991017" lon="102.606564">
<time>2014-08-04T16:41:19Z</time></trkpt>
<trkpt lat="24.990937" lon="102.606484">
<time>2014-08-04T16:41:20Z</time></trkpt>
<trkpt lat="24.990578" lon="102.606044">
<time>2014-08-04T16:41:21Z</time></trkpt>
<trkpt lat="24.990518" lon="102.605964">
<time>2014-08-04T16:41:22Z</time></trkpt>
<trkpt lat="24.990288" lon="102.605665">
<time>2014-08-04T16:41:23Z</time></trkpt>
<trkpt lat="24.990258" lon="102.605615">
<time>2014-08-04T16:41:24Z</time></trkpt>
<trkpt lat="24.989608" lon="102.604665">
<time>2014-08-04T16:41:25Z</time></trkpt>
<trkpt lat="24.989328" lon="102.604256">
<time>2014-08-04T16:41:26Z</time></trkpt>
<trkpt lat="24.988849" lon="102.603546">
<time>2014-08-04T16:41:27Z</time></trkpt>
<trkpt lat="24.988359" lon="102.602867">
<time>2014-08-04T16:41:28Z</time></trkpt>
<trkpt lat="24.988179" lon="102.602657">
<time>2014-08-04T16:41:29Z</time></trkpt>
<trkpt lat="24.987979" lon="102.602457">
<time>2014-08-04T16:41:30Z</time></trkpt>
<trkpt lat="24.987729" lon="102.602237">
<time>2014-08-04T16:41:31Z</time></trkpt>
<trkpt lat="24.987489" lon="102.602067">
<time>2014-08-04T16:41:32Z</time></trkpt>
<trkpt lat="24.987289" lon="102.601937">
<time>2014-08-04T16:41:33Z</time></trkpt>
<trkpt lat="24.986799" lon="102.601697">
<time>2014-08-04T16:41:34Z</time></trkpt>
<trkpt lat="24.98615" lon="102.601367">
<time>2014-08-04T16:41:35Z</time></trkpt>
<trkpt lat="24.98482" lon="102.600688">
<time>2014-08-04T16:41:36Z</time></trkpt>
<trkpt lat="24.98407" lon="102.600318">
<time>2014-08-04T16:41:37Z</time></trkpt>
<trkpt lat="24.98363" lon="102.600068">
<time>2014-08-04T16:41:38Z</time></trkpt>
<trkpt lat="24.98302" lon="102.599818">
<time>2014-08-04T16:41:39Z</time></trkpt>
<trkpt lat="24.98249" lon="102.599578">
<time>2014-08-04T16:41:40Z</time></trkpt>
<trkpt lat="24.98197" lon="102.599439">
<time>2014-08-04T16:41:41Z</time></trkpt>
<trkpt lat="24.981441" lon="102.599309">
<time>2014-08-04T16:41:42Z</time></trkpt>
<trkpt lat="24.981001" lon="102.599249">
<time>2014-08-04T16:41:43Z</time></trkpt>
<trkpt lat="24.980911" lon="102.599239">
<time>2014-08-04T16:41:44Z</time></trkpt>
<trkpt lat="24.980671" lon="102.599239">
<time>2014-08-04T16:41:45Z</time></trkpt>
<trkpt lat="24.979741" lon="102.599169">
<time>2014-08-04T16:41:46Z</time></trkpt>
<trkpt lat="24.979221" lon="102.599069">
<time>2014-08-04T16:41:47Z</time></trkpt>
<trkpt lat="24.978951" lon="102.599009">
<time>2014-08-04T16:41:48Z</time></trkpt>
<trkpt lat="24.978611" lon="102.598909">
<time>2014-08-04T16:41:49Z</time></trkpt>
<trkpt lat="24.978531" lon="102.598879">
<time>2014-08-04T16:41:50Z</time></trkpt>
<trkpt lat="24.978271" lon="102.598779">
<time>2014-08-04T16:41:51Z</time></trkpt>
<trkpt lat="24.977921" lon="102.598639">
<time>2014-08-04T16:41:52Z</time></trkpt>
<trkpt lat="24.977841" lon="102.598609">
<time>2014-08-04T16:41:53Z</time></trkpt>
<trkpt lat="24.977201" lon="102.598379">
<time>2014-08-04T16:41:54Z</time></trkpt>
<trkpt lat="24.976121" lon="102.597989">
<time>2014-08-04T16:41:55Z</time></trkpt>
<trkpt lat="24.975521" lon="102.597769">
<time>2014-08-04T16:41:56Z</time></trkpt>
<trkpt lat="24.974492" lon="102.59739">
<time>2014-08-04T16:41:57Z</time></trkpt>
<trkpt lat="24.974142" lon="102.59723">
<time>2014-08-04T16:41:58Z</time></trkpt>
<trkpt lat="24.974012" lon="102.59717">
<time>2014-08-04T16:41:59Z</time></trkpt>
<trkpt lat="24.973972" lon="102.59716">
<time>2014-08-04T16:42:00Z</time></trkpt>
<trkpt lat="24.973562" lon="102.59696">
<time>2014-08-04T16:42:01Z</time></trkpt>
<trkpt lat="24.973012" lon="102.59667">
<time>2014-08-04T16:42:02Z</time></trkpt>
<trkpt lat="24.972632" lon="102.59643">
<time>2014-08-04T16:42:03Z</time></trkpt>
<trkpt lat="24.971712" lon="102.59591">
<time>2014-08-04T16:42:04Z</time></trkpt>
<trkpt lat="24.969912" lon="102.5949">
<time>2014-08-04T16:42:05Z</time></trkpt>
<trkpt lat="24.969632" lon="102.59474">
<time>2014-08-04T16:42:06Z</time></trkpt>
<trkpt lat="24.968622" lon="102.594181">
<time>2014-08-04T16:42:07Z</time></trkpt>
<trkpt lat="24.968552" lon="102.594141">
<time>2014-08-04T16:42:08Z</time></trkpt>
<trkpt lat="24.967402" lon="102.593501">
<time>2014-08-04T16:42:09Z</time></trkpt>
<trkpt lat="24.967302" lon="102.593441">
<time>2014-08-04T16:42:10Z</time></trkpt>
<trkpt lat="24.966772" lon="102.593131">
<time>2014-08-04T16:42:11Z</time></trkpt>
<trkpt lat="24.966052" lon="102.592721">
<time>2014-08-04T16:42:12Z</time></trkpt>
<trkpt lat="24.966032" lon="102.592711">
<time>2014-08-04T16:42:13Z</time></trkpt>
<trkpt lat="24.965292" lon="102.592301">
<time>2014-08-04T16:42:14Z</time></trkpt>
<trkpt lat="24.964872" lon="102.592061">
<time>2014-08-04T16:42:15Z</time></trkpt>
<trkpt lat="24.964552" lon="102.591911">
<time>2014-08-04T16:42:16Z</time></trkpt>
<trkpt lat="24.964162" lon="102.591771">
<time>2014-08-04T16:42:17Z</time></trkpt>
<trkpt lat="24.963742" lon="102.591631">
<time>2014-08-04T16:42:18Z</time></trkpt>
<trkpt lat="24.963252" lon="102.591501">
<time>2014-08-04T16:42:19Z</time></trkpt>
<trkpt lat="24.962813" lon="102.591381">
<time>2014-08-04T16:42:20Z</time></trkpt>
<trkpt lat="24.962193" lon="102.591241">
<time>2014-08-04T16:42:21Z</time></trkpt>
<trkpt lat="24.961733" lon="102.591161">
<time>2014-08-04T16:42:22Z</time></trkpt>
<trkpt lat="24.960613" lon="102.590951">
<time>2014-08-04T16:42:23Z</time></trkpt>
<trkpt lat="24.959983" lon="102.590791">
<time>2014-08-04T16:42:24Z</time></trkpt>
<trkpt lat="24.959863" lon="102.590761">
<time>2014-08-04T16:42:25Z</time></trkpt>
<trkpt lat="24.959583" lon="102.590661">
<time>2014-08-04T16:42:26Z</time></trkpt>
<trkpt lat="24.959443" lon="102.590601">
<time>2014-08-04T16:42:27Z</time></trkpt>
<trkpt lat="24.959353" lon="102.590571">
<time>2014-08-04T16:42:28Z</time></trkpt>
<trkpt lat="24.959243" lon="102.590521">
<time>2014-08-04T16:42:29Z</time></trkpt>
<trkpt lat="24.959143" lon="102.590481">
<time>2014-08-04T16:42:30Z</time></trkpt>
<trkpt lat="24.958863" lon="102.590321">
<time>2014-08-04T16:42:31Z</time></trkpt>
<trkpt lat="24.958753" lon="102.590251">
<time>2014-08-04T16:42:32Z</time></trkpt>
<trkpt lat="24.958293" lon="102.590021">
<time>2014-08-04T16:42:33Z</time></trkpt>
<trkpt lat="24.957843" lon="102.589821">
<time>2014-08-04T16:42:34Z</time></trkpt>
<trkpt lat="24.957843" lon="102.589821">
<time>2014-08-04T16:42:35Z</time></trkpt>
<trkpt lat="24.957333" lon="102.589501">
<time>2014-08-04T16:42:36Z</time></trkpt>
<trkpt lat="24.956603" lon="102.589041">
<time>2014-08-04T16:42:37Z</time></trkpt>
<trkpt lat="24.956333" lon="102.588921">
<time>2014-08-04T16:42:38Z</time></trkpt>
<trkpt lat="24.955943" lon="102.588771">
<time>2014-08-04T16:42:39Z</time></trkpt>
<trkpt lat="24.954663" lon="102.588311">
<time>2014-08-04T16:42:40Z</time></trkpt>
<trkpt lat="24.954453" lon="102.588231">
<time>2014-08-04T16:42:41Z</time></trkpt>
<trkpt lat="24.954233" lon="102.588131">
<time>2014-08-04T16:42:42Z</time></trkpt>
<trkpt lat="24.954083" lon="102.588041">
<time>2014-08-04T16:42:43Z</time></trkpt>
<trkpt lat="24.954013" lon="102.587971">
<time>2014-08-04T16:42:44Z</time></trkpt>
<trkpt lat="24.953933" lon="102.587851">
<time>2014-08-04T16:42:45Z</time></trkpt>
<trkpt lat="24.953883" lon="102.587751">
<time>2014-08-04T16:42:46Z</time></trkpt>
<trkpt lat="24.953842" lon="102.587611">
<time>2014-08-04T16:42:47Z</time></trkpt>
<trkpt lat="24.953832" lon="102.587421">
<time>2014-08-04T16:42:48Z</time></trkpt>
<trkpt lat="24.953842" lon="102.587221">
<time>2014-08-04T16:42:49Z</time></trkpt>
<trkpt lat="24.953872" lon="102.586961">
<time>2014-08-04T16:42:50Z</time></trkpt>
<trkpt lat="24.953922" lon="102.586721">
<time>2014-08-04T16:42:51Z</time></trkpt>
<trkpt lat="24.954062" lon="102.586131">
<time>2014-08-04T16:42:52Z</time></trkpt>
<trkpt lat="24.954042" lon="102.586051">
<time>2014-08-04T16:42:53Z</time></trkpt>
<trkpt lat="24.954032" lon="102.585951">
<time>2014-08-04T16:42:54Z</time></trkpt>
<trkpt lat="24.954022" lon="102.585871">
<time>2014-08-04T16:42:55Z</time></trkpt>
<trkpt lat="24.954022" lon="102.585771">
<time>2014-08-04T16:42:56Z</time></trkpt>
<trkpt lat="24.954032" lon="102.585681">
<time>2014-08-04T16:42:57Z</time></trkpt>
<trkpt lat="24.954052" lon="102.585571">
<time>2014-08-04T16:42:58Z</time></trkpt>
<trkpt lat="24.954071" lon="102.585471">
<time>2014-08-04T16:42:59Z</time></trkpt>
<trkpt lat="24.954091" lon="102.585381">
<time>2014-08-04T16:43:00Z</time></trkpt>
<trkpt lat="24.954091" lon="102.585381">
<time>2014-08-04T16:43:01Z</time></trkpt>
<trkpt lat="24.954101" lon="102.585341">
<time>2014-08-04T16:43:02Z</time></trkpt>
<trkpt lat="24.954341" lon="102.58464">
<time>2014-08-04T16:43:03Z</time></trkpt>
<trkpt lat="24.954401" lon="102.58446">
<time>2014-08-04T16:43:04Z</time></trkpt>
<trkpt lat="24.954421" lon="102.58438">
<time>2014-08-04T16:43:05Z</time></trkpt>
<trkpt lat="24.954441" lon="102.58431">
<time>2014-08-04T16:43:06Z</time></trkpt>
<trkpt lat="24.954461" lon="102.58418">
<time>2014-08-04T16:43:07Z</time></trkpt>
<trkpt lat="24.954621" lon="102.58377">
<time>2014-08-04T16:43:08Z</time></trkpt>
<trkpt lat="24.95495" lon="102.58292">
<time>2014-08-04T16:43:09Z</time></trkpt>
<trkpt lat="24.95502" lon="102.58275">
<time>2014-08-04T16:43:10Z</time></trkpt>
<trkpt lat="24.955319" lon="102.582009">
<time>2014-08-04T16:43:11Z</time></trkpt>
<trkpt lat="24.955389" lon="102.581829">
<time>2014-08-04T16:43:12Z</time></trkpt>
<trkpt lat="24.955679" lon="102.581159">
<time>2014-08-04T16:43:13Z</time></trkpt>
<trkpt lat="24.955978" lon="102.580539">
<time>2014-08-04T16:43:14Z</time></trkpt>
<trkpt lat="24.956178" lon="102.580178">
<time>2014-08-04T16:43:15Z</time></trkpt>
<trkpt lat="24.956208" lon="102.580118">
<time>2014-08-04T16:43:16Z</time></trkpt>
<trkpt lat="24.956637" lon="102.579228">
<time>2014-08-04T16:43:17Z</time></trkpt>
<trkpt lat="24.957525" lon="102.577076">
<time>2014-08-04T16:43:18Z</time></trkpt>
<trkpt lat="24.957745" lon="102.576556">
<time>2014-08-04T16:43:19Z</time></trkpt>
<trkpt lat="24.957884" lon="102.576206">
<time>2014-08-04T16:43:20Z</time></trkpt>
<trkpt lat="24.957984" lon="102.575976">
<time>2014-08-04T16:43:21Z</time></trkpt>
<trkpt lat="24.958154" lon="102.575615">
<time>2014-08-04T16:43:22Z</time></trkpt>
<trkpt lat="24.958623" lon="102.574424">
<time>2014-08-04T16:43:23Z</time></trkpt>
<trkpt lat="24.958772" lon="102.573934">
<time>2014-08-04T16:43:24Z</time></trkpt>
<trkpt lat="24.958822" lon="102.573644">
<time>2014-08-04T16:43:25Z</time></trkpt>
<trkpt lat="24.958852" lon="102.573434">
<time>2014-08-04T16:43:26Z</time></trkpt>
<trkpt lat="24.958852" lon="102.573354">
<time>2014-08-04T16:43:27Z</time></trkpt>
<trkpt lat="24.958851" lon="102.573083">
<time>2014-08-04T16:43:28Z</time></trkpt>
<trkpt lat="24.958841" lon="102.572903">
<time>2014-08-04T16:43:29Z</time></trkpt>
<trkpt lat="24.958771" lon="102.572523">
<time>2014-08-04T16:43:30Z</time></trkpt>
<trkpt lat="24.95866" lon="102.572132">
<time>2014-08-04T16:43:31Z</time></trkpt>
<trkpt lat="24.9586" lon="102.571982">
<time>2014-08-04T16:43:32Z</time></trkpt>
<trkpt lat="24.95852" lon="102.571762">
<time>2014-08-04T16:43:33Z</time></trkpt>
<trkpt lat="24.95839" lon="102.571472">
<time>2014-08-04T16:43:34Z</time></trkpt>
<trkpt lat="24.958329" lon="102.571342">
<time>2014-08-04T16:43:35Z</time></trkpt>
<trkpt lat="24.958079" lon="102.570881">
<time>2014-08-04T16:43:36Z</time></trkpt>
<trkpt lat="24.957688" lon="102.57012">
<time>2014-08-04T16:43:37Z</time></trkpt>
<trkpt lat="24.957037" lon="102.568869">
<time>2014-08-04T16:43:38Z</time></trkpt>
<trkpt lat="24.956526" lon="102.567948">
<time>2014-08-04T16:43:39Z</time></trkpt>
<trkpt lat="24.956325" lon="102.567578">
<time>2014-08-04T16:43:40Z</time></trkpt>
<trkpt lat="24.955754" lon="102.566466">
<time>2014-08-04T16:43:41Z</time></trkpt>
<trkpt lat="24.954992" lon="102.565005">
<time>2014-08-04T16:43:42Z</time></trkpt>
<trkpt lat="24.954481" lon="102.564123">
<time>2014-08-04T16:43:43Z</time></trkpt>
<trkpt lat="24.95434" lon="102.563883">
<time>2014-08-04T16:43:44Z</time></trkpt>
<trkpt lat="24.95421" lon="102.563663">
<time>2014-08-04T16:43:45Z</time></trkpt>
<trkpt lat="24.95408" lon="102.563473">
<time>2014-08-04T16:43:46Z</time></trkpt>
<trkpt lat="24.953889" lon="102.563222">
<time>2014-08-04T16:43:47Z</time></trkpt>
<trkpt lat="24.953659" lon="102.563012">
<time>2014-08-04T16:43:48Z</time></trkpt>
<trkpt lat="24.953459" lon="102.562832">
<time>2014-08-04T16:43:49Z</time></trkpt>
<trkpt lat="24.953439" lon="102.562812">
<time>2014-08-04T16:43:50Z</time></trkpt>
<trkpt lat="24.953249" lon="102.562641">
<time>2014-08-04T16:43:51Z</time></trkpt>
<trkpt lat="24.953048" lon="102.562481">
<time>2014-08-04T16:43:52Z</time></trkpt>
<trkpt lat="24.952618" lon="102.562111">
<time>2014-08-04T16:43:53Z</time></trkpt>
<trkpt lat="24.952398" lon="102.56189">
<time>2014-08-04T16:43:54Z</time></trkpt>
<trkpt lat="24.952247" lon="102.56168">
<time>2014-08-04T16:43:55Z</time></trkpt>
<trkpt lat="24.952057" lon="102.56142">
<time>2014-08-04T16:43:56Z</time></trkpt>
<trkpt lat="24.951897" lon="102.561149">
<time>2014-08-04T16:43:57Z</time></trkpt>
<trkpt lat="24.951756" lon="102.560869">
<time>2014-08-04T16:43:58Z</time></trkpt>
<trkpt lat="24.951656" lon="102.560629">
<time>2014-08-04T16:43:59Z</time></trkpt>
<trkpt lat="24.951535" lon="102.560258">
<time>2014-08-04T16:44:00Z</time></trkpt>
<trkpt lat="24.951445" lon="102.559928">
<time>2014-08-04T16:44:01Z</time></trkpt>
<trkpt lat="24.951435" lon="102.559867">
<time>2014-08-04T16:44:02Z</time></trkpt>
<trkpt lat="24.951314" lon="102.559357">
<time>2014-08-04T16:44:03Z</time></trkpt>
<trkpt lat="24.951173" lon="102.558896">
<time>2014-08-04T16:44:04Z</time></trkpt>
<trkpt lat="24.951012" lon="102.558345">
<time>2014-08-04T16:44:05Z</time></trkpt>
<trkpt lat="24.950861" lon="102.557854">
<time>2014-08-04T16:44:06Z</time></trkpt>
<trkpt lat="24.950701" lon="102.557464">
<time>2014-08-04T16:44:07Z</time></trkpt>
<trkpt lat="24.95051" lon="102.557133">
<time>2014-08-04T16:44:08Z</time></trkpt>
<trkpt lat="24.95029" lon="102.556823">
<time>2014-08-04T16:44:09Z</time></trkpt>
<trkpt lat="24.950079" lon="102.556552">
<time>2014-08-04T16:44:10Z</time></trkpt>
<trkpt lat="24.949087" lon="102.55516">
<time>2014-08-04T16:44:11Z</time></trkpt>
<trkpt lat="24.948846" lon="102.554819">
<time>2014-08-04T16:44:12Z</time></trkpt>
<trkpt lat="24.948676" lon="102.554529">
<time>2014-08-04T16:44:13Z</time></trkpt>
<trkpt lat="24.948636" lon="102.554459">
<time>2014-08-04T16:44:14Z</time></trkpt>
<trkpt lat="24.948595" lon="102.554378">
<time>2014-08-04T16:44:15Z</time></trkpt>
<trkpt lat="24.948525" lon="102.554148">
<time>2014-08-04T16:44:16Z</time></trkpt>
<trkpt lat="24.948455" lon="102.553888">
<time>2014-08-04T16:44:17Z</time></trkpt>
<trkpt lat="24.948424" lon="102.553727">
<time>2014-08-04T16:44:18Z</time></trkpt>
<trkpt lat="24.948334" lon="102.553307">
<time>2014-08-04T16:44:19Z</time></trkpt>
<trkpt lat="24.948313" lon="102.553186">
<time>2014-08-04T16:44:20Z</time></trkpt>
<trkpt lat="24.948232" lon="102.552625">
<time>2014-08-04T16:44:21Z</time></trkpt>
<trkpt lat="24.948081" lon="102.551844">
<time>2014-08-04T16:44:22Z</time></trkpt>
<trkpt lat="24.94798" lon="102.551303">
<time>2014-08-04T16:44:23Z</time></trkpt>
<trkpt lat="24.947899" lon="102.550752">
<time>2014-08-04T16:44:24Z</time></trkpt>
<trkpt lat="24.947808" lon="102.550331">
<time>2014-08-04T16:44:25Z</time></trkpt>
<trkpt lat="24.947707" lon="102.54995">
<time>2014-08-04T16:44:26Z</time></trkpt>
<trkpt lat="24.947587" lon="102.54968">
<time>2014-08-04T16:44:27Z</time></trkpt>
<trkpt lat="24.947456" lon="102.549449">
<time>2014-08-04T16:44:28Z</time></trkpt>
<trkpt lat="24.947246" lon="102.549149">
<time>2014-08-04T16:44:29Z</time></trkpt>
<trkpt lat="24.946945" lon="102.548768">
<time>2014-08-04T16:44:30Z</time></trkpt>
<trkpt lat="24.946544" lon="102.548327">
<time>2014-08-04T16:44:31Z</time></trkpt>
<trkpt lat="24.946253" lon="102.547996">
<time>2014-08-04T16:44:32Z</time></trkpt>
<trkpt lat="24.946063" lon="102.547776">
<time>2014-08-04T16:44:33Z</time></trkpt>
<trkpt lat="24.945903" lon="102.547606">
<time>2014-08-04T16:44:34Z</time></trkpt>
<trkpt lat="24.945632" lon="102.547325">
<time>2014-08-04T16:44:35Z</time></trkpt>
<trkpt lat="24.945562" lon="102.547255">
<time>2014-08-04T16:44:36Z</time></trkpt>
<trkpt lat="24.94482" lon="102.546423">
<time>2014-08-04T16:44:37Z</time></trkpt>
<trkpt lat="24.944259" lon="102.545812">
<time>2014-08-04T16:44:38Z</time></trkpt>
<trkpt lat="24.943698" lon="102.54515">
<time>2014-08-04T16:44:39Z</time></trkpt>
<trkpt lat="24.943587" lon="102.54502">
<time>2014-08-04T16:44:40Z</time></trkpt>
<trkpt lat="24.943186" lon="102.544519">
<time>2014-08-04T16:44:41Z</time></trkpt>
<trkpt lat="24.942474" lon="102.543256">
<time>2014-08-04T16:44:42Z</time></trkpt>
<trkpt lat="24.942413" lon="102.543136">
<time>2014-08-04T16:44:43Z</time></trkpt>
<trkpt lat="24.942383" lon="102.543066">
<time>2014-08-04T16:44:44Z</time></trkpt>
<trkpt lat="24.942363" lon="102.543016">
<time>2014-08-04T16:44:45Z</time></trkpt>
<trkpt lat="24.942263" lon="102.542745">
<time>2014-08-04T16:44:46Z</time></trkpt>
<trkpt lat="24.942142" lon="102.542374">
<time>2014-08-04T16:44:47Z</time></trkpt>
<trkpt lat="24.942061" lon="102.542084">
<time>2014-08-04T16:44:48Z</time></trkpt>
<trkpt lat="24.942001" lon="102.541843">
<time>2014-08-04T16:44:49Z</time></trkpt>
<trkpt lat="24.94196" lon="102.541633">
<time>2014-08-04T16:44:50Z</time></trkpt>
<trkpt lat="24.94195" lon="102.541603">
<time>2014-08-04T16:44:51Z</time></trkpt>
<trkpt lat="24.941869" lon="102.541041">
<time>2014-08-04T16:44:52Z</time></trkpt>
<trkpt lat="24.941697" lon="102.540119">
<time>2014-08-04T16:44:53Z</time></trkpt>
<trkpt lat="24.941596" lon="102.539708">
<time>2014-08-04T16:44:54Z</time></trkpt>
<trkpt lat="24.941535" lon="102.539498">
<time>2014-08-04T16:44:55Z</time></trkpt>
<trkpt lat="24.941495" lon="102.539377">
<time>2014-08-04T16:44:56Z</time></trkpt>
<trkpt lat="24.941435" lon="102.539237">
<time>2014-08-04T16:44:57Z</time></trkpt>
<trkpt lat="24.941224" lon="102.538806">
<time>2014-08-04T16:44:58Z</time></trkpt>
<trkpt lat="24.940862" lon="102.538004">
<time>2014-08-04T16:44:59Z</time></trkpt>
<trkpt lat="24.940731" lon="102.537764">
<time>2014-08-04T16:45:00Z</time></trkpt>
<trkpt lat="24.940289" lon="102.536892">
<time>2014-08-04T16:45:01Z</time></trkpt>
<trkpt lat="24.939857" lon="102.536039">
<time>2014-08-04T16:45:02Z</time></trkpt>
<trkpt lat="24.939606" lon="102.535558">
<time>2014-08-04T16:45:03Z</time></trkpt>
<trkpt lat="24.939315" lon="102.534997">
<time>2014-08-04T16:45:04Z</time></trkpt>
<trkpt lat="24.938963" lon="102.534315">
<time>2014-08-04T16:45:05Z</time></trkpt>
<trkpt lat="24.938802" lon="102.533994">
<time>2014-08-04T16:45:06Z</time></trkpt>
<trkpt lat="24.93836" lon="102.533092">
<time>2014-08-04T16:45:07Z</time></trkpt>
<trkpt lat="24.938109" lon="102.532651">
<time>2014-08-04T16:45:08Z</time></trkpt>
<trkpt lat="24.937978" lon="102.53242">
<time>2014-08-04T16:45:09Z</time></trkpt>
<trkpt lat="24.937827" lon="102.532109">
<time>2014-08-04T16:45:10Z</time></trkpt>
<trkpt lat="24.937657" lon="102.531769">
<time>2014-08-04T16:45:11Z</time></trkpt>
<trkpt lat="24.937455" lon="102.531227">
<time>2014-08-04T16:45:12Z</time></trkpt>
<trkpt lat="24.937334" lon="102.530756">
<time>2014-08-04T16:45:13Z</time></trkpt>
<trkpt lat="24.937242" lon="102.530094">
<time>2014-08-04T16:45:14Z</time></trkpt>
<trkpt lat="24.937271" lon="102.529613">
<time>2014-08-04T16:45:15Z</time></trkpt>
<trkpt lat="24.93731" lon="102.529312">
<time>2014-08-04T16:45:16Z</time></trkpt>
<trkpt lat="24.93733" lon="102.529212">
<time>2014-08-04T16:45:17Z</time></trkpt>
<trkpt lat="24.937389" lon="102.528961">
<time>2014-08-04T16:45:18Z</time></trkpt>
<trkpt lat="24.937409" lon="102.528851">
<time>2014-08-04T16:45:19Z</time></trkpt>
<trkpt lat="24.937508" lon="102.52857">
<time>2014-08-04T16:45:20Z</time></trkpt>
<trkpt lat="24.937687" lon="102.528189">
<time>2014-08-04T16:45:21Z</time></trkpt>
<trkpt lat="24.937797" lon="102.527988">
<time>2014-08-04T16:45:22Z</time></trkpt>
<trkpt lat="24.937847" lon="102.527908">
<time>2014-08-04T16:45:23Z</time></trkpt>
<trkpt lat="24.938046" lon="102.527617">
<time>2014-08-04T16:45:24Z</time></trkpt>
<trkpt lat="24.938175" lon="102.527447">
<time>2014-08-04T16:45:25Z</time></trkpt>
<trkpt lat="24.938345" lon="102.527256">
<time>2014-08-04T16:45:26Z</time></trkpt>
<trkpt lat="24.939052" lon="102.526314">
<time>2014-08-04T16:45:27Z</time></trkpt>
<trkpt lat="24.939112" lon="102.526204">
<time>2014-08-04T16:45:28Z</time></trkpt>
<trkpt lat="24.939122" lon="102.526194">
<time>2014-08-04T16:45:29Z</time></trkpt>
<trkpt lat="24.939301" lon="102.525883">
<time>2014-08-04T16:45:30Z</time></trkpt>
<trkpt lat="24.93946" lon="102.525542">
<time>2014-08-04T16:45:31Z</time></trkpt>
<trkpt lat="24.939569" lon="102.525231">
<time>2014-08-04T16:45:32Z</time></trkpt>
<trkpt lat="24.939638" lon="102.52494">
<time>2014-08-04T16:45:33Z</time></trkpt>
<trkpt lat="24.939717" lon="102.524559">
<time>2014-08-04T16:45:34Z</time></trkpt>
<trkpt lat="24.939776" lon="102.524138">
<time>2014-08-04T16:45:35Z</time></trkpt>
<trkpt lat="24.939825" lon="102.523656">
<time>2014-08-04T16:45:36Z</time></trkpt>
<trkpt lat="24.939824" lon="102.523436">
<time>2014-08-04T16:45:37Z</time></trkpt>
<trkpt lat="24.939813" lon="102.523105">
<time>2014-08-04T16:45:38Z</time></trkpt>
<trkpt lat="24.939803" lon="102.522954">
<time>2014-08-04T16:45:39Z</time></trkpt>
<trkpt lat="24.939752" lon="102.522634">
<time>2014-08-04T16:45:40Z</time></trkpt>
<trkpt lat="24.939681" lon="102.522333">
<time>2014-08-04T16:45:41Z</time></trkpt>
<trkpt lat="24.93952" lon="102.521871">
<time>2014-08-04T16:45:42Z</time></trkpt>
<trkpt lat="24.939399" lon="102.52158">
<time>2014-08-04T16:45:43Z</time></trkpt>
<trkpt lat="24.939329" lon="102.52143">
<time>2014-08-04T16:45:44Z</time></trkpt>
<trkpt lat="24.939278" lon="102.52134">
<time>2014-08-04T16:45:45Z</time></trkpt>
<trkpt lat="24.939218" lon="102.521229">
<time>2014-08-04T16:45:46Z</time></trkpt>
<trkpt lat="24.939047" lon="102.520939">
<time>2014-08-04T16:45:47Z</time></trkpt>
<trkpt lat="24.938756" lon="102.520538">
<time>2014-08-04T16:45:48Z</time></trkpt>
<trkpt lat="24.938515" lon="102.520257">
<time>2014-08-04T16:45:49Z</time></trkpt>
<trkpt lat="24.938375" lon="102.520116">
<time>2014-08-04T16:45:50Z</time></trkpt>
<trkpt lat="24.938215" lon="102.519976">
<time>2014-08-04T16:45:51Z</time></trkpt>
<trkpt lat="24.937894" lon="102.519705">
<time>2014-08-04T16:45:52Z</time></trkpt>
<trkpt lat="24.937172" lon="102.519143">
<time>2014-08-04T16:45:53Z</time></trkpt>
<trkpt lat="24.936681" lon="102.518772">
<time>2014-08-04T16:45:54Z</time></trkpt>
<trkpt lat="24.936291" lon="102.518451">
<time>2014-08-04T16:45:55Z</time></trkpt>
<trkpt lat="24.936" lon="102.518221">
<time>2014-08-04T16:45:56Z</time></trkpt>
<trkpt lat="24.93579" lon="102.51805">
<time>2014-08-04T16:45:57Z</time></trkpt>
<trkpt lat="24.935489" lon="102.51783">
<time>2014-08-04T16:45:58Z</time></trkpt>
<trkpt lat="24.935168" lon="102.517539">
<time>2014-08-04T16:45:59Z</time></trkpt>
<trkpt lat="24.934978" lon="102.517378">
<time>2014-08-04T16:46:00Z</time></trkpt>
<trkpt lat="24.934837" lon="102.517238">
<time>2014-08-04T16:46:01Z</time></trkpt>
<trkpt lat="24.934737" lon="102.517118">
<time>2014-08-04T16:46:02Z</time></trkpt>
<trkpt lat="24.934406" lon="102.516726">
<time>2014-08-04T16:46:03Z</time></trkpt>
<trkpt lat="24.934054" lon="102.516205">
<time>2014-08-04T16:46:04Z</time></trkpt>
<trkpt lat="24.933854" lon="102.515914">
<time>2014-08-04T16:46:05Z</time></trkpt>
<trkpt lat="24.933613" lon="102.515543">
<time>2014-08-04T16:46:06Z</time></trkpt>
<trkpt lat="24.93291" lon="102.51447">
<time>2014-08-04T16:46:07Z</time></trkpt>
<trkpt lat="24.932377" lon="102.513707">
<time>2014-08-04T16:46:08Z</time></trkpt>
<trkpt lat="24.931383" lon="102.512223">
<time>2014-08-04T16:46:09Z</time></trkpt>
<trkpt lat="24.930479" lon="102.510849">
<time>2014-08-04T16:46:10Z</time></trkpt>
<trkpt lat="24.930188" lon="102.510357">
<time>2014-08-04T16:46:11Z</time></trkpt>
<trkpt lat="24.929937" lon="102.509916">
<time>2014-08-04T16:46:12Z</time></trkpt>
<trkpt lat="24.929916" lon="102.509876">
<time>2014-08-04T16:46:13Z</time></trkpt>
<trkpt lat="24.929776" lon="102.509575">
<time>2014-08-04T16:46:14Z</time></trkpt>
<trkpt lat="24.929574" lon="102.509103">
<time>2014-08-04T16:46:15Z</time></trkpt>
<trkpt lat="24.929514" lon="102.508943">
<time>2014-08-04T16:46:16Z</time></trkpt>
<trkpt lat="24.929474" lon="102.508853">
<time>2014-08-04T16:46:17Z</time></trkpt>
<trkpt lat="24.929413" lon="102.508652">
<time>2014-08-04T16:46:18Z</time></trkpt>
<trkpt lat="24.929362" lon="102.508482">
<time>2014-08-04T16:46:19Z</time></trkpt>
<trkpt lat="24.929322" lon="102.508271">
<time>2014-08-04T16:46:20Z</time></trkpt>
<trkpt lat="24.929261" lon="102.50805">
<time>2014-08-04T16:46:21Z</time></trkpt>
<trkpt lat="24.92919" lon="102.507759">
<time>2014-08-04T16:46:22Z</time></trkpt>
<trkpt lat="24.929109" lon="102.507398">
<time>2014-08-04T16:46:23Z</time></trkpt>
<trkpt lat="24.929028" lon="102.507057">
<time>2014-08-04T16:46:24Z</time></trkpt>
<trkpt lat="24.928816" lon="102.506144">
<time>2014-08-04T16:46:25Z</time></trkpt>
<trkpt lat="24.928643" lon="102.505362">
<time>2014-08-04T16:46:26Z</time></trkpt>
<trkpt lat="24.928532" lon="102.50487">
<time>2014-08-04T16:46:27Z</time></trkpt>
<trkpt lat="24.9284" lon="102.504299">
<time>2014-08-04T16:46:28Z</time></trkpt>
<trkpt lat="24.92838" lon="102.504188">
<time>2014-08-04T16:46:29Z</time></trkpt>
<trkpt lat="24.928329" lon="102.503968">
<time>2014-08-04T16:46:30Z</time></trkpt>
<trkpt lat="24.928278" lon="102.503737">
<time>2014-08-04T16:46:31Z</time></trkpt>
<trkpt lat="24.928258" lon="102.503657">
<time>2014-08-04T16:46:32Z</time></trkpt>
<trkpt lat="24.928238" lon="102.503556">
<time>2014-08-04T16:46:33Z</time></trkpt>
<trkpt lat="24.928116" lon="102.503045">
<time>2014-08-04T16:46:34Z</time></trkpt>
<trkpt lat="24.928035" lon="102.502653">
<time>2014-08-04T16:46:35Z</time></trkpt>
<trkpt lat="24.927914" lon="102.502092">
<time>2014-08-04T16:46:36Z</time></trkpt>
<trkpt lat="24.927822" lon="102.5016">
<time>2014-08-04T16:46:37Z</time></trkpt>
<trkpt lat="24.927761" lon="102.501159">
<time>2014-08-04T16:46:38Z</time></trkpt>
<trkpt lat="24.92773" lon="102.500838">
<time>2014-08-04T16:46:39Z</time></trkpt>
<trkpt lat="24.927709" lon="102.500517">
<time>2014-08-04T16:46:40Z</time></trkpt>
<trkpt lat="24.927688" lon="102.500136">
<time>2014-08-04T16:46:41Z</time></trkpt>
<trkpt lat="24.927677" lon="102.500025">
<time>2014-08-04T16:46:42Z</time></trkpt>
<trkpt lat="24.927677" lon="102.499965">
<time>2014-08-04T16:46:43Z</time></trkpt>
<trkpt lat="24.927625" lon="102.499233">
<time>2014-08-04T16:46:44Z</time></trkpt>
<trkpt lat="24.927532" lon="102.498149">
<time>2014-08-04T16:46:45Z</time></trkpt>
<trkpt lat="24.92749" lon="102.497658">
<time>2014-08-04T16:46:46Z</time></trkpt>
<trkpt lat="24.927427" lon="102.496665">
<time>2014-08-04T16:46:47Z</time></trkpt>
<trkpt lat="24.927416" lon="102.496364">
<time>2014-08-04T16:46:48Z</time></trkpt>
<trkpt lat="24.927406" lon="102.496203">
<time>2014-08-04T16:46:49Z</time></trkpt>
<trkpt lat="24.927395" lon="102.495932">
<time>2014-08-04T16:46:50Z</time></trkpt>
<trkpt lat="24.927404" lon="102.495712">
<time>2014-08-04T16:46:51Z</time></trkpt>
<trkpt lat="24.927404" lon="102.495491">
<time>2014-08-04T16:46:52Z</time></trkpt>
<trkpt lat="24.927413" lon="102.49518">
<time>2014-08-04T16:46:53Z</time></trkpt>
<trkpt lat="24.927423" lon="102.49508">
<time>2014-08-04T16:46:54Z</time></trkpt>
<trkpt lat="24.927432" lon="102.494969">
<time>2014-08-04T16:46:55Z</time></trkpt>
<trkpt lat="24.927442" lon="102.494889">
<time>2014-08-04T16:46:56Z</time></trkpt>
<trkpt lat="24.927462" lon="102.494819">
<time>2014-08-04T16:46:57Z</time></trkpt>
<trkpt lat="24.927491" lon="102.494688">
<time>2014-08-04T16:46:58Z</time></trkpt>
<trkpt lat="24.927531" lon="102.494548">
<time>2014-08-04T16:46:59Z</time></trkpt>
<trkpt lat="24.92762" lon="102.494277">
<time>2014-08-04T16:47:00Z</time></trkpt>
<trkpt lat="24.92762" lon="102.494267">
<time>2014-08-04T16:47:01Z</time></trkpt>
<trkpt lat="24.927689" lon="102.494066">
<time>2014-08-04T16:47:02Z</time></trkpt>
<trkpt lat="24.927769" lon="102.493886">
<time>2014-08-04T16:47:03Z</time></trkpt>
<trkpt lat="24.927828" lon="102.493725">
<time>2014-08-04T16:47:04Z</time></trkpt>
<trkpt lat="24.927918" lon="102.493545">
<time>2014-08-04T16:47:05Z</time></trkpt>
<trkpt lat="24.928037" lon="102.493314">
<time>2014-08-04T16:47:06Z</time></trkpt>
<trkpt lat="24.928156" lon="102.493083">
<time>2014-08-04T16:47:07Z</time></trkpt>
<trkpt lat="24.928375" lon="102.492542">
<time>2014-08-04T16:47:08Z</time></trkpt>
<trkpt lat="24.928395" lon="102.492502">
<time>2014-08-04T16:47:09Z</time></trkpt>
<trkpt lat="24.928514" lon="102.49216">
<time>2014-08-04T16:47:10Z</time></trkpt>
<trkpt lat="24.928533" lon="102.49211">
<time>2014-08-04T16:47:11Z</time></trkpt>
<trkpt lat="24.928593" lon="102.49193">
<time>2014-08-04T16:47:12Z</time></trkpt>
<trkpt lat="24.928712" lon="102.491649">
<time>2014-08-04T16:47:13Z</time></trkpt>
<trkpt lat="24.928712" lon="102.491639">
<time>2014-08-04T16:47:14Z</time></trkpt>
<trkpt lat="24.928871" lon="102.491288">
<time>2014-08-04T16:47:15Z</time></trkpt>
<trkpt lat="24.92898" lon="102.491037">
<time>2014-08-04T16:47:16Z</time></trkpt>
<trkpt lat="24.929" lon="102.490987">
<time>2014-08-04T16:47:17Z</time></trkpt>
<trkpt lat="24.92909" lon="102.490806">
<time>2014-08-04T16:47:18Z</time></trkpt>
<trkpt lat="24.929179" lon="102.490545">
<time>2014-08-04T16:47:19Z</time></trkpt>
<trkpt lat="24.929258" lon="102.490305">
<time>2014-08-04T16:47:20Z</time></trkpt>
<trkpt lat="24.929337" lon="102.489994">
<time>2014-08-04T16:47:21Z</time></trkpt>
<trkpt lat="24.929406" lon="102.489773">
<time>2014-08-04T16:47:22Z</time></trkpt>
<trkpt lat="24.929436" lon="102.489582">
<time>2014-08-04T16:47:23Z</time></trkpt>
<trkpt lat="24.929446" lon="102.489542">
<time>2014-08-04T16:47:24Z</time></trkpt>
<trkpt lat="24.929465" lon="102.489432">
<time>2014-08-04T16:47:25Z</time></trkpt>
<trkpt lat="24.929573" lon="102.488599">
<time>2014-08-04T16:47:26Z</time></trkpt>
<trkpt lat="24.929573" lon="102.488599">
<time>2014-08-04T16:47:27Z</time></trkpt>
<trkpt lat="24.929583" lon="102.488559">
<time>2014-08-04T16:47:28Z</time></trkpt>
<trkpt lat="24.929612" lon="102.488318">
<time>2014-08-04T16:47:29Z</time></trkpt>
<trkpt lat="24.929749" lon="102.487345">
<time>2014-08-04T16:47:30Z</time></trkpt>
<trkpt lat="24.929778" lon="102.487125">
<time>2014-08-04T16:47:31Z</time></trkpt>
<trkpt lat="24.929827" lon="102.486764">
<time>2014-08-04T16:47:32Z</time></trkpt>
<trkpt lat="24.929857" lon="102.486473">
<time>2014-08-04T16:47:33Z</time></trkpt>
<trkpt lat="24.929857" lon="102.486473">
<time>2014-08-04T16:47:34Z</time></trkpt>
<trkpt lat="24.929866" lon="102.486443">
<time>2014-08-04T16:47:35Z</time></trkpt>
<trkpt lat="24.929866" lon="102.486412">
<time>2014-08-04T16:47:36Z</time></trkpt>
<trkpt lat="24.929896" lon="102.486142">
<time>2014-08-04T16:47:37Z</time></trkpt>
<trkpt lat="24.929935" lon="102.485841">
<time>2014-08-04T16:47:38Z</time></trkpt>
<trkpt lat="24.930013" lon="102.485269">
<time>2014-08-04T16:47:39Z</time></trkpt>
<trkpt lat="24.930072" lon="102.484787">
<time>2014-08-04T16:47:40Z</time></trkpt>
<trkpt lat="24.930072" lon="102.484787">
<time>2014-08-04T16:47:41Z</time></trkpt>
<trkpt lat="24.929971" lon="102.484607">
<time>2014-08-04T16:47:42Z</time></trkpt>
<trkpt lat="24.92982" lon="102.484316">
<time>2014-08-04T16:47:43Z</time></trkpt>
<trkpt lat="24.92975" lon="102.484196">
<time>2014-08-04T16:47:44Z</time></trkpt>
<trkpt lat="24.92969" lon="102.484105">
<time>2014-08-04T16:47:45Z</time></trkpt>
<trkpt lat="24.929629" lon="102.484025">
<time>2014-08-04T16:47:46Z</time></trkpt>
<trkpt lat="24.929529" lon="102.483935">
<time>2014-08-04T16:47:47Z</time></trkpt>
<trkpt lat="24.929349" lon="102.483774">
<time>2014-08-04T16:47:48Z</time></trkpt>
<trkpt lat="24.929238" lon="102.483694">
<time>2014-08-04T16:47:49Z</time></trkpt>
<trkpt lat="24.929068" lon="102.483564">
<time>2014-08-04T16:47:50Z</time></trkpt>
<trkpt lat="24.928908" lon="102.483443">
<time>2014-08-04T16:47:51Z</time></trkpt>
<trkpt lat="24.928768" lon="102.483343">
<time>2014-08-04T16:47:52Z</time></trkpt>
<trkpt lat="24.928457" lon="102.483122">
<time>2014-08-04T16:47:53Z</time></trkpt>
<trkpt lat="24.928357" lon="102.483042">
<time>2014-08-04T16:47:54Z</time></trkpt>
<trkpt lat="24.927986" lon="102.482721">
<time>2014-08-04T16:47:55Z</time></trkpt>
<trkpt lat="24.927725" lon="102.48249">
<time>2014-08-04T16:47:56Z</time></trkpt>
<trkpt lat="24.927555" lon="102.4823">
<time>2014-08-04T16:47:57Z</time></trkpt>
<trkpt lat="24.927444" lon="102.48217">
<time>2014-08-04T16:47:58Z</time></trkpt>
<trkpt lat="24.927224" lon="102.481959">
<time>2014-08-04T16:47:59Z</time></trkpt>
<trkpt lat="24.927113" lon="102.481859">
<time>2014-08-04T16:48:00Z</time></trkpt>
<trkpt lat="24.926953" lon="102.481688">
<time>2014-08-04T16:48:01Z</time></trkpt>
<trkpt lat="24.926833" lon="102.481558">
<time>2014-08-04T16:48:02Z</time></trkpt>
<trkpt lat="24.92599" lon="102.480685">
<time>2014-08-04T16:48:03Z</time></trkpt>
<trkpt lat="24.9258" lon="102.480474">
<time>2014-08-04T16:48:04Z</time></trkpt>
<trkpt lat="24.925739" lon="102.480404">
<time>2014-08-04T16:48:05Z</time></trkpt>
<trkpt lat="24.925679" lon="102.480324">
<time>2014-08-04T16:48:06Z</time></trkpt>
<trkpt lat="24.925619" lon="102.480244">
<time>2014-08-04T16:48:07Z</time></trkpt>
<trkpt lat="24.925559" lon="102.480163">
<time>2014-08-04T16:48:08Z</time></trkpt>
<trkpt lat="24.925549" lon="102.480153">
<time>2014-08-04T16:48:09Z</time></trkpt>
<trkpt lat="24.925499" lon="102.480083">
<time>2014-08-04T16:48:10Z</time></trkpt>
<trkpt lat="24.925438" lon="102.479993">
<time>2014-08-04T16:48:11Z</time></trkpt>
<trkpt lat="24.925368" lon="102.479863">
<time>2014-08-04T16:48:12Z</time></trkpt>
<trkpt lat="24.925227" lon="102.479622">
<time>2014-08-04T16:48:13Z</time></trkpt>
<trkpt lat="24.924745" lon="102.478809">
<time>2014-08-04T16:48:14Z</time></trkpt>
<trkpt lat="24.924725" lon="102.478759">
<time>2014-08-04T16:48:15Z</time></trkpt>
<trkpt lat="24.924564" lon="102.478498">
<time>2014-08-04T16:48:16Z</time></trkpt>
<trkpt lat="24.924102" lon="102.477706">
<time>2014-08-04T16:48:17Z</time></trkpt>
<trkpt lat="24.92372" lon="102.477044">
<time>2014-08-04T16:48:18Z</time></trkpt>
<trkpt lat="24.92365" lon="102.476874">
<time>2014-08-04T16:48:19Z</time></trkpt>
<trkpt lat="24.923589" lon="102.476723">
<time>2014-08-04T16:48:20Z</time></trkpt>
<trkpt lat="24.923559" lon="102.476613">
<time>2014-08-04T16:48:21Z</time></trkpt>
<trkpt lat="24.923529" lon="102.476493">
<time>2014-08-04T16:48:22Z</time></trkpt>
<trkpt lat="24.923528" lon="102.476412">
<time>2014-08-04T16:48:23Z</time></trkpt>
<trkpt lat="24.923528" lon="102.476412">
<time>2014-08-04T16:48:24Z</time></trkpt>
<trkpt lat="24.923528" lon="102.476352">
<time>2014-08-04T16:48:25Z</time></trkpt>
<trkpt lat="24.923568" lon="102.476172">
<time>2014-08-04T16:48:26Z</time></trkpt>
<trkpt lat="24.923637" lon="102.475991">
<time>2014-08-04T16:48:27Z</time></trkpt>
<trkpt lat="24.924124" lon="102.474777">
<time>2014-08-04T16:48:28Z</time></trkpt>
<trkpt lat="24.924243" lon="102.474497">
<time>2014-08-04T16:48:29Z</time></trkpt>
<trkpt lat="24.924372" lon="102.474176">
<time>2014-08-04T16:48:30Z</time></trkpt>
<trkpt lat="24.924491" lon="102.473905">
<time>2014-08-04T16:48:31Z</time></trkpt>
<trkpt lat="24.924531" lon="102.473805">
<time>2014-08-04T16:48:32Z</time></trkpt>
<trkpt lat="24.924571" lon="102.473684">
<time>2014-08-04T16:48:33Z</time></trkpt>
<trkpt lat="24.92463" lon="102.473544">
<time>2014-08-04T16:48:34Z</time></trkpt>
<trkpt lat="24.924749" lon="102.473233">
<time>2014-08-04T16:48:35Z</time></trkpt>
<trkpt lat="24.924898" lon="102.472892">
<time>2014-08-04T16:48:36Z</time></trkpt>
<trkpt lat="24.925117" lon="102.47233">
<time>2014-08-04T16:48:37Z</time></trkpt>
<trkpt lat="24.925117" lon="102.47231">
<time>2014-08-04T16:48:38Z</time></trkpt>
<trkpt lat="24.925355" lon="102.471699">
<time>2014-08-04T16:48:39Z</time></trkpt>
<trkpt lat="24.925564" lon="102.471197">
<time>2014-08-04T16:48:40Z</time></trkpt>
<trkpt lat="24.925802" lon="102.470646">
<time>2014-08-04T16:48:41Z</time></trkpt>
<trkpt lat="24.926051" lon="102.470064">
<time>2014-08-04T16:48:42Z</time></trkpt>
<trkpt lat="24.92615" lon="102.469833">
<time>2014-08-04T16:48:43Z</time></trkpt>
<trkpt lat="24.92622" lon="102.469713">
<time>2014-08-04T16:48:44Z</time></trkpt>
<trkpt lat="24.926349" lon="102.469492">
<time>2014-08-04T16:48:45Z</time></trkpt>
<trkpt lat="24.926379" lon="102.469442">
<time>2014-08-04T16:48:46Z</time></trkpt>
<trkpt lat="24.926449" lon="102.469352">
<time>2014-08-04T16:48:47Z</time></trkpt>
<trkpt lat="24.926508" lon="102.469262">
<time>2014-08-04T16:48:48Z</time></trkpt>
<trkpt lat="24.926568" lon="102.469201">
<time>2014-08-04T16:48:49Z</time></trkpt>
<trkpt lat="24.926758" lon="102.469001">
<time>2014-08-04T16:48:50Z</time></trkpt>
<trkpt lat="24.926817" lon="102.468931">
<time>2014-08-04T16:48:51Z</time></trkpt>
<trkpt lat="24.927007" lon="102.46876">
<time>2014-08-04T16:48:52Z</time></trkpt>
<trkpt lat="24.927097" lon="102.46867">
<time>2014-08-04T16:48:53Z</time></trkpt>
<trkpt lat="24.927216" lon="102.46856">
<time>2014-08-04T16:48:54Z</time></trkpt>
<trkpt lat="24.927496" lon="102.468269">
<time>2014-08-04T16:48:55Z</time></trkpt>
<trkpt lat="24.927795" lon="102.467958">
<time>2014-08-04T16:48:56Z</time></trkpt>
<trkpt lat="24.927815" lon="102.467938">
<time>2014-08-04T16:48:57Z</time></trkpt>
<trkpt lat="24.928144" lon="102.467577">
<time>2014-08-04T16:48:58Z</time></trkpt>
<trkpt lat="24.928243" lon="102.467456">
<time>2014-08-04T16:48:59Z</time></trkpt>
<trkpt lat="24.928303" lon="102.467386">
<time>2014-08-04T16:49:00Z</time></trkpt>
<trkpt lat="24.928373" lon="102.467286">
<time>2014-08-04T16:49:01Z</time></trkpt>
<trkpt lat="24.928423" lon="102.467206">
<time>2014-08-04T16:49:02Z</time></trkpt>
<trkpt lat="24.928463" lon="102.467146">
<time>2014-08-04T16:49:03Z</time></trkpt>
<trkpt lat="24.928482" lon="102.467106">
<time>2014-08-04T16:49:04Z</time></trkpt>
<trkpt lat="24.928502" lon="102.467075">
<time>2014-08-04T16:49:05Z</time></trkpt>
<trkpt lat="24.928542" lon="102.466985">
<time>2014-08-04T16:49:06Z</time></trkpt>
<trkpt lat="24.928572" lon="102.466905">
<time>2014-08-04T16:49:07Z</time></trkpt>
<trkpt lat="24.928602" lon="102.466835">
<time>2014-08-04T16:49:08Z</time></trkpt>
<trkpt lat="24.928612" lon="102.466805">
<time>2014-08-04T16:49:09Z</time></trkpt>
<trkpt lat="24.928622" lon="102.466785">
<time>2014-08-04T16:49:10Z</time></trkpt>
<trkpt lat="24.928661" lon="102.466624">
<time>2014-08-04T16:49:11Z</time></trkpt>
<trkpt lat="24.928681" lon="102.466534">
<time>2014-08-04T16:49:12Z</time></trkpt>
<trkpt lat="24.928701" lon="102.466394">
<time>2014-08-04T16:49:13Z</time></trkpt>
<trkpt lat="24.92873" lon="102.466203">
<time>2014-08-04T16:49:14Z</time></trkpt>
<trkpt lat="24.92874" lon="102.466173">
<time>2014-08-04T16:49:15Z</time></trkpt>
<trkpt lat="24.928759" lon="102.465962">
<time>2014-08-04T16:49:16Z</time></trkpt>
<trkpt lat="24.928789" lon="102.465662">
<time>2014-08-04T16:49:17Z</time></trkpt>
<trkpt lat="24.928838" lon="102.46523">
<time>2014-08-04T16:49:18Z</time></trkpt>
<trkpt lat="24.928847" lon="102.46515">
<time>2014-08-04T16:49:19Z</time></trkpt>
<trkpt lat="24.928857" lon="102.46502">
<time>2014-08-04T16:49:20Z</time></trkpt>
<trkpt lat="24.928867" lon="102.464859">
<time>2014-08-04T16:49:21Z</time></trkpt>
<trkpt lat="24.928896" lon="102.464539">
<time>2014-08-04T16:49:22Z</time></trkpt>
<trkpt lat="24.928915" lon="102.464218">
<time>2014-08-04T16:49:23Z</time></trkpt>
<trkpt lat="24.928934" lon="102.463877">
<time>2014-08-04T16:49:24Z</time></trkpt>
<trkpt lat="24.928944" lon="102.463756">
<time>2014-08-04T16:49:25Z</time></trkpt>
<trkpt lat="24.928953" lon="102.463626">
<time>2014-08-04T16:49:26Z</time></trkpt>
<trkpt lat="24.928963" lon="102.463456">
<time>2014-08-04T16:49:27Z</time></trkpt>
<trkpt lat="24.928983" lon="102.463245">
<time>2014-08-04T16:49:28Z</time></trkpt>
<trkpt lat="24.928982" lon="102.463034">
<time>2014-08-04T16:49:29Z</time></trkpt>
<trkpt lat="24.928992" lon="102.462874">
<time>2014-08-04T16:49:30Z</time></trkpt>
<trkpt lat="24.928981" lon="102.462774">
<time>2014-08-04T16:49:31Z</time></trkpt>
<trkpt lat="24.928981" lon="102.462653">
<time>2014-08-04T16:49:32Z</time></trkpt>
<trkpt lat="24.928971" lon="102.462523">
<time>2014-08-04T16:49:33Z</time></trkpt>
<trkpt lat="24.928961" lon="102.462453">
<time>2014-08-04T16:49:34Z</time></trkpt>
<trkpt lat="24.92895" lon="102.462373">
<time>2014-08-04T16:49:35Z</time></trkpt>
<trkpt lat="24.92893" lon="102.462232">
<time>2014-08-04T16:49:36Z</time></trkpt>
<trkpt lat="24.92893" lon="102.462202">
<time>2014-08-04T16:49:37Z</time></trkpt>
<trkpt lat="24.92891" lon="102.462072">
<time>2014-08-04T16:49:38Z</time></trkpt>
<trkpt lat="24.928889" lon="102.461942">
<time>2014-08-04T16:49:39Z</time></trkpt>
<trkpt lat="24.928879" lon="102.461902">
<time>2014-08-04T16:49:40Z</time></trkpt>
<trkpt lat="24.928859" lon="102.461771">
<time>2014-08-04T16:49:41Z</time></trkpt>
<trkpt lat="24.928839" lon="102.461641">
<time>2014-08-04T16:49:42Z</time></trkpt>
<trkpt lat="24.928798" lon="102.46148">
<time>2014-08-04T16:49:43Z</time></trkpt>
<trkpt lat="24.928687" lon="102.461079">
<time>2014-08-04T16:49:44Z</time></trkpt>
<trkpt lat="24.928606" lon="102.460769">
<time>2014-08-04T16:49:45Z</time></trkpt>
<trkpt lat="24.928586" lon="102.460658">
<time>2014-08-04T16:49:46Z</time></trkpt>
<trkpt lat="24.928556" lon="102.460498">
<time>2014-08-04T16:49:47Z</time></trkpt>
<trkpt lat="24.928475" lon="102.460217">
<time>2014-08-04T16:49:48Z</time></trkpt>
<trkpt lat="24.928475" lon="102.460207">
<time>2014-08-04T16:49:49Z</time></trkpt>
<trkpt lat="24.928374" lon="102.459846">
<time>2014-08-04T16:49:50Z</time></trkpt>
<trkpt lat="24.928334" lon="102.459686">
<time>2014-08-04T16:49:51Z</time></trkpt>
<trkpt lat="24.928293" lon="102.459465">
<time>2014-08-04T16:49:52Z</time></trkpt>
<trkpt lat="24.928222" lon="102.459084">
<time>2014-08-04T16:49:53Z</time></trkpt>
<trkpt lat="24.928192" lon="102.458844">
<time>2014-08-04T16:49:54Z</time></trkpt>
<trkpt lat="24.928191" lon="102.458673">
<time>2014-08-04T16:49:55Z</time></trkpt>
<trkpt lat="24.928201" lon="102.458533">
<time>2014-08-04T16:49:56Z</time></trkpt>
<trkpt lat="24.928231" lon="102.458373">
<time>2014-08-04T16:49:57Z</time></trkpt>
<trkpt lat="24.92826" lon="102.458242">
<time>2014-08-04T16:49:58Z</time></trkpt>
<trkpt lat="24.92829" lon="102.458102">
<time>2014-08-04T16:49:59Z</time></trkpt>
<trkpt lat="24.928349" lon="102.457791">
<time>2014-08-04T16:50:00Z</time></trkpt>
<trkpt lat="24.928409" lon="102.45753">
<time>2014-08-04T16:50:01Z</time></trkpt>
<trkpt lat="24.928458" lon="102.4573">
<time>2014-08-04T16:50:02Z</time></trkpt>
<trkpt lat="24.928488" lon="102.457119">
<time>2014-08-04T16:50:03Z</time></trkpt>
<trkpt lat="24.928527" lon="102.456939">
<time>2014-08-04T16:50:04Z</time></trkpt>
<trkpt lat="24.928547" lon="102.456839">
<time>2014-08-04T16:50:05Z</time></trkpt>
<trkpt lat="24.928587" lon="102.456698">
<time>2014-08-04T16:50:06Z</time></trkpt>
<trkpt lat="24.928646" lon="102.456408">
<time>2014-08-04T16:50:07Z</time></trkpt>
<trkpt lat="24.928686" lon="102.456267">
<time>2014-08-04T16:50:08Z</time></trkpt>
<trkpt lat="24.928735" lon="102.456007">
<time>2014-08-04T16:50:09Z</time></trkpt>
<trkpt lat="24.928804" lon="102.455676">
<time>2014-08-04T16:50:10Z</time></trkpt>
<trkpt lat="24.928834" lon="102.455475">
<time>2014-08-04T16:50:11Z</time></trkpt>
<trkpt lat="24.928893" lon="102.455225">
<time>2014-08-04T16:50:12Z</time></trkpt>
<trkpt lat="24.928933" lon="102.455024">
<time>2014-08-04T16:50:13Z</time></trkpt>
<trkpt lat="24.92918" lon="102.453841">
<time>2014-08-04T16:50:14Z</time></trkpt>
<trkpt lat="24.92921" lon="102.453741">
<time>2014-08-04T16:50:15Z</time></trkpt>
<trkpt lat="24.929299" lon="102.4533">
<time>2014-08-04T16:50:16Z</time></trkpt>
<trkpt lat="24.929348" lon="102.452879">
<time>2014-08-04T16:50:17Z</time></trkpt>
<trkpt lat="24.929348" lon="102.452739">
<time>2014-08-04T16:50:18Z</time></trkpt>
<trkpt lat="24.929338" lon="102.452639">
<time>2014-08-04T16:50:19Z</time></trkpt>
<trkpt lat="24.929287" lon="102.452448">
<time>2014-08-04T16:50:20Z</time></trkpt>
<trkpt lat="24.929217" lon="102.452258">
<time>2014-08-04T16:50:21Z</time></trkpt>
<trkpt lat="24.928905" lon="102.451656">
<time>2014-08-04T16:50:22Z</time></trkpt>
<trkpt lat="24.928233" lon="102.450313">
<time>2014-08-04T16:50:23Z</time></trkpt>
<trkpt lat="24.928102" lon="102.449913">
<time>2014-08-04T16:50:24Z</time></trkpt>
<trkpt lat="24.927991" lon="102.449271">
<time>2014-08-04T16:50:25Z</time></trkpt>
<trkpt lat="24.92798" lon="102.449181">
<time>2014-08-04T16:50:26Z</time></trkpt>
<trkpt lat="24.92796" lon="102.4489">
<time>2014-08-04T16:50:27Z</time></trkpt>
<trkpt lat="24.927969" lon="102.44874">
<time>2014-08-04T16:50:28Z</time></trkpt>
<trkpt lat="24.928009" lon="102.44854">
<time>2014-08-04T16:50:29Z</time></trkpt>
<trkpt lat="24.928069" lon="102.448329">
<time>2014-08-04T16:50:30Z</time></trkpt>
<trkpt lat="24.928138" lon="102.448189">
<time>2014-08-04T16:50:31Z</time></trkpt>
<trkpt lat="24.928238" lon="102.448079">
<time>2014-08-04T16:50:32Z</time></trkpt>
<trkpt lat="24.928368" lon="102.447948">
<time>2014-08-04T16:50:33Z</time></trkpt>
<trkpt lat="24.928567" lon="102.447818">
<time>2014-08-04T16:50:34Z</time></trkpt>
<trkpt lat="24.928787" lon="102.447698">
<time>2014-08-04T16:50:35Z</time></trkpt>
<trkpt lat="24.930185" lon="102.446906">
<time>2014-08-04T16:50:36Z</time></trkpt>
<trkpt lat="24.930615" lon="102.446665">
<time>2014-08-04T16:50:37Z</time></trkpt>
<trkpt lat="24.930775" lon="102.446505">
<time>2014-08-04T16:50:38Z</time></trkpt>
<trkpt lat="24.930934" lon="102.446285">
<time>2014-08-04T16:50:39Z</time></trkpt>
<trkpt lat="24.931004" lon="102.446074">
<time>2014-08-04T16:50:40Z</time></trkpt>
<trkpt lat="24.931053" lon="102.445874">
<time>2014-08-04T16:50:41Z</time></trkpt>
<trkpt lat="24.931072" lon="102.445042">
<time>2014-08-04T16:50:42Z</time></trkpt>
<trkpt lat="24.931041" lon="102.444681">
<time>2014-08-04T16:50:43Z</time></trkpt>
<trkpt lat="24.931031" lon="102.444511">
<time>2014-08-04T16:50:44Z</time></trkpt>
<trkpt lat="24.930989" lon="102.44384">
<time>2014-08-04T16:50:45Z</time></trkpt>
<trkpt lat="24.930989" lon="102.44376">
<time>2014-08-04T16:50:46Z</time></trkpt>
<trkpt lat="24.930969" lon="102.443609">
<time>2014-08-04T16:50:47Z</time></trkpt>
<trkpt lat="24.930929" lon="102.443389">
<time>2014-08-04T16:50:48Z</time></trkpt>
<trkpt lat="24.930888" lon="102.443168">
<time>2014-08-04T16:50:49Z</time></trkpt>
<trkpt lat="24.930828" lon="102.442938">
<time>2014-08-04T16:50:50Z</time></trkpt>
<trkpt lat="24.930777" lon="102.442717">
<time>2014-08-04T16:50:51Z</time></trkpt>
<trkpt lat="24.930637" lon="102.442217">
<time>2014-08-04T16:50:52Z</time></trkpt>
<trkpt lat="24.930274" lon="102.440904">
<time>2014-08-04T16:50:53Z</time></trkpt>
<trkpt lat="24.930184" lon="102.440593">
<time>2014-08-04T16:50:54Z</time></trkpt>
<trkpt lat="24.930143" lon="102.440453">
<time>2014-08-04T16:50:55Z</time></trkpt>
<trkpt lat="24.930103" lon="102.440333">
<time>2014-08-04T16:50:56Z</time></trkpt>
<trkpt lat="24.929922" lon="102.439652">
<time>2014-08-04T16:50:57Z</time></trkpt>
<trkpt lat="24.929862" lon="102.439411">
<time>2014-08-04T16:50:58Z</time></trkpt>
<trkpt lat="24.929781" lon="102.439101">
<time>2014-08-04T16:50:59Z</time></trkpt>
<trkpt lat="24.929731" lon="102.4389">
<time>2014-08-04T16:51:00Z</time></trkpt>
<trkpt lat="24.929681" lon="102.43874">
<time>2014-08-04T16:51:01Z</time></trkpt>
<trkpt lat="24.92962" lon="102.43846">
<time>2014-08-04T16:51:02Z</time></trkpt>
<trkpt lat="24.929539" lon="102.437839">
<time>2014-08-04T16:51:03Z</time></trkpt>
<trkpt lat="24.929529" lon="102.437728">
<time>2014-08-04T16:51:04Z</time></trkpt>
<trkpt lat="24.929448" lon="102.436927">
<time>2014-08-04T16:51:05Z</time></trkpt>
<trkpt lat="24.929366" lon="102.435795">
<time>2014-08-04T16:51:06Z</time></trkpt>
<trkpt lat="24.929254" lon="102.434423">
<time>2014-08-04T16:51:07Z</time></trkpt>
<trkpt lat="24.929173" lon="102.433602">
<time>2014-08-04T16:51:08Z</time></trkpt>
<trkpt lat="24.929152" lon="102.433411">
<time>2014-08-04T16:51:09Z</time></trkpt>
<trkpt lat="24.929132" lon="102.433181">
<time>2014-08-04T16:51:10Z</time></trkpt>
<trkpt lat="24.929101" lon="102.43281">
<time>2014-08-04T16:51:11Z</time></trkpt>
<trkpt lat="24.929081" lon="102.43255">
<time>2014-08-04T16:51:12Z</time></trkpt>
<trkpt lat="24.92904" lon="102.432119">
<time>2014-08-04T16:51:13Z</time></trkpt>
<trkpt lat="24.92899" lon="102.431519">
<time>2014-08-04T16:51:14Z</time></trkpt>
<trkpt lat="24.928969" lon="102.431218">
<time>2014-08-04T16:51:15Z</time></trkpt>
<trkpt lat="24.928949" lon="102.430968">
<time>2014-08-04T16:51:16Z</time></trkpt>
<trkpt lat="24.928929" lon="102.430818">
<time>2014-08-04T16:51:17Z</time></trkpt>
<trkpt lat="24.928918" lon="102.430597">
<time>2014-08-04T16:51:18Z</time></trkpt>
<trkpt lat="24.928928" lon="102.430367">
<time>2014-08-04T16:51:19Z</time></trkpt>
<trkpt lat="24.928928" lon="102.430207">
<time>2014-08-04T16:51:20Z</time></trkpt>
<trkpt lat="24.928938" lon="102.430066">
<time>2014-08-04T16:51:21Z</time></trkpt>
<trkpt lat="24.928978" lon="102.429916">
<time>2014-08-04T16:51:22Z</time></trkpt>
<trkpt lat="24.929007" lon="102.429756">
<time>2014-08-04T16:51:23Z</time></trkpt>
<trkpt lat="24.929037" lon="102.429616">
<time>2014-08-04T16:51:24Z</time></trkpt>
<trkpt lat="24.929087" lon="102.429416">
<time>2014-08-04T16:51:25Z</time></trkpt>
<trkpt lat="24.929107" lon="102.429315">
<time>2014-08-04T16:51:26Z</time></trkpt>
<trkpt lat="24.929127" lon="102.429245">
<time>2014-08-04T16:51:27Z</time></trkpt>
<trkpt lat="24.929196" lon="102.428975">
<time>2014-08-04T16:51:28Z</time></trkpt>
<trkpt lat="24.929316" lon="102.428594">
<time>2014-08-04T16:51:29Z</time></trkpt>
<trkpt lat="24.929415" lon="102.428284">
<time>2014-08-04T16:51:30Z</time></trkpt>
<trkpt lat="24.929475" lon="102.428054">
<time>2014-08-04T16:51:31Z</time></trkpt>
<trkpt lat="24.929515" lon="102.427894">
<time>2014-08-04T16:51:32Z</time></trkpt>
<trkpt lat="24.929545" lon="102.427763">
<time>2014-08-04T16:51:33Z</time></trkpt>
<trkpt lat="24.929565" lon="102.427643">
<time>2014-08-04T16:51:34Z</time></trkpt>
<trkpt lat="24.929584" lon="102.427533">
<time>2014-08-04T16:51:35Z</time></trkpt>
<trkpt lat="24.929584" lon="102.427413">
<time>2014-08-04T16:51:36Z</time></trkpt>
<trkpt lat="24.929574" lon="102.427243">
<time>2014-08-04T16:51:37Z</time></trkpt>
<trkpt lat="24.929574" lon="102.427103">
<time>2014-08-04T16:51:38Z</time></trkpt>
<trkpt lat="24.929564" lon="102.426962">
<time>2014-08-04T16:51:39Z</time></trkpt>
<trkpt lat="24.929544" lon="102.426802">
<time>2014-08-04T16:51:40Z</time></trkpt>
<trkpt lat="24.929513" lon="102.426652">
<time>2014-08-04T16:51:41Z</time></trkpt>
<trkpt lat="24.929493" lon="102.426482">
<time>2014-08-04T16:51:42Z</time></trkpt>
<trkpt lat="24.929463" lon="102.426362">
<time>2014-08-04T16:51:43Z</time></trkpt>
<trkpt lat="24.929433" lon="102.426191">
<time>2014-08-04T16:51:44Z</time></trkpt>
<trkpt lat="24.929393" lon="102.425911">
<time>2014-08-04T16:51:45Z</time></trkpt>
<trkpt lat="24.929322" lon="102.425541">
<time>2014-08-04T16:51:46Z</time></trkpt>
<trkpt lat="24.929282" lon="102.42534">
<time>2014-08-04T16:51:47Z</time></trkpt>
<trkpt lat="24.929272" lon="102.42518">
<time>2014-08-04T16:51:48Z</time></trkpt>
<trkpt lat="24.929242" lon="102.42497">
<time>2014-08-04T16:51:49Z</time></trkpt>
<trkpt lat="24.929231" lon="102.42482">
<time>2014-08-04T16:51:50Z</time></trkpt>
<trkpt lat="24.929231" lon="102.42468">
<time>2014-08-04T16:51:51Z</time></trkpt>
<trkpt lat="24.929231" lon="102.42457">
<time>2014-08-04T16:51:52Z</time></trkpt>
<trkpt lat="24.929221" lon="102.424469">
<time>2014-08-04T16:51:53Z</time></trkpt>
<trkpt lat="24.929231" lon="102.424339">
<time>2014-08-04T16:51:54Z</time></trkpt>
<trkpt lat="24.929231" lon="102.424209">
<time>2014-08-04T16:51:55Z</time></trkpt>
<trkpt lat="24.929241" lon="102.424109">
<time>2014-08-04T16:51:56Z</time></trkpt>
<trkpt lat="24.92929" lon="102.423769">
<time>2014-08-04T16:51:57Z</time></trkpt>
<trkpt lat="24.9293" lon="102.423598">
<time>2014-08-04T16:51:58Z</time></trkpt>
<trkpt lat="24.92932" lon="102.423408">
<time>2014-08-04T16:51:59Z</time></trkpt>
<trkpt lat="24.92932" lon="102.423368">
<time>2014-08-04T16:52:00Z</time></trkpt>
<trkpt lat="24.92936" lon="102.423158">
<time>2014-08-04T16:52:01Z</time></trkpt>
<trkpt lat="24.929429" lon="102.422958">
<time>2014-08-04T16:52:02Z</time></trkpt>
<trkpt lat="24.929579" lon="102.422688">
<time>2014-08-04T16:52:03Z</time></trkpt>
<trkpt lat="24.929769" lon="102.422417">
<time>2014-08-04T16:52:04Z</time></trkpt>
<trkpt lat="24.930029" lon="102.422077">
<time>2014-08-04T16:52:05Z</time></trkpt>
<trkpt lat="24.930348" lon="102.421616">
<time>2014-08-04T16:52:06Z</time></trkpt>
<trkpt lat="24.930458" lon="102.421446">
<time>2014-08-04T16:52:07Z</time></trkpt>
<trkpt lat="24.930558" lon="102.421306">
<time>2014-08-04T16:52:08Z</time></trkpt>
<trkpt lat="24.930767" lon="102.421006">
<time>2014-08-04T16:52:09Z</time></trkpt>
<trkpt lat="24.930937" lon="102.420776">
<time>2014-08-04T16:52:10Z</time></trkpt>
<trkpt lat="24.931047" lon="102.420615">
<time>2014-08-04T16:52:11Z</time></trkpt>
<trkpt lat="24.931257" lon="102.420325">
<time>2014-08-04T16:52:12Z</time></trkpt>
<trkpt lat="24.931456" lon="102.420035">
<time>2014-08-04T16:52:13Z</time></trkpt>
<trkpt lat="24.931526" lon="102.419905">
<time>2014-08-04T16:52:14Z</time></trkpt>
<trkpt lat="24.931576" lon="102.419805">
<time>2014-08-04T16:52:15Z</time></trkpt>
<trkpt lat="24.931626" lon="102.419675">
<time>2014-08-04T16:52:16Z</time></trkpt>
<trkpt lat="24.931656" lon="102.419574">
<time>2014-08-04T16:52:17Z</time></trkpt>
<trkpt lat="24.931676" lon="102.419444">
<time>2014-08-04T16:52:18Z</time></trkpt>
<trkpt lat="24.931676" lon="102.419374">
<time>2014-08-04T16:52:19Z</time></trkpt>
<trkpt lat="24.931676" lon="102.419204">
<time>2014-08-04T16:52:20Z</time></trkpt>
<trkpt lat="24.931605" lon="102.418794">
<time>2014-08-04T16:52:21Z</time></trkpt>
<trkpt lat="24.931575" lon="102.418714">
<time>2014-08-04T16:52:22Z</time></trkpt>
<trkpt lat="24.931465" lon="102.418433">
<time>2014-08-04T16:52:23Z</time></trkpt>
<trkpt lat="24.931335" lon="102.418163">
<time>2014-08-04T16:52:24Z</time></trkpt>
<trkpt lat="24.931265" lon="102.418033">
<time>2014-08-04T16:52:25Z</time></trkpt>
<trkpt lat="24.931205" lon="102.417903">
<time>2014-08-04T16:52:26Z</time></trkpt>
<trkpt lat="24.931075" lon="102.417663">
<time>2014-08-04T16:52:27Z</time></trkpt>
<trkpt lat="24.930954" lon="102.417443">
<time>2014-08-04T16:52:28Z</time></trkpt>
<trkpt lat="24.930684" lon="102.416952">
<time>2014-08-04T16:52:29Z</time></trkpt>
<trkpt lat="24.930244" lon="102.416102">
<time>2014-08-04T16:52:30Z</time></trkpt>
<trkpt lat="24.930153" lon="102.415942">
<time>2014-08-04T16:52:31Z</time></trkpt>
<trkpt lat="24.930103" lon="102.415841">
<time>2014-08-04T16:52:32Z</time></trkpt>
<trkpt lat="24.930083" lon="102.415811">
<time>2014-08-04T16:52:33Z</time></trkpt>
<trkpt lat="24.930013" lon="102.415691">
<time>2014-08-04T16:52:34Z</time></trkpt>
<trkpt lat="24.929863" lon="102.415381">
<time>2014-08-04T16:52:35Z</time></trkpt>
<trkpt lat="24.929593" lon="102.414851">
<time>2014-08-04T16:52:36Z</time></trkpt>
<trkpt lat="24.929052" lon="102.41379">
<time>2014-08-04T16:52:37Z</time></trkpt>
<trkpt lat="24.928892" lon="102.41348">
<time>2014-08-04T16:52:38Z</time></trkpt>
<trkpt lat="24.928792" lon="102.41329">
<time>2014-08-04T16:52:39Z</time></trkpt>
<trkpt lat="24.928572" lon="102.41284">
<time>2014-08-04T16:52:40Z</time></trkpt>
<trkpt lat="24.928251" lon="102.412249">
<time>2014-08-04T16:52:41Z</time></trkpt>
<trkpt lat="24.928081" lon="102.411839">
<time>2014-08-04T16:52:42Z</time></trkpt>
<trkpt lat="24.928021" lon="102.411589">
<time>2014-08-04T16:52:43Z</time></trkpt>
<trkpt lat="24.928011" lon="102.411359">
<time>2014-08-04T16:52:44Z</time></trkpt>
<trkpt lat="24.928031" lon="102.411129">
<time>2014-08-04T16:52:45Z</time></trkpt>
<trkpt lat="24.928081" lon="102.410899">
<time>2014-08-04T16:52:46Z</time></trkpt>
<trkpt lat="24.928111" lon="102.410829">
<time>2014-08-04T16:52:47Z</time></trkpt>
<trkpt lat="24.928111" lon="102.410829">
<time>2014-08-04T16:52:48Z</time></trkpt>
<trkpt lat="24.928041" lon="102.410658">
<time>2014-08-04T16:52:49Z</time></trkpt>
<trkpt lat="24.928001" lon="102.410578">
<time>2014-08-04T16:52:50Z</time></trkpt>
<trkpt lat="24.928001" lon="102.410578">
<time>2014-08-04T16:52:51Z</time></trkpt>
<trkpt lat="24.92839" lon="102.409668">
<time>2014-08-04T16:52:52Z</time></trkpt>
<trkpt lat="24.92856" lon="102.409328">
<time>2014-08-04T16:52:53Z</time></trkpt>
<trkpt lat="24.9292" lon="102.408267">
<time>2014-08-04T16:52:54Z</time></trkpt>
<trkpt lat="24.929619" lon="102.407407">
<time>2014-08-04T16:52:55Z</time></trkpt>
<trkpt lat="24.930049" lon="102.406447">
<time>2014-08-04T16:52:56Z</time></trkpt>
<trkpt lat="24.930249" lon="102.405757">
<time>2014-08-04T16:52:57Z</time></trkpt>
<trkpt lat="24.930369" lon="102.405127">
<time>2014-08-04T16:52:58Z</time></trkpt>
<trkpt lat="24.930728" lon="102.403166">
<time>2014-08-04T16:52:59Z</time></trkpt>
<trkpt lat="24.931418" lon="102.398836">
<time>2014-08-04T16:53:00Z</time></trkpt>
<trkpt lat="24.931498" lon="102.398286">
<time>2014-08-04T16:53:01Z</time></trkpt>
<trkpt lat="24.931598" lon="102.397496">
<time>2014-08-04T16:53:02Z</time></trkpt>
<trkpt lat="24.931798" lon="102.395997">
<time>2014-08-04T16:53:03Z</time></trkpt>
<trkpt lat="24.931769" lon="102.395227">
<time>2014-08-04T16:53:04Z</time></trkpt>
<trkpt lat="24.931689" lon="102.394317">
<time>2014-08-04T16:53:05Z</time></trkpt>
<trkpt lat="24.931359" lon="102.393037">
<time>2014-08-04T16:53:06Z</time></trkpt>
<trkpt lat="24.93107" lon="102.391898">
<time>2014-08-04T16:53:07Z</time></trkpt>
<trkpt lat="24.93103" lon="102.391208">
<time>2014-08-04T16:53:08Z</time></trkpt>
<trkpt lat="24.93109" lon="102.390758">
<time>2014-08-04T16:53:09Z</time></trkpt>
<trkpt lat="24.9312" lon="102.390469">
<time>2014-08-04T16:53:10Z</time></trkpt>
<trkpt lat="24.931311" lon="102.389979">
<time>2014-08-04T16:53:11Z</time></trkpt>
<trkpt lat="24.931441" lon="102.389559">
<time>2014-08-04T16:53:12Z</time></trkpt>
<trkpt lat="24.932032" lon="102.38754">
<time>2014-08-04T16:53:13Z</time></trkpt>
<trkpt lat="24.932132" lon="102.38714">
<time>2014-08-04T16:53:14Z</time></trkpt>
<trkpt lat="24.932152" lon="102.38709">
<time>2014-08-04T16:53:15Z</time></trkpt>
<trkpt lat="24.932202" lon="102.386851">
<time>2014-08-04T16:53:16Z</time></trkpt>
<trkpt lat="24.932312" lon="102.386471">
<time>2014-08-04T16:53:17Z</time></trkpt>
<trkpt lat="24.932362" lon="102.386271">
<time>2014-08-04T16:53:18Z</time></trkpt>
<trkpt lat="24.932473" lon="102.385821">
<time>2014-08-04T16:53:19Z</time></trkpt>
<trkpt lat="24.932683" lon="102.385082">
<time>2014-08-04T16:53:20Z</time></trkpt>
<trkpt lat="24.932733" lon="102.384892">
<time>2014-08-04T16:53:21Z</time></trkpt>
<trkpt lat="24.932793" lon="102.384652">
<time>2014-08-04T16:53:22Z</time></trkpt>
<trkpt lat="24.932853" lon="102.384502">
<time>2014-08-04T16:53:23Z</time></trkpt>
<trkpt lat="24.933054" lon="102.383793">
<time>2014-08-04T16:53:24Z</time></trkpt>
<trkpt lat="24.933295" lon="102.382913">
<time>2014-08-04T16:53:25Z</time></trkpt>
<trkpt lat="24.933315" lon="102.382823">
<time>2014-08-04T16:53:26Z</time></trkpt>
<trkpt lat="24.933435" lon="102.382314">
<time>2014-08-04T16:53:27Z</time></trkpt>
<trkpt lat="24.933575" lon="102.381854">
<time>2014-08-04T16:53:28Z</time></trkpt>
<trkpt lat="24.933656" lon="102.381554">
<time>2014-08-04T16:53:29Z</time></trkpt>
<trkpt lat="24.933746" lon="102.381235">
<time>2014-08-04T16:53:30Z</time></trkpt>
<trkpt lat="24.933816" lon="102.380995">
<time>2014-08-04T16:53:31Z</time></trkpt>
<trkpt lat="24.933876" lon="102.380745">
<time>2014-08-04T16:53:32Z</time></trkpt>
<trkpt lat="24.933956" lon="102.380465">
<time>2014-08-04T16:53:33Z</time></trkpt>
<trkpt lat="24.934006" lon="102.380285">
<time>2014-08-04T16:53:34Z</time></trkpt>
<trkpt lat="24.934087" lon="102.380066">
<time>2014-08-04T16:53:35Z</time></trkpt>
<trkpt lat="24.934207" lon="102.379676">
<time>2014-08-04T16:53:36Z</time></trkpt>
<trkpt lat="24.934287" lon="102.379456">
<time>2014-08-04T16:53:37Z</time></trkpt>
<trkpt lat="24.934477" lon="102.379057">
<time>2014-08-04T16:53:38Z</time></trkpt>
<trkpt lat="24.934648" lon="102.378727">
<time>2014-08-04T16:53:39Z</time></trkpt>
<trkpt lat="24.934668" lon="102.378707">
<time>2014-08-04T16:53:40Z</time></trkpt>
<trkpt lat="24.934788" lon="102.378527">
<time>2014-08-04T16:53:41Z</time></trkpt>
<trkpt lat="24.934898" lon="102.378367">
<time>2014-08-04T16:53:42Z</time></trkpt>
<trkpt lat="24.934998" lon="102.378227">
<time>2014-08-04T16:53:43Z</time></trkpt>
<trkpt lat="24.935068" lon="102.378137">
<time>2014-08-04T16:53:44Z</time></trkpt>
<trkpt lat="24.935208" lon="102.377958">
<time>2014-08-04T16:53:45Z</time></trkpt>
<trkpt lat="24.935339" lon="102.377778">
<time>2014-08-04T16:53:46Z</time></trkpt>
<trkpt lat="24.935459" lon="102.377628">
<time>2014-08-04T16:53:47Z</time></trkpt>
<trkpt lat="24.935539" lon="102.377528">
<time>2014-08-04T16:53:48Z</time></trkpt>
<trkpt lat="24.935609" lon="102.377438">
<time>2014-08-04T16:53:49Z</time></trkpt>
<trkpt lat="24.935669" lon="102.377368">
<time>2014-08-04T16:53:50Z</time></trkpt>
<trkpt lat="24.935739" lon="102.377268">
<time>2014-08-04T16:53:51Z</time></trkpt>
<trkpt lat="24.935829" lon="102.377178">
<time>2014-08-04T16:53:52Z</time></trkpt>
<trkpt lat="24.935899" lon="102.377098">
<time>2014-08-04T16:53:53Z</time></trkpt>
<trkpt lat="24.935969" lon="102.377029">
<time>2014-08-04T16:53:54Z</time></trkpt>
<trkpt lat="24.936029" lon="102.376979">
<time>2014-08-04T16:53:55Z</time></trkpt>
<trkpt lat="24.936079" lon="102.376939">
<time>2014-08-04T16:53:56Z</time></trkpt>
<trkpt lat="24.936129" lon="102.376899">
<time>2014-08-04T16:53:57Z</time></trkpt>
<trkpt lat="24.936209" lon="102.376839">
<time>2014-08-04T16:53:58Z</time></trkpt>
<trkpt lat="24.936299" lon="102.376789">
<time>2014-08-04T16:53:59Z</time></trkpt>
<trkpt lat="24.936479" lon="102.376679">
<time>2014-08-04T16:54:00Z</time></trkpt>
<trkpt lat="24.936569" lon="102.376629">
<time>2014-08-04T16:54:01Z</time></trkpt>
<trkpt lat="24.936629" lon="102.376609">
<time>2014-08-04T16:54:02Z</time></trkpt>
<trkpt lat="24.936729" lon="102.376569">
<time>2014-08-04T16:54:03Z</time></trkpt>
<trkpt lat="24.93681" lon="102.376539">
<time>2014-08-04T16:54:04Z</time></trkpt>
<trkpt lat="24.93691" lon="102.376499">
<time>2014-08-04T16:54:05Z</time></trkpt>
<trkpt lat="24.93701" lon="102.376469">
<time>2014-08-04T16:54:06Z</time></trkpt>
<trkpt lat="24.93715" lon="102.376419">
<time>2014-08-04T16:54:07Z</time></trkpt>
<trkpt lat="24.93727" lon="102.376379">
<time>2014-08-04T16:54:08Z</time></trkpt>
<trkpt lat="24.93739" lon="102.376339">
<time>2014-08-04T16:54:09Z</time></trkpt>
<trkpt lat="24.93765" lon="102.376259">
<time>2014-08-04T16:54:10Z</time></trkpt>
<trkpt lat="24.93788" lon="102.376169">
<time>2014-08-04T16:54:11Z</time></trkpt>
<trkpt lat="24.938" lon="102.376139">
<time>2014-08-04T16:54:12Z</time></trkpt>
<trkpt lat="24.93812" lon="102.376099">
<time>2014-08-04T16:54:13Z</time></trkpt>
<trkpt lat="24.93831" lon="102.37604">
<time>2014-08-04T16:54:14Z</time></trkpt>
<trkpt lat="24.93847" lon="102.37598">
<time>2014-08-04T16:54:15Z</time></trkpt>
<trkpt lat="24.93864" lon="102.3759">
<time>2014-08-04T16:54:16Z</time></trkpt>
<trkpt lat="24.93876" lon="102.37584">
<time>2014-08-04T16:54:17Z</time></trkpt>
<trkpt lat="24.93887" lon="102.37577">
<time>2014-08-04T16:54:18Z</time></trkpt>
<trkpt lat="24.93894" lon="102.37573">
<time>2014-08-04T16:54:19Z</time></trkpt>
<trkpt lat="24.93899" lon="102.37569">
<time>2014-08-04T16:54:20Z</time></trkpt>
<trkpt lat="24.93904" lon="102.37565">
<time>2014-08-04T16:54:21Z</time></trkpt>
<trkpt lat="24.93909" lon="102.37561">
<time>2014-08-04T16:54:22Z</time></trkpt>
<trkpt lat="24.93913" lon="102.37557">
<time>2014-08-04T16:54:23Z</time></trkpt>
<trkpt lat="24.93917" lon="102.37553">
<time>2014-08-04T16:54:24Z</time></trkpt>
<trkpt lat="24.93921" lon="102.37549">
<time>2014-08-04T16:54:25Z</time></trkpt>
<trkpt lat="24.93925" lon="102.37544">
<time>2014-08-04T16:54:26Z</time></trkpt>
<trkpt lat="24.9393" lon="102.37538">
<time>2014-08-04T16:54:27Z</time></trkpt>
<trkpt lat="24.93936" lon="102.3753">
<time>2014-08-04T16:54:28Z</time></trkpt>
<trkpt lat="24.9394" lon="102.37524">
<time>2014-08-04T16:54:29Z</time></trkpt>
<trkpt lat="24.93941" lon="102.37522">
<time>2014-08-04T16:54:30Z</time></trkpt>
<trkpt lat="24.939431" lon="102.37518">
<time>2014-08-04T16:54:31Z</time></trkpt>
<trkpt lat="24.939471" lon="102.37512">
<time>2014-08-04T16:54:32Z</time></trkpt>
<trkpt lat="24.939491" lon="102.375061">
<time>2014-08-04T16:54:33Z</time></trkpt>
<trkpt lat="24.939511" lon="102.375011">
<time>2014-08-04T16:54:34Z</time></trkpt>
<trkpt lat="24.939541" lon="102.374951">
<time>2014-08-04T16:54:35Z</time></trkpt>
<trkpt lat="24.939591" lon="102.374841">
<time>2014-08-04T16:54:36Z</time></trkpt>
<trkpt lat="24.939651" lon="102.374671">
<time>2014-08-04T16:54:37Z</time></trkpt>
<trkpt lat="24.939711" lon="102.374531">
<time>2014-08-04T16:54:38Z</time></trkpt>
<trkpt lat="24.939751" lon="102.374401">
<time>2014-08-04T16:54:39Z</time></trkpt>
<trkpt lat="24.939852" lon="102.374112">
<time>2014-08-04T16:54:40Z</time></trkpt>
<trkpt lat="24.939972" lon="102.373772">
<time>2014-08-04T16:54:41Z</time></trkpt>
<trkpt lat="24.940032" lon="102.373592">
<time>2014-08-04T16:54:42Z</time></trkpt>
<trkpt lat="24.940082" lon="102.373412">
<time>2014-08-04T16:54:43Z</time></trkpt>
<trkpt lat="24.940213" lon="102.373003">
<time>2014-08-04T16:54:44Z</time></trkpt>
<trkpt lat="24.940263" lon="102.372873">
<time>2014-08-04T16:54:45Z</time></trkpt>
<trkpt lat="24.940343" lon="102.372663">
<time>2014-08-04T16:54:46Z</time></trkpt>
<trkpt lat="24.940413" lon="102.372493">
<time>2014-08-04T16:54:47Z</time></trkpt>
<trkpt lat="24.940554" lon="102.372174">
<time>2014-08-04T16:54:48Z</time></trkpt>
<trkpt lat="24.940624" lon="102.372034">
<time>2014-08-04T16:54:49Z</time></trkpt>
<trkpt lat="24.940684" lon="102.371924">
<time>2014-08-04T16:54:50Z</time></trkpt>
<trkpt lat="24.940984" lon="102.371445">
<time>2014-08-04T16:54:51Z</time></trkpt>
<trkpt lat="24.941095" lon="102.371255">
<time>2014-08-04T16:54:52Z</time></trkpt>
<trkpt lat="24.941225" lon="102.371045">
<time>2014-08-04T16:54:53Z</time></trkpt>
<trkpt lat="24.941365" lon="102.370825">
<time>2014-08-04T16:54:54Z</time></trkpt>
<trkpt lat="24.941636" lon="102.370386">
<time>2014-08-04T16:54:55Z</time></trkpt>
<trkpt lat="24.941896" lon="102.369976">
<time>2014-08-04T16:54:56Z</time></trkpt>
<trkpt lat="24.942066" lon="102.369707">
<time>2014-08-04T16:54:57Z</time></trkpt>
<trkpt lat="24.942096" lon="102.369657">
<time>2014-08-04T16:54:58Z</time></trkpt>
<trkpt lat="24.942377" lon="102.369217">
<time>2014-08-04T16:54:59Z</time></trkpt>
<trkpt lat="24.942637" lon="102.368828">
<time>2014-08-04T16:55:00Z</time></trkpt>
<trkpt lat="24.942717" lon="102.368698">
<time>2014-08-04T16:55:01Z</time></trkpt>
<trkpt lat="24.942808" lon="102.368578">
<time>2014-08-04T16:55:02Z</time></trkpt>
<trkpt lat="24.942918" lon="102.368438">
<time>2014-08-04T16:55:03Z</time></trkpt>
<trkpt lat="24.943008" lon="102.368319">
<time>2014-08-04T16:55:04Z</time></trkpt>
<trkpt lat="24.943068" lon="102.368239">
<time>2014-08-04T16:55:05Z</time></trkpt>
<trkpt lat="24.943148" lon="102.368149">
<time>2014-08-04T16:55:06Z</time></trkpt>
<trkpt lat="24.943248" lon="102.368049">
<time>2014-08-04T16:55:07Z</time></trkpt>
<trkpt lat="24.943318" lon="102.367969">
<time>2014-08-04T16:55:08Z</time></trkpt>
<trkpt lat="24.943388" lon="102.367899">
<time>2014-08-04T16:55:09Z</time></trkpt>
<trkpt lat="24.943458" lon="102.367809">
<time>2014-08-04T16:55:10Z</time></trkpt>
<trkpt lat="24.943589" lon="102.367659">
<time>2014-08-04T16:55:11Z</time></trkpt>
<trkpt lat="24.943709" lon="102.36753">
<time>2014-08-04T16:55:12Z</time></trkpt>
<trkpt lat="24.943809" lon="102.36742">
<time>2014-08-04T16:55:13Z</time></trkpt>
<trkpt lat="24.943919" lon="102.3673">
<time>2014-08-04T16:55:14Z</time></trkpt>
<trkpt lat="24.944059" lon="102.36715">
<time>2014-08-04T16:55:15Z</time></trkpt>
<trkpt lat="24.944169" lon="102.36703">
<time>2014-08-04T16:55:16Z</time></trkpt>
<trkpt lat="24.944299" lon="102.3669">
<time>2014-08-04T16:55:17Z</time></trkpt>
<trkpt lat="24.94443" lon="102.366761">
<time>2014-08-04T16:55:18Z</time></trkpt>
<trkpt lat="24.94449" lon="102.366691">
<time>2014-08-04T16:55:19Z</time></trkpt>
<trkpt lat="24.94464" lon="102.366541">
<time>2014-08-04T16:55:20Z</time></trkpt>
<trkpt lat="24.94472" lon="102.366451">
<time>2014-08-04T16:55:21Z</time></trkpt>
<trkpt lat="24.94481" lon="102.366351">
<time>2014-08-04T16:55:22Z</time></trkpt>
<trkpt lat="24.94488" lon="102.366251">
<time>2014-08-04T16:55:23Z</time></trkpt>
<trkpt lat="24.94503" lon="102.366092">
<time>2014-08-04T16:55:24Z</time></trkpt>
<trkpt lat="24.945161" lon="102.365952">
<time>2014-08-04T16:55:25Z</time></trkpt>
<trkpt lat="24.945241" lon="102.365872">
<time>2014-08-04T16:55:26Z</time></trkpt>
<trkpt lat="24.945371" lon="102.365722">
<time>2014-08-04T16:55:27Z</time></trkpt>
<trkpt lat="24.945651" lon="102.365442">
<time>2014-08-04T16:55:28Z</time></trkpt>
<trkpt lat="24.945821" lon="102.365253">
<time>2014-08-04T16:55:29Z</time></trkpt>
<trkpt lat="24.945912" lon="102.365143">
<time>2014-08-04T16:55:30Z</time></trkpt>
<trkpt lat="24.946022" lon="102.365033">
<time>2014-08-04T16:55:31Z</time></trkpt>
<trkpt lat="24.946102" lon="102.364943">
<time>2014-08-04T16:55:32Z</time></trkpt>
<trkpt lat="24.946172" lon="102.364863">
<time>2014-08-04T16:55:33Z</time></trkpt>
<trkpt lat="24.946252" lon="102.364773">
<time>2014-08-04T16:55:34Z</time></trkpt>
<trkpt lat="24.946342" lon="102.364674">
<time>2014-08-04T16:55:35Z</time></trkpt>
<trkpt lat="24.946442" lon="102.364554">
<time>2014-08-04T16:55:36Z</time></trkpt>
<trkpt lat="24.946593" lon="102.364384">
<time>2014-08-04T16:55:37Z</time></trkpt>
<trkpt lat="24.946713" lon="102.364254">
<time>2014-08-04T16:55:38Z</time></trkpt>
<trkpt lat="24.947604" lon="102.363355">
<time>2014-08-04T16:55:39Z</time></trkpt>
<trkpt lat="24.947644" lon="102.363335">
<time>2014-08-04T16:55:40Z</time></trkpt>
<trkpt lat="24.947774" lon="102.363256">
<time>2014-08-04T16:55:41Z</time></trkpt>
<trkpt lat="24.947894" lon="102.363186">
<time>2014-08-04T16:55:42Z</time></trkpt>
<trkpt lat="24.948014" lon="102.363136">
<time>2014-08-04T16:55:43Z</time></trkpt>
<trkpt lat="24.948134" lon="102.363076">
<time>2014-08-04T16:55:44Z</time></trkpt>
<trkpt lat="24.948244" lon="102.363036">
<time>2014-08-04T16:55:45Z</time></trkpt>
<trkpt lat="24.948344" lon="102.362996">
<time>2014-08-04T16:55:46Z</time></trkpt>
<trkpt lat="24.948464" lon="102.362966">
<time>2014-08-04T16:55:47Z</time></trkpt>
<trkpt lat="24.948634" lon="102.362916">
<time>2014-08-04T16:55:48Z</time></trkpt>
<trkpt lat="24.948804" lon="102.362876">
<time>2014-08-04T16:55:49Z</time></trkpt>
<trkpt lat="24.948824" lon="102.362876">
<time>2014-08-04T16:55:50Z</time></trkpt>
<trkpt lat="24.949164" lon="102.362796">
<time>2014-08-04T16:55:51Z</time></trkpt>
<trkpt lat="24.949434" lon="102.362736">
<time>2014-08-04T16:55:52Z</time></trkpt>
<trkpt lat="24.949524" lon="102.362716">
<time>2014-08-04T16:55:53Z</time></trkpt>
<trkpt lat="24.949815" lon="102.362656">
<time>2014-08-04T16:55:54Z</time></trkpt>
<trkpt lat="24.950085" lon="102.362606">
<time>2014-08-04T16:55:55Z</time></trkpt>
<trkpt lat="24.950385" lon="102.362547">
<time>2014-08-04T16:55:56Z</time></trkpt>
<trkpt lat="24.950515" lon="102.362507">
<time>2014-08-04T16:55:57Z</time></trkpt>
<trkpt lat="24.950645" lon="102.362447">
<time>2014-08-04T16:55:58Z</time></trkpt>
<trkpt lat="24.950745" lon="102.362397">
<time>2014-08-04T16:55:59Z</time></trkpt>
<trkpt lat="24.950835" lon="102.362337">
<time>2014-08-04T16:56:00Z</time></trkpt>
<trkpt lat="24.950905" lon="102.362277">
<time>2014-08-04T16:56:01Z</time></trkpt>
<trkpt lat="24.950975" lon="102.362217">
<time>2014-08-04T16:56:02Z</time></trkpt>
<trkpt lat="24.951035" lon="102.362157">
<time>2014-08-04T16:56:03Z</time></trkpt>
<trkpt lat="24.951105" lon="102.362057">
<time>2014-08-04T16:56:04Z</time></trkpt>
<trkpt lat="24.951165" lon="102.361957">
<time>2014-08-04T16:56:05Z</time></trkpt>
<trkpt lat="24.951205" lon="102.361858">
<time>2014-08-04T16:56:06Z</time></trkpt>
<trkpt lat="24.951246" lon="102.361728">
<time>2014-08-04T16:56:07Z</time></trkpt>
<trkpt lat="24.951266" lon="102.361588">
<time>2014-08-04T16:56:08Z</time></trkpt>
<trkpt lat="24.951296" lon="102.361458">
<time>2014-08-04T16:56:09Z</time></trkpt>
<trkpt lat="24.951336" lon="102.361169">
<time>2014-08-04T16:56:10Z</time></trkpt>
<trkpt lat="24.951448" lon="102.36001">
<time>2014-08-04T16:56:11Z</time></trkpt>
<trkpt lat="24.951478" lon="102.359881">
<time>2014-08-04T16:56:12Z</time></trkpt>
<trkpt lat="24.951509" lon="102.359721">
<time>2014-08-04T16:56:13Z</time></trkpt>
<trkpt lat="24.951559" lon="102.359581">
<time>2014-08-04T16:56:14Z</time></trkpt>
<trkpt lat="24.951609" lon="102.359481">
<time>2014-08-04T16:56:15Z</time></trkpt>
<trkpt lat="24.951659" lon="102.359411">
<time>2014-08-04T16:56:16Z</time></trkpt>
<trkpt lat="24.951709" lon="102.359341">
<time>2014-08-04T16:56:17Z</time></trkpt>
<trkpt lat="24.951809" lon="102.359242">
<time>2014-08-04T16:56:18Z</time></trkpt>
<trkpt lat="24.951949" lon="102.359082">
<time>2014-08-04T16:56:19Z</time></trkpt>
<trkpt lat="24.95216" lon="102.358842">
<time>2014-08-04T16:56:20Z</time></trkpt>
<trkpt lat="24.95227" lon="102.358722">
<time>2014-08-04T16:56:21Z</time></trkpt>
<trkpt lat="24.95235" lon="102.358633">
<time>2014-08-04T16:56:22Z</time></trkpt>
<trkpt lat="24.95242" lon="102.358513">
<time>2014-08-04T16:56:23Z</time></trkpt>
<trkpt lat="24.95248" lon="102.358413">
<time>2014-08-04T16:56:24Z</time></trkpt>
<trkpt lat="24.952541" lon="102.358303">
<time>2014-08-04T16:56:25Z</time></trkpt>
<trkpt lat="24.952601" lon="102.358173">
<time>2014-08-04T16:56:26Z</time></trkpt>
<trkpt lat="24.952691" lon="102.357954">
<time>2014-08-04T16:56:27Z</time></trkpt>
<trkpt lat="24.952791" lon="102.357664">
<time>2014-08-04T16:56:28Z</time></trkpt>
<trkpt lat="24.952892" lon="102.357395">
<time>2014-08-04T16:56:29Z</time></trkpt>
<trkpt lat="24.952902" lon="102.357375">
<time>2014-08-04T16:56:30Z</time></trkpt>
<trkpt lat="24.953002" lon="102.357165">
<time>2014-08-04T16:56:31Z</time></trkpt>
<trkpt lat="24.953092" lon="102.357015">
<time>2014-08-04T16:56:32Z</time></trkpt>
<trkpt lat="24.953173" lon="102.356895">
<time>2014-08-04T16:56:33Z</time></trkpt>
<trkpt lat="24.953263" lon="102.356776">
<time>2014-08-04T16:56:34Z</time></trkpt>
<trkpt lat="24.953363" lon="102.356676">
<time>2014-08-04T16:56:35Z</time></trkpt>
<trkpt lat="24.953483" lon="102.356576">
<time>2014-08-04T16:56:36Z</time></trkpt>
<trkpt lat="24.953563" lon="102.356496">
<time>2014-08-04T16:56:37Z</time></trkpt>
<trkpt lat="24.953723" lon="102.356366">
<time>2014-08-04T16:56:38Z</time></trkpt>
<trkpt lat="24.953954" lon="102.356177">
<time>2014-08-04T16:56:39Z</time></trkpt>
<trkpt lat="24.954144" lon="102.356037">
<time>2014-08-04T16:56:40Z</time></trkpt>
<trkpt lat="24.954454" lon="102.355787">
<time>2014-08-04T16:56:41Z</time></trkpt>
<trkpt lat="24.954694" lon="102.355598">
<time>2014-08-04T16:56:42Z</time></trkpt>
<trkpt lat="24.954875" lon="102.355458">
<time>2014-08-04T16:56:43Z</time></trkpt>
<trkpt lat="24.954975" lon="102.355378">
<time>2014-08-04T16:56:44Z</time></trkpt>
<trkpt lat="24.955125" lon="102.355248">
<time>2014-08-04T16:56:45Z</time></trkpt>
<trkpt lat="24.955315" lon="102.355098">
<time>2014-08-04T16:56:46Z</time></trkpt>
<trkpt lat="24.955505" lon="102.354949">
<time>2014-08-04T16:56:47Z</time></trkpt>
<trkpt lat="24.955636" lon="102.354819">
<time>2014-08-04T16:56:48Z</time></trkpt>
<trkpt lat="24.955786" lon="102.354679">
<time>2014-08-04T16:56:49Z</time></trkpt>
<trkpt lat="24.955916" lon="102.354549">
<time>2014-08-04T16:56:50Z</time></trkpt>
<trkpt lat="24.956036" lon="102.354449">
<time>2014-08-04T16:56:51Z</time></trkpt>
<trkpt lat="24.956066" lon="102.3544">
<time>2014-08-04T16:56:52Z</time></trkpt>
<trkpt lat="24.956136" lon="102.35432">
<time>2014-08-04T16:56:53Z</time></trkpt>
<trkpt lat="24.956256" lon="102.35422">
<time>2014-08-04T16:56:54Z</time></trkpt>
<trkpt lat="24.956337" lon="102.35414">
<time>2014-08-04T16:56:55Z</time></trkpt>
<trkpt lat="24.956467" lon="102.35399">
<time>2014-08-04T16:56:56Z</time></trkpt>
<trkpt lat="24.956747" lon="102.353701">
<time>2014-08-04T16:56:57Z</time></trkpt>
<trkpt lat="24.957038" lon="102.353391">
<time>2014-08-04T16:56:58Z</time></trkpt>
<trkpt lat="24.957248" lon="102.353142">
<time>2014-08-04T16:56:59Z</time></trkpt>
<trkpt lat="24.957438" lon="102.352912">
<time>2014-08-04T16:57:00Z</time></trkpt>
<trkpt lat="24.957469" lon="102.352862">
<time>2014-08-04T16:57:01Z</time></trkpt>
<trkpt lat="24.957599" lon="102.352682">
<time>2014-08-04T16:57:02Z</time></trkpt>
<trkpt lat="24.957759" lon="102.352463">
<time>2014-08-04T16:57:03Z</time></trkpt>
<trkpt lat="24.957899" lon="102.352243">
<time>2014-08-04T16:57:04Z</time></trkpt>
<trkpt lat="24.95812" lon="102.351884">
<time>2014-08-04T16:57:05Z</time></trkpt>
<trkpt lat="24.958351" lon="102.351554">
<time>2014-08-04T16:57:06Z</time></trkpt>
<trkpt lat="24.958641" lon="102.351155">
<time>2014-08-04T16:57:07Z</time></trkpt>
<trkpt lat="24.958872" lon="102.350836">
<time>2014-08-04T16:57:08Z</time></trkpt>
<trkpt lat="24.959182" lon="102.350386">
<time>2014-08-04T16:57:09Z</time></trkpt>
<trkpt lat="24.959593" lon="102.349827">
<time>2014-08-04T16:57:10Z</time></trkpt>
<trkpt lat="24.959854" lon="102.349488">
<time>2014-08-04T16:57:11Z</time></trkpt>
<trkpt lat="24.960074" lon="102.349199">
<time>2014-08-04T16:57:12Z</time></trkpt>
<trkpt lat="24.960255" lon="102.348949">
<time>2014-08-04T16:57:13Z</time></trkpt>
<trkpt lat="24.960295" lon="102.348879">
<time>2014-08-04T16:57:14Z</time></trkpt>
<trkpt lat="24.960335" lon="102.348809">
<time>2014-08-04T16:57:15Z</time></trkpt>
<trkpt lat="24.960445" lon="102.34866">
<time>2014-08-04T16:57:16Z</time></trkpt>
<trkpt lat="24.960566" lon="102.34847">
<time>2014-08-04T16:57:17Z</time></trkpt>
<trkpt lat="24.960816" lon="102.348011">
<time>2014-08-04T16:57:18Z</time></trkpt>
<trkpt lat="24.960927" lon="102.347821">
<time>2014-08-04T16:57:19Z</time></trkpt>
<trkpt lat="24.961007" lon="102.347701">
<time>2014-08-04T16:57:20Z</time></trkpt>
<trkpt lat="24.961107" lon="102.347502">
<time>2014-08-04T16:57:21Z</time></trkpt>
<trkpt lat="24.961137" lon="102.347462">
<time>2014-08-04T16:57:22Z</time></trkpt>
<trkpt lat="24.961258" lon="102.347242">
<time>2014-08-04T16:57:23Z</time></trkpt>
<trkpt lat="24.961358" lon="102.347072">
<time>2014-08-04T16:57:24Z</time></trkpt>
<trkpt lat="24.961538" lon="102.346793">
<time>2014-08-04T16:57:25Z</time></trkpt>
<trkpt lat="24.961639" lon="102.346643">
<time>2014-08-04T16:57:26Z</time></trkpt>
<trkpt lat="24.961749" lon="102.346523">
<time>2014-08-04T16:57:27Z</time></trkpt>
<trkpt lat="24.961839" lon="102.346434">
<time>2014-08-04T16:57:28Z</time></trkpt>
<trkpt lat="24.961959" lon="102.346324">
<time>2014-08-04T16:57:29Z</time></trkpt>
<trkpt lat="24.962079" lon="102.346234">
<time>2014-08-04T16:57:30Z</time></trkpt>
<trkpt lat="24.962289" lon="102.346094">
<time>2014-08-04T16:57:31Z</time></trkpt>
<trkpt lat="24.962309" lon="102.346084">
<time>2014-08-04T16:57:32Z</time></trkpt>
<trkpt lat="24.96239" lon="102.346034">
<time>2014-08-04T16:57:33Z</time></trkpt>
<trkpt lat="24.9625" lon="102.345964">
<time>2014-08-04T16:57:34Z</time></trkpt>
<trkpt lat="24.96264" lon="102.345885">
<time>2014-08-04T16:57:35Z</time></trkpt>
<trkpt lat="24.96279" lon="102.345795">
<time>2014-08-04T16:57:36Z</time></trkpt>
<trkpt lat="24.96289" lon="102.345725">
<time>2014-08-04T16:57:37Z</time></trkpt>
<trkpt lat="24.96295" lon="102.345675">
<time>2014-08-04T16:57:38Z</time></trkpt>
<trkpt lat="24.96302" lon="102.345615">
<time>2014-08-04T16:57:39Z</time></trkpt>
<trkpt lat="24.96304" lon="102.345595">
<time>2014-08-04T16:57:40Z</time></trkpt>
<trkpt lat="24.96305" lon="102.345585">
<time>2014-08-04T16:57:41Z</time></trkpt>
<trkpt lat="24.96309" lon="102.345535">
<time>2014-08-04T16:57:42Z</time></trkpt>
<trkpt lat="24.96315" lon="102.345455">
<time>2014-08-04T16:57:43Z</time></trkpt>
<trkpt lat="24.963191" lon="102.345386">
<time>2014-08-04T16:57:44Z</time></trkpt>
<trkpt lat="24.963251" lon="102.345276">
<time>2014-08-04T16:57:45Z</time></trkpt>
<trkpt lat="24.963291" lon="102.345186">
<time>2014-08-04T16:57:46Z</time></trkpt>
<trkpt lat="24.963341" lon="102.345056">
<time>2014-08-04T16:57:47Z</time></trkpt>
<trkpt lat="24.963371" lon="102.344886">
<time>2014-08-04T16:57:48Z</time></trkpt>
<trkpt lat="24.963382" lon="102.344687">
<time>2014-08-04T16:57:49Z</time></trkpt>
<trkpt lat="24.963392" lon="102.344417">
<time>2014-08-04T16:57:50Z</time></trkpt>
<trkpt lat="24.963403" lon="102.344118">
<time>2014-08-04T16:57:51Z</time></trkpt>
<trkpt lat="24.963433" lon="102.343888">
<time>2014-08-04T16:57:52Z</time></trkpt>
<trkpt lat="24.963494" lon="102.343629">
<time>2014-08-04T16:57:53Z</time></trkpt>
<trkpt lat="24.963574" lon="102.343309">
<time>2014-08-04T16:57:54Z</time></trkpt>
<trkpt lat="24.963675" lon="102.34299">
<time>2014-08-04T16:57:55Z</time></trkpt>
<trkpt lat="24.963775" lon="102.342711">
<time>2014-08-04T16:57:56Z</time></trkpt>
<trkpt lat="24.963836" lon="102.342561">
<time>2014-08-04T16:57:57Z</time></trkpt>
<trkpt lat="24.963896" lon="102.342441">
<time>2014-08-04T16:57:58Z</time></trkpt>
<trkpt lat="24.963996" lon="102.342321">
<time>2014-08-04T16:57:59Z</time></trkpt>
<trkpt lat="24.964076" lon="102.342232">
<time>2014-08-04T16:58:00Z</time></trkpt>
<trkpt lat="24.964176" lon="102.342142">
<time>2014-08-04T16:58:01Z</time></trkpt>
<trkpt lat="24.964376" lon="102.342032">
<time>2014-08-04T16:58:02Z</time></trkpt>
<trkpt lat="24.964667" lon="102.341892">
<time>2014-08-04T16:58:03Z</time></trkpt>
<trkpt lat="24.964877" lon="102.341772">
<time>2014-08-04T16:58:04Z</time></trkpt>
<trkpt lat="24.964957" lon="102.341722">
<time>2014-08-04T16:58:05Z</time></trkpt>
<trkpt lat="24.965037" lon="102.341643">
<time>2014-08-04T16:58:06Z</time></trkpt>
<trkpt lat="24.965107" lon="102.341563">
<time>2014-08-04T16:58:07Z</time></trkpt>
<trkpt lat="24.965157" lon="102.341473">
<time>2014-08-04T16:58:08Z</time></trkpt>
<trkpt lat="24.965198" lon="102.341393">
<time>2014-08-04T16:58:09Z</time></trkpt>
<trkpt lat="24.965238" lon="102.341273">
<time>2014-08-04T16:58:10Z</time></trkpt>
<trkpt lat="24.965258" lon="102.341213">
<time>2014-08-04T16:58:11Z</time></trkpt>
<trkpt lat="24.965288" lon="102.341114">
<time>2014-08-04T16:58:12Z</time></trkpt>
<trkpt lat="24.965338" lon="102.340884">
<time>2014-08-04T16:58:13Z</time></trkpt>
<trkpt lat="24.965419" lon="102.340575">
<time>2014-08-04T16:58:14Z</time></trkpt>
<trkpt lat="24.965479" lon="102.340355">
<time>2014-08-04T16:58:15Z</time></trkpt>
<trkpt lat="24.96554" lon="102.340175">
<time>2014-08-04T16:58:16Z</time></trkpt>
<trkpt lat="24.96561" lon="102.340016">
<time>2014-08-04T16:58:17Z</time></trkpt>
<trkpt lat="24.965761" lon="102.339696">
<time>2014-08-04T16:58:18Z</time></trkpt>
<trkpt lat="24.965791" lon="102.339627">
<time>2014-08-04T16:58:19Z</time></trkpt>
<trkpt lat="24.965851" lon="102.339477">
<time>2014-08-04T16:58:20Z</time></trkpt>
<trkpt lat="24.965891" lon="102.339327">
<time>2014-08-04T16:58:21Z</time></trkpt>
<trkpt lat="24.965932" lon="102.339157">
<time>2014-08-04T16:58:22Z</time></trkpt>
<trkpt lat="24.965942" lon="102.338988">
<time>2014-08-04T16:58:23Z</time></trkpt>
<trkpt lat="24.965952" lon="102.338798">
<time>2014-08-04T16:58:24Z</time></trkpt>
<trkpt lat="24.965943" lon="102.338579">
<time>2014-08-04T16:58:25Z</time></trkpt>
<trkpt lat="24.965943" lon="102.338259">
<time>2014-08-04T16:58:26Z</time></trkpt>
<trkpt lat="24.965934" lon="102.33785">
<time>2014-08-04T16:58:27Z</time></trkpt>
<trkpt lat="24.965935" lon="102.337541">
<time>2014-08-04T16:58:28Z</time></trkpt>
<trkpt lat="24.965915" lon="102.337111">
<time>2014-08-04T16:58:29Z</time></trkpt>
<trkpt lat="24.965906" lon="102.336672">
<time>2014-08-04T16:58:30Z</time></trkpt>
<trkpt lat="24.965897" lon="102.336293">
<time>2014-08-04T16:58:31Z</time></trkpt>
<trkpt lat="24.965888" lon="102.335924">
<time>2014-08-04T16:58:32Z</time></trkpt>
<trkpt lat="24.965878" lon="102.335834">
<time>2014-08-04T16:58:33Z</time></trkpt>
<trkpt lat="24.965869" lon="102.335415">
<time>2014-08-04T16:58:34Z</time></trkpt>
<trkpt lat="24.965859" lon="102.335195">
<time>2014-08-04T16:58:35Z</time></trkpt>
<trkpt lat="24.965849" lon="102.334966">
<time>2014-08-04T16:58:36Z</time></trkpt>
<trkpt lat="24.96587" lon="102.334806">
<time>2014-08-04T16:58:37Z</time></trkpt>
<trkpt lat="24.96594" lon="102.334626">
<time>2014-08-04T16:58:38Z</time></trkpt>
<trkpt lat="24.966" lon="102.334497">
<time>2014-08-04T16:58:39Z</time></trkpt>
<trkpt lat="24.96608" lon="102.334397">
<time>2014-08-04T16:58:40Z</time></trkpt>
<trkpt lat="24.966151" lon="102.334337">
<time>2014-08-04T16:58:41Z</time></trkpt>
<trkpt lat="24.966261" lon="102.334277">
<time>2014-08-04T16:58:42Z</time></trkpt>
<trkpt lat="24.966381" lon="102.334227">
<time>2014-08-04T16:58:43Z</time></trkpt>
<trkpt lat="24.966521" lon="102.334187">
<time>2014-08-04T16:58:44Z</time></trkpt>
<trkpt lat="24.966661" lon="102.334147">
<time>2014-08-04T16:58:45Z</time></trkpt>
<trkpt lat="24.966801" lon="102.334097">
<time>2014-08-04T16:58:46Z</time></trkpt>
<trkpt lat="24.966911" lon="102.334038">
<time>2014-08-04T16:58:47Z</time></trkpt>
<trkpt lat="24.967001" lon="102.333978">
<time>2014-08-04T16:58:48Z</time></trkpt>
<trkpt lat="24.967071" lon="102.333918">
<time>2014-08-04T16:58:49Z</time></trkpt>
<trkpt lat="24.967151" lon="102.333828">
<time>2014-08-04T16:58:50Z</time></trkpt>
<trkpt lat="24.967191" lon="102.333778">
<time>2014-08-04T16:58:51Z</time></trkpt>
<trkpt lat="24.967232" lon="102.333708">
<time>2014-08-04T16:58:52Z</time></trkpt>
<trkpt lat="24.967282" lon="102.333628">
<time>2014-08-04T16:58:53Z</time></trkpt>
<trkpt lat="24.967322" lon="102.333548">
<time>2014-08-04T16:58:54Z</time></trkpt>
<trkpt lat="24.967332" lon="102.333499">
<time>2014-08-04T16:58:55Z</time></trkpt>
<trkpt lat="24.967352" lon="102.333459">
<time>2014-08-04T16:58:56Z</time></trkpt>
<trkpt lat="24.967412" lon="102.333289">
<time>2014-08-04T16:58:57Z</time></trkpt>
<trkpt lat="24.967453" lon="102.333109">
<time>2014-08-04T16:58:58Z</time></trkpt>
<trkpt lat="24.967533" lon="102.33283">
<time>2014-08-04T16:58:59Z</time></trkpt>
<trkpt lat="24.967573" lon="102.33269">
<time>2014-08-04T16:59:00Z</time></trkpt>
<trkpt lat="24.967664" lon="102.332321">
<time>2014-08-04T16:59:01Z</time></trkpt>
<trkpt lat="24.967765" lon="102.331992">
<time>2014-08-04T16:59:02Z</time></trkpt>
<trkpt lat="24.967845" lon="102.331662">
<time>2014-08-04T16:59:03Z</time></trkpt>
<trkpt lat="24.967906" lon="102.331433">
<time>2014-08-04T16:59:04Z</time></trkpt>
<trkpt lat="24.967926" lon="102.331253">
<time>2014-08-04T16:59:05Z</time></trkpt>
<trkpt lat="24.967947" lon="102.331063">
<time>2014-08-04T16:59:06Z</time></trkpt>
<trkpt lat="24.967947" lon="102.331024">
<time>2014-08-04T16:59:07Z</time></trkpt>
<trkpt lat="24.967957" lon="102.330854">
<time>2014-08-04T16:59:08Z</time></trkpt>
<trkpt lat="24.967957" lon="102.330634">
<time>2014-08-04T16:59:09Z</time></trkpt>
<trkpt lat="24.967938" lon="102.330385">
<time>2014-08-04T16:59:10Z</time></trkpt>
<trkpt lat="24.967928" lon="102.330115">
<time>2014-08-04T16:59:11Z</time></trkpt>
<trkpt lat="24.967909" lon="102.329846">
<time>2014-08-04T16:59:12Z</time></trkpt>
<trkpt lat="24.967899" lon="102.329606">
<time>2014-08-04T16:59:13Z</time></trkpt>
<trkpt lat="24.96791" lon="102.329417">
<time>2014-08-04T16:59:14Z</time></trkpt>
<trkpt lat="24.96793" lon="102.329207">
<time>2014-08-04T16:59:15Z</time></trkpt>
<trkpt lat="24.96797" lon="102.329047">
<time>2014-08-04T16:59:16Z</time></trkpt>
<trkpt lat="24.968001" lon="102.328908">
<time>2014-08-04T16:59:17Z</time></trkpt>
<trkpt lat="24.968041" lon="102.328738">
<time>2014-08-04T16:59:18Z</time></trkpt>
<trkpt lat="24.968091" lon="102.328578">
<time>2014-08-04T16:59:19Z</time></trkpt>
<trkpt lat="24.968152" lon="102.328339">
<time>2014-08-04T16:59:20Z</time></trkpt>
<trkpt lat="24.968172" lon="102.328259">
<time>2014-08-04T16:59:21Z</time></trkpt>
<trkpt lat="24.968182" lon="102.328209">
<time>2014-08-04T16:59:22Z</time></trkpt>
<trkpt lat="24.968192" lon="102.328149">
<time>2014-08-04T16:59:23Z</time></trkpt>
<trkpt lat="24.968202" lon="102.328099">
<time>2014-08-04T16:59:24Z</time></trkpt>
<trkpt lat="24.968192" lon="102.32804">
<time>2014-08-04T16:59:25Z</time></trkpt>
<trkpt lat="24.968192" lon="102.32795">
<time>2014-08-04T16:59:26Z</time></trkpt>
<trkpt lat="24.968193" lon="102.32787">
<time>2014-08-04T16:59:27Z</time></trkpt>
<trkpt lat="24.968193" lon="102.32779">
<time>2014-08-04T16:59:28Z</time></trkpt>
<trkpt lat="24.968203" lon="102.32767">
<time>2014-08-04T16:59:29Z</time></trkpt>
<trkpt lat="24.968234" lon="102.327391">
<time>2014-08-04T16:59:30Z</time></trkpt>
<trkpt lat="24.968274" lon="102.326912">
<time>2014-08-04T16:59:31Z</time></trkpt>
<trkpt lat="24.968326" lon="102.326253">
<time>2014-08-04T16:59:32Z</time></trkpt>
<trkpt lat="24.968346" lon="102.325894">
<time>2014-08-04T16:59:33Z</time></trkpt>
<trkpt lat="24.968358" lon="102.324996">
<time>2014-08-04T16:59:34Z</time></trkpt>
<trkpt lat="24.968369" lon="102.324716">
<time>2014-08-04T16:59:35Z</time></trkpt>
<trkpt lat="24.968399" lon="102.324367">
<time>2014-08-04T16:59:36Z</time></trkpt>
<trkpt lat="24.96841" lon="102.324018">
<time>2014-08-04T16:59:37Z</time></trkpt>
<trkpt lat="24.9684" lon="102.323798">
<time>2014-08-04T16:59:38Z</time></trkpt>
<trkpt lat="24.968401" lon="102.323718">
<time>2014-08-04T16:59:39Z</time></trkpt>
<trkpt lat="24.968391" lon="102.323638">
<time>2014-08-04T16:59:40Z</time></trkpt>
<trkpt lat="24.968391" lon="102.323568">
<time>2014-08-04T16:59:41Z</time></trkpt>
<trkpt lat="24.968351" lon="102.323409">
<time>2014-08-04T16:59:42Z</time></trkpt>
<trkpt lat="24.968321" lon="102.323319">
<time>2014-08-04T16:59:43Z</time></trkpt>
<trkpt lat="24.968311" lon="102.323289">
<time>2014-08-04T16:59:44Z</time></trkpt>
<trkpt lat="24.968282" lon="102.323189">
<time>2014-08-04T16:59:45Z</time></trkpt>
<trkpt lat="24.968262" lon="102.323119">
<time>2014-08-04T16:59:46Z</time></trkpt>
<trkpt lat="24.968252" lon="102.32305">
<time>2014-08-04T16:59:47Z</time></trkpt>
<trkpt lat="24.968242" lon="102.323">
<time>2014-08-04T16:59:48Z</time></trkpt>
<trkpt lat="24.968252" lon="102.32292">
<time>2014-08-04T16:59:49Z</time></trkpt>
<trkpt lat="24.968272" lon="102.32285">
<time>2014-08-04T16:59:50Z</time></trkpt>
<trkpt lat="24.968292" lon="102.32274">
<time>2014-08-04T16:59:51Z</time></trkpt>
<trkpt lat="24.968323" lon="102.32262">
<time>2014-08-04T16:59:52Z</time></trkpt>
<trkpt lat="24.968403" lon="102.322341">
<time>2014-08-04T16:59:53Z</time></trkpt>
<trkpt lat="24.968474" lon="102.322081">
<time>2014-08-04T16:59:54Z</time></trkpt>
<trkpt lat="24.968544" lon="102.321812">
<time>2014-08-04T16:59:55Z</time></trkpt>
<trkpt lat="24.968645" lon="102.321473">
<time>2014-08-04T16:59:56Z</time></trkpt>
<trkpt lat="24.968665" lon="102.321393">
<time>2014-08-04T16:59:57Z</time></trkpt>
<trkpt lat="24.968755" lon="102.321083">
<time>2014-08-04T16:59:58Z</time></trkpt>
<trkpt lat="24.968906" lon="102.320574">
<time>2014-08-04T16:59:59Z</time></trkpt>
<trkpt lat="24.969007" lon="102.320225">
<time>2014-08-04T17:00:00Z</time></trkpt>
<trkpt lat="24.969078" lon="102.319986">
<time>2014-08-04T17:00:01Z</time></trkpt>
<trkpt lat="24.969138" lon="102.319776">
<time>2014-08-04T17:00:02Z</time></trkpt>
<trkpt lat="24.969198" lon="102.319586">
<time>2014-08-04T17:00:03Z</time></trkpt>
<trkpt lat="24.969289" lon="102.319347">
<time>2014-08-04T17:00:04Z</time></trkpt>
<trkpt lat="24.969399" lon="102.319097">
<time>2014-08-04T17:00:05Z</time></trkpt>
<trkpt lat="24.969489" lon="102.318948">
<time>2014-08-04T17:00:06Z</time></trkpt>
<trkpt lat="24.96959" lon="102.318768">
<time>2014-08-04T17:00:07Z</time></trkpt>
<trkpt lat="24.96969" lon="102.318608">
<time>2014-08-04T17:00:08Z</time></trkpt>
<trkpt lat="24.96981" lon="102.318429">
<time>2014-08-04T17:00:09Z</time></trkpt>
<trkpt lat="24.969951" lon="102.318179">
<time>2014-08-04T17:00:10Z</time></trkpt>
<trkpt lat="24.970091" lon="102.31795">
<time>2014-08-04T17:00:11Z</time></trkpt>
<trkpt lat="24.970202" lon="102.31773">
<time>2014-08-04T17:00:12Z</time></trkpt>
<trkpt lat="24.970272" lon="102.31758">
<time>2014-08-04T17:00:13Z</time></trkpt>
<trkpt lat="24.970332" lon="102.317441">
<time>2014-08-04T17:00:14Z</time></trkpt>
<trkpt lat="24.970372" lon="102.317321">
<time>2014-08-04T17:00:15Z</time></trkpt>
<trkpt lat="24.970443" lon="102.317161">
<time>2014-08-04T17:00:16Z</time></trkpt>
<trkpt lat="24.970503" lon="102.317011">
<time>2014-08-04T17:00:17Z</time></trkpt>
<trkpt lat="24.970533" lon="102.316922">
<time>2014-08-04T17:00:18Z</time></trkpt>
<trkpt lat="24.970593" lon="102.316752">
<time>2014-08-04T17:00:19Z</time></trkpt>
<trkpt lat="24.970674" lon="102.316552">
<time>2014-08-04T17:00:20Z</time></trkpt>
<trkpt lat="24.970764" lon="102.316303">
<time>2014-08-04T17:00:21Z</time></trkpt>
<trkpt lat="24.970865" lon="102.316033">
<time>2014-08-04T17:00:22Z</time></trkpt>
<trkpt lat="24.970965" lon="102.315814">
<time>2014-08-04T17:00:23Z</time></trkpt>
<trkpt lat="24.971066" lon="102.315584">
<time>2014-08-04T17:00:24Z</time></trkpt>
<trkpt lat="24.971186" lon="102.315375">
<time>2014-08-04T17:00:25Z</time></trkpt>
<trkpt lat="24.971316" lon="102.315195">
<time>2014-08-04T17:00:26Z</time></trkpt>
<trkpt lat="24.971417" lon="102.315035">
<time>2014-08-04T17:00:27Z</time></trkpt>
<trkpt lat="24.971637" lon="102.314766">
<time>2014-08-04T17:00:28Z</time></trkpt>
<trkpt lat="24.971717" lon="102.314646">
<time>2014-08-04T17:00:29Z</time></trkpt>
<trkpt lat="24.971797" lon="102.314556">
<time>2014-08-04T17:00:30Z</time></trkpt>
<trkpt lat="24.971948" lon="102.314357">
<time>2014-08-04T17:00:31Z</time></trkpt>
<trkpt lat="24.972078" lon="102.314177">
<time>2014-08-04T17:00:32Z</time></trkpt>
<trkpt lat="24.972228" lon="102.313977">
<time>2014-08-04T17:00:33Z</time></trkpt>
<trkpt lat="24.972339" lon="102.313818">
<time>2014-08-04T17:00:34Z</time></trkpt>
<trkpt lat="24.972459" lon="102.313658">
<time>2014-08-04T17:00:35Z</time></trkpt>
<trkpt lat="24.972559" lon="102.313528">
<time>2014-08-04T17:00:36Z</time></trkpt>
<trkpt lat="24.972659" lon="102.313398">
<time>2014-08-04T17:00:37Z</time></trkpt>
<trkpt lat="24.97276" lon="102.313279">
<time>2014-08-04T17:00:38Z</time></trkpt>
<trkpt lat="24.9728" lon="102.313229">
<time>2014-08-04T17:00:39Z</time></trkpt>
<trkpt lat="24.97284" lon="102.313189">
<time>2014-08-04T17:00:40Z</time></trkpt>
<trkpt lat="24.97295" lon="102.313059">
<time>2014-08-04T17:00:41Z</time></trkpt>
<trkpt lat="24.97312" lon="102.312849">
<time>2014-08-04T17:00:42Z</time></trkpt>
<trkpt lat="24.973221" lon="102.31275">
<time>2014-08-04T17:00:43Z</time></trkpt>
<trkpt lat="24.973341" lon="102.31262">
<time>2014-08-04T17:00:44Z</time></trkpt>
<trkpt lat="24.973471" lon="102.31248">
<time>2014-08-04T17:00:45Z</time></trkpt>
<trkpt lat="24.973591" lon="102.31235">
<time>2014-08-04T17:00:46Z</time></trkpt>
<trkpt lat="24.973701" lon="102.312231">
<time>2014-08-04T17:00:47Z</time></trkpt>
<trkpt lat="24.973812" lon="102.312111">
<time>2014-08-04T17:00:48Z</time></trkpt>
<trkpt lat="24.973942" lon="102.311981">
<time>2014-08-04T17:00:49Z</time></trkpt>
<trkpt lat="24.974092" lon="102.311811">
<time>2014-08-04T17:00:50Z</time></trkpt>
<trkpt lat="24.974242" lon="102.311622">
<time>2014-08-04T17:00:51Z</time></trkpt>
<trkpt lat="24.974363" lon="102.311472">
<time>2014-08-04T17:00:52Z</time></trkpt>
<trkpt lat="24.974443" lon="102.311362">
<time>2014-08-04T17:00:53Z</time></trkpt>
<trkpt lat="24.974513" lon="102.311252">
<time>2014-08-04T17:00:54Z</time></trkpt>
<trkpt lat="24.974563" lon="102.311173">
<time>2014-08-04T17:00:55Z</time></trkpt>
<trkpt lat="24.974613" lon="102.311083">
<time>2014-08-04T17:00:56Z</time></trkpt>
<trkpt lat="24.974654" lon="102.310983">
<time>2014-08-04T17:00:57Z</time></trkpt>
<trkpt lat="24.974704" lon="102.310853">
<time>2014-08-04T17:00:58Z</time></trkpt>
<trkpt lat="24.974744" lon="102.310743">
<time>2014-08-04T17:00:59Z</time></trkpt>
<trkpt lat="24.974764" lon="102.310653">
<time>2014-08-04T17:01:00Z</time></trkpt>
<trkpt lat="24.974784" lon="102.310524">
<time>2014-08-04T17:01:01Z</time></trkpt>
<trkpt lat="24.974825" lon="102.310314">
<time>2014-08-04T17:01:02Z</time></trkpt>
<trkpt lat="24.974855" lon="102.310075">
<time>2014-08-04T17:01:03Z</time></trkpt>
<trkpt lat="24.974866" lon="102.309905">
<time>2014-08-04T17:01:04Z</time></trkpt>
<trkpt lat="24.974876" lon="102.309785">
<time>2014-08-04T17:01:05Z</time></trkpt>
<trkpt lat="24.974886" lon="102.309446">
<time>2014-08-04T17:01:06Z</time></trkpt>
<trkpt lat="24.974917" lon="102.309176">
<time>2014-08-04T17:01:07Z</time></trkpt>
<trkpt lat="24.974927" lon="102.308967">
<time>2014-08-04T17:01:08Z</time></trkpt>
<trkpt lat="24.974948" lon="102.308717">
<time>2014-08-04T17:01:09Z</time></trkpt>
<trkpt lat="24.974958" lon="102.308557">
<time>2014-08-04T17:01:10Z</time></trkpt>
<trkpt lat="24.974958" lon="102.308378">
<time>2014-08-04T17:01:11Z</time></trkpt>
<trkpt lat="24.974909" lon="102.308198">
<time>2014-08-04T17:01:12Z</time></trkpt>
<trkpt lat="24.974849" lon="102.307988">
<time>2014-08-04T17:01:13Z</time></trkpt>
<trkpt lat="24.9748" lon="102.307579">
<time>2014-08-04T17:01:14Z</time></trkpt>
<trkpt lat="24.974741" lon="102.30701">
<time>2014-08-04T17:01:15Z</time></trkpt>
<trkpt lat="24.974692" lon="102.306152">
<time>2014-08-04T17:01:16Z</time></trkpt>
<trkpt lat="24.974585" lon="102.304754">
<time>2014-08-04T17:01:17Z</time></trkpt>
<trkpt lat="24.974565" lon="102.304395">
<time>2014-08-04T17:01:18Z</time></trkpt>
<trkpt lat="24.974417" lon="102.303656">
<time>2014-08-04T17:01:19Z</time></trkpt>
<trkpt lat="24.974337" lon="102.303347">
<time>2014-08-04T17:01:20Z</time></trkpt>
<trkpt lat="24.974327" lon="102.303307">
<time>2014-08-04T17:01:21Z</time></trkpt>
<trkpt lat="24.974327" lon="102.303307">
<time>2014-08-04T17:01:22Z</time></trkpt>
<trkpt lat="24.974268" lon="102.302688">
<time>2014-08-04T17:01:23Z</time></trkpt>
<trkpt lat="24.974239" lon="102.302478">
<time>2014-08-04T17:01:24Z</time></trkpt>
<trkpt lat="24.974239" lon="102.302239">
<time>2014-08-04T17:01:25Z</time></trkpt>
<trkpt lat="24.97419" lon="102.301889">
<time>2014-08-04T17:01:26Z</time></trkpt>
<trkpt lat="24.97414" lon="102.30158">
<time>2014-08-04T17:01:27Z</time></trkpt>
<trkpt lat="24.974081" lon="102.30122">
<time>2014-08-04T17:01:28Z</time></trkpt>
<trkpt lat="24.974101" lon="102.301041">
<time>2014-08-04T17:01:29Z</time></trkpt>
<trkpt lat="24.974132" lon="102.300741">
<time>2014-08-04T17:01:30Z</time></trkpt>
<trkpt lat="24.974112" lon="102.300412">
<time>2014-08-04T17:01:31Z</time></trkpt>
<trkpt lat="24.974063" lon="102.300052">
<time>2014-08-04T17:01:32Z</time></trkpt>
<trkpt lat="24.974003" lon="102.299903">
<time>2014-08-04T17:01:33Z</time></trkpt>
<trkpt lat="24.973893" lon="102.299653">
<time>2014-08-04T17:01:34Z</time></trkpt>
<trkpt lat="24.973834" lon="102.299364">
<time>2014-08-04T17:01:35Z</time></trkpt>
<trkpt lat="24.973635" lon="102.298545">
<time>2014-08-04T17:01:36Z</time></trkpt>
<trkpt lat="24.973416" lon="102.297876">
<time>2014-08-04T17:01:37Z</time></trkpt>
<trkpt lat="24.973187" lon="102.297377">
<time>2014-08-04T17:01:38Z</time></trkpt>
<trkpt lat="24.972908" lon="102.296768">
<time>2014-08-04T17:01:39Z</time></trkpt>
<trkpt lat="24.972789" lon="102.296518">
<time>2014-08-04T17:01:40Z</time></trkpt>
<trkpt lat="24.97239" lon="102.295799">
<time>2014-08-04T17:01:41Z</time></trkpt>
<trkpt lat="24.971582" lon="102.294501">
<time>2014-08-04T17:01:42Z</time></trkpt>
<trkpt lat="24.971363" lon="102.294032">
<time>2014-08-04T17:01:43Z</time></trkpt>
<trkpt lat="24.971103" lon="102.293613">
<time>2014-08-04T17:01:44Z</time></trkpt>
<trkpt lat="24.970894" lon="102.293313">
<time>2014-08-04T17:01:45Z</time></trkpt>
<trkpt lat="24.970465" lon="102.292514">
<time>2014-08-04T17:01:46Z</time></trkpt>
<trkpt lat="24.970465" lon="102.292514">
<time>2014-08-04T17:01:47Z</time></trkpt>
<trkpt lat="24.970445" lon="102.292455">
<time>2014-08-04T17:01:48Z</time></trkpt>
<trkpt lat="24.970415" lon="102.292355">
<time>2014-08-04T17:01:49Z</time></trkpt>
<trkpt lat="24.970335" lon="102.292185">
<time>2014-08-04T17:01:50Z</time></trkpt>
<trkpt lat="24.970236" lon="102.291985">
<time>2014-08-04T17:01:51Z</time></trkpt>
<trkpt lat="24.970136" lon="102.291786">
<time>2014-08-04T17:01:52Z</time></trkpt>
<trkpt lat="24.970096" lon="102.291686">
<time>2014-08-04T17:01:53Z</time></trkpt>
<trkpt lat="24.970066" lon="102.291586">
<time>2014-08-04T17:01:54Z</time></trkpt>
<trkpt lat="24.970036" lon="102.291476">
<time>2014-08-04T17:01:55Z</time></trkpt>
<trkpt lat="24.970027" lon="102.291336">
<time>2014-08-04T17:01:56Z</time></trkpt>
<trkpt lat="24.970027" lon="102.291216">
<time>2014-08-04T17:01:57Z</time></trkpt>
<trkpt lat="24.970027" lon="102.291037">
<time>2014-08-04T17:01:58Z</time></trkpt>
<trkpt lat="24.970027" lon="102.290837">
<time>2014-08-04T17:01:59Z</time></trkpt>
<trkpt lat="24.970028" lon="102.290717">
<time>2014-08-04T17:02:00Z</time></trkpt>
<trkpt lat="24.970028" lon="102.290458">
<time>2014-08-04T17:02:01Z</time></trkpt>
<trkpt lat="24.970038" lon="102.290258">
<time>2014-08-04T17:02:02Z</time></trkpt>
<trkpt lat="24.970038" lon="102.290118">
<time>2014-08-04T17:02:03Z</time></trkpt>
<trkpt lat="24.970059" lon="102.289888">
<time>2014-08-04T17:02:04Z</time></trkpt>
<trkpt lat="24.970079" lon="102.289798">
<time>2014-08-04T17:02:05Z</time></trkpt>
<trkpt lat="24.970099" lon="102.289709">
<time>2014-08-04T17:02:06Z</time></trkpt>
<trkpt lat="24.970139" lon="102.289529">
<time>2014-08-04T17:02:07Z</time></trkpt>
<trkpt lat="24.97018" lon="102.289329">
<time>2014-08-04T17:02:08Z</time></trkpt>
<trkpt lat="24.97023" lon="102.289149">
<time>2014-08-04T17:02:09Z</time></trkpt>
<trkpt lat="24.97025" lon="102.289059">
<time>2014-08-04T17:02:10Z</time></trkpt>
<trkpt lat="24.97032" lon="102.28883">
<time>2014-08-04T17:02:11Z</time></trkpt>
<trkpt lat="24.970421" lon="102.28851">
<time>2014-08-04T17:02:12Z</time></trkpt>
<trkpt lat="24.970431" lon="102.28845">
<time>2014-08-04T17:02:13Z</time></trkpt>
<trkpt lat="24.970481" lon="102.288251">
<time>2014-08-04T17:02:14Z</time></trkpt>
<trkpt lat="24.970501" lon="102.288101">
<time>2014-08-04T17:02:15Z</time></trkpt>
<trkpt lat="24.970521" lon="102.288031">
<time>2014-08-04T17:02:16Z</time></trkpt>
<trkpt lat="24.970562" lon="102.287821">
<time>2014-08-04T17:02:17Z</time></trkpt>
<trkpt lat="24.970582" lon="102.287641">
<time>2014-08-04T17:02:18Z</time></trkpt>
<trkpt lat="24.970582" lon="102.287631">
<time>2014-08-04T17:02:19Z</time></trkpt>
<trkpt lat="24.970612" lon="102.287432">
<time>2014-08-04T17:02:20Z</time></trkpt>
<trkpt lat="24.970632" lon="102.287232">
<time>2014-08-04T17:02:21Z</time></trkpt>
<trkpt lat="24.970663" lon="102.287032">
<time>2014-08-04T17:02:22Z</time></trkpt>
<trkpt lat="24.970703" lon="102.286713">
<time>2014-08-04T17:02:23Z</time></trkpt>
<trkpt lat="24.970694" lon="102.286333">
<time>2014-08-04T17:02:24Z</time></trkpt>
<trkpt lat="24.970664" lon="102.285984">
<time>2014-08-04T17:02:25Z</time></trkpt>
<trkpt lat="24.970634" lon="102.285614">
<time>2014-08-04T17:02:26Z</time></trkpt>
<trkpt lat="24.970615" lon="102.285314">
<time>2014-08-04T17:02:27Z</time></trkpt>
<trkpt lat="24.970585" lon="102.284905">
<time>2014-08-04T17:02:28Z</time></trkpt>
<trkpt lat="24.970566" lon="102.284535">
<time>2014-08-04T17:02:29Z</time></trkpt>
<trkpt lat="24.970526" lon="102.284146">
<time>2014-08-04T17:02:30Z</time></trkpt>
<trkpt lat="24.970507" lon="102.283786">
<time>2014-08-04T17:02:31Z</time></trkpt>
<trkpt lat="24.970487" lon="102.283547">
<time>2014-08-04T17:02:32Z</time></trkpt>
<trkpt lat="24.970467" lon="102.283247">
<time>2014-08-04T17:02:33Z</time></trkpt>
<trkpt lat="24.970438" lon="102.282977">
<time>2014-08-04T17:02:34Z</time></trkpt>
<trkpt lat="24.970408" lon="102.282708">
<time>2014-08-04T17:02:35Z</time></trkpt>
<trkpt lat="24.970378" lon="102.282498">
<time>2014-08-04T17:02:36Z</time></trkpt>
<trkpt lat="24.970309" lon="102.282158">
<time>2014-08-04T17:02:37Z</time></trkpt>
<trkpt lat="24.97019" lon="102.281529">
<time>2014-08-04T17:02:38Z</time></trkpt>
<trkpt lat="24.97006" lon="102.2809">
<time>2014-08-04T17:02:39Z</time></trkpt>
<trkpt lat="24.970001" lon="102.28047">
<time>2014-08-04T17:02:40Z</time></trkpt>
<trkpt lat="24.969951" lon="102.280171">
<time>2014-08-04T17:02:41Z</time></trkpt>
<trkpt lat="24.969941" lon="102.279991">
<time>2014-08-04T17:02:42Z</time></trkpt>
<trkpt lat="24.969942" lon="102.279831">
<time>2014-08-04T17:02:43Z</time></trkpt>
<trkpt lat="24.969942" lon="102.279701">
<time>2014-08-04T17:02:44Z</time></trkpt>
<trkpt lat="24.969962" lon="102.279561">
<time>2014-08-04T17:02:45Z</time></trkpt>
<trkpt lat="24.969982" lon="102.279481">
<time>2014-08-04T17:02:46Z</time></trkpt>
<trkpt lat="24.970002" lon="102.279401">
<time>2014-08-04T17:02:47Z</time></trkpt>
<trkpt lat="24.970062" lon="102.279142">
<time>2014-08-04T17:02:48Z</time></trkpt>
<trkpt lat="24.970163" lon="102.278662">
<time>2014-08-04T17:02:49Z</time></trkpt>
<trkpt lat="24.970213" lon="102.278422">
<time>2014-08-04T17:02:50Z</time></trkpt>
<trkpt lat="24.970233" lon="102.278293">
<time>2014-08-04T17:02:51Z</time></trkpt>
<trkpt lat="24.970334" lon="102.277853">
<time>2014-08-04T17:02:52Z</time></trkpt>
<trkpt lat="24.970384" lon="102.277453">
<time>2014-08-04T17:02:53Z</time></trkpt>
<trkpt lat="24.970434" lon="102.277054">
<time>2014-08-04T17:02:54Z</time></trkpt>
<trkpt lat="24.970515" lon="102.276654">
<time>2014-08-04T17:02:55Z</time></trkpt>
<trkpt lat="24.970585" lon="102.276265">
<time>2014-08-04T17:02:56Z</time></trkpt>
<trkpt lat="24.970676" lon="102.275725">
<time>2014-08-04T17:02:57Z</time></trkpt>
<trkpt lat="24.970736" lon="102.275355">
<time>2014-08-04T17:02:58Z</time></trkpt>
<trkpt lat="24.970746" lon="102.275305">
<time>2014-08-04T17:02:59Z</time></trkpt>
<trkpt lat="24.970786" lon="102.275136">
<time>2014-08-04T17:03:00Z</time></trkpt>
<trkpt lat="24.970827" lon="102.274966">
<time>2014-08-04T17:03:01Z</time></trkpt>
<trkpt lat="24.970887" lon="102.274716">
<time>2014-08-04T17:03:02Z</time></trkpt>
<trkpt lat="24.970937" lon="102.274506">
<time>2014-08-04T17:03:03Z</time></trkpt>
<trkpt lat="24.971027" lon="102.274156">
<time>2014-08-04T17:03:04Z</time></trkpt>
<trkpt lat="24.971108" lon="102.273817">
<time>2014-08-04T17:03:05Z</time></trkpt>
<trkpt lat="24.971208" lon="102.273437">
<time>2014-08-04T17:03:06Z</time></trkpt>
<trkpt lat="24.971268" lon="102.273187">
<time>2014-08-04T17:03:07Z</time></trkpt>
<trkpt lat="24.971318" lon="102.272937">
<time>2014-08-04T17:03:08Z</time></trkpt>
<trkpt lat="24.971399" lon="102.272618">
<time>2014-08-04T17:03:09Z</time></trkpt>
<trkpt lat="24.971479" lon="102.272288">
<time>2014-08-04T17:03:10Z</time></trkpt>
<trkpt lat="24.971579" lon="102.271928">
<time>2014-08-04T17:03:11Z</time></trkpt>
<trkpt lat="24.971619" lon="102.271708">
<time>2014-08-04T17:03:12Z</time></trkpt>
<trkpt lat="24.97165" lon="102.271529">
<time>2014-08-04T17:03:13Z</time></trkpt>
<trkpt lat="24.97167" lon="102.271399">
<time>2014-08-04T17:03:14Z</time></trkpt>
<trkpt lat="24.97169" lon="102.271269">
<time>2014-08-04T17:03:15Z</time></trkpt>
<trkpt lat="24.97171" lon="102.271079">
<time>2014-08-04T17:03:16Z</time></trkpt>
<trkpt lat="24.97171" lon="102.271019">
<time>2014-08-04T17:03:17Z</time></trkpt>
<trkpt lat="24.97172" lon="102.270909">
<time>2014-08-04T17:03:18Z</time></trkpt>
<trkpt lat="24.97171" lon="102.270759">
<time>2014-08-04T17:03:19Z</time></trkpt>
<trkpt lat="24.97171" lon="102.270629">
<time>2014-08-04T17:03:20Z</time></trkpt>
<trkpt lat="24.97169" lon="102.270499">
<time>2014-08-04T17:03:21Z</time></trkpt>
<trkpt lat="24.971651" lon="102.27031">
<time>2014-08-04T17:03:22Z</time></trkpt>
<trkpt lat="24.971601" lon="102.27008">
<time>2014-08-04T17:03:23Z</time></trkpt>
<trkpt lat="24.971521" lon="102.26977">
<time>2014-08-04T17:03:24Z</time></trkpt>
<trkpt lat="24.971451" lon="102.26954">
<time>2014-08-04T17:03:25Z</time></trkpt>
<trkpt lat="24.971401" lon="102.26945">
<time>2014-08-04T17:03:26Z</time></trkpt>
<trkpt lat="24.971371" lon="102.26939">
<time>2014-08-04T17:03:27Z</time></trkpt>
<trkpt lat="24.971361" lon="102.26938">
<time>2014-08-04T17:03:28Z</time></trkpt>
<trkpt lat="24.971301" lon="102.2693">
<time>2014-08-04T17:03:29Z</time></trkpt>
<trkpt lat="24.971241" lon="102.26924">
<time>2014-08-04T17:03:30Z</time></trkpt>
<trkpt lat="24.971172" lon="102.26918">
<time>2014-08-04T17:03:31Z</time></trkpt>
<trkpt lat="24.971092" lon="102.26912">
<time>2014-08-04T17:03:32Z</time></trkpt>
<trkpt lat="24.970972" lon="102.26905">
<time>2014-08-04T17:03:33Z</time></trkpt>
<trkpt lat="24.970762" lon="102.268901">
<time>2014-08-04T17:03:34Z</time></trkpt>
<trkpt lat="24.970522" lon="102.268761">
<time>2014-08-04T17:03:35Z</time></trkpt>
<trkpt lat="24.970282" lon="102.268631">
<time>2014-08-04T17:03:36Z</time></trkpt>
<trkpt lat="24.970062" lon="102.268491">
<time>2014-08-04T17:03:37Z</time></trkpt>
<trkpt lat="24.969732" lon="102.268271">
<time>2014-08-04T17:03:38Z</time></trkpt>
<trkpt lat="24.969483" lon="102.268081">
<time>2014-08-04T17:03:39Z</time></trkpt>
<trkpt lat="24.969293" lon="102.267921">
<time>2014-08-04T17:03:40Z</time></trkpt>
<trkpt lat="24.969113" lon="102.267761">
<time>2014-08-04T17:03:41Z</time></trkpt>
<trkpt lat="24.968923" lon="102.267551">
<time>2014-08-04T17:03:42Z</time></trkpt>
<trkpt lat="24.968763" lon="102.267372">
<time>2014-08-04T17:03:43Z</time></trkpt>
<trkpt lat="24.968493" lon="102.267072">
<time>2014-08-04T17:03:44Z</time></trkpt>
<trkpt lat="24.968363" lon="102.266942">
<time>2014-08-04T17:03:45Z</time></trkpt>
<trkpt lat="24.968274" lon="102.266842">
<time>2014-08-04T17:03:46Z</time></trkpt>
<trkpt lat="24.968194" lon="102.266762">
<time>2014-08-04T17:03:47Z</time></trkpt>
<trkpt lat="24.968114" lon="102.266712">
<time>2014-08-04T17:03:48Z</time></trkpt>
<trkpt lat="24.968004" lon="102.266642">
<time>2014-08-04T17:03:49Z</time></trkpt>
<trkpt lat="24.967624" lon="102.266442">
<time>2014-08-04T17:03:50Z</time></trkpt>
<trkpt lat="24.967514" lon="102.266382">
<time>2014-08-04T17:03:51Z</time></trkpt>
<trkpt lat="24.967254" lon="102.266282">
<time>2014-08-04T17:03:52Z</time></trkpt>
<trkpt lat="24.966924" lon="102.266132">
<time>2014-08-04T17:03:53Z</time></trkpt>
<trkpt lat="24.966684" lon="102.266002">
<time>2014-08-04T17:03:54Z</time></trkpt>
<trkpt lat="24.966604" lon="102.265932">
<time>2014-08-04T17:03:55Z</time></trkpt>
<trkpt lat="24.966544" lon="102.265863">
<time>2014-08-04T17:03:56Z</time></trkpt>
<trkpt lat="24.966455" lon="102.265743">
<time>2014-08-04T17:03:57Z</time></trkpt>
<trkpt lat="24.966455" lon="102.265733">
<time>2014-08-04T17:03:58Z</time></trkpt>
<trkpt lat="24.966455" lon="102.265733">
<time>2014-08-04T17:03:59Z</time></trkpt>
<trkpt lat="24.966465" lon="102.265723">
<time>2014-08-04T17:04:00Z</time></trkpt>
<trkpt lat="24.966585" lon="102.265633">
<time>2014-08-04T17:04:01Z</time></trkpt>
<trkpt lat="24.966675" lon="102.265573">
<time>2014-08-04T17:04:02Z</time></trkpt>
<trkpt lat="24.966965" lon="102.265443">
<time>2014-08-04T17:04:03Z</time></trkpt>
<trkpt lat="24.967365" lon="102.265283">
<time>2014-08-04T17:04:04Z</time></trkpt>
<trkpt lat="24.967485" lon="102.265233">
<time>2014-08-04T17:04:05Z</time></trkpt>
<trkpt lat="24.967485" lon="102.265233">
<time>2014-08-04T17:04:06Z</time></trkpt>
<trkpt lat="24.966736" lon="102.262684">
<time>2014-08-04T17:04:07Z</time></trkpt>
<trkpt lat="24.966676" lon="102.262474">
<time>2014-08-04T17:04:08Z</time></trkpt>
<trkpt lat="24.966557" lon="102.261994">
<time>2014-08-04T17:04:09Z</time></trkpt>
<trkpt lat="24.966417" lon="102.261525">
<time>2014-08-04T17:04:10Z</time></trkpt>
<trkpt lat="24.966297" lon="102.261285">
<time>2014-08-04T17:04:11Z</time></trkpt>
<trkpt lat="24.966117" lon="102.260785">
<time>2014-08-04T17:04:12Z</time></trkpt>
<trkpt lat="24.965838" lon="102.260135">
<time>2014-08-04T17:04:13Z</time></trkpt>
<trkpt lat="24.965518" lon="102.259095">
<time>2014-08-04T17:04:14Z</time></trkpt>
<trkpt lat="24.965518" lon="102.259095">
<time>2014-08-04T17:04:15Z</time></trkpt>
<trkpt lat="24.968088" lon="102.257416">
<time>2014-08-04T17:04:16Z</time></trkpt>
<trkpt lat="24.969009" lon="102.256796">
<time>2014-08-04T17:04:17Z</time></trkpt>
<trkpt lat="24.970539" lon="102.255796">
<time>2014-08-04T17:04:18Z</time></trkpt>
<trkpt lat="24.970539" lon="102.255796">
<time>2014-08-04T17:04:19Z</time></trkpt>
<trkpt lat="24.970469" lon="102.255666">
<time>2014-08-04T17:04:20Z</time></trkpt>
<trkpt lat="24.969329" lon="102.253656">
<time>2014-08-04T17:04:21Z</time></trkpt>
<trkpt lat="24.968" lon="102.251276">
<time>2014-08-04T17:04:22Z</time></trkpt>
<trkpt lat="24.968" lon="102.251276">
<time>2014-08-04T17:04:23Z</time></trkpt>
<trkpt lat="24.9673" lon="102.250016">
<time>2014-08-04T17:04:24Z</time></trkpt>
<trkpt lat="24.96715" lon="102.249756">
<time>2014-08-04T17:04:25Z</time></trkpt>
<trkpt lat="24.96624" lon="102.248116">
<time>2014-08-04T17:04:26Z</time></trkpt>
<trkpt lat="24.96517" lon="102.246225">
<time>2014-08-04T17:04:27Z</time></trkpt>
<trkpt lat="24.96517" lon="102.246225">
<time>2014-08-04T17:04:28Z</time></trkpt>
<trkpt lat="24.96521" lon="102.246105">
<time>2014-08-04T17:04:29Z</time></trkpt>
<trkpt lat="24.96521" lon="102.245185">
<time>2014-08-04T17:04:30Z</time></trkpt>
<trkpt lat="24.965" lon="102.244545">
<time>2014-08-04T17:04:31Z</time></trkpt>
<trkpt lat="24.9648" lon="102.244185">
<time>2014-08-04T17:04:32Z</time></trkpt>
<trkpt lat="24.96444" lon="102.243905">
<time>2014-08-04T17:04:33Z</time></trkpt>
<trkpt lat="24.9634" lon="102.243705">
<time>2014-08-04T17:04:34Z</time></trkpt>
<trkpt lat="24.96265" lon="102.243284">
<time>2014-08-04T17:04:35Z</time></trkpt>
<trkpt lat="24.96265" lon="102.243284">
<time>2014-08-04T17:04:36Z</time></trkpt>
<trkpt lat="24.96248" lon="102.242974">
<time>2014-08-04T17:04:37Z</time></trkpt>
<trkpt lat="24.9624" lon="102.242614">
<time>2014-08-04T17:04:38Z</time></trkpt>
<trkpt lat="24.96233" lon="102.242324">
<time>2014-08-04T17:04:39Z</time></trkpt>
<trkpt lat="24.96282" lon="102.241184">
<time>2014-08-04T17:04:40Z</time></trkpt>
<trkpt lat="24.963189" lon="102.240323">
<time>2014-08-04T17:04:41Z</time></trkpt>
<trkpt lat="24.963189" lon="102.240323">
<time>2014-08-04T17:04:42Z</time></trkpt>
<trkpt lat="24.962279" lon="102.239663">
<time>2014-08-04T17:04:43Z</time></trkpt>
<trkpt lat="24.961389" lon="102.239002">
<time>2014-08-04T17:04:44Z</time></trkpt>
<trkpt lat="24.960799" lon="102.238572">
<time>2014-08-04T17:04:45Z</time></trkpt>
<trkpt lat="24.960269" lon="102.238192">
<time>2014-08-04T17:04:46Z</time></trkpt>
<trkpt lat="24.959639" lon="102.237732">
<time>2014-08-04T17:04:47Z</time></trkpt>
<trkpt lat="24.959389" lon="102.237562">
<time>2014-08-04T17:04:48Z</time></trkpt>
<trkpt lat="24.959079" lon="102.237371">
<time>2014-08-04T17:04:49Z</time></trkpt>
<trkpt lat="24.958679" lon="102.237141">
<time>2014-08-04T17:04:50Z</time></trkpt>
<trkpt lat="24.957629" lon="102.236631">
<time>2014-08-04T17:04:51Z</time></trkpt>
<trkpt lat="24.956419" lon="102.236051">
<time>2014-08-04T17:04:52Z</time></trkpt>
<trkpt lat="24.955399" lon="102.23555">
<time>2014-08-04T17:04:53Z</time></trkpt>
<trkpt lat="24.954078" lon="102.23492">
<time>2014-08-04T17:04:54Z</time></trkpt>
<trkpt lat="24.953208" lon="102.2345">
<time>2014-08-04T17:04:55Z</time></trkpt>
<trkpt lat="24.952248" lon="102.234059">
<time>2014-08-04T17:04:56Z</time></trkpt>
<trkpt lat="24.951438" lon="102.233639">
<time>2014-08-04T17:04:57Z</time></trkpt>
<trkpt lat="24.951348" lon="102.233589">
<time>2014-08-04T17:04:58Z</time></trkpt>
<trkpt lat="24.950848" lon="102.233349">
<time>2014-08-04T17:04:59Z</time></trkpt>
<trkpt lat="24.950488" lon="102.233169">
<time>2014-08-04T17:05:00Z</time></trkpt>
<trkpt lat="24.950008" lon="102.232878">
<time>2014-08-04T17:05:01Z</time></trkpt>
<trkpt lat="24.949598" lon="102.232558">
<time>2014-08-04T17:05:02Z</time></trkpt>
<trkpt lat="24.949117" lon="102.232148">
<time>2014-08-04T17:05:03Z</time></trkpt>
<trkpt lat="24.948327" lon="102.231457">
<time>2014-08-04T17:05:04Z</time></trkpt>
<trkpt lat="24.947967" lon="102.231147">
<time>2014-08-04T17:05:05Z</time></trkpt>
<trkpt lat="24.947587" lon="102.230847">
<time>2014-08-04T17:05:06Z</time></trkpt>
<trkpt lat="24.947257" lon="102.230606">
<time>2014-08-04T17:05:07Z</time></trkpt>
<trkpt lat="24.946867" lon="102.230366">
<time>2014-08-04T17:05:08Z</time></trkpt>
<trkpt lat="24.946286" lon="102.230026">
<time>2014-08-04T17:05:09Z</time></trkpt>
<trkpt lat="24.945736" lon="102.229686">
<time>2014-08-04T17:05:10Z</time></trkpt>
<trkpt lat="24.945346" lon="102.229415">
<time>2014-08-04T17:05:11Z</time></trkpt>
<trkpt lat="24.945036" lon="102.229155">
<time>2014-08-04T17:05:12Z</time></trkpt>
<trkpt lat="24.944136" lon="102.228334">
<time>2014-08-04T17:05:13Z</time></trkpt>
<trkpt lat="24.943055" lon="102.227343">
<time>2014-08-04T17:05:14Z</time></trkpt>
<trkpt lat="24.941874" lon="102.226262">
<time>2014-08-04T17:05:15Z</time></trkpt>
<trkpt lat="24.941544" lon="102.225972">
<time>2014-08-04T17:05:16Z</time></trkpt>
<trkpt lat="24.940774" lon="102.225351">
<time>2014-08-04T17:05:17Z</time></trkpt>
<trkpt lat="24.939703" lon="102.22452">
<time>2014-08-04T17:05:18Z</time></trkpt>
<trkpt lat="24.939213" lon="102.22414">
<time>2014-08-04T17:05:19Z</time></trkpt>
<trkpt lat="24.938773" lon="102.22388">
<time>2014-08-04T17:05:20Z</time></trkpt>
<trkpt lat="24.938773" lon="102.22388">
<time>2014-08-04T17:05:21Z</time></trkpt>
<trkpt lat="24.938832" lon="102.223189">
<time>2014-08-04T17:05:22Z</time></trkpt>
<trkpt lat="24.938852" lon="102.223029">
<time>2014-08-04T17:05:23Z</time></trkpt>
<trkpt lat="24.938882" lon="102.222838">
<time>2014-08-04T17:05:24Z</time></trkpt>
<trkpt lat="24.938911" lon="102.222688">
<time>2014-08-04T17:05:25Z</time></trkpt>
<trkpt lat="24.938941" lon="102.222538">
<time>2014-08-04T17:05:26Z</time></trkpt>
<trkpt lat="24.938971" lon="102.222438">
<time>2014-08-04T17:05:27Z</time></trkpt>
<trkpt lat="24.939001" lon="102.222338">
<time>2014-08-04T17:05:28Z</time></trkpt>
<trkpt lat="24.939021" lon="102.222278">
<time>2014-08-04T17:05:29Z</time></trkpt>
<trkpt lat="24.939051" lon="102.222198">
<time>2014-08-04T17:05:30Z</time></trkpt>
<trkpt lat="24.939101" lon="102.222077">
<time>2014-08-04T17:05:31Z</time></trkpt>
<trkpt lat="24.939191" lon="102.221857">
<time>2014-08-04T17:05:32Z</time></trkpt>
<trkpt lat="24.939749" lon="102.220616">
<time>2014-08-04T17:05:33Z</time></trkpt>
<trkpt lat="24.940178" lon="102.219664">
<time>2014-08-04T17:05:34Z</time></trkpt>
<trkpt lat="24.940298" lon="102.219374">
<time>2014-08-04T17:05:35Z</time></trkpt>
<trkpt lat="24.940428" lon="102.219063">
<time>2014-08-04T17:05:36Z</time></trkpt>
<trkpt lat="24.940587" lon="102.218723">
<time>2014-08-04T17:05:37Z</time></trkpt>
<trkpt lat="24.940687" lon="102.218473">
<time>2014-08-04T17:05:38Z</time></trkpt>
<trkpt lat="24.940777" lon="102.218282">
<time>2014-08-04T17:05:39Z</time></trkpt>
<trkpt lat="24.940817" lon="102.218172">
<time>2014-08-04T17:05:40Z</time></trkpt>
<trkpt lat="24.940926" lon="102.217842">
<time>2014-08-04T17:05:41Z</time></trkpt>
<trkpt lat="24.941424" lon="102.215969">
<time>2014-08-04T17:05:42Z</time></trkpt>
<trkpt lat="24.941534" lon="102.215548">
<time>2014-08-04T17:05:43Z</time></trkpt>
<trkpt lat="24.941564" lon="102.215428">
<time>2014-08-04T17:05:44Z</time></trkpt>
<trkpt lat="24.941623" lon="102.215268">
<time>2014-08-04T17:05:45Z</time></trkpt>
<trkpt lat="24.941683" lon="102.215118">
<time>2014-08-04T17:05:46Z</time></trkpt>
<trkpt lat="24.941733" lon="102.215018">
<time>2014-08-04T17:05:47Z</time></trkpt>
<trkpt lat="24.941773" lon="102.214948">
<time>2014-08-04T17:05:48Z</time></trkpt>
<trkpt lat="24.941863" lon="102.214807">
<time>2014-08-04T17:05:49Z</time></trkpt>
<trkpt lat="24.941923" lon="102.214717">
<time>2014-08-04T17:05:50Z</time></trkpt>
<trkpt lat="24.941983" lon="102.214637">
<time>2014-08-04T17:05:51Z</time></trkpt>
<trkpt lat="24.942122" lon="102.214487">
<time>2014-08-04T17:05:52Z</time></trkpt>
<trkpt lat="24.942262" lon="102.214337">
<time>2014-08-04T17:05:53Z</time></trkpt>
<trkpt lat="24.942422" lon="102.214216">
<time>2014-08-04T17:05:54Z</time></trkpt>
<trkpt lat="24.942542" lon="102.214146">
<time>2014-08-04T17:05:55Z</time></trkpt>
<trkpt lat="24.942652" lon="102.214066">
<time>2014-08-04T17:05:56Z</time></trkpt>
<trkpt lat="24.942832" lon="102.213956">
<time>2014-08-04T17:05:57Z</time></trkpt>
<trkpt lat="24.943061" lon="102.213836">
<time>2014-08-04T17:05:58Z</time></trkpt>
<trkpt lat="24.943201" lon="102.213756">
<time>2014-08-04T17:05:59Z</time></trkpt>
<trkpt lat="24.943691" lon="102.213495">
<time>2014-08-04T17:06:00Z</time></trkpt>
<trkpt lat="24.943921" lon="102.213365">
<time>2014-08-04T17:06:01Z</time></trkpt>
<trkpt lat="24.944051" lon="102.213285">
<time>2014-08-04T17:06:02Z</time></trkpt>
<trkpt lat="24.944211" lon="102.213185">
<time>2014-08-04T17:06:03Z</time></trkpt>
<trkpt lat="24.94435" lon="102.213085">
<time>2014-08-04T17:06:04Z</time></trkpt>
<trkpt lat="24.94445" lon="102.213004">
<time>2014-08-04T17:06:05Z</time></trkpt>
<trkpt lat="24.9447" lon="102.212794">
<time>2014-08-04T17:06:06Z</time></trkpt>
<trkpt lat="24.94485" lon="102.212644">
<time>2014-08-04T17:06:07Z</time></trkpt>
<trkpt lat="24.945059" lon="102.212413">
<time>2014-08-04T17:06:08Z</time></trkpt>
<trkpt lat="24.945728" lon="102.211682">
<time>2014-08-04T17:06:09Z</time></trkpt>
<trkpt lat="24.946298" lon="102.211061">
<time>2014-08-04T17:06:10Z</time></trkpt>
<trkpt lat="24.946757" lon="102.21056">
<time>2014-08-04T17:06:11Z</time></trkpt>
<trkpt lat="24.946907" lon="102.21041">
<time>2014-08-04T17:06:12Z</time></trkpt>
<trkpt lat="24.947076" lon="102.21026">
<time>2014-08-04T17:06:13Z</time></trkpt>
<trkpt lat="24.947296" lon="102.21008">
<time>2014-08-04T17:06:14Z</time></trkpt>
<trkpt lat="24.947536" lon="102.209889">
<time>2014-08-04T17:06:15Z</time></trkpt>
<trkpt lat="24.947736" lon="102.209739">
<time>2014-08-04T17:06:16Z</time></trkpt>
<trkpt lat="24.948115" lon="102.209469">
<time>2014-08-04T17:06:17Z</time></trkpt>
<trkpt lat="24.950932" lon="102.207505">
<time>2014-08-04T17:06:18Z</time></trkpt>
<trkpt lat="24.95283" lon="102.206183">
<time>2014-08-04T17:06:19Z</time></trkpt>
<trkpt lat="24.95308" lon="102.206012">
<time>2014-08-04T17:06:20Z</time></trkpt>
<trkpt lat="24.95316" lon="102.205952">
<time>2014-08-04T17:06:21Z</time></trkpt>
<trkpt lat="24.95325" lon="102.205872">
<time>2014-08-04T17:06:22Z</time></trkpt>
<trkpt lat="24.95329" lon="102.205832">
<time>2014-08-04T17:06:23Z</time></trkpt>
<trkpt lat="24.95333" lon="102.205782">
<time>2014-08-04T17:06:24Z</time></trkpt>
<trkpt lat="24.953359" lon="102.205742">
<time>2014-08-04T17:06:25Z</time></trkpt>
<trkpt lat="24.953379" lon="102.205722">
<time>2014-08-04T17:06:26Z</time></trkpt>
<trkpt lat="24.953389" lon="102.205672">
<time>2014-08-04T17:06:27Z</time></trkpt>
<trkpt lat="24.953399" lon="102.205632">
<time>2014-08-04T17:06:28Z</time></trkpt>
<trkpt lat="24.953409" lon="102.205612">
<time>2014-08-04T17:06:29Z</time></trkpt>
<trkpt lat="24.953409" lon="102.205592">
<time>2014-08-04T17:06:30Z</time></trkpt>
<trkpt lat="24.953409" lon="102.205572">
<time>2014-08-04T17:06:31Z</time></trkpt>
<trkpt lat="24.953409" lon="102.205542">
<time>2014-08-04T17:06:32Z</time></trkpt>
<trkpt lat="24.953409" lon="102.205512">
<time>2014-08-04T17:06:33Z</time></trkpt>
<trkpt lat="24.953409" lon="102.205492">
<time>2014-08-04T17:06:34Z</time></trkpt>
<trkpt lat="24.953399" lon="102.205451">
<time>2014-08-04T17:06:35Z</time></trkpt>
<trkpt lat="24.953389" lon="102.205421">
<time>2014-08-04T17:06:36Z</time></trkpt>
<trkpt lat="24.953379" lon="102.205401">
<time>2014-08-04T17:06:37Z</time></trkpt>
<trkpt lat="24.953359" lon="102.205371">
<time>2014-08-04T17:06:38Z</time></trkpt>
<trkpt lat="24.953349" lon="102.205341">
<time>2014-08-04T17:06:39Z</time></trkpt>
<trkpt lat="24.953319" lon="102.205301">
<time>2014-08-04T17:06:40Z</time></trkpt>
<trkpt lat="24.953289" lon="102.205261">
<time>2014-08-04T17:06:41Z</time></trkpt>
<trkpt lat="24.953239" lon="102.205211">
<time>2014-08-04T17:06:42Z</time></trkpt>
<trkpt lat="24.953159" lon="102.205151">
<time>2014-08-04T17:06:43Z</time></trkpt>
<trkpt lat="24.953079" lon="102.205091">
<time>2014-08-04T17:06:44Z</time></trkpt>
<trkpt lat="24.952989" lon="102.205041">
<time>2014-08-04T17:06:45Z</time></trkpt>
<trkpt lat="24.952918" lon="102.204981">
<time>2014-08-04T17:06:46Z</time></trkpt>
<trkpt lat="24.952778" lon="102.2049">
<time>2014-08-04T17:06:47Z</time></trkpt>
<trkpt lat="24.952268" lon="102.20459">
<time>2014-08-04T17:06:48Z</time></trkpt>
<trkpt lat="24.951547" lon="102.204159">
<time>2014-08-04T17:06:49Z</time></trkpt>
<trkpt lat="24.951187" lon="102.203929">
<time>2014-08-04T17:06:50Z</time></trkpt>
<trkpt lat="24.951067" lon="102.203849">
<time>2014-08-04T17:06:51Z</time></trkpt>
<trkpt lat="24.950957" lon="102.203768">
<time>2014-08-04T17:06:52Z</time></trkpt>
<trkpt lat="24.950837" lon="102.203638">
<time>2014-08-04T17:06:53Z</time></trkpt>
<trkpt lat="24.950787" lon="102.203588">
<time>2014-08-04T17:06:54Z</time></trkpt>
<trkpt lat="24.950727" lon="102.203508">
<time>2014-08-04T17:06:55Z</time></trkpt>
<trkpt lat="24.950676" lon="102.203428">
<time>2014-08-04T17:06:56Z</time></trkpt>
<trkpt lat="24.950636" lon="102.203358">
<time>2014-08-04T17:06:57Z</time></trkpt>
<trkpt lat="24.950606" lon="102.203298">
<time>2014-08-04T17:06:58Z</time></trkpt>
<trkpt lat="24.950596" lon="102.203258">
<time>2014-08-04T17:06:59Z</time></trkpt>
<trkpt lat="24.950576" lon="102.203197">
<time>2014-08-04T17:07:00Z</time></trkpt>
<trkpt lat="24.950546" lon="102.203057">
<time>2014-08-04T17:07:01Z</time></trkpt>
<trkpt lat="24.950536" lon="102.202937">
<time>2014-08-04T17:07:02Z</time></trkpt>
<trkpt lat="24.950526" lon="102.202777">
<time>2014-08-04T17:07:03Z</time></trkpt>
<trkpt lat="24.950515" lon="102.202616">
<time>2014-08-04T17:07:04Z</time></trkpt>
<trkpt lat="24.950515" lon="102.202346">
<time>2014-08-04T17:07:05Z</time></trkpt>
<trkpt lat="24.950534" lon="102.202055">
<time>2014-08-04T17:07:06Z</time></trkpt>
<trkpt lat="24.950554" lon="102.201785">
<time>2014-08-04T17:07:07Z</time></trkpt>
<trkpt lat="24.950593" lon="102.201244">
<time>2014-08-04T17:07:08Z</time></trkpt>
<trkpt lat="24.950692" lon="102.200362">
<time>2014-08-04T17:07:09Z</time></trkpt>
<trkpt lat="24.950741" lon="102.199971">
<time>2014-08-04T17:07:10Z</time></trkpt>
<trkpt lat="24.950791" lon="102.199801">
<time>2014-08-04T17:07:11Z</time></trkpt>
<trkpt lat="24.950831" lon="102.199641">
<time>2014-08-04T17:07:12Z</time></trkpt>
<trkpt lat="24.950861" lon="102.19956">
<time>2014-08-04T17:07:13Z</time></trkpt>
<trkpt lat="24.95089" lon="102.19946">
<time>2014-08-04T17:07:14Z</time></trkpt>
<trkpt lat="24.95094" lon="102.19933">
<time>2014-08-04T17:07:15Z</time></trkpt>
<trkpt lat="24.95098" lon="102.19925">
<time>2014-08-04T17:07:16Z</time></trkpt>
<trkpt lat="24.95106" lon="102.19911">
<time>2014-08-04T17:07:17Z</time></trkpt>
<trkpt lat="24.95117" lon="102.198939">
<time>2014-08-04T17:07:18Z</time></trkpt>
<trkpt lat="24.951299" lon="102.198759">
<time>2014-08-04T17:07:19Z</time></trkpt>
<trkpt lat="24.951459" lon="102.198508">
<time>2014-08-04T17:07:20Z</time></trkpt>
<trkpt lat="24.951588" lon="102.198288">
<time>2014-08-04T17:07:21Z</time></trkpt>
<trkpt lat="24.951718" lon="102.198098">
<time>2014-08-04T17:07:22Z</time></trkpt>
<trkpt lat="24.951977" lon="102.197627">
<time>2014-08-04T17:07:23Z</time></trkpt>
<trkpt lat="24.952167" lon="102.197286">
<time>2014-08-04T17:07:24Z</time></trkpt>
<trkpt lat="24.952296" lon="102.197045">
<time>2014-08-04T17:07:25Z</time></trkpt>
<trkpt lat="24.952964" lon="102.195793">
<time>2014-08-04T17:07:26Z</time></trkpt>
<trkpt lat="24.953104" lon="102.195562">
<time>2014-08-04T17:07:27Z</time></trkpt>
<trkpt lat="24.953204" lon="102.195432">
<time>2014-08-04T17:07:28Z</time></trkpt>
<trkpt lat="24.953383" lon="102.195192">
<time>2014-08-04T17:07:29Z</time></trkpt>
<trkpt lat="24.953982" lon="102.19448">
<time>2014-08-04T17:07:30Z</time></trkpt>
<trkpt lat="24.954261" lon="102.19416">
<time>2014-08-04T17:07:31Z</time></trkpt>
<trkpt lat="24.954271" lon="102.19415">
<time>2014-08-04T17:07:32Z</time></trkpt>
<trkpt lat="24.954431" lon="102.193979">
<time>2014-08-04T17:07:33Z</time></trkpt>
<trkpt lat="24.954571" lon="102.193799">
<time>2014-08-04T17:07:34Z</time></trkpt>
<trkpt lat="24.9549" lon="102.193428">
<time>2014-08-04T17:07:35Z</time></trkpt>
<trkpt lat="24.95499" lon="102.193308">
<time>2014-08-04T17:07:36Z</time></trkpt>
<trkpt lat="24.95505" lon="102.193228">
<time>2014-08-04T17:07:37Z</time></trkpt>
<trkpt lat="24.95508" lon="102.193198">
<time>2014-08-04T17:07:38Z</time></trkpt>
<trkpt lat="24.955119" lon="102.193127">
<time>2014-08-04T17:07:39Z</time></trkpt>
<trkpt lat="24.955159" lon="102.193047">
<time>2014-08-04T17:07:40Z</time></trkpt>
<trkpt lat="24.955179" lon="102.192987">
<time>2014-08-04T17:07:41Z</time></trkpt>
<trkpt lat="24.955209" lon="102.192887">
<time>2014-08-04T17:07:42Z</time></trkpt>
<trkpt lat="24.955239" lon="102.192787">
<time>2014-08-04T17:07:43Z</time></trkpt>
<trkpt lat="24.955249" lon="102.192696">
<time>2014-08-04T17:07:44Z</time></trkpt>
<trkpt lat="24.955249" lon="102.192636">
<time>2014-08-04T17:07:45Z</time></trkpt>
<trkpt lat="24.955249" lon="102.192586">
<time>2014-08-04T17:07:46Z</time></trkpt>
<trkpt lat="24.955248" lon="102.192516">
<time>2014-08-04T17:07:47Z</time></trkpt>
<trkpt lat="24.955238" lon="102.192446">
<time>2014-08-04T17:07:48Z</time></trkpt>
<trkpt lat="24.955228" lon="102.192386">
<time>2014-08-04T17:07:49Z</time></trkpt>
<trkpt lat="24.955208" lon="102.192316">
<time>2014-08-04T17:07:50Z</time></trkpt>
<trkpt lat="24.955188" lon="102.192256">
<time>2014-08-04T17:07:51Z</time></trkpt>
<trkpt lat="24.955168" lon="102.192205">
<time>2014-08-04T17:07:52Z</time></trkpt>
<trkpt lat="24.955138" lon="102.192145">
<time>2014-08-04T17:07:53Z</time></trkpt>
<trkpt lat="24.955098" lon="102.192065">
<time>2014-08-04T17:07:54Z</time></trkpt>
<trkpt lat="24.955027" lon="102.191945">
<time>2014-08-04T17:07:55Z</time></trkpt>
<trkpt lat="24.954867" lon="102.191654">
<time>2014-08-04T17:07:56Z</time></trkpt>
<trkpt lat="24.954807" lon="102.191534">
<time>2014-08-04T17:07:57Z</time></trkpt>
<trkpt lat="24.954777" lon="102.191464">
<time>2014-08-04T17:07:58Z</time></trkpt>
<trkpt lat="24.954757" lon="102.191404">
<time>2014-08-04T17:07:59Z</time></trkpt>
<trkpt lat="24.954736" lon="102.191344">
<time>2014-08-04T17:08:00Z</time></trkpt>
<trkpt lat="24.954716" lon="102.191253">
<time>2014-08-04T17:08:01Z</time></trkpt>
<trkpt lat="24.954706" lon="102.191183">
<time>2014-08-04T17:08:02Z</time></trkpt>
<trkpt lat="24.954696" lon="102.191123">
<time>2014-08-04T17:08:03Z</time></trkpt>
<trkpt lat="24.954696" lon="102.191043">
<time>2014-08-04T17:08:04Z</time></trkpt>
<trkpt lat="24.954686" lon="102.190953">
<time>2014-08-04T17:08:05Z</time></trkpt>
<trkpt lat="24.954686" lon="102.190853">
<time>2014-08-04T17:08:06Z</time></trkpt>
<trkpt lat="24.954695" lon="102.190752">
<time>2014-08-04T17:08:07Z</time></trkpt>
<trkpt lat="24.954705" lon="102.190632">
<time>2014-08-04T17:08:08Z</time></trkpt>
<trkpt lat="24.954774" lon="102.18987">
<time>2014-08-04T17:08:09Z</time></trkpt>
<trkpt lat="24.954784" lon="102.1898">
<time>2014-08-04T17:08:10Z</time></trkpt>
<trkpt lat="24.954784" lon="102.18973">
<time>2014-08-04T17:08:11Z</time></trkpt>
<trkpt lat="24.954804" lon="102.18968">
<time>2014-08-04T17:08:12Z</time></trkpt>
<trkpt lat="24.954833" lon="102.1896">
<time>2014-08-04T17:08:13Z</time></trkpt>
<trkpt lat="24.954853" lon="102.18956">
<time>2014-08-04T17:08:14Z</time></trkpt>
<trkpt lat="24.954883" lon="102.18951">
<time>2014-08-04T17:08:15Z</time></trkpt>
<trkpt lat="24.954913" lon="102.18947">
<time>2014-08-04T17:08:16Z</time></trkpt>
<trkpt lat="24.954953" lon="102.18943">
<time>2014-08-04T17:08:17Z</time></trkpt>
<trkpt lat="24.954983" lon="102.189409">
<time>2014-08-04T17:08:18Z</time></trkpt>
<trkpt lat="24.955033" lon="102.189379">
<time>2014-08-04T17:08:19Z</time></trkpt>
<trkpt lat="24.955083" lon="102.189349">
<time>2014-08-04T17:08:20Z</time></trkpt>
<trkpt lat="24.955173" lon="102.189309">
<time>2014-08-04T17:08:21Z</time></trkpt>
<trkpt lat="24.955293" lon="102.189269">
<time>2014-08-04T17:08:22Z</time></trkpt>
<trkpt lat="24.956232" lon="102.188999">
<time>2014-08-04T17:08:23Z</time></trkpt>
<trkpt lat="24.956482" lon="102.188958">
<time>2014-08-04T17:08:24Z</time></trkpt>
<trkpt lat="24.956752" lon="102.188918">
<time>2014-08-04T17:08:25Z</time></trkpt>
<trkpt lat="24.957012" lon="102.188888">
<time>2014-08-04T17:08:26Z</time></trkpt>
<trkpt lat="24.957662" lon="102.188828">
<time>2014-08-04T17:08:27Z</time></trkpt>
<trkpt lat="24.957772" lon="102.188818">
<time>2014-08-04T17:08:28Z</time></trkpt>
<trkpt lat="24.957952" lon="102.188788">
<time>2014-08-04T17:08:29Z</time></trkpt>
<trkpt lat="24.958062" lon="102.188748">
<time>2014-08-04T17:08:30Z</time></trkpt>
<trkpt lat="24.958111" lon="102.188728">
<time>2014-08-04T17:08:31Z</time></trkpt>
<trkpt lat="24.958171" lon="102.188708">
<time>2014-08-04T17:08:32Z</time></trkpt>
<trkpt lat="24.958231" lon="102.188678">
<time>2014-08-04T17:08:33Z</time></trkpt>
<trkpt lat="24.958281" lon="102.188638">
<time>2014-08-04T17:08:34Z</time></trkpt>
<trkpt lat="24.958321" lon="102.188618">
<time>2014-08-04T17:08:35Z</time></trkpt>
<trkpt lat="24.958381" lon="102.188568">
<time>2014-08-04T17:08:36Z</time></trkpt>
<trkpt lat="24.958431" lon="102.188527">
<time>2014-08-04T17:08:37Z</time></trkpt>
<trkpt lat="24.958481" lon="102.188487">
<time>2014-08-04T17:08:38Z</time></trkpt>
<trkpt lat="24.958531" lon="102.188427">
<time>2014-08-04T17:08:39Z</time></trkpt>
<trkpt lat="24.958681" lon="102.188267">
<time>2014-08-04T17:08:40Z</time></trkpt>
<trkpt lat="24.95891" lon="102.187986">
<time>2014-08-04T17:08:41Z</time></trkpt>
<trkpt lat="24.95894" lon="102.187946">
<time>2014-08-04T17:08:42Z</time></trkpt>
<trkpt lat="24.959219" lon="102.187615">
<time>2014-08-04T17:08:43Z</time></trkpt>
<trkpt lat="24.959369" lon="102.187455">
<time>2014-08-04T17:08:44Z</time></trkpt>
<trkpt lat="24.959529" lon="102.187315">
<time>2014-08-04T17:08:45Z</time></trkpt>
<trkpt lat="24.959609" lon="102.187265">
<time>2014-08-04T17:08:46Z</time></trkpt>
<trkpt lat="24.959699" lon="102.187225">
<time>2014-08-04T17:08:47Z</time></trkpt>
<trkpt lat="24.959759" lon="102.187195">
<time>2014-08-04T17:08:48Z</time></trkpt>
<trkpt lat="24.959839" lon="102.187184">
<time>2014-08-04T17:08:49Z</time></trkpt>
<trkpt lat="24.959939" lon="102.187174">
<time>2014-08-04T17:08:50Z</time></trkpt>
<trkpt lat="24.960058" lon="102.187164">
<time>2014-08-04T17:08:51Z</time></trkpt>
<trkpt lat="24.960168" lon="102.187174">
<time>2014-08-04T17:08:52Z</time></trkpt>
<trkpt lat="24.960278" lon="102.187174">
<time>2014-08-04T17:08:53Z</time></trkpt>
<trkpt lat="24.960408" lon="102.187174">
<time>2014-08-04T17:08:54Z</time></trkpt>
<trkpt lat="24.960908" lon="102.187205">
<time>2014-08-04T17:08:55Z</time></trkpt>
<trkpt lat="24.961398" lon="102.187245">
<time>2014-08-04T17:08:56Z</time></trkpt>
<trkpt lat="24.961648" lon="102.187255">
<time>2014-08-04T17:08:57Z</time></trkpt>
<trkpt lat="24.962368" lon="102.187275">
<time>2014-08-04T17:08:58Z</time></trkpt>
<trkpt lat="24.962528" lon="102.187275">
<time>2014-08-04T17:08:59Z</time></trkpt>
<trkpt lat="24.962668" lon="102.187265">
<time>2014-08-04T17:09:00Z</time></trkpt>
<trkpt lat="24.962778" lon="102.187245">
<time>2014-08-04T17:09:01Z</time></trkpt>
<trkpt lat="24.962878" lon="102.187224">
<time>2014-08-04T17:09:02Z</time></trkpt>
<trkpt lat="24.962978" lon="102.187194">
<time>2014-08-04T17:09:03Z</time></trkpt>
<trkpt lat="24.963088" lon="102.187164">
<time>2014-08-04T17:09:04Z</time></trkpt>
<trkpt lat="24.963248" lon="102.187114">
<time>2014-08-04T17:09:05Z</time></trkpt>
<trkpt lat="24.963368" lon="102.187064">
<time>2014-08-04T17:09:06Z</time></trkpt>
<trkpt lat="24.963538" lon="102.186974">
<time>2014-08-04T17:09:07Z</time></trkpt>
<trkpt lat="24.963668" lon="102.186914">
<time>2014-08-04T17:09:08Z</time></trkpt>
<trkpt lat="24.963787" lon="102.186844">
<time>2014-08-04T17:09:09Z</time></trkpt>
<trkpt lat="24.963987" lon="102.186713">
<time>2014-08-04T17:09:10Z</time></trkpt>
<trkpt lat="24.964327" lon="102.186473">
<time>2014-08-04T17:09:11Z</time></trkpt>
<trkpt lat="24.965166" lon="102.185891">
<time>2014-08-04T17:09:12Z</time></trkpt>
<trkpt lat="24.965325" lon="102.185771">
<time>2014-08-04T17:09:13Z</time></trkpt>
<trkpt lat="24.965455" lon="102.185671">
<time>2014-08-04T17:09:14Z</time></trkpt>
<trkpt lat="24.965585" lon="102.185561">
<time>2014-08-04T17:09:15Z</time></trkpt>
<trkpt lat="24.965725" lon="102.18544">
<time>2014-08-04T17:09:16Z</time></trkpt>
<trkpt lat="24.965795" lon="102.18537">
<time>2014-08-04T17:09:17Z</time></trkpt>
<trkpt lat="24.965884" lon="102.18527">
<time>2014-08-04T17:09:18Z</time></trkpt>
<trkpt lat="24.966034" lon="102.1851">
<time>2014-08-04T17:09:19Z</time></trkpt>
<trkpt lat="24.966204" lon="102.184859">
<time>2014-08-04T17:09:20Z</time></trkpt>
<trkpt lat="24.966333" lon="102.184689">
<time>2014-08-04T17:09:21Z</time></trkpt>
<trkpt lat="24.967101" lon="102.183697">
<time>2014-08-04T17:09:22Z</time></trkpt>
<trkpt lat="24.96763" lon="102.183005">
<time>2014-08-04T17:09:23Z</time></trkpt>
<trkpt lat="24.967949" lon="102.182584">
<time>2014-08-04T17:09:24Z</time></trkpt>
<trkpt lat="24.968039" lon="102.182474">
<time>2014-08-04T17:09:25Z</time></trkpt>
<trkpt lat="24.968218" lon="102.182213">
<time>2014-08-04T17:09:26Z</time></trkpt>
<trkpt lat="24.968268" lon="102.182123">
<time>2014-08-04T17:09:27Z</time></trkpt>
<trkpt lat="24.968338" lon="102.182003">
<time>2014-08-04T17:09:28Z</time></trkpt>
<trkpt lat="24.968408" lon="102.181852">
<time>2014-08-04T17:09:29Z</time></trkpt>
<trkpt lat="24.968487" lon="102.181652">
<time>2014-08-04T17:09:30Z</time></trkpt>
<trkpt lat="24.968527" lon="102.181471">
<time>2014-08-04T17:09:31Z</time></trkpt>
<trkpt lat="24.968547" lon="102.181381">
<time>2014-08-04T17:09:32Z</time></trkpt>
<trkpt lat="24.968567" lon="102.181271">
<time>2014-08-04T17:09:33Z</time></trkpt>
<trkpt lat="24.968577" lon="102.181161">
<time>2014-08-04T17:09:34Z</time></trkpt>
<trkpt lat="24.968576" lon="102.181041">
<time>2014-08-04T17:09:35Z</time></trkpt>
<trkpt lat="24.968576" lon="102.18094">
<time>2014-08-04T17:09:36Z</time></trkpt>
<trkpt lat="24.968566" lon="102.18082">
<time>2014-08-04T17:09:37Z</time></trkpt>
<trkpt lat="24.968556" lon="102.18072">
<time>2014-08-04T17:09:38Z</time></trkpt>
<trkpt lat="24.968525" lon="102.180589">
<time>2014-08-04T17:09:39Z</time></trkpt>
<trkpt lat="24.968505" lon="102.180469">
<time>2014-08-04T17:09:40Z</time></trkpt>
<trkpt lat="24.968475" lon="102.180369">
<time>2014-08-04T17:09:41Z</time></trkpt>
<trkpt lat="24.968435" lon="102.180249">
<time>2014-08-04T17:09:42Z</time></trkpt>
<trkpt lat="24.968375" lon="102.180118">
<time>2014-08-04T17:09:43Z</time></trkpt>
<trkpt lat="24.968324" lon="102.180028">
<time>2014-08-04T17:09:44Z</time></trkpt>
<trkpt lat="24.968274" lon="102.179938">
<time>2014-08-04T17:09:45Z</time></trkpt>
<trkpt lat="24.968214" lon="102.179838">
<time>2014-08-04T17:09:46Z</time></trkpt>
<trkpt lat="24.968064" lon="102.179617">
<time>2014-08-04T17:09:47Z</time></trkpt>
<trkpt lat="24.967873" lon="102.179377">
<time>2014-08-04T17:09:48Z</time></trkpt>
<trkpt lat="24.967673" lon="102.179136">
<time>2014-08-04T17:09:49Z</time></trkpt>
<trkpt lat="24.967472" lon="102.178896">
<time>2014-08-04T17:09:50Z</time></trkpt>
<trkpt lat="24.967272" lon="102.178645">
<time>2014-08-04T17:09:51Z</time></trkpt>
<trkpt lat="24.967182" lon="102.178535">
<time>2014-08-04T17:09:52Z</time></trkpt>
<trkpt lat="24.967092" lon="102.178395">
<time>2014-08-04T17:09:53Z</time></trkpt>
<trkpt lat="24.967011" lon="102.178264">
<time>2014-08-04T17:09:54Z</time></trkpt>
<trkpt lat="24.966941" lon="102.178124">
<time>2014-08-04T17:09:55Z</time></trkpt>
<trkpt lat="24.966921" lon="102.178064">
<time>2014-08-04T17:09:56Z</time></trkpt>
<trkpt lat="24.966901" lon="102.178004">
<time>2014-08-04T17:09:57Z</time></trkpt>
<trkpt lat="24.966881" lon="102.177954">
<time>2014-08-04T17:09:58Z</time></trkpt>
<trkpt lat="24.966871" lon="102.177913">
<time>2014-08-04T17:09:59Z</time></trkpt>
<trkpt lat="24.966861" lon="102.177863">
<time>2014-08-04T17:10:00Z</time></trkpt>
<trkpt lat="24.96685" lon="102.177803">
<time>2014-08-04T17:10:01Z</time></trkpt>
<trkpt lat="24.96684" lon="102.177763">
<time>2014-08-04T17:10:02Z</time></trkpt>
<trkpt lat="24.96684" lon="102.177723">
<time>2014-08-04T17:10:03Z</time></trkpt>
<trkpt lat="24.96684" lon="102.177683">
<time>2014-08-04T17:10:04Z</time></trkpt>
<trkpt lat="24.96684" lon="102.177643">
<time>2014-08-04T17:10:05Z</time></trkpt>
<trkpt lat="24.96684" lon="102.177583">
<time>2014-08-04T17:10:06Z</time></trkpt>
<trkpt lat="24.96684" lon="102.177533">
<time>2014-08-04T17:10:07Z</time></trkpt>
<trkpt lat="24.96685" lon="102.177502">
<time>2014-08-04T17:10:08Z</time></trkpt>
<trkpt lat="24.96686" lon="102.177432">
<time>2014-08-04T17:10:09Z</time></trkpt>
<trkpt lat="24.96688" lon="102.177392">
<time>2014-08-04T17:10:10Z</time></trkpt>
<trkpt lat="24.9669" lon="102.177342">
<time>2014-08-04T17:10:11Z</time></trkpt>
<trkpt lat="24.96692" lon="102.177312">
<time>2014-08-04T17:10:12Z</time></trkpt>
<trkpt lat="24.966949" lon="102.177262">
<time>2014-08-04T17:10:13Z</time></trkpt>
<trkpt lat="24.966989" lon="102.177202">
<time>2014-08-04T17:10:14Z</time></trkpt>
<trkpt lat="24.967049" lon="102.177132">
<time>2014-08-04T17:10:15Z</time></trkpt>
<trkpt lat="24.967129" lon="102.177021">
<time>2014-08-04T17:10:16Z</time></trkpt>
<trkpt lat="24.967179" lon="102.176961">
<time>2014-08-04T17:10:17Z</time></trkpt>
<trkpt lat="24.967249" lon="102.176871">
<time>2014-08-04T17:10:18Z</time></trkpt>
<trkpt lat="24.967318" lon="102.176761">
<time>2014-08-04T17:10:19Z</time></trkpt>
<trkpt lat="24.967388" lon="102.17664">
<time>2014-08-04T17:10:20Z</time></trkpt>
<trkpt lat="24.967448" lon="102.17652">
<time>2014-08-04T17:10:21Z</time></trkpt>
<trkpt lat="24.967697" lon="102.175929">
<time>2014-08-04T17:10:22Z</time></trkpt>
<trkpt lat="24.967886" lon="102.175468">
<time>2014-08-04T17:10:23Z</time></trkpt>
<trkpt lat="24.967946" lon="102.175307">
<time>2014-08-04T17:10:24Z</time></trkpt>
<trkpt lat="24.967985" lon="102.175167">
<time>2014-08-04T17:10:25Z</time></trkpt>
<trkpt lat="24.968005" lon="102.175097">
<time>2014-08-04T17:10:26Z</time></trkpt>
<trkpt lat="24.968015" lon="102.175047">
<time>2014-08-04T17:10:27Z</time></trkpt>
<trkpt lat="24.968015" lon="102.174997">
<time>2014-08-04T17:10:28Z</time></trkpt>
<trkpt lat="24.968015" lon="102.174967">
<time>2014-08-04T17:10:29Z</time></trkpt>
<trkpt lat="24.968005" lon="102.174916">
<time>2014-08-04T17:10:30Z</time></trkpt>
<trkpt lat="24.967995" lon="102.174876">
<time>2014-08-04T17:10:31Z</time></trkpt>
<trkpt lat="24.967975" lon="102.174826">
<time>2014-08-04T17:10:32Z</time></trkpt>
<trkpt lat="24.967945" lon="102.174776">
<time>2014-08-04T17:10:33Z</time></trkpt>
<trkpt lat="24.967905" lon="102.174736">
<time>2014-08-04T17:10:34Z</time></trkpt>
<trkpt lat="24.967845" lon="102.174676">
<time>2014-08-04T17:10:35Z</time></trkpt>
<trkpt lat="24.967744" lon="102.174606">
<time>2014-08-04T17:10:36Z</time></trkpt>
<trkpt lat="24.967634" lon="102.174526">
<time>2014-08-04T17:10:37Z</time></trkpt>
<trkpt lat="24.967174" lon="102.174245">
<time>2014-08-04T17:10:38Z</time></trkpt>
<trkpt lat="24.966903" lon="102.174075">
<time>2014-08-04T17:10:39Z</time></trkpt>
<trkpt lat="24.966663" lon="102.173914">
<time>2014-08-04T17:10:40Z</time></trkpt>
<trkpt lat="24.966253" lon="102.173614">
<time>2014-08-04T17:10:41Z</time></trkpt>
<trkpt lat="24.966042" lon="102.173463">
<time>2014-08-04T17:10:42Z</time></trkpt>
<trkpt lat="24.965882" lon="102.173363">
<time>2014-08-04T17:10:43Z</time></trkpt>
<trkpt lat="24.965612" lon="102.173213">
<time>2014-08-04T17:10:44Z</time></trkpt>
<trkpt lat="24.964821" lon="102.172842">
<time>2014-08-04T17:10:45Z</time></trkpt>
<trkpt lat="24.964491" lon="102.172681">
<time>2014-08-04T17:10:46Z</time></trkpt>
<trkpt lat="24.964401" lon="102.172631">
<time>2014-08-04T17:10:47Z</time></trkpt>
<trkpt lat="24.964351" lon="102.172601">
<time>2014-08-04T17:10:48Z</time></trkpt>
<trkpt lat="24.964311" lon="102.172561">
<time>2014-08-04T17:10:49Z</time></trkpt>
<trkpt lat="24.964251" lon="102.172501">
<time>2014-08-04T17:10:50Z</time></trkpt>
<trkpt lat="24.964211" lon="102.172451">
<time>2014-08-04T17:10:51Z</time></trkpt>
<trkpt lat="24.964191" lon="102.172401">
<time>2014-08-04T17:10:52Z</time></trkpt>
<trkpt lat="24.964161" lon="102.172341">
<time>2014-08-04T17:10:53Z</time></trkpt>
<trkpt lat="24.96414" lon="102.172301">
<time>2014-08-04T17:10:54Z</time></trkpt>
<trkpt lat="24.96413" lon="102.17226">
<time>2014-08-04T17:10:55Z</time></trkpt>
<trkpt lat="24.96411" lon="102.1722">
<time>2014-08-04T17:10:56Z</time></trkpt>
<trkpt lat="24.96407" lon="102.17204">
<time>2014-08-04T17:10:57Z</time></trkpt>
<trkpt lat="24.963909" lon="102.171238">
<time>2014-08-04T17:10:58Z</time></trkpt>
<trkpt lat="24.963868" lon="102.171038">
<time>2014-08-04T17:10:59Z</time></trkpt>
<trkpt lat="24.963848" lon="102.170927">
<time>2014-08-04T17:11:00Z</time></trkpt>
<trkpt lat="24.963828" lon="102.170827">
<time>2014-08-04T17:11:01Z</time></trkpt>
<trkpt lat="24.963828" lon="102.170747">
<time>2014-08-04T17:11:02Z</time></trkpt>
<trkpt lat="24.963827" lon="102.170677">
<time>2014-08-04T17:11:03Z</time></trkpt>
<trkpt lat="24.963827" lon="102.170617">
<time>2014-08-04T17:11:04Z</time></trkpt>
<trkpt lat="24.963837" lon="102.170557">
<time>2014-08-04T17:11:05Z</time></trkpt>
<trkpt lat="24.963847" lon="102.170516">
<time>2014-08-04T17:11:06Z</time></trkpt>
<trkpt lat="24.963867" lon="102.170476">
<time>2014-08-04T17:11:07Z</time></trkpt>
<trkpt lat="24.963877" lon="102.170436">
<time>2014-08-04T17:11:08Z</time></trkpt>
<trkpt lat="24.963897" lon="102.170406">
<time>2014-08-04T17:11:09Z</time></trkpt>
<trkpt lat="24.963917" lon="102.170376">
<time>2014-08-04T17:11:10Z</time></trkpt>
<trkpt lat="24.963927" lon="102.170356">
<time>2014-08-04T17:11:11Z</time></trkpt>
<trkpt lat="24.963957" lon="102.170326">
<time>2014-08-04T17:11:12Z</time></trkpt>
<trkpt lat="24.963997" lon="102.170296">
<time>2014-08-04T17:11:13Z</time></trkpt>
<trkpt lat="24.964047" lon="102.170256">
<time>2014-08-04T17:11:14Z</time></trkpt>
<trkpt lat="24.964137" lon="102.170206">
<time>2014-08-04T17:11:15Z</time></trkpt>
<trkpt lat="24.964236" lon="102.170156">
<time>2014-08-04T17:11:16Z</time></trkpt>
<trkpt lat="24.964446" lon="102.170065">
<time>2014-08-04T17:11:17Z</time></trkpt>
<trkpt lat="24.964656" lon="102.169975">
<time>2014-08-04T17:11:18Z</time></trkpt>
<trkpt lat="24.965066" lon="102.169785">
<time>2014-08-04T17:11:19Z</time></trkpt>
<trkpt lat="24.965186" lon="102.169735">
<time>2014-08-04T17:11:20Z</time></trkpt>
<trkpt lat="24.965565" lon="102.169594">
<time>2014-08-04T17:11:21Z</time></trkpt>
<trkpt lat="24.965665" lon="102.169554">
<time>2014-08-04T17:11:22Z</time></trkpt>
<trkpt lat="24.965745" lon="102.169534">
<time>2014-08-04T17:11:23Z</time></trkpt>
<trkpt lat="24.965815" lon="102.169514">
<time>2014-08-04T17:11:24Z</time></trkpt>
<trkpt lat="24.965915" lon="102.169504">
<time>2014-08-04T17:11:25Z</time></trkpt>
<trkpt lat="24.966015" lon="102.169494">
<time>2014-08-04T17:11:26Z</time></trkpt>
<trkpt lat="24.966155" lon="102.169484">
<time>2014-08-04T17:11:27Z</time></trkpt>
<trkpt lat="24.966345" lon="102.169494">
<time>2014-08-04T17:11:28Z</time></trkpt>
<trkpt lat="24.970005" lon="102.169574">
<time>2014-08-04T17:11:29Z</time></trkpt>
<trkpt lat="24.970915" lon="102.169594">
<time>2014-08-04T17:11:30Z</time></trkpt>
<trkpt lat="24.971145" lon="102.169614">
<time>2014-08-04T17:11:31Z</time></trkpt>
<trkpt lat="24.971285" lon="102.169624">
<time>2014-08-04T17:11:32Z</time></trkpt>
<trkpt lat="24.971375" lon="102.169634">
<time>2014-08-04T17:11:33Z</time></trkpt>
<trkpt lat="24.971445" lon="102.169654">
<time>2014-08-04T17:11:34Z</time></trkpt>
<trkpt lat="24.971555" lon="102.169684">
<time>2014-08-04T17:11:35Z</time></trkpt>
<trkpt lat="24.971675" lon="102.169724">
<time>2014-08-04T17:11:36Z</time></trkpt>
<trkpt lat="24.971805" lon="102.169774">
<time>2014-08-04T17:11:37Z</time></trkpt>
<trkpt lat="24.971935" lon="102.169835">
<time>2014-08-04T17:11:38Z</time></trkpt>
<trkpt lat="24.972005" lon="102.169865">
<time>2014-08-04T17:11:39Z</time></trkpt>
<trkpt lat="24.972145" lon="102.169935">
<time>2014-08-04T17:11:40Z</time></trkpt>
<trkpt lat="24.972375" lon="102.170055">
<time>2014-08-04T17:11:41Z</time></trkpt>
<trkpt lat="24.972515" lon="102.170135">
<time>2014-08-04T17:11:42Z</time></trkpt>
<trkpt lat="24.973656" lon="102.170787">
<time>2014-08-04T17:11:43Z</time></trkpt>
<trkpt lat="24.973737" lon="102.170837">
<time>2014-08-04T17:11:44Z</time></trkpt>
<trkpt lat="24.973947" lon="102.170947">
<time>2014-08-04T17:11:45Z</time></trkpt>
<trkpt lat="24.974397" lon="102.171188">
<time>2014-08-04T17:11:46Z</time></trkpt>
<trkpt lat="24.974577" lon="102.171268">
<time>2014-08-04T17:11:47Z</time></trkpt>
<trkpt lat="24.974767" lon="102.171348">
<time>2014-08-04T17:11:48Z</time></trkpt>
<trkpt lat="24.974917" lon="102.171398">
<time>2014-08-04T17:11:49Z</time></trkpt>
<trkpt lat="24.975077" lon="102.171448">
<time>2014-08-04T17:11:50Z</time></trkpt>
<trkpt lat="24.975158" lon="102.171458">
<time>2014-08-04T17:11:51Z</time></trkpt>
<trkpt lat="24.975438" lon="102.171528">
<time>2014-08-04T17:11:52Z</time></trkpt>
<trkpt lat="24.975738" lon="102.171599">
<time>2014-08-04T17:11:53Z</time></trkpt>
<trkpt lat="24.976098" lon="102.171669">
<time>2014-08-04T17:11:54Z</time></trkpt>
<trkpt lat="24.978048" lon="102.171909">
<time>2014-08-04T17:11:55Z</time></trkpt>
<trkpt lat="24.978558" lon="102.171969">
<time>2014-08-04T17:11:56Z</time></trkpt>
<trkpt lat="24.979088" lon="102.17204">
<time>2014-08-04T17:11:57Z</time></trkpt>
<trkpt lat="24.979398" lon="102.17206">
<time>2014-08-04T17:11:58Z</time></trkpt>
<trkpt lat="24.979528" lon="102.17206">
<time>2014-08-04T17:11:59Z</time></trkpt>
<trkpt lat="24.979618" lon="102.17206">
<time>2014-08-04T17:12:00Z</time></trkpt>
<trkpt lat="24.979748" lon="102.17205">
<time>2014-08-04T17:12:01Z</time></trkpt>
<trkpt lat="24.979858" lon="102.172039">
<time>2014-08-04T17:12:02Z</time></trkpt>
<trkpt lat="24.979868" lon="102.172039">
<time>2014-08-04T17:12:03Z</time></trkpt>
<trkpt lat="24.979958" lon="102.172039">
<time>2014-08-04T17:12:04Z</time></trkpt>
<trkpt lat="24.980118" lon="102.172019">
<time>2014-08-04T17:12:05Z</time></trkpt>
<trkpt lat="24.980308" lon="102.171999">
<time>2014-08-04T17:12:06Z</time></trkpt>
<trkpt lat="24.980738" lon="102.171939">
<time>2014-08-04T17:12:07Z</time></trkpt>
<trkpt lat="24.981288" lon="102.171869">
<time>2014-08-04T17:12:08Z</time></trkpt>
<trkpt lat="24.981437" lon="102.171849">
<time>2014-08-04T17:12:09Z</time></trkpt>
<trkpt lat="24.981587" lon="102.171829">
<time>2014-08-04T17:12:10Z</time></trkpt>
<trkpt lat="24.981777" lon="102.171789">
<time>2014-08-04T17:12:11Z</time></trkpt>
<trkpt lat="24.981937" lon="102.171759">
<time>2014-08-04T17:12:12Z</time></trkpt>
<trkpt lat="24.982107" lon="102.171719">
<time>2014-08-04T17:12:13Z</time></trkpt>
<trkpt lat="24.982217" lon="102.171679">
<time>2014-08-04T17:12:14Z</time></trkpt>
<trkpt lat="24.982347" lon="102.171638">
<time>2014-08-04T17:12:15Z</time></trkpt>
<trkpt lat="24.982457" lon="102.171588">
<time>2014-08-04T17:12:16Z</time></trkpt>
<trkpt lat="24.982557" lon="102.171538">
<time>2014-08-04T17:12:17Z</time></trkpt>
<trkpt lat="24.982667" lon="102.171488">
<time>2014-08-04T17:12:18Z</time></trkpt>
<trkpt lat="24.982757" lon="102.171438">
<time>2014-08-04T17:12:19Z</time></trkpt>
<trkpt lat="24.982896" lon="102.171368">
<time>2014-08-04T17:12:20Z</time></trkpt>
<trkpt lat="24.983176" lon="102.171228">
<time>2014-08-04T17:12:21Z</time></trkpt>
<trkpt lat="24.983496" lon="102.171077">
<time>2014-08-04T17:12:22Z</time></trkpt>
<trkpt lat="24.983606" lon="102.171027">
<time>2014-08-04T17:12:23Z</time></trkpt>
<trkpt lat="24.983676" lon="102.170987">
<time>2014-08-04T17:12:24Z</time></trkpt>
<trkpt lat="24.983825" lon="102.170907">
<time>2014-08-04T17:12:25Z</time></trkpt>
<trkpt lat="24.983905" lon="102.170867">
<time>2014-08-04T17:12:26Z</time></trkpt>
<trkpt lat="24.983985" lon="102.170817">
<time>2014-08-04T17:12:27Z</time></trkpt>
<trkpt lat="24.984055" lon="102.170766">
<time>2014-08-04T17:12:28Z</time></trkpt>
<trkpt lat="24.984165" lon="102.170696">
<time>2014-08-04T17:12:29Z</time></trkpt>
<trkpt lat="24.984425" lon="102.170496">
<time>2014-08-04T17:12:30Z</time></trkpt>
<trkpt lat="24.984704" lon="102.170295">
<time>2014-08-04T17:12:31Z</time></trkpt>
<trkpt lat="24.984814" lon="102.170225">
<time>2014-08-04T17:12:32Z</time></trkpt>
<trkpt lat="24.984954" lon="102.170135">
<time>2014-08-04T17:12:33Z</time></trkpt>
<trkpt lat="24.985094" lon="102.170045">
<time>2014-08-04T17:12:34Z</time></trkpt>
<trkpt lat="24.985144" lon="102.170015">
<time>2014-08-04T17:12:35Z</time></trkpt>
<trkpt lat="24.985233" lon="102.169965">
<time>2014-08-04T17:12:36Z</time></trkpt>
<trkpt lat="24.985343" lon="102.169914">
<time>2014-08-04T17:12:37Z</time></trkpt>
<trkpt lat="24.985493" lon="102.169834">
<time>2014-08-04T17:12:38Z</time></trkpt>
<trkpt lat="24.985583" lon="102.169794">
<time>2014-08-04T17:12:39Z</time></trkpt>
<trkpt lat="24.985643" lon="102.169774">
<time>2014-08-04T17:12:40Z</time></trkpt>
<trkpt lat="24.985753" lon="102.169734">
<time>2014-08-04T17:12:41Z</time></trkpt>
<trkpt lat="24.986193" lon="102.169564">
<time>2014-08-04T17:12:42Z</time></trkpt>
<trkpt lat="24.986622" lon="102.169403">
<time>2014-08-04T17:12:43Z</time></trkpt>
<trkpt lat="24.986932" lon="102.169293">
<time>2014-08-04T17:12:44Z</time></trkpt>
<trkpt lat="24.987581" lon="102.169062">
<time>2014-08-04T17:12:45Z</time></trkpt>
<trkpt lat="24.988001" lon="102.168912">
<time>2014-08-04T17:12:46Z</time></trkpt>
<trkpt lat="24.988391" lon="102.168782">
<time>2014-08-04T17:12:47Z</time></trkpt>
<trkpt lat="24.98927" lon="102.168501">
<time>2014-08-04T17:12:48Z</time></trkpt>
<trkpt lat="24.98947" lon="102.168451">
<time>2014-08-04T17:12:49Z</time></trkpt>
<trkpt lat="24.98981" lon="102.168361">
<time>2014-08-04T17:12:50Z</time></trkpt>
<trkpt lat="24.99006" lon="102.168311">
<time>2014-08-04T17:12:51Z</time></trkpt>
<trkpt lat="24.99039" lon="102.16825">
<time>2014-08-04T17:12:52Z</time></trkpt>
<trkpt lat="24.990979" lon="102.16816">
<time>2014-08-04T17:12:53Z</time></trkpt>
<trkpt lat="24.991509" lon="102.16807">
<time>2014-08-04T17:12:54Z</time></trkpt>
<trkpt lat="24.991739" lon="102.16804">
<time>2014-08-04T17:12:55Z</time></trkpt>
<trkpt lat="24.991889" lon="102.16801">
<time>2014-08-04T17:12:56Z</time></trkpt>
<trkpt lat="24.991939" lon="102.168">
<time>2014-08-04T17:12:57Z</time></trkpt>
<trkpt lat="24.992009" lon="102.16799">
<time>2014-08-04T17:12:58Z</time></trkpt>
<trkpt lat="24.992089" lon="102.16797">
<time>2014-08-04T17:12:59Z</time></trkpt>
<trkpt lat="24.992169" lon="102.16795">
<time>2014-08-04T17:13:00Z</time></trkpt>
<trkpt lat="24.992269" lon="102.16792">
<time>2014-08-04T17:13:01Z</time></trkpt>
<trkpt lat="24.992339" lon="102.167889">
<time>2014-08-04T17:13:02Z</time></trkpt>
<trkpt lat="24.992419" lon="102.167859">
<time>2014-08-04T17:13:03Z</time></trkpt>
<trkpt lat="24.992478" lon="102.167829">
<time>2014-08-04T17:13:04Z</time></trkpt>
<trkpt lat="24.992558" lon="102.167789">
<time>2014-08-04T17:13:05Z</time></trkpt>
<trkpt lat="24.992598" lon="102.167769">
<time>2014-08-04T17:13:06Z</time></trkpt>
<trkpt lat="24.992638" lon="102.167739">
<time>2014-08-04T17:13:07Z</time></trkpt>
<trkpt lat="24.992698" lon="102.167699">
<time>2014-08-04T17:13:08Z</time></trkpt>
<trkpt lat="24.992778" lon="102.167639">
<time>2014-08-04T17:13:09Z</time></trkpt>
<trkpt lat="24.992878" lon="102.167559">
<time>2014-08-04T17:13:10Z</time></trkpt>
<trkpt lat="24.993038" lon="102.167418">
<time>2014-08-04T17:13:11Z</time></trkpt>
<trkpt lat="24.993197" lon="102.167268">
<time>2014-08-04T17:13:12Z</time></trkpt>
<trkpt lat="24.993477" lon="102.166977">
<time>2014-08-04T17:13:13Z</time></trkpt>
<trkpt lat="24.993856" lon="102.166596">
<time>2014-08-04T17:13:14Z</time></trkpt>
<trkpt lat="24.994135" lon="102.166336">
<time>2014-08-04T17:13:15Z</time></trkpt>
<trkpt lat="24.994265" lon="102.166216">
<time>2014-08-04T17:13:16Z</time></trkpt>
<trkpt lat="24.994375" lon="102.166115">
<time>2014-08-04T17:13:17Z</time></trkpt>
<trkpt lat="24.994485" lon="102.166035">
<time>2014-08-04T17:13:18Z</time></trkpt>
<trkpt lat="24.994565" lon="102.165965">
<time>2014-08-04T17:13:19Z</time></trkpt>
<trkpt lat="24.994665" lon="102.165905">
<time>2014-08-04T17:13:20Z</time></trkpt>
<trkpt lat="24.994804" lon="102.165815">
<time>2014-08-04T17:13:21Z</time></trkpt>
<trkpt lat="24.994954" lon="102.165734">
<time>2014-08-04T17:13:22Z</time></trkpt>
<trkpt lat="24.994974" lon="102.165724">
<time>2014-08-04T17:13:23Z</time></trkpt>
<trkpt lat="24.995034" lon="102.165694">
<time>2014-08-04T17:13:24Z</time></trkpt>
<trkpt lat="24.995124" lon="102.165654">
<time>2014-08-04T17:13:25Z</time></trkpt>
<trkpt lat="24.995214" lon="102.165624">
<time>2014-08-04T17:13:26Z</time></trkpt>
<trkpt lat="24.995384" lon="102.165564">
<time>2014-08-04T17:13:27Z</time></trkpt>
<trkpt lat="24.995514" lon="102.165524">
<time>2014-08-04T17:13:28Z</time></trkpt>
<trkpt lat="24.995624" lon="102.165504">
<time>2014-08-04T17:13:29Z</time></trkpt>
<trkpt lat="24.995704" lon="102.165494">
<time>2014-08-04T17:13:30Z</time></trkpt>
<trkpt lat="24.995834" lon="102.165484">
<time>2014-08-04T17:13:31Z</time></trkpt>
<trkpt lat="24.995974" lon="102.165474">
<time>2014-08-04T17:13:32Z</time></trkpt>
<trkpt lat="24.996084" lon="102.165484">
<time>2014-08-04T17:13:33Z</time></trkpt>
<trkpt lat="24.996174" lon="102.165494">
<time>2014-08-04T17:13:34Z</time></trkpt>
<trkpt lat="24.996244" lon="102.165504">
<time>2014-08-04T17:13:35Z</time></trkpt>
<trkpt lat="24.996304" lon="102.165514">
<time>2014-08-04T17:13:36Z</time></trkpt>
<trkpt lat="24.996354" lon="102.165524">
<time>2014-08-04T17:13:37Z</time></trkpt>
<trkpt lat="24.996454" lon="102.165554">
<time>2014-08-04T17:13:38Z</time></trkpt>
<trkpt lat="24.996614" lon="102.165604">
<time>2014-08-04T17:13:39Z</time></trkpt>
<trkpt lat="24.996834" lon="102.165674">
<time>2014-08-04T17:13:40Z</time></trkpt>
<trkpt lat="24.997054" lon="102.165744">
<time>2014-08-04T17:13:41Z</time></trkpt>
<trkpt lat="24.997144" lon="102.165784">
<time>2014-08-04T17:13:42Z</time></trkpt>
<trkpt lat="24.997344" lon="102.165845">
<time>2014-08-04T17:13:43Z</time></trkpt>
<trkpt lat="24.997434" lon="102.165865">
<time>2014-08-04T17:13:44Z</time></trkpt>
<trkpt lat="24.997504" lon="102.165875">
<time>2014-08-04T17:13:45Z</time></trkpt>
<trkpt lat="24.997584" lon="102.165895">
<time>2014-08-04T17:13:46Z</time></trkpt>
<trkpt lat="24.997664" lon="102.165905">
<time>2014-08-04T17:13:47Z</time></trkpt>
<trkpt lat="24.997874" lon="102.165925">
<time>2014-08-04T17:13:48Z</time></trkpt>
<trkpt lat="24.998114" lon="102.165955">
<time>2014-08-04T17:13:49Z</time></trkpt>
<trkpt lat="24.998314" lon="102.165965">
<time>2014-08-04T17:13:50Z</time></trkpt>
<trkpt lat="24.998454" lon="102.165965">
<time>2014-08-04T17:13:51Z</time></trkpt>
<trkpt lat="24.998574" lon="102.165965">
<time>2014-08-04T17:13:52Z</time></trkpt>
<trkpt lat="24.998634" lon="102.165965">
<time>2014-08-04T17:13:53Z</time></trkpt>
<trkpt lat="24.998674" lon="102.165955">
<time>2014-08-04T17:13:54Z</time></trkpt>
<trkpt lat="24.998714" lon="102.165955">
<time>2014-08-04T17:13:55Z</time></trkpt>
<trkpt lat="24.998744" lon="102.165945">
<time>2014-08-04T17:13:56Z</time></trkpt>
<trkpt lat="24.998794" lon="102.165935">
<time>2014-08-04T17:13:57Z</time></trkpt>
<trkpt lat="24.998834" lon="102.165925">
<time>2014-08-04T17:13:58Z</time></trkpt>
<trkpt lat="24.999014" lon="102.165875">
<time>2014-08-04T17:13:59Z</time></trkpt>
<trkpt lat="24.999084" lon="102.165845">
<time>2014-08-04T17:14:00Z</time></trkpt>
<trkpt lat="24.999184" lon="102.165804">
<time>2014-08-04T17:14:01Z</time></trkpt>
<trkpt lat="24.999294" lon="102.165744">
<time>2014-08-04T17:14:02Z</time></trkpt>
<trkpt lat="24.999374" lon="102.165704">
<time>2014-08-04T17:14:03Z</time></trkpt>
<trkpt lat="24.999583" lon="102.165584">
<time>2014-08-04T17:14:04Z</time></trkpt>
<trkpt lat="25.000013" lon="102.165303">
<time>2014-08-04T17:14:05Z</time></trkpt>
<trkpt lat="25.000173" lon="102.165203">
<time>2014-08-04T17:14:06Z</time></trkpt>
<trkpt lat="25.000362" lon="102.165073">
<time>2014-08-04T17:14:07Z</time></trkpt>
<trkpt lat="25.000422" lon="102.165033">
<time>2014-08-04T17:14:08Z</time></trkpt>
<trkpt lat="25.000492" lon="102.164972">
<time>2014-08-04T17:14:09Z</time></trkpt>
<trkpt lat="25.000522" lon="102.164932">
<time>2014-08-04T17:14:10Z</time></trkpt>
<trkpt lat="25.000542" lon="102.164922">
<time>2014-08-04T17:14:11Z</time></trkpt>
<trkpt lat="25.000552" lon="102.164892">
<time>2014-08-04T17:14:12Z</time></trkpt>
<trkpt lat="25.000572" lon="102.164872">
<time>2014-08-04T17:14:13Z</time></trkpt>
<trkpt lat="25.000582" lon="102.164842">
<time>2014-08-04T17:14:14Z</time></trkpt>
<trkpt lat="25.000592" lon="102.164812">
<time>2014-08-04T17:14:15Z</time></trkpt>
<trkpt lat="25.000612" lon="102.164782">
<time>2014-08-04T17:14:16Z</time></trkpt>
<trkpt lat="25.000612" lon="102.164742">
<time>2014-08-04T17:14:17Z</time></trkpt>
<trkpt lat="25.000622" lon="102.164702">
<time>2014-08-04T17:14:18Z</time></trkpt>
<trkpt lat="25.000632" lon="102.164682">
<time>2014-08-04T17:14:19Z</time></trkpt>
<trkpt lat="25.000631" lon="102.164642">
<time>2014-08-04T17:14:20Z</time></trkpt>
<trkpt lat="25.000631" lon="102.164612">
<time>2014-08-04T17:14:21Z</time></trkpt>
<trkpt lat="25.000631" lon="102.164582">
<time>2014-08-04T17:14:22Z</time></trkpt>
<trkpt lat="25.000631" lon="102.164551">
<time>2014-08-04T17:14:23Z</time></trkpt>
<trkpt lat="25.000631" lon="102.164521">
<time>2014-08-04T17:14:24Z</time></trkpt>
<trkpt lat="25.000621" lon="102.164491">
<time>2014-08-04T17:14:25Z</time></trkpt>
<trkpt lat="25.000621" lon="102.164461">
<time>2014-08-04T17:14:26Z</time></trkpt>
<trkpt lat="25.000611" lon="102.164431">
<time>2014-08-04T17:14:27Z</time></trkpt>
<trkpt lat="25.000611" lon="102.164381">
<time>2014-08-04T17:14:28Z</time></trkpt>
<trkpt lat="25.000601" lon="102.164351">
<time>2014-08-04T17:14:29Z</time></trkpt>
<trkpt lat="25.000571" lon="102.164251">
<time>2014-08-04T17:14:30Z</time></trkpt>
<trkpt lat="25.000541" lon="102.164151">
<time>2014-08-04T17:14:31Z</time></trkpt>
<trkpt lat="25.0005" lon="102.16406">
<time>2014-08-04T17:14:32Z</time></trkpt>
<trkpt lat="25.00041" lon="102.16378">
<time>2014-08-04T17:14:33Z</time></trkpt>
<trkpt lat="25.00039" lon="102.16372">
<time>2014-08-04T17:14:34Z</time></trkpt>
<trkpt lat="25.00038" lon="102.163659">
<time>2014-08-04T17:14:35Z</time></trkpt>
<trkpt lat="25.00037" lon="102.163619">
<time>2014-08-04T17:14:36Z</time></trkpt>
<trkpt lat="25.00037" lon="102.163579">
<time>2014-08-04T17:14:37Z</time></trkpt>
<trkpt lat="25.000369" lon="102.163519">
<time>2014-08-04T17:14:38Z</time></trkpt>
<trkpt lat="25.000359" lon="102.163409">
<time>2014-08-04T17:14:39Z</time></trkpt>
<trkpt lat="25.000369" lon="102.163329">
<time>2014-08-04T17:14:40Z</time></trkpt>
<trkpt lat="25.000369" lon="102.163259">
<time>2014-08-04T17:14:41Z</time></trkpt>
<trkpt lat="25.000379" lon="102.163198">
<time>2014-08-04T17:14:42Z</time></trkpt>
<trkpt lat="25.000389" lon="102.163118">
<time>2014-08-04T17:14:43Z</time></trkpt>
<trkpt lat="25.000409" lon="102.163058">
<time>2014-08-04T17:14:44Z</time></trkpt>
<trkpt lat="25.000418" lon="102.162988">
<time>2014-08-04T17:14:45Z</time></trkpt>
<trkpt lat="25.000438" lon="102.162928">
<time>2014-08-04T17:14:46Z</time></trkpt>
<trkpt lat="25.000458" lon="102.162868">
<time>2014-08-04T17:14:47Z</time></trkpt>
<trkpt lat="25.000478" lon="102.162828">
<time>2014-08-04T17:14:48Z</time></trkpt>
<trkpt lat="25.000498" lon="102.162777">
<time>2014-08-04T17:14:49Z</time></trkpt>
<trkpt lat="25.000528" lon="102.162727">
<time>2014-08-04T17:14:50Z</time></trkpt>
<trkpt lat="25.000548" lon="102.162687">
<time>2014-08-04T17:14:51Z</time></trkpt>
<trkpt lat="25.000578" lon="102.162637">
<time>2014-08-04T17:14:52Z</time></trkpt>
<trkpt lat="25.000628" lon="102.162577">
<time>2014-08-04T17:14:53Z</time></trkpt>
<trkpt lat="25.000648" lon="102.162547">
<time>2014-08-04T17:14:54Z</time></trkpt>
<trkpt lat="25.000697" lon="102.162507">
<time>2014-08-04T17:14:55Z</time></trkpt>
<trkpt lat="25.000727" lon="102.162477">
<time>2014-08-04T17:14:56Z</time></trkpt>
<trkpt lat="25.000797" lon="102.162417">
<time>2014-08-04T17:14:57Z</time></trkpt>
<trkpt lat="25.000867" lon="102.162366">
<time>2014-08-04T17:14:58Z</time></trkpt>
<trkpt lat="25.000967" lon="102.162296">
<time>2014-08-04T17:14:59Z</time></trkpt>
<trkpt lat="25.001047" lon="102.162256">
<time>2014-08-04T17:15:00Z</time></trkpt>
<trkpt lat="25.001157" lon="102.162186">
<time>2014-08-04T17:15:01Z</time></trkpt>
<trkpt lat="25.001317" lon="102.162096">
<time>2014-08-04T17:15:02Z</time></trkpt>
<trkpt lat="25.001456" lon="102.162026">
<time>2014-08-04T17:15:03Z</time></trkpt>
<trkpt lat="25.001596" lon="102.161965">
<time>2014-08-04T17:15:04Z</time></trkpt>
<trkpt lat="25.001686" lon="102.161925">
<time>2014-08-04T17:15:05Z</time></trkpt>
<trkpt lat="25.001826" lon="102.161885">
<time>2014-08-04T17:15:06Z</time></trkpt>
<trkpt lat="25.001846" lon="102.161875">
<time>2014-08-04T17:15:07Z</time></trkpt>
<trkpt lat="25.001936" lon="102.161845">
<time>2014-08-04T17:15:08Z</time></trkpt>
<trkpt lat="25.002186" lon="102.161775">
<time>2014-08-04T17:15:09Z</time></trkpt>
<trkpt lat="25.003405" lon="102.161424">
<time>2014-08-04T17:15:10Z</time></trkpt>
<trkpt lat="25.003485" lon="102.161404">
<time>2014-08-04T17:15:11Z</time></trkpt>
<trkpt lat="25.003715" lon="102.161344">
<time>2014-08-04T17:15:12Z</time></trkpt>
<trkpt lat="25.003745" lon="102.161334">
<time>2014-08-04T17:15:13Z</time></trkpt>
<trkpt lat="25.004045" lon="102.161254">
<time>2014-08-04T17:15:14Z</time></trkpt>
<trkpt lat="25.004185" lon="102.161204">
<time>2014-08-04T17:15:15Z</time></trkpt>
<trkpt lat="25.004265" lon="102.161184">
<time>2014-08-04T17:15:16Z</time></trkpt>
<trkpt lat="25.004355" lon="102.161164">
<time>2014-08-04T17:15:17Z</time></trkpt>
<trkpt lat="25.004434" lon="102.161154">
<time>2014-08-04T17:15:18Z</time></trkpt>
<trkpt lat="25.004514" lon="102.161144">
<time>2014-08-04T17:15:19Z</time></trkpt>
<trkpt lat="25.004624" lon="102.161133">
<time>2014-08-04T17:15:20Z</time></trkpt>
<trkpt lat="25.004714" lon="102.161123">
<time>2014-08-04T17:15:21Z</time></trkpt>
<trkpt lat="25.004764" lon="102.161123">
<time>2014-08-04T17:15:22Z</time></trkpt>
<trkpt lat="25.004804" lon="102.161123">
<time>2014-08-04T17:15:23Z</time></trkpt>
<trkpt lat="25.004854" lon="102.161123">
<time>2014-08-04T17:15:24Z</time></trkpt>
<trkpt lat="25.004924" lon="102.161133">
<time>2014-08-04T17:15:25Z</time></trkpt>
<trkpt lat="25.004964" lon="102.161143">
<time>2014-08-04T17:15:26Z</time></trkpt>
<trkpt lat="25.005064" lon="102.161154">
<time>2014-08-04T17:15:27Z</time></trkpt>
<trkpt lat="25.005134" lon="102.161164">
<time>2014-08-04T17:15:28Z</time></trkpt>
<trkpt lat="25.005204" lon="102.161174">
<time>2014-08-04T17:15:29Z</time></trkpt>
<trkpt lat="25.005434" lon="102.161224">
<time>2014-08-04T17:15:30Z</time></trkpt>
<trkpt lat="25.005705" lon="102.161274">
<time>2014-08-04T17:15:31Z</time></trkpt>
<trkpt lat="25.005795" lon="102.161294">
<time>2014-08-04T17:15:32Z</time></trkpt>
<trkpt lat="25.005895" lon="102.161314">
<time>2014-08-04T17:15:33Z</time></trkpt>
<trkpt lat="25.005985" lon="102.161324">
<time>2014-08-04T17:15:34Z</time></trkpt>
<trkpt lat="25.006075" lon="102.161324">
<time>2014-08-04T17:15:35Z</time></trkpt>
<trkpt lat="25.006135" lon="102.161324">
<time>2014-08-04T17:15:36Z</time></trkpt>
<trkpt lat="25.006195" lon="102.161324">
<time>2014-08-04T17:15:37Z</time></trkpt>
<trkpt lat="25.006295" lon="102.161324">
<time>2014-08-04T17:15:38Z</time></trkpt>
<trkpt lat="25.006524" lon="102.161294">
<time>2014-08-04T17:15:39Z</time></trkpt>
<trkpt lat="25.006724" lon="102.161264">
<time>2014-08-04T17:15:40Z</time></trkpt>
<trkpt lat="25.007074" lon="102.161214">
<time>2014-08-04T17:15:41Z</time></trkpt>
<trkpt lat="25.007424" lon="102.161153">
<time>2014-08-04T17:15:42Z</time></trkpt>
<trkpt lat="25.007664" lon="102.161093">
<time>2014-08-04T17:15:43Z</time></trkpt>
<trkpt lat="25.007784" lon="102.161053">
<time>2014-08-04T17:15:44Z</time></trkpt>
<trkpt lat="25.007904" lon="102.161003">
<time>2014-08-04T17:15:45Z</time></trkpt>
<trkpt lat="25.008054" lon="102.160943">
<time>2014-08-04T17:15:46Z</time></trkpt>
<trkpt lat="25.008273" lon="102.160843">
<time>2014-08-04T17:15:47Z</time></trkpt>
<trkpt lat="25.008323" lon="102.160823">
<time>2014-08-04T17:15:48Z</time></trkpt>
<trkpt lat="25.008433" lon="102.160793">
<time>2014-08-04T17:15:49Z</time></trkpt>
<trkpt lat="25.008513" lon="102.160763">
<time>2014-08-04T17:15:50Z</time></trkpt>
<trkpt lat="25.008563" lon="102.160752">
<time>2014-08-04T17:15:51Z</time></trkpt>
<trkpt lat="25.008623" lon="102.160752">
<time>2014-08-04T17:15:52Z</time></trkpt>
<trkpt lat="25.008663" lon="102.160752">
<time>2014-08-04T17:15:53Z</time></trkpt>
<trkpt lat="25.008703" lon="102.160752">
<time>2014-08-04T17:15:54Z</time></trkpt>
<trkpt lat="25.008763" lon="102.160752">
<time>2014-08-04T17:15:55Z</time></trkpt>
<trkpt lat="25.008863" lon="102.160752">
<time>2014-08-04T17:15:56Z</time></trkpt>
<trkpt lat="25.008953" lon="102.160763">
<time>2014-08-04T17:15:57Z</time></trkpt>
<trkpt lat="25.009063" lon="102.160773">
<time>2014-08-04T17:15:58Z</time></trkpt>
<trkpt lat="25.009133" lon="102.160783">
<time>2014-08-04T17:15:59Z</time></trkpt>
<trkpt lat="25.009193" lon="102.160773">
<time>2014-08-04T17:16:00Z</time></trkpt>
<trkpt lat="25.009253" lon="102.160762">
<time>2014-08-04T17:16:01Z</time></trkpt>
<trkpt lat="25.009303" lon="102.160752">
<time>2014-08-04T17:16:02Z</time></trkpt>
<trkpt lat="25.009343" lon="102.160732">
<time>2014-08-04T17:16:03Z</time></trkpt>
<trkpt lat="25.009383" lon="102.160712">
<time>2014-08-04T17:16:04Z</time></trkpt>
<trkpt lat="25.009423" lon="102.160682">
<time>2014-08-04T17:16:05Z</time></trkpt>
<trkpt lat="25.009463" lon="102.160652">
<time>2014-08-04T17:16:06Z</time></trkpt>
<trkpt lat="25.009503" lon="102.160612">
<time>2014-08-04T17:16:07Z</time></trkpt>
<trkpt lat="25.009553" lon="102.160562">
<time>2014-08-04T17:16:08Z</time></trkpt>
<trkpt lat="25.009653" lon="102.160452">
<time>2014-08-04T17:16:09Z</time></trkpt>
<trkpt lat="25.009812" lon="102.160261">
<time>2014-08-04T17:16:10Z</time></trkpt>
<trkpt lat="25.010361" lon="102.15959">
<time>2014-08-04T17:16:11Z</time></trkpt>
<trkpt lat="25.01055" lon="102.159359">
<time>2014-08-04T17:16:12Z</time></trkpt>
<trkpt lat="25.01072" lon="102.159159">
<time>2014-08-04T17:16:13Z</time></trkpt>
<trkpt lat="25.01077" lon="102.159119">
<time>2014-08-04T17:16:14Z</time></trkpt>
<trkpt lat="25.01082" lon="102.159059">
<time>2014-08-04T17:16:15Z</time></trkpt>
<trkpt lat="25.01089" lon="102.159008">
<time>2014-08-04T17:16:16Z</time></trkpt>
<trkpt lat="25.01096" lon="102.158968">
<time>2014-08-04T17:16:17Z</time></trkpt>
<trkpt lat="25.01101" lon="102.158938">
<time>2014-08-04T17:16:18Z</time></trkpt>
<trkpt lat="25.01107" lon="102.158908">
<time>2014-08-04T17:16:19Z</time></trkpt>
<trkpt lat="25.011159" lon="102.158858">
<time>2014-08-04T17:16:20Z</time></trkpt>
<trkpt lat="25.011659" lon="102.158628">
<time>2014-08-04T17:16:21Z</time></trkpt>
<trkpt lat="25.011749" lon="102.158577">
<time>2014-08-04T17:16:22Z</time></trkpt>
<trkpt lat="25.011809" lon="102.158527">
<time>2014-08-04T17:16:23Z</time></trkpt>
<trkpt lat="25.011849" lon="102.158497">
<time>2014-08-04T17:16:24Z</time></trkpt>
<trkpt lat="25.011889" lon="102.158457">
<time>2014-08-04T17:16:25Z</time></trkpt>
<trkpt lat="25.011928" lon="102.158407">
<time>2014-08-04T17:16:26Z</time></trkpt>
<trkpt lat="25.011958" lon="102.158357">
<time>2014-08-04T17:16:27Z</time></trkpt>
<trkpt lat="25.011998" lon="102.158307">
<time>2014-08-04T17:16:28Z</time></trkpt>
<trkpt lat="25.012028" lon="102.158257">
<time>2014-08-04T17:16:29Z</time></trkpt>
<trkpt lat="25.012068" lon="102.158166">
<time>2014-08-04T17:16:30Z</time></trkpt>
<trkpt lat="25.012098" lon="102.158066">
<time>2014-08-04T17:16:31Z</time></trkpt>
<trkpt lat="25.012128" lon="102.157956">
<time>2014-08-04T17:16:32Z</time></trkpt>
<trkpt lat="25.012167" lon="102.157806">
<time>2014-08-04T17:16:33Z</time></trkpt>
<trkpt lat="25.012197" lon="102.157715">
<time>2014-08-04T17:16:34Z</time></trkpt>
<trkpt lat="25.012267" lon="102.157505">
<time>2014-08-04T17:16:35Z</time></trkpt>
<trkpt lat="25.012287" lon="102.157425">
<time>2014-08-04T17:16:36Z</time></trkpt>
<trkpt lat="25.012307" lon="102.157385">
<time>2014-08-04T17:16:37Z</time></trkpt>
<trkpt lat="25.012326" lon="102.157335">
<time>2014-08-04T17:16:38Z</time></trkpt>
<trkpt lat="25.012356" lon="102.157284">
<time>2014-08-04T17:16:39Z</time></trkpt>
<trkpt lat="25.012376" lon="102.157234">
<time>2014-08-04T17:16:40Z</time></trkpt>
<trkpt lat="25.012396" lon="102.157204">
<time>2014-08-04T17:16:41Z</time></trkpt>
<trkpt lat="25.012406" lon="102.157174">
<time>2014-08-04T17:16:42Z</time></trkpt>
<trkpt lat="25.012446" lon="102.157104">
<time>2014-08-04T17:16:43Z</time></trkpt>
<trkpt lat="25.012586" lon="102.156864">
<time>2014-08-04T17:16:44Z</time></trkpt>
<trkpt lat="25.013004" lon="102.156152">
<time>2014-08-04T17:16:45Z</time></trkpt>
<trkpt lat="25.013283" lon="102.155681">
<time>2014-08-04T17:16:46Z</time></trkpt>
<trkpt lat="25.013333" lon="102.155581">
<time>2014-08-04T17:16:47Z</time></trkpt>
<trkpt lat="25.013423" lon="102.15542">
<time>2014-08-04T17:16:48Z</time></trkpt>
<trkpt lat="25.013543" lon="102.15523">
<time>2014-08-04T17:16:49Z</time></trkpt>
<trkpt lat="25.013622" lon="102.15511">
<time>2014-08-04T17:16:50Z</time></trkpt>
<trkpt lat="25.013702" lon="102.155009">
<time>2014-08-04T17:16:51Z</time></trkpt>
<trkpt lat="25.013762" lon="102.154929">
<time>2014-08-04T17:16:52Z</time></trkpt>
<trkpt lat="25.013852" lon="102.154829">
<time>2014-08-04T17:16:53Z</time></trkpt>
<trkpt lat="25.013982" lon="102.154709">
<time>2014-08-04T17:16:54Z</time></trkpt>
<trkpt lat="25.014091" lon="102.154618">
<time>2014-08-04T17:16:55Z</time></trkpt>
<trkpt lat="25.014201" lon="102.154538">
<time>2014-08-04T17:16:56Z</time></trkpt>
<trkpt lat="25.014461" lon="102.154348">
<time>2014-08-04T17:16:57Z</time></trkpt>
<trkpt lat="25.014611" lon="102.154258">
<time>2014-08-04T17:16:58Z</time></trkpt>
<trkpt lat="25.014701" lon="102.154197">
<time>2014-08-04T17:16:59Z</time></trkpt>
<trkpt lat="25.01479" lon="102.154157">
<time>2014-08-04T17:17:00Z</time></trkpt>
<trkpt lat="25.01488" lon="102.154127">
<time>2014-08-04T17:17:01Z</time></trkpt>
<trkpt lat="25.01496" lon="102.154097">
<time>2014-08-04T17:17:02Z</time></trkpt>
<trkpt lat="25.01503" lon="102.154087">
<time>2014-08-04T17:17:03Z</time></trkpt>
<trkpt lat="25.01509" lon="102.154077">
<time>2014-08-04T17:17:04Z</time></trkpt>
<trkpt lat="25.01516" lon="102.154077">
<time>2014-08-04T17:17:05Z</time></trkpt>
<trkpt lat="25.01523" lon="102.154067">
<time>2014-08-04T17:17:06Z</time></trkpt>
<trkpt lat="25.01532" lon="102.154077">
<time>2014-08-04T17:17:07Z</time></trkpt>
<trkpt lat="25.0154" lon="102.154077">
<time>2014-08-04T17:17:08Z</time></trkpt>
<trkpt lat="25.01546" lon="102.154097">
<time>2014-08-04T17:17:09Z</time></trkpt>
<trkpt lat="25.01551" lon="102.154107">
<time>2014-08-04T17:17:10Z</time></trkpt>
<trkpt lat="25.01558" lon="102.154127">
<time>2014-08-04T17:17:11Z</time></trkpt>
<trkpt lat="25.01564" lon="102.154147">
<time>2014-08-04T17:17:12Z</time></trkpt>
<trkpt lat="25.0157" lon="102.154177">
<time>2014-08-04T17:17:13Z</time></trkpt>
<trkpt lat="25.01576" lon="102.154207">
<time>2014-08-04T17:17:14Z</time></trkpt>
<trkpt lat="25.01583" lon="102.154248">
<time>2014-08-04T17:17:15Z</time></trkpt>
<trkpt lat="25.015871" lon="102.154268">
<time>2014-08-04T17:17:16Z</time></trkpt>
<trkpt lat="25.015971" lon="102.154338">
<time>2014-08-04T17:17:17Z</time></trkpt>
<trkpt lat="25.016071" lon="102.154408">
<time>2014-08-04T17:17:18Z</time></trkpt>
<trkpt lat="25.016161" lon="102.154468">
<time>2014-08-04T17:17:19Z</time></trkpt>
<trkpt lat="25.016221" lon="102.154518">
<time>2014-08-04T17:17:20Z</time></trkpt>
<trkpt lat="25.016261" lon="102.154558">
<time>2014-08-04T17:17:21Z</time></trkpt>
<trkpt lat="25.016301" lon="102.154588">
<time>2014-08-04T17:17:22Z</time></trkpt>
<trkpt lat="25.016341" lon="102.154628">
<time>2014-08-04T17:17:23Z</time></trkpt>
<trkpt lat="25.016411" lon="102.154699">
<time>2014-08-04T17:17:24Z</time></trkpt>
<trkpt lat="25.016511" lon="102.154839">
<time>2014-08-04T17:17:25Z</time></trkpt>
<trkpt lat="25.016582" lon="102.154949">
<time>2014-08-04T17:17:26Z</time></trkpt>
<trkpt lat="25.016642" lon="102.155049">
<time>2014-08-04T17:17:27Z</time></trkpt>
<trkpt lat="25.016712" lon="102.15518">
<time>2014-08-04T17:17:28Z</time></trkpt>
<trkpt lat="25.016973" lon="102.155651">
<time>2014-08-04T17:17:29Z</time></trkpt>
<trkpt lat="25.017003" lon="102.155701">
<time>2014-08-04T17:17:30Z</time></trkpt>
<trkpt lat="25.017043" lon="102.155751">
<time>2014-08-04T17:17:31Z</time></trkpt>
<trkpt lat="25.017083" lon="102.155801">
<time>2014-08-04T17:17:32Z</time></trkpt>
<trkpt lat="25.017103" lon="102.155821">
<time>2014-08-04T17:17:33Z</time></trkpt>
<trkpt lat="25.017133" lon="102.155841">
<time>2014-08-04T17:17:34Z</time></trkpt>
<trkpt lat="25.017143" lon="102.155861">
<time>2014-08-04T17:17:35Z</time></trkpt>
<trkpt lat="25.017173" lon="102.155871">
<time>2014-08-04T17:17:36Z</time></trkpt>
<trkpt lat="25.017193" lon="102.155881">
<time>2014-08-04T17:17:37Z</time></trkpt>
<trkpt lat="25.017213" lon="102.155881">
<time>2014-08-04T17:17:38Z</time></trkpt>
<trkpt lat="25.017243" lon="102.155881">
<time>2014-08-04T17:17:39Z</time></trkpt>
<trkpt lat="25.017253" lon="102.155881">
<time>2014-08-04T17:17:40Z</time></trkpt>
<trkpt lat="25.017283" lon="102.155881">
<time>2014-08-04T17:17:41Z</time></trkpt>
<trkpt lat="25.017303" lon="102.155881">
<time>2014-08-04T17:17:42Z</time></trkpt>
<trkpt lat="25.017313" lon="102.155881">
<time>2014-08-04T17:17:43Z</time></trkpt>
<trkpt lat="25.017333" lon="102.155871">
<time>2014-08-04T17:17:44Z</time></trkpt>
<trkpt lat="25.017353" lon="102.155861">
<time>2014-08-04T17:17:45Z</time></trkpt>
<trkpt lat="25.017373" lon="102.155851">
<time>2014-08-04T17:17:46Z</time></trkpt>
<trkpt lat="25.017393" lon="102.155831">
<time>2014-08-04T17:17:47Z</time></trkpt>
<trkpt lat="25.017413" lon="102.155821">
<time>2014-08-04T17:17:48Z</time></trkpt>
<trkpt lat="25.017423" lon="102.155791">
<time>2014-08-04T17:17:49Z</time></trkpt>
<trkpt lat="25.017443" lon="102.155771">
<time>2014-08-04T17:17:50Z</time></trkpt>
<trkpt lat="25.017453" lon="102.155741">
<time>2014-08-04T17:17:51Z</time></trkpt>
<trkpt lat="25.017473" lon="102.155701">
<time>2014-08-04T17:17:52Z</time></trkpt>
<trkpt lat="25.017483" lon="102.155661">
<time>2014-08-04T17:17:53Z</time></trkpt>
<trkpt lat="25.017493" lon="102.155621">
<time>2014-08-04T17:17:54Z</time></trkpt>
<trkpt lat="25.017493" lon="102.15555">
<time>2014-08-04T17:17:55Z</time></trkpt>
<trkpt lat="25.017503" lon="102.15548">
<time>2014-08-04T17:17:56Z</time></trkpt>
<trkpt lat="25.017492" lon="102.15533">
<time>2014-08-04T17:17:57Z</time></trkpt>
<trkpt lat="25.017492" lon="102.155119">
<time>2014-08-04T17:17:58Z</time></trkpt>
<trkpt lat="25.017491" lon="102.154889">
<time>2014-08-04T17:17:59Z</time></trkpt>
<trkpt lat="25.017491" lon="102.154668">
<time>2014-08-04T17:18:00Z</time></trkpt>
<trkpt lat="25.017491" lon="102.154518">
<time>2014-08-04T17:18:01Z</time></trkpt>
<trkpt lat="25.017501" lon="102.154408">
<time>2014-08-04T17:18:02Z</time></trkpt>
<trkpt lat="25.01749" lon="102.154348">
<time>2014-08-04T17:18:03Z</time></trkpt>
<trkpt lat="25.01749" lon="102.154237">
<time>2014-08-04T17:18:04Z</time></trkpt>
<trkpt lat="25.01748" lon="102.154147">
<time>2014-08-04T17:18:05Z</time></trkpt>
<trkpt lat="25.01747" lon="102.154057">
<time>2014-08-04T17:18:06Z</time></trkpt>
<trkpt lat="25.01747" lon="102.154007">
<time>2014-08-04T17:18:07Z</time></trkpt>
<trkpt lat="25.01746" lon="102.153947">
<time>2014-08-04T17:18:08Z</time></trkpt>
<trkpt lat="25.01744" lon="102.153867">
<time>2014-08-04T17:18:09Z</time></trkpt>
<trkpt lat="25.017419" lon="102.153776">
<time>2014-08-04T17:18:10Z</time></trkpt>
<trkpt lat="25.017379" lon="102.153636">
<time>2014-08-04T17:18:11Z</time></trkpt>
<trkpt lat="25.017339" lon="102.153516">
<time>2014-08-04T17:18:12Z</time></trkpt>
<trkpt lat="25.017279" lon="102.153366">
<time>2014-08-04T17:18:13Z</time></trkpt>
<trkpt lat="25.017148" lon="102.153055">
<time>2014-08-04T17:18:14Z</time></trkpt>
<trkpt lat="25.017088" lon="102.152885">
<time>2014-08-04T17:18:15Z</time></trkpt>
<trkpt lat="25.017048" lon="102.152754">
<time>2014-08-04T17:18:16Z</time></trkpt>
<trkpt lat="25.017028" lon="102.152684">
<time>2014-08-04T17:18:17Z</time></trkpt>
<trkpt lat="25.017027" lon="102.152634">
<time>2014-08-04T17:18:18Z</time></trkpt>
<trkpt lat="25.017017" lon="102.152594">
<time>2014-08-04T17:18:19Z</time></trkpt>
<trkpt lat="25.017017" lon="102.152534">
<time>2014-08-04T17:18:20Z</time></trkpt>
<trkpt lat="25.017017" lon="102.152484">
<time>2014-08-04T17:18:21Z</time></trkpt>
<trkpt lat="25.017027" lon="102.152434">
<time>2014-08-04T17:18:22Z</time></trkpt>
<trkpt lat="25.017037" lon="102.152373">
<time>2014-08-04T17:18:23Z</time></trkpt>
<trkpt lat="25.017047" lon="102.152323">
<time>2014-08-04T17:18:24Z</time></trkpt>
<trkpt lat="25.017067" lon="102.152273">
<time>2014-08-04T17:18:25Z</time></trkpt>
<trkpt lat="25.017087" lon="102.152213">
<time>2014-08-04T17:18:26Z</time></trkpt>
<trkpt lat="25.017107" lon="102.152173">
<time>2014-08-04T17:18:27Z</time></trkpt>
<trkpt lat="25.017166" lon="102.152023">
<time>2014-08-04T17:18:28Z</time></trkpt>
<trkpt lat="25.017286" lon="102.151782">
<time>2014-08-04T17:18:29Z</time></trkpt>
<trkpt lat="25.017326" lon="102.151662">
<time>2014-08-04T17:18:30Z</time></trkpt>
<trkpt lat="25.017346" lon="102.151562">
<time>2014-08-04T17:18:31Z</time></trkpt>
<trkpt lat="25.017365" lon="102.151461">
<time>2014-08-04T17:18:32Z</time></trkpt>
<trkpt lat="25.017365" lon="102.151341">
<time>2014-08-04T17:18:33Z</time></trkpt>
<trkpt lat="25.017365" lon="102.151211">
<time>2014-08-04T17:18:34Z</time></trkpt>
<trkpt lat="25.017355" lon="102.15104">
<time>2014-08-04T17:18:35Z</time></trkpt>
<trkpt lat="25.017354" lon="102.15081">
<time>2014-08-04T17:18:36Z</time></trkpt>
<trkpt lat="25.017364" lon="102.150549">
<time>2014-08-04T17:18:37Z</time></trkpt>
<trkpt lat="25.017433" lon="102.149828">
<time>2014-08-04T17:18:38Z</time></trkpt>
<trkpt lat="25.017462" lon="102.149577">
<time>2014-08-04T17:18:39Z</time></trkpt>
<trkpt lat="25.017472" lon="102.149337">
<time>2014-08-04T17:18:40Z</time></trkpt>
<trkpt lat="25.017481" lon="102.148996">
<time>2014-08-04T17:18:41Z</time></trkpt>
<trkpt lat="25.017471" lon="102.148816">
<time>2014-08-04T17:18:42Z</time></trkpt>
<trkpt lat="25.01746" lon="102.148555">
<time>2014-08-04T17:18:43Z</time></trkpt>
<trkpt lat="25.01746" lon="102.148415">
<time>2014-08-04T17:18:44Z</time></trkpt>
<trkpt lat="25.01747" lon="102.148345">
<time>2014-08-04T17:18:45Z</time></trkpt>
<trkpt lat="25.01749" lon="102.148274">
<time>2014-08-04T17:18:46Z</time></trkpt>
<trkpt lat="25.01751" lon="102.148224">
<time>2014-08-04T17:18:47Z</time></trkpt>
<trkpt lat="25.01753" lon="102.148184">
<time>2014-08-04T17:18:48Z</time></trkpt>
<trkpt lat="25.01755" lon="102.148164">
<time>2014-08-04T17:18:49Z</time></trkpt>
<trkpt lat="25.01758" lon="102.148144">
<time>2014-08-04T17:18:50Z</time></trkpt>
<trkpt lat="25.01762" lon="102.148114">
<time>2014-08-04T17:18:51Z</time></trkpt>
<trkpt lat="25.01766" lon="102.148084">
<time>2014-08-04T17:18:52Z</time></trkpt>
<trkpt lat="25.017699" lon="102.148074">
<time>2014-08-04T17:18:53Z</time></trkpt>
<trkpt lat="25.017729" lon="102.148064">
<time>2014-08-04T17:18:54Z</time></trkpt>
<trkpt lat="25.017759" lon="102.148064">
<time>2014-08-04T17:18:55Z</time></trkpt>
<trkpt lat="25.017789" lon="102.148054">
<time>2014-08-04T17:18:56Z</time></trkpt>
<trkpt lat="25.017819" lon="102.148064">
<time>2014-08-04T17:18:57Z</time></trkpt>
<trkpt lat="25.017869" lon="102.148064">
<time>2014-08-04T17:18:58Z</time></trkpt>
<trkpt lat="25.017929" lon="102.148084">
<time>2014-08-04T17:18:59Z</time></trkpt>
<trkpt lat="25.01802" lon="102.148114">
<time>2014-08-04T17:19:00Z</time></trkpt>
<trkpt lat="25.01808" lon="102.148134">
<time>2014-08-04T17:19:01Z</time></trkpt>
<trkpt lat="25.01814" lon="102.148164">
<time>2014-08-04T17:19:02Z</time></trkpt>
<trkpt lat="25.0183" lon="102.148234">
<time>2014-08-04T17:19:03Z</time></trkpt>
<trkpt lat="25.01835" lon="102.148244">
<time>2014-08-04T17:19:04Z</time></trkpt>
<trkpt lat="25.01839" lon="102.148254">
<time>2014-08-04T17:19:05Z</time></trkpt>
<trkpt lat="25.01842" lon="102.148264">
<time>2014-08-04T17:19:06Z</time></trkpt>
<trkpt lat="25.01844" lon="102.148264">
<time>2014-08-04T17:19:07Z</time></trkpt>
<trkpt lat="25.01846" lon="102.148264">
<time>2014-08-04T17:19:08Z</time></trkpt>
<trkpt lat="25.01848" lon="102.148264">
<time>2014-08-04T17:19:09Z</time></trkpt>
<trkpt lat="25.01849" lon="102.148264">
<time>2014-08-04T17:19:10Z</time></trkpt>
<trkpt lat="25.01851" lon="102.148254">
<time>2014-08-04T17:19:11Z</time></trkpt>
<trkpt lat="25.01853" lon="102.148244">
<time>2014-08-04T17:19:12Z</time></trkpt>
<trkpt lat="25.01855" lon="102.148244">
<time>2014-08-04T17:19:13Z</time></trkpt>
<trkpt lat="25.01858" lon="102.148224">
<time>2014-08-04T17:19:14Z</time></trkpt>
<trkpt lat="25.01859" lon="102.148204">
<time>2014-08-04T17:19:15Z</time></trkpt>
<trkpt lat="25.0186" lon="102.148184">
<time>2014-08-04T17:19:16Z</time></trkpt>
<trkpt lat="25.01861" lon="102.148164">
<time>2014-08-04T17:19:17Z</time></trkpt>
<trkpt lat="25.01862" lon="102.148154">
<time>2014-08-04T17:19:18Z</time></trkpt>
<trkpt lat="25.018629" lon="102.148114">
<time>2014-08-04T17:19:19Z</time></trkpt>
<trkpt lat="25.018629" lon="102.148074">
<time>2014-08-04T17:19:20Z</time></trkpt>
<trkpt lat="25.018629" lon="102.148034">
<time>2014-08-04T17:19:21Z</time></trkpt>
<trkpt lat="25.018619" lon="102.147984">
<time>2014-08-04T17:19:22Z</time></trkpt>
<trkpt lat="25.018609" lon="102.147954">
<time>2014-08-04T17:19:23Z</time></trkpt>
<trkpt lat="25.018599" lon="102.147894">
<time>2014-08-04T17:19:24Z</time></trkpt>
<trkpt lat="25.018559" lon="102.147793">
<time>2014-08-04T17:19:25Z</time></trkpt>
<trkpt lat="25.018499" lon="102.147623">
<time>2014-08-04T17:19:26Z</time></trkpt>
<trkpt lat="25.018468" lon="102.147473">
<time>2014-08-04T17:19:27Z</time></trkpt>
<trkpt lat="25.018448" lon="102.147342">
<time>2014-08-04T17:19:28Z</time></trkpt>
<trkpt lat="25.018428" lon="102.147202">
<time>2014-08-04T17:19:29Z</time></trkpt>
<trkpt lat="25.018418" lon="102.147072">
<time>2014-08-04T17:19:30Z</time></trkpt>
<trkpt lat="25.018407" lon="102.146902">
<time>2014-08-04T17:19:31Z</time></trkpt>
<trkpt lat="25.018397" lon="102.146761">
<time>2014-08-04T17:19:32Z</time></trkpt>
<trkpt lat="25.018387" lon="102.146651">
<time>2014-08-04T17:19:33Z</time></trkpt>
<trkpt lat="25.018367" lon="102.146551">
<time>2014-08-04T17:19:34Z</time></trkpt>
<trkpt lat="25.018327" lon="102.146451">
<time>2014-08-04T17:19:35Z</time></trkpt>
<trkpt lat="25.018297" lon="102.14634">
<time>2014-08-04T17:19:36Z</time></trkpt>
<trkpt lat="25.018236" lon="102.14624">
<time>2014-08-04T17:19:37Z</time></trkpt>
<trkpt lat="25.018136" lon="102.14606">
<time>2014-08-04T17:19:38Z</time></trkpt>
<trkpt lat="25.017805" lon="102.145519">
<time>2014-08-04T17:19:39Z</time></trkpt>
<trkpt lat="25.017745" lon="102.145408">
<time>2014-08-04T17:19:40Z</time></trkpt>
<trkpt lat="25.017695" lon="102.145318">
<time>2014-08-04T17:19:41Z</time></trkpt>
<trkpt lat="25.017665" lon="102.145238">
<time>2014-08-04T17:19:42Z</time></trkpt>
<trkpt lat="25.017645" lon="102.145188">
<time>2014-08-04T17:19:43Z</time></trkpt>
<trkpt lat="25.017635" lon="102.145138">
<time>2014-08-04T17:19:44Z</time></trkpt>
<trkpt lat="25.017614" lon="102.145058">
<time>2014-08-04T17:19:45Z</time></trkpt>
<trkpt lat="25.017614" lon="102.145008">
<time>2014-08-04T17:19:46Z</time></trkpt>
<trkpt lat="25.017614" lon="102.144947">
<time>2014-08-04T17:19:47Z</time></trkpt>
<trkpt lat="25.017624" lon="102.144877">
<time>2014-08-04T17:19:48Z</time></trkpt>
<trkpt lat="25.017634" lon="102.144817">
<time>2014-08-04T17:19:49Z</time></trkpt>
<trkpt lat="25.017664" lon="102.144747">
<time>2014-08-04T17:19:50Z</time></trkpt>
<trkpt lat="25.017694" lon="102.144687">
<time>2014-08-04T17:19:51Z</time></trkpt>
<trkpt lat="25.017714" lon="102.144637">
<time>2014-08-04T17:19:52Z</time></trkpt>
<trkpt lat="25.017744" lon="102.144607">
<time>2014-08-04T17:19:53Z</time></trkpt>
<trkpt lat="25.017804" lon="102.144517">
<time>2014-08-04T17:19:54Z</time></trkpt>
<trkpt lat="25.017863" lon="102.144426">
<time>2014-08-04T17:19:55Z</time></trkpt>
<trkpt lat="25.017903" lon="102.144366">
<time>2014-08-04T17:19:56Z</time></trkpt>
<trkpt lat="25.017933" lon="102.144306">
<time>2014-08-04T17:19:57Z</time></trkpt>
<trkpt lat="25.017953" lon="102.144246">
<time>2014-08-04T17:19:58Z</time></trkpt>
<trkpt lat="25.017963" lon="102.144186">
<time>2014-08-04T17:19:59Z</time></trkpt>
<trkpt lat="25.017963" lon="102.144146">
<time>2014-08-04T17:20:00Z</time></trkpt>
<trkpt lat="25.017963" lon="102.144106">
<time>2014-08-04T17:20:01Z</time></trkpt>
<trkpt lat="25.017953" lon="102.144046">
<time>2014-08-04T17:20:02Z</time></trkpt>
<trkpt lat="25.017943" lon="102.143985">
<time>2014-08-04T17:20:03Z</time></trkpt>
<trkpt lat="25.017903" lon="102.143885">
<time>2014-08-04T17:20:04Z</time></trkpt>
<trkpt lat="25.017762" lon="102.143615">
<time>2014-08-04T17:20:05Z</time></trkpt>
<trkpt lat="25.017702" lon="102.143515">
<time>2014-08-04T17:20:06Z</time></trkpt>
<trkpt lat="25.017662" lon="102.143454">
<time>2014-08-04T17:20:07Z</time></trkpt>
<trkpt lat="25.017612" lon="102.143394">
<time>2014-08-04T17:20:08Z</time></trkpt>
<trkpt lat="25.017572" lon="102.143354">
<time>2014-08-04T17:20:09Z</time></trkpt>
<trkpt lat="25.017522" lon="102.143314">
<time>2014-08-04T17:20:10Z</time></trkpt>
<trkpt lat="25.017452" lon="102.143274">
<time>2014-08-04T17:20:11Z</time></trkpt>
<trkpt lat="25.017392" lon="102.143234">
<time>2014-08-04T17:20:12Z</time></trkpt>
<trkpt lat="25.017312" lon="102.143214">
<time>2014-08-04T17:20:13Z</time></trkpt>
<trkpt lat="25.017211" lon="102.143184">
<time>2014-08-04T17:20:14Z</time></trkpt>
<trkpt lat="25.017111" lon="102.143164">
<time>2014-08-04T17:20:15Z</time></trkpt>
<trkpt lat="25.016951" lon="102.143114">
<time>2014-08-04T17:20:16Z</time></trkpt>
<trkpt lat="25.016881" lon="102.143094">
<time>2014-08-04T17:20:17Z</time></trkpt>
<trkpt lat="25.016811" lon="102.143054">
<time>2014-08-04T17:20:18Z</time></trkpt>
<trkpt lat="25.016751" lon="102.143024">
<time>2014-08-04T17:20:19Z</time></trkpt>
<trkpt lat="25.016701" lon="102.142973">
<time>2014-08-04T17:20:20Z</time></trkpt>
<trkpt lat="25.016631" lon="102.142903">
<time>2014-08-04T17:20:21Z</time></trkpt>
<trkpt lat="25.016561" lon="102.142813">
<time>2014-08-04T17:20:22Z</time></trkpt>
<trkpt lat="25.016501" lon="102.142713">
<time>2014-08-04T17:20:23Z</time></trkpt>
<trkpt lat="25.016441" lon="102.142633">
<time>2014-08-04T17:20:24Z</time></trkpt>
<trkpt lat="25.016371" lon="102.142513">
<time>2014-08-04T17:20:25Z</time></trkpt>
<trkpt lat="25.01622" lon="102.142262">
<time>2014-08-04T17:20:26Z</time></trkpt>
<trkpt lat="25.01615" lon="102.142152">
<time>2014-08-04T17:20:27Z</time></trkpt>
<trkpt lat="25.01609" lon="102.142072">
<time>2014-08-04T17:20:28Z</time></trkpt>
<trkpt lat="25.01599" lon="102.141971">
<time>2014-08-04T17:20:29Z</time></trkpt>
<trkpt lat="25.01588" lon="102.141881">
<time>2014-08-04T17:20:30Z</time></trkpt>
<trkpt lat="25.015769" lon="102.141811">
<time>2014-08-04T17:20:31Z</time></trkpt>
<trkpt lat="25.015669" lon="102.141751">
<time>2014-08-04T17:20:32Z</time></trkpt>
<trkpt lat="25.015549" lon="102.141681">
<time>2014-08-04T17:20:33Z</time></trkpt>
<trkpt lat="25.015439" lon="102.141621">
<time>2014-08-04T17:20:34Z</time></trkpt>
<trkpt lat="25.015319" lon="102.141561">
<time>2014-08-04T17:20:35Z</time></trkpt>
<trkpt lat="25.015189" lon="102.141511">
<time>2014-08-04T17:20:36Z</time></trkpt>
<trkpt lat="25.015029" lon="102.141481">
<time>2014-08-04T17:20:37Z</time></trkpt>
<trkpt lat="25.014879" lon="102.141471">
<time>2014-08-04T17:20:38Z</time></trkpt>
<trkpt lat="25.014779" lon="102.14145">
<time>2014-08-04T17:20:39Z</time></trkpt>
<trkpt lat="25.014689" lon="102.14143">
<time>2014-08-04T17:20:40Z</time></trkpt>
<trkpt lat="25.014579" lon="102.14139">
<time>2014-08-04T17:20:41Z</time></trkpt>
<trkpt lat="25.014519" lon="102.14136">
<time>2014-08-04T17:20:42Z</time></trkpt>
<trkpt lat="25.014459" lon="102.14131">
<time>2014-08-04T17:20:43Z</time></trkpt>
<trkpt lat="25.014429" lon="102.14128">
<time>2014-08-04T17:20:44Z</time></trkpt>
<trkpt lat="25.014389" lon="102.14125">
<time>2014-08-04T17:20:45Z</time></trkpt>
<trkpt lat="25.014359" lon="102.1412">
<time>2014-08-04T17:20:46Z</time></trkpt>
<trkpt lat="25.014329" lon="102.14116">
<time>2014-08-04T17:20:47Z</time></trkpt>
<trkpt lat="25.014309" lon="102.14111">
<time>2014-08-04T17:20:48Z</time></trkpt>
<trkpt lat="25.014278" lon="102.14106">
<time>2014-08-04T17:20:49Z</time></trkpt>
<trkpt lat="25.014268" lon="102.14099">
<time>2014-08-04T17:20:50Z</time></trkpt>
<trkpt lat="25.014258" lon="102.140919">
<time>2014-08-04T17:20:51Z</time></trkpt>
<trkpt lat="25.014248" lon="102.140789">
<time>2014-08-04T17:20:52Z</time></trkpt>
<trkpt lat="25.014258" lon="102.140679">
<time>2014-08-04T17:20:53Z</time></trkpt>
<trkpt lat="25.014268" lon="102.140579">
<time>2014-08-04T17:20:54Z</time></trkpt>
<trkpt lat="25.014258" lon="102.140509">
<time>2014-08-04T17:20:55Z</time></trkpt>
<trkpt lat="25.014258" lon="102.140459">
<time>2014-08-04T17:20:56Z</time></trkpt>
<trkpt lat="25.014237" lon="102.140378">
<time>2014-08-04T17:20:57Z</time></trkpt>
<trkpt lat="25.014217" lon="102.140328">
<time>2014-08-04T17:20:58Z</time></trkpt>
<trkpt lat="25.014187" lon="102.140248">
<time>2014-08-04T17:20:59Z</time></trkpt>
<trkpt lat="25.014137" lon="102.140178">
<time>2014-08-04T17:21:00Z</time></trkpt>
<trkpt lat="25.014077" lon="102.140078">
<time>2014-08-04T17:21:01Z</time></trkpt>
<trkpt lat="25.013987" lon="102.139978">
<time>2014-08-04T17:21:02Z</time></trkpt>
<trkpt lat="25.013857" lon="102.139827">
<time>2014-08-04T17:21:03Z</time></trkpt>
<trkpt lat="25.013737" lon="102.139747">
<time>2014-08-04T17:21:04Z</time></trkpt>
<trkpt lat="25.013646" lon="102.139697">
<time>2014-08-04T17:21:05Z</time></trkpt>
<trkpt lat="25.013556" lon="102.139657">
<time>2014-08-04T17:21:06Z</time></trkpt>
<trkpt lat="25.013436" lon="102.139597">
<time>2014-08-04T17:21:07Z</time></trkpt>
<trkpt lat="25.012936" lon="102.139396">
<time>2014-08-04T17:21:08Z</time></trkpt>
<trkpt lat="25.012766" lon="102.139326">
<time>2014-08-04T17:21:09Z</time></trkpt>
<trkpt lat="25.012676" lon="102.139276">
<time>2014-08-04T17:21:10Z</time></trkpt>
<trkpt lat="25.012626" lon="102.139236">
<time>2014-08-04T17:21:11Z</time></trkpt>
<trkpt lat="25.012586" lon="102.139206">
<time>2014-08-04T17:21:12Z</time></trkpt>
<trkpt lat="25.012556" lon="102.139156">
<time>2014-08-04T17:21:13Z</time></trkpt>
<trkpt lat="25.012516" lon="102.139106">
<time>2014-08-04T17:21:14Z</time></trkpt>
<trkpt lat="25.012496" lon="102.139066">
<time>2014-08-04T17:21:15Z</time></trkpt>
<trkpt lat="25.012476" lon="102.138986">
<time>2014-08-04T17:21:16Z</time></trkpt>
<trkpt lat="25.012455" lon="102.138916">
<time>2014-08-04T17:21:17Z</time></trkpt>
<trkpt lat="25.012435" lon="102.138835">
<time>2014-08-04T17:21:18Z</time></trkpt>
<trkpt lat="25.012425" lon="102.138725">
<time>2014-08-04T17:21:19Z</time></trkpt>
<trkpt lat="25.012415" lon="102.138605">
<time>2014-08-04T17:21:20Z</time></trkpt>
<trkpt lat="25.012415" lon="102.138535">
<time>2014-08-04T17:21:21Z</time></trkpt>
<trkpt lat="25.012395" lon="102.138465">
<time>2014-08-04T17:21:22Z</time></trkpt>
<trkpt lat="25.012375" lon="102.138425">
<time>2014-08-04T17:21:23Z</time></trkpt>
<trkpt lat="25.012365" lon="102.138395">
<time>2014-08-04T17:21:24Z</time></trkpt>
<trkpt lat="25.012335" lon="102.138344">
<time>2014-08-04T17:21:25Z</time></trkpt>
<trkpt lat="25.012305" lon="102.138314">
<time>2014-08-04T17:21:26Z</time></trkpt>
<trkpt lat="25.012254" lon="102.138264">
<time>2014-08-04T17:21:27Z</time></trkpt>
<trkpt lat="25.012184" lon="102.138194">
<time>2014-08-04T17:21:28Z</time></trkpt>
<trkpt lat="25.012044" lon="102.138054">
<time>2014-08-04T17:21:29Z</time></trkpt>
<trkpt lat="25.012004" lon="102.138024">
<time>2014-08-04T17:21:30Z</time></trkpt>
<trkpt lat="25.011964" lon="102.137974">
<time>2014-08-04T17:21:31Z</time></trkpt>
<trkpt lat="25.011944" lon="102.137934">
<time>2014-08-04T17:21:32Z</time></trkpt>
<trkpt lat="25.011914" lon="102.137884">
<time>2014-08-04T17:21:33Z</time></trkpt>
<trkpt lat="25.011884" lon="102.137823">
<time>2014-08-04T17:21:34Z</time></trkpt>
<trkpt lat="25.011874" lon="102.137773">
<time>2014-08-04T17:21:35Z</time></trkpt>
<trkpt lat="25.011854" lon="102.137713">
<time>2014-08-04T17:21:36Z</time></trkpt>
<trkpt lat="25.011824" lon="102.137603">
<time>2014-08-04T17:21:37Z</time></trkpt>
<trkpt lat="25.011803" lon="102.137513">
<time>2014-08-04T17:21:38Z</time></trkpt>
<trkpt lat="25.011773" lon="102.137443">
<time>2014-08-04T17:21:39Z</time></trkpt>
<trkpt lat="25.011753" lon="102.137393">
<time>2014-08-04T17:21:40Z</time></trkpt>
<trkpt lat="25.011723" lon="102.137323">
<time>2014-08-04T17:21:41Z</time></trkpt>
<trkpt lat="25.011683" lon="102.137252">
<time>2014-08-04T17:21:42Z</time></trkpt>
<trkpt lat="25.011653" lon="102.137202">
<time>2014-08-04T17:21:43Z</time></trkpt>
<trkpt lat="25.011573" lon="102.137082">
<time>2014-08-04T17:21:44Z</time></trkpt>
<trkpt lat="25.011443" lon="102.136892">
<time>2014-08-04T17:21:45Z</time></trkpt>
<trkpt lat="25.011362" lon="102.136772">
<time>2014-08-04T17:21:46Z</time></trkpt>
<trkpt lat="25.011312" lon="102.136701">
<time>2014-08-04T17:21:47Z</time></trkpt>
<trkpt lat="25.011292" lon="102.136651">
<time>2014-08-04T17:21:48Z</time></trkpt>
<trkpt lat="25.011282" lon="102.136621">
<time>2014-08-04T17:21:49Z</time></trkpt>
<trkpt lat="25.011272" lon="102.136591">
<time>2014-08-04T17:21:50Z</time></trkpt>
<trkpt lat="25.011262" lon="102.136561">
<time>2014-08-04T17:21:51Z</time></trkpt>
<trkpt lat="25.011262" lon="102.136541">
<time>2014-08-04T17:21:52Z</time></trkpt>
<trkpt lat="25.011262" lon="102.136511">
<time>2014-08-04T17:21:53Z</time></trkpt>
<trkpt lat="25.011262" lon="102.136491">
<time>2014-08-04T17:21:54Z</time></trkpt>
<trkpt lat="25.011262" lon="102.136461">
<time>2014-08-04T17:21:55Z</time></trkpt>
<trkpt lat="25.011262" lon="102.136431">
<time>2014-08-04T17:21:56Z</time></trkpt>
<trkpt lat="25.011262" lon="102.136411">
<time>2014-08-04T17:21:57Z</time></trkpt>
<trkpt lat="25.011272" lon="102.136381">
<time>2014-08-04T17:21:58Z</time></trkpt>
<trkpt lat="25.011282" lon="102.136341">
<time>2014-08-04T17:21:59Z</time></trkpt>
<trkpt lat="25.011292" lon="102.136311">
<time>2014-08-04T17:22:00Z</time></trkpt>
<trkpt lat="25.011302" lon="102.136281">
<time>2014-08-04T17:22:01Z</time></trkpt>
<trkpt lat="25.011322" lon="102.136251">
<time>2014-08-04T17:22:02Z</time></trkpt>
<trkpt lat="25.011342" lon="102.136231">
<time>2014-08-04T17:22:03Z</time></trkpt>
<trkpt lat="25.011362" lon="102.13619">
<time>2014-08-04T17:22:04Z</time></trkpt>
<trkpt lat="25.011401" lon="102.13615">
<time>2014-08-04T17:22:05Z</time></trkpt>
<trkpt lat="25.011481" lon="102.13607">
<time>2014-08-04T17:22:06Z</time></trkpt>
<trkpt lat="25.011601" lon="102.13595">
<time>2014-08-04T17:22:07Z</time></trkpt>
<trkpt lat="25.011711" lon="102.13584">
<time>2014-08-04T17:22:08Z</time></trkpt>
<trkpt lat="25.011841" lon="102.13572">
<time>2014-08-04T17:22:09Z</time></trkpt>
<trkpt lat="25.011901" lon="102.135669">
<time>2014-08-04T17:22:10Z</time></trkpt>
<trkpt lat="25.011941" lon="102.135639">
<time>2014-08-04T17:22:11Z</time></trkpt>
<trkpt lat="25.011971" lon="102.135629">
<time>2014-08-04T17:22:12Z</time></trkpt>
<trkpt lat="25.012011" lon="102.135609">
<time>2014-08-04T17:22:13Z</time></trkpt>
<trkpt lat="25.012051" lon="102.135589">
<time>2014-08-04T17:22:14Z</time></trkpt>
<trkpt lat="25.012091" lon="102.135579">
<time>2014-08-04T17:22:15Z</time></trkpt>
<trkpt lat="25.012131" lon="102.135569">
<time>2014-08-04T17:22:16Z</time></trkpt>
<trkpt lat="25.012171" lon="102.135559">
<time>2014-08-04T17:22:17Z</time></trkpt>
<trkpt lat="25.012211" lon="102.135559">
<time>2014-08-04T17:22:18Z</time></trkpt>
<trkpt lat="25.012261" lon="102.135549">
<time>2014-08-04T17:22:19Z</time></trkpt>
<trkpt lat="25.01238" lon="102.135539">
<time>2014-08-04T17:22:20Z</time></trkpt>
<trkpt lat="25.01255" lon="102.135529">
<time>2014-08-04T17:22:21Z</time></trkpt>
<trkpt lat="25.01264" lon="102.135529">
<time>2014-08-04T17:22:22Z</time></trkpt>
<trkpt lat="25.01269" lon="102.135529">
<time>2014-08-04T17:22:23Z</time></trkpt>
<trkpt lat="25.01272" lon="102.135539">
<time>2014-08-04T17:22:24Z</time></trkpt>
<trkpt lat="25.01274" lon="102.135539">
<time>2014-08-04T17:22:25Z</time></trkpt>
<trkpt lat="25.01277" lon="102.135549">
<time>2014-08-04T17:22:26Z</time></trkpt>
<trkpt lat="25.0128" lon="102.135559">
<time>2014-08-04T17:22:27Z</time></trkpt>
<trkpt lat="25.01282" lon="102.135569">
<time>2014-08-04T17:22:28Z</time></trkpt>
<trkpt lat="25.01284" lon="102.135589">
<time>2014-08-04T17:22:29Z</time></trkpt>
<trkpt lat="25.012871" lon="102.135599">
<time>2014-08-04T17:22:30Z</time></trkpt>
<trkpt lat="25.012901" lon="102.135629">
<time>2014-08-04T17:22:31Z</time></trkpt>
<trkpt lat="25.012921" lon="102.135649">
<time>2014-08-04T17:22:32Z</time></trkpt>
<trkpt lat="25.012941" lon="102.135679">
<time>2014-08-04T17:22:33Z</time></trkpt>
<trkpt lat="25.012961" lon="102.135699">
<time>2014-08-04T17:22:34Z</time></trkpt>
<trkpt lat="25.012981" lon="102.13573">
<time>2014-08-04T17:22:35Z</time></trkpt>
<trkpt lat="25.013021" lon="102.1358">
<time>2014-08-04T17:22:36Z</time></trkpt>
<trkpt lat="25.013061" lon="102.13588">
<time>2014-08-04T17:22:37Z</time></trkpt>
<trkpt lat="25.013151" lon="102.13606">
<time>2014-08-04T17:22:38Z</time></trkpt>
<trkpt lat="25.013201" lon="102.13615">
<time>2014-08-04T17:22:39Z</time></trkpt>
<trkpt lat="25.013251" lon="102.13625">
<time>2014-08-04T17:22:40Z</time></trkpt>
<trkpt lat="25.013332" lon="102.136351">
<time>2014-08-04T17:22:41Z</time></trkpt>
<trkpt lat="25.013392" lon="102.136441">
<time>2014-08-04T17:22:42Z</time></trkpt>
<trkpt lat="25.013482" lon="102.136521">
<time>2014-08-04T17:22:43Z</time></trkpt>
<trkpt lat="25.013562" lon="102.136591">
<time>2014-08-04T17:22:44Z</time></trkpt>
<trkpt lat="25.013852" lon="102.136832">
<time>2014-08-04T17:22:45Z</time></trkpt>
<trkpt lat="25.014273" lon="102.137172">
<time>2014-08-04T17:22:46Z</time></trkpt>
<trkpt lat="25.014443" lon="102.137332">
<time>2014-08-04T17:22:47Z</time></trkpt>
<trkpt lat="25.014623" lon="102.137543">
<time>2014-08-04T17:22:48Z</time></trkpt>
<trkpt lat="25.014773" lon="102.137713">
<time>2014-08-04T17:22:49Z</time></trkpt>
<trkpt lat="25.014803" lon="102.137733">
<time>2014-08-04T17:22:50Z</time></trkpt>
<trkpt lat="25.014823" lon="102.137753">
<time>2014-08-04T17:22:51Z</time></trkpt>
<trkpt lat="25.014853" lon="102.137763">
<time>2014-08-04T17:22:52Z</time></trkpt>
<trkpt lat="25.014873" lon="102.137773">
<time>2014-08-04T17:22:53Z</time></trkpt>
<trkpt lat="25.014893" lon="102.137773">
<time>2014-08-04T17:22:54Z</time></trkpt>
<trkpt lat="25.014923" lon="102.137783">
<time>2014-08-04T17:22:55Z</time></trkpt>
<trkpt lat="25.014943" lon="102.137783">
<time>2014-08-04T17:22:56Z</time></trkpt>
<trkpt lat="25.014963" lon="102.137783">
<time>2014-08-04T17:22:57Z</time></trkpt>
<trkpt lat="25.014993" lon="102.137783">
<time>2014-08-04T17:22:58Z</time></trkpt>
<trkpt lat="25.015013" lon="102.137783">
<time>2014-08-04T17:22:59Z</time></trkpt>
<trkpt lat="25.015033" lon="102.137773">
<time>2014-08-04T17:23:00Z</time></trkpt>
<trkpt lat="25.015063" lon="102.137763">
<time>2014-08-04T17:23:01Z</time></trkpt>
<trkpt lat="25.015083" lon="102.137753">
<time>2014-08-04T17:23:02Z</time></trkpt>
<trkpt lat="25.015103" lon="102.137743">
<time>2014-08-04T17:23:03Z</time></trkpt>
<trkpt lat="25.015133" lon="102.137723">
<time>2014-08-04T17:23:04Z</time></trkpt>
<trkpt lat="25.015173" lon="102.137683">
<time>2014-08-04T17:23:05Z</time></trkpt>
<trkpt lat="25.015293" lon="102.137553">
<time>2014-08-04T17:23:06Z</time></trkpt>
<trkpt lat="25.015443" lon="102.137403">
<time>2014-08-04T17:23:07Z</time></trkpt>
<trkpt lat="25.015483" lon="102.137352">
<time>2014-08-04T17:23:08Z</time></trkpt>
<trkpt lat="25.015543" lon="102.137292">
<time>2014-08-04T17:23:09Z</time></trkpt>
<trkpt lat="25.015623" lon="102.137252">
<time>2014-08-04T17:23:10Z</time></trkpt>
<trkpt lat="25.015683" lon="102.137222">
<time>2014-08-04T17:23:11Z</time></trkpt>
<trkpt lat="25.015742" lon="102.137202">
<time>2014-08-04T17:23:12Z</time></trkpt>
<trkpt lat="25.015842" lon="102.137182">
<time>2014-08-04T17:23:13Z</time></trkpt>
<trkpt lat="25.015902" lon="102.137182">
<time>2014-08-04T17:23:14Z</time></trkpt>
<trkpt lat="25.015972" lon="102.137182">
<time>2014-08-04T17:23:15Z</time></trkpt>
<trkpt lat="25.016092" lon="102.137202">
<time>2014-08-04T17:23:16Z</time></trkpt>
<trkpt lat="25.016172" lon="102.137212">
<time>2014-08-04T17:23:17Z</time></trkpt>
<trkpt lat="25.016322" lon="102.137242">
<time>2014-08-04T17:23:18Z</time></trkpt>
<trkpt lat="25.016573" lon="102.137292">
<time>2014-08-04T17:23:19Z</time></trkpt>
<trkpt lat="25.016633" lon="102.137312">
<time>2014-08-04T17:23:20Z</time></trkpt>
<trkpt lat="25.016673" lon="102.137322">
<time>2014-08-04T17:23:21Z</time></trkpt>
<trkpt lat="25.016713" lon="102.137342">
<time>2014-08-04T17:23:22Z</time></trkpt>
<trkpt lat="25.016733" lon="102.137362">
<time>2014-08-04T17:23:23Z</time></trkpt>
<trkpt lat="25.016763" lon="102.137383">
<time>2014-08-04T17:23:24Z</time></trkpt>
<trkpt lat="25.016783" lon="102.137403">
<time>2014-08-04T17:23:25Z</time></trkpt>
<trkpt lat="25.016803" lon="102.137433">
<time>2014-08-04T17:23:26Z</time></trkpt>
<trkpt lat="25.016823" lon="102.137463">
<time>2014-08-04T17:23:27Z</time></trkpt>
<trkpt lat="25.016833" lon="102.137483">
<time>2014-08-04T17:23:28Z</time></trkpt>
<trkpt lat="25.016853" lon="102.137523">
<time>2014-08-04T17:23:29Z</time></trkpt>
<trkpt lat="25.016863" lon="102.137563">
<time>2014-08-04T17:23:30Z</time></trkpt>
<trkpt lat="25.016873" lon="102.137623">
<time>2014-08-04T17:23:31Z</time></trkpt>
<trkpt lat="25.016883" lon="102.137773">
<time>2014-08-04T17:23:32Z</time></trkpt>
<trkpt lat="25.016903" lon="102.137853">
<time>2014-08-04T17:23:33Z</time></trkpt>
<trkpt lat="25.016913" lon="102.137893">
<time>2014-08-04T17:23:34Z</time></trkpt>
<trkpt lat="25.016923" lon="102.137924">
<time>2014-08-04T17:23:35Z</time></trkpt>
<trkpt lat="25.016943" lon="102.137954">
<time>2014-08-04T17:23:36Z</time></trkpt>
<trkpt lat="25.016973" lon="102.137984">
<time>2014-08-04T17:23:37Z</time></trkpt>
<trkpt lat="25.017004" lon="102.138014">
<time>2014-08-04T17:23:38Z</time></trkpt>
<trkpt lat="25.017024" lon="102.138034">
<time>2014-08-04T17:23:39Z</time></trkpt>
<trkpt lat="25.017054" lon="102.138044">
<time>2014-08-04T17:23:40Z</time></trkpt>
<trkpt lat="25.017084" lon="102.138054">
<time>2014-08-04T17:23:41Z</time></trkpt>
<trkpt lat="25.017114" lon="102.138064">
<time>2014-08-04T17:23:42Z</time></trkpt>
<trkpt lat="25.017144" lon="102.138074">
<time>2014-08-04T17:23:43Z</time></trkpt>
<trkpt lat="25.017184" lon="102.138074">
<time>2014-08-04T17:23:44Z</time></trkpt>
<trkpt lat="25.017234" lon="102.138074">
<time>2014-08-04T17:23:45Z</time></trkpt>
<trkpt lat="25.017294" lon="102.138074">
<time>2014-08-04T17:23:46Z</time></trkpt>
<trkpt lat="25.017364" lon="102.138074">
<time>2014-08-04T17:23:47Z</time></trkpt>
<trkpt lat="25.017434" lon="102.138064">
<time>2014-08-04T17:23:48Z</time></trkpt>
<trkpt lat="25.017484" lon="102.138064">
<time>2014-08-04T17:23:49Z</time></trkpt>
<trkpt lat="25.017514" lon="102.138074">
<time>2014-08-04T17:23:50Z</time></trkpt>
<trkpt lat="25.017544" lon="102.138074">
<time>2014-08-04T17:23:51Z</time></trkpt>
<trkpt lat="25.017564" lon="102.138084">
<time>2014-08-04T17:23:52Z</time></trkpt>
<trkpt lat="25.017584" lon="102.138094">
<time>2014-08-04T17:23:53Z</time></trkpt>
<trkpt lat="25.017614" lon="102.138104">
<time>2014-08-04T17:23:54Z</time></trkpt>
<trkpt lat="25.017634" lon="102.138114">
<time>2014-08-04T17:23:55Z</time></trkpt>
<trkpt lat="25.017644" lon="102.138124">
<time>2014-08-04T17:23:56Z</time></trkpt>
<trkpt lat="25.017684" lon="102.138154">
<time>2014-08-04T17:23:57Z</time></trkpt>
<trkpt lat="25.017694" lon="102.138164">
<time>2014-08-04T17:23:58Z</time></trkpt>
<trkpt lat="25.017704" lon="102.138174">
<time>2014-08-04T17:23:59Z</time></trkpt>
<trkpt lat="25.017714" lon="102.138194">
<time>2014-08-04T17:24:00Z</time></trkpt>
<trkpt lat="25.017724" lon="102.138204">
<time>2014-08-04T17:24:01Z</time></trkpt>
<trkpt lat="25.017744" lon="102.138244">
<time>2014-08-04T17:24:02Z</time></trkpt>
<trkpt lat="25.017754" lon="102.138274">
<time>2014-08-04T17:24:03Z</time></trkpt>
<trkpt lat="25.017764" lon="102.138294">
<time>2014-08-04T17:24:04Z</time></trkpt>
<trkpt lat="25.017784" lon="102.138354">
<time>2014-08-04T17:24:05Z</time></trkpt>
<trkpt lat="25.017804" lon="102.138414">
<time>2014-08-04T17:24:06Z</time></trkpt>
<trkpt lat="25.017824" lon="102.138505">
<time>2014-08-04T17:24:07Z</time></trkpt>
<trkpt lat="25.017834" lon="102.138555">
<time>2014-08-04T17:24:08Z</time></trkpt>
<trkpt lat="25.017844" lon="102.138585">
<time>2014-08-04T17:24:09Z</time></trkpt>
<trkpt lat="25.017854" lon="102.138665">
<time>2014-08-04T17:24:10Z</time></trkpt>
<trkpt lat="25.017874" lon="102.138715">
<time>2014-08-04T17:24:11Z</time></trkpt>
<trkpt lat="25.017895" lon="102.138765">
<time>2014-08-04T17:24:12Z</time></trkpt>
<trkpt lat="25.017915" lon="102.138805">
<time>2014-08-04T17:24:13Z</time></trkpt>
<trkpt lat="25.017935" lon="102.138835">
<time>2014-08-04T17:24:14Z</time></trkpt>
<trkpt lat="25.017955" lon="102.138865">
<time>2014-08-04T17:24:15Z</time></trkpt>
<trkpt lat="25.017975" lon="102.138885">
<time>2014-08-04T17:24:16Z</time></trkpt>
<trkpt lat="25.018005" lon="102.138905">
<time>2014-08-04T17:24:17Z</time></trkpt>
<trkpt lat="25.018035" lon="102.138925">
<time>2014-08-04T17:24:18Z</time></trkpt>
<trkpt lat="25.018085" lon="102.138955">
<time>2014-08-04T17:24:19Z</time></trkpt>
<trkpt lat="25.018125" lon="102.138965">
<time>2014-08-04T17:24:20Z</time></trkpt>
<trkpt lat="25.018195" lon="102.138986">
<time>2014-08-04T17:24:21Z</time></trkpt>
<trkpt lat="25.018295" lon="102.138996">
<time>2014-08-04T17:24:22Z</time></trkpt>
<trkpt lat="25.018505" lon="102.139016">
<time>2014-08-04T17:24:23Z</time></trkpt>
<trkpt lat="25.019185" lon="102.139126">
<time>2014-08-04T17:24:24Z</time></trkpt>
<trkpt lat="25.019275" lon="102.139146">
<time>2014-08-04T17:24:25Z</time></trkpt>
<trkpt lat="25.019345" lon="102.139146">
<time>2014-08-04T17:24:26Z</time></trkpt>
<trkpt lat="25.019395" lon="102.139146">
<time>2014-08-04T17:24:27Z</time></trkpt>
<trkpt lat="25.019445" lon="102.139136">
<time>2014-08-04T17:24:28Z</time></trkpt>
<trkpt lat="25.019485" lon="102.139116">
<time>2014-08-04T17:24:29Z</time></trkpt>
<trkpt lat="25.019535" lon="102.139096">
<time>2014-08-04T17:24:30Z</time></trkpt>
<trkpt lat="25.019565" lon="102.139076">
<time>2014-08-04T17:24:31Z</time></trkpt>
<trkpt lat="25.019615" lon="102.139026">
<time>2014-08-04T17:24:32Z</time></trkpt>
<trkpt lat="25.019655" lon="102.138975">
<time>2014-08-04T17:24:33Z</time></trkpt>
<trkpt lat="25.019774" lon="102.138815">
<time>2014-08-04T17:24:34Z</time></trkpt>
<trkpt lat="25.019804" lon="102.138785">
<time>2014-08-04T17:24:35Z</time></trkpt>
<trkpt lat="25.019854" lon="102.138745">
<time>2014-08-04T17:24:36Z</time></trkpt>
<trkpt lat="25.019894" lon="102.138705">
<time>2014-08-04T17:24:37Z</time></trkpt>
<trkpt lat="25.019944" lon="102.138685">
<time>2014-08-04T17:24:38Z</time></trkpt>
<trkpt lat="25.019984" lon="102.138665">
<time>2014-08-04T17:24:39Z</time></trkpt>
<trkpt lat="25.020024" lon="102.138655">
<time>2014-08-04T17:24:40Z</time></trkpt>
<trkpt lat="25.020074" lon="102.138645">
<time>2014-08-04T17:24:41Z</time></trkpt>
<trkpt lat="25.020124" lon="102.138645">
<time>2014-08-04T17:24:42Z</time></trkpt>
<trkpt lat="25.020154" lon="102.138645">
<time>2014-08-04T17:24:43Z</time></trkpt>
<trkpt lat="25.020194" lon="102.138655">
<time>2014-08-04T17:24:44Z</time></trkpt>
<trkpt lat="25.020234" lon="102.138675">
<time>2014-08-04T17:24:45Z</time></trkpt>
<trkpt lat="25.020274" lon="102.138685">
<time>2014-08-04T17:24:46Z</time></trkpt>
<trkpt lat="25.020314" lon="102.138705">
<time>2014-08-04T17:24:47Z</time></trkpt>
<trkpt lat="25.020354" lon="102.138725">
<time>2014-08-04T17:24:48Z</time></trkpt>
<trkpt lat="25.020414" lon="102.138745">
<time>2014-08-04T17:24:49Z</time></trkpt>
<trkpt lat="25.020464" lon="102.138775">
<time>2014-08-04T17:24:50Z</time></trkpt>
<trkpt lat="25.020514" lon="102.138795">
<time>2014-08-04T17:24:51Z</time></trkpt>
<trkpt lat="25.020554" lon="102.138815">
<time>2014-08-04T17:24:52Z</time></trkpt>
<trkpt lat="25.020584" lon="102.138825">
<time>2014-08-04T17:24:53Z</time></trkpt>
<trkpt lat="25.020614" lon="102.138825">
<time>2014-08-04T17:24:54Z</time></trkpt>
<trkpt lat="25.020644" lon="102.138835">
<time>2014-08-04T17:24:55Z</time></trkpt>
<trkpt lat="25.020684" lon="102.138835">
<time>2014-08-04T17:24:56Z</time></trkpt>
<trkpt lat="25.020704" lon="102.138825">
<time>2014-08-04T17:24:57Z</time></trkpt>
<trkpt lat="25.020734" lon="102.138815">
<time>2014-08-04T17:24:58Z</time></trkpt>
<trkpt lat="25.020754" lon="102.138805">
<time>2014-08-04T17:24:59Z</time></trkpt>
<trkpt lat="25.020774" lon="102.138785">
<time>2014-08-04T17:25:00Z</time></trkpt>
<trkpt lat="25.020794" lon="102.138765">
<time>2014-08-04T17:25:01Z</time></trkpt>
<trkpt lat="25.020794" lon="102.138735">
<time>2014-08-04T17:25:02Z</time></trkpt>
<trkpt lat="25.020804" lon="102.138715">
<time>2014-08-04T17:25:03Z</time></trkpt>
<trkpt lat="25.020814" lon="102.138685">
<time>2014-08-04T17:25:04Z</time></trkpt>
<trkpt lat="25.020814" lon="102.138665">
<time>2014-08-04T17:25:05Z</time></trkpt>
<trkpt lat="25.020824" lon="102.138635">
<time>2014-08-04T17:25:06Z</time></trkpt>
<trkpt lat="25.020814" lon="102.138605">
<time>2014-08-04T17:25:07Z</time></trkpt>
<trkpt lat="25.020804" lon="102.138565">
<time>2014-08-04T17:25:08Z</time></trkpt>
<trkpt lat="25.020794" lon="102.138535">
<time>2014-08-04T17:25:09Z</time></trkpt>
<trkpt lat="25.020774" lon="102.138505">
<time>2014-08-04T17:25:10Z</time></trkpt>
<trkpt lat="25.020754" lon="102.138484">
<time>2014-08-04T17:25:11Z</time></trkpt>
<trkpt lat="25.020734" lon="102.138464">
<time>2014-08-04T17:25:12Z</time></trkpt>
<trkpt lat="25.020704" lon="102.138444">
<time>2014-08-04T17:25:13Z</time></trkpt>
<trkpt lat="25.020664" lon="102.138424">
<time>2014-08-04T17:25:14Z</time></trkpt>
<trkpt lat="25.020624" lon="102.138414">
<time>2014-08-04T17:25:15Z</time></trkpt>
<trkpt lat="25.020564" lon="102.138394">
<time>2014-08-04T17:25:16Z</time></trkpt>
<trkpt lat="25.020474" lon="102.138374">
<time>2014-08-04T17:25:17Z</time></trkpt>
<trkpt lat="25.020354" lon="102.138354">
<time>2014-08-04T17:25:18Z</time></trkpt>
<trkpt lat="25.020354" lon="102.138354">
<time>2014-08-04T17:25:19Z</time></trkpt>
<trkpt lat="25.020583" lon="102.138114">
<time>2014-08-04T17:25:20Z</time></trkpt>
<trkpt lat="25.020693" lon="102.137984">
<time>2014-08-04T17:25:21Z</time></trkpt>
<trkpt lat="25.020843" lon="102.137843">
<time>2014-08-04T17:25:22Z</time></trkpt>
<trkpt lat="25.021043" lon="102.137763">
<time>2014-08-04T17:25:23Z</time></trkpt>
<trkpt lat="25.021223" lon="102.137793">
<time>2014-08-04T17:25:24Z</time></trkpt>
<trkpt lat="25.021503" lon="102.137893">
<time>2014-08-04T17:25:25Z</time></trkpt>
<trkpt lat="25.021623" lon="102.137923">
<time>2014-08-04T17:25:26Z</time></trkpt>
<trkpt lat="25.021763" lon="102.137953">
<time>2014-08-04T17:25:27Z</time></trkpt>
<trkpt lat="25.021823" lon="102.137933">
<time>2014-08-04T17:25:28Z</time></trkpt>
<trkpt lat="25.021903" lon="102.137823">
<time>2014-08-04T17:25:29Z</time></trkpt>
<trkpt lat="25.022012" lon="102.137703">
<time>2014-08-04T17:25:30Z</time></trkpt>
<trkpt lat="25.022112" lon="102.137673">
<time>2014-08-04T17:25:31Z</time></trkpt>
<trkpt lat="25.022202" lon="102.137663">
<time>2014-08-04T17:25:32Z</time></trkpt>
<trkpt lat="25.022302" lon="102.137683">
<time>2014-08-04T17:25:33Z</time></trkpt>
<trkpt lat="25.022392" lon="102.137703">
<time>2014-08-04T17:25:34Z</time></trkpt>
<trkpt lat="25.022502" lon="102.137733">
<time>2014-08-04T17:25:35Z</time></trkpt>
<trkpt lat="25.022572" lon="102.137733">
<time>2014-08-04T17:25:36Z</time></trkpt>
<trkpt lat="25.022682" lon="102.137733">
<time>2014-08-04T17:25:37Z</time></trkpt>
<trkpt lat="25.022762" lon="102.137733">
<time>2014-08-04T17:25:38Z</time></trkpt>
<trkpt lat="25.022862" lon="102.137663">
<time>2014-08-04T17:25:39Z</time></trkpt>
<trkpt lat="25.022952" lon="102.137583">
<time>2014-08-04T17:25:40Z</time></trkpt>
<trkpt lat="25.022982" lon="102.137472">
<time>2014-08-04T17:25:41Z</time></trkpt>
<trkpt lat="25.022972" lon="102.137302">
<time>2014-08-04T17:25:42Z</time></trkpt>
<trkpt lat="25.023121" lon="102.136982">
<time>2014-08-04T17:25:43Z</time></trkpt>
<trkpt lat="25.023281" lon="102.136691">
<time>2014-08-04T17:25:44Z</time></trkpt>
<trkpt lat="25.023311" lon="102.136581">
<time>2014-08-04T17:25:45Z</time></trkpt>
<trkpt lat="25.0234" lon="102.136431">
<time>2014-08-04T17:25:46Z</time></trkpt>
<trkpt lat="25.02343" lon="102.13624">
<time>2014-08-04T17:25:47Z</time></trkpt>
<trkpt lat="25.0234" lon="102.13603">
<time>2014-08-04T17:25:48Z</time></trkpt>
<trkpt lat="25.02336" lon="102.135819">
<time>2014-08-04T17:25:49Z</time></trkpt>
<trkpt lat="25.023399" lon="102.135559">
<time>2014-08-04T17:25:50Z</time></trkpt>
<trkpt lat="25.023419" lon="102.135359">
<time>2014-08-04T17:25:51Z</time></trkpt>
<trkpt lat="25.023479" lon="102.135148">
<time>2014-08-04T17:25:52Z</time></trkpt>
<trkpt lat="25.023488" lon="102.134958">
<time>2014-08-04T17:25:53Z</time></trkpt>
<trkpt lat="25.023468" lon="102.134848">
<time>2014-08-04T17:25:54Z</time></trkpt>
<trkpt lat="25.023428" lon="102.134697">
<time>2014-08-04T17:25:55Z</time></trkpt>
<trkpt lat="25.023378" lon="102.134537">
<time>2014-08-04T17:25:56Z</time></trkpt>
<trkpt lat="25.023407" lon="102.134196">
<time>2014-08-04T17:25:57Z</time></trkpt>
<trkpt lat="25.023417" lon="102.134016">
<time>2014-08-04T17:25:58Z</time></trkpt>
<trkpt lat="25.023427" lon="102.133906">
<time>2014-08-04T17:25:59Z</time></trkpt>
<trkpt lat="25.023457" lon="102.133796">
<time>2014-08-04T17:26:00Z</time></trkpt>
<trkpt lat="25.023507" lon="102.133655">
<time>2014-08-04T17:26:01Z</time></trkpt>
<trkpt lat="25.023506" lon="102.133505">
<time>2014-08-04T17:26:02Z</time></trkpt>
<trkpt lat="25.023486" lon="102.133415">
<time>2014-08-04T17:26:03Z</time></trkpt>
<trkpt lat="25.023516" lon="102.133155">
<time>2014-08-04T17:26:04Z</time></trkpt>
<trkpt lat="25.023596" lon="102.132984">
<time>2014-08-04T17:26:05Z</time></trkpt>
<trkpt lat="25.023745" lon="102.132774">
<time>2014-08-04T17:26:06Z</time></trkpt>
<trkpt lat="25.023835" lon="102.132724">
<time>2014-08-04T17:26:07Z</time></trkpt>
<trkpt lat="25.023945" lon="102.132724">
<time>2014-08-04T17:26:08Z</time></trkpt>
<trkpt lat="25.024135" lon="102.132684">
<time>2014-08-04T17:26:09Z</time></trkpt>
<trkpt lat="25.024205" lon="102.132644">
<time>2014-08-04T17:26:10Z</time></trkpt>
<trkpt lat="25.024355" lon="102.132644">
<time>2014-08-04T17:26:11Z</time></trkpt>
<trkpt lat="25.024435" lon="102.132684">
<time>2014-08-04T17:26:12Z</time></trkpt>
<trkpt lat="25.024555" lon="102.132704">
<time>2014-08-04T17:26:13Z</time></trkpt>
<trkpt lat="25.024705" lon="102.132714">
<time>2014-08-04T17:26:14Z</time></trkpt>
<trkpt lat="25.024905" lon="102.132654">
<time>2014-08-04T17:26:15Z</time></trkpt>
<trkpt lat="25.025205" lon="102.132463">
<time>2014-08-04T17:26:16Z</time></trkpt>
<trkpt lat="25.025285" lon="102.132333">
<time>2014-08-04T17:26:17Z</time></trkpt>
<trkpt lat="25.025444" lon="102.132273">
<time>2014-08-04T17:26:18Z</time></trkpt>
<trkpt lat="25.025554" lon="102.132263">
<time>2014-08-04T17:26:19Z</time></trkpt>
<trkpt lat="25.025694" lon="102.132143">
<time>2014-08-04T17:26:20Z</time></trkpt>
<trkpt lat="25.025974" lon="102.131652">
<time>2014-08-04T17:26:21Z</time></trkpt>
<trkpt lat="25.026173" lon="102.131431">
<time>2014-08-04T17:26:22Z</time></trkpt>
<trkpt lat="25.026343" lon="102.131281">
<time>2014-08-04T17:26:23Z</time></trkpt>
<trkpt lat="25.026772" lon="102.13086">
<time>2014-08-04T17:26:24Z</time></trkpt>
<trkpt lat="25.027252" lon="102.13047">
<time>2014-08-04T17:26:25Z</time></trkpt>
<trkpt lat="25.027641" lon="102.130169">
<time>2014-08-04T17:26:26Z</time></trkpt>
<trkpt lat="25.027991" lon="102.129879">
<time>2014-08-04T17:26:27Z</time></trkpt>
<trkpt lat="25.027991" lon="102.129879">
<time>2014-08-04T17:26:28Z</time></trkpt>
<trkpt lat="25.028071" lon="102.129819">
<time>2014-08-04T17:26:29Z</time></trkpt>
<trkpt lat="25.028151" lon="102.129769">
<time>2014-08-04T17:26:30Z</time></trkpt>
<trkpt lat="25.028231" lon="102.129688">
<time>2014-08-04T17:26:31Z</time></trkpt>
<trkpt lat="25.02847" lon="102.129488">
<time>2014-08-04T17:26:32Z</time></trkpt>
<trkpt lat="25.02854" lon="102.129408">
<time>2014-08-04T17:26:33Z</time></trkpt>
<trkpt lat="25.02861" lon="102.129348">
<time>2014-08-04T17:26:34Z</time></trkpt>
<trkpt lat="25.02868" lon="102.129318">
<time>2014-08-04T17:26:35Z</time></trkpt>
<trkpt lat="25.02872" lon="102.129278">
<time>2014-08-04T17:26:36Z</time></trkpt>
<trkpt lat="25.02877" lon="102.129228">
<time>2014-08-04T17:26:37Z</time></trkpt>
<trkpt lat="25.02908" lon="102.129047">
<time>2014-08-04T17:26:38Z</time></trkpt>
<trkpt lat="25.02927" lon="102.128937">
<time>2014-08-04T17:26:39Z</time></trkpt>
<trkpt lat="25.02937" lon="102.128837">
<time>2014-08-04T17:26:40Z</time></trkpt>
<trkpt lat="25.02941" lon="102.128837">
<time>2014-08-04T17:26:41Z</time></trkpt>
<trkpt lat="25.02944" lon="102.128857">
<time>2014-08-04T17:26:42Z</time></trkpt>
<trkpt lat="25.02947" lon="102.128907">
<time>2014-08-04T17:26:43Z</time></trkpt>
<trkpt lat="25.0295" lon="102.128987">
<time>2014-08-04T17:26:44Z</time></trkpt>
<trkpt lat="25.02973" lon="102.129438">
<time>2014-08-04T17:26:45Z</time></trkpt>
<trkpt lat="25.02986" lon="102.129618">
<time>2014-08-04T17:26:46Z</time></trkpt>
<trkpt lat="25.030011" lon="102.129728">
<time>2014-08-04T17:26:47Z</time></trkpt>
<trkpt lat="25.030081" lon="102.129759">
<time>2014-08-04T17:26:48Z</time></trkpt>
<trkpt lat="25.030251" lon="102.129728">
<time>2014-08-04T17:26:49Z</time></trkpt>
<trkpt lat="25.030311" lon="102.129738">
<time>2014-08-04T17:26:50Z</time></trkpt>
<trkpt lat="25.030371" lon="102.129749">
<time>2014-08-04T17:26:51Z</time></trkpt>
<trkpt lat="25.030451" lon="102.129789">
<time>2014-08-04T17:26:52Z</time></trkpt>
<trkpt lat="25.030521" lon="102.129829">
<time>2014-08-04T17:26:53Z</time></trkpt>
<trkpt lat="25.030591" lon="102.129839">
<time>2014-08-04T17:26:54Z</time></trkpt>
<trkpt lat="25.030661" lon="102.129839">
<time>2014-08-04T17:26:55Z</time></trkpt>
<trkpt lat="25.030811" lon="102.129799">
<time>2014-08-04T17:26:56Z</time></trkpt>
<trkpt lat="25.030911" lon="102.129789">
<time>2014-08-04T17:26:57Z</time></trkpt>
<trkpt lat="25.031031" lon="102.129799">
<time>2014-08-04T17:26:58Z</time></trkpt>
<trkpt lat="25.031111" lon="102.129819">
<time>2014-08-04T17:26:59Z</time></trkpt>
<trkpt lat="25.031111" lon="102.129819">
<time>2014-08-04T17:27:00Z</time></trkpt>
<trkpt lat="25.03118" lon="102.129678">
<time>2014-08-04T17:27:01Z</time></trkpt>
<trkpt lat="25.03128" lon="102.129448">
<time>2014-08-04T17:27:02Z</time></trkpt>
<trkpt lat="25.03137" lon="102.129157">
<time>2014-08-04T17:27:03Z</time></trkpt>
<trkpt lat="25.031509" lon="102.128867">
<time>2014-08-04T17:27:04Z</time></trkpt>
<trkpt lat="25.031619" lon="102.128346">
<time>2014-08-04T17:27:05Z</time></trkpt>
<trkpt lat="25.031628" lon="102.127986">
<time>2014-08-04T17:27:06Z</time></trkpt>
<trkpt lat="25.031568" lon="102.127815">
<time>2014-08-04T17:27:07Z</time></trkpt>
<trkpt lat="25.031498" lon="102.127565">
<time>2014-08-04T17:27:08Z</time></trkpt>
<trkpt lat="25.031517" lon="102.127365">
<time>2014-08-04T17:27:09Z</time></trkpt>
<trkpt lat="25.031607" lon="102.126974">
<time>2014-08-04T17:27:10Z</time></trkpt>
<trkpt lat="25.031707" lon="102.126643">
<time>2014-08-04T17:27:11Z</time></trkpt>
<trkpt lat="25.031896" lon="102.126433">
<time>2014-08-04T17:27:12Z</time></trkpt>
<trkpt lat="25.032226" lon="102.125922">
<time>2014-08-04T17:27:13Z</time></trkpt>
<trkpt lat="25.032485" lon="102.125572">
<time>2014-08-04T17:27:14Z</time></trkpt>
<trkpt lat="25.032515" lon="102.125351">
<time>2014-08-04T17:27:15Z</time></trkpt>
<trkpt lat="25.032535" lon="102.125021">
<time>2014-08-04T17:27:16Z</time></trkpt>
<trkpt lat="25.032545" lon="102.124891">
<time>2014-08-04T17:27:17Z</time></trkpt>
<trkpt lat="25.032414" lon="102.12442">
<time>2014-08-04T17:27:18Z</time></trkpt>
<trkpt lat="25.032384" lon="102.1241">
<time>2014-08-04T17:27:19Z</time></trkpt>
<trkpt lat="25.032643" lon="102.123759">
<time>2014-08-04T17:27:20Z</time></trkpt>
<trkpt lat="25.032803" lon="102.123188">
<time>2014-08-04T17:27:21Z</time></trkpt>
<trkpt lat="25.032822" lon="102.122728">
<time>2014-08-04T17:27:22Z</time></trkpt>
<trkpt lat="25.032982" lon="102.122157">
<time>2014-08-04T17:27:23Z</time></trkpt>
<trkpt lat="25.033201" lon="102.121556">
<time>2014-08-04T17:27:24Z</time></trkpt>
<trkpt lat="25.03343" lon="102.120224">
<time>2014-08-04T17:27:25Z</time></trkpt>
<trkpt lat="25.033579" lon="102.119663">
<time>2014-08-04T17:27:26Z</time></trkpt>
<trkpt lat="25.033849" lon="102.119103">
<time>2014-08-04T17:27:27Z</time></trkpt>
<trkpt lat="25.034178" lon="102.118542">
<time>2014-08-04T17:27:28Z</time></trkpt>
<trkpt lat="25.034218" lon="102.118312">
<time>2014-08-04T17:27:29Z</time></trkpt>
<trkpt lat="25.034277" lon="102.117961">
<time>2014-08-04T17:27:30Z</time></trkpt>
<trkpt lat="25.034557" lon="102.11717">
<time>2014-08-04T17:27:31Z</time></trkpt>
<trkpt lat="25.034866" lon="102.116519">
<time>2014-08-04T17:27:32Z</time></trkpt>
<trkpt lat="25.035355" lon="102.115538">
<time>2014-08-04T17:27:33Z</time></trkpt>
<trkpt lat="25.035595" lon="102.114887">
<time>2014-08-04T17:27:34Z</time></trkpt>
<trkpt lat="25.035704" lon="102.114437">
<time>2014-08-04T17:27:35Z</time></trkpt>
<trkpt lat="25.035944" lon="102.114247">
<time>2014-08-04T17:27:36Z</time></trkpt>
<trkpt lat="25.036254" lon="102.114187">
<time>2014-08-04T17:27:37Z</time></trkpt>
<trkpt lat="25.036654" lon="102.114027">
<time>2014-08-04T17:27:38Z</time></trkpt>
<trkpt lat="25.036834" lon="102.113666">
<time>2014-08-04T17:27:39Z</time></trkpt>
<trkpt lat="25.036864" lon="102.113306">
<time>2014-08-04T17:27:40Z</time></trkpt>
<trkpt lat="25.036833" lon="102.112935">
<time>2014-08-04T17:27:41Z</time></trkpt>
<trkpt lat="25.036633" lon="102.112555">
<time>2014-08-04T17:27:42Z</time></trkpt>
<trkpt lat="25.036513" lon="102.112094">
<time>2014-08-04T17:27:43Z</time></trkpt>
<trkpt lat="25.036513" lon="102.112094">
<time>2014-08-04T17:27:44Z</time></trkpt>
<trkpt lat="25.036573" lon="102.112115">
<time>2014-08-04T17:27:45Z</time></trkpt>
<trkpt lat="25.036913" lon="102.112024">
<time>2014-08-04T17:27:46Z</time></trkpt>
<trkpt lat="25.037162" lon="102.111814">
<time>2014-08-04T17:27:47Z</time></trkpt>
<trkpt lat="25.037892" lon="102.111063">
<time>2014-08-04T17:27:48Z</time></trkpt>
<trkpt lat="25.038142" lon="102.110763">
<time>2014-08-04T17:27:49Z</time></trkpt>
<trkpt lat="25.038491" lon="102.110273">
<time>2014-08-04T17:27:50Z</time></trkpt>
<trkpt lat="25.038591" lon="102.110062">
<time>2014-08-04T17:27:51Z</time></trkpt>
<trkpt lat="25.038651" lon="102.109832">
<time>2014-08-04T17:27:52Z</time></trkpt>
<trkpt lat="25.038651" lon="102.109832">
<time>2014-08-04T17:27:53Z</time></trkpt>
<trkpt lat="25.039011" lon="102.109472">
<time>2014-08-04T17:27:54Z</time></trkpt>
<trkpt lat="25.039271" lon="102.109182">
<time>2014-08-04T17:27:55Z</time></trkpt>
<trkpt lat="25.039441" lon="102.108951">
<time>2014-08-04T17:27:56Z</time></trkpt>
<trkpt lat="25.03964" lon="102.108661">
<time>2014-08-04T17:27:57Z</time></trkpt>
<trkpt lat="25.03981" lon="102.108381">
<time>2014-08-04T17:27:58Z</time></trkpt>
<trkpt lat="25.03999" lon="102.108041">
<time>2014-08-04T17:27:59Z</time></trkpt>
<trkpt lat="25.04013" lon="102.10775">
<time>2014-08-04T17:28:00Z</time></trkpt>
<trkpt lat="25.04036" lon="102.10716">
<time>2014-08-04T17:28:01Z</time></trkpt>
<trkpt lat="25.040469" lon="102.10681">
<time>2014-08-04T17:28:02Z</time></trkpt>
<trkpt lat="25.040519" lon="102.106579">
<time>2014-08-04T17:28:03Z</time></trkpt>
<trkpt lat="25.040569" lon="102.106349">
<time>2014-08-04T17:28:04Z</time></trkpt>
<trkpt lat="25.040679" lon="102.105809">
<time>2014-08-04T17:28:05Z</time></trkpt>
<trkpt lat="25.040868" lon="102.104638">
<time>2014-08-04T17:28:06Z</time></trkpt>
<trkpt lat="25.040918" lon="102.104348">
<time>2014-08-04T17:28:07Z</time></trkpt>
<trkpt lat="25.041028" lon="102.103767">
<time>2014-08-04T17:28:08Z</time></trkpt>
<trkpt lat="25.041128" lon="102.103277">
<time>2014-08-04T17:28:09Z</time></trkpt>
<trkpt lat="25.041188" lon="102.103087">
<time>2014-08-04T17:28:10Z</time></trkpt>
<trkpt lat="25.041248" lon="102.102937">
<time>2014-08-04T17:28:11Z</time></trkpt>
<trkpt lat="25.041348" lon="102.102757">
<time>2014-08-04T17:28:12Z</time></trkpt>
<trkpt lat="25.041438" lon="102.102587">
<time>2014-08-04T17:28:13Z</time></trkpt>
<trkpt lat="25.041538" lon="102.102437">
<time>2014-08-04T17:28:14Z</time></trkpt>
<trkpt lat="25.041638" lon="102.102307">
<time>2014-08-04T17:28:15Z</time></trkpt>
<trkpt lat="25.041638" lon="102.102297">
<time>2014-08-04T17:28:16Z</time></trkpt>
<trkpt lat="25.041738" lon="102.102187">
<time>2014-08-04T17:28:17Z</time></trkpt>
<trkpt lat="25.041828" lon="102.102096">
<time>2014-08-04T17:28:18Z</time></trkpt>
<trkpt lat="25.041948" lon="102.101986">
<time>2014-08-04T17:28:19Z</time></trkpt>
<trkpt lat="25.042118" lon="102.101846">
<time>2014-08-04T17:28:20Z</time></trkpt>
<trkpt lat="25.042357" lon="102.101656">
<time>2014-08-04T17:28:21Z</time></trkpt>
<trkpt lat="25.042587" lon="102.101506">
<time>2014-08-04T17:28:22Z</time></trkpt>
<trkpt lat="25.043197" lon="102.101086">
<time>2014-08-04T17:28:23Z</time></trkpt>
<trkpt lat="25.045177" lon="102.099735">
<time>2014-08-04T17:28:24Z</time></trkpt>
<trkpt lat="25.046777" lon="102.098655">
<time>2014-08-04T17:28:25Z</time></trkpt>
<trkpt lat="25.047856" lon="102.097914">
<time>2014-08-04T17:28:26Z</time></trkpt>
<trkpt lat="25.048286" lon="102.097624">
<time>2014-08-04T17:28:27Z</time></trkpt>
<trkpt lat="25.048496" lon="102.097474">
<time>2014-08-04T17:28:28Z</time></trkpt>
<trkpt lat="25.048896" lon="102.097144">
<time>2014-08-04T17:28:29Z</time></trkpt>
<trkpt lat="25.049516" lon="102.096584">
<time>2014-08-04T17:28:30Z</time></trkpt>
<trkpt lat="25.049966" lon="102.096084">
<time>2014-08-04T17:28:31Z</time></trkpt>
<trkpt lat="25.050536" lon="102.095443">
<time>2014-08-04T17:28:32Z</time></trkpt>
<trkpt lat="25.051026" lon="102.094903">
<time>2014-08-04T17:28:33Z</time></trkpt>
<trkpt lat="25.051316" lon="102.094613">
<time>2014-08-04T17:28:34Z</time></trkpt>
<trkpt lat="25.051526" lon="102.094413">
<time>2014-08-04T17:28:35Z</time></trkpt>
<trkpt lat="25.051686" lon="102.094273">
<time>2014-08-04T17:28:36Z</time></trkpt>
<trkpt lat="25.051816" lon="102.094173">
<time>2014-08-04T17:28:37Z</time></trkpt>
<trkpt lat="25.051946" lon="102.094063">
<time>2014-08-04T17:28:38Z</time></trkpt>
<trkpt lat="25.052126" lon="102.093943">
<time>2014-08-04T17:28:39Z</time></trkpt>
<trkpt lat="25.052376" lon="102.093773">
<time>2014-08-04T17:28:40Z</time></trkpt>
<trkpt lat="25.052706" lon="102.093573">
<time>2014-08-04T17:28:41Z</time></trkpt>
<trkpt lat="25.053316" lon="102.093213">
<time>2014-08-04T17:28:42Z</time></trkpt>
<trkpt lat="25.053696" lon="102.093003">
<time>2014-08-04T17:28:43Z</time></trkpt>
<trkpt lat="25.053936" lon="102.092823">
<time>2014-08-04T17:28:44Z</time></trkpt>
<trkpt lat="25.054246" lon="102.092593">
<time>2014-08-04T17:28:45Z</time></trkpt>
<trkpt lat="25.054576" lon="102.092333">
<time>2014-08-04T17:28:46Z</time></trkpt>
<trkpt lat="25.054776" lon="102.092143">
<time>2014-08-04T17:28:47Z</time></trkpt>
<trkpt lat="25.055536" lon="102.091413">
<time>2014-08-04T17:28:48Z</time></trkpt>
<trkpt lat="25.057726" lon="102.089273">
<time>2014-08-04T17:28:49Z</time></trkpt>
<trkpt lat="25.059737" lon="102.087283">
<time>2014-08-04T17:28:50Z</time></trkpt>
<trkpt lat="25.060647" lon="102.086403">
<time>2014-08-04T17:28:51Z</time></trkpt>
<trkpt lat="25.060867" lon="102.086203">
<time>2014-08-04T17:28:52Z</time></trkpt>
<trkpt lat="25.061067" lon="102.086043">
<time>2014-08-04T17:28:53Z</time></trkpt>
<trkpt lat="25.061237" lon="102.085923">
<time>2014-08-04T17:28:54Z</time></trkpt>
<trkpt lat="25.061407" lon="102.085813">
<time>2014-08-04T17:28:55Z</time></trkpt>
<trkpt lat="25.061577" lon="102.085723">
<time>2014-08-04T17:28:56Z</time></trkpt>
<trkpt lat="25.061747" lon="102.085663">
<time>2014-08-04T17:28:57Z</time></trkpt>
<trkpt lat="25.062007" lon="102.085583">
<time>2014-08-04T17:28:58Z</time></trkpt>
<trkpt lat="25.062137" lon="102.085563">
<time>2014-08-04T17:28:59Z</time></trkpt>
<trkpt lat="25.062297" lon="102.085523">
<time>2014-08-04T17:29:00Z</time></trkpt>
<trkpt lat="25.062527" lon="102.085493">
<time>2014-08-04T17:29:01Z</time></trkpt>
<trkpt lat="25.062677" lon="102.085493">
<time>2014-08-04T17:29:02Z</time></trkpt>
<trkpt lat="25.062977" lon="102.085493">
<time>2014-08-04T17:29:03Z</time></trkpt>
<trkpt lat="25.063197" lon="102.085503">
<time>2014-08-04T17:29:04Z</time></trkpt>
<trkpt lat="25.063727" lon="102.085533">
<time>2014-08-04T17:29:05Z</time></trkpt>
<trkpt lat="25.064717" lon="102.085593">
<time>2014-08-04T17:29:06Z</time></trkpt>
<trkpt lat="25.066817" lon="102.085733">
<time>2014-08-04T17:29:07Z</time></trkpt>
<trkpt lat="25.067727" lon="102.085783">
<time>2014-08-04T17:29:08Z</time></trkpt>
<trkpt lat="25.068267" lon="102.085803">
<time>2014-08-04T17:29:09Z</time></trkpt>
<trkpt lat="25.068537" lon="102.085773">
<time>2014-08-04T17:29:10Z</time></trkpt>
<trkpt lat="25.068807" lon="102.085723">
<time>2014-08-04T17:29:11Z</time></trkpt>
<trkpt lat="25.069087" lon="102.085633">
<time>2014-08-04T17:29:12Z</time></trkpt>
<trkpt lat="25.069257" lon="102.085573">
<time>2014-08-04T17:29:13Z</time></trkpt>
<trkpt lat="25.069477" lon="102.085463">
<time>2014-08-04T17:29:14Z</time></trkpt>
<trkpt lat="25.069637" lon="102.085373">
<time>2014-08-04T17:29:15Z</time></trkpt>
<trkpt lat="25.070127" lon="102.085073">
<time>2014-08-04T17:29:16Z</time></trkpt>
<trkpt lat="25.071477" lon="102.084143">
<time>2014-08-04T17:29:17Z</time></trkpt>
<trkpt lat="25.072587" lon="102.083393">
<time>2014-08-04T17:29:18Z</time></trkpt>
<trkpt lat="25.072778" lon="102.083263">
<time>2014-08-04T17:29:19Z</time></trkpt>
<trkpt lat="25.072988" lon="102.083133">
<time>2014-08-04T17:29:20Z</time></trkpt>
<trkpt lat="25.073178" lon="102.083023">
<time>2014-08-04T17:29:21Z</time></trkpt>
<trkpt lat="25.073318" lon="102.082943">
<time>2014-08-04T17:29:22Z</time></trkpt>
<trkpt lat="25.073628" lon="102.082774">
<time>2014-08-04T17:29:23Z</time></trkpt>
<trkpt lat="25.073908" lon="102.082644">
<time>2014-08-04T17:29:24Z</time></trkpt>
<trkpt lat="25.074098" lon="102.082564">
<time>2014-08-04T17:29:25Z</time></trkpt>
<trkpt lat="25.074528" lon="102.082404">
<time>2014-08-04T17:29:26Z</time></trkpt>
<trkpt lat="25.074828" lon="102.082304">
<time>2014-08-04T17:29:27Z</time></trkpt>
<trkpt lat="25.075108" lon="102.082224">
<time>2014-08-04T17:29:28Z</time></trkpt>
<trkpt lat="25.075378" lon="102.082164">
<time>2014-08-04T17:29:29Z</time></trkpt>
<trkpt lat="25.075598" lon="102.082134">
<time>2014-08-04T17:29:30Z</time></trkpt>
<trkpt lat="25.075858" lon="102.082094">
<time>2014-08-04T17:29:31Z</time></trkpt>
<trkpt lat="25.076218" lon="102.082034">
<time>2014-08-04T17:29:32Z</time></trkpt>
<trkpt lat="25.076508" lon="102.081994">
<time>2014-08-04T17:29:33Z</time></trkpt>
<trkpt lat="25.076808" lon="102.081954">
<time>2014-08-04T17:29:34Z</time></trkpt>
<trkpt lat="25.077338" lon="102.081864">
<time>2014-08-04T17:29:35Z</time></trkpt>
<trkpt lat="25.077598" lon="102.081814">
<time>2014-08-04T17:29:36Z</time></trkpt>
<trkpt lat="25.077788" lon="102.081774">
<time>2014-08-04T17:29:37Z</time></trkpt>
<trkpt lat="25.078008" lon="102.081714">
<time>2014-08-04T17:29:38Z</time></trkpt>
<trkpt lat="25.078338" lon="102.081614">
<time>2014-08-04T17:29:39Z</time></trkpt>
<trkpt lat="25.078528" lon="102.081544">
<time>2014-08-04T17:29:40Z</time></trkpt>
<trkpt lat="25.078708" lon="102.081484">
<time>2014-08-04T17:29:41Z</time></trkpt>
<trkpt lat="25.078958" lon="102.081394">
<time>2014-08-04T17:29:42Z</time></trkpt>
<trkpt lat="25.079348" lon="102.081234">
<time>2014-08-04T17:29:43Z</time></trkpt>
<trkpt lat="25.079738" lon="102.081044">
<time>2014-08-04T17:29:44Z</time></trkpt>
<trkpt lat="25.080458" lon="102.080684">
<time>2014-08-04T17:29:45Z</time></trkpt>
<trkpt lat="25.080969" lon="102.080444">
<time>2014-08-04T17:29:46Z</time></trkpt>
<trkpt lat="25.081459" lon="102.080224">
<time>2014-08-04T17:29:47Z</time></trkpt>
<trkpt lat="25.081769" lon="102.080124">
<time>2014-08-04T17:29:48Z</time></trkpt>
<trkpt lat="25.082089" lon="102.080034">
<time>2014-08-04T17:29:49Z</time></trkpt>
<trkpt lat="25.082479" lon="102.079925">
<time>2014-08-04T17:29:50Z</time></trkpt>
<trkpt lat="25.082969" lon="102.079835">
<time>2014-08-04T17:29:51Z</time></trkpt>
<trkpt lat="25.083349" lon="102.079795">
<time>2014-08-04T17:29:52Z</time></trkpt>
<trkpt lat="25.083569" lon="102.079765">
<time>2014-08-04T17:29:53Z</time></trkpt>
<trkpt lat="25.084089" lon="102.079755">
<time>2014-08-04T17:29:54Z</time></trkpt>
<trkpt lat="25.084649" lon="102.079755">
<time>2014-08-04T17:29:55Z</time></trkpt>
<trkpt lat="25.086978" lon="102.079754">
<time>2014-08-04T17:29:56Z</time></trkpt>
<trkpt lat="25.088578" lon="102.079734">
<time>2014-08-04T17:29:57Z</time></trkpt>
<trkpt lat="25.089748" lon="102.079694">
<time>2014-08-04T17:29:58Z</time></trkpt>
<trkpt lat="25.090288" lon="102.079634">
<time>2014-08-04T17:29:59Z</time></trkpt>
<trkpt lat="25.091108" lon="102.079534">
<time>2014-08-04T17:30:00Z</time></trkpt>
<trkpt lat="25.092098" lon="102.079385">
<time>2014-08-04T17:30:01Z</time></trkpt>
<trkpt lat="25.093968" lon="102.079115">
<time>2014-08-04T17:30:02Z</time></trkpt>
<trkpt lat="25.095298" lon="102.078915">
<time>2014-08-04T17:30:03Z</time></trkpt>
<trkpt lat="25.097228" lon="102.078655">
<time>2014-08-04T17:30:04Z</time></trkpt>
<trkpt lat="25.098408" lon="102.078495">
<time>2014-08-04T17:30:05Z</time></trkpt>
<trkpt lat="25.098948" lon="102.078455">
<time>2014-08-04T17:30:06Z</time></trkpt>
<trkpt lat="25.099428" lon="102.078425">
<time>2014-08-04T17:30:07Z</time></trkpt>
<trkpt lat="25.100398" lon="102.078435">
<time>2014-08-04T17:30:08Z</time></trkpt>
<trkpt lat="25.101368" lon="102.078475">
<time>2014-08-04T17:30:09Z</time></trkpt>
<trkpt lat="25.101888" lon="102.078455">
<time>2014-08-04T17:30:10Z</time></trkpt>
<trkpt lat="25.102198" lon="102.078435">
<time>2014-08-04T17:30:11Z</time></trkpt>
<trkpt lat="25.102468" lon="102.078365">
<time>2014-08-04T17:30:12Z</time></trkpt>
<trkpt lat="25.102768" lon="102.078265">
<time>2014-08-04T17:30:13Z</time></trkpt>
<trkpt lat="25.103028" lon="102.078135">
<time>2014-08-04T17:30:14Z</time></trkpt>
<trkpt lat="25.103228" lon="102.078015">
<time>2014-08-04T17:30:15Z</time></trkpt>
<trkpt lat="25.103579" lon="102.077775">
<time>2014-08-04T17:30:16Z</time></trkpt>
<trkpt lat="25.104079" lon="102.077435">
<time>2014-08-04T17:30:17Z</time></trkpt>
<trkpt lat="25.105339" lon="102.076576">
<time>2014-08-04T17:30:18Z</time></trkpt>
<trkpt lat="25.10588" lon="102.076206">
<time>2014-08-04T17:30:19Z</time></trkpt>
<trkpt lat="25.10635" lon="102.075926">
<time>2014-08-04T17:30:20Z</time></trkpt>
<trkpt lat="25.10673" lon="102.075746">
<time>2014-08-04T17:30:21Z</time></trkpt>
<trkpt lat="25.10708" lon="102.075616">
<time>2014-08-04T17:30:22Z</time></trkpt>
<trkpt lat="25.10739" lon="102.075546">
<time>2014-08-04T17:30:23Z</time></trkpt>
<trkpt lat="25.1077" lon="102.075496">
<time>2014-08-04T17:30:24Z</time></trkpt>
<trkpt lat="25.10805" lon="102.075466">
<time>2014-08-04T17:30:25Z</time></trkpt>
<trkpt lat="25.10841" lon="102.075446">
<time>2014-08-04T17:30:26Z</time></trkpt>
<trkpt lat="25.10898" lon="102.075446">
<time>2014-08-04T17:30:27Z</time></trkpt>
<trkpt lat="25.11098" lon="102.075416">
<time>2014-08-04T17:30:28Z</time></trkpt>
<trkpt lat="25.11139" lon="102.075416">
<time>2014-08-04T17:30:29Z</time></trkpt>
<trkpt lat="25.11159" lon="102.075396">
<time>2014-08-04T17:30:30Z</time></trkpt>
<trkpt lat="25.1118" lon="102.075386">
<time>2014-08-04T17:30:31Z</time></trkpt>
<trkpt lat="25.11199" lon="102.075346">
<time>2014-08-04T17:30:32Z</time></trkpt>
<trkpt lat="25.11219" lon="102.075306">
<time>2014-08-04T17:30:33Z</time></trkpt>
<trkpt lat="25.11237" lon="102.075257">
<time>2014-08-04T17:30:34Z</time></trkpt>
<trkpt lat="25.11252" lon="102.075207">
<time>2014-08-04T17:30:35Z</time></trkpt>
<trkpt lat="25.11266" lon="102.075147">
<time>2014-08-04T17:30:36Z</time></trkpt>
<trkpt lat="25.11279" lon="102.075087">
<time>2014-08-04T17:30:37Z</time></trkpt>
<trkpt lat="25.11288" lon="102.075047">
<time>2014-08-04T17:30:38Z</time></trkpt>
<trkpt lat="25.11296" lon="102.075007">
<time>2014-08-04T17:30:39Z</time></trkpt>
<trkpt lat="25.11304" lon="102.074967">
<time>2014-08-04T17:30:40Z</time></trkpt>
<trkpt lat="25.1131" lon="102.074927">
<time>2014-08-04T17:30:41Z</time></trkpt>
<trkpt lat="25.11326" lon="102.074797">
<time>2014-08-04T17:30:42Z</time></trkpt>
<trkpt lat="25.11326" lon="102.074797">
<time>2014-08-04T17:30:43Z</time></trkpt>
<trkpt lat="25.11344" lon="102.074707">
<time>2014-08-04T17:30:44Z</time></trkpt>
<trkpt lat="25.113551" lon="102.074617">
<time>2014-08-04T17:30:45Z</time></trkpt>
<trkpt lat="25.113671" lon="102.074527">
<time>2014-08-04T17:30:46Z</time></trkpt>
<trkpt lat="25.113761" lon="102.074447">
<time>2014-08-04T17:30:47Z</time></trkpt>
<trkpt lat="25.113861" lon="102.074367">
<time>2014-08-04T17:30:48Z</time></trkpt>
<trkpt lat="25.113991" lon="102.074227">
<time>2014-08-04T17:30:49Z</time></trkpt>
<trkpt lat="25.114101" lon="102.074097">
<time>2014-08-04T17:30:50Z</time></trkpt>
<trkpt lat="25.114201" lon="102.073967">
<time>2014-08-04T17:30:51Z</time></trkpt>
<trkpt lat="25.114401" lon="102.073698">
<time>2014-08-04T17:30:52Z</time></trkpt>
<trkpt lat="25.114842" lon="102.073018">
<time>2014-08-04T17:30:53Z</time></trkpt>
<trkpt lat="25.115443" lon="102.071939">
<time>2014-08-04T17:30:54Z</time></trkpt>
<trkpt lat="25.116986" lon="102.069272">
<time>2014-08-04T17:30:55Z</time></trkpt>
<trkpt lat="25.117958" lon="102.067573">
<time>2014-08-04T17:30:56Z</time></trkpt>
<trkpt lat="25.118519" lon="102.066615">
<time>2014-08-04T17:30:57Z</time></trkpt>
<trkpt lat="25.11891" lon="102.066065">
<time>2014-08-04T17:30:58Z</time></trkpt>
<trkpt lat="25.119341" lon="102.065606">
<time>2014-08-04T17:30:59Z</time></trkpt>
<trkpt lat="25.119661" lon="102.065326">
<time>2014-08-04T17:31:00Z</time></trkpt>
<trkpt lat="25.119731" lon="102.065266">
<time>2014-08-04T17:31:01Z</time></trkpt>
<trkpt lat="25.120152" lon="102.064936">
<time>2014-08-04T17:31:02Z</time></trkpt>
<trkpt lat="25.120512" lon="102.064717">
<time>2014-08-04T17:31:03Z</time></trkpt>
<trkpt lat="25.121002" lon="102.064467">
<time>2014-08-04T17:31:04Z</time></trkpt>
<trkpt lat="25.121602" lon="102.064277">
<time>2014-08-04T17:31:05Z</time></trkpt>
<trkpt lat="25.121772" lon="102.064237">
<time>2014-08-04T17:31:06Z</time></trkpt>
<trkpt lat="25.122022" lon="102.064187">
<time>2014-08-04T17:31:07Z</time></trkpt>
<trkpt lat="25.122173" lon="102.064157">
<time>2014-08-04T17:31:08Z</time></trkpt>
<trkpt lat="25.122313" lon="102.064137">
<time>2014-08-04T17:31:09Z</time></trkpt>
<trkpt lat="25.122633" lon="102.064117">
<time>2014-08-04T17:31:10Z</time></trkpt>
<trkpt lat="25.123083" lon="102.064107">
<time>2014-08-04T17:31:11Z</time></trkpt>
<trkpt lat="25.124882" lon="102.064117">
<time>2014-08-04T17:31:12Z</time></trkpt>
<trkpt lat="25.125752" lon="102.064127">
<time>2014-08-04T17:31:13Z</time></trkpt>
<trkpt lat="25.129302" lon="102.064147">
<time>2014-08-04T17:31:14Z</time></trkpt>
<trkpt lat="25.131402" lon="102.064167">
<time>2014-08-04T17:31:15Z</time></trkpt>
<trkpt lat="25.131432" lon="102.064167">
<time>2014-08-04T17:31:16Z</time></trkpt>
<trkpt lat="25.135092" lon="102.064207">
<time>2014-08-04T17:31:17Z</time></trkpt>
<trkpt lat="25.137441" lon="102.064217">
<time>2014-08-04T17:31:18Z</time></trkpt>
<trkpt lat="25.137441" lon="102.064217">
<time>2014-08-04T17:31:19Z</time></trkpt>
<trkpt lat="25.137441" lon="102.064157">
<time>2014-08-04T17:31:20Z</time></trkpt>
<trkpt lat="25.137441" lon="102.064157">
<time>2014-08-04T17:31:21Z</time></trkpt>
<trkpt lat="25.137491" lon="102.064157">
<time>2014-08-04T17:31:22Z</time></trkpt>
<trkpt lat="25.139781" lon="102.064177">
<time>2014-08-04T17:31:23Z</time></trkpt>
<trkpt lat="25.140741" lon="102.064187">
<time>2014-08-04T17:31:24Z</time></trkpt>
<trkpt lat="25.142461" lon="102.064207">
<time>2014-08-04T17:31:25Z</time></trkpt>
<trkpt lat="25.142641" lon="102.064207">
<time>2014-08-04T17:31:26Z</time></trkpt>
<trkpt lat="25.145771" lon="102.064207">
<time>2014-08-04T17:31:27Z</time></trkpt>
<trkpt lat="25.146371" lon="102.064237">
<time>2014-08-04T17:31:28Z</time></trkpt>
<trkpt lat="25.146421" lon="102.064207">
<time>2014-08-04T17:31:29Z</time></trkpt>
<trkpt lat="25.146471" lon="102.064167">
<time>2014-08-04T17:31:30Z</time></trkpt>
<trkpt lat="25.146531" lon="102.064137">
<time>2014-08-04T17:31:31Z</time></trkpt>
<trkpt lat="25.146581" lon="102.064097">
<time>2014-08-04T17:31:32Z</time></trkpt>
<trkpt lat="25.146631" lon="102.064067">
<time>2014-08-04T17:31:33Z</time></trkpt>
<trkpt lat="25.146631" lon="102.064067">
<time>2014-08-04T17:31:34Z</time></trkpt>
<trkpt lat="25.146651" lon="102.064047">
<time>2014-08-04T17:31:35Z</time></trkpt>
<trkpt lat="25.146671" lon="102.064027">
<time>2014-08-04T17:31:36Z</time></trkpt>
<trkpt lat="25.146701" lon="102.064017">
<time>2014-08-04T17:31:37Z</time></trkpt>
<trkpt lat="25.146721" lon="102.063997">
<time>2014-08-04T17:31:38Z</time></trkpt>
<trkpt lat="25.146741" lon="102.063997">
<time>2014-08-04T17:31:39Z</time></trkpt>
<trkpt lat="25.146761" lon="102.063987">
<time>2014-08-04T17:31:40Z</time></trkpt>
<trkpt lat="25.146781" lon="102.063987">
<time>2014-08-04T17:31:41Z</time></trkpt>
<trkpt lat="25.146801" lon="102.063987">
<time>2014-08-04T17:31:42Z</time></trkpt>
<trkpt lat="25.146821" lon="102.063987">
<time>2014-08-04T17:31:43Z</time></trkpt>
<trkpt lat="25.146841" lon="102.063997">
<time>2014-08-04T17:31:44Z</time></trkpt>
<trkpt lat="25.146982" lon="102.063118">
<time>2014-08-04T17:31:45Z</time></trkpt>
<trkpt lat="25.147154" lon="102.06195">
<time>2014-08-04T17:31:46Z</time></trkpt>
<trkpt lat="25.147204" lon="102.06167">
<time>2014-08-04T17:31:47Z</time></trkpt>
<trkpt lat="25.147275" lon="102.06139">
<time>2014-08-04T17:31:48Z</time></trkpt>
<trkpt lat="25.147355" lon="102.061141">
<time>2014-08-04T17:31:49Z</time></trkpt>
<trkpt lat="25.147406" lon="102.061001">
<time>2014-08-04T17:31:50Z</time></trkpt>
<trkpt lat="25.147496" lon="102.060791">
<time>2014-08-04T17:31:51Z</time></trkpt>
<trkpt lat="25.147727" lon="102.060332">
<time>2014-08-04T17:31:52Z</time></trkpt>
<trkpt lat="25.147917" lon="102.059962">
<time>2014-08-04T17:31:53Z</time></trkpt>
<trkpt lat="25.148017" lon="102.059763">
<time>2014-08-04T17:31:54Z</time></trkpt>
<trkpt lat="25.148088" lon="102.059593">
<time>2014-08-04T17:31:55Z</time></trkpt>
<trkpt lat="25.148278" lon="102.059223">
<time>2014-08-04T17:31:56Z</time></trkpt>
<trkpt lat="25.148309" lon="102.058924">
<time>2014-08-04T17:31:57Z</time></trkpt>
<trkpt lat="25.148179" lon="102.058674">
<time>2014-08-04T17:31:58Z</time></trkpt>
<trkpt lat="25.1481" lon="102.058485">
<time>2014-08-04T17:31:59Z</time></trkpt>
<trkpt lat="25.14806" lon="102.058385">
<time>2014-08-04T17:32:00Z</time></trkpt>
<trkpt lat="25.14804" lon="102.058315">
<time>2014-08-04T17:32:01Z</time></trkpt>
<trkpt lat="25.14802" lon="102.058265">
<time>2014-08-04T17:32:02Z</time></trkpt>
<trkpt lat="25.148" lon="102.058155">
<time>2014-08-04T17:32:03Z</time></trkpt>
<trkpt lat="25.14797" lon="102.058015">
<time>2014-08-04T17:32:04Z</time></trkpt>
<trkpt lat="25.147911" lon="102.057626">
<time>2014-08-04T17:32:05Z</time></trkpt>
<trkpt lat="25.147911" lon="102.057626">
<time>2014-08-04T17:32:06Z</time></trkpt>
<trkpt lat="25.147923" lon="102.056378">
<time>2014-08-04T17:32:07Z</time></trkpt>
<trkpt lat="25.147914" lon="102.055909">
<time>2014-08-04T17:32:08Z</time></trkpt>
<trkpt lat="25.147895" lon="102.05535">
<time>2014-08-04T17:32:09Z</time></trkpt>
<trkpt lat="25.147886" lon="102.05507">
<time>2014-08-04T17:32:10Z</time></trkpt>
<trkpt lat="25.147866" lon="102.05487">
<time>2014-08-04T17:32:11Z</time></trkpt>
<trkpt lat="25.147816" lon="102.054661">
<time>2014-08-04T17:32:12Z</time></trkpt>
<trkpt lat="25.147777" lon="102.054471">
<time>2014-08-04T17:32:13Z</time></trkpt>
<trkpt lat="25.147707" lon="102.054231">
<time>2014-08-04T17:32:14Z</time></trkpt>
<trkpt lat="25.147588" lon="102.053762">
<time>2014-08-04T17:32:15Z</time></trkpt>
<trkpt lat="25.147558" lon="102.053612">
<time>2014-08-04T17:32:16Z</time></trkpt>
<trkpt lat="25.147529" lon="102.053453">
<time>2014-08-04T17:32:17Z</time></trkpt>
<trkpt lat="25.147509" lon="102.053273">
<time>2014-08-04T17:32:18Z</time></trkpt>
<trkpt lat="25.147499" lon="102.053053">
<time>2014-08-04T17:32:19Z</time></trkpt>
<trkpt lat="25.14749" lon="102.052744">
<time>2014-08-04T17:32:20Z</time></trkpt>
<trkpt lat="25.14749" lon="102.052634">
<time>2014-08-04T17:32:21Z</time></trkpt>
<trkpt lat="25.1475" lon="102.052564">
<time>2014-08-04T17:32:22Z</time></trkpt>
<trkpt lat="25.14751" lon="102.052474">
<time>2014-08-04T17:32:23Z</time></trkpt>
<trkpt lat="25.147521" lon="102.052395">
<time>2014-08-04T17:32:24Z</time></trkpt>
<trkpt lat="25.147541" lon="102.052245">
<time>2014-08-04T17:32:25Z</time></trkpt>
<trkpt lat="25.147561" lon="102.052095">
<time>2014-08-04T17:32:26Z</time></trkpt>
<trkpt lat="25.147632" lon="102.051806">
<time>2014-08-04T17:32:27Z</time></trkpt>
<trkpt lat="25.147722" lon="102.051386">
<time>2014-08-04T17:32:28Z</time></trkpt>
<trkpt lat="25.147733" lon="102.051327">
<time>2014-08-04T17:32:29Z</time></trkpt>
<trkpt lat="25.147763" lon="102.051197">
<time>2014-08-04T17:32:30Z</time></trkpt>
<trkpt lat="25.147783" lon="102.051007">
<time>2014-08-04T17:32:31Z</time></trkpt>
<trkpt lat="25.147783" lon="102.050887">
<time>2014-08-04T17:32:32Z</time></trkpt>
<trkpt lat="25.147784" lon="102.050788">
<time>2014-08-04T17:32:33Z</time></trkpt>
<trkpt lat="25.147774" lon="102.050678">
<time>2014-08-04T17:32:34Z</time></trkpt>
<trkpt lat="25.147754" lon="102.050578">
<time>2014-08-04T17:32:35Z</time></trkpt>
<trkpt lat="25.147724" lon="102.050438">
<time>2014-08-04T17:32:36Z</time></trkpt>
<trkpt lat="25.147685" lon="102.050288">
<time>2014-08-04T17:32:37Z</time></trkpt>
<trkpt lat="25.147625" lon="102.050129">
<time>2014-08-04T17:32:38Z</time></trkpt>
<trkpt lat="25.147555" lon="102.049979">
<time>2014-08-04T17:32:39Z</time></trkpt>
<trkpt lat="25.147495" lon="102.049889">
<time>2014-08-04T17:32:40Z</time></trkpt>
<trkpt lat="25.147426" lon="102.049789">
<time>2014-08-04T17:32:41Z</time></trkpt>
<trkpt lat="25.147336" lon="102.04969">
<time>2014-08-04T17:32:42Z</time></trkpt>
<trkpt lat="25.147266" lon="102.04962">
<time>2014-08-04T17:32:43Z</time></trkpt>
<trkpt lat="25.147196" lon="102.04956">
<time>2014-08-04T17:32:44Z</time></trkpt>
<trkpt lat="25.147096" lon="102.04947">
<time>2014-08-04T17:32:45Z</time></trkpt>
<trkpt lat="25.147016" lon="102.04941">
<time>2014-08-04T17:32:46Z</time></trkpt>
<trkpt lat="25.146857" lon="102.04933">
<time>2014-08-04T17:32:47Z</time></trkpt>
<trkpt lat="25.146307" lon="102.049091">
<time>2014-08-04T17:32:48Z</time></trkpt>
<trkpt lat="25.146177" lon="102.049031">
<time>2014-08-04T17:32:49Z</time></trkpt>
<trkpt lat="25.146087" lon="102.048981">
<time>2014-08-04T17:32:50Z</time></trkpt>
<trkpt lat="25.145968" lon="102.048911">
<time>2014-08-04T17:32:51Z</time></trkpt>
<trkpt lat="25.145868" lon="102.048831">
<time>2014-08-04T17:32:52Z</time></trkpt>
<trkpt lat="25.145788" lon="102.048761">
<time>2014-08-04T17:32:53Z</time></trkpt>
<trkpt lat="25.145708" lon="102.048682">
<time>2014-08-04T17:32:54Z</time></trkpt>
<trkpt lat="25.145608" lon="102.048572">
<time>2014-08-04T17:32:55Z</time></trkpt>
<trkpt lat="25.145558" lon="102.048492">
<time>2014-08-04T17:32:56Z</time></trkpt>
<trkpt lat="25.145489" lon="102.048372">
<time>2014-08-04T17:32:57Z</time></trkpt>
<trkpt lat="25.145429" lon="102.048232">
<time>2014-08-04T17:32:58Z</time></trkpt>
<trkpt lat="25.145379" lon="102.048063">
<time>2014-08-04T17:32:59Z</time></trkpt>
<trkpt lat="25.14529" lon="102.047773">
<time>2014-08-04T17:33:00Z</time></trkpt>
<trkpt lat="25.145121" lon="102.047115">
<time>2014-08-04T17:33:01Z</time></trkpt>
<trkpt lat="25.145052" lon="102.046915">
<time>2014-08-04T17:33:02Z</time></trkpt>
<trkpt lat="25.145002" lon="102.046795">
<time>2014-08-04T17:33:03Z</time></trkpt>
<trkpt lat="25.144903" lon="102.046546">
<time>2014-08-04T17:33:04Z</time></trkpt>
<trkpt lat="25.144793" lon="102.046276">
<time>2014-08-04T17:33:05Z</time></trkpt>
<trkpt lat="25.144704" lon="102.046017">
<time>2014-08-04T17:33:06Z</time></trkpt>
<trkpt lat="25.144634" lon="102.045757">
<time>2014-08-04T17:33:07Z</time></trkpt>
<trkpt lat="25.144545" lon="102.045368">
<time>2014-08-04T17:33:08Z</time></trkpt>
<trkpt lat="25.144516" lon="102.045179">
<time>2014-08-04T17:33:09Z</time></trkpt>
<trkpt lat="25.144496" lon="102.045069">
<time>2014-08-04T17:33:10Z</time></trkpt>
<trkpt lat="25.144486" lon="102.044959">
<time>2014-08-04T17:33:11Z</time></trkpt>
<trkpt lat="25.144476" lon="102.044839">
<time>2014-08-04T17:33:12Z</time></trkpt>
<trkpt lat="25.144467" lon="102.04457">
<time>2014-08-04T17:33:13Z</time></trkpt>
<trkpt lat="25.144449" lon="102.043602">
<time>2014-08-04T17:33:14Z</time></trkpt>
<trkpt lat="25.14445" lon="102.043143">
<time>2014-08-04T17:33:15Z</time></trkpt>
<trkpt lat="25.14445" lon="102.043033">
<time>2014-08-04T17:33:16Z</time></trkpt>
<trkpt lat="25.14446" lon="102.042953">
<time>2014-08-04T17:33:17Z</time></trkpt>
<trkpt lat="25.144471" lon="102.042884">
<time>2014-08-04T17:33:18Z</time></trkpt>
<trkpt lat="25.144491" lon="102.042764">
<time>2014-08-04T17:33:19Z</time></trkpt>
<trkpt lat="25.144521" lon="102.042624">
<time>2014-08-04T17:33:20Z</time></trkpt>
<trkpt lat="25.144582" lon="102.042415">
<time>2014-08-04T17:33:21Z</time></trkpt>
<trkpt lat="25.144753" lon="102.041896">
<time>2014-08-04T17:33:22Z</time></trkpt>
<trkpt lat="25.144803" lon="102.041676">
<time>2014-08-04T17:33:23Z</time></trkpt>
<trkpt lat="25.144834" lon="102.041517">
<time>2014-08-04T17:33:24Z</time></trkpt>
<trkpt lat="25.144834" lon="102.041437">
<time>2014-08-04T17:33:25Z</time></trkpt>
<trkpt lat="25.144834" lon="102.041287">
<time>2014-08-04T17:33:26Z</time></trkpt>
<trkpt lat="25.144846" lon="102.040708">
<time>2014-08-04T17:33:27Z</time></trkpt>
<trkpt lat="25.144866" lon="102.040509">
<time>2014-08-04T17:33:28Z</time></trkpt>
<trkpt lat="25.144886" lon="102.040319">
<time>2014-08-04T17:33:29Z</time></trkpt>
<trkpt lat="25.144927" lon="102.04012">
<time>2014-08-04T17:33:30Z</time></trkpt>
<trkpt lat="25.145089" lon="102.039381">
<time>2014-08-04T17:33:31Z</time></trkpt>
<trkpt lat="25.145119" lon="102.039202">
<time>2014-08-04T17:33:32Z</time></trkpt>
<trkpt lat="25.14515" lon="102.038962">
<time>2014-08-04T17:33:33Z</time></trkpt>
<trkpt lat="25.14516" lon="102.038902">
<time>2014-08-04T17:33:34Z</time></trkpt>
<trkpt lat="25.14516" lon="102.038813">
<time>2014-08-04T17:33:35Z</time></trkpt>
<trkpt lat="25.14517" lon="102.038643">
<time>2014-08-04T17:33:36Z</time></trkpt>
<trkpt lat="25.145171" lon="102.038324">
<time>2014-08-04T17:33:37Z</time></trkpt>
<trkpt lat="25.145182" lon="102.037994">
<time>2014-08-04T17:33:38Z</time></trkpt>
<trkpt lat="25.145182" lon="102.037835">
<time>2014-08-04T17:33:39Z</time></trkpt>
<trkpt lat="25.145193" lon="102.037725">
<time>2014-08-04T17:33:40Z</time></trkpt>
<trkpt lat="25.145213" lon="102.037585">
<time>2014-08-04T17:33:41Z</time></trkpt>
<trkpt lat="25.145243" lon="102.037446">
<time>2014-08-04T17:33:42Z</time></trkpt>
<trkpt lat="25.145264" lon="102.037356">
<time>2014-08-04T17:33:43Z</time></trkpt>
<trkpt lat="25.145284" lon="102.037276">
<time>2014-08-04T17:33:44Z</time></trkpt>
<trkpt lat="25.145324" lon="102.037136">
<time>2014-08-04T17:33:45Z</time></trkpt>
<trkpt lat="25.145364" lon="102.036977">
<time>2014-08-04T17:33:46Z</time></trkpt>
<trkpt lat="25.145516" lon="102.036478">
<time>2014-08-04T17:33:47Z</time></trkpt>
<trkpt lat="25.145586" lon="102.036239">
<time>2014-08-04T17:33:48Z</time></trkpt>
<trkpt lat="25.145637" lon="102.035989">
<time>2014-08-04T17:33:49Z</time></trkpt>
<trkpt lat="25.145657" lon="102.03584">
<time>2014-08-04T17:33:50Z</time></trkpt>
<trkpt lat="25.145678" lon="102.0357">
<time>2014-08-04T17:33:51Z</time></trkpt>
<trkpt lat="25.145688" lon="102.03555">
<time>2014-08-04T17:33:52Z</time></trkpt>
<trkpt lat="25.145698" lon="102.035361">
<time>2014-08-04T17:33:53Z</time></trkpt>
<trkpt lat="25.145699" lon="102.035181">
<time>2014-08-04T17:33:54Z</time></trkpt>
<trkpt lat="25.145699" lon="102.034982">
<time>2014-08-04T17:33:55Z</time></trkpt>
<trkpt lat="25.14568" lon="102.034762">
<time>2014-08-04T17:33:56Z</time></trkpt>
<trkpt lat="25.14567" lon="102.034563">
<time>2014-08-04T17:33:57Z</time></trkpt>
<trkpt lat="25.145661" lon="102.034373">
<time>2014-08-04T17:33:58Z</time></trkpt>
<trkpt lat="25.145651" lon="102.034214">
<time>2014-08-04T17:33:59Z</time></trkpt>
<trkpt lat="25.145652" lon="102.034114">
<time>2014-08-04T17:34:00Z</time></trkpt>
<trkpt lat="25.145662" lon="102.033914">
<time>2014-08-04T17:34:01Z</time></trkpt>
<trkpt lat="25.145672" lon="102.033785">
<time>2014-08-04T17:34:02Z</time></trkpt>
<trkpt lat="25.145693" lon="102.033695">
<time>2014-08-04T17:34:03Z</time></trkpt>
<trkpt lat="25.145723" lon="102.033595">
<time>2014-08-04T17:34:04Z</time></trkpt>
<trkpt lat="25.145763" lon="102.033535">
<time>2014-08-04T17:34:05Z</time></trkpt>
<trkpt lat="25.145783" lon="102.033465">
<time>2014-08-04T17:34:06Z</time></trkpt>
<trkpt lat="25.145853" lon="102.033376">
<time>2014-08-04T17:34:07Z</time></trkpt>
<trkpt lat="25.145904" lon="102.033306">
<time>2014-08-04T17:34:08Z</time></trkpt>
<trkpt lat="25.145994" lon="102.033226">
<time>2014-08-04T17:34:09Z</time></trkpt>
<trkpt lat="25.146114" lon="102.033116">
<time>2014-08-04T17:34:10Z</time></trkpt>
<trkpt lat="25.146294" lon="102.032977">
<time>2014-08-04T17:34:11Z</time></trkpt>
<trkpt lat="25.146765" lon="102.032588">
<time>2014-08-04T17:34:12Z</time></trkpt>
<trkpt lat="25.146916" lon="102.032478">
<time>2014-08-04T17:34:13Z</time></trkpt>
<trkpt lat="25.147006" lon="102.032428">
<time>2014-08-04T17:34:14Z</time></trkpt>
<trkpt lat="25.147076" lon="102.032398">
<time>2014-08-04T17:34:15Z</time></trkpt>
<trkpt lat="25.147176" lon="102.032358">
<time>2014-08-04T17:34:16Z</time></trkpt>
<trkpt lat="25.147326" lon="102.032318">
<time>2014-08-04T17:34:17Z</time></trkpt>
<trkpt lat="25.147456" lon="102.032298">
<time>2014-08-04T17:34:18Z</time></trkpt>
<trkpt lat="25.147656" lon="102.032278">
<time>2014-08-04T17:34:19Z</time></trkpt>
<trkpt lat="25.147946" lon="102.032248">
<time>2014-08-04T17:34:20Z</time></trkpt>
<trkpt lat="25.148206" lon="102.032198">
<time>2014-08-04T17:34:21Z</time></trkpt>
<trkpt lat="25.148376" lon="102.032159">
<time>2014-08-04T17:34:22Z</time></trkpt>
<trkpt lat="25.148466" lon="102.032139">
<time>2014-08-04T17:34:23Z</time></trkpt>
<trkpt lat="25.148537" lon="102.032109">
<time>2014-08-04T17:34:24Z</time></trkpt>
<trkpt lat="25.148687" lon="102.032039">
<time>2014-08-04T17:34:25Z</time></trkpt>
<trkpt lat="25.148737" lon="102.031999">
<time>2014-08-04T17:34:26Z</time></trkpt>
<trkpt lat="25.148817" lon="102.031949">
<time>2014-08-04T17:34:27Z</time></trkpt>
<trkpt lat="25.148877" lon="102.031889">
<time>2014-08-04T17:34:28Z</time></trkpt>
<trkpt lat="25.148967" lon="102.031799">
<time>2014-08-04T17:34:29Z</time></trkpt>
<trkpt lat="25.149017" lon="102.03174">
<time>2014-08-04T17:34:30Z</time></trkpt>
<trkpt lat="25.149088" lon="102.03163">
<time>2014-08-04T17:34:31Z</time></trkpt>
<trkpt lat="25.149188" lon="102.03146">
<time>2014-08-04T17:34:32Z</time></trkpt>
<trkpt lat="25.149349" lon="102.031151">
<time>2014-08-04T17:34:33Z</time></trkpt>
<trkpt lat="25.149761" lon="102.030423">
<time>2014-08-04T17:34:34Z</time></trkpt>
<trkpt lat="25.149831" lon="102.030293">
<time>2014-08-04T17:34:35Z</time></trkpt>
<trkpt lat="25.149911" lon="102.030193">
<time>2014-08-04T17:34:36Z</time></trkpt>
<trkpt lat="25.150012" lon="102.030084">
<time>2014-08-04T17:34:37Z</time></trkpt>
<trkpt lat="25.150102" lon="102.030014">
<time>2014-08-04T17:34:38Z</time></trkpt>
<trkpt lat="25.150192" lon="102.029954">
<time>2014-08-04T17:34:39Z</time></trkpt>
<trkpt lat="25.150272" lon="102.029914">
<time>2014-08-04T17:34:40Z</time></trkpt>
<trkpt lat="25.150382" lon="102.029864">
<time>2014-08-04T17:34:41Z</time></trkpt>
<trkpt lat="25.150462" lon="102.029854">
<time>2014-08-04T17:34:42Z</time></trkpt>
<trkpt lat="25.150552" lon="102.029834">
<time>2014-08-04T17:34:43Z</time></trkpt>
<trkpt lat="25.150642" lon="102.029834">
<time>2014-08-04T17:34:44Z</time></trkpt>
<trkpt lat="25.150732" lon="102.029834">
<time>2014-08-04T17:34:45Z</time></trkpt>
<trkpt lat="25.150842" lon="102.029844">
<time>2014-08-04T17:34:46Z</time></trkpt>
<trkpt lat="25.150922" lon="102.029864">
<time>2014-08-04T17:34:47Z</time></trkpt>
<trkpt lat="25.151122" lon="102.029914">
<time>2014-08-04T17:34:48Z</time></trkpt>
<trkpt lat="25.151802" lon="102.030094">
<time>2014-08-04T17:34:49Z</time></trkpt>
<trkpt lat="25.151921" lon="102.030124">
<time>2014-08-04T17:34:50Z</time></trkpt>
<trkpt lat="25.152101" lon="102.030154">
<time>2014-08-04T17:34:51Z</time></trkpt>
<trkpt lat="25.152211" lon="102.030173">
<time>2014-08-04T17:34:52Z</time></trkpt>
<trkpt lat="25.152291" lon="102.030173">
<time>2014-08-04T17:34:53Z</time></trkpt>
<trkpt lat="25.152361" lon="102.030173">
<time>2014-08-04T17:34:54Z</time></trkpt>
<trkpt lat="25.152431" lon="102.030163">
<time>2014-08-04T17:34:55Z</time></trkpt>
<trkpt lat="25.152551" lon="102.030144">
<time>2014-08-04T17:34:56Z</time></trkpt>
<trkpt lat="25.152621" lon="102.030114">
<time>2014-08-04T17:34:57Z</time></trkpt>
<trkpt lat="25.152671" lon="102.030104">
<time>2014-08-04T17:34:58Z</time></trkpt>
<trkpt lat="25.152762" lon="102.030064">
<time>2014-08-04T17:34:59Z</time></trkpt>
<trkpt lat="25.152842" lon="102.030024">
<time>2014-08-04T17:35:00Z</time></trkpt>
<trkpt lat="25.152912" lon="102.029974">
<time>2014-08-04T17:35:01Z</time></trkpt>
<trkpt lat="25.153012" lon="102.029904">
<time>2014-08-04T17:35:02Z</time></trkpt>
<trkpt lat="25.153072" lon="102.029844">
<time>2014-08-04T17:35:03Z</time></trkpt>
<trkpt lat="25.153172" lon="102.029745">
<time>2014-08-04T17:35:04Z</time></trkpt>
<trkpt lat="25.153313" lon="102.029575">
<time>2014-08-04T17:35:05Z</time></trkpt>
<trkpt lat="25.153383" lon="102.029495">
<time>2014-08-04T17:35:06Z</time></trkpt>
<trkpt lat="25.153443" lon="102.029395">
<time>2014-08-04T17:35:07Z</time></trkpt>
<trkpt lat="25.153494" lon="102.029296">
<time>2014-08-04T17:35:08Z</time></trkpt>
<trkpt lat="25.153534" lon="102.029226">
<time>2014-08-04T17:35:09Z</time></trkpt>
<trkpt lat="25.153574" lon="102.029136">
<time>2014-08-04T17:35:10Z</time></trkpt>
<trkpt lat="25.153614" lon="102.029016">
<time>2014-08-04T17:35:11Z</time></trkpt>
<trkpt lat="25.153665" lon="102.028847">
<time>2014-08-04T17:35:12Z</time></trkpt>
<trkpt lat="25.153695" lon="102.028737">
<time>2014-08-04T17:35:13Z</time></trkpt>
<trkpt lat="25.153756" lon="102.028448">
<time>2014-08-04T17:35:14Z</time></trkpt>
<trkpt lat="25.153796" lon="102.028318">
<time>2014-08-04T17:35:15Z</time></trkpt>
<trkpt lat="25.153836" lon="102.028199">
<time>2014-08-04T17:35:16Z</time></trkpt>
<trkpt lat="25.153877" lon="102.028089">
<time>2014-08-04T17:35:17Z</time></trkpt>
<trkpt lat="25.153927" lon="102.028009">
<time>2014-08-04T17:35:18Z</time></trkpt>
<trkpt lat="25.153987" lon="102.027919">
<time>2014-08-04T17:35:19Z</time></trkpt>
<trkpt lat="25.154068" lon="102.02781">
<time>2014-08-04T17:35:20Z</time></trkpt>
<trkpt lat="25.154208" lon="102.02766">
<time>2014-08-04T17:35:21Z</time></trkpt>
<trkpt lat="25.154358" lon="102.02752">
<time>2014-08-04T17:35:22Z</time></trkpt>
<trkpt lat="25.154509" lon="102.027381">
<time>2014-08-04T17:35:23Z</time></trkpt>
<trkpt lat="25.154739" lon="102.027241">
<time>2014-08-04T17:35:24Z</time></trkpt>
<trkpt lat="25.155069" lon="102.027061">
<time>2014-08-04T17:35:25Z</time></trkpt>
<trkpt lat="25.15524" lon="102.026972">
<time>2014-08-04T17:35:26Z</time></trkpt>
<trkpt lat="25.15552" lon="102.026792">
<time>2014-08-04T17:35:27Z</time></trkpt>
<trkpt lat="25.155701" lon="102.026643">
<time>2014-08-04T17:35:28Z</time></trkpt>
<trkpt lat="25.155861" lon="102.026483">
<time>2014-08-04T17:35:29Z</time></trkpt>
<trkpt lat="25.156022" lon="102.026284">
<time>2014-08-04T17:35:30Z</time></trkpt>
<trkpt lat="25.156122" lon="102.026144">
<time>2014-08-04T17:35:31Z</time></trkpt>
<trkpt lat="25.156273" lon="102.025905">
<time>2014-08-04T17:35:32Z</time></trkpt>
<trkpt lat="25.156464" lon="102.025555">
<time>2014-08-04T17:35:33Z</time></trkpt>
<trkpt lat="25.156584" lon="102.025296">
<time>2014-08-04T17:35:34Z</time></trkpt>
<trkpt lat="25.156755" lon="102.024877">
<time>2014-08-04T17:35:35Z</time></trkpt>
<trkpt lat="25.156917" lon="102.024448">
<time>2014-08-04T17:35:36Z</time></trkpt>
<trkpt lat="25.157017" lon="102.024119">
<time>2014-08-04T17:35:37Z</time></trkpt>
<trkpt lat="25.15727" lon="102.023292">
<time>2014-08-04T17:35:38Z</time></trkpt>
<trkpt lat="25.157472" lon="102.022574">
<time>2014-08-04T17:35:39Z</time></trkpt>
<trkpt lat="25.157583" lon="102.022155">
<time>2014-08-04T17:35:40Z</time></trkpt>
<trkpt lat="25.157684" lon="102.021915">
<time>2014-08-04T17:35:41Z</time></trkpt>
<trkpt lat="25.157724" lon="102.021826">
<time>2014-08-04T17:35:42Z</time></trkpt>
<trkpt lat="25.157774" lon="102.021736">
<time>2014-08-04T17:35:43Z</time></trkpt>
<trkpt lat="25.157824" lon="102.021676">
<time>2014-08-04T17:35:44Z</time></trkpt>
<trkpt lat="25.157864" lon="102.021626">
<time>2014-08-04T17:35:45Z</time></trkpt>
<trkpt lat="25.157924" lon="102.021576">
<time>2014-08-04T17:35:46Z</time></trkpt>
<trkpt lat="25.157995" lon="102.021526">
<time>2014-08-04T17:35:47Z</time></trkpt>
<trkpt lat="25.158075" lon="102.021497">
<time>2014-08-04T17:35:48Z</time></trkpt>
<trkpt lat="25.158145" lon="102.021467">
<time>2014-08-04T17:35:49Z</time></trkpt>
<trkpt lat="25.158235" lon="102.021437">
<time>2014-08-04T17:35:50Z</time></trkpt>
<trkpt lat="25.158355" lon="102.021417">
<time>2014-08-04T17:35:51Z</time></trkpt>
<trkpt lat="25.158455" lon="102.021407">
<time>2014-08-04T17:35:52Z</time></trkpt>
<trkpt lat="25.158585" lon="102.021397">
<time>2014-08-04T17:35:53Z</time></trkpt>
<trkpt lat="25.158855" lon="102.021417">
<time>2014-08-04T17:35:54Z</time></trkpt>
<trkpt lat="25.159315" lon="102.021457">
<time>2014-08-04T17:35:55Z</time></trkpt>
<trkpt lat="25.160035" lon="102.021526">
<time>2014-08-04T17:35:56Z</time></trkpt>
<trkpt lat="25.160234" lon="102.021546">
<time>2014-08-04T17:35:57Z</time></trkpt>
<trkpt lat="25.160354" lon="102.021546">
<time>2014-08-04T17:35:58Z</time></trkpt>
<trkpt lat="25.160444" lon="102.021556">
<time>2014-08-04T17:35:59Z</time></trkpt>
<trkpt lat="25.160544" lon="102.021546">
<time>2014-08-04T17:36:00Z</time></trkpt>
<trkpt lat="25.160634" lon="102.021526">
<time>2014-08-04T17:36:01Z</time></trkpt>
<trkpt lat="25.160745" lon="102.021506">
<time>2014-08-04T17:36:02Z</time></trkpt>
<trkpt lat="25.160855" lon="102.021467">
<time>2014-08-04T17:36:03Z</time></trkpt>
<trkpt lat="25.161025" lon="102.021407">
<time>2014-08-04T17:36:04Z</time></trkpt>
<trkpt lat="25.161205" lon="102.021317">
<time>2014-08-04T17:36:05Z</time></trkpt>
<trkpt lat="25.161616" lon="102.021107">
<time>2014-08-04T17:36:06Z</time></trkpt>
<trkpt lat="25.161876" lon="102.020968">
<time>2014-08-04T17:36:07Z</time></trkpt>
<trkpt lat="25.162056" lon="102.020858">
<time>2014-08-04T17:36:08Z</time></trkpt>
<trkpt lat="25.162467" lon="102.020599">
<time>2014-08-04T17:36:09Z</time></trkpt>
<trkpt lat="25.162707" lon="102.020439">
<time>2014-08-04T17:36:10Z</time></trkpt>
<trkpt lat="25.162828" lon="102.02035">
<time>2014-08-04T17:36:11Z</time></trkpt>
<trkpt lat="25.162928" lon="102.02028">
<time>2014-08-04T17:36:12Z</time></trkpt>
<trkpt lat="25.162998" lon="102.02022">
<time>2014-08-04T17:36:13Z</time></trkpt>
<trkpt lat="25.163078" lon="102.02014">
<time>2014-08-04T17:36:14Z</time></trkpt>
<trkpt lat="25.163159" lon="102.02005">
<time>2014-08-04T17:36:15Z</time></trkpt>
<trkpt lat="25.163219" lon="102.019981">
<time>2014-08-04T17:36:16Z</time></trkpt>
<trkpt lat="25.163349" lon="102.019801">
<time>2014-08-04T17:36:17Z</time></trkpt>
<trkpt lat="25.16353" lon="102.019582">
<time>2014-08-04T17:36:18Z</time></trkpt>
<trkpt lat="25.16367" lon="102.019392">
<time>2014-08-04T17:36:19Z</time></trkpt>
<trkpt lat="25.163761" lon="102.019302">
<time>2014-08-04T17:36:20Z</time></trkpt>
<trkpt lat="25.163861" lon="102.019193">
<time>2014-08-04T17:36:21Z</time></trkpt>
<trkpt lat="25.163931" lon="102.019133">
<time>2014-08-04T17:36:22Z</time></trkpt>
<trkpt lat="25.163981" lon="102.019093">
<time>2014-08-04T17:36:23Z</time></trkpt>
<trkpt lat="25.164081" lon="102.019003">
<time>2014-08-04T17:36:24Z</time></trkpt>
<trkpt lat="25.164573" lon="102.018624">
<time>2014-08-04T17:36:25Z</time></trkpt>
<trkpt lat="25.164643" lon="102.018575">
<time>2014-08-04T17:36:26Z</time></trkpt>
<trkpt lat="25.165033" lon="102.018295">
<time>2014-08-04T17:36:27Z</time></trkpt>
<trkpt lat="25.165194" lon="102.018166">
<time>2014-08-04T17:36:28Z</time></trkpt>
<trkpt lat="25.165354" lon="102.018006">
<time>2014-08-04T17:36:29Z</time></trkpt>
<trkpt lat="25.165455" lon="102.017896">
<time>2014-08-04T17:36:30Z</time></trkpt>
<trkpt lat="25.165665" lon="102.017647">
<time>2014-08-04T17:36:31Z</time></trkpt>
<trkpt lat="25.165746" lon="102.017537">
<time>2014-08-04T17:36:32Z</time></trkpt>
<trkpt lat="25.165826" lon="102.017428">
<time>2014-08-04T17:36:33Z</time></trkpt>
<trkpt lat="25.165926" lon="102.017308">
<time>2014-08-04T17:36:34Z</time></trkpt>
<trkpt lat="25.165997" lon="102.017198">
<time>2014-08-04T17:36:35Z</time></trkpt>
<trkpt lat="25.166097" lon="102.017049">
<time>2014-08-04T17:36:36Z</time></trkpt>
<trkpt lat="25.166208" lon="102.016849">
<time>2014-08-04T17:36:37Z</time></trkpt>
<trkpt lat="25.166399" lon="102.01647">
<time>2014-08-04T17:36:38Z</time></trkpt>
<trkpt lat="25.16653" lon="102.016181">
<time>2014-08-04T17:36:39Z</time></trkpt>
<trkpt lat="25.16668" lon="102.015862">
<time>2014-08-04T17:36:40Z</time></trkpt>
<trkpt lat="25.166842" lon="102.015453">
<time>2014-08-04T17:36:41Z</time></trkpt>
<trkpt lat="25.167023" lon="102.015064">
<time>2014-08-04T17:36:42Z</time></trkpt>
<trkpt lat="25.167184" lon="102.014805">
<time>2014-08-04T17:36:43Z</time></trkpt>
<trkpt lat="25.167294" lon="102.014676">
<time>2014-08-04T17:36:44Z</time></trkpt>
<trkpt lat="25.167394" lon="102.014556">
<time>2014-08-04T17:36:45Z</time></trkpt>
<trkpt lat="25.167635" lon="102.014297">
<time>2014-08-04T17:36:46Z</time></trkpt>
<trkpt lat="25.167715" lon="102.014227">
<time>2014-08-04T17:36:47Z</time></trkpt>
<trkpt lat="25.167735" lon="102.014207">
<time>2014-08-04T17:36:48Z</time></trkpt>
<trkpt lat="25.167866" lon="102.014107">
<time>2014-08-04T17:36:49Z</time></trkpt>
<trkpt lat="25.168066" lon="102.013988">
<time>2014-08-04T17:36:50Z</time></trkpt>
<trkpt lat="25.168066" lon="102.013988">
<time>2014-08-04T17:36:51Z</time></trkpt>
<trkpt lat="25.168026" lon="102.013868">
<time>2014-08-04T17:36:52Z</time></trkpt>
<trkpt lat="25.167867" lon="102.013449">
<time>2014-08-04T17:36:53Z</time></trkpt>
<trkpt lat="25.167828" lon="102.01324">
<time>2014-08-04T17:36:54Z</time></trkpt>
<trkpt lat="25.167819" lon="102.01303">
<time>2014-08-04T17:36:55Z</time></trkpt>
<trkpt lat="25.167819" lon="102.012791">
<time>2014-08-04T17:36:56Z</time></trkpt>
<trkpt lat="25.16785" lon="102.012602">
<time>2014-08-04T17:36:57Z</time></trkpt>
<trkpt lat="25.167962" lon="102.012063">
<time>2014-08-04T17:36:58Z</time></trkpt>
<trkpt lat="25.167962" lon="102.012063">
<time>2014-08-04T17:36:59Z</time></trkpt>
<trkpt lat="25.168092" lon="102.011973">
<time>2014-08-04T17:37:00Z</time></trkpt>
<trkpt lat="25.168282" lon="102.011794">
<time>2014-08-04T17:37:01Z</time></trkpt>
<trkpt lat="25.168383" lon="102.011654">
<time>2014-08-04T17:37:02Z</time></trkpt>
<trkpt lat="25.168513" lon="102.011425">
<time>2014-08-04T17:37:03Z</time></trkpt>
<trkpt lat="25.168654" lon="102.011116">
<time>2014-08-04T17:37:04Z</time></trkpt>
<trkpt lat="25.168685" lon="102.010986">
<time>2014-08-04T17:37:05Z</time></trkpt>
<trkpt lat="25.168685" lon="102.010847">
<time>2014-08-04T17:37:06Z</time></trkpt>
<trkpt lat="25.168666" lon="102.010727">
<time>2014-08-04T17:37:07Z</time></trkpt>
<trkpt lat="25.168606" lon="102.010617">
<time>2014-08-04T17:37:08Z</time></trkpt>
<trkpt lat="25.168506" lon="102.010448">
<time>2014-08-04T17:37:09Z</time></trkpt>
<trkpt lat="25.168157" lon="102.010099">
<time>2014-08-04T17:37:10Z</time></trkpt>
<trkpt lat="25.16744" lon="102.009371">
<time>2014-08-04T17:37:11Z</time></trkpt>
<trkpt lat="25.166782" lon="102.008743">
<time>2014-08-04T17:37:12Z</time></trkpt>
<trkpt lat="25.166682" lon="102.008623">
<time>2014-08-04T17:37:13Z</time></trkpt>
<trkpt lat="25.166582" lon="102.008504">
<time>2014-08-04T17:37:14Z</time></trkpt>
<trkpt lat="25.166423" lon="102.008264">
<time>2014-08-04T17:37:15Z</time></trkpt>
<trkpt lat="25.166244" lon="102.007935">
<time>2014-08-04T17:37:16Z</time></trkpt>
<trkpt lat="25.166075" lon="102.007596">
<time>2014-08-04T17:37:17Z</time></trkpt>
<trkpt lat="25.165906" lon="102.007178">
<time>2014-08-04T17:37:18Z</time></trkpt>
<trkpt lat="25.165718" lon="102.006619">
<time>2014-08-04T17:37:19Z</time></trkpt>
<trkpt lat="25.16558" lon="102.006091">
<time>2014-08-04T17:37:20Z</time></trkpt>
<trkpt lat="25.165461" lon="102.005602">
<time>2014-08-04T17:37:21Z</time></trkpt>
<trkpt lat="25.165392" lon="102.005124">
<time>2014-08-04T17:37:22Z</time></trkpt>
<trkpt lat="25.165324" lon="102.004655">
<time>2014-08-04T17:37:23Z</time></trkpt>
<trkpt lat="25.165225" lon="102.004187">
<time>2014-08-04T17:37:24Z</time></trkpt>
<trkpt lat="25.165116" lon="102.003838">
<time>2014-08-04T17:37:25Z</time></trkpt>
<trkpt lat="25.165027" lon="102.003559">
<time>2014-08-04T17:37:26Z</time></trkpt>
<trkpt lat="25.164968" lon="102.003329">
<time>2014-08-04T17:37:27Z</time></trkpt>
<trkpt lat="25.164919" lon="102.00312">
<time>2014-08-04T17:37:28Z</time></trkpt>
<trkpt lat="25.164821" lon="102.002442">
<time>2014-08-04T17:37:29Z</time></trkpt>
<trkpt lat="25.164751" lon="102.002193">
<time>2014-08-04T17:37:30Z</time></trkpt>
<trkpt lat="25.164652" lon="102.001943">
<time>2014-08-04T17:37:31Z</time></trkpt>
<trkpt lat="25.164543" lon="102.001734">
<time>2014-08-04T17:37:32Z</time></trkpt>
<trkpt lat="25.164224" lon="102.001246">
<time>2014-08-04T17:37:33Z</time></trkpt>
<trkpt lat="25.163916" lon="102.000857">
<time>2014-08-04T17:37:34Z</time></trkpt>
<trkpt lat="25.163686" lon="102.000647">
<time>2014-08-04T17:37:35Z</time></trkpt>
<trkpt lat="25.163447" lon="102.000408">
<time>2014-08-04T17:37:36Z</time></trkpt>
<trkpt lat="25.163208" lon="102.000199">
<time>2014-08-04T17:37:37Z</time></trkpt>
<trkpt lat="25.163118" lon="102.000109">
<time>2014-08-04T17:37:38Z</time></trkpt>
<trkpt lat="25.163048" lon="102.000009">
<time>2014-08-04T17:37:39Z</time></trkpt>
<trkpt lat="25.163008" lon="101.999959">
<time>2014-08-04T17:37:40Z</time></trkpt>
<trkpt lat="25.162958" lon="101.9999">
<time>2014-08-04T17:37:41Z</time></trkpt>
<trkpt lat="25.162919" lon="101.9998">
<time>2014-08-04T17:37:42Z</time></trkpt>
<trkpt lat="25.162869" lon="101.99967">
<time>2014-08-04T17:37:43Z</time></trkpt>
<trkpt lat="25.16276" lon="101.999341">
<time>2014-08-04T17:37:44Z</time></trkpt>
<trkpt lat="25.162631" lon="101.998982">
<time>2014-08-04T17:37:45Z</time></trkpt>
<trkpt lat="25.162492" lon="101.998633">
<time>2014-08-04T17:37:46Z</time></trkpt>
<trkpt lat="25.162403" lon="101.998374">
<time>2014-08-04T17:37:47Z</time></trkpt>
<trkpt lat="25.162383" lon="101.998275">
<time>2014-08-04T17:37:48Z</time></trkpt>
<trkpt lat="25.162364" lon="101.998185">
<time>2014-08-04T17:37:49Z</time></trkpt>
<trkpt lat="25.162354" lon="101.998095">
<time>2014-08-04T17:37:50Z</time></trkpt>
<trkpt lat="25.162344" lon="101.998005">
<time>2014-08-04T17:37:51Z</time></trkpt>
<trkpt lat="25.162355" lon="101.997906">
<time>2014-08-04T17:37:52Z</time></trkpt>
<trkpt lat="25.162355" lon="101.997776">
<time>2014-08-04T17:37:53Z</time></trkpt>
<trkpt lat="25.162366" lon="101.997477">
<time>2014-08-04T17:37:54Z</time></trkpt>
<trkpt lat="25.162366" lon="101.997307">
<time>2014-08-04T17:37:55Z</time></trkpt>
<trkpt lat="25.162347" lon="101.997018">
<time>2014-08-04T17:37:56Z</time></trkpt>
<trkpt lat="25.162308" lon="101.996759">
<time>2014-08-04T17:37:57Z</time></trkpt>
<trkpt lat="25.162279" lon="101.99651">
<time>2014-08-04T17:37:58Z</time></trkpt>
<trkpt lat="25.162259" lon="101.99641">
<time>2014-08-04T17:37:59Z</time></trkpt>
<trkpt lat="25.162219" lon="101.996301">
<time>2014-08-04T17:38:00Z</time></trkpt>
<trkpt lat="25.16218" lon="101.996201">
<time>2014-08-04T17:38:01Z</time></trkpt>
<trkpt lat="25.16212" lon="101.996111">
<time>2014-08-04T17:38:02Z</time></trkpt>
<trkpt lat="25.16205" lon="101.996041">
<time>2014-08-04T17:38:03Z</time></trkpt>
<trkpt lat="25.16198" lon="101.995972">
<time>2014-08-04T17:38:04Z</time></trkpt>
<trkpt lat="25.161901" lon="101.995902">
<time>2014-08-04T17:38:05Z</time></trkpt>
<trkpt lat="25.161811" lon="101.995852">
<time>2014-08-04T17:38:06Z</time></trkpt>
<trkpt lat="25.161711" lon="101.995792">
<time>2014-08-04T17:38:07Z</time></trkpt>
<trkpt lat="25.161621" lon="101.995732">
<time>2014-08-04T17:38:08Z</time></trkpt>
<trkpt lat="25.161541" lon="101.995652">
<time>2014-08-04T17:38:09Z</time></trkpt>
<trkpt lat="25.161282" lon="101.995363">
<time>2014-08-04T17:38:10Z</time></trkpt>
<trkpt lat="25.160963" lon="101.994994">
<time>2014-08-04T17:38:11Z</time></trkpt>
<trkpt lat="25.160674" lon="101.994695">
<time>2014-08-04T17:38:12Z</time></trkpt>
<trkpt lat="25.160495" lon="101.994496">
<time>2014-08-04T17:38:13Z</time></trkpt>
<trkpt lat="25.160386" lon="101.994327">
<time>2014-08-04T17:38:14Z</time></trkpt>
<trkpt lat="25.160286" lon="101.994167">
<time>2014-08-04T17:38:15Z</time></trkpt>
<trkpt lat="25.160227" lon="101.994007">
<time>2014-08-04T17:38:16Z</time></trkpt>
<trkpt lat="25.160167" lon="101.993838">
<time>2014-08-04T17:38:17Z</time></trkpt>
<trkpt lat="25.160118" lon="101.993639">
<time>2014-08-04T17:38:18Z</time></trkpt>
<trkpt lat="25.160098" lon="101.993509">
<time>2014-08-04T17:38:19Z</time></trkpt>
<trkpt lat="25.160078" lon="101.993419">
<time>2014-08-04T17:38:20Z</time></trkpt>
<trkpt lat="25.160069" lon="101.99327">
<time>2014-08-04T17:38:21Z</time></trkpt>
<trkpt lat="25.16008" lon="101.992881">
<time>2014-08-04T17:38:22Z</time></trkpt>
<trkpt lat="25.160091" lon="101.992691">
<time>2014-08-04T17:38:23Z</time></trkpt>
<trkpt lat="25.160111" lon="101.992602">
<time>2014-08-04T17:38:24Z</time></trkpt>
<trkpt lat="25.160151" lon="101.992492">
<time>2014-08-04T17:38:25Z</time></trkpt>
<trkpt lat="25.160211" lon="101.992402">
<time>2014-08-04T17:38:26Z</time></trkpt>
<trkpt lat="25.160292" lon="101.992323">
<time>2014-08-04T17:38:27Z</time></trkpt>
<trkpt lat="25.160392" lon="101.992243">
<time>2014-08-04T17:38:28Z</time></trkpt>
<trkpt lat="25.160492" lon="101.992163">
<time>2014-08-04T17:38:29Z</time></trkpt>
<trkpt lat="25.160562" lon="101.992123">
<time>2014-08-04T17:38:30Z</time></trkpt>
<trkpt lat="25.160692" lon="101.992063">
<time>2014-08-04T17:38:31Z</time></trkpt>
<trkpt lat="25.160823" lon="101.992003">
<time>2014-08-04T17:38:32Z</time></trkpt>
<trkpt lat="25.161023" lon="101.991944">
<time>2014-08-04T17:38:33Z</time></trkpt>
<trkpt lat="25.161253" lon="101.991874">
<time>2014-08-04T17:38:34Z</time></trkpt>
<trkpt lat="25.161433" lon="101.991834">
<time>2014-08-04T17:38:35Z</time></trkpt>
<trkpt lat="25.161493" lon="101.991804">
<time>2014-08-04T17:38:36Z</time></trkpt>
<trkpt lat="25.161603" lon="101.991744">
<time>2014-08-04T17:38:37Z</time></trkpt>
<trkpt lat="25.161674" lon="101.991664">
<time>2014-08-04T17:38:38Z</time></trkpt>
<trkpt lat="25.161724" lon="101.991585">
<time>2014-08-04T17:38:39Z</time></trkpt>
<trkpt lat="25.161804" lon="101.991415">
<time>2014-08-04T17:38:40Z</time></trkpt>
<trkpt lat="25.161835" lon="101.991296">
<time>2014-08-04T17:38:41Z</time></trkpt>
<trkpt lat="25.161885" lon="101.991136">
<time>2014-08-04T17:38:42Z</time></trkpt>
<trkpt lat="25.161916" lon="101.991006">
<time>2014-08-04T17:38:43Z</time></trkpt>
<trkpt lat="25.161926" lon="101.990887">
<time>2014-08-04T17:38:44Z</time></trkpt>
<trkpt lat="25.161946" lon="101.990687">
<time>2014-08-04T17:38:45Z</time></trkpt>
<trkpt lat="25.161937" lon="101.990538">
<time>2014-08-04T17:38:46Z</time></trkpt>
<trkpt lat="25.161927" lon="101.990388">
<time>2014-08-04T17:38:47Z</time></trkpt>
<trkpt lat="25.161908" lon="101.990269">
<time>2014-08-04T17:38:48Z</time></trkpt>
<trkpt lat="25.161888" lon="101.990149">
<time>2014-08-04T17:38:49Z</time></trkpt>
<trkpt lat="25.16174" lon="101.989601">
<time>2014-08-04T17:38:50Z</time></trkpt>
<trkpt lat="25.161651" lon="101.989272">
<time>2014-08-04T17:38:51Z</time></trkpt>
<trkpt lat="25.161552" lon="101.988982">
<time>2014-08-04T17:38:52Z</time></trkpt>
<trkpt lat="25.161433" lon="101.988693">
<time>2014-08-04T17:38:53Z</time></trkpt>
<trkpt lat="25.161323" lon="101.988434">
<time>2014-08-04T17:38:54Z</time></trkpt>
<trkpt lat="25.161254" lon="101.988295">
<time>2014-08-04T17:38:55Z</time></trkpt>
<trkpt lat="25.161094" lon="101.988095">
<time>2014-08-04T17:38:56Z</time></trkpt>
<trkpt lat="25.160915" lon="101.987906">
<time>2014-08-04T17:38:57Z</time></trkpt>
<trkpt lat="25.160656" lon="101.987656">
<time>2014-08-04T17:38:58Z</time></trkpt>
<trkpt lat="25.160347" lon="101.987357">
<time>2014-08-04T17:38:59Z</time></trkpt>
<trkpt lat="25.160187" lon="101.987218">
<time>2014-08-04T17:39:00Z</time></trkpt>
<trkpt lat="25.160037" lon="101.987098">
<time>2014-08-04T17:39:01Z</time></trkpt>
<trkpt lat="25.159788" lon="101.986909">
<time>2014-08-04T17:39:02Z</time></trkpt>
<trkpt lat="25.159708" lon="101.986839">
<time>2014-08-04T17:39:03Z</time></trkpt>
<trkpt lat="25.159628" lon="101.986749">
<time>2014-08-04T17:39:04Z</time></trkpt>
<trkpt lat="25.159549" lon="101.986659">
<time>2014-08-04T17:39:05Z</time></trkpt>
<trkpt lat="25.159439" lon="101.98649">
<time>2014-08-04T17:39:06Z</time></trkpt>
<trkpt lat="25.15929" lon="101.986231">
<time>2014-08-04T17:39:07Z</time></trkpt>
<trkpt lat="25.159111" lon="101.985872">
<time>2014-08-04T17:39:08Z</time></trkpt>
<trkpt lat="25.159061" lon="101.985732">
<time>2014-08-04T17:39:09Z</time></trkpt>
<trkpt lat="25.159032" lon="101.985652">
<time>2014-08-04T17:39:10Z</time></trkpt>
<trkpt lat="25.159002" lon="101.985503">
<time>2014-08-04T17:39:11Z</time></trkpt>
<trkpt lat="25.158983" lon="101.985393">
<time>2014-08-04T17:39:12Z</time></trkpt>
<trkpt lat="25.158973" lon="101.985283">
<time>2014-08-04T17:39:13Z</time></trkpt>
<trkpt lat="25.158973" lon="101.985114">
<time>2014-08-04T17:39:14Z</time></trkpt>
<trkpt lat="25.158974" lon="101.984735">
<time>2014-08-04T17:39:15Z</time></trkpt>
<trkpt lat="25.158956" lon="101.984356">
<time>2014-08-04T17:39:16Z</time></trkpt>
<trkpt lat="25.158937" lon="101.983977">
<time>2014-08-04T17:39:17Z</time></trkpt>
<trkpt lat="25.158928" lon="101.983568">
<time>2014-08-04T17:39:18Z</time></trkpt>
<trkpt lat="25.158899" lon="101.983249">
<time>2014-08-04T17:39:19Z</time></trkpt>
<trkpt lat="25.158879" lon="101.98309">
<time>2014-08-04T17:39:20Z</time></trkpt>
<trkpt lat="25.1588" lon="101.982811">
<time>2014-08-04T17:39:21Z</time></trkpt>
<trkpt lat="25.158661" lon="101.982452">
<time>2014-08-04T17:39:22Z</time></trkpt>
<trkpt lat="25.158602" lon="101.982252">
<time>2014-08-04T17:39:23Z</time></trkpt>
<trkpt lat="25.158572" lon="101.982123">
<time>2014-08-04T17:39:24Z</time></trkpt>
<trkpt lat="25.158563" lon="101.982003">
<time>2014-08-04T17:39:25Z</time></trkpt>
<trkpt lat="25.158533" lon="101.981834">
<time>2014-08-04T17:39:26Z</time></trkpt>
<trkpt lat="25.158503" lon="101.981684">
<time>2014-08-04T17:39:27Z</time></trkpt>
<trkpt lat="25.158474" lon="101.981554">
<time>2014-08-04T17:39:28Z</time></trkpt>
<trkpt lat="25.158424" lon="101.981425">
<time>2014-08-04T17:39:29Z</time></trkpt>
<trkpt lat="25.158295" lon="101.981076">
<time>2014-08-04T17:39:30Z</time></trkpt>
<trkpt lat="25.158226" lon="101.980876">
<time>2014-08-04T17:39:31Z</time></trkpt>
<trkpt lat="25.158186" lon="101.980697">
<time>2014-08-04T17:39:32Z</time></trkpt>
<trkpt lat="25.158167" lon="101.980567">
<time>2014-08-04T17:39:33Z</time></trkpt>
<trkpt lat="25.158157" lon="101.980458">
<time>2014-08-04T17:39:34Z</time></trkpt>
<trkpt lat="25.158149" lon="101.979809">
<time>2014-08-04T17:39:35Z</time></trkpt>
<trkpt lat="25.15814" lon="101.97952">
<time>2014-08-04T17:39:36Z</time></trkpt>
<trkpt lat="25.15815" lon="101.979321">
<time>2014-08-04T17:39:37Z</time></trkpt>
<trkpt lat="25.158181" lon="101.979111">
<time>2014-08-04T17:39:38Z</time></trkpt>
<trkpt lat="25.158211" lon="101.978982">
<time>2014-08-04T17:39:39Z</time></trkpt>
<trkpt lat="25.158282" lon="101.978663">
<time>2014-08-04T17:39:40Z</time></trkpt>
<trkpt lat="25.158303" lon="101.978483">
<time>2014-08-04T17:39:41Z</time></trkpt>
<trkpt lat="25.158313" lon="101.978234">
<time>2014-08-04T17:39:42Z</time></trkpt>
<trkpt lat="25.158315" lon="101.977845">
<time>2014-08-04T17:39:43Z</time></trkpt>
<trkpt lat="25.158306" lon="101.977466">
<time>2014-08-04T17:39:44Z</time></trkpt>
<trkpt lat="25.158287" lon="101.977157">
<time>2014-08-04T17:39:45Z</time></trkpt>
<trkpt lat="25.158257" lon="101.976967">
<time>2014-08-04T17:39:46Z</time></trkpt>
<trkpt lat="25.158178" lon="101.976648">
<time>2014-08-04T17:39:47Z</time></trkpt>
<trkpt lat="25.158049" lon="101.976249">
<time>2014-08-04T17:39:48Z</time></trkpt>
<trkpt lat="25.157921" lon="101.975731">
<time>2014-08-04T17:39:49Z</time></trkpt>
<trkpt lat="25.157812" lon="101.975123">
<time>2014-08-04T17:39:50Z</time></trkpt>
<trkpt lat="25.157744" lon="101.974634">
<time>2014-08-04T17:39:51Z</time></trkpt>
<trkpt lat="25.157735" lon="101.974155">
<time>2014-08-04T17:39:52Z</time></trkpt>
<trkpt lat="25.157807" lon="101.973577">
<time>2014-08-04T17:39:53Z</time></trkpt>
<trkpt lat="25.157918" lon="101.973128">
<time>2014-08-04T17:39:54Z</time></trkpt>
<trkpt lat="25.158149" lon="101.972589">
<time>2014-08-04T17:39:55Z</time></trkpt>
<trkpt lat="25.158471" lon="101.972031">
<time>2014-08-04T17:39:56Z</time></trkpt>
<trkpt lat="25.158923" lon="101.971243">
<time>2014-08-04T17:39:57Z</time></trkpt>
<trkpt lat="25.159034" lon="101.970944">
<time>2014-08-04T17:39:58Z</time></trkpt>
<trkpt lat="25.159074" lon="101.970824">
<time>2014-08-04T17:39:59Z</time></trkpt>
<trkpt lat="25.159195" lon="101.970415">
<time>2014-08-04T17:40:00Z</time></trkpt>
<trkpt lat="25.159246" lon="101.970026">
<time>2014-08-04T17:40:01Z</time></trkpt>
<trkpt lat="25.159308" lon="101.969458">
<time>2014-08-04T17:40:02Z</time></trkpt>
<trkpt lat="25.159308" lon="101.969288">
<time>2014-08-04T17:40:03Z</time></trkpt>
<trkpt lat="25.159309" lon="101.969119">
<time>2014-08-04T17:40:04Z</time></trkpt>
<trkpt lat="25.159309" lon="101.968969">
<time>2014-08-04T17:40:05Z</time></trkpt>
<trkpt lat="25.15929" lon="101.968839">
<time>2014-08-04T17:40:06Z</time></trkpt>
<trkpt lat="25.15925" lon="101.96862">
<time>2014-08-04T17:40:07Z</time></trkpt>
<trkpt lat="25.15922" lon="101.9685">
<time>2014-08-04T17:40:08Z</time></trkpt>
<trkpt lat="25.159181" lon="101.968381">
<time>2014-08-04T17:40:09Z</time></trkpt>
<trkpt lat="25.159171" lon="101.968361">
<time>2014-08-04T17:40:10Z</time></trkpt>
<trkpt lat="25.159131" lon="101.968271">
<time>2014-08-04T17:40:11Z</time></trkpt>
<trkpt lat="25.159081" lon="101.968171">
<time>2014-08-04T17:40:12Z</time></trkpt>
<trkpt lat="25.159022" lon="101.968061">
<time>2014-08-04T17:40:13Z</time></trkpt>
<trkpt lat="25.158952" lon="101.967952">
<time>2014-08-04T17:40:14Z</time></trkpt>
<trkpt lat="25.158832" lon="101.967832">
<time>2014-08-04T17:40:15Z</time></trkpt>
<trkpt lat="25.158693" lon="101.967742">
<time>2014-08-04T17:40:16Z</time></trkpt>
<trkpt lat="25.158623" lon="101.967702">
<time>2014-08-04T17:40:17Z</time></trkpt>
<trkpt lat="25.158543" lon="101.967663">
<time>2014-08-04T17:40:18Z</time></trkpt>
<trkpt lat="25.158473" lon="101.967643">
<time>2014-08-04T17:40:19Z</time></trkpt>
<trkpt lat="25.158393" lon="101.967623">
<time>2014-08-04T17:40:20Z</time></trkpt>
<trkpt lat="25.158233" lon="101.967613">
<time>2014-08-04T17:40:21Z</time></trkpt>
<trkpt lat="25.158083" lon="101.967613">
<time>2014-08-04T17:40:22Z</time></trkpt>
<trkpt lat="25.157983" lon="101.967633">
<time>2014-08-04T17:40:23Z</time></trkpt>
<trkpt lat="25.157883" lon="101.967682">
<time>2014-08-04T17:40:24Z</time></trkpt>
<trkpt lat="25.157793" lon="101.967732">
<time>2014-08-04T17:40:25Z</time></trkpt>
<trkpt lat="25.157712" lon="101.967812">
<time>2014-08-04T17:40:26Z</time></trkpt>
<trkpt lat="25.157562" lon="101.967962">
<time>2014-08-04T17:40:27Z</time></trkpt>
<trkpt lat="25.157372" lon="101.968131">
<time>2014-08-04T17:40:28Z</time></trkpt>
<trkpt lat="25.157241" lon="101.968241">
<time>2014-08-04T17:40:29Z</time></trkpt>
<trkpt lat="25.157131" lon="101.968301">
<time>2014-08-04T17:40:30Z</time></trkpt>
<trkpt lat="25.157061" lon="101.968331">
<time>2014-08-04T17:40:31Z</time></trkpt>
<trkpt lat="25.156971" lon="101.968341">
<time>2014-08-04T17:40:32Z</time></trkpt>
<trkpt lat="25.156881" lon="101.968341">
<time>2014-08-04T17:40:33Z</time></trkpt>
<trkpt lat="25.156731" lon="101.968321">
<time>2014-08-04T17:40:34Z</time></trkpt>
<trkpt lat="25.156561" lon="101.968281">
<time>2014-08-04T17:40:35Z</time></trkpt>
<trkpt lat="25.156361" lon="101.968221">
<time>2014-08-04T17:40:36Z</time></trkpt>
<trkpt lat="25.156202" lon="101.968151">
<time>2014-08-04T17:40:37Z</time></trkpt>
<trkpt lat="25.156062" lon="101.968062">
<time>2014-08-04T17:40:38Z</time></trkpt>
<trkpt lat="25.155922" lon="101.967952">
<time>2014-08-04T17:40:39Z</time></trkpt>
<trkpt lat="25.155802" lon="101.967822">
<time>2014-08-04T17:40:40Z</time></trkpt>
<trkpt lat="25.155653" lon="101.967623">
<time>2014-08-04T17:40:41Z</time></trkpt>
<trkpt lat="25.155574" lon="101.967413">
<time>2014-08-04T17:40:42Z</time></trkpt>
<trkpt lat="25.155524" lon="101.967154">
<time>2014-08-04T17:40:43Z</time></trkpt>
<trkpt lat="25.155525" lon="101.966855">
<time>2014-08-04T17:40:44Z</time></trkpt>
<trkpt lat="25.155556" lon="101.966545">
<time>2014-08-04T17:40:45Z</time></trkpt>
<trkpt lat="25.155657" lon="101.966166">
<time>2014-08-04T17:40:46Z</time></trkpt>
<trkpt lat="25.155748" lon="101.965738">
<time>2014-08-04T17:40:47Z</time></trkpt>
<trkpt lat="25.155799" lon="101.965348">
<time>2014-08-04T17:40:48Z</time></trkpt>
<trkpt lat="25.155831" lon="101.96464">
<time>2014-08-04T17:40:49Z</time></trkpt>
<trkpt lat="25.155943" lon="101.963952">
<time>2014-08-04T17:40:50Z</time></trkpt>
<trkpt lat="25.156084" lon="101.963304">
<time>2014-08-04T17:40:51Z</time></trkpt>
<trkpt lat="25.156145" lon="101.962934">
<time>2014-08-04T17:40:52Z</time></trkpt>
<trkpt lat="25.156155" lon="101.962785">
<time>2014-08-04T17:40:53Z</time></trkpt>
<trkpt lat="25.156156" lon="101.962645">
<time>2014-08-04T17:40:54Z</time></trkpt>
<trkpt lat="25.156146" lon="101.962525">
<time>2014-08-04T17:40:55Z</time></trkpt>
<trkpt lat="25.156127" lon="101.962376">
<time>2014-08-04T17:40:56Z</time></trkpt>
<trkpt lat="25.155978" lon="101.961867">
<time>2014-08-04T17:40:57Z</time></trkpt>
<trkpt lat="25.155749" lon="101.961279">
<time>2014-08-04T17:40:58Z</time></trkpt>
<trkpt lat="25.15568" lon="101.960949">
<time>2014-08-04T17:40:59Z</time></trkpt>
<trkpt lat="25.155661" lon="101.96076">
<time>2014-08-04T17:41:00Z</time></trkpt>
<trkpt lat="25.155671" lon="101.96058">
<time>2014-08-04T17:41:01Z</time></trkpt>
<trkpt lat="25.155731" lon="101.960391">
<time>2014-08-04T17:41:02Z</time></trkpt>
<trkpt lat="25.155782" lon="101.960251">
<time>2014-08-04T17:41:03Z</time></trkpt>
<trkpt lat="25.155832" lon="101.960151">
<time>2014-08-04T17:41:04Z</time></trkpt>
<trkpt lat="25.155882" lon="101.960071">
<time>2014-08-04T17:41:05Z</time></trkpt>
<trkpt lat="25.155962" lon="101.960002">
<time>2014-08-04T17:41:06Z</time></trkpt>
<trkpt lat="25.156063" lon="101.959912">
<time>2014-08-04T17:41:07Z</time></trkpt>
<trkpt lat="25.156173" lon="101.959832">
<time>2014-08-04T17:41:08Z</time></trkpt>
<trkpt lat="25.156323" lon="101.959752">
<time>2014-08-04T17:41:09Z</time></trkpt>
<trkpt lat="25.156513" lon="101.959672">
<time>2014-08-04T17:41:10Z</time></trkpt>
<trkpt lat="25.156743" lon="101.959592">
<time>2014-08-04T17:41:11Z</time></trkpt>
<trkpt lat="25.157053" lon="101.959533">
<time>2014-08-04T17:41:12Z</time></trkpt>
<trkpt lat="25.157404" lon="101.959503">
<time>2014-08-04T17:41:13Z</time></trkpt>
<trkpt lat="25.158374" lon="101.959453">
<time>2014-08-04T17:41:14Z</time></trkpt>
<trkpt lat="25.158564" lon="101.959453">
<time>2014-08-04T17:41:15Z</time></trkpt>
<trkpt lat="25.158724" lon="101.959453">
<time>2014-08-04T17:41:16Z</time></trkpt>
<trkpt lat="25.158914" lon="101.959443">
<time>2014-08-04T17:41:17Z</time></trkpt>
<trkpt lat="25.159044" lon="101.959423">
<time>2014-08-04T17:41:18Z</time></trkpt>
<trkpt lat="25.159164" lon="101.959393">
<time>2014-08-04T17:41:19Z</time></trkpt>
<trkpt lat="25.159284" lon="101.959343">
<time>2014-08-04T17:41:20Z</time></trkpt>
<trkpt lat="25.159424" lon="101.959243">
<time>2014-08-04T17:41:21Z</time></trkpt>
<trkpt lat="25.159564" lon="101.959114">
<time>2014-08-04T17:41:22Z</time></trkpt>
<trkpt lat="25.159885" lon="101.958704">
<time>2014-08-04T17:41:23Z</time></trkpt>
<trkpt lat="25.160216" lon="101.958345">
<time>2014-08-04T17:41:24Z</time></trkpt>
<trkpt lat="25.160467" lon="101.958016">
<time>2014-08-04T17:41:25Z</time></trkpt>
<trkpt lat="25.160708" lon="101.957717">
<time>2014-08-04T17:41:26Z</time></trkpt>
<trkpt lat="25.160998" lon="101.957457">
<time>2014-08-04T17:41:27Z</time></trkpt>
<trkpt lat="25.161319" lon="101.957218">
<time>2014-08-04T17:41:28Z</time></trkpt>
<trkpt lat="25.161629" lon="101.956998">
<time>2014-08-04T17:41:29Z</time></trkpt>
<trkpt lat="25.16186" lon="101.956809">
<time>2014-08-04T17:41:30Z</time></trkpt>
<trkpt lat="25.16205" lon="101.956599">
<time>2014-08-04T17:41:31Z</time></trkpt>
<trkpt lat="25.162281" lon="101.95625">
<time>2014-08-04T17:41:32Z</time></trkpt>
<trkpt lat="25.162502" lon="101.955881">
<time>2014-08-04T17:41:33Z</time></trkpt>
<trkpt lat="25.162763" lon="101.955482">
<time>2014-08-04T17:41:34Z</time></trkpt>
<trkpt lat="25.162923" lon="101.955222">
<time>2014-08-04T17:41:35Z</time></trkpt>
<trkpt lat="25.163194" lon="101.954753">
<time>2014-08-04T17:41:36Z</time></trkpt>
<trkpt lat="25.163255" lon="101.954633">
<time>2014-08-04T17:41:37Z</time></trkpt>
<trkpt lat="25.163355" lon="101.954434">
<time>2014-08-04T17:41:38Z</time></trkpt>
<trkpt lat="25.163546" lon="101.953995">
<time>2014-08-04T17:41:39Z</time></trkpt>
<trkpt lat="25.163657" lon="101.953765">
<time>2014-08-04T17:41:40Z</time></trkpt>
<trkpt lat="25.163767" lon="101.953556">
<time>2014-08-04T17:41:41Z</time></trkpt>
<trkpt lat="25.163807" lon="101.953446">
<time>2014-08-04T17:41:42Z</time></trkpt>
<trkpt lat="25.163858" lon="101.953296">
<time>2014-08-04T17:41:43Z</time></trkpt>
<trkpt lat="25.163898" lon="101.953127">
<time>2014-08-04T17:41:44Z</time></trkpt>
<trkpt lat="25.163908" lon="101.952957">
<time>2014-08-04T17:41:45Z</time></trkpt>
<trkpt lat="25.163909" lon="101.952817">
<time>2014-08-04T17:41:46Z</time></trkpt>
<trkpt lat="25.163889" lon="101.952668">
<time>2014-08-04T17:41:47Z</time></trkpt>
<trkpt lat="25.163869" lon="101.952518">
<time>2014-08-04T17:41:48Z</time></trkpt>
<trkpt lat="25.16383" lon="101.952378">
<time>2014-08-04T17:41:49Z</time></trkpt>
<trkpt lat="25.16377" lon="101.952219">
<time>2014-08-04T17:41:50Z</time></trkpt>
<trkpt lat="25.16372" lon="101.952079">
<time>2014-08-04T17:41:51Z</time></trkpt>
<trkpt lat="25.163631" lon="101.951859">
<time>2014-08-04T17:41:52Z</time></trkpt>
<trkpt lat="25.163591" lon="101.95171">
<time>2014-08-04T17:41:53Z</time></trkpt>
<trkpt lat="25.163551" lon="101.95156">
<time>2014-08-04T17:41:54Z</time></trkpt>
<trkpt lat="25.163532" lon="101.95142">
<time>2014-08-04T17:41:55Z</time></trkpt>
<trkpt lat="25.163522" lon="101.951311">
<time>2014-08-04T17:41:56Z</time></trkpt>
<trkpt lat="25.163512" lon="101.951161">
<time>2014-08-04T17:41:57Z</time></trkpt>
<trkpt lat="25.163513" lon="101.951011">
<time>2014-08-04T17:41:58Z</time></trkpt>
<trkpt lat="25.163523" lon="101.950861">
<time>2014-08-04T17:41:59Z</time></trkpt>
<trkpt lat="25.163543" lon="101.950722">
<time>2014-08-04T17:42:00Z</time></trkpt>
<trkpt lat="25.163594" lon="101.950512">
<time>2014-08-04T17:42:01Z</time></trkpt>
<trkpt lat="25.163654" lon="101.950283">
<time>2014-08-04T17:42:02Z</time></trkpt>
<trkpt lat="25.163725" lon="101.950063">
<time>2014-08-04T17:42:03Z</time></trkpt>
<trkpt lat="25.163785" lon="101.949903">
<time>2014-08-04T17:42:04Z</time></trkpt>
<trkpt lat="25.163885" lon="101.949714">
<time>2014-08-04T17:42:05Z</time></trkpt>
<trkpt lat="25.163976" lon="101.949574">
<time>2014-08-04T17:42:06Z</time></trkpt>
<trkpt lat="25.164146" lon="101.949334">
<time>2014-08-04T17:42:07Z</time></trkpt>
<trkpt lat="25.164327" lon="101.949075">
<time>2014-08-04T17:42:08Z</time></trkpt>
<trkpt lat="25.164497" lon="101.948845">
<time>2014-08-04T17:42:09Z</time></trkpt>
<trkpt lat="25.164728" lon="101.948536">
<time>2014-08-04T17:42:10Z</time></trkpt>
<trkpt lat="25.164848" lon="101.948366">
<time>2014-08-04T17:42:11Z</time></trkpt>
<trkpt lat="25.164908" lon="101.948267">
<time>2014-08-04T17:42:12Z</time></trkpt>
<trkpt lat="25.164979" lon="101.948127">
<time>2014-08-04T17:42:13Z</time></trkpt>
<trkpt lat="25.165029" lon="101.947997">
<time>2014-08-04T17:42:14Z</time></trkpt>
<trkpt lat="25.16514" lon="101.947638">
<time>2014-08-04T17:42:15Z</time></trkpt>
<trkpt lat="25.1652" lon="101.947428">
<time>2014-08-04T17:42:16Z</time></trkpt>
<trkpt lat="25.165321" lon="101.947059">
<time>2014-08-04T17:42:17Z</time></trkpt>
<trkpt lat="25.165381" lon="101.946829">
<time>2014-08-04T17:42:18Z</time></trkpt>
<trkpt lat="25.165391" lon="101.946779">
<time>2014-08-04T17:42:19Z</time></trkpt>
<trkpt lat="25.165401" lon="101.946729">
<time>2014-08-04T17:42:20Z</time></trkpt>
<trkpt lat="25.165402" lon="101.946689">
<time>2014-08-04T17:42:21Z</time></trkpt>
<trkpt lat="25.165402" lon="101.94662">
<time>2014-08-04T17:42:22Z</time></trkpt>
<trkpt lat="25.165392" lon="101.94654">
<time>2014-08-04T17:42:23Z</time></trkpt>
<trkpt lat="25.165382" lon="101.94648">
<time>2014-08-04T17:42:24Z</time></trkpt>
<trkpt lat="25.165342" lon="101.9464">
<time>2014-08-04T17:42:25Z</time></trkpt>
<trkpt lat="25.165312" lon="101.94635">
<time>2014-08-04T17:42:26Z</time></trkpt>
<trkpt lat="25.165252" lon="101.9463">
<time>2014-08-04T17:42:27Z</time></trkpt>
<trkpt lat="25.165212" lon="101.94626">
<time>2014-08-04T17:42:28Z</time></trkpt>
<trkpt lat="25.165142" lon="101.94622">
<time>2014-08-04T17:42:29Z</time></trkpt>
<trkpt lat="25.164923" lon="101.946131">
<time>2014-08-04T17:42:30Z</time></trkpt>
<trkpt lat="25.164733" lon="101.946061">
<time>2014-08-04T17:42:31Z</time></trkpt>
<trkpt lat="25.164653" lon="101.946031">
<time>2014-08-04T17:42:32Z</time></trkpt>
<trkpt lat="25.164573" lon="101.946001">
<time>2014-08-04T17:42:33Z</time></trkpt>
<trkpt lat="25.164503" lon="101.945961">
<time>2014-08-04T17:42:34Z</time></trkpt>
<trkpt lat="25.164453" lon="101.945921">
<time>2014-08-04T17:42:35Z</time></trkpt>
<trkpt lat="25.164393" lon="101.945881">
<time>2014-08-04T17:42:36Z</time></trkpt>
<trkpt lat="25.164343" lon="101.945821">
<time>2014-08-04T17:42:37Z</time></trkpt>
<trkpt lat="25.164254" lon="101.945711">
<time>2014-08-04T17:42:38Z</time></trkpt>
<trkpt lat="25.164144" lon="101.945592">
<time>2014-08-04T17:42:39Z</time></trkpt>
<trkpt lat="25.164054" lon="101.945512">
<time>2014-08-04T17:42:40Z</time></trkpt>
<trkpt lat="25.163994" lon="101.945472">
<time>2014-08-04T17:42:41Z</time></trkpt>
<trkpt lat="25.163924" lon="101.945442">
<time>2014-08-04T17:42:42Z</time></trkpt>
<trkpt lat="25.163854" lon="101.945412">
<time>2014-08-04T17:42:43Z</time></trkpt>
<trkpt lat="25.163764" lon="101.945382">
<time>2014-08-04T17:42:44Z</time></trkpt>
<trkpt lat="25.163634" lon="101.945342">
<time>2014-08-04T17:42:45Z</time></trkpt>
<trkpt lat="25.163444" lon="101.945282">
<time>2014-08-04T17:42:46Z</time></trkpt>
<trkpt lat="25.163294" lon="101.945242">
<time>2014-08-04T17:42:47Z</time></trkpt>
<trkpt lat="25.163195" lon="101.945202">
<time>2014-08-04T17:42:48Z</time></trkpt>
<trkpt lat="25.163075" lon="101.945142">
<time>2014-08-04T17:42:49Z</time></trkpt>
<trkpt lat="25.163015" lon="101.945112">
<time>2014-08-04T17:42:50Z</time></trkpt>
<trkpt lat="25.162965" lon="101.945063">
<time>2014-08-04T17:42:51Z</time></trkpt>
<trkpt lat="25.162915" lon="101.945023">
<time>2014-08-04T17:42:52Z</time></trkpt>
<trkpt lat="25.162885" lon="101.944963">
<time>2014-08-04T17:42:53Z</time></trkpt>
<trkpt lat="25.162845" lon="101.944903">
<time>2014-08-04T17:42:54Z</time></trkpt>
<trkpt lat="25.162805" lon="101.944803">
<time>2014-08-04T17:42:55Z</time></trkpt>
<trkpt lat="25.162776" lon="101.944673">
<time>2014-08-04T17:42:56Z</time></trkpt>
<trkpt lat="25.162756" lon="101.944533">
<time>2014-08-04T17:42:57Z</time></trkpt>
<trkpt lat="25.162726" lon="101.944374">
<time>2014-08-04T17:42:58Z</time></trkpt>
<trkpt lat="25.162697" lon="101.944194">
<time>2014-08-04T17:42:59Z</time></trkpt>
<trkpt lat="25.162667" lon="101.943994">
<time>2014-08-04T17:43:00Z</time></trkpt>
<trkpt lat="25.162617" lon="101.943785">
<time>2014-08-04T17:43:01Z</time></trkpt>
<trkpt lat="25.162568" lon="101.943585">
<time>2014-08-04T17:43:02Z</time></trkpt>
<trkpt lat="25.162548" lon="101.943465">
<time>2014-08-04T17:43:03Z</time></trkpt>
<trkpt lat="25.162448" lon="101.943156">
<time>2014-08-04T17:43:04Z</time></trkpt>
<trkpt lat="25.162299" lon="101.942826">
<time>2014-08-04T17:43:05Z</time></trkpt>
<trkpt lat="25.16212" lon="101.942417">
<time>2014-08-04T17:43:06Z</time></trkpt>
<trkpt lat="25.161801" lon="101.941778">
<time>2014-08-04T17:43:07Z</time></trkpt>
<trkpt lat="25.161682" lon="101.941499">
<time>2014-08-04T17:43:08Z</time></trkpt>
<trkpt lat="25.161602" lon="101.941289">
<time>2014-08-04T17:43:09Z</time></trkpt>
<trkpt lat="25.161542" lon="101.941069">
<time>2014-08-04T17:43:10Z</time></trkpt>
<trkpt lat="25.161523" lon="101.94087">
<time>2014-08-04T17:43:11Z</time></trkpt>
<trkpt lat="25.161513" lon="101.94058">
<time>2014-08-04T17:43:12Z</time></trkpt>
<trkpt lat="25.161534" lon="101.940261">
<time>2014-08-04T17:43:13Z</time></trkpt>
<trkpt lat="25.161635" lon="101.939542">
<time>2014-08-04T17:43:14Z</time></trkpt>
<trkpt lat="25.161716" lon="101.939083">
<time>2014-08-04T17:43:15Z</time></trkpt>
<trkpt lat="25.161776" lon="101.938843">
<time>2014-08-04T17:43:16Z</time></trkpt>
<trkpt lat="25.161867" lon="101.938563">
<time>2014-08-04T17:43:17Z</time></trkpt>
<trkpt lat="25.161947" lon="101.938384">
<time>2014-08-04T17:43:18Z</time></trkpt>
<trkpt lat="25.162047" lon="101.938224">
<time>2014-08-04T17:43:19Z</time></trkpt>
<trkpt lat="25.162137" lon="101.938114">
<time>2014-08-04T17:43:20Z</time></trkpt>
<trkpt lat="25.162248" lon="101.938034">
<time>2014-08-04T17:43:21Z</time></trkpt>
<trkpt lat="25.162368" lon="101.937984">
<time>2014-08-04T17:43:22Z</time></trkpt>
<trkpt lat="25.162508" lon="101.937954">
<time>2014-08-04T17:43:23Z</time></trkpt>
<trkpt lat="25.162608" lon="101.937944">
<time>2014-08-04T17:43:24Z</time></trkpt>
<trkpt lat="25.162708" lon="101.937954">
<time>2014-08-04T17:43:25Z</time></trkpt>
<trkpt lat="25.162788" lon="101.937974">
<time>2014-08-04T17:43:26Z</time></trkpt>
<trkpt lat="25.162887" lon="101.938024">
<time>2014-08-04T17:43:27Z</time></trkpt>
<trkpt lat="25.163047" lon="101.938114">
<time>2014-08-04T17:43:28Z</time></trkpt>
<trkpt lat="25.163377" lon="101.938374">
<time>2014-08-04T17:43:29Z</time></trkpt>
<trkpt lat="25.163836" lon="101.938743">
<time>2014-08-04T17:43:30Z</time></trkpt>
<trkpt lat="25.164126" lon="101.938963">
<time>2014-08-04T17:43:31Z</time></trkpt>
<trkpt lat="25.164296" lon="101.939053">
<time>2014-08-04T17:43:32Z</time></trkpt>
<trkpt lat="25.164406" lon="101.939092">
<time>2014-08-04T17:43:33Z</time></trkpt>
<trkpt lat="25.164516" lon="101.939132">
<time>2014-08-04T17:43:34Z</time></trkpt>
<trkpt lat="25.164646" lon="101.939142">
<time>2014-08-04T17:43:35Z</time></trkpt>
<trkpt lat="25.164806" lon="101.939152">
<time>2014-08-04T17:43:36Z</time></trkpt>
<trkpt lat="25.164966" lon="101.939142">
<time>2014-08-04T17:43:37Z</time></trkpt>
<trkpt lat="25.165116" lon="101.939132">
<time>2014-08-04T17:43:38Z</time></trkpt>
<trkpt lat="25.165236" lon="101.939092">
<time>2014-08-04T17:43:39Z</time></trkpt>
<trkpt lat="25.165366" lon="101.939033">
<time>2014-08-04T17:43:40Z</time></trkpt>
<trkpt lat="25.165466" lon="101.938943">
<time>2014-08-04T17:43:41Z</time></trkpt>
<trkpt lat="25.165556" lon="101.938843">
<time>2014-08-04T17:43:42Z</time></trkpt>
<trkpt lat="25.165616" lon="101.938743">
<time>2014-08-04T17:43:43Z</time></trkpt>
<trkpt lat="25.165676" lon="101.938603">
<time>2014-08-04T17:43:44Z</time></trkpt>
<trkpt lat="25.165707" lon="101.938443">
<time>2014-08-04T17:43:45Z</time></trkpt>
<trkpt lat="25.165717" lon="101.938254">
<time>2014-08-04T17:43:46Z</time></trkpt>
<trkpt lat="25.165697" lon="101.938054">
<time>2014-08-04T17:43:47Z</time></trkpt>
<trkpt lat="25.165658" lon="101.937884">
<time>2014-08-04T17:43:48Z</time></trkpt>
<trkpt lat="25.165608" lon="101.937744">
<time>2014-08-04T17:43:49Z</time></trkpt>
<trkpt lat="25.165558" lon="101.937625">
<time>2014-08-04T17:43:50Z</time></trkpt>
<trkpt lat="25.165468" lon="101.937475">
<time>2014-08-04T17:43:51Z</time></trkpt>
<trkpt lat="25.165309" lon="101.937245">
<time>2014-08-04T17:43:52Z</time></trkpt>
<trkpt lat="25.165019" lon="101.936876">
<time>2014-08-04T17:43:53Z</time></trkpt>
<trkpt lat="25.16479" lon="101.936556">
<time>2014-08-04T17:43:54Z</time></trkpt>
<trkpt lat="25.16469" lon="101.936396">
<time>2014-08-04T17:43:55Z</time></trkpt>
<trkpt lat="25.16462" lon="101.936217">
<time>2014-08-04T17:43:56Z</time></trkpt>
<trkpt lat="25.164581" lon="101.936037">
<time>2014-08-04T17:43:57Z</time></trkpt>
<trkpt lat="25.164541" lon="101.935797">
<time>2014-08-04T17:43:58Z</time></trkpt>
<trkpt lat="25.164491" lon="101.935478">
<time>2014-08-04T17:43:59Z</time></trkpt>
<trkpt lat="25.164452" lon="101.935298">
<time>2014-08-04T17:44:00Z</time></trkpt>
<trkpt lat="25.164412" lon="101.935158">
<time>2014-08-04T17:44:01Z</time></trkpt>
<trkpt lat="25.164362" lon="101.935038">
<time>2014-08-04T17:44:02Z</time></trkpt>
<trkpt lat="25.164292" lon="101.934929">
<time>2014-08-04T17:44:03Z</time></trkpt>
<trkpt lat="25.164213" lon="101.934819">
<time>2014-08-04T17:44:04Z</time></trkpt>
<trkpt lat="25.164133" lon="101.934729">
<time>2014-08-04T17:44:05Z</time></trkpt>
<trkpt lat="25.164003" lon="101.934599">
<time>2014-08-04T17:44:06Z</time></trkpt>
<trkpt lat="25.163723" lon="101.934319">
<time>2014-08-04T17:44:07Z</time></trkpt>
<trkpt lat="25.163574" lon="101.93417">
<time>2014-08-04T17:44:08Z</time></trkpt>
<trkpt lat="25.163494" lon="101.93407">
<time>2014-08-04T17:44:09Z</time></trkpt>
<trkpt lat="25.163424" lon="101.93399">
<time>2014-08-04T17:44:10Z</time></trkpt>
<trkpt lat="25.163374" lon="101.93391">
<time>2014-08-04T17:44:11Z</time></trkpt>
<trkpt lat="25.163334" lon="101.93381">
<time>2014-08-04T17:44:12Z</time></trkpt>
<trkpt lat="25.163304" lon="101.9337">
<time>2014-08-04T17:44:13Z</time></trkpt>
<trkpt lat="25.163294" lon="101.93358">
<time>2014-08-04T17:44:14Z</time></trkpt>
<trkpt lat="25.163305" lon="101.93349">
<time>2014-08-04T17:44:15Z</time></trkpt>
<trkpt lat="25.163325" lon="101.933401">
<time>2014-08-04T17:44:16Z</time></trkpt>
<trkpt lat="25.163355" lon="101.933291">
<time>2014-08-04T17:44:17Z</time></trkpt>
<trkpt lat="25.163395" lon="101.933171">
<time>2014-08-04T17:44:18Z</time></trkpt>
<trkpt lat="25.163505" lon="101.932931">
<time>2014-08-04T17:44:19Z</time></trkpt>
<trkpt lat="25.163686" lon="101.932492">
<time>2014-08-04T17:44:20Z</time></trkpt>
<trkpt lat="25.163806" lon="101.932232">
<time>2014-08-04T17:44:21Z</time></trkpt>
<trkpt lat="25.163866" lon="101.932132">
<time>2014-08-04T17:44:22Z</time></trkpt>
<trkpt lat="25.163927" lon="101.932062">
<time>2014-08-04T17:44:23Z</time></trkpt>
<trkpt lat="25.164007" lon="101.932002">
<time>2014-08-04T17:44:24Z</time></trkpt>
<trkpt lat="25.164087" lon="101.931942">
<time>2014-08-04T17:44:25Z</time></trkpt>
<trkpt lat="25.164197" lon="101.931912">
<time>2014-08-04T17:44:26Z</time></trkpt>
<trkpt lat="25.164347" lon="101.931872">
<time>2014-08-04T17:44:27Z</time></trkpt>
<trkpt lat="25.164487" lon="101.931852">
<time>2014-08-04T17:44:28Z</time></trkpt>
<trkpt lat="25.164897" lon="101.931803">
<time>2014-08-04T17:44:29Z</time></trkpt>
<trkpt lat="25.165117" lon="101.931773">
<time>2014-08-04T17:44:30Z</time></trkpt>
<trkpt lat="25.165277" lon="101.931713">
<time>2014-08-04T17:44:31Z</time></trkpt>
<trkpt lat="25.165347" lon="101.931683">
<time>2014-08-04T17:44:32Z</time></trkpt>
<trkpt lat="25.165407" lon="101.931643">
<time>2014-08-04T17:44:33Z</time></trkpt>
<trkpt lat="25.165457" lon="101.931613">
<time>2014-08-04T17:44:34Z</time></trkpt>
<trkpt lat="25.165467" lon="101.931603">
<time>2014-08-04T17:44:35Z</time></trkpt>
<trkpt lat="25.165517" lon="101.931543">
<time>2014-08-04T17:44:36Z</time></trkpt>
<trkpt lat="25.165567" lon="101.931463">
<time>2014-08-04T17:44:37Z</time></trkpt>
<trkpt lat="25.165657" lon="101.931353">
<time>2014-08-04T17:44:38Z</time></trkpt>
<trkpt lat="25.165758" lon="101.931253">
<time>2014-08-04T17:44:39Z</time></trkpt>
<trkpt lat="25.165888" lon="101.931143">
<time>2014-08-04T17:44:40Z</time></trkpt>
<trkpt lat="25.165958" lon="101.931063">
<time>2014-08-04T17:44:41Z</time></trkpt>
<trkpt lat="25.165998" lon="101.931013">
<time>2014-08-04T17:44:42Z</time></trkpt>
<trkpt lat="25.166008" lon="101.930953">
<time>2014-08-04T17:44:43Z</time></trkpt>
<trkpt lat="25.166008" lon="101.930864">
<time>2014-08-04T17:44:44Z</time></trkpt>
<trkpt lat="25.165998" lon="101.930794">
<time>2014-08-04T17:44:45Z</time></trkpt>
<trkpt lat="25.165988" lon="101.930764">
<time>2014-08-04T17:44:46Z</time></trkpt>
<trkpt lat="25.165978" lon="101.930734">
<time>2014-08-04T17:44:47Z</time></trkpt>
<trkpt lat="25.165948" lon="101.930694">
<time>2014-08-04T17:44:48Z</time></trkpt>
<trkpt lat="25.165908" lon="101.930664">
<time>2014-08-04T17:44:49Z</time></trkpt>
<trkpt lat="25.165828" lon="101.930584">
<time>2014-08-04T17:44:50Z</time></trkpt>
<trkpt lat="25.165729" lon="101.930504">
<time>2014-08-04T17:44:51Z</time></trkpt>
<trkpt lat="25.165589" lon="101.930404">
<time>2014-08-04T17:44:52Z</time></trkpt>
<trkpt lat="25.165419" lon="101.930284">
<time>2014-08-04T17:44:53Z</time></trkpt>
<trkpt lat="25.165219" lon="101.930184">
<time>2014-08-04T17:44:54Z</time></trkpt>
<trkpt lat="25.164859" lon="101.930025">
<time>2014-08-04T17:44:55Z</time></trkpt>
<trkpt lat="25.164629" lon="101.929905">
<time>2014-08-04T17:44:56Z</time></trkpt>
<trkpt lat="25.16428" lon="101.929695">
<time>2014-08-04T17:44:57Z</time></trkpt>
<trkpt lat="25.16403" lon="101.929535">
<time>2014-08-04T17:44:58Z</time></trkpt>
<trkpt lat="25.1638" lon="101.929385">
<time>2014-08-04T17:44:59Z</time></trkpt>
<trkpt lat="25.16365" lon="101.929265">
<time>2014-08-04T17:45:00Z</time></trkpt>
<trkpt lat="25.16355" lon="101.929166">
<time>2014-08-04T17:45:01Z</time></trkpt>
<trkpt lat="25.163361" lon="101.928966">
<time>2014-08-04T17:45:02Z</time></trkpt>
<trkpt lat="25.162961" lon="101.928526">
<time>2014-08-04T17:45:03Z</time></trkpt>
<trkpt lat="25.162572" lon="101.928087">
<time>2014-08-04T17:45:04Z</time></trkpt>
<trkpt lat="25.162222" lon="101.927697">
<time>2014-08-04T17:45:05Z</time></trkpt>
<trkpt lat="25.161883" lon="101.927328">
<time>2014-08-04T17:45:06Z</time></trkpt>
<trkpt lat="25.161553" lon="101.926998">
<time>2014-08-04T17:45:07Z</time></trkpt>
<trkpt lat="25.161264" lon="101.926668">
<time>2014-08-04T17:45:08Z</time></trkpt>
<trkpt lat="25.161094" lon="101.926428">
<time>2014-08-04T17:45:09Z</time></trkpt>
<trkpt lat="25.160954" lon="101.926209">
<time>2014-08-04T17:45:10Z</time></trkpt>
<trkpt lat="25.160834" lon="101.926019">
<time>2014-08-04T17:45:11Z</time></trkpt>
<trkpt lat="25.160715" lon="101.925849">
<time>2014-08-04T17:45:12Z</time></trkpt>
<trkpt lat="25.160335" lon="101.925329">
<time>2014-08-04T17:45:13Z</time></trkpt>
<trkpt lat="25.159776" lon="101.92454">
<time>2014-08-04T17:45:14Z</time></trkpt>
<trkpt lat="25.159556" lon="101.92422">
<time>2014-08-04T17:45:15Z</time></trkpt>
<trkpt lat="25.159377" lon="101.923971">
<time>2014-08-04T17:45:16Z</time></trkpt>
<trkpt lat="25.159297" lon="101.923851">
<time>2014-08-04T17:45:17Z</time></trkpt>
<trkpt lat="25.159237" lon="101.923741">
<time>2014-08-04T17:45:18Z</time></trkpt>
<trkpt lat="25.159197" lon="101.923641">
<time>2014-08-04T17:45:19Z</time></trkpt>
<trkpt lat="25.159167" lon="101.923461">
<time>2014-08-04T17:45:20Z</time></trkpt>
<trkpt lat="25.159157" lon="101.923331">
<time>2014-08-04T17:45:21Z</time></trkpt>
<trkpt lat="25.159168" lon="101.923201">
<time>2014-08-04T17:45:22Z</time></trkpt>
<trkpt lat="25.159208" lon="101.923061">
<time>2014-08-04T17:45:23Z</time></trkpt>
<trkpt lat="25.159258" lon="101.922932">
<time>2014-08-04T17:45:24Z</time></trkpt>
<trkpt lat="25.159398" lon="101.922692">
<time>2014-08-04T17:45:25Z</time></trkpt>
<trkpt lat="25.159518" lon="101.922522">
<time>2014-08-04T17:45:26Z</time></trkpt>
<trkpt lat="25.159638" lon="101.922352">
<time>2014-08-04T17:45:27Z</time></trkpt>
<trkpt lat="25.159728" lon="101.922232">
<time>2014-08-04T17:45:28Z</time></trkpt>
<trkpt lat="25.159779" lon="101.922152">
<time>2014-08-04T17:45:29Z</time></trkpt>
<trkpt lat="25.159869" lon="101.922082">
<time>2014-08-04T17:45:30Z</time></trkpt>
<trkpt lat="25.159959" lon="101.922022">
<time>2014-08-04T17:45:31Z</time></trkpt>
<trkpt lat="25.160049" lon="101.921972">
<time>2014-08-04T17:45:32Z</time></trkpt>
<trkpt lat="25.160189" lon="101.921922">
<time>2014-08-04T17:45:33Z</time></trkpt>
<trkpt lat="25.160319" lon="101.921882">
<time>2014-08-04T17:45:34Z</time></trkpt>
<trkpt lat="25.160459" lon="101.921842">
<time>2014-08-04T17:45:35Z</time></trkpt>
<trkpt lat="25.160629" lon="101.921812">
<time>2014-08-04T17:45:36Z</time></trkpt>
<trkpt lat="25.160809" lon="101.921792">
<time>2014-08-04T17:45:37Z</time></trkpt>
<trkpt lat="25.161039" lon="101.921782">
<time>2014-08-04T17:45:38Z</time></trkpt>
<trkpt lat="25.161239" lon="101.921762">
<time>2014-08-04T17:45:39Z</time></trkpt>
<trkpt lat="25.161399" lon="101.921722">
<time>2014-08-04T17:45:40Z</time></trkpt>
<trkpt lat="25.161609" lon="101.921672">
<time>2014-08-04T17:45:41Z</time></trkpt>
<trkpt lat="25.161989" lon="101.921552">
<time>2014-08-04T17:45:42Z</time></trkpt>
<trkpt lat="25.162149" lon="101.921493">
<time>2014-08-04T17:45:43Z</time></trkpt>
<trkpt lat="25.162239" lon="101.921443">
<time>2014-08-04T17:45:44Z</time></trkpt>
<trkpt lat="25.162319" lon="101.921383">
<time>2014-08-04T17:45:45Z</time></trkpt>
<trkpt lat="25.162379" lon="101.921313">
<time>2014-08-04T17:45:46Z</time></trkpt>
<trkpt lat="25.162429" lon="101.921243">
<time>2014-08-04T17:45:47Z</time></trkpt>
<trkpt lat="25.162449" lon="101.921183">
<time>2014-08-04T17:45:48Z</time></trkpt>
<trkpt lat="25.162459" lon="101.921103">
<time>2014-08-04T17:45:49Z</time></trkpt>
<trkpt lat="25.162459" lon="101.921003">
<time>2014-08-04T17:45:50Z</time></trkpt>
<trkpt lat="25.16243" lon="101.920883">
<time>2014-08-04T17:45:51Z</time></trkpt>
<trkpt lat="25.16239" lon="101.920753">
<time>2014-08-04T17:45:52Z</time></trkpt>
<trkpt lat="25.16231" lon="101.920553">
<time>2014-08-04T17:45:53Z</time></trkpt>
<trkpt lat="25.16228" lon="101.920443">
<time>2014-08-04T17:45:54Z</time></trkpt>
<trkpt lat="25.16225" lon="101.920333">
<time>2014-08-04T17:45:55Z</time></trkpt>
<trkpt lat="25.16223" lon="101.920203">
<time>2014-08-04T17:45:56Z</time></trkpt>
<trkpt lat="25.16219" lon="101.919974">
<time>2014-08-04T17:45:57Z</time></trkpt>
<trkpt lat="25.162131" lon="101.919654">
<time>2014-08-04T17:45:58Z</time></trkpt>
<trkpt lat="25.162071" lon="101.919254">
<time>2014-08-04T17:45:59Z</time></trkpt>
<trkpt lat="25.162031" lon="101.918924">
<time>2014-08-04T17:46:00Z</time></trkpt>
<trkpt lat="25.162012" lon="101.918604">
<time>2014-08-04T17:46:01Z</time></trkpt>
<trkpt lat="25.161982" lon="101.918444">
<time>2014-08-04T17:46:02Z</time></trkpt>
<trkpt lat="25.161962" lon="101.918335">
<time>2014-08-04T17:46:03Z</time></trkpt>
<trkpt lat="25.161922" lon="101.918235">
<time>2014-08-04T17:46:04Z</time></trkpt>
<trkpt lat="25.161882" lon="101.918105">
<time>2014-08-04T17:46:05Z</time></trkpt>
<trkpt lat="25.161802" lon="101.917905">
<time>2014-08-04T17:46:06Z</time></trkpt>
<trkpt lat="25.161603" lon="101.917465">
<time>2014-08-04T17:46:07Z</time></trkpt>
<trkpt lat="25.161503" lon="101.917185">
<time>2014-08-04T17:46:08Z</time></trkpt>
<trkpt lat="25.161453" lon="101.916985">
<time>2014-08-04T17:46:09Z</time></trkpt>
<trkpt lat="25.161393" lon="101.916765">
<time>2014-08-04T17:46:10Z</time></trkpt>
<trkpt lat="25.161353" lon="101.916515">
<time>2014-08-04T17:46:11Z</time></trkpt>
<trkpt lat="25.161313" lon="101.916206">
<time>2014-08-04T17:46:12Z</time></trkpt>
<trkpt lat="25.161294" lon="101.915896">
<time>2014-08-04T17:46:13Z</time></trkpt>
<trkpt lat="25.161274" lon="101.915646">
<time>2014-08-04T17:46:14Z</time></trkpt>
<trkpt lat="25.161254" lon="101.915476">
<time>2014-08-04T17:46:15Z</time></trkpt>
<trkpt lat="25.161174" lon="101.915156">
<time>2014-08-04T17:46:16Z</time></trkpt>
<trkpt lat="25.161144" lon="101.915036">
<time>2014-08-04T17:46:17Z</time></trkpt>
<trkpt lat="25.161124" lon="101.914926">
<time>2014-08-04T17:46:18Z</time></trkpt>
<trkpt lat="25.161114" lon="101.914806">
<time>2014-08-04T17:46:19Z</time></trkpt>
<trkpt lat="25.161094" lon="101.914686">
<time>2014-08-04T17:46:20Z</time></trkpt>
<trkpt lat="25.161075" lon="101.914446">
<time>2014-08-04T17:46:21Z</time></trkpt>
<trkpt lat="25.161055" lon="101.914196">
<time>2014-08-04T17:46:22Z</time></trkpt>
<trkpt lat="25.161055" lon="101.913937">
<time>2014-08-04T17:46:23Z</time></trkpt>
<trkpt lat="25.161065" lon="101.913557">
<time>2014-08-04T17:46:24Z</time></trkpt>
<trkpt lat="25.161075" lon="101.913337">
<time>2014-08-04T17:46:25Z</time></trkpt>
<trkpt lat="25.161095" lon="101.913167">
<time>2014-08-04T17:46:26Z</time></trkpt>
<trkpt lat="25.161115" lon="101.913047">
<time>2014-08-04T17:46:27Z</time></trkpt>
<trkpt lat="25.161136" lon="101.912927">
<time>2014-08-04T17:46:28Z</time></trkpt>
<trkpt lat="25.161146" lon="101.912837">
<time>2014-08-04T17:46:29Z</time></trkpt>
<trkpt lat="25.161166" lon="101.912697">
<time>2014-08-04T17:46:30Z</time></trkpt>
<trkpt lat="25.161176" lon="101.912557">
<time>2014-08-04T17:46:31Z</time></trkpt>
<trkpt lat="25.161196" lon="101.912457">
<time>2014-08-04T17:46:32Z</time></trkpt>
<trkpt lat="25.161226" lon="101.912367">
<time>2014-08-04T17:46:33Z</time></trkpt>
<trkpt lat="25.161266" lon="101.912257">
<time>2014-08-04T17:46:34Z</time></trkpt>
<trkpt lat="25.161336" lon="101.912107">
<time>2014-08-04T17:46:35Z</time></trkpt>
<trkpt lat="25.161396" lon="101.912017">
<time>2014-08-04T17:46:36Z</time></trkpt>
<trkpt lat="25.161466" lon="101.911867">
<time>2014-08-04T17:46:37Z</time></trkpt>
<trkpt lat="25.161506" lon="101.911737">
<time>2014-08-04T17:46:38Z</time></trkpt>
<trkpt lat="25.161516" lon="101.911657">
<time>2014-08-04T17:46:39Z</time></trkpt>
<trkpt lat="25.161516" lon="101.911577">
<time>2014-08-04T17:46:40Z</time></trkpt>
<trkpt lat="25.161526" lon="101.911477">
<time>2014-08-04T17:46:41Z</time></trkpt>
<trkpt lat="25.161536" lon="101.911397">
<time>2014-08-04T17:46:42Z</time></trkpt>
<trkpt lat="25.161576" lon="101.911217">
<time>2014-08-04T17:46:43Z</time></trkpt>
<trkpt lat="25.161616" lon="101.911057">
<time>2014-08-04T17:46:44Z</time></trkpt>
<trkpt lat="25.161707" lon="101.910767">
<time>2014-08-04T17:46:45Z</time></trkpt>
<trkpt lat="25.161857" lon="101.910377">
<time>2014-08-04T17:46:46Z</time></trkpt>
<trkpt lat="25.161977" lon="101.910067">
<time>2014-08-04T17:46:47Z</time></trkpt>
<trkpt lat="25.162047" lon="101.909888">
<time>2014-08-04T17:46:48Z</time></trkpt>
<trkpt lat="25.162067" lon="101.909828">
<time>2014-08-04T17:46:49Z</time></trkpt>
<trkpt lat="25.162077" lon="101.909808">
<time>2014-08-04T17:46:50Z</time></trkpt>
<trkpt lat="25.162077" lon="101.909788">
<time>2014-08-04T17:46:51Z</time></trkpt>
<trkpt lat="25.162077" lon="101.909758">
<time>2014-08-04T17:46:52Z</time></trkpt>
<trkpt lat="25.162087" lon="101.909738">
<time>2014-08-04T17:46:53Z</time></trkpt>
<trkpt lat="25.162087" lon="101.909708">
<time>2014-08-04T17:46:54Z</time></trkpt>
<trkpt lat="25.162087" lon="101.909678">
<time>2014-08-04T17:46:55Z</time></trkpt>
<trkpt lat="25.162087" lon="101.909648">
<time>2014-08-04T17:46:56Z</time></trkpt>
<trkpt lat="25.162077" lon="101.909638">
<time>2014-08-04T17:46:57Z</time></trkpt>
<trkpt lat="25.162077" lon="101.909608">
<time>2014-08-04T17:46:58Z</time></trkpt>
<trkpt lat="25.162067" lon="101.909578">
<time>2014-08-04T17:46:59Z</time></trkpt>
<trkpt lat="25.162057" lon="101.909568">
<time>2014-08-04T17:47:00Z</time></trkpt>
<trkpt lat="25.162047" lon="101.909548">
<time>2014-08-04T17:47:01Z</time></trkpt>
<trkpt lat="25.162037" lon="101.909538">
<time>2014-08-04T17:47:02Z</time></trkpt>
<trkpt lat="25.162027" lon="101.909518">
<time>2014-08-04T17:47:03Z</time></trkpt>
<trkpt lat="25.162007" lon="101.909508">
<time>2014-08-04T17:47:04Z</time></trkpt>
<trkpt lat="25.161997" lon="101.909488">
<time>2014-08-04T17:47:05Z</time></trkpt>
<trkpt lat="25.161807" lon="101.909358">
<time>2014-08-04T17:47:06Z</time></trkpt>
<trkpt lat="25.161637" lon="101.909238">
<time>2014-08-04T17:47:07Z</time></trkpt>
<trkpt lat="25.161477" lon="101.909128">
<time>2014-08-04T17:47:08Z</time></trkpt>
<trkpt lat="25.161377" lon="101.909068">
<time>2014-08-04T17:47:09Z</time></trkpt>
<trkpt lat="25.161257" lon="101.909008">
<time>2014-08-04T17:47:10Z</time></trkpt>
<trkpt lat="25.161177" lon="101.908968">
<time>2014-08-04T17:47:11Z</time></trkpt>
<trkpt lat="25.161127" lon="101.908938">
<time>2014-08-04T17:47:12Z</time></trkpt>
<trkpt lat="25.161077" lon="101.908898">
<time>2014-08-04T17:47:13Z</time></trkpt>
<trkpt lat="25.161007" lon="101.908838">
<time>2014-08-04T17:47:14Z</time></trkpt>
<trkpt lat="25.160987" lon="101.908808">
<time>2014-08-04T17:47:15Z</time></trkpt>
<trkpt lat="25.160967" lon="101.908788">
<time>2014-08-04T17:47:16Z</time></trkpt>
<trkpt lat="25.160937" lon="101.908728">
<time>2014-08-04T17:47:17Z</time></trkpt>
<trkpt lat="25.160907" lon="101.908688">
<time>2014-08-04T17:47:18Z</time></trkpt>
<trkpt lat="25.160877" lon="101.908628">
<time>2014-08-04T17:47:19Z</time></trkpt>
<trkpt lat="25.160848" lon="101.908548">
<time>2014-08-04T17:47:20Z</time></trkpt>
<trkpt lat="25.160818" lon="101.908488">
<time>2014-08-04T17:47:21Z</time></trkpt>
<trkpt lat="25.160808" lon="101.908428">
<time>2014-08-04T17:47:22Z</time></trkpt>
<trkpt lat="25.160788" lon="101.908378">
<time>2014-08-04T17:47:23Z</time></trkpt>
<trkpt lat="25.160778" lon="101.908328">
<time>2014-08-04T17:47:24Z</time></trkpt>
<trkpt lat="25.160758" lon="101.908218">
<time>2014-08-04T17:47:25Z</time></trkpt>
<trkpt lat="25.160748" lon="101.908178">
<time>2014-08-04T17:47:26Z</time></trkpt>
<trkpt lat="25.160738" lon="101.908138">
<time>2014-08-04T17:47:27Z</time></trkpt>
<trkpt lat="25.160738" lon="101.908088">
<time>2014-08-04T17:47:28Z</time></trkpt>
<trkpt lat="25.160738" lon="101.908028">
<time>2014-08-04T17:47:29Z</time></trkpt>
<trkpt lat="25.160738" lon="101.907968">
<time>2014-08-04T17:47:30Z</time></trkpt>
<trkpt lat="25.160738" lon="101.907928">
<time>2014-08-04T17:47:31Z</time></trkpt>
<trkpt lat="25.160738" lon="101.907898">
<time>2014-08-04T17:47:32Z</time></trkpt>
<trkpt lat="25.160748" lon="101.907838">
<time>2014-08-04T17:47:33Z</time></trkpt>
<trkpt lat="25.160768" lon="101.907758">
<time>2014-08-04T17:47:34Z</time></trkpt>
<trkpt lat="25.160798" lon="101.907668">
<time>2014-08-04T17:47:35Z</time></trkpt>
<trkpt lat="25.160828" lon="101.907608">
<time>2014-08-04T17:47:36Z</time></trkpt>
<trkpt lat="25.160908" lon="101.907428">
<time>2014-08-04T17:47:37Z</time></trkpt>
<trkpt lat="25.160978" lon="101.907278">
<time>2014-08-04T17:47:38Z</time></trkpt>
<trkpt lat="25.161028" lon="101.907168">
<time>2014-08-04T17:47:39Z</time></trkpt>
<trkpt lat="25.161128" lon="101.906978">
<time>2014-08-04T17:47:40Z</time></trkpt>
<trkpt lat="25.161218" lon="101.906818">
<time>2014-08-04T17:47:41Z</time></trkpt>
<trkpt lat="25.161288" lon="101.906688">
<time>2014-08-04T17:47:42Z</time></trkpt>
<trkpt lat="25.161388" lon="101.906528">
<time>2014-08-04T17:47:43Z</time></trkpt>
<trkpt lat="25.161458" lon="101.906408">
<time>2014-08-04T17:47:44Z</time></trkpt>
<trkpt lat="25.161528" lon="101.906298">
<time>2014-08-04T17:47:45Z</time></trkpt>
<trkpt lat="25.161588" lon="101.906188">
<time>2014-08-04T17:47:46Z</time></trkpt>
<trkpt lat="25.161618" lon="101.906128">
<time>2014-08-04T17:47:47Z</time></trkpt>
<trkpt lat="25.161628" lon="101.906078">
<time>2014-08-04T17:47:48Z</time></trkpt>
<trkpt lat="25.161638" lon="101.906018">
<time>2014-08-04T17:47:49Z</time></trkpt>
<trkpt lat="25.161648" lon="101.905938">
<time>2014-08-04T17:47:50Z</time></trkpt>
<trkpt lat="25.161648" lon="101.905868">
<time>2014-08-04T17:47:51Z</time></trkpt>
<trkpt lat="25.161648" lon="101.905808">
<time>2014-08-04T17:47:52Z</time></trkpt>
<trkpt lat="25.161628" lon="101.905738">
<time>2014-08-04T17:47:53Z</time></trkpt>
<trkpt lat="25.161608" lon="101.905658">
<time>2014-08-04T17:47:54Z</time></trkpt>
<trkpt lat="25.161578" lon="101.905598">
<time>2014-08-04T17:47:55Z</time></trkpt>
<trkpt lat="25.161548" lon="101.905538">
<time>2014-08-04T17:47:56Z</time></trkpt>
<trkpt lat="25.161468" lon="101.905378">
<time>2014-08-04T17:47:57Z</time></trkpt>
<trkpt lat="25.161388" lon="101.905248">
<time>2014-08-04T17:47:58Z</time></trkpt>
<trkpt lat="25.161358" lon="101.905188">
<time>2014-08-04T17:47:59Z</time></trkpt>
<trkpt lat="25.161268" lon="101.905058">
<time>2014-08-04T17:48:00Z</time></trkpt>
<trkpt lat="25.161069" lon="101.904778">
<time>2014-08-04T17:48:01Z</time></trkpt>
<trkpt lat="25.160909" lon="101.904568">
<time>2014-08-04T17:48:02Z</time></trkpt>
<trkpt lat="25.160699" lon="101.904358">
<time>2014-08-04T17:48:03Z</time></trkpt>
<trkpt lat="25.160509" lon="101.904168">
<time>2014-08-04T17:48:04Z</time></trkpt>
<trkpt lat="25.159909" lon="101.903587">
<time>2014-08-04T17:48:05Z</time></trkpt>
<trkpt lat="25.159509" lon="101.903157">
<time>2014-08-04T17:48:06Z</time></trkpt>
<trkpt lat="25.159209" lon="101.902867">
<time>2014-08-04T17:48:07Z</time></trkpt>
<trkpt lat="25.159069" lon="101.902697">
<time>2014-08-04T17:48:08Z</time></trkpt>
<trkpt lat="25.159009" lon="101.902617">
<time>2014-08-04T17:48:09Z</time></trkpt>
<trkpt lat="25.158949" lon="101.902557">
<time>2014-08-04T17:48:10Z</time></trkpt>
<trkpt lat="25.158949" lon="101.902557">
<time>2014-08-04T17:48:11Z</time></trkpt>
<trkpt lat="25.159079" lon="101.902367">
<time>2014-08-04T17:48:12Z</time></trkpt>
<trkpt lat="25.159129" lon="101.902277">
<time>2014-08-04T17:48:13Z</time></trkpt>
<trkpt lat="25.159179" lon="101.902207">
<time>2014-08-04T17:48:14Z</time></trkpt>
<trkpt lat="25.159219" lon="101.902147">
<time>2014-08-04T17:48:15Z</time></trkpt>
<trkpt lat="25.159279" lon="101.902077">
<time>2014-08-04T17:48:16Z</time></trkpt>
<trkpt lat="25.159379" lon="101.901977">
<time>2014-08-04T17:48:17Z</time></trkpt>
<trkpt lat="25.159499" lon="101.901877">
<time>2014-08-04T17:48:18Z</time></trkpt>
<trkpt lat="25.159659" lon="101.901757">
<time>2014-08-04T17:48:19Z</time></trkpt>
<trkpt lat="25.159929" lon="101.901587">
<time>2014-08-04T17:48:20Z</time></trkpt>
<trkpt lat="25.160159" lon="101.901457">
<time>2014-08-04T17:48:21Z</time></trkpt>
<trkpt lat="25.160489" lon="101.901277">
<time>2014-08-04T17:48:22Z</time></trkpt>
<trkpt lat="25.160859" lon="101.901097">
<time>2014-08-04T17:48:23Z</time></trkpt>
<trkpt lat="25.161049" lon="101.901007">
<time>2014-08-04T17:48:24Z</time></trkpt>
<trkpt lat="25.161109" lon="101.900987">
<time>2014-08-04T17:48:25Z</time></trkpt>
<trkpt lat="25.161399" lon="101.900837">
<time>2014-08-04T17:48:26Z</time></trkpt>
<trkpt lat="25.161529" lon="101.900767">
<time>2014-08-04T17:48:27Z</time></trkpt>
<trkpt lat="25.161649" lon="101.900687">
<time>2014-08-04T17:48:28Z</time></trkpt>
<trkpt lat="25.161749" lon="101.900597">
<time>2014-08-04T17:48:29Z</time></trkpt>
<trkpt lat="25.161859" lon="101.900507">
<time>2014-08-04T17:48:30Z</time></trkpt>
<trkpt lat="25.162049" lon="101.900307">
<time>2014-08-04T17:48:31Z</time></trkpt>
<trkpt lat="25.162339" lon="101.899997">
<time>2014-08-04T17:48:32Z</time></trkpt>
<trkpt lat="25.162739" lon="101.899516">
<time>2014-08-04T17:48:33Z</time></trkpt>
<trkpt lat="25.162879" lon="101.899356">
<time>2014-08-04T17:48:34Z</time></trkpt>
<trkpt lat="25.163059" lon="101.899146">
<time>2014-08-04T17:48:35Z</time></trkpt>
<trkpt lat="25.163169" lon="101.899036">
<time>2014-08-04T17:48:36Z</time></trkpt>
<trkpt lat="25.163229" lon="101.898966">
<time>2014-08-04T17:48:37Z</time></trkpt>
<trkpt lat="25.163309" lon="101.898896">
<time>2014-08-04T17:48:38Z</time></trkpt>
<trkpt lat="25.163439" lon="101.898776">
<time>2014-08-04T17:48:39Z</time></trkpt>
<trkpt lat="25.163639" lon="101.898646">
<time>2014-08-04T17:48:40Z</time></trkpt>
<trkpt lat="25.163729" lon="101.898596">
<time>2014-08-04T17:48:41Z</time></trkpt>
<trkpt lat="25.163809" lon="101.898526">
<time>2014-08-04T17:48:42Z</time></trkpt>
<trkpt lat="25.163849" lon="101.898486">
<time>2014-08-04T17:48:43Z</time></trkpt>
<trkpt lat="25.163889" lon="101.898426">
<time>2014-08-04T17:48:44Z</time></trkpt>
<trkpt lat="25.163929" lon="101.898356">
<time>2014-08-04T17:48:45Z</time></trkpt>
<trkpt lat="25.163939" lon="101.898306">
<time>2014-08-04T17:48:46Z</time></trkpt>
<trkpt lat="25.163949" lon="101.898256">
<time>2014-08-04T17:48:47Z</time></trkpt>
<trkpt lat="25.163929" lon="101.898176">
<time>2014-08-04T17:48:48Z</time></trkpt>
<trkpt lat="25.163909" lon="101.898106">
<time>2014-08-04T17:48:49Z</time></trkpt>
<trkpt lat="25.163879" lon="101.898026">
<time>2014-08-04T17:48:50Z</time></trkpt>
<trkpt lat="25.163839" lon="101.897946">
<time>2014-08-04T17:48:51Z</time></trkpt>
<trkpt lat="25.163699" lon="101.897756">
<time>2014-08-04T17:48:52Z</time></trkpt>
<trkpt lat="25.163559" lon="101.897586">
<time>2014-08-04T17:48:53Z</time></trkpt>
<trkpt lat="25.163499" lon="101.897506">
<time>2014-08-04T17:48:54Z</time></trkpt>
<trkpt lat="25.163469" lon="101.897445">
<time>2014-08-04T17:48:55Z</time></trkpt>
<trkpt lat="25.163439" lon="101.897355">
<time>2014-08-04T17:48:56Z</time></trkpt>
<trkpt lat="25.163419" lon="101.897285">
<time>2014-08-04T17:48:57Z</time></trkpt>
<trkpt lat="25.163419" lon="101.897205">
<time>2014-08-04T17:48:58Z</time></trkpt>
<trkpt lat="25.163429" lon="101.897135">
<time>2014-08-04T17:48:59Z</time></trkpt>
<trkpt lat="25.163449" lon="101.897065">
<time>2014-08-04T17:49:00Z</time></trkpt>
<trkpt lat="25.163469" lon="101.897005">
<time>2014-08-04T17:49:01Z</time></trkpt>
<trkpt lat="25.163509" lon="101.896935">
<time>2014-08-04T17:49:02Z</time></trkpt>
<trkpt lat="25.163559" lon="101.896875">
<time>2014-08-04T17:49:03Z</time></trkpt>
<trkpt lat="25.163638" lon="101.896815">
<time>2014-08-04T17:49:04Z</time></trkpt>
<trkpt lat="25.163758" lon="101.896725">
<time>2014-08-04T17:49:05Z</time></trkpt>
<trkpt lat="25.163908" lon="101.896635">
<time>2014-08-04T17:49:06Z</time></trkpt>
<trkpt lat="25.164078" lon="101.896545">
<time>2014-08-04T17:49:07Z</time></trkpt>
<trkpt lat="25.164178" lon="101.896495">
<time>2014-08-04T17:49:08Z</time></trkpt>
<trkpt lat="25.164358" lon="101.896415">
<time>2014-08-04T17:49:09Z</time></trkpt>
<trkpt lat="25.164588" lon="101.896315">
<time>2014-08-04T17:49:10Z</time></trkpt>
<trkpt lat="25.164818" lon="101.896215">
<time>2014-08-04T17:49:11Z</time></trkpt>
<trkpt lat="25.164928" lon="101.896165">
<time>2014-08-04T17:49:12Z</time></trkpt>
<trkpt lat="25.165008" lon="101.896125">
<time>2014-08-04T17:49:13Z</time></trkpt>
<trkpt lat="25.165078" lon="101.896085">
<time>2014-08-04T17:49:14Z</time></trkpt>
<trkpt lat="25.165148" lon="101.896035">
<time>2014-08-04T17:49:15Z</time></trkpt>
<trkpt lat="25.165198" lon="101.895975">
<time>2014-08-04T17:49:16Z</time></trkpt>
<trkpt lat="25.165248" lon="101.895905">
<time>2014-08-04T17:49:17Z</time></trkpt>
<trkpt lat="25.165258" lon="101.895865">
<time>2014-08-04T17:49:18Z</time></trkpt>
<trkpt lat="25.165278" lon="101.895805">
<time>2014-08-04T17:49:19Z</time></trkpt>
<trkpt lat="25.165288" lon="101.895755">
<time>2014-08-04T17:49:20Z</time></trkpt>
<trkpt lat="25.165278" lon="101.895685">
<time>2014-08-04T17:49:21Z</time></trkpt>
<trkpt lat="25.165268" lon="101.895625">
<time>2014-08-04T17:49:22Z</time></trkpt>
<trkpt lat="25.165258" lon="101.895584">
<time>2014-08-04T17:49:23Z</time></trkpt>
<trkpt lat="25.165238" lon="101.895514">
<time>2014-08-04T17:49:24Z</time></trkpt>
<trkpt lat="25.165208" lon="101.895464">
<time>2014-08-04T17:49:25Z</time></trkpt>
<trkpt lat="25.165178" lon="101.895424">
<time>2014-08-04T17:49:26Z</time></trkpt>
<trkpt lat="25.165138" lon="101.895374">
<time>2014-08-04T17:49:27Z</time></trkpt>
<trkpt lat="25.165088" lon="101.895324">
<time>2014-08-04T17:49:28Z</time></trkpt>
<trkpt lat="25.165008" lon="101.895264">
<time>2014-08-04T17:49:29Z</time></trkpt>
<trkpt lat="25.164838" lon="101.895164">
<time>2014-08-04T17:49:30Z</time></trkpt>
<trkpt lat="25.164658" lon="101.895084">
<time>2014-08-04T17:49:31Z</time></trkpt>
<trkpt lat="25.164488" lon="101.894994">
<time>2014-08-04T17:49:32Z</time></trkpt>
<trkpt lat="25.164338" lon="101.894924">
<time>2014-08-04T17:49:33Z</time></trkpt>
<trkpt lat="25.164248" lon="101.894874">
<time>2014-08-04T17:49:34Z</time></trkpt>
<trkpt lat="25.164148" lon="101.894804">
<time>2014-08-04T17:49:35Z</time></trkpt>
<trkpt lat="25.164078" lon="101.894744">
<time>2014-08-04T17:49:36Z</time></trkpt>
<trkpt lat="25.164018" lon="101.894684">
<time>2014-08-04T17:49:37Z</time></trkpt>
<trkpt lat="25.163958" lon="101.894604">
<time>2014-08-04T17:49:38Z</time></trkpt>
<trkpt lat="25.163898" lon="101.894524">
<time>2014-08-04T17:49:39Z</time></trkpt>
<trkpt lat="25.163848" lon="101.894424">
<time>2014-08-04T17:49:40Z</time></trkpt>
<trkpt lat="25.163788" lon="101.894304">
<time>2014-08-04T17:49:41Z</time></trkpt>
<trkpt lat="25.163708" lon="101.894104">
<time>2014-08-04T17:49:42Z</time></trkpt>
<trkpt lat="25.163578" lon="101.893773">
<time>2014-08-04T17:49:43Z</time></trkpt>
<trkpt lat="25.163408" lon="101.893433">
<time>2014-08-04T17:49:44Z</time></trkpt>
<trkpt lat="25.163228" lon="101.893023">
<time>2014-08-04T17:49:45Z</time></trkpt>
<trkpt lat="25.163118" lon="101.892773">
<time>2014-08-04T17:49:46Z</time></trkpt>
<trkpt lat="25.163037" lon="101.892663">
<time>2014-08-04T17:49:47Z</time></trkpt>
<trkpt lat="25.162957" lon="101.892583">
<time>2014-08-04T17:49:48Z</time></trkpt>
<trkpt lat="25.162907" lon="101.892533">
<time>2014-08-04T17:49:49Z</time></trkpt>
<trkpt lat="25.162837" lon="101.892483">
<time>2014-08-04T17:49:50Z</time></trkpt>
<trkpt lat="25.162767" lon="101.892453">
<time>2014-08-04T17:49:51Z</time></trkpt>
<trkpt lat="25.162647" lon="101.892433">
<time>2014-08-04T17:49:52Z</time></trkpt>
<trkpt lat="25.162507" lon="101.892413">
<time>2014-08-04T17:49:53Z</time></trkpt>
<trkpt lat="25.162367" lon="101.892403">
<time>2014-08-04T17:49:54Z</time></trkpt>
<trkpt lat="25.162257" lon="101.892403">
<time>2014-08-04T17:49:55Z</time></trkpt>
<trkpt lat="25.162017" lon="101.892413">
<time>2014-08-04T17:49:56Z</time></trkpt>
<trkpt lat="25.161807" lon="101.892413">
<time>2014-08-04T17:49:57Z</time></trkpt>
<trkpt lat="25.161677" lon="101.892403">
<time>2014-08-04T17:49:58Z</time></trkpt>
<trkpt lat="25.161567" lon="101.892393">
<time>2014-08-04T17:49:59Z</time></trkpt>
<trkpt lat="25.161487" lon="101.892363">
<time>2014-08-04T17:50:00Z</time></trkpt>
<trkpt lat="25.161397" lon="101.892323">
<time>2014-08-04T17:50:01Z</time></trkpt>
<trkpt lat="25.161317" lon="101.892283">
<time>2014-08-04T17:50:02Z</time></trkpt>
<trkpt lat="25.161237" lon="101.892233">
<time>2014-08-04T17:50:03Z</time></trkpt>
<trkpt lat="25.161177" lon="101.892172">
<time>2014-08-04T17:50:04Z</time></trkpt>
<trkpt lat="25.161107" lon="101.892102">
<time>2014-08-04T17:50:05Z</time></trkpt>
<trkpt lat="25.161047" lon="101.892022">
<time>2014-08-04T17:50:06Z</time></trkpt>
<trkpt lat="25.160997" lon="101.891952">
<time>2014-08-04T17:50:07Z</time></trkpt>
<trkpt lat="25.160947" lon="101.891872">
<time>2014-08-04T17:50:08Z</time></trkpt>
<trkpt lat="25.160897" lon="101.891782">
<time>2014-08-04T17:50:09Z</time></trkpt>
<trkpt lat="25.160857" lon="101.891692">
<time>2014-08-04T17:50:10Z</time></trkpt>
<trkpt lat="25.160837" lon="101.891612">
<time>2014-08-04T17:50:11Z</time></trkpt>
<trkpt lat="25.160817" lon="101.891522">
<time>2014-08-04T17:50:12Z</time></trkpt>
<trkpt lat="25.160797" lon="101.891362">
<time>2014-08-04T17:50:13Z</time></trkpt>
<trkpt lat="25.160767" lon="101.891162">
<time>2014-08-04T17:50:14Z</time></trkpt>
<trkpt lat="25.160757" lon="101.890992">
<time>2014-08-04T17:50:15Z</time></trkpt>
<trkpt lat="25.160727" lon="101.890852">
<time>2014-08-04T17:50:16Z</time></trkpt>
<trkpt lat="25.160677" lon="101.890741">
<time>2014-08-04T17:50:17Z</time></trkpt>
<trkpt lat="25.160627" lon="101.890641">
<time>2014-08-04T17:50:18Z</time></trkpt>
<trkpt lat="25.160537" lon="101.890541">
<time>2014-08-04T17:50:19Z</time></trkpt>
<trkpt lat="25.160477" lon="101.890481">
<time>2014-08-04T17:50:20Z</time></trkpt>
<trkpt lat="25.160317" lon="101.890371">
<time>2014-08-04T17:50:21Z</time></trkpt>
<trkpt lat="25.160037" lon="101.890201">
<time>2014-08-04T17:50:22Z</time></trkpt>
<trkpt lat="25.159907" lon="101.890101">
<time>2014-08-04T17:50:23Z</time></trkpt>
<trkpt lat="25.159777" lon="101.889991">
<time>2014-08-04T17:50:24Z</time></trkpt>
<trkpt lat="25.159657" lon="101.889851">
<time>2014-08-04T17:50:25Z</time></trkpt>
<trkpt lat="25.159556" lon="101.889711">
<time>2014-08-04T17:50:26Z</time></trkpt>
<trkpt lat="25.159506" lon="101.889591">
<time>2014-08-04T17:50:27Z</time></trkpt>
<trkpt lat="25.159456" lon="101.88946">
<time>2014-08-04T17:50:28Z</time></trkpt>
<trkpt lat="25.159436" lon="101.88935">
<time>2014-08-04T17:50:29Z</time></trkpt>
<trkpt lat="25.159416" lon="101.88917">
<time>2014-08-04T17:50:30Z</time></trkpt>
<trkpt lat="25.159406" lon="101.88891">
<time>2014-08-04T17:50:31Z</time></trkpt>
<trkpt lat="25.159396" lon="101.8887">
<time>2014-08-04T17:50:32Z</time></trkpt>
<trkpt lat="25.159396" lon="101.8885">
<time>2014-08-04T17:50:33Z</time></trkpt>
<trkpt lat="25.159406" lon="101.88837">
<time>2014-08-04T17:50:34Z</time></trkpt>
<trkpt lat="25.159426" lon="101.888249">
<time>2014-08-04T17:50:35Z</time></trkpt>
<trkpt lat="25.159446" lon="101.888089">
<time>2014-08-04T17:50:36Z</time></trkpt>
<trkpt lat="25.159476" lon="101.887909">
<time>2014-08-04T17:50:37Z</time></trkpt>
<trkpt lat="25.159486" lon="101.887779">
<time>2014-08-04T17:50:38Z</time></trkpt>
<trkpt lat="25.159495" lon="101.887659">
<time>2014-08-04T17:50:39Z</time></trkpt>
<trkpt lat="25.159485" lon="101.887549">
<time>2014-08-04T17:50:40Z</time></trkpt>
<trkpt lat="25.159455" lon="101.887459">
<time>2014-08-04T17:50:41Z</time></trkpt>
<trkpt lat="25.159435" lon="101.887379">
<time>2014-08-04T17:50:42Z</time></trkpt>
<trkpt lat="25.159395" lon="101.887299">
<time>2014-08-04T17:50:43Z</time></trkpt>
<trkpt lat="25.159345" lon="101.887208">
<time>2014-08-04T17:50:44Z</time></trkpt>
<trkpt lat="25.159285" lon="101.887138">
<time>2014-08-04T17:50:45Z</time></trkpt>
<trkpt lat="25.159225" lon="101.887068">
<time>2014-08-04T17:50:46Z</time></trkpt>
<trkpt lat="25.159155" lon="101.886988">
<time>2014-08-04T17:50:47Z</time></trkpt>
<trkpt lat="25.159055" lon="101.886898">
<time>2014-08-04T17:50:48Z</time></trkpt>
<trkpt lat="25.158945" lon="101.886788">
<time>2014-08-04T17:50:49Z</time></trkpt>
<trkpt lat="25.158805" lon="101.886658">
<time>2014-08-04T17:50:50Z</time></trkpt>
<trkpt lat="25.158725" lon="101.886568">
<time>2014-08-04T17:50:51Z</time></trkpt>
<trkpt lat="25.158675" lon="101.886498">
<time>2014-08-04T17:50:52Z</time></trkpt>
<trkpt lat="25.158625" lon="101.886408">
<time>2014-08-04T17:50:53Z</time></trkpt>
<trkpt lat="25.158535" lon="101.886218">
<time>2014-08-04T17:50:54Z</time></trkpt>
<trkpt lat="25.158374" lon="101.885827">
<time>2014-08-04T17:50:55Z</time></trkpt>
<trkpt lat="25.158274" lon="101.885537">
<time>2014-08-04T17:50:56Z</time></trkpt>
<trkpt lat="25.158224" lon="101.885347">
<time>2014-08-04T17:50:57Z</time></trkpt>
<trkpt lat="25.158194" lon="101.885207">
<time>2014-08-04T17:50:58Z</time></trkpt>
<trkpt lat="25.158184" lon="101.885117">
<time>2014-08-04T17:50:59Z</time></trkpt>
<trkpt lat="25.158184" lon="101.885016">
<time>2014-08-04T17:51:00Z</time></trkpt>
<trkpt lat="25.158184" lon="101.884936">
<time>2014-08-04T17:51:01Z</time></trkpt>
<trkpt lat="25.158184" lon="101.884636">
<time>2014-08-04T17:51:02Z</time></trkpt>
<trkpt lat="25.158193" lon="101.884286">
<time>2014-08-04T17:51:03Z</time></trkpt>
<trkpt lat="25.158203" lon="101.883975">
<time>2014-08-04T17:51:04Z</time></trkpt>
<trkpt lat="25.158223" lon="101.883755">
<time>2014-08-04T17:51:05Z</time></trkpt>
<trkpt lat="25.158223" lon="101.883605">
<time>2014-08-04T17:51:06Z</time></trkpt>
<trkpt lat="25.158223" lon="101.883495">
<time>2014-08-04T17:51:07Z</time></trkpt>
<trkpt lat="25.158213" lon="101.883405">
<time>2014-08-04T17:51:08Z</time></trkpt>
<trkpt lat="25.158193" lon="101.883315">
<time>2014-08-04T17:51:09Z</time></trkpt>
<trkpt lat="25.158163" lon="101.883255">
<time>2014-08-04T17:51:10Z</time></trkpt>
<trkpt lat="25.158133" lon="101.883184">
<time>2014-08-04T17:51:11Z</time></trkpt>
<trkpt lat="25.158083" lon="101.883114">
<time>2014-08-04T17:51:12Z</time></trkpt>
<trkpt lat="25.158033" lon="101.883054">
<time>2014-08-04T17:51:13Z</time></trkpt>
<trkpt lat="25.157963" lon="101.882984">
<time>2014-08-04T17:51:14Z</time></trkpt>
<trkpt lat="25.157883" lon="101.882934">
<time>2014-08-04T17:51:15Z</time></trkpt>
<trkpt lat="25.157813" lon="101.882904">
<time>2014-08-04T17:51:16Z</time></trkpt>
<trkpt lat="25.157763" lon="101.882884">
<time>2014-08-04T17:51:17Z</time></trkpt>
<trkpt lat="25.157673" lon="101.882884">
<time>2014-08-04T17:51:18Z</time></trkpt>
<trkpt lat="25.157583" lon="101.882894">
<time>2014-08-04T17:51:19Z</time></trkpt>
<trkpt lat="25.157483" lon="101.882914">
<time>2014-08-04T17:51:20Z</time></trkpt>
<trkpt lat="25.157423" lon="101.882934">
<time>2014-08-04T17:51:21Z</time></trkpt>
<trkpt lat="25.157373" lon="101.882964">
<time>2014-08-04T17:51:22Z</time></trkpt>
<trkpt lat="25.157323" lon="101.883014">
<time>2014-08-04T17:51:23Z</time></trkpt>
<trkpt lat="25.157263" lon="101.883054">
<time>2014-08-04T17:51:24Z</time></trkpt>
<trkpt lat="25.157183" lon="101.883144">
<time>2014-08-04T17:51:25Z</time></trkpt>
<trkpt lat="25.156963" lon="101.883415">
<time>2014-08-04T17:51:26Z</time></trkpt>
<trkpt lat="25.156763" lon="101.883635">
<time>2014-08-04T17:51:27Z</time></trkpt>
<trkpt lat="25.156613" lon="101.883815">
<time>2014-08-04T17:51:28Z</time></trkpt>
<trkpt lat="25.156363" lon="101.884106">
<time>2014-08-04T17:51:29Z</time></trkpt>
<trkpt lat="25.156294" lon="101.884176">
<time>2014-08-04T17:51:30Z</time></trkpt>
<trkpt lat="25.156194" lon="101.884276">
<time>2014-08-04T17:51:31Z</time></trkpt>
<trkpt lat="25.156124" lon="101.884346">
<time>2014-08-04T17:51:32Z</time></trkpt>
<trkpt lat="25.156064" lon="101.884396">
<time>2014-08-04T17:51:33Z</time></trkpt>
<trkpt lat="25.155994" lon="101.884436">
<time>2014-08-04T17:51:34Z</time></trkpt>
<trkpt lat="25.155924" lon="101.884456">
<time>2014-08-04T17:51:35Z</time></trkpt>
<trkpt lat="25.155854" lon="101.884456">
<time>2014-08-04T17:51:36Z</time></trkpt>
<trkpt lat="25.155804" lon="101.884466">
<time>2014-08-04T17:51:37Z</time></trkpt>
<trkpt lat="25.155734" lon="101.884446">
<time>2014-08-04T17:51:38Z</time></trkpt>
<trkpt lat="25.155614" lon="101.884416">
<time>2014-08-04T17:51:39Z</time></trkpt>
<trkpt lat="25.155344" lon="101.884316">
<time>2014-08-04T17:51:40Z</time></trkpt>
<trkpt lat="25.155074" lon="101.884206">
<time>2014-08-04T17:51:41Z</time></trkpt>
<trkpt lat="25.154824" lon="101.884106">
<time>2014-08-04T17:51:42Z</time></trkpt>
<trkpt lat="25.154603" lon="101.884005">
<time>2014-08-04T17:51:43Z</time></trkpt>
<trkpt lat="25.154393" lon="101.883915">
<time>2014-08-04T17:51:44Z</time></trkpt>
<trkpt lat="25.154263" lon="101.883845">
<time>2014-08-04T17:51:45Z</time></trkpt>
<trkpt lat="25.154143" lon="101.883765">
<time>2014-08-04T17:51:46Z</time></trkpt>
<trkpt lat="25.154043" lon="101.883675">
<time>2014-08-04T17:51:47Z</time></trkpt>
<trkpt lat="25.153973" lon="101.883605">
<time>2014-08-04T17:51:48Z</time></trkpt>
<trkpt lat="25.153903" lon="101.883515">
<time>2014-08-04T17:51:49Z</time></trkpt>
<trkpt lat="25.153853" lon="101.883425">
<time>2014-08-04T17:51:50Z</time></trkpt>
<trkpt lat="25.153803" lon="101.883325">
<time>2014-08-04T17:51:51Z</time></trkpt>
<trkpt lat="25.153763" lon="101.883215">
<time>2014-08-04T17:51:52Z</time></trkpt>
<trkpt lat="25.153733" lon="101.883054">
<time>2014-08-04T17:51:53Z</time></trkpt>
<trkpt lat="25.153673" lon="101.882734">
<time>2014-08-04T17:51:54Z</time></trkpt>
<trkpt lat="25.153622" lon="101.882474">
<time>2014-08-04T17:51:55Z</time></trkpt>
<trkpt lat="25.153592" lon="101.882354">
<time>2014-08-04T17:51:56Z</time></trkpt>
<trkpt lat="25.153562" lon="101.882254">
<time>2014-08-04T17:51:57Z</time></trkpt>
<trkpt lat="25.153522" lon="101.882153">
<time>2014-08-04T17:51:58Z</time></trkpt>
<trkpt lat="25.153482" lon="101.882083">
<time>2014-08-04T17:51:59Z</time></trkpt>
<trkpt lat="25.153462" lon="101.882023">
<time>2014-08-04T17:52:00Z</time></trkpt>
<trkpt lat="25.153412" lon="101.881973">
<time>2014-08-04T17:52:01Z</time></trkpt>
<trkpt lat="25.153332" lon="101.881883">
<time>2014-08-04T17:52:02Z</time></trkpt>
<trkpt lat="25.153232" lon="101.881773">
<time>2014-08-04T17:52:03Z</time></trkpt>
<trkpt lat="25.153102" lon="101.881663">
<time>2014-08-04T17:52:04Z</time></trkpt>
<trkpt lat="25.152972" lon="101.881543">
<time>2014-08-04T17:52:05Z</time></trkpt>
<trkpt lat="25.152882" lon="101.881473">
<time>2014-08-04T17:52:06Z</time></trkpt>
<trkpt lat="25.152832" lon="101.881443">
<time>2014-08-04T17:52:07Z</time></trkpt>
<trkpt lat="25.152802" lon="101.881423">
<time>2014-08-04T17:52:08Z</time></trkpt>
<trkpt lat="25.152782" lon="101.881423">
<time>2014-08-04T17:52:09Z</time></trkpt>
<trkpt lat="25.152752" lon="101.881413">
<time>2014-08-04T17:52:10Z</time></trkpt>
<trkpt lat="25.152702" lon="101.881413">
<time>2014-08-04T17:52:11Z</time></trkpt>
<trkpt lat="25.152662" lon="101.881423">
<time>2014-08-04T17:52:12Z</time></trkpt>
<trkpt lat="25.152622" lon="101.881433">
<time>2014-08-04T17:52:13Z</time></trkpt>
<trkpt lat="25.152572" lon="101.881453">
<time>2014-08-04T17:52:14Z</time></trkpt>
<trkpt lat="25.152542" lon="101.881473">
<time>2014-08-04T17:52:15Z</time></trkpt>
<trkpt lat="25.152502" lon="101.881513">
<time>2014-08-04T17:52:16Z</time></trkpt>
<trkpt lat="25.152462" lon="101.881553">
<time>2014-08-04T17:52:17Z</time></trkpt>
<trkpt lat="25.152352" lon="101.881663">
<time>2014-08-04T17:52:18Z</time></trkpt>
<trkpt lat="25.152172" lon="101.881863">
<time>2014-08-04T17:52:19Z</time></trkpt>
<trkpt lat="25.152012" lon="101.882033">
<time>2014-08-04T17:52:20Z</time></trkpt>
<trkpt lat="25.151822" lon="101.882234">
<time>2014-08-04T17:52:21Z</time></trkpt>
<trkpt lat="25.151663" lon="101.882414">
<time>2014-08-04T17:52:22Z</time></trkpt>
<trkpt lat="25.151523" lon="101.882564">
<time>2014-08-04T17:52:23Z</time></trkpt>
<trkpt lat="25.151433" lon="101.882644">
<time>2014-08-04T17:52:24Z</time></trkpt>
<trkpt lat="25.151293" lon="101.882744">
<time>2014-08-04T17:52:25Z</time></trkpt>
<trkpt lat="25.151123" lon="101.882844">
<time>2014-08-04T17:52:26Z</time></trkpt>
<trkpt lat="25.150973" lon="101.882934">
<time>2014-08-04T17:52:27Z</time></trkpt>
<trkpt lat="25.150843" lon="101.883004">
<time>2014-08-04T17:52:28Z</time></trkpt>
<trkpt lat="25.150693" lon="101.883075">
<time>2014-08-04T17:52:29Z</time></trkpt>
<trkpt lat="25.150513" lon="101.883135">
<time>2014-08-04T17:52:30Z</time></trkpt>
<trkpt lat="25.150333" lon="101.883185">
<time>2014-08-04T17:52:31Z</time></trkpt>
<trkpt lat="25.150223" lon="101.883215">
<time>2014-08-04T17:52:32Z</time></trkpt>
<trkpt lat="25.150143" lon="101.883215">
<time>2014-08-04T17:52:33Z</time></trkpt>
<trkpt lat="25.150053" lon="101.883195">
<time>2014-08-04T17:52:34Z</time></trkpt>
<trkpt lat="25.149993" lon="101.883175">
<time>2014-08-04T17:52:35Z</time></trkpt>
<trkpt lat="25.149953" lon="101.883155">
<time>2014-08-04T17:52:36Z</time></trkpt>
<trkpt lat="25.149903" lon="101.883115">
<time>2014-08-04T17:52:37Z</time></trkpt>
<trkpt lat="25.149843" lon="101.883055">
<time>2014-08-04T17:52:38Z</time></trkpt>
<trkpt lat="25.149783" lon="101.882994">
<time>2014-08-04T17:52:39Z</time></trkpt>
<trkpt lat="25.149713" lon="101.882894">
<time>2014-08-04T17:52:40Z</time></trkpt>
<trkpt lat="25.149503" lon="101.882604">
<time>2014-08-04T17:52:41Z</time></trkpt>
<trkpt lat="25.149343" lon="101.882404">
<time>2014-08-04T17:52:42Z</time></trkpt>
<trkpt lat="25.149142" lon="101.882134">
<time>2014-08-04T17:52:43Z</time></trkpt>
<trkpt lat="25.149042" lon="101.881983">
<time>2014-08-04T17:52:44Z</time></trkpt>
<trkpt lat="25.148942" lon="101.881793">
<time>2014-08-04T17:52:45Z</time></trkpt>
<trkpt lat="25.148862" lon="101.881643">
<time>2014-08-04T17:52:46Z</time></trkpt>
<trkpt lat="25.148742" lon="101.881393">
<time>2014-08-04T17:52:47Z</time></trkpt>
<trkpt lat="25.148672" lon="101.881263">
<time>2014-08-04T17:52:48Z</time></trkpt>
<trkpt lat="25.148612" lon="101.881152">
<time>2014-08-04T17:52:49Z</time></trkpt>
<trkpt lat="25.148502" lon="101.880992">
<time>2014-08-04T17:52:50Z</time></trkpt>
<trkpt lat="25.148371" lon="101.880822">
<time>2014-08-04T17:52:51Z</time></trkpt>
<trkpt lat="25.148311" lon="101.880742">
<time>2014-08-04T17:52:52Z</time></trkpt>
<trkpt lat="25.148241" lon="101.880672">
<time>2014-08-04T17:52:53Z</time></trkpt>
<trkpt lat="25.148201" lon="101.880632">
<time>2014-08-04T17:52:54Z</time></trkpt>
<trkpt lat="25.148111" lon="101.880552">
<time>2014-08-04T17:52:55Z</time></trkpt>
<trkpt lat="25.148031" lon="101.880502">
<time>2014-08-04T17:52:56Z</time></trkpt>
<trkpt lat="25.147981" lon="101.880472">
<time>2014-08-04T17:52:57Z</time></trkpt>
<trkpt lat="25.147921" lon="101.880452">
<time>2014-08-04T17:52:58Z</time></trkpt>
<trkpt lat="25.147851" lon="101.880432">
<time>2014-08-04T17:52:59Z</time></trkpt>
<trkpt lat="25.147761" lon="101.880412">
<time>2014-08-04T17:53:00Z</time></trkpt>
<trkpt lat="25.147591" lon="101.880382">
<time>2014-08-04T17:53:01Z</time></trkpt>
<trkpt lat="25.147451" lon="101.880352">
<time>2014-08-04T17:53:02Z</time></trkpt>
<trkpt lat="25.147371" lon="101.880331">
<time>2014-08-04T17:53:03Z</time></trkpt>
<trkpt lat="25.147281" lon="101.880291">
<time>2014-08-04T17:53:04Z</time></trkpt>
<trkpt lat="25.147211" lon="101.880261">
<time>2014-08-04T17:53:05Z</time></trkpt>
<trkpt lat="25.147171" lon="101.880231">
<time>2014-08-04T17:53:06Z</time></trkpt>
<trkpt lat="25.147131" lon="101.880211">
<time>2014-08-04T17:53:07Z</time></trkpt>
<trkpt lat="25.147091" lon="101.880161">
<time>2014-08-04T17:53:08Z</time></trkpt>
<trkpt lat="25.147001" lon="101.880071">
<time>2014-08-04T17:53:09Z</time></trkpt>
<trkpt lat="25.146901" lon="101.879971">
<time>2014-08-04T17:53:10Z</time></trkpt>
<trkpt lat="25.146851" lon="101.879911">
<time>2014-08-04T17:53:11Z</time></trkpt>
<trkpt lat="25.146761" lon="101.879861">
<time>2014-08-04T17:53:12Z</time></trkpt>
<trkpt lat="25.146691" lon="101.879811">
<time>2014-08-04T17:53:13Z</time></trkpt>
<trkpt lat="25.146591" lon="101.879771">
<time>2014-08-04T17:53:14Z</time></trkpt>
<trkpt lat="25.146481" lon="101.879731">
<time>2014-08-04T17:53:15Z</time></trkpt>
<trkpt lat="25.146361" lon="101.879701">
<time>2014-08-04T17:53:16Z</time></trkpt>
<trkpt lat="25.146251" lon="101.879681">
<time>2014-08-04T17:53:17Z</time></trkpt>
<trkpt lat="25.146171" lon="101.879681">
<time>2014-08-04T17:53:18Z</time></trkpt>
<trkpt lat="25.146001" lon="101.879661">
<time>2014-08-04T17:53:19Z</time></trkpt>
<trkpt lat="25.145831" lon="101.879661">
<time>2014-08-04T17:53:20Z</time></trkpt>
<trkpt lat="25.145721" lon="101.879651">
<time>2014-08-04T17:53:21Z</time></trkpt>
<trkpt lat="25.145591" lon="101.879651">
<time>2014-08-04T17:53:22Z</time></trkpt>
<trkpt lat="25.145491" lon="101.879641">
<time>2014-08-04T17:53:23Z</time></trkpt>
<trkpt lat="25.145421" lon="101.879631">
<time>2014-08-04T17:53:24Z</time></trkpt>
<trkpt lat="25.145341" lon="101.879601">
<time>2014-08-04T17:53:25Z</time></trkpt>
<trkpt lat="25.145271" lon="101.879581">
<time>2014-08-04T17:53:26Z</time></trkpt>
<trkpt lat="25.145191" lon="101.879541">
<time>2014-08-04T17:53:27Z</time></trkpt>
<trkpt lat="25.145081" lon="101.879491">
<time>2014-08-04T17:53:28Z</time></trkpt>
<trkpt lat="25.144981" lon="101.87943">
<time>2014-08-04T17:53:29Z</time></trkpt>
<trkpt lat="25.144931" lon="101.8794">
<time>2014-08-04T17:53:30Z</time></trkpt>
<trkpt lat="25.14483" lon="101.87933">
<time>2014-08-04T17:53:31Z</time></trkpt>
<trkpt lat="25.14473" lon="101.87924">
<time>2014-08-04T17:53:32Z</time></trkpt>
<trkpt lat="25.14467" lon="101.87917">
<time>2014-08-04T17:53:33Z</time></trkpt>
<trkpt lat="25.14461" lon="101.87911">
<time>2014-08-04T17:53:34Z</time></trkpt>
<trkpt lat="25.14455" lon="101.87902">
<time>2014-08-04T17:53:35Z</time></trkpt>
<trkpt lat="25.1445" lon="101.87894">
<time>2014-08-04T17:53:36Z</time></trkpt>
<trkpt lat="25.14444" lon="101.87881">
<time>2014-08-04T17:53:37Z</time></trkpt>
<trkpt lat="25.14441" lon="101.87872">
<time>2014-08-04T17:53:38Z</time></trkpt>
<trkpt lat="25.14439" lon="101.878649">
<time>2014-08-04T17:53:39Z</time></trkpt>
<trkpt lat="25.14438" lon="101.878589">
<time>2014-08-04T17:53:40Z</time></trkpt>
<trkpt lat="25.14437" lon="101.878509">
<time>2014-08-04T17:53:41Z</time></trkpt>
<trkpt lat="25.14437" lon="101.878439">
<time>2014-08-04T17:53:42Z</time></trkpt>
<trkpt lat="25.14437" lon="101.878379">
<time>2014-08-04T17:53:43Z</time></trkpt>
<trkpt lat="25.14438" lon="101.878299">
<time>2014-08-04T17:53:44Z</time></trkpt>
<trkpt lat="25.144399" lon="101.878209">
<time>2014-08-04T17:53:45Z</time></trkpt>
<trkpt lat="25.144409" lon="101.878139">
<time>2014-08-04T17:53:46Z</time></trkpt>
<trkpt lat="25.144419" lon="101.878069">
<time>2014-08-04T17:53:47Z</time></trkpt>
<trkpt lat="25.144419" lon="101.878009">
<time>2014-08-04T17:53:48Z</time></trkpt>
<trkpt lat="25.144409" lon="101.877969">
<time>2014-08-04T17:53:49Z</time></trkpt>
<trkpt lat="25.144409" lon="101.877919">
<time>2014-08-04T17:53:50Z</time></trkpt>
<trkpt lat="25.144399" lon="101.877868">
<time>2014-08-04T17:53:51Z</time></trkpt>
<trkpt lat="25.144379" lon="101.877798">
<time>2014-08-04T17:53:52Z</time></trkpt>
<trkpt lat="25.144349" lon="101.877718">
<time>2014-08-04T17:53:53Z</time></trkpt>
<trkpt lat="25.144319" lon="101.877638">
<time>2014-08-04T17:53:54Z</time></trkpt>
<trkpt lat="25.144289" lon="101.877568">
<time>2014-08-04T17:53:55Z</time></trkpt>
<trkpt lat="25.144249" lon="101.877478">
<time>2014-08-04T17:53:56Z</time></trkpt>
<trkpt lat="25.144179" lon="101.877378">
<time>2014-08-04T17:53:57Z</time></trkpt>
<trkpt lat="25.144109" lon="101.877288">
<time>2014-08-04T17:53:58Z</time></trkpt>
<trkpt lat="25.144049" lon="101.877208">
<time>2014-08-04T17:53:59Z</time></trkpt>
<trkpt lat="25.143979" lon="101.877138">
<time>2014-08-04T17:54:00Z</time></trkpt>
<trkpt lat="25.143888" lon="101.877047">
<time>2014-08-04T17:54:01Z</time></trkpt>
<trkpt lat="25.143688" lon="101.876837">
<time>2014-08-04T17:54:02Z</time></trkpt>
<trkpt lat="25.143468" lon="101.876607">
<time>2014-08-04T17:54:03Z</time></trkpt>
<trkpt lat="25.143398" lon="101.876517">
<time>2014-08-04T17:54:04Z</time></trkpt>
<trkpt lat="25.143368" lon="101.876457">
<time>2014-08-04T17:54:05Z</time></trkpt>
<trkpt lat="25.143328" lon="101.876387">
<time>2014-08-04T17:54:06Z</time></trkpt>
<trkpt lat="25.143308" lon="101.876326">
<time>2014-08-04T17:54:07Z</time></trkpt>
<trkpt lat="25.143288" lon="101.876276">
<time>2014-08-04T17:54:08Z</time></trkpt>
<trkpt lat="25.143268" lon="101.876206">
<time>2014-08-04T17:54:09Z</time></trkpt>
<trkpt lat="25.143268" lon="101.876136">
<time>2014-08-04T17:54:10Z</time></trkpt>
<trkpt lat="25.143268" lon="101.876046">
<time>2014-08-04T17:54:11Z</time></trkpt>
<trkpt lat="25.143267" lon="101.875996">
<time>2014-08-04T17:54:12Z</time></trkpt>
<trkpt lat="25.143297" lon="101.875896">
<time>2014-08-04T17:54:13Z</time></trkpt>
<trkpt lat="25.143317" lon="101.875816">
<time>2014-08-04T17:54:14Z</time></trkpt>
<trkpt lat="25.143367" lon="101.875686">
<time>2014-08-04T17:54:15Z</time></trkpt>
<trkpt lat="25.143437" lon="101.875515">
<time>2014-08-04T17:54:16Z</time></trkpt>
<trkpt lat="25.143537" lon="101.875275">
<time>2014-08-04T17:54:17Z</time></trkpt>
<trkpt lat="25.143656" lon="101.875015">
<time>2014-08-04T17:54:18Z</time></trkpt>
<trkpt lat="25.143856" lon="101.874534">
<time>2014-08-04T17:54:19Z</time></trkpt>
<trkpt lat="25.143916" lon="101.874394">
<time>2014-08-04T17:54:20Z</time></trkpt>
<trkpt lat="25.143976" lon="101.874233">
<time>2014-08-04T17:54:21Z</time></trkpt>
<trkpt lat="25.143996" lon="101.874153">
<time>2014-08-04T17:54:22Z</time></trkpt>
<trkpt lat="25.144035" lon="101.874033">
<time>2014-08-04T17:54:23Z</time></trkpt>
<trkpt lat="25.144055" lon="101.873913">
<time>2014-08-04T17:54:24Z</time></trkpt>
<trkpt lat="25.144065" lon="101.873813">
<time>2014-08-04T17:54:25Z</time></trkpt>
<trkpt lat="25.144065" lon="101.873683">
<time>2014-08-04T17:54:26Z</time></trkpt>
<trkpt lat="25.144055" lon="101.873542">
<time>2014-08-04T17:54:27Z</time></trkpt>
<trkpt lat="25.144035" lon="101.873362">
<time>2014-08-04T17:54:28Z</time></trkpt>
<trkpt lat="25.144015" lon="101.873172">
<time>2014-08-04T17:54:29Z</time></trkpt>
<trkpt lat="25.143994" lon="101.872932">
<time>2014-08-04T17:54:30Z</time></trkpt>
<trkpt lat="25.143954" lon="101.872671">
<time>2014-08-04T17:54:31Z</time></trkpt>
<trkpt lat="25.143934" lon="101.872561">
<time>2014-08-04T17:54:32Z</time></trkpt>
<trkpt lat="25.143904" lon="101.872441">
<time>2014-08-04T17:54:33Z</time></trkpt>
<trkpt lat="25.143864" lon="101.872341">
<time>2014-08-04T17:54:34Z</time></trkpt>
<trkpt lat="25.143804" lon="101.872231">
<time>2014-08-04T17:54:35Z</time></trkpt>
<trkpt lat="25.143753" lon="101.87217">
<time>2014-08-04T17:54:36Z</time></trkpt>
<trkpt lat="25.143603" lon="101.87202">
<time>2014-08-04T17:54:37Z</time></trkpt>
<trkpt lat="25.143503" lon="101.87193">
<time>2014-08-04T17:54:38Z</time></trkpt>
<trkpt lat="25.143383" lon="101.87183">
<time>2014-08-04T17:54:39Z</time></trkpt>
<trkpt lat="25.143283" lon="101.87174">
<time>2014-08-04T17:54:40Z</time></trkpt>
<trkpt lat="25.143213" lon="101.87169">
<time>2014-08-04T17:54:41Z</time></trkpt>
<trkpt lat="25.143113" lon="101.87162">
<time>2014-08-04T17:54:42Z</time></trkpt>
<trkpt lat="25.143063" lon="101.8716">
<time>2014-08-04T17:54:43Z</time></trkpt>
<trkpt lat="25.143023" lon="101.87158">
<time>2014-08-04T17:54:44Z</time></trkpt>
<trkpt lat="25.142983" lon="101.87157">
<time>2014-08-04T17:54:45Z</time></trkpt>
<trkpt lat="25.142943" lon="101.87157">
<time>2014-08-04T17:54:46Z</time></trkpt>
<trkpt lat="25.142903" lon="101.87157">
<time>2014-08-04T17:54:47Z</time></trkpt>
<trkpt lat="25.142853" lon="101.87158">
<time>2014-08-04T17:54:48Z</time></trkpt>
<trkpt lat="25.142793" lon="101.8716">
<time>2014-08-04T17:54:49Z</time></trkpt>
<trkpt lat="25.142753" lon="101.87162">
<time>2014-08-04T17:54:50Z</time></trkpt>
<trkpt lat="25.142713" lon="101.87164">
<time>2014-08-04T17:54:51Z</time></trkpt>
<trkpt lat="25.142673" lon="101.87168">
<time>2014-08-04T17:54:52Z</time></trkpt>
<trkpt lat="25.142623" lon="101.87174">
<time>2014-08-04T17:54:53Z</time></trkpt>
<trkpt lat="25.142493" lon="101.87189">
<time>2014-08-04T17:54:54Z</time></trkpt>
<trkpt lat="25.142383" lon="101.87203">
<time>2014-08-04T17:54:55Z</time></trkpt>
<trkpt lat="25.142264" lon="101.87218">
<time>2014-08-04T17:54:56Z</time></trkpt>
<trkpt lat="25.142054" lon="101.872381">
<time>2014-08-04T17:54:57Z</time></trkpt>
<trkpt lat="25.142004" lon="101.872441">
<time>2014-08-04T17:54:58Z</time></trkpt>
<trkpt lat="25.141954" lon="101.872471">
<time>2014-08-04T17:54:59Z</time></trkpt>
<trkpt lat="25.141904" lon="101.872501">
<time>2014-08-04T17:55:00Z</time></trkpt>
<trkpt lat="25.141834" lon="101.872521">
<time>2014-08-04T17:55:01Z</time></trkpt>
<trkpt lat="25.141784" lon="101.872531">
<time>2014-08-04T17:55:02Z</time></trkpt>
<trkpt lat="25.141744" lon="101.872531">
<time>2014-08-04T17:55:03Z</time></trkpt>
<trkpt lat="25.141684" lon="101.872521">
<time>2014-08-04T17:55:04Z</time></trkpt>
<trkpt lat="25.141644" lon="101.872511">
<time>2014-08-04T17:55:05Z</time></trkpt>
<trkpt lat="25.141584" lon="101.872491">
<time>2014-08-04T17:55:06Z</time></trkpt>
<trkpt lat="25.141504" lon="101.872451">
<time>2014-08-04T17:55:07Z</time></trkpt>
<trkpt lat="25.141454" lon="101.872411">
<time>2014-08-04T17:55:08Z</time></trkpt>
<trkpt lat="25.141384" lon="101.872341">
<time>2014-08-04T17:55:09Z</time></trkpt>
<trkpt lat="25.141304" lon="101.872241">
<time>2014-08-04T17:55:10Z</time></trkpt>
<trkpt lat="25.141173" lon="101.87206">
<time>2014-08-04T17:55:11Z</time></trkpt>
<trkpt lat="25.141053" lon="101.87187">
<time>2014-08-04T17:55:12Z</time></trkpt>
<trkpt lat="25.140863" lon="101.87161">
<time>2014-08-04T17:55:13Z</time></trkpt>
<trkpt lat="25.140633" lon="101.871289">
<time>2014-08-04T17:55:14Z</time></trkpt>
<trkpt lat="25.140422" lon="101.870969">
<time>2014-08-04T17:55:15Z</time></trkpt>
<trkpt lat="25.140152" lon="101.870548">
<time>2014-08-04T17:55:16Z</time></trkpt>
<trkpt lat="25.140012" lon="101.870338">
<time>2014-08-04T17:55:17Z</time></trkpt>
<trkpt lat="25.139942" lon="101.870258">
<time>2014-08-04T17:55:18Z</time></trkpt>
<trkpt lat="25.139871" lon="101.870167">
<time>2014-08-04T17:55:19Z</time></trkpt>
<trkpt lat="25.139761" lon="101.870067">
<time>2014-08-04T17:55:20Z</time></trkpt>
<trkpt lat="25.139681" lon="101.869997">
<time>2014-08-04T17:55:21Z</time></trkpt>
<trkpt lat="25.139591" lon="101.869937">
<time>2014-08-04T17:55:22Z</time></trkpt>
<trkpt lat="25.139501" lon="101.869887">
<time>2014-08-04T17:55:23Z</time></trkpt>
<trkpt lat="25.139401" lon="101.869827">
<time>2014-08-04T17:55:24Z</time></trkpt>
<trkpt lat="25.139251" lon="101.869747">
<time>2014-08-04T17:55:25Z</time></trkpt>
<trkpt lat="25.139081" lon="101.869667">
<time>2014-08-04T17:55:26Z</time></trkpt>
<trkpt lat="25.138851" lon="101.869556">
<time>2014-08-04T17:55:27Z</time></trkpt>
<trkpt lat="25.138631" lon="101.869446">
<time>2014-08-04T17:55:28Z</time></trkpt>
<trkpt lat="25.138451" lon="101.869356">
<time>2014-08-04T17:55:29Z</time></trkpt>
<trkpt lat="25.13816" lon="101.869186">
<time>2014-08-04T17:55:30Z</time></trkpt>
<trkpt lat="25.13792" lon="101.869056">
<time>2014-08-04T17:55:31Z</time></trkpt>
<trkpt lat="25.13767" lon="101.868936">
<time>2014-08-04T17:55:32Z</time></trkpt>
<trkpt lat="25.13737" lon="101.868765">
<time>2014-08-04T17:55:33Z</time></trkpt>
<trkpt lat="25.13717" lon="101.868645">
<time>2014-08-04T17:55:34Z</time></trkpt>
<trkpt lat="25.13704" lon="101.868565">
<time>2014-08-04T17:55:35Z</time></trkpt>
<trkpt lat="25.13689" lon="101.868465">
<time>2014-08-04T17:55:36Z</time></trkpt>
<trkpt lat="25.136759" lon="101.868375">
<time>2014-08-04T17:55:37Z</time></trkpt>
<trkpt lat="25.136639" lon="101.868274">
<time>2014-08-04T17:55:38Z</time></trkpt>
<trkpt lat="25.136559" lon="101.868194">
<time>2014-08-04T17:55:39Z</time></trkpt>
<trkpt lat="25.136519" lon="101.868144">
<time>2014-08-04T17:55:40Z</time></trkpt>
<trkpt lat="25.136479" lon="101.868084">
<time>2014-08-04T17:55:41Z</time></trkpt>
<trkpt lat="25.136449" lon="101.868014">
<time>2014-08-04T17:55:42Z</time></trkpt>
<trkpt lat="25.136419" lon="101.867924">
<time>2014-08-04T17:55:43Z</time></trkpt>
<trkpt lat="25.136399" lon="101.867864">
<time>2014-08-04T17:55:44Z</time></trkpt>
<trkpt lat="25.136389" lon="101.867724">
<time>2014-08-04T17:55:45Z</time></trkpt>
<trkpt lat="25.136379" lon="101.867603">
<time>2014-08-04T17:55:46Z</time></trkpt>
<trkpt lat="25.136388" lon="101.867443">
<time>2014-08-04T17:55:47Z</time></trkpt>
<trkpt lat="25.136408" lon="101.867293">
<time>2014-08-04T17:55:48Z</time></trkpt>
<trkpt lat="25.136418" lon="101.867203">
<time>2014-08-04T17:55:49Z</time></trkpt>
<trkpt lat="25.136428" lon="101.867143">
<time>2014-08-04T17:55:50Z</time></trkpt>
<trkpt lat="25.136448" lon="101.867062">
<time>2014-08-04T17:55:51Z</time></trkpt>
<trkpt lat="25.136478" lon="101.867012">
<time>2014-08-04T17:55:52Z</time></trkpt>
<trkpt lat="25.136518" lon="101.866942">
<time>2014-08-04T17:55:53Z</time></trkpt>
<trkpt lat="25.136578" lon="101.866872">
<time>2014-08-04T17:55:54Z</time></trkpt>
<trkpt lat="25.136638" lon="101.866822">
<time>2014-08-04T17:55:55Z</time></trkpt>
<trkpt lat="25.136757" lon="101.866732">
<time>2014-08-04T17:55:56Z</time></trkpt>
<trkpt lat="25.136927" lon="101.866622">
<time>2014-08-04T17:55:57Z</time></trkpt>
<trkpt lat="25.137167" lon="101.866471">
<time>2014-08-04T17:55:58Z</time></trkpt>
<trkpt lat="25.137367" lon="101.866331">
<time>2014-08-04T17:55:59Z</time></trkpt>
<trkpt lat="25.137607" lon="101.866171">
<time>2014-08-04T17:56:00Z</time></trkpt>
<trkpt lat="25.137866" lon="101.865981">
<time>2014-08-04T17:56:01Z</time></trkpt>
<trkpt lat="25.138246" lon="101.86572">
<time>2014-08-04T17:56:02Z</time></trkpt>
<trkpt lat="25.138516" lon="101.86554">
<time>2014-08-04T17:56:03Z</time></trkpt>
<trkpt lat="25.138606" lon="101.86546">
<time>2014-08-04T17:56:04Z</time></trkpt>
<trkpt lat="25.138666" lon="101.8654">
<time>2014-08-04T17:56:05Z</time></trkpt>
<trkpt lat="25.138725" lon="101.865339">
<time>2014-08-04T17:56:06Z</time></trkpt>
<trkpt lat="25.138765" lon="101.865269">
<time>2014-08-04T17:56:07Z</time></trkpt>
<trkpt lat="25.138805" lon="101.865199">
<time>2014-08-04T17:56:08Z</time></trkpt>
<trkpt lat="25.138835" lon="101.865129">
<time>2014-08-04T17:56:09Z</time></trkpt>
<trkpt lat="25.138855" lon="101.865029">
<time>2014-08-04T17:56:10Z</time></trkpt>
<trkpt lat="25.138875" lon="101.864939">
<time>2014-08-04T17:56:11Z</time></trkpt>
<trkpt lat="25.138875" lon="101.864818">
<time>2014-08-04T17:56:12Z</time></trkpt>
<trkpt lat="25.138875" lon="101.864718">
<time>2014-08-04T17:56:13Z</time></trkpt>
<trkpt lat="25.138854" lon="101.864538">
<time>2014-08-04T17:56:14Z</time></trkpt>
<trkpt lat="25.138844" lon="101.864448">
<time>2014-08-04T17:56:15Z</time></trkpt>
<trkpt lat="25.138824" lon="101.864328">
<time>2014-08-04T17:56:16Z</time></trkpt>
<trkpt lat="25.138794" lon="101.864227">
<time>2014-08-04T17:56:17Z</time></trkpt>
<trkpt lat="25.138734" lon="101.863997">
<time>2014-08-04T17:56:18Z</time></trkpt>
<trkpt lat="25.138693" lon="101.863857">
<time>2014-08-04T17:56:19Z</time></trkpt>
<trkpt lat="25.138603" lon="101.863586">
<time>2014-08-04T17:56:20Z</time></trkpt>
<trkpt lat="25.138533" lon="101.863376">
<time>2014-08-04T17:56:21Z</time></trkpt>
<trkpt lat="25.138513" lon="101.863276">
<time>2014-08-04T17:56:22Z</time></trkpt>
<trkpt lat="25.138493" lon="101.863196">
<time>2014-08-04T17:56:23Z</time></trkpt>
<trkpt lat="25.138483" lon="101.863136">
<time>2014-08-04T17:56:24Z</time></trkpt>
<trkpt lat="25.138472" lon="101.863055">
<time>2014-08-04T17:56:25Z</time></trkpt>
<trkpt lat="25.138482" lon="101.862975">
<time>2014-08-04T17:56:26Z</time></trkpt>
<trkpt lat="25.138492" lon="101.862895">
<time>2014-08-04T17:56:27Z</time></trkpt>
<trkpt lat="25.138502" lon="101.862825">
<time>2014-08-04T17:56:28Z</time></trkpt>
<trkpt lat="25.138532" lon="101.862735">
<time>2014-08-04T17:56:29Z</time></trkpt>
<trkpt lat="25.138572" lon="101.862645">
<time>2014-08-04T17:56:30Z</time></trkpt>
<trkpt lat="25.138632" lon="101.862544">
<time>2014-08-04T17:56:31Z</time></trkpt>
<trkpt lat="25.138662" lon="101.862504">
<time>2014-08-04T17:56:32Z</time></trkpt>
<trkpt lat="25.138712" lon="101.862464">
<time>2014-08-04T17:56:33Z</time></trkpt>
<trkpt lat="25.138791" lon="101.862394">
<time>2014-08-04T17:56:34Z</time></trkpt>
<trkpt lat="25.138921" lon="101.862314">
<time>2014-08-04T17:56:35Z</time></trkpt>
<trkpt lat="25.139061" lon="101.862224">
<time>2014-08-04T17:56:36Z</time></trkpt>
<trkpt lat="25.139151" lon="101.862144">
<time>2014-08-04T17:56:37Z</time></trkpt>
<trkpt lat="25.139231" lon="101.862064">
<time>2014-08-04T17:56:38Z</time></trkpt>
<trkpt lat="25.139341" lon="101.861913">
<time>2014-08-04T17:56:39Z</time></trkpt>
<trkpt lat="25.139421" lon="101.861803">
<time>2014-08-04T17:56:40Z</time></trkpt>
<trkpt lat="25.13952" lon="101.861643">
<time>2014-08-04T17:56:41Z</time></trkpt>
<trkpt lat="25.13968" lon="101.861412">
<time>2014-08-04T17:56:42Z</time></trkpt>
<trkpt lat="25.13984" lon="101.861182">
<time>2014-08-04T17:56:43Z</time></trkpt>
<trkpt lat="25.139959" lon="101.861012">
<time>2014-08-04T17:56:44Z</time></trkpt>
<trkpt lat="25.140239" lon="101.860651">
<time>2014-08-04T17:56:45Z</time></trkpt>
<trkpt lat="25.140399" lon="101.86042">
<time>2014-08-04T17:56:46Z</time></trkpt>
<trkpt lat="25.140608" lon="101.86014">
<time>2014-08-04T17:56:47Z</time></trkpt>
<trkpt lat="25.140758" lon="101.859909">
<time>2014-08-04T17:56:48Z</time></trkpt>
<trkpt lat="25.140927" lon="101.859629">
<time>2014-08-04T17:56:49Z</time></trkpt>
<trkpt lat="25.141107" lon="101.859328">
<time>2014-08-04T17:56:50Z</time></trkpt>
<trkpt lat="25.141296" lon="101.859018">
<time>2014-08-04T17:56:51Z</time></trkpt>
<trkpt lat="25.141506" lon="101.858657">
<time>2014-08-04T17:56:52Z</time></trkpt>
<trkpt lat="25.141586" lon="101.858517">
<time>2014-08-04T17:56:53Z</time></trkpt>
<trkpt lat="25.141665" lon="101.858356">
<time>2014-08-04T17:56:54Z</time></trkpt>
<trkpt lat="25.141685" lon="101.858296">
<time>2014-08-04T17:56:55Z</time></trkpt>
<trkpt lat="25.141715" lon="101.858216">
<time>2014-08-04T17:56:56Z</time></trkpt>
<trkpt lat="25.141725" lon="101.858156">
<time>2014-08-04T17:56:57Z</time></trkpt>
<trkpt lat="25.141735" lon="101.858076">
<time>2014-08-04T17:56:58Z</time></trkpt>
<trkpt lat="25.141735" lon="101.857996">
<time>2014-08-04T17:56:59Z</time></trkpt>
<trkpt lat="25.141725" lon="101.857926">
<time>2014-08-04T17:57:00Z</time></trkpt>
<trkpt lat="25.141715" lon="101.857855">
<time>2014-08-04T17:57:01Z</time></trkpt>
<trkpt lat="25.141695" lon="101.857785">
<time>2014-08-04T17:57:02Z</time></trkpt>
<trkpt lat="25.141664" lon="101.857705">
<time>2014-08-04T17:57:03Z</time></trkpt>
<trkpt lat="25.141604" lon="101.857595">
<time>2014-08-04T17:57:04Z</time></trkpt>
<trkpt lat="25.141554" lon="101.857505">
<time>2014-08-04T17:57:05Z</time></trkpt>
<trkpt lat="25.141444" lon="101.857324">
<time>2014-08-04T17:57:06Z</time></trkpt>
<trkpt lat="25.141374" lon="101.857234">
<time>2014-08-04T17:57:07Z</time></trkpt>
<trkpt lat="25.141284" lon="101.857144">
<time>2014-08-04T17:57:08Z</time></trkpt>
<trkpt lat="25.141183" lon="101.857044">
<time>2014-08-04T17:57:09Z</time></trkpt>
<trkpt lat="25.141063" lon="101.856964">
<time>2014-08-04T17:57:10Z</time></trkpt>
<trkpt lat="25.140873" lon="101.856813">
<time>2014-08-04T17:57:11Z</time></trkpt>
<trkpt lat="25.140753" lon="101.856733">
<time>2014-08-04T17:57:12Z</time></trkpt>
<trkpt lat="25.140523" lon="101.856583">
<time>2014-08-04T17:57:13Z</time></trkpt>
<trkpt lat="25.140403" lon="101.856513">
<time>2014-08-04T17:57:14Z</time></trkpt>
<trkpt lat="25.140273" lon="101.856453">
<time>2014-08-04T17:57:15Z</time></trkpt>
<trkpt lat="25.140203" lon="101.856433">
<time>2014-08-04T17:57:16Z</time></trkpt>
<trkpt lat="25.140143" lon="101.856423">
<time>2014-08-04T17:57:17Z</time></trkpt>
<trkpt lat="25.140083" lon="101.856413">
<time>2014-08-04T17:57:18Z</time></trkpt>
<trkpt lat="25.140003" lon="101.856403">
<time>2014-08-04T17:57:19Z</time></trkpt>
<trkpt lat="25.139933" lon="101.856403">
<time>2014-08-04T17:57:20Z</time></trkpt>
<trkpt lat="25.139843" lon="101.856403">
<time>2014-08-04T17:57:21Z</time></trkpt>
<trkpt lat="25.139663" lon="101.856423">
<time>2014-08-04T17:57:22Z</time></trkpt>
<trkpt lat="25.139503" lon="101.856443">
<time>2014-08-04T17:57:23Z</time></trkpt>
<trkpt lat="25.139363" lon="101.856483">
<time>2014-08-04T17:57:24Z</time></trkpt>
<trkpt lat="25.139083" lon="101.856553">
<time>2014-08-04T17:57:25Z</time></trkpt>
<trkpt lat="25.138893" lon="101.856583">
<time>2014-08-04T17:57:26Z</time></trkpt>
<trkpt lat="25.138693" lon="101.856613">
<time>2014-08-04T17:57:27Z</time></trkpt>
<trkpt lat="25.138453" lon="101.856633">
<time>2014-08-04T17:57:28Z</time></trkpt>
<trkpt lat="25.138313" lon="101.856623">
<time>2014-08-04T17:57:29Z</time></trkpt>
<trkpt lat="25.138263" lon="101.856613">
<time>2014-08-04T17:57:30Z</time></trkpt>
<trkpt lat="25.138203" lon="101.856603">
<time>2014-08-04T17:57:31Z</time></trkpt>
<trkpt lat="25.138153" lon="101.856593">
<time>2014-08-04T17:57:32Z</time></trkpt>
<trkpt lat="25.138113" lon="101.856573">
<time>2014-08-04T17:57:33Z</time></trkpt>
<trkpt lat="25.138053" lon="101.856523">
<time>2014-08-04T17:57:34Z</time></trkpt>
<trkpt lat="25.138003" lon="101.856473">
<time>2014-08-04T17:57:35Z</time></trkpt>
<trkpt lat="25.137963" lon="101.856423">
<time>2014-08-04T17:57:36Z</time></trkpt>
<trkpt lat="25.137903" lon="101.856313">
<time>2014-08-04T17:57:37Z</time></trkpt>
<trkpt lat="25.137822" lon="101.856142">
<time>2014-08-04T17:57:38Z</time></trkpt>
<trkpt lat="25.137752" lon="101.855992">
<time>2014-08-04T17:57:39Z</time></trkpt>
<trkpt lat="25.137642" lon="101.855791">
<time>2014-08-04T17:57:40Z</time></trkpt>
<trkpt lat="25.137521" lon="101.855591">
<time>2014-08-04T17:57:41Z</time></trkpt>
<trkpt lat="25.137401" lon="101.855421">
<time>2014-08-04T17:57:42Z</time></trkpt>
<trkpt lat="25.137251" lon="101.85519">
<time>2014-08-04T17:57:43Z</time></trkpt>
<trkpt lat="25.137111" lon="101.855">
<time>2014-08-04T17:57:44Z</time></trkpt>
<trkpt lat="25.13694" lon="101.854769">
<time>2014-08-04T17:57:45Z</time></trkpt>
<trkpt lat="25.13681" lon="101.854609">
<time>2014-08-04T17:57:46Z</time></trkpt>
<trkpt lat="25.13667" lon="101.854449">
<time>2014-08-04T17:57:47Z</time></trkpt>
<trkpt lat="25.13657" lon="101.854359">
<time>2014-08-04T17:57:48Z</time></trkpt>
<trkpt lat="25.136459" lon="101.854268">
<time>2014-08-04T17:57:49Z</time></trkpt>
<trkpt lat="25.136389" lon="101.854218">
<time>2014-08-04T17:57:50Z</time></trkpt>
<trkpt lat="25.136279" lon="101.854158">
<time>2014-08-04T17:57:51Z</time></trkpt>
<trkpt lat="25.136199" lon="101.854128">
<time>2014-08-04T17:57:52Z</time></trkpt>
<trkpt lat="25.136039" lon="101.854078">
<time>2014-08-04T17:57:53Z</time></trkpt>
<trkpt lat="25.135919" lon="101.854048">
<time>2014-08-04T17:57:54Z</time></trkpt>
<trkpt lat="25.135679" lon="101.853998">
<time>2014-08-04T17:57:55Z</time></trkpt>
<trkpt lat="25.135409" lon="101.853948">
<time>2014-08-04T17:57:56Z</time></trkpt>
<trkpt lat="25.135149" lon="101.853908">
<time>2014-08-04T17:57:57Z</time></trkpt>
<trkpt lat="25.134669" lon="101.853838">
<time>2014-08-04T17:57:58Z</time></trkpt>
<trkpt lat="25.134119" lon="101.853747">
<time>2014-08-04T17:57:59Z</time></trkpt>
<trkpt lat="25.133589" lon="101.853597">
<time>2014-08-04T17:58:00Z</time></trkpt>
<trkpt lat="25.133388" lon="101.853547">
<time>2014-08-04T17:58:01Z</time></trkpt>
<trkpt lat="25.132868" lon="101.853407">
<time>2014-08-04T17:58:02Z</time></trkpt>
<trkpt lat="25.132628" lon="101.853327">
<time>2014-08-04T17:58:03Z</time></trkpt>
<trkpt lat="25.132258" lon="101.853196">
<time>2014-08-04T17:58:04Z</time></trkpt>
<trkpt lat="25.131928" lon="101.853086">
<time>2014-08-04T17:58:05Z</time></trkpt>
<trkpt lat="25.131738" lon="101.853006">
<time>2014-08-04T17:58:06Z</time></trkpt>
<trkpt lat="25.131458" lon="101.852886">
<time>2014-08-04T17:58:07Z</time></trkpt>
<trkpt lat="25.131207" lon="101.852776">
<time>2014-08-04T17:58:08Z</time></trkpt>
<trkpt lat="25.130797" lon="101.852555">
<time>2014-08-04T17:58:09Z</time></trkpt>
<trkpt lat="25.130257" lon="101.852264">
<time>2014-08-04T17:58:10Z</time></trkpt>
<trkpt lat="25.130016" lon="101.852134">
<time>2014-08-04T17:58:11Z</time></trkpt>
<trkpt lat="25.129766" lon="101.851984">
<time>2014-08-04T17:58:12Z</time></trkpt>
<trkpt lat="25.129496" lon="101.851763">
<time>2014-08-04T17:58:13Z</time></trkpt>
<trkpt lat="25.129246" lon="101.851553">
<time>2014-08-04T17:58:14Z</time></trkpt>
<trkpt lat="25.128955" lon="101.851303">
<time>2014-08-04T17:58:15Z</time></trkpt>
<trkpt lat="25.128625" lon="101.851012">
<time>2014-08-04T17:58:16Z</time></trkpt>
<trkpt lat="25.128374" lon="101.850801">
<time>2014-08-04T17:58:17Z</time></trkpt>
<trkpt lat="25.128194" lon="101.850671">
<time>2014-08-04T17:58:18Z</time></trkpt>
<trkpt lat="25.128114" lon="101.850621">
<time>2014-08-04T17:58:19Z</time></trkpt>
<trkpt lat="25.128004" lon="101.850561">
<time>2014-08-04T17:58:20Z</time></trkpt>
<trkpt lat="25.127954" lon="101.850541">
<time>2014-08-04T17:58:21Z</time></trkpt>
<trkpt lat="25.127904" lon="101.850521">
<time>2014-08-04T17:58:22Z</time></trkpt>
<trkpt lat="25.127784" lon="101.850471">
<time>2014-08-04T17:58:23Z</time></trkpt>
<trkpt lat="25.127684" lon="101.850451">
<time>2014-08-04T17:58:24Z</time></trkpt>
<trkpt lat="25.127594" lon="101.850431">
<time>2014-08-04T17:58:25Z</time></trkpt>
<trkpt lat="25.127434" lon="101.850411">
<time>2014-08-04T17:58:26Z</time></trkpt>
<trkpt lat="25.127284" lon="101.850391">
<time>2014-08-04T17:58:27Z</time></trkpt>
<trkpt lat="25.127184" lon="101.850391">
<time>2014-08-04T17:58:28Z</time></trkpt>
<trkpt lat="25.126794" lon="101.850381">
<time>2014-08-04T17:58:29Z</time></trkpt>
<trkpt lat="25.126424" lon="101.850391">
<time>2014-08-04T17:58:30Z</time></trkpt>
<trkpt lat="25.126294" lon="101.850391">
<time>2014-08-04T17:58:31Z</time></trkpt>
<trkpt lat="25.126124" lon="101.850381">
<time>2014-08-04T17:58:32Z</time></trkpt>
<trkpt lat="25.126024" lon="101.850361">
<time>2014-08-04T17:58:33Z</time></trkpt>
<trkpt lat="25.125934" lon="101.850351">
<time>2014-08-04T17:58:34Z</time></trkpt>
<trkpt lat="25.125804" lon="101.85029">
<time>2014-08-04T17:58:35Z</time></trkpt>
<trkpt lat="25.125704" lon="101.85024">
<time>2014-08-04T17:58:36Z</time></trkpt>
<trkpt lat="25.125513" lon="101.85013">
<time>2014-08-04T17:58:37Z</time></trkpt>
<trkpt lat="25.125273" lon="101.84998">
<time>2014-08-04T17:58:38Z</time></trkpt>
<trkpt lat="25.124983" lon="101.849789">
<time>2014-08-04T17:58:39Z</time></trkpt>
<trkpt lat="25.124763" lon="101.849629">
<time>2014-08-04T17:58:40Z</time></trkpt>
<trkpt lat="25.124642" lon="101.849509">
<time>2014-08-04T17:58:41Z</time></trkpt>
<trkpt lat="25.124542" lon="101.849409">
<time>2014-08-04T17:58:42Z</time></trkpt>
<trkpt lat="25.124442" lon="101.849288">
<time>2014-08-04T17:58:43Z</time></trkpt>
<trkpt lat="25.124342" lon="101.849128">
<time>2014-08-04T17:58:44Z</time></trkpt>
<trkpt lat="25.124211" lon="101.848888">
<time>2014-08-04T17:58:45Z</time></trkpt>
<trkpt lat="25.124011" lon="101.848527">
<time>2014-08-04T17:58:46Z</time></trkpt>
<trkpt lat="25.123901" lon="101.848316">
<time>2014-08-04T17:58:47Z</time></trkpt>
<trkpt lat="25.12382" lon="101.848146">
<time>2014-08-04T17:58:48Z</time></trkpt>
<trkpt lat="25.12378" lon="101.848046">
<time>2014-08-04T17:58:49Z</time></trkpt>
<trkpt lat="25.12376" lon="101.847976">
<time>2014-08-04T17:58:50Z</time></trkpt>
<trkpt lat="25.12375" lon="101.847885">
<time>2014-08-04T17:58:51Z</time></trkpt>
<trkpt lat="25.12374" lon="101.847815">
<time>2014-08-04T17:58:52Z</time></trkpt>
<trkpt lat="25.123739" lon="101.847695">
<time>2014-08-04T17:58:53Z</time></trkpt>
<trkpt lat="25.123769" lon="101.847474">
<time>2014-08-04T17:58:54Z</time></trkpt>
<trkpt lat="25.123799" lon="101.847284">
<time>2014-08-04T17:58:55Z</time></trkpt>
<trkpt lat="25.123858" lon="101.847064">
<time>2014-08-04T17:58:56Z</time></trkpt>
<trkpt lat="25.123878" lon="101.846993">
<time>2014-08-04T17:58:57Z</time></trkpt>
<trkpt lat="25.123908" lon="101.846913">
<time>2014-08-04T17:58:58Z</time></trkpt>
<trkpt lat="25.123948" lon="101.846823">
<time>2014-08-04T17:58:59Z</time></trkpt>
<trkpt lat="25.124008" lon="101.846723">
<time>2014-08-04T17:59:00Z</time></trkpt>
<trkpt lat="25.124147" lon="101.846532">
<time>2014-08-04T17:59:01Z</time></trkpt>
<trkpt lat="25.124297" lon="101.846342">
<time>2014-08-04T17:59:02Z</time></trkpt>
<trkpt lat="25.124407" lon="101.846242">
<time>2014-08-04T17:59:03Z</time></trkpt>
<trkpt lat="25.124527" lon="101.846121">
<time>2014-08-04T17:59:04Z</time></trkpt>
<trkpt lat="25.124736" lon="101.845951">
<time>2014-08-04T17:59:05Z</time></trkpt>
<trkpt lat="25.125046" lon="101.845701">
<time>2014-08-04T17:59:06Z</time></trkpt>
<trkpt lat="25.125146" lon="101.84559">
<time>2014-08-04T17:59:07Z</time></trkpt>
<trkpt lat="25.125246" lon="101.84548">
<time>2014-08-04T17:59:08Z</time></trkpt>
<trkpt lat="25.125415" lon="101.84526">
<time>2014-08-04T17:59:09Z</time></trkpt>
<trkpt lat="25.125655" lon="101.844949">
<time>2014-08-04T17:59:10Z</time></trkpt>
<trkpt lat="25.125884" lon="101.844658">
<time>2014-08-04T17:59:11Z</time></trkpt>
<trkpt lat="25.125974" lon="101.844508">
<time>2014-08-04T17:59:12Z</time></trkpt>
<trkpt lat="25.126014" lon="101.844428">
<time>2014-08-04T17:59:13Z</time></trkpt>
<trkpt lat="25.126053" lon="101.844327">
<time>2014-08-04T17:59:14Z</time></trkpt>
<trkpt lat="25.126093" lon="101.844217">
<time>2014-08-04T17:59:15Z</time></trkpt>
<trkpt lat="25.126123" lon="101.844117">
<time>2014-08-04T17:59:16Z</time></trkpt>
<trkpt lat="25.126163" lon="101.843977">
<time>2014-08-04T17:59:17Z</time></trkpt>
<trkpt lat="25.126202" lon="101.843786">
<time>2014-08-04T17:59:18Z</time></trkpt>
<trkpt lat="25.126222" lon="101.843636">
<time>2014-08-04T17:59:19Z</time></trkpt>
<trkpt lat="25.126222" lon="101.843516">
<time>2014-08-04T17:59:20Z</time></trkpt>
<trkpt lat="25.126222" lon="101.843456">
<time>2014-08-04T17:59:21Z</time></trkpt>
<trkpt lat="25.126212" lon="101.843365">
<time>2014-08-04T17:59:22Z</time></trkpt>
<trkpt lat="25.126202" lon="101.843305">
<time>2014-08-04T17:59:23Z</time></trkpt>
<trkpt lat="25.126182" lon="101.843265">
<time>2014-08-04T17:59:24Z</time></trkpt>
<trkpt lat="25.126151" lon="101.843225">
<time>2014-08-04T17:59:25Z</time></trkpt>
<trkpt lat="25.126121" lon="101.843165">
<time>2014-08-04T17:59:26Z</time></trkpt>
<trkpt lat="25.126081" lon="101.843115">
<time>2014-08-04T17:59:27Z</time></trkpt>
<trkpt lat="25.126031" lon="101.843065">
<time>2014-08-04T17:59:28Z</time></trkpt>
<trkpt lat="25.125951" lon="101.842984">
<time>2014-08-04T17:59:29Z</time></trkpt>
<trkpt lat="25.125741" lon="101.842834">
<time>2014-08-04T17:59:30Z</time></trkpt>
<trkpt lat="25.125501" lon="101.842694">
<time>2014-08-04T17:59:31Z</time></trkpt>
<trkpt lat="25.12537" lon="101.842634">
<time>2014-08-04T17:59:32Z</time></trkpt>
<trkpt lat="25.12514" lon="101.842554">
<time>2014-08-04T17:59:33Z</time></trkpt>
<trkpt lat="25.12489" lon="101.842473">
<time>2014-08-04T17:59:34Z</time></trkpt>
<trkpt lat="25.12453" lon="101.842383">
<time>2014-08-04T17:59:35Z</time></trkpt>
<trkpt lat="25.12424" lon="101.842323">
<time>2014-08-04T17:59:36Z</time></trkpt>
<trkpt lat="25.12378" lon="101.842233">
<time>2014-08-04T17:59:37Z</time></trkpt>
<trkpt lat="25.12352" lon="101.842173">
<time>2014-08-04T17:59:38Z</time></trkpt>
<trkpt lat="25.12342" lon="101.842143">
<time>2014-08-04T17:59:39Z</time></trkpt>
<trkpt lat="25.12324" lon="101.842093">
<time>2014-08-04T17:59:40Z</time></trkpt>
<trkpt lat="25.123009" lon="101.841982">
<time>2014-08-04T17:59:41Z</time></trkpt>
<trkpt lat="25.122899" lon="101.841932">
<time>2014-08-04T17:59:42Z</time></trkpt>
<trkpt lat="25.122559" lon="101.841742">
<time>2014-08-04T17:59:43Z</time></trkpt>
<trkpt lat="25.122449" lon="101.841672">
<time>2014-08-04T17:59:44Z</time></trkpt>
<trkpt lat="25.122379" lon="101.841632">
<time>2014-08-04T17:59:45Z</time></trkpt>
<trkpt lat="25.122309" lon="101.841571">
<time>2014-08-04T17:59:46Z</time></trkpt>
<trkpt lat="25.122229" lon="101.841481">
<time>2014-08-04T17:59:47Z</time></trkpt>
<trkpt lat="25.122189" lon="101.841421">
<time>2014-08-04T17:59:48Z</time></trkpt>
<trkpt lat="25.122128" lon="101.841341">
<time>2014-08-04T17:59:49Z</time></trkpt>
<trkpt lat="25.122098" lon="101.841271">
<time>2014-08-04T17:59:50Z</time></trkpt>
<trkpt lat="25.122048" lon="101.84114">
<time>2014-08-04T17:59:51Z</time></trkpt>
<trkpt lat="25.121998" lon="101.84098">
<time>2014-08-04T17:59:52Z</time></trkpt>
<trkpt lat="25.121927" lon="101.84076">
<time>2014-08-04T17:59:53Z</time></trkpt>
<trkpt lat="25.121897" lon="101.840689">
<time>2014-08-04T17:59:54Z</time></trkpt>
<trkpt lat="25.121877" lon="101.840619">
<time>2014-08-04T17:59:55Z</time></trkpt>
<trkpt lat="25.121817" lon="101.840519">
<time>2014-08-04T17:59:56Z</time></trkpt>
<trkpt lat="25.121787" lon="101.840469">
<time>2014-08-04T17:59:57Z</time></trkpt>
<trkpt lat="25.121737" lon="101.840419">
<time>2014-08-04T17:59:58Z</time></trkpt>
<trkpt lat="25.121687" lon="101.840379">
<time>2014-08-04T17:59:59Z</time></trkpt>
<trkpt lat="25.121637" lon="101.840339">
<time>2014-08-04T18:00:00Z</time></trkpt>
<trkpt lat="25.121557" lon="101.840309">
<time>2014-08-04T18:00:01Z</time></trkpt>
<trkpt lat="25.121416" lon="101.840258">
<time>2014-08-04T18:00:02Z</time></trkpt>
<trkpt lat="25.121196" lon="101.840208">
<time>2014-08-04T18:00:03Z</time></trkpt>
<trkpt lat="25.120836" lon="101.840148">
<time>2014-08-04T18:00:04Z</time></trkpt>
<trkpt lat="25.120686" lon="101.840118">
<time>2014-08-04T18:00:05Z</time></trkpt>
<trkpt lat="25.120546" lon="101.840078">
<time>2014-08-04T18:00:06Z</time></trkpt>
<trkpt lat="25.120476" lon="101.840048">
<time>2014-08-04T18:00:07Z</time></trkpt>
<trkpt lat="25.120406" lon="101.840008">
<time>2014-08-04T18:00:08Z</time></trkpt>
<trkpt lat="25.120356" lon="101.839978">
<time>2014-08-04T18:00:09Z</time></trkpt>
<trkpt lat="25.120306" lon="101.839928">
<time>2014-08-04T18:00:10Z</time></trkpt>
<trkpt lat="25.120226" lon="101.839827">
<time>2014-08-04T18:00:11Z</time></trkpt>
<trkpt lat="25.120156" lon="101.839737">
<time>2014-08-04T18:00:12Z</time></trkpt>
<trkpt lat="25.120105" lon="101.839637">
<time>2014-08-04T18:00:13Z</time></trkpt>
<trkpt lat="25.120015" lon="101.839457">
<time>2014-08-04T18:00:14Z</time></trkpt>
<trkpt lat="25.119945" lon="101.839306">
<time>2014-08-04T18:00:15Z</time></trkpt>
<trkpt lat="25.119895" lon="101.839156">
<time>2014-08-04T18:00:16Z</time></trkpt>
<trkpt lat="25.119864" lon="101.839066">
<time>2014-08-04T18:00:17Z</time></trkpt>
<trkpt lat="25.119834" lon="101.838966">
<time>2014-08-04T18:00:18Z</time></trkpt>
<trkpt lat="25.119824" lon="101.838895">
<time>2014-08-04T18:00:19Z</time></trkpt>
<trkpt lat="25.119814" lon="101.838805">
<time>2014-08-04T18:00:20Z</time></trkpt>
<trkpt lat="25.119814" lon="101.838695">
<time>2014-08-04T18:00:21Z</time></trkpt>
<trkpt lat="25.119824" lon="101.838595">
<time>2014-08-04T18:00:22Z</time></trkpt>
<trkpt lat="25.119843" lon="101.838454">
<time>2014-08-04T18:00:23Z</time></trkpt>
<trkpt lat="25.119883" lon="101.838284">
<time>2014-08-04T18:00:24Z</time></trkpt>
<trkpt lat="25.119913" lon="101.838154">
<time>2014-08-04T18:00:25Z</time></trkpt>
<trkpt lat="25.119953" lon="101.838023">
<time>2014-08-04T18:00:26Z</time></trkpt>
<trkpt lat="25.120072" lon="101.837703">
<time>2014-08-04T18:00:27Z</time></trkpt>
<trkpt lat="25.120181" lon="101.837422">
<time>2014-08-04T18:00:28Z</time></trkpt>
<trkpt lat="25.120301" lon="101.837171">
<time>2014-08-04T18:00:29Z</time></trkpt>
<trkpt lat="25.120361" lon="101.836991">
<time>2014-08-04T18:00:30Z</time></trkpt>
<trkpt lat="25.12039" lon="101.836891">
<time>2014-08-04T18:00:31Z</time></trkpt>
<trkpt lat="25.12041" lon="101.836801">
<time>2014-08-04T18:00:32Z</time></trkpt>
<trkpt lat="25.12041" lon="101.83674">
<time>2014-08-04T18:00:33Z</time></trkpt>
<trkpt lat="25.12041" lon="101.83669">
<time>2014-08-04T18:00:34Z</time></trkpt>
<trkpt lat="25.1204" lon="101.83664">
<time>2014-08-04T18:00:35Z</time></trkpt>
<trkpt lat="25.12038" lon="101.83659">
<time>2014-08-04T18:00:36Z</time></trkpt>
<trkpt lat="25.12035" lon="101.83654">
<time>2014-08-04T18:00:37Z</time></trkpt>
<trkpt lat="25.12029" lon="101.83647">
<time>2014-08-04T18:00:38Z</time></trkpt>
<trkpt lat="25.12022" lon="101.83641">
<time>2014-08-04T18:00:39Z</time></trkpt>
<trkpt lat="25.120189" lon="101.8364">
<time>2014-08-04T18:00:40Z</time></trkpt>
<trkpt lat="25.120019" lon="101.836289">
<time>2014-08-04T18:00:41Z</time></trkpt>
<trkpt lat="25.119539" lon="101.836019">
<time>2014-08-04T18:00:42Z</time></trkpt>
<trkpt lat="25.119118" lon="101.835768">
<time>2014-08-04T18:00:43Z</time></trkpt>
<trkpt lat="25.118868" lon="101.835598">
<time>2014-08-04T18:00:44Z</time></trkpt>
<trkpt lat="25.118768" lon="101.835508">
<time>2014-08-04T18:00:45Z</time></trkpt>
<trkpt lat="25.118628" lon="101.835367">
<time>2014-08-04T18:00:46Z</time></trkpt>
<trkpt lat="25.118517" lon="101.835257">
<time>2014-08-04T18:00:47Z</time></trkpt>
<trkpt lat="25.118427" lon="101.835117">
<time>2014-08-04T18:00:48Z</time></trkpt>
<trkpt lat="25.118347" lon="101.835006">
<time>2014-08-04T18:00:49Z</time></trkpt>
<trkpt lat="25.118237" lon="101.834796">
<time>2014-08-04T18:00:50Z</time></trkpt>
<trkpt lat="25.118206" lon="101.834696">
<time>2014-08-04T18:00:51Z</time></trkpt>
<trkpt lat="25.118116" lon="101.834445">
<time>2014-08-04T18:00:52Z</time></trkpt>
<trkpt lat="25.118005" lon="101.834134">
<time>2014-08-04T18:00:53Z</time></trkpt>
<trkpt lat="25.117895" lon="101.833814">
<time>2014-08-04T18:00:54Z</time></trkpt>
<trkpt lat="25.117784" lon="101.833473">
<time>2014-08-04T18:00:55Z</time></trkpt>
<trkpt lat="25.117573" lon="101.832831">
<time>2014-08-04T18:00:56Z</time></trkpt>
<trkpt lat="25.117442" lon="101.83244">
<time>2014-08-04T18:00:57Z</time></trkpt>
<trkpt lat="25.117291" lon="101.831979">
<time>2014-08-04T18:00:58Z</time></trkpt>
<trkpt lat="25.117201" lon="101.831739">
<time>2014-08-04T18:00:59Z</time></trkpt>
<trkpt lat="25.117141" lon="101.831629">
<time>2014-08-04T18:01:00Z</time></trkpt>
<trkpt lat="25.11703" lon="101.831408">
<time>2014-08-04T18:01:01Z</time></trkpt>
<trkpt lat="25.11691" lon="101.831238">
<time>2014-08-04T18:01:02Z</time></trkpt>
<trkpt lat="25.11683" lon="101.831147">
<time>2014-08-04T18:01:03Z</time></trkpt>
<trkpt lat="25.11674" lon="101.831067">
<time>2014-08-04T18:01:04Z</time></trkpt>
<trkpt lat="25.11664" lon="101.830997">
<time>2014-08-04T18:01:05Z</time></trkpt>
<trkpt lat="25.11657" lon="101.830947">
<time>2014-08-04T18:01:06Z</time></trkpt>
<trkpt lat="25.11649" lon="101.830907">
<time>2014-08-04T18:01:07Z</time></trkpt>
<trkpt lat="25.116419" lon="101.830887">
<time>2014-08-04T18:01:08Z</time></trkpt>
<trkpt lat="25.116329" lon="101.830857">
<time>2014-08-04T18:01:09Z</time></trkpt>
<trkpt lat="25.116219" lon="101.830847">
<time>2014-08-04T18:01:10Z</time></trkpt>
<trkpt lat="25.116079" lon="101.830837">
<time>2014-08-04T18:01:11Z</time></trkpt>
<trkpt lat="25.115739" lon="101.830827">
<time>2014-08-04T18:01:12Z</time></trkpt>
<trkpt lat="25.115469" lon="101.830797">
<time>2014-08-04T18:01:13Z</time></trkpt>
<trkpt lat="25.115379" lon="101.830797">
<time>2014-08-04T18:01:14Z</time></trkpt>
<trkpt lat="25.115289" lon="101.830777">
<time>2014-08-04T18:01:15Z</time></trkpt>
<trkpt lat="25.115169" lon="101.830757">
<time>2014-08-04T18:01:16Z</time></trkpt>
<trkpt lat="25.115069" lon="101.830737">
<time>2014-08-04T18:01:17Z</time></trkpt>
<trkpt lat="25.114949" lon="101.830696">
<time>2014-08-04T18:01:18Z</time></trkpt>
<trkpt lat="25.114859" lon="101.830656">
<time>2014-08-04T18:01:19Z</time></trkpt>
<trkpt lat="25.114749" lon="101.830606">
<time>2014-08-04T18:01:20Z</time></trkpt>
<trkpt lat="25.114669" lon="101.830546">
<time>2014-08-04T18:01:21Z</time></trkpt>
<trkpt lat="25.114589" lon="101.830476">
<time>2014-08-04T18:01:22Z</time></trkpt>
<trkpt lat="25.114519" lon="101.830406">
<time>2014-08-04T18:01:23Z</time></trkpt>
<trkpt lat="25.114449" lon="101.830316">
<time>2014-08-04T18:01:24Z</time></trkpt>
<trkpt lat="25.114408" lon="101.830255">
<time>2014-08-04T18:01:25Z</time></trkpt>
<trkpt lat="25.114368" lon="101.830175">
<time>2014-08-04T18:01:26Z</time></trkpt>
<trkpt lat="25.114338" lon="101.830105">
<time>2014-08-04T18:01:27Z</time></trkpt>
<trkpt lat="25.114308" lon="101.830005">
<time>2014-08-04T18:01:28Z</time></trkpt>
<trkpt lat="25.114278" lon="101.829915">
<time>2014-08-04T18:01:29Z</time></trkpt>
<trkpt lat="25.114268" lon="101.829814">
<time>2014-08-04T18:01:30Z</time></trkpt>
<trkpt lat="25.114257" lon="101.829674">
<time>2014-08-04T18:01:31Z</time></trkpt>
<trkpt lat="25.114267" lon="101.829554">
<time>2014-08-04T18:01:32Z</time></trkpt>
<trkpt lat="25.114287" lon="101.829494">
<time>2014-08-04T18:01:33Z</time></trkpt>
<trkpt lat="25.114327" lon="101.829353">
<time>2014-08-04T18:01:34Z</time></trkpt>
<trkpt lat="25.114416" lon="101.829143">
<time>2014-08-04T18:01:35Z</time></trkpt>
<trkpt lat="25.114586" lon="101.828872">
<time>2014-08-04T18:01:36Z</time></trkpt>
<trkpt lat="25.114725" lon="101.828662">
<time>2014-08-04T18:01:37Z</time></trkpt>
<trkpt lat="25.114865" lon="101.828471">
<time>2014-08-04T18:01:38Z</time></trkpt>
<trkpt lat="25.115065" lon="101.828211">
<time>2014-08-04T18:01:39Z</time></trkpt>
<trkpt lat="25.115184" lon="101.82803">
<time>2014-08-04T18:01:40Z</time></trkpt>
<trkpt lat="25.115264" lon="101.82786">
<time>2014-08-04T18:01:41Z</time></trkpt>
<trkpt lat="25.115344" lon="101.827709">
<time>2014-08-04T18:01:42Z</time></trkpt>
<trkpt lat="25.115393" lon="101.827529">
<time>2014-08-04T18:01:43Z</time></trkpt>
<trkpt lat="25.115403" lon="101.827439">
<time>2014-08-04T18:01:44Z</time></trkpt>
<trkpt lat="25.115373" lon="101.827339">
<time>2014-08-04T18:01:45Z</time></trkpt>
<trkpt lat="25.115333" lon="101.827278">
<time>2014-08-04T18:01:46Z</time></trkpt>
<trkpt lat="25.115263" lon="101.827198">
<time>2014-08-04T18:01:47Z</time></trkpt>
<trkpt lat="25.115192" lon="101.827128">
<time>2014-08-04T18:01:48Z</time></trkpt>
<trkpt lat="25.115072" lon="101.827078">
<time>2014-08-04T18:01:49Z</time></trkpt>
<trkpt lat="25.114932" lon="101.827028">
<time>2014-08-04T18:01:50Z</time></trkpt>
<trkpt lat="25.114802" lon="101.826988">
<time>2014-08-04T18:01:51Z</time></trkpt>
<trkpt lat="25.114662" lon="101.826968">
<time>2014-08-04T18:01:52Z</time></trkpt>
<trkpt lat="25.114522" lon="101.826948">
<time>2014-08-04T18:01:53Z</time></trkpt>
<trkpt lat="25.114362" lon="101.826948">
<time>2014-08-04T18:01:54Z</time></trkpt>
<trkpt lat="25.114272" lon="101.826958">
<time>2014-08-04T18:01:55Z</time></trkpt>
<trkpt lat="25.114142" lon="101.827008">
<time>2014-08-04T18:01:56Z</time></trkpt>
<trkpt lat="25.114022" lon="101.827068">
<time>2014-08-04T18:01:57Z</time></trkpt>
<trkpt lat="25.113853" lon="101.827218">
<time>2014-08-04T18:01:58Z</time></trkpt>
<trkpt lat="25.113733" lon="101.827319">
<time>2014-08-04T18:01:59Z</time></trkpt>
<trkpt lat="25.113573" lon="101.827469">
<time>2014-08-04T18:02:00Z</time></trkpt>
<trkpt lat="25.113424" lon="101.827589">
<time>2014-08-04T18:02:01Z</time></trkpt>
<trkpt lat="25.113364" lon="101.827609">
<time>2014-08-04T18:02:02Z</time></trkpt>
<trkpt lat="25.113314" lon="101.827629">
<time>2014-08-04T18:02:03Z</time></trkpt>
<trkpt lat="25.113244" lon="101.827649">
<time>2014-08-04T18:02:04Z</time></trkpt>
<trkpt lat="25.113174" lon="101.827639">
<time>2014-08-04T18:02:05Z</time></trkpt>
<trkpt lat="25.113104" lon="101.827629">
<time>2014-08-04T18:02:06Z</time></trkpt>
<trkpt lat="25.113054" lon="101.827599">
<time>2014-08-04T18:02:07Z</time></trkpt>
<trkpt lat="25.112993" lon="101.827559">
<time>2014-08-04T18:02:08Z</time></trkpt>
<trkpt lat="25.112953" lon="101.827509">
<time>2014-08-04T18:02:09Z</time></trkpt>
<trkpt lat="25.112913" lon="101.827459">
<time>2014-08-04T18:02:10Z</time></trkpt>
<trkpt lat="25.112883" lon="101.827409">
<time>2014-08-04T18:02:11Z</time></trkpt>
<trkpt lat="25.112863" lon="101.827339">
<time>2014-08-04T18:02:12Z</time></trkpt>
<trkpt lat="25.112833" lon="101.827218">
<time>2014-08-04T18:02:13Z</time></trkpt>
<trkpt lat="25.112802" lon="101.826948">
<time>2014-08-04T18:02:14Z</time></trkpt>
<trkpt lat="25.112792" lon="101.826557">
<time>2014-08-04T18:02:15Z</time></trkpt>
<trkpt lat="25.112771" lon="101.826326">
<time>2014-08-04T18:02:16Z</time></trkpt>
<trkpt lat="25.112731" lon="101.826186">
<time>2014-08-04T18:02:17Z</time></trkpt>
<trkpt lat="25.112661" lon="101.826056">
<time>2014-08-04T18:02:18Z</time></trkpt>
<trkpt lat="25.112601" lon="101.825965">
<time>2014-08-04T18:02:19Z</time></trkpt>
<trkpt lat="25.11247" lon="101.825835">
<time>2014-08-04T18:02:20Z</time></trkpt>
<trkpt lat="25.11231" lon="101.825705">
<time>2014-08-04T18:02:21Z</time></trkpt>
<trkpt lat="25.11208" lon="101.825544">
<time>2014-08-04T18:02:22Z</time></trkpt>
<trkpt lat="25.1119" lon="101.825454">
<time>2014-08-04T18:02:23Z</time></trkpt>
<trkpt lat="25.111699" lon="101.825364">
<time>2014-08-04T18:02:24Z</time></trkpt>
<trkpt lat="25.111429" lon="101.825244">
<time>2014-08-04T18:02:25Z</time></trkpt>
<trkpt lat="25.110949" lon="101.825073">
<time>2014-08-04T18:02:26Z</time></trkpt>
<trkpt lat="25.110709" lon="101.824973">
<time>2014-08-04T18:02:27Z</time></trkpt>
<trkpt lat="25.110439" lon="101.824823">
<time>2014-08-04T18:02:28Z</time></trkpt>
<trkpt lat="25.110258" lon="101.824693">
<time>2014-08-04T18:02:29Z</time></trkpt>
<trkpt lat="25.110088" lon="101.824532">
<time>2014-08-04T18:02:30Z</time></trkpt>
<trkpt lat="25.109878" lon="101.824322">
<time>2014-08-04T18:02:31Z</time></trkpt>
<trkpt lat="25.109667" lon="101.824101">
<time>2014-08-04T18:02:32Z</time></trkpt>
<trkpt lat="25.109547" lon="101.823971">
<time>2014-08-04T18:02:33Z</time></trkpt>
<trkpt lat="25.109457" lon="101.82381">
<time>2014-08-04T18:02:34Z</time></trkpt>
<trkpt lat="25.109376" lon="101.82364">
<time>2014-08-04T18:02:35Z</time></trkpt>
<trkpt lat="25.109286" lon="101.82345">
<time>2014-08-04T18:02:36Z</time></trkpt>
<trkpt lat="25.109226" lon="101.823299">
<time>2014-08-04T18:02:37Z</time></trkpt>
<trkpt lat="25.109165" lon="101.823099">
<time>2014-08-04T18:02:38Z</time></trkpt>
<trkpt lat="25.109155" lon="101.822908">
<time>2014-08-04T18:02:39Z</time></trkpt>
<trkpt lat="25.109165" lon="101.822698">
<time>2014-08-04T18:02:40Z</time></trkpt>
<trkpt lat="25.109214" lon="101.822467">
<time>2014-08-04T18:02:41Z</time></trkpt>
<trkpt lat="25.109284" lon="101.822227">
<time>2014-08-04T18:02:42Z</time></trkpt>
<trkpt lat="25.109303" lon="101.822086">
<time>2014-08-04T18:02:43Z</time></trkpt>
<trkpt lat="25.109303" lon="101.821976">
<time>2014-08-04T18:02:44Z</time></trkpt>
<trkpt lat="25.109293" lon="101.821866">
<time>2014-08-04T18:02:45Z</time></trkpt>
<trkpt lat="25.109233" lon="101.821766">
<time>2014-08-04T18:02:46Z</time></trkpt>
<trkpt lat="25.109153" lon="101.821706">
<time>2014-08-04T18:02:47Z</time></trkpt>
<trkpt lat="25.109063" lon="101.821676">
<time>2014-08-04T18:02:48Z</time></trkpt>
<trkpt lat="25.108953" lon="101.821676">
<time>2014-08-04T18:02:49Z</time></trkpt>
<trkpt lat="25.108763" lon="101.821696">
<time>2014-08-04T18:02:50Z</time></trkpt>
<trkpt lat="25.108613" lon="101.821716">
<time>2014-08-04T18:02:51Z</time></trkpt>
<trkpt lat="25.108463" lon="101.821726">
<time>2014-08-04T18:02:52Z</time></trkpt>
<trkpt lat="25.108333" lon="101.821716">
<time>2014-08-04T18:02:53Z</time></trkpt>
<trkpt lat="25.108223" lon="101.821686">
<time>2014-08-04T18:02:54Z</time></trkpt>
<trkpt lat="25.108123" lon="101.821625">
<time>2014-08-04T18:02:55Z</time></trkpt>
<trkpt lat="25.108013" lon="101.821515">
<time>2014-08-04T18:02:56Z</time></trkpt>
<trkpt lat="25.107922" lon="101.821415">
<time>2014-08-04T18:02:57Z</time></trkpt>
<trkpt lat="25.107752" lon="101.821124">
<time>2014-08-04T18:02:58Z</time></trkpt>
<trkpt lat="25.107431" lon="101.820483">
<time>2014-08-04T18:02:59Z</time></trkpt>
<trkpt lat="25.1073" lon="101.820192">
<time>2014-08-04T18:03:00Z</time></trkpt>
<trkpt lat="25.10722" lon="101.819952">
<time>2014-08-04T18:03:01Z</time></trkpt>
<trkpt lat="25.107189" lon="101.819811">
<time>2014-08-04T18:03:02Z</time></trkpt>
<trkpt lat="25.107179" lon="101.819641">
<time>2014-08-04T18:03:03Z</time></trkpt>
<trkpt lat="25.107179" lon="101.81938">
<time>2014-08-04T18:03:04Z</time></trkpt>
<trkpt lat="25.107178" lon="101.81926">
<time>2014-08-04T18:03:05Z</time></trkpt>
<trkpt lat="25.107168" lon="101.81916">
<time>2014-08-04T18:03:06Z</time></trkpt>
<trkpt lat="25.107138" lon="101.819029">
<time>2014-08-04T18:03:07Z</time></trkpt>
<trkpt lat="25.107108" lon="101.818929">
<time>2014-08-04T18:03:08Z</time></trkpt>
<trkpt lat="25.107058" lon="101.818849">
<time>2014-08-04T18:03:09Z</time></trkpt>
<trkpt lat="25.106997" lon="101.818779">
<time>2014-08-04T18:03:10Z</time></trkpt>
<trkpt lat="25.106907" lon="101.818709">
<time>2014-08-04T18:03:11Z</time></trkpt>
<trkpt lat="25.106747" lon="101.818608">
<time>2014-08-04T18:03:12Z</time></trkpt>
<trkpt lat="25.106547" lon="101.818498">
<time>2014-08-04T18:03:13Z</time></trkpt>
<trkpt lat="25.106407" lon="101.818448">
<time>2014-08-04T18:03:14Z</time></trkpt>
<trkpt lat="25.106277" lon="101.818418">
<time>2014-08-04T18:03:15Z</time></trkpt>
<trkpt lat="25.106167" lon="101.818388">
<time>2014-08-04T18:03:16Z</time></trkpt>
<trkpt lat="25.106047" lon="101.818378">
<time>2014-08-04T18:03:17Z</time></trkpt>
<trkpt lat="25.105877" lon="101.818378">
<time>2014-08-04T18:03:18Z</time></trkpt>
<trkpt lat="25.105727" lon="101.818368">
<time>2014-08-04T18:03:19Z</time></trkpt>
<trkpt lat="25.105647" lon="101.818358">
<time>2014-08-04T18:03:20Z</time></trkpt>
<trkpt lat="25.105577" lon="101.818348">
<time>2014-08-04T18:03:21Z</time></trkpt>
<trkpt lat="25.105507" lon="101.818318">
<time>2014-08-04T18:03:22Z</time></trkpt>
<trkpt lat="25.105427" lon="101.818278">
<time>2014-08-04T18:03:23Z</time></trkpt>
<trkpt lat="25.105327" lon="101.818188">
<time>2014-08-04T18:03:24Z</time></trkpt>
<trkpt lat="25.105276" lon="101.818127">
<time>2014-08-04T18:03:25Z</time></trkpt>
<trkpt lat="25.105236" lon="101.818047">
<time>2014-08-04T18:03:26Z</time></trkpt>
<trkpt lat="25.105206" lon="101.817947">
<time>2014-08-04T18:03:27Z</time></trkpt>
<trkpt lat="25.105186" lon="101.817827">
<time>2014-08-04T18:03:28Z</time></trkpt>
<trkpt lat="25.105176" lon="101.817716">
<time>2014-08-04T18:03:29Z</time></trkpt>
<trkpt lat="25.105175" lon="101.817466">
<time>2014-08-04T18:03:30Z</time></trkpt>
<trkpt lat="25.105195" lon="101.817346">
<time>2014-08-04T18:03:31Z</time></trkpt>
<trkpt lat="25.105245" lon="101.817155">
<time>2014-08-04T18:03:32Z</time></trkpt>
<trkpt lat="25.105284" lon="101.816995">
<time>2014-08-04T18:03:33Z</time></trkpt>
<trkpt lat="25.105344" lon="101.816834">
<time>2014-08-04T18:03:34Z</time></trkpt>
<trkpt lat="25.105404" lon="101.816684">
<time>2014-08-04T18:03:35Z</time></trkpt>
<trkpt lat="25.105513" lon="101.816464">
<time>2014-08-04T18:03:36Z</time></trkpt>
<trkpt lat="25.105613" lon="101.816263">
<time>2014-08-04T18:03:37Z</time></trkpt>
<trkpt lat="25.105683" lon="101.816143">
<time>2014-08-04T18:03:38Z</time></trkpt>
<trkpt lat="25.105742" lon="101.816033">
<time>2014-08-04T18:03:39Z</time></trkpt>
<trkpt lat="25.105772" lon="101.815952">
<time>2014-08-04T18:03:40Z</time></trkpt>
<trkpt lat="25.105812" lon="101.815852">
<time>2014-08-04T18:03:41Z</time></trkpt>
<trkpt lat="25.105842" lon="101.815762">
<time>2014-08-04T18:03:42Z</time></trkpt>
<trkpt lat="25.105852" lon="101.815692">
<time>2014-08-04T18:03:43Z</time></trkpt>
<trkpt lat="25.105862" lon="101.815632">
<time>2014-08-04T18:03:44Z</time></trkpt>
<trkpt lat="25.105862" lon="101.815571">
<time>2014-08-04T18:03:45Z</time></trkpt>
<trkpt lat="25.105852" lon="101.815501">
<time>2014-08-04T18:03:46Z</time></trkpt>
<trkpt lat="25.105821" lon="101.815431">
<time>2014-08-04T18:03:47Z</time></trkpt>
<trkpt lat="25.105771" lon="101.815341">
<time>2014-08-04T18:03:48Z</time></trkpt>
<trkpt lat="25.105711" lon="101.815261">
<time>2014-08-04T18:03:49Z</time></trkpt>
<trkpt lat="25.105641" lon="101.815181">
<time>2014-08-04T18:03:50Z</time></trkpt>
<trkpt lat="25.105521" lon="101.81504">
<time>2014-08-04T18:03:51Z</time></trkpt>
<trkpt lat="25.105471" lon="101.81498">
<time>2014-08-04T18:03:52Z</time></trkpt>
<trkpt lat="25.10534" lon="101.81483">
<time>2014-08-04T18:03:53Z</time></trkpt>
<trkpt lat="25.10514" lon="101.814609">
<time>2014-08-04T18:03:54Z</time></trkpt>
<trkpt lat="25.10497" lon="101.814419">
<time>2014-08-04T18:03:55Z</time></trkpt>
<trkpt lat="25.104739" lon="101.814148">
<time>2014-08-04T18:03:56Z</time></trkpt>
<trkpt lat="25.104649" lon="101.814018">
<time>2014-08-04T18:03:57Z</time></trkpt>
<trkpt lat="25.104619" lon="101.813968">
<time>2014-08-04T18:03:58Z</time></trkpt>
<trkpt lat="25.104579" lon="101.813898">
<time>2014-08-04T18:03:59Z</time></trkpt>
<trkpt lat="25.104529" lon="101.813808">
<time>2014-08-04T18:04:00Z</time></trkpt>
<trkpt lat="25.104508" lon="101.813737">
<time>2014-08-04T18:04:01Z</time></trkpt>
<trkpt lat="25.104488" lon="101.813687">
<time>2014-08-04T18:04:02Z</time></trkpt>
<trkpt lat="25.104478" lon="101.813597">
<time>2014-08-04T18:04:03Z</time></trkpt>
<trkpt lat="25.104448" lon="101.813497">
<time>2014-08-04T18:04:04Z</time></trkpt>
<trkpt lat="25.104418" lon="101.813336">
<time>2014-08-04T18:04:05Z</time></trkpt>
<trkpt lat="25.104397" lon="101.813206">
<time>2014-08-04T18:04:06Z</time></trkpt>
<trkpt lat="25.104367" lon="101.813026">
<time>2014-08-04T18:04:07Z</time></trkpt>
<trkpt lat="25.104337" lon="101.812865">
<time>2014-08-04T18:04:08Z</time></trkpt>
<trkpt lat="25.104306" lon="101.812685">
<time>2014-08-04T18:04:09Z</time></trkpt>
<trkpt lat="25.104266" lon="101.812454">
<time>2014-08-04T18:04:10Z</time></trkpt>
<trkpt lat="25.104216" lon="101.812264">
<time>2014-08-04T18:04:11Z</time></trkpt>
<trkpt lat="25.104206" lon="101.812224">
<time>2014-08-04T18:04:12Z</time></trkpt>
<trkpt lat="25.104155" lon="101.811993">
<time>2014-08-04T18:04:13Z</time></trkpt>
<trkpt lat="25.104115" lon="101.811863">
<time>2014-08-04T18:04:14Z</time></trkpt>
<trkpt lat="25.104055" lon="101.811693">
<time>2014-08-04T18:04:15Z</time></trkpt>
<trkpt lat="25.104004" lon="101.811542">
<time>2014-08-04T18:04:16Z</time></trkpt>
<trkpt lat="25.103964" lon="101.811432">
<time>2014-08-04T18:04:17Z</time></trkpt>
<trkpt lat="25.103924" lon="101.811302">
<time>2014-08-04T18:04:18Z</time></trkpt>
<trkpt lat="25.103834" lon="101.811081">
<time>2014-08-04T18:04:19Z</time></trkpt>
<trkpt lat="25.103773" lon="101.810921">
<time>2014-08-04T18:04:20Z</time></trkpt>
<trkpt lat="25.103743" lon="101.810831">
<time>2014-08-04T18:04:21Z</time></trkpt>
<trkpt lat="25.103663" lon="101.81062">
<time>2014-08-04T18:04:22Z</time></trkpt>
<trkpt lat="25.103552" lon="101.81033">
<time>2014-08-04T18:04:23Z</time></trkpt>
<trkpt lat="25.103442" lon="101.810029">
<time>2014-08-04T18:04:24Z</time></trkpt>
<trkpt lat="25.103372" lon="101.809889">
<time>2014-08-04T18:04:25Z</time></trkpt>
<trkpt lat="25.103271" lon="101.809688">
<time>2014-08-04T18:04:26Z</time></trkpt>
<trkpt lat="25.103191" lon="101.809528">
<time>2014-08-04T18:04:27Z</time></trkpt>
<trkpt lat="25.10305" lon="101.809267">
<time>2014-08-04T18:04:28Z</time></trkpt>
<trkpt lat="25.10294" lon="101.809087">
<time>2014-08-04T18:04:29Z</time></trkpt>
<trkpt lat="25.10285" lon="101.808957">
<time>2014-08-04T18:04:30Z</time></trkpt>
<trkpt lat="25.10278" lon="101.808887">
<time>2014-08-04T18:04:31Z</time></trkpt>
<trkpt lat="25.10273" lon="101.808846">
<time>2014-08-04T18:04:32Z</time></trkpt>
<trkpt lat="25.10267" lon="101.808806">
<time>2014-08-04T18:04:33Z</time></trkpt>
<trkpt lat="25.1026" lon="101.808776">
<time>2014-08-04T18:04:34Z</time></trkpt>
<trkpt lat="25.10253" lon="101.808766">
<time>2014-08-04T18:04:35Z</time></trkpt>
<trkpt lat="25.10245" lon="101.808756">
<time>2014-08-04T18:04:36Z</time></trkpt>
<trkpt lat="25.10237" lon="101.808756">
<time>2014-08-04T18:04:37Z</time></trkpt>
<trkpt lat="25.10223" lon="101.808766">
<time>2014-08-04T18:04:38Z</time></trkpt>
<trkpt lat="25.102" lon="101.808776">
<time>2014-08-04T18:04:39Z</time></trkpt>
<trkpt lat="25.10174" lon="101.808806">
<time>2014-08-04T18:04:40Z</time></trkpt>
<trkpt lat="25.1015" lon="101.808826">
<time>2014-08-04T18:04:41Z</time></trkpt>
<trkpt lat="25.10136" lon="101.808847">
<time>2014-08-04T18:04:42Z</time></trkpt>
<trkpt lat="25.10128" lon="101.808847">
<time>2014-08-04T18:04:43Z</time></trkpt>
<trkpt lat="25.10121" lon="101.808847">
<time>2014-08-04T18:04:44Z</time></trkpt>
<trkpt lat="25.10109" lon="101.808826">
<time>2014-08-04T18:04:45Z</time></trkpt>
<trkpt lat="25.10094" lon="101.808796">
<time>2014-08-04T18:04:46Z</time></trkpt>
<trkpt lat="25.10087" lon="101.808776">
<time>2014-08-04T18:04:47Z</time></trkpt>
<trkpt lat="25.10078" lon="101.808756">
<time>2014-08-04T18:04:48Z</time></trkpt>
<trkpt lat="25.10039" lon="101.808686">
<time>2014-08-04T18:04:49Z</time></trkpt>
<trkpt lat="25.10023" lon="101.808636">
<time>2014-08-04T18:04:50Z</time></trkpt>
<trkpt lat="25.10017" lon="101.808616">
<time>2014-08-04T18:04:51Z</time></trkpt>
<trkpt lat="25.10013" lon="101.808596">
<time>2014-08-04T18:04:52Z</time></trkpt>
<trkpt lat="25.100059" lon="101.808556">
<time>2014-08-04T18:04:53Z</time></trkpt>
<trkpt lat="25.099959" lon="101.808476">
<time>2014-08-04T18:04:54Z</time></trkpt>
<trkpt lat="25.099889" lon="101.808396">
<time>2014-08-04T18:04:55Z</time></trkpt>
<trkpt lat="25.099839" lon="101.808305">
<time>2014-08-04T18:04:56Z</time></trkpt>
<trkpt lat="25.099789" lon="101.808205">
<time>2014-08-04T18:04:57Z</time></trkpt>
<trkpt lat="25.099739" lon="101.808095">
<time>2014-08-04T18:04:58Z</time></trkpt>
<trkpt lat="25.099709" lon="101.807995">
<time>2014-08-04T18:04:59Z</time></trkpt>
<trkpt lat="25.099688" lon="101.807894">
<time>2014-08-04T18:05:00Z</time></trkpt>
<trkpt lat="25.099668" lon="101.807744">
<time>2014-08-04T18:05:01Z</time></trkpt>
<trkpt lat="25.099638" lon="101.807574">
<time>2014-08-04T18:05:02Z</time></trkpt>
<trkpt lat="25.099607" lon="101.807333">
<time>2014-08-04T18:05:03Z</time></trkpt>
<trkpt lat="25.099577" lon="101.807063">
<time>2014-08-04T18:05:04Z</time></trkpt>
<trkpt lat="25.099536" lon="101.806802">
<time>2014-08-04T18:05:05Z</time></trkpt>
<trkpt lat="25.099496" lon="101.806662">
<time>2014-08-04T18:05:06Z</time></trkpt>
<trkpt lat="25.099476" lon="101.806612">
<time>2014-08-04T18:05:07Z</time></trkpt>
<trkpt lat="25.099456" lon="101.806542">
<time>2014-08-04T18:05:08Z</time></trkpt>
<trkpt lat="25.099416" lon="101.806481">
<time>2014-08-04T18:05:09Z</time></trkpt>
<trkpt lat="25.099376" lon="101.806421">
<time>2014-08-04T18:05:10Z</time></trkpt>
<trkpt lat="25.099316" lon="101.806341">
<time>2014-08-04T18:05:11Z</time></trkpt>
<trkpt lat="25.099246" lon="101.806251">
<time>2014-08-04T18:05:12Z</time></trkpt>
<trkpt lat="25.099115" lon="101.806081">
<time>2014-08-04T18:05:13Z</time></trkpt>
<trkpt lat="25.098935" lon="101.80581">
<time>2014-08-04T18:05:14Z</time></trkpt>
<trkpt lat="25.098824" lon="101.80562">
<time>2014-08-04T18:05:15Z</time></trkpt>
<trkpt lat="25.098744" lon="101.805509">
<time>2014-08-04T18:05:16Z</time></trkpt>
<trkpt lat="25.098684" lon="101.805409">
<time>2014-08-04T18:05:17Z</time></trkpt>
<trkpt lat="25.098634" lon="101.805349">
<time>2014-08-04T18:05:18Z</time></trkpt>
<trkpt lat="25.098564" lon="101.805269">
<time>2014-08-04T18:05:19Z</time></trkpt>
<trkpt lat="25.098474" lon="101.805189">
<time>2014-08-04T18:05:20Z</time></trkpt>
<trkpt lat="25.098394" lon="101.805129">
<time>2014-08-04T18:05:21Z</time></trkpt>
<trkpt lat="25.098304" lon="101.805058">
<time>2014-08-04T18:05:22Z</time></trkpt>
<trkpt lat="25.098213" lon="101.805008">
<time>2014-08-04T18:05:23Z</time></trkpt>
<trkpt lat="25.098093" lon="101.804938">
<time>2014-08-04T18:05:24Z</time></trkpt>
<trkpt lat="25.097863" lon="101.804798">
<time>2014-08-04T18:05:25Z</time></trkpt>
<trkpt lat="25.097633" lon="101.804648">
<time>2014-08-04T18:05:26Z</time></trkpt>
<trkpt lat="25.097453" lon="101.804537">
<time>2014-08-04T18:05:27Z</time></trkpt>
<trkpt lat="25.097273" lon="101.804427">
<time>2014-08-04T18:05:28Z</time></trkpt>
<trkpt lat="25.097022" lon="101.804267">
<time>2014-08-04T18:05:29Z</time></trkpt>
<trkpt lat="25.096862" lon="101.804167">
<time>2014-08-04T18:05:30Z</time></trkpt>
<trkpt lat="25.096572" lon="101.803986">
<time>2014-08-04T18:05:31Z</time></trkpt>
<trkpt lat="25.096462" lon="101.803916">
<time>2014-08-04T18:05:32Z</time></trkpt>
<trkpt lat="25.096392" lon="101.803856">
<time>2014-08-04T18:05:33Z</time></trkpt>
<trkpt lat="25.096332" lon="101.803796">
<time>2014-08-04T18:05:34Z</time></trkpt>
<trkpt lat="25.096251" lon="101.803716">
<time>2014-08-04T18:05:35Z</time></trkpt>
<trkpt lat="25.096191" lon="101.803645">
<time>2014-08-04T18:05:36Z</time></trkpt>
<trkpt lat="25.096131" lon="101.803545">
<time>2014-08-04T18:05:37Z</time></trkpt>
<trkpt lat="25.096061" lon="101.803415">
<time>2014-08-04T18:05:38Z</time></trkpt>
<trkpt lat="25.095991" lon="101.803285">
<time>2014-08-04T18:05:39Z</time></trkpt>
<trkpt lat="25.095901" lon="101.803134">
<time>2014-08-04T18:05:40Z</time></trkpt>
<trkpt lat="25.09583" lon="101.803004">
<time>2014-08-04T18:05:41Z</time></trkpt>
<trkpt lat="25.09577" lon="101.802904">
<time>2014-08-04T18:05:42Z</time></trkpt>
<trkpt lat="25.09572" lon="101.802834">
<time>2014-08-04T18:05:43Z</time></trkpt>
<trkpt lat="25.09568" lon="101.802784">
<time>2014-08-04T18:05:44Z</time></trkpt>
<trkpt lat="25.09564" lon="101.802734">
<time>2014-08-04T18:05:45Z</time></trkpt>
<trkpt lat="25.0956" lon="101.802683">
<time>2014-08-04T18:05:46Z</time></trkpt>
<trkpt lat="25.09554" lon="101.802633">
<time>2014-08-04T18:05:47Z</time></trkpt>
<trkpt lat="25.0955" lon="101.802603">
<time>2014-08-04T18:05:48Z</time></trkpt>
<trkpt lat="25.09546" lon="101.802573">
<time>2014-08-04T18:05:49Z</time></trkpt>
<trkpt lat="25.09542" lon="101.802543">
<time>2014-08-04T18:05:50Z</time></trkpt>
<trkpt lat="25.09536" lon="101.802513">
<time>2014-08-04T18:05:51Z</time></trkpt>
<trkpt lat="25.095279" lon="101.802473">
<time>2014-08-04T18:05:52Z</time></trkpt>
<trkpt lat="25.095179" lon="101.802423">
<time>2014-08-04T18:05:53Z</time></trkpt>
<trkpt lat="25.095029" lon="101.802363">
<time>2014-08-04T18:05:54Z</time></trkpt>
<trkpt lat="25.094889" lon="101.802293">
<time>2014-08-04T18:05:55Z</time></trkpt>
<trkpt lat="25.094759" lon="101.802243">
<time>2014-08-04T18:05:56Z</time></trkpt>
<trkpt lat="25.094569" lon="101.802162">
<time>2014-08-04T18:05:57Z</time></trkpt>
<trkpt lat="25.094409" lon="101.802102">
<time>2014-08-04T18:05:58Z</time></trkpt>
<trkpt lat="25.094279" lon="101.802052">
<time>2014-08-04T18:05:59Z</time></trkpt>
<trkpt lat="25.093869" lon="101.801902">
<time>2014-08-04T18:06:00Z</time></trkpt>
<trkpt lat="25.093669" lon="101.801842">
<time>2014-08-04T18:06:01Z</time></trkpt>
<trkpt lat="25.093488" lon="101.801762">
<time>2014-08-04T18:06:02Z</time></trkpt>
<trkpt lat="25.093388" lon="101.801711">
<time>2014-08-04T18:06:03Z</time></trkpt>
<trkpt lat="25.093318" lon="101.801681">
<time>2014-08-04T18:06:04Z</time></trkpt>
<trkpt lat="25.093248" lon="101.801641">
<time>2014-08-04T18:06:05Z</time></trkpt>
<trkpt lat="25.093168" lon="101.801581">
<time>2014-08-04T18:06:06Z</time></trkpt>
<trkpt lat="25.092968" lon="101.801411">
<time>2014-08-04T18:06:07Z</time></trkpt>
<trkpt lat="25.092768" lon="101.80122">
<time>2014-08-04T18:06:08Z</time></trkpt>
<trkpt lat="25.092617" lon="101.80109">
<time>2014-08-04T18:06:09Z</time></trkpt>
<trkpt lat="25.092547" lon="101.80104">
<time>2014-08-04T18:06:10Z</time></trkpt>
<trkpt lat="25.092397" lon="101.80093">
<time>2014-08-04T18:06:11Z</time></trkpt>
<trkpt lat="25.092337" lon="101.80089">
<time>2014-08-04T18:06:12Z</time></trkpt>
<trkpt lat="25.092257" lon="101.80084">
<time>2014-08-04T18:06:13Z</time></trkpt>
<trkpt lat="25.092167" lon="101.80081">
<time>2014-08-04T18:06:14Z</time></trkpt>
<trkpt lat="25.092047" lon="101.80076">
<time>2014-08-04T18:06:15Z</time></trkpt>
<trkpt lat="25.091977" lon="101.80074">
<time>2014-08-04T18:06:16Z</time></trkpt>
<trkpt lat="25.091787" lon="101.800689">
<time>2014-08-04T18:06:17Z</time></trkpt>
<trkpt lat="25.091637" lon="101.800659">
<time>2014-08-04T18:06:18Z</time></trkpt>
<trkpt lat="25.091257" lon="101.800569">
<time>2014-08-04T18:06:19Z</time></trkpt>
<trkpt lat="25.090617" lon="101.800449">
<time>2014-08-04T18:06:20Z</time></trkpt>
<trkpt lat="25.090547" lon="101.800439">
<time>2014-08-04T18:06:21Z</time></trkpt>
<trkpt lat="25.090407" lon="101.800399">
<time>2014-08-04T18:06:22Z</time></trkpt>
<trkpt lat="25.090306" lon="101.800379">
<time>2014-08-04T18:06:23Z</time></trkpt>
<trkpt lat="25.090216" lon="101.800349">
<time>2014-08-04T18:06:24Z</time></trkpt>
<trkpt lat="25.090036" lon="101.800299">
<time>2014-08-04T18:06:25Z</time></trkpt>
<trkpt lat="25.089856" lon="101.800239">
<time>2014-08-04T18:06:26Z</time></trkpt>
<trkpt lat="25.089726" lon="101.800188">
<time>2014-08-04T18:06:27Z</time></trkpt>
<trkpt lat="25.089636" lon="101.800148">
<time>2014-08-04T18:06:28Z</time></trkpt>
<trkpt lat="25.089516" lon="101.800078">
<time>2014-08-04T18:06:29Z</time></trkpt>
<trkpt lat="25.089436" lon="101.800028">
<time>2014-08-04T18:06:30Z</time></trkpt>
<trkpt lat="25.089346" lon="101.799948">
<time>2014-08-04T18:06:31Z</time></trkpt>
<trkpt lat="25.089266" lon="101.799868">
<time>2014-08-04T18:06:32Z</time></trkpt>
<trkpt lat="25.089096" lon="101.799708">
<time>2014-08-04T18:06:33Z</time></trkpt>
<trkpt lat="25.089005" lon="101.799637">
<time>2014-08-04T18:06:34Z</time></trkpt>
<trkpt lat="25.088915" lon="101.799567">
<time>2014-08-04T18:06:35Z</time></trkpt>
<trkpt lat="25.088835" lon="101.799507">
<time>2014-08-04T18:06:36Z</time></trkpt>
<trkpt lat="25.088735" lon="101.799437">
<time>2014-08-04T18:06:37Z</time></trkpt>
<trkpt lat="25.088625" lon="101.799387">
<time>2014-08-04T18:06:38Z</time></trkpt>
<trkpt lat="25.088555" lon="101.799357">
<time>2014-08-04T18:06:39Z</time></trkpt>
<trkpt lat="25.088445" lon="101.799327">
<time>2014-08-04T18:06:40Z</time></trkpt>
<trkpt lat="25.088355" lon="101.799307">
<time>2014-08-04T18:06:41Z</time></trkpt>
<trkpt lat="25.088285" lon="101.799307">
<time>2014-08-04T18:06:42Z</time></trkpt>
<trkpt lat="25.088205" lon="101.799307">
<time>2014-08-04T18:06:43Z</time></trkpt>
<trkpt lat="25.088125" lon="101.799317">
<time>2014-08-04T18:06:44Z</time></trkpt>
<trkpt lat="25.088065" lon="101.799317">
<time>2014-08-04T18:06:45Z</time></trkpt>
<trkpt lat="25.087995" lon="101.799327">
<time>2014-08-04T18:06:46Z</time></trkpt>
<trkpt lat="25.087905" lon="101.799347">
<time>2014-08-04T18:06:47Z</time></trkpt>
<trkpt lat="25.087775" lon="101.799387">
<time>2014-08-04T18:06:48Z</time></trkpt>
<trkpt lat="25.087565" lon="101.799457">
<time>2014-08-04T18:06:49Z</time></trkpt>
<trkpt lat="25.087315" lon="101.799537">
<time>2014-08-04T18:06:50Z</time></trkpt>
<trkpt lat="25.087156" lon="101.799587">
<time>2014-08-04T18:06:51Z</time></trkpt>
<trkpt lat="25.087006" lon="101.799647">
<time>2014-08-04T18:06:52Z</time></trkpt>
<trkpt lat="25.086916" lon="101.799698">
<time>2014-08-04T18:06:53Z</time></trkpt>
<trkpt lat="25.086836" lon="101.799758">
<time>2014-08-04T18:06:54Z</time></trkpt>
<trkpt lat="25.086736" lon="101.799838">
<time>2014-08-04T18:06:55Z</time></trkpt>
<trkpt lat="25.086646" lon="101.799938">
<time>2014-08-04T18:06:56Z</time></trkpt>
<trkpt lat="25.086566" lon="101.800048">
<time>2014-08-04T18:06:57Z</time></trkpt>
<trkpt lat="25.086427" lon="101.800249">
<time>2014-08-04T18:06:58Z</time></trkpt>
<trkpt lat="25.086337" lon="101.800389">
<time>2014-08-04T18:06:59Z</time></trkpt>
<trkpt lat="25.086018" lon="101.80089">
<time>2014-08-04T18:07:00Z</time></trkpt>
<trkpt lat="25.085808" lon="101.801231">
<time>2014-08-04T18:07:01Z</time></trkpt>
<trkpt lat="25.085559" lon="101.801612">
<time>2014-08-04T18:07:02Z</time></trkpt>
<trkpt lat="25.085449" lon="101.801762">
<time>2014-08-04T18:07:03Z</time></trkpt>
<trkpt lat="25.085399" lon="101.801832">
<time>2014-08-04T18:07:04Z</time></trkpt>
<trkpt lat="25.085349" lon="101.801892">
<time>2014-08-04T18:07:05Z</time></trkpt>
<trkpt lat="25.0853" lon="101.801932">
<time>2014-08-04T18:07:06Z</time></trkpt>
<trkpt lat="25.08526" lon="101.801962">
<time>2014-08-04T18:07:07Z</time></trkpt>
<trkpt lat="25.08521" lon="101.801992">
<time>2014-08-04T18:07:08Z</time></trkpt>
<trkpt lat="25.08518" lon="101.802002">
<time>2014-08-04T18:07:09Z</time></trkpt>
<trkpt lat="25.08512" lon="101.802012">
<time>2014-08-04T18:07:10Z</time></trkpt>
<trkpt lat="25.08507" lon="101.802012">
<time>2014-08-04T18:07:11Z</time></trkpt>
<trkpt lat="25.08501" lon="101.802012">
<time>2014-08-04T18:07:12Z</time></trkpt>
<trkpt lat="25.0849" lon="101.802002">
<time>2014-08-04T18:07:13Z</time></trkpt>
<trkpt lat="25.08479" lon="101.801992">
<time>2014-08-04T18:07:14Z</time></trkpt>
<trkpt lat="25.08468" lon="101.801972">
<time>2014-08-04T18:07:15Z</time></trkpt>
<trkpt lat="25.08463" lon="101.801972">
<time>2014-08-04T18:07:16Z</time></trkpt>
<trkpt lat="25.08458" lon="101.801972">
<time>2014-08-04T18:07:17Z</time></trkpt>
<trkpt lat="25.0845" lon="101.801982">
<time>2014-08-04T18:07:18Z</time></trkpt>
<trkpt lat="25.08439" lon="101.802002">
<time>2014-08-04T18:07:19Z</time></trkpt>
<trkpt lat="25.08421" lon="101.802052">
<time>2014-08-04T18:07:20Z</time></trkpt>
<trkpt lat="25.08402" lon="101.802103">
<time>2014-08-04T18:07:21Z</time></trkpt>
<trkpt lat="25.08387" lon="101.802143">
<time>2014-08-04T18:07:22Z</time></trkpt>
<trkpt lat="25.08375" lon="101.802183">
<time>2014-08-04T18:07:23Z</time></trkpt>
<trkpt lat="25.08361" lon="101.802213">
<time>2014-08-04T18:07:24Z</time></trkpt>
<trkpt lat="25.08353" lon="101.802233">
<time>2014-08-04T18:07:25Z</time></trkpt>
<trkpt lat="25.08342" lon="101.802253">
<time>2014-08-04T18:07:26Z</time></trkpt>
<trkpt lat="25.08335" lon="101.802263">
<time>2014-08-04T18:07:27Z</time></trkpt>
<trkpt lat="25.08312" lon="101.802293">
<time>2014-08-04T18:07:28Z</time></trkpt>
<trkpt lat="25.08299" lon="101.802303">
<time>2014-08-04T18:07:29Z</time></trkpt>
<trkpt lat="25.08285" lon="101.802293">
<time>2014-08-04T18:07:30Z</time></trkpt>
<trkpt lat="25.08274" lon="101.802293">
<time>2014-08-04T18:07:31Z</time></trkpt>
<trkpt lat="25.08259" lon="101.802263">
<time>2014-08-04T18:07:32Z</time></trkpt>
<trkpt lat="25.08247" lon="101.802223">
<time>2014-08-04T18:07:33Z</time></trkpt>
<trkpt lat="25.0823" lon="101.802133">
<time>2014-08-04T18:07:34Z</time></trkpt>
<trkpt lat="25.08191" lon="101.801872">
<time>2014-08-04T18:07:35Z</time></trkpt>
<trkpt lat="25.081199" lon="101.801401">
<time>2014-08-04T18:07:36Z</time></trkpt>
<trkpt lat="25.081109" lon="101.801331">
<time>2014-08-04T18:07:37Z</time></trkpt>
<trkpt lat="25.081029" lon="101.801251">
<time>2014-08-04T18:07:38Z</time></trkpt>
<trkpt lat="25.080949" lon="101.801161">
<time>2014-08-04T18:07:39Z</time></trkpt>
<trkpt lat="25.080899" lon="101.801071">
<time>2014-08-04T18:07:40Z</time></trkpt>
<trkpt lat="25.080858" lon="101.80098">
<time>2014-08-04T18:07:41Z</time></trkpt>
<trkpt lat="25.080768" lon="101.80075">
<time>2014-08-04T18:07:42Z</time></trkpt>
<trkpt lat="25.080658" lon="101.800479">
<time>2014-08-04T18:07:43Z</time></trkpt>
<trkpt lat="25.080527" lon="101.800259">
<time>2014-08-04T18:07:44Z</time></trkpt>
<trkpt lat="25.080377" lon="101.800099">
<time>2014-08-04T18:07:45Z</time></trkpt>
<trkpt lat="25.080067" lon="101.799928">
<time>2014-08-04T18:07:46Z</time></trkpt>
<trkpt lat="25.079877" lon="101.799808">
<time>2014-08-04T18:07:47Z</time></trkpt>
<trkpt lat="25.079686" lon="101.799678">
<time>2014-08-04T18:07:48Z</time></trkpt>
<trkpt lat="25.079476" lon="101.799497">
<time>2014-08-04T18:07:49Z</time></trkpt>
<trkpt lat="25.078665" lon="101.798746">
<time>2014-08-04T18:07:50Z</time></trkpt>
<trkpt lat="25.078485" lon="101.798616">
<time>2014-08-04T18:07:51Z</time></trkpt>
<trkpt lat="25.078255" lon="101.798475">
<time>2014-08-04T18:07:52Z</time></trkpt>
<trkpt lat="25.078004" lon="101.798375">
<time>2014-08-04T18:07:53Z</time></trkpt>
<trkpt lat="25.077734" lon="101.798285">
<time>2014-08-04T18:07:54Z</time></trkpt>
<trkpt lat="25.077424" lon="101.798165">
<time>2014-08-04T18:07:55Z</time></trkpt>
<trkpt lat="25.076824" lon="101.797844">
<time>2014-08-04T18:07:56Z</time></trkpt>
<trkpt lat="25.076383" lon="101.797604">
<time>2014-08-04T18:07:57Z</time></trkpt>
<trkpt lat="25.076273" lon="101.797554">
<time>2014-08-04T18:07:58Z</time></trkpt>
<trkpt lat="25.076153" lon="101.797503">
<time>2014-08-04T18:07:59Z</time></trkpt>
<trkpt lat="25.076083" lon="101.797483">
<time>2014-08-04T18:08:00Z</time></trkpt>
<trkpt lat="25.076003" lon="101.797463">
<time>2014-08-04T18:08:01Z</time></trkpt>
<trkpt lat="25.075933" lon="101.797453">
<time>2014-08-04T18:08:02Z</time></trkpt>
<trkpt lat="25.075853" lon="101.797453">
<time>2014-08-04T18:08:03Z</time></trkpt>
<trkpt lat="25.075803" lon="101.797453">
<time>2014-08-04T18:08:04Z</time></trkpt>
<trkpt lat="25.075753" lon="101.797463">
<time>2014-08-04T18:08:05Z</time></trkpt>
<trkpt lat="25.075673" lon="101.797483">
<time>2014-08-04T18:08:06Z</time></trkpt>
<trkpt lat="25.075573" lon="101.797514">
<time>2014-08-04T18:08:07Z</time></trkpt>
<trkpt lat="25.075393" lon="101.797574">
<time>2014-08-04T18:08:08Z</time></trkpt>
<trkpt lat="25.075124" lon="101.797684">
<time>2014-08-04T18:08:09Z</time></trkpt>
<trkpt lat="25.075004" lon="101.797734">
<time>2014-08-04T18:08:10Z</time></trkpt>
<trkpt lat="25.074814" lon="101.797834">
<time>2014-08-04T18:08:11Z</time></trkpt>
<trkpt lat="25.074694" lon="101.797954">
<time>2014-08-04T18:08:12Z</time></trkpt>
<trkpt lat="25.074594" lon="101.798105">
<time>2014-08-04T18:08:13Z</time></trkpt>
<trkpt lat="25.074475" lon="101.798275">
<time>2014-08-04T18:08:14Z</time></trkpt>
<trkpt lat="25.074305" lon="101.798465">
<time>2014-08-04T18:08:15Z</time></trkpt>
<trkpt lat="25.074125" lon="101.798616">
<time>2014-08-04T18:08:16Z</time></trkpt>
<trkpt lat="25.073985" lon="101.798686">
<time>2014-08-04T18:08:17Z</time></trkpt>
<trkpt lat="25.073845" lon="101.798746">
<time>2014-08-04T18:08:18Z</time></trkpt>
<trkpt lat="25.073716" lon="101.798786">
<time>2014-08-04T18:08:19Z</time></trkpt>
<trkpt lat="25.073606" lon="101.798806">
<time>2014-08-04T18:08:20Z</time></trkpt>
<trkpt lat="25.073496" lon="101.798816">
<time>2014-08-04T18:08:21Z</time></trkpt>
<trkpt lat="25.073396" lon="101.798816">
<time>2014-08-04T18:08:22Z</time></trkpt>
<trkpt lat="25.073226" lon="101.798796">
<time>2014-08-04T18:08:23Z</time></trkpt>
<trkpt lat="25.073126" lon="101.798776">
<time>2014-08-04T18:08:24Z</time></trkpt>
<trkpt lat="25.072986" lon="101.798716">
<time>2014-08-04T18:08:25Z</time></trkpt>
<trkpt lat="25.072825" lon="101.798596">
<time>2014-08-04T18:08:26Z</time></trkpt>
<trkpt lat="25.072535" lon="101.798365">
<time>2014-08-04T18:08:27Z</time></trkpt>
<trkpt lat="25.072275" lon="101.798125">
<time>2014-08-04T18:08:28Z</time></trkpt>
<trkpt lat="25.072044" lon="101.797914">
<time>2014-08-04T18:08:29Z</time></trkpt>
<trkpt lat="25.071944" lon="101.797824">
<time>2014-08-04T18:08:30Z</time></trkpt>
<trkpt lat="25.071854" lon="101.797714">
<time>2014-08-04T18:08:31Z</time></trkpt>
<trkpt lat="25.071784" lon="101.797574">
<time>2014-08-04T18:08:32Z</time></trkpt>
<trkpt lat="25.071754" lon="101.797433">
<time>2014-08-04T18:08:33Z</time></trkpt>
<trkpt lat="25.071743" lon="101.797273">
<time>2014-08-04T18:08:34Z</time></trkpt>
<trkpt lat="25.071743" lon="101.797133">
<time>2014-08-04T18:08:35Z</time></trkpt>
<trkpt lat="25.07185" lon="101.795089">
<time>2014-08-04T18:08:36Z</time></trkpt>
<trkpt lat="25.071908" lon="101.793987">
<time>2014-08-04T18:08:37Z</time></trkpt>
<trkpt lat="25.071957" lon="101.793376">
<time>2014-08-04T18:08:38Z</time></trkpt>
<trkpt lat="25.072007" lon="101.793085">
<time>2014-08-04T18:08:39Z</time></trkpt>
<trkpt lat="25.072057" lon="101.792825">
<time>2014-08-04T18:08:40Z</time></trkpt>
<trkpt lat="25.072076" lon="101.792734">
<time>2014-08-04T18:08:41Z</time></trkpt>
<trkpt lat="25.072096" lon="101.792634">
<time>2014-08-04T18:08:42Z</time></trkpt>
<trkpt lat="25.072106" lon="101.792584">
<time>2014-08-04T18:08:43Z</time></trkpt>
<trkpt lat="25.072106" lon="101.792524">
<time>2014-08-04T18:08:44Z</time></trkpt>
<trkpt lat="25.072106" lon="101.792474">
<time>2014-08-04T18:08:45Z</time></trkpt>
<trkpt lat="25.072096" lon="101.792404">
<time>2014-08-04T18:08:46Z</time></trkpt>
<trkpt lat="25.072056" lon="101.792314">
<time>2014-08-04T18:08:47Z</time></trkpt>
<trkpt lat="25.072006" lon="101.792234">
<time>2014-08-04T18:08:48Z</time></trkpt>
<trkpt lat="25.071946" lon="101.792143">
<time>2014-08-04T18:08:49Z</time></trkpt>
<trkpt lat="25.071805" lon="101.791993">
<time>2014-08-04T18:08:50Z</time></trkpt>
<trkpt lat="25.071615" lon="101.791803">
<time>2014-08-04T18:08:51Z</time></trkpt>
<trkpt lat="25.071205" lon="101.791402">
<time>2014-08-04T18:08:52Z</time></trkpt>
<trkpt lat="25.070974" lon="101.791152">
<time>2014-08-04T18:08:53Z</time></trkpt>
<trkpt lat="25.070804" lon="101.790891">
<time>2014-08-04T18:08:54Z</time></trkpt>
<trkpt lat="25.070654" lon="101.790671">
<time>2014-08-04T18:08:55Z</time></trkpt>
<trkpt lat="25.070423" lon="101.79038">
<time>2014-08-04T18:08:56Z</time></trkpt>
<trkpt lat="25.070153" lon="101.79012">
<time>2014-08-04T18:08:57Z</time></trkpt>
<trkpt lat="25.069893" lon="101.789859">
<time>2014-08-04T18:08:58Z</time></trkpt>
<trkpt lat="25.069672" lon="101.789659">
<time>2014-08-04T18:08:59Z</time></trkpt>
<trkpt lat="25.069352" lon="101.789368">
<time>2014-08-04T18:09:00Z</time></trkpt>
<trkpt lat="25.069152" lon="101.789208">
<time>2014-08-04T18:09:01Z</time></trkpt>
<trkpt lat="25.068842" lon="101.789008">
<time>2014-08-04T18:09:02Z</time></trkpt>
<trkpt lat="25.068591" lon="101.788888">
<time>2014-08-04T18:09:03Z</time></trkpt>
<trkpt lat="25.068301" lon="101.788747">
<time>2014-08-04T18:09:04Z</time></trkpt>
<trkpt lat="25.068011" lon="101.788607">
<time>2014-08-04T18:09:05Z</time></trkpt>
<trkpt lat="25.067701" lon="101.788477">
<time>2014-08-04T18:09:06Z</time></trkpt>
<trkpt lat="25.067481" lon="101.788367">
<time>2014-08-04T18:09:07Z</time></trkpt>
<trkpt lat="25.067361" lon="101.788307">
<time>2014-08-04T18:09:08Z</time></trkpt>
<trkpt lat="25.067211" lon="101.788196">
<time>2014-08-04T18:09:09Z</time></trkpt>
<trkpt lat="25.06706" lon="101.788006">
<time>2014-08-04T18:09:10Z</time></trkpt>
<trkpt lat="25.06683" lon="101.787676">
<time>2014-08-04T18:09:11Z</time></trkpt>
<trkpt lat="25.0667" lon="101.787475">
<time>2014-08-04T18:09:12Z</time></trkpt>
<trkpt lat="25.066589" lon="101.787295">
<time>2014-08-04T18:09:13Z</time></trkpt>
<trkpt lat="25.066509" lon="101.787065">
<time>2014-08-04T18:09:14Z</time></trkpt>
<trkpt lat="25.066469" lon="101.786894">
<time>2014-08-04T18:09:15Z</time></trkpt>
<trkpt lat="25.066419" lon="101.786694">
<time>2014-08-04T18:09:16Z</time></trkpt>
<trkpt lat="25.066348" lon="101.786474">
<time>2014-08-04T18:09:17Z</time></trkpt>
<trkpt lat="25.066288" lon="101.786383">
<time>2014-08-04T18:09:18Z</time></trkpt>
<trkpt lat="25.066238" lon="101.786323">
<time>2014-08-04T18:09:19Z</time></trkpt>
<trkpt lat="25.066198" lon="101.786273">
<time>2014-08-04T18:09:20Z</time></trkpt>
<trkpt lat="25.066118" lon="101.786233">
<time>2014-08-04T18:09:21Z</time></trkpt>
<trkpt lat="25.066028" lon="101.786213">
<time>2014-08-04T18:09:22Z</time></trkpt>
<trkpt lat="25.065958" lon="101.786193">
<time>2014-08-04T18:09:23Z</time></trkpt>
<trkpt lat="25.065848" lon="101.786183">
<time>2014-08-04T18:09:24Z</time></trkpt>
<trkpt lat="25.065748" lon="101.786163">
<time>2014-08-04T18:09:25Z</time></trkpt>
<trkpt lat="25.065658" lon="101.786143">
<time>2014-08-04T18:09:26Z</time></trkpt>
<trkpt lat="25.065548" lon="101.786113">
<time>2014-08-04T18:09:27Z</time></trkpt>
<trkpt lat="25.065458" lon="101.786073">
<time>2014-08-04T18:09:28Z</time></trkpt>
<trkpt lat="25.065348" lon="101.785983">
<time>2014-08-04T18:09:29Z</time></trkpt>
<trkpt lat="25.065258" lon="101.785883">
<time>2014-08-04T18:09:30Z</time></trkpt>
<trkpt lat="25.065188" lon="101.785782">
<time>2014-08-04T18:09:31Z</time></trkpt>
<trkpt lat="25.065098" lon="101.785682">
<time>2014-08-04T18:09:32Z</time></trkpt>
<trkpt lat="25.065017" lon="101.785572">
<time>2014-08-04T18:09:33Z</time></trkpt>
<trkpt lat="25.064957" lon="101.785502">
<time>2014-08-04T18:09:34Z</time></trkpt>
<trkpt lat="25.064907" lon="101.785412">
<time>2014-08-04T18:09:35Z</time></trkpt>
<trkpt lat="25.064887" lon="101.785342">
<time>2014-08-04T18:09:36Z</time></trkpt>
<trkpt lat="25.064877" lon="101.785282">
<time>2014-08-04T18:09:37Z</time></trkpt>
<trkpt lat="25.064877" lon="101.785192">
<time>2014-08-04T18:09:38Z</time></trkpt>
<trkpt lat="25.064887" lon="101.785071">
<time>2014-08-04T18:09:39Z</time></trkpt>
<trkpt lat="25.064897" lon="101.784951">
<time>2014-08-04T18:09:40Z</time></trkpt>
<trkpt lat="25.064896" lon="101.784831">
<time>2014-08-04T18:09:41Z</time></trkpt>
<trkpt lat="25.064886" lon="101.784741">
<time>2014-08-04T18:09:42Z</time></trkpt>
<trkpt lat="25.064856" lon="101.784651">
<time>2014-08-04T18:09:43Z</time></trkpt>
<trkpt lat="25.064806" lon="101.784571">
<time>2014-08-04T18:09:44Z</time></trkpt>
<trkpt lat="25.064696" lon="101.78442">
<time>2014-08-04T18:09:45Z</time></trkpt>
<trkpt lat="25.064626" lon="101.78436">
<time>2014-08-04T18:09:46Z</time></trkpt>
<trkpt lat="25.064516" lon="101.78427">
<time>2014-08-04T18:09:47Z</time></trkpt>
<trkpt lat="25.064436" lon="101.78422">
<time>2014-08-04T18:09:48Z</time></trkpt>
<trkpt lat="25.064306" lon="101.78415">
<time>2014-08-04T18:09:49Z</time></trkpt>
<trkpt lat="25.064136" lon="101.78408">
<time>2014-08-04T18:09:50Z</time></trkpt>
<trkpt lat="25.063946" lon="101.78402">
<time>2014-08-04T18:09:51Z</time></trkpt>
<trkpt lat="25.063826" lon="101.78398">
<time>2014-08-04T18:09:52Z</time></trkpt>
<trkpt lat="25.063735" lon="101.78393">
<time>2014-08-04T18:09:53Z</time></trkpt>
<trkpt lat="25.063635" lon="101.783859">
<time>2014-08-04T18:09:54Z</time></trkpt>
<trkpt lat="25.063595" lon="101.783809">
<time>2014-08-04T18:09:55Z</time></trkpt>
<trkpt lat="25.063545" lon="101.783719">
<time>2014-08-04T18:09:56Z</time></trkpt>
<trkpt lat="25.063495" lon="101.783589">
<time>2014-08-04T18:09:57Z</time></trkpt>
<trkpt lat="25.063445" lon="101.783439">
<time>2014-08-04T18:09:58Z</time></trkpt>
<trkpt lat="25.063365" lon="101.783118">
<time>2014-08-04T18:09:59Z</time></trkpt>
<trkpt lat="25.063204" lon="101.782527">
<time>2014-08-04T18:10:00Z</time></trkpt>
<trkpt lat="25.063114" lon="101.782297">
<time>2014-08-04T18:10:01Z</time></trkpt>
<trkpt lat="25.063033" lon="101.782137">
<time>2014-08-04T18:10:02Z</time></trkpt>
<trkpt lat="25.062993" lon="101.782057">
<time>2014-08-04T18:10:03Z</time></trkpt>
<trkpt lat="25.062913" lon="101.781936">
<time>2014-08-04T18:10:04Z</time></trkpt>
<trkpt lat="25.062843" lon="101.781866">
<time>2014-08-04T18:10:05Z</time></trkpt>
<trkpt lat="25.062763" lon="101.781806">
<time>2014-08-04T18:10:06Z</time></trkpt>
<trkpt lat="25.062703" lon="101.781766">
<time>2014-08-04T18:10:07Z</time></trkpt>
<trkpt lat="25.062653" lon="101.781736">
<time>2014-08-04T18:10:08Z</time></trkpt>
<trkpt lat="25.062593" lon="101.781706">
<time>2014-08-04T18:10:09Z</time></trkpt>
<trkpt lat="25.062353" lon="101.781626">
<time>2014-08-04T18:10:10Z</time></trkpt>
<trkpt lat="25.062063" lon="101.781526">
<time>2014-08-04T18:10:11Z</time></trkpt>
<trkpt lat="25.061743" lon="101.781426">
<time>2014-08-04T18:10:12Z</time></trkpt>
<trkpt lat="25.061453" lon="101.781346">
<time>2014-08-04T18:10:13Z</time></trkpt>
<trkpt lat="25.061243" lon="101.781225">
<time>2014-08-04T18:10:14Z</time></trkpt>
<trkpt lat="25.061092" lon="101.781075">
<time>2014-08-04T18:10:15Z</time></trkpt>
<trkpt lat="25.060922" lon="101.780875">
<time>2014-08-04T18:10:16Z</time></trkpt>
<trkpt lat="25.060782" lon="101.780715">
<time>2014-08-04T18:10:17Z</time></trkpt>
<trkpt lat="25.060682" lon="101.780625">
<time>2014-08-04T18:10:18Z</time></trkpt>
<trkpt lat="25.060562" lon="101.780524">
<time>2014-08-04T18:10:19Z</time></trkpt>
<trkpt lat="25.060292" lon="101.780364">
<time>2014-08-04T18:10:20Z</time></trkpt>
<trkpt lat="25.060122" lon="101.780294">
<time>2014-08-04T18:10:21Z</time></trkpt>
<trkpt lat="25.059892" lon="101.780224">
<time>2014-08-04T18:10:22Z</time></trkpt>
<trkpt lat="25.059631" lon="101.780164">
<time>2014-08-04T18:10:23Z</time></trkpt>
<trkpt lat="25.059251" lon="101.780054">
<time>2014-08-04T18:10:24Z</time></trkpt>
<trkpt lat="25.059091" lon="101.780014">
<time>2014-08-04T18:10:25Z</time></trkpt>
<trkpt lat="25.058981" lon="101.779994">
<time>2014-08-04T18:10:26Z</time></trkpt>
<trkpt lat="25.058851" lon="101.779964">
<time>2014-08-04T18:10:27Z</time></trkpt>
<trkpt lat="25.058691" lon="101.779944">
<time>2014-08-04T18:10:28Z</time></trkpt>
<trkpt lat="25.058411" lon="101.779944">
<time>2014-08-04T18:10:29Z</time></trkpt>
<trkpt lat="25.058241" lon="101.779934">
<time>2014-08-04T18:10:30Z</time></trkpt>
<trkpt lat="25.058131" lon="101.779914">
<time>2014-08-04T18:10:31Z</time></trkpt>
<trkpt lat="25.058041" lon="101.779894">
<time>2014-08-04T18:10:32Z</time></trkpt>
<trkpt lat="25.057971" lon="101.779874">
<time>2014-08-04T18:10:33Z</time></trkpt>
<trkpt lat="25.057911" lon="101.779853">
<time>2014-08-04T18:10:34Z</time></trkpt>
<trkpt lat="25.057841" lon="101.779813">
<time>2014-08-04T18:10:35Z</time></trkpt>
<trkpt lat="25.057771" lon="101.779753">
<time>2014-08-04T18:10:36Z</time></trkpt>
<trkpt lat="25.057681" lon="101.779643">
<time>2014-08-04T18:10:37Z</time></trkpt>
<trkpt lat="25.057531" lon="101.779453">
<time>2014-08-04T18:10:38Z</time></trkpt>
<trkpt lat="25.057431" lon="101.779323">
<time>2014-08-04T18:10:39Z</time></trkpt>
<trkpt lat="25.057331" lon="101.779203">
<time>2014-08-04T18:10:40Z</time></trkpt>
<trkpt lat="25.057241" lon="101.779132">
<time>2014-08-04T18:10:41Z</time></trkpt>
<trkpt lat="25.057131" lon="101.779062">
<time>2014-08-04T18:10:42Z</time></trkpt>
<trkpt lat="25.05702" lon="101.778992">
<time>2014-08-04T18:10:43Z</time></trkpt>
<trkpt lat="25.05688" lon="101.778912">
<time>2014-08-04T18:10:44Z</time></trkpt>
<trkpt lat="25.0568" lon="101.778862">
<time>2014-08-04T18:10:45Z</time></trkpt>
<trkpt lat="25.0567" lon="101.778782">
<time>2014-08-04T18:10:46Z</time></trkpt>
<trkpt lat="25.05658" lon="101.778662">
<time>2014-08-04T18:10:47Z</time></trkpt>
<trkpt lat="25.05651" lon="101.778572">
<time>2014-08-04T18:10:48Z</time></trkpt>
<trkpt lat="25.05642" lon="101.778472">
<time>2014-08-04T18:10:49Z</time></trkpt>
<trkpt lat="25.05633" lon="101.778341">
<time>2014-08-04T18:10:50Z</time></trkpt>
<trkpt lat="25.05627" lon="101.778241">
<time>2014-08-04T18:10:51Z</time></trkpt>
<trkpt lat="25.05622" lon="101.778131">
<time>2014-08-04T18:10:52Z</time></trkpt>
<trkpt lat="25.05619" lon="101.778051">
<time>2014-08-04T18:10:53Z</time></trkpt>
<trkpt lat="25.056189" lon="101.777961">
<time>2014-08-04T18:10:54Z</time></trkpt>
<trkpt lat="25.056189" lon="101.777821">
<time>2014-08-04T18:10:55Z</time></trkpt>
<trkpt lat="25.056209" lon="101.77764">
<time>2014-08-04T18:10:56Z</time></trkpt>
<trkpt lat="25.056219" lon="101.77744">
<time>2014-08-04T18:10:57Z</time></trkpt>
<trkpt lat="25.056219" lon="101.77734">
<time>2014-08-04T18:10:58Z</time></trkpt>
<trkpt lat="25.056209" lon="101.77728">
<time>2014-08-04T18:10:59Z</time></trkpt>
<trkpt lat="25.056199" lon="101.77723">
<time>2014-08-04T18:11:00Z</time></trkpt>
<trkpt lat="25.056189" lon="101.77719">
<time>2014-08-04T18:11:01Z</time></trkpt>
<trkpt lat="25.056169" lon="101.77715">
<time>2014-08-04T18:11:02Z</time></trkpt>
<trkpt lat="25.056139" lon="101.77711">
<time>2014-08-04T18:11:03Z</time></trkpt>
<trkpt lat="25.056109" lon="101.77708">
<time>2014-08-04T18:11:04Z</time></trkpt>
<trkpt lat="25.056089" lon="101.77705">
<time>2014-08-04T18:11:05Z</time></trkpt>
<trkpt lat="25.056049" lon="101.77702">
<time>2014-08-04T18:11:06Z</time></trkpt>
<trkpt lat="25.055938" lon="101.776919">
<time>2014-08-04T18:11:07Z</time></trkpt>
<trkpt lat="25.055748" lon="101.776809">
<time>2014-08-04T18:11:08Z</time></trkpt>
<trkpt lat="25.054998" lon="101.776409">
<time>2014-08-04T18:11:09Z</time></trkpt>
<trkpt lat="25.054858" lon="101.776329">
<time>2014-08-04T18:11:10Z</time></trkpt>
<trkpt lat="25.054668" lon="101.776178">
<time>2014-08-04T18:11:11Z</time></trkpt>
<trkpt lat="25.054468" lon="101.775948">
<time>2014-08-04T18:11:12Z</time></trkpt>
<trkpt lat="25.054277" lon="101.775658">
<time>2014-08-04T18:11:13Z</time></trkpt>
<trkpt lat="25.054087" lon="101.775407">
<time>2014-08-04T18:11:14Z</time></trkpt>
<trkpt lat="25.053657" lon="101.774797">
<time>2014-08-04T18:11:15Z</time></trkpt>
<trkpt lat="25.053496" lon="101.774616">
<time>2014-08-04T18:11:16Z</time></trkpt>
<trkpt lat="25.053296" lon="101.774456">
<time>2014-08-04T18:11:17Z</time></trkpt>
<trkpt lat="25.053076" lon="101.774316">
<time>2014-08-04T18:11:18Z</time></trkpt>
<trkpt lat="25.052836" lon="101.774236">
<time>2014-08-04T18:11:19Z</time></trkpt>
<trkpt lat="25.052316" lon="101.774096">
<time>2014-08-04T18:11:20Z</time></trkpt>
<trkpt lat="25.052046" lon="101.774036">
<time>2014-08-04T18:11:21Z</time></trkpt>
<trkpt lat="25.051816" lon="101.773976">
<time>2014-08-04T18:11:22Z</time></trkpt>
<trkpt lat="25.051436" lon="101.773826">
<time>2014-08-04T18:11:23Z</time></trkpt>
<trkpt lat="25.051266" lon="101.773735">
<time>2014-08-04T18:11:24Z</time></trkpt>
<trkpt lat="25.051146" lon="101.773665">
<time>2014-08-04T18:11:25Z</time></trkpt>
<trkpt lat="25.050966" lon="101.773545">
<time>2014-08-04T18:11:26Z</time></trkpt>
<trkpt lat="25.050826" lon="101.773415">
<time>2014-08-04T18:11:27Z</time></trkpt>
<trkpt lat="25.050716" lon="101.773275">
<time>2014-08-04T18:11:28Z</time></trkpt>
<trkpt lat="25.050545" lon="101.773055">
<time>2014-08-04T18:11:29Z</time></trkpt>
<trkpt lat="25.050355" lon="101.772834">
<time>2014-08-04T18:11:30Z</time></trkpt>
<trkpt lat="25.050245" lon="101.772714">
<time>2014-08-04T18:11:31Z</time></trkpt>
<trkpt lat="25.050105" lon="101.772614">
<time>2014-08-04T18:11:32Z</time></trkpt>
<trkpt lat="25.049985" lon="101.772524">
<time>2014-08-04T18:11:33Z</time></trkpt>
<trkpt lat="25.049915" lon="101.772464">
<time>2014-08-04T18:11:34Z</time></trkpt>
<trkpt lat="25.049865" lon="101.772404">
<time>2014-08-04T18:11:35Z</time></trkpt>
<trkpt lat="25.049815" lon="101.772344">
<time>2014-08-04T18:11:36Z</time></trkpt>
<trkpt lat="25.049775" lon="101.772294">
<time>2014-08-04T18:11:37Z</time></trkpt>
<trkpt lat="25.049735" lon="101.772204">
<time>2014-08-04T18:11:38Z</time></trkpt>
<trkpt lat="25.049715" lon="101.772134">
<time>2014-08-04T18:11:39Z</time></trkpt>
<trkpt lat="25.049715" lon="101.772084">
<time>2014-08-04T18:11:40Z</time></trkpt>
<trkpt lat="25.049725" lon="101.772003">
<time>2014-08-04T18:11:41Z</time></trkpt>
<trkpt lat="25.049734" lon="101.771883">
<time>2014-08-04T18:11:42Z</time></trkpt>
<trkpt lat="25.049764" lon="101.771743">
<time>2014-08-04T18:11:43Z</time></trkpt>
<trkpt lat="25.049794" lon="101.771543">
<time>2014-08-04T18:11:44Z</time></trkpt>
<trkpt lat="25.049784" lon="101.771343">
<time>2014-08-04T18:11:45Z</time></trkpt>
<trkpt lat="25.049764" lon="101.771182">
<time>2014-08-04T18:11:46Z</time></trkpt>
<trkpt lat="25.049724" lon="101.770962">
<time>2014-08-04T18:11:47Z</time></trkpt>
<trkpt lat="25.049713" lon="101.770782">
<time>2014-08-04T18:11:48Z</time></trkpt>
<trkpt lat="25.049713" lon="101.770562">
<time>2014-08-04T18:11:49Z</time></trkpt>
<trkpt lat="25.049733" lon="101.770352">
<time>2014-08-04T18:11:50Z</time></trkpt>
<trkpt lat="25.049713" lon="101.770191">
<time>2014-08-04T18:11:51Z</time></trkpt>
<trkpt lat="25.049663" lon="101.770031">
<time>2014-08-04T18:11:52Z</time></trkpt>
<trkpt lat="25.049603" lon="101.769871">
<time>2014-08-04T18:11:53Z</time></trkpt>
<trkpt lat="25.049523" lon="101.769711">
<time>2014-08-04T18:11:54Z</time></trkpt>
<trkpt lat="25.049402" lon="101.769471">
<time>2014-08-04T18:11:55Z</time></trkpt>
<trkpt lat="25.049282" lon="101.76925">
<time>2014-08-04T18:11:56Z</time></trkpt>
<trkpt lat="25.049132" lon="101.76904">
<time>2014-08-04T18:11:57Z</time></trkpt>
<trkpt lat="25.048902" lon="101.7688">
<time>2014-08-04T18:11:58Z</time></trkpt>
<trkpt lat="25.048662" lon="101.76858">
<time>2014-08-04T18:11:59Z</time></trkpt>
<trkpt lat="25.048342" lon="101.768309">
<time>2014-08-04T18:12:00Z</time></trkpt>
<trkpt lat="25.048212" lon="101.768179">
<time>2014-08-04T18:12:01Z</time></trkpt>
<trkpt lat="25.048092" lon="101.768019">
<time>2014-08-04T18:12:02Z</time></trkpt>
<trkpt lat="25.047921" lon="101.767709">
<time>2014-08-04T18:12:03Z</time></trkpt>
<trkpt lat="25.047631" lon="101.767148">
<time>2014-08-04T18:12:04Z</time></trkpt>
<trkpt lat="25.047471" lon="101.766808">
<time>2014-08-04T18:12:05Z</time></trkpt>
<trkpt lat="25.047341" lon="101.766468">
<time>2014-08-04T18:12:06Z</time></trkpt>
<trkpt lat="25.04724" lon="101.766077">
<time>2014-08-04T18:12:07Z</time></trkpt>
<trkpt lat="25.04711" lon="101.765437">
<time>2014-08-04T18:12:08Z</time></trkpt>
<trkpt lat="25.04685" lon="101.764686">
<time>2014-08-04T18:12:09Z</time></trkpt>
<trkpt lat="25.046839" lon="101.764616">
<time>2014-08-04T18:12:10Z</time></trkpt>
<trkpt lat="25.046829" lon="101.764536">
<time>2014-08-04T18:12:11Z</time></trkpt>
<trkpt lat="25.046829" lon="101.764486">
<time>2014-08-04T18:12:12Z</time></trkpt>
<trkpt lat="25.046839" lon="101.764436">
<time>2014-08-04T18:12:13Z</time></trkpt>
<trkpt lat="25.046849" lon="101.764396">
<time>2014-08-04T18:12:14Z</time></trkpt>
<trkpt lat="25.046859" lon="101.764376">
<time>2014-08-04T18:12:15Z</time></trkpt>
<trkpt lat="25.046899" lon="101.764336">
<time>2014-08-04T18:12:16Z</time></trkpt>
<trkpt lat="25.046929" lon="101.764306">
<time>2014-08-04T18:12:17Z</time></trkpt>
<trkpt lat="25.046979" lon="101.764276">
<time>2014-08-04T18:12:18Z</time></trkpt>
<trkpt lat="25.047009" lon="101.764256">
<time>2014-08-04T18:12:19Z</time></trkpt>
<trkpt lat="25.047049" lon="101.764236">
<time>2014-08-04T18:12:20Z</time></trkpt>
<trkpt lat="25.047109" lon="101.764216">
<time>2014-08-04T18:12:21Z</time></trkpt>
<trkpt lat="25.047219" lon="101.764186">
<time>2014-08-04T18:12:22Z</time></trkpt>
<trkpt lat="25.047309" lon="101.764156">
<time>2014-08-04T18:12:23Z</time></trkpt>
<trkpt lat="25.047389" lon="101.764115">
<time>2014-08-04T18:12:24Z</time></trkpt>
<trkpt lat="25.047439" lon="101.764085">
<time>2014-08-04T18:12:25Z</time></trkpt>
<trkpt lat="25.047519" lon="101.764035">
<time>2014-08-04T18:12:26Z</time></trkpt>
<trkpt lat="25.047549" lon="101.763995">
<time>2014-08-04T18:12:27Z</time></trkpt>
<trkpt lat="25.047589" lon="101.763945">
<time>2014-08-04T18:12:28Z</time></trkpt>
<trkpt lat="25.047609" lon="101.763895">
<time>2014-08-04T18:12:29Z</time></trkpt>
<trkpt lat="25.047629" lon="101.763825">
<time>2014-08-04T18:12:30Z</time></trkpt>
<trkpt lat="25.047639" lon="101.763755">
<time>2014-08-04T18:12:31Z</time></trkpt>
<trkpt lat="25.047649" lon="101.763695">
<time>2014-08-04T18:12:32Z</time></trkpt>
<trkpt lat="25.047639" lon="101.763605">
<time>2014-08-04T18:12:33Z</time></trkpt>
<trkpt lat="25.047639" lon="101.763555">
<time>2014-08-04T18:12:34Z</time></trkpt>
<trkpt lat="25.047619" lon="101.763495">
<time>2014-08-04T18:12:35Z</time></trkpt>
<trkpt lat="25.047599" lon="101.763455">
<time>2014-08-04T18:12:36Z</time></trkpt>
<trkpt lat="25.047579" lon="101.763405">
<time>2014-08-04T18:12:37Z</time></trkpt>
<trkpt lat="25.047539" lon="101.763345">
<time>2014-08-04T18:12:38Z</time></trkpt>
<trkpt lat="25.047489" lon="101.763295">
<time>2014-08-04T18:12:39Z</time></trkpt>
<trkpt lat="25.047429" lon="101.763265">
<time>2014-08-04T18:12:40Z</time></trkpt>
<trkpt lat="25.047359" lon="101.763235">
<time>2014-08-04T18:12:41Z</time></trkpt>
<trkpt lat="25.047319" lon="101.763215">
<time>2014-08-04T18:12:42Z</time></trkpt>
<trkpt lat="25.047249" lon="101.763205">
<time>2014-08-04T18:12:43Z</time></trkpt>
<trkpt lat="25.047169" lon="101.763195">
<time>2014-08-04T18:12:44Z</time></trkpt>
<trkpt lat="25.047039" lon="101.763185">
<time>2014-08-04T18:12:45Z</time></trkpt>
<trkpt lat="25.046849" lon="101.763205">
<time>2014-08-04T18:12:46Z</time></trkpt>
<trkpt lat="25.046749" lon="101.763205">
<time>2014-08-04T18:12:47Z</time></trkpt>
<trkpt lat="25.046649" lon="101.763185">
<time>2014-08-04T18:12:48Z</time></trkpt>
<trkpt lat="25.046559" lon="101.763135">
<time>2014-08-04T18:12:49Z</time></trkpt>
<trkpt lat="25.046439" lon="101.763055">
<time>2014-08-04T18:12:50Z</time></trkpt>
<trkpt lat="25.046309" lon="101.762935">
<time>2014-08-04T18:12:51Z</time></trkpt>
<trkpt lat="25.046179" lon="101.762834">
<time>2014-08-04T18:12:52Z</time></trkpt>
<trkpt lat="25.046069" lon="101.762754">
<time>2014-08-04T18:12:53Z</time></trkpt>
<trkpt lat="25.045989" lon="101.762704">
<time>2014-08-04T18:12:54Z</time></trkpt>
<trkpt lat="25.045908" lon="101.762674">
<time>2014-08-04T18:12:55Z</time></trkpt>
<trkpt lat="25.045848" lon="101.762654">
<time>2014-08-04T18:12:56Z</time></trkpt>
<trkpt lat="25.045768" lon="101.762644">
<time>2014-08-04T18:12:57Z</time></trkpt>
<trkpt lat="25.045669" lon="101.762654">
<time>2014-08-04T18:12:58Z</time></trkpt>
<trkpt lat="25.045509" lon="101.762684">
<time>2014-08-04T18:12:59Z</time></trkpt>
<trkpt lat="25.045279" lon="101.762744">
<time>2014-08-04T18:13:00Z</time></trkpt>
<trkpt lat="25.045109" lon="101.762764">
<time>2014-08-04T18:13:01Z</time></trkpt>
<trkpt lat="25.044999" lon="101.762764">
<time>2014-08-04T18:13:02Z</time></trkpt>
<trkpt lat="25.044889" lon="101.762734">
<time>2014-08-04T18:13:03Z</time></trkpt>
<trkpt lat="25.044789" lon="101.762694">
<time>2014-08-04T18:13:04Z</time></trkpt>
<trkpt lat="25.044679" lon="101.762604">
<time>2014-08-04T18:13:05Z</time></trkpt>
<trkpt lat="25.044589" lon="101.762484">
<time>2014-08-04T18:13:06Z</time></trkpt>
<trkpt lat="25.044488" lon="101.762304">
<time>2014-08-04T18:13:07Z</time></trkpt>
<trkpt lat="25.044418" lon="101.762114">
<time>2014-08-04T18:13:08Z</time></trkpt>
<trkpt lat="25.044368" lon="101.761904">
<time>2014-08-04T18:13:09Z</time></trkpt>
<trkpt lat="25.044278" lon="101.761624">
<time>2014-08-04T18:13:10Z</time></trkpt>
<trkpt lat="25.044148" lon="101.761353">
<time>2014-08-04T18:13:11Z</time></trkpt>
<trkpt lat="25.044038" lon="101.761153">
<time>2014-08-04T18:13:12Z</time></trkpt>
<trkpt lat="25.042937" lon="101.759842">
<time>2014-08-04T18:13:13Z</time></trkpt>
<trkpt lat="25.042767" lon="101.759582">
<time>2014-08-04T18:13:14Z</time></trkpt>
<trkpt lat="25.042647" lon="101.759312">
<time>2014-08-04T18:13:15Z</time></trkpt>
<trkpt lat="25.042497" lon="101.759022">
<time>2014-08-04T18:13:16Z</time></trkpt>
<trkpt lat="25.042327" lon="101.758812">
<time>2014-08-04T18:13:17Z</time></trkpt>
<trkpt lat="25.042077" lon="101.758481">
<time>2014-08-04T18:13:18Z</time></trkpt>
<trkpt lat="25.041927" lon="101.758261">
<time>2014-08-04T18:13:19Z</time></trkpt>
<trkpt lat="25.041847" lon="101.758151">
<time>2014-08-04T18:13:20Z</time></trkpt>
<trkpt lat="25.041757" lon="101.758051">
<time>2014-08-04T18:13:21Z</time></trkpt>
<trkpt lat="25.041617" lon="101.757941">
<time>2014-08-04T18:13:22Z</time></trkpt>
<trkpt lat="25.041487" lon="101.757841">
<time>2014-08-04T18:13:23Z</time></trkpt>
<trkpt lat="25.041277" lon="101.757731">
<time>2014-08-04T18:13:24Z</time></trkpt>
<trkpt lat="25.041137" lon="101.757631">
<time>2014-08-04T18:13:25Z</time></trkpt>
<trkpt lat="25.041077" lon="101.757571">
<time>2014-08-04T18:13:26Z</time></trkpt>
<trkpt lat="25.041027" lon="101.757501">
<time>2014-08-04T18:13:27Z</time></trkpt>
<trkpt lat="25.040987" lon="101.757421">
<time>2014-08-04T18:13:28Z</time></trkpt>
<trkpt lat="25.040947" lon="101.757311">
<time>2014-08-04T18:13:29Z</time></trkpt>
<trkpt lat="25.040917" lon="101.757211">
<time>2014-08-04T18:13:30Z</time></trkpt>
<trkpt lat="25.040887" lon="101.757081">
<time>2014-08-04T18:13:31Z</time></trkpt>
<trkpt lat="25.040847" lon="101.756971">
<time>2014-08-04T18:13:32Z</time></trkpt>
<trkpt lat="25.040797" lon="101.756851">
<time>2014-08-04T18:13:33Z</time></trkpt>
<trkpt lat="25.040727" lon="101.75675">
<time>2014-08-04T18:13:34Z</time></trkpt>
<trkpt lat="25.040617" lon="101.75662">
<time>2014-08-04T18:13:35Z</time></trkpt>
<trkpt lat="25.040577" lon="101.75657">
<time>2014-08-04T18:13:36Z</time></trkpt>
<trkpt lat="25.040527" lon="101.75653">
<time>2014-08-04T18:13:37Z</time></trkpt>
<trkpt lat="25.040407" lon="101.75643">
<time>2014-08-04T18:13:38Z</time></trkpt>
<trkpt lat="25.040237" lon="101.75629">
<time>2014-08-04T18:13:39Z</time></trkpt>
<trkpt lat="25.040077" lon="101.75613">
<time>2014-08-04T18:13:40Z</time></trkpt>
<trkpt lat="25.039906" lon="101.75598">
<time>2014-08-04T18:13:41Z</time></trkpt>
<trkpt lat="25.039826" lon="101.75592">
<time>2014-08-04T18:13:42Z</time></trkpt>
<trkpt lat="25.039746" lon="101.75587">
<time>2014-08-04T18:13:43Z</time></trkpt>
<trkpt lat="25.039686" lon="101.75584">
<time>2014-08-04T18:13:44Z</time></trkpt>
<trkpt lat="25.039536" lon="101.7558">
<time>2014-08-04T18:13:45Z</time></trkpt>
<trkpt lat="25.039197" lon="101.75572">
<time>2014-08-04T18:13:46Z</time></trkpt>
<trkpt lat="25.039017" lon="101.75568">
<time>2014-08-04T18:13:47Z</time></trkpt>
<trkpt lat="25.038867" lon="101.75568">
<time>2014-08-04T18:13:48Z</time></trkpt>
<trkpt lat="25.038777" lon="101.75569">
<time>2014-08-04T18:13:49Z</time></trkpt>
<trkpt lat="25.038707" lon="101.7557">
<time>2014-08-04T18:13:50Z</time></trkpt>
<trkpt lat="25.038557" lon="101.75576">
<time>2014-08-04T18:13:51Z</time></trkpt>
<trkpt lat="25.038347" lon="101.75586">
<time>2014-08-04T18:13:52Z</time></trkpt>
<trkpt lat="25.038067" lon="101.75598">
<time>2014-08-04T18:13:53Z</time></trkpt>
<trkpt lat="25.037907" lon="101.75603">
<time>2014-08-04T18:13:54Z</time></trkpt>
<trkpt lat="25.037747" lon="101.75607">
<time>2014-08-04T18:13:55Z</time></trkpt>
<trkpt lat="25.037627" lon="101.75611">
<time>2014-08-04T18:13:56Z</time></trkpt>
<trkpt lat="25.037487" lon="101.75614">
<time>2014-08-04T18:13:57Z</time></trkpt>
<trkpt lat="25.037347" lon="101.75615">
<time>2014-08-04T18:13:58Z</time></trkpt>
<trkpt lat="25.037217" lon="101.75613">
<time>2014-08-04T18:13:59Z</time></trkpt>
<trkpt lat="25.037097" lon="101.75608">
<time>2014-08-04T18:14:00Z</time></trkpt>
<trkpt lat="25.036937" lon="101.75601">
<time>2014-08-04T18:14:01Z</time></trkpt>
<trkpt lat="25.036887" lon="101.75598">
<time>2014-08-04T18:14:02Z</time></trkpt>
<trkpt lat="25.036827" lon="101.75596">
<time>2014-08-04T18:14:03Z</time></trkpt>
<trkpt lat="25.036767" lon="101.75593">
<time>2014-08-04T18:14:04Z</time></trkpt>
<trkpt lat="25.036697" lon="101.75591">
<time>2014-08-04T18:14:05Z</time></trkpt>
<trkpt lat="25.036647" lon="101.7559">
<time>2014-08-04T18:14:06Z</time></trkpt>
<trkpt lat="25.036577" lon="101.7559">
<time>2014-08-04T18:14:07Z</time></trkpt>
<trkpt lat="25.036537" lon="101.75591">
<time>2014-08-04T18:14:08Z</time></trkpt>
<trkpt lat="25.036477" lon="101.75592">
<time>2014-08-04T18:14:09Z</time></trkpt>
<trkpt lat="25.036417" lon="101.75593">
<time>2014-08-04T18:14:10Z</time></trkpt>
<trkpt lat="25.036337" lon="101.75596">
<time>2014-08-04T18:14:11Z</time></trkpt>
<trkpt lat="25.035827" lon="101.75622">
<time>2014-08-04T18:14:12Z</time></trkpt>
<trkpt lat="25.035637" lon="101.75634">
<time>2014-08-04T18:14:13Z</time></trkpt>
<trkpt lat="25.035537" lon="101.75641">
<time>2014-08-04T18:14:14Z</time></trkpt>
<trkpt lat="25.035487" lon="101.75644">
<time>2014-08-04T18:14:15Z</time></trkpt>
<trkpt lat="25.035367" lon="101.756511">
<time>2014-08-04T18:14:16Z</time></trkpt>
<trkpt lat="25.035327" lon="101.756531">
<time>2014-08-04T18:14:17Z</time></trkpt>
<trkpt lat="25.035297" lon="101.756541">
<time>2014-08-04T18:14:18Z</time></trkpt>
<trkpt lat="25.035257" lon="101.756551">
<time>2014-08-04T18:14:19Z</time></trkpt>
<trkpt lat="25.035217" lon="101.756561">
<time>2014-08-04T18:14:20Z</time></trkpt>
<trkpt lat="25.035177" lon="101.756561">
<time>2014-08-04T18:14:21Z</time></trkpt>
<trkpt lat="25.035137" lon="101.756561">
<time>2014-08-04T18:14:22Z</time></trkpt>
<trkpt lat="25.035097" lon="101.756551">
<time>2014-08-04T18:14:23Z</time></trkpt>
<trkpt lat="25.035057" lon="101.756531">
<time>2014-08-04T18:14:24Z</time></trkpt>
<trkpt lat="25.035017" lon="101.756501">
<time>2014-08-04T18:14:25Z</time></trkpt>
<trkpt lat="25.034967" lon="101.75645">
<time>2014-08-04T18:14:26Z</time></trkpt>
<trkpt lat="25.034837" lon="101.75633">
<time>2014-08-04T18:14:27Z</time></trkpt>
<trkpt lat="25.034717" lon="101.7562">
<time>2014-08-04T18:14:28Z</time></trkpt>
<trkpt lat="25.034597" lon="101.75608">
<time>2014-08-04T18:14:29Z</time></trkpt>
<trkpt lat="25.034537" lon="101.75601">
<time>2014-08-04T18:14:30Z</time></trkpt>
<trkpt lat="25.034467" lon="101.75592">
<time>2014-08-04T18:14:31Z</time></trkpt>
<trkpt lat="25.034397" lon="101.75581">
<time>2014-08-04T18:14:32Z</time></trkpt>
<trkpt lat="25.034347" lon="101.75567">
<time>2014-08-04T18:14:33Z</time></trkpt>
<trkpt lat="25.034317" lon="101.75556">
<time>2014-08-04T18:14:34Z</time></trkpt>
<trkpt lat="25.034297" lon="101.75545">
<time>2014-08-04T18:14:35Z</time></trkpt>
<trkpt lat="25.034307" lon="101.75534">
<time>2014-08-04T18:14:36Z</time></trkpt>
<trkpt lat="25.034327" lon="101.75522">
<time>2014-08-04T18:14:37Z</time></trkpt>
<trkpt lat="25.034367" lon="101.75509">
<time>2014-08-04T18:14:38Z</time></trkpt>
<trkpt lat="25.034407" lon="101.75498">
<time>2014-08-04T18:14:39Z</time></trkpt>
<trkpt lat="25.034467" lon="101.75485">
<time>2014-08-04T18:14:40Z</time></trkpt>
<trkpt lat="25.034507" lon="101.75474">
<time>2014-08-04T18:14:41Z</time></trkpt>
<trkpt lat="25.034537" lon="101.75466">
<time>2014-08-04T18:14:42Z</time></trkpt>
<trkpt lat="25.034547" lon="101.75457">
<time>2014-08-04T18:14:43Z</time></trkpt>
<trkpt lat="25.034547" lon="101.75449">
<time>2014-08-04T18:14:44Z</time></trkpt>
<trkpt lat="25.034537" lon="101.754409">
<time>2014-08-04T18:14:45Z</time></trkpt>
<trkpt lat="25.034507" lon="101.754339">
<time>2014-08-04T18:14:46Z</time></trkpt>
<trkpt lat="25.034487" lon="101.754279">
<time>2014-08-04T18:14:47Z</time></trkpt>
<trkpt lat="25.034437" lon="101.754179">
<time>2014-08-04T18:14:48Z</time></trkpt>
<trkpt lat="25.034347" lon="101.754039">
<time>2014-08-04T18:14:49Z</time></trkpt>
<trkpt lat="25.034237" lon="101.753869">
<time>2014-08-04T18:14:50Z</time></trkpt>
<trkpt lat="25.034157" lon="101.753739">
<time>2014-08-04T18:14:51Z</time></trkpt>
<trkpt lat="25.034097" lon="101.753639">
<time>2014-08-04T18:14:52Z</time></trkpt>
<trkpt lat="25.034077" lon="101.753589">
<time>2014-08-04T18:14:53Z</time></trkpt>
<trkpt lat="25.034067" lon="101.753549">
<time>2014-08-04T18:14:54Z</time></trkpt>
<trkpt lat="25.034047" lon="101.753519">
<time>2014-08-04T18:14:55Z</time></trkpt>
<trkpt lat="25.034047" lon="101.753479">
<time>2014-08-04T18:14:56Z</time></trkpt>
<trkpt lat="25.034037" lon="101.753439">
<time>2014-08-04T18:14:57Z</time></trkpt>
<trkpt lat="25.034047" lon="101.753409">
<time>2014-08-04T18:14:58Z</time></trkpt>
<trkpt lat="25.034047" lon="101.753369">
<time>2014-08-04T18:14:59Z</time></trkpt>
<trkpt lat="25.034057" lon="101.753329">
<time>2014-08-04T18:15:00Z</time></trkpt>
<trkpt lat="25.034067" lon="101.753279">
<time>2014-08-04T18:15:01Z</time></trkpt>
<trkpt lat="25.034087" lon="101.753239">
<time>2014-08-04T18:15:02Z</time></trkpt>
<trkpt lat="25.034127" lon="101.753179">
<time>2014-08-04T18:15:03Z</time></trkpt>
<trkpt lat="25.034187" lon="101.753109">
<time>2014-08-04T18:15:04Z</time></trkpt>
<trkpt lat="25.034256" lon="101.753049">
<time>2014-08-04T18:15:05Z</time></trkpt>
<trkpt lat="25.034466" lon="101.752869">
<time>2014-08-04T18:15:06Z</time></trkpt>
<trkpt lat="25.034656" lon="101.752699">
<time>2014-08-04T18:15:07Z</time></trkpt>
<trkpt lat="25.034766" lon="101.752579">
<time>2014-08-04T18:15:08Z</time></trkpt>
<trkpt lat="25.034876" lon="101.752399">
<time>2014-08-04T18:15:09Z</time></trkpt>
<trkpt lat="25.034956" lon="101.752279">
<time>2014-08-04T18:15:10Z</time></trkpt>
<trkpt lat="25.035006" lon="101.752189">
<time>2014-08-04T18:15:11Z</time></trkpt>
<trkpt lat="25.035056" lon="101.752099">
<time>2014-08-04T18:15:12Z</time></trkpt>
<trkpt lat="25.035076" lon="101.752059">
<time>2014-08-04T18:15:13Z</time></trkpt>
<trkpt lat="25.035086" lon="101.752009">
<time>2014-08-04T18:15:14Z</time></trkpt>
<trkpt lat="25.035086" lon="101.751958">
<time>2014-08-04T18:15:15Z</time></trkpt>
<trkpt lat="25.035086" lon="101.751908">
<time>2014-08-04T18:15:16Z</time></trkpt>
<trkpt lat="25.035076" lon="101.751848">
<time>2014-08-04T18:15:17Z</time></trkpt>
<trkpt lat="25.035056" lon="101.751798">
<time>2014-08-04T18:15:18Z</time></trkpt>
<trkpt lat="25.035026" lon="101.751758">
<time>2014-08-04T18:15:19Z</time></trkpt>
<trkpt lat="25.034996" lon="101.751718">
<time>2014-08-04T18:15:20Z</time></trkpt>
<trkpt lat="25.034966" lon="101.751688">
<time>2014-08-04T18:15:21Z</time></trkpt>
<trkpt lat="25.034926" lon="101.751668">
<time>2014-08-04T18:15:22Z</time></trkpt>
<trkpt lat="25.034886" lon="101.751648">
<time>2014-08-04T18:15:23Z</time></trkpt>
<trkpt lat="25.034806" lon="101.751618">
<time>2014-08-04T18:15:24Z</time></trkpt>
<trkpt lat="25.034726" lon="101.751598">
<time>2014-08-04T18:15:25Z</time></trkpt>
<trkpt lat="25.034596" lon="101.751558">
<time>2014-08-04T18:15:26Z</time></trkpt>
<trkpt lat="25.034486" lon="101.751528">
<time>2014-08-04T18:15:27Z</time></trkpt>
<trkpt lat="25.034396" lon="101.751518">
<time>2014-08-04T18:15:28Z</time></trkpt>
<trkpt lat="25.034326" lon="101.751508">
<time>2014-08-04T18:15:29Z</time></trkpt>
<trkpt lat="25.034226" lon="101.751508">
<time>2014-08-04T18:15:30Z</time></trkpt>
<trkpt lat="25.034016" lon="101.751528">
<time>2014-08-04T18:15:31Z</time></trkpt>
<trkpt lat="25.033836" lon="101.751558">
<time>2014-08-04T18:15:32Z</time></trkpt>
<trkpt lat="25.033506" lon="101.751598">
<time>2014-08-04T18:15:33Z</time></trkpt>
<trkpt lat="25.033396" lon="101.751608">
<time>2014-08-04T18:15:34Z</time></trkpt>
<trkpt lat="25.033306" lon="101.751608">
<time>2014-08-04T18:15:35Z</time></trkpt>
<trkpt lat="25.033196" lon="101.751608">
<time>2014-08-04T18:15:36Z</time></trkpt>
<trkpt lat="25.033116" lon="101.751598">
<time>2014-08-04T18:15:37Z</time></trkpt>
<trkpt lat="25.033036" lon="101.751588">
<time>2014-08-04T18:15:38Z</time></trkpt>
<trkpt lat="25.032956" lon="101.751558">
<time>2014-08-04T18:15:39Z</time></trkpt>
<trkpt lat="25.032886" lon="101.751518">
<time>2014-08-04T18:15:40Z</time></trkpt>
<trkpt lat="25.032816" lon="101.751478">
<time>2014-08-04T18:15:41Z</time></trkpt>
<trkpt lat="25.032766" lon="101.751428">
<time>2014-08-04T18:15:42Z</time></trkpt>
<trkpt lat="25.032716" lon="101.751368">
<time>2014-08-04T18:15:43Z</time></trkpt>
<trkpt lat="25.032666" lon="101.751288">
<time>2014-08-04T18:15:44Z</time></trkpt>
<trkpt lat="25.032606" lon="101.751178">
<time>2014-08-04T18:15:45Z</time></trkpt>
<trkpt lat="25.032466" lon="101.750888">
<time>2014-08-04T18:15:46Z</time></trkpt>
<trkpt lat="25.032306" lon="101.750508">
<time>2014-08-04T18:15:47Z</time></trkpt>
<trkpt lat="25.032116" lon="101.750018">
<time>2014-08-04T18:15:48Z</time></trkpt>
<trkpt lat="25.032106" lon="101.749968">
<time>2014-08-04T18:15:49Z</time></trkpt>
<trkpt lat="25.032096" lon="101.749928">
<time>2014-08-04T18:15:50Z</time></trkpt>
<trkpt lat="25.032086" lon="101.749878">
<time>2014-08-04T18:15:51Z</time></trkpt>
<trkpt lat="25.032076" lon="101.749828">
<time>2014-08-04T18:15:52Z</time></trkpt>
<trkpt lat="25.032066" lon="101.749758">
<time>2014-08-04T18:15:53Z</time></trkpt>
<trkpt lat="25.032066" lon="101.749688">
<time>2014-08-04T18:15:54Z</time></trkpt>
<trkpt lat="25.032076" lon="101.749598">
<time>2014-08-04T18:15:55Z</time></trkpt>
<trkpt lat="25.032096" lon="101.749518">
<time>2014-08-04T18:15:56Z</time></trkpt>
<trkpt lat="25.032136" lon="101.749378">
<time>2014-08-04T18:15:57Z</time></trkpt>
<trkpt lat="25.032176" lon="101.749258">
<time>2014-08-04T18:15:58Z</time></trkpt>
<trkpt lat="25.032206" lon="101.749158">
<time>2014-08-04T18:15:59Z</time></trkpt>
<trkpt lat="25.032226" lon="101.749038">
<time>2014-08-04T18:16:00Z</time></trkpt>
<trkpt lat="25.032226" lon="101.748898">
<time>2014-08-04T18:16:01Z</time></trkpt>
<trkpt lat="25.032226" lon="101.748798">
<time>2014-08-04T18:16:02Z</time></trkpt>
<trkpt lat="25.032226" lon="101.748648">
<time>2014-08-04T18:16:03Z</time></trkpt>
<trkpt lat="25.032226" lon="101.748578">
<time>2014-08-04T18:16:04Z</time></trkpt>
<trkpt lat="25.032246" lon="101.748488">
<time>2014-08-04T18:16:05Z</time></trkpt>
<trkpt lat="25.032266" lon="101.748378">
<time>2014-08-04T18:16:06Z</time></trkpt>
<trkpt lat="25.032316" lon="101.748198">
<time>2014-08-04T18:16:07Z</time></trkpt>
<trkpt lat="25.032356" lon="101.748038">
<time>2014-08-04T18:16:08Z</time></trkpt>
<trkpt lat="25.032386" lon="101.747877">
<time>2014-08-04T18:16:09Z</time></trkpt>
<trkpt lat="25.032386" lon="101.747727">
<time>2014-08-04T18:16:10Z</time></trkpt>
<trkpt lat="25.032406" lon="101.747427">
<time>2014-08-04T18:16:11Z</time></trkpt>
<trkpt lat="25.032406" lon="101.747237">
<time>2014-08-04T18:16:12Z</time></trkpt>
<trkpt lat="25.032406" lon="101.747177">
<time>2014-08-04T18:16:13Z</time></trkpt>
<trkpt lat="25.032396" lon="101.747127">
<time>2014-08-04T18:16:14Z</time></trkpt>
<trkpt lat="25.032386" lon="101.747077">
<time>2014-08-04T18:16:15Z</time></trkpt>
<trkpt lat="25.032366" lon="101.747017">
<time>2014-08-04T18:16:16Z</time></trkpt>
<trkpt lat="25.032336" lon="101.746957">
<time>2014-08-04T18:16:17Z</time></trkpt>
<trkpt lat="25.032276" lon="101.746837">
<time>2014-08-04T18:16:18Z</time></trkpt>
<trkpt lat="25.032176" lon="101.746637">
<time>2014-08-04T18:16:19Z</time></trkpt>
<trkpt lat="25.032106" lon="101.746517">
<time>2014-08-04T18:16:20Z</time></trkpt>
<trkpt lat="25.032046" lon="101.746327">
<time>2014-08-04T18:16:21Z</time></trkpt>
<trkpt lat="25.032027" lon="101.746237">
<time>2014-08-04T18:16:22Z</time></trkpt>
<trkpt lat="25.032007" lon="101.746077">
<time>2014-08-04T18:16:23Z</time></trkpt>
<trkpt lat="25.031997" lon="101.745987">
<time>2014-08-04T18:16:24Z</time></trkpt>
<trkpt lat="25.031957" lon="101.745847">
<time>2014-08-04T18:16:25Z</time></trkpt>
<trkpt lat="25.031917" lon="101.745697">
<time>2014-08-04T18:16:26Z</time></trkpt>
<trkpt lat="25.031877" lon="101.745577">
<time>2014-08-04T18:16:27Z</time></trkpt>
<trkpt lat="25.031847" lon="101.745457">
<time>2014-08-04T18:16:28Z</time></trkpt>
<trkpt lat="25.031847" lon="101.745377">
<time>2014-08-04T18:16:29Z</time></trkpt>
<trkpt lat="25.031847" lon="101.745307">
<time>2014-08-04T18:16:30Z</time></trkpt>
<trkpt lat="25.031867" lon="101.745227">
<time>2014-08-04T18:16:31Z</time></trkpt>
<trkpt lat="25.031897" lon="101.745157">
<time>2014-08-04T18:16:32Z</time></trkpt>
<trkpt lat="25.031927" lon="101.745107">
<time>2014-08-04T18:16:33Z</time></trkpt>
<trkpt lat="25.031967" lon="101.745057">
<time>2014-08-04T18:16:34Z</time></trkpt>
<trkpt lat="25.032017" lon="101.745007">
<time>2014-08-04T18:16:35Z</time></trkpt>
<trkpt lat="25.032077" lon="101.744977">
<time>2014-08-04T18:16:36Z</time></trkpt>
<trkpt lat="25.032137" lon="101.744947">
<time>2014-08-04T18:16:37Z</time></trkpt>
<trkpt lat="25.032247" lon="101.744917">
<time>2014-08-04T18:16:38Z</time></trkpt>
<trkpt lat="25.032367" lon="101.744887">
<time>2014-08-04T18:16:39Z</time></trkpt>
<trkpt lat="25.032477" lon="101.744847">
<time>2014-08-04T18:16:40Z</time></trkpt>
<trkpt lat="25.032587" lon="101.744787">
<time>2014-08-04T18:16:41Z</time></trkpt>
<trkpt lat="25.032677" lon="101.744747">
<time>2014-08-04T18:16:42Z</time></trkpt>
<trkpt lat="25.032767" lon="101.744717">
<time>2014-08-04T18:16:43Z</time></trkpt>
<trkpt lat="25.032867" lon="101.744677">
<time>2014-08-04T18:16:44Z</time></trkpt>
<trkpt lat="25.032917" lon="101.744667">
<time>2014-08-04T18:16:45Z</time></trkpt>
<trkpt lat="25.032987" lon="101.744657">
<time>2014-08-04T18:16:46Z</time></trkpt>
<trkpt lat="25.033197" lon="101.744637">
<time>2014-08-04T18:16:47Z</time></trkpt>
<trkpt lat="25.033337" lon="101.744627">
<time>2014-08-04T18:16:48Z</time></trkpt>
<trkpt lat="25.033457" lon="101.744597">
<time>2014-08-04T18:16:49Z</time></trkpt>
<trkpt lat="25.033537" lon="101.744577">
<time>2014-08-04T18:16:50Z</time></trkpt>
<trkpt lat="25.033607" lon="101.744547">
<time>2014-08-04T18:16:51Z</time></trkpt>
<trkpt lat="25.033677" lon="101.744507">
<time>2014-08-04T18:16:52Z</time></trkpt>
<trkpt lat="25.033827" lon="101.744427">
<time>2014-08-04T18:16:53Z</time></trkpt>
<trkpt lat="25.034037" lon="101.744297">
<time>2014-08-04T18:16:54Z</time></trkpt>
<trkpt lat="25.034197" lon="101.744227">
<time>2014-08-04T18:16:55Z</time></trkpt>
<trkpt lat="25.034287" lon="101.744177">
<time>2014-08-04T18:16:56Z</time></trkpt>
<trkpt lat="25.034337" lon="101.744147">
<time>2014-08-04T18:16:57Z</time></trkpt>
<trkpt lat="25.034407" lon="101.744077">
<time>2014-08-04T18:16:58Z</time></trkpt>
<trkpt lat="25.034477" lon="101.743997">
<time>2014-08-04T18:16:59Z</time></trkpt>
<trkpt lat="25.034507" lon="101.743937">
<time>2014-08-04T18:17:00Z</time></trkpt>
<trkpt lat="25.034527" lon="101.743867">
<time>2014-08-04T18:17:01Z</time></trkpt>
<trkpt lat="25.034537" lon="101.743807">
<time>2014-08-04T18:17:02Z</time></trkpt>
<trkpt lat="25.034537" lon="101.743737">
<time>2014-08-04T18:17:03Z</time></trkpt>
<trkpt lat="25.034517" lon="101.743677">
<time>2014-08-04T18:17:04Z</time></trkpt>
<trkpt lat="25.034497" lon="101.743607">
<time>2014-08-04T18:17:05Z</time></trkpt>
<trkpt lat="25.034467" lon="101.743557">
<time>2014-08-04T18:17:06Z</time></trkpt>
<trkpt lat="25.034367" lon="101.743407">
<time>2014-08-04T18:17:07Z</time></trkpt>
<trkpt lat="25.034267" lon="101.743307">
<time>2014-08-04T18:17:08Z</time></trkpt>
<trkpt lat="25.034167" lon="101.743217">
<time>2014-08-04T18:17:09Z</time></trkpt>
<trkpt lat="25.033957" lon="101.743057">
<time>2014-08-04T18:17:10Z</time></trkpt>
<trkpt lat="25.033697" lon="101.742857">
<time>2014-08-04T18:17:11Z</time></trkpt>
<trkpt lat="25.033447" lon="101.742657">
<time>2014-08-04T18:17:12Z</time></trkpt>
<trkpt lat="25.033277" lon="101.742517">
<time>2014-08-04T18:17:13Z</time></trkpt>
<trkpt lat="25.033147" lon="101.742407">
<time>2014-08-04T18:17:14Z</time></trkpt>
<trkpt lat="25.032927" lon="101.742237">
<time>2014-08-04T18:17:15Z</time></trkpt>
<trkpt lat="25.032737" lon="101.742107">
<time>2014-08-04T18:17:16Z</time></trkpt>
<trkpt lat="25.032597" lon="101.742007">
<time>2014-08-04T18:17:17Z</time></trkpt>
<trkpt lat="25.032477" lon="101.741927">
<time>2014-08-04T18:17:18Z</time></trkpt>
<trkpt lat="25.032287" lon="101.741797">
<time>2014-08-04T18:17:19Z</time></trkpt>
<trkpt lat="25.032107" lon="101.741667">
<time>2014-08-04T18:17:20Z</time></trkpt>
<trkpt lat="25.031977" lon="101.741587">
<time>2014-08-04T18:17:21Z</time></trkpt>
<trkpt lat="25.031907" lon="101.741527">
<time>2014-08-04T18:17:22Z</time></trkpt>
<trkpt lat="25.031817" lon="101.741447">
<time>2014-08-04T18:17:23Z</time></trkpt>
<trkpt lat="25.031727" lon="101.741347">
<time>2014-08-04T18:17:24Z</time></trkpt>
<trkpt lat="25.031647" lon="101.741227">
<time>2014-08-04T18:17:25Z</time></trkpt>
<trkpt lat="25.031588" lon="101.741107">
<time>2014-08-04T18:17:26Z</time></trkpt>
<trkpt lat="25.031518" lon="101.740967">
<time>2014-08-04T18:17:27Z</time></trkpt>
<trkpt lat="25.031418" lon="101.740717">
<time>2014-08-04T18:17:28Z</time></trkpt>
<trkpt lat="25.031358" lon="101.740497">
<time>2014-08-04T18:17:29Z</time></trkpt>
<trkpt lat="25.031338" lon="101.740377">
<time>2014-08-04T18:17:30Z</time></trkpt>
<trkpt lat="25.031308" lon="101.740217">
<time>2014-08-04T18:17:31Z</time></trkpt>
<trkpt lat="25.031298" lon="101.740117">
<time>2014-08-04T18:17:32Z</time></trkpt>
<trkpt lat="25.031298" lon="101.740007">
<time>2014-08-04T18:17:33Z</time></trkpt>
<trkpt lat="25.031308" lon="101.739917">
<time>2014-08-04T18:17:34Z</time></trkpt>
<trkpt lat="25.031328" lon="101.739807">
<time>2014-08-04T18:17:35Z</time></trkpt>
<trkpt lat="25.031358" lon="101.739698">
<time>2014-08-04T18:17:36Z</time></trkpt>
<trkpt lat="25.031418" lon="101.739578">
<time>2014-08-04T18:17:37Z</time></trkpt>
<trkpt lat="25.031478" lon="101.739458">
<time>2014-08-04T18:17:38Z</time></trkpt>
<trkpt lat="25.031608" lon="101.739248">
<time>2014-08-04T18:17:39Z</time></trkpt>
<trkpt lat="25.031708" lon="101.739108">
<time>2014-08-04T18:17:40Z</time></trkpt>
<trkpt lat="25.031838" lon="101.738958">
<time>2014-08-04T18:17:41Z</time></trkpt>
<trkpt lat="25.031928" lon="101.738878">
<time>2014-08-04T18:17:42Z</time></trkpt>
<trkpt lat="25.031988" lon="101.738828">
<time>2014-08-04T18:17:43Z</time></trkpt>
<trkpt lat="25.032058" lon="101.738798">
<time>2014-08-04T18:17:44Z</time></trkpt>
<trkpt lat="25.032158" lon="101.738778">
<time>2014-08-04T18:17:45Z</time></trkpt>
<trkpt lat="25.032238" lon="101.738758">
<time>2014-08-04T18:17:46Z</time></trkpt>
<trkpt lat="25.032348" lon="101.738748">
<time>2014-08-04T18:17:47Z</time></trkpt>
<trkpt lat="25.032468" lon="101.738738">
<time>2014-08-04T18:17:48Z</time></trkpt>
<trkpt lat="25.032568" lon="101.738728">
<time>2014-08-04T18:17:49Z</time></trkpt>
<trkpt lat="25.032648" lon="101.738708">
<time>2014-08-04T18:17:50Z</time></trkpt>
<trkpt lat="25.032728" lon="101.738678">
<time>2014-08-04T18:17:51Z</time></trkpt>
<trkpt lat="25.032798" lon="101.738638">
<time>2014-08-04T18:17:52Z</time></trkpt>
<trkpt lat="25.032898" lon="101.738568">
<time>2014-08-04T18:17:53Z</time></trkpt>
<trkpt lat="25.033078" lon="101.738418">
<time>2014-08-04T18:17:54Z</time></trkpt>
<trkpt lat="25.033298" lon="101.738218">
<time>2014-08-04T18:17:55Z</time></trkpt>
<trkpt lat="25.033518" lon="101.738018">
<time>2014-08-04T18:17:56Z</time></trkpt>
<trkpt lat="25.033658" lon="101.737898">
<time>2014-08-04T18:17:57Z</time></trkpt>
<trkpt lat="25.033718" lon="101.737848">
<time>2014-08-04T18:17:58Z</time></trkpt>
<trkpt lat="25.033778" lon="101.737768">
<time>2014-08-04T18:17:59Z</time></trkpt>
<trkpt lat="25.033818" lon="101.737708">
<time>2014-08-04T18:18:00Z</time></trkpt>
<trkpt lat="25.033838" lon="101.737648">
<time>2014-08-04T18:18:01Z</time></trkpt>
<trkpt lat="25.033849" lon="101.737598">
<time>2014-08-04T18:18:02Z</time></trkpt>
<trkpt lat="25.033849" lon="101.737548">
<time>2014-08-04T18:18:03Z</time></trkpt>
<trkpt lat="25.033849" lon="101.737488">
<time>2014-08-04T18:18:04Z</time></trkpt>
<trkpt lat="25.033829" lon="101.737428">
<time>2014-08-04T18:18:05Z</time></trkpt>
<trkpt lat="25.033799" lon="101.737358">
<time>2014-08-04T18:18:06Z</time></trkpt>
<trkpt lat="25.033769" lon="101.737318">
<time>2014-08-04T18:18:07Z</time></trkpt>
<trkpt lat="25.033739" lon="101.737268">
<time>2014-08-04T18:18:08Z</time></trkpt>
<trkpt lat="25.033699" lon="101.737218">
<time>2014-08-04T18:18:09Z</time></trkpt>
<trkpt lat="25.033659" lon="101.737168">
<time>2014-08-04T18:18:10Z</time></trkpt>
<trkpt lat="25.033559" lon="101.737098">
<time>2014-08-04T18:18:11Z</time></trkpt>
<trkpt lat="25.033479" lon="101.737048">
<time>2014-08-04T18:18:12Z</time></trkpt>
<trkpt lat="25.033419" lon="101.737028">
<time>2014-08-04T18:18:13Z</time></trkpt>
<trkpt lat="25.033309" lon="101.736998">
<time>2014-08-04T18:18:14Z</time></trkpt>
<trkpt lat="25.033119" lon="101.736958">
<time>2014-08-04T18:18:15Z</time></trkpt>
<trkpt lat="25.032859" lon="101.736918">
<time>2014-08-04T18:18:16Z</time></trkpt>
<trkpt lat="25.032599" lon="101.736868">
<time>2014-08-04T18:18:17Z</time></trkpt>
<trkpt lat="25.032399" lon="101.736828">
<time>2014-08-04T18:18:18Z</time></trkpt>
<trkpt lat="25.032299" lon="101.736788">
<time>2014-08-04T18:18:19Z</time></trkpt>
<trkpt lat="25.032229" lon="101.736748">
<time>2014-08-04T18:18:20Z</time></trkpt>
<trkpt lat="25.032189" lon="101.736718">
<time>2014-08-04T18:18:21Z</time></trkpt>
<trkpt lat="25.032129" lon="101.736658">
<time>2014-08-04T18:18:22Z</time></trkpt>
<trkpt lat="25.032099" lon="101.736578">
<time>2014-08-04T18:18:23Z</time></trkpt>
<trkpt lat="25.032079" lon="101.736508">
<time>2014-08-04T18:18:24Z</time></trkpt>
<trkpt lat="25.032069" lon="101.736438">
<time>2014-08-04T18:18:25Z</time></trkpt>
<trkpt lat="25.032079" lon="101.736348">
<time>2014-08-04T18:18:26Z</time></trkpt>
<trkpt lat="25.032129" lon="101.736198">
<time>2014-08-04T18:18:27Z</time></trkpt>
<trkpt lat="25.032189" lon="101.736068">
<time>2014-08-04T18:18:28Z</time></trkpt>
<trkpt lat="25.032209" lon="101.735968">
<time>2014-08-04T18:18:29Z</time></trkpt>
<trkpt lat="25.032219" lon="101.735878">
<time>2014-08-04T18:18:30Z</time></trkpt>
<trkpt lat="25.03223" lon="101.735818">
<time>2014-08-04T18:18:31Z</time></trkpt>
<trkpt lat="25.03223" lon="101.735718">
<time>2014-08-04T18:18:32Z</time></trkpt>
<trkpt lat="25.03221" lon="101.735639">
<time>2014-08-04T18:18:33Z</time></trkpt>
<trkpt lat="25.03215" lon="101.735379">
<time>2014-08-04T18:18:34Z</time></trkpt>
<trkpt lat="25.0321" lon="101.735189">
<time>2014-08-04T18:18:35Z</time></trkpt>
<trkpt lat="25.03208" lon="101.735029">
<time>2014-08-04T18:18:36Z</time></trkpt>
<trkpt lat="25.03209" lon="101.734919">
<time>2014-08-04T18:18:37Z</time></trkpt>
<trkpt lat="25.03211" lon="101.734839">
<time>2014-08-04T18:18:38Z</time></trkpt>
<trkpt lat="25.03216" lon="101.734729">
<time>2014-08-04T18:18:39Z</time></trkpt>
<trkpt lat="25.03223" lon="101.734589">
<time>2014-08-04T18:18:40Z</time></trkpt>
<trkpt lat="25.03234" lon="101.734379">
<time>2014-08-04T18:18:41Z</time></trkpt>
<trkpt lat="25.03242" lon="101.734149">
<time>2014-08-04T18:18:42Z</time></trkpt>
<trkpt lat="25.03248" lon="101.734019">
<time>2014-08-04T18:18:43Z</time></trkpt>
<trkpt lat="25.03254" lon="101.733909">
<time>2014-08-04T18:18:44Z</time></trkpt>
<trkpt lat="25.032611" lon="101.733799">
<time>2014-08-04T18:18:45Z</time></trkpt>
<trkpt lat="25.032841" lon="101.733519">
<time>2014-08-04T18:18:46Z</time></trkpt>
<trkpt lat="25.032891" lon="101.733459">
<time>2014-08-04T18:18:47Z</time></trkpt>
<trkpt lat="25.032951" lon="101.733369">
<time>2014-08-04T18:18:48Z</time></trkpt>
<trkpt lat="25.032971" lon="101.733329">
<time>2014-08-04T18:18:49Z</time></trkpt>
<trkpt lat="25.033041" lon="101.733199">
<time>2014-08-04T18:18:50Z</time></trkpt>
<trkpt lat="25.033161" lon="101.73291">
<time>2014-08-04T18:18:51Z</time></trkpt>
<trkpt lat="25.033261" lon="101.73268">
<time>2014-08-04T18:18:52Z</time></trkpt>
<trkpt lat="25.033361" lon="101.73242">
<time>2014-08-04T18:18:53Z</time></trkpt>
<trkpt lat="25.033441" lon="101.73225">
<time>2014-08-04T18:18:54Z</time></trkpt>
<trkpt lat="25.033491" lon="101.73215">
<time>2014-08-04T18:18:55Z</time></trkpt>
<trkpt lat="25.033551" lon="101.73204">
<time>2014-08-04T18:18:56Z</time></trkpt>
<trkpt lat="25.033591" lon="101.73197">
<time>2014-08-04T18:18:57Z</time></trkpt>
<trkpt lat="25.033632" lon="101.73191">
<time>2014-08-04T18:18:58Z</time></trkpt>
<trkpt lat="25.033662" lon="101.73186">
<time>2014-08-04T18:18:59Z</time></trkpt>
<trkpt lat="25.033712" lon="101.73181">
<time>2014-08-04T18:19:00Z</time></trkpt>
<trkpt lat="25.033792" lon="101.73173">
<time>2014-08-04T18:19:01Z</time></trkpt>
<trkpt lat="25.033872" lon="101.73166">
<time>2014-08-04T18:19:02Z</time></trkpt>
<trkpt lat="25.033982" lon="101.73157">
<time>2014-08-04T18:19:03Z</time></trkpt>
<trkpt lat="25.034062" lon="101.73151">
<time>2014-08-04T18:19:04Z</time></trkpt>
<trkpt lat="25.034132" lon="101.73143">
<time>2014-08-04T18:19:05Z</time></trkpt>
<trkpt lat="25.034172" lon="101.73139">
<time>2014-08-04T18:19:06Z</time></trkpt>
<trkpt lat="25.034192" lon="101.73133">
<time>2014-08-04T18:19:07Z</time></trkpt>
<trkpt lat="25.034212" lon="101.73128">
<time>2014-08-04T18:19:08Z</time></trkpt>
<trkpt lat="25.034222" lon="101.73121">
<time>2014-08-04T18:19:09Z</time></trkpt>
<trkpt lat="25.034242" lon="101.73113">
<time>2014-08-04T18:19:10Z</time></trkpt>
<trkpt lat="25.034252" lon="101.730951">
<time>2014-08-04T18:19:11Z</time></trkpt>
<trkpt lat="25.034252" lon="101.730871">
<time>2014-08-04T18:19:12Z</time></trkpt>
<trkpt lat="25.034272" lon="101.730811">
<time>2014-08-04T18:19:13Z</time></trkpt>
<trkpt lat="25.034302" lon="101.730741">
<time>2014-08-04T18:19:14Z</time></trkpt>
<trkpt lat="25.034322" lon="101.730691">
<time>2014-08-04T18:19:15Z</time></trkpt>
<trkpt lat="25.034352" lon="101.730651">
<time>2014-08-04T18:19:16Z</time></trkpt>
<trkpt lat="25.034392" lon="101.730621">
<time>2014-08-04T18:19:17Z</time></trkpt>
<trkpt lat="25.034422" lon="101.730601">
<time>2014-08-04T18:19:18Z</time></trkpt>
<trkpt lat="25.034472" lon="101.730591">
<time>2014-08-04T18:19:19Z</time></trkpt>
<trkpt lat="25.034582" lon="101.730561">
<time>2014-08-04T18:19:20Z</time></trkpt>
<trkpt lat="25.034652" lon="101.730551">
<time>2014-08-04T18:19:21Z</time></trkpt>
<trkpt lat="25.034742" lon="101.730521">
<time>2014-08-04T18:19:22Z</time></trkpt>
<trkpt lat="25.034802" lon="101.730501">
<time>2014-08-04T18:19:23Z</time></trkpt>
<trkpt lat="25.034852" lon="101.730471">
<time>2014-08-04T18:19:24Z</time></trkpt>
<trkpt lat="25.034932" lon="101.730411">
<time>2014-08-04T18:19:25Z</time></trkpt>
<trkpt lat="25.034992" lon="101.730351">
<time>2014-08-04T18:19:26Z</time></trkpt>
<trkpt lat="25.035062" lon="101.730271">
<time>2014-08-04T18:19:27Z</time></trkpt>
<trkpt lat="25.035162" lon="101.730161">
<time>2014-08-04T18:19:28Z</time></trkpt>
<trkpt lat="25.035243" lon="101.730081">
<time>2014-08-04T18:19:29Z</time></trkpt>
<trkpt lat="25.035343" lon="101.729921">
<time>2014-08-04T18:19:30Z</time></trkpt>
<trkpt lat="25.035503" lon="101.729661">
<time>2014-08-04T18:19:31Z</time></trkpt>
<trkpt lat="25.035643" lon="101.729411">
<time>2014-08-04T18:19:32Z</time></trkpt>
<trkpt lat="25.035843" lon="101.729042">
<time>2014-08-04T18:19:33Z</time></trkpt>
<trkpt lat="25.035923" lon="101.728912">
<time>2014-08-04T18:19:34Z</time></trkpt>
<trkpt lat="25.035983" lon="101.728812">
<time>2014-08-04T18:19:35Z</time></trkpt>
<trkpt lat="25.036053" lon="101.728702">
<time>2014-08-04T18:19:36Z</time></trkpt>
<trkpt lat="25.036093" lon="101.728652">
<time>2014-08-04T18:19:37Z</time></trkpt>
<trkpt lat="25.036113" lon="101.728622">
<time>2014-08-04T18:19:38Z</time></trkpt>
<trkpt lat="25.036143" lon="101.728602">
<time>2014-08-04T18:19:39Z</time></trkpt>
<trkpt lat="25.036183" lon="101.728592">
<time>2014-08-04T18:19:40Z</time></trkpt>
<trkpt lat="25.036223" lon="101.728592">
<time>2014-08-04T18:19:41Z</time></trkpt>
<trkpt lat="25.036263" lon="101.728582">
<time>2014-08-04T18:19:42Z</time></trkpt>
<trkpt lat="25.036303" lon="101.728582">
<time>2014-08-04T18:19:43Z</time></trkpt>
<trkpt lat="25.036353" lon="101.728602">
<time>2014-08-04T18:19:44Z</time></trkpt>
<trkpt lat="25.036393" lon="101.728622">
<time>2014-08-04T18:19:45Z</time></trkpt>
<trkpt lat="25.036433" lon="101.728642">
<time>2014-08-04T18:19:46Z</time></trkpt>
<trkpt lat="25.036503" lon="101.728712">
<time>2014-08-04T18:19:47Z</time></trkpt>
<trkpt lat="25.036593" lon="101.728812">
<time>2014-08-04T18:19:48Z</time></trkpt>
<trkpt lat="25.036653" lon="101.728862">
<time>2014-08-04T18:19:49Z</time></trkpt>
<trkpt lat="25.036713" lon="101.728902">
<time>2014-08-04T18:19:50Z</time></trkpt>
<trkpt lat="25.036743" lon="101.728922">
<time>2014-08-04T18:19:51Z</time></trkpt>
<trkpt lat="25.036783" lon="101.728932">
<time>2014-08-04T18:19:52Z</time></trkpt>
<trkpt lat="25.036843" lon="101.728942">
<time>2014-08-04T18:19:53Z</time></trkpt>
<trkpt lat="25.036873" lon="101.728952">
<time>2014-08-04T18:19:54Z</time></trkpt>
<trkpt lat="25.036913" lon="101.728952">
<time>2014-08-04T18:19:55Z</time></trkpt>
<trkpt lat="25.036963" lon="101.728942">
<time>2014-08-04T18:19:56Z</time></trkpt>
<trkpt lat="25.037003" lon="101.728922">
<time>2014-08-04T18:19:57Z</time></trkpt>
<trkpt lat="25.037043" lon="101.728892">
<time>2014-08-04T18:19:58Z</time></trkpt>
<trkpt lat="25.037083" lon="101.728862">
<time>2014-08-04T18:19:59Z</time></trkpt>
<trkpt lat="25.037123" lon="101.728802">
<time>2014-08-04T18:20:00Z</time></trkpt>
<trkpt lat="25.037173" lon="101.728702">
<time>2014-08-04T18:20:01Z</time></trkpt>
<trkpt lat="25.037314" lon="101.728382">
<time>2014-08-04T18:20:02Z</time></trkpt>
<trkpt lat="25.037384" lon="101.728192">
<time>2014-08-04T18:20:03Z</time></trkpt>
<trkpt lat="25.037494" lon="101.727922">
<time>2014-08-04T18:20:04Z</time></trkpt>
<trkpt lat="25.037604" lon="101.727642">
<time>2014-08-04T18:20:05Z</time></trkpt>
<trkpt lat="25.037754" lon="101.727353">
<time>2014-08-04T18:20:06Z</time></trkpt>
<trkpt lat="25.037824" lon="101.727233">
<time>2014-08-04T18:20:07Z</time></trkpt>
<trkpt lat="25.037974" lon="101.727023">
<time>2014-08-04T18:20:08Z</time></trkpt>
<trkpt lat="25.038125" lon="101.726833">
<time>2014-08-04T18:20:09Z</time></trkpt>
<trkpt lat="25.038365" lon="101.726543">
<time>2014-08-04T18:20:10Z</time></trkpt>
<trkpt lat="25.038615" lon="101.726233">
<time>2014-08-04T18:20:11Z</time></trkpt>
<trkpt lat="25.038815" lon="101.726013">
<time>2014-08-04T18:20:12Z</time></trkpt>
<trkpt lat="25.038955" lon="101.725854">
<time>2014-08-04T18:20:13Z</time></trkpt>
<trkpt lat="25.039115" lon="101.725714">
<time>2014-08-04T18:20:14Z</time></trkpt>
<trkpt lat="25.039456" lon="101.725464">
<time>2014-08-04T18:20:15Z</time></trkpt>
<trkpt lat="25.039766" lon="101.725214">
<time>2014-08-04T18:20:16Z</time></trkpt>
<trkpt lat="25.039976" lon="101.725034">
<time>2014-08-04T18:20:17Z</time></trkpt>
<trkpt lat="25.040066" lon="101.724954">
<time>2014-08-04T18:20:18Z</time></trkpt>
<trkpt lat="25.040156" lon="101.724864">
<time>2014-08-04T18:20:19Z</time></trkpt>
<trkpt lat="25.040216" lon="101.724774">
<time>2014-08-04T18:20:20Z</time></trkpt>
<trkpt lat="25.040246" lon="101.724724">
<time>2014-08-04T18:20:21Z</time></trkpt>
<trkpt lat="25.040286" lon="101.724615">
<time>2014-08-04T18:20:22Z</time></trkpt>
<trkpt lat="25.040326" lon="101.724515">
<time>2014-08-04T18:20:23Z</time></trkpt>
<trkpt lat="25.040366" lon="101.724385">
<time>2014-08-04T18:20:24Z</time></trkpt>
<trkpt lat="25.040397" lon="101.724265">
<time>2014-08-04T18:20:25Z</time></trkpt>
<trkpt lat="25.040457" lon="101.724085">
<time>2014-08-04T18:20:26Z</time></trkpt>
<trkpt lat="25.040497" lon="101.723955">
<time>2014-08-04T18:20:27Z</time></trkpt>
<trkpt lat="25.040547" lon="101.723835">
<time>2014-08-04T18:20:28Z</time></trkpt>
<trkpt lat="25.040577" lon="101.723765">
<time>2014-08-04T18:20:29Z</time></trkpt>
<trkpt lat="25.040627" lon="101.723675">
<time>2014-08-04T18:20:30Z</time></trkpt>
<trkpt lat="25.040677" lon="101.723625">
<time>2014-08-04T18:20:31Z</time></trkpt>
<trkpt lat="25.040747" lon="101.723575">
<time>2014-08-04T18:20:32Z</time></trkpt>
<trkpt lat="25.040797" lon="101.723545">
<time>2014-08-04T18:20:33Z</time></trkpt>
<trkpt lat="25.040857" lon="101.723525">
<time>2014-08-04T18:20:34Z</time></trkpt>
<trkpt lat="25.040947" lon="101.723495">
<time>2014-08-04T18:20:35Z</time></trkpt>
<trkpt lat="25.041177" lon="101.723445">
<time>2014-08-04T18:20:36Z</time></trkpt>
<trkpt lat="25.041327" lon="101.723405">
<time>2014-08-04T18:20:37Z</time></trkpt>
<trkpt lat="25.041537" lon="101.723326">
<time>2014-08-04T18:20:38Z</time></trkpt>
<trkpt lat="25.041657" lon="101.723286">
<time>2014-08-04T18:20:39Z</time></trkpt>
<trkpt lat="25.041727" lon="101.723266">
<time>2014-08-04T18:20:40Z</time></trkpt>
<trkpt lat="25.041797" lon="101.723256">
<time>2014-08-04T18:20:41Z</time></trkpt>
<trkpt lat="25.041847" lon="101.723246">
<time>2014-08-04T18:20:42Z</time></trkpt>
<trkpt lat="25.041927" lon="101.723246">
<time>2014-08-04T18:20:43Z</time></trkpt>
<trkpt lat="25.041987" lon="101.723246">
<time>2014-08-04T18:20:44Z</time></trkpt>
<trkpt lat="25.042047" lon="101.723256">
<time>2014-08-04T18:20:45Z</time></trkpt>
<trkpt lat="25.042077" lon="101.723266">
<time>2014-08-04T18:20:46Z</time></trkpt>
<trkpt lat="25.042147" lon="101.723286">
<time>2014-08-04T18:20:47Z</time></trkpt>
<trkpt lat="25.042187" lon="101.723315">
<time>2014-08-04T18:20:48Z</time></trkpt>
<trkpt lat="25.042227" lon="101.723335">
<time>2014-08-04T18:20:49Z</time></trkpt>
<trkpt lat="25.042287" lon="101.723375">
<time>2014-08-04T18:20:50Z</time></trkpt>
<trkpt lat="25.042377" lon="101.723455">
<time>2014-08-04T18:20:51Z</time></trkpt>
<trkpt lat="25.042417" lon="101.723505">
<time>2014-08-04T18:20:52Z</time></trkpt>
<trkpt lat="25.042557" lon="101.723645">
<time>2014-08-04T18:20:53Z</time></trkpt>
<trkpt lat="25.042647" lon="101.723725">
<time>2014-08-04T18:20:54Z</time></trkpt>
<trkpt lat="25.042777" lon="101.723835">
<time>2014-08-04T18:20:55Z</time></trkpt>
<trkpt lat="25.042957" lon="101.723965">
<time>2014-08-04T18:20:56Z</time></trkpt>
<trkpt lat="25.043346" lon="101.724235">
<time>2014-08-04T18:20:57Z</time></trkpt>
<trkpt lat="25.043726" lon="101.724485">
<time>2014-08-04T18:20:58Z</time></trkpt>
<trkpt lat="25.043956" lon="101.724644">
<time>2014-08-04T18:20:59Z</time></trkpt>
<trkpt lat="25.044176" lon="101.724814">
<time>2014-08-04T18:21:00Z</time></trkpt>
<trkpt lat="25.044356" lon="101.724914">
<time>2014-08-04T18:21:01Z</time></trkpt>
<trkpt lat="25.044426" lon="101.724944">
<time>2014-08-04T18:21:02Z</time></trkpt>
<trkpt lat="25.044485" lon="101.724954">
<time>2014-08-04T18:21:03Z</time></trkpt>
<trkpt lat="25.044545" lon="101.724954">
<time>2014-08-04T18:21:04Z</time></trkpt>
<trkpt lat="25.044595" lon="101.724954">
<time>2014-08-04T18:21:05Z</time></trkpt>
<trkpt lat="25.044645" lon="101.724934">
<time>2014-08-04T18:21:06Z</time></trkpt>
<trkpt lat="25.044675" lon="101.724914">
<time>2014-08-04T18:21:07Z</time></trkpt>
<trkpt lat="25.044716" lon="101.724884">
<time>2014-08-04T18:21:08Z</time></trkpt>
<trkpt lat="25.044756" lon="101.724854">
<time>2014-08-04T18:21:09Z</time></trkpt>
<trkpt lat="25.044776" lon="101.724814">
<time>2014-08-04T18:21:10Z</time></trkpt>
<trkpt lat="25.044786" lon="101.724764">
<time>2014-08-04T18:21:11Z</time></trkpt>
<trkpt lat="25.044806" lon="101.724704">
<time>2014-08-04T18:21:12Z</time></trkpt>
<trkpt lat="25.044806" lon="101.724654">
<time>2014-08-04T18:21:13Z</time></trkpt>
<trkpt lat="25.044806" lon="101.724574">
<time>2014-08-04T18:21:14Z</time></trkpt>
<trkpt lat="25.044796" lon="101.724504">
<time>2014-08-04T18:21:15Z</time></trkpt>
<trkpt lat="25.044776" lon="101.724415">
<time>2014-08-04T18:21:16Z</time></trkpt>
<trkpt lat="25.044736" lon="101.724245">
<time>2014-08-04T18:21:17Z</time></trkpt>
<trkpt lat="25.044716" lon="101.724145">
<time>2014-08-04T18:21:18Z</time></trkpt>
<trkpt lat="25.044676" lon="101.724035">
<time>2014-08-04T18:21:19Z</time></trkpt>
<trkpt lat="25.044656" lon="101.723965">
<time>2014-08-04T18:21:20Z</time></trkpt>
<trkpt lat="25.044626" lon="101.723885">
<time>2014-08-04T18:21:21Z</time></trkpt>
<trkpt lat="25.044557" lon="101.723685">
<time>2014-08-04T18:21:22Z</time></trkpt>
<trkpt lat="25.044497" lon="101.723525">
<time>2014-08-04T18:21:23Z</time></trkpt>
<trkpt lat="25.044477" lon="101.723425">
<time>2014-08-04T18:21:24Z</time></trkpt>
<trkpt lat="25.044427" lon="101.723226">
<time>2014-08-04T18:21:25Z</time></trkpt>
<trkpt lat="25.044357" lon="101.722836">
<time>2014-08-04T18:21:26Z</time></trkpt>
<trkpt lat="25.044328" lon="101.722706">
<time>2014-08-04T18:21:27Z</time></trkpt>
<trkpt lat="25.044278" lon="101.722526">
<time>2014-08-04T18:21:28Z</time></trkpt>
<trkpt lat="25.044248" lon="101.722416">
<time>2014-08-04T18:21:29Z</time></trkpt>
<trkpt lat="25.044218" lon="101.722336">
<time>2014-08-04T18:21:30Z</time></trkpt>
<trkpt lat="25.044188" lon="101.722266">
<time>2014-08-04T18:21:31Z</time></trkpt>
<trkpt lat="25.044148" lon="101.722186">
<time>2014-08-04T18:21:32Z</time></trkpt>
<trkpt lat="25.044098" lon="101.722106">
<time>2014-08-04T18:21:33Z</time></trkpt>
<trkpt lat="25.044028" lon="101.722017">
<time>2014-08-04T18:21:34Z</time></trkpt>
<trkpt lat="25.043958" lon="101.721927">
<time>2014-08-04T18:21:35Z</time></trkpt>
<trkpt lat="25.043918" lon="101.721867">
<time>2014-08-04T18:21:36Z</time></trkpt>
<trkpt lat="25.043898" lon="101.721817">
<time>2014-08-04T18:21:37Z</time></trkpt>
<trkpt lat="25.043879" lon="101.721757">
<time>2014-08-04T18:21:38Z</time></trkpt>
<trkpt lat="25.043869" lon="101.721677">
<time>2014-08-04T18:21:39Z</time></trkpt>
<trkpt lat="25.043869" lon="101.721617">
<time>2014-08-04T18:21:40Z</time></trkpt>
<trkpt lat="25.043889" lon="101.721547">
<time>2014-08-04T18:21:41Z</time></trkpt>
<trkpt lat="25.043899" lon="101.721477">
<time>2014-08-04T18:21:42Z</time></trkpt>
<trkpt lat="25.043949" lon="101.721397">
<time>2014-08-04T18:21:43Z</time></trkpt>
<trkpt lat="25.043999" lon="101.721317">
<time>2014-08-04T18:21:44Z</time></trkpt>
<trkpt lat="25.044079" lon="101.721227">
<time>2014-08-04T18:21:45Z</time></trkpt>
<trkpt lat="25.044149" lon="101.721147">
<time>2014-08-04T18:21:46Z</time></trkpt>
<trkpt lat="25.044229" lon="101.721067">
<time>2014-08-04T18:21:47Z</time></trkpt>
<trkpt lat="25.044369" lon="101.720967">
<time>2014-08-04T18:21:48Z</time></trkpt>
<trkpt lat="25.044459" lon="101.720908">
<time>2014-08-04T18:21:49Z</time></trkpt>
<trkpt lat="25.044539" lon="101.720848">
<time>2014-08-04T18:21:50Z</time></trkpt>
<trkpt lat="25.044579" lon="101.720798">
<time>2014-08-04T18:21:51Z</time></trkpt>
<trkpt lat="25.044619" lon="101.720748">
<time>2014-08-04T18:21:52Z</time></trkpt>
<trkpt lat="25.044639" lon="101.720698">
<time>2014-08-04T18:21:53Z</time></trkpt>
<trkpt lat="25.04464" lon="101.720638">
<time>2014-08-04T18:21:54Z</time></trkpt>
<trkpt lat="25.04463" lon="101.720608">
<time>2014-08-04T18:21:55Z</time></trkpt>
<trkpt lat="25.04462" lon="101.720558">
<time>2014-08-04T18:21:56Z</time></trkpt>
<trkpt lat="25.0446" lon="101.720508">
<time>2014-08-04T18:21:57Z</time></trkpt>
<trkpt lat="25.04457" lon="101.720458">
<time>2014-08-04T18:21:58Z</time></trkpt>
<trkpt lat="25.04454" lon="101.720428">
<time>2014-08-04T18:21:59Z</time></trkpt>
<trkpt lat="25.04447" lon="101.720368">
<time>2014-08-04T18:22:00Z</time></trkpt>
<trkpt lat="25.04442" lon="101.720338">
<time>2014-08-04T18:22:01Z</time></trkpt>
<trkpt lat="25.04438" lon="101.720318">
<time>2014-08-04T18:22:02Z</time></trkpt>
<trkpt lat="25.04427" lon="101.720278">
<time>2014-08-04T18:22:03Z</time></trkpt>
<trkpt lat="25.04416" lon="101.720238">
<time>2014-08-04T18:22:04Z</time></trkpt>
<trkpt lat="25.04396" lon="101.720188">
<time>2014-08-04T18:22:05Z</time></trkpt>
<trkpt lat="25.04383" lon="101.720148">
<time>2014-08-04T18:22:06Z</time></trkpt>
<trkpt lat="25.04369" lon="101.720108">
<time>2014-08-04T18:22:07Z</time></trkpt>
<trkpt lat="25.04361" lon="101.720078">
<time>2014-08-04T18:22:08Z</time></trkpt>
<trkpt lat="25.0435" lon="101.720028">
<time>2014-08-04T18:22:09Z</time></trkpt>
<trkpt lat="25.04341" lon="101.719978">
<time>2014-08-04T18:22:10Z</time></trkpt>
<trkpt lat="25.04334" lon="101.719938">
<time>2014-08-04T18:22:11Z</time></trkpt>
<trkpt lat="25.04327" lon="101.719889">
<time>2014-08-04T18:22:12Z</time></trkpt>
<trkpt lat="25.043151" lon="101.719799">
<time>2014-08-04T18:22:13Z</time></trkpt>
<trkpt lat="25.043071" lon="101.719719">
<time>2014-08-04T18:22:14Z</time></trkpt>
<trkpt lat="25.042991" lon="101.719639">
<time>2014-08-04T18:22:15Z</time></trkpt>
<trkpt lat="25.042941" lon="101.719589">
<time>2014-08-04T18:22:16Z</time></trkpt>
<trkpt lat="25.042891" lon="101.719519">
<time>2014-08-04T18:22:17Z</time></trkpt>
<trkpt lat="25.042861" lon="101.719459">
<time>2014-08-04T18:22:18Z</time></trkpt>
<trkpt lat="25.042831" lon="101.719399">
<time>2014-08-04T18:22:19Z</time></trkpt>
<trkpt lat="25.042791" lon="101.719319">
<time>2014-08-04T18:22:20Z</time></trkpt>
<trkpt lat="25.042771" lon="101.719259">
<time>2014-08-04T18:22:21Z</time></trkpt>
<trkpt lat="25.042721" lon="101.719099">
<time>2014-08-04T18:22:22Z</time></trkpt>
<trkpt lat="25.042582" lon="101.71864">
<time>2014-08-04T18:22:23Z</time></trkpt>
<trkpt lat="25.042482" lon="101.71834">
<time>2014-08-04T18:22:24Z</time></trkpt>
<trkpt lat="25.042373" lon="101.71804">
<time>2014-08-04T18:22:25Z</time></trkpt>
<trkpt lat="25.042283" lon="101.717751">
<time>2014-08-04T18:22:26Z</time></trkpt>
<trkpt lat="25.042203" lon="101.717491">
<time>2014-08-04T18:22:27Z</time></trkpt>
<trkpt lat="25.042173" lon="101.717381">
<time>2014-08-04T18:22:28Z</time></trkpt>
<trkpt lat="25.042153" lon="101.717261">
<time>2014-08-04T18:22:29Z</time></trkpt>
<trkpt lat="25.042154" lon="101.717181">
<time>2014-08-04T18:22:30Z</time></trkpt>
<trkpt lat="25.042154" lon="101.717091">
<time>2014-08-04T18:22:31Z</time></trkpt>
<trkpt lat="25.042174" lon="101.717031">
<time>2014-08-04T18:22:32Z</time></trkpt>
<trkpt lat="25.042194" lon="101.716962">
<time>2014-08-04T18:22:33Z</time></trkpt>
<trkpt lat="25.042254" lon="101.716812">
<time>2014-08-04T18:22:34Z</time></trkpt>
<trkpt lat="25.042424" lon="101.716492">
<time>2014-08-04T18:22:35Z</time></trkpt>
<trkpt lat="25.042565" lon="101.716232">
<time>2014-08-04T18:22:36Z</time></trkpt>
<trkpt lat="25.042665" lon="101.716033">
<time>2014-08-04T18:22:37Z</time></trkpt>
<trkpt lat="25.042765" lon="101.715853">
<time>2014-08-04T18:22:38Z</time></trkpt>
<trkpt lat="25.042865" lon="101.715683">
<time>2014-08-04T18:22:39Z</time></trkpt>
<trkpt lat="25.042985" lon="101.715513">
<time>2014-08-04T18:22:40Z</time></trkpt>
<trkpt lat="25.043025" lon="101.715463">
<time>2014-08-04T18:22:41Z</time></trkpt>
<trkpt lat="25.043075" lon="101.715423">
<time>2014-08-04T18:22:42Z</time></trkpt>
<trkpt lat="25.043145" lon="101.715373">
<time>2014-08-04T18:22:43Z</time></trkpt>
<trkpt lat="25.043186" lon="101.715353">
<time>2014-08-04T18:22:44Z</time></trkpt>
<trkpt lat="25.043246" lon="101.715343">
<time>2014-08-04T18:22:45Z</time></trkpt>
<trkpt lat="25.043286" lon="101.715333">
<time>2014-08-04T18:22:46Z</time></trkpt>
<trkpt lat="25.043366" lon="101.715323">
<time>2014-08-04T18:22:47Z</time></trkpt>
<trkpt lat="25.043466" lon="101.715313">
<time>2014-08-04T18:22:48Z</time></trkpt>
<trkpt lat="25.043596" lon="101.715313">
<time>2014-08-04T18:22:49Z</time></trkpt>
<trkpt lat="25.043656" lon="101.715303">
<time>2014-08-04T18:22:50Z</time></trkpt>
<trkpt lat="25.043706" lon="101.715283">
<time>2014-08-04T18:22:51Z</time></trkpt>
<trkpt lat="25.043756" lon="101.715263">
<time>2014-08-04T18:22:52Z</time></trkpt>
<trkpt lat="25.043796" lon="101.715253">
<time>2014-08-04T18:22:53Z</time></trkpt>
<trkpt lat="25.043846" lon="101.715223">
<time>2014-08-04T18:22:54Z</time></trkpt>
<trkpt lat="25.043886" lon="101.715183">
<time>2014-08-04T18:22:55Z</time></trkpt>
<trkpt lat="25.043926" lon="101.715153">
<time>2014-08-04T18:22:56Z</time></trkpt>
<trkpt lat="25.043986" lon="101.715074">
<time>2014-08-04T18:22:57Z</time></trkpt>
<trkpt lat="25.044036" lon="101.714994">
<time>2014-08-04T18:22:58Z</time></trkpt>
<trkpt lat="25.044086" lon="101.714894">
<time>2014-08-04T18:22:59Z</time></trkpt>
<trkpt lat="25.044126" lon="101.714794">
<time>2014-08-04T18:23:00Z</time></trkpt>
<trkpt lat="25.044216" lon="101.714554">
<time>2014-08-04T18:23:01Z</time></trkpt>
<trkpt lat="25.044297" lon="101.714324">
<time>2014-08-04T18:23:02Z</time></trkpt>
<trkpt lat="25.044347" lon="101.714205">
<time>2014-08-04T18:23:03Z</time></trkpt>
<trkpt lat="25.044427" lon="101.714045">
<time>2014-08-04T18:23:04Z</time></trkpt>
<trkpt lat="25.044527" lon="101.713885">
<time>2014-08-04T18:23:05Z</time></trkpt>
<trkpt lat="25.044697" lon="101.713645">
<time>2014-08-04T18:23:06Z</time></trkpt>
<trkpt lat="25.044808" lon="101.713415">
<time>2014-08-04T18:23:07Z</time></trkpt>
<trkpt lat="25.044918" lon="101.713166">
<time>2014-08-04T18:23:08Z</time></trkpt>
<trkpt lat="25.044978" lon="101.712976">
<time>2014-08-04T18:23:09Z</time></trkpt>
<trkpt lat="25.045038" lon="101.712766">
<time>2014-08-04T18:23:10Z</time></trkpt>
<trkpt lat="25.045049" lon="101.712686">
<time>2014-08-04T18:23:11Z</time></trkpt>
<trkpt lat="25.045049" lon="101.712606">
<time>2014-08-04T18:23:12Z</time></trkpt>
<trkpt lat="25.045029" lon="101.712546">
<time>2014-08-04T18:23:13Z</time></trkpt>
<trkpt lat="25.045019" lon="101.712487">
<time>2014-08-04T18:23:14Z</time></trkpt>
<trkpt lat="25.044999" lon="101.712447">
<time>2014-08-04T18:23:15Z</time></trkpt>
<trkpt lat="25.044969" lon="101.712397">
<time>2014-08-04T18:23:16Z</time></trkpt>
<trkpt lat="25.044929" lon="101.712357">
<time>2014-08-04T18:23:17Z</time></trkpt>
<trkpt lat="25.044889" lon="101.712317">
<time>2014-08-04T18:23:18Z</time></trkpt>
<trkpt lat="25.044849" lon="101.712297">
<time>2014-08-04T18:23:19Z</time></trkpt>
<trkpt lat="25.044799" lon="101.712287">
<time>2014-08-04T18:23:20Z</time></trkpt>
<trkpt lat="25.044759" lon="101.712287">
<time>2014-08-04T18:23:21Z</time></trkpt>
<trkpt lat="25.044699" lon="101.712297">
<time>2014-08-04T18:23:22Z</time></trkpt>
<trkpt lat="25.044599" lon="101.712327">
<time>2014-08-04T18:23:23Z</time></trkpt>
<trkpt lat="25.044509" lon="101.712357">
<time>2014-08-04T18:23:24Z</time></trkpt>
<trkpt lat="25.044369" lon="101.712397">
<time>2014-08-04T18:23:25Z</time></trkpt>
<trkpt lat="25.044299" lon="101.712397">
<time>2014-08-04T18:23:26Z</time></trkpt>
<trkpt lat="25.044239" lon="101.712377">
<time>2014-08-04T18:23:27Z</time></trkpt>
<trkpt lat="25.044179" lon="101.712357">
<time>2014-08-04T18:23:28Z</time></trkpt>
<trkpt lat="25.044109" lon="101.712307">
<time>2014-08-04T18:23:29Z</time></trkpt>
<trkpt lat="25.044059" lon="101.712257">
<time>2014-08-04T18:23:30Z</time></trkpt>
<trkpt lat="25.044019" lon="101.712217">
<time>2014-08-04T18:23:31Z</time></trkpt>
<trkpt lat="25.043939" lon="101.712137">
<time>2014-08-04T18:23:32Z</time></trkpt>
<trkpt lat="25.043839" lon="101.712057">
<time>2014-08-04T18:23:33Z</time></trkpt>
<trkpt lat="25.04373" lon="101.711957">
<time>2014-08-04T18:23:34Z</time></trkpt>
<trkpt lat="25.04365" lon="101.711907">
<time>2014-08-04T18:23:35Z</time></trkpt>
<trkpt lat="25.04357" lon="101.711867">
<time>2014-08-04T18:23:36Z</time></trkpt>
<trkpt lat="25.04346" lon="101.711817">
<time>2014-08-04T18:23:37Z</time></trkpt>
<trkpt lat="25.04327" lon="101.711747">
<time>2014-08-04T18:23:38Z</time></trkpt>
<trkpt lat="25.04319" lon="101.711708">
<time>2014-08-04T18:23:39Z</time></trkpt>
<trkpt lat="25.04315" lon="101.711678">
<time>2014-08-04T18:23:40Z</time></trkpt>
<trkpt lat="25.04312" lon="101.711658">
<time>2014-08-04T18:23:41Z</time></trkpt>
<trkpt lat="25.04309" lon="101.711628">
<time>2014-08-04T18:23:42Z</time></trkpt>
<trkpt lat="25.04308" lon="101.711598">
<time>2014-08-04T18:23:43Z</time></trkpt>
<trkpt lat="25.04306" lon="101.711558">
<time>2014-08-04T18:23:44Z</time></trkpt>
<trkpt lat="25.04305" lon="101.711528">
<time>2014-08-04T18:23:45Z</time></trkpt>
<trkpt lat="25.04304" lon="101.711478">
<time>2014-08-04T18:23:46Z</time></trkpt>
<trkpt lat="25.04304" lon="101.711438">
<time>2014-08-04T18:23:47Z</time></trkpt>
<trkpt lat="25.04304" lon="101.711428">
<time>2014-08-04T18:23:48Z</time></trkpt>
<trkpt lat="25.04304" lon="101.711378">
<time>2014-08-04T18:23:49Z</time></trkpt>
<trkpt lat="25.04304" lon="101.711338">
<time>2014-08-04T18:23:50Z</time></trkpt>
<trkpt lat="25.043061" lon="101.711278">
<time>2014-08-04T18:23:51Z</time></trkpt>
<trkpt lat="25.043071" lon="101.711238">
<time>2014-08-04T18:23:52Z</time></trkpt>
<trkpt lat="25.043091" lon="101.711188">
<time>2014-08-04T18:23:53Z</time></trkpt>
<trkpt lat="25.043111" lon="101.711158">
<time>2014-08-04T18:23:54Z</time></trkpt>
<trkpt lat="25.043151" lon="101.711088">
<time>2014-08-04T18:23:55Z</time></trkpt>
<trkpt lat="25.043201" lon="101.710998">
<time>2014-08-04T18:23:56Z</time></trkpt>
<trkpt lat="25.043291" lon="101.710899">
<time>2014-08-04T18:23:57Z</time></trkpt>
<trkpt lat="25.043431" lon="101.710669">
<time>2014-08-04T18:23:58Z</time></trkpt>
<trkpt lat="25.043522" lon="101.710509">
<time>2014-08-04T18:23:59Z</time></trkpt>
<trkpt lat="25.043612" lon="101.710359">
<time>2014-08-04T18:24:00Z</time></trkpt>
<trkpt lat="25.043662" lon="101.710249">
<time>2014-08-04T18:24:01Z</time></trkpt>
<trkpt lat="25.043732" lon="101.71012">
<time>2014-08-04T18:24:02Z</time></trkpt>
<trkpt lat="25.043772" lon="101.71001">
<time>2014-08-04T18:24:03Z</time></trkpt>
<trkpt lat="25.043792" lon="101.70992">
<time>2014-08-04T18:24:04Z</time></trkpt>
<trkpt lat="25.043853" lon="101.70971">
<time>2014-08-04T18:24:05Z</time></trkpt>
<trkpt lat="25.043893" lon="101.70951">
<time>2014-08-04T18:24:06Z</time></trkpt>
<trkpt lat="25.043963" lon="101.709191">
<time>2014-08-04T18:24:07Z</time></trkpt>
<trkpt lat="25.044054" lon="101.708681">
<time>2014-08-04T18:24:08Z</time></trkpt>
<trkpt lat="25.044134" lon="101.708312">
<time>2014-08-04T18:24:09Z</time></trkpt>
<trkpt lat="25.044175" lon="101.708162">
<time>2014-08-04T18:24:10Z</time></trkpt>
<trkpt lat="25.044235" lon="101.708012">
<time>2014-08-04T18:24:11Z</time></trkpt>
<trkpt lat="25.044285" lon="101.707892">
<time>2014-08-04T18:24:12Z</time></trkpt>
<trkpt lat="25.044325" lon="101.707813">
<time>2014-08-04T18:24:13Z</time></trkpt>
<trkpt lat="25.044425" lon="101.707653">
<time>2014-08-04T18:24:14Z</time></trkpt>
<trkpt lat="25.044525" lon="101.707533">
<time>2014-08-04T18:24:15Z</time></trkpt>
<trkpt lat="25.044736" lon="101.707273">
<time>2014-08-04T18:24:16Z</time></trkpt>
<trkpt lat="25.044986" lon="101.707004">
<time>2014-08-04T18:24:17Z</time></trkpt>
<trkpt lat="25.045327" lon="101.706634">
<time>2014-08-04T18:24:18Z</time></trkpt>
<trkpt lat="25.045617" lon="101.706315">
<time>2014-08-04T18:24:19Z</time></trkpt>
<trkpt lat="25.045887" lon="101.706025">
<time>2014-08-04T18:24:20Z</time></trkpt>
<trkpt lat="25.046158" lon="101.705735">
<time>2014-08-04T18:24:21Z</time></trkpt>
<trkpt lat="25.046458" lon="101.705406">
<time>2014-08-04T18:24:22Z</time></trkpt>
<trkpt lat="25.046588" lon="101.705266">
<time>2014-08-04T18:24:23Z</time></trkpt>
<trkpt lat="25.046709" lon="101.705116">
<time>2014-08-04T18:24:24Z</time></trkpt>
<trkpt lat="25.046769" lon="101.705046">
<time>2014-08-04T18:24:25Z</time></trkpt>
<trkpt lat="25.046819" lon="101.704957">
<time>2014-08-04T18:24:26Z</time></trkpt>
<trkpt lat="25.046859" lon="101.704897">
<time>2014-08-04T18:24:27Z</time></trkpt>
<trkpt lat="25.046879" lon="101.704817">
<time>2014-08-04T18:24:28Z</time></trkpt>
<trkpt lat="25.046899" lon="101.704747">
<time>2014-08-04T18:24:29Z</time></trkpt>
<trkpt lat="25.046909" lon="101.704637">
<time>2014-08-04T18:24:30Z</time></trkpt>
<trkpt lat="25.0469" lon="101.704297">
<time>2014-08-04T18:24:31Z</time></trkpt>
<trkpt lat="25.0469" lon="101.704108">
<time>2014-08-04T18:24:32Z</time></trkpt>
<trkpt lat="25.046911" lon="101.703858">
<time>2014-08-04T18:24:33Z</time></trkpt>
<trkpt lat="25.046931" lon="101.703579">
<time>2014-08-04T18:24:34Z</time></trkpt>
<trkpt lat="25.046961" lon="101.703269">
<time>2014-08-04T18:24:35Z</time></trkpt>
<trkpt lat="25.047022" lon="101.70286">
<time>2014-08-04T18:24:36Z</time></trkpt>
<trkpt lat="25.047103" lon="101.70241">
<time>2014-08-04T18:24:37Z</time></trkpt>
<trkpt lat="25.047183" lon="101.702051">
<time>2014-08-04T18:24:38Z</time></trkpt>
<trkpt lat="25.047274" lon="101.701671">
<time>2014-08-04T18:24:39Z</time></trkpt>
<trkpt lat="25.047364" lon="101.701342">
<time>2014-08-04T18:24:40Z</time></trkpt>
<trkpt lat="25.047405" lon="101.701192">
<time>2014-08-04T18:24:41Z</time></trkpt>
<trkpt lat="25.047445" lon="101.701072">
<time>2014-08-04T18:24:42Z</time></trkpt>
<trkpt lat="25.047495" lon="101.700982">
<time>2014-08-04T18:24:43Z</time></trkpt>
<trkpt lat="25.047575" lon="101.700843">
<time>2014-08-04T18:24:44Z</time></trkpt>
<trkpt lat="25.047635" lon="101.700763">
<time>2014-08-04T18:24:45Z</time></trkpt>
<trkpt lat="25.047705" lon="101.700683">
<time>2014-08-04T18:24:46Z</time></trkpt>
<trkpt lat="25.047825" lon="101.700563">
<time>2014-08-04T18:24:47Z</time></trkpt>
<trkpt lat="25.047956" lon="101.700423">
<time>2014-08-04T18:24:48Z</time></trkpt>
<trkpt lat="25.048136" lon="101.700244">
<time>2014-08-04T18:24:49Z</time></trkpt>
<trkpt lat="25.048236" lon="101.700124">
<time>2014-08-04T18:24:50Z</time></trkpt>
<trkpt lat="25.048316" lon="101.700004">
<time>2014-08-04T18:24:51Z</time></trkpt>
<trkpt lat="25.048407" lon="101.699784">
<time>2014-08-04T18:24:52Z</time></trkpt>
<trkpt lat="25.048467" lon="101.699605">
<time>2014-08-04T18:24:53Z</time></trkpt>
<trkpt lat="25.048638" lon="101.699045">
<time>2014-08-04T18:24:54Z</time></trkpt>
<trkpt lat="25.048758" lon="101.698646">
<time>2014-08-04T18:24:55Z</time></trkpt>
<trkpt lat="25.048839" lon="101.698307">
<time>2014-08-04T18:24:56Z</time></trkpt>
<trkpt lat="25.048879" lon="101.698147">
<time>2014-08-04T18:24:57Z</time></trkpt>
<trkpt lat="25.04895" lon="101.697867">
<time>2014-08-04T18:24:58Z</time></trkpt>
<trkpt lat="25.04897" lon="101.697718">
<time>2014-08-04T18:24:59Z</time></trkpt>
<trkpt lat="25.04899" lon="101.697568">
<time>2014-08-04T18:25:00Z</time></trkpt>
<trkpt lat="25.049001" lon="101.697298">
<time>2014-08-04T18:25:01Z</time></trkpt>
<trkpt lat="25.049011" lon="101.696899">
<time>2014-08-04T18:25:02Z</time></trkpt>
<trkpt lat="25.049012" lon="101.69653">
<time>2014-08-04T18:25:03Z</time></trkpt>
<trkpt lat="25.049012" lon="101.69647">
<time>2014-08-04T18:25:04Z</time></trkpt>
<trkpt lat="25.049023" lon="101.69612">
<time>2014-08-04T18:25:05Z</time></trkpt>
<trkpt lat="25.049023" lon="101.695681">
<time>2014-08-04T18:25:06Z</time></trkpt>
<trkpt lat="25.049034" lon="101.695252">
<time>2014-08-04T18:25:07Z</time></trkpt>
<trkpt lat="25.049035" lon="101.694832">
<time>2014-08-04T18:25:08Z</time></trkpt>
<trkpt lat="25.049025" lon="101.694533">
<time>2014-08-04T18:25:09Z</time></trkpt>
<trkpt lat="25.049005" lon="101.694423">
<time>2014-08-04T18:25:10Z</time></trkpt>
<trkpt lat="25.048986" lon="101.694303">
<time>2014-08-04T18:25:11Z</time></trkpt>
<trkpt lat="25.048946" lon="101.694144">
<time>2014-08-04T18:25:12Z</time></trkpt>
<trkpt lat="25.048906" lon="101.694024">
<time>2014-08-04T18:25:13Z</time></trkpt>
<trkpt lat="25.048856" lon="101.693924">
<time>2014-08-04T18:25:14Z</time></trkpt>
<trkpt lat="25.048816" lon="101.693834">
<time>2014-08-04T18:25:15Z</time></trkpt>
<trkpt lat="25.048776" lon="101.693774">
<time>2014-08-04T18:25:16Z</time></trkpt>
<trkpt lat="25.048727" lon="101.693684">
<time>2014-08-04T18:25:17Z</time></trkpt>
<trkpt lat="25.048637" lon="101.693545">
<time>2014-08-04T18:25:18Z</time></trkpt>
<trkpt lat="25.048427" lon="101.693225">
<time>2014-08-04T18:25:19Z</time></trkpt>
<trkpt lat="25.048368" lon="101.693105">
<time>2014-08-04T18:25:20Z</time></trkpt>
<trkpt lat="25.048318" lon="101.692986">
<time>2014-08-04T18:25:21Z</time></trkpt>
<trkpt lat="25.048288" lon="101.692916">
<time>2014-08-04T18:25:22Z</time></trkpt>
<trkpt lat="25.048268" lon="101.692856">
<time>2014-08-04T18:25:23Z</time></trkpt>
<trkpt lat="25.048258" lon="101.692786">
<time>2014-08-04T18:25:24Z</time></trkpt>
<trkpt lat="25.048258" lon="101.692726">
<time>2014-08-04T18:25:25Z</time></trkpt>
<trkpt lat="25.048258" lon="101.692656">
<time>2014-08-04T18:25:26Z</time></trkpt>
<trkpt lat="25.048259" lon="101.692586">
<time>2014-08-04T18:25:27Z</time></trkpt>
<trkpt lat="25.048279" lon="101.692496">
<time>2014-08-04T18:25:28Z</time></trkpt>
<trkpt lat="25.048329" lon="101.692287">
<time>2014-08-04T18:25:29Z</time></trkpt>
<trkpt lat="25.04843" lon="101.691887">
<time>2014-08-04T18:25:30Z</time></trkpt>
<trkpt lat="25.04845" lon="101.691748">
<time>2014-08-04T18:25:31Z</time></trkpt>
<trkpt lat="25.04848" lon="101.691608">
<time>2014-08-04T18:25:32Z</time></trkpt>
<trkpt lat="25.048511" lon="101.691378">
<time>2014-08-04T18:25:33Z</time></trkpt>
<trkpt lat="25.048431" lon="101.691318">
<time>2014-08-04T18:25:34Z</time></trkpt>
<trkpt lat="25.048361" lon="101.691259">
<time>2014-08-04T18:25:35Z</time></trkpt>
<trkpt lat="25.048261" lon="101.691189">
<time>2014-08-04T18:25:36Z</time></trkpt>
<trkpt lat="25.048011" lon="101.691089">
<time>2014-08-04T18:25:37Z</time></trkpt>
<trkpt lat="25.047741" lon="101.690979">
<time>2014-08-04T18:25:38Z</time></trkpt>
<trkpt lat="25.047562" lon="101.690899">
<time>2014-08-04T18:25:39Z</time></trkpt>
<trkpt lat="25.047402" lon="101.690829">
<time>2014-08-04T18:25:40Z</time></trkpt>
<trkpt lat="25.047232" lon="101.690759">
<time>2014-08-04T18:25:41Z</time></trkpt>
<trkpt lat="25.047142" lon="101.69071">
<time>2014-08-04T18:25:42Z</time></trkpt>
<trkpt lat="25.047072" lon="101.69066">
<time>2014-08-04T18:25:43Z</time></trkpt>
<trkpt lat="25.046972" lon="101.69058">
<time>2014-08-04T18:25:44Z</time></trkpt>
<trkpt lat="25.046892" lon="101.6905">
<time>2014-08-04T18:25:45Z</time></trkpt>
<trkpt lat="25.046823" lon="101.69042">
<time>2014-08-04T18:25:46Z</time></trkpt>
<trkpt lat="25.046693" lon="101.69026">
<time>2014-08-04T18:25:47Z</time></trkpt>
<trkpt lat="25.046463" lon="101.689971">
<time>2014-08-04T18:25:48Z</time></trkpt>
<trkpt lat="25.046184" lon="101.689632">
<time>2014-08-04T18:25:49Z</time></trkpt>
<trkpt lat="25.046184" lon="101.689622">
<time>2014-08-04T18:25:50Z</time></trkpt>
<trkpt lat="25.046084" lon="101.689472">
<time>2014-08-04T18:25:51Z</time></trkpt>
<trkpt lat="25.046034" lon="101.689382">
<time>2014-08-04T18:25:52Z</time></trkpt>
<trkpt lat="25.045995" lon="101.689272">
<time>2014-08-04T18:25:53Z</time></trkpt>
<trkpt lat="25.045945" lon="101.689132">
<time>2014-08-04T18:25:54Z</time></trkpt>
<trkpt lat="25.045915" lon="101.688973">
<time>2014-08-04T18:25:55Z</time></trkpt>
<trkpt lat="25.045876" lon="101.688623">
<time>2014-08-04T18:25:56Z</time></trkpt>
<trkpt lat="25.045876" lon="101.688494">
<time>2014-08-04T18:25:57Z</time></trkpt>
<trkpt lat="25.045896" lon="101.688404">
<time>2014-08-04T18:25:58Z</time></trkpt>
<trkpt lat="25.045916" lon="101.688314">
<time>2014-08-04T18:25:59Z</time></trkpt>
<trkpt lat="25.045967" lon="101.688224">
<time>2014-08-04T18:26:00Z</time></trkpt>
<trkpt lat="25.046017" lon="101.688144">
<time>2014-08-04T18:26:01Z</time></trkpt>
<trkpt lat="25.046087" lon="101.688074">
<time>2014-08-04T18:26:02Z</time></trkpt>
<trkpt lat="25.046177" lon="101.687975">
<time>2014-08-04T18:26:03Z</time></trkpt>
<trkpt lat="25.046287" lon="101.687895">
<time>2014-08-04T18:26:04Z</time></trkpt>
<trkpt lat="25.046367" lon="101.687835">
<time>2014-08-04T18:26:05Z</time></trkpt>
<trkpt lat="25.046437" lon="101.687805">
<time>2014-08-04T18:26:06Z</time></trkpt>
<trkpt lat="25.046537" lon="101.687765">
<time>2014-08-04T18:26:07Z</time></trkpt>
<trkpt lat="25.046587" lon="101.687745">
<time>2014-08-04T18:26:08Z</time></trkpt>
<trkpt lat="25.046677" lon="101.687735">
<time>2014-08-04T18:26:09Z</time></trkpt>
<trkpt lat="25.046817" lon="101.687725">
<time>2014-08-04T18:26:10Z</time></trkpt>
<trkpt lat="25.047007" lon="101.687725">
<time>2014-08-04T18:26:11Z</time></trkpt>
<trkpt lat="25.047157" lon="101.687715">
<time>2014-08-04T18:26:12Z</time></trkpt>
<trkpt lat="25.047257" lon="101.687705">
<time>2014-08-04T18:26:13Z</time></trkpt>
<trkpt lat="25.047327" lon="101.687685">
<time>2014-08-04T18:26:14Z</time></trkpt>
<trkpt lat="25.047387" lon="101.687655">
<time>2014-08-04T18:26:15Z</time></trkpt>
<trkpt lat="25.047487" lon="101.687605">
<time>2014-08-04T18:26:16Z</time></trkpt>
<trkpt lat="25.047578" lon="101.687545">
<time>2014-08-04T18:26:17Z</time></trkpt>
<trkpt lat="25.047718" lon="101.687415">
<time>2014-08-04T18:26:18Z</time></trkpt>
<trkpt lat="25.047908" lon="101.687236">
<time>2014-08-04T18:26:19Z</time></trkpt>
<trkpt lat="25.048038" lon="101.687096">
<time>2014-08-04T18:26:20Z</time></trkpt>
<trkpt lat="25.048078" lon="101.687056">
<time>2014-08-04T18:26:21Z</time></trkpt>
<trkpt lat="25.048219" lon="101.686886">
<time>2014-08-04T18:26:22Z</time></trkpt>
<trkpt lat="25.048359" lon="101.686687">
<time>2014-08-04T18:26:23Z</time></trkpt>
<trkpt lat="25.048369" lon="101.686687">
<time>2014-08-04T18:26:24Z</time></trkpt>
<trkpt lat="25.048389" lon="101.686607">
<time>2014-08-04T18:26:25Z</time></trkpt>
<trkpt lat="25.04843" lon="101.686397">
<time>2014-08-04T18:26:26Z</time></trkpt>
<trkpt lat="25.04847" lon="101.686178">
<time>2014-08-04T18:26:27Z</time></trkpt>
<trkpt lat="25.048501" lon="101.685808">
<time>2014-08-04T18:26:28Z</time></trkpt>
<trkpt lat="25.048501" lon="101.685739">
<time>2014-08-04T18:26:29Z</time></trkpt>
<trkpt lat="25.048552" lon="101.68518">
<time>2014-08-04T18:26:30Z</time></trkpt>
<trkpt lat="25.048562" lon="101.6849">
<time>2014-08-04T18:26:31Z</time></trkpt>
<trkpt lat="25.048583" lon="101.684511">
<time>2014-08-04T18:26:32Z</time></trkpt>
<trkpt lat="25.048573" lon="101.684391">
<time>2014-08-04T18:26:33Z</time></trkpt>
<trkpt lat="25.048563" lon="101.684251">
<time>2014-08-04T18:26:34Z</time></trkpt>
<trkpt lat="25.048544" lon="101.684142">
<time>2014-08-04T18:26:35Z</time></trkpt>
<trkpt lat="25.048514" lon="101.684052">
<time>2014-08-04T18:26:36Z</time></trkpt>
<trkpt lat="25.048474" lon="101.683952">
<time>2014-08-04T18:26:37Z</time></trkpt>
<trkpt lat="25.048434" lon="101.683882">
<time>2014-08-04T18:26:38Z</time></trkpt>
<trkpt lat="25.048384" lon="101.683792">
<time>2014-08-04T18:26:39Z</time></trkpt>
<trkpt lat="25.048255" lon="101.683593">
<time>2014-08-04T18:26:40Z</time></trkpt>
<trkpt lat="25.048135" lon="101.683383">
<time>2014-08-04T18:26:41Z</time></trkpt>
<trkpt lat="25.048075" lon="101.683263">
<time>2014-08-04T18:26:42Z</time></trkpt>
<trkpt lat="25.048026" lon="101.683143">
<time>2014-08-04T18:26:43Z</time></trkpt>
<trkpt lat="25.047986" lon="101.683024">
<time>2014-08-04T18:26:44Z</time></trkpt>
<trkpt lat="25.047946" lon="101.682884">
<time>2014-08-04T18:26:45Z</time></trkpt>
<trkpt lat="25.047916" lon="101.682714">
<time>2014-08-04T18:26:46Z</time></trkpt>
<trkpt lat="25.047887" lon="101.682515">
<time>2014-08-04T18:26:47Z</time></trkpt>
<trkpt lat="25.047877" lon="101.682365">
<time>2014-08-04T18:26:48Z</time></trkpt>
<trkpt lat="25.047857" lon="101.682165">
<time>2014-08-04T18:26:49Z</time></trkpt>
<trkpt lat="25.047848" lon="101.682065">
<time>2014-08-04T18:26:50Z</time></trkpt>
<trkpt lat="25.047828" lon="101.681836">
<time>2014-08-04T18:26:51Z</time></trkpt>
<trkpt lat="25.047828" lon="101.681836">
<time>2014-08-04T18:26:52Z</time></trkpt>
<trkpt lat="25.048148" lon="101.681806">
<time>2014-08-04T18:26:53Z</time></trkpt>
<trkpt lat="25.048348" lon="101.681736">
<time>2014-08-04T18:26:54Z</time></trkpt>
<trkpt lat="25.048578" lon="101.681566">
<time>2014-08-04T18:26:55Z</time></trkpt>
<trkpt lat="25.048869" lon="101.681417">
<time>2014-08-04T18:26:56Z</time></trkpt>
<trkpt lat="25.049019" lon="101.681377">
<time>2014-08-04T18:26:57Z</time></trkpt>
<trkpt lat="25.049129" lon="101.681437">
<time>2014-08-04T18:26:58Z</time></trkpt>
<trkpt lat="25.049129" lon="101.681437">
<time>2014-08-04T18:26:59Z</time></trkpt>
<trkpt lat="25.049149" lon="101.681407">
<time>2014-08-04T18:27:00Z</time></trkpt>
<trkpt lat="25.04933" lon="101.680688">
<time>2014-08-04T18:27:01Z</time></trkpt>
<trkpt lat="25.049481" lon="101.680139">
<time>2014-08-04T18:27:02Z</time></trkpt>
<trkpt lat="25.049985" lon="101.677993">
<time>2014-08-04T18:27:03Z</time></trkpt>
<trkpt lat="25.050337" lon="101.676806">
<time>2014-08-04T18:27:04Z</time></trkpt>
<trkpt lat="25.050458" lon="101.676536">
<time>2014-08-04T18:27:05Z</time></trkpt>
<trkpt lat="25.0511" lon="101.675139">
<time>2014-08-04T18:27:06Z</time></trkpt>
<trkpt lat="25.0511" lon="101.675139">
<time>2014-08-04T18:27:07Z</time></trkpt>
<trkpt lat="25.05111" lon="101.675139">
<time>2014-08-04T18:27:08Z</time></trkpt>
<trkpt lat="25.05124" lon="101.675109">
<time>2014-08-04T18:27:09Z</time></trkpt>
<trkpt lat="25.05135" lon="101.675069">
<time>2014-08-04T18:27:10Z</time></trkpt>
<trkpt lat="25.05147" lon="101.675009">
<time>2014-08-04T18:27:11Z</time></trkpt>
<trkpt lat="25.051561" lon="101.674939">
<time>2014-08-04T18:27:12Z</time></trkpt>
<trkpt lat="25.051671" lon="101.674849">
<time>2014-08-04T18:27:13Z</time></trkpt>
<trkpt lat="25.051751" lon="101.674769">
<time>2014-08-04T18:27:14Z</time></trkpt>
<trkpt lat="25.051931" lon="101.67456">
<time>2014-08-04T18:27:15Z</time></trkpt>
<trkpt lat="25.052342" lon="101.674061">
<time>2014-08-04T18:27:16Z</time></trkpt>
<trkpt lat="25.052743" lon="101.673572">
<time>2014-08-04T18:27:17Z</time></trkpt>
<trkpt lat="25.053164" lon="101.673043">
<time>2014-08-04T18:27:18Z</time></trkpt>
<trkpt lat="25.053334" lon="101.672843">
<time>2014-08-04T18:27:19Z</time></trkpt>
<trkpt lat="25.053555" lon="101.672564">
<time>2014-08-04T18:27:20Z</time></trkpt>
<trkpt lat="25.053896" lon="101.672155">
<time>2014-08-04T18:27:21Z</time></trkpt>
<trkpt lat="25.053956" lon="101.672095">
<time>2014-08-04T18:27:22Z</time></trkpt>
<trkpt lat="25.054347" lon="101.671616">
<time>2014-08-04T18:27:23Z</time></trkpt>
<trkpt lat="25.054717" lon="101.671157">
<time>2014-08-04T18:27:24Z</time></trkpt>
<trkpt lat="25.054998" lon="101.670827">
<time>2014-08-04T18:27:25Z</time></trkpt>
<trkpt lat="25.055068" lon="101.670737">
<time>2014-08-04T18:27:26Z</time></trkpt>
<trkpt lat="25.055188" lon="101.670598">
<time>2014-08-04T18:27:27Z</time></trkpt>
<trkpt lat="25.055409" lon="101.670318">
<time>2014-08-04T18:27:28Z</time></trkpt>
<trkpt lat="25.055489" lon="101.670208">
<time>2014-08-04T18:27:29Z</time></trkpt>
<trkpt lat="25.05568" lon="101.669949">
<time>2014-08-04T18:27:30Z</time></trkpt>
<trkpt lat="25.05589" lon="101.669629">
<time>2014-08-04T18:27:31Z</time></trkpt>
<trkpt lat="25.056061" lon="101.66937">
<time>2014-08-04T18:27:32Z</time></trkpt>
<trkpt lat="25.056181" lon="101.6692">
<time>2014-08-04T18:27:33Z</time></trkpt>
<trkpt lat="25.056452" lon="101.668781">
<time>2014-08-04T18:27:34Z</time></trkpt>
<trkpt lat="25.056753" lon="101.668322">
<time>2014-08-04T18:27:35Z</time></trkpt>
<trkpt lat="25.057074" lon="101.667853">
<time>2014-08-04T18:27:36Z</time></trkpt>
<trkpt lat="25.057535" lon="101.667154">
<time>2014-08-04T18:27:37Z</time></trkpt>
<trkpt lat="25.057936" lon="101.666546">
<time>2014-08-04T18:27:38Z</time></trkpt>
<trkpt lat="25.058327" lon="101.665957">
<time>2014-08-04T18:27:39Z</time></trkpt>
<trkpt lat="25.058638" lon="101.665508">
<time>2014-08-04T18:27:40Z</time></trkpt>
<trkpt lat="25.059059" lon="101.664969">
<time>2014-08-04T18:27:41Z</time></trkpt>
<trkpt lat="25.059139" lon="101.664869">
<time>2014-08-04T18:27:42Z</time></trkpt>
<trkpt lat="25.05949" lon="101.66442">
<time>2014-08-04T18:27:43Z</time></trkpt>
<trkpt lat="25.060151" lon="101.663561">
<time>2014-08-04T18:27:44Z</time></trkpt>
<trkpt lat="25.060693" lon="101.662883">
<time>2014-08-04T18:27:45Z</time></trkpt>
<trkpt lat="25.061154" lon="101.662304">
<time>2014-08-04T18:27:46Z</time></trkpt>
<trkpt lat="25.061224" lon="101.662224">
<time>2014-08-04T18:27:47Z</time></trkpt>
<trkpt lat="25.061555" lon="101.661805">
<time>2014-08-04T18:27:48Z</time></trkpt>
<trkpt lat="25.061845" lon="101.661435">
<time>2014-08-04T18:27:49Z</time></trkpt>
<trkpt lat="25.061885" lon="101.661395">
<time>2014-08-04T18:27:50Z</time></trkpt>
<trkpt lat="25.062176" lon="101.661026">
<time>2014-08-04T18:27:51Z</time></trkpt>
<trkpt lat="25.062376" lon="101.660757">
<time>2014-08-04T18:27:52Z</time></trkpt>
<trkpt lat="25.062787" lon="101.660228">
<time>2014-08-04T18:27:53Z</time></trkpt>
<trkpt lat="25.062978" lon="101.659978">
<time>2014-08-04T18:27:54Z</time></trkpt>
<trkpt lat="25.063158" lon="101.659749">
<time>2014-08-04T18:27:55Z</time></trkpt>
<trkpt lat="25.063289" lon="101.659589">
<time>2014-08-04T18:27:56Z</time></trkpt>
<trkpt lat="25.063419" lon="101.659449">
<time>2014-08-04T18:27:57Z</time></trkpt>
<trkpt lat="25.063619" lon="101.65924">
<time>2014-08-04T18:27:58Z</time></trkpt>
<trkpt lat="25.063719" lon="101.65916">
<time>2014-08-04T18:27:59Z</time></trkpt>
<trkpt lat="25.06395" lon="101.65897">
<time>2014-08-04T18:28:00Z</time></trkpt>
<trkpt lat="25.06408" lon="101.65887">
<time>2014-08-04T18:28:01Z</time></trkpt>
<trkpt lat="25.0642" lon="101.65878">
<time>2014-08-04T18:28:02Z</time></trkpt>
<trkpt lat="25.06462" lon="101.658481">
<time>2014-08-04T18:28:03Z</time></trkpt>
<trkpt lat="25.065411" lon="101.657912">
<time>2014-08-04T18:28:04Z</time></trkpt>
<trkpt lat="25.065922" lon="101.657543">
<time>2014-08-04T18:28:05Z</time></trkpt>
<trkpt lat="25.066353" lon="101.657223">
<time>2014-08-04T18:28:06Z</time></trkpt>
<trkpt lat="25.066553" lon="101.657074">
<time>2014-08-04T18:28:07Z</time></trkpt>
<trkpt lat="25.067013" lon="101.656754">
<time>2014-08-04T18:28:08Z</time></trkpt>
<trkpt lat="25.067334" lon="101.656505">
<time>2014-08-04T18:28:09Z</time></trkpt>
<trkpt lat="25.067394" lon="101.656465">
<time>2014-08-04T18:28:10Z</time></trkpt>
<trkpt lat="25.067694" lon="101.656245">
<time>2014-08-04T18:28:11Z</time></trkpt>
<trkpt lat="25.067824" lon="101.656155">
<time>2014-08-04T18:28:12Z</time></trkpt>
<trkpt lat="25.068115" lon="101.655936">
<time>2014-08-04T18:28:13Z</time></trkpt>
<trkpt lat="25.068625" lon="101.655567">
<time>2014-08-04T18:28:14Z</time></trkpt>
<trkpt lat="25.068956" lon="101.655317">
<time>2014-08-04T18:28:15Z</time></trkpt>
<trkpt lat="25.069276" lon="101.655067">
<time>2014-08-04T18:28:16Z</time></trkpt>
<trkpt lat="25.069286" lon="101.655057">
<time>2014-08-04T18:28:17Z</time></trkpt>
<trkpt lat="25.069587" lon="101.654858">
<time>2014-08-04T18:28:18Z</time></trkpt>
<trkpt lat="25.069967" lon="101.654568">
<time>2014-08-04T18:28:19Z</time></trkpt>
<trkpt lat="25.070358" lon="101.654289">
<time>2014-08-04T18:28:20Z</time></trkpt>
<trkpt lat="25.070778" lon="101.653989">
<time>2014-08-04T18:28:21Z</time></trkpt>
<trkpt lat="25.071239" lon="101.65365">
<time>2014-08-04T18:28:22Z</time></trkpt>
<trkpt lat="25.071529" lon="101.65345">
<time>2014-08-04T18:28:23Z</time></trkpt>
<trkpt lat="25.071679" lon="101.653341">
<time>2014-08-04T18:28:24Z</time></trkpt>
<trkpt lat="25.071879" lon="101.653191">
<time>2014-08-04T18:28:25Z</time></trkpt>
<trkpt lat="25.07226" lon="101.652911">
<time>2014-08-04T18:28:26Z</time></trkpt>
<trkpt lat="25.07273" lon="101.652572">
<time>2014-08-04T18:28:27Z</time></trkpt>
<trkpt lat="25.073091" lon="101.652263">
<time>2014-08-04T18:28:28Z</time></trkpt>
<trkpt lat="25.073101" lon="101.652253">
<time>2014-08-04T18:28:29Z</time></trkpt>
<trkpt lat="25.073291" lon="101.652103">
<time>2014-08-04T18:28:30Z</time></trkpt>
<trkpt lat="25.073421" lon="101.652003">
<time>2014-08-04T18:28:31Z</time></trkpt>
<trkpt lat="25.073622" lon="101.651823">
<time>2014-08-04T18:28:32Z</time></trkpt>
<trkpt lat="25.074042" lon="101.651464">
<time>2014-08-04T18:28:33Z</time></trkpt>
<trkpt lat="25.074453" lon="101.651115">
<time>2014-08-04T18:28:34Z</time></trkpt>
<trkpt lat="25.074643" lon="101.650955">
<time>2014-08-04T18:28:35Z</time></trkpt>
<trkpt lat="25.074873" lon="101.650765">
<time>2014-08-04T18:28:36Z</time></trkpt>
<trkpt lat="25.075044" lon="101.650606">
<time>2014-08-04T18:28:37Z</time></trkpt>
<trkpt lat="25.075164" lon="101.650476">
<time>2014-08-04T18:28:38Z</time></trkpt>
<trkpt lat="25.075254" lon="101.650386">
<time>2014-08-04T18:28:39Z</time></trkpt>
<trkpt lat="25.075304" lon="101.650306">
<time>2014-08-04T18:28:40Z</time></trkpt>
<trkpt lat="25.075374" lon="101.650206">
<time>2014-08-04T18:28:41Z</time></trkpt>
<trkpt lat="25.075444" lon="101.650087">
<time>2014-08-04T18:28:42Z</time></trkpt>
<trkpt lat="25.075485" lon="101.649987">
<time>2014-08-04T18:28:43Z</time></trkpt>
<trkpt lat="25.075505" lon="101.649897">
<time>2014-08-04T18:28:44Z</time></trkpt>
<trkpt lat="25.075525" lon="101.649857">
<time>2014-08-04T18:28:45Z</time></trkpt>
<trkpt lat="25.075545" lon="101.649717">
<time>2014-08-04T18:28:46Z</time></trkpt>
<trkpt lat="25.075555" lon="101.649567">
<time>2014-08-04T18:28:47Z</time></trkpt>
<trkpt lat="25.075566" lon="101.649418">
<time>2014-08-04T18:28:48Z</time></trkpt>
<trkpt lat="25.075587" lon="101.648879">
<time>2014-08-04T18:28:49Z</time></trkpt>
<trkpt lat="25.075607" lon="101.64835">
<time>2014-08-04T18:28:50Z</time></trkpt>
<trkpt lat="25.075628" lon="101.647841">
<time>2014-08-04T18:28:51Z</time></trkpt>
<trkpt lat="25.075639" lon="101.647292">
<time>2014-08-04T18:28:52Z</time></trkpt>
<trkpt lat="25.07565" lon="101.647032">
<time>2014-08-04T18:28:53Z</time></trkpt>
<trkpt lat="25.07566" lon="101.646792">
<time>2014-08-04T18:28:54Z</time></trkpt>
<trkpt lat="25.075681" lon="101.646273">
<time>2014-08-04T18:28:55Z</time></trkpt>
<trkpt lat="25.075702" lon="101.645764">
<time>2014-08-04T18:28:56Z</time></trkpt>
<trkpt lat="25.075713" lon="101.645255">
<time>2014-08-04T18:28:57Z</time></trkpt>
<trkpt lat="25.075723" lon="101.645035">
<time>2014-08-04T18:28:58Z</time></trkpt>
<trkpt lat="25.075724" lon="101.644756">
<time>2014-08-04T18:28:59Z</time></trkpt>
<trkpt lat="25.075744" lon="101.644277">
<time>2014-08-04T18:29:00Z</time></trkpt>
<trkpt lat="25.075755" lon="101.644017">
<time>2014-08-04T18:29:01Z</time></trkpt>
<trkpt lat="25.075765" lon="101.643728">
<time>2014-08-04T18:29:02Z</time></trkpt>
<trkpt lat="25.075785" lon="101.643568">
<time>2014-08-04T18:29:03Z</time></trkpt>
<trkpt lat="25.075806" lon="101.643438">
<time>2014-08-04T18:29:04Z</time></trkpt>
<trkpt lat="25.075846" lon="101.643239">
<time>2014-08-04T18:29:05Z</time></trkpt>
<trkpt lat="25.075886" lon="101.643079">
<time>2014-08-04T18:29:06Z</time></trkpt>
<trkpt lat="25.075926" lon="101.642959">
<time>2014-08-04T18:29:07Z</time></trkpt>
<trkpt lat="25.075947" lon="101.642879">
<time>2014-08-04T18:29:08Z</time></trkpt>
<trkpt lat="25.076007" lon="101.642689">
<time>2014-08-04T18:29:09Z</time></trkpt>
<trkpt lat="25.076137" lon="101.64233">
<time>2014-08-04T18:29:10Z</time></trkpt>
<trkpt lat="25.076338" lon="101.641711">
<time>2014-08-04T18:29:11Z</time></trkpt>
<trkpt lat="25.076489" lon="101.641302">
<time>2014-08-04T18:29:12Z</time></trkpt>
<trkpt lat="25.076569" lon="101.641062">
<time>2014-08-04T18:29:13Z</time></trkpt>
<trkpt lat="25.07665" lon="101.640852">
<time>2014-08-04T18:29:14Z</time></trkpt>
<trkpt lat="25.07675" lon="101.640583">
<time>2014-08-04T18:29:15Z</time></trkpt>
<trkpt lat="25.07685" lon="101.640363">
<time>2014-08-04T18:29:16Z</time></trkpt>
<trkpt lat="25.076851" lon="101.640353">
<time>2014-08-04T18:29:17Z</time></trkpt>
<trkpt lat="25.076941" lon="101.640164">
<time>2014-08-04T18:29:18Z</time></trkpt>
<trkpt lat="25.077041" lon="101.640014">
<time>2014-08-04T18:29:19Z</time></trkpt>
<trkpt lat="25.077171" lon="101.639834">
<time>2014-08-04T18:29:20Z</time></trkpt>
<trkpt lat="25.077302" lon="101.639644">
<time>2014-08-04T18:29:21Z</time></trkpt>
<trkpt lat="25.077692" lon="101.639145">
<time>2014-08-04T18:29:22Z</time></trkpt>
<trkpt lat="25.078173" lon="101.638516">
<time>2014-08-04T18:29:23Z</time></trkpt>
<trkpt lat="25.078434" lon="101.638197">
<time>2014-08-04T18:29:24Z</time></trkpt>
<trkpt lat="25.078614" lon="101.637967">
<time>2014-08-04T18:29:25Z</time></trkpt>
<trkpt lat="25.078925" lon="101.637558">
<time>2014-08-04T18:29:26Z</time></trkpt>
<trkpt lat="25.079085" lon="101.637318">
<time>2014-08-04T18:29:27Z</time></trkpt>
<trkpt lat="25.079175" lon="101.637168">
<time>2014-08-04T18:29:28Z</time></trkpt>
<trkpt lat="25.079305" lon="101.636959">
<time>2014-08-04T18:29:29Z</time></trkpt>
<trkpt lat="25.079496" lon="101.636599">
<time>2014-08-04T18:29:30Z</time></trkpt>
<trkpt lat="25.079646" lon="101.636339">
<time>2014-08-04T18:29:31Z</time></trkpt>
<trkpt lat="25.079847" lon="101.63596">
<time>2014-08-04T18:29:32Z</time></trkpt>
<trkpt lat="25.080007" lon="101.635641">
<time>2014-08-04T18:29:33Z</time></trkpt>
<trkpt lat="25.080087" lon="101.635501">
<time>2014-08-04T18:29:34Z</time></trkpt>
<trkpt lat="25.080148" lon="101.635361">
<time>2014-08-04T18:29:35Z</time></trkpt>
<trkpt lat="25.080208" lon="101.635201">
<time>2014-08-04T18:29:36Z</time></trkpt>
<trkpt lat="25.080228" lon="101.635091">
<time>2014-08-04T18:29:37Z</time></trkpt>
<trkpt lat="25.080248" lon="101.635001">
<time>2014-08-04T18:29:38Z</time></trkpt>
<trkpt lat="25.080268" lon="101.634872">
<time>2014-08-04T18:29:39Z</time></trkpt>
<trkpt lat="25.080268" lon="101.634762">
<time>2014-08-04T18:29:40Z</time></trkpt>
<trkpt lat="25.080279" lon="101.634572">
<time>2014-08-04T18:29:41Z</time></trkpt>
<trkpt lat="25.080279" lon="101.634233">
<time>2014-08-04T18:29:42Z</time></trkpt>
<trkpt lat="25.080279" lon="101.634113">
<time>2014-08-04T18:29:43Z</time></trkpt>
<trkpt lat="25.08027" lon="101.633504">
<time>2014-08-04T18:29:44Z</time></trkpt>
<trkpt lat="25.080271" lon="101.633044">
<time>2014-08-04T18:29:45Z</time></trkpt>
<trkpt lat="25.080271" lon="101.632885">
<time>2014-08-04T18:29:46Z</time></trkpt>
<trkpt lat="25.080262" lon="101.632285">
<time>2014-08-04T18:29:47Z</time></trkpt>
<trkpt lat="25.080233" lon="101.631676">
<time>2014-08-04T18:29:48Z</time></trkpt>
<trkpt lat="25.080243" lon="101.631656">
<time>2014-08-04T18:29:49Z</time></trkpt>
<trkpt lat="25.080253" lon="101.631287">
<time>2014-08-04T18:29:50Z</time></trkpt>
<trkpt lat="25.080254" lon="101.631087">
<time>2014-08-04T18:29:51Z</time></trkpt>
<trkpt lat="25.080264" lon="101.630977">
<time>2014-08-04T18:29:52Z</time></trkpt>
<trkpt lat="25.080294" lon="101.630857">
<time>2014-08-04T18:29:53Z</time></trkpt>
<trkpt lat="25.080324" lon="101.630767">
<time>2014-08-04T18:29:54Z</time></trkpt>
<trkpt lat="25.080394" lon="101.630598">
<time>2014-08-04T18:29:55Z</time></trkpt>
<trkpt lat="25.080745" lon="101.629899">
<time>2014-08-04T18:29:56Z</time></trkpt>
<trkpt lat="25.080815" lon="101.629749">
<time>2014-08-04T18:29:57Z</time></trkpt>
<trkpt lat="25.081156" lon="101.62908">
<time>2014-08-04T18:29:58Z</time></trkpt>
<trkpt lat="25.081226" lon="101.62892">
<time>2014-08-04T18:29:59Z</time></trkpt>
<trkpt lat="25.081477" lon="101.628381">
<time>2014-08-04T18:30:00Z</time></trkpt>
<trkpt lat="25.081768" lon="101.627771">
<time>2014-08-04T18:30:01Z</time></trkpt>
<trkpt lat="25.081868" lon="101.627522">
<time>2014-08-04T18:30:02Z</time></trkpt>
<trkpt lat="25.081978" lon="101.627202">
<time>2014-08-04T18:30:03Z</time></trkpt>
<trkpt lat="25.081998" lon="101.627132">
<time>2014-08-04T18:30:04Z</time></trkpt>
<trkpt lat="25.082099" lon="101.626803">
<time>2014-08-04T18:30:05Z</time></trkpt>
<trkpt lat="25.082149" lon="101.626583">
<time>2014-08-04T18:30:06Z</time></trkpt>
<trkpt lat="25.082179" lon="101.626443">
<time>2014-08-04T18:30:07Z</time></trkpt>
<trkpt lat="25.082179" lon="101.626313">
<time>2014-08-04T18:30:08Z</time></trkpt>
<trkpt lat="25.082179" lon="101.626213">
<time>2014-08-04T18:30:09Z</time></trkpt>
<trkpt lat="25.082159" lon="101.626123">
<time>2014-08-04T18:30:10Z</time></trkpt>
<trkpt lat="25.08212" lon="101.626023">
<time>2014-08-04T18:30:11Z</time></trkpt>
<trkpt lat="25.08208" lon="101.625924">
<time>2014-08-04T18:30:12Z</time></trkpt>
<trkpt lat="25.08202" lon="101.625804">
<time>2014-08-04T18:30:13Z</time></trkpt>
<trkpt lat="25.08191" lon="101.625654">
<time>2014-08-04T18:30:14Z</time></trkpt>
<trkpt lat="25.0819" lon="101.625634">
<time>2014-08-04T18:30:15Z</time></trkpt>
<trkpt lat="25.0817" lon="101.625354">
<time>2014-08-04T18:30:16Z</time></trkpt>
<trkpt lat="25.081451" lon="101.625015">
<time>2014-08-04T18:30:17Z</time></trkpt>
<trkpt lat="25.081361" lon="101.624955">
<time>2014-08-04T18:30:18Z</time></trkpt>
<trkpt lat="25.081321" lon="101.624915">
<time>2014-08-04T18:30:19Z</time></trkpt>
<trkpt lat="25.081241" lon="101.624845">
<time>2014-08-04T18:30:20Z</time></trkpt>
<trkpt lat="25.081201" lon="101.624815">
<time>2014-08-04T18:30:21Z</time></trkpt>
<trkpt lat="25.081141" lon="101.624785">
<time>2014-08-04T18:30:22Z</time></trkpt>
<trkpt lat="25.081091" lon="101.624745">
<time>2014-08-04T18:30:23Z</time></trkpt>
<trkpt lat="25.081031" lon="101.624725">
<time>2014-08-04T18:30:24Z</time></trkpt>
<trkpt lat="25.080931" lon="101.624695">
<time>2014-08-04T18:30:25Z</time></trkpt>
<trkpt lat="25.080801" lon="101.624665">
<time>2014-08-04T18:30:26Z</time></trkpt>
<trkpt lat="25.080641" lon="101.624645">
<time>2014-08-04T18:30:27Z</time></trkpt>
<trkpt lat="25.080451" lon="101.624615">
<time>2014-08-04T18:30:28Z</time></trkpt>
<trkpt lat="25.080351" lon="101.624615">
<time>2014-08-04T18:30:29Z</time></trkpt>
<trkpt lat="25.080251" lon="101.624615">
<time>2014-08-04T18:30:30Z</time></trkpt>
<trkpt lat="25.080181" lon="101.624625">
<time>2014-08-04T18:30:31Z</time></trkpt>
<trkpt lat="25.080101" lon="101.624645">
<time>2014-08-04T18:30:32Z</time></trkpt>
<trkpt lat="25.080021" lon="101.624685">
<time>2014-08-04T18:30:33Z</time></trkpt>
<trkpt lat="25.079951" lon="101.624725">
<time>2014-08-04T18:30:34Z</time></trkpt>
<trkpt lat="25.079831" lon="101.624825">
<time>2014-08-04T18:30:35Z</time></trkpt>
<trkpt lat="25.079641" lon="101.625015">
<time>2014-08-04T18:30:36Z</time></trkpt>
<trkpt lat="25.079441" lon="101.625254">
<time>2014-08-04T18:30:37Z</time></trkpt>
<trkpt lat="25.079341" lon="101.625354">
<time>2014-08-04T18:30:38Z</time></trkpt>
<trkpt lat="25.079271" lon="101.625404">
<time>2014-08-04T18:30:39Z</time></trkpt>
<trkpt lat="25.079191" lon="101.625444">
<time>2014-08-04T18:30:40Z</time></trkpt>
<trkpt lat="25.079151" lon="101.625454">
<time>2014-08-04T18:30:41Z</time></trkpt>
<trkpt lat="25.079111" lon="101.625454">
<time>2014-08-04T18:30:42Z</time></trkpt>
<trkpt lat="25.079071" lon="101.625454">
<time>2014-08-04T18:30:43Z</time></trkpt>
<trkpt lat="25.079031" lon="101.625454">
<time>2014-08-04T18:30:44Z</time></trkpt>
<trkpt lat="25.079011" lon="101.625454">
<time>2014-08-04T18:30:45Z</time></trkpt>
<trkpt lat="25.078971" lon="101.625444">
<time>2014-08-04T18:30:46Z</time></trkpt>
<trkpt lat="25.078911" lon="101.625424">
<time>2014-08-04T18:30:47Z</time></trkpt>
<trkpt lat="25.078851" lon="101.625384">
<time>2014-08-04T18:30:48Z</time></trkpt>
<trkpt lat="25.078711" lon="101.625304">
<time>2014-08-04T18:30:49Z</time></trkpt>
<trkpt lat="25.078561" lon="101.625205">
<time>2014-08-04T18:30:50Z</time></trkpt>
<trkpt lat="25.078471" lon="101.625135">
<time>2014-08-04T18:30:51Z</time></trkpt>
<trkpt lat="25.078391" lon="101.625075">
<time>2014-08-04T18:30:52Z</time></trkpt>
<trkpt lat="25.078331" lon="101.625015">
<time>2014-08-04T18:30:53Z</time></trkpt>
<trkpt lat="25.078321" lon="101.624995">
<time>2014-08-04T18:30:54Z</time></trkpt>
<trkpt lat="25.078321" lon="101.624985">
<time>2014-08-04T18:30:55Z</time></trkpt>
<trkpt lat="25.078301" lon="101.624955">
<time>2014-08-04T18:30:56Z</time></trkpt>
<trkpt lat="25.078291" lon="101.624935">
<time>2014-08-04T18:30:57Z</time></trkpt>
<trkpt lat="25.078281" lon="101.624905">
<time>2014-08-04T18:30:58Z</time></trkpt>
<trkpt lat="25.078271" lon="101.624875">
<time>2014-08-04T18:30:59Z</time></trkpt>
<trkpt lat="25.078271" lon="101.624855">
<time>2014-08-04T18:31:00Z</time></trkpt>
<trkpt lat="25.078261" lon="101.624825">
<time>2014-08-04T18:31:01Z</time></trkpt>
<trkpt lat="25.078261" lon="101.624775">
<time>2014-08-04T18:31:02Z</time></trkpt>
<trkpt lat="25.078261" lon="101.624755">
<time>2014-08-04T18:31:03Z</time></trkpt>
<trkpt lat="25.078261" lon="101.624725">
<time>2014-08-04T18:31:04Z</time></trkpt>
<trkpt lat="25.078282" lon="101.624665">
<time>2014-08-04T18:31:05Z</time></trkpt>
<trkpt lat="25.078292" lon="101.624615">
<time>2014-08-04T18:31:06Z</time></trkpt>
<trkpt lat="25.078322" lon="101.624565">
<time>2014-08-04T18:31:07Z</time></trkpt>
<trkpt lat="25.078372" lon="101.624505">
<time>2014-08-04T18:31:08Z</time></trkpt>
<trkpt lat="25.078422" lon="101.624445">
<time>2014-08-04T18:31:09Z</time></trkpt>
<trkpt lat="25.078472" lon="101.624395">
<time>2014-08-04T18:31:10Z</time></trkpt>
<trkpt lat="25.078592" lon="101.624296">
<time>2014-08-04T18:31:11Z</time></trkpt>
<trkpt lat="25.078662" lon="101.624216">
<time>2014-08-04T18:31:12Z</time></trkpt>
<trkpt lat="25.078732" lon="101.624126">
<time>2014-08-04T18:31:13Z</time></trkpt>
<trkpt lat="25.078832" lon="101.624006">
<time>2014-08-04T18:31:14Z</time></trkpt>
<trkpt lat="25.079002" lon="101.623746">
<time>2014-08-04T18:31:15Z</time></trkpt>
<trkpt lat="25.079513" lon="101.622977">
<time>2014-08-04T18:31:16Z</time></trkpt>
<trkpt lat="25.079864" lon="101.622448">
<time>2014-08-04T18:31:17Z</time></trkpt>
<trkpt lat="25.080234" lon="101.621888">
<time>2014-08-04T18:31:18Z</time></trkpt>
<trkpt lat="25.080515" lon="101.621459">
<time>2014-08-04T18:31:19Z</time></trkpt>
<trkpt lat="25.080705" lon="101.621169">
<time>2014-08-04T18:31:20Z</time></trkpt>
<trkpt lat="25.080795" lon="101.621009">
<time>2014-08-04T18:31:21Z</time></trkpt>
<trkpt lat="25.080865" lon="101.620869">
<time>2014-08-04T18:31:22Z</time></trkpt>
<trkpt lat="25.080905" lon="101.620759">
<time>2014-08-04T18:31:23Z</time></trkpt>
<trkpt lat="25.080936" lon="101.620619">
<time>2014-08-04T18:31:24Z</time></trkpt>
<trkpt lat="25.080956" lon="101.6205">
<time>2014-08-04T18:31:25Z</time></trkpt>
<trkpt lat="25.080956" lon="101.62033">
<time>2014-08-04T18:31:26Z</time></trkpt>
<trkpt lat="25.080956" lon="101.62016">
<time>2014-08-04T18:31:27Z</time></trkpt>
<trkpt lat="25.080946" lon="101.62">
<time>2014-08-04T18:31:28Z</time></trkpt>
<trkpt lat="25.080936" lon="101.61962">
<time>2014-08-04T18:31:29Z</time></trkpt>
<trkpt lat="25.080917" lon="101.619171">
<time>2014-08-04T18:31:30Z</time></trkpt>
<trkpt lat="25.080927" lon="101.618751">
<time>2014-08-04T18:31:31Z</time></trkpt>
<trkpt lat="25.080927" lon="101.618621">
<time>2014-08-04T18:31:32Z</time></trkpt>
<trkpt lat="25.080938" lon="101.618402">
<time>2014-08-04T18:31:33Z</time></trkpt>
<trkpt lat="25.080948" lon="101.618232">
<time>2014-08-04T18:31:34Z</time></trkpt>
<trkpt lat="25.080948" lon="101.618142">
<time>2014-08-04T18:31:35Z</time></trkpt>
<trkpt lat="25.080958" lon="101.617932">
<time>2014-08-04T18:31:36Z</time></trkpt>
<trkpt lat="25.080988" lon="101.617692">
<time>2014-08-04T18:31:37Z</time></trkpt>
<trkpt lat="25.080978" lon="101.617442">
<time>2014-08-04T18:31:38Z</time></trkpt>
<trkpt lat="25.080959" lon="101.617183">
<time>2014-08-04T18:31:39Z</time></trkpt>
<trkpt lat="25.080879" lon="101.616383">
<time>2014-08-04T18:31:40Z</time></trkpt>
<trkpt lat="25.08082" lon="101.615834">
<time>2014-08-04T18:31:41Z</time></trkpt>
<trkpt lat="25.08076" lon="101.615294">
<time>2014-08-04T18:31:42Z</time></trkpt>
<trkpt lat="25.08072" lon="101.615074">
<time>2014-08-04T18:31:43Z</time></trkpt>
<trkpt lat="25.080671" lon="101.614865">
<time>2014-08-04T18:31:44Z</time></trkpt>
<trkpt lat="25.080601" lon="101.614615">
<time>2014-08-04T18:31:45Z</time></trkpt>
<trkpt lat="25.080511" lon="101.614375">
<time>2014-08-04T18:31:46Z</time></trkpt>
<trkpt lat="25.080371" lon="101.614015">
<time>2014-08-04T18:31:47Z</time></trkpt>
<trkpt lat="25.080301" lon="101.613865">
<time>2014-08-04T18:31:48Z</time></trkpt>
<trkpt lat="25.080231" lon="101.613725">
<time>2014-08-04T18:31:49Z</time></trkpt>
<trkpt lat="25.080191" lon="101.613656">
<time>2014-08-04T18:31:50Z</time></trkpt>
<trkpt lat="25.080132" lon="101.613576">
<time>2014-08-04T18:31:51Z</time></trkpt>
<trkpt lat="25.080012" lon="101.613416">
<time>2014-08-04T18:31:52Z</time></trkpt>
<trkpt lat="25.079852" lon="101.613246">
<time>2014-08-04T18:31:53Z</time></trkpt>
<trkpt lat="25.079732" lon="101.613146">
<time>2014-08-04T18:31:54Z</time></trkpt>
<trkpt lat="25.079652" lon="101.613076">
<time>2014-08-04T18:31:55Z</time></trkpt>
<trkpt lat="25.079532" lon="101.613006">
<time>2014-08-04T18:31:56Z</time></trkpt>
<trkpt lat="25.079392" lon="101.612936">
<time>2014-08-04T18:31:57Z</time></trkpt>
<trkpt lat="25.079262" lon="101.612876">
<time>2014-08-04T18:31:58Z</time></trkpt>
<trkpt lat="25.078812" lon="101.612696">
<time>2014-08-04T18:31:59Z</time></trkpt>
<trkpt lat="25.078512" lon="101.612566">
<time>2014-08-04T18:32:00Z</time></trkpt>
<trkpt lat="25.078312" lon="101.612476">
<time>2014-08-04T18:32:01Z</time></trkpt>
<trkpt lat="25.078143" lon="101.612396">
<time>2014-08-04T18:32:02Z</time></trkpt>
<trkpt lat="25.078073" lon="101.612356">
<time>2014-08-04T18:32:03Z</time></trkpt>
<trkpt lat="25.078013" lon="101.612307">
<time>2014-08-04T18:32:04Z</time></trkpt>
<trkpt lat="25.077953" lon="101.612257">
<time>2014-08-04T18:32:05Z</time></trkpt>
<trkpt lat="25.077903" lon="101.612197">
<time>2014-08-04T18:32:06Z</time></trkpt>
<trkpt lat="25.077843" lon="101.612127">
<time>2014-08-04T18:32:07Z</time></trkpt>
<trkpt lat="25.077793" lon="101.612037">
<time>2014-08-04T18:32:08Z</time></trkpt>
<trkpt lat="25.077703" lon="101.611877">
<time>2014-08-04T18:32:09Z</time></trkpt>
<trkpt lat="25.077633" lon="101.611697">
<time>2014-08-04T18:32:10Z</time></trkpt>
<trkpt lat="25.077543" lon="101.611457">
<time>2014-08-04T18:32:11Z</time></trkpt>
<trkpt lat="25.077453" lon="101.611217">
<time>2014-08-04T18:32:12Z</time></trkpt>
<trkpt lat="25.077364" lon="101.611007">
<time>2014-08-04T18:32:13Z</time></trkpt>
<trkpt lat="25.077234" lon="101.610758">
<time>2014-08-04T18:32:14Z</time></trkpt>
<trkpt lat="25.077054" lon="101.610388">
<time>2014-08-04T18:32:15Z</time></trkpt>
<trkpt lat="25.076824" lon="101.609968">
<time>2014-08-04T18:32:16Z</time></trkpt>
<trkpt lat="25.076714" lon="101.609728">
<time>2014-08-04T18:32:17Z</time></trkpt>
<trkpt lat="25.076624" lon="101.609528">
<time>2014-08-04T18:32:18Z</time></trkpt>
<trkpt lat="25.076605" lon="101.609448">
<time>2014-08-04T18:32:19Z</time></trkpt>
<trkpt lat="25.076585" lon="101.609368">
<time>2014-08-04T18:32:20Z</time></trkpt>
<trkpt lat="25.076575" lon="101.609218">
<time>2014-08-04T18:32:21Z</time></trkpt>
<trkpt lat="25.076575" lon="101.609069">
<time>2014-08-04T18:32:22Z</time></trkpt>
<trkpt lat="25.076585" lon="101.608859">
<time>2014-08-04T18:32:23Z</time></trkpt>
<trkpt lat="25.076625" lon="101.608469">
<time>2014-08-04T18:32:24Z</time></trkpt>
<trkpt lat="25.076655" lon="101.608269">
<time>2014-08-04T18:32:25Z</time></trkpt>
<trkpt lat="25.076735" lon="101.607859">
<time>2014-08-04T18:32:26Z</time></trkpt>
<trkpt lat="25.076785" lon="101.607609">
<time>2014-08-04T18:32:27Z</time></trkpt>
<trkpt lat="25.076816" lon="101.607439">
<time>2014-08-04T18:32:28Z</time></trkpt>
<trkpt lat="25.076836" lon="101.607249">
<time>2014-08-04T18:32:29Z</time></trkpt>
<trkpt lat="25.076856" lon="101.607039">
<time>2014-08-04T18:32:30Z</time></trkpt>
<trkpt lat="25.076856" lon="101.60687">
<time>2014-08-04T18:32:31Z</time></trkpt>
<trkpt lat="25.076856" lon="101.60665">
<time>2014-08-04T18:32:32Z</time></trkpt>
<trkpt lat="25.076816" lon="101.60631">
<time>2014-08-04T18:32:33Z</time></trkpt>
<trkpt lat="25.076756" lon="101.60597">
<time>2014-08-04T18:32:34Z</time></trkpt>
<trkpt lat="25.076666" lon="101.60558">
<time>2014-08-04T18:32:35Z</time></trkpt>
<trkpt lat="25.076557" lon="101.60519">
<time>2014-08-04T18:32:36Z</time></trkpt>
<trkpt lat="25.076507" lon="101.60498">
<time>2014-08-04T18:32:37Z</time></trkpt>
<trkpt lat="25.076467" lon="101.60483">
<time>2014-08-04T18:32:38Z</time></trkpt>
<trkpt lat="25.076387" lon="101.60459">
<time>2014-08-04T18:32:39Z</time></trkpt>
<trkpt lat="25.076327" lon="101.604441">
<time>2014-08-04T18:32:40Z</time></trkpt>
<trkpt lat="25.076187" lon="101.604131">
<time>2014-08-04T18:32:41Z</time></trkpt>
<trkpt lat="25.076027" lon="101.603811">
<time>2014-08-04T18:32:42Z</time></trkpt>
<trkpt lat="25.075847" lon="101.603481">
<time>2014-08-04T18:32:43Z</time></trkpt>
<trkpt lat="25.075557" lon="101.602951">
<time>2014-08-04T18:32:44Z</time></trkpt>
<trkpt lat="25.075188" lon="101.602271">
<time>2014-08-04T18:32:45Z</time></trkpt>
<trkpt lat="25.074818" lon="101.601561">
<time>2014-08-04T18:32:46Z</time></trkpt>
<trkpt lat="25.074498" lon="101.600971">
<time>2014-08-04T18:32:47Z</time></trkpt>
<trkpt lat="25.074188" lon="101.600402">
<time>2014-08-04T18:32:48Z</time></trkpt>
<trkpt lat="25.073948" lon="101.599952">
<time>2014-08-04T18:32:49Z</time></trkpt>
<trkpt lat="25.073758" lon="101.599592">
<time>2014-08-04T18:32:50Z</time></trkpt>
<trkpt lat="25.073638" lon="101.599342">
<time>2014-08-04T18:32:51Z</time></trkpt>
<trkpt lat="25.073548" lon="101.599142">
<time>2014-08-04T18:32:52Z</time></trkpt>
<trkpt lat="25.073428" lon="101.598822">
<time>2014-08-04T18:32:53Z</time></trkpt>
<trkpt lat="25.073268" lon="101.598372">
<time>2014-08-04T18:32:54Z</time></trkpt>
<trkpt lat="25.073198" lon="101.598212">
<time>2014-08-04T18:32:55Z</time></trkpt>
<trkpt lat="25.073128" lon="101.598052">
<time>2014-08-04T18:32:56Z</time></trkpt>
<trkpt lat="25.073068" lon="101.597952">
<time>2014-08-04T18:32:57Z</time></trkpt>
<trkpt lat="25.072988" lon="101.597822">
<time>2014-08-04T18:32:58Z</time></trkpt>
<trkpt lat="25.072829" lon="101.597612">
<time>2014-08-04T18:32:59Z</time></trkpt>
<trkpt lat="25.072719" lon="101.597492">
<time>2014-08-04T18:33:00Z</time></trkpt>
<trkpt lat="25.072619" lon="101.597382">
<time>2014-08-04T18:33:01Z</time></trkpt>
<trkpt lat="25.072489" lon="101.597252">
<time>2014-08-04T18:33:02Z</time></trkpt>
<trkpt lat="25.072359" lon="101.597132">
<time>2014-08-04T18:33:03Z</time></trkpt>
<trkpt lat="25.072249" lon="101.597062">
<time>2014-08-04T18:33:04Z</time></trkpt>
<trkpt lat="25.072119" lon="101.596992">
<time>2014-08-04T18:33:05Z</time></trkpt>
<trkpt lat="25.071999" lon="101.596942">
<time>2014-08-04T18:33:06Z</time></trkpt>
<trkpt lat="25.071819" lon="101.596882">
<time>2014-08-04T18:33:07Z</time></trkpt>
<trkpt lat="25.071509" lon="101.596792">
<time>2014-08-04T18:33:08Z</time></trkpt>
<trkpt lat="25.070849" lon="101.596612">
<time>2014-08-04T18:33:09Z</time></trkpt>
<trkpt lat="25.070239" lon="101.596462">
<time>2014-08-04T18:33:10Z</time></trkpt>
<trkpt lat="25.069789" lon="101.596322">
<time>2014-08-04T18:33:11Z</time></trkpt>
<trkpt lat="25.069669" lon="101.596272">
<time>2014-08-04T18:33:12Z</time></trkpt>
<trkpt lat="25.069549" lon="101.596212">
<time>2014-08-04T18:33:13Z</time></trkpt>
<trkpt lat="25.069439" lon="101.596132">
<time>2014-08-04T18:33:14Z</time></trkpt>
<trkpt lat="25.069329" lon="101.596042">
<time>2014-08-04T18:33:15Z</time></trkpt>
<trkpt lat="25.069249" lon="101.595952">
<time>2014-08-04T18:33:16Z</time></trkpt>
<trkpt lat="25.069169" lon="101.595842">
<time>2014-08-04T18:33:17Z</time></trkpt>
<trkpt lat="25.069079" lon="101.595692">
<time>2014-08-04T18:33:18Z</time></trkpt>
<trkpt lat="25.068929" lon="101.595362">
<time>2014-08-04T18:33:19Z</time></trkpt>
<trkpt lat="25.068459" lon="101.594282">
<time>2014-08-04T18:33:20Z</time></trkpt>
<trkpt lat="25.068229" lon="101.593742">
<time>2014-08-04T18:33:21Z</time></trkpt>
<trkpt lat="25.067989" lon="101.593192">
<time>2014-08-04T18:33:22Z</time></trkpt>
<trkpt lat="25.067809" lon="101.592822">
<time>2014-08-04T18:33:23Z</time></trkpt>
<trkpt lat="25.067729" lon="101.592651">
<time>2014-08-04T18:33:24Z</time></trkpt>
<trkpt lat="25.067499" lon="101.592271">
<time>2014-08-04T18:33:25Z</time></trkpt>
<trkpt lat="25.067249" lon="101.591861">
<time>2014-08-04T18:33:26Z</time></trkpt>
<trkpt lat="25.066859" lon="101.591251">
<time>2014-08-04T18:33:27Z</time></trkpt>
<trkpt lat="25.066428" lon="101.590581">
<time>2014-08-04T18:33:28Z</time></trkpt>
<trkpt lat="25.066008" lon="101.589911">
<time>2014-08-04T18:33:29Z</time></trkpt>
<trkpt lat="25.065628" lon="101.589301">
<time>2014-08-04T18:33:30Z</time></trkpt>
<trkpt lat="25.065128" lon="101.58852">
<time>2014-08-04T18:33:31Z</time></trkpt>
<trkpt lat="25.064828" lon="101.58804">
<time>2014-08-04T18:33:32Z</time></trkpt>
<trkpt lat="25.064658" lon="101.5878">
<time>2014-08-04T18:33:33Z</time></trkpt>
<trkpt lat="25.064648" lon="101.58779">
<time>2014-08-04T18:33:34Z</time></trkpt>
<trkpt lat="25.064428" lon="101.58752">
<time>2014-08-04T18:33:35Z</time></trkpt>
<trkpt lat="25.064218" lon="101.58729">
<time>2014-08-04T18:33:36Z</time></trkpt>
<trkpt lat="25.064148" lon="101.58723">
<time>2014-08-04T18:33:37Z</time></trkpt>
<trkpt lat="25.064098" lon="101.58719">
<time>2014-08-04T18:33:38Z</time></trkpt>
<trkpt lat="25.064048" lon="101.58715">
<time>2014-08-04T18:33:39Z</time></trkpt>
<trkpt lat="25.064008" lon="101.58713">
<time>2014-08-04T18:33:40Z</time></trkpt>
<trkpt lat="25.063968" lon="101.58711">
<time>2014-08-04T18:33:41Z</time></trkpt>
<trkpt lat="25.063918" lon="101.58709">
<time>2014-08-04T18:33:42Z</time></trkpt>
<trkpt lat="25.063878" lon="101.58707">
<time>2014-08-04T18:33:43Z</time></trkpt>
<trkpt lat="25.063838" lon="101.58706">
<time>2014-08-04T18:33:44Z</time></trkpt>
<trkpt lat="25.063798" lon="101.58706">
<time>2014-08-04T18:33:45Z</time></trkpt>
<trkpt lat="25.063758" lon="101.58705">
<time>2014-08-04T18:33:46Z</time></trkpt>
<trkpt lat="25.063718" lon="101.58705">
<time>2014-08-04T18:33:47Z</time></trkpt>
<trkpt lat="25.063688" lon="101.58705">
<time>2014-08-04T18:33:48Z</time></trkpt>
<trkpt lat="25.063638" lon="101.58706">
<time>2014-08-04T18:33:49Z</time></trkpt>
<trkpt lat="25.063608" lon="101.58706">
<time>2014-08-04T18:33:50Z</time></trkpt>
<trkpt lat="25.063568" lon="101.58707">
<time>2014-08-04T18:33:51Z</time></trkpt>
<trkpt lat="25.063528" lon="101.58709">
<time>2014-08-04T18:33:52Z</time></trkpt>
<trkpt lat="25.063478" lon="101.58712">
<time>2014-08-04T18:33:53Z</time></trkpt>
<trkpt lat="25.063428" lon="101.58715">
<time>2014-08-04T18:33:54Z</time></trkpt>
<trkpt lat="25.063398" lon="101.58718">
<time>2014-08-04T18:33:55Z</time></trkpt>
<trkpt lat="25.063328" lon="101.58725">
<time>2014-08-04T18:33:56Z</time></trkpt>
<trkpt lat="25.063258" lon="101.58734">
<time>2014-08-04T18:33:57Z</time></trkpt>
<trkpt lat="25.063198" lon="101.58744">
<time>2014-08-04T18:33:58Z</time></trkpt>
<trkpt lat="25.063108" lon="101.58761">
<time>2014-08-04T18:33:59Z</time></trkpt>
<trkpt lat="25.062998" lon="101.58784">
<time>2014-08-04T18:34:00Z</time></trkpt>
<trkpt lat="25.062838" lon="101.58813">
<time>2014-08-04T18:34:01Z</time></trkpt>
<trkpt lat="25.062758" lon="101.58828">
<time>2014-08-04T18:34:02Z</time></trkpt>
<trkpt lat="25.062618" lon="101.58847">
<time>2014-08-04T18:34:03Z</time></trkpt>
<trkpt lat="25.062338" lon="101.58879">
<time>2014-08-04T18:34:04Z</time></trkpt>
<trkpt lat="25.062009" lon="101.589141">
<time>2014-08-04T18:34:05Z</time></trkpt>
<trkpt lat="25.061739" lon="101.589431">
<time>2014-08-04T18:34:06Z</time></trkpt>
<trkpt lat="25.061679" lon="101.589501">
<time>2014-08-04T18:34:07Z</time></trkpt>
<trkpt lat="25.061579" lon="101.589611">
<time>2014-08-04T18:34:08Z</time></trkpt>
<trkpt lat="25.061389" lon="101.589811">
<time>2014-08-04T18:34:09Z</time></trkpt>
<trkpt lat="25.061289" lon="101.589901">
<time>2014-08-04T18:34:10Z</time></trkpt>
<trkpt lat="25.061189" lon="101.589971">
<time>2014-08-04T18:34:11Z</time></trkpt>
<trkpt lat="25.061099" lon="101.590031">
<time>2014-08-04T18:34:12Z</time></trkpt>
<trkpt lat="25.061019" lon="101.590061">
<time>2014-08-04T18:34:13Z</time></trkpt>
<trkpt lat="25.060929" lon="101.590111">
<time>2014-08-04T18:34:14Z</time></trkpt>
<trkpt lat="25.060819" lon="101.590151">
<time>2014-08-04T18:34:15Z</time></trkpt>
<trkpt lat="25.060669" lon="101.590181">
<time>2014-08-04T18:34:16Z</time></trkpt>
<trkpt lat="25.060529" lon="101.590191">
<time>2014-08-04T18:34:17Z</time></trkpt>
<trkpt lat="25.060429" lon="101.590201">
<time>2014-08-04T18:34:18Z</time></trkpt>
<trkpt lat="25.060269" lon="101.590181">
<time>2014-08-04T18:34:19Z</time></trkpt>
<trkpt lat="25.060129" lon="101.590161">
<time>2014-08-04T18:34:20Z</time></trkpt>
<trkpt lat="25.059999" lon="101.590121">
<time>2014-08-04T18:34:21Z</time></trkpt>
<trkpt lat="25.059899" lon="101.590081">
<time>2014-08-04T18:34:22Z</time></trkpt>
<trkpt lat="25.059779" lon="101.590021">
<time>2014-08-04T18:34:23Z</time></trkpt>
<trkpt lat="25.059369" lon="101.589771">
<time>2014-08-04T18:34:24Z</time></trkpt>
<trkpt lat="25.058949" lon="101.589501">
<time>2014-08-04T18:34:25Z</time></trkpt>
<trkpt lat="25.058679" lon="101.589311">
<time>2014-08-04T18:34:26Z</time></trkpt>
<trkpt lat="25.058379" lon="101.589111">
<time>2014-08-04T18:34:27Z</time></trkpt>
<trkpt lat="25.058149" lon="101.588951">
<time>2014-08-04T18:34:28Z</time></trkpt>
<trkpt lat="25.057839" lon="101.588741">
<time>2014-08-04T18:34:29Z</time></trkpt>
<trkpt lat="25.057549" lon="101.58855">
<time>2014-08-04T18:34:30Z</time></trkpt>
<trkpt lat="25.057399" lon="101.58844">
<time>2014-08-04T18:34:31Z</time></trkpt>
<trkpt lat="25.057079" lon="101.5882">
<time>2014-08-04T18:34:32Z</time></trkpt>
<trkpt lat="25.056639" lon="101.58791">
<time>2014-08-04T18:34:33Z</time></trkpt>
<trkpt lat="25.056419" lon="101.58773">
<time>2014-08-04T18:34:34Z</time></trkpt>
<trkpt lat="25.056349" lon="101.58768">
<time>2014-08-04T18:34:35Z</time></trkpt>
<trkpt lat="25.056299" lon="101.58762">
<time>2014-08-04T18:34:36Z</time></trkpt>
<trkpt lat="25.056249" lon="101.58757">
<time>2014-08-04T18:34:37Z</time></trkpt>
<trkpt lat="25.056219" lon="101.58753">
<time>2014-08-04T18:34:38Z</time></trkpt>
<trkpt lat="25.056199" lon="101.58749">
<time>2014-08-04T18:34:39Z</time></trkpt>
<trkpt lat="25.056179" lon="101.58745">
<time>2014-08-04T18:34:40Z</time></trkpt>
<trkpt lat="25.056169" lon="101.5874">
<time>2014-08-04T18:34:41Z</time></trkpt>
<trkpt lat="25.056148" lon="101.58734">
<time>2014-08-04T18:34:42Z</time></trkpt>
<trkpt lat="25.056148" lon="101.58728">
<time>2014-08-04T18:34:43Z</time></trkpt>
<trkpt lat="25.056138" lon="101.58722">
<time>2014-08-04T18:34:44Z</time></trkpt>
<trkpt lat="25.056138" lon="101.58708">
<time>2014-08-04T18:34:45Z</time></trkpt>
<trkpt lat="25.056148" lon="101.58692">
<time>2014-08-04T18:34:46Z</time></trkpt>
<trkpt lat="25.056178" lon="101.58659">
<time>2014-08-04T18:34:47Z</time></trkpt>
<trkpt lat="25.056188" lon="101.58637">
<time>2014-08-04T18:34:48Z</time></trkpt>
<trkpt lat="25.056188" lon="101.586229">
<time>2014-08-04T18:34:49Z</time></trkpt>
<trkpt lat="25.056168" lon="101.586089">
<time>2014-08-04T18:34:50Z</time></trkpt>
<trkpt lat="25.056138" lon="101.585879">
<time>2014-08-04T18:34:51Z</time></trkpt>
<trkpt lat="25.056118" lon="101.585819">
<time>2014-08-04T18:34:52Z</time></trkpt>
<trkpt lat="25.056088" lon="101.585649">
<time>2014-08-04T18:34:53Z</time></trkpt>
<trkpt lat="25.056038" lon="101.585479">
<time>2014-08-04T18:34:54Z</time></trkpt>
<trkpt lat="25.055978" lon="101.585299">
<time>2014-08-04T18:34:55Z</time></trkpt>
<trkpt lat="25.055918" lon="101.585139">
<time>2014-08-04T18:34:56Z</time></trkpt>
<trkpt lat="25.055847" lon="101.584999">
<time>2014-08-04T18:34:57Z</time></trkpt>
<trkpt lat="25.055767" lon="101.584859">
<time>2014-08-04T18:34:58Z</time></trkpt>
<trkpt lat="25.055617" lon="101.584629">
<time>2014-08-04T18:34:59Z</time></trkpt>
<trkpt lat="25.055567" lon="101.584539">
<time>2014-08-04T18:35:00Z</time></trkpt>
<trkpt lat="25.055527" lon="101.584468">
<time>2014-08-04T18:35:01Z</time></trkpt>
<trkpt lat="25.055477" lon="101.584378">
<time>2014-08-04T18:35:02Z</time></trkpt>
<trkpt lat="25.055457" lon="101.584328">
<time>2014-08-04T18:35:03Z</time></trkpt>
<trkpt lat="25.055437" lon="101.584268">
<time>2014-08-04T18:35:04Z</time></trkpt>
<trkpt lat="25.055427" lon="101.584228">
<time>2014-08-04T18:35:05Z</time></trkpt>
<trkpt lat="25.055407" lon="101.584158">
<time>2014-08-04T18:35:06Z</time></trkpt>
<trkpt lat="25.055407" lon="101.584088">
<time>2014-08-04T18:35:07Z</time></trkpt>
<trkpt lat="25.055397" lon="101.584028">
<time>2014-08-04T18:35:08Z</time></trkpt>
<trkpt lat="25.055407" lon="101.583968">
<time>2014-08-04T18:35:09Z</time></trkpt>
<trkpt lat="25.055417" lon="101.583828">
<time>2014-08-04T18:35:10Z</time></trkpt>
<trkpt lat="25.055477" lon="101.583538">
<time>2014-08-04T18:35:11Z</time></trkpt>
<trkpt lat="25.055546" lon="101.583138">
<time>2014-08-04T18:35:12Z</time></trkpt>
<trkpt lat="25.055576" lon="101.582917">
<time>2014-08-04T18:35:13Z</time></trkpt>
<trkpt lat="25.055596" lon="101.582727">
<time>2014-08-04T18:35:14Z</time></trkpt>
<trkpt lat="25.055606" lon="101.582567">
<time>2014-08-04T18:35:15Z</time></trkpt>
<trkpt lat="25.055596" lon="101.582387">
<time>2014-08-04T18:35:16Z</time></trkpt>
<trkpt lat="25.055576" lon="101.582177">
<time>2014-08-04T18:35:17Z</time></trkpt>
<trkpt lat="25.055546" lon="101.582017">
<time>2014-08-04T18:35:18Z</time></trkpt>
<trkpt lat="25.055506" lon="101.581847">
<time>2014-08-04T18:35:19Z</time></trkpt>
<trkpt lat="25.055436" lon="101.581597">
<time>2014-08-04T18:35:20Z</time></trkpt>
<trkpt lat="25.055225" lon="101.580886">
<time>2014-08-04T18:35:21Z</time></trkpt>
<trkpt lat="25.054985" lon="101.580115">
<time>2014-08-04T18:35:22Z</time></trkpt>
<trkpt lat="25.054985" lon="101.580115">
<time>2014-08-04T18:35:23Z</time></trkpt>
<trkpt lat="25.054984" lon="101.580025">
<time>2014-08-04T18:35:24Z</time></trkpt>
<trkpt lat="25.054944" lon="101.579865">
<time>2014-08-04T18:35:25Z</time></trkpt>
<trkpt lat="25.054864" lon="101.579655">
<time>2014-08-04T18:35:26Z</time></trkpt>
<trkpt lat="25.054794" lon="101.579485">
<time>2014-08-04T18:35:27Z</time></trkpt>
<trkpt lat="25.054724" lon="101.579355">
<time>2014-08-04T18:35:28Z</time></trkpt>
<trkpt lat="25.054604" lon="101.579175">
<time>2014-08-04T18:35:29Z</time></trkpt>
<trkpt lat="25.054534" lon="101.579085">
<time>2014-08-04T18:35:30Z</time></trkpt>
<trkpt lat="25.054464" lon="101.579014">
<time>2014-08-04T18:35:31Z</time></trkpt>
<trkpt lat="25.054384" lon="101.578944">
<time>2014-08-04T18:35:32Z</time></trkpt>
<trkpt lat="25.054284" lon="101.578864">
<time>2014-08-04T18:35:33Z</time></trkpt>
<trkpt lat="25.053873" lon="101.578574">
<time>2014-08-04T18:35:34Z</time></trkpt>
<trkpt lat="25.053563" lon="101.578354">
<time>2014-08-04T18:35:35Z</time></trkpt>
<trkpt lat="25.053273" lon="101.578094">
<time>2014-08-04T18:35:36Z</time></trkpt>
<trkpt lat="25.053213" lon="101.578034">
<time>2014-08-04T18:35:37Z</time></trkpt>
<trkpt lat="25.053133" lon="101.577934">
<time>2014-08-04T18:35:38Z</time></trkpt>
<trkpt lat="25.052953" lon="101.577693">
<time>2014-08-04T18:35:39Z</time></trkpt>
<trkpt lat="25.052863" lon="101.577513">
<time>2014-08-04T18:35:40Z</time></trkpt>
<trkpt lat="25.052793" lon="101.577343">
<time>2014-08-04T18:35:41Z</time></trkpt>
<trkpt lat="25.052712" lon="101.577133">
<time>2014-08-04T18:35:42Z</time></trkpt>
<trkpt lat="25.052662" lon="101.576943">
<time>2014-08-04T18:35:43Z</time></trkpt>
<trkpt lat="25.052622" lon="101.576702">
<time>2014-08-04T18:35:44Z</time></trkpt>
<trkpt lat="25.052602" lon="101.576492">
<time>2014-08-04T18:35:45Z</time></trkpt>
<trkpt lat="25.052602" lon="101.576202">
<time>2014-08-04T18:35:46Z</time></trkpt>
<trkpt lat="25.052651" lon="101.575892">
<time>2014-08-04T18:35:47Z</time></trkpt>
<trkpt lat="25.052691" lon="101.575641">
<time>2014-08-04T18:35:48Z</time></trkpt>
<trkpt lat="25.05282" lon="101.575041">
<time>2014-08-04T18:35:49Z</time></trkpt>
<trkpt lat="25.05286" lon="101.57484">
<time>2014-08-04T18:35:50Z</time></trkpt>
<trkpt lat="25.05286" lon="101.57484">
<time>2014-08-04T18:35:51Z</time></trkpt>
<trkpt lat="25.05309" lon="101.574891">
<time>2014-08-04T18:35:52Z</time></trkpt>
<trkpt lat="25.0538" lon="101.575091">
<time>2014-08-04T18:35:53Z</time></trkpt>
<trkpt lat="25.0538" lon="101.575091">
<time>2014-08-04T18:35:54Z</time></trkpt>
<trkpt lat="25.05384" lon="101.57484">
<time>2014-08-04T18:35:55Z</time></trkpt>
<trkpt lat="25.05385" lon="101.5748">
<time>2014-08-04T18:35:56Z</time></trkpt>
<trkpt lat="25.054119" lon="101.573559">
<time>2014-08-04T18:35:57Z</time></trkpt>
<trkpt lat="25.054228" lon="101.573109">
<time>2014-08-04T18:35:58Z</time></trkpt>
<trkpt lat="25.054358" lon="101.572528">
<time>2014-08-04T18:35:59Z</time></trkpt>
<trkpt lat="25.054567" lon="101.571617">
<time>2014-08-04T18:36:00Z</time></trkpt>
<trkpt lat="25.054736" lon="101.570856">
<time>2014-08-04T18:36:01Z</time></trkpt>
<trkpt lat="25.054915" lon="101.570095">
<time>2014-08-04T18:36:02Z</time></trkpt>
<trkpt lat="25.054985" lon="101.569784">
<time>2014-08-04T18:36:03Z</time></trkpt>
<trkpt lat="25.055154" lon="101.569073">
<time>2014-08-04T18:36:04Z</time></trkpt>
<trkpt lat="25.055283" lon="101.568513">
<time>2014-08-04T18:36:05Z</time></trkpt>
<trkpt lat="25.055323" lon="101.568342">
<time>2014-08-04T18:36:06Z</time></trkpt>
<trkpt lat="25.055373" lon="101.568112">
<time>2014-08-04T18:36:07Z</time></trkpt>
<trkpt lat="25.055462" lon="101.567702">
<time>2014-08-04T18:36:08Z</time></trkpt>
<trkpt lat="25.055561" lon="101.567291">
<time>2014-08-04T18:36:09Z</time></trkpt>
<trkpt lat="25.055621" lon="101.567051">
<time>2014-08-04T18:36:10Z</time></trkpt>
<trkpt lat="25.055661" lon="101.56687">
<time>2014-08-04T18:36:11Z</time></trkpt>
<trkpt lat="25.05575" lon="101.56649">
<time>2014-08-04T18:36:12Z</time></trkpt>
<trkpt lat="25.05583" lon="101.566219">
<time>2014-08-04T18:36:13Z</time></trkpt>
<trkpt lat="25.05584" lon="101.566189">
<time>2014-08-04T18:36:14Z</time></trkpt>
<trkpt lat="25.05589" lon="101.566059">
<time>2014-08-04T18:36:15Z</time></trkpt>
<trkpt lat="25.05594" lon="101.565879">
<time>2014-08-04T18:36:16Z</time></trkpt>
<trkpt lat="25.055969" lon="101.565659">
<time>2014-08-04T18:36:17Z</time></trkpt>
<trkpt lat="25.056038" lon="101.565068">
<time>2014-08-04T18:36:18Z</time></trkpt>
<trkpt lat="25.056078" lon="101.564697">
<time>2014-08-04T18:36:19Z</time></trkpt>
<trkpt lat="25.056147" lon="101.564076">
<time>2014-08-04T18:36:20Z</time></trkpt>
<trkpt lat="25.056177" lon="101.563806">
<time>2014-08-04T18:36:21Z</time></trkpt>
<trkpt lat="25.056196" lon="101.563435">
<time>2014-08-04T18:36:22Z</time></trkpt>
<trkpt lat="25.056196" lon="101.563215">
<time>2014-08-04T18:36:23Z</time></trkpt>
<trkpt lat="25.056185" lon="101.562984">
<time>2014-08-04T18:36:24Z</time></trkpt>
<trkpt lat="25.056155" lon="101.562774">
<time>2014-08-04T18:36:25Z</time></trkpt>
<trkpt lat="25.056055" lon="101.562373">
<time>2014-08-04T18:36:26Z</time></trkpt>
<trkpt lat="25.055954" lon="101.562053">
<time>2014-08-04T18:36:27Z</time></trkpt>
<trkpt lat="25.055783" lon="101.561612">
<time>2014-08-04T18:36:28Z</time></trkpt>
<trkpt lat="25.055733" lon="101.561512">
<time>2014-08-04T18:36:29Z</time></trkpt>
<trkpt lat="25.055663" lon="101.561402">
<time>2014-08-04T18:36:30Z</time></trkpt>
<trkpt lat="25.055573" lon="101.561262">
<time>2014-08-04T18:36:31Z</time></trkpt>
<trkpt lat="25.055262" lon="101.560851">
<time>2014-08-04T18:36:32Z</time></trkpt>
<trkpt lat="25.054851" lon="101.56033">
<time>2014-08-04T18:36:33Z</time></trkpt>
<trkpt lat="25.054631" lon="101.56004">
<time>2014-08-04T18:36:34Z</time></trkpt>
<trkpt lat="25.054481" lon="101.559819">
<time>2014-08-04T18:36:35Z</time></trkpt>
<trkpt lat="25.05419" lon="101.559378">
<time>2014-08-04T18:36:36Z</time></trkpt>
<trkpt lat="25.05412" lon="101.559278">
<time>2014-08-04T18:36:37Z</time></trkpt>
<trkpt lat="25.053979" lon="101.559038">
<time>2014-08-04T18:36:38Z</time></trkpt>
<trkpt lat="25.053909" lon="101.558918">
<time>2014-08-04T18:36:39Z</time></trkpt>
<trkpt lat="25.053799" lon="101.558727">
<time>2014-08-04T18:36:40Z</time></trkpt>
<trkpt lat="25.053699" lon="101.558527">
<time>2014-08-04T18:36:41Z</time></trkpt>
<trkpt lat="25.053608" lon="101.558327">
<time>2014-08-04T18:36:42Z</time></trkpt>
<trkpt lat="25.053377" lon="101.557745">
<time>2014-08-04T18:36:43Z</time></trkpt>
<trkpt lat="25.053187" lon="101.557265">
<time>2014-08-04T18:36:44Z</time></trkpt>
<trkpt lat="25.052976" lon="101.556704">
<time>2014-08-04T18:36:45Z</time></trkpt>
<trkpt lat="25.052795" lon="101.556233">
<time>2014-08-04T18:36:46Z</time></trkpt>
<trkpt lat="25.052483" lon="101.555431">
<time>2014-08-04T18:36:47Z</time></trkpt>
<trkpt lat="25.052413" lon="101.555241">
<time>2014-08-04T18:36:48Z</time></trkpt>
<trkpt lat="25.052413" lon="101.555241">
<time>2014-08-04T18:36:49Z</time></trkpt>
<trkpt lat="25.05227" lon="101.553668">
<time>2014-08-04T18:36:50Z</time></trkpt>
<trkpt lat="25.052097" lon="101.551984">
<time>2014-08-04T18:36:51Z</time></trkpt>
<trkpt lat="25.052016" lon="101.551293">
<time>2014-08-04T18:36:52Z</time></trkpt>
<trkpt lat="25.052016" lon="101.551283">
<time>2014-08-04T18:36:53Z</time></trkpt>
<trkpt lat="25.051975" lon="101.550942">
<time>2014-08-04T18:36:54Z</time></trkpt>
<trkpt lat="25.051914" lon="101.550331">
<time>2014-08-04T18:36:55Z</time></trkpt>
<trkpt lat="25.051914" lon="101.550271">
<time>2014-08-04T18:36:56Z</time></trkpt>
<trkpt lat="25.051893" lon="101.55002">
<time>2014-08-04T18:36:57Z</time></trkpt>
<trkpt lat="25.051863" lon="101.549729">
<time>2014-08-04T18:36:58Z</time></trkpt>
<trkpt lat="25.051741" lon="101.548617">
<time>2014-08-04T18:36:59Z</time></trkpt>
<trkpt lat="25.0517" lon="101.548296">
<time>2014-08-04T18:37:00Z</time></trkpt>
<trkpt lat="25.051608" lon="101.547464">
<time>2014-08-04T18:37:01Z</time></trkpt>
<trkpt lat="25.051547" lon="101.546873">
<time>2014-08-04T18:37:02Z</time></trkpt>
<trkpt lat="25.051486" lon="101.546342">
<time>2014-08-04T18:37:03Z</time></trkpt>
<trkpt lat="25.051486" lon="101.546332">
<time>2014-08-04T18:37:04Z</time></trkpt>
<trkpt lat="25.051384" lon="101.54537">
<time>2014-08-04T18:37:05Z</time></trkpt>
<trkpt lat="25.051333" lon="101.544939">
<time>2014-08-04T18:37:06Z</time></trkpt>
<trkpt lat="25.051179" lon="101.543405">
<time>2014-08-04T18:37:07Z</time></trkpt>
<trkpt lat="25.051169" lon="101.543345">
<time>2014-08-04T18:37:08Z</time></trkpt>
<trkpt lat="25.051016" lon="101.541931">
<time>2014-08-04T18:37:09Z</time></trkpt>
<trkpt lat="25.050996" lon="101.541711">
<time>2014-08-04T18:37:10Z</time></trkpt>
<trkpt lat="25.050832" lon="101.540257">
<time>2014-08-04T18:37:11Z</time></trkpt>
<trkpt lat="25.050812" lon="101.540137">
<time>2014-08-04T18:37:12Z</time></trkpt>
<trkpt lat="25.050761" lon="101.539596">
<time>2014-08-04T18:37:13Z</time></trkpt>
<trkpt lat="25.050659" lon="101.538673">
<time>2014-08-04T18:37:14Z</time></trkpt>
<trkpt lat="25.050659" lon="101.538663">
<time>2014-08-04T18:37:15Z</time></trkpt>
<trkpt lat="25.050648" lon="101.538533">
<time>2014-08-04T18:37:16Z</time></trkpt>
<trkpt lat="25.050536" lon="101.53755">
<time>2014-08-04T18:37:17Z</time></trkpt>
<trkpt lat="25.050474" lon="101.536909">
<time>2014-08-04T18:37:18Z</time></trkpt>
<trkpt lat="25.050372" lon="101.535926">
<time>2014-08-04T18:37:19Z</time></trkpt>
<trkpt lat="25.05028" lon="101.535134">
<time>2014-08-04T18:37:20Z</time></trkpt>
<trkpt lat="25.050137" lon="101.534021">
<time>2014-08-04T18:37:21Z</time></trkpt>
<trkpt lat="25.050076" lon="101.533459">
<time>2014-08-04T18:37:22Z</time></trkpt>
<trkpt lat="25.049984" lon="101.532597">
<time>2014-08-04T18:37:23Z</time></trkpt>
<trkpt lat="25.049933" lon="101.532126">
<time>2014-08-04T18:37:24Z</time></trkpt>
<trkpt lat="25.049892" lon="101.531685">
<time>2014-08-04T18:37:25Z</time></trkpt>
<trkpt lat="25.049759" lon="101.530612">
<time>2014-08-04T18:37:26Z</time></trkpt>
<trkpt lat="25.049748" lon="101.530451">
<time>2014-08-04T18:37:27Z</time></trkpt>
<trkpt lat="25.049717" lon="101.5301">
<time>2014-08-04T18:37:28Z</time></trkpt>
<trkpt lat="25.049686" lon="101.529629">
<time>2014-08-04T18:37:29Z</time></trkpt>
<trkpt lat="25.049655" lon="101.529318">
<time>2014-08-04T18:37:30Z</time></trkpt>
<trkpt lat="25.049675" lon="101.529077">
<time>2014-08-04T18:37:31Z</time></trkpt>
<trkpt lat="25.049693" lon="101.528516">
<time>2014-08-04T18:37:32Z</time></trkpt>
<trkpt lat="25.049703" lon="101.528496">
<time>2014-08-04T18:37:33Z</time></trkpt>
<trkpt lat="25.049771" lon="101.527814">
<time>2014-08-04T18:37:34Z</time></trkpt>
<trkpt lat="25.04986" lon="101.527262">
<time>2014-08-04T18:37:35Z</time></trkpt>
<trkpt lat="25.049968" lon="101.526711">
<time>2014-08-04T18:37:36Z</time></trkpt>
<trkpt lat="25.050137" lon="101.526099">
<time>2014-08-04T18:37:37Z</time></trkpt>
<trkpt lat="25.050256" lon="101.525738">
<time>2014-08-04T18:37:38Z</time></trkpt>
<trkpt lat="25.050286" lon="101.525647">
<time>2014-08-04T18:37:39Z</time></trkpt>
<trkpt lat="25.050415" lon="101.525296">
<time>2014-08-04T18:37:40Z</time></trkpt>
<trkpt lat="25.050633" lon="101.524795">
<time>2014-08-04T18:37:41Z</time></trkpt>
<trkpt lat="25.050802" lon="101.524404">
<time>2014-08-04T18:37:42Z</time></trkpt>
<trkpt lat="25.051389" lon="101.52319">
<time>2014-08-04T18:37:43Z</time></trkpt>
<trkpt lat="25.051607" lon="101.522759">
<time>2014-08-04T18:37:44Z</time></trkpt>
<trkpt lat="25.051995" lon="101.521967">
<time>2014-08-04T18:37:45Z</time></trkpt>
<trkpt lat="25.052512" lon="101.520893">
<time>2014-08-04T18:37:46Z</time></trkpt>
<trkpt lat="25.05291" lon="101.520071">
<time>2014-08-04T18:37:47Z</time></trkpt>
<trkpt lat="25.053119" lon="101.51966">
<time>2014-08-04T18:37:48Z</time></trkpt>
<trkpt lat="25.054381" lon="101.517122">
<time>2014-08-04T18:37:49Z</time></trkpt>
<trkpt lat="25.05464" lon="101.51656">
<time>2014-08-04T18:37:50Z</time></trkpt>
<trkpt lat="25.054868" lon="101.516089">
<time>2014-08-04T18:37:51Z</time></trkpt>
<trkpt lat="25.054878" lon="101.516069">
<time>2014-08-04T18:37:52Z</time></trkpt>
<trkpt lat="25.055127" lon="101.515537">
<time>2014-08-04T18:37:53Z</time></trkpt>
<trkpt lat="25.055147" lon="101.515497">
<time>2014-08-04T18:37:54Z</time></trkpt>
<trkpt lat="25.055147" lon="101.515487">
<time>2014-08-04T18:37:55Z</time></trkpt>
<trkpt lat="25.055246" lon="101.515266">
<time>2014-08-04T18:37:56Z</time></trkpt>
<trkpt lat="25.055315" lon="101.515035">
<time>2014-08-04T18:37:57Z</time></trkpt>
<trkpt lat="25.055374" lon="101.514795">
<time>2014-08-04T18:37:58Z</time></trkpt>
<trkpt lat="25.055384" lon="101.514694">
<time>2014-08-04T18:37:59Z</time></trkpt>
<trkpt lat="25.055384" lon="101.514674">
<time>2014-08-04T18:38:00Z</time></trkpt>
<trkpt lat="25.055404" lon="101.514514">
<time>2014-08-04T18:38:01Z</time></trkpt>
<trkpt lat="25.055403" lon="101.514233">
<time>2014-08-04T18:38:02Z</time></trkpt>
<trkpt lat="25.055362" lon="101.514012">
<time>2014-08-04T18:38:03Z</time></trkpt>
<trkpt lat="25.055352" lon="101.513982">
<time>2014-08-04T18:38:04Z</time></trkpt>
<trkpt lat="25.05522" lon="101.51324">
<time>2014-08-04T18:38:05Z</time></trkpt>
<trkpt lat="25.05518" lon="101.513079">
<time>2014-08-04T18:38:06Z</time></trkpt>
<trkpt lat="25.055078" lon="101.512598">
<time>2014-08-04T18:38:07Z</time></trkpt>
<trkpt lat="25.055078" lon="101.512527">
<time>2014-08-04T18:38:08Z</time></trkpt>
<trkpt lat="25.055078" lon="101.512527">
<time>2014-08-04T18:38:09Z</time></trkpt>
<trkpt lat="25.054976" lon="101.511986">
<time>2014-08-04T18:38:10Z</time></trkpt>
<trkpt lat="25.054936" lon="101.511775">
<time>2014-08-04T18:38:11Z</time></trkpt>
<trkpt lat="25.054875" lon="101.511414">
<time>2014-08-04T18:38:12Z</time></trkpt>
<trkpt lat="25.054834" lon="101.511213">
<time>2014-08-04T18:38:13Z</time></trkpt>
<trkpt lat="25.054723" lon="101.510712">
<time>2014-08-04T18:38:14Z</time></trkpt>
<trkpt lat="25.054641" lon="101.5103">
<time>2014-08-04T18:38:15Z</time></trkpt>
<trkpt lat="25.054601" lon="101.51011">
<time>2014-08-04T18:38:16Z</time></trkpt>
<trkpt lat="25.054509" lon="101.509518">
<time>2014-08-04T18:38:17Z</time></trkpt>
<trkpt lat="25.054488" lon="101.509297">
<time>2014-08-04T18:38:18Z</time></trkpt>
<trkpt lat="25.054468" lon="101.509006">
<time>2014-08-04T18:38:19Z</time></trkpt>
<trkpt lat="25.054477" lon="101.508665">
<time>2014-08-04T18:38:20Z</time></trkpt>
<trkpt lat="25.054496" lon="101.508364">
<time>2014-08-04T18:38:21Z</time></trkpt>
<trkpt lat="25.054525" lon="101.508114">
<time>2014-08-04T18:38:22Z</time></trkpt>
<trkpt lat="25.054554" lon="101.507943">
<time>2014-08-04T18:38:23Z</time></trkpt>
<trkpt lat="25.054604" lon="101.507692">
<time>2014-08-04T18:38:24Z</time></trkpt>
<trkpt lat="25.054673" lon="101.507391">
<time>2014-08-04T18:38:25Z</time></trkpt>
<trkpt lat="25.054732" lon="101.507211">
<time>2014-08-04T18:38:26Z</time></trkpt>
<trkpt lat="25.054921" lon="101.506679">
<time>2014-08-04T18:38:27Z</time></trkpt>
<trkpt lat="25.055208" lon="101.505967">
<time>2014-08-04T18:38:28Z</time></trkpt>
<trkpt lat="25.055318" lon="101.505696">
<time>2014-08-04T18:38:29Z</time></trkpt>
<trkpt lat="25.055576" lon="101.505014">
<time>2014-08-04T18:38:30Z</time></trkpt>
<trkpt lat="25.055595" lon="101.504974">
<time>2014-08-04T18:38:31Z</time></trkpt>
<trkpt lat="25.055615" lon="101.504913">
<time>2014-08-04T18:38:32Z</time></trkpt>
<trkpt lat="25.055744" lon="101.504592">
<time>2014-08-04T18:38:33Z</time></trkpt>
<trkpt lat="25.056121" lon="101.503629">
<time>2014-08-04T18:38:34Z</time></trkpt>
<trkpt lat="25.056191" lon="101.503459">
<time>2014-08-04T18:38:35Z</time></trkpt>
<trkpt lat="25.05628" lon="101.503208">
<time>2014-08-04T18:38:36Z</time></trkpt>
<trkpt lat="25.05635" lon="101.503047">
<time>2014-08-04T18:38:37Z</time></trkpt>
<trkpt lat="25.056499" lon="101.502716">
<time>2014-08-04T18:38:38Z</time></trkpt>
<trkpt lat="25.056548" lon="101.502616">
<time>2014-08-04T18:38:39Z</time></trkpt>
<trkpt lat="25.056678" lon="101.502355">
<time>2014-08-04T18:38:40Z</time></trkpt>
<trkpt lat="25.056817" lon="101.502124">
<time>2014-08-04T18:38:41Z</time></trkpt>
<trkpt lat="25.057026" lon="101.501833">
<time>2014-08-04T18:38:42Z</time></trkpt>
<trkpt lat="25.057245" lon="101.501553">
<time>2014-08-04T18:38:43Z</time></trkpt>
<trkpt lat="25.057484" lon="101.501302">
<time>2014-08-04T18:38:44Z</time></trkpt>
<trkpt lat="25.057694" lon="101.501101">
<time>2014-08-04T18:38:45Z</time></trkpt>
<trkpt lat="25.057893" lon="101.50093">
<time>2014-08-04T18:38:46Z</time></trkpt>
<trkpt lat="25.058502" lon="101.500459">
<time>2014-08-04T18:38:47Z</time></trkpt>
<trkpt lat="25.05909" lon="101.500028">
<time>2014-08-04T18:38:48Z</time></trkpt>
<trkpt lat="25.059948" lon="101.499325">
<time>2014-08-04T18:38:49Z</time></trkpt>
<trkpt lat="25.060417" lon="101.498944">
<time>2014-08-04T18:38:50Z</time></trkpt>
<trkpt lat="25.061035" lon="101.498432">
<time>2014-08-04T18:38:51Z</time></trkpt>
<trkpt lat="25.061464" lon="101.497931">
<time>2014-08-04T18:38:52Z</time></trkpt>
<trkpt lat="25.061991" lon="101.497188">
<time>2014-08-04T18:38:53Z</time></trkpt>
<trkpt lat="25.062141" lon="101.496928">
<time>2014-08-04T18:38:54Z</time></trkpt>
<trkpt lat="25.06232" lon="101.496637">
<time>2014-08-04T18:38:55Z</time></trkpt>
<trkpt lat="25.062758" lon="101.495924">
<time>2014-08-04T18:38:56Z</time></trkpt>
<trkpt lat="25.063355" lon="101.495021">
<time>2014-08-04T18:38:57Z</time></trkpt>
<trkpt lat="25.063823" lon="101.494399">
<time>2014-08-04T18:38:58Z</time></trkpt>
<trkpt lat="25.064321" lon="101.493777">
<time>2014-08-04T18:38:59Z</time></trkpt>
<trkpt lat="25.064909" lon="101.493125">
<time>2014-08-04T18:39:00Z</time></trkpt>
<trkpt lat="25.065607" lon="101.492413">
<time>2014-08-04T18:39:01Z</time></trkpt>
<trkpt lat="25.066324" lon="101.491691">
<time>2014-08-04T18:39:02Z</time></trkpt>
<trkpt lat="25.066673" lon="101.491259">
<time>2014-08-04T18:39:03Z</time></trkpt>
<trkpt lat="25.066693" lon="101.491239">
<time>2014-08-04T18:39:04Z</time></trkpt>
<trkpt lat="25.066932" lon="101.490958">
<time>2014-08-04T18:39:05Z</time></trkpt>
<trkpt lat="25.067291" lon="101.490567">
<time>2014-08-04T18:39:06Z</time></trkpt>
<trkpt lat="25.068687" lon="101.489153">
<time>2014-08-04T18:39:07Z</time></trkpt>
<trkpt lat="25.069564" lon="101.488129">
<time>2014-08-04T18:39:08Z</time></trkpt>
<trkpt lat="25.069892" lon="101.487748">
<time>2014-08-04T18:39:09Z</time></trkpt>
<trkpt lat="25.069952" lon="101.487668">
<time>2014-08-04T18:39:10Z</time></trkpt>
<trkpt lat="25.070849" lon="101.486494">
<time>2014-08-04T18:39:11Z</time></trkpt>
<trkpt lat="25.072681" lon="101.484047">
<time>2014-08-04T18:39:12Z</time></trkpt>
<trkpt lat="25.073637" lon="101.482753">
<time>2014-08-04T18:39:13Z</time></trkpt>
<trkpt lat="25.073936" lon="101.482261">
<time>2014-08-04T18:39:14Z</time></trkpt>
<trkpt lat="25.074105" lon="101.48198">
<time>2014-08-04T18:39:15Z</time></trkpt>
<trkpt lat="25.074274" lon="101.481699">
<time>2014-08-04T18:39:16Z</time></trkpt>
<trkpt lat="25.074344" lon="101.481569">
<time>2014-08-04T18:39:17Z</time></trkpt>
<trkpt lat="25.074443" lon="101.481388">
<time>2014-08-04T18:39:18Z</time></trkpt>
<trkpt lat="25.074473" lon="101.481338">
<time>2014-08-04T18:39:19Z</time></trkpt>
<trkpt lat="25.074493" lon="101.481298">
<time>2014-08-04T18:39:20Z</time></trkpt>
<trkpt lat="25.07507" lon="101.480265">
<time>2014-08-04T18:39:21Z</time></trkpt>
<trkpt lat="25.075627" lon="101.479412">
<time>2014-08-04T18:39:22Z</time></trkpt>
<trkpt lat="25.075836" lon="101.479051">
<time>2014-08-04T18:39:23Z</time></trkpt>
<trkpt lat="25.076244" lon="101.478349">
<time>2014-08-04T18:39:24Z</time></trkpt>
<trkpt lat="25.076354" lon="101.478148">
<time>2014-08-04T18:39:25Z</time></trkpt>
<trkpt lat="25.076832" lon="101.477346">
<time>2014-08-04T18:39:26Z</time></trkpt>
<trkpt lat="25.077519" lon="101.476383">
<time>2014-08-04T18:39:27Z</time></trkpt>
<trkpt lat="25.078724" lon="101.474869">
<time>2014-08-04T18:39:28Z</time></trkpt>
<trkpt lat="25.079183" lon="101.474257">
<time>2014-08-04T18:39:29Z</time></trkpt>
<trkpt lat="25.079222" lon="101.474167">
<time>2014-08-04T18:39:30Z</time></trkpt>
<trkpt lat="25.079252" lon="101.474116">
<time>2014-08-04T18:39:31Z</time></trkpt>
<trkpt lat="25.0797" lon="101.473284">
<time>2014-08-04T18:39:32Z</time></trkpt>
<trkpt lat="25.080028" lon="101.472572">
<time>2014-08-04T18:39:33Z</time></trkpt>
<trkpt lat="25.080048" lon="101.472522">
<time>2014-08-04T18:39:34Z</time></trkpt>
<trkpt lat="25.080466" lon="101.471709">
<time>2014-08-04T18:39:35Z</time></trkpt>
<trkpt lat="25.080933" lon="101.470787">
<time>2014-08-04T18:39:36Z</time></trkpt>
<trkpt lat="25.080973" lon="101.470707">
<time>2014-08-04T18:39:37Z</time></trkpt>
<trkpt lat="25.081062" lon="101.470466">
<time>2014-08-04T18:39:38Z</time></trkpt>
<trkpt lat="25.08147" lon="101.469664">
<time>2014-08-04T18:39:39Z</time></trkpt>
<trkpt lat="25.081799" lon="101.469172">
<time>2014-08-04T18:39:40Z</time></trkpt>
<trkpt lat="25.082226" lon="101.46834">
<time>2014-08-04T18:39:41Z</time></trkpt>
<trkpt lat="25.082644" lon="101.467528">
<time>2014-08-04T18:39:42Z</time></trkpt>
<trkpt lat="25.082972" lon="101.466896">
<time>2014-08-04T18:39:43Z</time></trkpt>
<trkpt lat="25.083231" lon="101.466375">
<time>2014-08-04T18:39:44Z</time></trkpt>
<trkpt lat="25.08336" lon="101.466094">
<time>2014-08-04T18:39:45Z</time></trkpt>
<trkpt lat="25.083748" lon="101.465292">
<time>2014-08-04T18:39:46Z</time></trkpt>
<trkpt lat="25.084295" lon="101.464189">
<time>2014-08-04T18:39:47Z</time></trkpt>
<trkpt lat="25.084614" lon="101.463547">
<time>2014-08-04T18:39:48Z</time></trkpt>
<trkpt lat="25.084823" lon="101.463116">
<time>2014-08-04T18:39:49Z</time></trkpt>
<trkpt lat="25.085071" lon="101.462615">
<time>2014-08-04T18:39:50Z</time></trkpt>
<trkpt lat="25.08521" lon="101.462264">
<time>2014-08-04T18:39:51Z</time></trkpt>
<trkpt lat="25.08531" lon="101.461953">
<time>2014-08-04T18:39:52Z</time></trkpt>
<trkpt lat="25.085429" lon="101.461542">
<time>2014-08-04T18:39:53Z</time></trkpt>
<trkpt lat="25.085637" lon="101.46083">
<time>2014-08-04T18:39:54Z</time></trkpt>
<trkpt lat="25.085786" lon="101.460359">
<time>2014-08-04T18:39:55Z</time></trkpt>
<trkpt lat="25.085825" lon="101.460188">
<time>2014-08-04T18:39:56Z</time></trkpt>
<trkpt lat="25.085865" lon="101.460028">
<time>2014-08-04T18:39:57Z</time></trkpt>
<trkpt lat="25.085884" lon="101.459878">
<time>2014-08-04T18:39:58Z</time></trkpt>
<trkpt lat="25.085904" lon="101.459727">
<time>2014-08-04T18:39:59Z</time></trkpt>
<trkpt lat="25.085924" lon="101.459637">
<time>2014-08-04T18:40:00Z</time></trkpt>
<trkpt lat="25.085934" lon="101.459487">
<time>2014-08-04T18:40:01Z</time></trkpt>
<trkpt lat="25.085943" lon="101.459296">
<time>2014-08-04T18:40:02Z</time></trkpt>
<trkpt lat="25.085943" lon="101.459106">
<time>2014-08-04T18:40:03Z</time></trkpt>
<trkpt lat="25.085932" lon="101.458785">
<time>2014-08-04T18:40:04Z</time></trkpt>
<trkpt lat="25.085931" lon="101.458514">
<time>2014-08-04T18:40:05Z</time></trkpt>
<trkpt lat="25.085931" lon="101.458454">
<time>2014-08-04T18:40:06Z</time></trkpt>
<trkpt lat="25.085931" lon="101.458414">
<time>2014-08-04T18:40:07Z</time></trkpt>
<trkpt lat="25.085931" lon="101.458374">
<time>2014-08-04T18:40:08Z</time></trkpt>
<trkpt lat="25.085941" lon="101.458334">
<time>2014-08-04T18:40:09Z</time></trkpt>
<trkpt lat="25.085951" lon="101.458294">
<time>2014-08-04T18:40:10Z</time></trkpt>
<trkpt lat="25.085951" lon="101.458274">
<time>2014-08-04T18:40:11Z</time></trkpt>
<trkpt lat="25.085961" lon="101.458243">
<time>2014-08-04T18:40:12Z</time></trkpt>
<trkpt lat="25.085971" lon="101.458213">
<time>2014-08-04T18:40:13Z</time></trkpt>
<trkpt lat="25.08598" lon="101.458193">
<time>2014-08-04T18:40:14Z</time></trkpt>
<trkpt lat="25.08599" lon="101.458173">
<time>2014-08-04T18:40:15Z</time></trkpt>
<trkpt lat="25.08601" lon="101.458153">
<time>2014-08-04T18:40:16Z</time></trkpt>
<trkpt lat="25.08602" lon="101.458143">
<time>2014-08-04T18:40:17Z</time></trkpt>
<trkpt lat="25.08604" lon="101.458123">
<time>2014-08-04T18:40:18Z</time></trkpt>
<trkpt lat="25.08606" lon="101.458113">
<time>2014-08-04T18:40:19Z</time></trkpt>
<trkpt lat="25.08608" lon="101.458093">
<time>2014-08-04T18:40:20Z</time></trkpt>
<trkpt lat="25.08613" lon="101.458063">
<time>2014-08-04T18:40:21Z</time></trkpt>
<trkpt lat="25.08621" lon="101.458023">
<time>2014-08-04T18:40:22Z</time></trkpt>
<trkpt lat="25.08634" lon="101.457973">
<time>2014-08-04T18:40:23Z</time></trkpt>
<trkpt lat="25.08648" lon="101.457933">
<time>2014-08-04T18:40:24Z</time></trkpt>
<trkpt lat="25.08661" lon="101.457903">
<time>2014-08-04T18:40:25Z</time></trkpt>
<trkpt lat="25.08673" lon="101.457893">
<time>2014-08-04T18:40:26Z</time></trkpt>
<trkpt lat="25.08686" lon="101.457883">
<time>2014-08-04T18:40:27Z</time></trkpt>
<trkpt lat="25.087" lon="101.457883">
<time>2014-08-04T18:40:28Z</time></trkpt>
<trkpt lat="25.08712" lon="101.457893">
<time>2014-08-04T18:40:29Z</time></trkpt>
<trkpt lat="25.08725" lon="101.457873">
<time>2014-08-04T18:40:30Z</time></trkpt>
<trkpt lat="25.08734" lon="101.457852">
<time>2014-08-04T18:40:31Z</time></trkpt>
<trkpt lat="25.087439" lon="101.457812">
<time>2014-08-04T18:40:32Z</time></trkpt>
<trkpt lat="25.087519" lon="101.457752">
<time>2014-08-04T18:40:33Z</time></trkpt>
<trkpt lat="25.087609" lon="101.457662">
<time>2014-08-04T18:40:34Z</time></trkpt>
<trkpt lat="25.087669" lon="101.457562">
<time>2014-08-04T18:40:35Z</time></trkpt>
<trkpt lat="25.087719" lon="101.457472">
<time>2014-08-04T18:40:36Z</time></trkpt>
<trkpt lat="25.087758" lon="101.457371">
<time>2014-08-04T18:40:37Z</time></trkpt>
<trkpt lat="25.087788" lon="101.457271">
<time>2014-08-04T18:40:38Z</time></trkpt>
<trkpt lat="25.087808" lon="101.457221">
<time>2014-08-04T18:40:39Z</time></trkpt>
<trkpt lat="25.087858" lon="101.457091">
<time>2014-08-04T18:40:40Z</time></trkpt>
<trkpt lat="25.087927" lon="101.45689">
<time>2014-08-04T18:40:41Z</time></trkpt>
<trkpt lat="25.087977" lon="101.45677">
<time>2014-08-04T18:40:42Z</time></trkpt>
<trkpt lat="25.088047" lon="101.456619">
<time>2014-08-04T18:40:43Z</time></trkpt>
<trkpt lat="25.088096" lon="101.456509">
<time>2014-08-04T18:40:44Z</time></trkpt>
<trkpt lat="25.088186" lon="101.456369">
<time>2014-08-04T18:40:45Z</time></trkpt>
<trkpt lat="25.088286" lon="101.456219">
<time>2014-08-04T18:40:46Z</time></trkpt>
<trkpt lat="25.088465" lon="101.456038">
<time>2014-08-04T18:40:47Z</time></trkpt>
<trkpt lat="25.088834" lon="101.455667">
<time>2014-08-04T18:40:48Z</time></trkpt>
<trkpt lat="25.088854" lon="101.455657">
<time>2014-08-04T18:40:49Z</time></trkpt>
<trkpt lat="25.089373" lon="101.455136">
<time>2014-08-04T18:40:50Z</time></trkpt>
<trkpt lat="25.089852" lon="101.454645">
<time>2014-08-04T18:40:51Z</time></trkpt>
<trkpt lat="25.090141" lon="101.454344">
<time>2014-08-04T18:40:52Z</time></trkpt>
<trkpt lat="25.090351" lon="101.454124">
<time>2014-08-04T18:40:53Z</time></trkpt>
<trkpt lat="25.09046" lon="101.454013">
<time>2014-08-04T18:40:54Z</time></trkpt>
<trkpt lat="25.090919" lon="101.453542">
<time>2014-08-04T18:40:55Z</time></trkpt>
<trkpt lat="25.091099" lon="101.453362">
<time>2014-08-04T18:40:56Z</time></trkpt>
<trkpt lat="25.091249" lon="101.453201">
<time>2014-08-04T18:40:57Z</time></trkpt>
<trkpt lat="25.091568" lon="101.452851">
<time>2014-08-04T18:40:58Z</time></trkpt>
<trkpt lat="25.091618" lon="101.4528">
<time>2014-08-04T18:40:59Z</time></trkpt>
<trkpt lat="25.091957" lon="101.45238">
<time>2014-08-04T18:41:00Z</time></trkpt>
<trkpt lat="25.092256" lon="101.451969">
<time>2014-08-04T18:41:01Z</time></trkpt>
<trkpt lat="25.092904" lon="101.451207">
<time>2014-08-04T18:41:02Z</time></trkpt>
<trkpt lat="25.093173" lon="101.450906">
<time>2014-08-04T18:41:03Z</time></trkpt>
<trkpt lat="25.093233" lon="101.450836">
<time>2014-08-04T18:41:04Z</time></trkpt>
<trkpt lat="25.093702" lon="101.450295">
<time>2014-08-04T18:41:05Z</time></trkpt>
<trkpt lat="25.094231" lon="101.449643">
<time>2014-08-04T18:41:06Z</time></trkpt>
<trkpt lat="25.094271" lon="101.449613">
<time>2014-08-04T18:41:07Z</time></trkpt>
<trkpt lat="25.09444" lon="101.449413">
<time>2014-08-04T18:41:08Z</time></trkpt>
<trkpt lat="25.09452" lon="101.449323">
<time>2014-08-04T18:41:09Z</time></trkpt>
<trkpt lat="25.094799" lon="101.449012">
<time>2014-08-04T18:41:10Z</time></trkpt>
<trkpt lat="25.094909" lon="101.448872">
<time>2014-08-04T18:41:11Z</time></trkpt>
<trkpt lat="25.095009" lon="101.448722">
<time>2014-08-04T18:41:12Z</time></trkpt>
<trkpt lat="25.095048" lon="101.448611">
<time>2014-08-04T18:41:13Z</time></trkpt>
<trkpt lat="25.095068" lon="101.448531">
<time>2014-08-04T18:41:14Z</time></trkpt>
<trkpt lat="25.095078" lon="101.448401">
<time>2014-08-04T18:41:15Z</time></trkpt>
<trkpt lat="25.095068" lon="101.448271">
<time>2014-08-04T18:41:16Z</time></trkpt>
<trkpt lat="25.095017" lon="101.44802">
<time>2014-08-04T18:41:17Z</time></trkpt>
<trkpt lat="25.094957" lon="101.44776">
<time>2014-08-04T18:41:18Z</time></trkpt>
<trkpt lat="25.094906" lon="101.447519">
<time>2014-08-04T18:41:19Z</time></trkpt>
<trkpt lat="25.094886" lon="101.447419">
<time>2014-08-04T18:41:20Z</time></trkpt>
<trkpt lat="25.094866" lon="101.447329">
<time>2014-08-04T18:41:21Z</time></trkpt>
<trkpt lat="25.094835" lon="101.447128">
<time>2014-08-04T18:41:22Z</time></trkpt>
<trkpt lat="25.094815" lon="101.446978">
<time>2014-08-04T18:41:23Z</time></trkpt>
<trkpt lat="25.094805" lon="101.446858">
<time>2014-08-04T18:41:24Z</time></trkpt>
<trkpt lat="25.094794" lon="101.446667">
<time>2014-08-04T18:41:25Z</time></trkpt>
<trkpt lat="25.094794" lon="101.446407">
<time>2014-08-04T18:41:26Z</time></trkpt>
<trkpt lat="25.094804" lon="101.446166">
<time>2014-08-04T18:41:27Z</time></trkpt>
<trkpt lat="25.094813" lon="101.445766">
<time>2014-08-04T18:41:28Z</time></trkpt>
<trkpt lat="25.094812" lon="101.445475">
<time>2014-08-04T18:41:29Z</time></trkpt>
<trkpt lat="25.094802" lon="101.445255">
<time>2014-08-04T18:41:30Z</time></trkpt>
<trkpt lat="25.094761" lon="101.445034">
<time>2014-08-04T18:41:31Z</time></trkpt>
<trkpt lat="25.094691" lon="101.444814">
<time>2014-08-04T18:41:32Z</time></trkpt>
<trkpt lat="25.094621" lon="101.444673">
<time>2014-08-04T18:41:33Z</time></trkpt>
<trkpt lat="25.094601" lon="101.444633">
<time>2014-08-04T18:41:34Z</time></trkpt>
<trkpt lat="25.09452" lon="101.444493">
<time>2014-08-04T18:41:35Z</time></trkpt>
<trkpt lat="25.09446" lon="101.444363">
<time>2014-08-04T18:41:36Z</time></trkpt>
<trkpt lat="25.09441" lon="101.444243">
<time>2014-08-04T18:41:37Z</time></trkpt>
<trkpt lat="25.09438" lon="101.444162">
<time>2014-08-04T18:41:38Z</time></trkpt>
<trkpt lat="25.09437" lon="101.444102">
<time>2014-08-04T18:41:39Z</time></trkpt>
<trkpt lat="25.094369" lon="101.444032">
<time>2014-08-04T18:41:40Z</time></trkpt>
<trkpt lat="25.094379" lon="101.443962">
<time>2014-08-04T18:41:41Z</time></trkpt>
<trkpt lat="25.094399" lon="101.443872">
<time>2014-08-04T18:41:42Z</time></trkpt>
<trkpt lat="25.094429" lon="101.443782">
<time>2014-08-04T18:41:43Z</time></trkpt>
<trkpt lat="25.094528" lon="101.443531">
<time>2014-08-04T18:41:44Z</time></trkpt>
<trkpt lat="25.094638" lon="101.443221">
<time>2014-08-04T18:41:45Z</time></trkpt>
<trkpt lat="25.094658" lon="101.443161">
<time>2014-08-04T18:41:46Z</time></trkpt>
<trkpt lat="25.094727" lon="101.44293">
<time>2014-08-04T18:41:47Z</time></trkpt>
<trkpt lat="25.094797" lon="101.44268">
<time>2014-08-04T18:41:48Z</time></trkpt>
<trkpt lat="25.094936" lon="101.442119">
<time>2014-08-04T18:41:49Z</time></trkpt>
<trkpt lat="25.095035" lon="101.441728">
<time>2014-08-04T18:41:50Z</time></trkpt>
<trkpt lat="25.095075" lon="101.441578">
<time>2014-08-04T18:41:51Z</time></trkpt>
<trkpt lat="25.095164" lon="101.441287">
<time>2014-08-04T18:41:52Z</time></trkpt>
<trkpt lat="25.095254" lon="101.441047">
<time>2014-08-04T18:41:53Z</time></trkpt>
<trkpt lat="25.095364" lon="101.440836">
<time>2014-08-04T18:41:54Z</time></trkpt>
<trkpt lat="25.095443" lon="101.440666">
<time>2014-08-04T18:41:55Z</time></trkpt>
<trkpt lat="25.095583" lon="101.440406">
<time>2014-08-04T18:41:56Z</time></trkpt>
<trkpt lat="25.095682" lon="101.440175">
<time>2014-08-04T18:41:57Z</time></trkpt>
<trkpt lat="25.095772" lon="101.439945">
<time>2014-08-04T18:41:58Z</time></trkpt>
<trkpt lat="25.095891" lon="101.439554">
<time>2014-08-04T18:41:59Z</time></trkpt>
<trkpt lat="25.095981" lon="101.439264">
<time>2014-08-04T18:42:00Z</time></trkpt>
<trkpt lat="25.09607" lon="101.438973">
<time>2014-08-04T18:42:01Z</time></trkpt>
<trkpt lat="25.09616" lon="101.438693">
<time>2014-08-04T18:42:02Z</time></trkpt>
<trkpt lat="25.096249" lon="101.438422">
<time>2014-08-04T18:42:03Z</time></trkpt>
<trkpt lat="25.096309" lon="101.438242">
<time>2014-08-04T18:42:04Z</time></trkpt>
<trkpt lat="25.096379" lon="101.438072">
<time>2014-08-04T18:42:05Z</time></trkpt>
<trkpt lat="25.096448" lon="101.437891">
<time>2014-08-04T18:42:06Z</time></trkpt>
<trkpt lat="25.096528" lon="101.437741">
<time>2014-08-04T18:42:07Z</time></trkpt>
<trkpt lat="25.096628" lon="101.437591">
<time>2014-08-04T18:42:08Z</time></trkpt>
<trkpt lat="25.096768" lon="101.43737">
<time>2014-08-04T18:42:09Z</time></trkpt>
<trkpt lat="25.096927" lon="101.43714">
<time>2014-08-04T18:42:10Z</time></trkpt>
<trkpt lat="25.097197" lon="101.436779">
<time>2014-08-04T18:42:11Z</time></trkpt>
<trkpt lat="25.097366" lon="101.436549">
<time>2014-08-04T18:42:12Z</time></trkpt>
<trkpt lat="25.097486" lon="101.436379">
<time>2014-08-04T18:42:13Z</time></trkpt>
<trkpt lat="25.097636" lon="101.436179">
<time>2014-08-04T18:42:14Z</time></trkpt>
<trkpt lat="25.097785" lon="101.435968">
<time>2014-08-04T18:42:15Z</time></trkpt>
<trkpt lat="25.097935" lon="101.435778">
<time>2014-08-04T18:42:16Z</time></trkpt>
<trkpt lat="25.098125" lon="101.435538">
<time>2014-08-04T18:42:17Z</time></trkpt>
<trkpt lat="25.098164" lon="101.435477">
<time>2014-08-04T18:42:18Z</time></trkpt>
<trkpt lat="25.098244" lon="101.435377">
<time>2014-08-04T18:42:19Z</time></trkpt>
<trkpt lat="25.098554" lon="101.434937">
<time>2014-08-04T18:42:20Z</time></trkpt>
<trkpt lat="25.098663" lon="101.434766">
<time>2014-08-04T18:42:21Z</time></trkpt>
<trkpt lat="25.098723" lon="101.434636">
<time>2014-08-04T18:42:22Z</time></trkpt>
<trkpt lat="25.098763" lon="101.434546">
<time>2014-08-04T18:42:23Z</time></trkpt>
<trkpt lat="25.098773" lon="101.434506">
<time>2014-08-04T18:42:24Z</time></trkpt>
<trkpt lat="25.098823" lon="101.434366">
<time>2014-08-04T18:42:25Z</time></trkpt>
<trkpt lat="25.098852" lon="101.434226">
<time>2014-08-04T18:42:26Z</time></trkpt>
<trkpt lat="25.098892" lon="101.433995">
<time>2014-08-04T18:42:27Z</time></trkpt>
<trkpt lat="25.098902" lon="101.433915">
<time>2014-08-04T18:42:28Z</time></trkpt>
<trkpt lat="25.098932" lon="101.433695">
<time>2014-08-04T18:42:29Z</time></trkpt>
<trkpt lat="25.098961" lon="101.433495">
<time>2014-08-04T18:42:30Z</time></trkpt>
<trkpt lat="25.099011" lon="101.433234">
<time>2014-08-04T18:42:31Z</time></trkpt>
<trkpt lat="25.099051" lon="101.432944">
<time>2014-08-04T18:42:32Z</time></trkpt>
<trkpt lat="25.09909" lon="101.432673">
<time>2014-08-04T18:42:33Z</time></trkpt>
<trkpt lat="25.09913" lon="101.432413">
<time>2014-08-04T18:42:34Z</time></trkpt>
<trkpt lat="25.099179" lon="101.432113">
<time>2014-08-04T18:42:35Z</time></trkpt>
<trkpt lat="25.099229" lon="101.431832">
<time>2014-08-04T18:42:36Z</time></trkpt>
<trkpt lat="25.099279" lon="101.431512">
<time>2014-08-04T18:42:37Z</time></trkpt>
<trkpt lat="25.099318" lon="101.431271">
<time>2014-08-04T18:42:38Z</time></trkpt>
<trkpt lat="25.099358" lon="101.431011">
<time>2014-08-04T18:42:39Z</time></trkpt>
<trkpt lat="25.099388" lon="101.430901">
<time>2014-08-04T18:42:40Z</time></trkpt>
<trkpt lat="25.099408" lon="101.430811">
<time>2014-08-04T18:42:41Z</time></trkpt>
<trkpt lat="25.099447" lon="101.430721">
<time>2014-08-04T18:42:42Z</time></trkpt>
<trkpt lat="25.099517" lon="101.430611">
<time>2014-08-04T18:42:43Z</time></trkpt>
<trkpt lat="25.099607" lon="101.43049">
<time>2014-08-04T18:42:44Z</time></trkpt>
<trkpt lat="25.099787" lon="101.43031">
<time>2014-08-04T18:42:45Z</time></trkpt>
<trkpt lat="25.099997" lon="101.43012">
<time>2014-08-04T18:42:46Z</time></trkpt>
<trkpt lat="25.100386" lon="101.42976">
<time>2014-08-04T18:42:47Z</time></trkpt>
<trkpt lat="25.100516" lon="101.429639">
<time>2014-08-04T18:42:48Z</time></trkpt>
<trkpt lat="25.100816" lon="101.429369">
<time>2014-08-04T18:42:49Z</time></trkpt>
<trkpt lat="25.101185" lon="101.429029">
<time>2014-08-04T18:42:50Z</time></trkpt>
<trkpt lat="25.101555" lon="101.428688">
<time>2014-08-04T18:42:51Z</time></trkpt>
<trkpt lat="25.101854" lon="101.428398">
<time>2014-08-04T18:42:52Z</time></trkpt>
<trkpt lat="25.102064" lon="101.428208">
<time>2014-08-04T18:42:53Z</time></trkpt>
<trkpt lat="25.102304" lon="101.427997">
<time>2014-08-04T18:42:54Z</time></trkpt>
<trkpt lat="25.102603" lon="101.427707">
<time>2014-08-04T18:42:55Z</time></trkpt>
<trkpt lat="25.102733" lon="101.427587">
<time>2014-08-04T18:42:56Z</time></trkpt>
<trkpt lat="25.102873" lon="101.427457">
<time>2014-08-04T18:42:57Z</time></trkpt>
<trkpt lat="25.103043" lon="101.427277">
<time>2014-08-04T18:42:58Z</time></trkpt>
<trkpt lat="25.103203" lon="101.427086">
<time>2014-08-04T18:42:59Z</time></trkpt>
<trkpt lat="25.103382" lon="101.426846">
<time>2014-08-04T18:43:00Z</time></trkpt>
<trkpt lat="25.103512" lon="101.426656">
<time>2014-08-04T18:43:01Z</time></trkpt>
<trkpt lat="25.103582" lon="101.426556">
<time>2014-08-04T18:43:02Z</time></trkpt>
<trkpt lat="25.103702" lon="101.426386">
<time>2014-08-04T18:43:03Z</time></trkpt>
<trkpt lat="25.103762" lon="101.426305">
<time>2014-08-04T18:43:04Z</time></trkpt>
<trkpt lat="25.103841" lon="101.426185">
<time>2014-08-04T18:43:05Z</time></trkpt>
<trkpt lat="25.103911" lon="101.426085">
<time>2014-08-04T18:43:06Z</time></trkpt>
<trkpt lat="25.104011" lon="101.425945">
<time>2014-08-04T18:43:07Z</time></trkpt>
<trkpt lat="25.104101" lon="101.425825">
<time>2014-08-04T18:43:08Z</time></trkpt>
<trkpt lat="25.104181" lon="101.425745">
<time>2014-08-04T18:43:09Z</time></trkpt>
<trkpt lat="25.104271" lon="101.425655">
<time>2014-08-04T18:43:10Z</time></trkpt>
<trkpt lat="25.104351" lon="101.425585">
<time>2014-08-04T18:43:11Z</time></trkpt>
<trkpt lat="25.104481" lon="101.425495">
<time>2014-08-04T18:43:12Z</time></trkpt>
<trkpt lat="25.1046" lon="101.425424">
<time>2014-08-04T18:43:13Z</time></trkpt>
<trkpt lat="25.10471" lon="101.425374">
<time>2014-08-04T18:43:14Z</time></trkpt>
<trkpt lat="25.10485" lon="101.425314">
<time>2014-08-04T18:43:15Z</time></trkpt>
<trkpt lat="25.10499" lon="101.425254">
<time>2014-08-04T18:43:16Z</time></trkpt>
<trkpt lat="25.10519" lon="101.425174">
<time>2014-08-04T18:43:17Z</time></trkpt>
<trkpt lat="25.10537" lon="101.425094">
<time>2014-08-04T18:43:18Z</time></trkpt>
<trkpt lat="25.10561" lon="101.425004">
<time>2014-08-04T18:43:19Z</time></trkpt>
<trkpt lat="25.10579" lon="101.424924">
<time>2014-08-04T18:43:20Z</time></trkpt>
<trkpt lat="25.10597" lon="101.424844">
<time>2014-08-04T18:43:21Z</time></trkpt>
<trkpt lat="25.10623" lon="101.424734">
<time>2014-08-04T18:43:22Z</time></trkpt>
<trkpt lat="25.106419" lon="101.424644">
<time>2014-08-04T18:43:23Z</time></trkpt>
<trkpt lat="25.106559" lon="101.424574">
<time>2014-08-04T18:43:24Z</time></trkpt>
<trkpt lat="25.106769" lon="101.424493">
<time>2014-08-04T18:43:25Z</time></trkpt>
<trkpt lat="25.106959" lon="101.424423">
<time>2014-08-04T18:43:26Z</time></trkpt>
<trkpt lat="25.107189" lon="101.424323">
<time>2014-08-04T18:43:27Z</time></trkpt>
<trkpt lat="25.107309" lon="101.424273">
<time>2014-08-04T18:43:28Z</time></trkpt>
<trkpt lat="25.107449" lon="101.424193">
<time>2014-08-04T18:43:29Z</time></trkpt>
<trkpt lat="25.107579" lon="101.424103">
<time>2014-08-04T18:43:30Z</time></trkpt>
<trkpt lat="25.107759" lon="101.423943">
<time>2014-08-04T18:43:31Z</time></trkpt>
<trkpt lat="25.107908" lon="101.423813">
<time>2014-08-04T18:43:32Z</time></trkpt>
<trkpt lat="25.108038" lon="101.423693">
<time>2014-08-04T18:43:33Z</time></trkpt>
<trkpt lat="25.108188" lon="101.423563">
<time>2014-08-04T18:43:34Z</time></trkpt>
<trkpt lat="25.108368" lon="101.423412">
<time>2014-08-04T18:43:35Z</time></trkpt>
<trkpt lat="25.108488" lon="101.423292">
<time>2014-08-04T18:43:36Z</time></trkpt>
<trkpt lat="25.108588" lon="101.423202">
<time>2014-08-04T18:43:37Z</time></trkpt>
<trkpt lat="25.108728" lon="101.423052">
<time>2014-08-04T18:43:38Z</time></trkpt>
<trkpt lat="25.108807" lon="101.422942">
<time>2014-08-04T18:43:39Z</time></trkpt>
<trkpt lat="25.108917" lon="101.422772">
<time>2014-08-04T18:43:40Z</time></trkpt>
<trkpt lat="25.109007" lon="101.422582">
<time>2014-08-04T18:43:41Z</time></trkpt>
<trkpt lat="25.109107" lon="101.422261">
<time>2014-08-04T18:43:42Z</time></trkpt>
<trkpt lat="25.109256" lon="101.421791">
<time>2014-08-04T18:43:43Z</time></trkpt>
<trkpt lat="25.109376" lon="101.421421">
<time>2014-08-04T18:43:44Z</time></trkpt>
<trkpt lat="25.109456" lon="101.42116">
<time>2014-08-04T18:43:45Z</time></trkpt>
<trkpt lat="25.109575" lon="101.42081">
<time>2014-08-04T18:43:46Z</time></trkpt>
<trkpt lat="25.109715" lon="101.42041">
<time>2014-08-04T18:43:47Z</time></trkpt>
<trkpt lat="25.109875" lon="101.419989">
<time>2014-08-04T18:43:48Z</time></trkpt>
<trkpt lat="25.110004" lon="101.419619">
<time>2014-08-04T18:43:49Z</time></trkpt>
<trkpt lat="25.110064" lon="101.419439">
<time>2014-08-04T18:43:50Z</time></trkpt>
<trkpt lat="25.110114" lon="101.419259">
<time>2014-08-04T18:43:51Z</time></trkpt>
<trkpt lat="25.110134" lon="101.419099">
<time>2014-08-04T18:43:52Z</time></trkpt>
<trkpt lat="25.110134" lon="101.418919">
<time>2014-08-04T18:43:53Z</time></trkpt>
<trkpt lat="25.110114" lon="101.418779">
<time>2014-08-04T18:43:54Z</time></trkpt>
<trkpt lat="25.110073" lon="101.418528">
<time>2014-08-04T18:43:55Z</time></trkpt>
<trkpt lat="25.109923" lon="101.417978">
<time>2014-08-04T18:43:56Z</time></trkpt>
<trkpt lat="25.109893" lon="101.417868">
<time>2014-08-04T18:43:57Z</time></trkpt>
<trkpt lat="25.109833" lon="101.417688">
<time>2014-08-04T18:43:58Z</time></trkpt>
<trkpt lat="25.109752" lon="101.417378">
<time>2014-08-04T18:43:59Z</time></trkpt>
<trkpt lat="25.109712" lon="101.417218">
<time>2014-08-04T18:44:00Z</time></trkpt>
<trkpt lat="25.109682" lon="101.417067">
<time>2014-08-04T18:44:01Z</time></trkpt>
<trkpt lat="25.109672" lon="101.416947">
<time>2014-08-04T18:44:02Z</time></trkpt>
<trkpt lat="25.109682" lon="101.416807">
<time>2014-08-04T18:44:03Z</time></trkpt>
<trkpt lat="25.109732" lon="101.416667">
<time>2014-08-04T18:44:04Z</time></trkpt>
<trkpt lat="25.109802" lon="101.416517">
<time>2014-08-04T18:44:05Z</time></trkpt>
<trkpt lat="25.109922" lon="101.416307">
<time>2014-08-04T18:44:06Z</time></trkpt>
<trkpt lat="25.110181" lon="101.415887">
<time>2014-08-04T18:44:07Z</time></trkpt>
<trkpt lat="25.110371" lon="101.415597">
<time>2014-08-04T18:44:08Z</time></trkpt>
<trkpt lat="25.110511" lon="101.415386">
<time>2014-08-04T18:44:09Z</time></trkpt>
<trkpt lat="25.110641" lon="101.415166">
<time>2014-08-04T18:44:10Z</time></trkpt>
<trkpt lat="25.110761" lon="101.414956">
<time>2014-08-04T18:44:11Z</time></trkpt>
<trkpt lat="25.111" lon="101.414566">
<time>2014-08-04T18:44:12Z</time></trkpt>
<trkpt lat="25.11122" lon="101.414246">
<time>2014-08-04T18:44:13Z</time></trkpt>
<trkpt lat="25.11159" lon="101.413676">
<time>2014-08-04T18:44:14Z</time></trkpt>
<trkpt lat="25.11192" lon="101.413225">
<time>2014-08-04T18:44:15Z</time></trkpt>
<trkpt lat="25.112359" lon="101.412595">
<time>2014-08-04T18:44:16Z</time></trkpt>
<trkpt lat="25.112609" lon="101.412235">
<time>2014-08-04T18:44:17Z</time></trkpt>
<trkpt lat="25.112839" lon="101.411925">
<time>2014-08-04T18:44:18Z</time></trkpt>
<trkpt lat="25.113408" lon="101.411105">
<time>2014-08-04T18:44:19Z</time></trkpt>
<trkpt lat="25.113788" lon="101.410554">
<time>2014-08-04T18:44:20Z</time></trkpt>
<trkpt lat="25.113928" lon="101.410354">
<time>2014-08-04T18:44:21Z</time></trkpt>
<trkpt lat="25.114028" lon="101.410184">
<time>2014-08-04T18:44:22Z</time></trkpt>
<trkpt lat="25.114088" lon="101.410054">
<time>2014-08-04T18:44:23Z</time></trkpt>
<trkpt lat="25.114118" lon="101.409954">
<time>2014-08-04T18:44:24Z</time></trkpt>
<trkpt lat="25.114138" lon="101.409834">
<time>2014-08-04T18:44:25Z</time></trkpt>
<trkpt lat="25.114138" lon="101.409684">
<time>2014-08-04T18:44:26Z</time></trkpt>
<trkpt lat="25.114128" lon="101.409514">
<time>2014-08-04T18:44:27Z</time></trkpt>
<trkpt lat="25.114077" lon="101.409294">
<time>2014-08-04T18:44:28Z</time></trkpt>
<trkpt lat="25.113947" lon="101.408664">
<time>2014-08-04T18:44:29Z</time></trkpt>
<trkpt lat="25.113847" lon="101.408234">
<time>2014-08-04T18:44:30Z</time></trkpt>
<trkpt lat="25.113807" lon="101.408024">
<time>2014-08-04T18:44:31Z</time></trkpt>
<trkpt lat="25.113737" lon="101.407764">
<time>2014-08-04T18:44:32Z</time></trkpt>
<trkpt lat="25.113697" lon="101.407584">
<time>2014-08-04T18:44:33Z</time></trkpt>
<trkpt lat="25.113687" lon="101.407494">
<time>2014-08-04T18:44:34Z</time></trkpt>
<trkpt lat="25.113677" lon="101.407424">
<time>2014-08-04T18:44:35Z</time></trkpt>
<trkpt lat="25.113677" lon="101.407354">
<time>2014-08-04T18:44:36Z</time></trkpt>
<trkpt lat="25.113677" lon="101.407344">
<time>2014-08-04T18:44:37Z</time></trkpt>
<trkpt lat="25.113687" lon="101.407294">
<time>2014-08-04T18:44:38Z</time></trkpt>
<trkpt lat="25.113707" lon="101.407224">
<time>2014-08-04T18:44:39Z</time></trkpt>
<trkpt lat="25.113747" lon="101.407164">
<time>2014-08-04T18:44:40Z</time></trkpt>
<trkpt lat="25.113787" lon="101.407104">
<time>2014-08-04T18:44:41Z</time></trkpt>
<trkpt lat="25.113857" lon="101.407044">
<time>2014-08-04T18:44:42Z</time></trkpt>
<trkpt lat="25.113867" lon="101.407034">
<time>2014-08-04T18:44:43Z</time></trkpt>
<trkpt lat="25.113927" lon="101.406994">
<time>2014-08-04T18:44:44Z</time></trkpt>
<trkpt lat="25.114067" lon="101.406934">
<time>2014-08-04T18:44:45Z</time></trkpt>
<trkpt lat="25.114227" lon="101.406854">
<time>2014-08-04T18:44:46Z</time></trkpt>
<trkpt lat="25.114317" lon="101.406814">
<time>2014-08-04T18:44:47Z</time></trkpt>
<trkpt lat="25.114637" lon="101.406674">
<time>2014-08-04T18:44:48Z</time></trkpt>
<trkpt lat="25.114827" lon="101.406584">
<time>2014-08-04T18:44:49Z</time></trkpt>
<trkpt lat="25.114987" lon="101.406504">
<time>2014-08-04T18:44:50Z</time></trkpt>
<trkpt lat="25.115186" lon="101.406414">
<time>2014-08-04T18:44:51Z</time></trkpt>
<trkpt lat="25.115426" lon="101.406304">
<time>2014-08-04T18:44:52Z</time></trkpt>
<trkpt lat="25.115746" lon="101.406144">
<time>2014-08-04T18:44:53Z</time></trkpt>
<trkpt lat="25.115876" lon="101.406064">
<time>2014-08-04T18:44:54Z</time></trkpt>
<trkpt lat="25.115986" lon="101.405994">
<time>2014-08-04T18:44:55Z</time></trkpt>
<trkpt lat="25.116156" lon="101.405854">
<time>2014-08-04T18:44:56Z</time></trkpt>
<trkpt lat="25.116286" lon="101.405744">
<time>2014-08-04T18:44:57Z</time></trkpt>
<trkpt lat="25.116386" lon="101.405634">
<time>2014-08-04T18:44:58Z</time></trkpt>
<trkpt lat="25.116506" lon="101.405494">
<time>2014-08-04T18:44:59Z</time></trkpt>
<trkpt lat="25.116656" lon="101.405274">
<time>2014-08-04T18:45:00Z</time></trkpt>
<trkpt lat="25.116806" lon="101.405074">
<time>2014-08-04T18:45:01Z</time></trkpt>
<trkpt lat="25.116896" lon="101.404974">
<time>2014-08-04T18:45:02Z</time></trkpt>
<trkpt lat="25.116996" lon="101.404854">
<time>2014-08-04T18:45:03Z</time></trkpt>
<trkpt lat="25.117156" lon="101.404694">
<time>2014-08-04T18:45:04Z</time></trkpt>
<trkpt lat="25.117356" lon="101.404514">
<time>2014-08-04T18:45:05Z</time></trkpt>
<trkpt lat="25.118466" lon="101.403594">
<time>2014-08-04T18:45:06Z</time></trkpt>
<trkpt lat="25.118906" lon="101.403234">
<time>2014-08-04T18:45:07Z</time></trkpt>
<trkpt lat="25.119206" lon="101.402984">
<time>2014-08-04T18:45:08Z</time></trkpt>
<trkpt lat="25.119345" lon="101.402874">
<time>2014-08-04T18:45:09Z</time></trkpt>
<trkpt lat="25.119525" lon="101.402724">
<time>2014-08-04T18:45:10Z</time></trkpt>
<trkpt lat="25.119865" lon="101.402434">
<time>2014-08-04T18:45:11Z</time></trkpt>
<trkpt lat="25.120155" lon="101.402194">
<time>2014-08-04T18:45:12Z</time></trkpt>
<trkpt lat="25.120315" lon="101.402064">
<time>2014-08-04T18:45:13Z</time></trkpt>
<trkpt lat="25.120545" lon="101.401904">
<time>2014-08-04T18:45:14Z</time></trkpt>
<trkpt lat="25.120675" lon="101.401824">
<time>2014-08-04T18:45:15Z</time></trkpt>
<trkpt lat="25.120805" lon="101.401754">
<time>2014-08-04T18:45:16Z</time></trkpt>
<trkpt lat="25.121335" lon="101.401474">
<time>2014-08-04T18:45:17Z</time></trkpt>
<trkpt lat="25.122015" lon="101.401114">
<time>2014-08-04T18:45:18Z</time></trkpt>
<trkpt lat="25.122825" lon="101.400664">
<time>2014-08-04T18:45:19Z</time></trkpt>
<trkpt lat="25.123175" lon="101.400474">
<time>2014-08-04T18:45:20Z</time></trkpt>
<trkpt lat="25.123365" lon="101.400384">
<time>2014-08-04T18:45:21Z</time></trkpt>
<trkpt lat="25.123615" lon="101.400254">
<time>2014-08-04T18:45:22Z</time></trkpt>
<trkpt lat="25.123895" lon="101.400104">
<time>2014-08-04T18:45:23Z</time></trkpt>
<trkpt lat="25.124225" lon="101.399904">
<time>2014-08-04T18:45:24Z</time></trkpt>
<trkpt lat="25.124295" lon="101.399854">
<time>2014-08-04T18:45:25Z</time></trkpt>
<trkpt lat="25.124375" lon="101.399794">
<time>2014-08-04T18:45:26Z</time></trkpt>
<trkpt lat="25.124495" lon="101.399684">
<time>2014-08-04T18:45:27Z</time></trkpt>
<trkpt lat="25.124615" lon="101.399564">
<time>2014-08-04T18:45:28Z</time></trkpt>
<trkpt lat="25.124725" lon="101.399424">
<time>2014-08-04T18:45:29Z</time></trkpt>
<trkpt lat="25.124795" lon="101.399324">
<time>2014-08-04T18:45:30Z</time></trkpt>
<trkpt lat="25.124865" lon="101.399204">
<time>2014-08-04T18:45:31Z</time></trkpt>
<trkpt lat="25.124935" lon="101.399024">
<time>2014-08-04T18:45:32Z</time></trkpt>
<trkpt lat="25.125055" lon="101.398674">
<time>2014-08-04T18:45:33Z</time></trkpt>
<trkpt lat="25.125115" lon="101.398514">
<time>2014-08-04T18:45:34Z</time></trkpt>
<trkpt lat="25.125325" lon="101.397885">
<time>2014-08-04T18:45:35Z</time></trkpt>
<trkpt lat="25.125535" lon="101.397275">
<time>2014-08-04T18:45:36Z</time></trkpt>
<trkpt lat="25.125675" lon="101.396845">
<time>2014-08-04T18:45:37Z</time></trkpt>
<trkpt lat="25.125755" lon="101.396605">
<time>2014-08-04T18:45:38Z</time></trkpt>
<trkpt lat="25.125815" lon="101.396465">
<time>2014-08-04T18:45:39Z</time></trkpt>
<trkpt lat="25.125835" lon="101.396405">
<time>2014-08-04T18:45:40Z</time></trkpt>
<trkpt lat="25.125855" lon="101.396365">
<time>2014-08-04T18:45:41Z</time></trkpt>
<trkpt lat="25.125905" lon="101.396275">
<time>2014-08-04T18:45:42Z</time></trkpt>
<trkpt lat="25.125975" lon="101.396185">
<time>2014-08-04T18:45:43Z</time></trkpt>
<trkpt lat="25.126055" lon="101.396115">
<time>2014-08-04T18:45:44Z</time></trkpt>
<trkpt lat="25.126135" lon="101.396045">
<time>2014-08-04T18:45:45Z</time></trkpt>
<trkpt lat="25.126275" lon="101.395955">
<time>2014-08-04T18:45:46Z</time></trkpt>
<trkpt lat="25.126405" lon="101.395865">
<time>2014-08-04T18:45:47Z</time></trkpt>
<trkpt lat="25.126495" lon="101.395785">
<time>2014-08-04T18:45:48Z</time></trkpt>
<trkpt lat="25.126615" lon="101.395676">
<time>2014-08-04T18:45:49Z</time></trkpt>
<trkpt lat="25.126705" lon="101.395566">
<time>2014-08-04T18:45:50Z</time></trkpt>
<trkpt lat="25.126765" lon="101.395476">
<time>2014-08-04T18:45:51Z</time></trkpt>
<trkpt lat="25.126815" lon="101.395366">
<time>2014-08-04T18:45:52Z</time></trkpt>
<trkpt lat="25.126855" lon="101.395266">
<time>2014-08-04T18:45:53Z</time></trkpt>
<trkpt lat="25.126885" lon="101.395096">
<time>2014-08-04T18:45:54Z</time></trkpt>
<trkpt lat="25.126925" lon="101.394826">
<time>2014-08-04T18:45:55Z</time></trkpt>
<trkpt lat="25.126946" lon="101.394506">
<time>2014-08-04T18:45:56Z</time></trkpt>
<trkpt lat="25.126986" lon="101.394056">
<time>2014-08-04T18:45:57Z</time></trkpt>
<trkpt lat="25.126996" lon="101.393846">
<time>2014-08-04T18:45:58Z</time></trkpt>
<trkpt lat="25.126996" lon="101.393697">
<time>2014-08-04T18:45:59Z</time></trkpt>
<trkpt lat="25.126966" lon="101.393477">
<time>2014-08-04T18:46:00Z</time></trkpt>
<trkpt lat="25.126856" lon="101.392967">
<time>2014-08-04T18:46:01Z</time></trkpt>
<trkpt lat="25.126766" lon="101.392567">
<time>2014-08-04T18:46:02Z</time></trkpt>
<trkpt lat="25.126716" lon="101.392297">
<time>2014-08-04T18:46:03Z</time></trkpt>
<trkpt lat="25.126596" lon="101.391658">
<time>2014-08-04T18:46:04Z</time></trkpt>
<trkpt lat="25.126557" lon="101.391358">
<time>2014-08-04T18:46:05Z</time></trkpt>
<trkpt lat="25.126547" lon="101.391068">
<time>2014-08-04T18:46:06Z</time></trkpt>
<trkpt lat="25.126567" lon="101.390828">
<time>2014-08-04T18:46:07Z</time></trkpt>
<trkpt lat="25.126587" lon="101.390569">
<time>2014-08-04T18:46:08Z</time></trkpt>
<trkpt lat="25.126637" lon="101.390199">
<time>2014-08-04T18:46:09Z</time></trkpt>
<trkpt lat="25.126677" lon="101.390009">
<time>2014-08-04T18:46:10Z</time></trkpt>
<trkpt lat="25.126717" lon="101.389879">
<time>2014-08-04T18:46:11Z</time></trkpt>
<trkpt lat="25.126777" lon="101.389749">
<time>2014-08-04T18:46:12Z</time></trkpt>
<trkpt lat="25.126887" lon="101.389559">
<time>2014-08-04T18:46:13Z</time></trkpt>
<trkpt lat="25.127128" lon="101.3892">
<time>2014-08-04T18:46:14Z</time></trkpt>
<trkpt lat="25.127448" lon="101.38873">
<time>2014-08-04T18:46:15Z</time></trkpt>
<trkpt lat="25.127618" lon="101.38848">
<time>2014-08-04T18:46:16Z</time></trkpt>
<trkpt lat="25.128038" lon="101.387861">
<time>2014-08-04T18:46:17Z</time></trkpt>
<trkpt lat="25.128238" lon="101.387581">
<time>2014-08-04T18:46:18Z</time></trkpt>
<trkpt lat="25.128288" lon="101.387521">
<time>2014-08-04T18:46:19Z</time></trkpt>
<trkpt lat="25.128348" lon="101.387471">
<time>2014-08-04T18:46:20Z</time></trkpt>
<trkpt lat="25.128408" lon="101.387421">
<time>2014-08-04T18:46:21Z</time></trkpt>
<trkpt lat="25.128498" lon="101.387371">
<time>2014-08-04T18:46:22Z</time></trkpt>
<trkpt lat="25.128588" lon="101.387341">
<time>2014-08-04T18:46:23Z</time></trkpt>
<trkpt lat="25.128738" lon="101.387301">
<time>2014-08-04T18:46:24Z</time></trkpt>
<trkpt lat="25.128878" lon="101.387281">
<time>2014-08-04T18:46:25Z</time></trkpt>
<trkpt lat="25.129128" lon="101.387241">
<time>2014-08-04T18:46:26Z</time></trkpt>
<trkpt lat="25.129748" lon="101.387151">
<time>2014-08-04T18:46:27Z</time></trkpt>
<trkpt lat="25.130128" lon="101.387091">
<time>2014-08-04T18:46:28Z</time></trkpt>
<trkpt lat="25.130348" lon="101.387051">
<time>2014-08-04T18:46:29Z</time></trkpt>
<trkpt lat="25.130498" lon="101.387021">
<time>2014-08-04T18:46:30Z</time></trkpt>
<trkpt lat="25.130588" lon="101.386991">
<time>2014-08-04T18:46:31Z</time></trkpt>
<trkpt lat="25.130638" lon="101.386951">
<time>2014-08-04T18:46:32Z</time></trkpt>
<trkpt lat="25.130698" lon="101.386911">
<time>2014-08-04T18:46:33Z</time></trkpt>
<trkpt lat="25.130738" lon="101.386861">
<time>2014-08-04T18:46:34Z</time></trkpt>
<trkpt lat="25.130769" lon="101.386811">
<time>2014-08-04T18:46:35Z</time></trkpt>
<trkpt lat="25.130799" lon="101.386751">
<time>2014-08-04T18:46:36Z</time></trkpt>
<trkpt lat="25.130819" lon="101.386682">
<time>2014-08-04T18:46:37Z</time></trkpt>
<trkpt lat="25.130819" lon="101.386612">
<time>2014-08-04T18:46:38Z</time></trkpt>
<trkpt lat="25.130819" lon="101.386562">
<time>2014-08-04T18:46:39Z</time></trkpt>
<trkpt lat="25.130809" lon="101.386512">
<time>2014-08-04T18:46:40Z</time></trkpt>
<trkpt lat="25.130789" lon="101.386432">
<time>2014-08-04T18:46:41Z</time></trkpt>
<trkpt lat="25.130749" lon="101.386352">
<time>2014-08-04T18:46:42Z</time></trkpt>
<trkpt lat="25.130589" lon="101.386062">
<time>2014-08-04T18:46:43Z</time></trkpt>
<trkpt lat="25.130389" lon="101.385772">
<time>2014-08-04T18:46:44Z</time></trkpt>
<trkpt lat="25.130229" lon="101.385493">
<time>2014-08-04T18:46:45Z</time></trkpt>
<trkpt lat="25.130109" lon="101.385293">
<time>2014-08-04T18:46:46Z</time></trkpt>
<trkpt lat="25.12998" lon="101.385083">
<time>2014-08-04T18:46:47Z</time></trkpt>
<trkpt lat="25.12992" lon="101.385003">
<time>2014-08-04T18:46:48Z</time></trkpt>
<trkpt lat="25.12992" lon="101.385003">
<time>2014-08-04T18:46:49Z</time></trkpt>
<trkpt lat="25.13005" lon="101.384683">
<time>2014-08-04T18:46:50Z</time></trkpt>
<trkpt lat="25.13018" lon="101.384384">
<time>2014-08-04T18:46:51Z</time></trkpt>
<trkpt lat="25.13035" lon="101.384014">
<time>2014-08-04T18:46:52Z</time></trkpt>
<trkpt lat="25.130471" lon="101.383724">
<time>2014-08-04T18:46:53Z</time></trkpt>
<trkpt lat="25.130501" lon="101.383594">
<time>2014-08-04T18:46:54Z</time></trkpt>
<trkpt lat="25.130531" lon="101.383405">
<time>2014-08-04T18:46:55Z</time></trkpt>
<trkpt lat="25.130541" lon="101.383175">
<time>2014-08-04T18:46:56Z</time></trkpt>
<trkpt lat="25.130551" lon="101.382965">
<time>2014-08-04T18:46:57Z</time></trkpt>
<trkpt lat="25.130541" lon="101.382576">
<time>2014-08-04T18:46:58Z</time></trkpt>
<trkpt lat="25.130542" lon="101.382286">
<time>2014-08-04T18:46:59Z</time></trkpt>
<trkpt lat="25.130542" lon="101.382156">
<time>2014-08-04T18:47:00Z</time></trkpt>
<trkpt lat="25.130552" lon="101.382126">
<time>2014-08-04T18:47:01Z</time></trkpt>
<trkpt lat="25.130552" lon="101.382056">
<time>2014-08-04T18:47:02Z</time></trkpt>
<trkpt lat="25.130572" lon="101.381996">
<time>2014-08-04T18:47:03Z</time></trkpt>
<trkpt lat="25.130602" lon="101.381916">
<time>2014-08-04T18:47:04Z</time></trkpt>
<trkpt lat="25.130632" lon="101.381856">
<time>2014-08-04T18:47:05Z</time></trkpt>
<trkpt lat="25.130712" lon="101.381756">
<time>2014-08-04T18:47:06Z</time></trkpt>
<trkpt lat="25.130782" lon="101.381667">
<time>2014-08-04T18:47:07Z</time></trkpt>
<trkpt lat="25.130952" lon="101.381507">
<time>2014-08-04T18:47:08Z</time></trkpt>
<trkpt lat="25.131122" lon="101.381347">
<time>2014-08-04T18:47:09Z</time></trkpt>
<trkpt lat="25.131252" lon="101.381227">
<time>2014-08-04T18:47:10Z</time></trkpt>
<trkpt lat="25.131312" lon="101.381157">
<time>2014-08-04T18:47:11Z</time></trkpt>
<trkpt lat="25.131382" lon="101.381087">
<time>2014-08-04T18:47:12Z</time></trkpt>
<trkpt lat="25.131422" lon="101.381027">
<time>2014-08-04T18:47:13Z</time></trkpt>
<trkpt lat="25.131613" lon="101.380768">
<time>2014-08-04T18:47:14Z</time></trkpt>
<trkpt lat="25.131823" lon="101.380458">
<time>2014-08-04T18:47:15Z</time></trkpt>
<trkpt lat="25.131993" lon="101.380178">
<time>2014-08-04T18:47:16Z</time></trkpt>
<trkpt lat="25.132093" lon="101.380038">
<time>2014-08-04T18:47:17Z</time></trkpt>
<trkpt lat="25.132213" lon="101.379879">
<time>2014-08-04T18:47:18Z</time></trkpt>
<trkpt lat="25.132434" lon="101.379569">
<time>2014-08-04T18:47:19Z</time></trkpt>
<trkpt lat="25.132504" lon="101.379489">
<time>2014-08-04T18:47:20Z</time></trkpt>
<trkpt lat="25.132544" lon="101.379449">
<time>2014-08-04T18:47:21Z</time></trkpt>
<trkpt lat="25.132614" lon="101.379389">
<time>2014-08-04T18:47:22Z</time></trkpt>
<trkpt lat="25.132674" lon="101.379349">
<time>2014-08-04T18:47:23Z</time></trkpt>
<trkpt lat="25.132744" lon="101.379309">
<time>2014-08-04T18:47:24Z</time></trkpt>
<trkpt lat="25.132794" lon="101.379289">
<time>2014-08-04T18:47:25Z</time></trkpt>
<trkpt lat="25.133044" lon="101.379229">
<time>2014-08-04T18:47:26Z</time></trkpt>
<trkpt lat="25.133304" lon="101.379189">
<time>2014-08-04T18:47:27Z</time></trkpt>
<trkpt lat="25.133614" lon="101.379119">
<time>2014-08-04T18:47:28Z</time></trkpt>
<trkpt lat="25.133654" lon="101.379109">
<time>2014-08-04T18:47:29Z</time></trkpt>
<trkpt lat="25.134084" lon="101.37901">
<time>2014-08-04T18:47:30Z</time></trkpt>
<trkpt lat="25.134164" lon="101.37899">
<time>2014-08-04T18:47:31Z</time></trkpt>
<trkpt lat="25.134354" lon="101.37895">
<time>2014-08-04T18:47:32Z</time></trkpt>
<trkpt lat="25.134614" lon="101.37891">
<time>2014-08-04T18:47:33Z</time></trkpt>
<trkpt lat="25.134874" lon="101.37886">
<time>2014-08-04T18:47:34Z</time></trkpt>
<trkpt lat="25.135054" lon="101.37881">
<time>2014-08-04T18:47:35Z</time></trkpt>
<trkpt lat="25.135164" lon="101.37878">
<time>2014-08-04T18:47:36Z</time></trkpt>
<trkpt lat="25.135244" lon="101.37876">
<time>2014-08-04T18:47:37Z</time></trkpt>
<trkpt lat="25.135364" lon="101.37871">
<time>2014-08-04T18:47:38Z</time></trkpt>
<trkpt lat="25.135474" lon="101.37866">
<time>2014-08-04T18:47:39Z</time></trkpt>
<trkpt lat="25.135574" lon="101.37859">
<time>2014-08-04T18:47:40Z</time></trkpt>
<trkpt lat="25.135704" lon="101.37848">
<time>2014-08-04T18:47:41Z</time></trkpt>
<trkpt lat="25.135814" lon="101.37839">
<time>2014-08-04T18:47:42Z</time></trkpt>
<trkpt lat="25.136305" lon="101.378021">
<time>2014-08-04T18:47:43Z</time></trkpt>
<trkpt lat="25.136625" lon="101.377741">
<time>2014-08-04T18:47:44Z</time></trkpt>
<trkpt lat="25.136825" lon="101.377511">
<time>2014-08-04T18:47:45Z</time></trkpt>
<trkpt lat="25.137025" lon="101.377262">
<time>2014-08-04T18:47:46Z</time></trkpt>
<trkpt lat="25.137326" lon="101.376792">
<time>2014-08-04T18:47:47Z</time></trkpt>
<trkpt lat="25.137436" lon="101.376563">
<time>2014-08-04T18:47:48Z</time></trkpt>
<trkpt lat="25.137556" lon="101.376253">
<time>2014-08-04T18:47:49Z</time></trkpt>
<trkpt lat="25.137667" lon="101.375933">
<time>2014-08-04T18:47:50Z</time></trkpt>
<trkpt lat="25.137787" lon="101.375614">
<time>2014-08-04T18:47:51Z</time></trkpt>
<trkpt lat="25.137887" lon="101.375354">
<time>2014-08-04T18:47:52Z</time></trkpt>
<trkpt lat="25.137967" lon="101.375105">
<time>2014-08-04T18:47:53Z</time></trkpt>
<trkpt lat="25.137997" lon="101.375015">
<time>2014-08-04T18:47:54Z</time></trkpt>
<trkpt lat="25.138058" lon="101.374875">
<time>2014-08-04T18:47:55Z</time></trkpt>
<trkpt lat="25.138118" lon="101.374735">
<time>2014-08-04T18:47:56Z</time></trkpt>
<trkpt lat="25.138188" lon="101.374635">
<time>2014-08-04T18:47:57Z</time></trkpt>
<trkpt lat="25.138268" lon="101.374575">
<time>2014-08-04T18:47:58Z</time></trkpt>
<trkpt lat="25.138358" lon="101.374555">
<time>2014-08-04T18:47:59Z</time></trkpt>
<trkpt lat="25.138438" lon="101.374555">
<time>2014-08-04T18:48:00Z</time></trkpt>
<trkpt lat="25.138528" lon="101.374585">
<time>2014-08-04T18:48:01Z</time></trkpt>
<trkpt lat="25.138618" lon="101.374645">
<time>2014-08-04T18:48:02Z</time></trkpt>
<trkpt lat="25.138718" lon="101.374755">
<time>2014-08-04T18:48:03Z</time></trkpt>
<trkpt lat="25.138808" lon="101.374855">
<time>2014-08-04T18:48:04Z</time></trkpt>
<trkpt lat="25.138838" lon="101.374905">
<time>2014-08-04T18:48:05Z</time></trkpt>
<trkpt lat="25.138917" lon="101.375015">
<time>2014-08-04T18:48:06Z</time></trkpt>
<trkpt lat="25.138997" lon="101.375184">
<time>2014-08-04T18:48:07Z</time></trkpt>
<trkpt lat="25.139007" lon="101.375234">
<time>2014-08-04T18:48:08Z</time></trkpt>
<trkpt lat="25.139007" lon="101.375274">
<time>2014-08-04T18:48:09Z</time></trkpt>
<trkpt lat="25.139007" lon="101.375314">
<time>2014-08-04T18:48:10Z</time></trkpt>
<trkpt lat="25.138997" lon="101.375364">
<time>2014-08-04T18:48:11Z</time></trkpt>
<trkpt lat="25.138967" lon="101.375444">
<time>2014-08-04T18:48:12Z</time></trkpt>
<trkpt lat="25.138927" lon="101.375514">
<time>2014-08-04T18:48:13Z</time></trkpt>
<trkpt lat="25.138787" lon="101.375724">
<time>2014-08-04T18:48:14Z</time></trkpt>
<trkpt lat="25.138677" lon="101.375933">
<time>2014-08-04T18:48:15Z</time></trkpt>
<trkpt lat="25.138616" lon="101.376133">
<time>2014-08-04T18:48:16Z</time></trkpt>
<trkpt lat="25.138556" lon="101.376423">
<time>2014-08-04T18:48:17Z</time></trkpt>
<trkpt lat="25.138546" lon="101.376583">
<time>2014-08-04T18:48:18Z</time></trkpt>
<trkpt lat="25.138536" lon="101.376662">
<time>2014-08-04T18:48:19Z</time></trkpt>
<trkpt lat="25.138546" lon="101.376742">
<time>2014-08-04T18:48:20Z</time></trkpt>
<trkpt lat="25.138576" lon="101.376822">
<time>2014-08-04T18:48:21Z</time></trkpt>
<trkpt lat="25.138616" lon="101.376892">
<time>2014-08-04T18:48:22Z</time></trkpt>
<trkpt lat="25.138656" lon="101.376952">
<time>2014-08-04T18:48:23Z</time></trkpt>
<trkpt lat="25.138706" lon="101.376992">
<time>2014-08-04T18:48:24Z</time></trkpt>
<trkpt lat="25.138775" lon="101.377042">
<time>2014-08-04T18:48:25Z</time></trkpt>
<trkpt lat="25.138865" lon="101.377082">
<time>2014-08-04T18:48:26Z</time></trkpt>
<trkpt lat="25.139085" lon="101.377112">
<time>2014-08-04T18:48:27Z</time></trkpt>
<trkpt lat="25.139245" lon="101.377102">
<time>2014-08-04T18:48:28Z</time></trkpt>
<trkpt lat="25.139395" lon="101.377062">
<time>2014-08-04T18:48:29Z</time></trkpt>
<trkpt lat="25.139595" lon="101.377012">
<time>2014-08-04T18:48:30Z</time></trkpt>
<trkpt lat="25.140066" lon="101.376872">
<time>2014-08-04T18:48:31Z</time></trkpt>
<trkpt lat="25.140976" lon="101.376542">
<time>2014-08-04T18:48:32Z</time></trkpt>
<trkpt lat="25.141126" lon="101.376493">
<time>2014-08-04T18:48:33Z</time></trkpt>
<trkpt lat="25.141286" lon="101.376443">
<time>2014-08-04T18:48:34Z</time></trkpt>
<trkpt lat="25.141456" lon="101.376393">
<time>2014-08-04T18:48:35Z</time></trkpt>
<trkpt lat="25.141616" lon="101.376343">
<time>2014-08-04T18:48:36Z</time></trkpt>
<trkpt lat="25.141786" lon="101.376293">
<time>2014-08-04T18:48:37Z</time></trkpt>
<trkpt lat="25.141966" lon="101.376253">
<time>2014-08-04T18:48:38Z</time></trkpt>
<trkpt lat="25.142146" lon="101.376213">
<time>2014-08-04T18:48:39Z</time></trkpt>
<trkpt lat="25.142326" lon="101.376163">
<time>2014-08-04T18:48:40Z</time></trkpt>
<trkpt lat="25.142496" lon="101.376113">
<time>2014-08-04T18:48:41Z</time></trkpt>
<trkpt lat="25.142656" lon="101.376043">
<time>2014-08-04T18:48:42Z</time></trkpt>
<trkpt lat="25.142806" lon="101.375973">
<time>2014-08-04T18:48:43Z</time></trkpt>
<trkpt lat="25.142946" lon="101.375883">
<time>2014-08-04T18:48:44Z</time></trkpt>
<trkpt lat="25.143076" lon="101.375803">
<time>2014-08-04T18:48:45Z</time></trkpt>
<trkpt lat="25.143196" lon="101.375724">
<time>2014-08-04T18:48:46Z</time></trkpt>
<trkpt lat="25.143317" lon="101.375634">
<time>2014-08-04T18:48:47Z</time></trkpt>
<trkpt lat="25.143457" lon="101.375534">
<time>2014-08-04T18:48:48Z</time></trkpt>
<trkpt lat="25.143647" lon="101.375354">
<time>2014-08-04T18:48:49Z</time></trkpt>
<trkpt lat="25.143767" lon="101.375214">
<time>2014-08-04T18:48:50Z</time></trkpt>
<trkpt lat="25.143857" lon="101.375114">
<time>2014-08-04T18:48:51Z</time></trkpt>
<trkpt lat="25.143957" lon="101.375024">
<time>2014-08-04T18:48:52Z</time></trkpt>
<trkpt lat="25.143967" lon="101.375014">
<time>2014-08-04T18:48:53Z</time></trkpt>
<trkpt lat="25.144047" lon="101.374985">
<time>2014-08-04T18:48:54Z</time></trkpt>
<trkpt lat="25.144097" lon="101.374965">
<time>2014-08-04T18:48:55Z</time></trkpt>
<trkpt lat="25.144117" lon="101.374955">
<time>2014-08-04T18:48:56Z</time></trkpt>
<trkpt lat="25.144117" lon="101.374955">
<time>2014-08-04T18:48:57Z</time></trkpt>
<trkpt lat="25.143828" lon="101.374355">
<time>2014-08-04T18:48:58Z</time></trkpt>
<trkpt lat="25.143618" lon="101.373806">
<time>2014-08-04T18:48:59Z</time></trkpt>
<trkpt lat="25.143439" lon="101.373327">
<time>2014-08-04T18:49:00Z</time></trkpt>
<trkpt lat="25.143319" lon="101.372987">
<time>2014-08-04T18:49:01Z</time></trkpt>
<trkpt lat="25.14314" lon="101.372508">
<time>2014-08-04T18:49:02Z</time></trkpt>
<trkpt lat="25.14312" lon="101.372478">
<time>2014-08-04T18:49:03Z</time></trkpt>
<trkpt lat="25.14291" lon="101.371939">
<time>2014-08-04T18:49:04Z</time></trkpt>
<trkpt lat="25.142771" lon="101.37145">
<time>2014-08-04T18:49:05Z</time></trkpt>
<trkpt lat="25.142671" lon="101.37108">
<time>2014-08-04T18:49:06Z</time></trkpt>
<trkpt lat="25.142662" lon="101.37095">
<time>2014-08-04T18:49:07Z</time></trkpt>
<trkpt lat="25.142692" lon="101.370831">
<time>2014-08-04T18:49:08Z</time></trkpt>
<trkpt lat="25.142722" lon="101.370781">
<time>2014-08-04T18:49:09Z</time></trkpt>
<trkpt lat="25.142802" lon="101.370701">
<time>2014-08-04T18:49:10Z</time></trkpt>
<trkpt lat="25.143072" lon="101.370591">
<time>2014-08-04T18:49:11Z</time></trkpt>
<trkpt lat="25.143242" lon="101.370551">
<time>2014-08-04T18:49:12Z</time></trkpt>
<trkpt lat="25.143352" lon="101.370561">
<time>2014-08-04T18:49:13Z</time></trkpt>
<trkpt lat="25.143512" lon="101.370641">
<time>2014-08-04T18:49:14Z</time></trkpt>
<trkpt lat="25.143662" lon="101.370751">
<time>2014-08-04T18:49:15Z</time></trkpt>
<trkpt lat="25.144091" lon="101.37116">
<time>2014-08-04T18:49:16Z</time></trkpt>
<trkpt lat="25.144231" lon="101.371669">
<time>2014-08-04T18:49:17Z</time></trkpt>
<trkpt lat="25.1443" lon="101.371969">
<time>2014-08-04T18:49:18Z</time></trkpt>
<trkpt lat="25.14469" lon="101.372608">
<time>2014-08-04T18:49:19Z</time></trkpt>
<trkpt lat="25.14489" lon="101.372638">
<time>2014-08-04T18:49:20Z</time></trkpt>
<trkpt lat="25.14596" lon="101.372059">
<time>2014-08-04T18:49:21Z</time></trkpt>
<trkpt lat="25.14654" lon="101.371739">
<time>2014-08-04T18:49:22Z</time></trkpt>
<trkpt lat="25.146931" lon="101.37141">
<time>2014-08-04T18:49:23Z</time></trkpt>
<trkpt lat="25.147591" lon="101.37101">
<time>2014-08-04T18:49:24Z</time></trkpt>
<trkpt lat="25.148092" lon="101.370601">
<time>2014-08-04T18:49:25Z</time></trkpt>
<trkpt lat="25.148582" lon="101.370341">
<time>2014-08-04T18:49:26Z</time></trkpt>
<trkpt lat="25.148862" lon="101.370611">
<time>2014-08-04T18:49:27Z</time></trkpt>
<trkpt lat="25.149302" lon="101.370681">
<time>2014-08-04T18:49:28Z</time></trkpt>
<trkpt lat="25.149302" lon="101.370681">
<time>2014-08-04T18:49:29Z</time></trkpt>
<trkpt lat="25.149322" lon="101.370511">
<time>2014-08-04T18:49:30Z</time></trkpt>
<trkpt lat="25.149322" lon="101.370361">
<time>2014-08-04T18:49:31Z</time></trkpt>
<trkpt lat="25.149312" lon="101.370191">
<time>2014-08-04T18:49:32Z</time></trkpt>
<trkpt lat="25.149352" lon="101.369912">
<time>2014-08-04T18:49:33Z</time></trkpt>
<trkpt lat="25.149443" lon="101.369522">
<time>2014-08-04T18:49:34Z</time></trkpt>
<trkpt lat="25.149614" lon="101.368754">
<time>2014-08-04T18:49:35Z</time></trkpt>
<trkpt lat="25.149755" lon="101.368035">
<time>2014-08-04T18:49:36Z</time></trkpt>
<trkpt lat="25.149745" lon="101.367725">
<time>2014-08-04T18:49:37Z</time></trkpt>
<trkpt lat="25.149705" lon="101.367496">
<time>2014-08-04T18:49:38Z</time></trkpt>
<trkpt lat="25.149606" lon="101.367236">
<time>2014-08-04T18:49:39Z</time></trkpt>
<trkpt lat="25.149466" lon="101.366917">
<time>2014-08-04T18:49:40Z</time></trkpt>
<trkpt lat="25.149426" lon="101.366797">
<time>2014-08-04T18:49:41Z</time></trkpt>
<trkpt lat="25.149436" lon="101.366737">
<time>2014-08-04T18:49:42Z</time></trkpt>
<trkpt lat="25.149456" lon="101.366677">
<time>2014-08-04T18:49:43Z</time></trkpt>
<trkpt lat="25.149476" lon="101.366627">
<time>2014-08-04T18:49:44Z</time></trkpt>
<trkpt lat="25.149517" lon="101.366567">
<time>2014-08-04T18:49:45Z</time></trkpt>
<trkpt lat="25.150808" lon="101.365549">
<time>2014-08-04T18:49:46Z</time></trkpt>
<trkpt lat="25.151759" lon="101.36479">
<time>2014-08-04T18:49:47Z</time></trkpt>
<trkpt lat="25.15254" lon="101.364191">
<time>2014-08-04T18:49:48Z</time></trkpt>
<trkpt lat="25.15261" lon="101.364122">
<time>2014-08-04T18:49:49Z</time></trkpt>
<trkpt lat="25.15264" lon="101.364022">
<time>2014-08-04T18:49:50Z</time></trkpt>
<trkpt lat="25.15274" lon="101.363872">
<time>2014-08-04T18:49:51Z</time></trkpt>
<trkpt lat="25.15293" lon="101.363592">
<time>2014-08-04T18:49:52Z</time></trkpt>
<trkpt lat="25.153151" lon="101.363223">
<time>2014-08-04T18:49:53Z</time></trkpt>
<trkpt lat="25.153341" lon="101.362904">
<time>2014-08-04T18:49:54Z</time></trkpt>
<trkpt lat="25.153462" lon="101.362714">
<time>2014-08-04T18:49:55Z</time></trkpt>
<trkpt lat="25.153562" lon="101.362594">
<time>2014-08-04T18:49:56Z</time></trkpt>
<trkpt lat="25.153572" lon="101.362584">
<time>2014-08-04T18:49:57Z</time></trkpt>
<trkpt lat="25.153572" lon="101.362584">
<time>2014-08-04T18:49:58Z</time></trkpt>
<trkpt lat="25.153222" lon="101.362245">
<time>2014-08-04T18:49:59Z</time></trkpt>
<trkpt lat="25.153072" lon="101.362095">
<time>2014-08-04T18:50:00Z</time></trkpt>
<trkpt lat="25.152863" lon="101.361826">
<time>2014-08-04T18:50:01Z</time></trkpt>
<trkpt lat="25.152673" lon="101.361726">
<time>2014-08-04T18:50:02Z</time></trkpt>
<trkpt lat="25.152573" lon="101.361626">
<time>2014-08-04T18:50:03Z</time></trkpt>
<trkpt lat="25.152553" lon="101.361566">
<time>2014-08-04T18:50:04Z</time></trkpt>
<trkpt lat="25.152563" lon="101.361416">
<time>2014-08-04T18:50:05Z</time></trkpt>
<trkpt lat="25.152364" lon="101.361057">
<time>2014-08-04T18:50:06Z</time></trkpt>
<trkpt lat="25.151605" lon="101.360209">
<time>2014-08-04T18:50:07Z</time></trkpt>
<trkpt lat="25.151276" lon="101.359989">
<time>2014-08-04T18:50:08Z</time></trkpt>
<trkpt lat="25.150846" lon="101.35964">
<time>2014-08-04T18:50:09Z</time></trkpt>
<trkpt lat="25.150766" lon="101.35951">
<time>2014-08-04T18:50:10Z</time></trkpt>
<trkpt lat="25.150766" lon="101.35951">
<time>2014-08-04T18:50:11Z</time></trkpt>
<trkpt lat="25.150767" lon="101.35938">
<time>2014-08-04T18:50:12Z</time></trkpt>
<trkpt lat="25.150847" lon="101.359261">
<time>2014-08-04T18:50:13Z</time></trkpt>
<trkpt lat="25.150867" lon="101.359131">
<time>2014-08-04T18:50:14Z</time></trkpt>
<trkpt lat="25.150817" lon="101.358901">
<time>2014-08-04T18:50:15Z</time></trkpt>
<trkpt lat="25.150778" lon="101.358372">
<time>2014-08-04T18:50:16Z</time></trkpt>
<trkpt lat="25.150769" lon="101.357823">
<time>2014-08-04T18:50:17Z</time></trkpt>
<trkpt lat="25.15074" lon="101.357344">
<time>2014-08-04T18:50:18Z</time></trkpt>
<trkpt lat="25.15079" lon="101.357125">
<time>2014-08-04T18:50:19Z</time></trkpt>
<trkpt lat="25.15087" lon="101.356875">
<time>2014-08-04T18:50:20Z</time></trkpt>
<trkpt lat="25.150901" lon="101.356606">
<time>2014-08-04T18:50:21Z</time></trkpt>
<trkpt lat="25.151082" lon="101.355987">
<time>2014-08-04T18:50:22Z</time></trkpt>
<trkpt lat="25.151182" lon="101.355907">
<time>2014-08-04T18:50:23Z</time></trkpt>
<trkpt lat="25.151222" lon="101.355907">
<time>2014-08-04T18:50:24Z</time></trkpt>
<trkpt lat="25.151222" lon="101.355907">
<time>2014-08-04T18:50:25Z</time></trkpt>
<trkpt lat="25.151212" lon="101.355897">
<time>2014-08-04T18:50:26Z</time></trkpt>
<trkpt lat="25.151162" lon="101.355867">
<time>2014-08-04T18:50:27Z</time></trkpt>
<trkpt lat="25.151052" lon="101.355728">
<time>2014-08-04T18:50:28Z</time></trkpt>
<trkpt lat="25.150992" lon="101.355578">
<time>2014-08-04T18:50:29Z</time></trkpt>
<trkpt lat="25.150992" lon="101.355568">
<time>2014-08-04T18:50:30Z</time></trkpt>
<trkpt lat="25.151023" lon="101.355239">
<time>2014-08-04T18:50:31Z</time></trkpt>
<trkpt lat="25.151084" lon="101.354799">
<time>2014-08-04T18:50:32Z</time></trkpt>
<trkpt lat="25.151134" lon="101.35445">
<time>2014-08-04T18:50:33Z</time></trkpt>
<trkpt lat="25.151134" lon="101.35429">
<time>2014-08-04T18:50:34Z</time></trkpt>
<trkpt lat="25.151085" lon="101.354101">
<time>2014-08-04T18:50:35Z</time></trkpt>
<trkpt lat="25.151115" lon="101.353961">
<time>2014-08-04T18:50:36Z</time></trkpt>
<trkpt lat="25.151215" lon="101.353712">
<time>2014-08-04T18:50:37Z</time></trkpt>
<trkpt lat="25.151376" lon="101.353303">
<time>2014-08-04T18:50:38Z</time></trkpt>
<trkpt lat="25.151667" lon="101.352654">
<time>2014-08-04T18:50:39Z</time></trkpt>
<trkpt lat="25.152038" lon="101.351856">
<time>2014-08-04T18:50:40Z</time></trkpt>
<trkpt lat="25.152149" lon="101.351606">
<time>2014-08-04T18:50:41Z</time></trkpt>
<trkpt lat="25.152179" lon="101.351337">
<time>2014-08-04T18:50:42Z</time></trkpt>
<trkpt lat="25.152169" lon="101.351237">
<time>2014-08-04T18:50:43Z</time></trkpt>
<trkpt lat="25.15216" lon="101.351107">
<time>2014-08-04T18:50:44Z</time></trkpt>
<trkpt lat="25.15214" lon="101.350997">
<time>2014-08-04T18:50:45Z</time></trkpt>
<trkpt lat="25.15217" lon="101.350898">
<time>2014-08-04T18:50:46Z</time></trkpt>
<trkpt lat="25.152501" lon="101.350139">
<time>2014-08-04T18:50:47Z</time></trkpt>
<trkpt lat="25.152812" lon="101.349411">
<time>2014-08-04T18:50:48Z</time></trkpt>
<trkpt lat="25.152963" lon="101.349052">
<time>2014-08-04T18:50:49Z</time></trkpt>
<trkpt lat="25.153053" lon="101.348822">
<time>2014-08-04T18:50:50Z</time></trkpt>
<trkpt lat="25.153064" lon="101.348712">
<time>2014-08-04T18:50:51Z</time></trkpt>
<trkpt lat="25.153114" lon="101.348443">
<time>2014-08-04T18:50:52Z</time></trkpt>
<trkpt lat="25.153154" lon="101.348343">
<time>2014-08-04T18:50:53Z</time></trkpt>
<trkpt lat="25.153195" lon="101.348034">
<time>2014-08-04T18:50:54Z</time></trkpt>
<trkpt lat="25.153215" lon="101.347934">
<time>2014-08-04T18:50:55Z</time></trkpt>
<trkpt lat="25.153245" lon="101.347884">
<time>2014-08-04T18:50:56Z</time></trkpt>
<trkpt lat="25.153305" lon="101.347854">
<time>2014-08-04T18:50:57Z</time></trkpt>
<trkpt lat="25.153355" lon="101.347824">
<time>2014-08-04T18:50:58Z</time></trkpt>
<trkpt lat="25.153375" lon="101.347774">
<time>2014-08-04T18:50:59Z</time></trkpt>
<trkpt lat="25.153365" lon="101.347665">
<time>2014-08-04T18:51:00Z</time></trkpt>
<trkpt lat="25.153346" lon="101.347395">
<time>2014-08-04T18:51:01Z</time></trkpt>
<trkpt lat="25.153326" lon="101.347265">
<time>2014-08-04T18:51:02Z</time></trkpt>
<trkpt lat="25.153286" lon="101.347146">
<time>2014-08-04T18:51:03Z</time></trkpt>
<trkpt lat="25.153256" lon="101.347036">
<time>2014-08-04T18:51:04Z</time></trkpt>
<trkpt lat="25.153207" lon="101.346896">
<time>2014-08-04T18:51:05Z</time></trkpt>
<trkpt lat="25.153207" lon="101.346747">
<time>2014-08-04T18:51:06Z</time></trkpt>
<trkpt lat="25.153247" lon="101.346507">
<time>2014-08-04T18:51:07Z</time></trkpt>
<trkpt lat="25.153288" lon="101.346367">
<time>2014-08-04T18:51:08Z</time></trkpt>
<trkpt lat="25.153488" lon="101.345978">
<time>2014-08-04T18:51:09Z</time></trkpt>
<trkpt lat="25.153619" lon="101.345799">
<time>2014-08-04T18:51:10Z</time></trkpt>
<trkpt lat="25.153739" lon="101.345669">
<time>2014-08-04T18:51:11Z</time></trkpt>
<trkpt lat="25.153839" lon="101.345599">
<time>2014-08-04T18:51:12Z</time></trkpt>
<trkpt lat="25.153959" lon="101.345469">
<time>2014-08-04T18:51:13Z</time></trkpt>
<trkpt lat="25.154029" lon="101.34534">
<time>2014-08-04T18:51:14Z</time></trkpt>
<trkpt lat="25.15415" lon="101.34514">
<time>2014-08-04T18:51:15Z</time></trkpt>
<trkpt lat="25.15422" lon="101.344971">
<time>2014-08-04T18:51:16Z</time></trkpt>
<trkpt lat="25.15426" lon="101.344771">
<time>2014-08-04T18:51:17Z</time></trkpt>
<trkpt lat="25.154301" lon="101.344571">
<time>2014-08-04T18:51:18Z</time></trkpt>
<trkpt lat="25.154371" lon="101.344372">
<time>2014-08-04T18:51:19Z</time></trkpt>
<trkpt lat="25.154441" lon="101.344262">
<time>2014-08-04T18:51:20Z</time></trkpt>
<trkpt lat="25.154572" lon="101.344113">
<time>2014-08-04T18:51:21Z</time></trkpt>
<trkpt lat="25.154712" lon="101.343953">
<time>2014-08-04T18:51:22Z</time></trkpt>
<trkpt lat="25.154872" lon="101.343843">
<time>2014-08-04T18:51:23Z</time></trkpt>
<trkpt lat="25.154982" lon="101.343743">
<time>2014-08-04T18:51:24Z</time></trkpt>
<trkpt lat="25.155313" lon="101.343254">
<time>2014-08-04T18:51:25Z</time></trkpt>
<trkpt lat="25.155494" lon="101.343005">
<time>2014-08-04T18:51:26Z</time></trkpt>
<trkpt lat="25.155594" lon="101.342895">
<time>2014-08-04T18:51:27Z</time></trkpt>
<trkpt lat="25.155704" lon="101.342815">
<time>2014-08-04T18:51:28Z</time></trkpt>
<trkpt lat="25.155944" lon="101.342586">
<time>2014-08-04T18:51:29Z</time></trkpt>
<trkpt lat="25.156345" lon="101.342217">
<time>2014-08-04T18:51:30Z</time></trkpt>
<trkpt lat="25.156535" lon="101.341987">
<time>2014-08-04T18:51:31Z</time></trkpt>
<trkpt lat="25.156586" lon="101.341838">
<time>2014-08-04T18:51:32Z</time></trkpt>
<trkpt lat="25.156596" lon="101.341558">
<time>2014-08-04T18:51:33Z</time></trkpt>
<trkpt lat="25.156637" lon="101.341279">
<time>2014-08-04T18:51:34Z</time></trkpt>
<trkpt lat="25.156637" lon="101.341279">
<time>2014-08-04T18:51:35Z</time></trkpt>
<trkpt lat="25.156627" lon="101.341189">
<time>2014-08-04T18:51:36Z</time></trkpt>
<trkpt lat="25.156547" lon="101.341059">
<time>2014-08-04T18:51:37Z</time></trkpt>
<trkpt lat="25.156417" lon="101.34094">
<time>2014-08-04T18:51:38Z</time></trkpt>
<trkpt lat="25.156397" lon="101.34093">
<time>2014-08-04T18:51:39Z</time></trkpt>
<trkpt lat="25.156267" lon="101.34089">
<time>2014-08-04T18:51:40Z</time></trkpt>
<trkpt lat="25.156107" lon="101.3409">
<time>2014-08-04T18:51:41Z</time></trkpt>
<trkpt lat="25.155777" lon="101.34086">
<time>2014-08-04T18:51:42Z</time></trkpt>
<trkpt lat="25.155628" lon="101.34076">
<time>2014-08-04T18:51:43Z</time></trkpt>
<trkpt lat="25.155508" lon="101.34064">
<time>2014-08-04T18:51:44Z</time></trkpt>
<trkpt lat="25.155478" lon="101.340471">
<time>2014-08-04T18:51:45Z</time></trkpt>
<trkpt lat="25.155488" lon="101.340291">
<time>2014-08-04T18:51:46Z</time></trkpt>
<trkpt lat="25.155519" lon="101.340132">
<time>2014-08-04T18:51:47Z</time></trkpt>
<trkpt lat="25.15571" lon="101.339643">
<time>2014-08-04T18:51:48Z</time></trkpt>
<trkpt lat="25.15585" lon="101.339334">
<time>2014-08-04T18:51:49Z</time></trkpt>
<trkpt lat="25.15596" lon="101.339214">
<time>2014-08-04T18:51:50Z</time></trkpt>
<trkpt lat="25.156121" lon="101.339144">
<time>2014-08-04T18:51:51Z</time></trkpt>
<trkpt lat="25.15628" lon="101.339174">
<time>2014-08-04T18:51:52Z</time></trkpt>
<trkpt lat="25.15644" lon="101.339234">
<time>2014-08-04T18:51:53Z</time></trkpt>
<trkpt lat="25.15676" lon="101.339284">
<time>2014-08-04T18:51:54Z</time></trkpt>
<trkpt lat="25.15691" lon="101.339343">
<time>2014-08-04T18:51:55Z</time></trkpt>
<trkpt lat="25.15704" lon="101.339443">
<time>2014-08-04T18:51:56Z</time></trkpt>
<trkpt lat="25.157439" lon="101.339733">
<time>2014-08-04T18:51:57Z</time></trkpt>
<trkpt lat="25.157519" lon="101.339762">
<time>2014-08-04T18:51:58Z</time></trkpt>
<trkpt lat="25.157579" lon="101.339752">
<time>2014-08-04T18:51:59Z</time></trkpt>
<trkpt lat="25.157609" lon="101.339742">
<time>2014-08-04T18:52:00Z</time></trkpt>
<trkpt lat="25.15765" lon="101.339663">
<time>2014-08-04T18:52:01Z</time></trkpt>
<trkpt lat="25.15766" lon="101.339593">
<time>2014-08-04T18:52:02Z</time></trkpt>
<trkpt lat="25.15762" lon="101.339463">
<time>2014-08-04T18:52:03Z</time></trkpt>
<trkpt lat="25.15754" lon="101.339343">
<time>2014-08-04T18:52:04Z</time></trkpt>
<trkpt lat="25.15741" lon="101.339154">
<time>2014-08-04T18:52:05Z</time></trkpt>
<trkpt lat="25.157391" lon="101.338974">
<time>2014-08-04T18:52:06Z</time></trkpt>
<trkpt lat="25.157401" lon="101.338924">
<time>2014-08-04T18:52:07Z</time></trkpt>
<trkpt lat="25.157411" lon="101.338875">
<time>2014-08-04T18:52:08Z</time></trkpt>
<trkpt lat="25.157451" lon="101.338745">
<time>2014-08-04T18:52:09Z</time></trkpt>
<trkpt lat="25.157451" lon="101.338745">
<time>2014-08-04T18:52:10Z</time></trkpt>
<trkpt lat="25.157541" lon="101.338705">
<time>2014-08-04T18:52:11Z</time></trkpt>
<trkpt lat="25.157621" lon="101.338665">
<time>2014-08-04T18:52:12Z</time></trkpt>
<trkpt lat="25.157772" lon="101.338575">
<time>2014-08-04T18:52:13Z</time></trkpt>
<trkpt lat="25.158112" lon="101.338336">
<time>2014-08-04T18:52:14Z</time></trkpt>
<trkpt lat="25.158442" lon="101.338076">
<time>2014-08-04T18:52:15Z</time></trkpt>
<trkpt lat="25.158793" lon="101.337847">
<time>2014-08-04T18:52:16Z</time></trkpt>
<trkpt lat="25.159013" lon="101.337737">
<time>2014-08-04T18:52:17Z</time></trkpt>
<trkpt lat="25.159203" lon="101.337657">
<time>2014-08-04T18:52:18Z</time></trkpt>
<trkpt lat="25.159363" lon="101.337617">
<time>2014-08-04T18:52:19Z</time></trkpt>
<trkpt lat="25.159583" lon="101.337587">
<time>2014-08-04T18:52:20Z</time></trkpt>
<trkpt lat="25.159963" lon="101.337558">
<time>2014-08-04T18:52:21Z</time></trkpt>
<trkpt lat="25.160173" lon="101.337558">
<time>2014-08-04T18:52:22Z</time></trkpt>
<trkpt lat="25.160513" lon="101.337568">
<time>2014-08-04T18:52:23Z</time></trkpt>
<trkpt lat="25.160713" lon="101.337597">
<time>2014-08-04T18:52:24Z</time></trkpt>
<trkpt lat="25.160933" lon="101.337637">
<time>2014-08-04T18:52:25Z</time></trkpt>
<trkpt lat="25.161113" lon="101.337697">
<time>2014-08-04T18:52:26Z</time></trkpt>
<trkpt lat="25.161633" lon="101.337877">
<time>2014-08-04T18:52:27Z</time></trkpt>
<trkpt lat="25.162232" lon="101.338166">
<time>2014-08-04T18:52:28Z</time></trkpt>
<trkpt lat="25.162812" lon="101.338435">
<time>2014-08-04T18:52:29Z</time></trkpt>
<trkpt lat="25.163221" lon="101.338605">
<time>2014-08-04T18:52:30Z</time></trkpt>
<trkpt lat="25.163421" lon="101.338675">
<time>2014-08-04T18:52:31Z</time></trkpt>
<trkpt lat="25.163621" lon="101.338715">
<time>2014-08-04T18:52:32Z</time></trkpt>
<trkpt lat="25.163801" lon="101.338745">
<time>2014-08-04T18:52:33Z</time></trkpt>
<trkpt lat="25.163941" lon="101.338745">
<time>2014-08-04T18:52:34Z</time></trkpt>
<trkpt lat="25.164081" lon="101.338745">
<time>2014-08-04T18:52:35Z</time></trkpt>
<trkpt lat="25.164201" lon="101.338735">
<time>2014-08-04T18:52:36Z</time></trkpt>
<trkpt lat="25.164291" lon="101.338715">
<time>2014-08-04T18:52:37Z</time></trkpt>
<trkpt lat="25.164391" lon="101.338685">
<time>2014-08-04T18:52:38Z</time></trkpt>
<trkpt lat="25.164451" lon="101.338655">
<time>2014-08-04T18:52:39Z</time></trkpt>
<trkpt lat="25.164511" lon="101.338615">
<time>2014-08-04T18:52:40Z</time></trkpt>
<trkpt lat="25.164571" lon="101.338565">
<time>2014-08-04T18:52:41Z</time></trkpt>
<trkpt lat="25.164621" lon="101.338485">
<time>2014-08-04T18:52:42Z</time></trkpt>
<trkpt lat="25.164672" lon="101.338375">
<time>2014-08-04T18:52:43Z</time></trkpt>
<trkpt lat="25.164742" lon="101.338216">
<time>2014-08-04T18:52:44Z</time></trkpt>
<trkpt lat="25.164832" lon="101.338006">
<time>2014-08-04T18:52:45Z</time></trkpt>
<trkpt lat="25.165264" lon="101.336999">
<time>2014-08-04T18:52:46Z</time></trkpt>
<trkpt lat="25.165716" lon="101.335752">
<time>2014-08-04T18:52:47Z</time></trkpt>
<trkpt lat="25.166048" lon="101.334904">
<time>2014-08-04T18:52:48Z</time></trkpt>
<trkpt lat="25.166169" lon="101.334594">
<time>2014-08-04T18:52:49Z</time></trkpt>
<trkpt lat="25.166681" lon="101.333527">
<time>2014-08-04T18:52:50Z</time></trkpt>
<trkpt lat="25.167404" lon="101.331751">
<time>2014-08-04T18:52:51Z</time></trkpt>
<trkpt lat="25.167575" lon="101.331352">
<time>2014-08-04T18:52:52Z</time></trkpt>
<trkpt lat="25.167655" lon="101.331183">
<time>2014-08-04T18:52:53Z</time></trkpt>
<trkpt lat="25.167745" lon="101.331043">
<time>2014-08-04T18:52:54Z</time></trkpt>
<trkpt lat="25.167855" lon="101.330893">
<time>2014-08-04T18:52:55Z</time></trkpt>
<trkpt lat="25.167926" lon="101.330823">
<time>2014-08-04T18:52:56Z</time></trkpt>
<trkpt lat="25.168076" lon="101.330654">
<time>2014-08-04T18:52:57Z</time></trkpt>
<trkpt lat="25.168286" lon="101.330424">
<time>2014-08-04T18:52:58Z</time></trkpt>
<trkpt lat="25.168477" lon="101.330225">
<time>2014-08-04T18:52:59Z</time></trkpt>
<trkpt lat="25.168868" lon="101.329776">
<time>2014-08-04T18:53:00Z</time></trkpt>
<trkpt lat="25.169399" lon="101.329147">
<time>2014-08-04T18:53:01Z</time></trkpt>
<trkpt lat="25.16999" lon="101.328469">
<time>2014-08-04T18:53:02Z</time></trkpt>
<trkpt lat="25.170872" lon="101.327452">
<time>2014-08-04T18:53:03Z</time></trkpt>
<trkpt lat="25.171193" lon="101.327043">
<time>2014-08-04T18:53:04Z</time></trkpt>
<trkpt lat="25.171273" lon="101.326913">
<time>2014-08-04T18:53:05Z</time></trkpt>
<trkpt lat="25.171333" lon="101.326833">
<time>2014-08-04T18:53:06Z</time></trkpt>
<trkpt lat="25.171403" lon="101.326703">
<time>2014-08-04T18:53:07Z</time></trkpt>
<trkpt lat="25.171423" lon="101.326673">
<time>2014-08-04T18:53:08Z</time></trkpt>
<trkpt lat="25.171474" lon="101.326584">
<time>2014-08-04T18:53:09Z</time></trkpt>
<trkpt lat="25.171514" lon="101.326494">
<time>2014-08-04T18:53:10Z</time></trkpt>
<trkpt lat="25.171554" lon="101.326414">
<time>2014-08-04T18:53:11Z</time></trkpt>
<trkpt lat="25.171644" lon="101.326195">
<time>2014-08-04T18:53:12Z</time></trkpt>
<trkpt lat="25.171745" lon="101.325935">
<time>2014-08-04T18:53:13Z</time></trkpt>
<trkpt lat="25.171866" lon="101.325546">
<time>2014-08-04T18:53:14Z</time></trkpt>
<trkpt lat="25.171936" lon="101.325327">
<time>2014-08-04T18:53:15Z</time></trkpt>
<trkpt lat="25.171976" lon="101.325237">
<time>2014-08-04T18:53:16Z</time></trkpt>
<trkpt lat="25.172006" lon="101.325147">
<time>2014-08-04T18:53:17Z</time></trkpt>
<trkpt lat="25.172097" lon="101.324938">
<time>2014-08-04T18:53:18Z</time></trkpt>
<trkpt lat="25.172187" lon="101.324748">
<time>2014-08-04T18:53:19Z</time></trkpt>
<trkpt lat="25.172277" lon="101.324569">
<time>2014-08-04T18:53:20Z</time></trkpt>
<trkpt lat="25.172297" lon="101.324519">
<time>2014-08-04T18:53:21Z</time></trkpt>
<trkpt lat="25.17283" lon="101.323322">
<time>2014-08-04T18:53:22Z</time></trkpt>
<trkpt lat="25.173543" lon="101.321765">
<time>2014-08-04T18:53:23Z</time></trkpt>
<trkpt lat="25.173693" lon="101.321456">
<time>2014-08-04T18:53:24Z</time></trkpt>
<trkpt lat="25.174888" lon="101.318753">
<time>2014-08-04T18:53:25Z</time></trkpt>
<trkpt lat="25.175511" lon="101.317316">
<time>2014-08-04T18:53:26Z</time></trkpt>
<trkpt lat="25.175772" lon="101.316737">
<time>2014-08-04T18:53:27Z</time></trkpt>
<trkpt lat="25.176224" lon="101.31584">
<time>2014-08-04T18:53:28Z</time></trkpt>
<trkpt lat="25.176535" lon="101.315301">
<time>2014-08-04T18:53:29Z</time></trkpt>
<trkpt lat="25.176635" lon="101.315131">
<time>2014-08-04T18:53:30Z</time></trkpt>
<trkpt lat="25.176675" lon="101.315071">
<time>2014-08-04T18:53:31Z</time></trkpt>
<trkpt lat="25.176695" lon="101.315041">
<time>2014-08-04T18:53:32Z</time></trkpt>
<trkpt lat="25.176715" lon="101.315011">
<time>2014-08-04T18:53:33Z</time></trkpt>
<trkpt lat="25.176735" lon="101.314982">
<time>2014-08-04T18:53:34Z</time></trkpt>
<trkpt lat="25.176755" lon="101.314972">
<time>2014-08-04T18:53:35Z</time></trkpt>
<trkpt lat="25.176775" lon="101.314952">
<time>2014-08-04T18:53:36Z</time></trkpt>
<trkpt lat="25.176795" lon="101.314932">
<time>2014-08-04T18:53:37Z</time></trkpt>
<trkpt lat="25.176825" lon="101.314922">
<time>2014-08-04T18:53:38Z</time></trkpt>
<trkpt lat="25.176876" lon="101.314892">
<time>2014-08-04T18:53:39Z</time></trkpt>
<trkpt lat="25.176916" lon="101.314872">
<time>2014-08-04T18:53:40Z</time></trkpt>
<trkpt lat="25.176986" lon="101.314842">
<time>2014-08-04T18:53:41Z</time></trkpt>
<trkpt lat="25.177076" lon="101.314812">
<time>2014-08-04T18:53:42Z</time></trkpt>
<trkpt lat="25.177116" lon="101.314802">
<time>2014-08-04T18:53:43Z</time></trkpt>
<trkpt lat="25.177176" lon="101.314782">
<time>2014-08-04T18:53:44Z</time></trkpt>
<trkpt lat="25.178306" lon="101.314443">
<time>2014-08-04T18:53:45Z</time></trkpt>
<trkpt lat="25.179657" lon="101.314024">
<time>2014-08-04T18:53:46Z</time></trkpt>
<trkpt lat="25.179757" lon="101.313984">
<time>2014-08-04T18:53:47Z</time></trkpt>
<trkpt lat="25.179857" lon="101.313944">
<time>2014-08-04T18:53:48Z</time></trkpt>
<trkpt lat="25.179947" lon="101.313884">
<time>2014-08-04T18:53:49Z</time></trkpt>
<trkpt lat="25.180037" lon="101.313804">
<time>2014-08-04T18:53:50Z</time></trkpt>
<trkpt lat="25.180138" lon="101.313714">
<time>2014-08-04T18:53:51Z</time></trkpt>
<trkpt lat="25.180228" lon="101.313595">
<time>2014-08-04T18:53:52Z</time></trkpt>
<trkpt lat="25.180308" lon="101.313465">
<time>2014-08-04T18:53:53Z</time></trkpt>
<trkpt lat="25.180378" lon="101.313345">
<time>2014-08-04T18:53:54Z</time></trkpt>
<trkpt lat="25.180428" lon="101.313236">
<time>2014-08-04T18:53:55Z</time></trkpt>
<trkpt lat="25.180509" lon="101.313046">
<time>2014-08-04T18:53:56Z</time></trkpt>
<trkpt lat="25.180569" lon="101.312886">
<time>2014-08-04T18:53:57Z</time></trkpt>
<trkpt lat="25.180599" lon="101.312767">
<time>2014-08-04T18:53:58Z</time></trkpt>
<trkpt lat="25.18061" lon="101.312647">
<time>2014-08-04T18:53:59Z</time></trkpt>
<trkpt lat="25.18062" lon="101.312577">
<time>2014-08-04T18:54:00Z</time></trkpt>
<trkpt lat="25.18062" lon="101.312497">
<time>2014-08-04T18:54:01Z</time></trkpt>
<trkpt lat="25.18062" lon="101.312437">
<time>2014-08-04T18:54:02Z</time></trkpt>
<trkpt lat="25.18061" lon="101.312388">
<time>2014-08-04T18:54:03Z</time></trkpt>
<trkpt lat="25.1806" lon="101.312328">
<time>2014-08-04T18:54:04Z</time></trkpt>
<trkpt lat="25.18059" lon="101.312278">
<time>2014-08-04T18:54:05Z</time></trkpt>
<trkpt lat="25.18057" lon="101.312218">
<time>2014-08-04T18:54:06Z</time></trkpt>
<trkpt lat="25.18054" lon="101.312148">
<time>2014-08-04T18:54:07Z</time></trkpt>
<trkpt lat="25.180511" lon="101.312078">
<time>2014-08-04T18:54:08Z</time></trkpt>
<trkpt lat="25.180461" lon="101.311999">
<time>2014-08-04T18:54:09Z</time></trkpt>
<trkpt lat="25.180411" lon="101.311919">
<time>2014-08-04T18:54:10Z</time></trkpt>
<trkpt lat="25.180131" lon="101.311589">
<time>2014-08-04T18:54:11Z</time></trkpt>
<trkpt lat="25.180042" lon="101.31147">
<time>2014-08-04T18:54:12Z</time></trkpt>
<trkpt lat="25.179972" lon="101.31138">
<time>2014-08-04T18:54:13Z</time></trkpt>
<trkpt lat="25.179942" lon="101.31131">
<time>2014-08-04T18:54:14Z</time></trkpt>
<trkpt lat="25.179912" lon="101.31124">
<time>2014-08-04T18:54:15Z</time></trkpt>
<trkpt lat="25.179892" lon="101.31119">
<time>2014-08-04T18:54:16Z</time></trkpt>
<trkpt lat="25.179882" lon="101.311151">
<time>2014-08-04T18:54:17Z</time></trkpt>
<trkpt lat="25.179872" lon="101.311091">
<time>2014-08-04T18:54:18Z</time></trkpt>
<trkpt lat="25.179863" lon="101.311031">
<time>2014-08-04T18:54:19Z</time></trkpt>
<trkpt lat="25.179853" lon="101.310971">
<time>2014-08-04T18:54:20Z</time></trkpt>
<trkpt lat="25.179853" lon="101.310911">
<time>2014-08-04T18:54:21Z</time></trkpt>
<trkpt lat="25.179863" lon="101.310851">
<time>2014-08-04T18:54:22Z</time></trkpt>
<trkpt lat="25.179873" lon="101.310791">
<time>2014-08-04T18:54:23Z</time></trkpt>
<trkpt lat="25.179893" lon="101.310732">
<time>2014-08-04T18:54:24Z</time></trkpt>
<trkpt lat="25.179923" lon="101.310652">
<time>2014-08-04T18:54:25Z</time></trkpt>
<trkpt lat="25.179963" lon="101.310572">
<time>2014-08-04T18:54:26Z</time></trkpt>
<trkpt lat="25.180305" lon="101.309923">
<time>2014-08-04T18:54:27Z</time></trkpt>
<trkpt lat="25.180485" lon="101.309584">
<time>2014-08-04T18:54:28Z</time></trkpt>
<trkpt lat="25.180616" lon="101.309315">
<time>2014-08-04T18:54:29Z</time></trkpt>
<trkpt lat="25.180636" lon="101.309265">
<time>2014-08-04T18:54:30Z</time></trkpt>
<trkpt lat="25.180806" lon="101.308906">
<time>2014-08-04T18:54:31Z</time></trkpt>
<trkpt lat="25.181198" lon="101.307828">
<time>2014-08-04T18:54:32Z</time></trkpt>
<trkpt lat="25.181349" lon="101.307439">
<time>2014-08-04T18:54:33Z</time></trkpt>
<trkpt lat="25.181449" lon="101.30717">
<time>2014-08-04T18:54:34Z</time></trkpt>
<trkpt lat="25.18153" lon="101.30686">
<time>2014-08-04T18:54:35Z</time></trkpt>
<trkpt lat="25.1816" lon="101.306601">
<time>2014-08-04T18:54:36Z</time></trkpt>
<trkpt lat="25.181801" lon="101.306002">
<time>2014-08-04T18:54:37Z</time></trkpt>
<trkpt lat="25.182083" lon="101.305334">
<time>2014-08-04T18:54:38Z</time></trkpt>
<trkpt lat="25.183318" lon="101.30242">
<time>2014-08-04T18:54:39Z</time></trkpt>
<trkpt lat="25.183468" lon="101.302071">
<time>2014-08-04T18:54:40Z</time></trkpt>
<trkpt lat="25.184603" lon="101.299397">
<time>2014-08-04T18:54:41Z</time></trkpt>
<trkpt lat="25.185064" lon="101.298279">
<time>2014-08-04T18:54:42Z</time></trkpt>
<trkpt lat="25.185084" lon="101.298239">
<time>2014-08-04T18:54:43Z</time></trkpt>
<trkpt lat="25.185145" lon="101.29807">
<time>2014-08-04T18:54:44Z</time></trkpt>
<trkpt lat="25.185205" lon="101.29788">
<time>2014-08-04T18:54:45Z</time></trkpt>
<trkpt lat="25.185265" lon="101.297621">
<time>2014-08-04T18:54:46Z</time></trkpt>
<trkpt lat="25.185488" lon="101.296114">
<time>2014-08-04T18:54:47Z</time></trkpt>
<trkpt lat="25.185619" lon="101.295306">
<time>2014-08-04T18:54:48Z</time></trkpt>
<trkpt lat="25.185811" lon="101.294048">
<time>2014-08-04T18:54:49Z</time></trkpt>
<trkpt lat="25.186084" lon="101.292242">
<time>2014-08-04T18:54:50Z</time></trkpt>
<trkpt lat="25.186195" lon="101.291453">
<time>2014-08-04T18:54:51Z</time></trkpt>
<trkpt lat="25.186276" lon="101.290934">
<time>2014-08-04T18:54:52Z</time></trkpt>
<trkpt lat="25.186427" lon="101.289986">
<time>2014-08-04T18:54:53Z</time></trkpt>
<trkpt lat="25.186599" lon="101.288778">
<time>2014-08-04T18:54:54Z</time></trkpt>
<trkpt lat="25.186639" lon="101.288589">
<time>2014-08-04T18:54:55Z</time></trkpt>
<trkpt lat="25.186699" lon="101.288379">
<time>2014-08-04T18:54:56Z</time></trkpt>
<trkpt lat="25.186749" lon="101.28818">
<time>2014-08-04T18:54:57Z</time></trkpt>
<trkpt lat="25.18688" lon="101.28793">
<time>2014-08-04T18:54:58Z</time></trkpt>
<trkpt lat="25.187" lon="101.28773">
<time>2014-08-04T18:54:59Z</time></trkpt>
<trkpt lat="25.187531" lon="101.286942">
<time>2014-08-04T18:55:00Z</time></trkpt>
<trkpt lat="25.188443" lon="101.285604">
<time>2014-08-04T18:55:01Z</time></trkpt>
<trkpt lat="25.188673" lon="101.285225">
<time>2014-08-04T18:55:02Z</time></trkpt>
<trkpt lat="25.188834" lon="101.284935">
<time>2014-08-04T18:55:03Z</time></trkpt>
<trkpt lat="25.188964" lon="101.284706">
<time>2014-08-04T18:55:04Z</time></trkpt>
<trkpt lat="25.189435" lon="101.283827">
<time>2014-08-04T18:55:05Z</time></trkpt>
<trkpt lat="25.189806" lon="101.283149">
<time>2014-08-04T18:55:06Z</time></trkpt>
<trkpt lat="25.190898" lon="101.281182">
<time>2014-08-04T18:55:07Z</time></trkpt>
<trkpt lat="25.191048" lon="101.280922">
<time>2014-08-04T18:55:08Z</time></trkpt>
<trkpt lat="25.191149" lon="101.280603">
<time>2014-08-04T18:55:09Z</time></trkpt>
<trkpt lat="25.191129" lon="101.280583">
<time>2014-08-04T18:55:10Z</time></trkpt>
<trkpt lat="25.191119" lon="101.280573">
<time>2014-08-04T18:55:11Z</time></trkpt>
<trkpt lat="25.191109" lon="101.280553">
<time>2014-08-04T18:55:12Z</time></trkpt>
<trkpt lat="25.191099" lon="101.280523">
<time>2014-08-04T18:55:13Z</time></trkpt>
<trkpt lat="25.191079" lon="101.280483">
<time>2014-08-04T18:55:14Z</time></trkpt>
<trkpt lat="25.191079" lon="101.280453">
<time>2014-08-04T18:55:15Z</time></trkpt>
<trkpt lat="25.191079" lon="101.280433">
<time>2014-08-04T18:55:16Z</time></trkpt>
<trkpt lat="25.191079" lon="101.280403">
<time>2014-08-04T18:55:17Z</time></trkpt>
<trkpt lat="25.191079" lon="101.280373">
<time>2014-08-04T18:55:18Z</time></trkpt>
<trkpt lat="25.191089" lon="101.280343">
<time>2014-08-04T18:55:19Z</time></trkpt>
<trkpt lat="25.191099" lon="101.280313">
<time>2014-08-04T18:55:20Z</time></trkpt>
<trkpt lat="25.191109" lon="101.280283">
<time>2014-08-04T18:55:21Z</time></trkpt>
<trkpt lat="25.191129" lon="101.280263">
<time>2014-08-04T18:55:22Z</time></trkpt>
<trkpt lat="25.191149" lon="101.280243">
<time>2014-08-04T18:55:23Z</time></trkpt>
<trkpt lat="25.191169" lon="101.280223">
<time>2014-08-04T18:55:24Z</time></trkpt>
<trkpt lat="25.191189" lon="101.280204">
<time>2014-08-04T18:55:25Z</time></trkpt>
<trkpt lat="25.191219" lon="101.280194">
<time>2014-08-04T18:55:26Z</time></trkpt>
<trkpt lat="25.191239" lon="101.280184">
<time>2014-08-04T18:55:27Z</time></trkpt>
<trkpt lat="25.19152" lon="101.279924">
<time>2014-08-04T18:55:28Z</time></trkpt>
<trkpt lat="25.19164" lon="101.279764">
<time>2014-08-04T18:55:29Z</time></trkpt>
<trkpt lat="25.19191" lon="101.279265">
<time>2014-08-04T18:55:30Z</time></trkpt>
<trkpt lat="25.192982" lon="101.277328">
<time>2014-08-04T18:55:31Z</time></trkpt>
<trkpt lat="25.193093" lon="101.277168">
<time>2014-08-04T18:55:32Z</time></trkpt>
<trkpt lat="25.193123" lon="101.277128">
<time>2014-08-04T18:55:33Z</time></trkpt>
<trkpt lat="25.193253" lon="101.276969">
<time>2014-08-04T18:55:34Z</time></trkpt>
<trkpt lat="25.193253" lon="101.276969">
<time>2014-08-04T18:55:35Z</time></trkpt>
<trkpt lat="25.192883" lon="101.276629">
<time>2014-08-04T18:55:36Z</time></trkpt>
<trkpt lat="25.192643" lon="101.276409">
<time>2014-08-04T18:55:37Z</time></trkpt>
<trkpt lat="25.192384" lon="101.2762">
<time>2014-08-04T18:55:38Z</time></trkpt>
<trkpt lat="25.192014" lon="101.27593">
<time>2014-08-04T18:55:39Z</time></trkpt>
<trkpt lat="25.192014" lon="101.27593">
<time>2014-08-04T18:55:40Z</time></trkpt>
<trkpt lat="25.192535" lon="101.275181">
<time>2014-08-04T18:55:41Z</time></trkpt>
<trkpt lat="25.192935" lon="101.274632">
<time>2014-08-04T18:55:42Z</time></trkpt>
<trkpt lat="25.193115" lon="101.274392">
<time>2014-08-04T18:55:43Z</time></trkpt>
<trkpt lat="25.193296" lon="101.274163">
<time>2014-08-04T18:55:44Z</time></trkpt>
<trkpt lat="25.193576" lon="101.273783">
<time>2014-08-04T18:55:45Z</time></trkpt>
<trkpt lat="25.193616" lon="101.273733">
<time>2014-08-04T18:55:46Z</time></trkpt>
<trkpt lat="25.193846" lon="101.273424">
<time>2014-08-04T18:55:47Z</time></trkpt>
<trkpt lat="25.193996" lon="101.273224">
<time>2014-08-04T18:55:48Z</time></trkpt>
<trkpt lat="25.194177" lon="101.272984">
<time>2014-08-04T18:55:49Z</time></trkpt>
<trkpt lat="25.194357" lon="101.272775">
<time>2014-08-04T18:55:50Z</time></trkpt>
<trkpt lat="25.194857" lon="101.272235">
<time>2014-08-04T18:55:51Z</time></trkpt>
<trkpt lat="25.194937" lon="101.272145">
<time>2014-08-04T18:55:52Z</time></trkpt>
<trkpt lat="25.195067" lon="101.271996">
<time>2014-08-04T18:55:53Z</time></trkpt>
<trkpt lat="25.195168" lon="101.271866">
<time>2014-08-04T18:55:54Z</time></trkpt>
<trkpt lat="25.195328" lon="101.271666">
<time>2014-08-04T18:55:55Z</time></trkpt>
<trkpt lat="25.196008" lon="101.270807">
<time>2014-08-04T18:55:56Z</time></trkpt>
<trkpt lat="25.196279" lon="101.270488">
<time>2014-08-04T18:55:57Z</time></trkpt>
<trkpt lat="25.196449" lon="101.270268">
<time>2014-08-04T18:55:58Z</time></trkpt>
<trkpt lat="25.196669" lon="101.269968">
<time>2014-08-04T18:55:59Z</time></trkpt>
<trkpt lat="25.196809" lon="101.269759">
<time>2014-08-04T18:56:00Z</time></trkpt>
<trkpt lat="25.196939" lon="101.269519">
<time>2014-08-04T18:56:01Z</time></trkpt>
<trkpt lat="25.19702" lon="101.269349">
<time>2014-08-04T18:56:02Z</time></trkpt>
<trkpt lat="25.19732" lon="101.26863">
<time>2014-08-04T18:56:03Z</time></trkpt>
<trkpt lat="25.19754" lon="101.26818">
<time>2014-08-04T18:56:04Z</time></trkpt>
<trkpt lat="25.198322" lon="101.266193">
<time>2014-08-04T18:56:05Z</time></trkpt>
<trkpt lat="25.198452" lon="101.266003">
<time>2014-08-04T18:56:06Z</time></trkpt>
<trkpt lat="25.199052" lon="101.265474">
<time>2014-08-04T18:56:07Z</time></trkpt>
<trkpt lat="25.199242" lon="101.265244">
<time>2014-08-04T18:56:08Z</time></trkpt>
<trkpt lat="25.199893" lon="101.264145">
<time>2014-08-04T18:56:09Z</time></trkpt>
<trkpt lat="25.200424" lon="101.263016">
<time>2014-08-04T18:56:10Z</time></trkpt>
<trkpt lat="25.200774" lon="101.262537">
<time>2014-08-04T18:56:11Z</time></trkpt>
<trkpt lat="25.201094" lon="101.262217">
<time>2014-08-04T18:56:12Z</time></trkpt>
<trkpt lat="25.201494" lon="101.262107">
<time>2014-08-04T18:56:13Z</time></trkpt>
<trkpt lat="25.202004" lon="101.262097">
<time>2014-08-04T18:56:14Z</time></trkpt>
<trkpt lat="25.202404" lon="101.262057">
<time>2014-08-04T18:56:15Z</time></trkpt>
<trkpt lat="25.202864" lon="101.261887">
<time>2014-08-04T18:56:16Z</time></trkpt>
<trkpt lat="25.203184" lon="101.261687">
<time>2014-08-04T18:56:17Z</time></trkpt>
<trkpt lat="25.203465" lon="101.261388">
<time>2014-08-04T18:56:18Z</time></trkpt>
<trkpt lat="25.203815" lon="101.260658">
<time>2014-08-04T18:56:19Z</time></trkpt>
<trkpt lat="25.204115" lon="101.260269">
<time>2014-08-04T18:56:20Z</time></trkpt>
<trkpt lat="25.204235" lon="101.260039">
<time>2014-08-04T18:56:21Z</time></trkpt>
<trkpt lat="25.204385" lon="101.259629">
<time>2014-08-04T18:56:22Z</time></trkpt>
<trkpt lat="25.204455" lon="101.25926">
<time>2014-08-04T18:56:23Z</time></trkpt>
<trkpt lat="25.204526" lon="101.25875">
<time>2014-08-04T18:56:24Z</time></trkpt>
<trkpt lat="25.204756" lon="101.25822">
<time>2014-08-04T18:56:25Z</time></trkpt>
<trkpt lat="25.205406" lon="101.257291">
<time>2014-08-04T18:56:26Z</time></trkpt>
<trkpt lat="25.205416" lon="101.257291">
<time>2014-08-04T18:56:27Z</time></trkpt>
<trkpt lat="25.205436" lon="101.257261">
<time>2014-08-04T18:56:28Z</time></trkpt>
<trkpt lat="25.205606" lon="101.257131">
<time>2014-08-04T18:56:29Z</time></trkpt>
<trkpt lat="25.205726" lon="101.257051">
<time>2014-08-04T18:56:30Z</time></trkpt>
<trkpt lat="25.207027" lon="101.256062">
<time>2014-08-04T18:56:31Z</time></trkpt>
<trkpt lat="25.207837" lon="101.255303">
<time>2014-08-04T18:56:32Z</time></trkpt>
<trkpt lat="25.208027" lon="101.255073">
<time>2014-08-04T18:56:33Z</time></trkpt>
<trkpt lat="25.208277" lon="101.254593">
<time>2014-08-04T18:56:34Z</time></trkpt>
<trkpt lat="25.208507" lon="101.254403">
<time>2014-08-04T18:56:35Z</time></trkpt>
<trkpt lat="25.208657" lon="101.254213">
<time>2014-08-04T18:56:36Z</time></trkpt>
<trkpt lat="25.208817" lon="101.253823">
<time>2014-08-04T18:56:37Z</time></trkpt>
<trkpt lat="25.209787" lon="101.252564">
<time>2014-08-04T18:56:38Z</time></trkpt>
<trkpt lat="25.209987" lon="101.252284">
<time>2014-08-04T18:56:39Z</time></trkpt>
<trkpt lat="25.210007" lon="101.252244">
<time>2014-08-04T18:56:40Z</time></trkpt>
<trkpt lat="25.210107" lon="101.252015">
<time>2014-08-04T18:56:41Z</time></trkpt>
<trkpt lat="25.210348" lon="101.250735">
<time>2014-08-04T18:56:42Z</time></trkpt>
<trkpt lat="25.210418" lon="101.250435">
<time>2014-08-04T18:56:43Z</time></trkpt>
<trkpt lat="25.210708" lon="101.250016">
<time>2014-08-04T18:56:44Z</time></trkpt>
<trkpt lat="25.211038" lon="101.249546">
<time>2014-08-04T18:56:45Z</time></trkpt>
<trkpt lat="25.211198" lon="101.249076">
<time>2014-08-04T18:56:46Z</time></trkpt>
<trkpt lat="25.211398" lon="101.248836">
<time>2014-08-04T18:56:47Z</time></trkpt>
<trkpt lat="25.211418" lon="101.248586">
<time>2014-08-04T18:56:48Z</time></trkpt>
<trkpt lat="25.211318" lon="101.247777">
<time>2014-08-04T18:56:49Z</time></trkpt>
<trkpt lat="25.211408" lon="101.247427">
<time>2014-08-04T18:56:50Z</time></trkpt>
<trkpt lat="25.211408" lon="101.247427">
<time>2014-08-04T18:56:51Z</time></trkpt>
<trkpt lat="25.211378" lon="101.247337">
<time>2014-08-04T18:56:52Z</time></trkpt>
<trkpt lat="25.211348" lon="101.247177">
<time>2014-08-04T18:56:53Z</time></trkpt>
<trkpt lat="25.211328" lon="101.247007">
<time>2014-08-04T18:56:54Z</time></trkpt>
<trkpt lat="25.211328" lon="101.246967">
<time>2014-08-04T18:56:55Z</time></trkpt>
<trkpt lat="25.211258" lon="101.246047">
<time>2014-08-04T18:56:56Z</time></trkpt>
<trkpt lat="25.211228" lon="101.245507">
<time>2014-08-04T18:56:57Z</time></trkpt>
<trkpt lat="25.211237" lon="101.245317">
<time>2014-08-04T18:56:58Z</time></trkpt>
<trkpt lat="25.211287" lon="101.245147">
<time>2014-08-04T18:56:59Z</time></trkpt>
<trkpt lat="25.211377" lon="101.244968">
<time>2014-08-04T18:57:00Z</time></trkpt>
<trkpt lat="25.211607" lon="101.244698">
<time>2014-08-04T18:57:01Z</time></trkpt>
<trkpt lat="25.212197" lon="101.244108">
<time>2014-08-04T18:57:02Z</time></trkpt>
<trkpt lat="25.212277" lon="101.244028">
<time>2014-08-04T18:57:03Z</time></trkpt>
<trkpt lat="25.212317" lon="101.243948">
<time>2014-08-04T18:57:04Z</time></trkpt>
<trkpt lat="25.212367" lon="101.243848">
<time>2014-08-04T18:57:05Z</time></trkpt>
<trkpt lat="25.212387" lon="101.243758">
<time>2014-08-04T18:57:06Z</time></trkpt>
<trkpt lat="25.212397" lon="101.243738">
<time>2014-08-04T18:57:07Z</time></trkpt>
<trkpt lat="25.212417" lon="101.243578">
<time>2014-08-04T18:57:08Z</time></trkpt>
<trkpt lat="25.212427" lon="101.243388">
<time>2014-08-04T18:57:09Z</time></trkpt>
<trkpt lat="25.212447" lon="101.242448">
<time>2014-08-04T18:57:10Z</time></trkpt>
<trkpt lat="25.212496" lon="101.240158">
<time>2014-08-04T18:57:11Z</time></trkpt>
<trkpt lat="25.212506" lon="101.239878">
<time>2014-08-04T18:57:12Z</time></trkpt>
<trkpt lat="25.212506" lon="101.239738">
<time>2014-08-04T18:57:13Z</time></trkpt>
<trkpt lat="25.212496" lon="101.239608">
<time>2014-08-04T18:57:14Z</time></trkpt>
<trkpt lat="25.212466" lon="101.239458">
<time>2014-08-04T18:57:15Z</time></trkpt>
<trkpt lat="25.212426" lon="101.239318">
<time>2014-08-04T18:57:16Z</time></trkpt>
<trkpt lat="25.212326" lon="101.239098">
<time>2014-08-04T18:57:17Z</time></trkpt>
<trkpt lat="25.212246" lon="101.238968">
<time>2014-08-04T18:57:18Z</time></trkpt>
<trkpt lat="25.211696" lon="101.238069">
<time>2014-08-04T18:57:19Z</time></trkpt>
<trkpt lat="25.211596" lon="101.237899">
<time>2014-08-04T18:57:20Z</time></trkpt>
<trkpt lat="25.211526" lon="101.237769">
<time>2014-08-04T18:57:21Z</time></trkpt>
<trkpt lat="25.211165" lon="101.237059">
<time>2014-08-04T18:57:22Z</time></trkpt>
<trkpt lat="25.211125" lon="101.236858">
<time>2014-08-04T18:57:23Z</time></trkpt>
<trkpt lat="25.211045" lon="101.236448">
<time>2014-08-04T18:57:24Z</time></trkpt>
<trkpt lat="25.210945" lon="101.236178">
<time>2014-08-04T18:57:25Z</time></trkpt>
<trkpt lat="25.210785" lon="101.235938">
<time>2014-08-04T18:57:26Z</time></trkpt>
<trkpt lat="25.210485" lon="101.235558">
<time>2014-08-04T18:57:27Z</time></trkpt>
<trkpt lat="25.209484" lon="101.234288">
<time>2014-08-04T18:57:28Z</time></trkpt>
<trkpt lat="25.209384" lon="101.234128">
<time>2014-08-04T18:57:29Z</time></trkpt>
<trkpt lat="25.209284" lon="101.233898">
<time>2014-08-04T18:57:30Z</time></trkpt>
<trkpt lat="25.209174" lon="101.233648">
<time>2014-08-04T18:57:31Z</time></trkpt>
<trkpt lat="25.209114" lon="101.233488">
<time>2014-08-04T18:57:32Z</time></trkpt>
<trkpt lat="25.208783" lon="101.232568">
<time>2014-08-04T18:57:33Z</time></trkpt>
<trkpt lat="25.208643" lon="101.232168">
<time>2014-08-04T18:57:34Z</time></trkpt>
<trkpt lat="25.208613" lon="101.231998">
<time>2014-08-04T18:57:35Z</time></trkpt>
<trkpt lat="25.208583" lon="101.231818">
<time>2014-08-04T18:57:36Z</time></trkpt>
<trkpt lat="25.208502" lon="101.230838">
<time>2014-08-04T18:57:37Z</time></trkpt>
<trkpt lat="25.208472" lon="101.230397">
<time>2014-08-04T18:57:38Z</time></trkpt>
<trkpt lat="25.208452" lon="101.230157">
<time>2014-08-04T18:57:39Z</time></trkpt>
<trkpt lat="25.208461" lon="101.229967">
<time>2014-08-04T18:57:40Z</time></trkpt>
<trkpt lat="25.208551" lon="101.229477">
<time>2014-08-04T18:57:41Z</time></trkpt>
<trkpt lat="25.208581" lon="101.229267">
<time>2014-08-04T18:57:42Z</time></trkpt>
<trkpt lat="25.209507" lon="101.224755">
<time>2014-08-04T18:57:43Z</time></trkpt>
<trkpt lat="25.209846" lon="101.222984">
<time>2014-08-04T18:57:44Z</time></trkpt>
<trkpt lat="25.209925" lon="101.222564">
<time>2014-08-04T18:57:45Z</time></trkpt>
<trkpt lat="25.210005" lon="101.222294">
<time>2014-08-04T18:57:46Z</time></trkpt>
<trkpt lat="25.210105" lon="101.222054">
<time>2014-08-04T18:57:47Z</time></trkpt>
<trkpt lat="25.210255" lon="101.221814">
<time>2014-08-04T18:57:48Z</time></trkpt>
<trkpt lat="25.210484" lon="101.221483">
<time>2014-08-04T18:57:49Z</time></trkpt>
<trkpt lat="25.211363" lon="101.220182">
<time>2014-08-04T18:57:50Z</time></trkpt>
<trkpt lat="25.211533" lon="101.219912">
<time>2014-08-04T18:57:51Z</time></trkpt>
<trkpt lat="25.211603" lon="101.219762">
<time>2014-08-04T18:57:52Z</time></trkpt>
<trkpt lat="25.211652" lon="101.219622">
<time>2014-08-04T18:57:53Z</time></trkpt>
<trkpt lat="25.211682" lon="101.219512">
<time>2014-08-04T18:57:54Z</time></trkpt>
<trkpt lat="25.211692" lon="101.219372">
<time>2014-08-04T18:57:55Z</time></trkpt>
<trkpt lat="25.211692" lon="101.219222">
<time>2014-08-04T18:57:56Z</time></trkpt>
<trkpt lat="25.211702" lon="101.218781">
<time>2014-08-04T18:57:57Z</time></trkpt>
<trkpt lat="25.211731" lon="101.217771">
<time>2014-08-04T18:57:58Z</time></trkpt>
<trkpt lat="25.21175" lon="101.217631">
<time>2014-08-04T18:57:59Z</time></trkpt>
<trkpt lat="25.2118" lon="101.217481">
<time>2014-08-04T18:58:00Z</time></trkpt>
<trkpt lat="25.21186" lon="101.21737">
<time>2014-08-04T18:58:01Z</time></trkpt>
<trkpt lat="25.21192" lon="101.21727">
<time>2014-08-04T18:58:02Z</time></trkpt>
<trkpt lat="25.21198" lon="101.21721">
<time>2014-08-04T18:58:03Z</time></trkpt>
<trkpt lat="25.21201" lon="101.21718">
<time>2014-08-04T18:58:04Z</time></trkpt>
<trkpt lat="25.2121" lon="101.21711">
<time>2014-08-04T18:58:05Z</time></trkpt>
<trkpt lat="25.2122" lon="101.21704">
<time>2014-08-04T18:58:06Z</time></trkpt>
<trkpt lat="25.212699" lon="101.21682">
<time>2014-08-04T18:58:07Z</time></trkpt>
<trkpt lat="25.212849" lon="101.21672">
<time>2014-08-04T18:58:08Z</time></trkpt>
<trkpt lat="25.212999" lon="101.21656">
<time>2014-08-04T18:58:09Z</time></trkpt>
<trkpt lat="25.214467" lon="101.214718">
<time>2014-08-04T18:58:10Z</time></trkpt>
<trkpt lat="25.216004" lon="101.212486">
<time>2014-08-04T18:58:11Z</time></trkpt>
<trkpt lat="25.216513" lon="101.211756">
<time>2014-08-04T18:58:12Z</time></trkpt>
<trkpt lat="25.216573" lon="101.211665">
<time>2014-08-04T18:58:13Z</time></trkpt>
<trkpt lat="25.216623" lon="101.211615">
<time>2014-08-04T18:58:14Z</time></trkpt>
<trkpt lat="25.216683" lon="101.211565">
<time>2014-08-04T18:58:15Z</time></trkpt>
<trkpt lat="25.216733" lon="101.211535">
<time>2014-08-04T18:58:16Z</time></trkpt>
<trkpt lat="25.216793" lon="101.211505">
<time>2014-08-04T18:58:17Z</time></trkpt>
<trkpt lat="25.216843" lon="101.211495">
<time>2014-08-04T18:58:18Z</time></trkpt>
<trkpt lat="25.216903" lon="101.211485">
<time>2014-08-04T18:58:19Z</time></trkpt>
<trkpt lat="25.216963" lon="101.211485">
<time>2014-08-04T18:58:20Z</time></trkpt>
<trkpt lat="25.217043" lon="101.211505">
<time>2014-08-04T18:58:21Z</time></trkpt>
<trkpt lat="25.217103" lon="101.211535">
<time>2014-08-04T18:58:22Z</time></trkpt>
<trkpt lat="25.217173" lon="101.211585">
<time>2014-08-04T18:58:23Z</time></trkpt>
<trkpt lat="25.217263" lon="101.211655">
<time>2014-08-04T18:58:24Z</time></trkpt>
<trkpt lat="25.217333" lon="101.211735">
<time>2014-08-04T18:58:25Z</time></trkpt>
<trkpt lat="25.217534" lon="101.212036">
<time>2014-08-04T18:58:26Z</time></trkpt>
<trkpt lat="25.217604" lon="101.212126">
<time>2014-08-04T18:58:27Z</time></trkpt>
<trkpt lat="25.217654" lon="101.212166">
<time>2014-08-04T18:58:28Z</time></trkpt>
<trkpt lat="25.217704" lon="101.212186">
<time>2014-08-04T18:58:29Z</time></trkpt>
<trkpt lat="25.217784" lon="101.212216">
<time>2014-08-04T18:58:30Z</time></trkpt>
<trkpt lat="25.217824" lon="101.212236">
<time>2014-08-04T18:58:31Z</time></trkpt>
<trkpt lat="25.217844" lon="101.212246">
<time>2014-08-04T18:58:32Z</time></trkpt>
<trkpt lat="25.218044" lon="101.212296">
<time>2014-08-04T18:58:33Z</time></trkpt>
<trkpt lat="25.218334" lon="101.212386">
<time>2014-08-04T18:58:34Z</time></trkpt>
<trkpt lat="25.218574" lon="101.212506">
<time>2014-08-04T18:58:35Z</time></trkpt>
<trkpt lat="25.219005" lon="101.212706">
<time>2014-08-04T18:58:36Z</time></trkpt>
<trkpt lat="25.219095" lon="101.212736">
<time>2014-08-04T18:58:37Z</time></trkpt>
<trkpt lat="25.219145" lon="101.212746">
<time>2014-08-04T18:58:38Z</time></trkpt>
<trkpt lat="25.219185" lon="101.212756">
<time>2014-08-04T18:58:39Z</time></trkpt>
<trkpt lat="25.219225" lon="101.212756">
<time>2014-08-04T18:58:40Z</time></trkpt>
<trkpt lat="25.219265" lon="101.212756">
<time>2014-08-04T18:58:41Z</time></trkpt>
<trkpt lat="25.219325" lon="101.212756">
<time>2014-08-04T18:58:42Z</time></trkpt>
<trkpt lat="25.219355" lon="101.212746">
<time>2014-08-04T18:58:43Z</time></trkpt>
<trkpt lat="25.219385" lon="101.212736">
<time>2014-08-04T18:58:44Z</time></trkpt>
<trkpt lat="25.219425" lon="101.212726">
<time>2014-08-04T18:58:45Z</time></trkpt>
<trkpt lat="25.219475" lon="101.212696">
<time>2014-08-04T18:58:46Z</time></trkpt>
<trkpt lat="25.219544" lon="101.212646">
<time>2014-08-04T18:58:47Z</time></trkpt>
<trkpt lat="25.219644" lon="101.212566">
<time>2014-08-04T18:58:48Z</time></trkpt>
<trkpt lat="25.219724" lon="101.212496">
<time>2014-08-04T18:58:49Z</time></trkpt>
<trkpt lat="25.220533" lon="101.211725">
<time>2014-08-04T18:58:50Z</time></trkpt>
<trkpt lat="25.220743" lon="101.211535">
<time>2014-08-04T18:58:51Z</time></trkpt>
<trkpt lat="25.222211" lon="101.210214">
<time>2014-08-04T18:58:52Z</time></trkpt>
<trkpt lat="25.222391" lon="101.210014">
<time>2014-08-04T18:58:53Z</time></trkpt>
<trkpt lat="25.222521" lon="101.209844">
<time>2014-08-04T18:58:54Z</time></trkpt>
<trkpt lat="25.222621" lon="101.209683">
<time>2014-08-04T18:58:55Z</time></trkpt>
<trkpt lat="25.22298" lon="101.209063">
<time>2014-08-04T18:58:56Z</time></trkpt>
<trkpt lat="25.223359" lon="101.208402">
<time>2014-08-04T18:58:57Z</time></trkpt>
<trkpt lat="25.224646" lon="101.20621">
<time>2014-08-04T18:58:58Z</time></trkpt>
<trkpt lat="25.225055" lon="101.205449">
<time>2014-08-04T18:58:59Z</time></trkpt>
<trkpt lat="25.225334" lon="101.204828">
<time>2014-08-04T18:59:00Z</time></trkpt>
<trkpt lat="25.225523" lon="101.204368">
<time>2014-08-04T18:59:01Z</time></trkpt>
<trkpt lat="25.225573" lon="101.204247">
<time>2014-08-04T18:59:02Z</time></trkpt>
<trkpt lat="25.225623" lon="101.204147">
<time>2014-08-04T18:59:03Z</time></trkpt>
<trkpt lat="25.225663" lon="101.204057">
<time>2014-08-04T18:59:04Z</time></trkpt>
<trkpt lat="25.225693" lon="101.203967">
<time>2014-08-04T18:59:05Z</time></trkpt>
<trkpt lat="25.225703" lon="101.203867">
<time>2014-08-04T18:59:06Z</time></trkpt>
<trkpt lat="25.225712" lon="101.203747">
<time>2014-08-04T18:59:07Z</time></trkpt>
<trkpt lat="25.225692" lon="101.203597">
<time>2014-08-04T18:59:08Z</time></trkpt>
<trkpt lat="25.225581" lon="101.203066">
<time>2014-08-04T18:59:09Z</time></trkpt>
<trkpt lat="25.22542" lon="101.202405">
<time>2014-08-04T18:59:10Z</time></trkpt>
<trkpt lat="25.225149" lon="101.201604">
<time>2014-08-04T18:59:11Z</time></trkpt>
<trkpt lat="25.225059" lon="101.201414">
<time>2014-08-04T18:59:12Z</time></trkpt>
<trkpt lat="25.224989" lon="101.201284">
<time>2014-08-04T18:59:13Z</time></trkpt>
<trkpt lat="25.224908" lon="101.201174">
<time>2014-08-04T18:59:14Z</time></trkpt>
<trkpt lat="25.224788" lon="101.201054">
<time>2014-08-04T18:59:15Z</time></trkpt>
<trkpt lat="25.224588" lon="101.200883">
<time>2014-08-04T18:59:16Z</time></trkpt>
<trkpt lat="25.224078" lon="101.200553">
<time>2014-08-04T18:59:17Z</time></trkpt>
<trkpt lat="25.222916" lon="101.199782">
<time>2014-08-04T18:59:18Z</time></trkpt>
<trkpt lat="25.222816" lon="101.199702">
<time>2014-08-04T18:59:19Z</time></trkpt>
<trkpt lat="25.222716" lon="101.199602">
<time>2014-08-04T18:59:20Z</time></trkpt>
<trkpt lat="25.222606" lon="101.199472">
<time>2014-08-04T18:59:21Z</time></trkpt>
<trkpt lat="25.222466" lon="101.199292">
<time>2014-08-04T18:59:22Z</time></trkpt>
<trkpt lat="25.222275" lon="101.199041">
<time>2014-08-04T18:59:23Z</time></trkpt>
<trkpt lat="25.221854" lon="101.1984">
<time>2014-08-04T18:59:24Z</time></trkpt>
<trkpt lat="25.221784" lon="101.19825">
<time>2014-08-04T18:59:25Z</time></trkpt>
<trkpt lat="25.221744" lon="101.19817">
<time>2014-08-04T18:59:26Z</time></trkpt>
<trkpt lat="25.221714" lon="101.19806">
<time>2014-08-04T18:59:27Z</time></trkpt>
<trkpt lat="25.221673" lon="101.19789">
<time>2014-08-04T18:59:28Z</time></trkpt>
<trkpt lat="25.221643" lon="101.19772">
<time>2014-08-04T18:59:29Z</time></trkpt>
<trkpt lat="25.221603" lon="101.197489">
<time>2014-08-04T18:59:30Z</time></trkpt>
<trkpt lat="25.221582" lon="101.197319">
<time>2014-08-04T18:59:31Z</time></trkpt>
<trkpt lat="25.221582" lon="101.197289">
<time>2014-08-04T18:59:32Z</time></trkpt>
<trkpt lat="25.221572" lon="101.197109">
<time>2014-08-04T18:59:33Z</time></trkpt>
<trkpt lat="25.221562" lon="101.196939">
<time>2014-08-04T18:59:34Z</time></trkpt>
<trkpt lat="25.221572" lon="101.196798">
<time>2014-08-04T18:59:35Z</time></trkpt>
<trkpt lat="25.221572" lon="101.196778">
<time>2014-08-04T18:59:36Z</time></trkpt>
<trkpt lat="25.221591" lon="101.196648">
<time>2014-08-04T18:59:37Z</time></trkpt>
<trkpt lat="25.221611" lon="101.196518">
<time>2014-08-04T18:59:38Z</time></trkpt>
<trkpt lat="25.22176" lon="101.195767">
<time>2014-08-04T18:59:39Z</time></trkpt>
<trkpt lat="25.2218" lon="101.195547">
<time>2014-08-04T18:59:40Z</time></trkpt>
<trkpt lat="25.221879" lon="101.195186">
<time>2014-08-04T18:59:41Z</time></trkpt>
<trkpt lat="25.221959" lon="101.194966">
<time>2014-08-04T18:59:42Z</time></trkpt>
<trkpt lat="25.222048" lon="101.194786">
<time>2014-08-04T18:59:43Z</time></trkpt>
<trkpt lat="25.222158" lon="101.194615">
<time>2014-08-04T18:59:44Z</time></trkpt>
<trkpt lat="25.222258" lon="101.194475">
<time>2014-08-04T18:59:45Z</time></trkpt>
<trkpt lat="25.222467" lon="101.194215">
<time>2014-08-04T18:59:46Z</time></trkpt>
<trkpt lat="25.222637" lon="101.194035">
<time>2014-08-04T18:59:47Z</time></trkpt>
<trkpt lat="25.222787" lon="101.193924">
<time>2014-08-04T18:59:48Z</time></trkpt>
<trkpt lat="25.223007" lon="101.193784">
<time>2014-08-04T18:59:49Z</time></trkpt>
<trkpt lat="25.223196" lon="101.193664">
<time>2014-08-04T18:59:50Z</time></trkpt>
<trkpt lat="25.223436" lon="101.193514">
<time>2014-08-04T18:59:51Z</time></trkpt>
<trkpt lat="25.223586" lon="101.193414">
<time>2014-08-04T18:59:52Z</time></trkpt>
<trkpt lat="25.223726" lon="101.193294">
<time>2014-08-04T18:59:53Z</time></trkpt>
<trkpt lat="25.223836" lon="101.193153">
<time>2014-08-04T18:59:54Z</time></trkpt>
<trkpt lat="25.223925" lon="101.193033">
<time>2014-08-04T18:59:55Z</time></trkpt>
<trkpt lat="25.224324" lon="101.192352">
<time>2014-08-04T18:59:56Z</time></trkpt>
<trkpt lat="25.224414" lon="101.192182">
<time>2014-08-04T18:59:57Z</time></trkpt>
<trkpt lat="25.224474" lon="101.192032">
<time>2014-08-04T18:59:58Z</time></trkpt>
<trkpt lat="25.224503" lon="101.191922">
<time>2014-08-04T18:59:59Z</time></trkpt>
<trkpt lat="25.224523" lon="101.191791">
<time>2014-08-04T19:00:00Z</time></trkpt>
<trkpt lat="25.224533" lon="101.191691">
<time>2014-08-04T19:00:01Z</time></trkpt>
<trkpt lat="25.224513" lon="101.191511">
<time>2014-08-04T19:00:02Z</time></trkpt>
<trkpt lat="25.224371" lon="101.19051">
<time>2014-08-04T19:00:03Z</time></trkpt>
<trkpt lat="25.224341" lon="101.190259">
<time>2014-08-04T19:00:04Z</time></trkpt>
<trkpt lat="25.22434" lon="101.190019">
<time>2014-08-04T19:00:05Z</time></trkpt>
<trkpt lat="25.22435" lon="101.189759">
<time>2014-08-04T19:00:06Z</time></trkpt>
<trkpt lat="25.224379" lon="101.189488">
<time>2014-08-04T19:00:07Z</time></trkpt>
<trkpt lat="25.224409" lon="101.189308">
<time>2014-08-04T19:00:08Z</time></trkpt>
<trkpt lat="25.224449" lon="101.189148">
<time>2014-08-04T19:00:09Z</time></trkpt>
<trkpt lat="25.224488" lon="101.189017">
<time>2014-08-04T19:00:10Z</time></trkpt>
<trkpt lat="25.224558" lon="101.188877">
<time>2014-08-04T19:00:11Z</time></trkpt>
<trkpt lat="25.224648" lon="101.188747">
<time>2014-08-04T19:00:12Z</time></trkpt>
<trkpt lat="25.225736" lon="101.187505">
<time>2014-08-04T19:00:13Z</time></trkpt>
<trkpt lat="25.225796" lon="101.187445">
<time>2014-08-04T19:00:14Z</time></trkpt>
<trkpt lat="25.225846" lon="101.187405">
<time>2014-08-04T19:00:15Z</time></trkpt>
<trkpt lat="25.225915" lon="101.187375">
<time>2014-08-04T19:00:16Z</time></trkpt>
<trkpt lat="25.225975" lon="101.187355">
<time>2014-08-04T19:00:17Z</time></trkpt>
<trkpt lat="25.226035" lon="101.187335">
<time>2014-08-04T19:00:18Z</time></trkpt>
<trkpt lat="25.226115" lon="101.187335">
<time>2014-08-04T19:00:19Z</time></trkpt>
<trkpt lat="25.226255" lon="101.187345">
<time>2014-08-04T19:00:20Z</time></trkpt>
<trkpt lat="25.228586" lon="101.187535">
<time>2014-08-04T19:00:21Z</time></trkpt>
<trkpt lat="25.228826" lon="101.187565">
<time>2014-08-04T19:00:22Z</time></trkpt>
<trkpt lat="25.228926" lon="101.187575">
<time>2014-08-04T19:00:23Z</time></trkpt>
<trkpt lat="25.229026" lon="101.187595">
<time>2014-08-04T19:00:24Z</time></trkpt>
<trkpt lat="25.229096" lon="101.187615">
<time>2014-08-04T19:00:25Z</time></trkpt>
<trkpt lat="25.229166" lon="101.187645">
<time>2014-08-04T19:00:26Z</time></trkpt>
<trkpt lat="25.229226" lon="101.187675">
<time>2014-08-04T19:00:27Z</time></trkpt>
<trkpt lat="25.229276" lon="101.187705">
<time>2014-08-04T19:00:28Z</time></trkpt>
<trkpt lat="25.229336" lon="101.187745">
<time>2014-08-04T19:00:29Z</time></trkpt>
<trkpt lat="25.229396" lon="101.187796">
<time>2014-08-04T19:00:30Z</time></trkpt>
<trkpt lat="25.229446" lon="101.187866">
<time>2014-08-04T19:00:31Z</time></trkpt>
<trkpt lat="25.229486" lon="101.187916">
<time>2014-08-04T19:00:32Z</time></trkpt>
<trkpt lat="25.229527" lon="101.187986">
<time>2014-08-04T19:00:33Z</time></trkpt>
<trkpt lat="25.229637" lon="101.188216">
<time>2014-08-04T19:00:34Z</time></trkpt>
<trkpt lat="25.229757" lon="101.188436">
<time>2014-08-04T19:00:35Z</time></trkpt>
<trkpt lat="25.229848" lon="101.188567">
<time>2014-08-04T19:00:36Z</time></trkpt>
<trkpt lat="25.229918" lon="101.188647">
<time>2014-08-04T19:00:37Z</time></trkpt>
<trkpt lat="25.229988" lon="101.188727">
<time>2014-08-04T19:00:38Z</time></trkpt>
<trkpt lat="25.230088" lon="101.188817">
<time>2014-08-04T19:00:39Z</time></trkpt>
<trkpt lat="25.230519" lon="101.189188">
<time>2014-08-04T19:00:40Z</time></trkpt>
<trkpt lat="25.231009" lon="101.189628">
<time>2014-08-04T19:00:41Z</time></trkpt>
<trkpt lat="25.23112" lon="101.189698">
<time>2014-08-04T19:00:42Z</time></trkpt>
<trkpt lat="25.23126" lon="101.189758">
<time>2014-08-04T19:00:43Z</time></trkpt>
<trkpt lat="25.23142" lon="101.189788">
<time>2014-08-04T19:00:44Z</time></trkpt>
<trkpt lat="25.23166" lon="101.189828">
<time>2014-08-04T19:00:45Z</time></trkpt>
<trkpt lat="25.23185" lon="101.189848">
<time>2014-08-04T19:00:46Z</time></trkpt>
<trkpt lat="25.232" lon="101.189848">
<time>2014-08-04T19:00:47Z</time></trkpt>
<trkpt lat="25.23212" lon="101.189828">
<time>2014-08-04T19:00:48Z</time></trkpt>
<trkpt lat="25.23221" lon="101.189788">
<time>2014-08-04T19:00:49Z</time></trkpt>
<trkpt lat="25.23223" lon="101.189778">
<time>2014-08-04T19:00:50Z</time></trkpt>
<trkpt lat="25.2323" lon="101.189698">
<time>2014-08-04T19:00:51Z</time></trkpt>
<trkpt lat="25.232349" lon="101.189598">
<time>2014-08-04T19:00:52Z</time></trkpt>
<trkpt lat="25.232389" lon="101.189488">
<time>2014-08-04T19:00:53Z</time></trkpt>
<trkpt lat="25.232409" lon="101.189388">
<time>2014-08-04T19:00:54Z</time></trkpt>
<trkpt lat="25.232419" lon="101.189278">
<time>2014-08-04T19:00:55Z</time></trkpt>
<trkpt lat="25.232419" lon="101.189157">
<time>2014-08-04T19:00:56Z</time></trkpt>
<trkpt lat="25.232418" lon="101.188957">
<time>2014-08-04T19:00:57Z</time></trkpt>
<trkpt lat="25.232388" lon="101.188757">
<time>2014-08-04T19:00:58Z</time></trkpt>
<trkpt lat="25.232358" lon="101.188587">
<time>2014-08-04T19:00:59Z</time></trkpt>
<trkpt lat="25.232277" lon="101.188256">
<time>2014-08-04T19:01:00Z</time></trkpt>
<trkpt lat="25.232257" lon="101.188136">
<time>2014-08-04T19:01:01Z</time></trkpt>
<trkpt lat="25.232257" lon="101.188036">
<time>2014-08-04T19:01:02Z</time></trkpt>
<trkpt lat="25.232267" lon="101.187936">
<time>2014-08-04T19:01:03Z</time></trkpt>
<trkpt lat="25.232286" lon="101.187815">
<time>2014-08-04T19:01:04Z</time></trkpt>
<trkpt lat="25.232326" lon="101.187715">
<time>2014-08-04T19:01:05Z</time></trkpt>
<trkpt lat="25.232366" lon="101.187635">
<time>2014-08-04T19:01:06Z</time></trkpt>
<trkpt lat="25.232745" lon="101.187144">
<time>2014-08-04T19:01:07Z</time></trkpt>
<trkpt lat="25.232815" lon="101.187004">
<time>2014-08-04T19:01:08Z</time></trkpt>
<trkpt lat="25.232865" lon="101.186864">
<time>2014-08-04T19:01:09Z</time></trkpt>
<trkpt lat="25.232904" lon="101.186714">
<time>2014-08-04T19:01:10Z</time></trkpt>
<trkpt lat="25.233121" lon="101.184731">
<time>2014-08-04T19:01:11Z</time></trkpt>
<trkpt lat="25.233278" lon="101.183329">
<time>2014-08-04T19:01:12Z</time></trkpt>
<trkpt lat="25.233338" lon="101.182978">
<time>2014-08-04T19:01:13Z</time></trkpt>
<trkpt lat="25.233367" lon="101.182858">
<time>2014-08-04T19:01:14Z</time></trkpt>
<trkpt lat="25.233417" lon="101.182738">
<time>2014-08-04T19:01:15Z</time></trkpt>
<trkpt lat="25.233457" lon="101.182618">
<time>2014-08-04T19:01:16Z</time></trkpt>
<trkpt lat="25.233517" lon="101.182507">
<time>2014-08-04T19:01:17Z</time></trkpt>
<trkpt lat="25.233587" lon="101.182387">
<time>2014-08-04T19:01:18Z</time></trkpt>
<trkpt lat="25.233666" lon="101.182277">
<time>2014-08-04T19:01:19Z</time></trkpt>
<trkpt lat="25.234175" lon="101.181536">
<time>2014-08-04T19:01:20Z</time></trkpt>
<trkpt lat="25.234215" lon="101.181476">
<time>2014-08-04T19:01:21Z</time></trkpt>
<trkpt lat="25.234534" lon="101.181055">
<time>2014-08-04T19:01:22Z</time></trkpt>
<trkpt lat="25.234883" lon="101.180645">
<time>2014-08-04T19:01:23Z</time></trkpt>
<trkpt lat="25.235282" lon="101.180194">
<time>2014-08-04T19:01:24Z</time></trkpt>
<trkpt lat="25.236301" lon="101.179122">
<time>2014-08-04T19:01:25Z</time></trkpt>
<trkpt lat="25.23674" lon="101.178621">
<time>2014-08-04T19:01:26Z</time></trkpt>
<trkpt lat="25.236839" lon="101.178511">
<time>2014-08-04T19:01:27Z</time></trkpt>
<trkpt lat="25.236909" lon="101.178421">
<time>2014-08-04T19:01:28Z</time></trkpt>
<trkpt lat="25.236959" lon="101.178321">
<time>2014-08-04T19:01:29Z</time></trkpt>
<trkpt lat="25.237009" lon="101.178211">
<time>2014-08-04T19:01:30Z</time></trkpt>
<trkpt lat="25.237049" lon="101.178111">
<time>2014-08-04T19:01:31Z</time></trkpt>
<trkpt lat="25.237059" lon="101.1781">
<time>2014-08-04T19:01:32Z</time></trkpt>
<trkpt lat="25.237098" lon="101.17793">
<time>2014-08-04T19:01:33Z</time></trkpt>
<trkpt lat="25.237257" lon="101.177259">
<time>2014-08-04T19:01:34Z</time></trkpt>
<trkpt lat="25.237336" lon="101.176768">
<time>2014-08-04T19:01:35Z</time></trkpt>
<trkpt lat="25.237356" lon="101.176558">
<time>2014-08-04T19:01:36Z</time></trkpt>
<trkpt lat="25.237335" lon="101.176358">
<time>2014-08-04T19:01:37Z</time></trkpt>
<trkpt lat="25.237265" lon="101.175927">
<time>2014-08-04T19:01:38Z</time></trkpt>
<trkpt lat="25.237183" lon="101.175356">
<time>2014-08-04T19:01:39Z</time></trkpt>
<trkpt lat="25.237143" lon="101.175116">
<time>2014-08-04T19:01:40Z</time></trkpt>
<trkpt lat="25.237112" lon="101.174805">
<time>2014-08-04T19:01:41Z</time></trkpt>
<trkpt lat="25.237102" lon="101.174575">
<time>2014-08-04T19:01:42Z</time></trkpt>
<trkpt lat="25.237102" lon="101.174325">
<time>2014-08-04T19:01:43Z</time></trkpt>
<trkpt lat="25.237121" lon="101.174044">
<time>2014-08-04T19:01:44Z</time></trkpt>
<trkpt lat="25.23716" lon="101.173563">
<time>2014-08-04T19:01:45Z</time></trkpt>
<trkpt lat="25.23716" lon="101.173393">
<time>2014-08-04T19:01:46Z</time></trkpt>
<trkpt lat="25.237139" lon="101.173223">
<time>2014-08-04T19:01:47Z</time></trkpt>
<trkpt lat="25.237139" lon="101.173213">
<time>2014-08-04T19:01:48Z</time></trkpt>
<trkpt lat="25.237079" lon="101.172962">
<time>2014-08-04T19:01:49Z</time></trkpt>
<trkpt lat="25.236999" lon="101.172732">
<time>2014-08-04T19:01:50Z</time></trkpt>
<trkpt lat="25.236908" lon="101.172502">
<time>2014-08-04T19:01:51Z</time></trkpt>
<trkpt lat="25.236838" lon="101.172271">
<time>2014-08-04T19:01:52Z</time></trkpt>
<trkpt lat="25.236838" lon="101.172251">
<time>2014-08-04T19:01:53Z</time></trkpt>
<trkpt lat="25.236807" lon="101.172111">
<time>2014-08-04T19:01:54Z</time></trkpt>
<trkpt lat="25.236777" lon="101.171951">
<time>2014-08-04T19:01:55Z</time></trkpt>
<trkpt lat="25.236767" lon="101.17166">
<time>2014-08-04T19:01:56Z</time></trkpt>
<trkpt lat="25.236734" lon="101.170388">
<time>2014-08-04T19:01:57Z</time></trkpt>
<trkpt lat="25.236744" lon="101.170208">
<time>2014-08-04T19:01:58Z</time></trkpt>
<trkpt lat="25.236753" lon="101.170058">
<time>2014-08-04T19:01:59Z</time></trkpt>
<trkpt lat="25.236793" lon="101.169797">
<time>2014-08-04T19:02:00Z</time></trkpt>
<trkpt lat="25.236823" lon="101.169577">
<time>2014-08-04T19:02:01Z</time></trkpt>
<trkpt lat="25.236823" lon="101.169567">
<time>2014-08-04T19:02:02Z</time></trkpt>
<trkpt lat="25.236842" lon="101.169357">
<time>2014-08-04T19:02:03Z</time></trkpt>
<trkpt lat="25.236841" lon="101.168836">
<time>2014-08-04T19:02:04Z</time></trkpt>
<trkpt lat="25.236841" lon="101.168786">
<time>2014-08-04T19:02:05Z</time></trkpt>
<trkpt lat="25.236851" lon="101.168746">
<time>2014-08-04T19:02:06Z</time></trkpt>
<trkpt lat="25.236871" lon="101.168706">
<time>2014-08-04T19:02:07Z</time></trkpt>
<trkpt lat="25.236891" lon="101.168666">
<time>2014-08-04T19:02:08Z</time></trkpt>
<trkpt lat="25.236911" lon="101.168636">
<time>2014-08-04T19:02:09Z</time></trkpt>
<trkpt lat="25.236941" lon="101.168595">
<time>2014-08-04T19:02:10Z</time></trkpt>
<trkpt lat="25.236961" lon="101.168565">
<time>2014-08-04T19:02:11Z</time></trkpt>
<trkpt lat="25.237001" lon="101.168545">
<time>2014-08-04T19:02:12Z</time></trkpt>
<trkpt lat="25.23751" lon="101.168205">
<time>2014-08-04T19:02:13Z</time></trkpt>
<trkpt lat="25.237439" lon="101.167734">
<time>2014-08-04T19:02:14Z</time></trkpt>
<trkpt lat="25.237318" lon="101.167203">
<time>2014-08-04T19:02:15Z</time></trkpt>
<trkpt lat="25.236926" lon="101.166041">
<time>2014-08-04T19:02:16Z</time></trkpt>
<trkpt lat="25.236886" lon="101.165931">
<time>2014-08-04T19:02:17Z</time></trkpt>
<trkpt lat="25.236855" lon="101.165821">
<time>2014-08-04T19:02:18Z</time></trkpt>
<trkpt lat="25.236825" lon="101.165671">
<time>2014-08-04T19:02:19Z</time></trkpt>
<trkpt lat="25.236805" lon="101.165531">
<time>2014-08-04T19:02:20Z</time></trkpt>
<trkpt lat="25.236785" lon="101.1653">
<time>2014-08-04T19:02:21Z</time></trkpt>
<trkpt lat="25.236754" lon="101.16503">
<time>2014-08-04T19:02:22Z</time></trkpt>
<trkpt lat="25.236733" lon="101.164579">
<time>2014-08-04T19:02:23Z</time></trkpt>
<trkpt lat="25.236733" lon="101.164289">
<time>2014-08-04T19:02:24Z</time></trkpt>
<trkpt lat="25.236742" lon="101.164158">
<time>2014-08-04T19:02:25Z</time></trkpt>
<trkpt lat="25.236752" lon="101.164028">
<time>2014-08-04T19:02:26Z</time></trkpt>
<trkpt lat="25.236782" lon="101.163918">
<time>2014-08-04T19:02:27Z</time></trkpt>
<trkpt lat="25.236812" lon="101.163788">
<time>2014-08-04T19:02:28Z</time></trkpt>
<trkpt lat="25.236931" lon="101.163407">
<time>2014-08-04T19:02:29Z</time></trkpt>
<trkpt lat="25.237557" lon="101.161524">
<time>2014-08-04T19:02:30Z</time></trkpt>
<trkpt lat="25.237895" lon="101.160332">
<time>2014-08-04T19:02:31Z</time></trkpt>
<trkpt lat="25.238104" lon="101.159511">
<time>2014-08-04T19:02:32Z</time></trkpt>
<trkpt lat="25.238223" lon="101.15885">
<time>2014-08-04T19:02:33Z</time></trkpt>
<trkpt lat="25.238252" lon="101.15872">
<time>2014-08-04T19:02:34Z</time></trkpt>
<trkpt lat="25.238302" lon="101.15857">
<time>2014-08-04T19:02:35Z</time></trkpt>
<trkpt lat="25.238352" lon="101.15844">
<time>2014-08-04T19:02:36Z</time></trkpt>
<trkpt lat="25.238392" lon="101.158349">
<time>2014-08-04T19:02:37Z</time></trkpt>
<trkpt lat="25.238451" lon="101.158239">
<time>2014-08-04T19:02:38Z</time></trkpt>
<trkpt lat="25.238531" lon="101.158129">
<time>2014-08-04T19:02:39Z</time></trkpt>
<trkpt lat="25.238611" lon="101.158019">
<time>2014-08-04T19:02:40Z</time></trkpt>
<trkpt lat="25.238671" lon="101.157959">
<time>2014-08-04T19:02:41Z</time></trkpt>
<trkpt lat="25.238671" lon="101.157959">
<time>2014-08-04T19:02:42Z</time></trkpt>
<trkpt lat="25.238661" lon="101.157879">
<time>2014-08-04T19:02:43Z</time></trkpt>
<trkpt lat="25.238661" lon="101.157849">
<time>2014-08-04T19:02:44Z</time></trkpt>
<trkpt lat="25.238711" lon="101.157769">
<time>2014-08-04T19:02:45Z</time></trkpt>
<trkpt lat="25.23888" lon="101.157478">
<time>2014-08-04T19:02:46Z</time></trkpt>
<trkpt lat="25.23892" lon="101.157358">
<time>2014-08-04T19:02:47Z</time></trkpt>
<trkpt lat="25.23894" lon="101.157258">
<time>2014-08-04T19:02:48Z</time></trkpt>
<trkpt lat="25.23894" lon="101.157198">
<time>2014-08-04T19:02:49Z</time></trkpt>
<trkpt lat="25.238939" lon="101.157148">
<time>2014-08-04T19:02:50Z</time></trkpt>
<trkpt lat="25.238919" lon="101.157118">
<time>2014-08-04T19:02:51Z</time></trkpt>
<trkpt lat="25.238899" lon="101.157078">
<time>2014-08-04T19:02:52Z</time></trkpt>
<trkpt lat="25.238769" lon="101.156957">
<time>2014-08-04T19:02:53Z</time></trkpt>
<trkpt lat="25.238729" lon="101.156937">
<time>2014-08-04T19:02:54Z</time></trkpt>
<trkpt lat="25.238689" lon="101.156917">
<time>2014-08-04T19:02:55Z</time></trkpt>
<trkpt lat="25.238599" lon="101.156907">
<time>2014-08-04T19:02:56Z</time></trkpt>
<trkpt lat="25.238489" lon="101.156887">
<time>2014-08-04T19:02:57Z</time></trkpt>
<trkpt lat="25.238329" lon="101.156847">
<time>2014-08-04T19:02:58Z</time></trkpt>
<trkpt lat="25.237999" lon="101.156797">
<time>2014-08-04T19:02:59Z</time></trkpt>
<trkpt lat="25.237979" lon="101.156787">
<time>2014-08-04T19:03:00Z</time></trkpt>
<trkpt lat="25.237959" lon="101.156767">
<time>2014-08-04T19:03:01Z</time></trkpt>
<trkpt lat="25.237949" lon="101.156727">
<time>2014-08-04T19:03:02Z</time></trkpt>
<trkpt lat="25.237959" lon="101.156667">
<time>2014-08-04T19:03:03Z</time></trkpt>
<trkpt lat="25.237988" lon="101.156487">
<time>2014-08-04T19:03:04Z</time></trkpt>
<trkpt lat="25.238028" lon="101.156286">
<time>2014-08-04T19:03:05Z</time></trkpt>
<trkpt lat="25.238078" lon="101.156146">
<time>2014-08-04T19:03:06Z</time></trkpt>
<trkpt lat="25.238137" lon="101.155946">
<time>2014-08-04T19:03:07Z</time></trkpt>
<trkpt lat="25.238227" lon="101.155555">
<time>2014-08-04T19:03:08Z</time></trkpt>
<trkpt lat="25.238346" lon="101.155165">
<time>2014-08-04T19:03:09Z</time></trkpt>
<trkpt lat="25.238485" lon="101.154824">
<time>2014-08-04T19:03:10Z</time></trkpt>
<trkpt lat="25.238525" lon="101.154744">
<time>2014-08-04T19:03:11Z</time></trkpt>
<trkpt lat="25.238535" lon="101.154704">
<time>2014-08-04T19:03:12Z</time></trkpt>
<trkpt lat="25.238525" lon="101.154674">
<time>2014-08-04T19:03:13Z</time></trkpt>
<trkpt lat="25.238494" lon="101.154233">
<time>2014-08-04T19:03:14Z</time></trkpt>
<trkpt lat="25.238494" lon="101.154103">
<time>2014-08-04T19:03:15Z</time></trkpt>
<trkpt lat="25.238514" lon="101.154003">
<time>2014-08-04T19:03:16Z</time></trkpt>
<trkpt lat="25.238593" lon="101.153733">
<time>2014-08-04T19:03:17Z</time></trkpt>
<trkpt lat="25.238623" lon="101.153662">
<time>2014-08-04T19:03:18Z</time></trkpt>
<trkpt lat="25.238673" lon="101.153602">
<time>2014-08-04T19:03:19Z</time></trkpt>
<trkpt lat="25.238733" lon="101.153552">
<time>2014-08-04T19:03:20Z</time></trkpt>
<trkpt lat="25.238853" lon="101.153462">
<time>2014-08-04T19:03:21Z</time></trkpt>
<trkpt lat="25.239182" lon="101.153242">
<time>2014-08-04T19:03:22Z</time></trkpt>
<trkpt lat="25.239302" lon="101.153162">
<time>2014-08-04T19:03:23Z</time></trkpt>
<trkpt lat="25.239432" lon="101.153042">
<time>2014-08-04T19:03:24Z</time></trkpt>
<trkpt lat="25.239482" lon="101.152961">
<time>2014-08-04T19:03:25Z</time></trkpt>
<trkpt lat="25.2401" lon="101.15209">
<time>2014-08-04T19:03:26Z</time></trkpt>
<trkpt lat="25.24013" lon="101.15202">
<time>2014-08-04T19:03:27Z</time></trkpt>
<trkpt lat="25.24014" lon="101.15196">
<time>2014-08-04T19:03:28Z</time></trkpt>
<trkpt lat="25.24014" lon="101.1519">
<time>2014-08-04T19:03:29Z</time></trkpt>
<trkpt lat="25.24011" lon="101.15173">
<time>2014-08-04T19:03:30Z</time></trkpt>
<trkpt lat="25.24007" lon="101.151609">
<time>2014-08-04T19:03:31Z</time></trkpt>
<trkpt lat="25.239999" lon="101.151459">
<time>2014-08-04T19:03:32Z</time></trkpt>
<trkpt lat="25.239889" lon="101.151289">
<time>2014-08-04T19:03:33Z</time></trkpt>
<trkpt lat="25.239729" lon="101.151039">
<time>2014-08-04T19:03:34Z</time></trkpt>
<trkpt lat="25.239478" lon="101.150668">
<time>2014-08-04T19:03:35Z</time></trkpt>
<trkpt lat="25.239107" lon="101.150097">
<time>2014-08-04T19:03:36Z</time></trkpt>
<trkpt lat="25.238916" lon="101.149817">
<time>2014-08-04T19:03:37Z</time></trkpt>
<trkpt lat="25.238756" lon="101.149547">
<time>2014-08-04T19:03:38Z</time></trkpt>
<trkpt lat="25.238596" lon="101.149316">
<time>2014-08-04T19:03:39Z</time></trkpt>
<trkpt lat="25.238575" lon="101.149276">
<time>2014-08-04T19:03:40Z</time></trkpt>
<trkpt lat="25.238295" lon="101.148876">
<time>2014-08-04T19:03:41Z</time></trkpt>
<trkpt lat="25.238174" lon="101.148695">
<time>2014-08-04T19:03:42Z</time></trkpt>
<trkpt lat="25.238054" lon="101.148485">
<time>2014-08-04T19:03:43Z</time></trkpt>
<trkpt lat="25.237994" lon="101.148335">
<time>2014-08-04T19:03:44Z</time></trkpt>
<trkpt lat="25.237954" lon="101.148185">
<time>2014-08-04T19:03:45Z</time></trkpt>
<trkpt lat="25.237913" lon="101.147954">
<time>2014-08-04T19:03:46Z</time></trkpt>
<trkpt lat="25.237873" lon="101.147814">
<time>2014-08-04T19:03:47Z</time></trkpt>
<trkpt lat="25.237833" lon="101.147734">
<time>2014-08-04T19:03:48Z</time></trkpt>
<trkpt lat="25.237783" lon="101.147654">
<time>2014-08-04T19:03:49Z</time></trkpt>
<trkpt lat="25.237733" lon="101.147604">
<time>2014-08-04T19:03:50Z</time></trkpt>
<trkpt lat="25.237733" lon="101.147604">
<time>2014-08-04T19:03:51Z</time></trkpt>
<trkpt lat="25.237762" lon="101.147384">
<time>2014-08-04T19:03:52Z</time></trkpt>
<trkpt lat="25.237822" lon="101.147073">
<time>2014-08-04T19:03:53Z</time></trkpt>
<trkpt lat="25.237891" lon="101.146823">
<time>2014-08-04T19:03:54Z</time></trkpt>
<trkpt lat="25.237971" lon="101.146633">
<time>2014-08-04T19:03:55Z</time></trkpt>
<trkpt lat="25.238101" lon="101.146422">
<time>2014-08-04T19:03:56Z</time></trkpt>
<trkpt lat="25.2383" lon="101.146162">
<time>2014-08-04T19:03:57Z</time></trkpt>
<trkpt lat="25.23845" lon="101.145902">
<time>2014-08-04T19:03:58Z</time></trkpt>
<trkpt lat="25.2385" lon="101.145772">
<time>2014-08-04T19:03:59Z</time></trkpt>
<trkpt lat="25.238519" lon="101.145631">
<time>2014-08-04T19:04:00Z</time></trkpt>
<trkpt lat="25.238549" lon="101.145401">
<time>2014-08-04T19:04:01Z</time></trkpt>
<trkpt lat="25.238549" lon="101.145371">
<time>2014-08-04T19:04:02Z</time></trkpt>
<trkpt lat="25.238617" lon="101.14429">
<time>2014-08-04T19:04:03Z</time></trkpt>
<trkpt lat="25.238667" lon="101.144029">
<time>2014-08-04T19:04:04Z</time></trkpt>
<trkpt lat="25.238736" lon="101.143729">
<time>2014-08-04T19:04:05Z</time></trkpt>
<trkpt lat="25.238856" lon="101.143348">
<time>2014-08-04T19:04:06Z</time></trkpt>
<trkpt lat="25.238905" lon="101.143118">
<time>2014-08-04T19:04:07Z</time></trkpt>
<trkpt lat="25.238935" lon="101.142898">
<time>2014-08-04T19:04:08Z</time></trkpt>
<trkpt lat="25.238935" lon="101.142718">
<time>2014-08-04T19:04:09Z</time></trkpt>
<trkpt lat="25.238924" lon="101.142658">
<time>2014-08-04T19:04:10Z</time></trkpt>
<trkpt lat="25.238884" lon="101.142507">
<time>2014-08-04T19:04:11Z</time></trkpt>
<trkpt lat="25.238864" lon="101.142377">
<time>2014-08-04T19:04:12Z</time></trkpt>
<trkpt lat="25.238864" lon="101.142177">
<time>2014-08-04T19:04:13Z</time></trkpt>
<trkpt lat="25.238874" lon="101.142087">
<time>2014-08-04T19:04:14Z</time></trkpt>
<trkpt lat="25.238893" lon="101.141997">
<time>2014-08-04T19:04:15Z</time></trkpt>
<trkpt lat="25.238943" lon="101.141917">
<time>2014-08-04T19:04:16Z</time></trkpt>
<trkpt lat="25.238983" lon="101.141867">
<time>2014-08-04T19:04:17Z</time></trkpt>
<trkpt lat="25.239023" lon="101.141827">
<time>2014-08-04T19:04:18Z</time></trkpt>
<trkpt lat="25.239143" lon="101.141636">
<time>2014-08-04T19:04:19Z</time></trkpt>
<trkpt lat="25.239253" lon="101.141446">
<time>2014-08-04T19:04:20Z</time></trkpt>
<trkpt lat="25.239273" lon="101.141436">
<time>2014-08-04T19:04:21Z</time></trkpt>
<trkpt lat="25.239492" lon="101.141266">
<time>2014-08-04T19:04:22Z</time></trkpt>
<trkpt lat="25.239722" lon="101.141116">
<time>2014-08-04T19:04:23Z</time></trkpt>
<trkpt lat="25.240122" lon="101.140885">
<time>2014-08-04T19:04:24Z</time></trkpt>
<trkpt lat="25.240611" lon="101.140585">
<time>2014-08-04T19:04:25Z</time></trkpt>
<trkpt lat="25.240791" lon="101.140485">
<time>2014-08-04T19:04:26Z</time></trkpt>
<trkpt lat="25.241191" lon="101.140285">
<time>2014-08-04T19:04:27Z</time></trkpt>
<trkpt lat="25.24189" lon="101.139894">
<time>2014-08-04T19:04:28Z</time></trkpt>
<trkpt lat="25.24214" lon="101.139754">
<time>2014-08-04T19:04:29Z</time></trkpt>
<trkpt lat="25.24239" lon="101.139634">
<time>2014-08-04T19:04:30Z</time></trkpt>
<trkpt lat="25.24256" lon="101.139524">
<time>2014-08-04T19:04:31Z</time></trkpt>
<trkpt lat="25.242769" lon="101.139333">
<time>2014-08-04T19:04:32Z</time></trkpt>
<trkpt lat="25.242849" lon="101.139233">
<time>2014-08-04T19:04:33Z</time></trkpt>
<trkpt lat="25.242989" lon="101.139003">
<time>2014-08-04T19:04:34Z</time></trkpt>
<trkpt lat="25.243069" lon="101.138823">
<time>2014-08-04T19:04:35Z</time></trkpt>
<trkpt lat="25.243118" lon="101.138633">
<time>2014-08-04T19:04:36Z</time></trkpt>
<trkpt lat="25.243148" lon="101.138492">
<time>2014-08-04T19:04:37Z</time></trkpt>
<trkpt lat="25.243178" lon="101.138332">
<time>2014-08-04T19:04:38Z</time></trkpt>
<trkpt lat="25.243197" lon="101.138052">
<time>2014-08-04T19:04:39Z</time></trkpt>
<trkpt lat="25.243207" lon="101.137852">
<time>2014-08-04T19:04:40Z</time></trkpt>
<trkpt lat="25.243247" lon="101.137481">
<time>2014-08-04T19:04:41Z</time></trkpt>
<trkpt lat="25.243306" lon="101.137081">
<time>2014-08-04T19:04:42Z</time></trkpt>
<trkpt lat="25.243365" lon="101.13653">
<time>2014-08-04T19:04:43Z</time></trkpt>
<trkpt lat="25.243405" lon="101.13618">
<time>2014-08-04T19:04:44Z</time></trkpt>
<trkpt lat="25.243444" lon="101.13586">
<time>2014-08-04T19:04:45Z</time></trkpt>
<trkpt lat="25.243504" lon="101.135509">
<time>2014-08-04T19:04:46Z</time></trkpt>
<trkpt lat="25.243543" lon="101.135279">
<time>2014-08-04T19:04:47Z</time></trkpt>
<trkpt lat="25.243573" lon="101.135209">
<time>2014-08-04T19:04:48Z</time></trkpt>
<trkpt lat="25.243593" lon="101.135169">
<time>2014-08-04T19:04:49Z</time></trkpt>
<trkpt lat="25.243893" lon="101.135029">
<time>2014-08-04T19:04:50Z</time></trkpt>
<trkpt lat="25.243913" lon="101.135029">
<time>2014-08-04T19:04:51Z</time></trkpt>
<trkpt lat="25.243933" lon="101.135039">
<time>2014-08-04T19:04:52Z</time></trkpt>
<trkpt lat="25.243993" lon="101.135099">
<time>2014-08-04T19:04:53Z</time></trkpt>
<trkpt lat="25.243993" lon="101.135099">
<time>2014-08-04T19:04:54Z</time></trkpt>
<trkpt lat="25.244013" lon="101.135069">
<time>2014-08-04T19:04:55Z</time></trkpt>
<trkpt lat="25.244043" lon="101.135029">
<time>2014-08-04T19:04:56Z</time></trkpt>
<trkpt lat="25.244183" lon="101.134839">
<time>2014-08-04T19:04:57Z</time></trkpt>
<trkpt lat="25.244263" lon="101.134728">
<time>2014-08-04T19:04:58Z</time></trkpt>
<trkpt lat="25.244333" lon="101.134618">
<time>2014-08-04T19:04:59Z</time></trkpt>
<trkpt lat="25.244392" lon="101.134518">
<time>2014-08-04T19:05:00Z</time></trkpt>
<trkpt lat="25.244452" lon="101.134428">
<time>2014-08-04T19:05:01Z</time></trkpt>
<trkpt lat="25.244502" lon="101.134378">
<time>2014-08-04T19:05:02Z</time></trkpt>
<trkpt lat="25.244542" lon="101.134338">
<time>2014-08-04T19:05:03Z</time></trkpt>
<trkpt lat="25.244572" lon="101.134318">
<time>2014-08-04T19:05:04Z</time></trkpt>
<trkpt lat="25.244612" lon="101.134288">
<time>2014-08-04T19:05:05Z</time></trkpt>
<trkpt lat="25.244652" lon="101.134258">
<time>2014-08-04T19:05:06Z</time></trkpt>
<trkpt lat="25.244692" lon="101.134248">
<time>2014-08-04T19:05:07Z</time></trkpt>
<trkpt lat="25.244722" lon="101.134238">
<time>2014-08-04T19:05:08Z</time></trkpt>
<trkpt lat="25.244762" lon="101.134238">
<time>2014-08-04T19:05:09Z</time></trkpt>
<trkpt lat="25.244792" lon="101.134238">
<time>2014-08-04T19:05:10Z</time></trkpt>
<trkpt lat="25.244862" lon="101.134248">
<time>2014-08-04T19:05:11Z</time></trkpt>
<trkpt lat="25.244942" lon="101.134258">
<time>2014-08-04T19:05:12Z</time></trkpt>
<trkpt lat="25.245022" lon="101.134278">
<time>2014-08-04T19:05:13Z</time></trkpt>
<trkpt lat="25.245132" lon="101.134318">
<time>2014-08-04T19:05:14Z</time></trkpt>
<trkpt lat="25.245582" lon="101.134478">
<time>2014-08-04T19:05:15Z</time></trkpt>
<trkpt lat="25.245692" lon="101.134498">
<time>2014-08-04T19:05:16Z</time></trkpt>
<trkpt lat="25.245802" lon="101.134518">
<time>2014-08-04T19:05:17Z</time></trkpt>
<trkpt lat="25.245882" lon="101.134518">
<time>2014-08-04T19:05:18Z</time></trkpt>
<trkpt lat="25.245982" lon="101.134508">
<time>2014-08-04T19:05:19Z</time></trkpt>
<trkpt lat="25.246082" lon="101.134478">
<time>2014-08-04T19:05:20Z</time></trkpt>
<trkpt lat="25.246442" lon="101.134338">
<time>2014-08-04T19:05:21Z</time></trkpt>
<trkpt lat="25.246762" lon="101.134248">
<time>2014-08-04T19:05:22Z</time></trkpt>
<trkpt lat="25.247062" lon="101.134188">
<time>2014-08-04T19:05:23Z</time></trkpt>
<trkpt lat="25.247212" lon="101.134168">
<time>2014-08-04T19:05:24Z</time></trkpt>
<trkpt lat="25.247412" lon="101.134138">
<time>2014-08-04T19:05:25Z</time></trkpt>
<trkpt lat="25.247552" lon="101.134108">
<time>2014-08-04T19:05:26Z</time></trkpt>
<trkpt lat="25.247682" lon="101.134078">
<time>2014-08-04T19:05:27Z</time></trkpt>
<trkpt lat="25.247802" lon="101.134048">
<time>2014-08-04T19:05:28Z</time></trkpt>
<trkpt lat="25.247912" lon="101.134018">
<time>2014-08-04T19:05:29Z</time></trkpt>
<trkpt lat="25.248102" lon="101.133948">
<time>2014-08-04T19:05:30Z</time></trkpt>
<trkpt lat="25.248272" lon="101.133877">
<time>2014-08-04T19:05:31Z</time></trkpt>
<trkpt lat="25.248381" lon="101.133807">
<time>2014-08-04T19:05:32Z</time></trkpt>
<trkpt lat="25.248471" lon="101.133747">
<time>2014-08-04T19:05:33Z</time></trkpt>
<trkpt lat="25.248531" lon="101.133697">
<time>2014-08-04T19:05:34Z</time></trkpt>
<trkpt lat="25.248611" lon="101.133627">
<time>2014-08-04T19:05:35Z</time></trkpt>
<trkpt lat="25.248671" lon="101.133557">
<time>2014-08-04T19:05:36Z</time></trkpt>
<trkpt lat="25.248721" lon="101.133497">
<time>2014-08-04T19:05:37Z</time></trkpt>
<trkpt lat="25.248761" lon="101.133437">
<time>2014-08-04T19:05:38Z</time></trkpt>
<trkpt lat="25.248801" lon="101.133377">
<time>2014-08-04T19:05:39Z</time></trkpt>
<trkpt lat="25.248951" lon="101.133097">
<time>2014-08-04T19:05:40Z</time></trkpt>
<trkpt lat="25.24917" lon="101.132676">
<time>2014-08-04T19:05:41Z</time></trkpt>
<trkpt lat="25.24927" lon="101.132466">
<time>2014-08-04T19:05:42Z</time></trkpt>
<trkpt lat="25.249379" lon="101.132296">
<time>2014-08-04T19:05:43Z</time></trkpt>
<trkpt lat="25.249459" lon="101.132156">
<time>2014-08-04T19:05:44Z</time></trkpt>
<trkpt lat="25.249549" lon="101.132036">
<time>2014-08-04T19:05:45Z</time></trkpt>
<trkpt lat="25.249649" lon="101.131895">
<time>2014-08-04T19:05:46Z</time></trkpt>
<trkpt lat="25.249799" lon="101.131705">
<time>2014-08-04T19:05:47Z</time></trkpt>
<trkpt lat="25.249929" lon="101.131575">
<time>2014-08-04T19:05:48Z</time></trkpt>
<trkpt lat="25.249958" lon="101.131545">
<time>2014-08-04T19:05:49Z</time></trkpt>
<trkpt lat="25.250018" lon="101.131495">
<time>2014-08-04T19:05:50Z</time></trkpt>
<trkpt lat="25.250048" lon="101.131455">
<time>2014-08-04T19:05:51Z</time></trkpt>
<trkpt lat="25.250138" lon="101.131385">
<time>2014-08-04T19:05:52Z</time></trkpt>
<trkpt lat="25.250288" lon="101.131285">
<time>2014-08-04T19:05:53Z</time></trkpt>
<trkpt lat="25.250548" lon="101.131125">
<time>2014-08-04T19:05:54Z</time></trkpt>
<trkpt lat="25.250868" lon="101.130955">
<time>2014-08-04T19:05:55Z</time></trkpt>
<trkpt lat="25.251397" lon="101.130684">
<time>2014-08-04T19:05:56Z</time></trkpt>
<trkpt lat="25.252057" lon="101.130324">
<time>2014-08-04T19:05:57Z</time></trkpt>
<trkpt lat="25.252357" lon="101.130164">
<time>2014-08-04T19:05:58Z</time></trkpt>
<trkpt lat="25.252587" lon="101.130024">
<time>2014-08-04T19:05:59Z</time></trkpt>
<trkpt lat="25.252776" lon="101.129904">
<time>2014-08-04T19:06:00Z</time></trkpt>
<trkpt lat="25.253096" lon="101.129683">
<time>2014-08-04T19:06:01Z</time></trkpt>
<trkpt lat="25.253146" lon="101.129653">
<time>2014-08-04T19:06:02Z</time></trkpt>
<trkpt lat="25.253446" lon="101.129463">
<time>2014-08-04T19:06:03Z</time></trkpt>
<trkpt lat="25.253726" lon="101.129283">
<time>2014-08-04T19:06:04Z</time></trkpt>
<trkpt lat="25.253985" lon="101.129093">
<time>2014-08-04T19:06:05Z</time></trkpt>
<trkpt lat="25.254255" lon="101.128883">
<time>2014-08-04T19:06:06Z</time></trkpt>
<trkpt lat="25.254615" lon="101.128602">
<time>2014-08-04T19:06:07Z</time></trkpt>
<trkpt lat="25.255474" lon="101.127902">
<time>2014-08-04T19:06:08Z</time></trkpt>
<trkpt lat="25.255844" lon="101.127602">
<time>2014-08-04T19:06:09Z</time></trkpt>
<trkpt lat="25.255934" lon="101.127522">
<time>2014-08-04T19:06:10Z</time></trkpt>
<trkpt lat="25.256023" lon="101.127451">
<time>2014-08-04T19:06:11Z</time></trkpt>
<trkpt lat="25.256093" lon="101.127361">
<time>2014-08-04T19:06:12Z</time></trkpt>
<trkpt lat="25.256163" lon="101.127281">
<time>2014-08-04T19:06:13Z</time></trkpt>
<trkpt lat="25.256213" lon="101.127221">
<time>2014-08-04T19:06:14Z</time></trkpt>
<trkpt lat="25.256253" lon="101.127161">
<time>2014-08-04T19:06:15Z</time></trkpt>
<trkpt lat="25.256293" lon="101.127111">
<time>2014-08-04T19:06:16Z</time></trkpt>
<trkpt lat="25.256323" lon="101.127041">
<time>2014-08-04T19:06:17Z</time></trkpt>
<trkpt lat="25.256363" lon="101.126961">
<time>2014-08-04T19:06:18Z</time></trkpt>
<trkpt lat="25.256383" lon="101.126881">
<time>2014-08-04T19:06:19Z</time></trkpt>
<trkpt lat="25.256423" lon="101.126771">
<time>2014-08-04T19:06:20Z</time></trkpt>
<trkpt lat="25.256443" lon="101.126621">
<time>2014-08-04T19:06:21Z</time></trkpt>
<trkpt lat="25.256462" lon="101.126401">
<time>2014-08-04T19:06:22Z</time></trkpt>
<trkpt lat="25.256462" lon="101.126281">
<time>2014-08-04T19:06:23Z</time></trkpt>
<trkpt lat="25.256481" lon="101.12567">
<time>2014-08-04T19:06:24Z</time></trkpt>
<trkpt lat="25.256501" lon="101.12502">
<time>2014-08-04T19:06:25Z</time></trkpt>
<trkpt lat="25.256559" lon="101.123238">
<time>2014-08-04T19:06:26Z</time></trkpt>
<trkpt lat="25.256588" lon="101.122308">
<time>2014-08-04T19:06:27Z</time></trkpt>
<trkpt lat="25.256597" lon="101.121738">
<time>2014-08-04T19:06:28Z</time></trkpt>
<trkpt lat="25.256587" lon="101.121487">
<time>2014-08-04T19:06:29Z</time></trkpt>
<trkpt lat="25.256587" lon="101.121477">
<time>2014-08-04T19:06:30Z</time></trkpt>
<trkpt lat="25.256577" lon="101.121317">
<time>2014-08-04T19:06:31Z</time></trkpt>
<trkpt lat="25.256517" lon="101.121017">
<time>2014-08-04T19:06:32Z</time></trkpt>
<trkpt lat="25.256486" lon="101.120837">
<time>2014-08-04T19:06:33Z</time></trkpt>
<trkpt lat="25.256476" lon="101.120687">
<time>2014-08-04T19:06:34Z</time></trkpt>
<trkpt lat="25.256506" lon="101.120547">
<time>2014-08-04T19:06:35Z</time></trkpt>
<trkpt lat="25.256546" lon="101.120457">
<time>2014-08-04T19:06:36Z</time></trkpt>
<trkpt lat="25.256706" lon="101.120167">
<time>2014-08-04T19:06:37Z</time></trkpt>
<trkpt lat="25.258623" lon="101.116775">
<time>2014-08-04T19:06:38Z</time></trkpt>
<trkpt lat="25.258772" lon="101.116455">
<time>2014-08-04T19:06:39Z</time></trkpt>
<trkpt lat="25.258932" lon="101.116075">
<time>2014-08-04T19:06:40Z</time></trkpt>
<trkpt lat="25.25978" lon="101.113604">
<time>2014-08-04T19:06:41Z</time></trkpt>
<trkpt lat="25.26017" lon="101.112424">
<time>2014-08-04T19:06:42Z</time></trkpt>
<trkpt lat="25.260239" lon="101.112194">
<time>2014-08-04T19:06:43Z</time></trkpt>
<trkpt lat="25.260259" lon="101.112024">
<time>2014-08-04T19:06:44Z</time></trkpt>
<trkpt lat="25.260249" lon="101.111824">
<time>2014-08-04T19:06:45Z</time></trkpt>
<trkpt lat="25.260219" lon="101.111654">
<time>2014-08-04T19:06:46Z</time></trkpt>
<trkpt lat="25.260179" lon="101.111504">
<time>2014-08-04T19:06:47Z</time></trkpt>
<trkpt lat="25.260119" lon="101.111384">
<time>2014-08-04T19:06:48Z</time></trkpt>
<trkpt lat="25.260029" lon="101.111234">
<time>2014-08-04T19:06:49Z</time></trkpt>
<trkpt lat="25.258988" lon="101.109753">
<time>2014-08-04T19:06:50Z</time></trkpt>
<trkpt lat="25.258938" lon="101.109643">
<time>2014-08-04T19:06:51Z</time></trkpt>
<trkpt lat="25.258908" lon="101.109553">
<time>2014-08-04T19:06:52Z</time></trkpt>
<trkpt lat="25.258888" lon="101.109473">
<time>2014-08-04T19:06:53Z</time></trkpt>
<trkpt lat="25.258888" lon="101.109383">
<time>2014-08-04T19:06:54Z</time></trkpt>
<trkpt lat="25.258898" lon="101.109283">
<time>2014-08-04T19:06:55Z</time></trkpt>
<trkpt lat="25.258928" lon="101.109193">
<time>2014-08-04T19:06:56Z</time></trkpt>
<trkpt lat="25.258968" lon="101.109093">
<time>2014-08-04T19:06:57Z</time></trkpt>
<trkpt lat="25.259417" lon="101.108413">
<time>2014-08-04T19:06:58Z</time></trkpt>
<trkpt lat="25.259477" lon="101.108343">
<time>2014-08-04T19:06:59Z</time></trkpt>
<trkpt lat="25.260027" lon="101.107713">
<time>2014-08-04T19:07:00Z</time></trkpt>
<trkpt lat="25.260187" lon="101.107543">
<time>2014-08-04T19:07:01Z</time></trkpt>
<trkpt lat="25.260377" lon="101.107383">
<time>2014-08-04T19:07:02Z</time></trkpt>
<trkpt lat="25.260557" lon="101.107263">
<time>2014-08-04T19:07:03Z</time></trkpt>
<trkpt lat="25.260947" lon="101.107063">
<time>2014-08-04T19:07:04Z</time></trkpt>
<trkpt lat="25.261357" lon="101.106853">
<time>2014-08-04T19:07:05Z</time></trkpt>
<trkpt lat="25.261456" lon="101.106813">
<time>2014-08-04T19:07:06Z</time></trkpt>
<trkpt lat="25.261526" lon="101.106773">
<time>2014-08-04T19:07:07Z</time></trkpt>
<trkpt lat="25.261586" lon="101.106763">
<time>2014-08-04T19:07:08Z</time></trkpt>
<trkpt lat="25.261656" lon="101.106743">
<time>2014-08-04T19:07:09Z</time></trkpt>
<trkpt lat="25.261736" lon="101.106733">
<time>2014-08-04T19:07:10Z</time></trkpt>
<trkpt lat="25.261816" lon="101.106723">
<time>2014-08-04T19:07:11Z</time></trkpt>
<trkpt lat="25.262716" lon="101.106633">
<time>2014-08-04T19:07:12Z</time></trkpt>
<trkpt lat="25.262846" lon="101.106603">
<time>2014-08-04T19:07:13Z</time></trkpt>
<trkpt lat="25.262946" lon="101.106573">
<time>2014-08-04T19:07:14Z</time></trkpt>
<trkpt lat="25.263036" lon="101.106533">
<time>2014-08-04T19:07:15Z</time></trkpt>
<trkpt lat="25.263116" lon="101.106463">
<time>2014-08-04T19:07:16Z</time></trkpt>
<trkpt lat="25.263196" lon="101.106383">
<time>2014-08-04T19:07:17Z</time></trkpt>
<trkpt lat="25.263306" lon="101.106253">
<time>2014-08-04T19:07:18Z</time></trkpt>
<trkpt lat="25.263406" lon="101.106113">
<time>2014-08-04T19:07:19Z</time></trkpt>
<trkpt lat="25.264995" lon="101.103444">
<time>2014-08-04T19:07:20Z</time></trkpt>
<trkpt lat="25.265065" lon="101.103344">
<time>2014-08-04T19:07:21Z</time></trkpt>
<trkpt lat="25.265455" lon="101.102844">
<time>2014-08-04T19:07:22Z</time></trkpt>
<trkpt lat="25.265625" lon="101.102634">
<time>2014-08-04T19:07:23Z</time></trkpt>
<trkpt lat="25.265805" lon="101.102454">
<time>2014-08-04T19:07:24Z</time></trkpt>
<trkpt lat="25.265995" lon="101.102304">
<time>2014-08-04T19:07:25Z</time></trkpt>
<trkpt lat="25.266285" lon="101.102094">
<time>2014-08-04T19:07:26Z</time></trkpt>
<trkpt lat="25.266835" lon="101.101754">
<time>2014-08-04T19:07:27Z</time></trkpt>
<trkpt lat="25.267135" lon="101.101614">
<time>2014-08-04T19:07:28Z</time></trkpt>
<trkpt lat="25.267255" lon="101.101554">
<time>2014-08-04T19:07:29Z</time></trkpt>
<trkpt lat="25.267355" lon="101.101474">
<time>2014-08-04T19:07:30Z</time></trkpt>
<trkpt lat="25.267505" lon="101.101324">
<time>2014-08-04T19:07:31Z</time></trkpt>
<trkpt lat="25.267885" lon="101.100904">
<time>2014-08-04T19:07:32Z</time></trkpt>
<trkpt lat="25.268275" lon="101.100414">
<time>2014-08-04T19:07:33Z</time></trkpt>
<trkpt lat="25.268465" lon="101.100105">
<time>2014-08-04T19:07:34Z</time></trkpt>
<trkpt lat="25.268605" lon="101.099845">
<time>2014-08-04T19:07:35Z</time></trkpt>
<trkpt lat="25.268725" lon="101.099555">
<time>2014-08-04T19:07:36Z</time></trkpt>
<trkpt lat="25.268795" lon="101.099295">
<time>2014-08-04T19:07:37Z</time></trkpt>
<trkpt lat="25.268885" lon="101.098945">
<time>2014-08-04T19:07:38Z</time></trkpt>
<trkpt lat="25.268935" lon="101.098705">
<time>2014-08-04T19:07:39Z</time></trkpt>
<trkpt lat="25.268985" lon="101.098555">
<time>2014-08-04T19:07:40Z</time></trkpt>
<trkpt lat="25.269035" lon="101.098455">
<time>2014-08-04T19:07:41Z</time></trkpt>
<trkpt lat="25.269105" lon="101.098335">
<time>2014-08-04T19:07:42Z</time></trkpt>
<trkpt lat="25.269385" lon="101.098025">
<time>2014-08-04T19:07:43Z</time></trkpt>
<trkpt lat="25.269935" lon="101.097406">
<time>2014-08-04T19:07:44Z</time></trkpt>
<trkpt lat="25.270065" lon="101.097236">
<time>2014-08-04T19:07:45Z</time></trkpt>
<trkpt lat="25.270165" lon="101.097066">
<time>2014-08-04T19:07:46Z</time></trkpt>
<trkpt lat="25.270325" lon="101.096746">
<time>2014-08-04T19:07:47Z</time></trkpt>
<trkpt lat="25.270415" lon="101.096546">
<time>2014-08-04T19:07:48Z</time></trkpt>
<trkpt lat="25.270495" lon="101.096406">
<time>2014-08-04T19:07:49Z</time></trkpt>
<trkpt lat="25.270555" lon="101.096286">
<time>2014-08-04T19:07:50Z</time></trkpt>
<trkpt lat="25.270625" lon="101.096186">
<time>2014-08-04T19:07:51Z</time></trkpt>
<trkpt lat="25.270675" lon="101.096126">
<time>2014-08-04T19:07:52Z</time></trkpt>
<trkpt lat="25.270755" lon="101.096066">
<time>2014-08-04T19:07:53Z</time></trkpt>
<trkpt lat="25.270825" lon="101.096036">
<time>2014-08-04T19:07:54Z</time></trkpt>
<trkpt lat="25.270875" lon="101.096026">
<time>2014-08-04T19:07:55Z</time></trkpt>
<trkpt lat="25.270925" lon="101.096016">
<time>2014-08-04T19:07:56Z</time></trkpt>
<trkpt lat="25.271005" lon="101.096016">
<time>2014-08-04T19:07:57Z</time></trkpt>
<trkpt lat="25.271075" lon="101.096026">
<time>2014-08-04T19:07:58Z</time></trkpt>
<trkpt lat="25.271185" lon="101.096046">
<time>2014-08-04T19:07:59Z</time></trkpt>
<trkpt lat="25.271195" lon="101.096056">
<time>2014-08-04T19:08:00Z</time></trkpt>
<trkpt lat="25.271435" lon="101.096126">
<time>2014-08-04T19:08:01Z</time></trkpt>
<trkpt lat="25.271655" lon="101.096176">
<time>2014-08-04T19:08:02Z</time></trkpt>
<trkpt lat="25.271785" lon="101.096196">
<time>2014-08-04T19:08:03Z</time></trkpt>
<trkpt lat="25.271935" lon="101.096196">
<time>2014-08-04T19:08:04Z</time></trkpt>
<trkpt lat="25.272205" lon="101.096186">
<time>2014-08-04T19:08:05Z</time></trkpt>
<trkpt lat="25.273015" lon="101.096046">
<time>2014-08-04T19:08:06Z</time></trkpt>
<trkpt lat="25.273395" lon="101.095956">
<time>2014-08-04T19:08:07Z</time></trkpt>
<trkpt lat="25.274085" lon="101.095726">
<time>2014-08-04T19:08:08Z</time></trkpt>
<trkpt lat="25.274675" lon="101.095507">
<time>2014-08-04T19:08:09Z</time></trkpt>
<trkpt lat="25.274825" lon="101.095437">
<time>2014-08-04T19:08:10Z</time></trkpt>
<trkpt lat="25.274925" lon="101.095377">
<time>2014-08-04T19:08:11Z</time></trkpt>
<trkpt lat="25.275005" lon="101.095307">
<time>2014-08-04T19:08:12Z</time></trkpt>
<trkpt lat="25.275135" lon="101.095197">
<time>2014-08-04T19:08:13Z</time></trkpt>
<trkpt lat="25.275305" lon="101.094997">
<time>2014-08-04T19:08:14Z</time></trkpt>
<trkpt lat="25.275365" lon="101.094927">
<time>2014-08-04T19:08:15Z</time></trkpt>
<trkpt lat="25.275515" lon="101.094747">
<time>2014-08-04T19:08:16Z</time></trkpt>
<trkpt lat="25.276005" lon="101.094107">
<time>2014-08-04T19:08:17Z</time></trkpt>
<trkpt lat="25.276065" lon="101.094017">
<time>2014-08-04T19:08:18Z</time></trkpt>
<trkpt lat="25.276105" lon="101.093948">
<time>2014-08-04T19:08:19Z</time></trkpt>
<trkpt lat="25.276155" lon="101.093838">
<time>2014-08-04T19:08:20Z</time></trkpt>
<trkpt lat="25.276265" lon="101.093558">
<time>2014-08-04T19:08:21Z</time></trkpt>
<trkpt lat="25.276365" lon="101.093268">
<time>2014-08-04T19:08:22Z</time></trkpt>
<trkpt lat="25.276385" lon="101.093218">
<time>2014-08-04T19:08:23Z</time></trkpt>
<trkpt lat="25.276415" lon="101.093158">
<time>2014-08-04T19:08:24Z</time></trkpt>
<trkpt lat="25.276445" lon="101.093118">
<time>2014-08-04T19:08:25Z</time></trkpt>
<trkpt lat="25.276485" lon="101.093068">
<time>2014-08-04T19:08:26Z</time></trkpt>
<trkpt lat="25.276535" lon="101.093038">
<time>2014-08-04T19:08:27Z</time></trkpt>
<trkpt lat="25.276575" lon="101.092998">
<time>2014-08-04T19:08:28Z</time></trkpt>
<trkpt lat="25.276665" lon="101.092948">
<time>2014-08-04T19:08:29Z</time></trkpt>
<trkpt lat="25.276755" lon="101.092908">
<time>2014-08-04T19:08:30Z</time></trkpt>
<trkpt lat="25.276855" lon="101.092878">
<time>2014-08-04T19:08:31Z</time></trkpt>
<trkpt lat="25.276935" lon="101.092848">
<time>2014-08-04T19:08:32Z</time></trkpt>
<trkpt lat="25.276995" lon="101.092838">
<time>2014-08-04T19:08:33Z</time></trkpt>
<trkpt lat="25.277065" lon="101.092828">
<time>2014-08-04T19:08:34Z</time></trkpt>
<trkpt lat="25.277125" lon="101.092818">
<time>2014-08-04T19:08:35Z</time></trkpt>
<trkpt lat="25.277185" lon="101.092818">
<time>2014-08-04T19:08:36Z</time></trkpt>
<trkpt lat="25.277255" lon="101.092828">
<time>2014-08-04T19:08:37Z</time></trkpt>
<trkpt lat="25.277325" lon="101.092848">
<time>2014-08-04T19:08:38Z</time></trkpt>
<trkpt lat="25.277435" lon="101.092878">
<time>2014-08-04T19:08:39Z</time></trkpt>
<trkpt lat="25.277765" lon="101.092948">
<time>2014-08-04T19:08:40Z</time></trkpt>
<trkpt lat="25.278085" lon="101.092998">
<time>2014-08-04T19:08:41Z</time></trkpt>
<trkpt lat="25.278515" lon="101.093068">
<time>2014-08-04T19:08:42Z</time></trkpt>
<trkpt lat="25.279045" lon="101.093148">
<time>2014-08-04T19:08:43Z</time></trkpt>
<trkpt lat="25.279585" lon="101.093238">
<time>2014-08-04T19:08:44Z</time></trkpt>
<trkpt lat="25.279695" lon="101.093258">
<time>2014-08-04T19:08:45Z</time></trkpt>
<trkpt lat="25.279805" lon="101.093258">
<time>2014-08-04T19:08:46Z</time></trkpt>
<trkpt lat="25.279935" lon="101.093248">
<time>2014-08-04T19:08:47Z</time></trkpt>
<trkpt lat="25.280085" lon="101.093228">
<time>2014-08-04T19:08:48Z</time></trkpt>
<trkpt lat="25.280225" lon="101.093188">
<time>2014-08-04T19:08:49Z</time></trkpt>
<trkpt lat="25.280435" lon="101.093118">
<time>2014-08-04T19:08:50Z</time></trkpt>
<trkpt lat="25.280745" lon="101.092988">
<time>2014-08-04T19:08:51Z</time></trkpt>
<trkpt lat="25.280905" lon="101.092908">
<time>2014-08-04T19:08:52Z</time></trkpt>
<trkpt lat="25.281125" lon="101.092778">
<time>2014-08-04T19:08:53Z</time></trkpt>
<trkpt lat="25.281365" lon="101.092608">
<time>2014-08-04T19:08:54Z</time></trkpt>
<trkpt lat="25.281636" lon="101.092408">
<time>2014-08-04T19:08:55Z</time></trkpt>
<trkpt lat="25.281766" lon="101.092319">
<time>2014-08-04T19:08:56Z</time></trkpt>
<trkpt lat="25.281856" lon="101.092239">
<time>2014-08-04T19:08:57Z</time></trkpt>
<trkpt lat="25.281926" lon="101.092179">
<time>2014-08-04T19:08:58Z</time></trkpt>
<trkpt lat="25.281996" lon="101.092099">
<time>2014-08-04T19:08:59Z</time></trkpt>
<trkpt lat="25.282056" lon="101.091999">
<time>2014-08-04T19:09:00Z</time></trkpt>
<trkpt lat="25.282106" lon="101.091879">
<time>2014-08-04T19:09:01Z</time></trkpt>
<trkpt lat="25.282186" lon="101.091689">
<time>2014-08-04T19:09:02Z</time></trkpt>
<trkpt lat="25.282266" lon="101.091459">
<time>2014-08-04T19:09:03Z</time></trkpt>
<trkpt lat="25.282296" lon="101.091359">
<time>2014-08-04T19:09:04Z</time></trkpt>
<trkpt lat="25.282316" lon="101.091219">
<time>2014-08-04T19:09:05Z</time></trkpt>
<trkpt lat="25.282356" lon="101.091">
<time>2014-08-04T19:09:06Z</time></trkpt>
<trkpt lat="25.282416" lon="101.09056">
<time>2014-08-04T19:09:07Z</time></trkpt>
<trkpt lat="25.282416" lon="101.09049">
<time>2014-08-04T19:09:08Z</time></trkpt>
<trkpt lat="25.282436" lon="101.09043">
<time>2014-08-04T19:09:09Z</time></trkpt>
<trkpt lat="25.282446" lon="101.09038">
<time>2014-08-04T19:09:10Z</time></trkpt>
<trkpt lat="25.282466" lon="101.09034">
<time>2014-08-04T19:09:11Z</time></trkpt>
<trkpt lat="25.282486" lon="101.09029">
<time>2014-08-04T19:09:12Z</time></trkpt>
<trkpt lat="25.282506" lon="101.09026">
<time>2014-08-04T19:09:13Z</time></trkpt>
<trkpt lat="25.282536" lon="101.09024">
<time>2014-08-04T19:09:14Z</time></trkpt>
<trkpt lat="25.282566" lon="101.09021">
<time>2014-08-04T19:09:15Z</time></trkpt>
<trkpt lat="25.282586" lon="101.09019">
<time>2014-08-04T19:09:16Z</time></trkpt>
<trkpt lat="25.282616" lon="101.09018">
<time>2014-08-04T19:09:17Z</time></trkpt>
<trkpt lat="25.282656" lon="101.09017">
<time>2014-08-04T19:09:18Z</time></trkpt>
<trkpt lat="25.282706" lon="101.09015">
<time>2014-08-04T19:09:19Z</time></trkpt>
<trkpt lat="25.282766" lon="101.09014">
<time>2014-08-04T19:09:20Z</time></trkpt>
<trkpt lat="25.282916" lon="101.09011">
<time>2014-08-04T19:09:21Z</time></trkpt>
<trkpt lat="25.283006" lon="101.09009">
<time>2014-08-04T19:09:22Z</time></trkpt>
<trkpt lat="25.283086" lon="101.09007">
<time>2014-08-04T19:09:23Z</time></trkpt>
<trkpt lat="25.283156" lon="101.09004">
<time>2014-08-04T19:09:24Z</time></trkpt>
<trkpt lat="25.283236" lon="101.09001">
<time>2014-08-04T19:09:25Z</time></trkpt>
<trkpt lat="25.283286" lon="101.08997">
<time>2014-08-04T19:09:26Z</time></trkpt>
<trkpt lat="25.283326" lon="101.08994">
<time>2014-08-04T19:09:27Z</time></trkpt>
<trkpt lat="25.283366" lon="101.08992">
<time>2014-08-04T19:09:28Z</time></trkpt>
<trkpt lat="25.283406" lon="101.08989">
<time>2014-08-04T19:09:29Z</time></trkpt>
<trkpt lat="25.283456" lon="101.08985">
<time>2014-08-04T19:09:30Z</time></trkpt>
<trkpt lat="25.283486" lon="101.089811">
<time>2014-08-04T19:09:31Z</time></trkpt>
<trkpt lat="25.283836" lon="101.089441">
<time>2014-08-04T19:09:32Z</time></trkpt>
<trkpt lat="25.283886" lon="101.089411">
<time>2014-08-04T19:09:33Z</time></trkpt>
<trkpt lat="25.283936" lon="101.089381">
<time>2014-08-04T19:09:34Z</time></trkpt>
<trkpt lat="25.283986" lon="101.089361">
<time>2014-08-04T19:09:35Z</time></trkpt>
<trkpt lat="25.284026" lon="101.089351">
<time>2014-08-04T19:09:36Z</time></trkpt>
<trkpt lat="25.284076" lon="101.089341">
<time>2014-08-04T19:09:37Z</time></trkpt>
<trkpt lat="25.284116" lon="101.089331">
<time>2014-08-04T19:09:38Z</time></trkpt>
<trkpt lat="25.284156" lon="101.089341">
<time>2014-08-04T19:09:39Z</time></trkpt>
<trkpt lat="25.284216" lon="101.089361">
<time>2014-08-04T19:09:40Z</time></trkpt>
<trkpt lat="25.284266" lon="101.089381">
<time>2014-08-04T19:09:41Z</time></trkpt>
<trkpt lat="25.284316" lon="101.089401">
<time>2014-08-04T19:09:42Z</time></trkpt>
<trkpt lat="25.284366" lon="101.089441">
<time>2014-08-04T19:09:43Z</time></trkpt>
<trkpt lat="25.284546" lon="101.089541">
<time>2014-08-04T19:09:44Z</time></trkpt>
<trkpt lat="25.284606" lon="101.089561">
<time>2014-08-04T19:09:45Z</time></trkpt>
<trkpt lat="25.284666" lon="101.089581">
<time>2014-08-04T19:09:46Z</time></trkpt>
<trkpt lat="25.284726" lon="101.089601">
<time>2014-08-04T19:09:47Z</time></trkpt>
<trkpt lat="25.284816" lon="101.089611">
<time>2014-08-04T19:09:48Z</time></trkpt>
<trkpt lat="25.284906" lon="101.089611">
<time>2014-08-04T19:09:49Z</time></trkpt>
<trkpt lat="25.285336" lon="101.089611">
<time>2014-08-04T19:09:50Z</time></trkpt>
<trkpt lat="25.285466" lon="101.089621">
<time>2014-08-04T19:09:51Z</time></trkpt>
<trkpt lat="25.285586" lon="101.089631">
<time>2014-08-04T19:09:52Z</time></trkpt>
<trkpt lat="25.286116" lon="101.08975">
<time>2014-08-04T19:09:53Z</time></trkpt>
<trkpt lat="25.286196" lon="101.08975">
<time>2014-08-04T19:09:54Z</time></trkpt>
<trkpt lat="25.286256" lon="101.08975">
<time>2014-08-04T19:09:55Z</time></trkpt>
<trkpt lat="25.286326" lon="101.08974">
<time>2014-08-04T19:09:56Z</time></trkpt>
<trkpt lat="25.286376" lon="101.089721">
<time>2014-08-04T19:09:57Z</time></trkpt>
<trkpt lat="25.286396" lon="101.089711">
<time>2014-08-04T19:09:58Z</time></trkpt>
<trkpt lat="25.286436" lon="101.089681">
<time>2014-08-04T19:09:59Z</time></trkpt>
<trkpt lat="25.286496" lon="101.089651">
<time>2014-08-04T19:10:00Z</time></trkpt>
<trkpt lat="25.287017" lon="101.089251">
<time>2014-08-04T19:10:01Z</time></trkpt>
<trkpt lat="25.287417" lon="101.088981">
<time>2014-08-04T19:10:02Z</time></trkpt>
<trkpt lat="25.287567" lon="101.088891">
<time>2014-08-04T19:10:03Z</time></trkpt>
<trkpt lat="25.287787" lon="101.088751">
<time>2014-08-04T19:10:04Z</time></trkpt>
<trkpt lat="25.287847" lon="101.088721">
<time>2014-08-04T19:10:05Z</time></trkpt>
<trkpt lat="25.287907" lon="101.088661">
<time>2014-08-04T19:10:06Z</time></trkpt>
<trkpt lat="25.287957" lon="101.088601">
<time>2014-08-04T19:10:07Z</time></trkpt>
<trkpt lat="25.288007" lon="101.088542">
<time>2014-08-04T19:10:08Z</time></trkpt>
<trkpt lat="25.288047" lon="101.088482">
<time>2014-08-04T19:10:09Z</time></trkpt>
<trkpt lat="25.288227" lon="101.088152">
<time>2014-08-04T19:10:10Z</time></trkpt>
<trkpt lat="25.288337" lon="101.087932">
<time>2014-08-04T19:10:11Z</time></trkpt>
<trkpt lat="25.288387" lon="101.087852">
<time>2014-08-04T19:10:12Z</time></trkpt>
<trkpt lat="25.288427" lon="101.087792">
<time>2014-08-04T19:10:13Z</time></trkpt>
<trkpt lat="25.288487" lon="101.087732">
<time>2014-08-04T19:10:14Z</time></trkpt>
<trkpt lat="25.288557" lon="101.087672">
<time>2014-08-04T19:10:15Z</time></trkpt>
<trkpt lat="25.289318" lon="101.086963">
<time>2014-08-04T19:10:16Z</time></trkpt>
<trkpt lat="25.289378" lon="101.086913">
<time>2014-08-04T19:10:17Z</time></trkpt>
<trkpt lat="25.289448" lon="101.086843">
<time>2014-08-04T19:10:18Z</time></trkpt>
<trkpt lat="25.289498" lon="101.086783">
<time>2014-08-04T19:10:19Z</time></trkpt>
<trkpt lat="25.289548" lon="101.086713">
<time>2014-08-04T19:10:20Z</time></trkpt>
<trkpt lat="25.289598" lon="101.086633">
<time>2014-08-04T19:10:21Z</time></trkpt>
<trkpt lat="25.289638" lon="101.086533">
<time>2014-08-04T19:10:22Z</time></trkpt>
<trkpt lat="25.289958" lon="101.085574">
<time>2014-08-04T19:10:23Z</time></trkpt>
<trkpt lat="25.290058" lon="101.085285">
<time>2014-08-04T19:10:24Z</time></trkpt>
<trkpt lat="25.290119" lon="101.085125">
<time>2014-08-04T19:10:25Z</time></trkpt>
<trkpt lat="25.290179" lon="101.085025">
<time>2014-08-04T19:10:26Z</time></trkpt>
<trkpt lat="25.290259" lon="101.084915">
<time>2014-08-04T19:10:27Z</time></trkpt>
<trkpt lat="25.290309" lon="101.084835">
<time>2014-08-04T19:10:28Z</time></trkpt>
<trkpt lat="25.290379" lon="101.084765">
<time>2014-08-04T19:10:29Z</time></trkpt>
<trkpt lat="25.290479" lon="101.084685">
<time>2014-08-04T19:10:30Z</time></trkpt>
<trkpt lat="25.291079" lon="101.084256">
<time>2014-08-04T19:10:31Z</time></trkpt>
<trkpt lat="25.291129" lon="101.084226">
<time>2014-08-04T19:10:32Z</time></trkpt>
<trkpt lat="25.291169" lon="101.084216">
<time>2014-08-04T19:10:33Z</time></trkpt>
<trkpt lat="25.291209" lon="101.084206">
<time>2014-08-04T19:10:34Z</time></trkpt>
<trkpt lat="25.291249" lon="101.084196">
<time>2014-08-04T19:10:35Z</time></trkpt>
<trkpt lat="25.291269" lon="101.084206">
<time>2014-08-04T19:10:36Z</time></trkpt>
<trkpt lat="25.291299" lon="101.084206">
<time>2014-08-04T19:10:37Z</time></trkpt>
<trkpt lat="25.291329" lon="101.084216">
<time>2014-08-04T19:10:38Z</time></trkpt>
<trkpt lat="25.291359" lon="101.084226">
<time>2014-08-04T19:10:39Z</time></trkpt>
<trkpt lat="25.291389" lon="101.084246">
<time>2014-08-04T19:10:40Z</time></trkpt>
<trkpt lat="25.291409" lon="101.084256">
<time>2014-08-04T19:10:41Z</time></trkpt>
<trkpt lat="25.291429" lon="101.084276">
<time>2014-08-04T19:10:42Z</time></trkpt>
<trkpt lat="25.291449" lon="101.084306">
<time>2014-08-04T19:10:43Z</time></trkpt>
<trkpt lat="25.291469" lon="101.084336">
<time>2014-08-04T19:10:44Z</time></trkpt>
<trkpt lat="25.291479" lon="101.084356">
<time>2014-08-04T19:10:45Z</time></trkpt>
<trkpt lat="25.291489" lon="101.084386">
<time>2014-08-04T19:10:46Z</time></trkpt>
<trkpt lat="25.291509" lon="101.084416">
<time>2014-08-04T19:10:47Z</time></trkpt>
<trkpt lat="25.291509" lon="101.084466">
<time>2014-08-04T19:10:48Z</time></trkpt>
<trkpt lat="25.291509" lon="101.084486">
<time>2014-08-04T19:10:49Z</time></trkpt>
<trkpt lat="25.291519" lon="101.084506">
<time>2014-08-04T19:10:50Z</time></trkpt>
<trkpt lat="25.291509" lon="101.084536">
<time>2014-08-04T19:10:51Z</time></trkpt>
<trkpt lat="25.291509" lon="101.084566">
<time>2014-08-04T19:10:52Z</time></trkpt>
<trkpt lat="25.291499" lon="101.084586">
<time>2014-08-04T19:10:53Z</time></trkpt>
<trkpt lat="25.291339" lon="101.085195">
<time>2014-08-04T19:10:54Z</time></trkpt>
<trkpt lat="25.291329" lon="101.085285">
<time>2014-08-04T19:10:55Z</time></trkpt>
<trkpt lat="25.291308" lon="101.085385">
<time>2014-08-04T19:10:56Z</time></trkpt>
<trkpt lat="25.291288" lon="101.085544">
<time>2014-08-04T19:10:57Z</time></trkpt>
<trkpt lat="25.291288" lon="101.085654">
<time>2014-08-04T19:10:58Z</time></trkpt>
<trkpt lat="25.291288" lon="101.085724">
<time>2014-08-04T19:10:59Z</time></trkpt>
<trkpt lat="25.291308" lon="101.085774">
<time>2014-08-04T19:11:00Z</time></trkpt>
<trkpt lat="25.291328" lon="101.085814">
<time>2014-08-04T19:11:01Z</time></trkpt>
<trkpt lat="25.291358" lon="101.085844">
<time>2014-08-04T19:11:02Z</time></trkpt>
<trkpt lat="25.291388" lon="101.085864">
<time>2014-08-04T19:11:03Z</time></trkpt>
<trkpt lat="25.291418" lon="101.085874">
<time>2014-08-04T19:11:04Z</time></trkpt>
<trkpt lat="25.291448" lon="101.085884">
<time>2014-08-04T19:11:05Z</time></trkpt>
<trkpt lat="25.291478" lon="101.085884">
<time>2014-08-04T19:11:06Z</time></trkpt>
<trkpt lat="25.291518" lon="101.085884">
<time>2014-08-04T19:11:07Z</time></trkpt>
<trkpt lat="25.291548" lon="101.085874">
<time>2014-08-04T19:11:08Z</time></trkpt>
<trkpt lat="25.291578" lon="101.085854">
<time>2014-08-04T19:11:09Z</time></trkpt>
<trkpt lat="25.291608" lon="101.085834">
<time>2014-08-04T19:11:10Z</time></trkpt>
<trkpt lat="25.291628" lon="101.085814">
<time>2014-08-04T19:11:11Z</time></trkpt>
<trkpt lat="25.291658" lon="101.085764">
<time>2014-08-04T19:11:12Z</time></trkpt>
<trkpt lat="25.291698" lon="101.085694">
<time>2014-08-04T19:11:13Z</time></trkpt>
<trkpt lat="25.291718" lon="101.085614">
<time>2014-08-04T19:11:14Z</time></trkpt>
<trkpt lat="25.291839" lon="101.085255">
<time>2014-08-04T19:11:15Z</time></trkpt>
<trkpt lat="25.291889" lon="101.085135">
<time>2014-08-04T19:11:16Z</time></trkpt>
<trkpt lat="25.291979" lon="101.084975">
<time>2014-08-04T19:11:17Z</time></trkpt>
<trkpt lat="25.292059" lon="101.084865">
<time>2014-08-04T19:11:18Z</time></trkpt>
<trkpt lat="25.292139" lon="101.084795">
<time>2014-08-04T19:11:19Z</time></trkpt>
<trkpt lat="25.292269" lon="101.084705">
<time>2014-08-04T19:11:20Z</time></trkpt>
<trkpt lat="25.292549" lon="101.084566">
<time>2014-08-04T19:11:21Z</time></trkpt>
<trkpt lat="25.292599" lon="101.084526">
<time>2014-08-04T19:11:22Z</time></trkpt>
<trkpt lat="25.292649" lon="101.084486">
<time>2014-08-04T19:11:23Z</time></trkpt>
<trkpt lat="25.292679" lon="101.084436">
<time>2014-08-04T19:11:24Z</time></trkpt>
<trkpt lat="25.292709" lon="101.084376">
<time>2014-08-04T19:11:25Z</time></trkpt>
<trkpt lat="25.292719" lon="101.084326">
<time>2014-08-04T19:11:26Z</time></trkpt>
<trkpt lat="25.292769" lon="101.083976">
<time>2014-08-04T19:11:27Z</time></trkpt>
<trkpt lat="25.292779" lon="101.083896">
<time>2014-08-04T19:11:28Z</time></trkpt>
<trkpt lat="25.292799" lon="101.083816">
<time>2014-08-04T19:11:29Z</time></trkpt>
<trkpt lat="25.292819" lon="101.083756">
<time>2014-08-04T19:11:30Z</time></trkpt>
<trkpt lat="25.292839" lon="101.083697">
<time>2014-08-04T19:11:31Z</time></trkpt>
<trkpt lat="25.29287" lon="101.083647">
<time>2014-08-04T19:11:32Z</time></trkpt>
<trkpt lat="25.29292" lon="101.083597">
<time>2014-08-04T19:11:33Z</time></trkpt>
<trkpt lat="25.29299" lon="101.083537">
<time>2014-08-04T19:11:34Z</time></trkpt>
<trkpt lat="25.29307" lon="101.083467">
<time>2014-08-04T19:11:35Z</time></trkpt>
<trkpt lat="25.29322" lon="101.083367">
<time>2014-08-04T19:11:36Z</time></trkpt>
<trkpt lat="25.29369" lon="101.083067">
<time>2014-08-04T19:11:37Z</time></trkpt>
<trkpt lat="25.29384" lon="101.082997">
<time>2014-08-04T19:11:38Z</time></trkpt>
<trkpt lat="25.29395" lon="101.082977">
<time>2014-08-04T19:11:39Z</time></trkpt>
<trkpt lat="25.29404" lon="101.082977">
<time>2014-08-04T19:11:40Z</time></trkpt>
<trkpt lat="25.29414" lon="101.083007">
<time>2014-08-04T19:11:41Z</time></trkpt>
<trkpt lat="25.29423" lon="101.083077">
<time>2014-08-04T19:11:42Z</time></trkpt>
<trkpt lat="25.29431" lon="101.083177">
<time>2014-08-04T19:11:43Z</time></trkpt>
<trkpt lat="25.29437" lon="101.083317">
<time>2014-08-04T19:11:44Z</time></trkpt>
<trkpt lat="25.294529" lon="101.083936">
<time>2014-08-04T19:11:45Z</time></trkpt>
<trkpt lat="25.294559" lon="101.084056">
<time>2014-08-04T19:11:46Z</time></trkpt>
<trkpt lat="25.294579" lon="101.084126">
<time>2014-08-04T19:11:47Z</time></trkpt>
<trkpt lat="25.294609" lon="101.084196">
<time>2014-08-04T19:11:48Z</time></trkpt>
<trkpt lat="25.294629" lon="101.084256">
<time>2014-08-04T19:11:49Z</time></trkpt>
<trkpt lat="25.294659" lon="101.084306">
<time>2014-08-04T19:11:50Z</time></trkpt>
<trkpt lat="25.294699" lon="101.084356">
<time>2014-08-04T19:11:51Z</time></trkpt>
<trkpt lat="25.294739" lon="101.084396">
<time>2014-08-04T19:11:52Z</time></trkpt>
<trkpt lat="25.294779" lon="101.084416">
<time>2014-08-04T19:11:53Z</time></trkpt>
<trkpt lat="25.294809" lon="101.084436">
<time>2014-08-04T19:11:54Z</time></trkpt>
<trkpt lat="25.294839" lon="101.084436">
<time>2014-08-04T19:11:55Z</time></trkpt>
<trkpt lat="25.294869" lon="101.084436">
<time>2014-08-04T19:11:56Z</time></trkpt>
<trkpt lat="25.294909" lon="101.084436">
<time>2014-08-04T19:11:57Z</time></trkpt>
<trkpt lat="25.294949" lon="101.084416">
<time>2014-08-04T19:11:58Z</time></trkpt>
<trkpt lat="25.294979" lon="101.084406">
<time>2014-08-04T19:11:59Z</time></trkpt>
<trkpt lat="25.295019" lon="101.084376">
<time>2014-08-04T19:12:00Z</time></trkpt>
<trkpt lat="25.295039" lon="101.084346">
<time>2014-08-04T19:12:01Z</time></trkpt>
<trkpt lat="25.295069" lon="101.084306">
<time>2014-08-04T19:12:02Z</time></trkpt>
<trkpt lat="25.295089" lon="101.084276">
<time>2014-08-04T19:12:03Z</time></trkpt>
<trkpt lat="25.295109" lon="101.084196">
<time>2014-08-04T19:12:04Z</time></trkpt>
<trkpt lat="25.295129" lon="101.084106">
<time>2014-08-04T19:12:05Z</time></trkpt>
<trkpt lat="25.295139" lon="101.084006">
<time>2014-08-04T19:12:06Z</time></trkpt>
<trkpt lat="25.29516" lon="101.083417">
<time>2014-08-04T19:12:07Z</time></trkpt>
<trkpt lat="25.29519" lon="101.083257">
<time>2014-08-04T19:12:08Z</time></trkpt>
<trkpt lat="25.29523" lon="101.083117">
<time>2014-08-04T19:12:09Z</time></trkpt>
<trkpt lat="25.29529" lon="101.082997">
<time>2014-08-04T19:12:10Z</time></trkpt>
<trkpt lat="25.29539" lon="101.082907">
<time>2014-08-04T19:12:11Z</time></trkpt>
<trkpt lat="25.29548" lon="101.082828">
<time>2014-08-04T19:12:12Z</time></trkpt>
<trkpt lat="25.29556" lon="101.082748">
<time>2014-08-04T19:12:13Z</time></trkpt>
<trkpt lat="25.29561" lon="101.082698">
<time>2014-08-04T19:12:14Z</time></trkpt>
<trkpt lat="25.29563" lon="101.082658">
<time>2014-08-04T19:12:15Z</time></trkpt>
<trkpt lat="25.29565" lon="101.082628">
<time>2014-08-04T19:12:16Z</time></trkpt>
<trkpt lat="25.29566" lon="101.082578">
<time>2014-08-04T19:12:17Z</time></trkpt>
<trkpt lat="25.29567" lon="101.082528">
<time>2014-08-04T19:12:18Z</time></trkpt>
<trkpt lat="25.29568" lon="101.082458">
<time>2014-08-04T19:12:19Z</time></trkpt>
<trkpt lat="25.295671" lon="101.082198">
<time>2014-08-04T19:12:20Z</time></trkpt>
<trkpt lat="25.295641" lon="101.081819">
<time>2014-08-04T19:12:21Z</time></trkpt>
<trkpt lat="25.295621" lon="101.081709">
<time>2014-08-04T19:12:22Z</time></trkpt>
<trkpt lat="25.295621" lon="101.081669">
<time>2014-08-04T19:12:23Z</time></trkpt>
<trkpt lat="25.295621" lon="101.081619">
<time>2014-08-04T19:12:24Z</time></trkpt>
<trkpt lat="25.295621" lon="101.081579">
<time>2014-08-04T19:12:25Z</time></trkpt>
<trkpt lat="25.295631" lon="101.081539">
<time>2014-08-04T19:12:26Z</time></trkpt>
<trkpt lat="25.295631" lon="101.081499">
<time>2014-08-04T19:12:27Z</time></trkpt>
<trkpt lat="25.295631" lon="101.081459">
<time>2014-08-04T19:12:28Z</time></trkpt>
<trkpt lat="25.295651" lon="101.081419">
<time>2014-08-04T19:12:29Z</time></trkpt>
<trkpt lat="25.295661" lon="101.081389">
<time>2014-08-04T19:12:30Z</time></trkpt>
<trkpt lat="25.295681" lon="101.081369">
<time>2014-08-04T19:12:31Z</time></trkpt>
<trkpt lat="25.295691" lon="101.081349">
<time>2014-08-04T19:12:32Z</time></trkpt>
<trkpt lat="25.295711" lon="101.081339">
<time>2014-08-04T19:12:33Z</time></trkpt>
<trkpt lat="25.295721" lon="101.081329">
<time>2014-08-04T19:12:34Z</time></trkpt>
<trkpt lat="25.295741" lon="101.081319">
<time>2014-08-04T19:12:35Z</time></trkpt>
<trkpt lat="25.295761" lon="101.081319">
<time>2014-08-04T19:12:36Z</time></trkpt>
<trkpt lat="25.295781" lon="101.081309">
<time>2014-08-04T19:12:37Z</time></trkpt>
<trkpt lat="25.295801" lon="101.081309">
<time>2014-08-04T19:12:38Z</time></trkpt>
<trkpt lat="25.295821" lon="101.081309">
<time>2014-08-04T19:12:39Z</time></trkpt>
<trkpt lat="25.295851" lon="101.081309">
<time>2014-08-04T19:12:40Z</time></trkpt>
<trkpt lat="25.295871" lon="101.081309">
<time>2014-08-04T19:12:41Z</time></trkpt>
<trkpt lat="25.295891" lon="101.081319">
<time>2014-08-04T19:12:42Z</time></trkpt>
<trkpt lat="25.295911" lon="101.081329">
<time>2014-08-04T19:12:43Z</time></trkpt>
<trkpt lat="25.295931" lon="101.081329">
<time>2014-08-04T19:12:44Z</time></trkpt>
<trkpt lat="25.295951" lon="101.081339">
<time>2014-08-04T19:12:45Z</time></trkpt>
<trkpt lat="25.296251" lon="101.081489">
<time>2014-08-04T19:12:46Z</time></trkpt>
<trkpt lat="25.296331" lon="101.081509">
<time>2014-08-04T19:12:47Z</time></trkpt>
<trkpt lat="25.296431" lon="101.081529">
<time>2014-08-04T19:12:48Z</time></trkpt>
<trkpt lat="25.296511" lon="101.081519">
<time>2014-08-04T19:12:49Z</time></trkpt>
<trkpt lat="25.296591" lon="101.081489">
<time>2014-08-04T19:12:50Z</time></trkpt>
<trkpt lat="25.296641" lon="101.081459">
<time>2014-08-04T19:12:51Z</time></trkpt>
<trkpt lat="25.296671" lon="101.081429">
<time>2014-08-04T19:12:52Z</time></trkpt>
<trkpt lat="25.296721" lon="101.081369">
<time>2014-08-04T19:12:53Z</time></trkpt>
<trkpt lat="25.296751" lon="101.081319">
<time>2014-08-04T19:12:54Z</time></trkpt>
<trkpt lat="25.296781" lon="101.081239">
<time>2014-08-04T19:12:55Z</time></trkpt>
<trkpt lat="25.296791" lon="101.08118">
<time>2014-08-04T19:12:56Z</time></trkpt>
<trkpt lat="25.296791" lon="101.08111">
<time>2014-08-04T19:12:57Z</time></trkpt>
<trkpt lat="25.296781" lon="101.08106">
<time>2014-08-04T19:12:58Z</time></trkpt>
<trkpt lat="25.296732" lon="101.08081">
<time>2014-08-04T19:12:59Z</time></trkpt>
<trkpt lat="25.296722" lon="101.08071">
<time>2014-08-04T19:13:00Z</time></trkpt>
<trkpt lat="25.296732" lon="101.08064">
<time>2014-08-04T19:13:01Z</time></trkpt>
<trkpt lat="25.296742" lon="101.08057">
<time>2014-08-04T19:13:02Z</time></trkpt>
<trkpt lat="25.296762" lon="101.08053">
<time>2014-08-04T19:13:03Z</time></trkpt>
<trkpt lat="25.296902" lon="101.080271">
<time>2014-08-04T19:13:04Z</time></trkpt>
<trkpt lat="25.296922" lon="101.080221">
<time>2014-08-04T19:13:05Z</time></trkpt>
<trkpt lat="25.296942" lon="101.080171">
<time>2014-08-04T19:13:06Z</time></trkpt>
<trkpt lat="25.296952" lon="101.080131">
<time>2014-08-04T19:13:07Z</time></trkpt>
<trkpt lat="25.296962" lon="101.080101">
<time>2014-08-04T19:13:08Z</time></trkpt>
<trkpt lat="25.296962" lon="101.080061">
<time>2014-08-04T19:13:09Z</time></trkpt>
<trkpt lat="25.296962" lon="101.080011">
<time>2014-08-04T19:13:10Z</time></trkpt>
<trkpt lat="25.296952" lon="101.079961">
<time>2014-08-04T19:13:11Z</time></trkpt>
<trkpt lat="25.296922" lon="101.079831">
<time>2014-08-04T19:13:12Z</time></trkpt>
<trkpt lat="25.296892" lon="101.079732">
<time>2014-08-04T19:13:13Z</time></trkpt>
<trkpt lat="25.296882" lon="101.079672">
<time>2014-08-04T19:13:14Z</time></trkpt>
<trkpt lat="25.296882" lon="101.079622">
<time>2014-08-04T19:13:15Z</time></trkpt>
<trkpt lat="25.296883" lon="101.079572">
<time>2014-08-04T19:13:16Z</time></trkpt>
<trkpt lat="25.296893" lon="101.079522">
<time>2014-08-04T19:13:17Z</time></trkpt>
<trkpt lat="25.296913" lon="101.079452">
<time>2014-08-04T19:13:18Z</time></trkpt>
<trkpt lat="25.296933" lon="101.079382">
<time>2014-08-04T19:13:19Z</time></trkpt>
<trkpt lat="25.297243" lon="101.078813">
<time>2014-08-04T19:13:20Z</time></trkpt>
<trkpt lat="25.297273" lon="101.078773">
<time>2014-08-04T19:13:21Z</time></trkpt>
<trkpt lat="25.297303" lon="101.078733">
<time>2014-08-04T19:13:22Z</time></trkpt>
<trkpt lat="25.297333" lon="101.078703">
<time>2014-08-04T19:13:23Z</time></trkpt>
<trkpt lat="25.297373" lon="101.078673">
<time>2014-08-04T19:13:24Z</time></trkpt>
<trkpt lat="25.297403" lon="101.078663">
<time>2014-08-04T19:13:25Z</time></trkpt>
<trkpt lat="25.297433" lon="101.078653">
<time>2014-08-04T19:13:26Z</time></trkpt>
<trkpt lat="25.297473" lon="101.078643">
<time>2014-08-04T19:13:27Z</time></trkpt>
<trkpt lat="25.297503" lon="101.078653">
<time>2014-08-04T19:13:28Z</time></trkpt>
<trkpt lat="25.297533" lon="101.078663">
<time>2014-08-04T19:13:29Z</time></trkpt>
<trkpt lat="25.297563" lon="101.078673">
<time>2014-08-04T19:13:30Z</time></trkpt>
<trkpt lat="25.297583" lon="101.078693">
<time>2014-08-04T19:13:31Z</time></trkpt>
<trkpt lat="25.297603" lon="101.078713">
<time>2014-08-04T19:13:32Z</time></trkpt>
<trkpt lat="25.297633" lon="101.078753">
<time>2014-08-04T19:13:33Z</time></trkpt>
<trkpt lat="25.297663" lon="101.078793">
<time>2014-08-04T19:13:34Z</time></trkpt>
<trkpt lat="25.297733" lon="101.078923">
<time>2014-08-04T19:13:35Z</time></trkpt>
<trkpt lat="25.297803" lon="101.079112">
<time>2014-08-04T19:13:36Z</time></trkpt>
<trkpt lat="25.297873" lon="101.079312">
<time>2014-08-04T19:13:37Z</time></trkpt>
<trkpt lat="25.297923" lon="101.079402">
<time>2014-08-04T19:13:38Z</time></trkpt>
<trkpt lat="25.297973" lon="101.079462">
<time>2014-08-04T19:13:39Z</time></trkpt>
<trkpt lat="25.298013" lon="101.079482">
<time>2014-08-04T19:13:40Z</time></trkpt>
<trkpt lat="25.298063" lon="101.079492">
<time>2014-08-04T19:13:41Z</time></trkpt>
<trkpt lat="25.298093" lon="101.079492">
<time>2014-08-04T19:13:42Z</time></trkpt>
<trkpt lat="25.298143" lon="101.079492">
<time>2014-08-04T19:13:43Z</time></trkpt>
<trkpt lat="25.298173" lon="101.079482">
<time>2014-08-04T19:13:44Z</time></trkpt>
<trkpt lat="25.298213" lon="101.079472">
<time>2014-08-04T19:13:45Z</time></trkpt>
<trkpt lat="25.298253" lon="101.079452">
<time>2014-08-04T19:13:46Z</time></trkpt>
<trkpt lat="25.298283" lon="101.079422">
<time>2014-08-04T19:13:47Z</time></trkpt>
<trkpt lat="25.298313" lon="101.079392">
<time>2014-08-04T19:13:48Z</time></trkpt>
<trkpt lat="25.298343" lon="101.079352">
<time>2014-08-04T19:13:49Z</time></trkpt>
<trkpt lat="25.298363" lon="101.079322">
<time>2014-08-04T19:13:50Z</time></trkpt>
<trkpt lat="25.298383" lon="101.079272">
<time>2014-08-04T19:13:51Z</time></trkpt>
<trkpt lat="25.298393" lon="101.079232">
<time>2014-08-04T19:13:52Z</time></trkpt>
<trkpt lat="25.298413" lon="101.079142">
<time>2014-08-04T19:13:53Z</time></trkpt>
<trkpt lat="25.298423" lon="101.078953">
<time>2014-08-04T19:13:54Z</time></trkpt>
<trkpt lat="25.298443" lon="101.078853">
<time>2014-08-04T19:13:55Z</time></trkpt>
<trkpt lat="25.298473" lon="101.078773">
<time>2014-08-04T19:13:56Z</time></trkpt>
<trkpt lat="25.298513" lon="101.078693">
<time>2014-08-04T19:13:57Z</time></trkpt>
<trkpt lat="25.298573" lon="101.078603">
<time>2014-08-04T19:13:58Z</time></trkpt>
<trkpt lat="25.298764" lon="101.078383">
<time>2014-08-04T19:13:59Z</time></trkpt>
<trkpt lat="25.298844" lon="101.078274">
<time>2014-08-04T19:14:00Z</time></trkpt>
<trkpt lat="25.298904" lon="101.078164">
<time>2014-08-04T19:14:01Z</time></trkpt>
<trkpt lat="25.299044" lon="101.077714">
<time>2014-08-04T19:14:02Z</time></trkpt>
<trkpt lat="25.299074" lon="101.077624">
<time>2014-08-04T19:14:03Z</time></trkpt>
<trkpt lat="25.299114" lon="101.077565">
<time>2014-08-04T19:14:04Z</time></trkpt>
<trkpt lat="25.299134" lon="101.077525">
<time>2014-08-04T19:14:05Z</time></trkpt>
<trkpt lat="25.299164" lon="101.077495">
<time>2014-08-04T19:14:06Z</time></trkpt>
<trkpt lat="25.299204" lon="101.077465">
<time>2014-08-04T19:14:07Z</time></trkpt>
<trkpt lat="25.299264" lon="101.077435">
<time>2014-08-04T19:14:08Z</time></trkpt>
<trkpt lat="25.299334" lon="101.077415">
<time>2014-08-04T19:14:09Z</time></trkpt>
<trkpt lat="25.299394" lon="101.077405">
<time>2014-08-04T19:14:10Z</time></trkpt>
<trkpt lat="25.299745" lon="101.077375">
<time>2014-08-04T19:14:11Z</time></trkpt>
<trkpt lat="25.299945" lon="101.077375">
<time>2014-08-04T19:14:12Z</time></trkpt>
<trkpt lat="25.300065" lon="101.077385">
<time>2014-08-04T19:14:13Z</time></trkpt>
<trkpt lat="25.300165" lon="101.077405">
<time>2014-08-04T19:14:14Z</time></trkpt>
<trkpt lat="25.300265" lon="101.077435">
<time>2014-08-04T19:14:15Z</time></trkpt>
<trkpt lat="25.300564" lon="101.077574">
<time>2014-08-04T19:14:16Z</time></trkpt>
<trkpt lat="25.300864" lon="101.077734">
<time>2014-08-04T19:14:17Z</time></trkpt>
<trkpt lat="25.301024" lon="101.077834">
<time>2014-08-04T19:14:18Z</time></trkpt>
<trkpt lat="25.301114" lon="101.077884">
<time>2014-08-04T19:14:19Z</time></trkpt>
<trkpt lat="25.301174" lon="101.077904">
<time>2014-08-04T19:14:20Z</time></trkpt>
<trkpt lat="25.301224" lon="101.077914">
<time>2014-08-04T19:14:21Z</time></trkpt>
<trkpt lat="25.301284" lon="101.077904">
<time>2014-08-04T19:14:22Z</time></trkpt>
<trkpt lat="25.301334" lon="101.077884">
<time>2014-08-04T19:14:23Z</time></trkpt>
<trkpt lat="25.301374" lon="101.077854">
<time>2014-08-04T19:14:24Z</time></trkpt>
<trkpt lat="25.301414" lon="101.077814">
<time>2014-08-04T19:14:25Z</time></trkpt>
<trkpt lat="25.301444" lon="101.077764">
<time>2014-08-04T19:14:26Z</time></trkpt>
<trkpt lat="25.301474" lon="101.077714">
<time>2014-08-04T19:14:27Z</time></trkpt>
<trkpt lat="25.301494" lon="101.077644">
<time>2014-08-04T19:14:28Z</time></trkpt>
<trkpt lat="25.301504" lon="101.077574">
<time>2014-08-04T19:14:29Z</time></trkpt>
<trkpt lat="25.301495" lon="101.077485">
<time>2014-08-04T19:14:30Z</time></trkpt>
<trkpt lat="25.301395" lon="101.077055">
<time>2014-08-04T19:14:31Z</time></trkpt>
<trkpt lat="25.301385" lon="101.076965">
<time>2014-08-04T19:14:32Z</time></trkpt>
<trkpt lat="25.301385" lon="101.076876">
<time>2014-08-04T19:14:33Z</time></trkpt>
<trkpt lat="25.301395" lon="101.076816">
<time>2014-08-04T19:14:34Z</time></trkpt>
<trkpt lat="25.301415" lon="101.076736">
<time>2014-08-04T19:14:35Z</time></trkpt>
<trkpt lat="25.301445" lon="101.076676">
<time>2014-08-04T19:14:36Z</time></trkpt>
<trkpt lat="25.301485" lon="101.076616">
<time>2014-08-04T19:14:37Z</time></trkpt>
<trkpt lat="25.301535" lon="101.076586">
<time>2014-08-04T19:14:38Z</time></trkpt>
<trkpt lat="25.301585" lon="101.076546">
<time>2014-08-04T19:14:39Z</time></trkpt>
<trkpt lat="25.301645" lon="101.076516">
<time>2014-08-04T19:14:40Z</time></trkpt>
<trkpt lat="25.301936" lon="101.076366">
<time>2014-08-04T19:14:41Z</time></trkpt>
<trkpt lat="25.302006" lon="101.076316">
<time>2014-08-04T19:14:42Z</time></trkpt>
<trkpt lat="25.302056" lon="101.076266">
<time>2014-08-04T19:14:43Z</time></trkpt>
<trkpt lat="25.302096" lon="101.076207">
<time>2014-08-04T19:14:44Z</time></trkpt>
<trkpt lat="25.302126" lon="101.076157">
<time>2014-08-04T19:14:45Z</time></trkpt>
<trkpt lat="25.302146" lon="101.076107">
<time>2014-08-04T19:14:46Z</time></trkpt>
<trkpt lat="25.302166" lon="101.076057">
<time>2014-08-04T19:14:47Z</time></trkpt>
<trkpt lat="25.302186" lon="101.075997">
<time>2014-08-04T19:14:48Z</time></trkpt>
<trkpt lat="25.302196" lon="101.075947">
<time>2014-08-04T19:14:49Z</time></trkpt>
<trkpt lat="25.302206" lon="101.075897">
<time>2014-08-04T19:14:50Z</time></trkpt>
<trkpt lat="25.302216" lon="101.075857">
<time>2014-08-04T19:14:51Z</time></trkpt>
<trkpt lat="25.302216" lon="101.075807">
<time>2014-08-04T19:14:52Z</time></trkpt>
<trkpt lat="25.302226" lon="101.075747">
<time>2014-08-04T19:14:53Z</time></trkpt>
<trkpt lat="25.302226" lon="101.075677">
<time>2014-08-04T19:14:54Z</time></trkpt>
<trkpt lat="25.302216" lon="101.075518">
<time>2014-08-04T19:14:55Z</time></trkpt>
<trkpt lat="25.302187" lon="101.075318">
<time>2014-08-04T19:14:56Z</time></trkpt>
<trkpt lat="25.302177" lon="101.075238">
<time>2014-08-04T19:14:57Z</time></trkpt>
<trkpt lat="25.302167" lon="101.075178">
<time>2014-08-04T19:14:58Z</time></trkpt>
<trkpt lat="25.302147" lon="101.075128">
<time>2014-08-04T19:14:59Z</time></trkpt>
<trkpt lat="25.302127" lon="101.075078">
<time>2014-08-04T19:15:00Z</time></trkpt>
<trkpt lat="25.302107" lon="101.075028">
<time>2014-08-04T19:15:01Z</time></trkpt>
<trkpt lat="25.302077" lon="101.074998">
<time>2014-08-04T19:15:02Z</time></trkpt>
<trkpt lat="25.302037" lon="101.074969">
<time>2014-08-04T19:15:03Z</time></trkpt>
<trkpt lat="25.301997" lon="101.074949">
<time>2014-08-04T19:15:04Z</time></trkpt>
<trkpt lat="25.301937" lon="101.074939">
<time>2014-08-04T19:15:05Z</time></trkpt>
<trkpt lat="25.301877" lon="101.074929">
<time>2014-08-04T19:15:06Z</time></trkpt>
<trkpt lat="25.301667" lon="101.074899">
<time>2014-08-04T19:15:07Z</time></trkpt>
<trkpt lat="25.301607" lon="101.074889">
<time>2014-08-04T19:15:08Z</time></trkpt>
<trkpt lat="25.301547" lon="101.074869">
<time>2014-08-04T19:15:09Z</time></trkpt>
<trkpt lat="25.301477" lon="101.074819">
<time>2014-08-04T19:15:10Z</time></trkpt>
<trkpt lat="25.301427" lon="101.074739">
<time>2014-08-04T19:15:11Z</time></trkpt>
<trkpt lat="25.301387" lon="101.074669">
<time>2014-08-04T19:15:12Z</time></trkpt>
<trkpt lat="25.301367" lon="101.074579">
<time>2014-08-04T19:15:13Z</time></trkpt>
<trkpt lat="25.301367" lon="101.074499">
<time>2014-08-04T19:15:14Z</time></trkpt>
<trkpt lat="25.301398" lon="101.07427">
<time>2014-08-04T19:15:15Z</time></trkpt>
<trkpt lat="25.301438" lon="101.07399">
<time>2014-08-04T19:15:16Z</time></trkpt>
<trkpt lat="25.301498" lon="101.073731">
<time>2014-08-04T19:15:17Z</time></trkpt>
<trkpt lat="25.301578" lon="101.073481">
<time>2014-08-04T19:15:18Z</time></trkpt>
<trkpt lat="25.301679" lon="101.073191">
<time>2014-08-04T19:15:19Z</time></trkpt>
<trkpt lat="25.301729" lon="101.073072">
<time>2014-08-04T19:15:20Z</time></trkpt>
<trkpt lat="25.301809" lon="101.072962">
<time>2014-08-04T19:15:21Z</time></trkpt>
<trkpt lat="25.301889" lon="101.072892">
<time>2014-08-04T19:15:22Z</time></trkpt>
<trkpt lat="25.301999" lon="101.072822">
<time>2014-08-04T19:15:23Z</time></trkpt>
<trkpt lat="25.30305" lon="101.072363">
<time>2014-08-04T19:15:24Z</time></trkpt>
<trkpt lat="25.30314" lon="101.072303">
<time>2014-08-04T19:15:25Z</time></trkpt>
<trkpt lat="25.30319" lon="101.072263">
<time>2014-08-04T19:15:26Z</time></trkpt>
<trkpt lat="25.30322" lon="101.072223">
<time>2014-08-04T19:15:27Z</time></trkpt>
<trkpt lat="25.30324" lon="101.072183">
<time>2014-08-04T19:15:28Z</time></trkpt>
<trkpt lat="25.30327" lon="101.072093">
<time>2014-08-04T19:15:29Z</time></trkpt>
<trkpt lat="25.3033" lon="101.071854">
<time>2014-08-04T19:15:30Z</time></trkpt>
<trkpt lat="25.30332" lon="101.071744">
<time>2014-08-04T19:15:31Z</time></trkpt>
<trkpt lat="25.30335" lon="101.071644">
<time>2014-08-04T19:15:32Z</time></trkpt>
<trkpt lat="25.303381" lon="101.071564">
<time>2014-08-04T19:15:33Z</time></trkpt>
<trkpt lat="25.303431" lon="101.071474">
<time>2014-08-04T19:15:34Z</time></trkpt>
<trkpt lat="25.303501" lon="101.071365">
<time>2014-08-04T19:15:35Z</time></trkpt>
<trkpt lat="25.303581" lon="101.071265">
<time>2014-08-04T19:15:36Z</time></trkpt>
<trkpt lat="25.303671" lon="101.071125">
<time>2014-08-04T19:15:37Z</time></trkpt>
<trkpt lat="25.303741" lon="101.071015">
<time>2014-08-04T19:15:38Z</time></trkpt>
<trkpt lat="25.303791" lon="101.070895">
<time>2014-08-04T19:15:39Z</time></trkpt>
<trkpt lat="25.304152" lon="101.070007">
<time>2014-08-04T19:15:40Z</time></trkpt>
<trkpt lat="25.304243" lon="101.069778">
<time>2014-08-04T19:15:41Z</time></trkpt>
<trkpt lat="25.304323" lon="101.069618">
<time>2014-08-04T19:15:42Z</time></trkpt>
<trkpt lat="25.304373" lon="101.069548">
<time>2014-08-04T19:15:43Z</time></trkpt>
<trkpt lat="25.304423" lon="101.069478">
<time>2014-08-04T19:15:44Z</time></trkpt>
<trkpt lat="25.304473" lon="101.069448">
<time>2014-08-04T19:15:45Z</time></trkpt>
<trkpt lat="25.304493" lon="101.069428">
<time>2014-08-04T19:15:46Z</time></trkpt>
<trkpt lat="25.304583" lon="101.069388">
<time>2014-08-04T19:15:47Z</time></trkpt>
<trkpt lat="25.304703" lon="101.069348">
<time>2014-08-04T19:15:48Z</time></trkpt>
<trkpt lat="25.305023" lon="101.069298">
<time>2014-08-04T19:15:49Z</time></trkpt>
<trkpt lat="25.305973" lon="101.069229">
<time>2014-08-04T19:15:50Z</time></trkpt>
<trkpt lat="25.306074" lon="101.069209">
<time>2014-08-04T19:15:51Z</time></trkpt>
<trkpt lat="25.306164" lon="101.069169">
<time>2014-08-04T19:15:52Z</time></trkpt>
<trkpt lat="25.306244" lon="101.069109">
<time>2014-08-04T19:15:53Z</time></trkpt>
<trkpt lat="25.306254" lon="101.069099">
<time>2014-08-04T19:15:54Z</time></trkpt>
<trkpt lat="25.306324" lon="101.069009">
<time>2014-08-04T19:15:55Z</time></trkpt>
<trkpt lat="25.306374" lon="101.068919">
<time>2014-08-04T19:15:56Z</time></trkpt>
<trkpt lat="25.306575" lon="101.06833">
<time>2014-08-04T19:15:57Z</time></trkpt>
<trkpt lat="25.306675" lon="101.068111">
<time>2014-08-04T19:15:58Z</time></trkpt>
<trkpt lat="25.306765" lon="101.067941">
<time>2014-08-04T19:15:59Z</time></trkpt>
<trkpt lat="25.306845" lon="101.067821">
<time>2014-08-04T19:16:00Z</time></trkpt>
<trkpt lat="25.306925" lon="101.067721">
<time>2014-08-04T19:16:01Z</time></trkpt>
<trkpt lat="25.307006" lon="101.067642">
<time>2014-08-04T19:16:02Z</time></trkpt>
<trkpt lat="25.307076" lon="101.067592">
<time>2014-08-04T19:16:03Z</time></trkpt>
<trkpt lat="25.307216" lon="101.067512">
<time>2014-08-04T19:16:04Z</time></trkpt>
<trkpt lat="25.307396" lon="101.067422">
<time>2014-08-04T19:16:05Z</time></trkpt>
<trkpt lat="25.307546" lon="101.067372">
<time>2014-08-04T19:16:06Z</time></trkpt>
<trkpt lat="25.307716" lon="101.067302">
<time>2014-08-04T19:16:07Z</time></trkpt>
<trkpt lat="25.307816" lon="101.067262">
<time>2014-08-04T19:16:08Z</time></trkpt>
<trkpt lat="25.307896" lon="101.067232">
<time>2014-08-04T19:16:09Z</time></trkpt>
<trkpt lat="25.308006" lon="101.067182">
<time>2014-08-04T19:16:10Z</time></trkpt>
<trkpt lat="25.308086" lon="101.067162">
<time>2014-08-04T19:16:11Z</time></trkpt>
<trkpt lat="25.308186" lon="101.067123">
<time>2014-08-04T19:16:12Z</time></trkpt>
<trkpt lat="25.308266" lon="101.067083">
<time>2014-08-04T19:16:13Z</time></trkpt>
<trkpt lat="25.308316" lon="101.067063">
<time>2014-08-04T19:16:14Z</time></trkpt>
<trkpt lat="25.308356" lon="101.067033">
<time>2014-08-04T19:16:15Z</time></trkpt>
<trkpt lat="25.308387" lon="101.067003">
<time>2014-08-04T19:16:16Z</time></trkpt>
<trkpt lat="25.308427" lon="101.066963">
<time>2014-08-04T19:16:17Z</time></trkpt>
<trkpt lat="25.308437" lon="101.066933">
<time>2014-08-04T19:16:18Z</time></trkpt>
<trkpt lat="25.308457" lon="101.066903">
<time>2014-08-04T19:16:19Z</time></trkpt>
<trkpt lat="25.308467" lon="101.066853">
<time>2014-08-04T19:16:20Z</time></trkpt>
<trkpt lat="25.308477" lon="101.066803">
<time>2014-08-04T19:16:21Z</time></trkpt>
<trkpt lat="25.308477" lon="101.066743">
<time>2014-08-04T19:16:22Z</time></trkpt>
<trkpt lat="25.308467" lon="101.066693">
<time>2014-08-04T19:16:23Z</time></trkpt>
<trkpt lat="25.308457" lon="101.066654">
<time>2014-08-04T19:16:24Z</time></trkpt>
<trkpt lat="25.308437" lon="101.066614">
<time>2014-08-04T19:16:25Z</time></trkpt>
<trkpt lat="25.308407" lon="101.066574">
<time>2014-08-04T19:16:26Z</time></trkpt>
<trkpt lat="25.308377" lon="101.066544">
<time>2014-08-04T19:16:27Z</time></trkpt>
<trkpt lat="25.308357" lon="101.066514">
<time>2014-08-04T19:16:28Z</time></trkpt>
<trkpt lat="25.308317" lon="101.066494">
<time>2014-08-04T19:16:29Z</time></trkpt>
<trkpt lat="25.308287" lon="101.066474">
<time>2014-08-04T19:16:30Z</time></trkpt>
<trkpt lat="25.308237" lon="101.066454">
<time>2014-08-04T19:16:31Z</time></trkpt>
<trkpt lat="25.308137" lon="101.066424">
<time>2014-08-04T19:16:32Z</time></trkpt>
<trkpt lat="25.307947" lon="101.066374">
<time>2014-08-04T19:16:33Z</time></trkpt>
<trkpt lat="25.307897" lon="101.066354">
<time>2014-08-04T19:16:34Z</time></trkpt>
<trkpt lat="25.307847" lon="101.066324">
<time>2014-08-04T19:16:35Z</time></trkpt>
<trkpt lat="25.307817" lon="101.066304">
<time>2014-08-04T19:16:36Z</time></trkpt>
<trkpt lat="25.307787" lon="101.066284">
<time>2014-08-04T19:16:37Z</time></trkpt>
<trkpt lat="25.307757" lon="101.066254">
<time>2014-08-04T19:16:38Z</time></trkpt>
<trkpt lat="25.307738" lon="101.066224">
<time>2014-08-04T19:16:39Z</time></trkpt>
<trkpt lat="25.307698" lon="101.066184">
<time>2014-08-04T19:16:40Z</time></trkpt>
<trkpt lat="25.307678" lon="101.066145">
<time>2014-08-04T19:16:41Z</time></trkpt>
<trkpt lat="25.307628" lon="101.066025">
<time>2014-08-04T19:16:42Z</time></trkpt>
<trkpt lat="25.307598" lon="101.065895">
<time>2014-08-04T19:16:43Z</time></trkpt>
<trkpt lat="25.307509" lon="101.065456">
<time>2014-08-04T19:16:44Z</time></trkpt>
<trkpt lat="25.307389" lon="101.064787">
<time>2014-08-04T19:16:45Z</time></trkpt>
<trkpt lat="25.30737" lon="101.064608">
<time>2014-08-04T19:16:46Z</time></trkpt>
<trkpt lat="25.30736" lon="101.064448">
<time>2014-08-04T19:16:47Z</time></trkpt>
<trkpt lat="25.30736" lon="101.064328">
<time>2014-08-04T19:16:48Z</time></trkpt>
<trkpt lat="25.30736" lon="101.064278">
<time>2014-08-04T19:16:49Z</time></trkpt>
<trkpt lat="25.307371" lon="101.064029">
<time>2014-08-04T19:16:50Z</time></trkpt>
<trkpt lat="25.307401" lon="101.06346">
<time>2014-08-04T19:16:51Z</time></trkpt>
<trkpt lat="25.307412" lon="101.063261">
<time>2014-08-04T19:16:52Z</time></trkpt>
<trkpt lat="25.307412" lon="101.063061">
<time>2014-08-04T19:16:53Z</time></trkpt>
<trkpt lat="25.307392" lon="101.062862">
<time>2014-08-04T19:16:54Z</time></trkpt>
<trkpt lat="25.307343" lon="101.062612">
<time>2014-08-04T19:16:55Z</time></trkpt>
<trkpt lat="25.307263" lon="101.062343">
<time>2014-08-04T19:16:56Z</time></trkpt>
<trkpt lat="25.307124" lon="101.061984">
<time>2014-08-04T19:16:57Z</time></trkpt>
<trkpt lat="25.307104" lon="101.061854">
<time>2014-08-04T19:16:58Z</time></trkpt>
<trkpt lat="25.307094" lon="101.061734">
<time>2014-08-04T19:16:59Z</time></trkpt>
<trkpt lat="25.307094" lon="101.061624">
<time>2014-08-04T19:17:00Z</time></trkpt>
<trkpt lat="25.307114" lon="101.061495">
<time>2014-08-04T19:17:01Z</time></trkpt>
<trkpt lat="25.307135" lon="101.061395">
<time>2014-08-04T19:17:02Z</time></trkpt>
<trkpt lat="25.307165" lon="101.061285">
<time>2014-08-04T19:17:03Z</time></trkpt>
<trkpt lat="25.307195" lon="101.061215">
<time>2014-08-04T19:17:04Z</time></trkpt>
<trkpt lat="25.307225" lon="101.061135">
<time>2014-08-04T19:17:05Z</time></trkpt>
<trkpt lat="25.307255" lon="101.061076">
<time>2014-08-04T19:17:06Z</time></trkpt>
<trkpt lat="25.307295" lon="101.061026">
<time>2014-08-04T19:17:07Z</time></trkpt>
<trkpt lat="25.307335" lon="101.060966">
<time>2014-08-04T19:17:08Z</time></trkpt>
<trkpt lat="25.307395" lon="101.060916">
<time>2014-08-04T19:17:09Z</time></trkpt>
<trkpt lat="25.307455" lon="101.060866">
<time>2014-08-04T19:17:10Z</time></trkpt>
<trkpt lat="25.307896" lon="101.060607">
<time>2014-08-04T19:17:11Z</time></trkpt>
<trkpt lat="25.308096" lon="101.060467">
<time>2014-08-04T19:17:12Z</time></trkpt>
<trkpt lat="25.308186" lon="101.060367">
<time>2014-08-04T19:17:13Z</time></trkpt>
<trkpt lat="25.308216" lon="101.060317">
<time>2014-08-04T19:17:14Z</time></trkpt>
<trkpt lat="25.308236" lon="101.060257">
<time>2014-08-04T19:17:15Z</time></trkpt>
<trkpt lat="25.308246" lon="101.060198">
<time>2014-08-04T19:17:16Z</time></trkpt>
<trkpt lat="25.308247" lon="101.060148">
<time>2014-08-04T19:17:17Z</time></trkpt>
<trkpt lat="25.308227" lon="101.060088">
<time>2014-08-04T19:17:18Z</time></trkpt>
<trkpt lat="25.308207" lon="101.060038">
<time>2014-08-04T19:17:19Z</time></trkpt>
<trkpt lat="25.308167" lon="101.059978">
<time>2014-08-04T19:17:20Z</time></trkpt>
<trkpt lat="25.308117" lon="101.059938">
<time>2014-08-04T19:17:21Z</time></trkpt>
<trkpt lat="25.308067" lon="101.059918">
<time>2014-08-04T19:17:22Z</time></trkpt>
<trkpt lat="25.307987" lon="101.059898">
<time>2014-08-04T19:17:23Z</time></trkpt>
<trkpt lat="25.307887" lon="101.059888">
<time>2014-08-04T19:17:24Z</time></trkpt>
<trkpt lat="25.307787" lon="101.059878">
<time>2014-08-04T19:17:25Z</time></trkpt>
<trkpt lat="25.307697" lon="101.059868">
<time>2014-08-04T19:17:26Z</time></trkpt>
<trkpt lat="25.307627" lon="101.059838">
<time>2014-08-04T19:17:27Z</time></trkpt>
<trkpt lat="25.307587" lon="101.059809">
<time>2014-08-04T19:17:28Z</time></trkpt>
<trkpt lat="25.307547" lon="101.059759">
<time>2014-08-04T19:17:29Z</time></trkpt>
<trkpt lat="25.307517" lon="101.059699">
<time>2014-08-04T19:17:30Z</time></trkpt>
<trkpt lat="25.307507" lon="101.059619">
<time>2014-08-04T19:17:31Z</time></trkpt>
<trkpt lat="25.307517" lon="101.059559">
<time>2014-08-04T19:17:32Z</time></trkpt>
<trkpt lat="25.307548" lon="101.059469">
<time>2014-08-04T19:17:33Z</time></trkpt>
<trkpt lat="25.307568" lon="101.05939">
<time>2014-08-04T19:17:34Z</time></trkpt>
<trkpt lat="25.307698" lon="101.05898">
<time>2014-08-04T19:17:35Z</time></trkpt>
<trkpt lat="25.307739" lon="101.058831">
<time>2014-08-04T19:17:36Z</time></trkpt>
<trkpt lat="25.307749" lon="101.058781">
<time>2014-08-04T19:17:37Z</time></trkpt>
<trkpt lat="25.307749" lon="101.058721">
<time>2014-08-04T19:17:38Z</time></trkpt>
<trkpt lat="25.307749" lon="101.058611">
<time>2014-08-04T19:17:39Z</time></trkpt>
<trkpt lat="25.307739" lon="101.058432">
<time>2014-08-04T19:17:40Z</time></trkpt>
<trkpt lat="25.307739" lon="101.058352">
<time>2014-08-04T19:17:41Z</time></trkpt>
<trkpt lat="25.30774" lon="101.058262">
<time>2014-08-04T19:17:42Z</time></trkpt>
<trkpt lat="25.30775" lon="101.058162">
<time>2014-08-04T19:17:43Z</time></trkpt>
<trkpt lat="25.30781" lon="101.057843">
<time>2014-08-04T19:17:44Z</time></trkpt>
<trkpt lat="25.307901" lon="101.057404">
<time>2014-08-04T19:17:45Z</time></trkpt>
<trkpt lat="25.307962" lon="101.057165">
<time>2014-08-04T19:17:46Z</time></trkpt>
<trkpt lat="25.308002" lon="101.057035">
<time>2014-08-04T19:17:47Z</time></trkpt>
<trkpt lat="25.308042" lon="101.056935">
<time>2014-08-04T19:17:48Z</time></trkpt>
<trkpt lat="25.308082" lon="101.056866">
<time>2014-08-04T19:17:49Z</time></trkpt>
<trkpt lat="25.308122" lon="101.056826">
<time>2014-08-04T19:17:50Z</time></trkpt>
<trkpt lat="25.308162" lon="101.056776">
<time>2014-08-04T19:17:51Z</time></trkpt>
<trkpt lat="25.308242" lon="101.056706">
<time>2014-08-04T19:17:52Z</time></trkpt>
<trkpt lat="25.308363" lon="101.056626">
<time>2014-08-04T19:17:53Z</time></trkpt>
<trkpt lat="25.308403" lon="101.056586">
<time>2014-08-04T19:17:54Z</time></trkpt>
<trkpt lat="25.308443" lon="101.056556">
<time>2014-08-04T19:17:55Z</time></trkpt>
<trkpt lat="25.308483" lon="101.056516">
<time>2014-08-04T19:17:56Z</time></trkpt>
<trkpt lat="25.308503" lon="101.056477">
<time>2014-08-04T19:17:57Z</time></trkpt>
<trkpt lat="25.308513" lon="101.056447">
<time>2014-08-04T19:17:58Z</time></trkpt>
<trkpt lat="25.308523" lon="101.056407">
<time>2014-08-04T19:17:59Z</time></trkpt>
<trkpt lat="25.308533" lon="101.056377">
<time>2014-08-04T19:18:00Z</time></trkpt>
<trkpt lat="25.308533" lon="101.056347">
<time>2014-08-04T19:18:01Z</time></trkpt>
<trkpt lat="25.308523" lon="101.056307">
<time>2014-08-04T19:18:02Z</time></trkpt>
<trkpt lat="25.308503" lon="101.056247">
<time>2014-08-04T19:18:03Z</time></trkpt>
<trkpt lat="25.308463" lon="101.056147">
<time>2014-08-04T19:18:04Z</time></trkpt>
<trkpt lat="25.308404" lon="101.055978">
<time>2014-08-04T19:18:05Z</time></trkpt>
<trkpt lat="25.308384" lon="101.055878">
<time>2014-08-04T19:18:06Z</time></trkpt>
<trkpt lat="25.308374" lon="101.055778">
<time>2014-08-04T19:18:07Z</time></trkpt>
<trkpt lat="25.308374" lon="101.055689">
<time>2014-08-04T19:18:08Z</time></trkpt>
<trkpt lat="25.308374" lon="101.055599">
<time>2014-08-04T19:18:09Z</time></trkpt>
<trkpt lat="25.308375" lon="101.055459">
<time>2014-08-04T19:18:10Z</time></trkpt>
<trkpt lat="25.308395" lon="101.055339">
<time>2014-08-04T19:18:11Z</time></trkpt>
<trkpt lat="25.308405" lon="101.05523">
<time>2014-08-04T19:18:12Z</time></trkpt>
<trkpt lat="25.308435" lon="101.05511">
<time>2014-08-04T19:18:13Z</time></trkpt>
<trkpt lat="25.308546" lon="101.054831">
<time>2014-08-04T19:18:14Z</time></trkpt>
<trkpt lat="25.308666" lon="101.054571">
<time>2014-08-04T19:18:15Z</time></trkpt>
<trkpt lat="25.308706" lon="101.054492">
<time>2014-08-04T19:18:16Z</time></trkpt>
<trkpt lat="25.308757" lon="101.054422">
<time>2014-08-04T19:18:17Z</time></trkpt>
<trkpt lat="25.308807" lon="101.054362">
<time>2014-08-04T19:18:18Z</time></trkpt>
<trkpt lat="25.308867" lon="101.054312">
<time>2014-08-04T19:18:19Z</time></trkpt>
<trkpt lat="25.308957" lon="101.054262">
<time>2014-08-04T19:18:20Z</time></trkpt>
<trkpt lat="25.309057" lon="101.054222">
<time>2014-08-04T19:18:21Z</time></trkpt>
<trkpt lat="25.309177" lon="101.054202">
<time>2014-08-04T19:18:22Z</time></trkpt>
<trkpt lat="25.309327" lon="101.054162">
<time>2014-08-04T19:18:23Z</time></trkpt>
<trkpt lat="25.309407" lon="101.054143">
<time>2014-08-04T19:18:24Z</time></trkpt>
<trkpt lat="25.309477" lon="101.054133">
<time>2014-08-04T19:18:25Z</time></trkpt>
<trkpt lat="25.309597" lon="101.054103">
<time>2014-08-04T19:18:26Z</time></trkpt>
<trkpt lat="25.309697" lon="101.054063">
<time>2014-08-04T19:18:27Z</time></trkpt>
<trkpt lat="25.309757" lon="101.054033">
<time>2014-08-04T19:18:28Z</time></trkpt>
<trkpt lat="25.309807" lon="101.053993">
<time>2014-08-04T19:18:29Z</time></trkpt>
<trkpt lat="25.309847" lon="101.053953">
<time>2014-08-04T19:18:30Z</time></trkpt>
<trkpt lat="25.309878" lon="101.053893">
<time>2014-08-04T19:18:31Z</time></trkpt>
<trkpt lat="25.309888" lon="101.053823">
<time>2014-08-04T19:18:32Z</time></trkpt>
<trkpt lat="25.309898" lon="101.053744">
<time>2014-08-04T19:18:33Z</time></trkpt>
<trkpt lat="25.309888" lon="101.053644">
<time>2014-08-04T19:18:34Z</time></trkpt>
<trkpt lat="25.309848" lon="101.053464">
<time>2014-08-04T19:18:35Z</time></trkpt>
<trkpt lat="25.309759" lon="101.053115">
<time>2014-08-04T19:18:36Z</time></trkpt>
<trkpt lat="25.309729" lon="101.052946">
<time>2014-08-04T19:18:37Z</time></trkpt>
<trkpt lat="25.30972" lon="101.052796">
<time>2014-08-04T19:18:38Z</time></trkpt>
<trkpt lat="25.30972" lon="101.052696">
<time>2014-08-04T19:18:39Z</time></trkpt>
<trkpt lat="25.30973" lon="101.052617">
<time>2014-08-04T19:18:40Z</time></trkpt>
<trkpt lat="25.30974" lon="101.052547">
<time>2014-08-04T19:18:41Z</time></trkpt>
<trkpt lat="25.309831" lon="101.052218">
<time>2014-08-04T19:18:42Z</time></trkpt>
<trkpt lat="25.309881" lon="101.052018">
<time>2014-08-04T19:18:43Z</time></trkpt>
<trkpt lat="25.309912" lon="101.051819">
<time>2014-08-04T19:18:44Z</time></trkpt>
<trkpt lat="25.309942" lon="101.051629">
<time>2014-08-04T19:18:45Z</time></trkpt>
<trkpt lat="25.309973" lon="101.05132">
<time>2014-08-04T19:18:46Z</time></trkpt>
<trkpt lat="25.310013" lon="101.050921">
<time>2014-08-04T19:18:47Z</time></trkpt>
<trkpt lat="25.310023" lon="101.050841">
<time>2014-08-04T19:18:48Z</time></trkpt>
<trkpt lat="25.310044" lon="101.050752">
<time>2014-08-04T19:18:49Z</time></trkpt>
<trkpt lat="25.310064" lon="101.050692">
<time>2014-08-04T19:18:50Z</time></trkpt>
<trkpt lat="25.310084" lon="101.050632">
<time>2014-08-04T19:18:51Z</time></trkpt>
<trkpt lat="25.310104" lon="101.050592">
<time>2014-08-04T19:18:52Z</time></trkpt>
<trkpt lat="25.310144" lon="101.050552">
<time>2014-08-04T19:18:53Z</time></trkpt>
<trkpt lat="25.310214" lon="101.050512">
<time>2014-08-04T19:18:54Z</time></trkpt>
<trkpt lat="25.310304" lon="101.050482">
<time>2014-08-04T19:18:55Z</time></trkpt>
<trkpt lat="25.310394" lon="101.050462">
<time>2014-08-04T19:18:56Z</time></trkpt>
<trkpt lat="25.310564" lon="101.050432">
<time>2014-08-04T19:18:57Z</time></trkpt>
<trkpt lat="25.310634" lon="101.050412">
<time>2014-08-04T19:18:58Z</time></trkpt>
<trkpt lat="25.310684" lon="101.050383">
<time>2014-08-04T19:18:59Z</time></trkpt>
<trkpt lat="25.310734" lon="101.050353">
<time>2014-08-04T19:19:00Z</time></trkpt>
<trkpt lat="25.310775" lon="101.050313">
<time>2014-08-04T19:19:01Z</time></trkpt>
<trkpt lat="25.310795" lon="101.050283">
<time>2014-08-04T19:19:02Z</time></trkpt>
<trkpt lat="25.310805" lon="101.050233">
<time>2014-08-04T19:19:03Z</time></trkpt>
<trkpt lat="25.310815" lon="101.050173">
<time>2014-08-04T19:19:04Z</time></trkpt>
<trkpt lat="25.310815" lon="101.050103">
<time>2014-08-04T19:19:05Z</time></trkpt>
<trkpt lat="25.310805" lon="101.050034">
<time>2014-08-04T19:19:06Z</time></trkpt>
<trkpt lat="25.310785" lon="101.049964">
<time>2014-08-04T19:19:07Z</time></trkpt>
<trkpt lat="25.310745" lon="101.049874">
<time>2014-08-04T19:19:08Z</time></trkpt>
<trkpt lat="25.310676" lon="101.049744">
<time>2014-08-04T19:19:09Z</time></trkpt>
<trkpt lat="25.310586" lon="101.049625">
<time>2014-08-04T19:19:10Z</time></trkpt>
<trkpt lat="25.310536" lon="101.049575">
<time>2014-08-04T19:19:11Z</time></trkpt>
<trkpt lat="25.310486" lon="101.049525">
<time>2014-08-04T19:19:12Z</time></trkpt>
<trkpt lat="25.310396" lon="101.049455">
<time>2014-08-04T19:19:13Z</time></trkpt>
<trkpt lat="25.310306" lon="101.049385">
<time>2014-08-04T19:19:14Z</time></trkpt>
<trkpt lat="25.310217" lon="101.049336">
<time>2014-08-04T19:19:15Z</time></trkpt>
<trkpt lat="25.310137" lon="101.049296">
<time>2014-08-04T19:19:16Z</time></trkpt>
<trkpt lat="25.310057" lon="101.049266">
<time>2014-08-04T19:19:17Z</time></trkpt>
<trkpt lat="25.309587" lon="101.049106">
<time>2014-08-04T19:19:18Z</time></trkpt>
<trkpt lat="25.309407" lon="101.049036">
<time>2014-08-04T19:19:19Z</time></trkpt>
<trkpt lat="25.309227" lon="101.048967">
<time>2014-08-04T19:19:20Z</time></trkpt>
<trkpt lat="25.309117" lon="101.048917">
<time>2014-08-04T19:19:21Z</time></trkpt>
<trkpt lat="25.309037" lon="101.048867">
<time>2014-08-04T19:19:22Z</time></trkpt>
<trkpt lat="25.308957" lon="101.048807">
<time>2014-08-04T19:19:23Z</time></trkpt>
<trkpt lat="25.308878" lon="101.048727">
<time>2014-08-04T19:19:24Z</time></trkpt>
<trkpt lat="25.308768" lon="101.048598">
<time>2014-08-04T19:19:25Z</time></trkpt>
<trkpt lat="25.308678" lon="101.048468">
<time>2014-08-04T19:19:26Z</time></trkpt>
<trkpt lat="25.308598" lon="101.048338">
<time>2014-08-04T19:19:27Z</time></trkpt>
<trkpt lat="25.308549" lon="101.048229">
<time>2014-08-04T19:19:28Z</time></trkpt>
<trkpt lat="25.308549" lon="101.048219">
<time>2014-08-04T19:19:29Z</time></trkpt>
<trkpt lat="25.308519" lon="101.048139">
<time>2014-08-04T19:19:30Z</time></trkpt>
<trkpt lat="25.308509" lon="101.048099">
<time>2014-08-04T19:19:31Z</time></trkpt>
<trkpt lat="25.308499" lon="101.048029">
<time>2014-08-04T19:19:32Z</time></trkpt>
<trkpt lat="25.308489" lon="101.04793">
<time>2014-08-04T19:19:33Z</time></trkpt>
<trkpt lat="25.308499" lon="101.04784">
<time>2014-08-04T19:19:34Z</time></trkpt>
<trkpt lat="25.30852" lon="101.04777">
<time>2014-08-04T19:19:35Z</time></trkpt>
<trkpt lat="25.30856" lon="101.04769">
<time>2014-08-04T19:19:36Z</time></trkpt>
<trkpt lat="25.30861" lon="101.04763">
<time>2014-08-04T19:19:37Z</time></trkpt>
<trkpt lat="25.30869" lon="101.047571">
<time>2014-08-04T19:19:38Z</time></trkpt>
<trkpt lat="25.30879" lon="101.047511">
<time>2014-08-04T19:19:39Z</time></trkpt>
<trkpt lat="25.30891" lon="101.047461">
<time>2014-08-04T19:19:40Z</time></trkpt>
<trkpt lat="25.30905" lon="101.047421">
<time>2014-08-04T19:19:41Z</time></trkpt>
<trkpt lat="25.30926" lon="101.047371">
<time>2014-08-04T19:19:42Z</time></trkpt>
<trkpt lat="25.309471" lon="101.047321">
<time>2014-08-04T19:19:43Z</time></trkpt>
<trkpt lat="25.309661" lon="101.047281">
<time>2014-08-04T19:19:44Z</time></trkpt>
<trkpt lat="25.309841" lon="101.047232">
<time>2014-08-04T19:19:45Z</time></trkpt>
<trkpt lat="25.309931" lon="101.047192">
<time>2014-08-04T19:19:46Z</time></trkpt>
<trkpt lat="25.309991" lon="101.047172">
<time>2014-08-04T19:19:47Z</time></trkpt>
<trkpt lat="25.310031" lon="101.047142">
<time>2014-08-04T19:19:48Z</time></trkpt>
<trkpt lat="25.310061" lon="101.047112">
<time>2014-08-04T19:19:49Z</time></trkpt>
<trkpt lat="25.310101" lon="101.047072">
<time>2014-08-04T19:19:50Z</time></trkpt>
<trkpt lat="25.310121" lon="101.047032">
<time>2014-08-04T19:19:51Z</time></trkpt>
<trkpt lat="25.310131" lon="101.046982">
<time>2014-08-04T19:19:52Z</time></trkpt>
<trkpt lat="25.310142" lon="101.046922">
<time>2014-08-04T19:19:53Z</time></trkpt>
<trkpt lat="25.310132" lon="101.046892">
<time>2014-08-04T19:19:54Z</time></trkpt>
<trkpt lat="25.310132" lon="101.046853">
<time>2014-08-04T19:19:55Z</time></trkpt>
<trkpt lat="25.310122" lon="101.046823">
<time>2014-08-04T19:19:56Z</time></trkpt>
<trkpt lat="25.310112" lon="101.046783">
<time>2014-08-04T19:19:57Z</time></trkpt>
<trkpt lat="25.310092" lon="101.046753">
<time>2014-08-04T19:19:58Z</time></trkpt>
<trkpt lat="25.310072" lon="101.046723">
<time>2014-08-04T19:19:59Z</time></trkpt>
<trkpt lat="25.310032" lon="101.046663">
<time>2014-08-04T19:20:00Z</time></trkpt>
<trkpt lat="25.309962" lon="101.046593">
<time>2014-08-04T19:20:01Z</time></trkpt>
<trkpt lat="25.309902" lon="101.046544">
<time>2014-08-04T19:20:02Z</time></trkpt>
<trkpt lat="25.309783" lon="101.046424">
<time>2014-08-04T19:20:03Z</time></trkpt>
<trkpt lat="25.309733" lon="101.046334">
<time>2014-08-04T19:20:04Z</time></trkpt>
<trkpt lat="25.309693" lon="101.046224">
<time>2014-08-04T19:20:05Z</time></trkpt>
<trkpt lat="25.309663" lon="101.046105">
<time>2014-08-04T19:20:06Z</time></trkpt>
<trkpt lat="25.309653" lon="101.045975">
<time>2014-08-04T19:20:07Z</time></trkpt>
<trkpt lat="25.309664" lon="101.045826">
<time>2014-08-04T19:20:08Z</time></trkpt>
<trkpt lat="25.309704" lon="101.045596">
<time>2014-08-04T19:20:09Z</time></trkpt>
<trkpt lat="25.309775" lon="101.045188">
<time>2014-08-04T19:20:10Z</time></trkpt>
<trkpt lat="25.309786" lon="101.045048">
<time>2014-08-04T19:20:11Z</time></trkpt>
<trkpt lat="25.309776" lon="101.044928">
<time>2014-08-04T19:20:12Z</time></trkpt>
<trkpt lat="25.309756" lon="101.044799">
<time>2014-08-04T19:20:13Z</time></trkpt>
<trkpt lat="25.309617" lon="101.04443">
<time>2014-08-04T19:20:14Z</time></trkpt>
<trkpt lat="25.309567" lon="101.04426">
<time>2014-08-04T19:20:15Z</time></trkpt>
<trkpt lat="25.309557" lon="101.044151">
<time>2014-08-04T19:20:16Z</time></trkpt>
<trkpt lat="25.309558" lon="101.044051">
<time>2014-08-04T19:20:17Z</time></trkpt>
<trkpt lat="25.309578" lon="101.043921">
<time>2014-08-04T19:20:18Z</time></trkpt>
<trkpt lat="25.309648" lon="101.043722">
<time>2014-08-04T19:20:19Z</time></trkpt>
<trkpt lat="25.309739" lon="101.043353">
<time>2014-08-04T19:20:20Z</time></trkpt>
<trkpt lat="25.30978" lon="101.042835">
<time>2014-08-04T19:20:21Z</time></trkpt>
<trkpt lat="25.309811" lon="101.042665">
<time>2014-08-04T19:20:22Z</time></trkpt>
<trkpt lat="25.309841" lon="101.042545">
<time>2014-08-04T19:20:23Z</time></trkpt>
<trkpt lat="25.309902" lon="101.042366">
<time>2014-08-04T19:20:24Z</time></trkpt>
<trkpt lat="25.310012" lon="101.042197">
<time>2014-08-04T19:20:25Z</time></trkpt>
<trkpt lat="25.310122" lon="101.042047">
<time>2014-08-04T19:20:26Z</time></trkpt>
<trkpt lat="25.310273" lon="101.041808">
<time>2014-08-04T19:20:27Z</time></trkpt>
<trkpt lat="25.310373" lon="101.041628">
<time>2014-08-04T19:20:28Z</time></trkpt>
<trkpt lat="25.310413" lon="101.041529">
<time>2014-08-04T19:20:29Z</time></trkpt>
<trkpt lat="25.310444" lon="101.041459">
<time>2014-08-04T19:20:30Z</time></trkpt>
<trkpt lat="25.310464" lon="101.041379">
<time>2014-08-04T19:20:31Z</time></trkpt>
<trkpt lat="25.310474" lon="101.041309">
<time>2014-08-04T19:20:32Z</time></trkpt>
<trkpt lat="25.310474" lon="101.04122">
<time>2014-08-04T19:20:33Z</time></trkpt>
<trkpt lat="25.310464" lon="101.04111">
<time>2014-08-04T19:20:34Z</time></trkpt>
<trkpt lat="25.310435" lon="101.040731">
<time>2014-08-04T19:20:35Z</time></trkpt>
<trkpt lat="25.310426" lon="101.040512">
<time>2014-08-04T19:20:36Z</time></trkpt>
<trkpt lat="25.310416" lon="101.040273">
<time>2014-08-04T19:20:37Z</time></trkpt>
<trkpt lat="25.310417" lon="101.040093">
<time>2014-08-04T19:20:38Z</time></trkpt>
<trkpt lat="25.310427" lon="101.039884">
<time>2014-08-04T19:20:39Z</time></trkpt>
<trkpt lat="25.31051" lon="101.038847">
<time>2014-08-04T19:20:40Z</time></trkpt>
<trkpt lat="25.31051" lon="101.038757">
<time>2014-08-04T19:20:41Z</time></trkpt>
<trkpt lat="25.31051" lon="101.038668">
<time>2014-08-04T19:20:42Z</time></trkpt>
<trkpt lat="25.3105" lon="101.038588">
<time>2014-08-04T19:20:43Z</time></trkpt>
<trkpt lat="25.310491" lon="101.038488">
<time>2014-08-04T19:20:44Z</time></trkpt>
<trkpt lat="25.310451" lon="101.038389">
<time>2014-08-04T19:20:45Z</time></trkpt>
<trkpt lat="25.310033" lon="101.037671">
<time>2014-08-04T19:20:46Z</time></trkpt>
<trkpt lat="25.309933" lon="101.037521">
<time>2014-08-04T19:20:47Z</time></trkpt>
<trkpt lat="25.309893" lon="101.037412">
<time>2014-08-04T19:20:48Z</time></trkpt>
<trkpt lat="25.309863" lon="101.037312">
<time>2014-08-04T19:20:49Z</time></trkpt>
<trkpt lat="25.309854" lon="101.037202">
<time>2014-08-04T19:20:50Z</time></trkpt>
<trkpt lat="25.309844" lon="101.037093">
<time>2014-08-04T19:20:51Z</time></trkpt>
<trkpt lat="25.309854" lon="101.036983">
<time>2014-08-04T19:20:52Z</time></trkpt>
<trkpt lat="25.309885" lon="101.036744">
<time>2014-08-04T19:20:53Z</time></trkpt>
<trkpt lat="25.309895" lon="101.036545">
<time>2014-08-04T19:20:54Z</time></trkpt>
<trkpt lat="25.309896" lon="101.036375">
<time>2014-08-04T19:20:55Z</time></trkpt>
<trkpt lat="25.309886" lon="101.036096">
<time>2014-08-04T19:20:56Z</time></trkpt>
<trkpt lat="25.309887" lon="101.035976">
<time>2014-08-04T19:20:57Z</time></trkpt>
<trkpt lat="25.309897" lon="101.035847">
<time>2014-08-04T19:20:58Z</time></trkpt>
<trkpt lat="25.309927" lon="101.035697">
<time>2014-08-04T19:20:59Z</time></trkpt>
<trkpt lat="25.309968" lon="101.035568">
<time>2014-08-04T19:21:00Z</time></trkpt>
<trkpt lat="25.310008" lon="101.035448">
<time>2014-08-04T19:21:01Z</time></trkpt>
<trkpt lat="25.310038" lon="101.035358">
<time>2014-08-04T19:21:02Z</time></trkpt>
<trkpt lat="25.310068" lon="101.035299">
<time>2014-08-04T19:21:03Z</time></trkpt>
<trkpt lat="25.310109" lon="101.035239">
<time>2014-08-04T19:21:04Z</time></trkpt>
<trkpt lat="25.310169" lon="101.035169">
<time>2014-08-04T19:21:05Z</time></trkpt>
<trkpt lat="25.310219" lon="101.035119">
<time>2014-08-04T19:21:06Z</time></trkpt>
<trkpt lat="25.310249" lon="101.035089">
<time>2014-08-04T19:21:07Z</time></trkpt>
<trkpt lat="25.310299" lon="101.035069">
<time>2014-08-04T19:21:08Z</time></trkpt>
<trkpt lat="25.310339" lon="101.035059">
<time>2014-08-04T19:21:09Z</time></trkpt>
<trkpt lat="25.310399" lon="101.035049">
<time>2014-08-04T19:21:10Z</time></trkpt>
<trkpt lat="25.310449" lon="101.035049">
<time>2014-08-04T19:21:11Z</time></trkpt>
<trkpt lat="25.310659" lon="101.035059">
<time>2014-08-04T19:21:12Z</time></trkpt>
<trkpt lat="25.310939" lon="101.035069">
<time>2014-08-04T19:21:13Z</time></trkpt>
<trkpt lat="25.311019" lon="101.035059">
<time>2014-08-04T19:21:14Z</time></trkpt>
<trkpt lat="25.311099" lon="101.035039">
<time>2014-08-04T19:21:15Z</time></trkpt>
<trkpt lat="25.311169" lon="101.035">
<time>2014-08-04T19:21:16Z</time></trkpt>
<trkpt lat="25.311219" lon="101.03496">
<time>2014-08-04T19:21:17Z</time></trkpt>
<trkpt lat="25.311259" lon="101.03492">
<time>2014-08-04T19:21:18Z</time></trkpt>
<trkpt lat="25.31133" lon="101.03483">
<time>2014-08-04T19:21:19Z</time></trkpt>
<trkpt lat="25.311852" lon="101.034113">
<time>2014-08-04T19:21:20Z</time></trkpt>
<trkpt lat="25.312103" lon="101.033734">
<time>2014-08-04T19:21:21Z</time></trkpt>
<trkpt lat="25.312203" lon="101.033534">
<time>2014-08-04T19:21:22Z</time></trkpt>
<trkpt lat="25.312253" lon="101.033425">
<time>2014-08-04T19:21:23Z</time></trkpt>
<trkpt lat="25.312294" lon="101.033305">
<time>2014-08-04T19:21:24Z</time></trkpt>
<trkpt lat="25.312324" lon="101.033186">
<time>2014-08-04T19:21:25Z</time></trkpt>
<trkpt lat="25.312365" lon="101.032966">
<time>2014-08-04T19:21:26Z</time></trkpt>
<trkpt lat="25.312436" lon="101.032558">
<time>2014-08-04T19:21:27Z</time></trkpt>
<trkpt lat="25.312456" lon="101.032448">
<time>2014-08-04T19:21:28Z</time></trkpt>
<trkpt lat="25.312496" lon="101.032339">
<time>2014-08-04T19:21:29Z</time></trkpt>
<trkpt lat="25.312536" lon="101.032249">
<time>2014-08-04T19:21:30Z</time></trkpt>
<trkpt lat="25.312587" lon="101.032159">
<time>2014-08-04T19:21:31Z</time></trkpt>
<trkpt lat="25.312797" lon="101.03184">
<time>2014-08-04T19:21:32Z</time></trkpt>
<trkpt lat="25.312868" lon="101.031711">
<time>2014-08-04T19:21:33Z</time></trkpt>
<trkpt lat="25.312948" lon="101.031561">
<time>2014-08-04T19:21:34Z</time></trkpt>
<trkpt lat="25.313019" lon="101.031382">
<time>2014-08-04T19:21:35Z</time></trkpt>
<trkpt lat="25.31317" lon="101.031003">
<time>2014-08-04T19:21:36Z</time></trkpt>
<trkpt lat="25.313412" lon="101.030296">
<time>2014-08-04T19:21:37Z</time></trkpt>
<trkpt lat="25.313633" lon="101.029688">
<time>2014-08-04T19:21:38Z</time></trkpt>
<trkpt lat="25.313724" lon="101.029498">
<time>2014-08-04T19:21:39Z</time></trkpt>
<trkpt lat="25.313804" lon="101.029349">
<time>2014-08-04T19:21:40Z</time></trkpt>
<trkpt lat="25.313884" lon="101.029219">
<time>2014-08-04T19:21:41Z</time></trkpt>
<trkpt lat="25.313935" lon="101.02913">
<time>2014-08-04T19:21:42Z</time></trkpt>
<trkpt lat="25.314075" lon="101.02896">
<time>2014-08-04T19:21:43Z</time></trkpt>
<trkpt lat="25.314938" lon="101.027944">
<time>2014-08-04T19:21:44Z</time></trkpt>
<trkpt lat="25.315219" lon="101.027615">
<time>2014-08-04T19:21:45Z</time></trkpt>
<trkpt lat="25.316092" lon="101.026638">
<time>2014-08-04T19:21:46Z</time></trkpt>
<trkpt lat="25.316192" lon="101.026509">
<time>2014-08-04T19:21:47Z</time></trkpt>
<trkpt lat="25.316252" lon="101.026409">
<time>2014-08-04T19:21:48Z</time></trkpt>
<trkpt lat="25.316282" lon="101.026359">
<time>2014-08-04T19:21:49Z</time></trkpt>
<trkpt lat="25.316303" lon="101.02631">
<time>2014-08-04T19:21:50Z</time></trkpt>
<trkpt lat="25.316313" lon="101.02626">
<time>2014-08-04T19:21:51Z</time></trkpt>
<trkpt lat="25.316323" lon="101.02622">
<time>2014-08-04T19:21:52Z</time></trkpt>
<trkpt lat="25.316343" lon="101.02615">
<time>2014-08-04T19:21:53Z</time></trkpt>
<trkpt lat="25.316343" lon="101.02605">
<time>2014-08-04T19:21:54Z</time></trkpt>
<trkpt lat="25.316333" lon="101.025961">
<time>2014-08-04T19:21:55Z</time></trkpt>
<trkpt lat="25.316314" lon="101.025861">
<time>2014-08-04T19:21:56Z</time></trkpt>
<trkpt lat="25.316284" lon="101.025791">
<time>2014-08-04T19:21:57Z</time></trkpt>
<trkpt lat="25.316274" lon="101.025761">
<time>2014-08-04T19:21:58Z</time></trkpt>
<trkpt lat="25.316155" lon="101.025473">
<time>2014-08-04T19:21:59Z</time></trkpt>
<trkpt lat="25.316085" lon="101.025273">
<time>2014-08-04T19:22:00Z</time></trkpt>
<trkpt lat="25.316026" lon="101.025114">
<time>2014-08-04T19:22:01Z</time></trkpt>
<trkpt lat="25.316016" lon="101.025064">
<time>2014-08-04T19:22:02Z</time></trkpt>
<trkpt lat="25.316006" lon="101.025014">
<time>2014-08-04T19:22:03Z</time></trkpt>
<trkpt lat="25.316006" lon="101.024954">
<time>2014-08-04T19:22:04Z</time></trkpt>
<trkpt lat="25.316016" lon="101.024895">
<time>2014-08-04T19:22:05Z</time></trkpt>
<trkpt lat="25.316027" lon="101.024845">
<time>2014-08-04T19:22:06Z</time></trkpt>
<trkpt lat="25.316047" lon="101.024765">
<time>2014-08-04T19:22:07Z</time></trkpt>
<trkpt lat="25.316097" lon="101.024626">
<time>2014-08-04T19:22:08Z</time></trkpt>
<trkpt lat="25.316127" lon="101.024546">
<time>2014-08-04T19:22:09Z</time></trkpt>
<trkpt lat="25.316138" lon="101.024476">
<time>2014-08-04T19:22:10Z</time></trkpt>
<trkpt lat="25.316138" lon="101.024436">
<time>2014-08-04T19:22:11Z</time></trkpt>
<trkpt lat="25.316138" lon="101.024376">
<time>2014-08-04T19:22:12Z</time></trkpt>
<trkpt lat="25.316118" lon="101.024317">
<time>2014-08-04T19:22:13Z</time></trkpt>
<trkpt lat="25.316019" lon="101.024028">
<time>2014-08-04T19:22:14Z</time></trkpt>
<trkpt lat="25.315999" lon="101.023958">
<time>2014-08-04T19:22:15Z</time></trkpt>
<trkpt lat="25.315989" lon="101.023888">
<time>2014-08-04T19:22:16Z</time></trkpt>
<trkpt lat="25.315979" lon="101.023819">
<time>2014-08-04T19:22:17Z</time></trkpt>
<trkpt lat="25.31599" lon="101.023749">
<time>2014-08-04T19:22:18Z</time></trkpt>
<trkpt lat="25.31604" lon="101.02349">
<time>2014-08-04T19:22:19Z</time></trkpt>
<trkpt lat="25.316051" lon="101.02331">
<time>2014-08-04T19:22:20Z</time></trkpt>
<trkpt lat="25.316061" lon="101.023171">
<time>2014-08-04T19:22:21Z</time></trkpt>
<trkpt lat="25.316052" lon="101.023041">
<time>2014-08-04T19:22:22Z</time></trkpt>
<trkpt lat="25.316032" lon="101.022802">
<time>2014-08-04T19:22:23Z</time></trkpt>
<trkpt lat="25.316022" lon="101.022693">
<time>2014-08-04T19:22:24Z</time></trkpt>
<trkpt lat="25.315993" lon="101.022573">
<time>2014-08-04T19:22:25Z</time></trkpt>
<trkpt lat="25.315973" lon="101.022493">
<time>2014-08-04T19:22:26Z</time></trkpt>
<trkpt lat="25.315943" lon="101.022424">
<time>2014-08-04T19:22:27Z</time></trkpt>
<trkpt lat="25.315913" lon="101.022364">
<time>2014-08-04T19:22:28Z</time></trkpt>
<trkpt lat="25.315854" lon="101.022304">
<time>2014-08-04T19:22:29Z</time></trkpt>
<trkpt lat="25.315794" lon="101.022244">
<time>2014-08-04T19:22:30Z</time></trkpt>
<trkpt lat="25.315584" lon="101.022065">
<time>2014-08-04T19:22:31Z</time></trkpt>
<trkpt lat="25.315175" lon="101.021736">
<time>2014-08-04T19:22:32Z</time></trkpt>
<trkpt lat="25.315095" lon="101.021666">
<time>2014-08-04T19:22:33Z</time></trkpt>
<trkpt lat="25.315016" lon="101.021587">
<time>2014-08-04T19:22:34Z</time></trkpt>
<trkpt lat="25.314986" lon="101.021547">
<time>2014-08-04T19:22:35Z</time></trkpt>
<trkpt lat="25.314956" lon="101.021497">
<time>2014-08-04T19:22:36Z</time></trkpt>
<trkpt lat="25.314896" lon="101.021387">
<time>2014-08-04T19:22:37Z</time></trkpt>
<trkpt lat="25.314737" lon="101.020969">
<time>2014-08-04T19:22:38Z</time></trkpt>
<trkpt lat="25.314578" lon="101.02061">
<time>2014-08-04T19:22:39Z</time></trkpt>
<trkpt lat="25.314459" lon="101.020381">
<time>2014-08-04T19:22:40Z</time></trkpt>
<trkpt lat="25.314429" lon="101.020321">
<time>2014-08-04T19:22:41Z</time></trkpt>
<trkpt lat="25.314399" lon="101.020262">
<time>2014-08-04T19:22:42Z</time></trkpt>
<trkpt lat="25.314389" lon="101.020232">
<time>2014-08-04T19:22:43Z</time></trkpt>
<trkpt lat="25.314369" lon="101.020192">
<time>2014-08-04T19:22:44Z</time></trkpt>
<trkpt lat="25.31437" lon="101.020162">
<time>2014-08-04T19:22:45Z</time></trkpt>
<trkpt lat="25.31436" lon="101.020132">
<time>2014-08-04T19:22:46Z</time></trkpt>
<trkpt lat="25.31435" lon="101.020072">
<time>2014-08-04T19:22:47Z</time></trkpt>
<trkpt lat="25.31435" lon="101.020032">
<time>2014-08-04T19:22:48Z</time></trkpt>
<trkpt lat="25.31435" lon="101.020003">
<time>2014-08-04T19:22:49Z</time></trkpt>
<trkpt lat="25.31436" lon="101.019983">
<time>2014-08-04T19:22:50Z</time></trkpt>
<trkpt lat="25.31436" lon="101.019963">
<time>2014-08-04T19:22:51Z</time></trkpt>
<trkpt lat="25.31437" lon="101.019943">
<time>2014-08-04T19:22:52Z</time></trkpt>
<trkpt lat="25.31438" lon="101.019923">
<time>2014-08-04T19:22:53Z</time></trkpt>
<trkpt lat="25.31439" lon="101.019903">
<time>2014-08-04T19:22:54Z</time></trkpt>
<trkpt lat="25.31441" lon="101.019873">
<time>2014-08-04T19:22:55Z</time></trkpt>
<trkpt lat="25.31444" lon="101.019833">
<time>2014-08-04T19:22:56Z</time></trkpt>
<trkpt lat="25.314471" lon="101.019813">
<time>2014-08-04T19:22:57Z</time></trkpt>
<trkpt lat="25.314501" lon="101.019783">
<time>2014-08-04T19:22:58Z</time></trkpt>
<trkpt lat="25.314541" lon="101.019763">
<time>2014-08-04T19:22:59Z</time></trkpt>
<trkpt lat="25.314601" lon="101.019734">
<time>2014-08-04T19:23:00Z</time></trkpt>
<trkpt lat="25.314641" lon="101.019714">
<time>2014-08-04T19:23:01Z</time></trkpt>
<trkpt lat="25.314691" lon="101.019704">
<time>2014-08-04T19:23:02Z</time></trkpt>
<trkpt lat="25.314741" lon="101.019694">
<time>2014-08-04T19:23:03Z</time></trkpt>
<trkpt lat="25.314791" lon="101.019684">
<time>2014-08-04T19:23:04Z</time></trkpt>
<trkpt lat="25.314841" lon="101.019684">
<time>2014-08-04T19:23:05Z</time></trkpt>
<trkpt lat="25.314891" lon="101.019684">
<time>2014-08-04T19:23:06Z</time></trkpt>
<trkpt lat="25.315021" lon="101.019684">
<time>2014-08-04T19:23:07Z</time></trkpt>
<trkpt lat="25.315131" lon="101.019684">
<time>2014-08-04T19:23:08Z</time></trkpt>
<trkpt lat="25.315221" lon="101.019674">
<time>2014-08-04T19:23:09Z</time></trkpt>
<trkpt lat="25.315331" lon="101.019654">
<time>2014-08-04T19:23:10Z</time></trkpt>
<trkpt lat="25.315461" lon="101.019624">
<time>2014-08-04T19:23:11Z</time></trkpt>
<trkpt lat="25.315631" lon="101.019574">
<time>2014-08-04T19:23:12Z</time></trkpt>
<trkpt lat="25.315831" lon="101.019544">
<time>2014-08-04T19:23:13Z</time></trkpt>
<trkpt lat="25.315971" lon="101.019514">
<time>2014-08-04T19:23:14Z</time></trkpt>
<trkpt lat="25.316082" lon="101.019484">
<time>2014-08-04T19:23:15Z</time></trkpt>
<trkpt lat="25.316202" lon="101.019445">
<time>2014-08-04T19:23:16Z</time></trkpt>
<trkpt lat="25.316302" lon="101.019405">
<time>2014-08-04T19:23:17Z</time></trkpt>
<trkpt lat="25.316422" lon="101.019345">
<time>2014-08-04T19:23:18Z</time></trkpt>
<trkpt lat="25.316823" lon="101.019136">
<time>2014-08-04T19:23:19Z</time></trkpt>
<trkpt lat="25.316913" lon="101.019086">
<time>2014-08-04T19:23:20Z</time></trkpt>
<trkpt lat="25.316983" lon="101.019036">
<time>2014-08-04T19:23:21Z</time></trkpt>
<trkpt lat="25.317033" lon="101.018996">
<time>2014-08-04T19:23:22Z</time></trkpt>
<trkpt lat="25.317103" lon="101.018927">
<time>2014-08-04T19:23:23Z</time></trkpt>
<trkpt lat="25.317163" lon="101.018867">
<time>2014-08-04T19:23:24Z</time></trkpt>
<trkpt lat="25.317204" lon="101.018817">
<time>2014-08-04T19:23:25Z</time></trkpt>
<trkpt lat="25.317244" lon="101.018757">
<time>2014-08-04T19:23:26Z</time></trkpt>
<trkpt lat="25.317274" lon="101.018697">
<time>2014-08-04T19:23:27Z</time></trkpt>
<trkpt lat="25.317294" lon="101.018658">
<time>2014-08-04T19:23:28Z</time></trkpt>
<trkpt lat="25.317314" lon="101.018618">
<time>2014-08-04T19:23:29Z</time></trkpt>
<trkpt lat="25.317324" lon="101.018568">
<time>2014-08-04T19:23:30Z</time></trkpt>
<trkpt lat="25.317345" lon="101.018498">
<time>2014-08-04T19:23:31Z</time></trkpt>
<trkpt lat="25.317355" lon="101.018448">
<time>2014-08-04T19:23:32Z</time></trkpt>
<trkpt lat="25.317365" lon="101.018369">
<time>2014-08-04T19:23:33Z</time></trkpt>
<trkpt lat="25.317365" lon="101.018299">
<time>2014-08-04T19:23:34Z</time></trkpt>
<trkpt lat="25.317355" lon="101.018229">
<time>2014-08-04T19:23:35Z</time></trkpt>
<trkpt lat="25.317346" lon="101.018159">
<time>2014-08-04T19:23:36Z</time></trkpt>
<trkpt lat="25.317306" lon="101.01788">
<time>2014-08-04T19:23:37Z</time></trkpt>
<trkpt lat="25.317267" lon="101.017671">
<time>2014-08-04T19:23:38Z</time></trkpt>
<trkpt lat="25.317247" lon="101.017582">
<time>2014-08-04T19:23:39Z</time></trkpt>
<trkpt lat="25.317227" lon="101.017512">
<time>2014-08-04T19:23:40Z</time></trkpt>
<trkpt lat="25.317208" lon="101.017452">
<time>2014-08-04T19:23:41Z</time></trkpt>
<trkpt lat="25.317188" lon="101.017412">
<time>2014-08-04T19:23:42Z</time></trkpt>
<trkpt lat="25.317168" lon="101.017382">
<time>2014-08-04T19:23:43Z</time></trkpt>
<trkpt lat="25.317138" lon="101.017342">
<time>2014-08-04T19:23:44Z</time></trkpt>
<trkpt lat="25.317108" lon="101.017303">
<time>2014-08-04T19:23:45Z</time></trkpt>
<trkpt lat="25.317078" lon="101.017273">
<time>2014-08-04T19:23:46Z</time></trkpt>
<trkpt lat="25.317018" lon="101.017213">
<time>2014-08-04T19:23:47Z</time></trkpt>
<trkpt lat="25.316869" lon="101.017073">
<time>2014-08-04T19:23:48Z</time></trkpt>
<trkpt lat="25.316829" lon="101.017034">
<time>2014-08-04T19:23:49Z</time></trkpt>
<trkpt lat="25.316799" lon="101.017004">
<time>2014-08-04T19:23:50Z</time></trkpt>
<trkpt lat="25.316769" lon="101.016974">
<time>2014-08-04T19:23:51Z</time></trkpt>
<trkpt lat="25.316759" lon="101.016944">
<time>2014-08-04T19:23:52Z</time></trkpt>
<trkpt lat="25.316739" lon="101.016924">
<time>2014-08-04T19:23:53Z</time></trkpt>
<trkpt lat="25.316729" lon="101.016904">
<time>2014-08-04T19:23:54Z</time></trkpt>
<trkpt lat="25.316729" lon="101.016874">
<time>2014-08-04T19:23:55Z</time></trkpt>
<trkpt lat="25.316729" lon="101.016864">
<time>2014-08-04T19:23:56Z</time></trkpt>
<trkpt lat="25.316719" lon="101.016844">
<time>2014-08-04T19:23:57Z</time></trkpt>
<trkpt lat="25.316719" lon="101.016824">
<time>2014-08-04T19:23:58Z</time></trkpt>
<trkpt lat="25.316719" lon="101.016795">
<time>2014-08-04T19:23:59Z</time></trkpt>
<trkpt lat="25.316719" lon="101.016775">
<time>2014-08-04T19:24:00Z</time></trkpt>
<trkpt lat="25.31672" lon="101.016745">
<time>2014-08-04T19:24:01Z</time></trkpt>
<trkpt lat="25.31673" lon="101.016725">
<time>2014-08-04T19:24:02Z</time></trkpt>
<trkpt lat="25.31674" lon="101.016695">
<time>2014-08-04T19:24:03Z</time></trkpt>
<trkpt lat="25.31675" lon="101.016675">
<time>2014-08-04T19:24:04Z</time></trkpt>
<trkpt lat="25.31677" lon="101.016645">
<time>2014-08-04T19:24:05Z</time></trkpt>
<trkpt lat="25.31679" lon="101.016615">
<time>2014-08-04T19:24:06Z</time></trkpt>
<trkpt lat="25.3168" lon="101.016605">
<time>2014-08-04T19:24:07Z</time></trkpt>
<trkpt lat="25.31695" lon="101.016516">
<time>2014-08-04T19:24:08Z</time></trkpt>
<trkpt lat="25.31709" lon="101.016436">
<time>2014-08-04T19:24:09Z</time></trkpt>
<trkpt lat="25.317171" lon="101.016386">
<time>2014-08-04T19:24:10Z</time></trkpt>
<trkpt lat="25.317251" lon="101.016316">
<time>2014-08-04T19:24:11Z</time></trkpt>
<trkpt lat="25.317321" lon="101.016247">
<time>2014-08-04T19:24:12Z</time></trkpt>
<trkpt lat="25.317381" lon="101.016167">
<time>2014-08-04T19:24:13Z</time></trkpt>
<trkpt lat="25.317442" lon="101.016067">
<time>2014-08-04T19:24:14Z</time></trkpt>
<trkpt lat="25.317502" lon="101.015978">
<time>2014-08-04T19:24:15Z</time></trkpt>
<trkpt lat="25.317542" lon="101.015908">
<time>2014-08-04T19:24:16Z</time></trkpt>
<trkpt lat="25.317582" lon="101.015828">
<time>2014-08-04T19:24:17Z</time></trkpt>
<trkpt lat="25.317613" lon="101.015739">
<time>2014-08-04T19:24:18Z</time></trkpt>
<trkpt lat="25.317643" lon="101.015669">
<time>2014-08-04T19:24:19Z</time></trkpt>
<trkpt lat="25.317693" lon="101.015499">
<time>2014-08-04T19:24:20Z</time></trkpt>
<trkpt lat="25.317724" lon="101.01535">
<time>2014-08-04T19:24:21Z</time></trkpt>
<trkpt lat="25.317764" lon="101.01522">
<time>2014-08-04T19:24:22Z</time></trkpt>
<trkpt lat="25.317815" lon="101.015061">
<time>2014-08-04T19:24:23Z</time></trkpt>
<trkpt lat="25.317915" lon="101.014762">
<time>2014-08-04T19:24:24Z</time></trkpt>
<trkpt lat="25.318077" lon="101.014304">
<time>2014-08-04T19:24:25Z</time></trkpt>
<trkpt lat="25.318147" lon="101.014135">
<time>2014-08-04T19:24:26Z</time></trkpt>
<trkpt lat="25.318208" lon="101.014025">
<time>2014-08-04T19:24:27Z</time></trkpt>
<trkpt lat="25.318248" lon="101.013935">
<time>2014-08-04T19:24:28Z</time></trkpt>
<trkpt lat="25.318308" lon="101.013866">
<time>2014-08-04T19:24:29Z</time></trkpt>
<trkpt lat="25.318368" lon="101.013796">
<time>2014-08-04T19:24:30Z</time></trkpt>
<trkpt lat="25.318529" lon="101.013637">
<time>2014-08-04T19:24:31Z</time></trkpt>
<trkpt lat="25.31883" lon="101.013328">
<time>2014-08-04T19:24:32Z</time></trkpt>
<trkpt lat="25.319141" lon="101.012969">
<time>2014-08-04T19:24:33Z</time></trkpt>
<trkpt lat="25.319573" lon="101.012391">
<time>2014-08-04T19:24:34Z</time></trkpt>
<trkpt lat="25.319774" lon="101.012043">
<time>2014-08-04T19:24:35Z</time></trkpt>
<trkpt lat="25.319945" lon="101.011714">
<time>2014-08-04T19:24:36Z</time></trkpt>
<trkpt lat="25.320257" lon="101.011066">
<time>2014-08-04T19:24:37Z</time></trkpt>
<trkpt lat="25.320367" lon="101.010837">
<time>2014-08-04T19:24:38Z</time></trkpt>
<trkpt lat="25.320398" lon="101.010767">
<time>2014-08-04T19:24:39Z</time></trkpt>
<trkpt lat="25.320428" lon="101.010688">
<time>2014-08-04T19:24:40Z</time></trkpt>
<trkpt lat="25.320458" lon="101.010598">
<time>2014-08-04T19:24:41Z</time></trkpt>
<trkpt lat="25.320468" lon="101.010578">
<time>2014-08-04T19:24:42Z</time></trkpt>
<trkpt lat="25.320488" lon="101.010499">
<time>2014-08-04T19:24:43Z</time></trkpt>
<trkpt lat="25.320509" lon="101.010439">
<time>2014-08-04T19:24:44Z</time></trkpt>
<trkpt lat="25.320519" lon="101.010359">
<time>2014-08-04T19:24:45Z</time></trkpt>
<trkpt lat="25.3206" lon="101.009861">
<time>2014-08-04T19:24:46Z</time></trkpt>
<trkpt lat="25.320763" lon="101.008825">
<time>2014-08-04T19:24:47Z</time></trkpt>
<trkpt lat="25.320875" lon="101.008138">
<time>2014-08-04T19:24:48Z</time></trkpt>
<trkpt lat="25.320906" lon="101.008018">
<time>2014-08-04T19:24:49Z</time></trkpt>
<trkpt lat="25.320946" lon="101.007889">
<time>2014-08-04T19:24:50Z</time></trkpt>
<trkpt lat="25.320987" lon="101.007749">
<time>2014-08-04T19:24:51Z</time></trkpt>
<trkpt lat="25.321027" lon="101.00765">
<time>2014-08-04T19:24:52Z</time></trkpt>
<trkpt lat="25.321097" lon="101.00747">
<time>2014-08-04T19:24:53Z</time></trkpt>
<trkpt lat="25.321289" lon="101.006962">
<time>2014-08-04T19:24:54Z</time></trkpt>
<trkpt lat="25.32145" lon="101.006504">
<time>2014-08-04T19:24:55Z</time></trkpt>
<trkpt lat="25.321551" lon="101.006255">
<time>2014-08-04T19:24:56Z</time></trkpt>
<trkpt lat="25.321642" lon="101.006006">
<time>2014-08-04T19:24:57Z</time></trkpt>
<trkpt lat="25.321944" lon="101.005448">
<time>2014-08-04T19:24:58Z</time></trkpt>
<trkpt lat="25.322336" lon="101.004761">
<time>2014-08-04T19:24:59Z</time></trkpt>
<trkpt lat="25.322376" lon="101.004681">
<time>2014-08-04T19:25:00Z</time></trkpt>
<trkpt lat="25.322416" lon="101.004591">
<time>2014-08-04T19:25:01Z</time></trkpt>
<trkpt lat="25.322447" lon="101.004502">
<time>2014-08-04T19:25:02Z</time></trkpt>
<trkpt lat="25.322467" lon="101.004432">
<time>2014-08-04T19:25:03Z</time></trkpt>
<trkpt lat="25.322477" lon="101.004362">
<time>2014-08-04T19:25:04Z</time></trkpt>
<trkpt lat="25.322477" lon="101.004313">
<time>2014-08-04T19:25:05Z</time></trkpt>
<trkpt lat="25.322477" lon="101.004213">
<time>2014-08-04T19:25:06Z</time></trkpt>
<trkpt lat="25.322458" lon="101.004024">
<time>2014-08-04T19:25:07Z</time></trkpt>
<trkpt lat="25.322429" lon="101.003755">
<time>2014-08-04T19:25:08Z</time></trkpt>
<trkpt lat="25.322331" lon="101.003028">
<time>2014-08-04T19:25:09Z</time></trkpt>
<trkpt lat="25.322234" lon="101.002141">
<time>2014-08-04T19:25:10Z</time></trkpt>
<trkpt lat="25.322205" lon="101.001773">
<time>2014-08-04T19:25:11Z</time></trkpt>
<trkpt lat="25.322195" lon="101.001663">
<time>2014-08-04T19:25:12Z</time></trkpt>
<trkpt lat="25.322196" lon="101.001543">
<time>2014-08-04T19:25:13Z</time></trkpt>
<trkpt lat="25.322206" lon="101.001444">
<time>2014-08-04T19:25:14Z</time></trkpt>
<trkpt lat="25.322216" lon="101.001334">
<time>2014-08-04T19:25:15Z</time></trkpt>
<trkpt lat="25.322247" lon="101.001165">
<time>2014-08-04T19:25:16Z</time></trkpt>
<trkpt lat="25.322287" lon="101.000966">
<time>2014-08-04T19:25:17Z</time></trkpt>
<trkpt lat="25.322308" lon="101.000846">
<time>2014-08-04T19:25:18Z</time></trkpt>
<trkpt lat="25.322318" lon="101.000727">
<time>2014-08-04T19:25:19Z</time></trkpt>
<trkpt lat="25.322318" lon="101.000637">
<time>2014-08-04T19:25:20Z</time></trkpt>
<trkpt lat="25.322299" lon="101.000557">
<time>2014-08-04T19:25:21Z</time></trkpt>
<trkpt lat="25.322289" lon="101.000507">
<time>2014-08-04T19:25:22Z</time></trkpt>
<trkpt lat="25.322269" lon="101.000458">
<time>2014-08-04T19:25:23Z</time></trkpt>
<trkpt lat="25.322229" lon="101.000398">
<time>2014-08-04T19:25:24Z</time></trkpt>
<trkpt lat="25.322189" lon="101.000338">
<time>2014-08-04T19:25:25Z</time></trkpt>
<trkpt lat="25.322149" lon="101.000298">
<time>2014-08-04T19:25:26Z</time></trkpt>
<trkpt lat="25.322099" lon="101.000258">
<time>2014-08-04T19:25:27Z</time></trkpt>
<trkpt lat="25.32205" lon="101.000219">
<time>2014-08-04T19:25:28Z</time></trkpt>
<trkpt lat="25.32195" lon="101.000159">
<time>2014-08-04T19:25:29Z</time></trkpt>
<trkpt lat="25.32172" lon="101.000009">
<time>2014-08-04T19:25:30Z</time></trkpt>
<trkpt lat="25.32158" lon="100.99992">
<time>2014-08-04T19:25:31Z</time></trkpt>
<trkpt lat="25.321491" lon="100.99986">
<time>2014-08-04T19:25:32Z</time></trkpt>
<trkpt lat="25.321411" lon="100.99979">
<time>2014-08-04T19:25:33Z</time></trkpt>
<trkpt lat="25.321331" lon="100.999711">
<time>2014-08-04T19:25:34Z</time></trkpt>
<trkpt lat="25.321271" lon="100.999651">
<time>2014-08-04T19:25:35Z</time></trkpt>
<trkpt lat="25.320743" lon="100.998993">
<time>2014-08-04T19:25:36Z</time></trkpt>
<trkpt lat="25.320484" lon="100.998665">
<time>2014-08-04T19:25:37Z</time></trkpt>
<trkpt lat="25.320355" lon="100.998515">
<time>2014-08-04T19:25:38Z</time></trkpt>
<trkpt lat="25.320275" lon="100.998436">
<time>2014-08-04T19:25:39Z</time></trkpt>
<trkpt lat="25.320195" lon="100.998376">
<time>2014-08-04T19:25:40Z</time></trkpt>
<trkpt lat="25.320135" lon="100.998326">
<time>2014-08-04T19:25:41Z</time></trkpt>
<trkpt lat="25.320085" lon="100.998286">
<time>2014-08-04T19:25:42Z</time></trkpt>
<trkpt lat="25.320045" lon="100.998266">
<time>2014-08-04T19:25:43Z</time></trkpt>
<trkpt lat="25.319995" lon="100.998246">
<time>2014-08-04T19:25:44Z</time></trkpt>
<trkpt lat="25.319925" lon="100.998217">
<time>2014-08-04T19:25:45Z</time></trkpt>
<trkpt lat="25.319856" lon="100.998197">
<time>2014-08-04T19:25:46Z</time></trkpt>
<trkpt lat="25.319496" lon="100.998097">
<time>2014-08-04T19:25:47Z</time></trkpt>
<trkpt lat="25.319376" lon="100.998057">
<time>2014-08-04T19:25:48Z</time></trkpt>
<trkpt lat="25.317787" lon="100.997619">
<time>2014-08-04T19:25:49Z</time></trkpt>
<trkpt lat="25.317667" lon="100.997599">
<time>2014-08-04T19:25:50Z</time></trkpt>
<trkpt lat="25.317527" lon="100.997579">
<time>2014-08-04T19:25:51Z</time></trkpt>
<trkpt lat="25.317417" lon="100.997569">
<time>2014-08-04T19:25:52Z</time></trkpt>
<trkpt lat="25.317287" lon="100.997559">
<time>2014-08-04T19:25:53Z</time></trkpt>
<trkpt lat="25.317167" lon="100.997559">
<time>2014-08-04T19:25:54Z</time></trkpt>
<trkpt lat="25.316997" lon="100.997569">
<time>2014-08-04T19:25:55Z</time></trkpt>
<trkpt lat="25.316577" lon="100.997619">
<time>2014-08-04T19:25:56Z</time></trkpt>
<trkpt lat="25.316377" lon="100.997649">
<time>2014-08-04T19:25:57Z</time></trkpt>
<trkpt lat="25.316197" lon="100.997689">
<time>2014-08-04T19:25:58Z</time></trkpt>
<trkpt lat="25.315756" lon="100.997798">
<time>2014-08-04T19:25:59Z</time></trkpt>
<trkpt lat="25.315626" lon="100.997818">
<time>2014-08-04T19:26:00Z</time></trkpt>
<trkpt lat="25.315486" lon="100.997838">
<time>2014-08-04T19:26:01Z</time></trkpt>
<trkpt lat="25.315336" lon="100.997838">
<time>2014-08-04T19:26:02Z</time></trkpt>
<trkpt lat="25.315086" lon="100.997838">
<time>2014-08-04T19:26:03Z</time></trkpt>
<trkpt lat="25.314906" lon="100.997838">
<time>2014-08-04T19:26:04Z</time></trkpt>
<trkpt lat="25.314766" lon="100.997838">
<time>2014-08-04T19:26:05Z</time></trkpt>
<trkpt lat="25.314626" lon="100.997868">
<time>2014-08-04T19:26:06Z</time></trkpt>
<trkpt lat="25.314416" lon="100.997918">
<time>2014-08-04T19:26:07Z</time></trkpt>
<trkpt lat="25.314035" lon="100.998047">
<time>2014-08-04T19:26:08Z</time></trkpt>
<trkpt lat="25.313725" lon="100.998137">
<time>2014-08-04T19:26:09Z</time></trkpt>
<trkpt lat="25.313655" lon="100.998147">
<time>2014-08-04T19:26:10Z</time></trkpt>
<trkpt lat="25.313575" lon="100.998147">
<time>2014-08-04T19:26:11Z</time></trkpt>
<trkpt lat="25.313495" lon="100.998137">
<time>2014-08-04T19:26:12Z</time></trkpt>
<trkpt lat="25.313425" lon="100.998127">
<time>2014-08-04T19:26:13Z</time></trkpt>
<trkpt lat="25.313365" lon="100.998107">
<time>2014-08-04T19:26:14Z</time></trkpt>
<trkpt lat="25.313295" lon="100.998077">
<time>2014-08-04T19:26:15Z</time></trkpt>
<trkpt lat="25.313285" lon="100.998077">
<time>2014-08-04T19:26:16Z</time></trkpt>
<trkpt lat="25.313215" lon="100.998037">
<time>2014-08-04T19:26:17Z</time></trkpt>
<trkpt lat="25.313106" lon="100.997988">
<time>2014-08-04T19:26:18Z</time></trkpt>
<trkpt lat="25.312926" lon="100.997898">
<time>2014-08-04T19:26:19Z</time></trkpt>
<trkpt lat="25.312676" lon="100.997769">
<time>2014-08-04T19:26:20Z</time></trkpt>
<trkpt lat="25.312327" lon="100.997589">
<time>2014-08-04T19:26:21Z</time></trkpt>
<trkpt lat="25.312147" lon="100.99748">
<time>2014-08-04T19:26:22Z</time></trkpt>
<trkpt lat="25.312107" lon="100.99745">
<time>2014-08-04T19:26:23Z</time></trkpt>
<trkpt lat="25.311987" lon="100.99735">
<time>2014-08-04T19:26:24Z</time></trkpt>
<trkpt lat="25.311838" lon="100.997221">
<time>2014-08-04T19:26:25Z</time></trkpt>
<trkpt lat="25.311678" lon="100.997061">
<time>2014-08-04T19:26:26Z</time></trkpt>
<trkpt lat="25.31101" lon="100.996334">
<time>2014-08-04T19:26:27Z</time></trkpt>
<trkpt lat="25.310901" lon="100.996215">
<time>2014-08-04T19:26:28Z</time></trkpt>
<trkpt lat="25.310861" lon="100.996175">
<time>2014-08-04T19:26:29Z</time></trkpt>
<trkpt lat="25.310821" lon="100.996145">
<time>2014-08-04T19:26:30Z</time></trkpt>
<trkpt lat="25.310781" lon="100.996115">
<time>2014-08-04T19:26:31Z</time></trkpt>
<trkpt lat="25.310731" lon="100.996085">
<time>2014-08-04T19:26:32Z</time></trkpt>
<trkpt lat="25.310691" lon="100.996065">
<time>2014-08-04T19:26:33Z</time></trkpt>
<trkpt lat="25.310651" lon="100.996055">
<time>2014-08-04T19:26:34Z</time></trkpt>
<trkpt lat="25.310601" lon="100.996035">
<time>2014-08-04T19:26:35Z</time></trkpt>
<trkpt lat="25.310551" lon="100.996025">
<time>2014-08-04T19:26:36Z</time></trkpt>
<trkpt lat="25.310501" lon="100.996025">
<time>2014-08-04T19:26:37Z</time></trkpt>
<trkpt lat="25.310441" lon="100.996025">
<time>2014-08-04T19:26:38Z</time></trkpt>
<trkpt lat="25.310381" lon="100.996025">
<time>2014-08-04T19:26:39Z</time></trkpt>
<trkpt lat="25.310331" lon="100.996035">
<time>2014-08-04T19:26:40Z</time></trkpt>
<trkpt lat="25.310271" lon="100.996045">
<time>2014-08-04T19:26:41Z</time></trkpt>
<trkpt lat="25.310171" lon="100.996065">
<time>2014-08-04T19:26:42Z</time></trkpt>
<trkpt lat="25.310041" lon="100.996105">
<time>2014-08-04T19:26:43Z</time></trkpt>
<trkpt lat="25.309881" lon="100.996165">
<time>2014-08-04T19:26:44Z</time></trkpt>
<trkpt lat="25.30951" lon="100.996294">
<time>2014-08-04T19:26:45Z</time></trkpt>
<trkpt lat="25.30919" lon="100.996404">
<time>2014-08-04T19:26:46Z</time></trkpt>
<trkpt lat="25.309" lon="100.996464">
<time>2014-08-04T19:26:47Z</time></trkpt>
<trkpt lat="25.30892" lon="100.996484">
<time>2014-08-04T19:26:48Z</time></trkpt>
<trkpt lat="25.30884" lon="100.996484">
<time>2014-08-04T19:26:49Z</time></trkpt>
<trkpt lat="25.30874" lon="100.996494">
<time>2014-08-04T19:26:50Z</time></trkpt>
<trkpt lat="25.30867" lon="100.996484">
<time>2014-08-04T19:26:51Z</time></trkpt>
<trkpt lat="25.30855" lon="100.996474">
<time>2014-08-04T19:26:52Z</time></trkpt>
<trkpt lat="25.30844" lon="100.996454">
<time>2014-08-04T19:26:53Z</time></trkpt>
<trkpt lat="25.30833" lon="100.996424">
<time>2014-08-04T19:26:54Z</time></trkpt>
<trkpt lat="25.30823" lon="100.996394">
<time>2014-08-04T19:26:55Z</time></trkpt>
<trkpt lat="25.30815" lon="100.996364">
<time>2014-08-04T19:26:56Z</time></trkpt>
<trkpt lat="25.30806" lon="100.996324">
<time>2014-08-04T19:26:57Z</time></trkpt>
<trkpt lat="25.30797" lon="100.996275">
<time>2014-08-04T19:26:58Z</time></trkpt>
<trkpt lat="25.30789" lon="100.996215">
<time>2014-08-04T19:26:59Z</time></trkpt>
<trkpt lat="25.307831" lon="100.996165">
<time>2014-08-04T19:27:00Z</time></trkpt>
<trkpt lat="25.307751" lon="100.996095">
<time>2014-08-04T19:27:01Z</time></trkpt>
<trkpt lat="25.307681" lon="100.996016">
<time>2014-08-04T19:27:02Z</time></trkpt>
<trkpt lat="25.307601" lon="100.995926">
<time>2014-08-04T19:27:03Z</time></trkpt>
<trkpt lat="25.307512" lon="100.995806">
<time>2014-08-04T19:27:04Z</time></trkpt>
<trkpt lat="25.307452" lon="100.995727">
<time>2014-08-04T19:27:05Z</time></trkpt>
<trkpt lat="25.307392" lon="100.995647">
<time>2014-08-04T19:27:06Z</time></trkpt>
<trkpt lat="25.307352" lon="100.995577">
<time>2014-08-04T19:27:07Z</time></trkpt>
<trkpt lat="25.307333" lon="100.995508">
<time>2014-08-04T19:27:08Z</time></trkpt>
<trkpt lat="25.307313" lon="100.995418">
<time>2014-08-04T19:27:09Z</time></trkpt>
<trkpt lat="25.307303" lon="100.995338">
<time>2014-08-04T19:27:10Z</time></trkpt>
<trkpt lat="25.307303" lon="100.995239">
<time>2014-08-04T19:27:11Z</time></trkpt>
<trkpt lat="25.307304" lon="100.995149">
<time>2014-08-04T19:27:12Z</time></trkpt>
<trkpt lat="25.307315" lon="100.99479">
<time>2014-08-04T19:27:13Z</time></trkpt>
<trkpt lat="25.307305" lon="100.994551">
<time>2014-08-04T19:27:14Z</time></trkpt>
<trkpt lat="25.307286" lon="100.994352">
<time>2014-08-04T19:27:15Z</time></trkpt>
<trkpt lat="25.307256" lon="100.994223">
<time>2014-08-04T19:27:16Z</time></trkpt>
<trkpt lat="25.307227" lon="100.994103">
<time>2014-08-04T19:27:17Z</time></trkpt>
<trkpt lat="25.307197" lon="100.994033">
<time>2014-08-04T19:27:18Z</time></trkpt>
<trkpt lat="25.307177" lon="100.993984">
<time>2014-08-04T19:27:19Z</time></trkpt>
<trkpt lat="25.307147" lon="100.993924">
<time>2014-08-04T19:27:20Z</time></trkpt>
<trkpt lat="25.307118" lon="100.993874">
<time>2014-08-04T19:27:21Z</time></trkpt>
<trkpt lat="25.307068" lon="100.993814">
<time>2014-08-04T19:27:22Z</time></trkpt>
<trkpt lat="25.307018" lon="100.993754">
<time>2014-08-04T19:27:23Z</time></trkpt>
<trkpt lat="25.306948" lon="100.993685">
<time>2014-08-04T19:27:24Z</time></trkpt>
<trkpt lat="25.306679" lon="100.993476">
<time>2014-08-04T19:27:25Z</time></trkpt>
<trkpt lat="25.306609" lon="100.993416">
<time>2014-08-04T19:27:26Z</time></trkpt>
<trkpt lat="25.306579" lon="100.993376">
<time>2014-08-04T19:27:27Z</time></trkpt>
<trkpt lat="25.306549" lon="100.993336">
<time>2014-08-04T19:27:28Z</time></trkpt>
<trkpt lat="25.306529" lon="100.993286">
<time>2014-08-04T19:27:29Z</time></trkpt>
<trkpt lat="25.306509" lon="100.993236">
<time>2014-08-04T19:27:30Z</time></trkpt>
<trkpt lat="25.3065" lon="100.993167">
<time>2014-08-04T19:27:31Z</time></trkpt>
<trkpt lat="25.30649" lon="100.993077">
<time>2014-08-04T19:27:32Z</time></trkpt>
<trkpt lat="25.30648" lon="100.992958">
<time>2014-08-04T19:27:33Z</time></trkpt>
<trkpt lat="25.306461" lon="100.992858">
<time>2014-08-04T19:27:34Z</time></trkpt>
<trkpt lat="25.306431" lon="100.992778">
<time>2014-08-04T19:27:35Z</time></trkpt>
<trkpt lat="25.306391" lon="100.992689">
<time>2014-08-04T19:27:36Z</time></trkpt>
<trkpt lat="25.306242" lon="100.99245">
<time>2014-08-04T19:27:37Z</time></trkpt>
<trkpt lat="25.306053" lon="100.992161">
<time>2014-08-04T19:27:38Z</time></trkpt>
<trkpt lat="25.305774" lon="100.991742">
<time>2014-08-04T19:27:39Z</time></trkpt>
<trkpt lat="25.305465" lon="100.991224">
<time>2014-08-04T19:27:40Z</time></trkpt>
<trkpt lat="25.305247" lon="100.990856">
<time>2014-08-04T19:27:41Z</time></trkpt>
<trkpt lat="25.305077" lon="100.990567">
<time>2014-08-04T19:27:42Z</time></trkpt>
<trkpt lat="25.304848" lon="100.990228">
<time>2014-08-04T19:27:43Z</time></trkpt>
<trkpt lat="25.304789" lon="100.990119">
<time>2014-08-04T19:27:44Z</time></trkpt>
<trkpt lat="25.304759" lon="100.990009">
<time>2014-08-04T19:27:45Z</time></trkpt>
<trkpt lat="25.304729" lon="100.9899">
<time>2014-08-04T19:27:46Z</time></trkpt>
<trkpt lat="25.30471" lon="100.98983">
<time>2014-08-04T19:27:47Z</time></trkpt>
<trkpt lat="25.30469" lon="100.98977">
<time>2014-08-04T19:27:48Z</time></trkpt>
<trkpt lat="25.30467" lon="100.98973">
<time>2014-08-04T19:27:49Z</time></trkpt>
<trkpt lat="25.30465" lon="100.98969">
<time>2014-08-04T19:27:50Z</time></trkpt>
<trkpt lat="25.30462" lon="100.989651">
<time>2014-08-04T19:27:51Z</time></trkpt>
<trkpt lat="25.30458" lon="100.989611">
<time>2014-08-04T19:27:52Z</time></trkpt>
<trkpt lat="25.3045" lon="100.989541">
<time>2014-08-04T19:27:53Z</time></trkpt>
<trkpt lat="25.304391" lon="100.989461">
<time>2014-08-04T19:27:54Z</time></trkpt>
<trkpt lat="25.304271" lon="100.989352">
<time>2014-08-04T19:27:55Z</time></trkpt>
<trkpt lat="25.304211" lon="100.989282">
<time>2014-08-04T19:27:56Z</time></trkpt>
<trkpt lat="25.304161" lon="100.989202">
<time>2014-08-04T19:27:57Z</time></trkpt>
<trkpt lat="25.304102" lon="100.989093">
<time>2014-08-04T19:27:58Z</time></trkpt>
<trkpt lat="25.304052" lon="100.988993">
<time>2014-08-04T19:27:59Z</time></trkpt>
<trkpt lat="25.303982" lon="100.988903">
<time>2014-08-04T19:28:00Z</time></trkpt>
<trkpt lat="25.303933" lon="100.988834">
<time>2014-08-04T19:28:01Z</time></trkpt>
<trkpt lat="25.303863" lon="100.988764">
<time>2014-08-04T19:28:02Z</time></trkpt>
<trkpt lat="25.303763" lon="100.988694">
<time>2014-08-04T19:28:03Z</time></trkpt>
<trkpt lat="25.303643" lon="100.988625">
<time>2014-08-04T19:28:04Z</time></trkpt>
<trkpt lat="25.303194" lon="100.988386">
<time>2014-08-04T19:28:05Z</time></trkpt>
<trkpt lat="25.303044" lon="100.988306">
<time>2014-08-04T19:28:06Z</time></trkpt>
<trkpt lat="25.302944" lon="100.988226">
<time>2014-08-04T19:28:07Z</time></trkpt>
<trkpt lat="25.302884" lon="100.988166">
<time>2014-08-04T19:28:08Z</time></trkpt>
<trkpt lat="25.302835" lon="100.988117">
<time>2014-08-04T19:28:09Z</time></trkpt>
<trkpt lat="25.302785" lon="100.988047">
<time>2014-08-04T19:28:10Z</time></trkpt>
<trkpt lat="25.302745" lon="100.987977">
<time>2014-08-04T19:28:11Z</time></trkpt>
<trkpt lat="25.302715" lon="100.987907">
<time>2014-08-04T19:28:12Z</time></trkpt>
<trkpt lat="25.302695" lon="100.987828">
<time>2014-08-04T19:28:13Z</time></trkpt>
<trkpt lat="25.302656" lon="100.987668">
<time>2014-08-04T19:28:14Z</time></trkpt>
<trkpt lat="25.302636" lon="100.987529">
<time>2014-08-04T19:28:15Z</time></trkpt>
<trkpt lat="25.302616" lon="100.987469">
<time>2014-08-04T19:28:16Z</time></trkpt>
<trkpt lat="25.302597" lon="100.987399">
<time>2014-08-04T19:28:17Z</time></trkpt>
<trkpt lat="25.302557" lon="100.98732">
<time>2014-08-04T19:28:18Z</time></trkpt>
<trkpt lat="25.302497" lon="100.98724">
<time>2014-08-04T19:28:19Z</time></trkpt>
<trkpt lat="25.302437" lon="100.98715">
<time>2014-08-04T19:28:20Z</time></trkpt>
<trkpt lat="25.302358" lon="100.987071">
<time>2014-08-04T19:28:21Z</time></trkpt>
<trkpt lat="25.302238" lon="100.986951">
<time>2014-08-04T19:28:22Z</time></trkpt>
<trkpt lat="25.301939" lon="100.986692">
<time>2014-08-04T19:28:23Z</time></trkpt>
<trkpt lat="25.301889" lon="100.986642">
<time>2014-08-04T19:28:24Z</time></trkpt>
<trkpt lat="25.301849" lon="100.986593">
<time>2014-08-04T19:28:25Z</time></trkpt>
<trkpt lat="25.301839" lon="100.986583">
<time>2014-08-04T19:28:26Z</time></trkpt>
<trkpt lat="25.301829" lon="100.986563">
<time>2014-08-04T19:28:27Z</time></trkpt>
<trkpt lat="25.301829" lon="100.986553">
<time>2014-08-04T19:28:28Z</time></trkpt>
<trkpt lat="25.301819" lon="100.986543">
<time>2014-08-04T19:28:29Z</time></trkpt>
<trkpt lat="25.301799" lon="100.986503">
<time>2014-08-04T19:28:30Z</time></trkpt>
<trkpt lat="25.301789" lon="100.986473">
<time>2014-08-04T19:28:31Z</time></trkpt>
<trkpt lat="25.301789" lon="100.986453">
<time>2014-08-04T19:28:32Z</time></trkpt>
<trkpt lat="25.30178" lon="100.986423">
<time>2014-08-04T19:28:33Z</time></trkpt>
<trkpt lat="25.30178" lon="100.986383">
<time>2014-08-04T19:28:34Z</time></trkpt>
<trkpt lat="25.30177" lon="100.986314">
<time>2014-08-04T19:28:35Z</time></trkpt>
<trkpt lat="25.30178" lon="100.986254">
<time>2014-08-04T19:28:36Z</time></trkpt>
<trkpt lat="25.30179" lon="100.986194">
<time>2014-08-04T19:28:37Z</time></trkpt>
<trkpt lat="25.301811" lon="100.986075">
<time>2014-08-04T19:28:38Z</time></trkpt>
<trkpt lat="25.301892" lon="100.985586">
<time>2014-08-04T19:28:39Z</time></trkpt>
<trkpt lat="25.301943" lon="100.985288">
<time>2014-08-04T19:28:40Z</time></trkpt>
<trkpt lat="25.301984" lon="100.985009">
<time>2014-08-04T19:28:41Z</time></trkpt>
<trkpt lat="25.302004" lon="100.984839">
<time>2014-08-04T19:28:42Z</time></trkpt>
<trkpt lat="25.302066" lon="100.984351">
<time>2014-08-04T19:28:43Z</time></trkpt>
<trkpt lat="25.302097" lon="100.984082">
<time>2014-08-04T19:28:44Z</time></trkpt>
<trkpt lat="25.302117" lon="100.984002">
<time>2014-08-04T19:28:45Z</time></trkpt>
<trkpt lat="25.302127" lon="100.983923">
<time>2014-08-04T19:28:46Z</time></trkpt>
<trkpt lat="25.302137" lon="100.983863">
<time>2014-08-04T19:28:47Z</time></trkpt>
<trkpt lat="25.302147" lon="100.983803">
<time>2014-08-04T19:28:48Z</time></trkpt>
<trkpt lat="25.302157" lon="100.983773">
<time>2014-08-04T19:28:49Z</time></trkpt>
<trkpt lat="25.302178" lon="100.983704">
<time>2014-08-04T19:28:50Z</time></trkpt>
<trkpt lat="25.302218" lon="100.983604">
<time>2014-08-04T19:28:51Z</time></trkpt>
<trkpt lat="25.302258" lon="100.983494">
<time>2014-08-04T19:28:52Z</time></trkpt>
<trkpt lat="25.302309" lon="100.983395">
<time>2014-08-04T19:28:53Z</time></trkpt>
<trkpt lat="25.302359" lon="100.983295">
<time>2014-08-04T19:28:54Z</time></trkpt>
<trkpt lat="25.302419" lon="100.983116">
<time>2014-08-04T19:28:55Z</time></trkpt>
<trkpt lat="25.30248" lon="100.982927">
<time>2014-08-04T19:28:56Z</time></trkpt>
<trkpt lat="25.302601" lon="100.982419">
<time>2014-08-04T19:28:57Z</time></trkpt>
<trkpt lat="25.302682" lon="100.98211">
<time>2014-08-04T19:28:58Z</time></trkpt>
<trkpt lat="25.302743" lon="100.98193">
<time>2014-08-04T19:28:59Z</time></trkpt>
<trkpt lat="25.302783" lon="100.981811">
<time>2014-08-04T19:29:00Z</time></trkpt>
<trkpt lat="25.302804" lon="100.981721">
<time>2014-08-04T19:29:01Z</time></trkpt>
<trkpt lat="25.302814" lon="100.981632">
<time>2014-08-04T19:29:02Z</time></trkpt>
<trkpt lat="25.302814" lon="100.981532">
<time>2014-08-04T19:29:03Z</time></trkpt>
<trkpt lat="25.302804" lon="100.981442">
<time>2014-08-04T19:29:04Z</time></trkpt>
<trkpt lat="25.302785" lon="100.981363">
<time>2014-08-04T19:29:05Z</time></trkpt>
<trkpt lat="25.302725" lon="100.981143">
<time>2014-08-04T19:29:06Z</time></trkpt>
<trkpt lat="25.302656" lon="100.980954">
<time>2014-08-04T19:29:07Z</time></trkpt>
<trkpt lat="25.302477" lon="100.980456">
<time>2014-08-04T19:29:08Z</time></trkpt>
<trkpt lat="25.302448" lon="100.980346">
<time>2014-08-04T19:29:09Z</time></trkpt>
<trkpt lat="25.302388" lon="100.980177">
<time>2014-08-04T19:29:10Z</time></trkpt>
<trkpt lat="25.302358" lon="100.980097">
<time>2014-08-04T19:29:11Z</time></trkpt>
<trkpt lat="25.302348" lon="100.980048">
<time>2014-08-04T19:29:12Z</time></trkpt>
<trkpt lat="25.302329" lon="100.979988">
<time>2014-08-04T19:29:13Z</time></trkpt>
<trkpt lat="25.302309" lon="100.979928">
<time>2014-08-04T19:29:14Z</time></trkpt>
<trkpt lat="25.302309" lon="100.979898">
<time>2014-08-04T19:29:15Z</time></trkpt>
<trkpt lat="25.302299" lon="100.979858">
<time>2014-08-04T19:29:16Z</time></trkpt>
<trkpt lat="25.302289" lon="100.979808">
<time>2014-08-04T19:29:17Z</time></trkpt>
<trkpt lat="25.302289" lon="100.979769">
<time>2014-08-04T19:29:18Z</time></trkpt>
<trkpt lat="25.302279" lon="100.979719">
<time>2014-08-04T19:29:19Z</time></trkpt>
<trkpt lat="25.302279" lon="100.979679">
<time>2014-08-04T19:29:20Z</time></trkpt>
<trkpt lat="25.30227" lon="100.979629">
<time>2014-08-04T19:29:21Z</time></trkpt>
<trkpt lat="25.30228" lon="100.979569">
<time>2014-08-04T19:29:22Z</time></trkpt>
<trkpt lat="25.302291" lon="100.97928">
<time>2014-08-04T19:29:23Z</time></trkpt>
<trkpt lat="25.302301" lon="100.979151">
<time>2014-08-04T19:29:24Z</time></trkpt>
<trkpt lat="25.302313" lon="100.978543">
<time>2014-08-04T19:29:25Z</time></trkpt>
<trkpt lat="25.302324" lon="100.978045">
<time>2014-08-04T19:29:26Z</time></trkpt>
<trkpt lat="25.302334" lon="100.977955">
<time>2014-08-04T19:29:27Z</time></trkpt>
<trkpt lat="25.302345" lon="100.977856">
<time>2014-08-04T19:29:28Z</time></trkpt>
<trkpt lat="25.302345" lon="100.977796">
<time>2014-08-04T19:29:29Z</time></trkpt>
<trkpt lat="25.302355" lon="100.977766">
<time>2014-08-04T19:29:30Z</time></trkpt>
<trkpt lat="25.302365" lon="100.977716">
<time>2014-08-04T19:29:31Z</time></trkpt>
<trkpt lat="25.302365" lon="100.977696">
<time>2014-08-04T19:29:32Z</time></trkpt>
<trkpt lat="25.302375" lon="100.977666">
<time>2014-08-04T19:29:33Z</time></trkpt>
<trkpt lat="25.302395" lon="100.977617">
<time>2014-08-04T19:29:34Z</time></trkpt>
<trkpt lat="25.302415" lon="100.977577">
<time>2014-08-04T19:29:35Z</time></trkpt>
<trkpt lat="25.302426" lon="100.977547">
<time>2014-08-04T19:29:36Z</time></trkpt>
<trkpt lat="25.302446" lon="100.977517">
<time>2014-08-04T19:29:37Z</time></trkpt>
<trkpt lat="25.302476" lon="100.977487">
<time>2014-08-04T19:29:38Z</time></trkpt>
<trkpt lat="25.302496" lon="100.977457">
<time>2014-08-04T19:29:39Z</time></trkpt>
<trkpt lat="25.302526" lon="100.977427">
<time>2014-08-04T19:29:40Z</time></trkpt>
<trkpt lat="25.302586" lon="100.977388">
<time>2014-08-04T19:29:41Z</time></trkpt>
<trkpt lat="25.302776" lon="100.977278">
<time>2014-08-04T19:29:42Z</time></trkpt>
<trkpt lat="25.302816" lon="100.977248">
<time>2014-08-04T19:29:43Z</time></trkpt>
<trkpt lat="25.302847" lon="100.977218">
<time>2014-08-04T19:29:44Z</time></trkpt>
<trkpt lat="25.302877" lon="100.977188">
<time>2014-08-04T19:29:45Z</time></trkpt>
<trkpt lat="25.302897" lon="100.977158">
<time>2014-08-04T19:29:46Z</time></trkpt>
<trkpt lat="25.302917" lon="100.977118">
<time>2014-08-04T19:29:47Z</time></trkpt>
<trkpt lat="25.302927" lon="100.977079">
<time>2014-08-04T19:29:48Z</time></trkpt>
<trkpt lat="25.302947" lon="100.977039">
<time>2014-08-04T19:29:49Z</time></trkpt>
<trkpt lat="25.302957" lon="100.976989">
<time>2014-08-04T19:29:50Z</time></trkpt>
<trkpt lat="25.302968" lon="100.976879">
<time>2014-08-04T19:29:51Z</time></trkpt>
<trkpt lat="25.302988" lon="100.97674">
<time>2014-08-04T19:29:52Z</time></trkpt>
<trkpt lat="25.303008" lon="100.97668">
<time>2014-08-04T19:29:53Z</time></trkpt>
<trkpt lat="25.303028" lon="100.97663">
<time>2014-08-04T19:29:54Z</time></trkpt>
<trkpt lat="25.303048" lon="100.9766">
<time>2014-08-04T19:29:55Z</time></trkpt>
<trkpt lat="25.303068" lon="100.976561">
<time>2014-08-04T19:29:56Z</time></trkpt>
<trkpt lat="25.303109" lon="100.976531">
<time>2014-08-04T19:29:57Z</time></trkpt>
<trkpt lat="25.303229" lon="100.976451">
<time>2014-08-04T19:29:58Z</time></trkpt>
<trkpt lat="25.303359" lon="100.976381">
<time>2014-08-04T19:29:59Z</time></trkpt>
<trkpt lat="25.30386" lon="100.976142">
<time>2014-08-04T19:30:00Z</time></trkpt>
<trkpt lat="25.30394" lon="100.976092">
<time>2014-08-04T19:30:01Z</time></trkpt>
<trkpt lat="25.304" lon="100.976042">
<time>2014-08-04T19:30:02Z</time></trkpt>
<trkpt lat="25.30405" lon="100.975993">
<time>2014-08-04T19:30:03Z</time></trkpt>
<trkpt lat="25.30408" lon="100.975943">
<time>2014-08-04T19:30:04Z</time></trkpt>
<trkpt lat="25.30411" lon="100.975893">
<time>2014-08-04T19:30:05Z</time></trkpt>
<trkpt lat="25.304121" lon="100.975833">
<time>2014-08-04T19:30:06Z</time></trkpt>
<trkpt lat="25.304131" lon="100.975773">
<time>2014-08-04T19:30:07Z</time></trkpt>
<trkpt lat="25.304131" lon="100.975724">
<time>2014-08-04T19:30:08Z</time></trkpt>
<trkpt lat="25.304121" lon="100.975664">
<time>2014-08-04T19:30:09Z</time></trkpt>
<trkpt lat="25.304091" lon="100.975584">
<time>2014-08-04T19:30:10Z</time></trkpt>
<trkpt lat="25.304042" lon="100.975435">
<time>2014-08-04T19:30:11Z</time></trkpt>
<trkpt lat="25.303913" lon="100.975056">
<time>2014-08-04T19:30:12Z</time></trkpt>
<trkpt lat="25.303883" lon="100.974966">
<time>2014-08-04T19:30:13Z</time></trkpt>
<trkpt lat="25.303873" lon="100.974887">
<time>2014-08-04T19:30:14Z</time></trkpt>
<trkpt lat="25.303826" lon="100.97389">
<time>2014-08-04T19:30:15Z</time></trkpt>
<trkpt lat="25.303836" lon="100.973781">
<time>2014-08-04T19:30:16Z</time></trkpt>
<trkpt lat="25.303847" lon="100.973691">
<time>2014-08-04T19:30:17Z</time></trkpt>
<trkpt lat="25.303857" lon="100.973621">
<time>2014-08-04T19:30:18Z</time></trkpt>
<trkpt lat="25.303887" lon="100.973532">
<time>2014-08-04T19:30:19Z</time></trkpt>
<trkpt lat="25.303927" lon="100.973462">
<time>2014-08-04T19:30:20Z</time></trkpt>
<trkpt lat="25.303997" lon="100.973372">
<time>2014-08-04T19:30:21Z</time></trkpt>
<trkpt lat="25.304058" lon="100.973312">
<time>2014-08-04T19:30:22Z</time></trkpt>
<trkpt lat="25.304118" lon="100.973273">
<time>2014-08-04T19:30:23Z</time></trkpt>
<trkpt lat="25.304218" lon="100.973223">
<time>2014-08-04T19:30:24Z</time></trkpt>
<trkpt lat="25.304298" lon="100.973183">
<time>2014-08-04T19:30:25Z</time></trkpt>
<trkpt lat="25.304348" lon="100.973143">
<time>2014-08-04T19:30:26Z</time></trkpt>
<trkpt lat="25.304388" lon="100.973103">
<time>2014-08-04T19:30:27Z</time></trkpt>
<trkpt lat="25.304438" lon="100.973053">
<time>2014-08-04T19:30:28Z</time></trkpt>
<trkpt lat="25.304479" lon="100.972984">
<time>2014-08-04T19:30:29Z</time></trkpt>
<trkpt lat="25.304519" lon="100.972914">
<time>2014-08-04T19:30:30Z</time></trkpt>
<trkpt lat="25.304569" lon="100.972754">
<time>2014-08-04T19:30:31Z</time></trkpt>
<trkpt lat="25.304599" lon="100.972685">
<time>2014-08-04T19:30:32Z</time></trkpt>
<trkpt lat="25.30464" lon="100.972605">
<time>2014-08-04T19:30:33Z</time></trkpt>
<trkpt lat="25.30468" lon="100.972545">
<time>2014-08-04T19:30:34Z</time></trkpt>
<trkpt lat="25.30472" lon="100.972495">
<time>2014-08-04T19:30:35Z</time></trkpt>
<trkpt lat="25.30478" lon="100.972426">
<time>2014-08-04T19:30:36Z</time></trkpt>
<trkpt lat="25.30485" lon="100.972356">
<time>2014-08-04T19:30:37Z</time></trkpt>
<trkpt lat="25.304901" lon="100.972296">
<time>2014-08-04T19:30:38Z</time></trkpt>
<trkpt lat="25.304951" lon="100.972226">
<time>2014-08-04T19:30:39Z</time></trkpt>
<trkpt lat="25.304991" lon="100.972157">
<time>2014-08-04T19:30:40Z</time></trkpt>
<trkpt lat="25.305031" lon="100.972067">
<time>2014-08-04T19:30:41Z</time></trkpt>
<trkpt lat="25.305051" lon="100.971967">
<time>2014-08-04T19:30:42Z</time></trkpt>
<trkpt lat="25.305092" lon="100.971768">
<time>2014-08-04T19:30:43Z</time></trkpt>
<trkpt lat="25.305143" lon="100.971479">
<time>2014-08-04T19:30:44Z</time></trkpt>
<trkpt lat="25.305163" lon="100.971409">
<time>2014-08-04T19:30:45Z</time></trkpt>
<trkpt lat="25.305183" lon="100.97133">
<time>2014-08-04T19:30:46Z</time></trkpt>
<trkpt lat="25.305203" lon="100.97128">
<time>2014-08-04T19:30:47Z</time></trkpt>
<trkpt lat="25.305233" lon="100.97124">
<time>2014-08-04T19:30:48Z</time></trkpt>
<trkpt lat="25.305254" lon="100.97121">
<time>2014-08-04T19:30:49Z</time></trkpt>
<trkpt lat="25.305284" lon="100.97118">
<time>2014-08-04T19:30:50Z</time></trkpt>
<trkpt lat="25.305314" lon="100.97116">
<time>2014-08-04T19:30:51Z</time></trkpt>
<trkpt lat="25.305344" lon="100.97114">
<time>2014-08-04T19:30:52Z</time></trkpt>
<trkpt lat="25.305384" lon="100.97112">
<time>2014-08-04T19:30:53Z</time></trkpt>
<trkpt lat="25.305404" lon="100.97111">
<time>2014-08-04T19:30:54Z</time></trkpt>
<trkpt lat="25.305444" lon="100.97109">
<time>2014-08-04T19:30:55Z</time></trkpt>
<trkpt lat="25.305474" lon="100.97109">
<time>2014-08-04T19:30:56Z</time></trkpt>
<trkpt lat="25.305504" lon="100.97109">
<time>2014-08-04T19:30:57Z</time></trkpt>
<trkpt lat="25.305534" lon="100.97109">
<time>2014-08-04T19:30:58Z</time></trkpt>
<trkpt lat="25.305564" lon="100.97109">
<time>2014-08-04T19:30:59Z</time></trkpt>
<trkpt lat="25.305584" lon="100.9711">
<time>2014-08-04T19:31:00Z</time></trkpt>
<trkpt lat="25.305624" lon="100.97112">
<time>2014-08-04T19:31:01Z</time></trkpt>
<trkpt lat="25.305664" lon="100.97114">
<time>2014-08-04T19:31:02Z</time></trkpt>
<trkpt lat="25.305684" lon="100.97116">
<time>2014-08-04T19:31:03Z</time></trkpt>
<trkpt lat="25.305714" lon="100.97118">
<time>2014-08-04T19:31:04Z</time></trkpt>
<trkpt lat="25.305734" lon="100.97121">
<time>2014-08-04T19:31:05Z</time></trkpt>
<trkpt lat="25.305803" lon="100.9713">
<time>2014-08-04T19:31:06Z</time></trkpt>
<trkpt lat="25.305883" lon="100.971409">
<time>2014-08-04T19:31:07Z</time></trkpt>
<trkpt lat="25.305953" lon="100.971519">
<time>2014-08-04T19:31:08Z</time></trkpt>
<trkpt lat="25.306032" lon="100.971668">
<time>2014-08-04T19:31:09Z</time></trkpt>
<trkpt lat="25.306072" lon="100.971778">
<time>2014-08-04T19:31:10Z</time></trkpt>
<trkpt lat="25.306092" lon="100.971868">
<time>2014-08-04T19:31:11Z</time></trkpt>
<trkpt lat="25.306102" lon="100.971967">
<time>2014-08-04T19:31:12Z</time></trkpt>
<trkpt lat="25.306091" lon="100.972077">
<time>2014-08-04T19:31:13Z</time></trkpt>
<trkpt lat="25.306081" lon="100.972196">
<time>2014-08-04T19:31:14Z</time></trkpt>
<trkpt lat="25.306081" lon="100.972276">
<time>2014-08-04T19:31:15Z</time></trkpt>
<trkpt lat="25.306091" lon="100.972306">
<time>2014-08-04T19:31:16Z</time></trkpt>
<trkpt lat="25.306091" lon="100.972336">
<time>2014-08-04T19:31:17Z</time></trkpt>
<trkpt lat="25.3061" lon="100.972356">
<time>2014-08-04T19:31:18Z</time></trkpt>
<trkpt lat="25.3061" lon="100.972386">
<time>2014-08-04T19:31:19Z</time></trkpt>
<trkpt lat="25.30611" lon="100.972416">
<time>2014-08-04T19:31:20Z</time></trkpt>
<trkpt lat="25.30613" lon="100.972436">
<time>2014-08-04T19:31:21Z</time></trkpt>
<trkpt lat="25.30614" lon="100.972456">
<time>2014-08-04T19:31:22Z</time></trkpt>
<trkpt lat="25.30616" lon="100.972475">
<time>2014-08-04T19:31:23Z</time></trkpt>
<trkpt lat="25.30618" lon="100.972485">
<time>2014-08-04T19:31:24Z</time></trkpt>
<trkpt lat="25.3062" lon="100.972505">
<time>2014-08-04T19:31:25Z</time></trkpt>
<trkpt lat="25.30623" lon="100.972515">
<time>2014-08-04T19:31:26Z</time></trkpt>
<trkpt lat="25.30626" lon="100.972525">
<time>2014-08-04T19:31:27Z</time></trkpt>
<trkpt lat="25.30629" lon="100.972525">
<time>2014-08-04T19:31:28Z</time></trkpt>
<trkpt lat="25.30632" lon="100.972525">
<time>2014-08-04T19:31:29Z</time></trkpt>
<trkpt lat="25.30635" lon="100.972525">
<time>2014-08-04T19:31:30Z</time></trkpt>
<trkpt lat="25.30638" lon="100.972515">
<time>2014-08-04T19:31:31Z</time></trkpt>
<trkpt lat="25.3064" lon="100.972515">
<time>2014-08-04T19:31:32Z</time></trkpt>
<trkpt lat="25.30643" lon="100.972505">
<time>2014-08-04T19:31:33Z</time></trkpt>
<trkpt lat="25.30646" lon="100.972485">
<time>2014-08-04T19:31:34Z</time></trkpt>
<trkpt lat="25.30653" lon="100.972456">
<time>2014-08-04T19:31:35Z</time></trkpt>
<trkpt lat="25.30657" lon="100.972436">
<time>2014-08-04T19:31:36Z</time></trkpt>
<trkpt lat="25.30665" lon="100.972396">
<time>2014-08-04T19:31:37Z</time></trkpt>
<trkpt lat="25.306771" lon="100.972346">
<time>2014-08-04T19:31:38Z</time></trkpt>
<trkpt lat="25.306881" lon="100.972316">
<time>2014-08-04T19:31:39Z</time></trkpt>
<trkpt lat="25.307011" lon="100.972286">
<time>2014-08-04T19:31:40Z</time></trkpt>
<trkpt lat="25.307151" lon="100.972266">
<time>2014-08-04T19:31:41Z</time></trkpt>
<trkpt lat="25.307291" lon="100.972246">
<time>2014-08-04T19:31:42Z</time></trkpt>
<trkpt lat="25.307431" lon="100.972236">
<time>2014-08-04T19:31:43Z</time></trkpt>
<trkpt lat="25.307551" lon="100.972246">
<time>2014-08-04T19:31:44Z</time></trkpt>
<trkpt lat="25.307611" lon="100.972246">
<time>2014-08-04T19:31:45Z</time></trkpt>
<trkpt lat="25.307651" lon="100.972256">
<time>2014-08-04T19:31:46Z</time></trkpt>
<trkpt lat="25.307691" lon="100.972266">
<time>2014-08-04T19:31:47Z</time></trkpt>
<trkpt lat="25.307721" lon="100.972266">
<time>2014-08-04T19:31:48Z</time></trkpt>
<trkpt lat="25.307761" lon="100.972286">
<time>2014-08-04T19:31:49Z</time></trkpt>
<trkpt lat="25.307791" lon="100.972306">
<time>2014-08-04T19:31:50Z</time></trkpt>
<trkpt lat="25.307821" lon="100.972316">
<time>2014-08-04T19:31:51Z</time></trkpt>
<trkpt lat="25.307841" lon="100.972336">
<time>2014-08-04T19:31:52Z</time></trkpt>
<trkpt lat="25.307881" lon="100.972366">
<time>2014-08-04T19:31:53Z</time></trkpt>
<trkpt lat="25.30799" lon="100.972455">
<time>2014-08-04T19:31:54Z</time></trkpt>
<trkpt lat="25.30804" lon="100.972505">
<time>2014-08-04T19:31:55Z</time></trkpt>
<trkpt lat="25.30808" lon="100.972535">
<time>2014-08-04T19:31:56Z</time></trkpt>
<trkpt lat="25.30812" lon="100.972555">
<time>2014-08-04T19:31:57Z</time></trkpt>
<trkpt lat="25.30814" lon="100.972565">
<time>2014-08-04T19:31:58Z</time></trkpt>
<trkpt lat="25.30816" lon="100.972575">
<time>2014-08-04T19:31:59Z</time></trkpt>
<trkpt lat="25.30819" lon="100.972575">
<time>2014-08-04T19:32:00Z</time></trkpt>
<trkpt lat="25.30822" lon="100.972575">
<time>2014-08-04T19:32:01Z</time></trkpt>
<trkpt lat="25.30825" lon="100.972575">
<time>2014-08-04T19:32:02Z</time></trkpt>
<trkpt lat="25.30828" lon="100.972565">
<time>2014-08-04T19:32:03Z</time></trkpt>
<trkpt lat="25.30831" lon="100.972555">
<time>2014-08-04T19:32:04Z</time></trkpt>
<trkpt lat="25.30834" lon="100.972535">
<time>2014-08-04T19:32:05Z</time></trkpt>
<trkpt lat="25.30836" lon="100.972515">
<time>2014-08-04T19:32:06Z</time></trkpt>
<trkpt lat="25.30839" lon="100.972495">
<time>2014-08-04T19:32:07Z</time></trkpt>
<trkpt lat="25.30841" lon="100.972465">
<time>2014-08-04T19:32:08Z</time></trkpt>
<trkpt lat="25.30843" lon="100.972416">
<time>2014-08-04T19:32:09Z</time></trkpt>
<trkpt lat="25.308451" lon="100.972376">
<time>2014-08-04T19:32:10Z</time></trkpt>
<trkpt lat="25.308471" lon="100.972326">
<time>2014-08-04T19:32:11Z</time></trkpt>
<trkpt lat="25.308491" lon="100.972236">
<time>2014-08-04T19:32:12Z</time></trkpt>
<trkpt lat="25.308491" lon="100.972147">
<time>2014-08-04T19:32:13Z</time></trkpt>
<trkpt lat="25.308491" lon="100.972057">
<time>2014-08-04T19:32:14Z</time></trkpt>
<trkpt lat="25.308482" lon="100.971947">
<time>2014-08-04T19:32:15Z</time></trkpt>
<trkpt lat="25.308462" lon="100.971808">
<time>2014-08-04T19:32:16Z</time></trkpt>
<trkpt lat="25.308452" lon="100.971688">
<time>2014-08-04T19:32:17Z</time></trkpt>
<trkpt lat="25.308443" lon="100.971539">
<time>2014-08-04T19:32:18Z</time></trkpt>
<trkpt lat="25.308463" lon="100.971349">
<time>2014-08-04T19:32:19Z</time></trkpt>
<trkpt lat="25.308474" lon="100.97125">
<time>2014-08-04T19:32:20Z</time></trkpt>
<trkpt lat="25.308494" lon="100.97113">
<time>2014-08-04T19:32:21Z</time></trkpt>
<trkpt lat="25.308514" lon="100.971031">
<time>2014-08-04T19:32:22Z</time></trkpt>
<trkpt lat="25.308525" lon="100.970931">
<time>2014-08-04T19:32:23Z</time></trkpt>
<trkpt lat="25.308525" lon="100.970841">
<time>2014-08-04T19:32:24Z</time></trkpt>
<trkpt lat="25.308515" lon="100.970762">
<time>2014-08-04T19:32:25Z</time></trkpt>
<trkpt lat="25.308505" lon="100.970692">
<time>2014-08-04T19:32:26Z</time></trkpt>
<trkpt lat="25.308485" lon="100.970622">
<time>2014-08-04T19:32:27Z</time></trkpt>
<trkpt lat="25.308456" lon="100.970552">
<time>2014-08-04T19:32:28Z</time></trkpt>
<trkpt lat="25.308416" lon="100.970463">
<time>2014-08-04T19:32:29Z</time></trkpt>
<trkpt lat="25.308306" lon="100.970243">
<time>2014-08-04T19:32:30Z</time></trkpt>
<trkpt lat="25.308247" lon="100.970084">
<time>2014-08-04T19:32:31Z</time></trkpt>
<trkpt lat="25.308227" lon="100.970014">
<time>2014-08-04T19:32:32Z</time></trkpt>
<trkpt lat="25.308217" lon="100.969964">
<time>2014-08-04T19:32:33Z</time></trkpt>
<trkpt lat="25.308217" lon="100.969925">
<time>2014-08-04T19:32:34Z</time></trkpt>
<trkpt lat="25.308217" lon="100.969885">
<time>2014-08-04T19:32:35Z</time></trkpt>
<trkpt lat="25.308217" lon="100.969845">
<time>2014-08-04T19:32:36Z</time></trkpt>
<trkpt lat="25.308228" lon="100.969795">
<time>2014-08-04T19:32:37Z</time></trkpt>
<trkpt lat="25.308248" lon="100.969735">
<time>2014-08-04T19:32:38Z</time></trkpt>
<trkpt lat="25.308288" lon="100.969606">
<time>2014-08-04T19:32:39Z</time></trkpt>
<trkpt lat="25.308319" lon="100.969466">
<time>2014-08-04T19:32:40Z</time></trkpt>
<trkpt lat="25.308349" lon="100.969347">
<time>2014-08-04T19:32:41Z</time></trkpt>
<trkpt lat="25.308359" lon="100.969267">
<time>2014-08-04T19:32:42Z</time></trkpt>
<trkpt lat="25.308359" lon="100.969187">
<time>2014-08-04T19:32:43Z</time></trkpt>
<trkpt lat="25.30835" lon="100.969088">
<time>2014-08-04T19:32:44Z</time></trkpt>
<trkpt lat="25.30832" lon="100.968958">
<time>2014-08-04T19:32:45Z</time></trkpt>
<trkpt lat="25.30826" lon="100.968789">
<time>2014-08-04T19:32:46Z</time></trkpt>
<trkpt lat="25.308211" lon="100.968599">
<time>2014-08-04T19:32:47Z</time></trkpt>
<trkpt lat="25.308191" lon="100.9685">
<time>2014-08-04T19:32:48Z</time></trkpt>
<trkpt lat="25.308181" lon="100.96844">
<time>2014-08-04T19:32:49Z</time></trkpt>
<trkpt lat="25.308191" lon="100.96836">
<time>2014-08-04T19:32:50Z</time></trkpt>
<trkpt lat="25.308232" lon="100.96827">
<time>2014-08-04T19:32:51Z</time></trkpt>
<trkpt lat="25.308262" lon="100.968231">
<time>2014-08-04T19:32:52Z</time></trkpt>
<trkpt lat="25.308302" lon="100.968181">
<time>2014-08-04T19:32:53Z</time></trkpt>
<trkpt lat="25.308362" lon="100.968141">
<time>2014-08-04T19:32:54Z</time></trkpt>
<trkpt lat="25.308422" lon="100.968121">
<time>2014-08-04T19:32:55Z</time></trkpt>
<trkpt lat="25.308472" lon="100.968121">
<time>2014-08-04T19:32:56Z</time></trkpt>
<trkpt lat="25.308522" lon="100.968131">
<time>2014-08-04T19:32:57Z</time></trkpt>
<trkpt lat="25.308592" lon="100.968141">
<time>2014-08-04T19:32:58Z</time></trkpt>
<trkpt lat="25.308662" lon="100.968171">
<time>2014-08-04T19:32:59Z</time></trkpt>
<trkpt lat="25.308752" lon="100.968231">
<time>2014-08-04T19:33:00Z</time></trkpt>
<trkpt lat="25.308912" lon="100.96836">
<time>2014-08-04T19:33:01Z</time></trkpt>
<trkpt lat="25.309291" lon="100.968659">
<time>2014-08-04T19:33:02Z</time></trkpt>
<trkpt lat="25.309401" lon="100.968749">
<time>2014-08-04T19:33:03Z</time></trkpt>
<trkpt lat="25.30946" lon="100.968779">
<time>2014-08-04T19:33:04Z</time></trkpt>
<trkpt lat="25.30953" lon="100.968789">
<time>2014-08-04T19:33:05Z</time></trkpt>
<trkpt lat="25.30958" lon="100.968779">
<time>2014-08-04T19:33:06Z</time></trkpt>
<trkpt lat="25.30962" lon="100.968769">
<time>2014-08-04T19:33:07Z</time></trkpt>
<trkpt lat="25.309651" lon="100.968749">
<time>2014-08-04T19:33:08Z</time></trkpt>
<trkpt lat="25.309681" lon="100.968719">
<time>2014-08-04T19:33:09Z</time></trkpt>
<trkpt lat="25.309711" lon="100.968679">
<time>2014-08-04T19:33:10Z</time></trkpt>
<trkpt lat="25.309731" lon="100.968619">
<time>2014-08-04T19:33:11Z</time></trkpt>
<trkpt lat="25.309751" lon="100.968569">
<time>2014-08-04T19:33:12Z</time></trkpt>
<trkpt lat="25.309771" lon="100.96845">
<time>2014-08-04T19:33:13Z</time></trkpt>
<trkpt lat="25.309812" lon="100.96836">
<time>2014-08-04T19:33:14Z</time></trkpt>
<trkpt lat="25.309872" lon="100.968221">
<time>2014-08-04T19:33:15Z</time></trkpt>
<trkpt lat="25.309912" lon="100.968151">
<time>2014-08-04T19:33:16Z</time></trkpt>
<trkpt lat="25.309972" lon="100.968061">
<time>2014-08-04T19:33:17Z</time></trkpt>
<trkpt lat="25.310083" lon="100.967952">
<time>2014-08-04T19:33:18Z</time></trkpt>
<trkpt lat="25.310203" lon="100.967842">
<time>2014-08-04T19:33:19Z</time></trkpt>
<trkpt lat="25.310283" lon="100.967762">
<time>2014-08-04T19:33:20Z</time></trkpt>
<trkpt lat="25.310383" lon="100.967702">
<time>2014-08-04T19:33:21Z</time></trkpt>
<trkpt lat="25.310454" lon="100.967663">
<time>2014-08-04T19:33:22Z</time></trkpt>
<trkpt lat="25.310554" lon="100.967623">
<time>2014-08-04T19:33:23Z</time></trkpt>
<trkpt lat="25.310664" lon="100.967593">
<time>2014-08-04T19:33:24Z</time></trkpt>
<trkpt lat="25.310764" lon="100.967573">
<time>2014-08-04T19:33:25Z</time></trkpt>
<trkpt lat="25.310834" lon="100.967563">
<time>2014-08-04T19:33:26Z</time></trkpt>
<trkpt lat="25.310914" lon="100.967533">
<time>2014-08-04T19:33:27Z</time></trkpt>
<trkpt lat="25.310974" lon="100.967503">
<time>2014-08-04T19:33:28Z</time></trkpt>
<trkpt lat="25.311004" lon="100.967483">
<time>2014-08-04T19:33:29Z</time></trkpt>
<trkpt lat="25.311034" lon="100.967453">
<time>2014-08-04T19:33:30Z</time></trkpt>
<trkpt lat="25.311064" lon="100.967413">
<time>2014-08-04T19:33:31Z</time></trkpt>
<trkpt lat="25.311114" lon="100.967324">
<time>2014-08-04T19:33:32Z</time></trkpt>
<trkpt lat="25.311175" lon="100.967184">
<time>2014-08-04T19:33:33Z</time></trkpt>
<trkpt lat="25.311245" lon="100.967045">
<time>2014-08-04T19:33:34Z</time></trkpt>
<trkpt lat="25.311376" lon="100.966905">
<time>2014-08-04T19:33:35Z</time></trkpt>
<trkpt lat="25.311466" lon="100.966825">
<time>2014-08-04T19:33:36Z</time></trkpt>
<trkpt lat="25.311516" lon="100.966766">
<time>2014-08-04T19:33:37Z</time></trkpt>
<trkpt lat="25.311546" lon="100.966716">
<time>2014-08-04T19:33:38Z</time></trkpt>
<trkpt lat="25.311566" lon="100.966646">
<time>2014-08-04T19:33:39Z</time></trkpt>
<trkpt lat="25.311576" lon="100.966576">
<time>2014-08-04T19:33:40Z</time></trkpt>
<trkpt lat="25.311597" lon="100.966467">
<time>2014-08-04T19:33:41Z</time></trkpt>
<trkpt lat="25.311597" lon="100.966337">
<time>2014-08-04T19:33:42Z</time></trkpt>
<trkpt lat="25.311607" lon="100.966218">
<time>2014-08-04T19:33:43Z</time></trkpt>
<trkpt lat="25.311638" lon="100.966148">
<time>2014-08-04T19:33:44Z</time></trkpt>
<trkpt lat="25.311668" lon="100.966078">
<time>2014-08-04T19:33:45Z</time></trkpt>
<trkpt lat="25.311708" lon="100.966038">
<time>2014-08-04T19:33:46Z</time></trkpt>
<trkpt lat="25.311738" lon="100.966018">
<time>2014-08-04T19:33:47Z</time></trkpt>
<trkpt lat="25.311788" lon="100.965998">
<time>2014-08-04T19:33:48Z</time></trkpt>
<trkpt lat="25.311818" lon="100.965998">
<time>2014-08-04T19:33:49Z</time></trkpt>
<trkpt lat="25.311848" lon="100.965998">
<time>2014-08-04T19:33:50Z</time></trkpt>
<trkpt lat="25.311878" lon="100.965998">
<time>2014-08-04T19:33:51Z</time></trkpt>
<trkpt lat="25.311908" lon="100.966008">
<time>2014-08-04T19:33:52Z</time></trkpt>
<trkpt lat="25.311948" lon="100.966018">
<time>2014-08-04T19:33:53Z</time></trkpt>
<trkpt lat="25.311998" lon="100.966058">
<time>2014-08-04T19:33:54Z</time></trkpt>
<trkpt lat="25.312078" lon="100.966118">
<time>2014-08-04T19:33:55Z</time></trkpt>
<trkpt lat="25.312177" lon="100.966217">
<time>2014-08-04T19:33:56Z</time></trkpt>
<trkpt lat="25.312237" lon="100.966267">
<time>2014-08-04T19:33:57Z</time></trkpt>
<trkpt lat="25.312287" lon="100.966287">
<time>2014-08-04T19:33:58Z</time></trkpt>
<trkpt lat="25.312337" lon="100.966307">
<time>2014-08-04T19:33:59Z</time></trkpt>
<trkpt lat="25.312387" lon="100.966307">
<time>2014-08-04T19:34:00Z</time></trkpt>
<trkpt lat="25.312457" lon="100.966297">
<time>2014-08-04T19:34:01Z</time></trkpt>
<trkpt lat="25.312517" lon="100.966267">
<time>2014-08-04T19:34:02Z</time></trkpt>
<trkpt lat="25.312558" lon="100.966188">
<time>2014-08-04T19:34:03Z</time></trkpt>
<trkpt lat="25.312578" lon="100.966128">
<time>2014-08-04T19:34:04Z</time></trkpt>
<trkpt lat="25.312588" lon="100.966078">
<time>2014-08-04T19:34:05Z</time></trkpt>
<trkpt lat="25.312598" lon="100.965978">
<time>2014-08-04T19:34:06Z</time></trkpt>
<trkpt lat="25.312559" lon="100.965779">
<time>2014-08-04T19:34:07Z</time></trkpt>
<trkpt lat="25.312441" lon="100.965012">
<time>2014-08-04T19:34:08Z</time></trkpt>
<trkpt lat="25.312432" lon="100.964324">
<time>2014-08-04T19:34:09Z</time></trkpt>
<trkpt lat="25.312463" lon="100.964155">
<time>2014-08-04T19:34:10Z</time></trkpt>
<trkpt lat="25.312483" lon="100.964105">
<time>2014-08-04T19:34:11Z</time></trkpt>
<trkpt lat="25.312533" lon="100.964045">
<time>2014-08-04T19:34:12Z</time></trkpt>
<trkpt lat="25.312563" lon="100.964025">
<time>2014-08-04T19:34:13Z</time></trkpt>
<trkpt lat="25.312603" lon="100.963995">
<time>2014-08-04T19:34:14Z</time></trkpt>
<trkpt lat="25.312643" lon="100.963975">
<time>2014-08-04T19:34:15Z</time></trkpt>
<trkpt lat="25.312673" lon="100.963975">
<time>2014-08-04T19:34:16Z</time></trkpt>
<trkpt lat="25.312703" lon="100.963975">
<time>2014-08-04T19:34:17Z</time></trkpt>
<trkpt lat="25.312743" lon="100.963985">
<time>2014-08-04T19:34:18Z</time></trkpt>
<trkpt lat="25.312783" lon="100.964005">
<time>2014-08-04T19:34:19Z</time></trkpt>
<trkpt lat="25.312873" lon="100.964055">
<time>2014-08-04T19:34:20Z</time></trkpt>
<trkpt lat="25.312983" lon="100.964135">
<time>2014-08-04T19:34:21Z</time></trkpt>
<trkpt lat="25.313043" lon="100.964184">
<time>2014-08-04T19:34:22Z</time></trkpt>
<trkpt lat="25.313103" lon="100.964224">
<time>2014-08-04T19:34:23Z</time></trkpt>
<trkpt lat="25.313153" lon="100.964254">
<time>2014-08-04T19:34:24Z</time></trkpt>
<trkpt lat="25.313213" lon="100.964264">
<time>2014-08-04T19:34:25Z</time></trkpt>
<trkpt lat="25.313253" lon="100.964254">
<time>2014-08-04T19:34:26Z</time></trkpt>
<trkpt lat="25.313293" lon="100.964244">
<time>2014-08-04T19:34:27Z</time></trkpt>
<trkpt lat="25.313323" lon="100.964234">
<time>2014-08-04T19:34:28Z</time></trkpt>
<trkpt lat="25.313363" lon="100.964204">
<time>2014-08-04T19:34:29Z</time></trkpt>
<trkpt lat="25.313403" lon="100.964145">
<time>2014-08-04T19:34:30Z</time></trkpt>
<trkpt lat="25.313433" lon="100.964065">
<time>2014-08-04T19:34:31Z</time></trkpt>
<trkpt lat="25.313453" lon="100.964005">
<time>2014-08-04T19:34:32Z</time></trkpt>
<trkpt lat="25.313504" lon="100.963706">
<time>2014-08-04T19:34:33Z</time></trkpt>
<trkpt lat="25.313514" lon="100.963567">
<time>2014-08-04T19:34:34Z</time></trkpt>
<trkpt lat="25.313535" lon="100.963407">
<time>2014-08-04T19:34:35Z</time></trkpt>
<trkpt lat="25.313555" lon="100.963317">
<time>2014-08-04T19:34:36Z</time></trkpt>
<trkpt lat="25.313575" lon="100.963228">
<time>2014-08-04T19:34:37Z</time></trkpt>
<trkpt lat="25.313616" lon="100.963128">
<time>2014-08-04T19:34:38Z</time></trkpt>
<trkpt lat="25.313656" lon="100.963048">
<time>2014-08-04T19:34:39Z</time></trkpt>
<trkpt lat="25.313676" lon="100.963018">
<time>2014-08-04T19:34:40Z</time></trkpt>
<trkpt lat="25.313706" lon="100.962988">
<time>2014-08-04T19:34:41Z</time></trkpt>
<trkpt lat="25.313766" lon="100.962969">
<time>2014-08-04T19:34:42Z</time></trkpt>
<trkpt lat="25.313806" lon="100.962949">
<time>2014-08-04T19:34:43Z</time></trkpt>
<trkpt lat="25.313906" lon="100.962939">
<time>2014-08-04T19:34:44Z</time></trkpt>
<trkpt lat="25.314026" lon="100.962939">
<time>2014-08-04T19:34:45Z</time></trkpt>
<trkpt lat="25.314126" lon="100.962909">
<time>2014-08-04T19:34:46Z</time></trkpt>
<trkpt lat="25.314176" lon="100.962879">
<time>2014-08-04T19:34:47Z</time></trkpt>
<trkpt lat="25.314206" lon="100.962849">
<time>2014-08-04T19:34:48Z</time></trkpt>
<trkpt lat="25.314256" lon="100.962789">
<time>2014-08-04T19:34:49Z</time></trkpt>
<trkpt lat="25.314277" lon="100.962729">
<time>2014-08-04T19:34:50Z</time></trkpt>
<trkpt lat="25.314287" lon="100.96264">
<time>2014-08-04T19:34:51Z</time></trkpt>
<trkpt lat="25.314297" lon="100.96253">
<time>2014-08-04T19:34:52Z</time></trkpt>
<trkpt lat="25.314297" lon="100.96248">
<time>2014-08-04T19:34:53Z</time></trkpt>
<trkpt lat="25.314317" lon="100.96239">
<time>2014-08-04T19:34:54Z</time></trkpt>
<trkpt lat="25.314338" lon="100.962351">
<time>2014-08-04T19:34:55Z</time></trkpt>
<trkpt lat="25.314388" lon="100.962301">
<time>2014-08-04T19:34:56Z</time></trkpt>
<trkpt lat="25.314458" lon="100.962261">
<time>2014-08-04T19:34:57Z</time></trkpt>
<trkpt lat="25.314518" lon="100.962241">
<time>2014-08-04T19:34:58Z</time></trkpt>
<trkpt lat="25.314588" lon="100.962241">
<time>2014-08-04T19:34:59Z</time></trkpt>
<trkpt lat="25.314638" lon="100.962251">
<time>2014-08-04T19:35:00Z</time></trkpt>
<trkpt lat="25.314738" lon="100.962291">
<time>2014-08-04T19:35:01Z</time></trkpt>
<trkpt lat="25.314878" lon="100.962361">
<time>2014-08-04T19:35:02Z</time></trkpt>
<trkpt lat="25.315097" lon="100.96247">
<time>2014-08-04T19:35:03Z</time></trkpt>
<trkpt lat="25.315197" lon="100.96249">
<time>2014-08-04T19:35:04Z</time></trkpt>
<trkpt lat="25.315237" lon="100.96249">
<time>2014-08-04T19:35:05Z</time></trkpt>
<trkpt lat="25.315267" lon="100.96249">
<time>2014-08-04T19:35:06Z</time></trkpt>
<trkpt lat="25.315317" lon="100.96247">
<time>2014-08-04T19:35:07Z</time></trkpt>
<trkpt lat="25.315367" lon="100.96245">
<time>2014-08-04T19:35:08Z</time></trkpt>
<trkpt lat="25.315418" lon="100.962371">
<time>2014-08-04T19:35:09Z</time></trkpt>
<trkpt lat="25.315438" lon="100.962301">
<time>2014-08-04T19:35:10Z</time></trkpt>
<trkpt lat="25.315458" lon="100.962241">
<time>2014-08-04T19:35:11Z</time></trkpt>
<trkpt lat="25.315458" lon="100.962151">
<time>2014-08-04T19:35:12Z</time></trkpt>
<trkpt lat="25.315439" lon="100.962012">
<time>2014-08-04T19:35:13Z</time></trkpt>
<trkpt lat="25.315409" lon="100.961802">
<time>2014-08-04T19:35:14Z</time></trkpt>
<trkpt lat="25.315399" lon="100.961743">
<time>2014-08-04T19:35:15Z</time></trkpt>
<trkpt lat="25.315399" lon="100.961653">
<time>2014-08-04T19:35:16Z</time></trkpt>
<trkpt lat="25.3154" lon="100.961563">
<time>2014-08-04T19:35:17Z</time></trkpt>
<trkpt lat="25.31541" lon="100.961493">
<time>2014-08-04T19:35:18Z</time></trkpt>
<trkpt lat="25.31543" lon="100.961444">
<time>2014-08-04T19:35:19Z</time></trkpt>
<trkpt lat="25.31546" lon="100.961414">
<time>2014-08-04T19:35:20Z</time></trkpt>
<trkpt lat="25.3155" lon="100.961374">
<time>2014-08-04T19:35:21Z</time></trkpt>
<trkpt lat="25.31554" lon="100.961344">
<time>2014-08-04T19:35:22Z</time></trkpt>
<trkpt lat="25.31558" lon="100.961324">
<time>2014-08-04T19:35:23Z</time></trkpt>
<trkpt lat="25.31564" lon="100.961314">
<time>2014-08-04T19:35:24Z</time></trkpt>
<trkpt lat="25.3157" lon="100.961304">
<time>2014-08-04T19:35:25Z</time></trkpt>
<trkpt lat="25.31577" lon="100.961304">
<time>2014-08-04T19:35:26Z</time></trkpt>
<trkpt lat="25.31587" lon="100.961294">
<time>2014-08-04T19:35:27Z</time></trkpt>
<trkpt lat="25.31595" lon="100.961254">
<time>2014-08-04T19:35:28Z</time></trkpt>
<trkpt lat="25.316011" lon="100.961184">
<time>2014-08-04T19:35:29Z</time></trkpt>
<trkpt lat="25.316051" lon="100.961135">
<time>2014-08-04T19:35:30Z</time></trkpt>
<trkpt lat="25.316061" lon="100.961055">
<time>2014-08-04T19:35:31Z</time></trkpt>
<trkpt lat="25.316051" lon="100.960975">
<time>2014-08-04T19:35:32Z</time></trkpt>
<trkpt lat="25.316031" lon="100.960895">
<time>2014-08-04T19:35:33Z</time></trkpt>
<trkpt lat="25.315982" lon="100.960796">
<time>2014-08-04T19:35:34Z</time></trkpt>
<trkpt lat="25.315902" lon="100.960656">
<time>2014-08-04T19:35:35Z</time></trkpt>
<trkpt lat="25.315792" lon="100.960457">
<time>2014-08-04T19:35:36Z</time></trkpt>
<trkpt lat="25.315743" lon="100.960327">
<time>2014-08-04T19:35:37Z</time></trkpt>
<trkpt lat="25.315723" lon="100.960218">
<time>2014-08-04T19:35:38Z</time></trkpt>
<trkpt lat="25.315734" lon="100.959998">
<time>2014-08-04T19:35:39Z</time></trkpt>
<trkpt lat="25.315714" lon="100.959779">
<time>2014-08-04T19:35:40Z</time></trkpt>
<trkpt lat="25.315675" lon="100.95956">
<time>2014-08-04T19:35:41Z</time></trkpt>
<trkpt lat="25.315615" lon="100.959251">
<time>2014-08-04T19:35:42Z</time></trkpt>
<trkpt lat="25.315616" lon="100.959051">
<time>2014-08-04T19:35:43Z</time></trkpt>
<trkpt lat="25.315646" lon="100.958922">
<time>2014-08-04T19:35:44Z</time></trkpt>
<trkpt lat="25.315706" lon="100.958782">
<time>2014-08-04T19:35:45Z</time></trkpt>
<trkpt lat="25.315827" lon="100.958593">
<time>2014-08-04T19:35:46Z</time></trkpt>
<trkpt lat="25.316028" lon="100.958164">
<time>2014-08-04T19:35:47Z</time></trkpt>
<trkpt lat="25.316168" lon="100.957945">
<time>2014-08-04T19:35:48Z</time></trkpt>
<trkpt lat="25.316249" lon="100.957835">
<time>2014-08-04T19:35:49Z</time></trkpt>
<trkpt lat="25.316339" lon="100.957766">
<time>2014-08-04T19:35:50Z</time></trkpt>
<trkpt lat="25.316449" lon="100.957686">
<time>2014-08-04T19:35:51Z</time></trkpt>
<trkpt lat="25.316739" lon="100.957556">
<time>2014-08-04T19:35:52Z</time></trkpt>
<trkpt lat="25.31679" lon="100.957536">
<time>2014-08-04T19:35:53Z</time></trkpt>
<trkpt lat="25.31686" lon="100.957526">
<time>2014-08-04T19:35:54Z</time></trkpt>
<trkpt lat="25.31692" lon="100.957526">
<time>2014-08-04T19:35:55Z</time></trkpt>
<trkpt lat="25.31699" lon="100.957536">
<time>2014-08-04T19:35:56Z</time></trkpt>
<trkpt lat="25.31706" lon="100.957556">
<time>2014-08-04T19:35:57Z</time></trkpt>
<trkpt lat="25.317129" lon="100.957586">
<time>2014-08-04T19:35:58Z</time></trkpt>
<trkpt lat="25.317259" lon="100.957666">
<time>2014-08-04T19:35:59Z</time></trkpt>
<trkpt lat="25.317349" lon="100.957716">
<time>2014-08-04T19:36:00Z</time></trkpt>
<trkpt lat="25.317429" lon="100.957746">
<time>2014-08-04T19:36:01Z</time></trkpt>
<trkpt lat="25.317499" lon="100.957746">
<time>2014-08-04T19:36:02Z</time></trkpt>
<trkpt lat="25.317569" lon="100.957736">
<time>2014-08-04T19:36:03Z</time></trkpt>
<trkpt lat="25.317709" lon="100.957656">
<time>2014-08-04T19:36:04Z</time></trkpt>
<trkpt lat="25.317779" lon="100.957586">
<time>2014-08-04T19:36:05Z</time></trkpt>
<trkpt lat="25.31782" lon="100.957466">
<time>2014-08-04T19:36:06Z</time></trkpt>
<trkpt lat="25.31783" lon="100.957307">
<time>2014-08-04T19:36:07Z</time></trkpt>
<trkpt lat="25.317821" lon="100.957118">
<time>2014-08-04T19:36:08Z</time></trkpt>
<trkpt lat="25.317801" lon="100.956988">
<time>2014-08-04T19:36:09Z</time></trkpt>
<trkpt lat="25.317751" lon="100.956749">
<time>2014-08-04T19:36:10Z</time></trkpt>
<trkpt lat="25.317642" lon="100.95638">
<time>2014-08-04T19:36:11Z</time></trkpt>
<trkpt lat="25.317513" lon="100.955991">
<time>2014-08-04T19:36:12Z</time></trkpt>
<trkpt lat="25.317434" lon="100.955792">
<time>2014-08-04T19:36:13Z</time></trkpt>
<trkpt lat="25.317394" lon="100.955582">
<time>2014-08-04T19:36:14Z</time></trkpt>
<trkpt lat="25.317395" lon="100.955363">
<time>2014-08-04T19:36:15Z</time></trkpt>
<trkpt lat="25.317415" lon="100.955154">
<time>2014-08-04T19:36:16Z</time></trkpt>
<trkpt lat="25.317436" lon="100.954944">
<time>2014-08-04T19:36:17Z</time></trkpt>
<trkpt lat="25.317436" lon="100.954855">
<time>2014-08-04T19:36:18Z</time></trkpt>
<trkpt lat="25.317436" lon="100.954755">
<time>2014-08-04T19:36:19Z</time></trkpt>
<trkpt lat="25.317376" lon="100.954605">
<time>2014-08-04T19:36:20Z</time></trkpt>
<trkpt lat="25.317257" lon="100.954496">
<time>2014-08-04T19:36:21Z</time></trkpt>
<trkpt lat="25.317137" lon="100.954466">
<time>2014-08-04T19:36:22Z</time></trkpt>
<trkpt lat="25.316987" lon="100.954506">
<time>2014-08-04T19:36:23Z</time></trkpt>
<trkpt lat="25.316916" lon="100.954645">
<time>2014-08-04T19:36:24Z</time></trkpt>
<trkpt lat="25.316906" lon="100.954855">
<time>2014-08-04T19:36:25Z</time></trkpt>
<trkpt lat="25.316885" lon="100.955044">
<time>2014-08-04T19:36:26Z</time></trkpt>
<trkpt lat="25.316845" lon="100.955273">
<time>2014-08-04T19:36:27Z</time></trkpt>
<trkpt lat="25.316814" lon="100.955493">
<time>2014-08-04T19:36:28Z</time></trkpt>
<trkpt lat="25.316774" lon="100.955712">
<time>2014-08-04T19:36:29Z</time></trkpt>
<trkpt lat="25.316693" lon="100.955901">
<time>2014-08-04T19:36:30Z</time></trkpt>
<trkpt lat="25.316563" lon="100.956071">
<time>2014-08-04T19:36:31Z</time></trkpt>
<trkpt lat="25.316443" lon="100.956191">
<time>2014-08-04T19:36:32Z</time></trkpt>
<trkpt lat="25.316312" lon="100.95627">
<time>2014-08-04T19:36:33Z</time></trkpt>
<trkpt lat="25.316212" lon="100.95628">
<time>2014-08-04T19:36:34Z</time></trkpt>
<trkpt lat="25.316132" lon="100.95626">
<time>2014-08-04T19:36:35Z</time></trkpt>
<trkpt lat="25.315973" lon="100.956181">
<time>2014-08-04T19:36:36Z</time></trkpt>
<trkpt lat="25.315813" lon="100.956091">
<time>2014-08-04T19:36:37Z</time></trkpt>
<trkpt lat="25.315653" lon="100.956051">
<time>2014-08-04T19:36:38Z</time></trkpt>
<trkpt lat="25.315473" lon="100.956091">
<time>2014-08-04T19:36:39Z</time></trkpt>
<trkpt lat="25.315303" lon="100.956201">
<time>2014-08-04T19:36:40Z</time></trkpt>
<trkpt lat="25.315122" lon="100.95634">
<time>2014-08-04T19:36:41Z</time></trkpt>
<trkpt lat="25.314942" lon="100.95649">
<time>2014-08-04T19:36:42Z</time></trkpt>
<trkpt lat="25.314771" lon="100.956659">
<time>2014-08-04T19:36:43Z</time></trkpt>
<trkpt lat="25.314591" lon="100.956829">
<time>2014-08-04T19:36:44Z</time></trkpt>
<trkpt lat="25.314411" lon="100.957008">
<time>2014-08-04T19:36:45Z</time></trkpt>
<trkpt lat="25.31424" lon="100.957187">
<time>2014-08-04T19:36:46Z</time></trkpt>
<trkpt lat="25.31408" lon="100.957347">
<time>2014-08-04T19:36:47Z</time></trkpt>
<trkpt lat="25.313959" lon="100.957447">
<time>2014-08-04T19:36:48Z</time></trkpt>
<trkpt lat="25.313829" lon="100.957546">
<time>2014-08-04T19:36:49Z</time></trkpt>
<trkpt lat="25.313679" lon="100.957546">
<time>2014-08-04T19:36:50Z</time></trkpt>
<trkpt lat="25.313539" lon="100.957487">
<time>2014-08-04T19:36:51Z</time></trkpt>
<trkpt lat="25.31341" lon="100.957377">
<time>2014-08-04T19:36:52Z</time></trkpt>
<trkpt lat="25.3133" lon="100.957257">
<time>2014-08-04T19:36:53Z</time></trkpt>
<trkpt lat="25.31323" lon="100.957088">
<time>2014-08-04T19:36:54Z</time></trkpt>
<trkpt lat="25.313181" lon="100.956898">
<time>2014-08-04T19:36:55Z</time></trkpt>
<trkpt lat="25.313151" lon="100.956689">
<time>2014-08-04T19:36:56Z</time></trkpt>
<trkpt lat="25.313102" lon="100.95647">
<time>2014-08-04T19:36:57Z</time></trkpt>
<trkpt lat="25.313062" lon="100.95624">
<time>2014-08-04T19:36:58Z</time></trkpt>
<trkpt lat="25.313033" lon="100.956001">
<time>2014-08-04T19:36:59Z</time></trkpt>
<trkpt lat="25.313033" lon="100.955752">
<time>2014-08-04T19:37:00Z</time></trkpt>
<trkpt lat="25.313024" lon="100.955523">
<time>2014-08-04T19:37:01Z</time></trkpt>
<trkpt lat="25.312984" lon="100.955323">
<time>2014-08-04T19:37:02Z</time></trkpt>
<trkpt lat="25.312885" lon="100.955174">
<time>2014-08-04T19:37:03Z</time></trkpt>
<trkpt lat="25.312745" lon="100.955034">
<time>2014-08-04T19:37:04Z</time></trkpt>
<trkpt lat="25.312615" lon="100.954875">
<time>2014-08-04T19:37:05Z</time></trkpt>
<trkpt lat="25.312486" lon="100.954685">
<time>2014-08-04T19:37:06Z</time></trkpt>
<trkpt lat="25.312396" lon="100.954486">
<time>2014-08-04T19:37:07Z</time></trkpt>
<trkpt lat="25.312317" lon="100.954267">
<time>2014-08-04T19:37:08Z</time></trkpt>
<trkpt lat="25.312237" lon="100.954057">
<time>2014-08-04T19:37:09Z</time></trkpt>
<trkpt lat="25.312138" lon="100.953888">
<time>2014-08-04T19:37:10Z</time></trkpt>
<trkpt lat="25.311988" lon="100.953798">
<time>2014-08-04T19:37:11Z</time></trkpt>
<trkpt lat="25.311828" lon="100.953798">
<time>2014-08-04T19:37:12Z</time></trkpt>
<trkpt lat="25.311608" lon="100.953838">
<time>2014-08-04T19:37:13Z</time></trkpt>
<trkpt lat="25.311407" lon="100.953888">
<time>2014-08-04T19:37:14Z</time></trkpt>
<trkpt lat="25.311197" lon="100.953968">
<time>2014-08-04T19:37:15Z</time></trkpt>
<trkpt lat="25.310977" lon="100.954047">
<time>2014-08-04T19:37:16Z</time></trkpt>
<trkpt lat="25.310787" lon="100.954117">
<time>2014-08-04T19:37:17Z</time></trkpt>
<trkpt lat="25.310627" lon="100.954217">
<time>2014-08-04T19:37:18Z</time></trkpt>
<trkpt lat="25.310496" lon="100.954386">
<time>2014-08-04T19:37:19Z</time></trkpt>
<trkpt lat="25.310436" lon="100.954556">
<time>2014-08-04T19:37:20Z</time></trkpt>
<trkpt lat="25.310405" lon="100.954745">
<time>2014-08-04T19:37:21Z</time></trkpt>
<trkpt lat="25.310355" lon="100.954935">
<time>2014-08-04T19:37:22Z</time></trkpt>
<trkpt lat="25.310275" lon="100.955104">
<time>2014-08-04T19:37:23Z</time></trkpt>
<trkpt lat="25.310144" lon="100.955234">
<time>2014-08-04T19:37:24Z</time></trkpt>
<trkpt lat="25.309974" lon="100.955333">
<time>2014-08-04T19:37:25Z</time></trkpt>
<trkpt lat="25.309784" lon="100.955393">
<time>2014-08-04T19:37:26Z</time></trkpt>
<trkpt lat="25.309584" lon="100.955453">
<time>2014-08-04T19:37:27Z</time></trkpt>
<trkpt lat="25.309374" lon="100.955503">
<time>2014-08-04T19:37:28Z</time></trkpt>
<trkpt lat="25.309163" lon="100.955543">
<time>2014-08-04T19:37:29Z</time></trkpt>
<trkpt lat="25.308973" lon="100.955553">
<time>2014-08-04T19:37:30Z</time></trkpt>
<trkpt lat="25.308773" lon="100.955533">
<time>2014-08-04T19:37:31Z</time></trkpt>
<trkpt lat="25.308594" lon="100.955483">
<time>2014-08-04T19:37:32Z</time></trkpt>
<trkpt lat="25.308444" lon="100.955373">
<time>2014-08-04T19:37:33Z</time></trkpt>
<trkpt lat="25.308314" lon="100.955234">
<time>2014-08-04T19:37:34Z</time></trkpt>
<trkpt lat="25.308184" lon="100.955094">
<time>2014-08-04T19:37:35Z</time></trkpt>
<trkpt lat="25.308035" lon="100.954925">
<time>2014-08-04T19:37:36Z</time></trkpt>
<trkpt lat="25.307885" lon="100.954775">
<time>2014-08-04T19:37:37Z</time></trkpt>
<trkpt lat="25.307715" lon="100.954616">
<time>2014-08-04T19:37:38Z</time></trkpt>
<trkpt lat="25.307606" lon="100.954466">
<time>2014-08-04T19:37:39Z</time></trkpt>
<trkpt lat="25.307586" lon="100.954416">
<time>2014-08-04T19:37:40Z</time></trkpt>
<trkpt lat="25.307566" lon="100.954356">
<time>2014-08-04T19:37:41Z</time></trkpt>
<trkpt lat="25.307576" lon="100.954237">
<time>2014-08-04T19:37:42Z</time></trkpt>
<trkpt lat="25.307677" lon="100.954057">
<time>2014-08-04T19:37:43Z</time></trkpt>
<trkpt lat="25.307807" lon="100.953928">
<time>2014-08-04T19:37:44Z</time></trkpt>
<trkpt lat="25.307937" lon="100.953768">
<time>2014-08-04T19:37:45Z</time></trkpt>
<trkpt lat="25.308078" lon="100.953609">
<time>2014-08-04T19:37:46Z</time></trkpt>
<trkpt lat="25.308228" lon="100.953459">
<time>2014-08-04T19:37:47Z</time></trkpt>
<trkpt lat="25.308378" lon="100.95331">
<time>2014-08-04T19:37:48Z</time></trkpt>
<trkpt lat="25.308519" lon="100.95318">
<time>2014-08-04T19:37:49Z</time></trkpt>
<trkpt lat="25.308649" lon="100.95306">
<time>2014-08-04T19:37:50Z</time></trkpt>
<trkpt lat="25.308769" lon="100.952941">
<time>2014-08-04T19:37:51Z</time></trkpt>
<trkpt lat="25.30887" lon="100.952791">
<time>2014-08-04T19:37:52Z</time></trkpt>
<trkpt lat="25.30897" lon="100.952642">
<time>2014-08-04T19:37:53Z</time></trkpt>
<trkpt lat="25.30909" lon="100.952502">
<time>2014-08-04T19:37:54Z</time></trkpt>
<trkpt lat="25.309251" lon="100.952293">
<time>2014-08-04T19:37:55Z</time></trkpt>
<trkpt lat="25.309411" lon="100.952153">
<time>2014-08-04T19:37:56Z</time></trkpt>
<trkpt lat="25.309551" lon="100.952033">
<time>2014-08-04T19:37:57Z</time></trkpt>
<trkpt lat="25.309712" lon="100.951914">
<time>2014-08-04T19:37:58Z</time></trkpt>
<trkpt lat="25.309862" lon="100.951804">
<time>2014-08-04T19:37:59Z</time></trkpt>
<trkpt lat="25.310022" lon="100.951704">
<time>2014-08-04T19:38:00Z</time></trkpt>
<trkpt lat="25.310192" lon="100.951595">
<time>2014-08-04T19:38:01Z</time></trkpt>
<trkpt lat="25.310363" lon="100.951495">
<time>2014-08-04T19:38:02Z</time></trkpt>
<trkpt lat="25.310543" lon="100.951395">
<time>2014-08-04T19:38:03Z</time></trkpt>
<trkpt lat="25.310733" lon="100.951286">
<time>2014-08-04T19:38:04Z</time></trkpt>
<trkpt lat="25.310933" lon="100.951176">
<time>2014-08-04T19:38:05Z</time></trkpt>
<trkpt lat="25.311114" lon="100.951056">
<time>2014-08-04T19:38:06Z</time></trkpt>
<trkpt lat="25.311294" lon="100.950917">
<time>2014-08-04T19:38:07Z</time></trkpt>
<trkpt lat="25.311454" lon="100.950757">
<time>2014-08-04T19:38:08Z</time></trkpt>
<trkpt lat="25.311605" lon="100.950578">
<time>2014-08-04T19:38:09Z</time></trkpt>
<trkpt lat="25.311735" lon="100.950378">
<time>2014-08-04T19:38:10Z</time></trkpt>
<trkpt lat="25.311856" lon="100.950169">
<time>2014-08-04T19:38:11Z</time></trkpt>
<trkpt lat="25.311956" lon="100.949959">
<time>2014-08-04T19:38:12Z</time></trkpt>
<trkpt lat="25.312027" lon="100.94973">
<time>2014-08-04T19:38:13Z</time></trkpt>
<trkpt lat="25.312077" lon="100.949491">
<time>2014-08-04T19:38:14Z</time></trkpt>
<trkpt lat="25.312158" lon="100.949271">
<time>2014-08-04T19:38:15Z</time></trkpt>
<trkpt lat="25.312278" lon="100.949082">
<time>2014-08-04T19:38:16Z</time></trkpt>
<trkpt lat="25.312428" lon="100.948932">
<time>2014-08-04T19:38:17Z</time></trkpt>
<trkpt lat="25.312588" lon="100.948823">
<time>2014-08-04T19:38:18Z</time></trkpt>
<trkpt lat="25.312739" lon="100.948703">
<time>2014-08-04T19:38:19Z</time></trkpt>
<trkpt lat="25.312899" lon="100.948603">
<time>2014-08-04T19:38:20Z</time></trkpt>
<trkpt lat="25.313049" lon="100.948504">
<time>2014-08-04T19:38:21Z</time></trkpt>
<trkpt lat="25.313189" lon="100.948394">
<time>2014-08-04T19:38:22Z</time></trkpt>
<trkpt lat="25.31333" lon="100.948284">
<time>2014-08-04T19:38:23Z</time></trkpt>
<trkpt lat="25.31347" lon="100.948185">
<time>2014-08-04T19:38:24Z</time></trkpt>
<trkpt lat="25.3136" lon="100.948035">
<time>2014-08-04T19:38:25Z</time></trkpt>
<trkpt lat="25.313721" lon="100.947875">
<time>2014-08-04T19:38:26Z</time></trkpt>
<trkpt lat="25.313831" lon="100.947696">
<time>2014-08-04T19:38:27Z</time></trkpt>
<trkpt lat="25.313961" lon="100.947487">
<time>2014-08-04T19:38:28Z</time></trkpt>
<trkpt lat="25.314072" lon="100.947277">
<time>2014-08-04T19:38:29Z</time></trkpt>
<trkpt lat="25.314172" lon="100.947048">
<time>2014-08-04T19:38:30Z</time></trkpt>
<trkpt lat="25.314243" lon="100.946818">
<time>2014-08-04T19:38:31Z</time></trkpt>
<trkpt lat="25.314273" lon="100.946579">
<time>2014-08-04T19:38:32Z</time></trkpt>
<trkpt lat="25.314274" lon="100.94635">
<time>2014-08-04T19:38:33Z</time></trkpt>
<trkpt lat="25.314224" lon="100.9461">
<time>2014-08-04T19:38:34Z</time></trkpt>
<trkpt lat="25.314215" lon="100.945881">
<time>2014-08-04T19:38:35Z</time></trkpt>
<trkpt lat="25.314275" lon="100.945652">
<time>2014-08-04T19:38:36Z</time></trkpt>
<trkpt lat="25.314415" lon="100.945492">
<time>2014-08-04T19:38:37Z</time></trkpt>
<trkpt lat="25.314566" lon="100.945362">
<time>2014-08-04T19:38:38Z</time></trkpt>
<trkpt lat="25.314696" lon="100.945173">
<time>2014-08-04T19:38:39Z</time></trkpt>
<trkpt lat="25.314756" lon="100.944963">
<time>2014-08-04T19:38:40Z</time></trkpt>
<trkpt lat="25.314787" lon="100.944744">
<time>2014-08-04T19:38:41Z</time></trkpt>
<trkpt lat="25.314817" lon="100.944515">
<time>2014-08-04T19:38:42Z</time></trkpt>
<trkpt lat="25.314848" lon="100.944275">
<time>2014-08-04T19:38:43Z</time></trkpt>
<trkpt lat="25.314878" lon="100.944046">
<time>2014-08-04T19:38:44Z</time></trkpt>
<trkpt lat="25.314879" lon="100.943846">
<time>2014-08-04T19:38:45Z</time></trkpt>
<trkpt lat="25.314839" lon="100.943657">
<time>2014-08-04T19:38:46Z</time></trkpt>
<trkpt lat="25.314769" lon="100.943418">
<time>2014-08-04T19:38:47Z</time></trkpt>
<trkpt lat="25.31462" lon="100.943228">
<time>2014-08-04T19:38:48Z</time></trkpt>
<trkpt lat="25.31452" lon="100.943118">
<time>2014-08-04T19:38:49Z</time></trkpt>
<trkpt lat="25.31435" lon="100.943059">
<time>2014-08-04T19:38:50Z</time></trkpt>
<trkpt lat="25.31417" lon="100.943059">
<time>2014-08-04T19:38:51Z</time></trkpt>
<trkpt lat="25.31402" lon="100.943118">
<time>2014-08-04T19:38:52Z</time></trkpt>
<trkpt lat="25.31387" lon="100.943158">
<time>2014-08-04T19:38:53Z</time></trkpt>
<trkpt lat="25.31368" lon="100.943188">
<time>2014-08-04T19:38:54Z</time></trkpt>
<trkpt lat="25.31349" lon="100.943168">
<time>2014-08-04T19:38:55Z</time></trkpt>
<trkpt lat="25.31329" lon="100.943148">
<time>2014-08-04T19:38:56Z</time></trkpt>
<trkpt lat="25.31311" lon="100.943138">
<time>2014-08-04T19:38:57Z</time></trkpt>
<trkpt lat="25.31289" lon="100.943148">
<time>2014-08-04T19:38:58Z</time></trkpt>
<trkpt lat="25.31269" lon="100.943178">
<time>2014-08-04T19:38:59Z</time></trkpt>
<trkpt lat="25.312509" lon="100.943208">
<time>2014-08-04T19:39:00Z</time></trkpt>
<trkpt lat="25.312369" lon="100.943218">
<time>2014-08-04T19:39:01Z</time></trkpt>
<trkpt lat="25.31225" lon="100.943158">
<time>2014-08-04T19:39:02Z</time></trkpt>
<trkpt lat="25.31219" lon="100.943019">
<time>2014-08-04T19:39:03Z</time></trkpt>
<trkpt lat="25.31212" lon="100.942869">
<time>2014-08-04T19:39:04Z</time></trkpt>
<trkpt lat="25.31206" lon="100.942719">
<time>2014-08-04T19:39:05Z</time></trkpt>
<trkpt lat="25.311951" lon="100.94257">
<time>2014-08-04T19:39:06Z</time></trkpt>
<trkpt lat="25.311801" lon="100.94239">
<time>2014-08-04T19:39:07Z</time></trkpt>
<trkpt lat="25.311631" lon="100.942241">
<time>2014-08-04T19:39:08Z</time></trkpt>
<trkpt lat="25.311512" lon="100.942051">
<time>2014-08-04T19:39:09Z</time></trkpt>
<trkpt lat="25.311382" lon="100.941852">
<time>2014-08-04T19:39:10Z</time></trkpt>
<trkpt lat="25.311252" lon="100.941662">
<time>2014-08-04T19:39:11Z</time></trkpt>
<trkpt lat="25.311072" lon="100.941513">
<time>2014-08-04T19:39:12Z</time></trkpt>
<trkpt lat="25.310903" lon="100.941393">
<time>2014-08-04T19:39:13Z</time></trkpt>
<trkpt lat="25.310713" lon="100.941333">
<time>2014-08-04T19:39:14Z</time></trkpt>
<trkpt lat="25.310523" lon="100.941323">
<time>2014-08-04T19:39:15Z</time></trkpt>
<trkpt lat="25.310313" lon="100.941333">
<time>2014-08-04T19:39:16Z</time></trkpt>
<trkpt lat="25.310113" lon="100.941313">
<time>2014-08-04T19:39:17Z</time></trkpt>
<trkpt lat="25.309973" lon="100.941223">
<time>2014-08-04T19:39:18Z</time></trkpt>
<trkpt lat="25.309903" lon="100.941064">
<time>2014-08-04T19:39:19Z</time></trkpt>
<trkpt lat="25.309934" lon="100.940864">
<time>2014-08-04T19:39:20Z</time></trkpt>
<trkpt lat="25.310014" lon="100.940675">
<time>2014-08-04T19:39:21Z</time></trkpt>
<trkpt lat="25.310114" lon="100.940485">
<time>2014-08-04T19:39:22Z</time></trkpt>
<trkpt lat="25.310215" lon="100.940316">
<time>2014-08-04T19:39:23Z</time></trkpt>
<trkpt lat="25.310315" lon="100.940146">
<time>2014-08-04T19:39:24Z</time></trkpt>
<trkpt lat="25.310395" lon="100.939976">
<time>2014-08-04T19:39:25Z</time></trkpt>
<trkpt lat="25.310445" lon="100.939807">
<time>2014-08-04T19:39:26Z</time></trkpt>
<trkpt lat="25.310446" lon="100.939637">
<time>2014-08-04T19:39:27Z</time></trkpt>
<trkpt lat="25.310436" lon="100.939478">
<time>2014-08-04T19:39:28Z</time></trkpt>
<trkpt lat="25.310416" lon="100.939318">
<time>2014-08-04T19:39:29Z</time></trkpt>
<trkpt lat="25.310427" lon="100.939139">
<time>2014-08-04T19:39:30Z</time></trkpt>
<trkpt lat="25.310457" lon="100.938949">
<time>2014-08-04T19:39:31Z</time></trkpt>
<trkpt lat="25.310517" lon="100.93874">
<time>2014-08-04T19:39:32Z</time></trkpt>
<trkpt lat="25.310637" lon="100.93858">
<time>2014-08-04T19:39:33Z</time></trkpt>
<trkpt lat="25.310738" lon="100.93841">
<time>2014-08-04T19:39:34Z</time></trkpt>
<trkpt lat="25.310808" lon="100.938221">
<time>2014-08-04T19:39:35Z</time></trkpt>
<trkpt lat="25.310828" lon="100.938031">
<time>2014-08-04T19:39:36Z</time></trkpt>
<trkpt lat="25.310799" lon="100.937852">
<time>2014-08-04T19:39:37Z</time></trkpt>
<trkpt lat="25.310759" lon="100.937672">
<time>2014-08-04T19:39:38Z</time></trkpt>
<trkpt lat="25.310689" lon="100.937463">
<time>2014-08-04T19:39:39Z</time></trkpt>
<trkpt lat="25.31064" lon="100.937243">
<time>2014-08-04T19:39:40Z</time></trkpt>
<trkpt lat="25.31059" lon="100.937024">
<time>2014-08-04T19:39:41Z</time></trkpt>
<trkpt lat="25.31053" lon="100.936794">
<time>2014-08-04T19:39:42Z</time></trkpt>
<trkpt lat="25.310481" lon="100.936595">
<time>2014-08-04T19:39:43Z</time></trkpt>
<trkpt lat="25.310431" lon="100.936375">
<time>2014-08-04T19:39:44Z</time></trkpt>
<trkpt lat="25.310381" lon="100.936176">
<time>2014-08-04T19:39:45Z</time></trkpt>
<trkpt lat="25.310342" lon="100.935976">
<time>2014-08-04T19:39:46Z</time></trkpt>
<trkpt lat="25.310292" lon="100.935787">
<time>2014-08-04T19:39:47Z</time></trkpt>
<trkpt lat="25.310262" lon="100.935587">
<time>2014-08-04T19:39:48Z</time></trkpt>
<trkpt lat="25.310243" lon="100.935397">
<time>2014-08-04T19:39:49Z</time></trkpt>
<trkpt lat="25.310233" lon="100.935208">
<time>2014-08-04T19:39:50Z</time></trkpt>
<trkpt lat="25.310223" lon="100.935038">
<time>2014-08-04T19:39:51Z</time></trkpt>
<trkpt lat="25.310213" lon="100.934869">
<time>2014-08-04T19:39:52Z</time></trkpt>
<trkpt lat="25.310204" lon="100.934699">
<time>2014-08-04T19:39:53Z</time></trkpt>
<trkpt lat="25.310194" lon="100.934509">
<time>2014-08-04T19:39:54Z</time></trkpt>
<trkpt lat="25.310184" lon="100.9343">
<time>2014-08-04T19:39:55Z</time></trkpt>
<trkpt lat="25.310165" lon="100.93407">
<time>2014-08-04T19:39:56Z</time></trkpt>
<trkpt lat="25.310155" lon="100.933811">
<time>2014-08-04T19:39:57Z</time></trkpt>
<trkpt lat="25.310145" lon="100.933562">
<time>2014-08-04T19:39:58Z</time></trkpt>
<trkpt lat="25.310156" lon="100.933292">
<time>2014-08-04T19:39:59Z</time></trkpt>
<trkpt lat="25.310156" lon="100.933103">
<time>2014-08-04T19:40:00Z</time></trkpt>
<trkpt lat="25.310176" lon="100.932903">
<time>2014-08-04T19:40:01Z</time></trkpt>
<trkpt lat="25.310227" lon="100.932713">
<time>2014-08-04T19:40:02Z</time></trkpt>
<trkpt lat="25.310257" lon="100.932534">
<time>2014-08-04T19:40:03Z</time></trkpt>
<trkpt lat="25.310317" lon="100.932324">
<time>2014-08-04T19:40:04Z</time></trkpt>
<trkpt lat="25.310347" lon="100.932115">
<time>2014-08-04T19:40:05Z</time></trkpt>
<trkpt lat="25.310388" lon="100.931925">
<time>2014-08-04T19:40:06Z</time></trkpt>
<trkpt lat="25.310418" lon="100.931735">
<time>2014-08-04T19:40:07Z</time></trkpt>
<trkpt lat="25.310448" lon="100.931556">
<time>2014-08-04T19:40:08Z</time></trkpt>
<trkpt lat="25.310468" lon="100.931376">
<time>2014-08-04T19:40:09Z</time></trkpt>
<trkpt lat="25.310489" lon="100.931217">
<time>2014-08-04T19:40:10Z</time></trkpt>
<trkpt lat="25.310509" lon="100.931067">
<time>2014-08-04T19:40:11Z</time></trkpt>
<trkpt lat="25.310529" lon="100.930927">
<time>2014-08-04T19:40:12Z</time></trkpt>
<trkpt lat="25.310579" lon="100.930708">
<time>2014-08-04T19:40:13Z</time></trkpt>
<trkpt lat="25.31063" lon="100.930518">
<time>2014-08-04T19:40:14Z</time></trkpt>
<trkpt lat="25.31067" lon="100.930348">
<time>2014-08-04T19:40:15Z</time></trkpt>
<trkpt lat="25.31072" lon="100.930179">
<time>2014-08-04T19:40:16Z</time></trkpt>
<trkpt lat="25.31078" lon="100.930009">
<time>2014-08-04T19:40:17Z</time></trkpt>
<trkpt lat="25.310841" lon="100.929829">
<time>2014-08-04T19:40:18Z</time></trkpt>
<trkpt lat="25.310901" lon="100.92964">
<time>2014-08-04T19:40:19Z</time></trkpt>
<trkpt lat="25.310971" lon="100.92944">
<time>2014-08-04T19:40:20Z</time></trkpt>
<trkpt lat="25.311051" lon="100.929221">
<time>2014-08-04T19:40:21Z</time></trkpt>
<trkpt lat="25.311122" lon="100.929021">
<time>2014-08-04T19:40:22Z</time></trkpt>
<trkpt lat="25.311212" lon="100.928801">
<time>2014-08-04T19:40:23Z</time></trkpt>
<trkpt lat="25.311322" lon="100.928612">
<time>2014-08-04T19:40:24Z</time></trkpt>
<trkpt lat="25.311442" lon="100.928432">
<time>2014-08-04T19:40:25Z</time></trkpt>
<trkpt lat="25.311583" lon="100.928242">
<time>2014-08-04T19:40:26Z</time></trkpt>
<trkpt lat="25.311733" lon="100.928063">
<time>2014-08-04T19:40:27Z</time></trkpt>
<trkpt lat="25.311863" lon="100.927863">
<time>2014-08-04T19:40:28Z</time></trkpt>
<trkpt lat="25.311983" lon="100.927644">
<time>2014-08-04T19:40:29Z</time></trkpt>
<trkpt lat="25.312064" lon="100.927404">
<time>2014-08-04T19:40:30Z</time></trkpt>
<trkpt lat="25.312124" lon="100.927155">
<time>2014-08-04T19:40:31Z</time></trkpt>
<trkpt lat="25.312204" lon="100.926925">
<time>2014-08-04T19:40:32Z</time></trkpt>
<trkpt lat="25.312334" lon="100.926755">
<time>2014-08-04T19:40:33Z</time></trkpt>
<trkpt lat="25.312515" lon="100.926655">
<time>2014-08-04T19:40:34Z</time></trkpt>
<trkpt lat="25.312735" lon="100.926596">
<time>2014-08-04T19:40:35Z</time></trkpt>
<trkpt lat="25.312955" lon="100.926576">
<time>2014-08-04T19:40:36Z</time></trkpt>
<trkpt lat="25.313185" lon="100.926536">
<time>2014-08-04T19:40:37Z</time></trkpt>
<trkpt lat="25.313415" lon="100.926496">
<time>2014-08-04T19:40:38Z</time></trkpt>
<trkpt lat="25.313645" lon="100.926436">
<time>2014-08-04T19:40:39Z</time></trkpt>
<trkpt lat="25.313875" lon="100.926396">
<time>2014-08-04T19:40:40Z</time></trkpt>
<trkpt lat="25.314115" lon="100.926326">
<time>2014-08-04T19:40:41Z</time></trkpt>
<trkpt lat="25.314335" lon="100.926236">
<time>2014-08-04T19:40:42Z</time></trkpt>
<trkpt lat="25.314545" lon="100.926126">
<time>2014-08-04T19:40:43Z</time></trkpt>
<trkpt lat="25.314756" lon="100.926007">
<time>2014-08-04T19:40:44Z</time></trkpt>
<trkpt lat="25.314976" lon="100.925907">
<time>2014-08-04T19:40:45Z</time></trkpt>
<trkpt lat="25.315196" lon="100.925847">
<time>2014-08-04T19:40:46Z</time></trkpt>
<trkpt lat="25.315426" lon="100.925827">
<time>2014-08-04T19:40:47Z</time></trkpt>
<trkpt lat="25.315656" lon="100.925827">
<time>2014-08-04T19:40:48Z</time></trkpt>
<trkpt lat="25.315886" lon="100.925847">
<time>2014-08-04T19:40:49Z</time></trkpt>
<trkpt lat="25.316106" lon="100.925867">
<time>2014-08-04T19:40:50Z</time></trkpt>
<trkpt lat="25.316326" lon="100.925877">
<time>2014-08-04T19:40:51Z</time></trkpt>
<trkpt lat="25.316546" lon="100.925857">
<time>2014-08-04T19:40:52Z</time></trkpt>
<trkpt lat="25.316656" lon="100.925807">
<time>2014-08-04T19:40:53Z</time></trkpt>
<trkpt lat="25.316696" lon="100.925777">
<time>2014-08-04T19:40:54Z</time></trkpt>
<trkpt lat="25.316796" lon="100.925657">
<time>2014-08-04T19:40:55Z</time></trkpt>
<trkpt lat="25.316866" lon="100.925458">
<time>2014-08-04T19:40:56Z</time></trkpt>
<trkpt lat="25.316907" lon="100.925268">
<time>2014-08-04T19:40:57Z</time></trkpt>
<trkpt lat="25.316917" lon="100.925088">
<time>2014-08-04T19:40:58Z</time></trkpt>
<trkpt lat="25.316937" lon="100.924909">
<time>2014-08-04T19:40:59Z</time></trkpt>
<trkpt lat="25.316967" lon="100.924739">
<time>2014-08-04T19:41:00Z</time></trkpt>
<trkpt lat="25.316997" lon="100.924569">
<time>2014-08-04T19:41:01Z</time></trkpt>
<trkpt lat="25.317038" lon="100.924399">
<time>2014-08-04T19:41:02Z</time></trkpt>
<trkpt lat="25.317078" lon="100.92423">
<time>2014-08-04T19:41:03Z</time></trkpt>
<trkpt lat="25.317128" lon="100.92406">
<time>2014-08-04T19:41:04Z</time></trkpt>
<trkpt lat="25.317178" lon="100.9239">
<time>2014-08-04T19:41:05Z</time></trkpt>
<trkpt lat="25.317258" lon="100.923701">
<time>2014-08-04T19:41:06Z</time></trkpt>
<trkpt lat="25.317318" lon="100.923501">
<time>2014-08-04T19:41:07Z</time></trkpt>
<trkpt lat="25.317369" lon="100.923301">
<time>2014-08-04T19:41:08Z</time></trkpt>
<trkpt lat="25.317419" lon="100.923112">
<time>2014-08-04T19:41:09Z</time></trkpt>
<trkpt lat="25.317429" lon="100.923082">
<time>2014-08-04T19:41:10Z</time></trkpt>
<trkpt lat="25.317469" lon="100.922912">
<time>2014-08-04T19:41:11Z</time></trkpt>
<trkpt lat="25.317519" lon="100.922692">
<time>2014-08-04T19:41:12Z</time></trkpt>
<trkpt lat="25.31758" lon="100.922473">
<time>2014-08-04T19:41:13Z</time></trkpt>
<trkpt lat="25.31764" lon="100.922253">
<time>2014-08-04T19:41:14Z</time></trkpt>
<trkpt lat="25.31775" lon="100.922083">
<time>2014-08-04T19:41:15Z</time></trkpt>
<trkpt lat="25.31787" lon="100.921894">
<time>2014-08-04T19:41:16Z</time></trkpt>
<trkpt lat="25.31795" lon="100.921754">
<time>2014-08-04T19:41:17Z</time></trkpt>
<trkpt lat="25.318" lon="100.921674">
<time>2014-08-04T19:41:18Z</time></trkpt>
<trkpt lat="25.318121" lon="100.921444">
<time>2014-08-04T19:41:19Z</time></trkpt>
<trkpt lat="25.318261" lon="100.921205">
<time>2014-08-04T19:41:20Z</time></trkpt>
<trkpt lat="25.318431" lon="100.921005">
<time>2014-08-04T19:41:21Z</time></trkpt>
<trkpt lat="25.318601" lon="100.920825">
<time>2014-08-04T19:41:22Z</time></trkpt>
<trkpt lat="25.318751" lon="100.920626">
<time>2014-08-04T19:41:23Z</time></trkpt>
<trkpt lat="25.318872" lon="100.920416">
<time>2014-08-04T19:41:24Z</time></trkpt>
<trkpt lat="25.318982" lon="100.920186">
<time>2014-08-04T19:41:25Z</time></trkpt>
<trkpt lat="25.319092" lon="100.919967">
<time>2014-08-04T19:41:26Z</time></trkpt>
<trkpt lat="25.319232" lon="100.919787">
<time>2014-08-04T19:41:27Z</time></trkpt>
<trkpt lat="25.319412" lon="100.919637">
<time>2014-08-04T19:41:28Z</time></trkpt>
<trkpt lat="25.319622" lon="100.919547">
<time>2014-08-04T19:41:29Z</time></trkpt>
<trkpt lat="25.319832" lon="100.919477">
<time>2014-08-04T19:41:30Z</time></trkpt>
<trkpt lat="25.320033" lon="100.919388">
<time>2014-08-04T19:41:31Z</time></trkpt>
<trkpt lat="25.320183" lon="100.919278">
<time>2014-08-04T19:41:32Z</time></trkpt>
<trkpt lat="25.320253" lon="100.919098">
<time>2014-08-04T19:41:33Z</time></trkpt>
<trkpt lat="25.320243" lon="100.918888">
<time>2014-08-04T19:41:34Z</time></trkpt>
<trkpt lat="25.320183" lon="100.918669">
<time>2014-08-04T19:41:35Z</time></trkpt>
<trkpt lat="25.320133" lon="100.918439">
<time>2014-08-04T19:41:36Z</time></trkpt>
<trkpt lat="25.320084" lon="100.918209">
<time>2014-08-04T19:41:37Z</time></trkpt>
<trkpt lat="25.320074" lon="100.91797">
<time>2014-08-04T19:41:38Z</time></trkpt>
<trkpt lat="25.320114" lon="100.91773">
<time>2014-08-04T19:41:39Z</time></trkpt>
<trkpt lat="25.320214" lon="100.9175">
<time>2014-08-04T19:41:40Z</time></trkpt>
<trkpt lat="25.320344" lon="100.917281">
<time>2014-08-04T19:41:41Z</time></trkpt>
<trkpt lat="25.320484" lon="100.917071">
<time>2014-08-04T19:41:42Z</time></trkpt>
<trkpt lat="25.320625" lon="100.916831">
<time>2014-08-04T19:41:43Z</time></trkpt>
<trkpt lat="25.320735" lon="100.916582">
<time>2014-08-04T19:41:44Z</time></trkpt>
<trkpt lat="25.320825" lon="100.916312">
<time>2014-08-04T19:41:45Z</time></trkpt>
<trkpt lat="25.320925" lon="100.916022">
<time>2014-08-04T19:41:46Z</time></trkpt>
<trkpt lat="25.321065" lon="100.915783">
<time>2014-08-04T19:41:47Z</time></trkpt>
<trkpt lat="25.321226" lon="100.915563">
<time>2014-08-04T19:41:48Z</time></trkpt>
<trkpt lat="25.321366" lon="100.915383">
<time>2014-08-04T19:41:49Z</time></trkpt>
<trkpt lat="25.321396" lon="100.915193">
<time>2014-08-04T19:41:50Z</time></trkpt>
<trkpt lat="25.321336" lon="100.915034">
<time>2014-08-04T19:41:51Z</time></trkpt>
<trkpt lat="25.321186" lon="100.914924">
<time>2014-08-04T19:41:52Z</time></trkpt>
<trkpt lat="25.321006" lon="100.914864">
<time>2014-08-04T19:41:53Z</time></trkpt>
<trkpt lat="25.320816" lon="100.914814">
<time>2014-08-04T19:41:54Z</time></trkpt>
<trkpt lat="25.320616" lon="100.914744">
<time>2014-08-04T19:41:55Z</time></trkpt>
<trkpt lat="25.320366" lon="100.914684">
<time>2014-08-04T19:41:56Z</time></trkpt>
<trkpt lat="25.320096" lon="100.914684">
<time>2014-08-04T19:41:57Z</time></trkpt>
<trkpt lat="25.319866" lon="100.914724">
<time>2014-08-04T19:41:58Z</time></trkpt>
<trkpt lat="25.319666" lon="100.914824">
<time>2014-08-04T19:41:59Z</time></trkpt>
<trkpt lat="25.319526" lon="100.915004">
<time>2014-08-04T19:42:00Z</time></trkpt>
<trkpt lat="25.319446" lon="100.915233">
<time>2014-08-04T19:42:01Z</time></trkpt>
<trkpt lat="25.319335" lon="100.915473">
<time>2014-08-04T19:42:02Z</time></trkpt>
<trkpt lat="25.319165" lon="100.915663">
<time>2014-08-04T19:42:03Z</time></trkpt>
<trkpt lat="25.318955" lon="100.915773">
<time>2014-08-04T19:42:04Z</time></trkpt>
<trkpt lat="25.318755" lon="100.915893">
<time>2014-08-04T19:42:05Z</time></trkpt>
<trkpt lat="25.318585" lon="100.916042">
<time>2014-08-04T19:42:06Z</time></trkpt>
<trkpt lat="25.318465" lon="100.916202">
<time>2014-08-04T19:42:07Z</time></trkpt>
<trkpt lat="25.318365" lon="100.916292">
<time>2014-08-04T19:42:08Z</time></trkpt>
<trkpt lat="25.318215" lon="100.916292">
<time>2014-08-04T19:42:09Z</time></trkpt>
<trkpt lat="25.318115" lon="100.916202">
<time>2014-08-04T19:42:10Z</time></trkpt>
<trkpt lat="25.318075" lon="100.916062">
<time>2014-08-04T19:42:11Z</time></trkpt>
<trkpt lat="25.318085" lon="100.915883">
<time>2014-08-04T19:42:12Z</time></trkpt>
<trkpt lat="25.318135" lon="100.915673">
<time>2014-08-04T19:42:13Z</time></trkpt>
<trkpt lat="25.318195" lon="100.915433">
<time>2014-08-04T19:42:14Z</time></trkpt>
<trkpt lat="25.318246" lon="100.915203">
<time>2014-08-04T19:42:15Z</time></trkpt>
<trkpt lat="25.318296" lon="100.914944">
<time>2014-08-04T19:42:16Z</time></trkpt>
<trkpt lat="25.318406" lon="100.914724">
<time>2014-08-04T19:42:17Z</time></trkpt>
<trkpt lat="25.318546" lon="100.914564">
<time>2014-08-04T19:42:18Z</time></trkpt>
<trkpt lat="25.318706" lon="100.914404">
<time>2014-08-04T19:42:19Z</time></trkpt>
<trkpt lat="25.318836" lon="100.914195">
<time>2014-08-04T19:42:20Z</time></trkpt>
<trkpt lat="25.318946" lon="100.913945">
<time>2014-08-04T19:42:21Z</time></trkpt>
<trkpt lat="25.319036" lon="100.913715">
<time>2014-08-04T19:42:22Z</time></trkpt>
<trkpt lat="25.319107" lon="100.913506">
<time>2014-08-04T19:42:23Z</time></trkpt>
<trkpt lat="25.319107" lon="100.913316">
<time>2014-08-04T19:42:24Z</time></trkpt>
<trkpt lat="25.319007" lon="100.913176">
<time>2014-08-04T19:42:25Z</time></trkpt>
<trkpt lat="25.318857" lon="100.913106">
<time>2014-08-04T19:42:26Z</time></trkpt>
<trkpt lat="25.318707" lon="100.913096">
<time>2014-08-04T19:42:27Z</time></trkpt>
<trkpt lat="25.318537" lon="100.913106">
<time>2014-08-04T19:42:28Z</time></trkpt>
<trkpt lat="25.318347" lon="100.913086">
<time>2014-08-04T19:42:29Z</time></trkpt>
<trkpt lat="25.318197" lon="100.912996">
<time>2014-08-04T19:42:30Z</time></trkpt>
<trkpt lat="25.318117" lon="100.912866">
<time>2014-08-04T19:42:31Z</time></trkpt>
<trkpt lat="25.318107" lon="100.912716">
<time>2014-08-04T19:42:32Z</time></trkpt>
<trkpt lat="25.318157" lon="100.912587">
<time>2014-08-04T19:42:33Z</time></trkpt>
<trkpt lat="25.318307" lon="100.912457">
<time>2014-08-04T19:42:34Z</time></trkpt>
<trkpt lat="25.318487" lon="100.912367">
<time>2014-08-04T19:42:35Z</time></trkpt>
<trkpt lat="25.318687" lon="100.912267">
<time>2014-08-04T19:42:36Z</time></trkpt>
<trkpt lat="25.318877" lon="100.912237">
<time>2014-08-04T19:42:37Z</time></trkpt>
<trkpt lat="25.319077" lon="100.912227">
<time>2014-08-04T19:42:38Z</time></trkpt>
<trkpt lat="25.319267" lon="100.912237">
<time>2014-08-04T19:42:39Z</time></trkpt>
<trkpt lat="25.319457" lon="100.912297">
<time>2014-08-04T19:42:40Z</time></trkpt>
<trkpt lat="25.319607" lon="100.912397">
<time>2014-08-04T19:42:41Z</time></trkpt>
<trkpt lat="25.319767" lon="100.912477">
<time>2014-08-04T19:42:42Z</time></trkpt>
<trkpt lat="25.319937" lon="100.912507">
<time>2014-08-04T19:42:43Z</time></trkpt>
<trkpt lat="25.320117" lon="100.912487">
<time>2014-08-04T19:42:44Z</time></trkpt>
<trkpt lat="25.320287" lon="100.912397">
<time>2014-08-04T19:42:45Z</time></trkpt>
<trkpt lat="25.320417" lon="100.912237">
<time>2014-08-04T19:42:46Z</time></trkpt>
<trkpt lat="25.320548" lon="100.912057">
<time>2014-08-04T19:42:47Z</time></trkpt>
<trkpt lat="25.320678" lon="100.911877">
<time>2014-08-04T19:42:48Z</time></trkpt>
<trkpt lat="25.320798" lon="100.911708">
<time>2014-08-04T19:42:49Z</time></trkpt>
<trkpt lat="25.320818" lon="100.911668">
<time>2014-08-04T19:42:50Z</time></trkpt>
<trkpt lat="25.320898" lon="100.911508">
<time>2014-08-04T19:42:51Z</time></trkpt>
<trkpt lat="25.320998" lon="100.911318">
<time>2014-08-04T19:42:52Z</time></trkpt>
<trkpt lat="25.321118" lon="100.911138">
<time>2014-08-04T19:42:53Z</time></trkpt>
<trkpt lat="25.321238" lon="100.910998">
<time>2014-08-04T19:42:54Z</time></trkpt>
<trkpt lat="25.321268" lon="100.910978">
<time>2014-08-04T19:42:55Z</time></trkpt>
<trkpt lat="25.321438" lon="100.910819">
<time>2014-08-04T19:42:56Z</time></trkpt>
<trkpt lat="25.321628" lon="100.910659">
<time>2014-08-04T19:42:57Z</time></trkpt>
<trkpt lat="25.321808" lon="100.910489">
<time>2014-08-04T19:42:58Z</time></trkpt>
<trkpt lat="25.322028" lon="100.910349">
<time>2014-08-04T19:42:59Z</time></trkpt>
<trkpt lat="25.322249" lon="100.910229">
<time>2014-08-04T19:43:00Z</time></trkpt>
<trkpt lat="25.322499" lon="100.910139">
<time>2014-08-04T19:43:01Z</time></trkpt>
<trkpt lat="25.322739" lon="100.910059">
<time>2014-08-04T19:43:02Z</time></trkpt>
<trkpt lat="25.322969" lon="100.909989">
<time>2014-08-04T19:43:03Z</time></trkpt>
<trkpt lat="25.323189" lon="100.909909">
<time>2014-08-04T19:43:04Z</time></trkpt>
<trkpt lat="25.323399" lon="100.9098">
<time>2014-08-04T19:43:05Z</time></trkpt>
<trkpt lat="25.323599" lon="100.90967">
<time>2014-08-04T19:43:06Z</time></trkpt>
<trkpt lat="25.323799" lon="100.9095">
<time>2014-08-04T19:43:07Z</time></trkpt>
<trkpt lat="25.323989" lon="100.90933">
<time>2014-08-04T19:43:08Z</time></trkpt>
<trkpt lat="25.324189" lon="100.90914">
<time>2014-08-04T19:43:09Z</time></trkpt>
<trkpt lat="25.324369" lon="100.90895">
<time>2014-08-04T19:43:10Z</time></trkpt>
<trkpt lat="25.324549" lon="100.908761">
<time>2014-08-04T19:43:11Z</time></trkpt>
<trkpt lat="25.324729" lon="100.908581">
<time>2014-08-04T19:43:12Z</time></trkpt>
<trkpt lat="25.32489" lon="100.908391">
<time>2014-08-04T19:43:13Z</time></trkpt>
<trkpt lat="25.32506" lon="100.908201">
<time>2014-08-04T19:43:14Z</time></trkpt>
<trkpt lat="25.32521" lon="100.908011">
<time>2014-08-04T19:43:15Z</time></trkpt>
<trkpt lat="25.32537" lon="100.907831">
<time>2014-08-04T19:43:16Z</time></trkpt>
<trkpt lat="25.32551" lon="100.907622">
<time>2014-08-04T19:43:17Z</time></trkpt>
<trkpt lat="25.32565" lon="100.907412">
<time>2014-08-04T19:43:18Z</time></trkpt>
<trkpt lat="25.3258" lon="100.907192">
<time>2014-08-04T19:43:19Z</time></trkpt>
<trkpt lat="25.32594" lon="100.906972">
<time>2014-08-04T19:43:20Z</time></trkpt>
<trkpt lat="25.32608" lon="100.906762">
<time>2014-08-04T19:43:21Z</time></trkpt>
<trkpt lat="25.32623" lon="100.906553">
<time>2014-08-04T19:43:22Z</time></trkpt>
<trkpt lat="25.3264" lon="100.906373">
<time>2014-08-04T19:43:23Z</time></trkpt>
<trkpt lat="25.3266" lon="100.906213">
<time>2014-08-04T19:43:24Z</time></trkpt>
<trkpt lat="25.3268" lon="100.906073">
<time>2014-08-04T19:43:25Z</time></trkpt>
<trkpt lat="25.32699" lon="100.905933">
<time>2014-08-04T19:43:26Z</time></trkpt>
<trkpt lat="25.32714" lon="100.905783">
<time>2014-08-04T19:43:27Z</time></trkpt>
<trkpt lat="25.327311" lon="100.905533">
<time>2014-08-04T19:43:28Z</time></trkpt>
<trkpt lat="25.327401" lon="100.905314">
<time>2014-08-04T19:43:29Z</time></trkpt>
<trkpt lat="25.327411" lon="100.905134">
<time>2014-08-04T19:43:30Z</time></trkpt>
<trkpt lat="25.327381" lon="100.904954">
<time>2014-08-04T19:43:31Z</time></trkpt>
<trkpt lat="25.327301" lon="100.904764">
<time>2014-08-04T19:43:32Z</time></trkpt>
<trkpt lat="25.327211" lon="100.904554">
<time>2014-08-04T19:43:33Z</time></trkpt>
<trkpt lat="25.327181" lon="100.904354">
<time>2014-08-04T19:43:34Z</time></trkpt>
<trkpt lat="25.327261" lon="100.904184">
<time>2014-08-04T19:43:35Z</time></trkpt>
<trkpt lat="25.327411" lon="100.904085">
<time>2014-08-04T19:43:36Z</time></trkpt>
<trkpt lat="25.327591" lon="100.904065">
<time>2014-08-04T19:43:37Z</time></trkpt>
<trkpt lat="25.327761" lon="100.904065">
<time>2014-08-04T19:43:38Z</time></trkpt>
<trkpt lat="25.327941" lon="100.904045">
<time>2014-08-04T19:43:39Z</time></trkpt>
<trkpt lat="25.328091" lon="100.903965">
<time>2014-08-04T19:43:40Z</time></trkpt>
<trkpt lat="25.328231" lon="100.903845">
<time>2014-08-04T19:43:41Z</time></trkpt>
<trkpt lat="25.328361" lon="100.903715">
<time>2014-08-04T19:43:42Z</time></trkpt>
<trkpt lat="25.328511" lon="100.903595">
<time>2014-08-04T19:43:43Z</time></trkpt>
<trkpt lat="25.328631" lon="100.903435">
<time>2014-08-04T19:43:44Z</time></trkpt>
<trkpt lat="25.328771" lon="100.903285">
<time>2014-08-04T19:43:45Z</time></trkpt>
<trkpt lat="25.328901" lon="100.903125">
<time>2014-08-04T19:43:46Z</time></trkpt>
<trkpt lat="25.329001" lon="100.902935">
<time>2014-08-04T19:43:47Z</time></trkpt>
<trkpt lat="25.329081" lon="100.902745">
<time>2014-08-04T19:43:48Z</time></trkpt>
<trkpt lat="25.329141" lon="100.902546">
<time>2014-08-04T19:43:49Z</time></trkpt>
<trkpt lat="25.329171" lon="100.902336">
<time>2014-08-04T19:43:50Z</time></trkpt>
<trkpt lat="25.329181" lon="100.902116">
<time>2014-08-04T19:43:51Z</time></trkpt>
<trkpt lat="25.329161" lon="100.901906">
<time>2014-08-04T19:43:52Z</time></trkpt>
<trkpt lat="25.329111" lon="100.901706">
<time>2014-08-04T19:43:53Z</time></trkpt>
<trkpt lat="25.329041" lon="100.901496">
<time>2014-08-04T19:43:54Z</time></trkpt>
<trkpt lat="25.328971" lon="100.901296">
<time>2014-08-04T19:43:55Z</time></trkpt>
<trkpt lat="25.328891" lon="100.901106">
<time>2014-08-04T19:43:56Z</time></trkpt>
<trkpt lat="25.328821" lon="100.900907">
<time>2014-08-04T19:43:57Z</time></trkpt>
<trkpt lat="25.328771" lon="100.900697">
<time>2014-08-04T19:43:58Z</time></trkpt>
<trkpt lat="25.328751" lon="100.900487">
<time>2014-08-04T19:43:59Z</time></trkpt>
<trkpt lat="25.328751" lon="100.900457">
<time>2014-08-04T19:44:00Z</time></trkpt>
<trkpt lat="25.328771" lon="100.900267">
<time>2014-08-04T19:44:01Z</time></trkpt>
<trkpt lat="25.328821" lon="100.900047">
<time>2014-08-04T19:44:02Z</time></trkpt>
<trkpt lat="25.328891" lon="100.899837">
<time>2014-08-04T19:44:03Z</time></trkpt>
<trkpt lat="25.328951" lon="100.899617">
<time>2014-08-04T19:44:04Z</time></trkpt>
<trkpt lat="25.329031" lon="100.899417">
<time>2014-08-04T19:44:05Z</time></trkpt>
<trkpt lat="25.329101" lon="100.899218">
<time>2014-08-04T19:44:06Z</time></trkpt>
<trkpt lat="25.329191" lon="100.899038">
<time>2014-08-04T19:44:07Z</time></trkpt>
<trkpt lat="25.329291" lon="100.898878">
<time>2014-08-04T19:44:08Z</time></trkpt>
<trkpt lat="25.329411" lon="100.898718">
<time>2014-08-04T19:44:09Z</time></trkpt>
<trkpt lat="25.329521" lon="100.898598">
<time>2014-08-04T19:44:10Z</time></trkpt>
<trkpt lat="25.329531" lon="100.898588">
<time>2014-08-04T19:44:11Z</time></trkpt>
<trkpt lat="25.329651" lon="100.898438">
<time>2014-08-04T19:44:12Z</time></trkpt>
<trkpt lat="25.329781" lon="100.898298">
<time>2014-08-04T19:44:13Z</time></trkpt>
<trkpt lat="25.329911" lon="100.898138">
<time>2014-08-04T19:44:14Z</time></trkpt>
<trkpt lat="25.330051" lon="100.897988">
<time>2014-08-04T19:44:15Z</time></trkpt>
<trkpt lat="25.330161" lon="100.897838">
<time>2014-08-04T19:44:16Z</time></trkpt>
<trkpt lat="25.330271" lon="100.897588">
<time>2014-08-04T19:44:17Z</time></trkpt>
<trkpt lat="25.330341" lon="100.897368">
<time>2014-08-04T19:44:18Z</time></trkpt>
<trkpt lat="25.330411" lon="100.897118">
<time>2014-08-04T19:44:19Z</time></trkpt>
<trkpt lat="25.330491" lon="100.896869">
<time>2014-08-04T19:44:20Z</time></trkpt>
<trkpt lat="25.330561" lon="100.896619">
<time>2014-08-04T19:44:21Z</time></trkpt>
<trkpt lat="25.330641" lon="100.896369">
<time>2014-08-04T19:44:22Z</time></trkpt>
<trkpt lat="25.330721" lon="100.896119">
<time>2014-08-04T19:44:23Z</time></trkpt>
<trkpt lat="25.330791" lon="100.895899">
<time>2014-08-04T19:44:24Z</time></trkpt>
<trkpt lat="25.330861" lon="100.895639">
<time>2014-08-04T19:44:25Z</time></trkpt>
<trkpt lat="25.330871" lon="100.895399">
<time>2014-08-04T19:44:26Z</time></trkpt>
<trkpt lat="25.330861" lon="100.895169">
<time>2014-08-04T19:44:27Z</time></trkpt>
<trkpt lat="25.330851" lon="100.894949">
<time>2014-08-04T19:44:28Z</time></trkpt>
<trkpt lat="25.330861" lon="100.894759">
<time>2014-08-04T19:44:29Z</time></trkpt>
<trkpt lat="25.330891" lon="100.894579">
<time>2014-08-04T19:44:30Z</time></trkpt>
<trkpt lat="25.330981" lon="100.894429">
<time>2014-08-04T19:44:31Z</time></trkpt>
<trkpt lat="25.331121" lon="100.894319">
<time>2014-08-04T19:44:32Z</time></trkpt>
<trkpt lat="25.331271" lon="100.894259">
<time>2014-08-04T19:44:33Z</time></trkpt>
<trkpt lat="25.331441" lon="100.894269">
<time>2014-08-04T19:44:34Z</time></trkpt>
<trkpt lat="25.331611" lon="100.894289">
<time>2014-08-04T19:44:35Z</time></trkpt>
<trkpt lat="25.331821" lon="100.894369">
<time>2014-08-04T19:44:36Z</time></trkpt>
<trkpt lat="25.331971" lon="100.894369">
<time>2014-08-04T19:44:37Z</time></trkpt>
<trkpt lat="25.332131" lon="100.894339">
<time>2014-08-04T19:44:38Z</time></trkpt>
<trkpt lat="25.332291" lon="100.894259">
<time>2014-08-04T19:44:39Z</time></trkpt>
<trkpt lat="25.332401" lon="100.894079">
<time>2014-08-04T19:44:40Z</time></trkpt>
<trkpt lat="25.332521" lon="100.893919">
<time>2014-08-04T19:44:41Z</time></trkpt>
<trkpt lat="25.332621" lon="100.893719">
<time>2014-08-04T19:44:42Z</time></trkpt>
<trkpt lat="25.332741" lon="100.89355">
<time>2014-08-04T19:44:43Z</time></trkpt>
<trkpt lat="25.33287" lon="100.89337">
<time>2014-08-04T19:44:44Z</time></trkpt>
<trkpt lat="25.333" lon="100.89317">
<time>2014-08-04T19:44:45Z</time></trkpt>
<trkpt lat="25.33312" lon="100.89299">
<time>2014-08-04T19:44:46Z</time></trkpt>
<trkpt lat="25.3332" lon="100.8928">
<time>2014-08-04T19:44:47Z</time></trkpt>
<trkpt lat="25.33326" lon="100.8926">
<time>2014-08-04T19:44:48Z</time></trkpt>
<trkpt lat="25.33335" lon="100.89234">
<time>2014-08-04T19:44:49Z</time></trkpt>
<trkpt lat="25.33342" lon="100.89218">
<time>2014-08-04T19:44:50Z</time></trkpt>
<trkpt lat="25.33353" lon="100.89201">
<time>2014-08-04T19:44:51Z</time></trkpt>
<trkpt lat="25.33367" lon="100.8919">
<time>2014-08-04T19:44:52Z</time></trkpt>
<trkpt lat="25.33386" lon="100.89187">
<time>2014-08-04T19:44:53Z</time></trkpt>
<trkpt lat="25.33403" lon="100.89187">
<time>2014-08-04T19:44:54Z</time></trkpt>
<trkpt lat="25.33422" lon="100.89186">
<time>2014-08-04T19:44:55Z</time></trkpt>
<trkpt lat="25.33441" lon="100.89181">
<time>2014-08-04T19:44:56Z</time></trkpt>
<trkpt lat="25.33457" lon="100.89174">
<time>2014-08-04T19:44:57Z</time></trkpt>
<trkpt lat="25.33472" lon="100.89165">
<time>2014-08-04T19:44:58Z</time></trkpt>
<trkpt lat="25.33485" lon="100.89156">
<time>2014-08-04T19:44:59Z</time></trkpt>
<trkpt lat="25.33497" lon="100.89145">
<time>2014-08-04T19:45:00Z</time></trkpt>
<trkpt lat="25.3351" lon="100.89134">
<time>2014-08-04T19:45:01Z</time></trkpt>
<trkpt lat="25.33524" lon="100.89124">
<time>2014-08-04T19:45:02Z</time></trkpt>
<trkpt lat="25.33538" lon="100.89112">
<time>2014-08-04T19:45:03Z</time></trkpt>
<trkpt lat="25.33553" lon="100.89101">
<time>2014-08-04T19:45:04Z</time></trkpt>
<trkpt lat="25.33568" lon="100.89089">
<time>2014-08-04T19:45:05Z</time></trkpt>
<trkpt lat="25.33583" lon="100.89077">
<time>2014-08-04T19:45:06Z</time></trkpt>
<trkpt lat="25.33598" lon="100.89066">
<time>2014-08-04T19:45:07Z</time></trkpt>
<trkpt lat="25.33616" lon="100.89057">
<time>2014-08-04T19:45:08Z</time></trkpt>
<trkpt lat="25.33634" lon="100.89051">
<time>2014-08-04T19:45:09Z</time></trkpt>
<trkpt lat="25.33651" lon="100.89043">
<time>2014-08-04T19:45:10Z</time></trkpt>
<trkpt lat="25.33664" lon="100.8903">
<time>2014-08-04T19:45:11Z</time></trkpt>
<trkpt lat="25.33675" lon="100.89015">
<time>2014-08-04T19:45:12Z</time></trkpt>
<trkpt lat="25.3369" lon="100.89001">
<time>2014-08-04T19:45:13Z</time></trkpt>
<trkpt lat="25.33707" lon="100.88995">
<time>2014-08-04T19:45:14Z</time></trkpt>
<trkpt lat="25.33725" lon="100.88992">
<time>2014-08-04T19:45:15Z</time></trkpt>
<trkpt lat="25.33741" lon="100.88986">
<time>2014-08-04T19:45:16Z</time></trkpt>
<trkpt lat="25.33752" lon="100.88975">
<time>2014-08-04T19:45:17Z</time></trkpt>
<trkpt lat="25.33763" lon="100.88957">
<time>2014-08-04T19:45:18Z</time></trkpt>
<trkpt lat="25.337669" lon="100.88937">
<time>2014-08-04T19:45:19Z</time></trkpt>
<trkpt lat="25.337709" lon="100.88915">
<time>2014-08-04T19:45:20Z</time></trkpt>
<trkpt lat="25.337729" lon="100.88891">
<time>2014-08-04T19:45:21Z</time></trkpt>
<trkpt lat="25.337719" lon="100.88868">
<time>2014-08-04T19:45:22Z</time></trkpt>
<trkpt lat="25.337699" lon="100.88839">
<time>2014-08-04T19:45:23Z</time></trkpt>
<trkpt lat="25.337669" lon="100.88813">
<time>2014-08-04T19:45:24Z</time></trkpt>
<trkpt lat="25.337639" lon="100.88787">
<time>2014-08-04T19:45:25Z</time></trkpt>
<trkpt lat="25.337609" lon="100.88761">
<time>2014-08-04T19:45:26Z</time></trkpt>
<trkpt lat="25.337578" lon="100.88739">
<time>2014-08-04T19:45:27Z</time></trkpt>
<trkpt lat="25.337608" lon="100.88721">
<time>2014-08-04T19:45:28Z</time></trkpt>
<trkpt lat="25.337718" lon="100.88708">
<time>2014-08-04T19:45:29Z</time></trkpt>
<trkpt lat="25.337888" lon="100.88705">
<time>2014-08-04T19:45:30Z</time></trkpt>
<trkpt lat="25.338018" lon="100.88711">
<time>2014-08-04T19:45:31Z</time></trkpt>
<trkpt lat="25.338138" lon="100.88721">
<time>2014-08-04T19:45:32Z</time></trkpt>
<trkpt lat="25.338258" lon="100.88732">
<time>2014-08-04T19:45:33Z</time></trkpt>
<trkpt lat="25.338389" lon="100.88745">
<time>2014-08-04T19:45:34Z</time></trkpt>
<trkpt lat="25.338529" lon="100.88759">
<time>2014-08-04T19:45:35Z</time></trkpt>
<trkpt lat="25.338679" lon="100.88774">
<time>2014-08-04T19:45:36Z</time></trkpt>
<trkpt lat="25.338839" lon="100.8879">
<time>2014-08-04T19:45:37Z</time></trkpt>
<trkpt lat="25.338999" lon="100.88805">
<time>2014-08-04T19:45:38Z</time></trkpt>
<trkpt lat="25.339169" lon="100.88817">
<time>2014-08-04T19:45:39Z</time></trkpt>
<trkpt lat="25.339349" lon="100.88825">
<time>2014-08-04T19:45:40Z</time></trkpt>
<trkpt lat="25.339539" lon="100.8883">
<time>2014-08-04T19:45:41Z</time></trkpt>
<trkpt lat="25.339649" lon="100.88829">
<time>2014-08-04T19:45:42Z</time></trkpt>
<trkpt lat="25.339759" lon="100.88822">
<time>2014-08-04T19:45:43Z</time></trkpt>
<trkpt lat="25.339859" lon="100.88809">
<time>2014-08-04T19:45:44Z</time></trkpt>
<trkpt lat="25.340009" lon="100.88793">
<time>2014-08-04T19:45:45Z</time></trkpt>
<trkpt lat="25.340109" lon="100.88784">
<time>2014-08-04T19:45:46Z</time></trkpt>
<trkpt lat="25.340119" lon="100.88783">
<time>2014-08-04T19:45:47Z</time></trkpt>
<trkpt lat="25.340299" lon="100.88764">
<time>2014-08-04T19:45:48Z</time></trkpt>
<trkpt lat="25.340429" lon="100.88754">
<time>2014-08-04T19:45:49Z</time></trkpt>
<trkpt lat="25.340509" lon="100.88751">
<time>2014-08-04T19:45:50Z</time></trkpt>
<trkpt lat="25.340589" lon="100.88751">
<time>2014-08-04T19:45:51Z</time></trkpt>
<trkpt lat="25.340719" lon="100.88758">
<time>2014-08-04T19:45:52Z</time></trkpt>
<trkpt lat="25.340839" lon="100.88769">
<time>2014-08-04T19:45:53Z</time></trkpt>
<trkpt lat="25.340959" lon="100.88778">
<time>2014-08-04T19:45:54Z</time></trkpt>
<trkpt lat="25.341089" lon="100.88784">
<time>2014-08-04T19:45:55Z</time></trkpt>
<trkpt lat="25.341219" lon="100.88783">
<time>2014-08-04T19:45:56Z</time></trkpt>
<trkpt lat="25.341339" lon="100.88774">
<time>2014-08-04T19:45:57Z</time></trkpt>
<trkpt lat="25.341429" lon="100.8876">
<time>2014-08-04T19:45:58Z</time></trkpt>
<trkpt lat="25.341509" lon="100.88742">
<time>2014-08-04T19:45:59Z</time></trkpt>
<trkpt lat="25.341609" lon="100.88726">
<time>2014-08-04T19:46:00Z</time></trkpt>
<trkpt lat="25.341679" lon="100.88706">
<time>2014-08-04T19:46:01Z</time></trkpt>
<trkpt lat="25.341709" lon="100.88682">
<time>2014-08-04T19:46:02Z</time></trkpt>
<trkpt lat="25.341688" lon="100.88658">
<time>2014-08-04T19:46:03Z</time></trkpt>
<trkpt lat="25.341648" lon="100.88632">
<time>2014-08-04T19:46:04Z</time></trkpt>
<trkpt lat="25.341598" lon="100.88606">
<time>2014-08-04T19:46:05Z</time></trkpt>
<trkpt lat="25.341588" lon="100.88582">
<time>2014-08-04T19:46:06Z</time></trkpt>
<trkpt lat="25.341628" lon="100.88559">
<time>2014-08-04T19:46:07Z</time></trkpt>
<trkpt lat="25.341718" lon="100.88541">
<time>2014-08-04T19:46:08Z</time></trkpt>
<trkpt lat="25.341748" lon="100.8852">
<time>2014-08-04T19:46:09Z</time></trkpt>
<trkpt lat="25.341737" lon="100.885">
<time>2014-08-04T19:46:10Z</time></trkpt>
<trkpt lat="25.341697" lon="100.88478">
<time>2014-08-04T19:46:11Z</time></trkpt>
<trkpt lat="25.341647" lon="100.88454">
<time>2014-08-04T19:46:12Z</time></trkpt>
<trkpt lat="25.341607" lon="100.88428">
<time>2014-08-04T19:46:13Z</time></trkpt>
<trkpt lat="25.341577" lon="100.884009">
<time>2014-08-04T19:46:14Z</time></trkpt>
<trkpt lat="25.341577" lon="100.883749">
<time>2014-08-04T19:46:15Z</time></trkpt>
<trkpt lat="25.341616" lon="100.883469">
<time>2014-08-04T19:46:16Z</time></trkpt>
<trkpt lat="25.341646" lon="100.883199">
<time>2014-08-04T19:46:17Z</time></trkpt>
<trkpt lat="25.341656" lon="100.882939">
<time>2014-08-04T19:46:18Z</time></trkpt>
<trkpt lat="25.341696" lon="100.882689">
<time>2014-08-04T19:46:19Z</time></trkpt>
<trkpt lat="25.341826" lon="100.882459">
<time>2014-08-04T19:46:20Z</time></trkpt>
<trkpt lat="25.342026" lon="100.882269">
<time>2014-08-04T19:46:21Z</time></trkpt>
<trkpt lat="25.342245" lon="100.882079">
<time>2014-08-04T19:46:22Z</time></trkpt>
<trkpt lat="25.342465" lon="100.881899">
<time>2014-08-04T19:46:23Z</time></trkpt>
<trkpt lat="25.342655" lon="100.881729">
<time>2014-08-04T19:46:24Z</time></trkpt>
<trkpt lat="25.342805" lon="100.881559">
<time>2014-08-04T19:46:25Z</time></trkpt>
<trkpt lat="25.342865" lon="100.881359">
<time>2014-08-04T19:46:26Z</time></trkpt>
<trkpt lat="25.342865" lon="100.881139">
<time>2014-08-04T19:46:27Z</time></trkpt>
<trkpt lat="25.342835" lon="100.880889">
<time>2014-08-04T19:46:28Z</time></trkpt>
<trkpt lat="25.342784" lon="100.880659">
<time>2014-08-04T19:46:29Z</time></trkpt>
<trkpt lat="25.342784" lon="100.880409">
<time>2014-08-04T19:46:30Z</time></trkpt>
<trkpt lat="25.342864" lon="100.880158">
<time>2014-08-04T19:46:31Z</time></trkpt>
<trkpt lat="25.342994" lon="100.879948">
<time>2014-08-04T19:46:32Z</time></trkpt>
<trkpt lat="25.343174" lon="100.879738">
<time>2014-08-04T19:46:33Z</time></trkpt>
<trkpt lat="25.343364" lon="100.879568">
<time>2014-08-04T19:46:34Z</time></trkpt>
<trkpt lat="25.343563" lon="100.879408">
<time>2014-08-04T19:46:35Z</time></trkpt>
<trkpt lat="25.343783" lon="100.879258">
<time>2014-08-04T19:46:36Z</time></trkpt>
<trkpt lat="25.344003" lon="100.879118">
<time>2014-08-04T19:46:37Z</time></trkpt>
<trkpt lat="25.344223" lon="100.878988">
<time>2014-08-04T19:46:38Z</time></trkpt>
<trkpt lat="25.344443" lon="100.878868">
<time>2014-08-04T19:46:39Z</time></trkpt>
<trkpt lat="25.344643" lon="100.878688">
<time>2014-08-04T19:46:40Z</time></trkpt>
<trkpt lat="25.344763" lon="100.878598">
<time>2014-08-04T19:46:41Z</time></trkpt>
<trkpt lat="25.344883" lon="100.878478">
<time>2014-08-04T19:46:42Z</time></trkpt>
<trkpt lat="25.344993" lon="100.878318">
<time>2014-08-04T19:46:43Z</time></trkpt>
<trkpt lat="25.345052" lon="100.878128">
<time>2014-08-04T19:46:44Z</time></trkpt>
<trkpt lat="25.345052" lon="100.877957">
<time>2014-08-04T19:46:45Z</time></trkpt>
<trkpt lat="25.345002" lon="100.877777">
<time>2014-08-04T19:46:46Z</time></trkpt>
<trkpt lat="25.344872" lon="100.877667">
<time>2014-08-04T19:46:47Z</time></trkpt>
<trkpt lat="25.344702" lon="100.877587">
<time>2014-08-04T19:46:48Z</time></trkpt>
<trkpt lat="25.344542" lon="100.877557">
<time>2014-08-04T19:46:49Z</time></trkpt>
<trkpt lat="25.344342" lon="100.877517">
<time>2014-08-04T19:46:50Z</time></trkpt>
<trkpt lat="25.344152" lon="100.877477">
<time>2014-08-04T19:46:51Z</time></trkpt>
<trkpt lat="25.343962" lon="100.877407">
<time>2014-08-04T19:46:52Z</time></trkpt>
<trkpt lat="25.343801" lon="100.877267">
<time>2014-08-04T19:46:53Z</time></trkpt>
<trkpt lat="25.343721" lon="100.877067">
<time>2014-08-04T19:46:54Z</time></trkpt>
<trkpt lat="25.343701" lon="100.876867">
<time>2014-08-04T19:46:55Z</time></trkpt>
<trkpt lat="25.343701" lon="100.876727">
<time>2014-08-04T19:46:56Z</time></trkpt>
<trkpt lat="25.343731" lon="100.876527">
<time>2014-08-04T19:46:57Z</time></trkpt>
<trkpt lat="25.343781" lon="100.876357">
<time>2014-08-04T19:46:58Z</time></trkpt>
<trkpt lat="25.34384" lon="100.876197">
<time>2014-08-04T19:46:59Z</time></trkpt>
<trkpt lat="25.34394" lon="100.876057">
<time>2014-08-04T19:47:00Z</time></trkpt>
<trkpt lat="25.34407" lon="100.875937">
<time>2014-08-04T19:47:01Z</time></trkpt>
<trkpt lat="25.34421" lon="100.875867">
<time>2014-08-04T19:47:02Z</time></trkpt>
<trkpt lat="25.34435" lon="100.875776">
<time>2014-08-04T19:47:03Z</time></trkpt>
<trkpt lat="25.34448" lon="100.875706">
<time>2014-08-04T19:47:04Z</time></trkpt>
<trkpt lat="25.34461" lon="100.875626">
<time>2014-08-04T19:47:05Z</time></trkpt>
<trkpt lat="25.34493" lon="100.875506">
<time>2014-08-04T19:47:06Z</time></trkpt>
<trkpt lat="25.34511" lon="100.875426">
<time>2014-08-04T19:47:07Z</time></trkpt>
<trkpt lat="25.34528" lon="100.875326">
<time>2014-08-04T19:47:08Z</time></trkpt>
<trkpt lat="25.34547" lon="100.875186">
<time>2014-08-04T19:47:09Z</time></trkpt>
<trkpt lat="25.34568" lon="100.875016">
<time>2014-08-04T19:47:10Z</time></trkpt>
<trkpt lat="25.345849" lon="100.874906">
<time>2014-08-04T19:47:11Z</time></trkpt>
<trkpt lat="25.346039" lon="100.874796">
<time>2014-08-04T19:47:12Z</time></trkpt>
<trkpt lat="25.346239" lon="100.874686">
<time>2014-08-04T19:47:13Z</time></trkpt>
<trkpt lat="25.346439" lon="100.874566">
<time>2014-08-04T19:47:14Z</time></trkpt>
<trkpt lat="25.346639" lon="100.874456">
<time>2014-08-04T19:47:15Z</time></trkpt>
<trkpt lat="25.346839" lon="100.874336">
<time>2014-08-04T19:47:16Z</time></trkpt>
<trkpt lat="25.347039" lon="100.874216">
<time>2014-08-04T19:47:17Z</time></trkpt>
<trkpt lat="25.347229" lon="100.874105">
<time>2014-08-04T19:47:18Z</time></trkpt>
<trkpt lat="25.347429" lon="100.874035">
<time>2014-08-04T19:47:19Z</time></trkpt>
<trkpt lat="25.347649" lon="100.874015">
<time>2014-08-04T19:47:20Z</time></trkpt>
<trkpt lat="25.347879" lon="100.874045">
<time>2014-08-04T19:47:21Z</time></trkpt>
<trkpt lat="25.348119" lon="100.874075">
<time>2014-08-04T19:47:22Z</time></trkpt>
<trkpt lat="25.348369" lon="100.874085">
<time>2014-08-04T19:47:23Z</time></trkpt>
<trkpt lat="25.348619" lon="100.874095">
<time>2014-08-04T19:47:24Z</time></trkpt>
<trkpt lat="25.348859" lon="100.874115">
<time>2014-08-04T19:47:25Z</time></trkpt>
<trkpt lat="25.349099" lon="100.874135">
<time>2014-08-04T19:47:26Z</time></trkpt>
<trkpt lat="25.349329" lon="100.874145">
<time>2014-08-04T19:47:27Z</time></trkpt>
<trkpt lat="25.349539" lon="100.874155">
<time>2014-08-04T19:47:28Z</time></trkpt>
<trkpt lat="25.349729" lon="100.874105">
<time>2014-08-04T19:47:29Z</time></trkpt>
<trkpt lat="25.349859" lon="100.873965">
<time>2014-08-04T19:47:30Z</time></trkpt>
<trkpt lat="25.349969" lon="100.873785">
<time>2014-08-04T19:47:31Z</time></trkpt>
<trkpt lat="25.350059" lon="100.873625">
<time>2014-08-04T19:47:32Z</time></trkpt>
<trkpt lat="25.350148" lon="100.873445">
<time>2014-08-04T19:47:33Z</time></trkpt>
<trkpt lat="25.350238" lon="100.873285">
<time>2014-08-04T19:47:34Z</time></trkpt>
<trkpt lat="25.350328" lon="100.873125">
<time>2014-08-04T19:47:35Z</time></trkpt>
<trkpt lat="25.350418" lon="100.872975">
<time>2014-08-04T19:47:36Z</time></trkpt>
<trkpt lat="25.350518" lon="100.872825">
<time>2014-08-04T19:47:37Z</time></trkpt>
<trkpt lat="25.350628" lon="100.872674">
<time>2014-08-04T19:47:38Z</time></trkpt>
<trkpt lat="25.350748" lon="100.872534">
<time>2014-08-04T19:47:39Z</time></trkpt>
<trkpt lat="25.350887" lon="100.872404">
<time>2014-08-04T19:47:40Z</time></trkpt>
<trkpt lat="25.351047" lon="100.872254">
<time>2014-08-04T19:47:41Z</time></trkpt>
<trkpt lat="25.351207" lon="100.872104">
<time>2014-08-04T19:47:42Z</time></trkpt>
<trkpt lat="25.351387" lon="100.871954">
<time>2014-08-04T19:47:43Z</time></trkpt>
<trkpt lat="25.351577" lon="100.871794">
<time>2014-08-04T19:47:44Z</time></trkpt>
<trkpt lat="25.351767" lon="100.871634">
<time>2014-08-04T19:47:45Z</time></trkpt>
<trkpt lat="25.351987" lon="100.871494">
<time>2014-08-04T19:47:46Z</time></trkpt>
<trkpt lat="25.352216" lon="100.871384">
<time>2014-08-04T19:47:47Z</time></trkpt>
<trkpt lat="25.352446" lon="100.871254">
<time>2014-08-04T19:47:48Z</time></trkpt>
<trkpt lat="25.352666" lon="100.871093">
<time>2014-08-04T19:47:49Z</time></trkpt>
<trkpt lat="25.352876" lon="100.870923">
<time>2014-08-04T19:47:50Z</time></trkpt>
<trkpt lat="25.353086" lon="100.870803">
<time>2014-08-04T19:47:51Z</time></trkpt>
<trkpt lat="25.353316" lon="100.870803">
<time>2014-08-04T19:47:52Z</time></trkpt>
<trkpt lat="25.353476" lon="100.870903">
<time>2014-08-04T19:47:53Z</time></trkpt>
<trkpt lat="25.353566" lon="100.871013">
<time>2014-08-04T19:47:54Z</time></trkpt>
<trkpt lat="25.353686" lon="100.871193">
<time>2014-08-04T19:47:55Z</time></trkpt>
<trkpt lat="25.353847" lon="100.871314">
<time>2014-08-04T19:47:56Z</time></trkpt>
<trkpt lat="25.354017" lon="100.871293">
<time>2014-08-04T19:47:57Z</time></trkpt>
<trkpt lat="25.354086" lon="100.871233">
<time>2014-08-04T19:47:58Z</time></trkpt>
<trkpt lat="25.354146" lon="100.871183">
<time>2014-08-04T19:47:59Z</time></trkpt>
<trkpt lat="25.354266" lon="100.871063">
<time>2014-08-04T19:48:00Z</time></trkpt>
<trkpt lat="25.354396" lon="100.870953">
<time>2014-08-04T19:48:01Z</time></trkpt>
<trkpt lat="25.354536" lon="100.870883">
<time>2014-08-04T19:48:02Z</time></trkpt>
<trkpt lat="25.354676" lon="100.870833">
<time>2014-08-04T19:48:03Z</time></trkpt>
<trkpt lat="25.354826" lon="100.870803">
<time>2014-08-04T19:48:04Z</time></trkpt>
<trkpt lat="25.354976" lon="100.870803">
<time>2014-08-04T19:48:05Z</time></trkpt>
<trkpt lat="25.355126" lon="100.870823">
<time>2014-08-04T19:48:06Z</time></trkpt>
<trkpt lat="25.355336" lon="100.870903">
<time>2014-08-04T19:48:07Z</time></trkpt>
<trkpt lat="25.355486" lon="100.871043">
<time>2014-08-04T19:48:08Z</time></trkpt>
<trkpt lat="25.355637" lon="100.871183">
<time>2014-08-04T19:48:09Z</time></trkpt>
<trkpt lat="25.355787" lon="100.871343">
<time>2014-08-04T19:48:10Z</time></trkpt>
<trkpt lat="25.355957" lon="100.871484">
<time>2014-08-04T19:48:11Z</time></trkpt>
<trkpt lat="25.356117" lon="100.871634">
<time>2014-08-04T19:48:12Z</time></trkpt>
<trkpt lat="25.356277" lon="100.871794">
<time>2014-08-04T19:48:13Z</time></trkpt>
<trkpt lat="25.356428" lon="100.871934">
<time>2014-08-04T19:48:14Z</time></trkpt>
<trkpt lat="25.356598" lon="100.871994">
<time>2014-08-04T19:48:15Z</time></trkpt>
<trkpt lat="25.356758" lon="100.871924">
<time>2014-08-04T19:48:16Z</time></trkpt>
<trkpt lat="25.356867" lon="100.871764">
<time>2014-08-04T19:48:17Z</time></trkpt>
<trkpt lat="25.356947" lon="100.871604">
<time>2014-08-04T19:48:18Z</time></trkpt>
<trkpt lat="25.357027" lon="100.871424">
<time>2014-08-04T19:48:19Z</time></trkpt>
<trkpt lat="25.357107" lon="100.871243">
<time>2014-08-04T19:48:20Z</time></trkpt>
<trkpt lat="25.357187" lon="100.871053">
<time>2014-08-04T19:48:21Z</time></trkpt>
<trkpt lat="25.357277" lon="100.870863">
<time>2014-08-04T19:48:22Z</time></trkpt>
<trkpt lat="25.357416" lon="100.870703">
<time>2014-08-04T19:48:23Z</time></trkpt>
<trkpt lat="25.357576" lon="100.870553">
<time>2014-08-04T19:48:24Z</time></trkpt>
<trkpt lat="25.357746" lon="100.870393">
<time>2014-08-04T19:48:25Z</time></trkpt>
<trkpt lat="25.357916" lon="100.870233">
<time>2014-08-04T19:48:26Z</time></trkpt>
<trkpt lat="25.358086" lon="100.870073">
<time>2014-08-04T19:48:27Z</time></trkpt>
<trkpt lat="25.358276" lon="100.869932">
<time>2014-08-04T19:48:28Z</time></trkpt>
<trkpt lat="25.358485" lon="100.869812">
<time>2014-08-04T19:48:29Z</time></trkpt>
<trkpt lat="25.358685" lon="100.869682">
<time>2014-08-04T19:48:30Z</time></trkpt>
<trkpt lat="25.358875" lon="100.869562">
<time>2014-08-04T19:48:31Z</time></trkpt>
<trkpt lat="25.359075" lon="100.869442">
<time>2014-08-04T19:48:32Z</time></trkpt>
<trkpt lat="25.359275" lon="100.869362">
<time>2014-08-04T19:48:33Z</time></trkpt>
<trkpt lat="25.359485" lon="100.869322">
<time>2014-08-04T19:48:34Z</time></trkpt>
<trkpt lat="25.359715" lon="100.869322">
<time>2014-08-04T19:48:35Z</time></trkpt>
<trkpt lat="25.359925" lon="100.869322">
<time>2014-08-04T19:48:36Z</time></trkpt>
<trkpt lat="25.360125" lon="100.869272">
<time>2014-08-04T19:48:37Z</time></trkpt>
<trkpt lat="25.360265" lon="100.869132">
<time>2014-08-04T19:48:38Z</time></trkpt>
<trkpt lat="25.360325" lon="100.868942">
<time>2014-08-04T19:48:39Z</time></trkpt>
<trkpt lat="25.360334" lon="100.868731">
<time>2014-08-04T19:48:40Z</time></trkpt>
<trkpt lat="25.360364" lon="100.868521">
<time>2014-08-04T19:48:41Z</time></trkpt>
<trkpt lat="25.360424" lon="100.868331">
<time>2014-08-04T19:48:42Z</time></trkpt>
<trkpt lat="25.360504" lon="100.868141">
<time>2014-08-04T19:48:43Z</time></trkpt>
<trkpt lat="25.360593" lon="100.867951">
<time>2014-08-04T19:48:44Z</time></trkpt>
<trkpt lat="25.360683" lon="100.867751">
<time>2014-08-04T19:48:45Z</time></trkpt>
<trkpt lat="25.360753" lon="100.86753">
<time>2014-08-04T19:48:46Z</time></trkpt>
<trkpt lat="25.360833" lon="100.86736">
<time>2014-08-04T19:48:47Z</time></trkpt>
<trkpt lat="25.360942" lon="100.86712">
<time>2014-08-04T19:48:48Z</time></trkpt>
<trkpt lat="25.361042" lon="100.86691">
<time>2014-08-04T19:48:49Z</time></trkpt>
<trkpt lat="25.361152" lon="100.86669">
<time>2014-08-04T19:48:50Z</time></trkpt>
<trkpt lat="25.361252" lon="100.86647">
<time>2014-08-04T19:48:51Z</time></trkpt>
<trkpt lat="25.361361" lon="100.866249">
<time>2014-08-04T19:48:52Z</time></trkpt>
<trkpt lat="25.361441" lon="100.865999">
<time>2014-08-04T19:48:53Z</time></trkpt>
<trkpt lat="25.361491" lon="100.865809">
<time>2014-08-04T19:48:54Z</time></trkpt>
<trkpt lat="25.361501" lon="100.865739">
<time>2014-08-04T19:48:55Z</time></trkpt>
<trkpt lat="25.36153" lon="100.865469">
<time>2014-08-04T19:48:56Z</time></trkpt>
<trkpt lat="25.36154" lon="100.865188">
<time>2014-08-04T19:48:57Z</time></trkpt>
<trkpt lat="25.36157" lon="100.864898">
<time>2014-08-04T19:48:58Z</time></trkpt>
<trkpt lat="25.361579" lon="100.864608">
<time>2014-08-04T19:48:59Z</time></trkpt>
<trkpt lat="25.361599" lon="100.864308">
<time>2014-08-04T19:49:00Z</time></trkpt>
<trkpt lat="25.361609" lon="100.864067">
<time>2014-08-04T19:49:01Z</time></trkpt>
<trkpt lat="25.361648" lon="100.863837">
<time>2014-08-04T19:49:02Z</time></trkpt>
<trkpt lat="25.361648" lon="100.863617">
<time>2014-08-04T19:49:03Z</time></trkpt>
<trkpt lat="25.361618" lon="100.863387">
<time>2014-08-04T19:49:04Z</time></trkpt>
<trkpt lat="25.361627" lon="100.863127">
<time>2014-08-04T19:49:05Z</time></trkpt>
<trkpt lat="25.361637" lon="100.862856">
<time>2014-08-04T19:49:06Z</time></trkpt>
<trkpt lat="25.361666" lon="100.862556">
<time>2014-08-04T19:49:07Z</time></trkpt>
<trkpt lat="25.361706" lon="100.862276">
<time>2014-08-04T19:49:08Z</time></trkpt>
<trkpt lat="25.361726" lon="100.862005">
<time>2014-08-04T19:49:09Z</time></trkpt>
<trkpt lat="25.361726" lon="100.861945">
<time>2014-08-04T19:49:10Z</time></trkpt>
<trkpt lat="25.361795" lon="100.861625">
<time>2014-08-04T19:49:11Z</time></trkpt>
<trkpt lat="25.361815" lon="100.861315">
<time>2014-08-04T19:49:12Z</time></trkpt>
<trkpt lat="25.361824" lon="100.861034">
<time>2014-08-04T19:49:13Z</time></trkpt>
<trkpt lat="25.361854" lon="100.860774">
<time>2014-08-04T19:49:14Z</time></trkpt>
<trkpt lat="25.361874" lon="100.860524">
<time>2014-08-04T19:49:15Z</time></trkpt>
<trkpt lat="25.361893" lon="100.860264">
<time>2014-08-04T19:49:16Z</time></trkpt>
<trkpt lat="25.361913" lon="100.860003">
<time>2014-08-04T19:49:17Z</time></trkpt>
<trkpt lat="25.361922" lon="100.859743">
<time>2014-08-04T19:49:18Z</time></trkpt>
<trkpt lat="25.361932" lon="100.859483">
<time>2014-08-04T19:49:19Z</time></trkpt>
<trkpt lat="25.361952" lon="100.859233">
<time>2014-08-04T19:49:20Z</time></trkpt>
<trkpt lat="25.361961" lon="100.858972">
<time>2014-08-04T19:49:21Z</time></trkpt>
<trkpt lat="25.361981" lon="100.858722">
<time>2014-08-04T19:49:22Z</time></trkpt>
<trkpt lat="25.361991" lon="100.858462">
<time>2014-08-04T19:49:23Z</time></trkpt>
<trkpt lat="25.362" lon="100.858211">
<time>2014-08-04T19:49:24Z</time></trkpt>
<trkpt lat="25.36204" lon="100.857941">
<time>2014-08-04T19:49:25Z</time></trkpt>
<trkpt lat="25.362079" lon="100.857681">
<time>2014-08-04T19:49:26Z</time></trkpt>
<trkpt lat="25.362129" lon="100.857451">
<time>2014-08-04T19:49:27Z</time></trkpt>
<trkpt lat="25.362209" lon="100.8572">
<time>2014-08-04T19:49:28Z</time></trkpt>
<trkpt lat="25.362288" lon="100.85695">
<time>2014-08-04T19:49:29Z</time></trkpt>
<trkpt lat="25.362368" lon="100.85672">
<time>2014-08-04T19:49:30Z</time></trkpt>
<trkpt lat="25.362458" lon="100.85649">
<time>2014-08-04T19:49:31Z</time></trkpt>
<trkpt lat="25.362517" lon="100.856319">
<time>2014-08-04T19:49:32Z</time></trkpt>
<trkpt lat="25.362537" lon="100.856259">
<time>2014-08-04T19:49:33Z</time></trkpt>
<trkpt lat="25.362617" lon="100.856029">
<time>2014-08-04T19:49:34Z</time></trkpt>
<trkpt lat="25.362697" lon="100.855809">
<time>2014-08-04T19:49:35Z</time></trkpt>
<trkpt lat="25.362786" lon="100.855599">
<time>2014-08-04T19:49:36Z</time></trkpt>
<trkpt lat="25.362896" lon="100.855378">
<time>2014-08-04T19:49:37Z</time></trkpt>
<trkpt lat="25.363016" lon="100.855178">
<time>2014-08-04T19:49:38Z</time></trkpt>
<trkpt lat="25.363155" lon="100.854978">
<time>2014-08-04T19:49:39Z</time></trkpt>
<trkpt lat="25.363285" lon="100.854768">
<time>2014-08-04T19:49:40Z</time></trkpt>
<trkpt lat="25.363435" lon="100.854567">
<time>2014-08-04T19:49:41Z</time></trkpt>
<trkpt lat="25.363564" lon="100.854397">
<time>2014-08-04T19:49:42Z</time></trkpt>
<trkpt lat="25.363674" lon="100.854237">
<time>2014-08-04T19:49:43Z</time></trkpt>
<trkpt lat="25.363774" lon="100.854087">
<time>2014-08-04T19:49:44Z</time></trkpt>
<trkpt lat="25.363874" lon="100.853947">
<time>2014-08-04T19:49:45Z</time></trkpt>
<trkpt lat="25.363994" lon="100.853836">
<time>2014-08-04T19:49:46Z</time></trkpt>
<trkpt lat="25.364123" lon="100.853726">
<time>2014-08-04T19:49:47Z</time></trkpt>
<trkpt lat="25.364273" lon="100.853646">
<time>2014-08-04T19:49:48Z</time></trkpt>
<trkpt lat="25.364433" lon="100.853586">
<time>2014-08-04T19:49:49Z</time></trkpt>
<trkpt lat="25.364593" lon="100.853536">
<time>2014-08-04T19:49:50Z</time></trkpt>
<trkpt lat="25.364753" lon="100.853486">
<time>2014-08-04T19:49:51Z</time></trkpt>
<trkpt lat="25.364903" lon="100.853416">
<time>2014-08-04T19:49:52Z</time></trkpt>
<trkpt lat="25.365063" lon="100.853356">
<time>2014-08-04T19:49:53Z</time></trkpt>
<trkpt lat="25.365223" lon="100.853276">
<time>2014-08-04T19:49:54Z</time></trkpt>
<trkpt lat="25.365363" lon="100.853196">
<time>2014-08-04T19:49:55Z</time></trkpt>
<trkpt lat="25.365493" lon="100.853125">
<time>2014-08-04T19:49:56Z</time></trkpt>
<trkpt lat="25.365633" lon="100.853055">
<time>2014-08-04T19:49:57Z</time></trkpt>
<trkpt lat="25.365772" lon="100.852965">
<time>2014-08-04T19:49:58Z</time></trkpt>
<trkpt lat="25.365902" lon="100.852875">
<time>2014-08-04T19:49:59Z</time></trkpt>
<trkpt lat="25.366052" lon="100.852815">
<time>2014-08-04T19:50:00Z</time></trkpt>
<trkpt lat="25.366222" lon="100.852775">
<time>2014-08-04T19:50:01Z</time></trkpt>
<trkpt lat="25.366422" lon="100.852755">
<time>2014-08-04T19:50:02Z</time></trkpt>
<trkpt lat="25.366602" lon="100.852715">
<time>2014-08-04T19:50:03Z</time></trkpt>
<trkpt lat="25.366772" lon="100.852655">
<time>2014-08-04T19:50:04Z</time></trkpt>
<trkpt lat="25.366932" lon="100.852575">
<time>2014-08-04T19:50:05Z</time></trkpt>
<trkpt lat="25.367062" lon="100.852465">
<time>2014-08-04T19:50:06Z</time></trkpt>
<trkpt lat="25.367132" lon="100.852314">
<time>2014-08-04T19:50:07Z</time></trkpt>
<trkpt lat="25.367261" lon="100.852194">
<time>2014-08-04T19:50:08Z</time></trkpt>
<trkpt lat="25.367391" lon="100.852104">
<time>2014-08-04T19:50:09Z</time></trkpt>
<trkpt lat="25.367541" lon="100.852034">
<time>2014-08-04T19:50:10Z</time></trkpt>
<trkpt lat="25.367711" lon="100.852004">
<time>2014-08-04T19:50:11Z</time></trkpt>
<trkpt lat="25.367891" lon="100.852024">
<time>2014-08-04T19:50:12Z</time></trkpt>
<trkpt lat="25.368061" lon="100.852044">
<time>2014-08-04T19:50:13Z</time></trkpt>
<trkpt lat="25.368241" lon="100.852044">
<time>2014-08-04T19:50:14Z</time></trkpt>
<trkpt lat="25.368421" lon="100.852024">
<time>2014-08-04T19:50:15Z</time></trkpt>
<trkpt lat="25.368591" lon="100.851974">
<time>2014-08-04T19:50:16Z</time></trkpt>
<trkpt lat="25.368751" lon="100.851894">
<time>2014-08-04T19:50:17Z</time></trkpt>
<trkpt lat="25.368901" lon="100.851804">
<time>2014-08-04T19:50:18Z</time></trkpt>
<trkpt lat="25.369041" lon="100.851694">
<time>2014-08-04T19:50:19Z</time></trkpt>
<trkpt lat="25.369161" lon="100.851553">
<time>2014-08-04T19:50:20Z</time></trkpt>
<trkpt lat="25.36926" lon="100.851393">
<time>2014-08-04T19:50:21Z</time></trkpt>
<trkpt lat="25.36935" lon="100.851203">
<time>2014-08-04T19:50:22Z</time></trkpt>
<trkpt lat="25.36941" lon="100.851013">
<time>2014-08-04T19:50:23Z</time></trkpt>
<trkpt lat="25.36947" lon="100.850843">
<time>2014-08-04T19:50:24Z</time></trkpt>
<trkpt lat="25.369529" lon="100.850672">
<time>2014-08-04T19:50:25Z</time></trkpt>
<trkpt lat="25.369649" lon="100.850392">
<time>2014-08-04T19:50:26Z</time></trkpt>
<trkpt lat="25.369708" lon="100.850192">
<time>2014-08-04T19:50:27Z</time></trkpt>
<trkpt lat="25.369768" lon="100.850001">
<time>2014-08-04T19:50:28Z</time></trkpt>
<trkpt lat="25.369828" lon="100.849831">
<time>2014-08-04T19:50:29Z</time></trkpt>
<trkpt lat="25.369908" lon="100.849671">
<time>2014-08-04T19:50:30Z</time></trkpt>
<trkpt lat="25.370017" lon="100.849541">
<time>2014-08-04T19:50:31Z</time></trkpt>
<trkpt lat="25.370147" lon="100.849441">
<time>2014-08-04T19:50:32Z</time></trkpt>
<trkpt lat="25.370317" lon="100.849401">
<time>2014-08-04T19:50:33Z</time></trkpt>
<trkpt lat="25.370487" lon="100.849401">
<time>2014-08-04T19:50:34Z</time></trkpt>
<trkpt lat="25.370667" lon="100.849411">
<time>2014-08-04T19:50:35Z</time></trkpt>
<trkpt lat="25.370837" lon="100.849431">
<time>2014-08-04T19:50:36Z</time></trkpt>
<trkpt lat="25.370997" lon="100.849431">
<time>2014-08-04T19:50:37Z</time></trkpt>
<trkpt lat="25.371157" lon="100.849421">
<time>2014-08-04T19:50:38Z</time></trkpt>
<trkpt lat="25.371317" lon="100.849381">
<time>2014-08-04T19:50:39Z</time></trkpt>
<trkpt lat="25.371457" lon="100.84929">
<time>2014-08-04T19:50:40Z</time></trkpt>
<trkpt lat="25.371597" lon="100.84917">
<time>2014-08-04T19:50:41Z</time></trkpt>
<trkpt lat="25.371717" lon="100.84901">
<time>2014-08-04T19:50:42Z</time></trkpt>
<trkpt lat="25.371857" lon="100.84884">
<time>2014-08-04T19:50:43Z</time></trkpt>
<trkpt lat="25.372006" lon="100.84867">
<time>2014-08-04T19:50:44Z</time></trkpt>
<trkpt lat="25.372166" lon="100.848519">
<time>2014-08-04T19:50:45Z</time></trkpt>
<trkpt lat="25.372356" lon="100.848399">
<time>2014-08-04T19:50:46Z</time></trkpt>
<trkpt lat="25.372576" lon="100.848329">
<time>2014-08-04T19:50:47Z</time></trkpt>
<trkpt lat="25.372806" lon="100.848299">
<time>2014-08-04T19:50:48Z</time></trkpt>
<trkpt lat="25.373036" lon="100.848289">
<time>2014-08-04T19:50:49Z</time></trkpt>
<trkpt lat="25.373266" lon="100.848269">
<time>2014-08-04T19:50:50Z</time></trkpt>
<trkpt lat="25.373486" lon="100.848299">
<time>2014-08-04T19:50:51Z</time></trkpt>
<trkpt lat="25.373706" lon="100.848399">
<time>2014-08-04T19:50:52Z</time></trkpt>
<trkpt lat="25.373906" lon="100.848549">
<time>2014-08-04T19:50:53Z</time></trkpt>
<trkpt lat="25.374127" lon="100.84871">
<time>2014-08-04T19:50:54Z</time></trkpt>
<trkpt lat="25.374337" lon="100.84887">
<time>2014-08-04T19:50:55Z</time></trkpt>
<trkpt lat="25.374547" lon="100.84902">
<time>2014-08-04T19:50:56Z</time></trkpt>
<trkpt lat="25.374577" lon="100.84903">
<time>2014-08-04T19:50:57Z</time></trkpt>
<trkpt lat="25.374758" lon="100.84916">
<time>2014-08-04T19:50:58Z</time></trkpt>
<trkpt lat="25.374988" lon="100.84924">
<time>2014-08-04T19:50:59Z</time></trkpt>
<trkpt lat="25.375228" lon="100.84926">
<time>2014-08-04T19:51:00Z</time></trkpt>
<trkpt lat="25.375438" lon="100.84927">
<time>2014-08-04T19:51:01Z</time></trkpt>
<trkpt lat="25.375458" lon="100.84927">
<time>2014-08-04T19:51:02Z</time></trkpt>
<trkpt lat="25.375698" lon="100.84925">
<time>2014-08-04T19:51:03Z</time></trkpt>
<trkpt lat="25.375938" lon="100.8492">
<time>2014-08-04T19:51:04Z</time></trkpt>
<trkpt lat="25.376168" lon="100.84908">
<time>2014-08-04T19:51:05Z</time></trkpt>
<trkpt lat="25.376418" lon="100.84899">
<time>2014-08-04T19:51:06Z</time></trkpt>
<trkpt lat="25.376677" lon="100.84881">
<time>2014-08-04T19:51:07Z</time></trkpt>
<trkpt lat="25.376937" lon="100.84865">
<time>2014-08-04T19:51:08Z</time></trkpt>
<trkpt lat="25.377157" lon="100.848479">
<time>2014-08-04T19:51:09Z</time></trkpt>
<trkpt lat="25.377377" lon="100.848299">
<time>2014-08-04T19:51:10Z</time></trkpt>
<trkpt lat="25.377556" lon="100.848159">
<time>2014-08-04T19:51:11Z</time></trkpt>
<trkpt lat="25.377796" lon="100.847989">
<time>2014-08-04T19:51:12Z</time></trkpt>
<trkpt lat="25.378146" lon="100.847848">
<time>2014-08-04T19:51:13Z</time></trkpt>
<trkpt lat="25.378386" lon="100.847728">
<time>2014-08-04T19:51:14Z</time></trkpt>
<trkpt lat="25.378626" lon="100.847648">
<time>2014-08-04T19:51:15Z</time></trkpt>
<trkpt lat="25.378866" lon="100.847588">
<time>2014-08-04T19:51:16Z</time></trkpt>
<trkpt lat="25.379075" lon="100.847538">
<time>2014-08-04T19:51:17Z</time></trkpt>
<trkpt lat="25.379195" lon="100.847518">
<time>2014-08-04T19:51:18Z</time></trkpt>
<trkpt lat="25.379275" lon="100.847488">
<time>2014-08-04T19:51:19Z</time></trkpt>
<trkpt lat="25.379395" lon="100.847438">
<time>2014-08-04T19:51:20Z</time></trkpt>
<trkpt lat="25.379535" lon="100.847388">
<time>2014-08-04T19:51:21Z</time></trkpt>
<trkpt lat="25.379705" lon="100.847328">
<time>2014-08-04T19:51:22Z</time></trkpt>
<trkpt lat="25.379885" lon="100.847268">
<time>2014-08-04T19:51:23Z</time></trkpt>
<trkpt lat="25.380065" lon="100.847208">
<time>2014-08-04T19:51:24Z</time></trkpt>
<trkpt lat="25.380255" lon="100.847087">
<time>2014-08-04T19:51:25Z</time></trkpt>
<trkpt lat="25.380445" lon="100.846977">
<time>2014-08-04T19:51:26Z</time></trkpt>
<trkpt lat="25.380655" lon="100.846877">
<time>2014-08-04T19:51:27Z</time></trkpt>
<trkpt lat="25.380854" lon="100.846767">
<time>2014-08-04T19:51:28Z</time></trkpt>
<trkpt lat="25.381054" lon="100.846597">
<time>2014-08-04T19:51:29Z</time></trkpt>
<trkpt lat="25.381264" lon="100.846416">
<time>2014-08-04T19:51:30Z</time></trkpt>
<trkpt lat="25.381454" lon="100.846286">
<time>2014-08-04T19:51:31Z</time></trkpt>
<trkpt lat="25.381464" lon="100.846276">
<time>2014-08-04T19:51:32Z</time></trkpt>
<trkpt lat="25.381683" lon="100.846106">
<time>2014-08-04T19:51:33Z</time></trkpt>
<trkpt lat="25.381763" lon="100.846026">
<time>2014-08-04T19:51:34Z</time></trkpt>
<trkpt lat="25.381883" lon="100.845926">
<time>2014-08-04T19:51:35Z</time></trkpt>
<trkpt lat="25.382133" lon="100.845756">
<time>2014-08-04T19:51:36Z</time></trkpt>
<trkpt lat="25.382393" lon="100.845535">
<time>2014-08-04T19:51:37Z</time></trkpt>
<trkpt lat="25.382612" lon="100.845375">
<time>2014-08-04T19:51:38Z</time></trkpt>
<trkpt lat="25.382822" lon="100.845225">
<time>2014-08-04T19:51:39Z</time></trkpt>
<trkpt lat="25.383042" lon="100.845075">
<time>2014-08-04T19:51:40Z</time></trkpt>
<trkpt lat="25.383232" lon="100.844954">
<time>2014-08-04T19:51:41Z</time></trkpt>
<trkpt lat="25.383392" lon="100.844864">
<time>2014-08-04T19:51:42Z</time></trkpt>
<trkpt lat="25.383571" lon="100.844754">
<time>2014-08-04T19:51:43Z</time></trkpt>
<trkpt lat="25.383781" lon="100.844714">
<time>2014-08-04T19:51:44Z</time></trkpt>
<trkpt lat="25.383971" lon="100.844724">
<time>2014-08-04T19:51:45Z</time></trkpt>
<trkpt lat="25.384191" lon="100.844734">
<time>2014-08-04T19:51:46Z</time></trkpt>
<trkpt lat="25.384351" lon="100.844704">
<time>2014-08-04T19:51:47Z</time></trkpt>
<trkpt lat="25.384491" lon="100.844634">
<time>2014-08-04T19:51:48Z</time></trkpt>
<trkpt lat="25.384601" lon="100.844514">
<time>2014-08-04T19:51:49Z</time></trkpt>
<trkpt lat="25.384681" lon="100.844354">
<time>2014-08-04T19:51:50Z</time></trkpt>
<trkpt lat="25.384731" lon="100.844183">
<time>2014-08-04T19:51:51Z</time></trkpt>
<trkpt lat="25.38477" lon="100.843993">
<time>2014-08-04T19:51:52Z</time></trkpt>
<trkpt lat="25.38485" lon="100.843783">
<time>2014-08-04T19:51:53Z</time></trkpt>
<trkpt lat="25.38496" lon="100.843643">
<time>2014-08-04T19:51:54Z</time></trkpt>
<trkpt lat="25.385069" lon="100.843472">
<time>2014-08-04T19:51:55Z</time></trkpt>
<trkpt lat="25.385179" lon="100.843322">
<time>2014-08-04T19:51:56Z</time></trkpt>
<trkpt lat="25.385259" lon="100.843162">
<time>2014-08-04T19:51:57Z</time></trkpt>
<trkpt lat="25.385358" lon="100.842881">
<time>2014-08-04T19:51:58Z</time></trkpt>
<trkpt lat="25.385418" lon="100.842681">
<time>2014-08-04T19:51:59Z</time></trkpt>
<trkpt lat="25.385438" lon="100.842561">
<time>2014-08-04T19:52:00Z</time></trkpt>
<trkpt lat="25.385397" lon="100.842391">
<time>2014-08-04T19:52:01Z</time></trkpt>
<trkpt lat="25.385317" lon="100.842271">
<time>2014-08-04T19:52:02Z</time></trkpt>
<trkpt lat="25.385197" lon="100.84217">
<time>2014-08-04T19:52:03Z</time></trkpt>
<trkpt lat="25.385077" lon="100.84204">
<time>2014-08-04T19:52:04Z</time></trkpt>
<trkpt lat="25.385006" lon="100.84186">
<time>2014-08-04T19:52:05Z</time></trkpt>
<trkpt lat="25.384976" lon="100.84163">
<time>2014-08-04T19:52:06Z</time></trkpt>
<trkpt lat="25.384946" lon="100.841419">
<time>2014-08-04T19:52:07Z</time></trkpt>
<trkpt lat="25.384925" lon="100.841209">
<time>2014-08-04T19:52:08Z</time></trkpt>
<trkpt lat="25.384925" lon="100.840999">
<time>2014-08-04T19:52:09Z</time></trkpt>
<trkpt lat="25.384954" lon="100.840748">
<time>2014-08-04T19:52:10Z</time></trkpt>
<trkpt lat="25.385004" lon="100.840498">
<time>2014-08-04T19:52:11Z</time></trkpt>
<trkpt lat="25.385034" lon="100.840238">
<time>2014-08-04T19:52:12Z</time></trkpt>
<trkpt lat="25.385093" lon="100.840017">
<time>2014-08-04T19:52:13Z</time></trkpt>
<trkpt lat="25.385193" lon="100.839757">
<time>2014-08-04T19:52:14Z</time></trkpt>
<trkpt lat="25.385262" lon="100.839507">
<time>2014-08-04T19:52:15Z</time></trkpt>
<trkpt lat="25.385352" lon="100.839266">
<time>2014-08-04T19:52:16Z</time></trkpt>
<trkpt lat="25.385441" lon="100.839066">
<time>2014-08-04T19:52:17Z</time></trkpt>
<trkpt lat="25.385541" lon="100.838906">
<time>2014-08-04T19:52:18Z</time></trkpt>
<trkpt lat="25.385681" lon="100.838735">
<time>2014-08-04T19:52:19Z</time></trkpt>
<trkpt lat="25.385831" lon="100.838605">
<time>2014-08-04T19:52:20Z</time></trkpt>
<trkpt lat="25.38598" lon="100.838485">
<time>2014-08-04T19:52:21Z</time></trkpt>
<trkpt lat="25.38615" lon="100.838385">
<time>2014-08-04T19:52:22Z</time></trkpt>
<trkpt lat="25.38632" lon="100.838305">
<time>2014-08-04T19:52:23Z</time></trkpt>
<trkpt lat="25.38651" lon="100.838235">
<time>2014-08-04T19:52:24Z</time></trkpt>
<trkpt lat="25.38667" lon="100.838135">
<time>2014-08-04T19:52:25Z</time></trkpt>
<trkpt lat="25.38684" lon="100.838004">
<time>2014-08-04T19:52:26Z</time></trkpt>
<trkpt lat="25.38699" lon="100.837864">
<time>2014-08-04T19:52:27Z</time></trkpt>
<trkpt lat="25.387119" lon="100.837724">
<time>2014-08-04T19:52:28Z</time></trkpt>
<trkpt lat="25.387259" lon="100.837594">
<time>2014-08-04T19:52:29Z</time></trkpt>
<trkpt lat="25.387439" lon="100.837514">
<time>2014-08-04T19:52:30Z</time></trkpt>
<trkpt lat="25.387629" lon="100.837494">
<time>2014-08-04T19:52:31Z</time></trkpt>
<trkpt lat="25.387829" lon="100.837544">
<time>2014-08-04T19:52:32Z</time></trkpt>
<trkpt lat="25.387879" lon="100.837564">
<time>2014-08-04T19:52:33Z</time></trkpt>
<trkpt lat="25.388019" lon="100.837604">
<time>2014-08-04T19:52:34Z</time></trkpt>
<trkpt lat="25.388209" lon="100.837654">
<time>2014-08-04T19:52:35Z</time></trkpt>
<trkpt lat="25.388399" lon="100.837664">
<time>2014-08-04T19:52:36Z</time></trkpt>
<trkpt lat="25.388569" lon="100.837634">
<time>2014-08-04T19:52:37Z</time></trkpt>
<trkpt lat="25.388699" lon="100.837554">
<time>2014-08-04T19:52:38Z</time></trkpt>
<trkpt lat="25.388849" lon="100.837423">
<time>2014-08-04T19:52:39Z</time></trkpt>
<trkpt lat="25.388999" lon="100.837303">
<time>2014-08-04T19:52:40Z</time></trkpt>
<trkpt lat="25.389159" lon="100.837173">
<time>2014-08-04T19:52:41Z</time></trkpt>
<trkpt lat="25.389308" lon="100.837083">
<time>2014-08-04T19:52:42Z</time></trkpt>
<trkpt lat="25.389438" lon="100.837013">
<time>2014-08-04T19:52:43Z</time></trkpt>
<trkpt lat="25.389558" lon="100.836983">
<time>2014-08-04T19:52:44Z</time></trkpt>
<trkpt lat="25.389738" lon="100.836883">
<time>2014-08-04T19:52:45Z</time></trkpt>
<trkpt lat="25.389848" lon="100.836883">
<time>2014-08-04T19:52:46Z</time></trkpt>
<trkpt lat="25.389948" lon="100.836873">
<time>2014-08-04T19:52:47Z</time></trkpt>
<trkpt lat="25.390088" lon="100.836883">
<time>2014-08-04T19:52:48Z</time></trkpt>
<trkpt lat="25.390188" lon="100.836923">
<time>2014-08-04T19:52:49Z</time></trkpt>
<trkpt lat="25.390309" lon="100.837013">
<time>2014-08-04T19:52:50Z</time></trkpt>
<trkpt lat="25.390389" lon="100.837043">
<time>2014-08-04T19:52:51Z</time></trkpt>
<trkpt lat="25.390519" lon="100.837043">
<time>2014-08-04T19:52:52Z</time></trkpt>
<trkpt lat="25.390619" lon="100.837023">
<time>2014-08-04T19:52:53Z</time></trkpt>
<trkpt lat="25.390709" lon="100.836983">
<time>2014-08-04T19:52:54Z</time></trkpt>
<trkpt lat="25.390798" lon="100.836953">
<time>2014-08-04T19:52:55Z</time></trkpt>
<trkpt lat="25.390918" lon="100.836903">
<time>2014-08-04T19:52:56Z</time></trkpt>
<trkpt lat="25.391058" lon="100.836883">
<time>2014-08-04T19:52:57Z</time></trkpt>
<trkpt lat="25.391188" lon="100.836883">
<time>2014-08-04T19:52:58Z</time></trkpt>
<trkpt lat="25.391349" lon="100.836903">
<time>2014-08-04T19:52:59Z</time></trkpt>
<trkpt lat="25.391529" lon="100.836923">
<time>2014-08-04T19:53:00Z</time></trkpt>
<trkpt lat="25.391699" lon="100.836883">
<time>2014-08-04T19:53:01Z</time></trkpt>
<trkpt lat="25.391899" lon="100.836863">
<time>2014-08-04T19:53:02Z</time></trkpt>
<trkpt lat="25.392099" lon="100.836833">
<time>2014-08-04T19:53:03Z</time></trkpt>
<trkpt lat="25.392288" lon="100.836772">
<time>2014-08-04T19:53:04Z</time></trkpt>
<trkpt lat="25.392488" lon="100.836682">
<time>2014-08-04T19:53:05Z</time></trkpt>
<trkpt lat="25.392668" lon="100.836562">
<time>2014-08-04T19:53:06Z</time></trkpt>
<trkpt lat="25.392828" lon="100.836442">
<time>2014-08-04T19:53:07Z</time></trkpt>
<trkpt lat="25.393008" lon="100.836312">
<time>2014-08-04T19:53:08Z</time></trkpt>
<trkpt lat="25.393168" lon="100.836252">
<time>2014-08-04T19:53:09Z</time></trkpt>
<trkpt lat="25.393308" lon="100.836222">
<time>2014-08-04T19:53:10Z</time></trkpt>
<trkpt lat="25.393438" lon="100.836292">
<time>2014-08-04T19:53:11Z</time></trkpt>
<trkpt lat="25.393508" lon="100.836432">
<time>2014-08-04T19:53:12Z</time></trkpt>
<trkpt lat="25.393528" lon="100.836602">
<time>2014-08-04T19:53:13Z</time></trkpt>
<trkpt lat="25.393449" lon="100.836863">
<time>2014-08-04T19:53:14Z</time></trkpt>
<trkpt lat="25.393379" lon="100.837123">
<time>2014-08-04T19:53:15Z</time></trkpt>
<trkpt lat="25.39326" lon="100.837413">
<time>2014-08-04T19:53:16Z</time></trkpt>
<trkpt lat="25.39318" lon="100.837584">
<time>2014-08-04T19:53:17Z</time></trkpt>
<trkpt lat="25.39314" lon="100.837724">
<time>2014-08-04T19:53:18Z</time></trkpt>
<trkpt lat="25.393171" lon="100.837914">
<time>2014-08-04T19:53:19Z</time></trkpt>
<trkpt lat="25.393241" lon="100.837994">
<time>2014-08-04T19:53:20Z</time></trkpt>
<trkpt lat="25.393391" lon="100.838074">
<time>2014-08-04T19:53:21Z</time></trkpt>
<trkpt lat="25.393521" lon="100.838164">
<time>2014-08-04T19:53:22Z</time></trkpt>
<trkpt lat="25.393681" lon="100.838154">
<time>2014-08-04T19:53:23Z</time></trkpt>
<trkpt lat="25.393841" lon="100.838044">
<time>2014-08-04T19:53:24Z</time></trkpt>
<trkpt lat="25.394011" lon="100.837904">
<time>2014-08-04T19:53:25Z</time></trkpt>
<trkpt lat="25.394181" lon="100.837734">
<time>2014-08-04T19:53:26Z</time></trkpt>
<trkpt lat="25.39436" lon="100.837574">
<time>2014-08-04T19:53:27Z</time></trkpt>
<trkpt lat="25.39453" lon="100.837453">
<time>2014-08-04T19:53:28Z</time></trkpt>
<trkpt lat="25.39471" lon="100.837443">
<time>2014-08-04T19:53:29Z</time></trkpt>
<trkpt lat="25.39491" lon="100.837493">
<time>2014-08-04T19:53:30Z</time></trkpt>
<trkpt lat="25.3951" lon="100.837594">
<time>2014-08-04T19:53:31Z</time></trkpt>
<trkpt lat="25.395311" lon="100.837704">
<time>2014-08-04T19:53:32Z</time></trkpt>
<trkpt lat="25.395501" lon="100.837874">
<time>2014-08-04T19:53:33Z</time></trkpt>
<trkpt lat="25.395731" lon="100.838034">
<time>2014-08-04T19:53:34Z</time></trkpt>
<trkpt lat="25.395982" lon="100.838194">
<time>2014-08-04T19:53:35Z</time></trkpt>
<trkpt lat="25.396212" lon="100.838295">
<time>2014-08-04T19:53:36Z</time></trkpt>
<trkpt lat="25.396452" lon="100.838325">
<time>2014-08-04T19:53:37Z</time></trkpt>
<trkpt lat="25.396552" lon="100.838325">
<time>2014-08-04T19:53:38Z</time></trkpt>
<trkpt lat="25.396712" lon="100.838295">
<time>2014-08-04T19:53:39Z</time></trkpt>
<trkpt lat="25.396812" lon="100.838204">
<time>2014-08-04T19:53:40Z</time></trkpt>
<trkpt lat="25.396872" lon="100.838064">
<time>2014-08-04T19:53:41Z</time></trkpt>
<trkpt lat="25.396851" lon="100.837884">
<time>2014-08-04T19:53:42Z</time></trkpt>
<trkpt lat="25.396791" lon="100.837714">
<time>2014-08-04T19:53:43Z</time></trkpt>
<trkpt lat="25.396701" lon="100.837553">
<time>2014-08-04T19:53:44Z</time></trkpt>
<trkpt lat="25.39661" lon="100.837383">
<time>2014-08-04T19:53:45Z</time></trkpt>
<trkpt lat="25.39651" lon="100.837263">
<time>2014-08-04T19:53:46Z</time></trkpt>
<trkpt lat="25.39639" lon="100.837143">
<time>2014-08-04T19:53:47Z</time></trkpt>
<trkpt lat="25.39631" lon="100.836983">
<time>2014-08-04T19:53:48Z</time></trkpt>
<trkpt lat="25.396259" lon="100.836822">
<time>2014-08-04T19:53:49Z</time></trkpt>
<trkpt lat="25.396229" lon="100.836632">
<time>2014-08-04T19:53:50Z</time></trkpt>
<trkpt lat="25.396219" lon="100.836432">
<time>2014-08-04T19:53:51Z</time></trkpt>
<trkpt lat="25.396198" lon="100.836211">
<time>2014-08-04T19:53:52Z</time></trkpt>
<trkpt lat="25.396178" lon="100.836001">
<time>2014-08-04T19:53:53Z</time></trkpt>
<trkpt lat="25.396167" lon="100.835801">
<time>2014-08-04T19:53:54Z</time></trkpt>
<trkpt lat="25.396147" lon="100.835581">
<time>2014-08-04T19:53:55Z</time></trkpt>
<trkpt lat="25.396126" lon="100.83535">
<time>2014-08-04T19:53:56Z</time></trkpt>
<trkpt lat="25.396106" lon="100.83512">
<time>2014-08-04T19:53:57Z</time></trkpt>
<trkpt lat="25.396086" lon="100.834869">
<time>2014-08-04T19:53:58Z</time></trkpt>
<trkpt lat="25.396065" lon="100.834639">
<time>2014-08-04T19:53:59Z</time></trkpt>
<trkpt lat="25.396075" lon="100.834419">
<time>2014-08-04T19:54:00Z</time></trkpt>
<trkpt lat="25.396144" lon="100.834208">
<time>2014-08-04T19:54:01Z</time></trkpt>
<trkpt lat="25.396254" lon="100.834018">
<time>2014-08-04T19:54:02Z</time></trkpt>
<trkpt lat="25.396354" lon="100.833828">
<time>2014-08-04T19:54:03Z</time></trkpt>
<trkpt lat="25.396433" lon="100.833628">
<time>2014-08-04T19:54:04Z</time></trkpt>
<trkpt lat="25.396463" lon="100.833427">
<time>2014-08-04T19:54:05Z</time></trkpt>
<trkpt lat="25.396443" lon="100.833227">
<time>2014-08-04T19:54:06Z</time></trkpt>
<trkpt lat="25.396382" lon="100.833067">
<time>2014-08-04T19:54:07Z</time></trkpt>
<trkpt lat="25.396372" lon="100.832886">
<time>2014-08-04T19:54:08Z</time></trkpt>
<trkpt lat="25.396372" lon="100.832686">
<time>2014-08-04T19:54:09Z</time></trkpt>
<trkpt lat="25.396411" lon="100.832466">
<time>2014-08-04T19:54:10Z</time></trkpt>
<trkpt lat="25.396481" lon="100.832236">
<time>2014-08-04T19:54:11Z</time></trkpt>
<trkpt lat="25.39655" lon="100.831985">
<time>2014-08-04T19:54:12Z</time></trkpt>
<trkpt lat="25.39661" lon="100.831725">
<time>2014-08-04T19:54:13Z</time></trkpt>
<trkpt lat="25.396669" lon="100.831464">
<time>2014-08-04T19:54:14Z</time></trkpt>
<trkpt lat="25.396719" lon="100.831204">
<time>2014-08-04T19:54:15Z</time></trkpt>
<trkpt lat="25.396728" lon="100.830964">
<time>2014-08-04T19:54:16Z</time></trkpt>
<trkpt lat="25.396698" lon="100.830713">
<time>2014-08-04T19:54:17Z</time></trkpt>
<trkpt lat="25.396637" lon="100.830453">
<time>2014-08-04T19:54:18Z</time></trkpt>
<trkpt lat="25.396587" lon="100.830192">
<time>2014-08-04T19:54:19Z</time></trkpt>
<trkpt lat="25.396536" lon="100.829942">
<time>2014-08-04T19:54:20Z</time></trkpt>
<trkpt lat="25.396516" lon="100.829662">
<time>2014-08-04T19:54:21Z</time></trkpt>
<trkpt lat="25.396515" lon="100.829391">
<time>2014-08-04T19:54:22Z</time></trkpt>
<trkpt lat="25.396515" lon="100.829141">
<time>2014-08-04T19:54:23Z</time></trkpt>
<trkpt lat="25.396514" lon="100.82888">
<time>2014-08-04T19:54:24Z</time></trkpt>
<trkpt lat="25.396504" lon="100.82863">
<time>2014-08-04T19:54:25Z</time></trkpt>
<trkpt lat="25.396493" lon="100.82838">
<time>2014-08-04T19:54:26Z</time></trkpt>
<trkpt lat="25.396493" lon="100.828119">
<time>2014-08-04T19:54:27Z</time></trkpt>
<trkpt lat="25.396492" lon="100.827859">
<time>2014-08-04T19:54:28Z</time></trkpt>
<trkpt lat="25.396482" lon="100.827598">
<time>2014-08-04T19:54:29Z</time></trkpt>
<trkpt lat="25.396451" lon="100.827328">
<time>2014-08-04T19:54:30Z</time></trkpt>
<trkpt lat="25.396441" lon="100.827068">
<time>2014-08-04T19:54:31Z</time></trkpt>
<trkpt lat="25.396441" lon="100.826817">
<time>2014-08-04T19:54:32Z</time></trkpt>
<trkpt lat="25.39646" lon="100.826587">
<time>2014-08-04T19:54:33Z</time></trkpt>
<trkpt lat="25.3965" lon="100.826417">
<time>2014-08-04T19:54:34Z</time></trkpt>
<trkpt lat="25.396539" lon="100.826236">
<time>2014-08-04T19:54:35Z</time></trkpt>
<trkpt lat="25.396599" lon="100.826056">
<time>2014-08-04T19:54:36Z</time></trkpt>
<trkpt lat="25.396659" lon="100.825846">
<time>2014-08-04T19:54:37Z</time></trkpt>
<trkpt lat="25.396728" lon="100.825635">
<time>2014-08-04T19:54:38Z</time></trkpt>
<trkpt lat="25.396808" lon="100.825425">
<time>2014-08-04T19:54:39Z</time></trkpt>
<trkpt lat="25.396898" lon="100.825205">
<time>2014-08-04T19:54:40Z</time></trkpt>
<trkpt lat="25.396977" lon="100.824984">
<time>2014-08-04T19:54:41Z</time></trkpt>
<trkpt lat="25.397077" lon="100.824754">
<time>2014-08-04T19:54:42Z</time></trkpt>
<trkpt lat="25.397186" lon="100.824524">
<time>2014-08-04T19:54:43Z</time></trkpt>
<trkpt lat="25.397296" lon="100.824273">
<time>2014-08-04T19:54:44Z</time></trkpt>
<trkpt lat="25.397306" lon="100.824243">
<time>2014-08-04T19:54:45Z</time></trkpt>
<trkpt lat="25.397415" lon="100.824023">
<time>2014-08-04T19:54:46Z</time></trkpt>
<trkpt lat="25.397535" lon="100.823793">
<time>2014-08-04T19:54:47Z</time></trkpt>
<trkpt lat="25.397625" lon="100.823532">
<time>2014-08-04T19:54:48Z</time></trkpt>
<trkpt lat="25.397734" lon="100.823292">
<time>2014-08-04T19:54:49Z</time></trkpt>
<trkpt lat="25.397864" lon="100.823051">
<time>2014-08-04T19:54:50Z</time></trkpt>
<trkpt lat="25.398003" lon="100.822811">
<time>2014-08-04T19:54:51Z</time></trkpt>
<trkpt lat="25.398193" lon="100.822631">
<time>2014-08-04T19:54:52Z</time></trkpt>
<trkpt lat="25.398393" lon="100.822521">
<time>2014-08-04T19:54:53Z</time></trkpt>
<trkpt lat="25.398552" lon="100.82235">
<time>2014-08-04T19:54:54Z</time></trkpt>
<trkpt lat="25.398692" lon="100.82214">
<time>2014-08-04T19:54:55Z</time></trkpt>
<trkpt lat="25.398822" lon="100.82192">
<time>2014-08-04T19:54:56Z</time></trkpt>
<trkpt lat="25.398941" lon="100.821699">
<time>2014-08-04T19:54:57Z</time></trkpt>
<trkpt lat="25.399061" lon="100.821479">
<time>2014-08-04T19:54:58Z</time></trkpt>
<trkpt lat="25.399191" lon="100.821259">
<time>2014-08-04T19:54:59Z</time></trkpt>
<trkpt lat="25.39933" lon="100.821028">
<time>2014-08-04T19:55:00Z</time></trkpt>
<trkpt lat="25.39945" lon="100.820818">
<time>2014-08-04T19:55:01Z</time></trkpt>
<trkpt lat="25.399559" lon="100.820608">
<time>2014-08-04T19:55:02Z</time></trkpt>
<trkpt lat="25.399629" lon="100.820407">
<time>2014-08-04T19:55:03Z</time></trkpt>
<trkpt lat="25.399629" lon="100.820197">
<time>2014-08-04T19:55:04Z</time></trkpt>
<trkpt lat="25.399578" lon="100.819987">
<time>2014-08-04T19:55:05Z</time></trkpt>
<trkpt lat="25.399518" lon="100.819817">
<time>2014-08-04T19:55:06Z</time></trkpt>
<trkpt lat="25.399508" lon="100.819656">
<time>2014-08-04T19:55:07Z</time></trkpt>
<trkpt lat="25.399537" lon="100.819506">
<time>2014-08-04T19:55:08Z</time></trkpt>
<trkpt lat="25.399647" lon="100.819436">
<time>2014-08-04T19:55:09Z</time></trkpt>
<trkpt lat="25.399807" lon="100.819336">
<time>2014-08-04T19:55:10Z</time></trkpt>
<trkpt lat="25.399957" lon="100.819306">
<time>2014-08-04T19:55:11Z</time></trkpt>
<trkpt lat="25.400247" lon="100.819306">
<time>2014-08-04T19:55:12Z</time></trkpt>
<trkpt lat="25.400437" lon="100.819206">
<time>2014-08-04T19:55:13Z</time></trkpt>
<trkpt lat="25.400597" lon="100.819015">
<time>2014-08-04T19:55:14Z</time></trkpt>
<trkpt lat="25.400666" lon="100.818795">
<time>2014-08-04T19:55:15Z</time></trkpt>
<trkpt lat="25.400736" lon="100.818625">
<time>2014-08-04T19:55:16Z</time></trkpt>
<trkpt lat="25.400796" lon="100.818495">
<time>2014-08-04T19:55:17Z</time></trkpt>
<trkpt lat="25.400875" lon="100.818364">
<time>2014-08-04T19:55:18Z</time></trkpt>
<trkpt lat="25.400985" lon="100.818224">
<time>2014-08-04T19:55:19Z</time></trkpt>
<trkpt lat="25.401095" lon="100.818084">
<time>2014-08-04T19:55:20Z</time></trkpt>
<trkpt lat="25.401205" lon="100.817934">
<time>2014-08-04T19:55:21Z</time></trkpt>
<trkpt lat="25.401314" lon="100.817763">
<time>2014-08-04T19:55:22Z</time></trkpt>
<trkpt lat="25.401414" lon="100.817563">
<time>2014-08-04T19:55:23Z</time></trkpt>
<trkpt lat="25.401514" lon="100.817323">
<time>2014-08-04T19:55:24Z</time></trkpt>
<trkpt lat="25.401613" lon="100.817062">
<time>2014-08-04T19:55:25Z</time></trkpt>
<trkpt lat="25.401713" lon="100.816802">
<time>2014-08-04T19:55:26Z</time></trkpt>
<trkpt lat="25.401852" lon="100.816522">
<time>2014-08-04T19:55:27Z</time></trkpt>
<trkpt lat="25.402022" lon="100.816261">
<time>2014-08-04T19:55:28Z</time></trkpt>
<trkpt lat="25.402221" lon="100.816011">
<time>2014-08-04T19:55:29Z</time></trkpt>
<trkpt lat="25.402411" lon="100.81578">
<time>2014-08-04T19:55:30Z</time></trkpt>
<trkpt lat="25.402691" lon="100.81562">
<time>2014-08-04T19:55:31Z</time></trkpt>
<trkpt lat="25.40313" lon="100.81538">
<time>2014-08-04T19:55:32Z</time></trkpt>
<trkpt lat="25.40342" lon="100.815149">
<time>2014-08-04T19:55:33Z</time></trkpt>
<trkpt lat="25.403829" lon="100.814729">
<time>2014-08-04T19:55:34Z</time></trkpt>
<trkpt lat="25.404109" lon="100.814338">
<time>2014-08-04T19:55:35Z</time></trkpt>
<trkpt lat="25.404218" lon="100.814108">
<time>2014-08-04T19:55:36Z</time></trkpt>
<trkpt lat="25.404368" lon="100.813898">
<time>2014-08-04T19:55:37Z</time></trkpt>
<trkpt lat="25.404518" lon="100.813697">
<time>2014-08-04T19:55:38Z</time></trkpt>
<trkpt lat="25.404657" lon="100.813537">
<time>2014-08-04T19:55:39Z</time></trkpt>
<trkpt lat="25.404767" lon="100.813347">
<time>2014-08-04T19:55:40Z</time></trkpt>
<trkpt lat="25.404847" lon="100.813157">
<time>2014-08-04T19:55:41Z</time></trkpt>
<trkpt lat="25.404886" lon="100.812926">
<time>2014-08-04T19:55:42Z</time></trkpt>
<trkpt lat="25.404936" lon="100.812686">
<time>2014-08-04T19:55:43Z</time></trkpt>
<trkpt lat="25.405015" lon="100.812486">
<time>2014-08-04T19:55:44Z</time></trkpt>
<trkpt lat="25.405165" lon="100.812355">
<time>2014-08-04T19:55:45Z</time></trkpt>
<trkpt lat="25.405355" lon="100.812305">
<time>2014-08-04T19:55:46Z</time></trkpt>
<trkpt lat="25.405555" lon="100.812305">
<time>2014-08-04T19:55:47Z</time></trkpt>
<trkpt lat="25.405755" lon="100.812295">
<time>2014-08-04T19:55:48Z</time></trkpt>
<trkpt lat="25.405925" lon="100.812235">
<time>2014-08-04T19:55:49Z</time></trkpt>
<trkpt lat="25.406065" lon="100.812145">
<time>2014-08-04T19:55:50Z</time></trkpt>
<trkpt lat="25.406205" lon="100.811985">
<time>2014-08-04T19:55:51Z</time></trkpt>
<trkpt lat="25.406295" lon="100.811825">
<time>2014-08-04T19:55:52Z</time></trkpt>
<trkpt lat="25.406374" lon="100.811624">
<time>2014-08-04T19:55:53Z</time></trkpt>
<trkpt lat="25.406424" lon="100.811394">
<time>2014-08-04T19:55:54Z</time></trkpt>
<trkpt lat="25.406463" lon="100.811134">
<time>2014-08-04T19:55:55Z</time></trkpt>
<trkpt lat="25.406533" lon="100.810903">
<time>2014-08-04T19:55:56Z</time></trkpt>
<trkpt lat="25.406613" lon="100.810693">
<time>2014-08-04T19:55:57Z</time></trkpt>
<trkpt lat="25.406712" lon="100.810493">
<time>2014-08-04T19:55:58Z</time></trkpt>
<trkpt lat="25.406922" lon="100.810312">
<time>2014-08-04T19:55:59Z</time></trkpt>
<trkpt lat="25.407182" lon="100.810212">
<time>2014-08-04T19:56:00Z</time></trkpt>
<trkpt lat="25.407452" lon="100.810082">
<time>2014-08-04T19:56:01Z</time></trkpt>
<trkpt lat="25.407681" lon="100.809922">
<time>2014-08-04T19:56:02Z</time></trkpt>
<trkpt lat="25.407921" lon="100.809782">
<time>2014-08-04T19:56:03Z</time></trkpt>
<trkpt lat="25.408161" lon="100.809601">
<time>2014-08-04T19:56:04Z</time></trkpt>
<trkpt lat="25.408411" lon="100.809451">
<time>2014-08-04T19:56:05Z</time></trkpt>
<trkpt lat="25.40867" lon="100.809251">
<time>2014-08-04T19:56:06Z</time></trkpt>
<trkpt lat="25.40885" lon="100.809101">
<time>2014-08-04T19:56:07Z</time></trkpt>
<trkpt lat="25.4091" lon="100.80893">
<time>2014-08-04T19:56:08Z</time></trkpt>
<trkpt lat="25.40936" lon="100.80875">
<time>2014-08-04T19:56:09Z</time></trkpt>
<trkpt lat="25.409559" lon="100.80855">
<time>2014-08-04T19:56:10Z</time></trkpt>
<trkpt lat="25.409769" lon="100.80838">
<time>2014-08-04T19:56:11Z</time></trkpt>
<trkpt lat="25.409959" lon="100.808189">
<time>2014-08-04T19:56:12Z</time></trkpt>
<trkpt lat="25.410109" lon="100.808029">
<time>2014-08-04T19:56:13Z</time></trkpt>
<trkpt lat="25.410218" lon="100.807829">
<time>2014-08-04T19:56:14Z</time></trkpt>
<trkpt lat="25.410338" lon="100.807609">
<time>2014-08-04T19:56:15Z</time></trkpt>
<trkpt lat="25.410437" lon="100.807318">
<time>2014-08-04T19:56:16Z</time></trkpt>
<trkpt lat="25.410557" lon="100.806978">
<time>2014-08-04T19:56:17Z</time></trkpt>
<trkpt lat="25.410676" lon="100.806677">
<time>2014-08-04T19:56:18Z</time></trkpt>
<trkpt lat="25.410736" lon="100.806427">
<time>2014-08-04T19:56:19Z</time></trkpt>
<trkpt lat="25.410805" lon="100.806177">
<time>2014-08-04T19:56:20Z</time></trkpt>
<trkpt lat="25.410875" lon="100.805916">
<time>2014-08-04T19:56:21Z</time></trkpt>
<trkpt lat="25.410945" lon="100.805656">
<time>2014-08-04T19:56:22Z</time></trkpt>
<trkpt lat="25.410994" lon="100.805426">
<time>2014-08-04T19:56:23Z</time></trkpt>
<trkpt lat="25.411054" lon="100.805245">
<time>2014-08-04T19:56:24Z</time></trkpt>
<trkpt lat="25.411084" lon="100.805085">
<time>2014-08-04T19:56:25Z</time></trkpt>
<trkpt lat="25.411143" lon="100.804825">
<time>2014-08-04T19:56:26Z</time></trkpt>
<trkpt lat="25.411253" lon="100.804504">
<time>2014-08-04T19:56:27Z</time></trkpt>
<trkpt lat="25.411382" lon="100.804244">
<time>2014-08-04T19:56:28Z</time></trkpt>
<trkpt lat="25.411562" lon="100.804114">
<time>2014-08-04T19:56:29Z</time></trkpt>
<trkpt lat="25.411742" lon="100.804064">
<time>2014-08-04T19:56:30Z</time></trkpt>
<trkpt lat="25.411932" lon="100.804084">
<time>2014-08-04T19:56:31Z</time></trkpt>
<trkpt lat="25.412162" lon="100.804084">
<time>2014-08-04T19:56:32Z</time></trkpt>
<trkpt lat="25.412372" lon="100.804124">
<time>2014-08-04T19:56:33Z</time></trkpt>
<trkpt lat="25.412633" lon="100.804224">
<time>2014-08-04T19:56:34Z</time></trkpt>
<trkpt lat="25.412833" lon="100.804294">
<time>2014-08-04T19:56:35Z</time></trkpt>
<trkpt lat="25.413073" lon="100.804304">
<time>2014-08-04T19:56:36Z</time></trkpt>
<trkpt lat="25.413353" lon="100.804294">
<time>2014-08-04T19:56:37Z</time></trkpt>
<trkpt lat="25.413623" lon="100.804254">
<time>2014-08-04T19:56:38Z</time></trkpt>
<trkpt lat="25.413903" lon="100.804204">
<time>2014-08-04T19:56:39Z</time></trkpt>
<trkpt lat="25.414163" lon="100.804124">
<time>2014-08-04T19:56:40Z</time></trkpt>
<trkpt lat="25.414413" lon="100.804014">
<time>2014-08-04T19:56:41Z</time></trkpt>
<trkpt lat="25.414642" lon="100.803893">
<time>2014-08-04T19:56:42Z</time></trkpt>
<trkpt lat="25.414882" lon="100.803803">
<time>2014-08-04T19:56:43Z</time></trkpt>
<trkpt lat="25.415072" lon="100.803703">
<time>2014-08-04T19:56:44Z</time></trkpt>
<trkpt lat="25.415212" lon="100.803563">
<time>2014-08-04T19:56:45Z</time></trkpt>
<trkpt lat="25.415292" lon="100.803383">
<time>2014-08-04T19:56:46Z</time></trkpt>
<trkpt lat="25.415331" lon="100.803162">
<time>2014-08-04T19:56:47Z</time></trkpt>
<trkpt lat="25.415361" lon="100.802972">
<time>2014-08-04T19:56:48Z</time></trkpt>
<trkpt lat="25.415371" lon="100.802742">
<time>2014-08-04T19:56:49Z</time></trkpt>
<trkpt lat="25.41539" lon="100.802502">
<time>2014-08-04T19:56:50Z</time></trkpt>
<trkpt lat="25.4154" lon="100.802341">
<time>2014-08-04T19:56:51Z</time></trkpt>
<trkpt lat="25.41542" lon="100.802151">
<time>2014-08-04T19:56:52Z</time></trkpt>
<trkpt lat="25.415439" lon="100.801971">
<time>2014-08-04T19:56:53Z</time></trkpt>
<trkpt lat="25.415469" lon="100.801751">
<time>2014-08-04T19:56:54Z</time></trkpt>
<trkpt lat="25.415519" lon="100.80149">
<time>2014-08-04T19:56:55Z</time></trkpt>
<trkpt lat="25.415568" lon="100.80124">
<time>2014-08-04T19:56:56Z</time></trkpt>
<trkpt lat="25.415628" lon="100.801">
<time>2014-08-04T19:56:57Z</time></trkpt>
<trkpt lat="25.415677" lon="100.800789">
<time>2014-08-04T19:56:58Z</time></trkpt>
<trkpt lat="25.415727" lon="100.800579">
<time>2014-08-04T19:56:59Z</time></trkpt>
<trkpt lat="25.415777" lon="100.800359">
<time>2014-08-04T19:57:00Z</time></trkpt>
<trkpt lat="25.415836" lon="100.800149">
<time>2014-08-04T19:57:01Z</time></trkpt>
<trkpt lat="25.415906" lon="100.799938">
<time>2014-08-04T19:57:02Z</time></trkpt>
<trkpt lat="25.415986" lon="100.799758">
<time>2014-08-04T19:57:03Z</time></trkpt>
<trkpt lat="25.416116" lon="100.799608">
<time>2014-08-04T19:57:04Z</time></trkpt>
<trkpt lat="25.416286" lon="100.799518">
<time>2014-08-04T19:57:05Z</time></trkpt>
<trkpt lat="25.416505" lon="100.799478">
<time>2014-08-04T19:57:06Z</time></trkpt>
<trkpt lat="25.416685" lon="100.799448">
<time>2014-08-04T19:57:07Z</time></trkpt>
<trkpt lat="25.416735" lon="100.799438">
<time>2014-08-04T19:57:08Z</time></trkpt>
<trkpt lat="25.416975" lon="100.799418">
<time>2014-08-04T19:57:09Z</time></trkpt>
<trkpt lat="25.417226" lon="100.799448">
<time>2014-08-04T19:57:10Z</time></trkpt>
<trkpt lat="25.417466" lon="100.799538">
<time>2014-08-04T19:57:11Z</time></trkpt>
<trkpt lat="25.417696" lon="100.799638">
<time>2014-08-04T19:57:12Z</time></trkpt>
<trkpt lat="25.417916" lon="100.799768">
<time>2014-08-04T19:57:13Z</time></trkpt>
<trkpt lat="25.418126" lon="100.799878">
<time>2014-08-04T19:57:14Z</time></trkpt>
<trkpt lat="25.418347" lon="100.799988">
<time>2014-08-04T19:57:15Z</time></trkpt>
<trkpt lat="25.418567" lon="100.800088">
<time>2014-08-04T19:57:16Z</time></trkpt>
<trkpt lat="25.418797" lon="100.800199">
<time>2014-08-04T19:57:17Z</time></trkpt>
<trkpt lat="25.419017" lon="100.800299">
<time>2014-08-04T19:57:18Z</time></trkpt>
<trkpt lat="25.419248" lon="100.800399">
<time>2014-08-04T19:57:19Z</time></trkpt>
<trkpt lat="25.419468" lon="100.800499">
<time>2014-08-04T19:57:20Z</time></trkpt>
<trkpt lat="25.419708" lon="100.800629">
<time>2014-08-04T19:57:21Z</time></trkpt>
<trkpt lat="25.419928" lon="100.800699">
<time>2014-08-04T19:57:22Z</time></trkpt>
<trkpt lat="25.420128" lon="100.800719">
<time>2014-08-04T19:57:23Z</time></trkpt>
<trkpt lat="25.420308" lon="100.800659">
<time>2014-08-04T19:57:24Z</time></trkpt>
<trkpt lat="25.420478" lon="100.800559">
<time>2014-08-04T19:57:25Z</time></trkpt>
<trkpt lat="25.420648" lon="100.800419">
<time>2014-08-04T19:57:26Z</time></trkpt>
<trkpt lat="25.420838" lon="100.800279">
<time>2014-08-04T19:57:27Z</time></trkpt>
<trkpt lat="25.421058" lon="100.800178">
<time>2014-08-04T19:57:28Z</time></trkpt>
<trkpt lat="25.421298" lon="100.800108">
<time>2014-08-04T19:57:29Z</time></trkpt>
<trkpt lat="25.421547" lon="100.800018">
<time>2014-08-04T19:57:30Z</time></trkpt>
<trkpt lat="25.421797" lon="100.799948">
<time>2014-08-04T19:57:31Z</time></trkpt>
<trkpt lat="25.422047" lon="100.799858">
<time>2014-08-04T19:57:32Z</time></trkpt>
<trkpt lat="25.422237" lon="100.799768">
<time>2014-08-04T19:57:33Z</time></trkpt>
<trkpt lat="25.422527" lon="100.799618">
<time>2014-08-04T19:57:34Z</time></trkpt>
<trkpt lat="25.422747" lon="100.799438">
<time>2014-08-04T19:57:35Z</time></trkpt>
<trkpt lat="25.422957" lon="100.799297">
<time>2014-08-04T19:57:36Z</time></trkpt>
<trkpt lat="25.423226" lon="100.799097">
<time>2014-08-04T19:57:37Z</time></trkpt>
<trkpt lat="25.423426" lon="100.798907">
<time>2014-08-04T19:57:38Z</time></trkpt>
<trkpt lat="25.423616" lon="100.798717">
<time>2014-08-04T19:57:39Z</time></trkpt>
<trkpt lat="25.423816" lon="100.798536">
<time>2014-08-04T19:57:40Z</time></trkpt>
<trkpt lat="25.423995" lon="100.798366">
<time>2014-08-04T19:57:41Z</time></trkpt>
<trkpt lat="25.424165" lon="100.798196">
<time>2014-08-04T19:57:42Z</time></trkpt>
<trkpt lat="25.424335" lon="100.798036">
<time>2014-08-04T19:57:43Z</time></trkpt>
<trkpt lat="25.424505" lon="100.797876">
<time>2014-08-04T19:57:44Z</time></trkpt>
<trkpt lat="25.424674" lon="100.797735">
<time>2014-08-04T19:57:45Z</time></trkpt>
<trkpt lat="25.424844" lon="100.797585">
<time>2014-08-04T19:57:46Z</time></trkpt>
<trkpt lat="25.425004" lon="100.797425">
<time>2014-08-04T19:57:47Z</time></trkpt>
<trkpt lat="25.425154" lon="100.797275">
<time>2014-08-04T19:57:48Z</time></trkpt>
<trkpt lat="25.425164" lon="100.797265">
<time>2014-08-04T19:57:49Z</time></trkpt>
<trkpt lat="25.425324" lon="100.797115">
<time>2014-08-04T19:57:50Z</time></trkpt>
<trkpt lat="25.425493" lon="100.796964">
<time>2014-08-04T19:57:51Z</time></trkpt>
<trkpt lat="25.425653" lon="100.796814">
<time>2014-08-04T19:57:52Z</time></trkpt>
<trkpt lat="25.425823" lon="100.796654">
<time>2014-08-04T19:57:53Z</time></trkpt>
<trkpt lat="25.426003" lon="100.796494">
<time>2014-08-04T19:57:54Z</time></trkpt>
<trkpt lat="25.426173" lon="100.796324">
<time>2014-08-04T19:57:55Z</time></trkpt>
<trkpt lat="25.426362" lon="100.796154">
<time>2014-08-04T19:57:56Z</time></trkpt>
<trkpt lat="25.426542" lon="100.795983">
<time>2014-08-04T19:57:57Z</time></trkpt>
<trkpt lat="25.426722" lon="100.795823">
<time>2014-08-04T19:57:58Z</time></trkpt>
<trkpt lat="25.426882" lon="100.795663">
<time>2014-08-04T19:57:59Z</time></trkpt>
<trkpt lat="25.426962" lon="100.795593">
<time>2014-08-04T19:58:00Z</time></trkpt>
<trkpt lat="25.427042" lon="100.795513">
<time>2014-08-04T19:58:01Z</time></trkpt>
<trkpt lat="25.427211" lon="100.795373">
<time>2014-08-04T19:58:02Z</time></trkpt>
<trkpt lat="25.427361" lon="100.795232">
<time>2014-08-04T19:58:03Z</time></trkpt>
<trkpt lat="25.427521" lon="100.795082">
<time>2014-08-04T19:58:04Z</time></trkpt>
<trkpt lat="25.427661" lon="100.794912">
<time>2014-08-04T19:58:05Z</time></trkpt>
<trkpt lat="25.427821" lon="100.794752">
<time>2014-08-04T19:58:06Z</time></trkpt>
<trkpt lat="25.42796" lon="100.794592">
<time>2014-08-04T19:58:07Z</time></trkpt>
<trkpt lat="25.42809" lon="100.794442">
<time>2014-08-04T19:58:08Z</time></trkpt>
<trkpt lat="25.42821" lon="100.794281">
<time>2014-08-04T19:58:09Z</time></trkpt>
<trkpt lat="25.42824" lon="100.794241">
<time>2014-08-04T19:58:10Z</time></trkpt>
<trkpt lat="25.42828" lon="100.794211">
<time>2014-08-04T19:58:11Z</time></trkpt>
<trkpt lat="25.42833" lon="100.794181">
<time>2014-08-04T19:58:12Z</time></trkpt>
<trkpt lat="25.42838" lon="100.794151">
<time>2014-08-04T19:58:13Z</time></trkpt>
<trkpt lat="25.42843" lon="100.794131">
<time>2014-08-04T19:58:14Z</time></trkpt>
<trkpt lat="25.42848" lon="100.794101">
<time>2014-08-04T19:58:15Z</time></trkpt>
<trkpt lat="25.42853" lon="100.794061">
<time>2014-08-04T19:58:16Z</time></trkpt>
<trkpt lat="25.42858" lon="100.794001">
<time>2014-08-04T19:58:17Z</time></trkpt>
<trkpt lat="25.42863" lon="100.793921">
<time>2014-08-04T19:58:18Z</time></trkpt>
<trkpt lat="25.428669" lon="100.793811">
<time>2014-08-04T19:58:19Z</time></trkpt>
<trkpt lat="25.428719" lon="100.793641">
<time>2014-08-04T19:58:20Z</time></trkpt>
<trkpt lat="25.428759" lon="100.79345">
<time>2014-08-04T19:58:21Z</time></trkpt>
<trkpt lat="25.428789" lon="100.79326">
<time>2014-08-04T19:58:22Z</time></trkpt>
<trkpt lat="25.428818" lon="100.79305">
<time>2014-08-04T19:58:23Z</time></trkpt>
<trkpt lat="25.428848" lon="100.79285">
<time>2014-08-04T19:58:24Z</time></trkpt>
<trkpt lat="25.428878" lon="100.79265">
<time>2014-08-04T19:58:25Z</time></trkpt>
<trkpt lat="25.428917" lon="100.792439">
<time>2014-08-04T19:58:26Z</time></trkpt>
<trkpt lat="25.428957" lon="100.792229">
<time>2014-08-04T19:58:27Z</time></trkpt>
<trkpt lat="25.428997" lon="100.792019">
<time>2014-08-04T19:58:28Z</time></trkpt>
<trkpt lat="25.429026" lon="100.791739">
<time>2014-08-04T19:58:29Z</time></trkpt>
<trkpt lat="25.429056" lon="100.791448">
<time>2014-08-04T19:58:30Z</time></trkpt>
<trkpt lat="25.429106" lon="100.791208">
<time>2014-08-04T19:58:31Z</time></trkpt>
<trkpt lat="25.429125" lon="100.790988">
<time>2014-08-04T19:58:32Z</time></trkpt>
<trkpt lat="25.429155" lon="100.790818">
<time>2014-08-04T19:58:33Z</time></trkpt>
<trkpt lat="25.429185" lon="100.790627">
<time>2014-08-04T19:58:34Z</time></trkpt>
<trkpt lat="25.429215" lon="100.790487">
<time>2014-08-04T19:58:35Z</time></trkpt>
<trkpt lat="25.429235" lon="100.790387">
<time>2014-08-04T19:58:36Z</time></trkpt>
<trkpt lat="25.429254" lon="100.790277">
<time>2014-08-04T19:58:37Z</time></trkpt>
<trkpt lat="25.429274" lon="100.790117">
<time>2014-08-04T19:58:38Z</time></trkpt>
<trkpt lat="25.429304" lon="100.789947">
<time>2014-08-04T19:58:39Z</time></trkpt>
<trkpt lat="25.429334" lon="100.789767">
<time>2014-08-04T19:58:40Z</time></trkpt>
<trkpt lat="25.429343" lon="100.789566">
<time>2014-08-04T19:58:41Z</time></trkpt>
<trkpt lat="25.429373" lon="100.789356">
<time>2014-08-04T19:58:42Z</time></trkpt>
<trkpt lat="25.429423" lon="100.789136">
<time>2014-08-04T19:58:43Z</time></trkpt>
<trkpt lat="25.429463" lon="100.788936">
<time>2014-08-04T19:58:44Z</time></trkpt>
<trkpt lat="25.429492" lon="100.788726">
<time>2014-08-04T19:58:45Z</time></trkpt>
<trkpt lat="25.429532" lon="100.788505">
<time>2014-08-04T19:58:46Z</time></trkpt>
<trkpt lat="25.429562" lon="100.788315">
<time>2014-08-04T19:58:47Z</time></trkpt>
<trkpt lat="25.429572" lon="100.788225">
<time>2014-08-04T19:58:48Z</time></trkpt>
<trkpt lat="25.429572" lon="100.788115">
<time>2014-08-04T19:58:49Z</time></trkpt>
<trkpt lat="25.429571" lon="100.787985">
<time>2014-08-04T19:58:50Z</time></trkpt>
<trkpt lat="25.429561" lon="100.787885">
<time>2014-08-04T19:58:51Z</time></trkpt>
<trkpt lat="25.429551" lon="100.787805">
<time>2014-08-04T19:58:52Z</time></trkpt>
<trkpt lat="25.429521" lon="100.787675">
<time>2014-08-04T19:58:53Z</time></trkpt>
<trkpt lat="25.42938" lon="100.787274">
<time>2014-08-04T19:58:54Z</time></trkpt>
<trkpt lat="25.42923" lon="100.786964">
<time>2014-08-04T19:58:55Z</time></trkpt>
<trkpt lat="25.42923" lon="100.786964">
<time>2014-08-04T19:58:56Z</time></trkpt>
<trkpt lat="25.42975" lon="100.786644">
<time>2014-08-04T19:58:57Z</time></trkpt>
<trkpt lat="25.429869" lon="100.786483">
<time>2014-08-04T19:58:58Z</time></trkpt>
<trkpt lat="25.429919" lon="100.786203">
<time>2014-08-04T19:58:59Z</time></trkpt>
<trkpt lat="25.429919" lon="100.785743">
<time>2014-08-04T19:59:00Z</time></trkpt>
<trkpt lat="25.429898" lon="100.785353">
<time>2014-08-04T19:59:01Z</time></trkpt>
<trkpt lat="25.429908" lon="100.785292">
<time>2014-08-04T19:59:02Z</time></trkpt>
<trkpt lat="25.429908" lon="100.785292">
<time>2014-08-04T19:59:03Z</time></trkpt>
<trkpt lat="25.429797" lon="100.784482">
<time>2014-08-04T19:59:04Z</time></trkpt>
<trkpt lat="25.429906" lon="100.783671">
<time>2014-08-04T19:59:05Z</time></trkpt>
<trkpt lat="25.429856" lon="100.783331">
<time>2014-08-04T19:59:06Z</time></trkpt>
<trkpt lat="25.429875" lon="100.78282">
<time>2014-08-04T19:59:07Z</time></trkpt>
<trkpt lat="25.429855" lon="100.78265">
<time>2014-08-04T19:59:08Z</time></trkpt>
<trkpt lat="25.429795" lon="100.78254">
<time>2014-08-04T19:59:09Z</time></trkpt>
<trkpt lat="25.429294" lon="100.78183">
<time>2014-08-04T19:59:10Z</time></trkpt>
<trkpt lat="25.429273" lon="100.78167">
<time>2014-08-04T19:59:11Z</time></trkpt>
<trkpt lat="25.429293" lon="100.781449">
<time>2014-08-04T19:59:12Z</time></trkpt>
<trkpt lat="25.429482" lon="100.779968">
<time>2014-08-04T19:59:13Z</time></trkpt>
<trkpt lat="25.429461" lon="100.779098">
<time>2014-08-04T19:59:14Z</time></trkpt>
<trkpt lat="25.429461" lon="100.779098">
<time>2014-08-04T19:59:15Z</time></trkpt>
<trkpt lat="25.429541" lon="100.779088">
<time>2014-08-04T19:59:16Z</time></trkpt>
<trkpt lat="25.429681" lon="100.779018">
<time>2014-08-04T19:59:17Z</time></trkpt>
<trkpt lat="25.429741" lon="100.778978">
<time>2014-08-04T19:59:18Z</time></trkpt>
<trkpt lat="25.42994" lon="100.778808">
<time>2014-08-04T19:59:19Z</time></trkpt>
<trkpt lat="25.43033" lon="100.778437">
<time>2014-08-04T19:59:20Z</time></trkpt>
<trkpt lat="25.43068" lon="100.778097">
<time>2014-08-04T19:59:21Z</time></trkpt>
<trkpt lat="25.43101" lon="100.777797">
<time>2014-08-04T19:59:22Z</time></trkpt>
<trkpt lat="25.431369" lon="100.777447">
<time>2014-08-04T19:59:23Z</time></trkpt>
<trkpt lat="25.431649" lon="100.777197">
<time>2014-08-04T19:59:24Z</time></trkpt>
<trkpt lat="25.431929" lon="100.776936">
<time>2014-08-04T19:59:25Z</time></trkpt>
<trkpt lat="25.432289" lon="100.776586">
<time>2014-08-04T19:59:26Z</time></trkpt>
<trkpt lat="25.432678" lon="100.776216">
<time>2014-08-04T19:59:27Z</time></trkpt>
<trkpt lat="25.432998" lon="100.775916">
<time>2014-08-04T19:59:28Z</time></trkpt>
<trkpt lat="25.433298" lon="100.775626">
<time>2014-08-04T19:59:29Z</time></trkpt>
<trkpt lat="25.433578" lon="100.775365">
<time>2014-08-04T19:59:30Z</time></trkpt>
<trkpt lat="25.433828" lon="100.775135">
<time>2014-08-04T19:59:31Z</time></trkpt>
<trkpt lat="25.433898" lon="100.775065">
<time>2014-08-04T19:59:32Z</time></trkpt>
<trkpt lat="25.434027" lon="100.774945">
<time>2014-08-04T19:59:33Z</time></trkpt>
<trkpt lat="25.434167" lon="100.774815">
<time>2014-08-04T19:59:34Z</time></trkpt>
<trkpt lat="25.434427" lon="100.774545">
<time>2014-08-04T19:59:35Z</time></trkpt>
<trkpt lat="25.434727" lon="100.774285">
<time>2014-08-04T19:59:36Z</time></trkpt>
<trkpt lat="25.434997" lon="100.773995">
<time>2014-08-04T19:59:37Z</time></trkpt>
<trkpt lat="25.435207" lon="100.773825">
<time>2014-08-04T19:59:38Z</time></trkpt>
<trkpt lat="25.435537" lon="100.773514">
<time>2014-08-04T19:59:39Z</time></trkpt>
<trkpt lat="25.435916" lon="100.773154">
<time>2014-08-04T19:59:40Z</time></trkpt>
<trkpt lat="25.436236" lon="100.772844">
<time>2014-08-04T19:59:41Z</time></trkpt>
<trkpt lat="25.436596" lon="100.772504">
<time>2014-08-04T19:59:42Z</time></trkpt>
<trkpt lat="25.436836" lon="100.772274">
<time>2014-08-04T19:59:43Z</time></trkpt>
<trkpt lat="25.437076" lon="100.772074">
<time>2014-08-04T19:59:44Z</time></trkpt>
<trkpt lat="25.437306" lon="100.771834">
<time>2014-08-04T19:59:45Z</time></trkpt>
<trkpt lat="25.437525" lon="100.771624">
<time>2014-08-04T19:59:46Z</time></trkpt>
<trkpt lat="25.437905" lon="100.771273">
<time>2014-08-04T19:59:47Z</time></trkpt>
<trkpt lat="25.438295" lon="100.770913">
<time>2014-08-04T19:59:48Z</time></trkpt>
<trkpt lat="25.438655" lon="100.770573">
<time>2014-08-04T19:59:49Z</time></trkpt>
<trkpt lat="25.439025" lon="100.770213">
<time>2014-08-04T19:59:50Z</time></trkpt>
<trkpt lat="25.439374" lon="100.769883">
<time>2014-08-04T19:59:51Z</time></trkpt>
<trkpt lat="25.439594" lon="100.769693">
<time>2014-08-04T19:59:52Z</time></trkpt>
<trkpt lat="25.439994" lon="100.769283">
<time>2014-08-04T19:59:53Z</time></trkpt>
<trkpt lat="25.440344" lon="100.768973">
<time>2014-08-04T19:59:54Z</time></trkpt>
<trkpt lat="25.440684" lon="100.768673">
<time>2014-08-04T19:59:55Z</time></trkpt>
<trkpt lat="25.441034" lon="100.768322">
<time>2014-08-04T19:59:56Z</time></trkpt>
<trkpt lat="25.441394" lon="100.767992">
<time>2014-08-04T19:59:57Z</time></trkpt>
<trkpt lat="25.441743" lon="100.767652">
<time>2014-08-04T19:59:58Z</time></trkpt>
<trkpt lat="25.442063" lon="100.767342">
<time>2014-08-04T19:59:59Z</time></trkpt>
<trkpt lat="25.442443" lon="100.766992">
<time>2014-08-04T20:00:00Z</time></trkpt>
<trkpt lat="25.442773" lon="100.766672">
<time>2014-08-04T20:00:01Z</time></trkpt>
<trkpt lat="25.443113" lon="100.766362">
<time>2014-08-04T20:00:02Z</time></trkpt>
<trkpt lat="25.443473" lon="100.766022">
<time>2014-08-04T20:00:03Z</time></trkpt>
<trkpt lat="25.443833" lon="100.765682">
<time>2014-08-04T20:00:04Z</time></trkpt>
<trkpt lat="25.444073" lon="100.765472">
<time>2014-08-04T20:00:05Z</time></trkpt>
<trkpt lat="25.444422" lon="100.765122">
<time>2014-08-04T20:00:06Z</time></trkpt>
<trkpt lat="25.444712" lon="100.764832">
<time>2014-08-04T20:00:07Z</time></trkpt>
<trkpt lat="25.445052" lon="100.764542">
<time>2014-08-04T20:00:08Z</time></trkpt>
<trkpt lat="25.445382" lon="100.764222">
<time>2014-08-04T20:00:09Z</time></trkpt>
<trkpt lat="25.445692" lon="100.763922">
<time>2014-08-04T20:00:10Z</time></trkpt>
<trkpt lat="25.445912" lon="100.763732">
<time>2014-08-04T20:00:11Z</time></trkpt>
<trkpt lat="25.445952" lon="100.763682">
<time>2014-08-04T20:00:12Z</time></trkpt>
<trkpt lat="25.446082" lon="100.763541">
<time>2014-08-04T20:00:13Z</time></trkpt>
<trkpt lat="25.446292" lon="100.763331">
<time>2014-08-04T20:00:14Z</time></trkpt>
<trkpt lat="25.446562" lon="100.763081">
<time>2014-08-04T20:00:15Z</time></trkpt>
<trkpt lat="25.446872" lon="100.762791">
<time>2014-08-04T20:00:16Z</time></trkpt>
<trkpt lat="25.447212" lon="100.762461">
<time>2014-08-04T20:00:17Z</time></trkpt>
<trkpt lat="25.447522" lon="100.762181">
<time>2014-08-04T20:00:18Z</time></trkpt>
<trkpt lat="25.447871" lon="100.761831">
<time>2014-08-04T20:00:19Z</time></trkpt>
<trkpt lat="25.448081" lon="100.761621">
<time>2014-08-04T20:00:20Z</time></trkpt>
<trkpt lat="25.448141" lon="100.761581">
<time>2014-08-04T20:00:21Z</time></trkpt>
<trkpt lat="25.448141" lon="100.761581">
<time>2014-08-04T20:00:22Z</time></trkpt>
<trkpt lat="25.448101" lon="100.761551">
<time>2014-08-04T20:00:23Z</time></trkpt>
<trkpt lat="25.447941" lon="100.761301">
<time>2014-08-04T20:00:24Z</time></trkpt>
<trkpt lat="25.447731" lon="100.760981">
<time>2014-08-04T20:00:25Z</time></trkpt>
<trkpt lat="25.447541" lon="100.760721">
<time>2014-08-04T20:00:26Z</time></trkpt>
<trkpt lat="25.447371" lon="100.760481">
<time>2014-08-04T20:00:27Z</time></trkpt>
<trkpt lat="25.44705" lon="100.760001">
<time>2014-08-04T20:00:28Z</time></trkpt>
<trkpt lat="25.44681" lon="100.759681">
<time>2014-08-04T20:00:29Z</time></trkpt>
<trkpt lat="25.44651" lon="100.759252">
<time>2014-08-04T20:00:30Z</time></trkpt>
<trkpt lat="25.4463" lon="100.758922">
<time>2014-08-04T20:00:31Z</time></trkpt>
<trkpt lat="25.44602" lon="100.758502">
<time>2014-08-04T20:00:32Z</time></trkpt>
<trkpt lat="25.445849" lon="100.758292">
<time>2014-08-04T20:00:33Z</time></trkpt>
<trkpt lat="25.445779" lon="100.758162">
<time>2014-08-04T20:00:34Z</time></trkpt>
<trkpt lat="25.445479" lon="100.757702">
<time>2014-08-04T20:00:35Z</time></trkpt>
<trkpt lat="25.445319" lon="100.757482">
<time>2014-08-04T20:00:36Z</time></trkpt>
<trkpt lat="25.445059" lon="100.757092">
<time>2014-08-04T20:00:37Z</time></trkpt>
<trkpt lat="25.444759" lon="100.756662">
<time>2014-08-04T20:00:38Z</time></trkpt>
<trkpt lat="25.444458" lon="100.756212">
<time>2014-08-04T20:00:39Z</time></trkpt>
<trkpt lat="25.444378" lon="100.756092">
<time>2014-08-04T20:00:40Z</time></trkpt>
<trkpt lat="25.444298" lon="100.756002">
<time>2014-08-04T20:00:41Z</time></trkpt>
<trkpt lat="25.444228" lon="100.755882">
<time>2014-08-04T20:00:42Z</time></trkpt>
<trkpt lat="25.443858" lon="100.755392">
<time>2014-08-04T20:00:43Z</time></trkpt>
<trkpt lat="25.443688" lon="100.755112">
<time>2014-08-04T20:00:44Z</time></trkpt>
<trkpt lat="25.443448" lon="100.754732">
<time>2014-08-04T20:00:45Z</time></trkpt>
<trkpt lat="25.443188" lon="100.754383">
<time>2014-08-04T20:00:46Z</time></trkpt>
<trkpt lat="25.443118" lon="100.754293">
<time>2014-08-04T20:00:47Z</time></trkpt>
<trkpt lat="25.443048" lon="100.754193">
<time>2014-08-04T20:00:48Z</time></trkpt>
<trkpt lat="25.442748" lon="100.753813">
<time>2014-08-04T20:00:49Z</time></trkpt>
<trkpt lat="25.442407" lon="100.753353">
<time>2014-08-04T20:00:50Z</time></trkpt>
<trkpt lat="25.442097" lon="100.752903">
<time>2014-08-04T20:00:51Z</time></trkpt>
<trkpt lat="25.441787" lon="100.752453">
<time>2014-08-04T20:00:52Z</time></trkpt>
<trkpt lat="25.441667" lon="100.752273">
<time>2014-08-04T20:00:53Z</time></trkpt>
<trkpt lat="25.441477" lon="100.751973">
<time>2014-08-04T20:00:54Z</time></trkpt>
<trkpt lat="25.441437" lon="100.751923">
<time>2014-08-04T20:00:55Z</time></trkpt>
<trkpt lat="25.441117" lon="100.751504">
<time>2014-08-04T20:00:56Z</time></trkpt>
<trkpt lat="25.440777" lon="100.751054">
<time>2014-08-04T20:00:57Z</time></trkpt>
<trkpt lat="25.440537" lon="100.750764">
<time>2014-08-04T20:00:58Z</time></trkpt>
<trkpt lat="25.440317" lon="100.750474">
<time>2014-08-04T20:00:59Z</time></trkpt>
<trkpt lat="25.440006" lon="100.750064">
<time>2014-08-04T20:01:00Z</time></trkpt>
<trkpt lat="25.439976" lon="100.750024">
<time>2014-08-04T20:01:01Z</time></trkpt>
<trkpt lat="25.439926" lon="100.749964">
<time>2014-08-04T20:01:02Z</time></trkpt>
<trkpt lat="25.439596" lon="100.749554">
<time>2014-08-04T20:01:03Z</time></trkpt>
<trkpt lat="25.439306" lon="100.749175">
<time>2014-08-04T20:01:04Z</time></trkpt>
<trkpt lat="25.439016" lon="100.748805">
<time>2014-08-04T20:01:05Z</time></trkpt>
<trkpt lat="25.438696" lon="100.748395">
<time>2014-08-04T20:01:06Z</time></trkpt>
<trkpt lat="25.438326" lon="100.747895">
<time>2014-08-04T20:01:07Z</time></trkpt>
<trkpt lat="25.438016" lon="100.747516">
<time>2014-08-04T20:01:08Z</time></trkpt>
<trkpt lat="25.438026" lon="100.747456">
<time>2014-08-04T20:01:09Z</time></trkpt>
<trkpt lat="25.438156" lon="100.747346">
<time>2014-08-04T20:01:10Z</time></trkpt>
<trkpt lat="25.438206" lon="100.747276">
<time>2014-08-04T20:01:11Z</time></trkpt>
<trkpt lat="25.438216" lon="100.747186">
<time>2014-08-04T20:01:12Z</time></trkpt>
<trkpt lat="25.438176" lon="100.746696">
<time>2014-08-04T20:01:13Z</time></trkpt>
<trkpt lat="25.438126" lon="100.746606">
<time>2014-08-04T20:01:14Z</time></trkpt>
<trkpt lat="25.438046" lon="100.746546">
<time>2014-08-04T20:01:15Z</time></trkpt>
<trkpt lat="25.437856" lon="100.746436">
<time>2014-08-04T20:01:16Z</time></trkpt>
<trkpt lat="25.437606" lon="100.746276">
<time>2014-08-04T20:01:17Z</time></trkpt>
<trkpt lat="25.437426" lon="100.745997">
<time>2014-08-04T20:01:18Z</time></trkpt>
<trkpt lat="25.437306" lon="100.745757">
<time>2014-08-04T20:01:19Z</time></trkpt>
<trkpt lat="25.437266" lon="100.745677">
<time>2014-08-04T20:01:20Z</time></trkpt>
<trkpt lat="25.437226" lon="100.745587">
<time>2014-08-04T20:01:21Z</time></trkpt>
<trkpt lat="25.437156" lon="100.745437">
<time>2014-08-04T20:01:22Z</time></trkpt>
<trkpt lat="25.437176" lon="100.745367">
<time>2014-08-04T20:01:23Z</time></trkpt>
<trkpt lat="25.437466" lon="100.745067">
<time>2014-08-04T20:01:24Z</time></trkpt>
<trkpt lat="25.437756" lon="100.744877">
<time>2014-08-04T20:01:25Z</time></trkpt>
<trkpt lat="25.438146" lon="100.744577">
<time>2014-08-04T20:01:26Z</time></trkpt>
<trkpt lat="25.438296" lon="100.744438">
<time>2014-08-04T20:01:27Z</time></trkpt>
<trkpt lat="25.438326" lon="100.744378">
<time>2014-08-04T20:01:28Z</time></trkpt>
<trkpt lat="25.438336" lon="100.744348">
<time>2014-08-04T20:01:29Z</time></trkpt>
<trkpt lat="25.438316" lon="100.744288">
<time>2014-08-04T20:01:30Z</time></trkpt>
<trkpt lat="25.438256" lon="100.744238">
<time>2014-08-04T20:01:31Z</time></trkpt>
<trkpt lat="25.438096" lon="100.744138">
<time>2014-08-04T20:01:32Z</time></trkpt>
<trkpt lat="25.437716" lon="100.743888">
<time>2014-08-04T20:01:33Z</time></trkpt>
<trkpt lat="25.437306" lon="100.743618">
<time>2014-08-04T20:01:34Z</time></trkpt>
<trkpt lat="25.436916" lon="100.743348">
<time>2014-08-04T20:01:35Z</time></trkpt>
<trkpt lat="25.436476" lon="100.743069">
<time>2014-08-04T20:01:36Z</time></trkpt>
<trkpt lat="25.436406" lon="100.743009">
<time>2014-08-04T20:01:37Z</time></trkpt>
<trkpt lat="25.436396" lon="100.742989">
<time>2014-08-04T20:01:38Z</time></trkpt>
<trkpt lat="25.436376" lon="100.742939">
<time>2014-08-04T20:01:39Z</time></trkpt>
<trkpt lat="25.436376" lon="100.742839">
<time>2014-08-04T20:01:40Z</time></trkpt>
<trkpt lat="25.436336" lon="100.742299">
<time>2014-08-04T20:01:41Z</time></trkpt>
<trkpt lat="25.436307" lon="100.74183">
<time>2014-08-04T20:01:42Z</time></trkpt>
<trkpt lat="25.436287" lon="100.74137">
<time>2014-08-04T20:01:43Z</time></trkpt>
<trkpt lat="25.436247" lon="100.74082">
<time>2014-08-04T20:01:44Z</time></trkpt>
<trkpt lat="25.436217" lon="100.740321">
<time>2014-08-04T20:01:45Z</time></trkpt>
<trkpt lat="25.436187" lon="100.739761">
<time>2014-08-04T20:01:46Z</time></trkpt>
<trkpt lat="25.436207" lon="100.739372">
<time>2014-08-04T20:01:47Z</time></trkpt>
<trkpt lat="25.436217" lon="100.738892">
<time>2014-08-04T20:01:48Z</time></trkpt>
<trkpt lat="25.436248" lon="100.738363">
<time>2014-08-04T20:01:49Z</time></trkpt>
<trkpt lat="25.436328" lon="100.737893">
<time>2014-08-04T20:01:50Z</time></trkpt>
<trkpt lat="25.436408" lon="100.737314">
<time>2014-08-04T20:01:51Z</time></trkpt>
<trkpt lat="25.436488" lon="100.736844">
<time>2014-08-04T20:01:52Z</time></trkpt>
<trkpt lat="25.436538" lon="100.736784">
<time>2014-08-04T20:01:53Z</time></trkpt>
<trkpt lat="25.436668" lon="100.736724">
<time>2014-08-04T20:01:54Z</time></trkpt>
<trkpt lat="25.436949" lon="100.736534">
<time>2014-08-04T20:01:55Z</time></trkpt>
<trkpt lat="25.437409" lon="100.736135">
<time>2014-08-04T20:01:56Z</time></trkpt>
<trkpt lat="25.437489" lon="100.736085">
<time>2014-08-04T20:01:57Z</time></trkpt>
<trkpt lat="25.437989" lon="100.735895">
<time>2014-08-04T20:01:58Z</time></trkpt>
<trkpt lat="25.438039" lon="100.735835">
<time>2014-08-04T20:01:59Z</time></trkpt>
<trkpt lat="25.438159" lon="100.735605">
<time>2014-08-04T20:02:00Z</time></trkpt>
<trkpt lat="25.43837" lon="100.735236">
<time>2014-08-04T20:02:01Z</time></trkpt>
<trkpt lat="25.43854" lon="100.734926">
<time>2014-08-04T20:02:02Z</time></trkpt>
<trkpt lat="25.43877" lon="100.734387">
<time>2014-08-04T20:02:03Z</time></trkpt>
<trkpt lat="25.43883" lon="100.734167">
<time>2014-08-04T20:02:04Z</time></trkpt>
<trkpt lat="25.43881" lon="100.734087">
<time>2014-08-04T20:02:05Z</time></trkpt>
<trkpt lat="25.43877" lon="100.733967">
<time>2014-08-04T20:02:06Z</time></trkpt>
<trkpt lat="25.43867" lon="100.733797">
<time>2014-08-04T20:02:07Z</time></trkpt>
<trkpt lat="25.438521" lon="100.733548">
<time>2014-08-04T20:02:08Z</time></trkpt>
<trkpt lat="25.438301" lon="100.733268">
<time>2014-08-04T20:02:09Z</time></trkpt>
<trkpt lat="25.438121" lon="100.733008">
<time>2014-08-04T20:02:10Z</time></trkpt>
<trkpt lat="25.437911" lon="100.732768">
<time>2014-08-04T20:02:11Z</time></trkpt>
<trkpt lat="25.437701" lon="100.732529">
<time>2014-08-04T20:02:12Z</time></trkpt>
<trkpt lat="25.437361" lon="100.732189">
<time>2014-08-04T20:02:13Z</time></trkpt>
<trkpt lat="25.437121" lon="100.731929">
<time>2014-08-04T20:02:14Z</time></trkpt>
<trkpt lat="25.437061" lon="100.73182">
<time>2014-08-04T20:02:15Z</time></trkpt>
<trkpt lat="25.437041" lon="100.73175">
<time>2014-08-04T20:02:16Z</time></trkpt>
<trkpt lat="25.436972" lon="100.73133">
<time>2014-08-04T20:02:17Z</time></trkpt>
<trkpt lat="25.436922" lon="100.730871">
<time>2014-08-04T20:02:18Z</time></trkpt>
<trkpt lat="25.436932" lon="100.730781">
<time>2014-08-04T20:02:19Z</time></trkpt>
<trkpt lat="25.437002" lon="100.730481">
<time>2014-08-04T20:02:20Z</time></trkpt>
<trkpt lat="25.437032" lon="100.730321">
<time>2014-08-04T20:02:21Z</time></trkpt>
<trkpt lat="25.437062" lon="100.730142">
<time>2014-08-04T20:02:22Z</time></trkpt>
<trkpt lat="25.437143" lon="100.729662">
<time>2014-08-04T20:02:23Z</time></trkpt>
<trkpt lat="25.437153" lon="100.729542">
<time>2014-08-04T20:02:24Z</time></trkpt>
<trkpt lat="25.437113" lon="100.729093">
<time>2014-08-04T20:02:25Z</time></trkpt>
<trkpt lat="25.437113" lon="100.728813">
<time>2014-08-04T20:02:26Z</time></trkpt>
<trkpt lat="25.437114" lon="100.728394">
<time>2014-08-04T20:02:27Z</time></trkpt>
<trkpt lat="25.437094" lon="100.728124">
<time>2014-08-04T20:02:28Z</time></trkpt>
<trkpt lat="25.437064" lon="100.727595">
<time>2014-08-04T20:02:29Z</time></trkpt>
<trkpt lat="25.437015" lon="100.727076">
<time>2014-08-04T20:02:30Z</time></trkpt>
<trkpt lat="25.437005" lon="100.726816">
<time>2014-08-04T20:02:31Z</time></trkpt>
<trkpt lat="25.436955" lon="100.726307">
<time>2014-08-04T20:02:32Z</time></trkpt>
<trkpt lat="25.436936" lon="100.725698">
<time>2014-08-04T20:02:33Z</time></trkpt>
<trkpt lat="25.436936" lon="100.725448">
<time>2014-08-04T20:02:34Z</time></trkpt>
<trkpt lat="25.436877" lon="100.724819">
<time>2014-08-04T20:02:35Z</time></trkpt>
<trkpt lat="25.436847" lon="100.7242">
<time>2014-08-04T20:02:36Z</time></trkpt>
<trkpt lat="25.436828" lon="100.723691">
<time>2014-08-04T20:02:37Z</time></trkpt>
<trkpt lat="25.436818" lon="100.723551">
<time>2014-08-04T20:02:38Z</time></trkpt>
<trkpt lat="25.436748" lon="100.723301">
<time>2014-08-04T20:02:39Z</time></trkpt>
<trkpt lat="25.436728" lon="100.723131">
<time>2014-08-04T20:02:40Z</time></trkpt>
<trkpt lat="25.436728" lon="100.723131">
<time>2014-08-04T20:02:41Z</time></trkpt>
<trkpt lat="25.436278" lon="100.722782">
<time>2014-08-04T20:02:42Z</time></trkpt>
<trkpt lat="25.435988" lon="100.722562">
<time>2014-08-04T20:02:43Z</time></trkpt>
<trkpt lat="25.435609" lon="100.722303">
<time>2014-08-04T20:02:44Z</time></trkpt>
<trkpt lat="25.435549" lon="100.722263">
<time>2014-08-04T20:02:45Z</time></trkpt>
<trkpt lat="25.435269" lon="100.722043">
<time>2014-08-04T20:02:46Z</time></trkpt>
<trkpt lat="25.434809" lon="100.721724">
<time>2014-08-04T20:02:47Z</time></trkpt>
<trkpt lat="25.434369" lon="100.721404">
<time>2014-08-04T20:02:48Z</time></trkpt>
<trkpt lat="25.434079" lon="100.721205">
<time>2014-08-04T20:02:49Z</time></trkpt>
<trkpt lat="25.43367" lon="100.720855">
<time>2014-08-04T20:02:50Z</time></trkpt>
<trkpt lat="25.43342" lon="100.720556">
<time>2014-08-04T20:02:51Z</time></trkpt>
<trkpt lat="25.43311" lon="100.720176">
<time>2014-08-04T20:02:52Z</time></trkpt>
<trkpt lat="25.43296" lon="100.719987">
<time>2014-08-04T20:02:53Z</time></trkpt>
<trkpt lat="25.432641" lon="100.719557">
<time>2014-08-04T20:02:54Z</time></trkpt>
<trkpt lat="25.432421" lon="100.719268">
<time>2014-08-04T20:02:55Z</time></trkpt>
<trkpt lat="25.432081" lon="100.718818">
<time>2014-08-04T20:02:56Z</time></trkpt>
<trkpt lat="25.431722" lon="100.718379">
<time>2014-08-04T20:02:57Z</time></trkpt>
<trkpt lat="25.431372" lon="100.71792">
<time>2014-08-04T20:02:58Z</time></trkpt>
<trkpt lat="25.431033" lon="100.717481">
<time>2014-08-04T20:02:59Z</time></trkpt>
<trkpt lat="25.430693" lon="100.717052">
<time>2014-08-04T20:03:00Z</time></trkpt>
<trkpt lat="25.430583" lon="100.716942">
<time>2014-08-04T20:03:01Z</time></trkpt>
<trkpt lat="25.430583" lon="100.716942">
<time>2014-08-04T20:03:02Z</time></trkpt>
<trkpt lat="25.430593" lon="100.716932">
<time>2014-08-04T20:03:03Z</time></trkpt>
<trkpt lat="25.430643" lon="100.716832">
<time>2014-08-04T20:03:04Z</time></trkpt>
<trkpt lat="25.430693" lon="100.716702">
<time>2014-08-04T20:03:05Z</time></trkpt>
<trkpt lat="25.430764" lon="100.716572">
<time>2014-08-04T20:03:06Z</time></trkpt>
<trkpt lat="25.430844" lon="100.716413">
<time>2014-08-04T20:03:07Z</time></trkpt>
<trkpt lat="25.430914" lon="100.716253">
<time>2014-08-04T20:03:08Z</time></trkpt>
<trkpt lat="25.431004" lon="100.716093">
<time>2014-08-04T20:03:09Z</time></trkpt>
<trkpt lat="25.431104" lon="100.715924">
<time>2014-08-04T20:03:10Z</time></trkpt>
<trkpt lat="25.431195" lon="100.715734">
<time>2014-08-04T20:03:11Z</time></trkpt>
<trkpt lat="25.431305" lon="100.715544">
<time>2014-08-04T20:03:12Z</time></trkpt>
<trkpt lat="25.431415" lon="100.715374">
<time>2014-08-04T20:03:13Z</time></trkpt>
<trkpt lat="25.431505" lon="100.715175">
<time>2014-08-04T20:03:14Z</time></trkpt>
<trkpt lat="25.431606" lon="100.714985">
<time>2014-08-04T20:03:15Z</time></trkpt>
<trkpt lat="25.431686" lon="100.714815">
<time>2014-08-04T20:03:16Z</time></trkpt>
<trkpt lat="25.431766" lon="100.714646">
<time>2014-08-04T20:03:17Z</time></trkpt>
<trkpt lat="25.431846" lon="100.714496">
<time>2014-08-04T20:03:18Z</time></trkpt>
<trkpt lat="25.431917" lon="100.714366">
<time>2014-08-04T20:03:19Z</time></trkpt>
<trkpt lat="25.431977" lon="100.714247">
<time>2014-08-04T20:03:20Z</time></trkpt>
<trkpt lat="25.432017" lon="100.714137">
<time>2014-08-04T20:03:21Z</time></trkpt>
<trkpt lat="25.432087" lon="100.714017">
<time>2014-08-04T20:03:22Z</time></trkpt>
<trkpt lat="25.432147" lon="100.713897">
<time>2014-08-04T20:03:23Z</time></trkpt>
<trkpt lat="25.432217" lon="100.713767">
<time>2014-08-04T20:03:24Z</time></trkpt>
<trkpt lat="25.432277" lon="100.713678">
<time>2014-08-04T20:03:25Z</time></trkpt>
<trkpt lat="25.432328" lon="100.713598">
<time>2014-08-04T20:03:26Z</time></trkpt>
<trkpt lat="25.432378" lon="100.713498">
<time>2014-08-04T20:03:27Z</time></trkpt>
<trkpt lat="25.432428" lon="100.713408">
<time>2014-08-04T20:03:28Z</time></trkpt>
<trkpt lat="25.432488" lon="100.713268">
<time>2014-08-04T20:03:29Z</time></trkpt>
<trkpt lat="25.432528" lon="100.713149">
<time>2014-08-04T20:03:30Z</time></trkpt>
<trkpt lat="25.432558" lon="100.713029">
<time>2014-08-04T20:03:31Z</time></trkpt>
<trkpt lat="25.432589" lon="100.712889">
<time>2014-08-04T20:03:32Z</time></trkpt>
<trkpt lat="25.432589" lon="100.712759">
<time>2014-08-04T20:03:33Z</time></trkpt>
<trkpt lat="25.432609" lon="100.71259">
<time>2014-08-04T20:03:34Z</time></trkpt>
<trkpt lat="25.432629" lon="100.7124">
<time>2014-08-04T20:03:35Z</time></trkpt>
<trkpt lat="25.432639" lon="100.71222">
<time>2014-08-04T20:03:36Z</time></trkpt>
<trkpt lat="25.43266" lon="100.712021">
<time>2014-08-04T20:03:37Z</time></trkpt>
<trkpt lat="25.43267" lon="100.711881">
<time>2014-08-04T20:03:38Z</time></trkpt>
<trkpt lat="25.43268" lon="100.711711">
<time>2014-08-04T20:03:39Z</time></trkpt>
<trkpt lat="25.43268" lon="100.711522">
<time>2014-08-04T20:03:40Z</time></trkpt>
<trkpt lat="25.432631" lon="100.711322">
<time>2014-08-04T20:03:41Z</time></trkpt>
<trkpt lat="25.432571" lon="100.711142">
<time>2014-08-04T20:03:42Z</time></trkpt>
<trkpt lat="25.432491" lon="100.710983">
<time>2014-08-04T20:03:43Z</time></trkpt>
<trkpt lat="25.432371" lon="100.710783">
<time>2014-08-04T20:03:44Z</time></trkpt>
<trkpt lat="25.432291" lon="100.710663">
<time>2014-08-04T20:03:45Z</time></trkpt>
<trkpt lat="25.432231" lon="100.710553">
<time>2014-08-04T20:03:46Z</time></trkpt>
<trkpt lat="25.432162" lon="100.710424">
<time>2014-08-04T20:03:47Z</time></trkpt>
<trkpt lat="25.432082" lon="100.710284">
<time>2014-08-04T20:03:48Z</time></trkpt>
<trkpt lat="25.431992" lon="100.710134">
<time>2014-08-04T20:03:49Z</time></trkpt>
<trkpt lat="25.431882" lon="100.709965">
<time>2014-08-04T20:03:50Z</time></trkpt>
<trkpt lat="25.431772" lon="100.709805">
<time>2014-08-04T20:03:51Z</time></trkpt>
<trkpt lat="25.431713" lon="100.709655">
<time>2014-08-04T20:03:52Z</time></trkpt>
<trkpt lat="25.431683" lon="100.709585">
<time>2014-08-04T20:03:53Z</time></trkpt>
<trkpt lat="25.431663" lon="100.709486">
<time>2014-08-04T20:03:54Z</time></trkpt>
<trkpt lat="25.431663" lon="100.709406">
<time>2014-08-04T20:03:55Z</time></trkpt>
<trkpt lat="25.431683" lon="100.709276">
<time>2014-08-04T20:03:56Z</time></trkpt>
<trkpt lat="25.431743" lon="100.709096">
<time>2014-08-04T20:03:57Z</time></trkpt>
<trkpt lat="25.431814" lon="100.708917">
<time>2014-08-04T20:03:58Z</time></trkpt>
<trkpt lat="25.431884" lon="100.708727">
<time>2014-08-04T20:03:59Z</time></trkpt>
<trkpt lat="25.431964" lon="100.708537">
<time>2014-08-04T20:04:00Z</time></trkpt>
<trkpt lat="25.432054" lon="100.708328">
<time>2014-08-04T20:04:01Z</time></trkpt>
<trkpt lat="25.432135" lon="100.708118">
<time>2014-08-04T20:04:02Z</time></trkpt>
<trkpt lat="25.432225" lon="100.707929">
<time>2014-08-04T20:04:03Z</time></trkpt>
<trkpt lat="25.432335" lon="100.707759">
<time>2014-08-04T20:04:04Z</time></trkpt>
<trkpt lat="25.432456" lon="100.707599">
<time>2014-08-04T20:04:05Z</time></trkpt>
<trkpt lat="25.432576" lon="100.70746">
<time>2014-08-04T20:04:06Z</time></trkpt>
<trkpt lat="25.432716" lon="100.7073">
<time>2014-08-04T20:04:07Z</time></trkpt>
<trkpt lat="25.432846" lon="100.70714">
<time>2014-08-04T20:04:08Z</time></trkpt>
<trkpt lat="25.432987" lon="100.706981">
<time>2014-08-04T20:04:09Z</time></trkpt>
<trkpt lat="25.433127" lon="100.706801">
<time>2014-08-04T20:04:10Z</time></trkpt>
<trkpt lat="25.433287" lon="100.706631">
<time>2014-08-04T20:04:11Z</time></trkpt>
<trkpt lat="25.433427" lon="100.706462">
<time>2014-08-04T20:04:12Z</time></trkpt>
<trkpt lat="25.433508" lon="100.706372">
<time>2014-08-04T20:04:13Z</time></trkpt>
<trkpt lat="25.433528" lon="100.706342">
<time>2014-08-04T20:04:14Z</time></trkpt>
<trkpt lat="25.433598" lon="100.706242">
<time>2014-08-04T20:04:15Z</time></trkpt>
<trkpt lat="25.433658" lon="100.706132">
<time>2014-08-04T20:04:16Z</time></trkpt>
<trkpt lat="25.433718" lon="100.706003">
<time>2014-08-04T20:04:17Z</time></trkpt>
<trkpt lat="25.433778" lon="100.705853">
<time>2014-08-04T20:04:18Z</time></trkpt>
<trkpt lat="25.433829" lon="100.705713">
<time>2014-08-04T20:04:19Z</time></trkpt>
<trkpt lat="25.433879" lon="100.705564">
<time>2014-08-04T20:04:20Z</time></trkpt>
<trkpt lat="25.433929" lon="100.705394">
<time>2014-08-04T20:04:21Z</time></trkpt>
<trkpt lat="25.433979" lon="100.705234">
<time>2014-08-04T20:04:22Z</time></trkpt>
<trkpt lat="25.43403" lon="100.705065">
<time>2014-08-04T20:04:23Z</time></trkpt>
<trkpt lat="25.43407" lon="100.704875">
<time>2014-08-04T20:04:24Z</time></trkpt>
<trkpt lat="25.43412" lon="100.704665">
<time>2014-08-04T20:04:25Z</time></trkpt>
<trkpt lat="25.434181" lon="100.704446">
<time>2014-08-04T20:04:26Z</time></trkpt>
<trkpt lat="25.434241" lon="100.704206">
<time>2014-08-04T20:04:27Z</time></trkpt>
<trkpt lat="25.434281" lon="100.703957">
<time>2014-08-04T20:04:28Z</time></trkpt>
<trkpt lat="25.434291" lon="100.703807">
<time>2014-08-04T20:04:29Z</time></trkpt>
<trkpt lat="25.434262" lon="100.703667">
<time>2014-08-04T20:04:30Z</time></trkpt>
<trkpt lat="25.434192" lon="100.703488">
<time>2014-08-04T20:04:31Z</time></trkpt>
<trkpt lat="25.434062" lon="100.703298">
<time>2014-08-04T20:04:32Z</time></trkpt>
<trkpt lat="25.433912" lon="100.703099">
<time>2014-08-04T20:04:33Z</time></trkpt>
<trkpt lat="25.433743" lon="100.702899">
<time>2014-08-04T20:04:34Z</time></trkpt>
<trkpt lat="25.433593" lon="100.70269">
<time>2014-08-04T20:04:35Z</time></trkpt>
<trkpt lat="25.433403" lon="100.70248">
<time>2014-08-04T20:04:36Z</time></trkpt>
<trkpt lat="25.433234" lon="100.702261">
<time>2014-08-04T20:04:37Z</time></trkpt>
<trkpt lat="25.433044" lon="100.702021">
<time>2014-08-04T20:04:38Z</time></trkpt>
<trkpt lat="25.432854" lon="100.701742">
<time>2014-08-04T20:04:39Z</time></trkpt>
<trkpt lat="25.432655" lon="100.701492">
<time>2014-08-04T20:04:40Z</time></trkpt>
<trkpt lat="25.432475" lon="100.701223">
<time>2014-08-04T20:04:41Z</time></trkpt>
<trkpt lat="25.432255" lon="100.700923">
<time>2014-08-04T20:04:42Z</time></trkpt>
<trkpt lat="25.432046" lon="100.700664">
<time>2014-08-04T20:04:43Z</time></trkpt>
<trkpt lat="25.431856" lon="100.700425">
<time>2014-08-04T20:04:44Z</time></trkpt>
<trkpt lat="25.431676" lon="100.700195">
<time>2014-08-04T20:04:45Z</time></trkpt>
<trkpt lat="25.431517" lon="100.699986">
<time>2014-08-04T20:04:46Z</time></trkpt>
<trkpt lat="25.431377" lon="100.699796">
<time>2014-08-04T20:04:47Z</time></trkpt>
<trkpt lat="25.431247" lon="100.699626">
<time>2014-08-04T20:04:48Z</time></trkpt>
<trkpt lat="25.431138" lon="100.699467">
<time>2014-08-04T20:04:49Z</time></trkpt>
<trkpt lat="25.430998" lon="100.699307">
<time>2014-08-04T20:04:50Z</time></trkpt>
<trkpt lat="25.430858" lon="100.699137">
<time>2014-08-04T20:04:51Z</time></trkpt>
<trkpt lat="25.430708" lon="100.698948">
<time>2014-08-04T20:04:52Z</time></trkpt>
<trkpt lat="25.430559" lon="100.698758">
<time>2014-08-04T20:04:53Z</time></trkpt>
<trkpt lat="25.430399" lon="100.698549">
<time>2014-08-04T20:04:54Z</time></trkpt>
<trkpt lat="25.430239" lon="100.698359">
<time>2014-08-04T20:04:55Z</time></trkpt>
<trkpt lat="25.430079" lon="100.69816">
<time>2014-08-04T20:04:56Z</time></trkpt>
<trkpt lat="25.42991" lon="100.69794">
<time>2014-08-04T20:04:57Z</time></trkpt>
<trkpt lat="25.42974" lon="100.697741">
<time>2014-08-04T20:04:58Z</time></trkpt>
<trkpt lat="25.42956" lon="100.697521">
<time>2014-08-04T20:04:59Z</time></trkpt>
<trkpt lat="25.429401" lon="100.697322">
<time>2014-08-04T20:05:00Z</time></trkpt>
<trkpt lat="25.429241" lon="100.697122">
<time>2014-08-04T20:05:01Z</time></trkpt>
<trkpt lat="25.429091" lon="100.696943">
<time>2014-08-04T20:05:02Z</time></trkpt>
<trkpt lat="25.428912" lon="100.696683">
<time>2014-08-04T20:05:03Z</time></trkpt>
<trkpt lat="25.428752" lon="100.696484">
<time>2014-08-04T20:05:04Z</time></trkpt>
<trkpt lat="25.428602" lon="100.696294">
<time>2014-08-04T20:05:05Z</time></trkpt>
<trkpt lat="25.428462" lon="100.696094">
<time>2014-08-04T20:05:06Z</time></trkpt>
<trkpt lat="25.428333" lon="100.695935">
<time>2014-08-04T20:05:07Z</time></trkpt>
<trkpt lat="25.428183" lon="100.695735">
<time>2014-08-04T20:05:08Z</time></trkpt>
<trkpt lat="25.428053" lon="100.695576">
<time>2014-08-04T20:05:09Z</time></trkpt>
<trkpt lat="25.427923" lon="100.695416">
<time>2014-08-04T20:05:10Z</time></trkpt>
<trkpt lat="25.427854" lon="100.695286">
<time>2014-08-04T20:05:11Z</time></trkpt>
<trkpt lat="25.427744" lon="100.695147">
<time>2014-08-04T20:05:12Z</time></trkpt>
<trkpt lat="25.427624" lon="100.694997">
<time>2014-08-04T20:05:13Z</time></trkpt>
<trkpt lat="25.427494" lon="100.694837">
<time>2014-08-04T20:05:14Z</time></trkpt>
<trkpt lat="25.427365" lon="100.694668">
<time>2014-08-04T20:05:15Z</time></trkpt>
<trkpt lat="25.427225" lon="100.694478">
<time>2014-08-04T20:05:16Z</time></trkpt>
<trkpt lat="25.427075" lon="100.694289">
<time>2014-08-04T20:05:17Z</time></trkpt>
<trkpt lat="25.426925" lon="100.694119">
<time>2014-08-04T20:05:18Z</time></trkpt>
<trkpt lat="25.426766" lon="100.69393">
<time>2014-08-04T20:05:19Z</time></trkpt>
<trkpt lat="25.426646" lon="100.69377">
<time>2014-08-04T20:05:20Z</time></trkpt>
<trkpt lat="25.426506" lon="100.69359">
<time>2014-08-04T20:05:21Z</time></trkpt>
<trkpt lat="25.426386" lon="100.693471">
<time>2014-08-04T20:05:22Z</time></trkpt>
<trkpt lat="25.426277" lon="100.693331">
<time>2014-08-04T20:05:23Z</time></trkpt>
<trkpt lat="25.426167" lon="100.693181">
<time>2014-08-04T20:05:24Z</time></trkpt>
<trkpt lat="25.426037" lon="100.693022">
<time>2014-08-04T20:05:25Z</time></trkpt>
<trkpt lat="25.425927" lon="100.692852">
<time>2014-08-04T20:05:26Z</time></trkpt>
<trkpt lat="25.425828" lon="100.692722">
<time>2014-08-04T20:05:27Z</time></trkpt>
<trkpt lat="25.425768" lon="100.692603">
<time>2014-08-04T20:05:28Z</time></trkpt>
<trkpt lat="25.425728" lon="100.692433">
<time>2014-08-04T20:05:29Z</time></trkpt>
<trkpt lat="25.425698" lon="100.692234">
<time>2014-08-04T20:05:30Z</time></trkpt>
<trkpt lat="25.425689" lon="100.691984">
<time>2014-08-04T20:05:31Z</time></trkpt>
<trkpt lat="25.425689" lon="100.691775">
<time>2014-08-04T20:05:32Z</time></trkpt>
<trkpt lat="25.42572" lon="100.691555">
<time>2014-08-04T20:05:33Z</time></trkpt>
<trkpt lat="25.42576" lon="100.691396">
<time>2014-08-04T20:05:34Z</time></trkpt>
<trkpt lat="25.42585" lon="100.691226">
<time>2014-08-04T20:05:35Z</time></trkpt>
<trkpt lat="25.425951" lon="100.691026">
<time>2014-08-04T20:05:36Z</time></trkpt>
<trkpt lat="25.426021" lon="100.690847">
<time>2014-08-04T20:05:37Z</time></trkpt>
<trkpt lat="25.426091" lon="100.690727">
<time>2014-08-04T20:05:38Z</time></trkpt>
<trkpt lat="25.426171" lon="100.690558">
<time>2014-08-04T20:05:39Z</time></trkpt>
<trkpt lat="25.426242" lon="100.690398">
<time>2014-08-04T20:05:40Z</time></trkpt>
<trkpt lat="25.426312" lon="100.690258">
<time>2014-08-04T20:05:41Z</time></trkpt>
<trkpt lat="25.426362" lon="100.690109">
<time>2014-08-04T20:05:42Z</time></trkpt>
<trkpt lat="25.426413" lon="100.689969">
<time>2014-08-04T20:05:43Z</time></trkpt>
<trkpt lat="25.426463" lon="100.689839">
<time>2014-08-04T20:05:44Z</time></trkpt>
<trkpt lat="25.426543" lon="100.68968">
<time>2014-08-04T20:05:45Z</time></trkpt>
<trkpt lat="25.426603" lon="100.68951">
<time>2014-08-04T20:05:46Z</time></trkpt>
<trkpt lat="25.426684" lon="100.689261">
<time>2014-08-04T20:05:47Z</time></trkpt>
<trkpt lat="25.426734" lon="100.689021">
<time>2014-08-04T20:05:48Z</time></trkpt>
<trkpt lat="25.426745" lon="100.688882">
<time>2014-08-04T20:05:49Z</time></trkpt>
<trkpt lat="25.426765" lon="100.688732">
<time>2014-08-04T20:05:50Z</time></trkpt>
<trkpt lat="25.426785" lon="100.688572">
<time>2014-08-04T20:05:51Z</time></trkpt>
<trkpt lat="25.426785" lon="100.688443">
<time>2014-08-04T20:05:52Z</time></trkpt>
<trkpt lat="25.426806" lon="100.688323">
<time>2014-08-04T20:05:53Z</time></trkpt>
<trkpt lat="25.426816" lon="100.688123">
<time>2014-08-04T20:05:54Z</time></trkpt>
<trkpt lat="25.426816" lon="100.688034">
<time>2014-08-04T20:05:55Z</time></trkpt>
<trkpt lat="25.426826" lon="100.687964">
<time>2014-08-04T20:05:56Z</time></trkpt>
<trkpt lat="25.426847" lon="100.687774">
<time>2014-08-04T20:05:57Z</time></trkpt>
<trkpt lat="25.426867" lon="100.687655">
<time>2014-08-04T20:05:58Z</time></trkpt>
<trkpt lat="25.426877" lon="100.687535">
<time>2014-08-04T20:05:59Z</time></trkpt>
<trkpt lat="25.426877" lon="100.687405">
<time>2014-08-04T20:06:00Z</time></trkpt>
<trkpt lat="25.426867" lon="100.687266">
<time>2014-08-04T20:06:01Z</time></trkpt>
<trkpt lat="25.426878" lon="100.687136">
<time>2014-08-04T20:06:02Z</time></trkpt>
<trkpt lat="25.426878" lon="100.687016">
<time>2014-08-04T20:06:03Z</time></trkpt>
<trkpt lat="25.426888" lon="100.686886">
<time>2014-08-04T20:06:04Z</time></trkpt>
<trkpt lat="25.426888" lon="100.686757">
<time>2014-08-04T20:06:05Z</time></trkpt>
<trkpt lat="25.426889" lon="100.686607">
<time>2014-08-04T20:06:06Z</time></trkpt>
<trkpt lat="25.426909" lon="100.686448">
<time>2014-08-04T20:06:07Z</time></trkpt>
<trkpt lat="25.426919" lon="100.686278">
<time>2014-08-04T20:06:08Z</time></trkpt>
<trkpt lat="25.42693" lon="100.686108">
<time>2014-08-04T20:06:09Z</time></trkpt>
<trkpt lat="25.42693" lon="100.685929">
<time>2014-08-04T20:06:10Z</time></trkpt>
<trkpt lat="25.42694" lon="100.685749">
<time>2014-08-04T20:06:11Z</time></trkpt>
<trkpt lat="25.426941" lon="100.68557">
<time>2014-08-04T20:06:12Z</time></trkpt>
<trkpt lat="25.426951" lon="100.68541">
<time>2014-08-04T20:06:13Z</time></trkpt>
<trkpt lat="25.426941" lon="100.68526">
<time>2014-08-04T20:06:14Z</time></trkpt>
<trkpt lat="25.426951" lon="100.685111">
<time>2014-08-04T20:06:15Z</time></trkpt>
<trkpt lat="25.426982" lon="100.684961">
<time>2014-08-04T20:06:16Z</time></trkpt>
<trkpt lat="25.426992" lon="100.684792">
<time>2014-08-04T20:06:17Z</time></trkpt>
<trkpt lat="25.427002" lon="100.684612">
<time>2014-08-04T20:06:18Z</time></trkpt>
<trkpt lat="25.427003" lon="100.684423">
<time>2014-08-04T20:06:19Z</time></trkpt>
<trkpt lat="25.427013" lon="100.684233">
<time>2014-08-04T20:06:20Z</time></trkpt>
<trkpt lat="25.427013" lon="100.684044">
<time>2014-08-04T20:06:21Z</time></trkpt>
<trkpt lat="25.427034" lon="100.683844">
<time>2014-08-04T20:06:22Z</time></trkpt>
<trkpt lat="25.427044" lon="100.683605">
<time>2014-08-04T20:06:23Z</time></trkpt>
<trkpt lat="25.427055" lon="100.683405">
<time>2014-08-04T20:06:24Z</time></trkpt>
<trkpt lat="25.427075" lon="100.683176">
<time>2014-08-04T20:06:25Z</time></trkpt>
<trkpt lat="25.427085" lon="100.682976">
<time>2014-08-04T20:06:26Z</time></trkpt>
<trkpt lat="25.427086" lon="100.682717">
<time>2014-08-04T20:06:27Z</time></trkpt>
<trkpt lat="25.427086" lon="100.682607">
<time>2014-08-04T20:06:28Z</time></trkpt>
<trkpt lat="25.427096" lon="100.682487">
<time>2014-08-04T20:06:29Z</time></trkpt>
<trkpt lat="25.427097" lon="100.682248">
<time>2014-08-04T20:06:30Z</time></trkpt>
<trkpt lat="25.427107" lon="100.682019">
<time>2014-08-04T20:06:31Z</time></trkpt>
<trkpt lat="25.427118" lon="100.681779">
<time>2014-08-04T20:06:32Z</time></trkpt>
<trkpt lat="25.427128" lon="100.68156">
<time>2014-08-04T20:06:33Z</time></trkpt>
<trkpt lat="25.427108" lon="100.68134">
<time>2014-08-04T20:06:34Z</time></trkpt>
<trkpt lat="25.427049" lon="100.681111">
<time>2014-08-04T20:06:35Z</time></trkpt>
<trkpt lat="25.426949" lon="100.680891">
<time>2014-08-04T20:06:36Z</time></trkpt>
<trkpt lat="25.42682" lon="100.680692">
<time>2014-08-04T20:06:37Z</time></trkpt>
<trkpt lat="25.42666" lon="100.680472">
<time>2014-08-04T20:06:38Z</time></trkpt>
<trkpt lat="25.42649" lon="100.680243">
<time>2014-08-04T20:06:39Z</time></trkpt>
<trkpt lat="25.426301" lon="100.680014">
<time>2014-08-04T20:06:40Z</time></trkpt>
<trkpt lat="25.426121" lon="100.679784">
<time>2014-08-04T20:06:41Z</time></trkpt>
<trkpt lat="25.425942" lon="100.679555">
<time>2014-08-04T20:06:42Z</time></trkpt>
<trkpt lat="25.425912" lon="100.679515">
<time>2014-08-04T20:06:43Z</time></trkpt>
<trkpt lat="25.425782" lon="100.679335">
<time>2014-08-04T20:06:44Z</time></trkpt>
<trkpt lat="25.425652" lon="100.679176">
<time>2014-08-04T20:06:45Z</time></trkpt>
<trkpt lat="25.425532" lon="100.679016">
<time>2014-08-04T20:06:46Z</time></trkpt>
<trkpt lat="25.425403" lon="100.678837">
<time>2014-08-04T20:06:47Z</time></trkpt>
<trkpt lat="25.425393" lon="100.678817">
<time>2014-08-04T20:06:48Z</time></trkpt>
<trkpt lat="25.425253" lon="100.678667">
<time>2014-08-04T20:06:49Z</time></trkpt>
<trkpt lat="25.425113" lon="100.678478">
<time>2014-08-04T20:06:50Z</time></trkpt>
<trkpt lat="25.424964" lon="100.678298">
<time>2014-08-04T20:06:51Z</time></trkpt>
<trkpt lat="25.424834" lon="100.678099">
<time>2014-08-04T20:06:52Z</time></trkpt>
<trkpt lat="25.424684" lon="100.677899">
<time>2014-08-04T20:06:53Z</time></trkpt>
<trkpt lat="25.424575" lon="100.67765">
<time>2014-08-04T20:06:54Z</time></trkpt>
<trkpt lat="25.424485" lon="100.67745">
<time>2014-08-04T20:06:55Z</time></trkpt>
<trkpt lat="25.424396" lon="100.677181">
<time>2014-08-04T20:06:56Z</time></trkpt>
<trkpt lat="25.424296" lon="100.676892">
<time>2014-08-04T20:06:57Z</time></trkpt>
<trkpt lat="25.424207" lon="100.676562">
<time>2014-08-04T20:06:58Z</time></trkpt>
<trkpt lat="25.424107" lon="100.676293">
<time>2014-08-04T20:06:59Z</time></trkpt>
<trkpt lat="25.424008" lon="100.676024">
<time>2014-08-04T20:07:00Z</time></trkpt>
<trkpt lat="25.423918" lon="100.675774">
<time>2014-08-04T20:07:01Z</time></trkpt>
<trkpt lat="25.423839" lon="100.675555">
<time>2014-08-04T20:07:02Z</time></trkpt>
<trkpt lat="25.423769" lon="100.675365">
<time>2014-08-04T20:07:03Z</time></trkpt>
<trkpt lat="25.423709" lon="100.675166">
<time>2014-08-04T20:07:04Z</time></trkpt>
<trkpt lat="25.42363" lon="100.674967">
<time>2014-08-04T20:07:05Z</time></trkpt>
<trkpt lat="25.42355" lon="100.674757">
<time>2014-08-04T20:07:06Z</time></trkpt>
<trkpt lat="25.42347" lon="100.674558">
<time>2014-08-04T20:07:07Z</time></trkpt>
<trkpt lat="25.423391" lon="100.674398">
<time>2014-08-04T20:07:08Z</time></trkpt>
<trkpt lat="25.423331" lon="100.674238">
<time>2014-08-04T20:07:09Z</time></trkpt>
<trkpt lat="25.423271" lon="100.674079">
<time>2014-08-04T20:07:10Z</time></trkpt>
<trkpt lat="25.423202" lon="100.673909">
<time>2014-08-04T20:07:11Z</time></trkpt>
<trkpt lat="25.423112" lon="100.67375">
<time>2014-08-04T20:07:12Z</time></trkpt>
<trkpt lat="25.423042" lon="100.67356">
<time>2014-08-04T20:07:13Z</time></trkpt>
<trkpt lat="25.422973" lon="100.673351">
<time>2014-08-04T20:07:14Z</time></trkpt>
<trkpt lat="25.422893" lon="100.673141">
<time>2014-08-04T20:07:15Z</time></trkpt>
<trkpt lat="25.422803" lon="100.672952">
<time>2014-08-04T20:07:16Z</time></trkpt>
<trkpt lat="25.422734" lon="100.672802">
<time>2014-08-04T20:07:17Z</time></trkpt>
<trkpt lat="25.422674" lon="100.672652">
<time>2014-08-04T20:07:18Z</time></trkpt>
<trkpt lat="25.422594" lon="100.672443">
<time>2014-08-04T20:07:19Z</time></trkpt>
<trkpt lat="25.422505" lon="100.672263">
<time>2014-08-04T20:07:20Z</time></trkpt>
<trkpt lat="25.422415" lon="100.672064">
<time>2014-08-04T20:07:21Z</time></trkpt>
<trkpt lat="25.422335" lon="100.671864">
<time>2014-08-04T20:07:22Z</time></trkpt>
<trkpt lat="25.422246" lon="100.671675">
<time>2014-08-04T20:07:23Z</time></trkpt>
<trkpt lat="25.422156" lon="100.671505">
<time>2014-08-04T20:07:24Z</time></trkpt>
<trkpt lat="25.422096" lon="100.671416">
<time>2014-08-04T20:07:25Z</time></trkpt>
<trkpt lat="25.422056" lon="100.671346">
<time>2014-08-04T20:07:26Z</time></trkpt>
<trkpt lat="25.421957" lon="100.671196">
<time>2014-08-04T20:07:27Z</time></trkpt>
<trkpt lat="25.421857" lon="100.671047">
<time>2014-08-04T20:07:28Z</time></trkpt>
<trkpt lat="25.421757" lon="100.670887">
<time>2014-08-04T20:07:29Z</time></trkpt>
<trkpt lat="25.421667" lon="100.670737">
<time>2014-08-04T20:07:30Z</time></trkpt>
<trkpt lat="25.421548" lon="100.670578">
<time>2014-08-04T20:07:31Z</time></trkpt>
<trkpt lat="25.421448" lon="100.670398">
<time>2014-08-04T20:07:32Z</time></trkpt>
<trkpt lat="25.421318" lon="100.670229">
<time>2014-08-04T20:07:33Z</time></trkpt>
<trkpt lat="25.421219" lon="100.670069">
<time>2014-08-04T20:07:34Z</time></trkpt>
<trkpt lat="25.421099" lon="100.669909">
<time>2014-08-04T20:07:35Z</time></trkpt>
<trkpt lat="25.421009" lon="100.66975">
<time>2014-08-04T20:07:36Z</time></trkpt>
<trkpt lat="25.420899" lon="100.66959">
<time>2014-08-04T20:07:37Z</time></trkpt>
<trkpt lat="25.42078" lon="100.669441">
<time>2014-08-04T20:07:38Z</time></trkpt>
<trkpt lat="25.42067" lon="100.669291">
<time>2014-08-04T20:07:39Z</time></trkpt>
<trkpt lat="25.42058" lon="100.669131">
<time>2014-08-04T20:07:40Z</time></trkpt>
<trkpt lat="25.42056" lon="100.669092">
<time>2014-08-04T20:07:41Z</time></trkpt>
<trkpt lat="25.420501" lon="100.668952">
<time>2014-08-04T20:07:42Z</time></trkpt>
<trkpt lat="25.420421" lon="100.668772">
<time>2014-08-04T20:07:43Z</time></trkpt>
<trkpt lat="25.420341" lon="100.668583">
<time>2014-08-04T20:07:44Z</time></trkpt>
<trkpt lat="25.420272" lon="100.668413">
<time>2014-08-04T20:07:45Z</time></trkpt>
<trkpt lat="25.420222" lon="100.668264">
<time>2014-08-04T20:07:46Z</time></trkpt>
<trkpt lat="25.420162" lon="100.668134">
<time>2014-08-04T20:07:47Z</time></trkpt>
<trkpt lat="25.420102" lon="100.668014">
<time>2014-08-04T20:07:48Z</time></trkpt>
<trkpt lat="25.420032" lon="100.667875">
<time>2014-08-04T20:07:49Z</time></trkpt>
<trkpt lat="25.419993" lon="100.667715">
<time>2014-08-04T20:07:50Z</time></trkpt>
<trkpt lat="25.419923" lon="100.667565">
<time>2014-08-04T20:07:51Z</time></trkpt>
<trkpt lat="25.419853" lon="100.667386">
<time>2014-08-04T20:07:52Z</time></trkpt>
<trkpt lat="25.419764" lon="100.667206">
<time>2014-08-04T20:07:53Z</time></trkpt>
<trkpt lat="25.419674" lon="100.667057">
<time>2014-08-04T20:07:54Z</time></trkpt>
<trkpt lat="25.419574" lon="100.666897">
<time>2014-08-04T20:07:55Z</time></trkpt>
<trkpt lat="25.419505" lon="100.666738">
<time>2014-08-04T20:07:56Z</time></trkpt>
<trkpt lat="25.419435" lon="100.666588">
<time>2014-08-04T20:07:57Z</time></trkpt>
<trkpt lat="25.419365" lon="100.666438">
<time>2014-08-04T20:07:58Z</time></trkpt>
<trkpt lat="25.419295" lon="100.666309">
<time>2014-08-04T20:07:59Z</time></trkpt>
<trkpt lat="25.419236" lon="100.666179">
<time>2014-08-04T20:08:00Z</time></trkpt>
<trkpt lat="25.419176" lon="100.666059">
<time>2014-08-04T20:08:01Z</time></trkpt>
<trkpt lat="25.419166" lon="100.666039">
<time>2014-08-04T20:08:02Z</time></trkpt>
<trkpt lat="25.419116" lon="100.66594">
<time>2014-08-04T20:08:03Z</time></trkpt>
<trkpt lat="25.419046" lon="100.66581">
<time>2014-08-04T20:08:04Z</time></trkpt>
<trkpt lat="25.418976" lon="100.66566">
<time>2014-08-04T20:08:05Z</time></trkpt>
<trkpt lat="25.418907" lon="100.665531">
<time>2014-08-04T20:08:06Z</time></trkpt>
<trkpt lat="25.418827" lon="100.665331">
<time>2014-08-04T20:08:07Z</time></trkpt>
<trkpt lat="25.418777" lon="100.665162">
<time>2014-08-04T20:08:08Z</time></trkpt>
<trkpt lat="25.418688" lon="100.664882">
<time>2014-08-04T20:08:09Z</time></trkpt>
<trkpt lat="25.418578" lon="100.664673">
<time>2014-08-04T20:08:10Z</time></trkpt>
<trkpt lat="25.418499" lon="100.664443">
<time>2014-08-04T20:08:11Z</time></trkpt>
<trkpt lat="25.418389" lon="100.664234">
<time>2014-08-04T20:08:12Z</time></trkpt>
<trkpt lat="25.418289" lon="100.664005">
<time>2014-08-04T20:08:13Z</time></trkpt>
<trkpt lat="25.4182" lon="100.663745">
<time>2014-08-04T20:08:14Z</time></trkpt>
<trkpt lat="25.41806" lon="100.663506">
<time>2014-08-04T20:08:15Z</time></trkpt>
<trkpt lat="25.417991" lon="100.663366">
<time>2014-08-04T20:08:16Z</time></trkpt>
<trkpt lat="25.417891" lon="100.663127">
<time>2014-08-04T20:08:17Z</time></trkpt>
<trkpt lat="25.417771" lon="100.662907">
<time>2014-08-04T20:08:18Z</time></trkpt>
<trkpt lat="25.417652" lon="100.662688">
<time>2014-08-04T20:08:19Z</time></trkpt>
<trkpt lat="25.417482" lon="100.662508">
<time>2014-08-04T20:08:20Z</time></trkpt>
<trkpt lat="25.417302" lon="100.662339">
<time>2014-08-04T20:08:21Z</time></trkpt>
<trkpt lat="25.417103" lon="100.662199">
<time>2014-08-04T20:08:22Z</time></trkpt>
<trkpt lat="25.416903" lon="100.662069">
<time>2014-08-04T20:08:23Z</time></trkpt>
<trkpt lat="25.416713" lon="100.66196">
<time>2014-08-04T20:08:24Z</time></trkpt>
<trkpt lat="25.416683" lon="100.66194">
<time>2014-08-04T20:08:25Z</time></trkpt>
<trkpt lat="25.416363" lon="100.6617">
<time>2014-08-04T20:08:26Z</time></trkpt>
<trkpt lat="25.416194" lon="100.661581">
<time>2014-08-04T20:08:27Z</time></trkpt>
<trkpt lat="25.416024" lon="100.661481">
<time>2014-08-04T20:08:28Z</time></trkpt>
<trkpt lat="25.415864" lon="100.661381">
<time>2014-08-04T20:08:29Z</time></trkpt>
<trkpt lat="25.415774" lon="100.661301">
<time>2014-08-04T20:08:30Z</time></trkpt>
<trkpt lat="25.415694" lon="100.661252">
<time>2014-08-04T20:08:31Z</time></trkpt>
<trkpt lat="25.415564" lon="100.661132">
<time>2014-08-04T20:08:32Z</time></trkpt>
<trkpt lat="25.415475" lon="100.661032">
<time>2014-08-04T20:08:33Z</time></trkpt>
<trkpt lat="25.415365" lon="100.660912">
<time>2014-08-04T20:08:34Z</time></trkpt>
<trkpt lat="25.415255" lon="100.660763">
<time>2014-08-04T20:08:35Z</time></trkpt>
<trkpt lat="25.415125" lon="100.660603">
<time>2014-08-04T20:08:36Z</time></trkpt>
<trkpt lat="25.414995" lon="100.660464">
<time>2014-08-04T20:08:37Z</time></trkpt>
<trkpt lat="25.414866" lon="100.660304">
<time>2014-08-04T20:08:38Z</time></trkpt>
<trkpt lat="25.414766" lon="100.660124">
<time>2014-08-04T20:08:39Z</time></trkpt>
<trkpt lat="25.414686" lon="100.659905">
<time>2014-08-04T20:08:40Z</time></trkpt>
<trkpt lat="25.414647" lon="100.659656">
<time>2014-08-04T20:08:41Z</time></trkpt>
<trkpt lat="25.414597" lon="100.659426">
<time>2014-08-04T20:08:42Z</time></trkpt>
<trkpt lat="25.414568" lon="100.659197">
<time>2014-08-04T20:08:43Z</time></trkpt>
<trkpt lat="25.414528" lon="100.658957">
<time>2014-08-04T20:08:44Z</time></trkpt>
<trkpt lat="25.414489" lon="100.658708">
<time>2014-08-04T20:08:45Z</time></trkpt>
<trkpt lat="25.414449" lon="100.658449">
<time>2014-08-04T20:08:46Z</time></trkpt>
<trkpt lat="25.41441" lon="100.658179">
<time>2014-08-04T20:08:47Z</time></trkpt>
<trkpt lat="25.41437" lon="100.6579">
<time>2014-08-04T20:08:48Z</time></trkpt>
<trkpt lat="25.414331" lon="100.657611">
<time>2014-08-04T20:08:49Z</time></trkpt>
<trkpt lat="25.414291" lon="100.657321">
<time>2014-08-04T20:08:50Z</time></trkpt>
<trkpt lat="25.414252" lon="100.657042">
<time>2014-08-04T20:08:51Z</time></trkpt>
<trkpt lat="25.414222" lon="100.656763">
<time>2014-08-04T20:08:52Z</time></trkpt>
<trkpt lat="25.414233" lon="100.656493">
<time>2014-08-04T20:08:53Z</time></trkpt>
<trkpt lat="25.414283" lon="100.656254">
<time>2014-08-04T20:08:54Z</time></trkpt>
<trkpt lat="25.414384" lon="100.656005">
<time>2014-08-04T20:08:55Z</time></trkpt>
<trkpt lat="25.414534" lon="100.655785">
<time>2014-08-04T20:08:56Z</time></trkpt>
<trkpt lat="25.414684" lon="100.655566">
<time>2014-08-04T20:08:57Z</time></trkpt>
<trkpt lat="25.414825" lon="100.655366">
<time>2014-08-04T20:08:58Z</time></trkpt>
<trkpt lat="25.414935" lon="100.655117">
<time>2014-08-04T20:08:59Z</time></trkpt>
<trkpt lat="25.414976" lon="100.654887">
<time>2014-08-04T20:09:00Z</time></trkpt>
<trkpt lat="25.414936" lon="100.654638">
<time>2014-08-04T20:09:01Z</time></trkpt>
<trkpt lat="25.414837" lon="100.654398">
<time>2014-08-04T20:09:02Z</time></trkpt>
<trkpt lat="25.414707" lon="100.654139">
<time>2014-08-04T20:09:03Z</time></trkpt>
<trkpt lat="25.414578" lon="100.65387">
<time>2014-08-04T20:09:04Z</time></trkpt>
<trkpt lat="25.414448" lon="100.65365">
<time>2014-08-04T20:09:05Z</time></trkpt>
<trkpt lat="25.414278" lon="100.653361">
<time>2014-08-04T20:09:06Z</time></trkpt>
<trkpt lat="25.414119" lon="100.653122">
<time>2014-08-04T20:09:07Z</time></trkpt>
<trkpt lat="25.413909" lon="100.652822">
<time>2014-08-04T20:09:08Z</time></trkpt>
<trkpt lat="25.41374" lon="100.652543">
<time>2014-08-04T20:09:09Z</time></trkpt>
<trkpt lat="25.41364" lon="100.652323">
<time>2014-08-04T20:09:10Z</time></trkpt>
<trkpt lat="25.4136" lon="100.652104">
<time>2014-08-04T20:09:11Z</time></trkpt>
<trkpt lat="25.413651" lon="100.651904">
<time>2014-08-04T20:09:12Z</time></trkpt>
<trkpt lat="25.413791" lon="100.651775">
<time>2014-08-04T20:09:13Z</time></trkpt>
<trkpt lat="25.413961" lon="100.651675">
<time>2014-08-04T20:09:14Z</time></trkpt>
<trkpt lat="25.414162" lon="100.651565">
<time>2014-08-04T20:09:15Z</time></trkpt>
<trkpt lat="25.414372" lon="100.651426">
<time>2014-08-04T20:09:16Z</time></trkpt>
<trkpt lat="25.414612" lon="100.651286">
<time>2014-08-04T20:09:17Z</time></trkpt>
<trkpt lat="25.414852" lon="100.651156">
<time>2014-08-04T20:09:18Z</time></trkpt>
<trkpt lat="25.415093" lon="100.650997">
<time>2014-08-04T20:09:19Z</time></trkpt>
<trkpt lat="25.415313" lon="100.650817">
<time>2014-08-04T20:09:20Z</time></trkpt>
<trkpt lat="25.415533" lon="100.650637">
<time>2014-08-04T20:09:21Z</time></trkpt>
<trkpt lat="25.415764" lon="100.650488">
<time>2014-08-04T20:09:22Z</time></trkpt>
<trkpt lat="25.416044" lon="100.650368">
<time>2014-08-04T20:09:23Z</time></trkpt>
<trkpt lat="25.416284" lon="100.650228">
<time>2014-08-04T20:09:24Z</time></trkpt>
<trkpt lat="25.416525" lon="100.650069">
<time>2014-08-04T20:09:25Z</time></trkpt>
<trkpt lat="25.416685" lon="100.649969">
<time>2014-08-04T20:09:26Z</time></trkpt>
<trkpt lat="25.416755" lon="100.649929">
<time>2014-08-04T20:09:27Z</time></trkpt>
<trkpt lat="25.417065" lon="100.649779">
<time>2014-08-04T20:09:28Z</time></trkpt>
<trkpt lat="25.417276" lon="100.64966">
<time>2014-08-04T20:09:29Z</time></trkpt>
<trkpt lat="25.417526" lon="100.6495">
<time>2014-08-04T20:09:30Z</time></trkpt>
<trkpt lat="25.417706" lon="100.649301">
<time>2014-08-04T20:09:31Z</time></trkpt>
<trkpt lat="25.417837" lon="100.649091">
<time>2014-08-04T20:09:32Z</time></trkpt>
<trkpt lat="25.417897" lon="100.648852">
<time>2014-08-04T20:09:33Z</time></trkpt>
<trkpt lat="25.417928" lon="100.648582">
<time>2014-08-04T20:09:34Z</time></trkpt>
<trkpt lat="25.417938" lon="100.648303">
<time>2014-08-04T20:09:35Z</time></trkpt>
<trkpt lat="25.417939" lon="100.648014">
<time>2014-08-04T20:09:36Z</time></trkpt>
<trkpt lat="25.417939" lon="100.647724">
<time>2014-08-04T20:09:37Z</time></trkpt>
<trkpt lat="25.41796" lon="100.647435">
<time>2014-08-04T20:09:38Z</time></trkpt>
<trkpt lat="25.41798" lon="100.647126">
<time>2014-08-04T20:09:39Z</time></trkpt>
<trkpt lat="25.418011" lon="100.646826">
<time>2014-08-04T20:09:40Z</time></trkpt>
<trkpt lat="25.418021" lon="100.646537">
<time>2014-08-04T20:09:41Z</time></trkpt>
<trkpt lat="25.417971" lon="100.646267">
<time>2014-08-04T20:09:42Z</time></trkpt>
<trkpt lat="25.417862" lon="100.646028">
<time>2014-08-04T20:09:43Z</time></trkpt>
<trkpt lat="25.417702" lon="100.645809">
<time>2014-08-04T20:09:44Z</time></trkpt>
<trkpt lat="25.417502" lon="100.645609">
<time>2014-08-04T20:09:45Z</time></trkpt>
<trkpt lat="25.417293" lon="100.645419">
<time>2014-08-04T20:09:46Z</time></trkpt>
<trkpt lat="25.417083" lon="100.64523">
<time>2014-08-04T20:09:47Z</time></trkpt>
<trkpt lat="25.416893" lon="100.64503">
<time>2014-08-04T20:09:48Z</time></trkpt>
<trkpt lat="25.416744" lon="100.644781">
<time>2014-08-04T20:09:49Z</time></trkpt>
<trkpt lat="25.416684" lon="100.644601">
<time>2014-08-04T20:09:50Z</time></trkpt>
<trkpt lat="25.416654" lon="100.644492">
<time>2014-08-04T20:09:51Z</time></trkpt>
<trkpt lat="25.416575" lon="100.644202">
<time>2014-08-04T20:09:52Z</time></trkpt>
<trkpt lat="25.416505" lon="100.643923">
<time>2014-08-04T20:09:53Z</time></trkpt>
<trkpt lat="25.416495" lon="100.643903">
<time>2014-08-04T20:09:54Z</time></trkpt>
<trkpt lat="25.416435" lon="100.643653">
<time>2014-08-04T20:09:55Z</time></trkpt>
<trkpt lat="25.416376" lon="100.643394">
<time>2014-08-04T20:09:56Z</time></trkpt>
<trkpt lat="25.416316" lon="100.643154">
<time>2014-08-04T20:09:57Z</time></trkpt>
<trkpt lat="25.416277" lon="100.642915">
<time>2014-08-04T20:09:58Z</time></trkpt>
<trkpt lat="25.416267" lon="100.642676">
<time>2014-08-04T20:09:59Z</time></trkpt>
<trkpt lat="25.416277" lon="100.642466">
<time>2014-08-04T20:10:00Z</time></trkpt>
<trkpt lat="25.416288" lon="100.642256">
<time>2014-08-04T20:10:01Z</time></trkpt>
<trkpt lat="25.416308" lon="100.642077">
<time>2014-08-04T20:10:02Z</time></trkpt>
<trkpt lat="25.416308" lon="100.641897">
<time>2014-08-04T20:10:03Z</time></trkpt>
<trkpt lat="25.416298" lon="100.641768">
<time>2014-08-04T20:10:04Z</time></trkpt>
<trkpt lat="25.416289" lon="100.641718">
<time>2014-08-04T20:10:05Z</time></trkpt>
<trkpt lat="25.416249" lon="100.641518">
<time>2014-08-04T20:10:06Z</time></trkpt>
<trkpt lat="25.416209" lon="100.641338">
<time>2014-08-04T20:10:07Z</time></trkpt>
<trkpt lat="25.416189" lon="100.641189">
<time>2014-08-04T20:10:08Z</time></trkpt>
<trkpt lat="25.416179" lon="100.641149">
<time>2014-08-04T20:10:09Z</time></trkpt>
<trkpt lat="25.41615" lon="100.640969">
<time>2014-08-04T20:10:10Z</time></trkpt>
<trkpt lat="25.41612" lon="100.64082">
<time>2014-08-04T20:10:11Z</time></trkpt>
<trkpt lat="25.41607" lon="100.64061">
<time>2014-08-04T20:10:12Z</time></trkpt>
<trkpt lat="25.41607" lon="100.64059">
<time>2014-08-04T20:10:13Z</time></trkpt>
<trkpt lat="25.416011" lon="100.64038">
<time>2014-08-04T20:10:14Z</time></trkpt>
<trkpt lat="25.415971" lon="100.640161">
<time>2014-08-04T20:10:15Z</time></trkpt>
<trkpt lat="25.415921" lon="100.639971">
<time>2014-08-04T20:10:16Z</time></trkpt>
<trkpt lat="25.415851" lon="100.639772">
<time>2014-08-04T20:10:17Z</time></trkpt>
<trkpt lat="25.415792" lon="100.639562">
<time>2014-08-04T20:10:18Z</time></trkpt>
<trkpt lat="25.415732" lon="100.639353">
<time>2014-08-04T20:10:19Z</time></trkpt>
<trkpt lat="25.415672" lon="100.639163">
<time>2014-08-04T20:10:20Z</time></trkpt>
<trkpt lat="25.415623" lon="100.638993">
<time>2014-08-04T20:10:21Z</time></trkpt>
<trkpt lat="25.415553" lon="100.638684">
<time>2014-08-04T20:10:22Z</time></trkpt>
<trkpt lat="25.415503" lon="100.638465">
<time>2014-08-04T20:10:23Z</time></trkpt>
<trkpt lat="25.415504" lon="100.638355">
<time>2014-08-04T20:10:24Z</time></trkpt>
<trkpt lat="25.415504" lon="100.638245">
<time>2014-08-04T20:10:25Z</time></trkpt>
<trkpt lat="25.415514" lon="100.638035">
<time>2014-08-04T20:10:26Z</time></trkpt>
<trkpt lat="25.415514" lon="100.637966">
<time>2014-08-04T20:10:27Z</time></trkpt>
<trkpt lat="25.415554" lon="100.637746">
<time>2014-08-04T20:10:28Z</time></trkpt>
<trkpt lat="25.415595" lon="100.637536">
<time>2014-08-04T20:10:29Z</time></trkpt>
<trkpt lat="25.415655" lon="100.637357">
<time>2014-08-04T20:10:30Z</time></trkpt>
<trkpt lat="25.415715" lon="100.637227">
<time>2014-08-04T20:10:31Z</time></trkpt>
<trkpt lat="25.415765" lon="100.637097">
<time>2014-08-04T20:10:32Z</time></trkpt>
<trkpt lat="25.415826" lon="100.636918">
<time>2014-08-04T20:10:33Z</time></trkpt>
<trkpt lat="25.415886" lon="100.636738">
<time>2014-08-04T20:10:34Z</time></trkpt>
<trkpt lat="25.415956" lon="100.636548">
<time>2014-08-04T20:10:35Z</time></trkpt>
<trkpt lat="25.416057" lon="100.636339">
<time>2014-08-04T20:10:36Z</time></trkpt>
<trkpt lat="25.416167" lon="100.636159">
<time>2014-08-04T20:10:37Z</time></trkpt>
<trkpt lat="25.416317" lon="100.63599">
<time>2014-08-04T20:10:38Z</time></trkpt>
<trkpt lat="25.416487" lon="100.63583">
<time>2014-08-04T20:10:39Z</time></trkpt>
<trkpt lat="25.416548" lon="100.63579">
<time>2014-08-04T20:10:40Z</time></trkpt>
<trkpt lat="25.416688" lon="100.63566">
<time>2014-08-04T20:10:41Z</time></trkpt>
<trkpt lat="25.416808" lon="100.635461">
<time>2014-08-04T20:10:42Z</time></trkpt>
<trkpt lat="25.416989" lon="100.635131">
<time>2014-08-04T20:10:43Z</time></trkpt>
<trkpt lat="25.417199" lon="100.634692">
<time>2014-08-04T20:10:44Z</time></trkpt>
<trkpt lat="25.4173" lon="100.634512">
<time>2014-08-04T20:10:45Z</time></trkpt>
<trkpt lat="25.41754" lon="100.634073">
<time>2014-08-04T20:10:46Z</time></trkpt>
<trkpt lat="25.417711" lon="100.633734">
<time>2014-08-04T20:10:47Z</time></trkpt>
<trkpt lat="25.417911" lon="100.633365">
<time>2014-08-04T20:10:48Z</time></trkpt>
<trkpt lat="25.418032" lon="100.633105">
<time>2014-08-04T20:10:49Z</time></trkpt>
<trkpt lat="25.418092" lon="100.632915">
<time>2014-08-04T20:10:50Z</time></trkpt>
<trkpt lat="25.418393" lon="100.631828">
<time>2014-08-04T20:10:51Z</time></trkpt>
<trkpt lat="25.418464" lon="100.631618">
<time>2014-08-04T20:10:52Z</time></trkpt>
<trkpt lat="25.418474" lon="100.631568">
<time>2014-08-04T20:10:53Z</time></trkpt>
<trkpt lat="25.418504" lon="100.631408">
<time>2014-08-04T20:10:54Z</time></trkpt>
<trkpt lat="25.418524" lon="100.631229">
<time>2014-08-04T20:10:55Z</time></trkpt>
<trkpt lat="25.418524" lon="100.631119">
<time>2014-08-04T20:10:56Z</time></trkpt>
<trkpt lat="25.418505" lon="100.630999">
<time>2014-08-04T20:10:57Z</time></trkpt>
<trkpt lat="25.418485" lon="100.630899">
<time>2014-08-04T20:10:58Z</time></trkpt>
<trkpt lat="25.418455" lon="100.630779">
<time>2014-08-04T20:10:59Z</time></trkpt>
<trkpt lat="25.418435" lon="100.63071">
<time>2014-08-04T20:11:00Z</time></trkpt>
<trkpt lat="25.418196" lon="100.630141">
<time>2014-08-04T20:11:01Z</time></trkpt>
<trkpt lat="25.417767" lon="100.629023">
<time>2014-08-04T20:11:02Z</time></trkpt>
<trkpt lat="25.417607" lon="100.628633">
<time>2014-08-04T20:11:03Z</time></trkpt>
<trkpt lat="25.417418" lon="100.628204">
<time>2014-08-04T20:11:04Z</time></trkpt>
<trkpt lat="25.417188" lon="100.627735">
<time>2014-08-04T20:11:05Z</time></trkpt>
<trkpt lat="25.416839" lon="100.626986">
<time>2014-08-04T20:11:06Z</time></trkpt>
<trkpt lat="25.416679" lon="100.626677">
<time>2014-08-04T20:11:07Z</time></trkpt>
<trkpt lat="25.41661" lon="100.626417">
<time>2014-08-04T20:11:08Z</time></trkpt>
<trkpt lat="25.41656" lon="100.626237">
<time>2014-08-04T20:11:09Z</time></trkpt>
<trkpt lat="25.41653" lon="100.626078">
<time>2014-08-04T20:11:10Z</time></trkpt>
<trkpt lat="25.41652" lon="100.625948">
<time>2014-08-04T20:11:11Z</time></trkpt>
<trkpt lat="25.41652" lon="100.625878">
<time>2014-08-04T20:11:12Z</time></trkpt>
<trkpt lat="25.41651" lon="100.625818">
<time>2014-08-04T20:11:13Z</time></trkpt>
<trkpt lat="25.416531" lon="100.625648">
<time>2014-08-04T20:11:14Z</time></trkpt>
<trkpt lat="25.416551" lon="100.625509">
<time>2014-08-04T20:11:15Z</time></trkpt>
<trkpt lat="25.416591" lon="100.625349">
<time>2014-08-04T20:11:16Z</time></trkpt>
<trkpt lat="25.416641" lon="100.625209">
<time>2014-08-04T20:11:17Z</time></trkpt>
<trkpt lat="25.416681" lon="100.625119">
<time>2014-08-04T20:11:18Z</time></trkpt>
<trkpt lat="25.416761" lon="100.625019">
<time>2014-08-04T20:11:19Z</time></trkpt>
<trkpt lat="25.417142" lon="100.62464">
<time>2014-08-04T20:11:20Z</time></trkpt>
<trkpt lat="25.417302" lon="100.62449">
<time>2014-08-04T20:11:21Z</time></trkpt>
<trkpt lat="25.418234" lon="100.623302">
<time>2014-08-04T20:11:22Z</time></trkpt>
<trkpt lat="25.418384" lon="100.623112">
<time>2014-08-04T20:11:23Z</time></trkpt>
<trkpt lat="25.418574" lon="100.622853">
<time>2014-08-04T20:11:24Z</time></trkpt>
<trkpt lat="25.418754" lon="100.622593">
<time>2014-08-04T20:11:25Z</time></trkpt>
<trkpt lat="25.418945" lon="100.622354">
<time>2014-08-04T20:11:26Z</time></trkpt>
<trkpt lat="25.419135" lon="100.622104">
<time>2014-08-04T20:11:27Z</time></trkpt>
<trkpt lat="25.419335" lon="100.621834">
<time>2014-08-04T20:11:28Z</time></trkpt>
<trkpt lat="25.419536" lon="100.621565">
<time>2014-08-04T20:11:29Z</time></trkpt>
<trkpt lat="25.419736" lon="100.621295">
<time>2014-08-04T20:11:30Z</time></trkpt>
<trkpt lat="25.419916" lon="100.621026">
<time>2014-08-04T20:11:31Z</time></trkpt>
<trkpt lat="25.420137" lon="100.620786">
<time>2014-08-04T20:11:32Z</time></trkpt>
<trkpt lat="25.420367" lon="100.620526">
<time>2014-08-04T20:11:33Z</time></trkpt>
<trkpt lat="25.420517" lon="100.620327">
<time>2014-08-04T20:11:34Z</time></trkpt>
<trkpt lat="25.420747" lon="100.620077">
<time>2014-08-04T20:11:35Z</time></trkpt>
<trkpt lat="25.420948" lon="100.619817">
<time>2014-08-04T20:11:36Z</time></trkpt>
<trkpt lat="25.421148" lon="100.619568">
<time>2014-08-04T20:11:37Z</time></trkpt>
<trkpt lat="25.421338" lon="100.619328">
<time>2014-08-04T20:11:38Z</time></trkpt>
<trkpt lat="25.421528" lon="100.619068">
<time>2014-08-04T20:11:39Z</time></trkpt>
<trkpt lat="25.421709" lon="100.618839">
<time>2014-08-04T20:11:40Z</time></trkpt>
<trkpt lat="25.421899" lon="100.618599">
<time>2014-08-04T20:11:41Z</time></trkpt>
<trkpt lat="25.422069" lon="100.618389">
<time>2014-08-04T20:11:42Z</time></trkpt>
<trkpt lat="25.422239" lon="100.61817">
<time>2014-08-04T20:11:43Z</time></trkpt>
<trkpt lat="25.42242" lon="100.61795">
<time>2014-08-04T20:11:44Z</time></trkpt>
<trkpt lat="25.42259" lon="100.61774">
<time>2014-08-04T20:11:45Z</time></trkpt>
<trkpt lat="25.42276" lon="100.61753">
<time>2014-08-04T20:11:46Z</time></trkpt>
<trkpt lat="25.42293" lon="100.617321">
<time>2014-08-04T20:11:47Z</time></trkpt>
<trkpt lat="25.4231" lon="100.617091">
<time>2014-08-04T20:11:48Z</time></trkpt>
<trkpt lat="25.423281" lon="100.616861">
<time>2014-08-04T20:11:49Z</time></trkpt>
<trkpt lat="25.423451" lon="100.616622">
<time>2014-08-04T20:11:50Z</time></trkpt>
<trkpt lat="25.423631" lon="100.616392">
<time>2014-08-04T20:11:51Z</time></trkpt>
<trkpt lat="25.423801" lon="100.616162">
<time>2014-08-04T20:11:52Z</time></trkpt>
<trkpt lat="25.423972" lon="100.615952">
<time>2014-08-04T20:11:53Z</time></trkpt>
<trkpt lat="25.424152" lon="100.615743">
<time>2014-08-04T20:11:54Z</time></trkpt>
<trkpt lat="25.424322" lon="100.615523">
<time>2014-08-04T20:11:55Z</time></trkpt>
<trkpt lat="25.424502" lon="100.615303">
<time>2014-08-04T20:11:56Z</time></trkpt>
<trkpt lat="25.424672" lon="100.615074">
<time>2014-08-04T20:11:57Z</time></trkpt>
<trkpt lat="25.424843" lon="100.614844">
<time>2014-08-04T20:11:58Z</time></trkpt>
<trkpt lat="25.425023" lon="100.614614">
<time>2014-08-04T20:11:59Z</time></trkpt>
<trkpt lat="25.425253" lon="100.614254">
<time>2014-08-04T20:12:00Z</time></trkpt>
<trkpt lat="25.425443" lon="100.614015">
<time>2014-08-04T20:12:01Z</time></trkpt>
<trkpt lat="25.425533" lon="100.613905">
<time>2014-08-04T20:12:02Z</time></trkpt>
<trkpt lat="25.425624" lon="100.613785">
<time>2014-08-04T20:12:03Z</time></trkpt>
<trkpt lat="25.425824" lon="100.613595">
<time>2014-08-04T20:12:04Z</time></trkpt>
<trkpt lat="25.425964" lon="100.613425">
<time>2014-08-04T20:12:05Z</time></trkpt>
<trkpt lat="25.426114" lon="100.613236">
<time>2014-08-04T20:12:06Z</time></trkpt>
<trkpt lat="25.426264" lon="100.613036">
<time>2014-08-04T20:12:07Z</time></trkpt>
<trkpt lat="25.426414" lon="100.612836">
<time>2014-08-04T20:12:08Z</time></trkpt>
<trkpt lat="25.426565" lon="100.612646">
<time>2014-08-04T20:12:09Z</time></trkpt>
<trkpt lat="25.426735" lon="100.612417">
<time>2014-08-04T20:12:10Z</time></trkpt>
<trkpt lat="25.426905" lon="100.612197">
<time>2014-08-04T20:12:11Z</time></trkpt>
<trkpt lat="25.427085" lon="100.611987">
<time>2014-08-04T20:12:12Z</time></trkpt>
<trkpt lat="25.427225" lon="100.611787">
<time>2014-08-04T20:12:13Z</time></trkpt>
<trkpt lat="25.427395" lon="100.611577">
<time>2014-08-04T20:12:14Z</time></trkpt>
<trkpt lat="25.427435" lon="100.611518">
<time>2014-08-04T20:12:15Z</time></trkpt>
<trkpt lat="25.427556" lon="100.611368">
<time>2014-08-04T20:12:16Z</time></trkpt>
<trkpt lat="25.427716" lon="100.611158">
<time>2014-08-04T20:12:17Z</time></trkpt>
<trkpt lat="25.427876" lon="100.610968">
<time>2014-08-04T20:12:18Z</time></trkpt>
<trkpt lat="25.428036" lon="100.610778">
<time>2014-08-04T20:12:19Z</time></trkpt>
<trkpt lat="25.428186" lon="100.610579">
<time>2014-08-04T20:12:20Z</time></trkpt>
<trkpt lat="25.428356" lon="100.610379">
<time>2014-08-04T20:12:21Z</time></trkpt>
<trkpt lat="25.428517" lon="100.610159">
<time>2014-08-04T20:12:22Z</time></trkpt>
<trkpt lat="25.428637" lon="100.609929">
<time>2014-08-04T20:12:23Z</time></trkpt>
<trkpt lat="25.428777" lon="100.609719">
<time>2014-08-04T20:12:24Z</time></trkpt>
<trkpt lat="25.428917" lon="100.60951">
<time>2014-08-04T20:12:25Z</time></trkpt>
<trkpt lat="25.429077" lon="100.60925">
<time>2014-08-04T20:12:26Z</time></trkpt>
<trkpt lat="25.429217" lon="100.60906">
<time>2014-08-04T20:12:27Z</time></trkpt>
<trkpt lat="25.429417" lon="100.6089">
<time>2014-08-04T20:12:28Z</time></trkpt>
<trkpt lat="25.429648" lon="100.6087">
<time>2014-08-04T20:12:29Z</time></trkpt>
<trkpt lat="25.429828" lon="100.608481">
<time>2014-08-04T20:12:30Z</time></trkpt>
<trkpt lat="25.430058" lon="100.608281">
<time>2014-08-04T20:12:31Z</time></trkpt>
<trkpt lat="25.430258" lon="100.608061">
<time>2014-08-04T20:12:32Z</time></trkpt>
<trkpt lat="25.430458" lon="100.607851">
<time>2014-08-04T20:12:33Z</time></trkpt>
<trkpt lat="25.430658" lon="100.607641">
<time>2014-08-04T20:12:34Z</time></trkpt>
<trkpt lat="25.430768" lon="100.607431">
<time>2014-08-04T20:12:35Z</time></trkpt>
<trkpt lat="25.430849" lon="100.607182">
<time>2014-08-04T20:12:36Z</time></trkpt>
<trkpt lat="25.430899" lon="100.607122">
<time>2014-08-04T20:12:37Z</time></trkpt>
<trkpt lat="25.430949" lon="100.607052">
<time>2014-08-04T20:12:38Z</time></trkpt>
<trkpt lat="25.431139" lon="100.606902">
<time>2014-08-04T20:12:39Z</time></trkpt>
<trkpt lat="25.431329" lon="100.606792">
<time>2014-08-04T20:12:40Z</time></trkpt>
<trkpt lat="25.431569" lon="100.606742">
<time>2014-08-04T20:12:41Z</time></trkpt>
<trkpt lat="25.431799" lon="100.606732">
<time>2014-08-04T20:12:42Z</time></trkpt>
<trkpt lat="25.432039" lon="100.606702">
<time>2014-08-04T20:12:43Z</time></trkpt>
<trkpt lat="25.432279" lon="100.606662">
<time>2014-08-04T20:12:44Z</time></trkpt>
<trkpt lat="25.432519" lon="100.606602">
<time>2014-08-04T20:12:45Z</time></trkpt>
<trkpt lat="25.432749" lon="100.606512">
<time>2014-08-04T20:12:46Z</time></trkpt>
<trkpt lat="25.432979" lon="100.606402">
<time>2014-08-04T20:12:47Z</time></trkpt>
<trkpt lat="25.4332" lon="100.606282">
<time>2014-08-04T20:12:48Z</time></trkpt>
<trkpt lat="25.43341" lon="100.606152">
<time>2014-08-04T20:12:49Z</time></trkpt>
<trkpt lat="25.43362" lon="100.605993">
<time>2014-08-04T20:12:50Z</time></trkpt>
<trkpt lat="25.43381" lon="100.605843">
<time>2014-08-04T20:12:51Z</time></trkpt>
<trkpt lat="25.434" lon="100.605683">
<time>2014-08-04T20:12:52Z</time></trkpt>
<trkpt lat="25.43415" lon="100.605493">
<time>2014-08-04T20:12:53Z</time></trkpt>
<trkpt lat="25.43427" lon="100.605263">
<time>2014-08-04T20:12:54Z</time></trkpt>
<trkpt lat="25.43435" lon="100.605043">
<time>2014-08-04T20:12:55Z</time></trkpt>
<trkpt lat="25.43442" lon="100.604804">
<time>2014-08-04T20:12:56Z</time></trkpt>
<trkpt lat="25.43449" lon="100.604574">
<time>2014-08-04T20:12:57Z</time></trkpt>
<trkpt lat="25.434571" lon="100.604344">
<time>2014-08-04T20:12:58Z</time></trkpt>
<trkpt lat="25.434651" lon="100.604104">
<time>2014-08-04T20:12:59Z</time></trkpt>
<trkpt lat="25.434731" lon="100.603884">
<time>2014-08-04T20:13:00Z</time></trkpt>
<trkpt lat="25.434801" lon="100.603674">
<time>2014-08-04T20:13:01Z</time></trkpt>
<trkpt lat="25.434891" lon="100.603474">
<time>2014-08-04T20:13:02Z</time></trkpt>
<trkpt lat="25.435001" lon="100.603265">
<time>2014-08-04T20:13:03Z</time></trkpt>
<trkpt lat="25.435101" lon="100.603055">
<time>2014-08-04T20:13:04Z</time></trkpt>
<trkpt lat="25.435191" lon="100.602845">
<time>2014-08-04T20:13:05Z</time></trkpt>
<trkpt lat="25.435241" lon="100.602625">
<time>2014-08-04T20:13:06Z</time></trkpt>
<trkpt lat="25.435231" lon="100.602385">
<time>2014-08-04T20:13:07Z</time></trkpt>
<trkpt lat="25.435181" lon="100.602145">
<time>2014-08-04T20:13:08Z</time></trkpt>
<trkpt lat="25.435101" lon="100.601886">
<time>2014-08-04T20:13:09Z</time></trkpt>
<trkpt lat="25.435011" lon="100.601616">
<time>2014-08-04T20:13:10Z</time></trkpt>
<trkpt lat="25.434881" lon="100.601346">
<time>2014-08-04T20:13:11Z</time></trkpt>
<trkpt lat="25.434731" lon="100.601086">
<time>2014-08-04T20:13:12Z</time></trkpt>
<trkpt lat="25.434601" lon="100.600836">
<time>2014-08-04T20:13:13Z</time></trkpt>
<trkpt lat="25.434471" lon="100.600596">
<time>2014-08-04T20:13:14Z</time></trkpt>
<trkpt lat="25.434351" lon="100.600356">
<time>2014-08-04T20:13:15Z</time></trkpt>
<trkpt lat="25.434241" lon="100.600107">
<time>2014-08-04T20:13:16Z</time></trkpt>
<trkpt lat="25.434161" lon="100.599887">
<time>2014-08-04T20:13:17Z</time></trkpt>
<trkpt lat="25.434101" lon="100.599637">
<time>2014-08-04T20:13:18Z</time></trkpt>
<trkpt lat="25.434092" lon="100.599397">
<time>2014-08-04T20:13:19Z</time></trkpt>
<trkpt lat="25.434102" lon="100.599147">
<time>2014-08-04T20:13:20Z</time></trkpt>
<trkpt lat="25.434112" lon="100.598897">
<time>2014-08-04T20:13:21Z</time></trkpt>
<trkpt lat="25.434122" lon="100.598637">
<time>2014-08-04T20:13:22Z</time></trkpt>
<trkpt lat="25.434122" lon="100.598377">
<time>2014-08-04T20:13:23Z</time></trkpt>
<trkpt lat="25.434112" lon="100.598118">
<time>2014-08-04T20:13:24Z</time></trkpt>
<trkpt lat="25.434092" lon="100.597848">
<time>2014-08-04T20:13:25Z</time></trkpt>
<trkpt lat="25.434072" lon="100.597578">
<time>2014-08-04T20:13:26Z</time></trkpt>
<trkpt lat="25.434042" lon="100.597318">
<time>2014-08-04T20:13:27Z</time></trkpt>
<trkpt lat="25.433992" lon="100.597058">
<time>2014-08-04T20:13:28Z</time></trkpt>
<trkpt lat="25.433952" lon="100.596798">
<time>2014-08-04T20:13:29Z</time></trkpt>
<trkpt lat="25.433912" lon="100.596538">
<time>2014-08-04T20:13:30Z</time></trkpt>
<trkpt lat="25.433882" lon="100.596298">
<time>2014-08-04T20:13:31Z</time></trkpt>
<trkpt lat="25.433822" lon="100.596078">
<time>2014-08-04T20:13:32Z</time></trkpt>
<trkpt lat="25.433792" lon="100.595858">
<time>2014-08-04T20:13:33Z</time></trkpt>
<trkpt lat="25.433822" lon="100.595529">
<time>2014-08-04T20:13:34Z</time></trkpt>
<trkpt lat="25.433912" lon="100.595239">
<time>2014-08-04T20:13:35Z</time></trkpt>
<trkpt lat="25.433972" lon="100.595009">
<time>2014-08-04T20:13:36Z</time></trkpt>
<trkpt lat="25.434042" lon="100.594789">
<time>2014-08-04T20:13:37Z</time></trkpt>
<trkpt lat="25.434122" lon="100.594549">
<time>2014-08-04T20:13:38Z</time></trkpt>
<trkpt lat="25.434192" lon="100.594329">
<time>2014-08-04T20:13:39Z</time></trkpt>
<trkpt lat="25.434262" lon="100.594099">
<time>2014-08-04T20:13:40Z</time></trkpt>
<trkpt lat="25.434332" lon="100.593849">
<time>2014-08-04T20:13:41Z</time></trkpt>
<trkpt lat="25.434401" lon="100.593609">
<time>2014-08-04T20:13:42Z</time></trkpt>
<trkpt lat="25.434461" lon="100.593359">
<time>2014-08-04T20:13:43Z</time></trkpt>
<trkpt lat="25.434531" lon="100.593109">
<time>2014-08-04T20:13:44Z</time></trkpt>
<trkpt lat="25.434631" lon="100.592869">
<time>2014-08-04T20:13:45Z</time></trkpt>
<trkpt lat="25.434711" lon="100.592599">
<time>2014-08-04T20:13:46Z</time></trkpt>
<trkpt lat="25.434781" lon="100.592369">
<time>2014-08-04T20:13:47Z</time></trkpt>
<trkpt lat="25.434851" lon="100.592139">
<time>2014-08-04T20:13:48Z</time></trkpt>
<trkpt lat="25.434911" lon="100.591929">
<time>2014-08-04T20:13:49Z</time></trkpt>
<trkpt lat="25.435001" lon="100.591719">
<time>2014-08-04T20:13:50Z</time></trkpt>
<trkpt lat="25.435061" lon="100.591499">
<time>2014-08-04T20:13:51Z</time></trkpt>
<trkpt lat="25.435141" lon="100.591299">
<time>2014-08-04T20:13:52Z</time></trkpt>
<trkpt lat="25.435201" lon="100.591109">
<time>2014-08-04T20:13:53Z</time></trkpt>
<trkpt lat="25.435251" lon="100.590909">
<time>2014-08-04T20:13:54Z</time></trkpt>
<trkpt lat="25.435311" lon="100.590719">
<time>2014-08-04T20:13:55Z</time></trkpt>
<trkpt lat="25.435371" lon="100.590519">
<time>2014-08-04T20:13:56Z</time></trkpt>
<trkpt lat="25.435431" lon="100.590319">
<time>2014-08-04T20:13:57Z</time></trkpt>
<trkpt lat="25.435481" lon="100.590129">
<time>2014-08-04T20:13:58Z</time></trkpt>
<trkpt lat="25.435541" lon="100.589949">
<time>2014-08-04T20:13:59Z</time></trkpt>
<trkpt lat="25.435591" lon="100.589759">
<time>2014-08-04T20:14:00Z</time></trkpt>
<trkpt lat="25.435641" lon="100.589589">
<time>2014-08-04T20:14:01Z</time></trkpt>
<trkpt lat="25.435701" lon="100.589419">
<time>2014-08-04T20:14:02Z</time></trkpt>
<trkpt lat="25.435751" lon="100.589239">
<time>2014-08-04T20:14:03Z</time></trkpt>
<trkpt lat="25.435811" lon="100.589069">
<time>2014-08-04T20:14:04Z</time></trkpt>
<trkpt lat="25.435851" lon="100.588899">
<time>2014-08-04T20:14:05Z</time></trkpt>
<trkpt lat="25.435901" lon="100.588749">
<time>2014-08-04T20:14:06Z</time></trkpt>
<trkpt lat="25.435941" lon="100.588619">
<time>2014-08-04T20:14:07Z</time></trkpt>
<trkpt lat="25.435981" lon="100.588509">
<time>2014-08-04T20:14:08Z</time></trkpt>
<trkpt lat="25.436021" lon="100.588389">
<time>2014-08-04T20:14:09Z</time></trkpt>
<trkpt lat="25.43607" lon="100.588249">
<time>2014-08-04T20:14:10Z</time></trkpt>
<trkpt lat="25.43614" lon="100.588039">
<time>2014-08-04T20:14:11Z</time></trkpt>
<trkpt lat="25.4362" lon="100.587849">
<time>2014-08-04T20:14:12Z</time></trkpt>
<trkpt lat="25.43625" lon="100.587759">
<time>2014-08-04T20:14:13Z</time></trkpt>
<trkpt lat="25.4363" lon="100.587669">
<time>2014-08-04T20:14:14Z</time></trkpt>
<trkpt lat="25.43637" lon="100.587599">
<time>2014-08-04T20:14:15Z</time></trkpt>
<trkpt lat="25.43644" lon="100.587529">
<time>2014-08-04T20:14:16Z</time></trkpt>
<trkpt lat="25.43653" lon="100.587449">
<time>2014-08-04T20:14:17Z</time></trkpt>
<trkpt lat="25.43663" lon="100.587369">
<time>2014-08-04T20:14:18Z</time></trkpt>
<trkpt lat="25.43676" lon="100.587309">
<time>2014-08-04T20:14:19Z</time></trkpt>
<trkpt lat="25.4369" lon="100.587279">
<time>2014-08-04T20:14:20Z</time></trkpt>
<trkpt lat="25.43703" lon="100.587269">
<time>2014-08-04T20:14:21Z</time></trkpt>
<trkpt lat="25.43718" lon="100.587279">
<time>2014-08-04T20:14:22Z</time></trkpt>
<trkpt lat="25.43741" lon="100.587279">
<time>2014-08-04T20:14:23Z</time></trkpt>
<trkpt lat="25.43756" lon="100.587259">
<time>2014-08-04T20:14:24Z</time></trkpt>
<trkpt lat="25.43771" lon="100.587239">
<time>2014-08-04T20:14:25Z</time></trkpt>
<trkpt lat="25.43786" lon="100.587179">
<time>2014-08-04T20:14:26Z</time></trkpt>
<trkpt lat="25.438" lon="100.587079">
<time>2014-08-04T20:14:27Z</time></trkpt>
<trkpt lat="25.43813" lon="100.586939">
<time>2014-08-04T20:14:28Z</time></trkpt>
<trkpt lat="25.43826" lon="100.586789">
<time>2014-08-04T20:14:29Z</time></trkpt>
<trkpt lat="25.43839" lon="100.586619">
<time>2014-08-04T20:14:30Z</time></trkpt>
<trkpt lat="25.43849" lon="100.586479">
<time>2014-08-04T20:14:31Z</time></trkpt>
<trkpt lat="25.43858" lon="100.586249">
<time>2014-08-04T20:14:32Z</time></trkpt>
<trkpt lat="25.43869" lon="100.586099">
<time>2014-08-04T20:14:33Z</time></trkpt>
<trkpt lat="25.43879" lon="100.585959">
<time>2014-08-04T20:14:34Z</time></trkpt>
<trkpt lat="25.43889" lon="100.585809">
<time>2014-08-04T20:14:35Z</time></trkpt>
<trkpt lat="25.439" lon="100.585659">
<time>2014-08-04T20:14:36Z</time></trkpt>
<trkpt lat="25.43908" lon="100.585489">
<time>2014-08-04T20:14:37Z</time></trkpt>
<trkpt lat="25.4392" lon="100.585369">
<time>2014-08-04T20:14:38Z</time></trkpt>
<trkpt lat="25.43929" lon="100.585229">
<time>2014-08-04T20:14:39Z</time></trkpt>
<trkpt lat="25.43939" lon="100.585089">
<time>2014-08-04T20:14:40Z</time></trkpt>
<trkpt lat="25.4395" lon="100.584949">
<time>2014-08-04T20:14:41Z</time></trkpt>
<trkpt lat="25.43959" lon="100.584799">
<time>2014-08-04T20:14:42Z</time></trkpt>
<trkpt lat="25.43968" lon="100.584669">
<time>2014-08-04T20:14:43Z</time></trkpt>
<trkpt lat="25.43977" lon="100.584519">
<time>2014-08-04T20:14:44Z</time></trkpt>
<trkpt lat="25.43983" lon="100.584369">
<time>2014-08-04T20:14:45Z</time></trkpt>
<trkpt lat="25.439929" lon="100.584199">
<time>2014-08-04T20:14:46Z</time></trkpt>
<trkpt lat="25.440009" lon="100.584049">
<time>2014-08-04T20:14:47Z</time></trkpt>
<trkpt lat="25.440119" lon="100.583839">
<time>2014-08-04T20:14:48Z</time></trkpt>
<trkpt lat="25.440249" lon="100.583668">
<time>2014-08-04T20:14:49Z</time></trkpt>
<trkpt lat="25.440329" lon="100.583498">
<time>2014-08-04T20:14:50Z</time></trkpt>
<trkpt lat="25.440399" lon="100.583358">
<time>2014-08-04T20:14:51Z</time></trkpt>
<trkpt lat="25.440469" lon="100.583208">
<time>2014-08-04T20:14:52Z</time></trkpt>
<trkpt lat="25.440519" lon="100.583098">
<time>2014-08-04T20:14:53Z</time></trkpt>
<trkpt lat="25.440529" lon="100.583068">
<time>2014-08-04T20:14:54Z</time></trkpt>
<trkpt lat="25.440589" lon="100.582928">
<time>2014-08-04T20:14:55Z</time></trkpt>
<trkpt lat="25.440649" lon="100.582778">
<time>2014-08-04T20:14:56Z</time></trkpt>
<trkpt lat="25.440709" lon="100.582638">
<time>2014-08-04T20:14:57Z</time></trkpt>
<trkpt lat="25.440769" lon="100.582498">
<time>2014-08-04T20:14:58Z</time></trkpt>
<trkpt lat="25.440829" lon="100.582358">
<time>2014-08-04T20:14:59Z</time></trkpt>
<trkpt lat="25.440859" lon="100.582308">
<time>2014-08-04T20:15:00Z</time></trkpt>
<trkpt lat="25.440899" lon="100.582198">
<time>2014-08-04T20:15:01Z</time></trkpt>
<trkpt lat="25.440958" lon="100.582048">
<time>2014-08-04T20:15:02Z</time></trkpt>
<trkpt lat="25.441028" lon="100.581898">
<time>2014-08-04T20:15:03Z</time></trkpt>
<trkpt lat="25.441098" lon="100.581738">
<time>2014-08-04T20:15:04Z</time></trkpt>
<trkpt lat="25.441168" lon="100.581578">
<time>2014-08-04T20:15:05Z</time></trkpt>
<trkpt lat="25.441238" lon="100.581428">
<time>2014-08-04T20:15:06Z</time></trkpt>
<trkpt lat="25.441298" lon="100.581298">
<time>2014-08-04T20:15:07Z</time></trkpt>
<trkpt lat="25.441348" lon="100.581168">
<time>2014-08-04T20:15:08Z</time></trkpt>
<trkpt lat="25.441398" lon="100.581048">
<time>2014-08-04T20:15:09Z</time></trkpt>
<trkpt lat="25.441458" lon="100.580927">
<time>2014-08-04T20:15:10Z</time></trkpt>
<trkpt lat="25.441518" lon="100.580797">
<time>2014-08-04T20:15:11Z</time></trkpt>
<trkpt lat="25.441578" lon="100.580677">
<time>2014-08-04T20:15:12Z</time></trkpt>
<trkpt lat="25.441638" lon="100.580557">
<time>2014-08-04T20:15:13Z</time></trkpt>
<trkpt lat="25.441697" lon="100.580427">
<time>2014-08-04T20:15:14Z</time></trkpt>
<trkpt lat="25.441757" lon="100.580297">
<time>2014-08-04T20:15:15Z</time></trkpt>
<trkpt lat="25.441827" lon="100.580147">
<time>2014-08-04T20:15:16Z</time></trkpt>
<trkpt lat="25.441877" lon="100.580037">
<time>2014-08-04T20:15:17Z</time></trkpt>
<trkpt lat="25.441947" lon="100.579897">
<time>2014-08-04T20:15:18Z</time></trkpt>
<trkpt lat="25.441997" lon="100.579787">
<time>2014-08-04T20:15:19Z</time></trkpt>
<trkpt lat="25.442047" lon="100.579647">
<time>2014-08-04T20:15:20Z</time></trkpt>
<trkpt lat="25.442097" lon="100.579507">
<time>2014-08-04T20:15:21Z</time></trkpt>
<trkpt lat="25.442147" lon="100.579407">
<time>2014-08-04T20:15:22Z</time></trkpt>
<trkpt lat="25.442167" lon="100.579357">
<time>2014-08-04T20:15:23Z</time></trkpt>
<trkpt lat="25.442227" lon="100.579187">
<time>2014-08-04T20:15:24Z</time></trkpt>
<trkpt lat="25.442297" lon="100.579047">
<time>2014-08-04T20:15:25Z</time></trkpt>
<trkpt lat="25.442366" lon="100.578886">
<time>2014-08-04T20:15:26Z</time></trkpt>
<trkpt lat="25.442446" lon="100.578706">
<time>2014-08-04T20:15:27Z</time></trkpt>
<trkpt lat="25.442526" lon="100.578516">
<time>2014-08-04T20:15:28Z</time></trkpt>
<trkpt lat="25.442606" lon="100.578346">
<time>2014-08-04T20:15:29Z</time></trkpt>
<trkpt lat="25.442696" lon="100.578166">
<time>2014-08-04T20:15:30Z</time></trkpt>
<trkpt lat="25.442766" lon="100.577996">
<time>2014-08-04T20:15:31Z</time></trkpt>
<trkpt lat="25.442846" lon="100.577826">
<time>2014-08-04T20:15:32Z</time></trkpt>
<trkpt lat="25.442936" lon="100.577666">
<time>2014-08-04T20:15:33Z</time></trkpt>
<trkpt lat="25.443025" lon="100.577506">
<time>2014-08-04T20:15:34Z</time></trkpt>
<trkpt lat="25.443145" lon="100.577376">
<time>2014-08-04T20:15:35Z</time></trkpt>
<trkpt lat="25.443275" lon="100.577256">
<time>2014-08-04T20:15:36Z</time></trkpt>
<trkpt lat="25.443405" lon="100.577125">
<time>2014-08-04T20:15:37Z</time></trkpt>
<trkpt lat="25.443535" lon="100.576995">
<time>2014-08-04T20:15:38Z</time></trkpt>
<trkpt lat="25.443665" lon="100.576865">
<time>2014-08-04T20:15:39Z</time></trkpt>
<trkpt lat="25.443805" lon="100.576735">
<time>2014-08-04T20:15:40Z</time></trkpt>
<trkpt lat="25.443935" lon="100.576615">
<time>2014-08-04T20:15:41Z</time></trkpt>
<trkpt lat="25.444075" lon="100.576495">
<time>2014-08-04T20:15:42Z</time></trkpt>
<trkpt lat="25.444235" lon="100.576315">
<time>2014-08-04T20:15:43Z</time></trkpt>
<trkpt lat="25.444385" lon="100.576165">
<time>2014-08-04T20:15:44Z</time></trkpt>
<trkpt lat="25.444524" lon="100.576025">
<time>2014-08-04T20:15:45Z</time></trkpt>
<trkpt lat="25.444674" lon="100.575885">
<time>2014-08-04T20:15:46Z</time></trkpt>
<trkpt lat="25.444814" lon="100.575744">
<time>2014-08-04T20:15:47Z</time></trkpt>
<trkpt lat="25.444984" lon="100.575614">
<time>2014-08-04T20:15:48Z</time></trkpt>
<trkpt lat="25.445154" lon="100.575484">
<time>2014-08-04T20:15:49Z</time></trkpt>
<trkpt lat="25.445284" lon="100.575354">
<time>2014-08-04T20:15:50Z</time></trkpt>
<trkpt lat="25.445444" lon="100.575214">
<time>2014-08-04T20:15:51Z</time></trkpt>
<trkpt lat="25.445604" lon="100.575074">
<time>2014-08-04T20:15:52Z</time></trkpt>
<trkpt lat="25.445734" lon="100.574954">
<time>2014-08-04T20:15:53Z</time></trkpt>
<trkpt lat="25.445904" lon="100.574804">
<time>2014-08-04T20:15:54Z</time></trkpt>
<trkpt lat="25.446064" lon="100.574624">
<time>2014-08-04T20:15:55Z</time></trkpt>
<trkpt lat="25.446243" lon="100.574444">
<time>2014-08-04T20:15:56Z</time></trkpt>
<trkpt lat="25.446423" lon="100.574293">
<time>2014-08-04T20:15:57Z</time></trkpt>
<trkpt lat="25.446603" lon="100.574133">
<time>2014-08-04T20:15:58Z</time></trkpt>
<trkpt lat="25.446803" lon="100.573973">
<time>2014-08-04T20:15:59Z</time></trkpt>
<trkpt lat="25.447043" lon="100.573793">
<time>2014-08-04T20:16:00Z</time></trkpt>
<trkpt lat="25.447273" lon="100.573623">
<time>2014-08-04T20:16:01Z</time></trkpt>
<trkpt lat="25.447523" lon="100.573433">
<time>2014-08-04T20:16:02Z</time></trkpt>
<trkpt lat="25.447723" lon="100.573253">
<time>2014-08-04T20:16:03Z</time></trkpt>
<trkpt lat="25.447922" lon="100.573092">
<time>2014-08-04T20:16:04Z</time></trkpt>
<trkpt lat="25.448132" lon="100.572972">
<time>2014-08-04T20:16:05Z</time></trkpt>
<trkpt lat="25.448342" lon="100.572882">
<time>2014-08-04T20:16:06Z</time></trkpt>
<trkpt lat="25.448542" lon="100.572822">
<time>2014-08-04T20:16:07Z</time></trkpt>
<trkpt lat="25.448732" lon="100.572782">
<time>2014-08-04T20:16:08Z</time></trkpt>
<trkpt lat="25.448932" lon="100.572732">
<time>2014-08-04T20:16:09Z</time></trkpt>
<trkpt lat="25.449112" lon="100.572692">
<time>2014-08-04T20:16:10Z</time></trkpt>
<trkpt lat="25.449292" lon="100.572642">
<time>2014-08-04T20:16:11Z</time></trkpt>
<trkpt lat="25.449472" lon="100.572612">
<time>2014-08-04T20:16:12Z</time></trkpt>
<trkpt lat="25.449672" lon="100.572552">
<time>2014-08-04T20:16:13Z</time></trkpt>
<trkpt lat="25.449852" lon="100.572522">
<time>2014-08-04T20:16:14Z</time></trkpt>
<trkpt lat="25.450012" lon="100.572482">
<time>2014-08-04T20:16:15Z</time></trkpt>
<trkpt lat="25.450042" lon="100.572472">
<time>2014-08-04T20:16:16Z</time></trkpt>
<trkpt lat="25.450222" lon="100.572422">
<time>2014-08-04T20:16:17Z</time></trkpt>
<trkpt lat="25.450372" lon="100.572332">
<time>2014-08-04T20:16:18Z</time></trkpt>
<trkpt lat="25.450472" lon="100.572192">
<time>2014-08-04T20:16:19Z</time></trkpt>
<trkpt lat="25.450542" lon="100.572051">
<time>2014-08-04T20:16:20Z</time></trkpt>
<trkpt lat="25.450582" lon="100.571901">
<time>2014-08-04T20:16:21Z</time></trkpt>
<trkpt lat="25.450632" lon="100.571771">
<time>2014-08-04T20:16:22Z</time></trkpt>
<trkpt lat="25.450692" lon="100.571661">
<time>2014-08-04T20:16:23Z</time></trkpt>
<trkpt lat="25.450751" lon="100.571541">
<time>2014-08-04T20:16:24Z</time></trkpt>
<trkpt lat="25.450821" lon="100.571381">
<time>2014-08-04T20:16:25Z</time></trkpt>
<trkpt lat="25.450851" lon="100.571281">
<time>2014-08-04T20:16:26Z</time></trkpt>
<trkpt lat="25.450911" lon="100.571151">
<time>2014-08-04T20:16:27Z</time></trkpt>
<trkpt lat="25.450951" lon="100.571021">
<time>2014-08-04T20:16:28Z</time></trkpt>
<trkpt lat="25.451001" lon="100.57091">
<time>2014-08-04T20:16:29Z</time></trkpt>
<trkpt lat="25.451041" lon="100.57081">
<time>2014-08-04T20:16:30Z</time></trkpt>
<trkpt lat="25.451091" lon="100.57068">
<time>2014-08-04T20:16:31Z</time></trkpt>
<trkpt lat="25.45114" lon="100.57054">
<time>2014-08-04T20:16:32Z</time></trkpt>
<trkpt lat="25.4512" lon="100.57038">
<time>2014-08-04T20:16:33Z</time></trkpt>
<trkpt lat="25.45127" lon="100.57022">
<time>2014-08-04T20:16:34Z</time></trkpt>
<trkpt lat="25.45134" lon="100.57006">
<time>2014-08-04T20:16:35Z</time></trkpt>
<trkpt lat="25.45142" lon="100.569889">
<time>2014-08-04T20:16:36Z</time></trkpt>
<trkpt lat="25.451489" lon="100.569719">
<time>2014-08-04T20:16:37Z</time></trkpt>
<trkpt lat="25.451559" lon="100.569579">
<time>2014-08-04T20:16:38Z</time></trkpt>
<trkpt lat="25.451619" lon="100.569439">
<time>2014-08-04T20:16:39Z</time></trkpt>
<trkpt lat="25.451669" lon="100.569319">
<time>2014-08-04T20:16:40Z</time></trkpt>
<trkpt lat="25.451719" lon="100.569229">
<time>2014-08-04T20:16:41Z</time></trkpt>
<trkpt lat="25.451759" lon="100.569109">
<time>2014-08-04T20:16:42Z</time></trkpt>
<trkpt lat="25.451809" lon="100.568938">
<time>2014-08-04T20:16:43Z</time></trkpt>
<trkpt lat="25.451819" lon="100.568868">
<time>2014-08-04T20:16:44Z</time></trkpt>
<trkpt lat="25.451828" lon="100.568798">
<time>2014-08-04T20:16:45Z</time></trkpt>
<trkpt lat="25.451838" lon="100.568778">
<time>2014-08-04T20:16:46Z</time></trkpt>
<trkpt lat="25.451828" lon="100.568618">
<time>2014-08-04T20:16:47Z</time></trkpt>
<trkpt lat="25.451828" lon="100.568518">
<time>2014-08-04T20:16:48Z</time></trkpt>
<trkpt lat="25.451808" lon="100.568398">
<time>2014-08-04T20:16:49Z</time></trkpt>
<trkpt lat="25.451798" lon="100.568268">
<time>2014-08-04T20:16:50Z</time></trkpt>
<trkpt lat="25.451778" lon="100.568168">
<time>2014-08-04T20:16:51Z</time></trkpt>
<trkpt lat="25.451747" lon="100.568018">
<time>2014-08-04T20:16:52Z</time></trkpt>
<trkpt lat="25.451697" lon="100.567887">
<time>2014-08-04T20:16:53Z</time></trkpt>
<trkpt lat="25.451637" lon="100.567757">
<time>2014-08-04T20:16:54Z</time></trkpt>
<trkpt lat="25.451577" lon="100.567627">
<time>2014-08-04T20:16:55Z</time></trkpt>
<trkpt lat="25.451507" lon="100.567517">
<time>2014-08-04T20:16:56Z</time></trkpt>
<trkpt lat="25.451447" lon="100.567427">
<time>2014-08-04T20:16:57Z</time></trkpt>
<trkpt lat="25.451366" lon="100.567327">
<time>2014-08-04T20:16:58Z</time></trkpt>
<trkpt lat="25.451286" lon="100.567247">
<time>2014-08-04T20:16:59Z</time></trkpt>
<trkpt lat="25.451186" lon="100.567147">
<time>2014-08-04T20:17:00Z</time></trkpt>
<trkpt lat="25.451106" lon="100.567076">
<time>2014-08-04T20:17:01Z</time></trkpt>
<trkpt lat="25.451006" lon="100.566986">
<time>2014-08-04T20:17:02Z</time></trkpt>
<trkpt lat="25.450926" lon="100.566916">
<time>2014-08-04T20:17:03Z</time></trkpt>
<trkpt lat="25.450856" lon="100.566836">
<time>2014-08-04T20:17:04Z</time></trkpt>
<trkpt lat="25.450766" lon="100.566736">
<time>2014-08-04T20:17:05Z</time></trkpt>
<trkpt lat="25.450675" lon="100.566646">
<time>2014-08-04T20:17:06Z</time></trkpt>
<trkpt lat="25.450605" lon="100.566566">
<time>2014-08-04T20:17:07Z</time></trkpt>
<trkpt lat="25.450545" lon="100.566496">
<time>2014-08-04T20:17:08Z</time></trkpt>
<trkpt lat="25.450455" lon="100.566406">
<time>2014-08-04T20:17:09Z</time></trkpt>
<trkpt lat="25.450425" lon="100.566366">
<time>2014-08-04T20:17:10Z</time></trkpt>
<trkpt lat="25.450365" lon="100.566306">
<time>2014-08-04T20:17:11Z</time></trkpt>
<trkpt lat="25.450335" lon="100.566256">
<time>2014-08-04T20:17:12Z</time></trkpt>
<trkpt lat="25.450285" lon="100.566196">
<time>2014-08-04T20:17:13Z</time></trkpt>
<trkpt lat="25.450205" lon="100.566105">
<time>2014-08-04T20:17:14Z</time></trkpt>
<trkpt lat="25.450134" lon="100.566015">
<time>2014-08-04T20:17:15Z</time></trkpt>
<trkpt lat="25.450074" lon="100.565905">
<time>2014-08-04T20:17:16Z</time></trkpt>
<trkpt lat="25.449944" lon="100.565775">
<time>2014-08-04T20:17:17Z</time></trkpt>
<trkpt lat="25.449804" lon="100.565645">
<time>2014-08-04T20:17:18Z</time></trkpt>
<trkpt lat="25.449694" lon="100.565525">
<time>2014-08-04T20:17:19Z</time></trkpt>
<trkpt lat="25.449603" lon="100.565415">
<time>2014-08-04T20:17:20Z</time></trkpt>
<trkpt lat="25.449513" lon="100.565284">
<time>2014-08-04T20:17:21Z</time></trkpt>
<trkpt lat="25.449433" lon="100.565154">
<time>2014-08-04T20:17:22Z</time></trkpt>
<trkpt lat="25.449383" lon="100.565024">
<time>2014-08-04T20:17:23Z</time></trkpt>
<trkpt lat="25.449343" lon="100.564894">
<time>2014-08-04T20:17:24Z</time></trkpt>
<trkpt lat="25.449322" lon="100.564754">
<time>2014-08-04T20:17:25Z</time></trkpt>
<trkpt lat="25.449312" lon="100.564624">
<time>2014-08-04T20:17:26Z</time></trkpt>
<trkpt lat="25.449322" lon="100.564453">
<time>2014-08-04T20:17:27Z</time></trkpt>
<trkpt lat="25.449322" lon="100.564293">
<time>2014-08-04T20:17:28Z</time></trkpt>
<trkpt lat="25.449332" lon="100.564133">
<time>2014-08-04T20:17:29Z</time></trkpt>
<trkpt lat="25.449341" lon="100.563963">
<time>2014-08-04T20:17:30Z</time></trkpt>
<trkpt lat="25.449351" lon="100.563773">
<time>2014-08-04T20:17:31Z</time></trkpt>
<trkpt lat="25.449361" lon="100.563612">
<time>2014-08-04T20:17:32Z</time></trkpt>
<trkpt lat="25.44936" lon="100.563412">
<time>2014-08-04T20:17:33Z</time></trkpt>
<trkpt lat="25.44937" lon="100.563232">
<time>2014-08-04T20:17:34Z</time></trkpt>
<trkpt lat="25.44938" lon="100.563072">
<time>2014-08-04T20:17:35Z</time></trkpt>
<trkpt lat="25.44938" lon="100.562901">
<time>2014-08-04T20:17:36Z</time></trkpt>
<trkpt lat="25.449389" lon="100.562731">
<time>2014-08-04T20:17:37Z</time></trkpt>
<trkpt lat="25.449399" lon="100.562581">
<time>2014-08-04T20:17:38Z</time></trkpt>
<trkpt lat="25.449399" lon="100.562461">
<time>2014-08-04T20:17:39Z</time></trkpt>
<trkpt lat="25.449409" lon="100.562281">
<time>2014-08-04T20:17:40Z</time></trkpt>
<trkpt lat="25.449409" lon="100.56218">
<time>2014-08-04T20:17:41Z</time></trkpt>
<trkpt lat="25.449408" lon="100.56205">
<time>2014-08-04T20:17:42Z</time></trkpt>
<trkpt lat="25.449408" lon="100.5619">
<time>2014-08-04T20:17:43Z</time></trkpt>
<trkpt lat="25.449408" lon="100.56175">
<time>2014-08-04T20:17:44Z</time></trkpt>
<trkpt lat="25.449398" lon="100.56159">
<time>2014-08-04T20:17:45Z</time></trkpt>
<trkpt lat="25.449407" lon="100.561419">
<time>2014-08-04T20:17:46Z</time></trkpt>
<trkpt lat="25.449417" lon="100.561239">
<time>2014-08-04T20:17:47Z</time></trkpt>
<trkpt lat="25.449437" lon="100.561049">
<time>2014-08-04T20:17:48Z</time></trkpt>
<trkpt lat="25.449447" lon="100.560839">
<time>2014-08-04T20:17:49Z</time></trkpt>
<trkpt lat="25.449456" lon="100.560638">
<time>2014-08-04T20:17:50Z</time></trkpt>
<trkpt lat="25.449476" lon="100.560418">
<time>2014-08-04T20:17:51Z</time></trkpt>
<trkpt lat="25.449486" lon="100.560218">
<time>2014-08-04T20:17:52Z</time></trkpt>
<trkpt lat="25.449495" lon="100.560017">
<time>2014-08-04T20:17:53Z</time></trkpt>
<trkpt lat="25.449505" lon="100.559827">
<time>2014-08-04T20:17:54Z</time></trkpt>
<trkpt lat="25.449505" lon="100.559657">
<time>2014-08-04T20:17:55Z</time></trkpt>
<trkpt lat="25.449504" lon="100.559487">
<time>2014-08-04T20:17:56Z</time></trkpt>
<trkpt lat="25.449514" lon="100.559336">
<time>2014-08-04T20:17:57Z</time></trkpt>
<trkpt lat="25.449514" lon="100.559196">
<time>2014-08-04T20:17:58Z</time></trkpt>
<trkpt lat="25.449514" lon="100.559056">
<time>2014-08-04T20:17:59Z</time></trkpt>
<trkpt lat="25.449533" lon="100.558916">
<time>2014-08-04T20:18:00Z</time></trkpt>
<trkpt lat="25.449523" lon="100.558776">
<time>2014-08-04T20:18:01Z</time></trkpt>
<trkpt lat="25.449543" lon="100.558585">
<time>2014-08-04T20:18:02Z</time></trkpt>
<trkpt lat="25.449553" lon="100.558405">
<time>2014-08-04T20:18:03Z</time></trkpt>
<trkpt lat="25.449562" lon="100.558245">
<time>2014-08-04T20:18:04Z</time></trkpt>
<trkpt lat="25.449572" lon="100.558115">
<time>2014-08-04T20:18:05Z</time></trkpt>
<trkpt lat="25.449572" lon="100.557984">
<time>2014-08-04T20:18:06Z</time></trkpt>
<trkpt lat="25.449572" lon="100.557864">
<time>2014-08-04T20:18:07Z</time></trkpt>
<trkpt lat="25.449591" lon="100.557684">
<time>2014-08-04T20:18:08Z</time></trkpt>
<trkpt lat="25.449611" lon="100.557494">
<time>2014-08-04T20:18:09Z</time></trkpt>
<trkpt lat="25.449641" lon="100.557333">
<time>2014-08-04T20:18:10Z</time></trkpt>
<trkpt lat="25.449651" lon="100.557173">
<time>2014-08-04T20:18:11Z</time></trkpt>
<trkpt lat="25.44966" lon="100.557063">
<time>2014-08-04T20:18:12Z</time></trkpt>
<trkpt lat="25.44966" lon="100.556953">
<time>2014-08-04T20:18:13Z</time></trkpt>
<trkpt lat="25.44966" lon="100.556833">
<time>2014-08-04T20:18:14Z</time></trkpt>
<trkpt lat="25.44968" lon="100.556732">
<time>2014-08-04T20:18:15Z</time></trkpt>
<trkpt lat="25.44968" lon="100.556612">
<time>2014-08-04T20:18:16Z</time></trkpt>
<trkpt lat="25.449689" lon="100.556502">
<time>2014-08-04T20:18:17Z</time></trkpt>
<trkpt lat="25.449689" lon="100.556372">
<time>2014-08-04T20:18:18Z</time></trkpt>
<trkpt lat="25.449699" lon="100.556252">
<time>2014-08-04T20:18:19Z</time></trkpt>
<trkpt lat="25.449699" lon="100.556121">
<time>2014-08-04T20:18:20Z</time></trkpt>
<trkpt lat="25.449708" lon="100.556001">
<time>2014-08-04T20:18:21Z</time></trkpt>
<trkpt lat="25.449708" lon="100.555871">
<time>2014-08-04T20:18:22Z</time></trkpt>
<trkpt lat="25.449708" lon="100.555751">
<time>2014-08-04T20:18:23Z</time></trkpt>
<trkpt lat="25.449718" lon="100.555621">
<time>2014-08-04T20:18:24Z</time></trkpt>
<trkpt lat="25.449718" lon="100.55551">
<time>2014-08-04T20:18:25Z</time></trkpt>
<trkpt lat="25.449727" lon="100.55539">
<time>2014-08-04T20:18:26Z</time></trkpt>
<trkpt lat="25.449737" lon="100.55526">
<time>2014-08-04T20:18:27Z</time></trkpt>
<trkpt lat="25.449747" lon="100.55513">
<time>2014-08-04T20:18:28Z</time></trkpt>
<trkpt lat="25.449747" lon="100.555">
<time>2014-08-04T20:18:29Z</time></trkpt>
<trkpt lat="25.449766" lon="100.554869">
<time>2014-08-04T20:18:30Z</time></trkpt>
<trkpt lat="25.449776" lon="100.554759">
<time>2014-08-04T20:18:31Z</time></trkpt>
<trkpt lat="25.449786" lon="100.554649">
<time>2014-08-04T20:18:32Z</time></trkpt>
<trkpt lat="25.449786" lon="100.554539">
<time>2014-08-04T20:18:33Z</time></trkpt>
<trkpt lat="25.449796" lon="100.554429">
<time>2014-08-04T20:18:34Z</time></trkpt>
<trkpt lat="25.449805" lon="100.554298">
<time>2014-08-04T20:18:35Z</time></trkpt>
<trkpt lat="25.449805" lon="100.554178">
<time>2014-08-04T20:18:36Z</time></trkpt>
<trkpt lat="25.449805" lon="100.554068">
<time>2014-08-04T20:18:37Z</time></trkpt>
<trkpt lat="25.449815" lon="100.553948">
<time>2014-08-04T20:18:38Z</time></trkpt>
<trkpt lat="25.449815" lon="100.553818">
<time>2014-08-04T20:18:39Z</time></trkpt>
<trkpt lat="25.449824" lon="100.553687">
<time>2014-08-04T20:18:40Z</time></trkpt>
<trkpt lat="25.449824" lon="100.553537">
<time>2014-08-04T20:18:41Z</time></trkpt>
<trkpt lat="25.449834" lon="100.553377">
<time>2014-08-04T20:18:42Z</time></trkpt>
<trkpt lat="25.449843" lon="100.553207">
<time>2014-08-04T20:18:43Z</time></trkpt>
<trkpt lat="25.449843" lon="100.553026">
<time>2014-08-04T20:18:44Z</time></trkpt>
<trkpt lat="25.449853" lon="100.552846">
<time>2014-08-04T20:18:45Z</time></trkpt>
<trkpt lat="25.449872" lon="100.552656">
<time>2014-08-04T20:18:46Z</time></trkpt>
<trkpt lat="25.449892" lon="100.552445">
<time>2014-08-04T20:18:47Z</time></trkpt>
<trkpt lat="25.449912" lon="100.552275">
<time>2014-08-04T20:18:48Z</time></trkpt>
<trkpt lat="25.449922" lon="100.552205">
<time>2014-08-04T20:18:49Z</time></trkpt>
<trkpt lat="25.449941" lon="100.552095">
<time>2014-08-04T20:18:50Z</time></trkpt>
<trkpt lat="25.449961" lon="100.551914">
<time>2014-08-04T20:18:51Z</time></trkpt>
<trkpt lat="25.450001" lon="100.551734">
<time>2014-08-04T20:18:52Z</time></trkpt>
<trkpt lat="25.45004" lon="100.551564">
<time>2014-08-04T20:18:53Z</time></trkpt>
<trkpt lat="25.45008" lon="100.551453">
<time>2014-08-04T20:18:54Z</time></trkpt>
<trkpt lat="25.4501" lon="100.551403">
<time>2014-08-04T20:18:55Z</time></trkpt>
<trkpt lat="25.45022" lon="100.551233">
<time>2014-08-04T20:18:56Z</time></trkpt>
<trkpt lat="25.450359" lon="100.551093">
<time>2014-08-04T20:18:57Z</time></trkpt>
<trkpt lat="25.450499" lon="100.550962">
<time>2014-08-04T20:18:58Z</time></trkpt>
<trkpt lat="25.450659" lon="100.550822">
<time>2014-08-04T20:18:59Z</time></trkpt>
<trkpt lat="25.450809" lon="100.550682">
<time>2014-08-04T20:19:00Z</time></trkpt>
<trkpt lat="25.450959" lon="100.550552">
<time>2014-08-04T20:19:01Z</time></trkpt>
<trkpt lat="25.451078" lon="100.550452">
<time>2014-08-04T20:19:02Z</time></trkpt>
<trkpt lat="25.451148" lon="100.550391">
<time>2014-08-04T20:19:03Z</time></trkpt>
<trkpt lat="25.451268" lon="100.550271">
<time>2014-08-04T20:19:04Z</time></trkpt>
<trkpt lat="25.451398" lon="100.550151">
<time>2014-08-04T20:19:05Z</time></trkpt>
<trkpt lat="25.451538" lon="100.550031">
<time>2014-08-04T20:19:06Z</time></trkpt>
<trkpt lat="25.451598" lon="100.549971">
<time>2014-08-04T20:19:07Z</time></trkpt>
<trkpt lat="25.451677" lon="100.54991">
<time>2014-08-04T20:19:08Z</time></trkpt>
<trkpt lat="25.451807" lon="100.54979">
<time>2014-08-04T20:19:09Z</time></trkpt>
<trkpt lat="25.451947" lon="100.54968">
<time>2014-08-04T20:19:10Z</time></trkpt>
<trkpt lat="25.452077" lon="100.54959">
<time>2014-08-04T20:19:11Z</time></trkpt>
<trkpt lat="25.452237" lon="100.54948">
<time>2014-08-04T20:19:12Z</time></trkpt>
<trkpt lat="25.452367" lon="100.54946">
<time>2014-08-04T20:19:13Z</time></trkpt>
<trkpt lat="25.452507" lon="100.54946">
<time>2014-08-04T20:19:14Z</time></trkpt>
<trkpt lat="25.452657" lon="100.54947">
<time>2014-08-04T20:19:15Z</time></trkpt>
<trkpt lat="25.452807" lon="100.54949">
<time>2014-08-04T20:19:16Z</time></trkpt>
<trkpt lat="25.452957" lon="100.54951">
<time>2014-08-04T20:19:17Z</time></trkpt>
<trkpt lat="25.453117" lon="100.54953">
<time>2014-08-04T20:19:18Z</time></trkpt>
<trkpt lat="25.453277" lon="100.54955">
<time>2014-08-04T20:19:19Z</time></trkpt>
<trkpt lat="25.453447" lon="100.54956">
<time>2014-08-04T20:19:20Z</time></trkpt>
<trkpt lat="25.453617" lon="100.54957">
<time>2014-08-04T20:19:21Z</time></trkpt>
<trkpt lat="25.453787" lon="100.54958">
<time>2014-08-04T20:19:22Z</time></trkpt>
<trkpt lat="25.453957" lon="100.54958">
<time>2014-08-04T20:19:23Z</time></trkpt>
<trkpt lat="25.454117" lon="100.54959">
<time>2014-08-04T20:19:24Z</time></trkpt>
<trkpt lat="25.454257" lon="100.54959">
<time>2014-08-04T20:19:25Z</time></trkpt>
<trkpt lat="25.454377" lon="100.54957">
<time>2014-08-04T20:19:26Z</time></trkpt>
<trkpt lat="25.454487" lon="100.54955">
<time>2014-08-04T20:19:27Z</time></trkpt>
<trkpt lat="25.454597" lon="100.54953">
<time>2014-08-04T20:19:28Z</time></trkpt>
<trkpt lat="25.454727" lon="100.54949">
<time>2014-08-04T20:19:29Z</time></trkpt>
<trkpt lat="25.454857" lon="100.54945">
<time>2014-08-04T20:19:30Z</time></trkpt>
<trkpt lat="25.454987" lon="100.549409">
<time>2014-08-04T20:19:31Z</time></trkpt>
<trkpt lat="25.455137" lon="100.549359">
<time>2014-08-04T20:19:32Z</time></trkpt>
<trkpt lat="25.455307" lon="100.549309">
<time>2014-08-04T20:19:33Z</time></trkpt>
<trkpt lat="25.455457" lon="100.549269">
<time>2014-08-04T20:19:34Z</time></trkpt>
<trkpt lat="25.455477" lon="100.549269">
<time>2014-08-04T20:19:35Z</time></trkpt>
<trkpt lat="25.455527" lon="100.549239">
<time>2014-08-04T20:19:36Z</time></trkpt>
<trkpt lat="25.455587" lon="100.549189">
<time>2014-08-04T20:19:37Z</time></trkpt>
<trkpt lat="25.455677" lon="100.549109">
<time>2014-08-04T20:19:38Z</time></trkpt>
<trkpt lat="25.455757" lon="100.549019">
<time>2014-08-04T20:19:39Z</time></trkpt>
<trkpt lat="25.455787" lon="100.548969">
<time>2014-08-04T20:19:40Z</time></trkpt>
<trkpt lat="25.455807" lon="100.548939">
<time>2014-08-04T20:19:41Z</time></trkpt>
<trkpt lat="25.455856" lon="100.548838">
<time>2014-08-04T20:19:42Z</time></trkpt>
<trkpt lat="25.455896" lon="100.548728">
<time>2014-08-04T20:19:43Z</time></trkpt>
<trkpt lat="25.455976" lon="100.548468">
<time>2014-08-04T20:19:44Z</time></trkpt>
<trkpt lat="25.456055" lon="100.548257">
<time>2014-08-04T20:19:45Z</time></trkpt>
<trkpt lat="25.456194" lon="100.547736">
<time>2014-08-04T20:19:46Z</time></trkpt>
<trkpt lat="25.456353" lon="100.547245">
<time>2014-08-04T20:19:47Z</time></trkpt>
<trkpt lat="25.456462" lon="100.546884">
<time>2014-08-04T20:19:48Z</time></trkpt>
<trkpt lat="25.456562" lon="100.546494">
<time>2014-08-04T20:19:49Z</time></trkpt>
<trkpt lat="25.456631" lon="100.546263">
<time>2014-08-04T20:19:50Z</time></trkpt>
<trkpt lat="25.456681" lon="100.546053">
<time>2014-08-04T20:19:51Z</time></trkpt>
<trkpt lat="25.45676" lon="100.545852">
<time>2014-08-04T20:19:52Z</time></trkpt>
<trkpt lat="25.45685" lon="100.545612">
<time>2014-08-04T20:19:53Z</time></trkpt>
<trkpt lat="25.456929" lon="100.545421">
<time>2014-08-04T20:19:54Z</time></trkpt>
<trkpt lat="25.456979" lon="100.545301">
<time>2014-08-04T20:19:55Z</time></trkpt>
<trkpt lat="25.457029" lon="100.545211">
<time>2014-08-04T20:19:56Z</time></trkpt>
<trkpt lat="25.457089" lon="100.545101">
<time>2014-08-04T20:19:57Z</time></trkpt>
<trkpt lat="25.457238" lon="100.54485">
<time>2014-08-04T20:19:58Z</time></trkpt>
<trkpt lat="25.457308" lon="100.54469">
<time>2014-08-04T20:19:59Z</time></trkpt>
<trkpt lat="25.457348" lon="100.54459">
<time>2014-08-04T20:20:00Z</time></trkpt>
<trkpt lat="25.457368" lon="100.5445">
<time>2014-08-04T20:20:01Z</time></trkpt>
<trkpt lat="25.457377" lon="100.544429">
<time>2014-08-04T20:20:02Z</time></trkpt>
<trkpt lat="25.457377" lon="100.544339">
<time>2014-08-04T20:20:03Z</time></trkpt>
<trkpt lat="25.457377" lon="100.544249">
<time>2014-08-04T20:20:04Z</time></trkpt>
<trkpt lat="25.457377" lon="100.544159">
<time>2014-08-04T20:20:05Z</time></trkpt>
<trkpt lat="25.457357" lon="100.544039">
<time>2014-08-04T20:20:06Z</time></trkpt>
<trkpt lat="25.457306" lon="100.543778">
<time>2014-08-04T20:20:07Z</time></trkpt>
<trkpt lat="25.457245" lon="100.543477">
<time>2014-08-04T20:20:08Z</time></trkpt>
<trkpt lat="25.457215" lon="100.543327">
<time>2014-08-04T20:20:09Z</time></trkpt>
<trkpt lat="25.457205" lon="100.543227">
<time>2014-08-04T20:20:10Z</time></trkpt>
<trkpt lat="25.457184" lon="100.543117">
<time>2014-08-04T20:20:11Z</time></trkpt>
<trkpt lat="25.457154" lon="100.542976">
<time>2014-08-04T20:20:12Z</time></trkpt>
<trkpt lat="25.457114" lon="100.542826">
<time>2014-08-04T20:20:13Z</time></trkpt>
<trkpt lat="25.457063" lon="100.542686">
<time>2014-08-04T20:20:14Z</time></trkpt>
<trkpt lat="25.457043" lon="100.542626">
<time>2014-08-04T20:20:15Z</time></trkpt>
<trkpt lat="25.457003" lon="100.542555">
<time>2014-08-04T20:20:16Z</time></trkpt>
<trkpt lat="25.456953" lon="100.542485">
<time>2014-08-04T20:20:17Z</time></trkpt>
<trkpt lat="25.456732" lon="100.542235">
<time>2014-08-04T20:20:18Z</time></trkpt>
<trkpt lat="25.456602" lon="100.542104">
<time>2014-08-04T20:20:19Z</time></trkpt>
<trkpt lat="25.456512" lon="100.541994">
<time>2014-08-04T20:20:20Z</time></trkpt>
<trkpt lat="25.456311" lon="100.541764">
<time>2014-08-04T20:20:21Z</time></trkpt>
<trkpt lat="25.456211" lon="100.541643">
<time>2014-08-04T20:20:22Z</time></trkpt>
<trkpt lat="25.45608" lon="100.541503">
<time>2014-08-04T20:20:23Z</time></trkpt>
<trkpt lat="25.45594" lon="100.541373">
<time>2014-08-04T20:20:24Z</time></trkpt>
<trkpt lat="25.45585" lon="100.541303">
<time>2014-08-04T20:20:25Z</time></trkpt>
<trkpt lat="25.45577" lon="100.541253">
<time>2014-08-04T20:20:26Z</time></trkpt>
<trkpt lat="25.45569" lon="100.541202">
<time>2014-08-04T20:20:27Z</time></trkpt>
<trkpt lat="25.45562" lon="100.541172">
<time>2014-08-04T20:20:28Z</time></trkpt>
<trkpt lat="25.45556" lon="100.541152">
<time>2014-08-04T20:20:29Z</time></trkpt>
<trkpt lat="25.455479" lon="100.541132">
<time>2014-08-04T20:20:30Z</time></trkpt>
<trkpt lat="25.455389" lon="100.541112">
<time>2014-08-04T20:20:31Z</time></trkpt>
<trkpt lat="25.455279" lon="100.541102">
<time>2014-08-04T20:20:32Z</time></trkpt>
<trkpt lat="25.454879" lon="100.541072">
<time>2014-08-04T20:20:33Z</time></trkpt>
<trkpt lat="25.454269" lon="100.541012">
<time>2014-08-04T20:20:34Z</time></trkpt>
<trkpt lat="25.453269" lon="100.540962">
<time>2014-08-04T20:20:35Z</time></trkpt>
<trkpt lat="25.452848" lon="100.540932">
<time>2014-08-04T20:20:36Z</time></trkpt>
<trkpt lat="25.452438" lon="100.540902">
<time>2014-08-04T20:20:37Z</time></trkpt>
<trkpt lat="25.452238" lon="100.540902">
<time>2014-08-04T20:20:38Z</time></trkpt>
<trkpt lat="25.452118" lon="100.540902">
<time>2014-08-04T20:20:39Z</time></trkpt>
<trkpt lat="25.452018" lon="100.540902">
<time>2014-08-04T20:20:40Z</time></trkpt>
<trkpt lat="25.451888" lon="100.540912">
<time>2014-08-04T20:20:41Z</time></trkpt>
<trkpt lat="25.450698" lon="100.541062">
<time>2014-08-04T20:20:42Z</time></trkpt>
<trkpt lat="25.450478" lon="100.541082">
<time>2014-08-04T20:20:43Z</time></trkpt>
<trkpt lat="25.450328" lon="100.541092">
<time>2014-08-04T20:20:44Z</time></trkpt>
<trkpt lat="25.450178" lon="100.541092">
<time>2014-08-04T20:20:45Z</time></trkpt>
<trkpt lat="25.450048" lon="100.541072">
<time>2014-08-04T20:20:46Z</time></trkpt>
<trkpt lat="25.449938" lon="100.541062">
<time>2014-08-04T20:20:47Z</time></trkpt>
<trkpt lat="25.449838" lon="100.541032">
<time>2014-08-04T20:20:48Z</time></trkpt>
<trkpt lat="25.449618" lon="100.540992">
<time>2014-08-04T20:20:49Z</time></trkpt>
<trkpt lat="25.449478" lon="100.540952">
<time>2014-08-04T20:20:50Z</time></trkpt>
<trkpt lat="25.449267" lon="100.540912">
<time>2014-08-04T20:20:51Z</time></trkpt>
<trkpt lat="25.449087" lon="100.540862">
<time>2014-08-04T20:20:52Z</time></trkpt>
<trkpt lat="25.448957" lon="100.540822">
<time>2014-08-04T20:20:53Z</time></trkpt>
<trkpt lat="25.448817" lon="100.540772">
<time>2014-08-04T20:20:54Z</time></trkpt>
<trkpt lat="25.448567" lon="100.540681">
<time>2014-08-04T20:20:55Z</time></trkpt>
<trkpt lat="25.448346" lon="100.540591">
<time>2014-08-04T20:20:56Z</time></trkpt>
<trkpt lat="25.447746" lon="100.540311">
<time>2014-08-04T20:20:57Z</time></trkpt>
<trkpt lat="25.447245" lon="100.54008">
<time>2014-08-04T20:20:58Z</time></trkpt>
<trkpt lat="25.446904" lon="100.53992">
<time>2014-08-04T20:20:59Z</time></trkpt>
<trkpt lat="25.446684" lon="100.53983">
<time>2014-08-04T20:21:00Z</time></trkpt>
<trkpt lat="25.446494" lon="100.539749">
<time>2014-08-04T20:21:01Z</time></trkpt>
<trkpt lat="25.446414" lon="100.539699">
<time>2014-08-04T20:21:02Z</time></trkpt>
<trkpt lat="25.446364" lon="100.539669">
<time>2014-08-04T20:21:03Z</time></trkpt>
<trkpt lat="25.446304" lon="100.539629">
<time>2014-08-04T20:21:04Z</time></trkpt>
<trkpt lat="25.446254" lon="100.539569">
<time>2014-08-04T20:21:05Z</time></trkpt>
<trkpt lat="25.446213" lon="100.539519">
<time>2014-08-04T20:21:06Z</time></trkpt>
<trkpt lat="25.446173" lon="100.539449">
<time>2014-08-04T20:21:07Z</time></trkpt>
<trkpt lat="25.446163" lon="100.539429">
<time>2014-08-04T20:21:08Z</time></trkpt>
<trkpt lat="25.446133" lon="100.539369">
<time>2014-08-04T20:21:09Z</time></trkpt>
<trkpt lat="25.446113" lon="100.539278">
<time>2014-08-04T20:21:10Z</time></trkpt>
<trkpt lat="25.446103" lon="100.539208">
<time>2014-08-04T20:21:11Z</time></trkpt>
<trkpt lat="25.446102" lon="100.539148">
<time>2014-08-04T20:21:12Z</time></trkpt>
<trkpt lat="25.446112" lon="100.539078">
<time>2014-08-04T20:21:13Z</time></trkpt>
<trkpt lat="25.446132" lon="100.538998">
<time>2014-08-04T20:21:14Z</time></trkpt>
<trkpt lat="25.446162" lon="100.538918">
<time>2014-08-04T20:21:15Z</time></trkpt>
<trkpt lat="25.446202" lon="100.538857">
<time>2014-08-04T20:21:16Z</time></trkpt>
<trkpt lat="25.446232" lon="100.538807">
<time>2014-08-04T20:21:17Z</time></trkpt>
<trkpt lat="25.446292" lon="100.538757">
<time>2014-08-04T20:21:18Z</time></trkpt>
<trkpt lat="25.446391" lon="100.538697">
<time>2014-08-04T20:21:19Z</time></trkpt>
<trkpt lat="25.446491" lon="100.538637">
<time>2014-08-04T20:21:20Z</time></trkpt>
<trkpt lat="25.446561" lon="100.538597">
<time>2014-08-04T20:21:21Z</time></trkpt>
<trkpt lat="25.446881" lon="100.538456">
<time>2014-08-04T20:21:22Z</time></trkpt>
<trkpt lat="25.447101" lon="100.538356">
<time>2014-08-04T20:21:23Z</time></trkpt>
<trkpt lat="25.447191" lon="100.538316">
<time>2014-08-04T20:21:24Z</time></trkpt>
<trkpt lat="25.447391" lon="100.538196">
<time>2014-08-04T20:21:25Z</time></trkpt>
<trkpt lat="25.44752" lon="100.538116">
<time>2014-08-04T20:21:26Z</time></trkpt>
<trkpt lat="25.44769" lon="100.537985">
<time>2014-08-04T20:21:27Z</time></trkpt>
<trkpt lat="25.4478" lon="100.537905">
<time>2014-08-04T20:21:28Z</time></trkpt>
<trkpt lat="25.44788" lon="100.537825">
<time>2014-08-04T20:21:29Z</time></trkpt>
<trkpt lat="25.448039" lon="100.537675">
<time>2014-08-04T20:21:30Z</time></trkpt>
<trkpt lat="25.448139" lon="100.537584">
<time>2014-08-04T20:21:31Z</time></trkpt>
<trkpt lat="25.448259" lon="100.537474">
<time>2014-08-04T20:21:32Z</time></trkpt>
<trkpt lat="25.448429" lon="100.537304">
<time>2014-08-04T20:21:33Z</time></trkpt>
<trkpt lat="25.448528" lon="100.537223">
<time>2014-08-04T20:21:34Z</time></trkpt>
<trkpt lat="25.448578" lon="100.537173">
<time>2014-08-04T20:21:35Z</time></trkpt>
<trkpt lat="25.448658" lon="100.537103">
<time>2014-08-04T20:21:36Z</time></trkpt>
<trkpt lat="25.448708" lon="100.537063">
<time>2014-08-04T20:21:37Z</time></trkpt>
<trkpt lat="25.448808" lon="100.537003">
<time>2014-08-04T20:21:38Z</time></trkpt>
<trkpt lat="25.448878" lon="100.536973">
<time>2014-08-04T20:21:39Z</time></trkpt>
<trkpt lat="25.449028" lon="100.536883">
<time>2014-08-04T20:21:40Z</time></trkpt>
<trkpt lat="25.449128" lon="100.536823">
<time>2014-08-04T20:21:41Z</time></trkpt>
<trkpt lat="25.449277" lon="100.536742">
<time>2014-08-04T20:21:42Z</time></trkpt>
<trkpt lat="25.449367" lon="100.536692">
<time>2014-08-04T20:21:43Z</time></trkpt>
<trkpt lat="25.449467" lon="100.536622">
<time>2014-08-04T20:21:44Z</time></trkpt>
<trkpt lat="25.449547" lon="100.536552">
<time>2014-08-04T20:21:45Z</time></trkpt>
<trkpt lat="25.449597" lon="100.536492">
<time>2014-08-04T20:21:46Z</time></trkpt>
<trkpt lat="25.449647" lon="100.536391">
<time>2014-08-04T20:21:47Z</time></trkpt>
<trkpt lat="25.449667" lon="100.536331">
<time>2014-08-04T20:21:48Z</time></trkpt>
<trkpt lat="25.449686" lon="100.536251">
<time>2014-08-04T20:21:49Z</time></trkpt>
<trkpt lat="25.449696" lon="100.536191">
<time>2014-08-04T20:21:50Z</time></trkpt>
<trkpt lat="25.449706" lon="100.536111">
<time>2014-08-04T20:21:51Z</time></trkpt>
<trkpt lat="25.449696" lon="100.536041">
<time>2014-08-04T20:21:52Z</time></trkpt>
<trkpt lat="25.449696" lon="100.536001">
<time>2014-08-04T20:21:53Z</time></trkpt>
<trkpt lat="25.449676" lon="100.5359">
<time>2014-08-04T20:21:54Z</time></trkpt>
<trkpt lat="25.449655" lon="100.53575">
<time>2014-08-04T20:21:55Z</time></trkpt>
<trkpt lat="25.449625" lon="100.53559">
<time>2014-08-04T20:21:56Z</time></trkpt>
<trkpt lat="25.449594" lon="100.535429">
<time>2014-08-04T20:21:57Z</time></trkpt>
<trkpt lat="25.449574" lon="100.535329">
<time>2014-08-04T20:21:58Z</time></trkpt>
<trkpt lat="25.449564" lon="100.535229">
<time>2014-08-04T20:21:59Z</time></trkpt>
<trkpt lat="25.449523" lon="100.534727">
<time>2014-08-04T20:22:00Z</time></trkpt>
<trkpt lat="25.449512" lon="100.534507">
<time>2014-08-04T20:22:01Z</time></trkpt>
<trkpt lat="25.449491" lon="100.534226">
<time>2014-08-04T20:22:02Z</time></trkpt>
<trkpt lat="25.449471" lon="100.534036">
<time>2014-08-04T20:22:03Z</time></trkpt>
<trkpt lat="25.44945" lon="100.533865">
<time>2014-08-04T20:22:04Z</time></trkpt>
<trkpt lat="25.44943" lon="100.533665">
<time>2014-08-04T20:22:05Z</time></trkpt>
<trkpt lat="25.44942" lon="100.533525">
<time>2014-08-04T20:22:06Z</time></trkpt>
<trkpt lat="25.449399" lon="100.533424">
<time>2014-08-04T20:22:07Z</time></trkpt>
<trkpt lat="25.449369" lon="100.533234">
<time>2014-08-04T20:22:08Z</time></trkpt>
<trkpt lat="25.449318" lon="100.532973">
<time>2014-08-04T20:22:09Z</time></trkpt>
<trkpt lat="25.449257" lon="100.532632">
<time>2014-08-04T20:22:10Z</time></trkpt>
<trkpt lat="25.449206" lon="100.532352">
<time>2014-08-04T20:22:11Z</time></trkpt>
<trkpt lat="25.449176" lon="100.532101">
<time>2014-08-04T20:22:12Z</time></trkpt>
<trkpt lat="25.449145" lon="100.53191">
<time>2014-08-04T20:22:13Z</time></trkpt>
<trkpt lat="25.449125" lon="100.53177">
<time>2014-08-04T20:22:14Z</time></trkpt>
<trkpt lat="25.449084" lon="100.53158">
<time>2014-08-04T20:22:15Z</time></trkpt>
<trkpt lat="25.449054" lon="100.531459">
<time>2014-08-04T20:22:16Z</time></trkpt>
<trkpt lat="25.448994" lon="100.531289">
<time>2014-08-04T20:22:17Z</time></trkpt>
<trkpt lat="25.448943" lon="100.531139">
<time>2014-08-04T20:22:18Z</time></trkpt>
<trkpt lat="25.448903" lon="100.531028">
<time>2014-08-04T20:22:19Z</time></trkpt>
<trkpt lat="25.448873" lon="100.530928">
<time>2014-08-04T20:22:20Z</time></trkpt>
<trkpt lat="25.448833" lon="100.530848">
<time>2014-08-04T20:22:21Z</time></trkpt>
<trkpt lat="25.448792" lon="100.530758">
<time>2014-08-04T20:22:22Z</time></trkpt>
<trkpt lat="25.448752" lon="100.530677">
<time>2014-08-04T20:22:23Z</time></trkpt>
<trkpt lat="25.448702" lon="100.530597">
<time>2014-08-04T20:22:24Z</time></trkpt>
<trkpt lat="25.448642" lon="100.530507">
<time>2014-08-04T20:22:25Z</time></trkpt>
<trkpt lat="25.448591" lon="100.530437">
<time>2014-08-04T20:22:26Z</time></trkpt>
<trkpt lat="25.448521" lon="100.530367">
<time>2014-08-04T20:22:27Z</time></trkpt>
<trkpt lat="25.448441" lon="100.530286">
<time>2014-08-04T20:22:28Z</time></trkpt>
<trkpt lat="25.44806" lon="100.529905">
<time>2014-08-04T20:22:29Z</time></trkpt>
<trkpt lat="25.447659" lon="100.529494">
<time>2014-08-04T20:22:30Z</time></trkpt>
<trkpt lat="25.447478" lon="100.529304">
<time>2014-08-04T20:22:31Z</time></trkpt>
<trkpt lat="25.447328" lon="100.529133">
<time>2014-08-04T20:22:32Z</time></trkpt>
<trkpt lat="25.447187" lon="100.528993">
<time>2014-08-04T20:22:33Z</time></trkpt>
<trkpt lat="25.447077" lon="100.528853">
<time>2014-08-04T20:22:34Z</time></trkpt>
<trkpt lat="25.447007" lon="100.528752">
<time>2014-08-04T20:22:35Z</time></trkpt>
<trkpt lat="25.446997" lon="100.528742">
<time>2014-08-04T20:22:36Z</time></trkpt>
<trkpt lat="25.446886" lon="100.528582">
<time>2014-08-04T20:22:37Z</time></trkpt>
<trkpt lat="25.446806" lon="100.528442">
<time>2014-08-04T20:22:38Z</time></trkpt>
<trkpt lat="25.446725" lon="100.528291">
<time>2014-08-04T20:22:39Z</time></trkpt>
<trkpt lat="25.446675" lon="100.528171">
<time>2014-08-04T20:22:40Z</time></trkpt>
<trkpt lat="25.446483" lon="100.527639">
<time>2014-08-04T20:22:41Z</time></trkpt>
<trkpt lat="25.446372" lon="100.527268">
<time>2014-08-04T20:22:42Z</time></trkpt>
<trkpt lat="25.446322" lon="100.527068">
<time>2014-08-04T20:22:43Z</time></trkpt>
<trkpt lat="25.446272" lon="100.526938">
<time>2014-08-04T20:22:44Z</time></trkpt>
<trkpt lat="25.446211" lon="100.526787">
<time>2014-08-04T20:22:45Z</time></trkpt>
<trkpt lat="25.446151" lon="100.526637">
<time>2014-08-04T20:22:46Z</time></trkpt>
<trkpt lat="25.4461" lon="100.526506">
<time>2014-08-04T20:22:47Z</time></trkpt>
<trkpt lat="25.44607" lon="100.526436">
<time>2014-08-04T20:22:48Z</time></trkpt>
<trkpt lat="25.44602" lon="100.526346">
<time>2014-08-04T20:22:49Z</time></trkpt>
<trkpt lat="25.44598" lon="100.526276">
<time>2014-08-04T20:22:50Z</time></trkpt>
<trkpt lat="25.44594" lon="100.526226">
<time>2014-08-04T20:22:51Z</time></trkpt>
<trkpt lat="25.445849" lon="100.526085">
<time>2014-08-04T20:22:52Z</time></trkpt>
<trkpt lat="25.445769" lon="100.525965">
<time>2014-08-04T20:22:53Z</time></trkpt>
<trkpt lat="25.445658" lon="100.525835">
<time>2014-08-04T20:22:54Z</time></trkpt>
<trkpt lat="25.445528" lon="100.525654">
<time>2014-08-04T20:22:55Z</time></trkpt>
<trkpt lat="25.445437" lon="100.525514">
<time>2014-08-04T20:22:56Z</time></trkpt>
<trkpt lat="25.445367" lon="100.525424">
<time>2014-08-04T20:22:57Z</time></trkpt>
<trkpt lat="25.445327" lon="100.525363">
<time>2014-08-04T20:22:58Z</time></trkpt>
<trkpt lat="25.445267" lon="100.525313">
<time>2014-08-04T20:22:59Z</time></trkpt>
<trkpt lat="25.445207" lon="100.525253">
<time>2014-08-04T20:23:00Z</time></trkpt>
<trkpt lat="25.445126" lon="100.525173">
<time>2014-08-04T20:23:01Z</time></trkpt>
<trkpt lat="25.445046" lon="100.525113">
<time>2014-08-04T20:23:02Z</time></trkpt>
<trkpt lat="25.444966" lon="100.525043">
<time>2014-08-04T20:23:03Z</time></trkpt>
<trkpt lat="25.444826" lon="100.524922">
<time>2014-08-04T20:23:04Z</time></trkpt>
<trkpt lat="25.444655" lon="100.524782">
<time>2014-08-04T20:23:05Z</time></trkpt>
<trkpt lat="25.444545" lon="100.524682">
<time>2014-08-04T20:23:06Z</time></trkpt>
<trkpt lat="25.444435" lon="100.524571">
<time>2014-08-04T20:23:07Z</time></trkpt>
<trkpt lat="25.444364" lon="100.524491">
<time>2014-08-04T20:23:08Z</time></trkpt>
<trkpt lat="25.444294" lon="100.524411">
<time>2014-08-04T20:23:09Z</time></trkpt>
<trkpt lat="25.444254" lon="100.524351">
<time>2014-08-04T20:23:10Z</time></trkpt>
<trkpt lat="25.444184" lon="100.52425">
<time>2014-08-04T20:23:11Z</time></trkpt>
<trkpt lat="25.444133" lon="100.52415">
<time>2014-08-04T20:23:12Z</time></trkpt>
<trkpt lat="25.444073" lon="100.52405">
<time>2014-08-04T20:23:13Z</time></trkpt>
<trkpt lat="25.444013" lon="100.52393">
<time>2014-08-04T20:23:14Z</time></trkpt>
<trkpt lat="25.443932" lon="100.523759">
<time>2014-08-04T20:23:15Z</time></trkpt>
<trkpt lat="25.443812" lon="100.523498">
<time>2014-08-04T20:23:16Z</time></trkpt>
<trkpt lat="25.443691" lon="100.523278">
<time>2014-08-04T20:23:17Z</time></trkpt>
<trkpt lat="25.443611" lon="100.523127">
<time>2014-08-04T20:23:18Z</time></trkpt>
<trkpt lat="25.44349" lon="100.522917">
<time>2014-08-04T20:23:19Z</time></trkpt>
<trkpt lat="25.443379" lon="100.522756">
<time>2014-08-04T20:23:20Z</time></trkpt>
<trkpt lat="25.443279" lon="100.522606">
<time>2014-08-04T20:23:21Z</time></trkpt>
<trkpt lat="25.443088" lon="100.522325">
<time>2014-08-04T20:23:22Z</time></trkpt>
<trkpt lat="25.442958" lon="100.522135">
<time>2014-08-04T20:23:23Z</time></trkpt>
<trkpt lat="25.442847" lon="100.521944">
<time>2014-08-04T20:23:24Z</time></trkpt>
<trkpt lat="25.442746" lon="100.521754">
<time>2014-08-04T20:23:25Z</time></trkpt>
<trkpt lat="25.442666" lon="100.521563">
<time>2014-08-04T20:23:26Z</time></trkpt>
<trkpt lat="25.442616" lon="100.521443">
<time>2014-08-04T20:23:27Z</time></trkpt>
<trkpt lat="25.442545" lon="100.521312">
<time>2014-08-04T20:23:28Z</time></trkpt>
<trkpt lat="25.442485" lon="100.521182">
<time>2014-08-04T20:23:29Z</time></trkpt>
<trkpt lat="25.442424" lon="100.521072">
<time>2014-08-04T20:23:30Z</time></trkpt>
<trkpt lat="25.442354" lon="100.520951">
<time>2014-08-04T20:23:31Z</time></trkpt>
<trkpt lat="25.442274" lon="100.520841">
<time>2014-08-04T20:23:32Z</time></trkpt>
<trkpt lat="25.442224" lon="100.520771">
<time>2014-08-04T20:23:33Z</time></trkpt>
<trkpt lat="25.442163" lon="100.520701">
<time>2014-08-04T20:23:34Z</time></trkpt>
<trkpt lat="25.442103" lon="100.52062">
<time>2014-08-04T20:23:35Z</time></trkpt>
<trkpt lat="25.441822" lon="100.52032">
<time>2014-08-04T20:23:36Z</time></trkpt>
<trkpt lat="25.441712" lon="100.520179">
<time>2014-08-04T20:23:37Z</time></trkpt>
<trkpt lat="25.441621" lon="100.520019">
<time>2014-08-04T20:23:38Z</time></trkpt>
<trkpt lat="25.441551" lon="100.519878">
<time>2014-08-04T20:23:39Z</time></trkpt>
<trkpt lat="25.441501" lon="100.519758">
<time>2014-08-04T20:23:40Z</time></trkpt>
<trkpt lat="25.44146" lon="100.519598">
<time>2014-08-04T20:23:41Z</time></trkpt>
<trkpt lat="25.44145" lon="100.519467">
<time>2014-08-04T20:23:42Z</time></trkpt>
<trkpt lat="25.441459" lon="100.519387">
<time>2014-08-04T20:23:43Z</time></trkpt>
<trkpt lat="25.441469" lon="100.519307">
<time>2014-08-04T20:23:44Z</time></trkpt>
<trkpt lat="25.441499" lon="100.519196">
<time>2014-08-04T20:23:45Z</time></trkpt>
<trkpt lat="25.441558" lon="100.519016">
<time>2014-08-04T20:23:46Z</time></trkpt>
<trkpt lat="25.441648" lon="100.518775">
<time>2014-08-04T20:23:47Z</time></trkpt>
<trkpt lat="25.441737" lon="100.518484">
<time>2014-08-04T20:23:48Z</time></trkpt>
<trkpt lat="25.441836" lon="100.518153">
<time>2014-08-04T20:23:49Z</time></trkpt>
<trkpt lat="25.441915" lon="100.517923">
<time>2014-08-04T20:23:50Z</time></trkpt>
<trkpt lat="25.442144" lon="100.517431">
<time>2014-08-04T20:23:51Z</time></trkpt>
<trkpt lat="25.442194" lon="100.517301">
<time>2014-08-04T20:23:52Z</time></trkpt>
<trkpt lat="25.442224" lon="100.517221">
<time>2014-08-04T20:23:53Z</time></trkpt>
<trkpt lat="25.442243" lon="100.517141">
<time>2014-08-04T20:23:54Z</time></trkpt>
<trkpt lat="25.442273" lon="100.51703">
<time>2014-08-04T20:23:55Z</time></trkpt>
<trkpt lat="25.442293" lon="100.51693">
<time>2014-08-04T20:23:56Z</time></trkpt>
<trkpt lat="25.442302" lon="100.51685">
<time>2014-08-04T20:23:57Z</time></trkpt>
<trkpt lat="25.442322" lon="100.516689">
<time>2014-08-04T20:23:58Z</time></trkpt>
<trkpt lat="25.442439" lon="100.515686">
<time>2014-08-04T20:23:59Z</time></trkpt>
<trkpt lat="25.442459" lon="100.515526">
<time>2014-08-04T20:24:00Z</time></trkpt>
<trkpt lat="25.442458" lon="100.515456">
<time>2014-08-04T20:24:01Z</time></trkpt>
<trkpt lat="25.442458" lon="100.515365">
<time>2014-08-04T20:24:02Z</time></trkpt>
<trkpt lat="25.442448" lon="100.515295">
<time>2014-08-04T20:24:03Z</time></trkpt>
<trkpt lat="25.442438" lon="100.515235">
<time>2014-08-04T20:24:04Z</time></trkpt>
<trkpt lat="25.442418" lon="100.515165">
<time>2014-08-04T20:24:05Z</time></trkpt>
<trkpt lat="25.442397" lon="100.515105">
<time>2014-08-04T20:24:06Z</time></trkpt>
<trkpt lat="25.442367" lon="100.515014">
<time>2014-08-04T20:24:07Z</time></trkpt>
<trkpt lat="25.442347" lon="100.514964">
<time>2014-08-04T20:24:08Z</time></trkpt>
<trkpt lat="25.442317" lon="100.514904">
<time>2014-08-04T20:24:09Z</time></trkpt>
<trkpt lat="25.442166" lon="100.514603">
<time>2014-08-04T20:24:10Z</time></trkpt>
<trkpt lat="25.442045" lon="100.514342">
<time>2014-08-04T20:24:11Z</time></trkpt>
<trkpt lat="25.442015" lon="100.514252">
<time>2014-08-04T20:24:12Z</time></trkpt>
<trkpt lat="25.441995" lon="100.514162">
<time>2014-08-04T20:24:13Z</time></trkpt>
<trkpt lat="25.441964" lon="100.514082">
<time>2014-08-04T20:24:14Z</time></trkpt>
<trkpt lat="25.441944" lon="100.514001">
<time>2014-08-04T20:24:15Z</time></trkpt>
<trkpt lat="25.441934" lon="100.513941">
<time>2014-08-04T20:24:16Z</time></trkpt>
<trkpt lat="25.441934" lon="100.513871">
<time>2014-08-04T20:24:17Z</time></trkpt>
<trkpt lat="25.441934" lon="100.513801">
<time>2014-08-04T20:24:18Z</time></trkpt>
<trkpt lat="25.441933" lon="100.513741">
<time>2014-08-04T20:24:19Z</time></trkpt>
<trkpt lat="25.441943" lon="100.513701">
<time>2014-08-04T20:24:20Z</time></trkpt>
<trkpt lat="25.441953" lon="100.51366">
<time>2014-08-04T20:24:21Z</time></trkpt>
<trkpt lat="25.441983" lon="100.5136">
<time>2014-08-04T20:24:22Z</time></trkpt>
<trkpt lat="25.442003" lon="100.51356">
<time>2014-08-04T20:24:23Z</time></trkpt>
<trkpt lat="25.442033" lon="100.51352">
<time>2014-08-04T20:24:24Z</time></trkpt>
<trkpt lat="25.442063" lon="100.51349">
<time>2014-08-04T20:24:25Z</time></trkpt>
<trkpt lat="25.442103" lon="100.51345">
<time>2014-08-04T20:24:26Z</time></trkpt>
<trkpt lat="25.442162" lon="100.51341">
<time>2014-08-04T20:24:27Z</time></trkpt>
<trkpt lat="25.442222" lon="100.51339">
<time>2014-08-04T20:24:28Z</time></trkpt>
<trkpt lat="25.442262" lon="100.51336">
<time>2014-08-04T20:24:29Z</time></trkpt>
<trkpt lat="25.442332" lon="100.513339">
<time>2014-08-04T20:24:30Z</time></trkpt>
<trkpt lat="25.442972" lon="100.513189">
<time>2014-08-04T20:24:31Z</time></trkpt>
<trkpt lat="25.443252" lon="100.513129">
<time>2014-08-04T20:24:32Z</time></trkpt>
<trkpt lat="25.443632" lon="100.513039">
<time>2014-08-04T20:24:33Z</time></trkpt>
<trkpt lat="25.443812" lon="100.512998">
<time>2014-08-04T20:24:34Z</time></trkpt>
<trkpt lat="25.444012" lon="100.512958">
<time>2014-08-04T20:24:35Z</time></trkpt>
<trkpt lat="25.444112" lon="100.512948">
<time>2014-08-04T20:24:36Z</time></trkpt>
<trkpt lat="25.444202" lon="100.512928">
<time>2014-08-04T20:24:37Z</time></trkpt>
<trkpt lat="25.444301" lon="100.512898">
<time>2014-08-04T20:24:38Z</time></trkpt>
<trkpt lat="25.444561" lon="100.512848">
<time>2014-08-04T20:24:39Z</time></trkpt>
<trkpt lat="25.444721" lon="100.512808">
<time>2014-08-04T20:24:40Z</time></trkpt>
<trkpt lat="25.444851" lon="100.512768">
<time>2014-08-04T20:24:41Z</time></trkpt>
<trkpt lat="25.444941" lon="100.512748">
<time>2014-08-04T20:24:42Z</time></trkpt>
<trkpt lat="25.445031" lon="100.512698">
<time>2014-08-04T20:24:43Z</time></trkpt>
<trkpt lat="25.445101" lon="100.512647">
<time>2014-08-04T20:24:44Z</time></trkpt>
<trkpt lat="25.445151" lon="100.512607">
<time>2014-08-04T20:24:45Z</time></trkpt>
<trkpt lat="25.445201" lon="100.512547">
<time>2014-08-04T20:24:46Z</time></trkpt>
<trkpt lat="25.445241" lon="100.512497">
<time>2014-08-04T20:24:47Z</time></trkpt>
<trkpt lat="25.44527" lon="100.512447">
<time>2014-08-04T20:24:48Z</time></trkpt>
<trkpt lat="25.4453" lon="100.512377">
<time>2014-08-04T20:24:49Z</time></trkpt>
<trkpt lat="25.44531" lon="100.512316">
<time>2014-08-04T20:24:50Z</time></trkpt>
<trkpt lat="25.44533" lon="100.512246">
<time>2014-08-04T20:24:51Z</time></trkpt>
<trkpt lat="25.44533" lon="100.512176">
<time>2014-08-04T20:24:52Z</time></trkpt>
<trkpt lat="25.445339" lon="100.511925">
<time>2014-08-04T20:24:53Z</time></trkpt>
<trkpt lat="25.445327" lon="100.511273">
<time>2014-08-04T20:24:54Z</time></trkpt>
<trkpt lat="25.445336" lon="100.511043">
<time>2014-08-04T20:24:55Z</time></trkpt>
<trkpt lat="25.445356" lon="100.510892">
<time>2014-08-04T20:24:56Z</time></trkpt>
<trkpt lat="25.445375" lon="100.510732">
<time>2014-08-04T20:24:57Z</time></trkpt>
<trkpt lat="25.445395" lon="100.510611">
<time>2014-08-04T20:24:58Z</time></trkpt>
<trkpt lat="25.445454" lon="100.510341">
<time>2014-08-04T20:24:59Z</time></trkpt>
<trkpt lat="25.445523" lon="100.509919">
<time>2014-08-04T20:25:00Z</time></trkpt>
<trkpt lat="25.445572" lon="100.509638">
<time>2014-08-04T20:25:01Z</time></trkpt>
<trkpt lat="25.445621" lon="100.509388">
<time>2014-08-04T20:25:02Z</time></trkpt>
<trkpt lat="25.445641" lon="100.509277">
<time>2014-08-04T20:25:03Z</time></trkpt>
<trkpt lat="25.445651" lon="100.509227">
<time>2014-08-04T20:25:04Z</time></trkpt>
<trkpt lat="25.445661" lon="100.509187">
<time>2014-08-04T20:25:05Z</time></trkpt>
<trkpt lat="25.445651" lon="100.509127">
<time>2014-08-04T20:25:06Z</time></trkpt>
<trkpt lat="25.44565" lon="100.509037">
<time>2014-08-04T20:25:07Z</time></trkpt>
<trkpt lat="25.44564" lon="100.508966">
<time>2014-08-04T20:25:08Z</time></trkpt>
<trkpt lat="25.44561" lon="100.508856">
<time>2014-08-04T20:25:09Z</time></trkpt>
<trkpt lat="25.44557" lon="100.508726">
<time>2014-08-04T20:25:10Z</time></trkpt>
<trkpt lat="25.445519" lon="100.508595">
<time>2014-08-04T20:25:11Z</time></trkpt>
<trkpt lat="25.445479" lon="100.508505">
<time>2014-08-04T20:25:12Z</time></trkpt>
<trkpt lat="25.445418" lon="100.508385">
<time>2014-08-04T20:25:13Z</time></trkpt>
<trkpt lat="25.445368" lon="100.508325">
<time>2014-08-04T20:25:14Z</time></trkpt>
<trkpt lat="25.445308" lon="100.508244">
<time>2014-08-04T20:25:15Z</time></trkpt>
<trkpt lat="25.445238" lon="100.508184">
<time>2014-08-04T20:25:16Z</time></trkpt>
<trkpt lat="25.445178" lon="100.508134">
<time>2014-08-04T20:25:17Z</time></trkpt>
<trkpt lat="25.445087" lon="100.508074">
<time>2014-08-04T20:25:18Z</time></trkpt>
<trkpt lat="25.444987" lon="100.508024">
<time>2014-08-04T20:25:19Z</time></trkpt>
<trkpt lat="25.444907" lon="100.507983">
<time>2014-08-04T20:25:20Z</time></trkpt>
<trkpt lat="25.444747" lon="100.507913">
<time>2014-08-04T20:25:21Z</time></trkpt>
<trkpt lat="25.444567" lon="100.507823">
<time>2014-08-04T20:25:22Z</time></trkpt>
<trkpt lat="25.444356" lon="100.507713">
<time>2014-08-04T20:25:23Z</time></trkpt>
<trkpt lat="25.444256" lon="100.507653">
<time>2014-08-04T20:25:24Z</time></trkpt>
<trkpt lat="25.444186" lon="100.507612">
<time>2014-08-04T20:25:25Z</time></trkpt>
<trkpt lat="25.444106" lon="100.507562">
<time>2014-08-04T20:25:26Z</time></trkpt>
<trkpt lat="25.444025" lon="100.507492">
<time>2014-08-04T20:25:27Z</time></trkpt>
<trkpt lat="25.443915" lon="100.507402">
<time>2014-08-04T20:25:28Z</time></trkpt>
<trkpt lat="25.443795" lon="100.507291">
<time>2014-08-04T20:25:29Z</time></trkpt>
<trkpt lat="25.443544" lon="100.507061">
<time>2014-08-04T20:25:30Z</time></trkpt>
<trkpt lat="25.443414" lon="100.50693">
<time>2014-08-04T20:25:31Z</time></trkpt>
<trkpt lat="25.443323" lon="100.50685">
<time>2014-08-04T20:25:32Z</time></trkpt>
<trkpt lat="25.443243" lon="100.50679">
<time>2014-08-04T20:25:33Z</time></trkpt>
<trkpt lat="25.443133" lon="100.50671">
<time>2014-08-04T20:25:34Z</time></trkpt>
<trkpt lat="25.443053" lon="100.50665">
<time>2014-08-04T20:25:35Z</time></trkpt>
<trkpt lat="25.442973" lon="100.506599">
<time>2014-08-04T20:25:36Z</time></trkpt>
<trkpt lat="25.442852" lon="100.506529">
<time>2014-08-04T20:25:37Z</time></trkpt>
<trkpt lat="25.442732" lon="100.506449">
<time>2014-08-04T20:25:38Z</time></trkpt>
<trkpt lat="25.442512" lon="100.506319">
<time>2014-08-04T20:25:39Z</time></trkpt>
<trkpt lat="25.442441" lon="100.506258">
<time>2014-08-04T20:25:40Z</time></trkpt>
<trkpt lat="25.442371" lon="100.506208">
<time>2014-08-04T20:25:41Z</time></trkpt>
<trkpt lat="25.442301" lon="100.506138">
<time>2014-08-04T20:25:42Z</time></trkpt>
<trkpt lat="25.442231" lon="100.506068">
<time>2014-08-04T20:25:43Z</time></trkpt>
<trkpt lat="25.44203" lon="100.505797">
<time>2014-08-04T20:25:44Z</time></trkpt>
<trkpt lat="25.44195" lon="100.505687">
<time>2014-08-04T20:25:45Z</time></trkpt>
<trkpt lat="25.441839" lon="100.505556">
<time>2014-08-04T20:25:46Z</time></trkpt>
<trkpt lat="25.441759" lon="100.505426">
<time>2014-08-04T20:25:47Z</time></trkpt>
<trkpt lat="25.441678" lon="100.505316">
<time>2014-08-04T20:25:48Z</time></trkpt>
<trkpt lat="25.441618" lon="100.505215">
<time>2014-08-04T20:25:49Z</time></trkpt>
<trkpt lat="25.441538" lon="100.505075">
<time>2014-08-04T20:25:50Z</time></trkpt>
<trkpt lat="25.441517" lon="100.505005">
<time>2014-08-04T20:25:51Z</time></trkpt>
<trkpt lat="25.441447" lon="100.504814">
<time>2014-08-04T20:25:52Z</time></trkpt>
<trkpt lat="25.441336" lon="100.504543">
<time>2014-08-04T20:25:53Z</time></trkpt>
<trkpt lat="25.441276" lon="100.504383">
<time>2014-08-04T20:25:54Z</time></trkpt>
<trkpt lat="25.441215" lon="100.504232">
<time>2014-08-04T20:25:55Z</time></trkpt>
<trkpt lat="25.441195" lon="100.504152">
<time>2014-08-04T20:25:56Z</time></trkpt>
<trkpt lat="25.441164" lon="100.504042">
<time>2014-08-04T20:25:57Z</time></trkpt>
<trkpt lat="25.441164" lon="100.503961">
<time>2014-08-04T20:25:58Z</time></trkpt>
<trkpt lat="25.441154" lon="100.503891">
<time>2014-08-04T20:25:59Z</time></trkpt>
<trkpt lat="25.441164" lon="100.503741">
<time>2014-08-04T20:26:00Z</time></trkpt>
<trkpt lat="25.441173" lon="100.50364">
<time>2014-08-04T20:26:01Z</time></trkpt>
<trkpt lat="25.441202" lon="100.50333">
<time>2014-08-04T20:26:02Z</time></trkpt>
<trkpt lat="25.441222" lon="100.503169">
<time>2014-08-04T20:26:03Z</time></trkpt>
<trkpt lat="25.441222" lon="100.503059">
<time>2014-08-04T20:26:04Z</time></trkpt>
<trkpt lat="25.441211" lon="100.502968">
<time>2014-08-04T20:26:05Z</time></trkpt>
<trkpt lat="25.441201" lon="100.502848">
<time>2014-08-04T20:26:06Z</time></trkpt>
<trkpt lat="25.441181" lon="100.502748">
<time>2014-08-04T20:26:07Z</time></trkpt>
<trkpt lat="25.44113" lon="100.502627">
<time>2014-08-04T20:26:08Z</time></trkpt>
<trkpt lat="25.44106" lon="100.502467">
<time>2014-08-04T20:26:09Z</time></trkpt>
<trkpt lat="25.440999" lon="100.502327">
<time>2014-08-04T20:26:10Z</time></trkpt>
<trkpt lat="25.440889" lon="100.502096">
<time>2014-08-04T20:26:11Z</time></trkpt>
<trkpt lat="25.440828" lon="100.501925">
<time>2014-08-04T20:26:12Z</time></trkpt>
<trkpt lat="25.440778" lon="100.501795">
<time>2014-08-04T20:26:13Z</time></trkpt>
<trkpt lat="25.440747" lon="100.501695">
<time>2014-08-04T20:26:14Z</time></trkpt>
<trkpt lat="25.440727" lon="100.501584">
<time>2014-08-04T20:26:15Z</time></trkpt>
<trkpt lat="25.440707" lon="100.501444">
<time>2014-08-04T20:26:16Z</time></trkpt>
<trkpt lat="25.440696" lon="100.501333">
<time>2014-08-04T20:26:17Z</time></trkpt>
<trkpt lat="25.440686" lon="100.501133">
<time>2014-08-04T20:26:18Z</time></trkpt>
<trkpt lat="25.440665" lon="100.500952">
<time>2014-08-04T20:26:19Z</time></trkpt>
<trkpt lat="25.440645" lon="100.500842">
<time>2014-08-04T20:26:20Z</time></trkpt>
<trkpt lat="25.440614" lon="100.500752">
<time>2014-08-04T20:26:21Z</time></trkpt>
<trkpt lat="25.440574" lon="100.500682">
<time>2014-08-04T20:26:22Z</time></trkpt>
<trkpt lat="25.440514" lon="100.500601">
<time>2014-08-04T20:26:23Z</time></trkpt>
<trkpt lat="25.440464" lon="100.500541">
<time>2014-08-04T20:26:24Z</time></trkpt>
<trkpt lat="25.440414" lon="100.500491">
<time>2014-08-04T20:26:25Z</time></trkpt>
<trkpt lat="25.440343" lon="100.500441">
<time>2014-08-04T20:26:26Z</time></trkpt>
<trkpt lat="25.440293" lon="100.500411">
<time>2014-08-04T20:26:27Z</time></trkpt>
<trkpt lat="25.440203" lon="100.500371">
<time>2014-08-04T20:26:28Z</time></trkpt>
<trkpt lat="25.440033" lon="100.50034">
<time>2014-08-04T20:26:29Z</time></trkpt>
<trkpt lat="25.439883" lon="100.50032">
<time>2014-08-04T20:26:30Z</time></trkpt>
<trkpt lat="25.439623" lon="100.5003">
<time>2014-08-04T20:26:31Z</time></trkpt>
<trkpt lat="25.439393" lon="100.50027">
<time>2014-08-04T20:26:32Z</time></trkpt>
<trkpt lat="25.439223" lon="100.50022">
<time>2014-08-04T20:26:33Z</time></trkpt>
<trkpt lat="25.439142" lon="100.5002">
<time>2014-08-04T20:26:34Z</time></trkpt>
<trkpt lat="25.439032" lon="100.50014">
<time>2014-08-04T20:26:35Z</time></trkpt>
<trkpt lat="25.438912" lon="100.50008">
<time>2014-08-04T20:26:36Z</time></trkpt>
<trkpt lat="25.438822" lon="100.50002">
<time>2014-08-04T20:26:37Z</time></trkpt>
<trkpt lat="25.438661" lon="100.499919">
<time>2014-08-04T20:26:38Z</time></trkpt>
<trkpt lat="25.438531" lon="100.499849">
<time>2014-08-04T20:26:39Z</time></trkpt>
<trkpt lat="25.438471" lon="100.499799">
<time>2014-08-04T20:26:40Z</time></trkpt>
<trkpt lat="25.438361" lon="100.499719">
<time>2014-08-04T20:26:41Z</time></trkpt>
<trkpt lat="25.438291" lon="100.499658">
<time>2014-08-04T20:26:42Z</time></trkpt>
<trkpt lat="25.43821" lon="100.499588">
<time>2014-08-04T20:26:43Z</time></trkpt>
<trkpt lat="25.43814" lon="100.499518">
<time>2014-08-04T20:26:44Z</time></trkpt>
<trkpt lat="25.438" lon="100.499388">
<time>2014-08-04T20:26:45Z</time></trkpt>
<trkpt lat="25.437829" lon="100.499217">
<time>2014-08-04T20:26:46Z</time></trkpt>
<trkpt lat="25.437649" lon="100.499037">
<time>2014-08-04T20:26:47Z</time></trkpt>
<trkpt lat="25.437548" lon="100.498926">
<time>2014-08-04T20:26:48Z</time></trkpt>
<trkpt lat="25.437468" lon="100.498856">
<time>2014-08-04T20:26:49Z</time></trkpt>
<trkpt lat="25.437378" lon="100.498776">
<time>2014-08-04T20:26:50Z</time></trkpt>
<trkpt lat="25.437257" lon="100.498665">
<time>2014-08-04T20:26:51Z</time></trkpt>
<trkpt lat="25.437167" lon="100.498585">
<time>2014-08-04T20:26:52Z</time></trkpt>
<trkpt lat="25.437067" lon="100.498505">
<time>2014-08-04T20:26:53Z</time></trkpt>
<trkpt lat="25.436947" lon="100.498415">
<time>2014-08-04T20:26:54Z</time></trkpt>
<trkpt lat="25.436826" lon="100.498334">
<time>2014-08-04T20:26:55Z</time></trkpt>
<trkpt lat="25.436766" lon="100.498304">
<time>2014-08-04T20:26:56Z</time></trkpt>
<trkpt lat="25.436696" lon="100.498254">
<time>2014-08-04T20:26:57Z</time></trkpt>
<trkpt lat="25.436646" lon="100.498214">
<time>2014-08-04T20:26:58Z</time></trkpt>
<trkpt lat="25.436566" lon="100.498174">
<time>2014-08-04T20:26:59Z</time></trkpt>
<trkpt lat="25.436516" lon="100.498144">
<time>2014-08-04T20:27:00Z</time></trkpt>
<trkpt lat="25.436476" lon="100.498124">
<time>2014-08-04T20:27:01Z</time></trkpt>
<trkpt lat="25.436395" lon="100.498094">
<time>2014-08-04T20:27:02Z</time></trkpt>
<trkpt lat="25.436335" lon="100.498064">
<time>2014-08-04T20:27:03Z</time></trkpt>
<trkpt lat="25.436195" lon="100.498013">
<time>2014-08-04T20:27:04Z</time></trkpt>
<trkpt lat="25.435935" lon="100.497943">
<time>2014-08-04T20:27:05Z</time></trkpt>
<trkpt lat="25.435555" lon="100.497853">
<time>2014-08-04T20:27:06Z</time></trkpt>
<trkpt lat="25.435394" lon="100.497823">
<time>2014-08-04T20:27:07Z</time></trkpt>
<trkpt lat="25.435254" lon="100.497803">
<time>2014-08-04T20:27:08Z</time></trkpt>
<trkpt lat="25.435174" lon="100.497793">
<time>2014-08-04T20:27:09Z</time></trkpt>
<trkpt lat="25.435004" lon="100.497783">
<time>2014-08-04T20:27:10Z</time></trkpt>
<trkpt lat="25.434804" lon="100.497763">
<time>2014-08-04T20:27:11Z</time></trkpt>
<trkpt lat="25.434734" lon="100.497753">
<time>2014-08-04T20:27:12Z</time></trkpt>
<trkpt lat="25.434654" lon="100.497733">
<time>2014-08-04T20:27:13Z</time></trkpt>
<trkpt lat="25.434554" lon="100.497723">
<time>2014-08-04T20:27:14Z</time></trkpt>
<trkpt lat="25.434494" lon="100.497703">
<time>2014-08-04T20:27:15Z</time></trkpt>
<trkpt lat="25.434404" lon="100.497673">
<time>2014-08-04T20:27:16Z</time></trkpt>
<trkpt lat="25.434324" lon="100.497632">
<time>2014-08-04T20:27:17Z</time></trkpt>
<trkpt lat="25.434213" lon="100.497582">
<time>2014-08-04T20:27:18Z</time></trkpt>
<trkpt lat="25.434053" lon="100.497492">
<time>2014-08-04T20:27:19Z</time></trkpt>
<trkpt lat="25.433712" lon="100.497291">
<time>2014-08-04T20:27:20Z</time></trkpt>
<trkpt lat="25.433602" lon="100.497221">
<time>2014-08-04T20:27:21Z</time></trkpt>
<trkpt lat="25.433552" lon="100.497181">
<time>2014-08-04T20:27:22Z</time></trkpt>
<trkpt lat="25.433492" lon="100.497151">
<time>2014-08-04T20:27:23Z</time></trkpt>
<trkpt lat="25.433452" lon="100.497111">
<time>2014-08-04T20:27:24Z</time></trkpt>
<trkpt lat="25.433422" lon="100.497081">
<time>2014-08-04T20:27:25Z</time></trkpt>
<trkpt lat="25.433402" lon="100.497061">
<time>2014-08-04T20:27:26Z</time></trkpt>
<trkpt lat="25.433361" lon="100.497011">
<time>2014-08-04T20:27:27Z</time></trkpt>
<trkpt lat="25.433321" lon="100.49697">
<time>2014-08-04T20:27:28Z</time></trkpt>
<trkpt lat="25.433291" lon="100.49691">
<time>2014-08-04T20:27:29Z</time></trkpt>
<trkpt lat="25.433231" lon="100.49683">
<time>2014-08-04T20:27:30Z</time></trkpt>
<trkpt lat="25.43312" lon="100.496639">
<time>2014-08-04T20:27:31Z</time></trkpt>
<trkpt lat="25.432919" lon="100.496288">
<time>2014-08-04T20:27:32Z</time></trkpt>
<trkpt lat="25.432829" lon="100.496088">
<time>2014-08-04T20:27:33Z</time></trkpt>
<trkpt lat="25.432768" lon="100.495947">
<time>2014-08-04T20:27:34Z</time></trkpt>
<trkpt lat="25.432728" lon="100.495847">
<time>2014-08-04T20:27:35Z</time></trkpt>
<trkpt lat="25.432677" lon="100.495717">
<time>2014-08-04T20:27:36Z</time></trkpt>
<trkpt lat="25.432657" lon="100.495606">
<time>2014-08-04T20:27:37Z</time></trkpt>
<trkpt lat="25.432637" lon="100.495446">
<time>2014-08-04T20:27:38Z</time></trkpt>
<trkpt lat="25.432606" lon="100.495225">
<time>2014-08-04T20:27:39Z</time></trkpt>
<trkpt lat="25.432585" lon="100.494864">
<time>2014-08-04T20:27:40Z</time></trkpt>
<trkpt lat="25.432554" lon="100.494493">
<time>2014-08-04T20:27:41Z</time></trkpt>
<trkpt lat="25.432543" lon="100.494362">
<time>2014-08-04T20:27:42Z</time></trkpt>
<trkpt lat="25.432523" lon="100.494272">
<time>2014-08-04T20:27:43Z</time></trkpt>
<trkpt lat="25.432503" lon="100.494122">
<time>2014-08-04T20:27:44Z</time></trkpt>
<trkpt lat="25.432462" lon="100.493891">
<time>2014-08-04T20:27:45Z</time></trkpt>
<trkpt lat="25.432391" lon="100.49349">
<time>2014-08-04T20:27:46Z</time></trkpt>
<trkpt lat="25.432248" lon="100.492758">
<time>2014-08-04T20:27:47Z</time></trkpt>
<trkpt lat="25.432238" lon="100.492677">
<time>2014-08-04T20:27:48Z</time></trkpt>
<trkpt lat="25.432198" lon="100.492487">
<time>2014-08-04T20:27:49Z</time></trkpt>
<trkpt lat="25.432177" lon="100.492316">
<time>2014-08-04T20:27:50Z</time></trkpt>
<trkpt lat="25.432157" lon="100.492146">
<time>2014-08-04T20:27:51Z</time></trkpt>
<trkpt lat="25.432136" lon="100.491925">
<time>2014-08-04T20:27:52Z</time></trkpt>
<trkpt lat="25.432125" lon="100.491664">
<time>2014-08-04T20:27:53Z</time></trkpt>
<trkpt lat="25.432114" lon="100.491153">
<time>2014-08-04T20:27:54Z</time></trkpt>
<trkpt lat="25.432092" lon="100.490731">
<time>2014-08-04T20:27:55Z</time></trkpt>
<trkpt lat="25.432092" lon="100.490621">
<time>2014-08-04T20:27:56Z</time></trkpt>
<trkpt lat="25.432102" lon="100.490521">
<time>2014-08-04T20:27:57Z</time></trkpt>
<trkpt lat="25.432121" lon="100.4904">
<time>2014-08-04T20:27:58Z</time></trkpt>
<trkpt lat="25.432131" lon="100.4903">
<time>2014-08-04T20:27:59Z</time></trkpt>
<trkpt lat="25.432161" lon="100.49022">
<time>2014-08-04T20:28:00Z</time></trkpt>
<trkpt lat="25.432211" lon="100.49011">
<time>2014-08-04T20:28:01Z</time></trkpt>
<trkpt lat="25.43226" lon="100.489999">
<time>2014-08-04T20:28:02Z</time></trkpt>
<trkpt lat="25.43233" lon="100.489909">
<time>2014-08-04T20:28:03Z</time></trkpt>
<trkpt lat="25.43238" lon="100.489829">
<time>2014-08-04T20:28:04Z</time></trkpt>
<trkpt lat="25.432499" lon="100.489678">
<time>2014-08-04T20:28:05Z</time></trkpt>
<trkpt lat="25.432728" lon="100.489367">
<time>2014-08-04T20:28:06Z</time></trkpt>
<trkpt lat="25.432948" lon="100.489036">
<time>2014-08-04T20:28:07Z</time></trkpt>
<trkpt lat="25.433147" lon="100.488755">
<time>2014-08-04T20:28:08Z</time></trkpt>
<trkpt lat="25.433216" lon="100.488655">
<time>2014-08-04T20:28:09Z</time></trkpt>
<trkpt lat="25.433246" lon="100.488585">
<time>2014-08-04T20:28:10Z</time></trkpt>
<trkpt lat="25.433266" lon="100.488525">
<time>2014-08-04T20:28:11Z</time></trkpt>
<trkpt lat="25.433276" lon="100.488455">
<time>2014-08-04T20:28:12Z</time></trkpt>
<trkpt lat="25.433286" lon="100.488394">
<time>2014-08-04T20:28:13Z</time></trkpt>
<trkpt lat="25.433285" lon="100.488234">
<time>2014-08-04T20:28:14Z</time></trkpt>
<trkpt lat="25.433285" lon="100.488134">
<time>2014-08-04T20:28:15Z</time></trkpt>
<trkpt lat="25.433213" lon="100.487371">
<time>2014-08-04T20:28:16Z</time></trkpt>
<trkpt lat="25.433161" lon="100.486749">
<time>2014-08-04T20:28:17Z</time></trkpt>
<trkpt lat="25.433151" lon="100.486679">
<time>2014-08-04T20:28:18Z</time></trkpt>
<trkpt lat="25.43314" lon="100.486629">
<time>2014-08-04T20:28:19Z</time></trkpt>
<trkpt lat="25.43313" lon="100.486569">
<time>2014-08-04T20:28:20Z</time></trkpt>
<trkpt lat="25.43312" lon="100.486519">
<time>2014-08-04T20:28:21Z</time></trkpt>
<trkpt lat="25.4331" lon="100.486449">
<time>2014-08-04T20:28:22Z</time></trkpt>
<trkpt lat="25.43307" lon="100.486358">
<time>2014-08-04T20:28:23Z</time></trkpt>
<trkpt lat="25.433039" lon="100.486278">
<time>2014-08-04T20:28:24Z</time></trkpt>
<trkpt lat="25.433009" lon="100.486218">
<time>2014-08-04T20:28:25Z</time></trkpt>
<trkpt lat="25.432959" lon="100.486138">
<time>2014-08-04T20:28:26Z</time></trkpt>
<trkpt lat="25.432919" lon="100.486087">
<time>2014-08-04T20:28:27Z</time></trkpt>
<trkpt lat="25.432879" lon="100.486037">
<time>2014-08-04T20:28:28Z</time></trkpt>
<trkpt lat="25.432849" lon="100.485997">
<time>2014-08-04T20:28:29Z</time></trkpt>
<trkpt lat="25.432798" lon="100.485967">
<time>2014-08-04T20:28:30Z</time></trkpt>
<trkpt lat="25.432758" lon="100.485937">
<time>2014-08-04T20:28:31Z</time></trkpt>
<trkpt lat="25.432698" lon="100.485907">
<time>2014-08-04T20:28:32Z</time></trkpt>
<trkpt lat="25.432648" lon="100.485887">
<time>2014-08-04T20:28:33Z</time></trkpt>
<trkpt lat="25.432578" lon="100.485867">
<time>2014-08-04T20:28:34Z</time></trkpt>
<trkpt lat="25.432498" lon="100.485857">
<time>2014-08-04T20:28:35Z</time></trkpt>
<trkpt lat="25.432298" lon="100.485827">
<time>2014-08-04T20:28:36Z</time></trkpt>
<trkpt lat="25.432028" lon="100.485797">
<time>2014-08-04T20:28:37Z</time></trkpt>
<trkpt lat="25.431618" lon="100.485757">
<time>2014-08-04T20:28:38Z</time></trkpt>
<trkpt lat="25.431487" lon="100.485736">
<time>2014-08-04T20:28:39Z</time></trkpt>
<trkpt lat="25.431417" lon="100.485716">
<time>2014-08-04T20:28:40Z</time></trkpt>
<trkpt lat="25.431347" lon="100.485706">
<time>2014-08-04T20:28:41Z</time></trkpt>
<trkpt lat="25.431257" lon="100.485676">
<time>2014-08-04T20:28:42Z</time></trkpt>
<trkpt lat="25.431137" lon="100.485636">
<time>2014-08-04T20:28:43Z</time></trkpt>
<trkpt lat="25.431087" lon="100.485606">
<time>2014-08-04T20:28:44Z</time></trkpt>
<trkpt lat="25.431017" lon="100.485566">
<time>2014-08-04T20:28:45Z</time></trkpt>
<trkpt lat="25.430837" lon="100.485466">
<time>2014-08-04T20:28:46Z</time></trkpt>
<trkpt lat="25.430716" lon="100.485395">
<time>2014-08-04T20:28:47Z</time></trkpt>
<trkpt lat="25.430656" lon="100.485365">
<time>2014-08-04T20:28:48Z</time></trkpt>
<trkpt lat="25.430576" lon="100.485325">
<time>2014-08-04T20:28:49Z</time></trkpt>
<trkpt lat="25.430516" lon="100.485305">
<time>2014-08-04T20:28:50Z</time></trkpt>
<trkpt lat="25.430466" lon="100.485285">
<time>2014-08-04T20:28:51Z</time></trkpt>
<trkpt lat="25.430396" lon="100.485265">
<time>2014-08-04T20:28:52Z</time></trkpt>
<trkpt lat="25.430306" lon="100.485235">
<time>2014-08-04T20:28:53Z</time></trkpt>
<trkpt lat="25.430256" lon="100.485225">
<time>2014-08-04T20:28:54Z</time></trkpt>
<trkpt lat="25.430206" lon="100.485225">
<time>2014-08-04T20:28:55Z</time></trkpt>
<trkpt lat="25.430076" lon="100.485205">
<time>2014-08-04T20:28:56Z</time></trkpt>
<trkpt lat="25.429986" lon="100.485205">
<time>2014-08-04T20:28:57Z</time></trkpt>
<trkpt lat="25.429936" lon="100.485205">
<time>2014-08-04T20:28:58Z</time></trkpt>
<trkpt lat="25.429846" lon="100.485205">
<time>2014-08-04T20:28:59Z</time></trkpt>
<trkpt lat="25.429776" lon="100.485215">
<time>2014-08-04T20:29:00Z</time></trkpt>
<trkpt lat="25.429706" lon="100.485215">
<time>2014-08-04T20:29:01Z</time></trkpt>
<trkpt lat="25.429596" lon="100.485235">
<time>2014-08-04T20:29:02Z</time></trkpt>
<trkpt lat="25.429526" lon="100.485255">
<time>2014-08-04T20:29:03Z</time></trkpt>
<trkpt lat="25.429386" lon="100.485285">
<time>2014-08-04T20:29:04Z</time></trkpt>
<trkpt lat="25.429286" lon="100.485325">
<time>2014-08-04T20:29:05Z</time></trkpt>
<trkpt lat="25.428946" lon="100.485476">
<time>2014-08-04T20:29:06Z</time></trkpt>
<trkpt lat="25.428307" lon="100.485787">
<time>2014-08-04T20:29:07Z</time></trkpt>
<trkpt lat="25.428097" lon="100.485887">
<time>2014-08-04T20:29:08Z</time></trkpt>
<trkpt lat="25.428017" lon="100.485917">
<time>2014-08-04T20:29:09Z</time></trkpt>
<trkpt lat="25.427927" lon="100.485947">
<time>2014-08-04T20:29:10Z</time></trkpt>
<trkpt lat="25.427837" lon="100.485967">
<time>2014-08-04T20:29:11Z</time></trkpt>
<trkpt lat="25.427767" lon="100.485977">
<time>2014-08-04T20:29:12Z</time></trkpt>
<trkpt lat="25.427657" lon="100.485987">
<time>2014-08-04T20:29:13Z</time></trkpt>
<trkpt lat="25.427577" lon="100.485997">
<time>2014-08-04T20:29:14Z</time></trkpt>
<trkpt lat="25.427517" lon="100.485997">
<time>2014-08-04T20:29:15Z</time></trkpt>
<trkpt lat="25.427467" lon="100.485997">
<time>2014-08-04T20:29:16Z</time></trkpt>
<trkpt lat="25.427437" lon="100.485997">
<time>2014-08-04T20:29:17Z</time></trkpt>
<trkpt lat="25.427357" lon="100.485977">
<time>2014-08-04T20:29:18Z</time></trkpt>
<trkpt lat="25.427287" lon="100.485957">
<time>2014-08-04T20:29:19Z</time></trkpt>
<trkpt lat="25.427187" lon="100.485927">
<time>2014-08-04T20:29:20Z</time></trkpt>
<trkpt lat="25.427127" lon="100.485897">
<time>2014-08-04T20:29:21Z</time></trkpt>
<trkpt lat="25.427057" lon="100.485847">
<time>2014-08-04T20:29:22Z</time></trkpt>
<trkpt lat="25.426997" lon="100.485807">
<time>2014-08-04T20:29:23Z</time></trkpt>
<trkpt lat="25.426936" lon="100.485747">
<time>2014-08-04T20:29:24Z</time></trkpt>
<trkpt lat="25.426876" lon="100.485696">
<time>2014-08-04T20:29:25Z</time></trkpt>
<trkpt lat="25.426826" lon="100.485626">
<time>2014-08-04T20:29:26Z</time></trkpt>
<trkpt lat="25.426756" lon="100.485526">
<time>2014-08-04T20:29:27Z</time></trkpt>
<trkpt lat="25.426665" lon="100.485406">
<time>2014-08-04T20:29:28Z</time></trkpt>
<trkpt lat="25.426615" lon="100.485345">
<time>2014-08-04T20:29:29Z</time></trkpt>
<trkpt lat="25.426565" lon="100.485285">
<time>2014-08-04T20:29:30Z</time></trkpt>
<trkpt lat="25.426525" lon="100.485245">
<time>2014-08-04T20:29:31Z</time></trkpt>
<trkpt lat="25.426485" lon="100.485225">
<time>2014-08-04T20:29:32Z</time></trkpt>
<trkpt lat="25.426485" lon="100.485215">
<time>2014-08-04T20:29:33Z</time></trkpt>
<trkpt lat="25.426435" lon="100.485185">
<time>2014-08-04T20:29:34Z</time></trkpt>
<trkpt lat="25.426385" lon="100.485155">
<time>2014-08-04T20:29:35Z</time></trkpt>
<trkpt lat="25.426335" lon="100.485135">
<time>2014-08-04T20:29:36Z</time></trkpt>
<trkpt lat="25.426274" lon="100.485115">
<time>2014-08-04T20:29:37Z</time></trkpt>
<trkpt lat="25.426214" lon="100.485095">
<time>2014-08-04T20:29:38Z</time></trkpt>
<trkpt lat="25.426154" lon="100.485085">
<time>2014-08-04T20:29:39Z</time></trkpt>
<trkpt lat="25.425974" lon="100.485045">
<time>2014-08-04T20:29:40Z</time></trkpt>
<trkpt lat="25.425714" lon="100.485004">
<time>2014-08-04T20:29:41Z</time></trkpt>
<trkpt lat="25.425584" lon="100.484974">
<time>2014-08-04T20:29:42Z</time></trkpt>
<trkpt lat="25.425514" lon="100.484954">
<time>2014-08-04T20:29:43Z</time></trkpt>
<trkpt lat="25.425454" lon="100.484934">
<time>2014-08-04T20:29:44Z</time></trkpt>
<trkpt lat="25.425384" lon="100.484914">
<time>2014-08-04T20:29:45Z</time></trkpt>
<trkpt lat="25.425324" lon="100.484894">
<time>2014-08-04T20:29:46Z</time></trkpt>
<trkpt lat="25.425274" lon="100.484864">
<time>2014-08-04T20:29:47Z</time></trkpt>
<trkpt lat="25.425193" lon="100.484834">
<time>2014-08-04T20:29:48Z</time></trkpt>
<trkpt lat="25.424983" lon="100.484734">
<time>2014-08-04T20:29:49Z</time></trkpt>
<trkpt lat="25.424923" lon="100.484704">
<time>2014-08-04T20:29:50Z</time></trkpt>
<trkpt lat="25.424873" lon="100.484684">
<time>2014-08-04T20:29:51Z</time></trkpt>
<trkpt lat="25.424803" lon="100.484663">
<time>2014-08-04T20:29:52Z</time></trkpt>
<trkpt lat="25.424733" lon="100.484643">
<time>2014-08-04T20:29:53Z</time></trkpt>
<trkpt lat="25.424683" lon="100.484623">
<time>2014-08-04T20:29:54Z</time></trkpt>
<trkpt lat="25.424633" lon="100.484613">
<time>2014-08-04T20:29:55Z</time></trkpt>
<trkpt lat="25.424593" lon="100.484613">
<time>2014-08-04T20:29:56Z</time></trkpt>
<trkpt lat="25.424453" lon="100.484593">
<time>2014-08-04T20:29:57Z</time></trkpt>
<trkpt lat="25.424413" lon="100.484583">
<time>2014-08-04T20:29:58Z</time></trkpt>
<trkpt lat="25.424362" lon="100.484573">
<time>2014-08-04T20:29:59Z</time></trkpt>
<trkpt lat="25.424302" lon="100.484563">
<time>2014-08-04T20:30:00Z</time></trkpt>
<trkpt lat="25.424252" lon="100.484543">
<time>2014-08-04T20:30:01Z</time></trkpt>
<trkpt lat="25.424182" lon="100.484523">
<time>2014-08-04T20:30:02Z</time></trkpt>
<trkpt lat="25.424132" lon="100.484493">
<time>2014-08-04T20:30:03Z</time></trkpt>
<trkpt lat="25.424092" lon="100.484473">
<time>2014-08-04T20:30:04Z</time></trkpt>
<trkpt lat="25.424062" lon="100.484453">
<time>2014-08-04T20:30:05Z</time></trkpt>
<trkpt lat="25.423992" lon="100.484403">
<time>2014-08-04T20:30:06Z</time></trkpt>
<trkpt lat="25.423922" lon="100.484363">
<time>2014-08-04T20:30:07Z</time></trkpt>
<trkpt lat="25.423882" lon="100.484332">
<time>2014-08-04T20:30:08Z</time></trkpt>
<trkpt lat="25.423832" lon="100.484292">
<time>2014-08-04T20:30:09Z</time></trkpt>
<trkpt lat="25.423791" lon="100.484262">
<time>2014-08-04T20:30:10Z</time></trkpt>
<trkpt lat="25.423751" lon="100.484232">
<time>2014-08-04T20:30:11Z</time></trkpt>
<trkpt lat="25.423721" lon="100.484222">
<time>2014-08-04T20:30:12Z</time></trkpt>
<trkpt lat="25.423681" lon="100.484202">
<time>2014-08-04T20:30:13Z</time></trkpt>
<trkpt lat="25.423631" lon="100.484172">
<time>2014-08-04T20:30:14Z</time></trkpt>
<trkpt lat="25.423571" lon="100.484162">
<time>2014-08-04T20:30:15Z</time></trkpt>
<trkpt lat="25.423541" lon="100.484152">
<time>2014-08-04T20:30:16Z</time></trkpt>
<trkpt lat="25.423501" lon="100.484142">
<time>2014-08-04T20:30:17Z</time></trkpt>
<trkpt lat="25.423451" lon="100.484142">
<time>2014-08-04T20:30:18Z</time></trkpt>
<trkpt lat="25.423411" lon="100.484152">
<time>2014-08-04T20:30:19Z</time></trkpt>
<trkpt lat="25.423341" lon="100.484162">
<time>2014-08-04T20:30:20Z</time></trkpt>
<trkpt lat="25.423271" lon="100.484182">
<time>2014-08-04T20:30:21Z</time></trkpt>
<trkpt lat="25.423181" lon="100.484222">
<time>2014-08-04T20:30:22Z</time></trkpt>
<trkpt lat="25.423101" lon="100.484282">
<time>2014-08-04T20:30:23Z</time></trkpt>
<trkpt lat="25.422882" lon="100.484453">
<time>2014-08-04T20:30:24Z</time></trkpt>
<trkpt lat="25.422253" lon="100.485015">
<time>2014-08-04T20:30:25Z</time></trkpt>
<trkpt lat="25.422203" lon="100.485045">
<time>2014-08-04T20:30:26Z</time></trkpt>
<trkpt lat="25.421974" lon="100.485205">
<time>2014-08-04T20:30:27Z</time></trkpt>
<trkpt lat="25.421834" lon="100.485305">
<time>2014-08-04T20:30:28Z</time></trkpt>
<trkpt lat="25.421634" lon="100.485426">
<time>2014-08-04T20:30:29Z</time></trkpt>
<trkpt lat="25.421525" lon="100.485486">
<time>2014-08-04T20:30:30Z</time></trkpt>
<trkpt lat="25.421405" lon="100.485566">
<time>2014-08-04T20:30:31Z</time></trkpt>
<trkpt lat="25.421285" lon="100.485656">
<time>2014-08-04T20:30:32Z</time></trkpt>
<trkpt lat="25.421195" lon="100.485727">
<time>2014-08-04T20:30:33Z</time></trkpt>
<trkpt lat="25.420886" lon="100.485947">
<time>2014-08-04T20:30:34Z</time></trkpt>
<trkpt lat="25.420527" lon="100.486248">
<time>2014-08-04T20:30:35Z</time></trkpt>
<trkpt lat="25.420447" lon="100.486308">
<time>2014-08-04T20:30:36Z</time></trkpt>
<trkpt lat="25.420317" lon="100.486399">
<time>2014-08-04T20:30:37Z</time></trkpt>
<trkpt lat="25.420237" lon="100.486449">
<time>2014-08-04T20:30:38Z</time></trkpt>
<trkpt lat="25.420167" lon="100.486479">
<time>2014-08-04T20:30:39Z</time></trkpt>
<trkpt lat="25.420057" lon="100.486509">
<time>2014-08-04T20:30:40Z</time></trkpt>
<trkpt lat="25.419927" lon="100.486549">
<time>2014-08-04T20:30:41Z</time></trkpt>
<trkpt lat="25.419797" lon="100.486569">
<time>2014-08-04T20:30:42Z</time></trkpt>
<trkpt lat="25.419397" lon="100.486609">
<time>2014-08-04T20:30:43Z</time></trkpt>
<trkpt lat="25.419097" lon="100.48665">
<time>2014-08-04T20:30:44Z</time></trkpt>
<trkpt lat="25.419047" lon="100.48665">
<time>2014-08-04T20:30:45Z</time></trkpt>
<trkpt lat="25.418987" lon="100.48665">
<time>2014-08-04T20:30:46Z</time></trkpt>
<trkpt lat="25.418937" lon="100.48665">
<time>2014-08-04T20:30:47Z</time></trkpt>
<trkpt lat="25.418897" lon="100.486639">
<time>2014-08-04T20:30:48Z</time></trkpt>
<trkpt lat="25.418847" lon="100.486629">
<time>2014-08-04T20:30:49Z</time></trkpt>
<trkpt lat="25.418797" lon="100.486619">
<time>2014-08-04T20:30:50Z</time></trkpt>
<trkpt lat="25.418717" lon="100.486589">
<time>2014-08-04T20:30:51Z</time></trkpt>
<trkpt lat="25.418487" lon="100.486489">
<time>2014-08-04T20:30:52Z</time></trkpt>
<trkpt lat="25.418246" lon="100.486369">
<time>2014-08-04T20:30:53Z</time></trkpt>
<trkpt lat="25.418066" lon="100.486298">
<time>2014-08-04T20:30:54Z</time></trkpt>
<trkpt lat="25.417686" lon="100.486158">
<time>2014-08-04T20:30:55Z</time></trkpt>
<trkpt lat="25.417115" lon="100.485957">
<time>2014-08-04T20:30:56Z</time></trkpt>
<trkpt lat="25.416975" lon="100.485897">
<time>2014-08-04T20:30:57Z</time></trkpt>
<trkpt lat="25.416785" lon="100.485837">
<time>2014-08-04T20:30:58Z</time></trkpt>
<trkpt lat="25.416684" lon="100.485807">
<time>2014-08-04T20:30:59Z</time></trkpt>
<trkpt lat="25.416574" lon="100.485777">
<time>2014-08-04T20:31:00Z</time></trkpt>
<trkpt lat="25.416474" lon="100.485757">
<time>2014-08-04T20:31:01Z</time></trkpt>
<trkpt lat="25.416364" lon="100.485727">
<time>2014-08-04T20:31:02Z</time></trkpt>
<trkpt lat="25.416194" lon="100.485677">
<time>2014-08-04T20:31:03Z</time></trkpt>
<trkpt lat="25.416094" lon="100.485657">
<time>2014-08-04T20:31:04Z</time></trkpt>
<trkpt lat="25.416024" lon="100.485627">
<time>2014-08-04T20:31:05Z</time></trkpt>
<trkpt lat="25.415974" lon="100.485617">
<time>2014-08-04T20:31:06Z</time></trkpt>
<trkpt lat="25.415934" lon="100.485596">
<time>2014-08-04T20:31:07Z</time></trkpt>
<trkpt lat="25.415904" lon="100.485586">
<time>2014-08-04T20:31:08Z</time></trkpt>
<trkpt lat="25.415864" lon="100.485566">
<time>2014-08-04T20:31:09Z</time></trkpt>
<trkpt lat="25.415843" lon="100.485546">
<time>2014-08-04T20:31:10Z</time></trkpt>
<trkpt lat="25.415813" lon="100.485526">
<time>2014-08-04T20:31:11Z</time></trkpt>
<trkpt lat="25.415783" lon="100.485496">
<time>2014-08-04T20:31:12Z</time></trkpt>
<trkpt lat="25.415763" lon="100.485476">
<time>2014-08-04T20:31:13Z</time></trkpt>
<trkpt lat="25.415743" lon="100.485456">
<time>2014-08-04T20:31:14Z</time></trkpt>
<trkpt lat="25.415723" lon="100.485426">
<time>2014-08-04T20:31:15Z</time></trkpt>
<trkpt lat="25.415703" lon="100.485386">
<time>2014-08-04T20:31:16Z</time></trkpt>
<trkpt lat="25.415683" lon="100.485336">
<time>2014-08-04T20:31:17Z</time></trkpt>
<trkpt lat="25.415663" lon="100.485286">
<time>2014-08-04T20:31:18Z</time></trkpt>
<trkpt lat="25.415653" lon="100.485225">
<time>2014-08-04T20:31:19Z</time></trkpt>
<trkpt lat="25.415642" lon="100.485165">
<time>2014-08-04T20:31:20Z</time></trkpt>
<trkpt lat="25.415632" lon="100.485095">
<time>2014-08-04T20:31:21Z</time></trkpt>
<trkpt lat="25.415622" lon="100.485005">
<time>2014-08-04T20:31:22Z</time></trkpt>
<trkpt lat="25.415622" lon="100.484894">
<time>2014-08-04T20:31:23Z</time></trkpt>
<trkpt lat="25.415621" lon="100.484784">
<time>2014-08-04T20:31:24Z</time></trkpt>
<trkpt lat="25.415641" lon="100.484553">
<time>2014-08-04T20:31:25Z</time></trkpt>
<trkpt lat="25.41567" lon="100.484242">
<time>2014-08-04T20:31:26Z</time></trkpt>
<trkpt lat="25.415679" lon="100.484072">
<time>2014-08-04T20:31:27Z</time></trkpt>
<trkpt lat="25.415689" lon="100.483921">
<time>2014-08-04T20:31:28Z</time></trkpt>
<trkpt lat="25.415698" lon="100.483771">
<time>2014-08-04T20:31:29Z</time></trkpt>
<trkpt lat="25.415698" lon="100.483621">
<time>2014-08-04T20:31:30Z</time></trkpt>
<trkpt lat="25.415698" lon="100.48354">
<time>2014-08-04T20:31:31Z</time></trkpt>
<trkpt lat="25.415697" lon="100.48339">
<time>2014-08-04T20:31:32Z</time></trkpt>
<trkpt lat="25.415706" lon="100.483079">
<time>2014-08-04T20:31:33Z</time></trkpt>
<trkpt lat="25.415715" lon="100.482598">
<time>2014-08-04T20:31:34Z</time></trkpt>
<trkpt lat="25.415734" lon="100.482176">
<time>2014-08-04T20:31:35Z</time></trkpt>
<trkpt lat="25.415752" lon="100.481735">
<time>2014-08-04T20:31:36Z</time></trkpt>
<trkpt lat="25.415771" lon="100.481424">
<time>2014-08-04T20:31:37Z</time></trkpt>
<trkpt lat="25.4158" lon="100.481053">
<time>2014-08-04T20:31:38Z</time></trkpt>
<trkpt lat="25.415819" lon="100.480702">
<time>2014-08-04T20:31:39Z</time></trkpt>
<trkpt lat="25.415829" lon="100.480481">
<time>2014-08-04T20:31:40Z</time></trkpt>
<trkpt lat="25.415848" lon="100.480201">
<time>2014-08-04T20:31:41Z</time></trkpt>
<trkpt lat="25.415857" lon="100.48002">
<time>2014-08-04T20:31:42Z</time></trkpt>
<trkpt lat="25.415877" lon="100.47985">
<time>2014-08-04T20:31:43Z</time></trkpt>
<trkpt lat="25.415897" lon="100.479729">
<time>2014-08-04T20:31:44Z</time></trkpt>
<trkpt lat="25.415926" lon="100.479599">
<time>2014-08-04T20:31:45Z</time></trkpt>
<trkpt lat="25.415985" lon="100.479188">
<time>2014-08-04T20:31:46Z</time></trkpt>
<trkpt lat="25.416064" lon="100.478686">
<time>2014-08-04T20:31:47Z</time></trkpt>
<trkpt lat="25.416112" lon="100.478014">
<time>2014-08-04T20:31:48Z</time></trkpt>
<trkpt lat="25.41615" lon="100.477513">
<time>2014-08-04T20:31:49Z</time></trkpt>
<trkpt lat="25.41616" lon="100.477302">
<time>2014-08-04T20:31:50Z</time></trkpt>
<trkpt lat="25.416159" lon="100.477072">
<time>2014-08-04T20:31:51Z</time></trkpt>
<trkpt lat="25.416158" lon="100.47657">
<time>2014-08-04T20:31:52Z</time></trkpt>
<trkpt lat="25.416157" lon="100.4764">
<time>2014-08-04T20:31:53Z</time></trkpt>
<trkpt lat="25.416157" lon="100.476219">
<time>2014-08-04T20:31:54Z</time></trkpt>
<trkpt lat="25.416166" lon="100.476119">
<time>2014-08-04T20:31:55Z</time></trkpt>
<trkpt lat="25.416176" lon="100.476019">
<time>2014-08-04T20:31:56Z</time></trkpt>
<trkpt lat="25.416196" lon="100.475948">
<time>2014-08-04T20:31:57Z</time></trkpt>
<trkpt lat="25.416206" lon="100.475898">
<time>2014-08-04T20:31:58Z</time></trkpt>
<trkpt lat="25.416226" lon="100.475848">
<time>2014-08-04T20:31:59Z</time></trkpt>
<trkpt lat="25.416246" lon="100.475808">
<time>2014-08-04T20:32:00Z</time></trkpt>
<trkpt lat="25.416276" lon="100.475778">
<time>2014-08-04T20:32:01Z</time></trkpt>
<trkpt lat="25.416295" lon="100.475748">
<time>2014-08-04T20:32:02Z</time></trkpt>
<trkpt lat="25.416325" lon="100.475718">
<time>2014-08-04T20:32:03Z</time></trkpt>
<trkpt lat="25.416355" lon="100.475688">
<time>2014-08-04T20:32:04Z</time></trkpt>
<trkpt lat="25.416415" lon="100.475647">
<time>2014-08-04T20:32:05Z</time></trkpt>
<trkpt lat="25.416475" lon="100.475627">
<time>2014-08-04T20:32:06Z</time></trkpt>
<trkpt lat="25.416515" lon="100.475617">
<time>2014-08-04T20:32:07Z</time></trkpt>
<trkpt lat="25.416575" lon="100.475607">
<time>2014-08-04T20:32:08Z</time></trkpt>
<trkpt lat="25.416605" lon="100.475607">
<time>2014-08-04T20:32:09Z</time></trkpt>
<trkpt lat="25.416645" lon="100.475607">
<time>2014-08-04T20:32:10Z</time></trkpt>
<trkpt lat="25.416675" lon="100.475607">
<time>2014-08-04T20:32:11Z</time></trkpt>
<trkpt lat="25.416685" lon="100.475607">
<time>2014-08-04T20:32:12Z</time></trkpt>
<trkpt lat="25.416735" lon="100.475617">
<time>2014-08-04T20:32:13Z</time></trkpt>
<trkpt lat="25.416805" lon="100.475637">
<time>2014-08-04T20:32:14Z</time></trkpt>
<trkpt lat="25.416885" lon="100.475668">
<time>2014-08-04T20:32:15Z</time></trkpt>
<trkpt lat="25.416985" lon="100.475698">
<time>2014-08-04T20:32:16Z</time></trkpt>
<trkpt lat="25.417136" lon="100.475768">
<time>2014-08-04T20:32:17Z</time></trkpt>
<trkpt lat="25.417266" lon="100.475818">
<time>2014-08-04T20:32:18Z</time></trkpt>
<trkpt lat="25.417386" lon="100.475858">
<time>2014-08-04T20:32:19Z</time></trkpt>
<trkpt lat="25.417476" lon="100.475888">
<time>2014-08-04T20:32:20Z</time></trkpt>
<trkpt lat="25.417546" lon="100.475908">
<time>2014-08-04T20:32:21Z</time></trkpt>
<trkpt lat="25.417646" lon="100.475938">
<time>2014-08-04T20:32:22Z</time></trkpt>
<trkpt lat="25.417716" lon="100.475948">
<time>2014-08-04T20:32:23Z</time></trkpt>
<trkpt lat="25.417796" lon="100.475938">
<time>2014-08-04T20:32:24Z</time></trkpt>
<trkpt lat="25.417856" lon="100.475918">
<time>2014-08-04T20:32:25Z</time></trkpt>
<trkpt lat="25.417926" lon="100.475888">
<time>2014-08-04T20:32:26Z</time></trkpt>
<trkpt lat="25.417976" lon="100.475848">
<time>2014-08-04T20:32:27Z</time></trkpt>
<trkpt lat="25.418016" lon="100.475808">
<time>2014-08-04T20:32:28Z</time></trkpt>
<trkpt lat="25.418056" lon="100.475758">
<time>2014-08-04T20:32:29Z</time></trkpt>
<trkpt lat="25.418086" lon="100.475718">
<time>2014-08-04T20:32:30Z</time></trkpt>
<trkpt lat="25.418116" lon="100.475667">
<time>2014-08-04T20:32:31Z</time></trkpt>
<trkpt lat="25.418136" lon="100.475617">
<time>2014-08-04T20:32:32Z</time></trkpt>
<trkpt lat="25.418155" lon="100.475547">
<time>2014-08-04T20:32:33Z</time></trkpt>
<trkpt lat="25.418175" lon="100.475487">
<time>2014-08-04T20:32:34Z</time></trkpt>
<trkpt lat="25.418185" lon="100.475427">
<time>2014-08-04T20:32:35Z</time></trkpt>
<trkpt lat="25.418195" lon="100.475357">
<time>2014-08-04T20:32:36Z</time></trkpt>
<trkpt lat="25.418185" lon="100.475296">
<time>2014-08-04T20:32:37Z</time></trkpt>
<trkpt lat="25.418184" lon="100.475236">
<time>2014-08-04T20:32:38Z</time></trkpt>
<trkpt lat="25.418164" lon="100.475176">
<time>2014-08-04T20:32:39Z</time></trkpt>
<trkpt lat="25.418144" lon="100.475126">
<time>2014-08-04T20:32:40Z</time></trkpt>
<trkpt lat="25.418114" lon="100.475076">
<time>2014-08-04T20:32:41Z</time></trkpt>
<trkpt lat="25.418074" lon="100.475016">
<time>2014-08-04T20:32:42Z</time></trkpt>
<trkpt lat="25.418014" lon="100.474955">
<time>2014-08-04T20:32:43Z</time></trkpt>
<trkpt lat="25.417953" lon="100.474895">
<time>2014-08-04T20:32:44Z</time></trkpt>
<trkpt lat="25.417903" lon="100.474835">
<time>2014-08-04T20:32:45Z</time></trkpt>
<trkpt lat="25.417843" lon="100.474785">
<time>2014-08-04T20:32:46Z</time></trkpt>
<trkpt lat="25.417773" lon="100.474745">
<time>2014-08-04T20:32:47Z</time></trkpt>
<trkpt lat="25.417723" lon="100.474705">
<time>2014-08-04T20:32:48Z</time></trkpt>
<trkpt lat="25.417633" lon="100.474675">
<time>2014-08-04T20:32:49Z</time></trkpt>
<trkpt lat="25.417583" lon="100.474655">
<time>2014-08-04T20:32:50Z</time></trkpt>
<trkpt lat="25.417513" lon="100.474645">
<time>2014-08-04T20:32:51Z</time></trkpt>
<trkpt lat="25.417433" lon="100.474625">
<time>2014-08-04T20:32:52Z</time></trkpt>
<trkpt lat="25.417333" lon="100.474615">
<time>2014-08-04T20:32:53Z</time></trkpt>
<trkpt lat="25.417082" lon="100.474594">
<time>2014-08-04T20:32:54Z</time></trkpt>
<trkpt lat="25.416772" lon="100.474544">
<time>2014-08-04T20:32:55Z</time></trkpt>
<trkpt lat="25.416692" lon="100.474524">
<time>2014-08-04T20:32:56Z</time></trkpt>
<trkpt lat="25.416622" lon="100.474514">
<time>2014-08-04T20:32:57Z</time></trkpt>
<trkpt lat="25.416212" lon="100.474404">
<time>2014-08-04T20:32:58Z</time></trkpt>
<trkpt lat="25.415821" lon="100.474284">
<time>2014-08-04T20:32:59Z</time></trkpt>
<trkpt lat="25.415381" lon="100.474163">
<time>2014-08-04T20:33:00Z</time></trkpt>
<trkpt lat="25.41503" lon="100.474043">
<time>2014-08-04T20:33:01Z</time></trkpt>
<trkpt lat="25.41489" lon="100.473993">
<time>2014-08-04T20:33:02Z</time></trkpt>
<trkpt lat="25.41478" lon="100.473953">
<time>2014-08-04T20:33:03Z</time></trkpt>
<trkpt lat="25.41467" lon="100.473903">
<time>2014-08-04T20:33:04Z</time></trkpt>
<trkpt lat="25.41459" lon="100.473862">
<time>2014-08-04T20:33:05Z</time></trkpt>
<trkpt lat="25.41452" lon="100.473822">
<time>2014-08-04T20:33:06Z</time></trkpt>
<trkpt lat="25.41447" lon="100.473792">
<time>2014-08-04T20:33:07Z</time></trkpt>
<trkpt lat="25.41439" lon="100.473742">
<time>2014-08-04T20:33:08Z</time></trkpt>
<trkpt lat="25.414319" lon="100.473692">
<time>2014-08-04T20:33:09Z</time></trkpt>
<trkpt lat="25.414219" lon="100.473622">
<time>2014-08-04T20:33:10Z</time></trkpt>
<trkpt lat="25.414099" lon="100.473532">
<time>2014-08-04T20:33:11Z</time></trkpt>
<trkpt lat="25.413979" lon="100.473431">
<time>2014-08-04T20:33:12Z</time></trkpt>
<trkpt lat="25.413878" lon="100.473341">
<time>2014-08-04T20:33:13Z</time></trkpt>
<trkpt lat="25.413698" lon="100.473181">
<time>2014-08-04T20:33:14Z</time></trkpt>
<trkpt lat="25.413608" lon="100.4731">
<time>2014-08-04T20:33:15Z</time></trkpt>
<trkpt lat="25.413517" lon="100.47303">
<time>2014-08-04T20:33:16Z</time></trkpt>
<trkpt lat="25.413447" lon="100.47297">
<time>2014-08-04T20:33:17Z</time></trkpt>
<trkpt lat="25.413307" lon="100.47285">
<time>2014-08-04T20:33:18Z</time></trkpt>
<trkpt lat="25.413197" lon="100.472749">
<time>2014-08-04T20:33:19Z</time></trkpt>
<trkpt lat="25.413026" lon="100.472599">
<time>2014-08-04T20:33:20Z</time></trkpt>
<trkpt lat="25.412755" lon="100.472368">
<time>2014-08-04T20:33:21Z</time></trkpt>
<trkpt lat="25.412415" lon="100.472058">
<time>2014-08-04T20:33:22Z</time></trkpt>
<trkpt lat="25.411983" lon="100.471656">
<time>2014-08-04T20:33:23Z</time></trkpt>
<trkpt lat="25.411763" lon="100.471466">
<time>2014-08-04T20:33:24Z</time></trkpt>
<trkpt lat="25.411693" lon="100.471416">
<time>2014-08-04T20:33:25Z</time></trkpt>
<trkpt lat="25.411643" lon="100.471386">
<time>2014-08-04T20:33:26Z</time></trkpt>
<trkpt lat="25.411582" lon="100.471356">
<time>2014-08-04T20:33:27Z</time></trkpt>
<trkpt lat="25.411552" lon="100.471336">
<time>2014-08-04T20:33:28Z</time></trkpt>
<trkpt lat="25.411492" lon="100.471326">
<time>2014-08-04T20:33:29Z</time></trkpt>
<trkpt lat="25.411402" lon="100.471306">
<time>2014-08-04T20:33:30Z</time></trkpt>
<trkpt lat="25.411302" lon="100.471306">
<time>2014-08-04T20:33:31Z</time></trkpt>
<trkpt lat="25.411172" lon="100.471316">
<time>2014-08-04T20:33:32Z</time></trkpt>
<trkpt lat="25.410772" lon="100.471376">
<time>2014-08-04T20:33:33Z</time></trkpt>
<trkpt lat="25.410192" lon="100.471456">
<time>2014-08-04T20:33:34Z</time></trkpt>
<trkpt lat="25.409843" lon="100.471506">
<time>2014-08-04T20:33:35Z</time></trkpt>
<trkpt lat="25.409743" lon="100.471516">
<time>2014-08-04T20:33:36Z</time></trkpt>
<trkpt lat="25.409692" lon="100.471516">
<time>2014-08-04T20:33:37Z</time></trkpt>
<trkpt lat="25.409632" lon="100.471516">
<time>2014-08-04T20:33:38Z</time></trkpt>
<trkpt lat="25.409602" lon="100.471516">
<time>2014-08-04T20:33:39Z</time></trkpt>
<trkpt lat="25.409552" lon="100.471506">
<time>2014-08-04T20:33:40Z</time></trkpt>
<trkpt lat="25.409522" lon="100.471506">
<time>2014-08-04T20:33:41Z</time></trkpt>
<trkpt lat="25.409502" lon="100.471486">
<time>2014-08-04T20:33:42Z</time></trkpt>
<trkpt lat="25.409462" lon="100.471466">
<time>2014-08-04T20:33:43Z</time></trkpt>
<trkpt lat="25.409412" lon="100.471436">
<time>2014-08-04T20:33:44Z</time></trkpt>
<trkpt lat="25.409382" lon="100.471426">
<time>2014-08-04T20:33:45Z</time></trkpt>
<trkpt lat="25.409352" lon="100.471396">
<time>2014-08-04T20:33:46Z</time></trkpt>
<trkpt lat="25.409292" lon="100.471316">
<time>2014-08-04T20:33:47Z</time></trkpt>
<trkpt lat="25.409201" lon="100.471175">
<time>2014-08-04T20:33:48Z</time></trkpt>
<trkpt lat="25.409121" lon="100.470995">
<time>2014-08-04T20:33:49Z</time></trkpt>
<trkpt lat="25.409081" lon="100.470914">
<time>2014-08-04T20:33:50Z</time></trkpt>
<trkpt lat="25.409061" lon="100.470874">
<time>2014-08-04T20:33:51Z</time></trkpt>
<trkpt lat="25.40903" lon="100.470824">
<time>2014-08-04T20:33:52Z</time></trkpt>
<trkpt lat="25.409" lon="100.470774">
<time>2014-08-04T20:33:53Z</time></trkpt>
<trkpt lat="25.40897" lon="100.470734">
<time>2014-08-04T20:33:54Z</time></trkpt>
<trkpt lat="25.40892" lon="100.470674">
<time>2014-08-04T20:33:55Z</time></trkpt>
<trkpt lat="25.40889" lon="100.470624">
<time>2014-08-04T20:33:56Z</time></trkpt>
<trkpt lat="25.40886" lon="100.470594">
<time>2014-08-04T20:33:57Z</time></trkpt>
<trkpt lat="25.40883" lon="100.470554">
<time>2014-08-04T20:33:58Z</time></trkpt>
<trkpt lat="25.40879" lon="100.470523">
<time>2014-08-04T20:33:59Z</time></trkpt>
<trkpt lat="25.40875" lon="100.470483">
<time>2014-08-04T20:34:00Z</time></trkpt>
<trkpt lat="25.408669" lon="100.470423">
<time>2014-08-04T20:34:01Z</time></trkpt>
<trkpt lat="25.408599" lon="100.470373">
<time>2014-08-04T20:34:02Z</time></trkpt>
<trkpt lat="25.408539" lon="100.470333">
<time>2014-08-04T20:34:03Z</time></trkpt>
<trkpt lat="25.408489" lon="100.470313">
<time>2014-08-04T20:34:04Z</time></trkpt>
<trkpt lat="25.408419" lon="100.470273">
<time>2014-08-04T20:34:05Z</time></trkpt>
<trkpt lat="25.408359" lon="100.470243">
<time>2014-08-04T20:34:06Z</time></trkpt>
<trkpt lat="25.408339" lon="100.470233">
<time>2014-08-04T20:34:07Z</time></trkpt>
<trkpt lat="25.408299" lon="100.470213">
<time>2014-08-04T20:34:08Z</time></trkpt>
<trkpt lat="25.408279" lon="100.470193">
<time>2014-08-04T20:34:09Z</time></trkpt>
<trkpt lat="25.408259" lon="100.470183">
<time>2014-08-04T20:34:10Z</time></trkpt>
<trkpt lat="25.408229" lon="100.470162">
<time>2014-08-04T20:34:11Z</time></trkpt>
<trkpt lat="25.408198" lon="100.470132">
<time>2014-08-04T20:34:12Z</time></trkpt>
<trkpt lat="25.408188" lon="100.470112">
<time>2014-08-04T20:34:13Z</time></trkpt>
<trkpt lat="25.408168" lon="100.470092">
<time>2014-08-04T20:34:14Z</time></trkpt>
<trkpt lat="25.408158" lon="100.470062">
<time>2014-08-04T20:34:15Z</time></trkpt>
<trkpt lat="25.408138" lon="100.470022">
<time>2014-08-04T20:34:16Z</time></trkpt>
<trkpt lat="25.408128" lon="100.469972">
<time>2014-08-04T20:34:17Z</time></trkpt>
<trkpt lat="25.408118" lon="100.469942">
<time>2014-08-04T20:34:18Z</time></trkpt>
<trkpt lat="25.408118" lon="100.469882">
<time>2014-08-04T20:34:19Z</time></trkpt>
<trkpt lat="25.408118" lon="100.469812">
<time>2014-08-04T20:34:20Z</time></trkpt>
<trkpt lat="25.408117" lon="100.469731">
<time>2014-08-04T20:34:21Z</time></trkpt>
<trkpt lat="25.408127" lon="100.469651">
<time>2014-08-04T20:34:22Z</time></trkpt>
<trkpt lat="25.408127" lon="100.469601">
<time>2014-08-04T20:34:23Z</time></trkpt>
<trkpt lat="25.408127" lon="100.469561">
<time>2014-08-04T20:34:24Z</time></trkpt>
<trkpt lat="25.408117" lon="100.469511">
<time>2014-08-04T20:34:25Z</time></trkpt>
<trkpt lat="25.408117" lon="100.469511">
<time>2014-08-04T20:34:26Z</time></trkpt>
<trkpt lat="25.408935" lon="100.468839">
<time>2014-08-04T20:34:27Z</time></trkpt>
<trkpt lat="25.409025" lon="100.468799">
<time>2014-08-04T20:34:28Z</time></trkpt>
<trkpt lat="25.409155" lon="100.468759">
<time>2014-08-04T20:34:29Z</time></trkpt>
<trkpt lat="25.409285" lon="100.468749">
<time>2014-08-04T20:34:30Z</time></trkpt>
<trkpt lat="25.409425" lon="100.468779">
<time>2014-08-04T20:34:31Z</time></trkpt>
<trkpt lat="25.409566" lon="100.468909">
<time>2014-08-04T20:34:32Z</time></trkpt>
<trkpt lat="25.409706" lon="100.468939">
<time>2014-08-04T20:34:33Z</time></trkpt>
<trkpt lat="25.409846" lon="100.468969">
<time>2014-08-04T20:34:34Z</time></trkpt>
<trkpt lat="25.409976" lon="100.468979">
<time>2014-08-04T20:34:35Z</time></trkpt>
<trkpt lat="25.410106" lon="100.468909">
<time>2014-08-04T20:34:36Z</time></trkpt>
<trkpt lat="25.410235" lon="100.468789">
<time>2014-08-04T20:34:37Z</time></trkpt>
<trkpt lat="25.410365" lon="100.468678">
<time>2014-08-04T20:34:38Z</time></trkpt>
<trkpt lat="25.410465" lon="100.468568">
<time>2014-08-04T20:34:39Z</time></trkpt>
<trkpt lat="25.410575" lon="100.468458">
<time>2014-08-04T20:34:40Z</time></trkpt>
<trkpt lat="25.410684" lon="100.468358">
<time>2014-08-04T20:34:41Z</time></trkpt>
<trkpt lat="25.410784" lon="100.468257">
<time>2014-08-04T20:34:42Z</time></trkpt>
<trkpt lat="25.410894" lon="100.468157">
<time>2014-08-04T20:34:43Z</time></trkpt>
<trkpt lat="25.411033" lon="100.468017">
<time>2014-08-04T20:34:44Z</time></trkpt>
<trkpt lat="25.411163" lon="100.467926">
<time>2014-08-04T20:34:45Z</time></trkpt>
<trkpt lat="25.411283" lon="100.467826">
<time>2014-08-04T20:34:46Z</time></trkpt>
<trkpt lat="25.411383" lon="100.467726">
<time>2014-08-04T20:34:47Z</time></trkpt>
<trkpt lat="25.411493" lon="100.467626">
<time>2014-08-04T20:34:48Z</time></trkpt>
<trkpt lat="25.411602" lon="100.467515">
<time>2014-08-04T20:34:49Z</time></trkpt>
<trkpt lat="25.411762" lon="100.467355">
<time>2014-08-04T20:34:50Z</time></trkpt>
<trkpt lat="25.411882" lon="100.467225">
<time>2014-08-04T20:34:51Z</time></trkpt>
<trkpt lat="25.412011" lon="100.467094">
<time>2014-08-04T20:34:52Z</time></trkpt>
<trkpt lat="25.412121" lon="100.466964">
<time>2014-08-04T20:34:53Z</time></trkpt>
<trkpt lat="25.412231" lon="100.466833">
<time>2014-08-04T20:34:54Z</time></trkpt>
<trkpt lat="25.41236" lon="100.466683">
<time>2014-08-04T20:34:55Z</time></trkpt>
<trkpt lat="25.41248" lon="100.466553">
<time>2014-08-04T20:34:56Z</time></trkpt>
<trkpt lat="25.4126" lon="100.466402">
<time>2014-08-04T20:34:57Z</time></trkpt>
<trkpt lat="25.412739" lon="100.466262">
<time>2014-08-04T20:34:58Z</time></trkpt>
<trkpt lat="25.412879" lon="100.466112">
<time>2014-08-04T20:34:59Z</time></trkpt>
<trkpt lat="25.413029" lon="100.465991">
<time>2014-08-04T20:35:00Z</time></trkpt>
<trkpt lat="25.413188" lon="100.465911">
<time>2014-08-04T20:35:01Z</time></trkpt>
<trkpt lat="25.413358" lon="100.465851">
<time>2014-08-04T20:35:02Z</time></trkpt>
<trkpt lat="25.413528" lon="100.465821">
<time>2014-08-04T20:35:03Z</time></trkpt>
<trkpt lat="25.413708" lon="100.465801">
<time>2014-08-04T20:35:04Z</time></trkpt>
<trkpt lat="25.413868" lon="100.465781">
<time>2014-08-04T20:35:05Z</time></trkpt>
<trkpt lat="25.414028" lon="100.465761">
<time>2014-08-04T20:35:06Z</time></trkpt>
<trkpt lat="25.414188" lon="100.465751">
<time>2014-08-04T20:35:07Z</time></trkpt>
<trkpt lat="25.414358" lon="100.465721">
<time>2014-08-04T20:35:08Z</time></trkpt>
<trkpt lat="25.414538" lon="100.46568">
<time>2014-08-04T20:35:09Z</time></trkpt>
<trkpt lat="25.414728" lon="100.46566">
<time>2014-08-04T20:35:10Z</time></trkpt>
<trkpt lat="25.414908" lon="100.46564">
<time>2014-08-04T20:35:11Z</time></trkpt>
<trkpt lat="25.415088" lon="100.46562">
<time>2014-08-04T20:35:12Z</time></trkpt>
<trkpt lat="25.415238" lon="100.4656">
<time>2014-08-04T20:35:13Z</time></trkpt>
<trkpt lat="25.415378" lon="100.46557">
<time>2014-08-04T20:35:14Z</time></trkpt>
<trkpt lat="25.415498" lon="100.46553">
<time>2014-08-04T20:35:15Z</time></trkpt>
<trkpt lat="25.415608" lon="100.46547">
<time>2014-08-04T20:35:16Z</time></trkpt>
<trkpt lat="25.415708" lon="100.46538">
<time>2014-08-04T20:35:17Z</time></trkpt>
<trkpt lat="25.415807" lon="100.465259">
<time>2014-08-04T20:35:18Z</time></trkpt>
<trkpt lat="25.415897" lon="100.465139">
<time>2014-08-04T20:35:19Z</time></trkpt>
<trkpt lat="25.415987" lon="100.465019">
<time>2014-08-04T20:35:20Z</time></trkpt>
<trkpt lat="25.416146" lon="100.464848">
<time>2014-08-04T20:35:21Z</time></trkpt>
<trkpt lat="25.416316" lon="100.464708">
<time>2014-08-04T20:35:22Z</time></trkpt>
<trkpt lat="25.416506" lon="100.464608">
<time>2014-08-04T20:35:23Z</time></trkpt>
<trkpt lat="25.416686" lon="100.464537">
<time>2014-08-04T20:35:24Z</time></trkpt>
<trkpt lat="25.416936" lon="100.464487">
<time>2014-08-04T20:35:25Z</time></trkpt>
<trkpt lat="25.417156" lon="100.464477">
<time>2014-08-04T20:35:26Z</time></trkpt>
<trkpt lat="25.417366" lon="100.464467">
<time>2014-08-04T20:35:27Z</time></trkpt>
<trkpt lat="25.417556" lon="100.464417">
<time>2014-08-04T20:35:28Z</time></trkpt>
<trkpt lat="25.417715" lon="100.464287">
<time>2014-08-04T20:35:29Z</time></trkpt>
<trkpt lat="25.417835" lon="100.464096">
<time>2014-08-04T20:35:30Z</time></trkpt>
<trkpt lat="25.417924" lon="100.463906">
<time>2014-08-04T20:35:31Z</time></trkpt>
<trkpt lat="25.418024" lon="100.463725">
<time>2014-08-04T20:35:32Z</time></trkpt>
<trkpt lat="25.418154" lon="100.463585">
<time>2014-08-04T20:35:33Z</time></trkpt>
<trkpt lat="25.418303" lon="100.463475">
<time>2014-08-04T20:35:34Z</time></trkpt>
<trkpt lat="25.418463" lon="100.463384">
<time>2014-08-04T20:35:35Z</time></trkpt>
<trkpt lat="25.418633" lon="100.463304">
<time>2014-08-04T20:35:36Z</time></trkpt>
<trkpt lat="25.418743" lon="100.463254">
<time>2014-08-04T20:35:37Z</time></trkpt>
<trkpt lat="25.418803" lon="100.463234">
<time>2014-08-04T20:35:38Z</time></trkpt>
<trkpt lat="25.418983" lon="100.463144">
<time>2014-08-04T20:35:39Z</time></trkpt>
<trkpt lat="25.419152" lon="100.463064">
<time>2014-08-04T20:35:40Z</time></trkpt>
<trkpt lat="25.419322" lon="100.462973">
<time>2014-08-04T20:35:41Z</time></trkpt>
<trkpt lat="25.419462" lon="100.462923">
<time>2014-08-04T20:35:42Z</time></trkpt>
<trkpt lat="25.419632" lon="100.462813">
<time>2014-08-04T20:35:43Z</time></trkpt>
<trkpt lat="25.419792" lon="100.462673">
<time>2014-08-04T20:35:44Z</time></trkpt>
<trkpt lat="25.419951" lon="100.462502">
<time>2014-08-04T20:35:45Z</time></trkpt>
<trkpt lat="25.420091" lon="100.462332">
<time>2014-08-04T20:35:46Z</time></trkpt>
<trkpt lat="25.42022" lon="100.462141">
<time>2014-08-04T20:35:47Z</time></trkpt>
<trkpt lat="25.42033" lon="100.461941">
<time>2014-08-04T20:35:48Z</time></trkpt>
<trkpt lat="25.420409" lon="100.46173">
<time>2014-08-04T20:35:49Z</time></trkpt>
<trkpt lat="25.420489" lon="100.46149">
<time>2014-08-04T20:35:50Z</time></trkpt>
<trkpt lat="25.420558" lon="100.461249">
<time>2014-08-04T20:35:51Z</time></trkpt>
<trkpt lat="25.420628" lon="100.460998">
<time>2014-08-04T20:35:52Z</time></trkpt>
<trkpt lat="25.420687" lon="100.460758">
<time>2014-08-04T20:35:53Z</time></trkpt>
<trkpt lat="25.420747" lon="100.460517">
<time>2014-08-04T20:35:54Z</time></trkpt>
<trkpt lat="25.420816" lon="100.460257">
<time>2014-08-04T20:35:55Z</time></trkpt>
<trkpt lat="25.420895" lon="100.460016">
<time>2014-08-04T20:35:56Z</time></trkpt>
<trkpt lat="25.420965" lon="100.459785">
<time>2014-08-04T20:35:57Z</time></trkpt>
<trkpt lat="25.421014" lon="100.459535">
<time>2014-08-04T20:35:58Z</time></trkpt>
<trkpt lat="25.421044" lon="100.459284">
<time>2014-08-04T20:35:59Z</time></trkpt>
<trkpt lat="25.421073" lon="100.459034">
<time>2014-08-04T20:36:00Z</time></trkpt>
<trkpt lat="25.421092" lon="100.458793">
<time>2014-08-04T20:36:01Z</time></trkpt>
<trkpt lat="25.421072" lon="100.458613">
<time>2014-08-04T20:36:02Z</time></trkpt>
<trkpt lat="25.421001" lon="100.458342">
<time>2014-08-04T20:36:03Z</time></trkpt>
<trkpt lat="25.420921" lon="100.458172">
<time>2014-08-04T20:36:04Z</time></trkpt>
<trkpt lat="25.42078" lon="100.457961">
<time>2014-08-04T20:36:05Z</time></trkpt>
<trkpt lat="25.42064" lon="100.457771">
<time>2014-08-04T20:36:06Z</time></trkpt>
<trkpt lat="25.42051" lon="100.45758">
<time>2014-08-04T20:36:07Z</time></trkpt>
<trkpt lat="25.420429" lon="100.45739">
<time>2014-08-04T20:36:08Z</time></trkpt>
<trkpt lat="25.420399" lon="100.457179">
<time>2014-08-04T20:36:09Z</time></trkpt>
<trkpt lat="25.420408" lon="100.456949">
<time>2014-08-04T20:36:10Z</time></trkpt>
<trkpt lat="25.420467" lon="100.456708">
<time>2014-08-04T20:36:11Z</time></trkpt>
<trkpt lat="25.420527" lon="100.456468">
<time>2014-08-04T20:36:12Z</time></trkpt>
<trkpt lat="25.420586" lon="100.456237">
<time>2014-08-04T20:36:13Z</time></trkpt>
<trkpt lat="25.420656" lon="100.456027">
<time>2014-08-04T20:36:14Z</time></trkpt>
<trkpt lat="25.420765" lon="100.455816">
<time>2014-08-04T20:36:15Z</time></trkpt>
<trkpt lat="25.420905" lon="100.455646">
<time>2014-08-04T20:36:16Z</time></trkpt>
<trkpt lat="25.421095" lon="100.455485">
<time>2014-08-04T20:36:17Z</time></trkpt>
<trkpt lat="25.421295" lon="100.455355">
<time>2014-08-04T20:36:18Z</time></trkpt>
<trkpt lat="25.421504" lon="100.455235">
<time>2014-08-04T20:36:19Z</time></trkpt>
<trkpt lat="25.421644" lon="100.455114">
<time>2014-08-04T20:36:20Z</time></trkpt>
<trkpt lat="25.421794" lon="100.454994">
<time>2014-08-04T20:36:21Z</time></trkpt>
<trkpt lat="25.421954" lon="100.454864">
<time>2014-08-04T20:36:22Z</time></trkpt>
<trkpt lat="25.422073" lon="100.454744">
<time>2014-08-04T20:36:23Z</time></trkpt>
<trkpt lat="25.422183" lon="100.454623">
<time>2014-08-04T20:36:24Z</time></trkpt>
<trkpt lat="25.422283" lon="100.454503">
<time>2014-08-04T20:36:25Z</time></trkpt>
<trkpt lat="25.422393" lon="100.454383">
<time>2014-08-04T20:36:26Z</time></trkpt>
<trkpt lat="25.422492" lon="100.454273">
<time>2014-08-04T20:36:27Z</time></trkpt>
<trkpt lat="25.422552" lon="100.454172">
<time>2014-08-04T20:36:28Z</time></trkpt>
<trkpt lat="25.422642" lon="100.454042">
<time>2014-08-04T20:36:29Z</time></trkpt>
<trkpt lat="25.422712" lon="100.453932">
<time>2014-08-04T20:36:30Z</time></trkpt>
<trkpt lat="25.422821" lon="100.453832">
<time>2014-08-04T20:36:31Z</time></trkpt>
<trkpt lat="25.422921" lon="100.453721">
<time>2014-08-04T20:36:32Z</time></trkpt>
<trkpt lat="25.423021" lon="100.453591">
<time>2014-08-04T20:36:33Z</time></trkpt>
<trkpt lat="25.423121" lon="100.453461">
<time>2014-08-04T20:36:34Z</time></trkpt>
<trkpt lat="25.42325" lon="100.45333">
<time>2014-08-04T20:36:35Z</time></trkpt>
<trkpt lat="25.42336" lon="100.45319">
<time>2014-08-04T20:36:36Z</time></trkpt>
<trkpt lat="25.42346" lon="100.45305">
<time>2014-08-04T20:36:37Z</time></trkpt>
<trkpt lat="25.42356" lon="100.452889">
<time>2014-08-04T20:36:38Z</time></trkpt>
<trkpt lat="25.423669" lon="100.452739">
<time>2014-08-04T20:36:39Z</time></trkpt>
<trkpt lat="25.423789" lon="100.452589">
<time>2014-08-04T20:36:40Z</time></trkpt>
<trkpt lat="25.423899" lon="100.452428">
<time>2014-08-04T20:36:41Z</time></trkpt>
<trkpt lat="25.424028" lon="100.452258">
<time>2014-08-04T20:36:42Z</time></trkpt>
<trkpt lat="25.424148" lon="100.452088">
<time>2014-08-04T20:36:43Z</time></trkpt>
<trkpt lat="25.424258" lon="100.451967">
<time>2014-08-04T20:36:44Z</time></trkpt>
<trkpt lat="25.424377" lon="100.451827">
<time>2014-08-04T20:36:45Z</time></trkpt>
<trkpt lat="25.424487" lon="100.451677">
<time>2014-08-04T20:36:46Z</time></trkpt>
<trkpt lat="25.424557" lon="100.451486">
<time>2014-08-04T20:36:47Z</time></trkpt>
<trkpt lat="25.424656" lon="100.451276">
<time>2014-08-04T20:36:48Z</time></trkpt>
<trkpt lat="25.424796" lon="100.451066">
<time>2014-08-04T20:36:49Z</time></trkpt>
<trkpt lat="25.424966" lon="100.450875">
<time>2014-08-04T20:36:50Z</time></trkpt>
<trkpt lat="25.425145" lon="100.450695">
<time>2014-08-04T20:36:51Z</time></trkpt>
<trkpt lat="25.425285" lon="100.450504">
<time>2014-08-04T20:36:52Z</time></trkpt>
<trkpt lat="25.425434" lon="100.450324">
<time>2014-08-04T20:36:53Z</time></trkpt>
<trkpt lat="25.425534" lon="100.450164">
<time>2014-08-04T20:36:54Z</time></trkpt>
<trkpt lat="25.425634" lon="100.449973">
<time>2014-08-04T20:36:55Z</time></trkpt>
<trkpt lat="25.425713" lon="100.449793">
<time>2014-08-04T20:36:56Z</time></trkpt>
<trkpt lat="25.425783" lon="100.449592">
<time>2014-08-04T20:36:57Z</time></trkpt>
<trkpt lat="25.425883" lon="100.449362">
<time>2014-08-04T20:36:58Z</time></trkpt>
<trkpt lat="25.425972" lon="100.449131">
<time>2014-08-04T20:36:59Z</time></trkpt>
<trkpt lat="25.426072" lon="100.448921">
<time>2014-08-04T20:37:00Z</time></trkpt>
<trkpt lat="25.426171" lon="100.448711">
<time>2014-08-04T20:37:01Z</time></trkpt>
<trkpt lat="25.426261" lon="100.44853">
<time>2014-08-04T20:37:02Z</time></trkpt>
<trkpt lat="25.426361" lon="100.44835">
<time>2014-08-04T20:37:03Z</time></trkpt>
<trkpt lat="25.426411" lon="100.44828">
<time>2014-08-04T20:37:04Z</time></trkpt>
<trkpt lat="25.42647" lon="100.44818">
<time>2014-08-04T20:37:05Z</time></trkpt>
<trkpt lat="25.42658" lon="100.448039">
<time>2014-08-04T20:37:06Z</time></trkpt>
<trkpt lat="25.4266" lon="100.448019">
<time>2014-08-04T20:37:07Z</time></trkpt>
<trkpt lat="25.42673" lon="100.447859">
<time>2014-08-04T20:37:08Z</time></trkpt>
<trkpt lat="25.426879" lon="100.447699">
<time>2014-08-04T20:37:09Z</time></trkpt>
<trkpt lat="25.427019" lon="100.447538">
<time>2014-08-04T20:37:10Z</time></trkpt>
<trkpt lat="25.427159" lon="100.447368">
<time>2014-08-04T20:37:11Z</time></trkpt>
<trkpt lat="25.427289" lon="100.447198">
<time>2014-08-04T20:37:12Z</time></trkpt>
<trkpt lat="25.427428" lon="100.447047">
<time>2014-08-04T20:37:13Z</time></trkpt>
<trkpt lat="25.427558" lon="100.446897">
<time>2014-08-04T20:37:14Z</time></trkpt>
<trkpt lat="25.427698" lon="100.446737">
<time>2014-08-04T20:37:15Z</time></trkpt>
<trkpt lat="25.427817" lon="100.446606">
<time>2014-08-04T20:37:16Z</time></trkpt>
<trkpt lat="25.427927" lon="100.446486">
<time>2014-08-04T20:37:17Z</time></trkpt>
<trkpt lat="25.428007" lon="100.446386">
<time>2014-08-04T20:37:18Z</time></trkpt>
<trkpt lat="25.428107" lon="100.446266">
<time>2014-08-04T20:37:19Z</time></trkpt>
<trkpt lat="25.428167" lon="100.446176">
<time>2014-08-04T20:37:20Z</time></trkpt>
<trkpt lat="25.428227" lon="100.446095">
<time>2014-08-04T20:37:21Z</time></trkpt>
<trkpt lat="25.428296" lon="100.446025">
<time>2014-08-04T20:37:22Z</time></trkpt>
<trkpt lat="25.428386" lon="100.445945">
<time>2014-08-04T20:37:23Z</time></trkpt>
<trkpt lat="25.428466" lon="100.445845">
<time>2014-08-04T20:37:24Z</time></trkpt>
<trkpt lat="25.428546" lon="100.445735">
<time>2014-08-04T20:37:25Z</time></trkpt>
<trkpt lat="25.428646" lon="100.445604">
<time>2014-08-04T20:37:26Z</time></trkpt>
<trkpt lat="25.428785" lon="100.445454">
<time>2014-08-04T20:37:27Z</time></trkpt>
<trkpt lat="25.428865" lon="100.445364">
<time>2014-08-04T20:37:28Z</time></trkpt>
<trkpt lat="25.428955" lon="100.445264">
<time>2014-08-04T20:37:29Z</time></trkpt>
<trkpt lat="25.429045" lon="100.445164">
<time>2014-08-04T20:37:30Z</time></trkpt>
<trkpt lat="25.429145" lon="100.445063">
<time>2014-08-04T20:37:31Z</time></trkpt>
<trkpt lat="25.429284" lon="100.444883">
<time>2014-08-04T20:37:32Z</time></trkpt>
<trkpt lat="25.429384" lon="100.444773">
<time>2014-08-04T20:37:33Z</time></trkpt>
<trkpt lat="25.429494" lon="100.444663">
<time>2014-08-04T20:37:34Z</time></trkpt>
<trkpt lat="25.429594" lon="100.444552">
<time>2014-08-04T20:37:35Z</time></trkpt>
<trkpt lat="25.429704" lon="100.444442">
<time>2014-08-04T20:37:36Z</time></trkpt>
<trkpt lat="25.429814" lon="100.444342">
<time>2014-08-04T20:37:37Z</time></trkpt>
<trkpt lat="25.429933" lon="100.444252">
<time>2014-08-04T20:37:38Z</time></trkpt>
<trkpt lat="25.430063" lon="100.444172">
<time>2014-08-04T20:37:39Z</time></trkpt>
<trkpt lat="25.430193" lon="100.444092">
<time>2014-08-04T20:37:40Z</time></trkpt>
<trkpt lat="25.430313" lon="100.443991">
<time>2014-08-04T20:37:41Z</time></trkpt>
<trkpt lat="25.430443" lon="100.443901">
<time>2014-08-04T20:37:42Z</time></trkpt>
<trkpt lat="25.430563" lon="100.443811">
<time>2014-08-04T20:37:43Z</time></trkpt>
<trkpt lat="25.430693" lon="100.443731">
<time>2014-08-04T20:37:44Z</time></trkpt>
<trkpt lat="25.430823" lon="100.443651">
<time>2014-08-04T20:37:45Z</time></trkpt>
<trkpt lat="25.430952" lon="100.443571">
<time>2014-08-04T20:37:46Z</time></trkpt>
<trkpt lat="25.431092" lon="100.44349">
<time>2014-08-04T20:37:47Z</time></trkpt>
<trkpt lat="25.431232" lon="100.44341">
<time>2014-08-04T20:37:48Z</time></trkpt>
<trkpt lat="25.431362" lon="100.44334">
<time>2014-08-04T20:37:49Z</time></trkpt>
<trkpt lat="25.431532" lon="100.4432">
<time>2014-08-04T20:37:50Z</time></trkpt>
<trkpt lat="25.431682" lon="100.4431">
<time>2014-08-04T20:37:51Z</time></trkpt>
<trkpt lat="25.431832" lon="100.442999">
<time>2014-08-04T20:37:52Z</time></trkpt>
<trkpt lat="25.431971" lon="100.442899">
<time>2014-08-04T20:37:53Z</time></trkpt>
<trkpt lat="25.432101" lon="100.442809">
<time>2014-08-04T20:37:54Z</time></trkpt>
<trkpt lat="25.432231" lon="100.442729">
<time>2014-08-04T20:37:55Z</time></trkpt>
<trkpt lat="25.432351" lon="100.442639">
<time>2014-08-04T20:37:56Z</time></trkpt>
<trkpt lat="25.432471" lon="100.442549">
<time>2014-08-04T20:37:57Z</time></trkpt>
<trkpt lat="25.432571" lon="100.442469">
<time>2014-08-04T20:37:58Z</time></trkpt>
<trkpt lat="25.432671" lon="100.442388">
<time>2014-08-04T20:37:59Z</time></trkpt>
<trkpt lat="25.432681" lon="100.442388">
<time>2014-08-04T20:38:00Z</time></trkpt>
<trkpt lat="25.432771" lon="100.442318">
<time>2014-08-04T20:38:01Z</time></trkpt>
<trkpt lat="25.43288" lon="100.442228">
<time>2014-08-04T20:38:02Z</time></trkpt>
<trkpt lat="25.43299" lon="100.442108">
<time>2014-08-04T20:38:03Z</time></trkpt>
<trkpt lat="25.4331" lon="100.442008">
<time>2014-08-04T20:38:04Z</time></trkpt>
<trkpt lat="25.43315" lon="100.441907">
<time>2014-08-04T20:38:05Z</time></trkpt>
<trkpt lat="25.43319" lon="100.441817">
<time>2014-08-04T20:38:06Z</time></trkpt>
<trkpt lat="25.43326" lon="100.441687">
<time>2014-08-04T20:38:07Z</time></trkpt>
<trkpt lat="25.433299" lon="100.441557">
<time>2014-08-04T20:38:08Z</time></trkpt>
<trkpt lat="25.433309" lon="100.441457">
<time>2014-08-04T20:38:09Z</time></trkpt>
<trkpt lat="25.433329" lon="100.441326">
<time>2014-08-04T20:38:10Z</time></trkpt>
<trkpt lat="25.433329" lon="100.441186">
<time>2014-08-04T20:38:11Z</time></trkpt>
<trkpt lat="25.433378" lon="100.441016">
<time>2014-08-04T20:38:12Z</time></trkpt>
<trkpt lat="25.433408" lon="100.440876">
<time>2014-08-04T20:38:13Z</time></trkpt>
<trkpt lat="25.433438" lon="100.440715">
<time>2014-08-04T20:38:14Z</time></trkpt>
<trkpt lat="25.433498" lon="100.440555">
<time>2014-08-04T20:38:15Z</time></trkpt>
<trkpt lat="25.433537" lon="100.440385">
<time>2014-08-04T20:38:16Z</time></trkpt>
<trkpt lat="25.433607" lon="100.440215">
<time>2014-08-04T20:38:17Z</time></trkpt>
<trkpt lat="25.433697" lon="100.440034">
<time>2014-08-04T20:38:18Z</time></trkpt>
<trkpt lat="25.433776" lon="100.439864">
<time>2014-08-04T20:38:19Z</time></trkpt>
<trkpt lat="25.433866" lon="100.439694">
<time>2014-08-04T20:38:20Z</time></trkpt>
<trkpt lat="25.433956" lon="100.439513">
<time>2014-08-04T20:38:21Z</time></trkpt>
<trkpt lat="25.434056" lon="100.439333">
<time>2014-08-04T20:38:22Z</time></trkpt>
<trkpt lat="25.434155" lon="100.439153">
<time>2014-08-04T20:38:23Z</time></trkpt>
<trkpt lat="25.434245" lon="100.438982">
<time>2014-08-04T20:38:24Z</time></trkpt>
<trkpt lat="25.434345" lon="100.438802">
<time>2014-08-04T20:38:25Z</time></trkpt>
<trkpt lat="25.434405" lon="100.438672">
<time>2014-08-04T20:38:26Z</time></trkpt>
<trkpt lat="25.434504" lon="100.438522">
<time>2014-08-04T20:38:27Z</time></trkpt>
<trkpt lat="25.434614" lon="100.438331">
<time>2014-08-04T20:38:28Z</time></trkpt>
<trkpt lat="25.434714" lon="100.438141">
<time>2014-08-04T20:38:29Z</time></trkpt>
<trkpt lat="25.434834" lon="100.437961">
<time>2014-08-04T20:38:30Z</time></trkpt>
<trkpt lat="25.434953" lon="100.437781">
<time>2014-08-04T20:38:31Z</time></trkpt>
<trkpt lat="25.435073" lon="100.43759">
<time>2014-08-04T20:38:32Z</time></trkpt>
<trkpt lat="25.435183" lon="100.4374">
<time>2014-08-04T20:38:33Z</time></trkpt>
<trkpt lat="25.435282" lon="100.43723">
<time>2014-08-04T20:38:34Z</time></trkpt>
<trkpt lat="25.435382" lon="100.437069">
<time>2014-08-04T20:38:35Z</time></trkpt>
<trkpt lat="25.435482" lon="100.436919">
<time>2014-08-04T20:38:36Z</time></trkpt>
<trkpt lat="25.435642" lon="100.436759">
<time>2014-08-04T20:38:37Z</time></trkpt>
<trkpt lat="25.435812" lon="100.436659">
<time>2014-08-04T20:38:38Z</time></trkpt>
<trkpt lat="25.436022" lon="100.436549">
<time>2014-08-04T20:38:39Z</time></trkpt>
<trkpt lat="25.436182" lon="100.436478">
<time>2014-08-04T20:38:40Z</time></trkpt>
<trkpt lat="25.436361" lon="100.436418">
<time>2014-08-04T20:38:41Z</time></trkpt>
<trkpt lat="25.436541" lon="100.436378">
<time>2014-08-04T20:38:42Z</time></trkpt>
<trkpt lat="25.436691" lon="100.436338">
<time>2014-08-04T20:38:43Z</time></trkpt>
<trkpt lat="25.436871" lon="100.436318">
<time>2014-08-04T20:38:44Z</time></trkpt>
<trkpt lat="25.437061" lon="100.436308">
<time>2014-08-04T20:38:45Z</time></trkpt>
<trkpt lat="25.437242" lon="100.436318">
<time>2014-08-04T20:38:46Z</time></trkpt>
<trkpt lat="25.437422" lon="100.436338">
<time>2014-08-04T20:38:47Z</time></trkpt>
<trkpt lat="25.437612" lon="100.436378">
<time>2014-08-04T20:38:48Z</time></trkpt>
<trkpt lat="25.437792" lon="100.436438">
<time>2014-08-04T20:38:49Z</time></trkpt>
<trkpt lat="25.437922" lon="100.436468">
<time>2014-08-04T20:38:50Z</time></trkpt>
<trkpt lat="25.438042" lon="100.436498">
<time>2014-08-04T20:38:51Z</time></trkpt>
<trkpt lat="25.438152" lon="100.436518">
<time>2014-08-04T20:38:52Z</time></trkpt>
<trkpt lat="25.438282" lon="100.436549">
<time>2014-08-04T20:38:53Z</time></trkpt>
<trkpt lat="25.438422" lon="100.436559">
<time>2014-08-04T20:38:54Z</time></trkpt>
<trkpt lat="25.438542" lon="100.436569">
<time>2014-08-04T20:38:55Z</time></trkpt>
<trkpt lat="25.438672" lon="100.436589">
<time>2014-08-04T20:38:56Z</time></trkpt>
<trkpt lat="25.438802" lon="100.436619">
<time>2014-08-04T20:38:57Z</time></trkpt>
<trkpt lat="25.438972" lon="100.436639">
<time>2014-08-04T20:38:58Z</time></trkpt>
<trkpt lat="25.439093" lon="100.436689">
<time>2014-08-04T20:38:59Z</time></trkpt>
<trkpt lat="25.439233" lon="100.436719">
<time>2014-08-04T20:39:00Z</time></trkpt>
<trkpt lat="25.439333" lon="100.436739">
<time>2014-08-04T20:39:01Z</time></trkpt>
<trkpt lat="25.439433" lon="100.436759">
<time>2014-08-04T20:39:02Z</time></trkpt>
<trkpt lat="25.439543" lon="100.436789">
<time>2014-08-04T20:39:03Z</time></trkpt>
<trkpt lat="25.439713" lon="100.436809">
<time>2014-08-04T20:39:04Z</time></trkpt>
<trkpt lat="25.439863" lon="100.436839">
<time>2014-08-04T20:39:05Z</time></trkpt>
<trkpt lat="25.440013" lon="100.436869">
<time>2014-08-04T20:39:06Z</time></trkpt>
<trkpt lat="25.440173" lon="100.436899">
<time>2014-08-04T20:39:07Z</time></trkpt>
<trkpt lat="25.440343" lon="100.436929">
<time>2014-08-04T20:39:08Z</time></trkpt>
<trkpt lat="25.440533" lon="100.436959">
<time>2014-08-04T20:39:09Z</time></trkpt>
<trkpt lat="25.440713" lon="100.436989">
<time>2014-08-04T20:39:10Z</time></trkpt>
<trkpt lat="25.440894" lon="100.437029">
<time>2014-08-04T20:39:11Z</time></trkpt>
<trkpt lat="25.441074" lon="100.437059">
<time>2014-08-04T20:39:12Z</time></trkpt>
<trkpt lat="25.441264" lon="100.437099">
<time>2014-08-04T20:39:13Z</time></trkpt>
<trkpt lat="25.441444" lon="100.437129">
<time>2014-08-04T20:39:14Z</time></trkpt>
<trkpt lat="25.441624" lon="100.437159">
<time>2014-08-04T20:39:15Z</time></trkpt>
<trkpt lat="25.441784" lon="100.437189">
<time>2014-08-04T20:39:16Z</time></trkpt>
<trkpt lat="25.441954" lon="100.437229">
<time>2014-08-04T20:39:17Z</time></trkpt>
<trkpt lat="25.442134" lon="100.43726">
<time>2014-08-04T20:39:18Z</time></trkpt>
<trkpt lat="25.442314" lon="100.43729">
<time>2014-08-04T20:39:19Z</time></trkpt>
<trkpt lat="25.442504" lon="100.43733">
<time>2014-08-04T20:39:20Z</time></trkpt>
<trkpt lat="25.442694" lon="100.43736">
<time>2014-08-04T20:39:21Z</time></trkpt>
<trkpt lat="25.442875" lon="100.4374">
<time>2014-08-04T20:39:22Z</time></trkpt>
<trkpt lat="25.443055" lon="100.43743">
<time>2014-08-04T20:39:23Z</time></trkpt>
<trkpt lat="25.443245" lon="100.43749">
<time>2014-08-04T20:39:24Z</time></trkpt>
<trkpt lat="25.443435" lon="100.43752">
<time>2014-08-04T20:39:25Z</time></trkpt>
<trkpt lat="25.443635" lon="100.43757">
<time>2014-08-04T20:39:26Z</time></trkpt>
<trkpt lat="25.443835" lon="100.4376">
<time>2014-08-04T20:39:27Z</time></trkpt>
<trkpt lat="25.444035" lon="100.43763">
<time>2014-08-04T20:39:28Z</time></trkpt>
<trkpt lat="25.444245" lon="100.43765">
<time>2014-08-04T20:39:29Z</time></trkpt>
<trkpt lat="25.444435" lon="100.43766">
<time>2014-08-04T20:39:30Z</time></trkpt>
<trkpt lat="25.444625" lon="100.43766">
<time>2014-08-04T20:39:31Z</time></trkpt>
<trkpt lat="25.444806" lon="100.43768">
<time>2014-08-04T20:39:32Z</time></trkpt>
<trkpt lat="25.444986" lon="100.43767">
<time>2014-08-04T20:39:33Z</time></trkpt>
<trkpt lat="25.445176" lon="100.43765">
<time>2014-08-04T20:39:34Z</time></trkpt>
<trkpt lat="25.445376" lon="100.43764">
<time>2014-08-04T20:39:35Z</time></trkpt>
<trkpt lat="25.445576" lon="100.43761">
<time>2014-08-04T20:39:36Z</time></trkpt>
<trkpt lat="25.445776" lon="100.43758">
<time>2014-08-04T20:39:37Z</time></trkpt>
<trkpt lat="25.445976" lon="100.43753">
<time>2014-08-04T20:39:38Z</time></trkpt>
<trkpt lat="25.446176" lon="100.43748">
<time>2014-08-04T20:39:39Z</time></trkpt>
<trkpt lat="25.446385" lon="100.43741">
<time>2014-08-04T20:39:40Z</time></trkpt>
<trkpt lat="25.446575" lon="100.43734">
<time>2014-08-04T20:39:41Z</time></trkpt>
<trkpt lat="25.446785" lon="100.437269">
<time>2014-08-04T20:39:42Z</time></trkpt>
<trkpt lat="25.446985" lon="100.437199">
<time>2014-08-04T20:39:43Z</time></trkpt>
<trkpt lat="25.447205" lon="100.437109">
<time>2014-08-04T20:39:44Z</time></trkpt>
<trkpt lat="25.447355" lon="100.437069">
<time>2014-08-04T20:39:45Z</time></trkpt>
<trkpt lat="25.447555" lon="100.436989">
<time>2014-08-04T20:39:46Z</time></trkpt>
<trkpt lat="25.447765" lon="100.436909">
<time>2014-08-04T20:39:47Z</time></trkpt>
<trkpt lat="25.447955" lon="100.436809">
<time>2014-08-04T20:39:48Z</time></trkpt>
<trkpt lat="25.448115" lon="100.436709">
<time>2014-08-04T20:39:49Z</time></trkpt>
<trkpt lat="25.448255" lon="100.436618">
<time>2014-08-04T20:39:50Z</time></trkpt>
<trkpt lat="25.448395" lon="100.436538">
<time>2014-08-04T20:39:51Z</time></trkpt>
<trkpt lat="25.448524" lon="100.436468">
<time>2014-08-04T20:39:52Z</time></trkpt>
<trkpt lat="25.448644" lon="100.436398">
<time>2014-08-04T20:39:53Z</time></trkpt>
<trkpt lat="25.448774" lon="100.436328">
<time>2014-08-04T20:39:54Z</time></trkpt>
<trkpt lat="25.448894" lon="100.436268">
<time>2014-08-04T20:39:55Z</time></trkpt>
<trkpt lat="25.449004" lon="100.436208">
<time>2014-08-04T20:39:56Z</time></trkpt>
<trkpt lat="25.449114" lon="100.436148">
<time>2014-08-04T20:39:57Z</time></trkpt>
<trkpt lat="25.449234" lon="100.436088">
<time>2014-08-04T20:39:58Z</time></trkpt>
<trkpt lat="25.449344" lon="100.436017">
<time>2014-08-04T20:39:59Z</time></trkpt>
<trkpt lat="25.449474" lon="100.435927">
<time>2014-08-04T20:40:00Z</time></trkpt>
<trkpt lat="25.449624" lon="100.435827">
<time>2014-08-04T20:40:01Z</time></trkpt>
<trkpt lat="25.449794" lon="100.435727">
<time>2014-08-04T20:40:02Z</time></trkpt>
<trkpt lat="25.449974" lon="100.435657">
<time>2014-08-04T20:40:03Z</time></trkpt>
<trkpt lat="25.450144" lon="100.435587">
<time>2014-08-04T20:40:04Z</time></trkpt>
<trkpt lat="25.450343" lon="100.435507">
<time>2014-08-04T20:40:05Z</time></trkpt>
<trkpt lat="25.450533" lon="100.435407">
<time>2014-08-04T20:40:06Z</time></trkpt>
<trkpt lat="25.450703" lon="100.435326">
<time>2014-08-04T20:40:07Z</time></trkpt>
<trkpt lat="25.450873" lon="100.435236">
<time>2014-08-04T20:40:08Z</time></trkpt>
<trkpt lat="25.451043" lon="100.435156">
<time>2014-08-04T20:40:09Z</time></trkpt>
<trkpt lat="25.451203" lon="100.435066">
<time>2014-08-04T20:40:10Z</time></trkpt>
<trkpt lat="25.451343" lon="100.434976">
<time>2014-08-04T20:40:11Z</time></trkpt>
<trkpt lat="25.451493" lon="100.434886">
<time>2014-08-04T20:40:12Z</time></trkpt>
<trkpt lat="25.451643" lon="100.434776">
<time>2014-08-04T20:40:13Z</time></trkpt>
<trkpt lat="25.451793" lon="100.434635">
<time>2014-08-04T20:40:14Z</time></trkpt>
<trkpt lat="25.451922" lon="100.434485">
<time>2014-08-04T20:40:15Z</time></trkpt>
<trkpt lat="25.452022" lon="100.434315">
<time>2014-08-04T20:40:16Z</time></trkpt>
<trkpt lat="25.452082" lon="100.434165">
<time>2014-08-04T20:40:17Z</time></trkpt>
<trkpt lat="25.452122" lon="100.433944">
<time>2014-08-04T20:40:18Z</time></trkpt>
<trkpt lat="25.452121" lon="100.433714">
<time>2014-08-04T20:40:19Z</time></trkpt>
<trkpt lat="25.452091" lon="100.433484">
<time>2014-08-04T20:40:20Z</time></trkpt>
<trkpt lat="25.452071" lon="100.433253">
<time>2014-08-04T20:40:21Z</time></trkpt>
<trkpt lat="25.45206" lon="100.433023">
<time>2014-08-04T20:40:22Z</time></trkpt>
<trkpt lat="25.45205" lon="100.432793">
<time>2014-08-04T20:40:23Z</time></trkpt>
<trkpt lat="25.45205" lon="100.432572">
<time>2014-08-04T20:40:24Z</time></trkpt>
<trkpt lat="25.452049" lon="100.432362">
<time>2014-08-04T20:40:25Z</time></trkpt>
<trkpt lat="25.452059" lon="100.432132">
<time>2014-08-04T20:40:26Z</time></trkpt>
<trkpt lat="25.452049" lon="100.431902">
<time>2014-08-04T20:40:27Z</time></trkpt>
<trkpt lat="25.452058" lon="100.431671">
<time>2014-08-04T20:40:28Z</time></trkpt>
<trkpt lat="25.452038" lon="100.431461">
<time>2014-08-04T20:40:29Z</time></trkpt>
<trkpt lat="25.452028" lon="100.431311">
<time>2014-08-04T20:40:30Z</time></trkpt>
<trkpt lat="25.451978" lon="100.431111">
<time>2014-08-04T20:40:31Z</time></trkpt>
<trkpt lat="25.451907" lon="100.43092">
<time>2014-08-04T20:40:32Z</time></trkpt>
<trkpt lat="25.451847" lon="100.43072">
<time>2014-08-04T20:40:33Z</time></trkpt>
<trkpt lat="25.451807" lon="100.43053">
<time>2014-08-04T20:40:34Z</time></trkpt>
<trkpt lat="25.451786" lon="100.43032">
<time>2014-08-04T20:40:35Z</time></trkpt>
<trkpt lat="25.451786" lon="100.430219">
<time>2014-08-04T20:40:36Z</time></trkpt>
<trkpt lat="25.451786" lon="100.430099">
<time>2014-08-04T20:40:37Z</time></trkpt>
<trkpt lat="25.451836" lon="100.429919">
<time>2014-08-04T20:40:38Z</time></trkpt>
<trkpt lat="25.451926" lon="100.429759">
<time>2014-08-04T20:40:39Z</time></trkpt>
<trkpt lat="25.452046" lon="100.429609">
<time>2014-08-04T20:40:40Z</time></trkpt>
<trkpt lat="25.452186" lon="100.429478">
<time>2014-08-04T20:40:41Z</time></trkpt>
<trkpt lat="25.452335" lon="100.429358">
<time>2014-08-04T20:40:42Z</time></trkpt>
<trkpt lat="25.452495" lon="100.429238">
<time>2014-08-04T20:40:43Z</time></trkpt>
<trkpt lat="25.452675" lon="100.429128">
<time>2014-08-04T20:40:44Z</time></trkpt>
<trkpt lat="25.452865" lon="100.429018">
<time>2014-08-04T20:40:45Z</time></trkpt>
<trkpt lat="25.453055" lon="100.428908">
<time>2014-08-04T20:40:46Z</time></trkpt>
<trkpt lat="25.453205" lon="100.428808">
<time>2014-08-04T20:40:47Z</time></trkpt>
<trkpt lat="25.453355" lon="100.428718">
<time>2014-08-04T20:40:48Z</time></trkpt>
<trkpt lat="25.453505" lon="100.428637">
<time>2014-08-04T20:40:49Z</time></trkpt>
<trkpt lat="25.453635" lon="100.428577">
<time>2014-08-04T20:40:50Z</time></trkpt>
<trkpt lat="25.453765" lon="100.428517">
<time>2014-08-04T20:40:51Z</time></trkpt>
<trkpt lat="25.453905" lon="100.428457">
<time>2014-08-04T20:40:52Z</time></trkpt>
<trkpt lat="25.454055" lon="100.428357">
<time>2014-08-04T20:40:53Z</time></trkpt>
<trkpt lat="25.454215" lon="100.428267">
<time>2014-08-04T20:40:54Z</time></trkpt>
<trkpt lat="25.454374" lon="100.428177">
<time>2014-08-04T20:40:55Z</time></trkpt>
<trkpt lat="25.454544" lon="100.428057">
<time>2014-08-04T20:40:56Z</time></trkpt>
<trkpt lat="25.454704" lon="100.427947">
<time>2014-08-04T20:40:57Z</time></trkpt>
<trkpt lat="25.454874" lon="100.427816">
<time>2014-08-04T20:40:58Z</time></trkpt>
<trkpt lat="25.455034" lon="100.427706">
<time>2014-08-04T20:40:59Z</time></trkpt>
<trkpt lat="25.455224" lon="100.427596">
<time>2014-08-04T20:41:00Z</time></trkpt>
<trkpt lat="25.455414" lon="100.427496">
<time>2014-08-04T20:41:01Z</time></trkpt>
<trkpt lat="25.455604" lon="100.427386">
<time>2014-08-04T20:41:02Z</time></trkpt>
<trkpt lat="25.455764" lon="100.427296">
<time>2014-08-04T20:41:03Z</time></trkpt>
<trkpt lat="25.455764" lon="100.427296">
<time>2014-08-04T20:41:04Z</time></trkpt>
<trkpt lat="25.455733" lon="100.426735">
<time>2014-08-04T20:41:05Z</time></trkpt>
<trkpt lat="25.455693" lon="100.426295">
<time>2014-08-04T20:41:06Z</time></trkpt>
<trkpt lat="25.455652" lon="100.425794">
<time>2014-08-04T20:41:07Z</time></trkpt>
<trkpt lat="25.455622" lon="100.425514">
<time>2014-08-04T20:41:08Z</time></trkpt>
<trkpt lat="25.455581" lon="100.424993">
<time>2014-08-04T20:41:09Z</time></trkpt>
<trkpt lat="25.455551" lon="100.424663">
<time>2014-08-04T20:41:10Z</time></trkpt>
<trkpt lat="25.45553" lon="100.424393">
<time>2014-08-04T20:41:11Z</time></trkpt>
<trkpt lat="25.45548" lon="100.423982">
<time>2014-08-04T20:41:12Z</time></trkpt>
<trkpt lat="25.45546" lon="100.423752">
<time>2014-08-04T20:41:13Z</time></trkpt>
<trkpt lat="25.455419" lon="100.423382">
<time>2014-08-04T20:41:14Z</time></trkpt>
<trkpt lat="25.455399" lon="100.423142">
<time>2014-08-04T20:41:15Z</time></trkpt>
<trkpt lat="25.455389" lon="100.422841">
<time>2014-08-04T20:41:16Z</time></trkpt>
<trkpt lat="25.455359" lon="100.422521">
<time>2014-08-04T20:41:17Z</time></trkpt>
<trkpt lat="25.455359" lon="100.422501">
<time>2014-08-04T20:41:18Z</time></trkpt>
<trkpt lat="25.455359" lon="100.422501">
<time>2014-08-04T20:41:19Z</time></trkpt>
<trkpt lat="25.456649" lon="100.422421">
<time>2014-08-04T20:41:20Z</time></trkpt>
<trkpt lat="25.457769" lon="100.422261">
<time>2014-08-04T20:41:21Z</time></trkpt>
<trkpt lat="25.459779" lon="100.422171">
<time>2014-08-04T20:41:22Z</time></trkpt>
<trkpt lat="25.46163" lon="100.422201">
<time>2014-08-04T20:41:23Z</time></trkpt>
<trkpt lat="25.46302" lon="100.422301">
<time>2014-08-04T20:41:24Z</time></trkpt>
<trkpt lat="25.464501" lon="100.422511">
<time>2014-08-04T20:41:25Z</time></trkpt>
<trkpt lat="25.465431" lon="100.422401">
<time>2014-08-04T20:41:26Z</time></trkpt>
<trkpt lat="25.466081" lon="100.422231">
<time>2014-08-04T20:41:27Z</time></trkpt>
<trkpt lat="25.466741" lon="100.42191">
<time>2014-08-04T20:41:28Z</time></trkpt>
<trkpt lat="25.467101" lon="100.4217">
<time>2014-08-04T20:41:29Z</time></trkpt>
<trkpt lat="25.467101" lon="100.4217">
<time>2014-08-04T20:41:30Z</time></trkpt>
<trkpt lat="25.466079" lon="100.419959">
<time>2014-08-04T20:41:31Z</time></trkpt>
<trkpt lat="25.465849" lon="100.419649">
<time>2014-08-04T20:41:32Z</time></trkpt>
<trkpt lat="25.465769" lon="100.419438">
<time>2014-08-04T20:41:33Z</time></trkpt>
<trkpt lat="25.465718" lon="100.419208">
<time>2014-08-04T20:41:34Z</time></trkpt>
<trkpt lat="25.465668" lon="100.418928">
<time>2014-08-04T20:41:35Z</time></trkpt>
<trkpt lat="25.465396" lon="100.416877">
<time>2014-08-04T20:41:36Z</time></trkpt>
<trkpt lat="25.465396" lon="100.416877">
<time>2014-08-04T20:41:37Z</time></trkpt>
<trkpt lat="25.465436" lon="100.416877">
<time>2014-08-04T20:41:38Z</time></trkpt>
<trkpt lat="25.465597" lon="100.416907">
<time>2014-08-04T20:41:39Z</time></trkpt>
<trkpt lat="25.465717" lon="100.416937">
<time>2014-08-04T20:41:40Z</time></trkpt>
<trkpt lat="25.465757" lon="100.416947">
<time>2014-08-04T20:41:41Z</time></trkpt>
<trkpt lat="25.465817" lon="100.416957">
<time>2014-08-04T20:41:42Z</time></trkpt>
<trkpt lat="25.465927" lon="100.416967">
<time>2014-08-04T20:41:43Z</time></trkpt>
<trkpt lat="25.465927" lon="100.416967">
<time>2014-08-04T20:41:44Z</time></trkpt>
<trkpt lat="25.465847" lon="100.416947">
<time>2014-08-04T20:41:45Z</time></trkpt>
<trkpt lat="25.465777" lon="100.416927">
<time>2014-08-04T20:41:46Z</time></trkpt>
<trkpt lat="25.465707" lon="100.416897">
<time>2014-08-04T20:41:47Z</time></trkpt>
<trkpt lat="25.465637" lon="100.416847">
<time>2014-08-04T20:41:48Z</time></trkpt>
<trkpt lat="25.465536" lon="100.416727">
<time>2014-08-04T20:41:49Z</time></trkpt>
<trkpt lat="25.465466" lon="100.416576">
<time>2014-08-04T20:41:50Z</time></trkpt>
<trkpt lat="25.465406" lon="100.416306">
<time>2014-08-04T20:41:51Z</time></trkpt>
<trkpt lat="25.465306" lon="100.415856">
<time>2014-08-04T20:41:52Z</time></trkpt>
<trkpt lat="25.465175" lon="100.415246">
<time>2014-08-04T20:41:53Z</time></trkpt>
<trkpt lat="25.465125" lon="100.415136">
<time>2014-08-04T20:41:54Z</time></trkpt>
<trkpt lat="25.465035" lon="100.415026">
<time>2014-08-04T20:41:55Z</time></trkpt>
<trkpt lat="25.464905" lon="100.414836">
<time>2014-08-04T20:41:56Z</time></trkpt>
<trkpt lat="25.464705" lon="100.414675">
<time>2014-08-04T20:41:57Z</time></trkpt>
<trkpt lat="25.464465" lon="100.414555">
<time>2014-08-04T20:41:58Z</time></trkpt>
<trkpt lat="25.464205" lon="100.414475">
<time>2014-08-04T20:41:59Z</time></trkpt>
<trkpt lat="25.464004" lon="100.414325">
<time>2014-08-04T20:42:00Z</time></trkpt>
<trkpt lat="25.463874" lon="100.414205">
<time>2014-08-04T20:42:01Z</time></trkpt>
<trkpt lat="25.463704" lon="100.413965">
<time>2014-08-04T20:42:02Z</time></trkpt>
<trkpt lat="25.463564" lon="100.413755">
<time>2014-08-04T20:42:03Z</time></trkpt>
<trkpt lat="25.463424" lon="100.413545">
<time>2014-08-04T20:42:04Z</time></trkpt>
<trkpt lat="25.463364" lon="100.413395">
<time>2014-08-04T20:42:05Z</time></trkpt>
<trkpt lat="25.463254" lon="100.413185">
<time>2014-08-04T20:42:06Z</time></trkpt>
<trkpt lat="25.463133" lon="100.412985">
<time>2014-08-04T20:42:07Z</time></trkpt>
<trkpt lat="25.463033" lon="100.412775">
<time>2014-08-04T20:42:08Z</time></trkpt>
<trkpt lat="25.462963" lon="100.412565">
<time>2014-08-04T20:42:09Z</time></trkpt>
<trkpt lat="25.462923" lon="100.412324">
<time>2014-08-04T20:42:10Z</time></trkpt>
<trkpt lat="25.462893" lon="100.412094">
<time>2014-08-04T20:42:11Z</time></trkpt>
<trkpt lat="25.462853" lon="100.411884">
<time>2014-08-04T20:42:12Z</time></trkpt>
<trkpt lat="25.462803" lon="100.411694">
<time>2014-08-04T20:42:13Z</time></trkpt>
<trkpt lat="25.462733" lon="100.411484">
<time>2014-08-04T20:42:14Z</time></trkpt>
<trkpt lat="25.462612" lon="100.411304">
<time>2014-08-04T20:42:15Z</time></trkpt>
<trkpt lat="25.462452" lon="100.411214">
<time>2014-08-04T20:42:16Z</time></trkpt>
<trkpt lat="25.462242" lon="100.411234">
<time>2014-08-04T20:42:17Z</time></trkpt>
<trkpt lat="25.462082" lon="100.411344">
<time>2014-08-04T20:42:18Z</time></trkpt>
<trkpt lat="25.461922" lon="100.411474">
<time>2014-08-04T20:42:19Z</time></trkpt>
<trkpt lat="25.461772" lon="100.411624">
<time>2014-08-04T20:42:20Z</time></trkpt>
<trkpt lat="25.461602" lon="100.411744">
<time>2014-08-04T20:42:21Z</time></trkpt>
<trkpt lat="25.461452" lon="100.411834">
<time>2014-08-04T20:42:22Z</time></trkpt>
<trkpt lat="25.461282" lon="100.411824">
<time>2014-08-04T20:42:23Z</time></trkpt>
<trkpt lat="25.461192" lon="100.411724">
<time>2014-08-04T20:42:24Z</time></trkpt>
<trkpt lat="25.461162" lon="100.411564">
<time>2014-08-04T20:42:25Z</time></trkpt>
<trkpt lat="25.461202" lon="100.411424">
<time>2014-08-04T20:42:26Z</time></trkpt>
<trkpt lat="25.461282" lon="100.411294">
<time>2014-08-04T20:42:27Z</time></trkpt>
<trkpt lat="25.461352" lon="100.411174">
<time>2014-08-04T20:42:28Z</time></trkpt>
<trkpt lat="25.461432" lon="100.411054">
<time>2014-08-04T20:42:29Z</time></trkpt>
<trkpt lat="25.461512" lon="100.410924">
<time>2014-08-04T20:42:30Z</time></trkpt>
<trkpt lat="25.461582" lon="100.410764">
<time>2014-08-04T20:42:31Z</time></trkpt>
<trkpt lat="25.461592" lon="100.410584">
<time>2014-08-04T20:42:32Z</time></trkpt>
<trkpt lat="25.461532" lon="100.410414">
<time>2014-08-04T20:42:33Z</time></trkpt>
<trkpt lat="25.461422" lon="100.410274">
<time>2014-08-04T20:42:34Z</time></trkpt>
<trkpt lat="25.461292" lon="100.410134">
<time>2014-08-04T20:42:35Z</time></trkpt>
<trkpt lat="25.461161" lon="100.410014">
<time>2014-08-04T20:42:36Z</time></trkpt>
<trkpt lat="25.461061" lon="100.409864">
<time>2014-08-04T20:42:37Z</time></trkpt>
<trkpt lat="25.460931" lon="100.409764">
<time>2014-08-04T20:42:38Z</time></trkpt>
<trkpt lat="25.460801" lon="100.409634">
<time>2014-08-04T20:42:39Z</time></trkpt>
<trkpt lat="25.460681" lon="100.409534">
<time>2014-08-04T20:42:40Z</time></trkpt>
<trkpt lat="25.460561" lon="100.409444">
<time>2014-08-04T20:42:41Z</time></trkpt>
<trkpt lat="25.460441" lon="100.409384">
<time>2014-08-04T20:42:42Z</time></trkpt>
<trkpt lat="25.460341" lon="100.409314">
<time>2014-08-04T20:42:43Z</time></trkpt>
<trkpt lat="25.460231" lon="100.409224">
<time>2014-08-04T20:42:44Z</time></trkpt>
<trkpt lat="25.460121" lon="100.409154">
<time>2014-08-04T20:42:45Z</time></trkpt>
<trkpt lat="25.460021" lon="100.409074">
<time>2014-08-04T20:42:46Z</time></trkpt>
<trkpt lat="25.459911" lon="100.408994">
<time>2014-08-04T20:42:47Z</time></trkpt>
<trkpt lat="25.459821" lon="100.408914">
<time>2014-08-04T20:42:48Z</time></trkpt>
<trkpt lat="25.459721" lon="100.408833">
<time>2014-08-04T20:42:49Z</time></trkpt>
<trkpt lat="25.459631" lon="100.408743">
<time>2014-08-04T20:42:50Z</time></trkpt>
<trkpt lat="25.459521" lon="100.408693">
<time>2014-08-04T20:42:51Z</time></trkpt>
<trkpt lat="25.459411" lon="100.408653">
<time>2014-08-04T20:42:52Z</time></trkpt>
<trkpt lat="25.4593" lon="100.408623">
<time>2014-08-04T20:42:53Z</time></trkpt>
<trkpt lat="25.45918" lon="100.408623">
<time>2014-08-04T20:42:54Z</time></trkpt>
<trkpt lat="25.45907" lon="100.408603">
<time>2014-08-04T20:42:55Z</time></trkpt>
<trkpt lat="25.45893" lon="100.408603">
<time>2014-08-04T20:42:56Z</time></trkpt>
<trkpt lat="25.45878" lon="100.408593">
<time>2014-08-04T20:42:57Z</time></trkpt>
<trkpt lat="25.45862" lon="100.408573">
<time>2014-08-04T20:42:58Z</time></trkpt>
<trkpt lat="25.45848" lon="100.408543">
<time>2014-08-04T20:42:59Z</time></trkpt>
<trkpt lat="25.45834" lon="100.408503">
<time>2014-08-04T20:43:00Z</time></trkpt>
<trkpt lat="25.45823" lon="100.408403">
<time>2014-08-04T20:43:01Z</time></trkpt>
<trkpt lat="25.45814" lon="100.408283">
<time>2014-08-04T20:43:02Z</time></trkpt>
<trkpt lat="25.45811" lon="100.408123">
<time>2014-08-04T20:43:03Z</time></trkpt>
<trkpt lat="25.45808" lon="100.407993">
<time>2014-08-04T20:43:04Z</time></trkpt>
<trkpt lat="25.45805" lon="100.407853">
<time>2014-08-04T20:43:05Z</time></trkpt>
<trkpt lat="25.45801" lon="100.407733">
<time>2014-08-04T20:43:06Z</time></trkpt>
<trkpt lat="25.45794" lon="100.407603">
<time>2014-08-04T20:43:07Z</time></trkpt>
<trkpt lat="25.45786" lon="100.407503">
<time>2014-08-04T20:43:08Z</time></trkpt>
<trkpt lat="25.45772" lon="100.407423">
<time>2014-08-04T20:43:09Z</time></trkpt>
<trkpt lat="25.45757" lon="100.407423">
<time>2014-08-04T20:43:10Z</time></trkpt>
<trkpt lat="25.45742" lon="100.407483">
<time>2014-08-04T20:43:11Z</time></trkpt>
<trkpt lat="25.4573" lon="100.407553">
<time>2014-08-04T20:43:12Z</time></trkpt>
<trkpt lat="25.45717" lon="100.407643">
<time>2014-08-04T20:43:13Z</time></trkpt>
<trkpt lat="25.45704" lon="100.407703">
<time>2014-08-04T20:43:14Z</time></trkpt>
<trkpt lat="25.4569" lon="100.407743">
<time>2014-08-04T20:43:15Z</time></trkpt>
<trkpt lat="25.45677" lon="100.407753">
<time>2014-08-04T20:43:16Z</time></trkpt>
<trkpt lat="25.456589" lon="100.407743">
<time>2014-08-04T20:43:17Z</time></trkpt>
<trkpt lat="25.456439" lon="100.407703">
<time>2014-08-04T20:43:18Z</time></trkpt>
<trkpt lat="25.456309" lon="100.407643">
<time>2014-08-04T20:43:19Z</time></trkpt>
<trkpt lat="25.456179" lon="100.407553">
<time>2014-08-04T20:43:20Z</time></trkpt>
<trkpt lat="25.456019" lon="100.407473">
<time>2014-08-04T20:43:21Z</time></trkpt>
<trkpt lat="25.455849" lon="100.407383">
<time>2014-08-04T20:43:22Z</time></trkpt>
<trkpt lat="25.455639" lon="100.407323">
<time>2014-08-04T20:43:23Z</time></trkpt>
<trkpt lat="25.455419" lon="100.407273">
<time>2014-08-04T20:43:24Z</time></trkpt>
<trkpt lat="25.455249" lon="100.407143">
<time>2014-08-04T20:43:25Z</time></trkpt>
<trkpt lat="25.455159" lon="100.406963">
<time>2014-08-04T20:43:26Z</time></trkpt>
<trkpt lat="25.455129" lon="100.406733">
<time>2014-08-04T20:43:27Z</time></trkpt>
<trkpt lat="25.455159" lon="100.406543">
<time>2014-08-04T20:43:28Z</time></trkpt>
<trkpt lat="25.455119" lon="100.406473">
<time>2014-08-04T20:43:29Z</time></trkpt>
<trkpt lat="25.455039" lon="100.406463">
<time>2014-08-04T20:43:30Z</time></trkpt>
<trkpt lat="25.454899" lon="100.406543">
<time>2014-08-04T20:43:31Z</time></trkpt>
<trkpt lat="25.454779" lon="100.406663">
<time>2014-08-04T20:43:32Z</time></trkpt>
<trkpt lat="25.454639" lon="100.406763">
<time>2014-08-04T20:43:33Z</time></trkpt>
<trkpt lat="25.454499" lon="100.406903">
<time>2014-08-04T20:43:34Z</time></trkpt>
<trkpt lat="25.454309" lon="100.406973">
<time>2014-08-04T20:43:35Z</time></trkpt>
<trkpt lat="25.454159" lon="100.406993">
<time>2014-08-04T20:43:36Z</time></trkpt>
<trkpt lat="25.453989" lon="100.406943">
<time>2014-08-04T20:43:37Z</time></trkpt>
<trkpt lat="25.453859" lon="100.406833">
<time>2014-08-04T20:43:38Z</time></trkpt>
<trkpt lat="25.453748" lon="100.406703">
<time>2014-08-04T20:43:39Z</time></trkpt>
<trkpt lat="25.453658" lon="100.406553">
<time>2014-08-04T20:43:40Z</time></trkpt>
<trkpt lat="25.453588" lon="100.406393">
<time>2014-08-04T20:43:41Z</time></trkpt>
<trkpt lat="25.453568" lon="100.406233">
<time>2014-08-04T20:43:42Z</time></trkpt>
<trkpt lat="25.453588" lon="100.406083">
<time>2014-08-04T20:43:43Z</time></trkpt>
<trkpt lat="25.453658" lon="100.405943">
<time>2014-08-04T20:43:44Z</time></trkpt>
<trkpt lat="25.453728" lon="100.405833">
<time>2014-08-04T20:43:45Z</time></trkpt>
<trkpt lat="25.453808" lon="100.405703">
<time>2014-08-04T20:43:46Z</time></trkpt>
<trkpt lat="25.453888" lon="100.405583">
<time>2014-08-04T20:43:47Z</time></trkpt>
<trkpt lat="25.453948" lon="100.405433">
<time>2014-08-04T20:43:48Z</time></trkpt>
<trkpt lat="25.453988" lon="100.405293">
<time>2014-08-04T20:43:49Z</time></trkpt>
<trkpt lat="25.454008" lon="100.405153">
<time>2014-08-04T20:43:50Z</time></trkpt>
<trkpt lat="25.454018" lon="100.405023">
<time>2014-08-04T20:43:51Z</time></trkpt>
<trkpt lat="25.454028" lon="100.404903">
<time>2014-08-04T20:43:52Z</time></trkpt>
<trkpt lat="25.454038" lon="100.404763">
<time>2014-08-04T20:43:53Z</time></trkpt>
<trkpt lat="25.454028" lon="100.404633">
<time>2014-08-04T20:43:54Z</time></trkpt>
<trkpt lat="25.453988" lon="100.404503">
<time>2014-08-04T20:43:55Z</time></trkpt>
<trkpt lat="25.453908" lon="100.404393">
<time>2014-08-04T20:43:56Z</time></trkpt>
<trkpt lat="25.453828" lon="100.404293">
<time>2014-08-04T20:43:57Z</time></trkpt>
<trkpt lat="25.453758" lon="100.404203">
<time>2014-08-04T20:43:58Z</time></trkpt>
<trkpt lat="25.453688" lon="100.404113">
<time>2014-08-04T20:43:59Z</time></trkpt>
<trkpt lat="25.453618" lon="100.404033">
<time>2014-08-04T20:44:00Z</time></trkpt>
<trkpt lat="25.453538" lon="100.403943">
<time>2014-08-04T20:44:01Z</time></trkpt>
<trkpt lat="25.453438" lon="100.403873">
<time>2014-08-04T20:44:02Z</time></trkpt>
<trkpt lat="25.453348" lon="100.403843">
<time>2014-08-04T20:44:03Z</time></trkpt>
<trkpt lat="25.453218" lon="100.403843">
<time>2014-08-04T20:44:04Z</time></trkpt>
<trkpt lat="25.453098" lon="100.403863">
<time>2014-08-04T20:44:05Z</time></trkpt>
<trkpt lat="25.453008" lon="100.403883">
<time>2014-08-04T20:44:06Z</time></trkpt>
<trkpt lat="25.452888" lon="100.403843">
<time>2014-08-04T20:44:07Z</time></trkpt>
<trkpt lat="25.452818" lon="100.403743">
<time>2014-08-04T20:44:08Z</time></trkpt>
<trkpt lat="25.452748" lon="100.403643">
<time>2014-08-04T20:44:09Z</time></trkpt>
<trkpt lat="25.452688" lon="100.403473">
<time>2014-08-04T20:44:10Z</time></trkpt>
<trkpt lat="25.452638" lon="100.403293">
<time>2014-08-04T20:44:11Z</time></trkpt>
<trkpt lat="25.452598" lon="100.403103">
<time>2014-08-04T20:44:12Z</time></trkpt>
<trkpt lat="25.452547" lon="100.402923">
<time>2014-08-04T20:44:13Z</time></trkpt>
<trkpt lat="25.452497" lon="100.402743">
<time>2014-08-04T20:44:14Z</time></trkpt>
<trkpt lat="25.452467" lon="100.402523">
<time>2014-08-04T20:44:15Z</time></trkpt>
<trkpt lat="25.452477" lon="100.402293">
<time>2014-08-04T20:44:16Z</time></trkpt>
<trkpt lat="25.452537" lon="100.402073">
<time>2014-08-04T20:44:17Z</time></trkpt>
<trkpt lat="25.452607" lon="100.401873">
<time>2014-08-04T20:44:18Z</time></trkpt>
<trkpt lat="25.452707" lon="100.401713">
<time>2014-08-04T20:44:19Z</time></trkpt>
<trkpt lat="25.452787" lon="100.401553">
<time>2014-08-04T20:44:20Z</time></trkpt>
<trkpt lat="25.452867" lon="100.401373">
<time>2014-08-04T20:44:21Z</time></trkpt>
<trkpt lat="25.452918" lon="100.401203">
<time>2014-08-04T20:44:22Z</time></trkpt>
<trkpt lat="25.452948" lon="100.401023">
<time>2014-08-04T20:44:23Z</time></trkpt>
<trkpt lat="25.452968" lon="100.400853">
<time>2014-08-04T20:44:24Z</time></trkpt>
<trkpt lat="25.452958" lon="100.400694">
<time>2014-08-04T20:44:25Z</time></trkpt>
<trkpt lat="25.452897" lon="100.400554">
<time>2014-08-04T20:44:26Z</time></trkpt>
<trkpt lat="25.452787" lon="100.400464">
<time>2014-08-04T20:44:27Z</time></trkpt>
<trkpt lat="25.452637" lon="100.400444">
<time>2014-08-04T20:44:28Z</time></trkpt>
<trkpt lat="25.452497" lon="100.400454">
<time>2014-08-04T20:44:29Z</time></trkpt>
<trkpt lat="25.452297" lon="100.400484">
<time>2014-08-04T20:44:30Z</time></trkpt>
<trkpt lat="25.452107" lon="100.400524">
<time>2014-08-04T20:44:31Z</time></trkpt>
<trkpt lat="25.451937" lon="100.400564">
<time>2014-08-04T20:44:32Z</time></trkpt>
<trkpt lat="25.451657" lon="100.400654">
<time>2014-08-04T20:44:33Z</time></trkpt>
<trkpt lat="25.451447" lon="100.400714">
<time>2014-08-04T20:44:34Z</time></trkpt>
<trkpt lat="25.451307" lon="100.400784">
<time>2014-08-04T20:44:35Z</time></trkpt>
<trkpt lat="25.451107" lon="100.400854">
<time>2014-08-04T20:44:36Z</time></trkpt>
<trkpt lat="25.450917" lon="100.400934">
<time>2014-08-04T20:44:37Z</time></trkpt>
<trkpt lat="25.450737" lon="100.401014">
<time>2014-08-04T20:44:38Z</time></trkpt>
<trkpt lat="25.450547" lon="100.401103">
<time>2014-08-04T20:44:39Z</time></trkpt>
<trkpt lat="25.450357" lon="100.401183">
<time>2014-08-04T20:44:40Z</time></trkpt>
<trkpt lat="25.450167" lon="100.401253">
<time>2014-08-04T20:44:41Z</time></trkpt>
<trkpt lat="25.449977" lon="100.401293">
<time>2014-08-04T20:44:42Z</time></trkpt>
<trkpt lat="25.449797" lon="100.401333">
<time>2014-08-04T20:44:43Z</time></trkpt>
<trkpt lat="25.449627" lon="100.401363">
<time>2014-08-04T20:44:44Z</time></trkpt>
<trkpt lat="25.449487" lon="100.401363">
<time>2014-08-04T20:44:45Z</time></trkpt>
<trkpt lat="25.449297" lon="100.401343">
<time>2014-08-04T20:44:46Z</time></trkpt>
<trkpt lat="25.449117" lon="100.401294">
<time>2014-08-04T20:44:47Z</time></trkpt>
<trkpt lat="25.448966" lon="100.401294">
<time>2014-08-04T20:44:48Z</time></trkpt>
<trkpt lat="25.448766" lon="100.401314">
<time>2014-08-04T20:44:49Z</time></trkpt>
<trkpt lat="25.448586" lon="100.401384">
<time>2014-08-04T20:44:50Z</time></trkpt>
<trkpt lat="25.448416" lon="100.401474">
<time>2014-08-04T20:44:51Z</time></trkpt>
<trkpt lat="25.448246" lon="100.401553">
<time>2014-08-04T20:44:52Z</time></trkpt>
<trkpt lat="25.448066" lon="100.401613">
<time>2014-08-04T20:44:53Z</time></trkpt>
<trkpt lat="25.447896" lon="100.401643">
<time>2014-08-04T20:44:54Z</time></trkpt>
<trkpt lat="25.447696" lon="100.401614">
<time>2014-08-04T20:44:55Z</time></trkpt>
<trkpt lat="25.447516" lon="100.401584">
<time>2014-08-04T20:44:56Z</time></trkpt>
<trkpt lat="25.447346" lon="100.401544">
<time>2014-08-04T20:44:57Z</time></trkpt>
<trkpt lat="25.447206" lon="100.401434">
<time>2014-08-04T20:44:58Z</time></trkpt>
<trkpt lat="25.447146" lon="100.401274">
<time>2014-08-04T20:44:59Z</time></trkpt>
<trkpt lat="25.447136" lon="100.401094">
<time>2014-08-04T20:45:00Z</time></trkpt>
<trkpt lat="25.447176" lon="100.400914">
<time>2014-08-04T20:45:01Z</time></trkpt>
<trkpt lat="25.447216" lon="100.400754">
<time>2014-08-04T20:45:02Z</time></trkpt>
<trkpt lat="25.447276" lon="100.400614">
<time>2014-08-04T20:45:03Z</time></trkpt>
<trkpt lat="25.447326" lon="100.400484">
<time>2014-08-04T20:45:04Z</time></trkpt>
<trkpt lat="25.447426" lon="100.400364">
<time>2014-08-04T20:45:05Z</time></trkpt>
<trkpt lat="25.447486" lon="100.400234">
<time>2014-08-04T20:45:06Z</time></trkpt>
<trkpt lat="25.447576" lon="100.400104">
<time>2014-08-04T20:45:07Z</time></trkpt>
<trkpt lat="25.447646" lon="100.399944">
<time>2014-08-04T20:45:08Z</time></trkpt>
<trkpt lat="25.447726" lon="100.399784">
<time>2014-08-04T20:45:09Z</time></trkpt>
<trkpt lat="25.447846" lon="100.399614">
<time>2014-08-04T20:45:10Z</time></trkpt>
<trkpt lat="25.447976" lon="100.399464">
<time>2014-08-04T20:45:11Z</time></trkpt>
<trkpt lat="25.448086" lon="100.399304">
<time>2014-08-04T20:45:12Z</time></trkpt>
<trkpt lat="25.448196" lon="100.399144">
<time>2014-08-04T20:45:13Z</time></trkpt>
<trkpt lat="25.448226" lon="100.399034">
<time>2014-08-04T20:45:14Z</time></trkpt>
<trkpt lat="25.448196" lon="100.398924">
<time>2014-08-04T20:45:15Z</time></trkpt>
<trkpt lat="25.448096" lon="100.398814">
<time>2014-08-04T20:45:16Z</time></trkpt>
<trkpt lat="25.447976" lon="100.398694">
<time>2014-08-04T20:45:17Z</time></trkpt>
<trkpt lat="25.447846" lon="100.398584">
<time>2014-08-04T20:45:18Z</time></trkpt>
<trkpt lat="25.447726" lon="100.398454">
<time>2014-08-04T20:45:19Z</time></trkpt>
<trkpt lat="25.447606" lon="100.398304">
<time>2014-08-04T20:45:20Z</time></trkpt>
<trkpt lat="25.447496" lon="100.398204">
<time>2014-08-04T20:45:21Z</time></trkpt>
<trkpt lat="25.447336" lon="100.398104">
<time>2014-08-04T20:45:22Z</time></trkpt>
<trkpt lat="25.447186" lon="100.398014">
<time>2014-08-04T20:45:23Z</time></trkpt>
<trkpt lat="25.447016" lon="100.397914">
<time>2014-08-04T20:45:24Z</time></trkpt>
<trkpt lat="25.446816" lon="100.397824">
<time>2014-08-04T20:45:25Z</time></trkpt>
<trkpt lat="25.446626" lon="100.397744">
<time>2014-08-04T20:45:26Z</time></trkpt>
<trkpt lat="25.446456" lon="100.397654">
<time>2014-08-04T20:45:27Z</time></trkpt>
<trkpt lat="25.446266" lon="100.397554">
<time>2014-08-04T20:45:28Z</time></trkpt>
<trkpt lat="25.446096" lon="100.397474">
<time>2014-08-04T20:45:29Z</time></trkpt>
<trkpt lat="25.445956" lon="100.397405">
<time>2014-08-04T20:45:30Z</time></trkpt>
<trkpt lat="25.445806" lon="100.397365">
<time>2014-08-04T20:45:31Z</time></trkpt>
<trkpt lat="25.445666" lon="100.397355">
<time>2014-08-04T20:45:32Z</time></trkpt>
<trkpt lat="25.445516" lon="100.397345">
<time>2014-08-04T20:45:33Z</time></trkpt>
<trkpt lat="25.445356" lon="100.397355">
<time>2014-08-04T20:45:34Z</time></trkpt>
<trkpt lat="25.445176" lon="100.397375">
<time>2014-08-04T20:45:35Z</time></trkpt>
<trkpt lat="25.444966" lon="100.397415">
<time>2014-08-04T20:45:36Z</time></trkpt>
<trkpt lat="25.444786" lon="100.397455">
<time>2014-08-04T20:45:37Z</time></trkpt>
<trkpt lat="25.444586" lon="100.397485">
<time>2014-08-04T20:45:38Z</time></trkpt>
<trkpt lat="25.444376" lon="100.397475">
<time>2014-08-04T20:45:39Z</time></trkpt>
<trkpt lat="25.444216" lon="100.397465">
<time>2014-08-04T20:45:40Z</time></trkpt>
<trkpt lat="25.444096" lon="100.397445">
<time>2014-08-04T20:45:41Z</time></trkpt>
<trkpt lat="25.443986" lon="100.397395">
<time>2014-08-04T20:45:42Z</time></trkpt>
<trkpt lat="25.443886" lon="100.397295">
<time>2014-08-04T20:45:43Z</time></trkpt>
<trkpt lat="25.443806" lon="100.397175">
<time>2014-08-04T20:45:44Z</time></trkpt>
<trkpt lat="25.443686" lon="100.397015">
<time>2014-08-04T20:45:45Z</time></trkpt>
<trkpt lat="25.443586" lon="100.396855">
<time>2014-08-04T20:45:46Z</time></trkpt>
<trkpt lat="25.443476" lon="100.396695">
<time>2014-08-04T20:45:47Z</time></trkpt>
<trkpt lat="25.443356" lon="100.396555">
<time>2014-08-04T20:45:48Z</time></trkpt>
<trkpt lat="25.443246" lon="100.396455">
<time>2014-08-04T20:45:49Z</time></trkpt>
<trkpt lat="25.443145" lon="100.396435">
<time>2014-08-04T20:45:50Z</time></trkpt>
<trkpt lat="25.443065" lon="100.396445">
<time>2014-08-04T20:45:51Z</time></trkpt>
<trkpt lat="25.442965" lon="100.396635">
<time>2014-08-04T20:45:52Z</time></trkpt>
<trkpt lat="25.442875" lon="100.396855">
<time>2014-08-04T20:45:53Z</time></trkpt>
<trkpt lat="25.442835" lon="100.397045">
<time>2014-08-04T20:45:54Z</time></trkpt>
<trkpt lat="25.442795" lon="100.397205">
<time>2014-08-04T20:45:55Z</time></trkpt>
<trkpt lat="25.442705" lon="100.397345">
<time>2014-08-04T20:45:56Z</time></trkpt>
<trkpt lat="25.442565" lon="100.397445">
<time>2014-08-04T20:45:57Z</time></trkpt>
<trkpt lat="25.442415" lon="100.397485">
<time>2014-08-04T20:45:58Z</time></trkpt>
<trkpt lat="25.442215" lon="100.397465">
<time>2014-08-04T20:45:59Z</time></trkpt>
<trkpt lat="25.442035" lon="100.397435">
<time>2014-08-04T20:46:00Z</time></trkpt>
<trkpt lat="25.441855" lon="100.397415">
<time>2014-08-04T20:46:01Z</time></trkpt>
<trkpt lat="25.441655" lon="100.397385">
<time>2014-08-04T20:46:02Z</time></trkpt>
<trkpt lat="25.441425" lon="100.397345">
<time>2014-08-04T20:46:03Z</time></trkpt>
<trkpt lat="25.441255" lon="100.397295">
<time>2014-08-04T20:46:04Z</time></trkpt>
<trkpt lat="25.441085" lon="100.397235">
<time>2014-08-04T20:46:05Z</time></trkpt>
<trkpt lat="25.440945" lon="100.397155">
<time>2014-08-04T20:46:06Z</time></trkpt>
<trkpt lat="25.440845" lon="100.397025">
<time>2014-08-04T20:46:07Z</time></trkpt>
<trkpt lat="25.440785" lon="100.396835">
<time>2014-08-04T20:46:08Z</time></trkpt>
<trkpt lat="25.440745" lon="100.396625">
<time>2014-08-04T20:46:09Z</time></trkpt>
<trkpt lat="25.440725" lon="100.396395">
<time>2014-08-04T20:46:10Z</time></trkpt>
<trkpt lat="25.440735" lon="100.396175">
<time>2014-08-04T20:46:11Z</time></trkpt>
<trkpt lat="25.440775" lon="100.395955">
<time>2014-08-04T20:46:12Z</time></trkpt>
<trkpt lat="25.440845" lon="100.395765">
<time>2014-08-04T20:46:13Z</time></trkpt>
<trkpt lat="25.440945" lon="100.395565">
<time>2014-08-04T20:46:14Z</time></trkpt>
<trkpt lat="25.441055" lon="100.395375">
<time>2014-08-04T20:46:15Z</time></trkpt>
<trkpt lat="25.441175" lon="100.395155">
<time>2014-08-04T20:46:16Z</time></trkpt>
<trkpt lat="25.441305" lon="100.394976">
<time>2014-08-04T20:46:17Z</time></trkpt>
<trkpt lat="25.441455" lon="100.394786">
<time>2014-08-04T20:46:18Z</time></trkpt>
<trkpt lat="25.441576" lon="100.394586">
<time>2014-08-04T20:46:19Z</time></trkpt>
<trkpt lat="25.441696" lon="100.394406">
<time>2014-08-04T20:46:20Z</time></trkpt>
<trkpt lat="25.441836" lon="100.394186">
<time>2014-08-04T20:46:21Z</time></trkpt>
<trkpt lat="25.441956" lon="100.393956">
<time>2014-08-04T20:46:22Z</time></trkpt>
<trkpt lat="25.442016" lon="100.393716">
<time>2014-08-04T20:46:23Z</time></trkpt>
<trkpt lat="25.442076" lon="100.393486">
<time>2014-08-04T20:46:24Z</time></trkpt>
<trkpt lat="25.442106" lon="100.393276">
<time>2014-08-04T20:46:25Z</time></trkpt>
<trkpt lat="25.442106" lon="100.393086">
<time>2014-08-04T20:46:26Z</time></trkpt>
<trkpt lat="25.442076" lon="100.392887">
<time>2014-08-04T20:46:27Z</time></trkpt>
<trkpt lat="25.442026" lon="100.392727">
<time>2014-08-04T20:46:28Z</time></trkpt>
<trkpt lat="25.441946" lon="100.392587">
<time>2014-08-04T20:46:29Z</time></trkpt>
<trkpt lat="25.441826" lon="100.392497">
<time>2014-08-04T20:46:30Z</time></trkpt>
<trkpt lat="25.441736" lon="100.392477">
<time>2014-08-04T20:46:31Z</time></trkpt>
<trkpt lat="25.441586" lon="100.392527">
<time>2014-08-04T20:46:32Z</time></trkpt>
<trkpt lat="25.441486" lon="100.392597">
<time>2014-08-04T20:46:33Z</time></trkpt>
<trkpt lat="25.441376" lon="100.392707">
<time>2014-08-04T20:46:34Z</time></trkpt>
<trkpt lat="25.441256" lon="100.392817">
<time>2014-08-04T20:46:35Z</time></trkpt>
<trkpt lat="25.441106" lon="100.392927">
<time>2014-08-04T20:46:36Z</time></trkpt>
<trkpt lat="25.440946" lon="100.392997">
<time>2014-08-04T20:46:37Z</time></trkpt>
<trkpt lat="25.440776" lon="100.393057">
<time>2014-08-04T20:46:38Z</time></trkpt>
<trkpt lat="25.440626" lon="100.393106">
<time>2014-08-04T20:46:39Z</time></trkpt>
<trkpt lat="25.440476" lon="100.393166">
<time>2014-08-04T20:46:40Z</time></trkpt>
<trkpt lat="25.440336" lon="100.393186">
<time>2014-08-04T20:46:41Z</time></trkpt>
<trkpt lat="25.440176" lon="100.393146">
<time>2014-08-04T20:46:42Z</time></trkpt>
<trkpt lat="25.440036" lon="100.393047">
<time>2014-08-04T20:46:43Z</time></trkpt>
<trkpt lat="25.439896" lon="100.392947">
<time>2014-08-04T20:46:44Z</time></trkpt>
<trkpt lat="25.439776" lon="100.392727">
<time>2014-08-04T20:46:45Z</time></trkpt>
<trkpt lat="25.439686" lon="100.392597">
<time>2014-08-04T20:46:46Z</time></trkpt>
<trkpt lat="25.439606" lon="100.392467">
<time>2014-08-04T20:46:47Z</time></trkpt>
<trkpt lat="25.439536" lon="100.392327">
<time>2014-08-04T20:46:48Z</time></trkpt>
<trkpt lat="25.439446" lon="100.392197">
<time>2014-08-04T20:46:49Z</time></trkpt>
<trkpt lat="25.439346" lon="100.392107">
<time>2014-08-04T20:46:50Z</time></trkpt>
<trkpt lat="25.439226" lon="100.392047">
<time>2014-08-04T20:46:51Z</time></trkpt>
<trkpt lat="25.439116" lon="100.392017">
<time>2014-08-04T20:46:52Z</time></trkpt>
<trkpt lat="25.438996" lon="100.392017">
<time>2014-08-04T20:46:53Z</time></trkpt>
<trkpt lat="25.438866" lon="100.391987">
<time>2014-08-04T20:46:54Z</time></trkpt>
<trkpt lat="25.438716" lon="100.391947">
<time>2014-08-04T20:46:55Z</time></trkpt>
<trkpt lat="25.438566" lon="100.391907">
<time>2014-08-04T20:46:56Z</time></trkpt>
<trkpt lat="25.438396" lon="100.391837">
<time>2014-08-04T20:46:57Z</time></trkpt>
<trkpt lat="25.438246" lon="100.391747">
<time>2014-08-04T20:46:58Z</time></trkpt>
<trkpt lat="25.438116" lon="100.391617">
<time>2014-08-04T20:46:59Z</time></trkpt>
<trkpt lat="25.438006" lon="100.391467">
<time>2014-08-04T20:47:00Z</time></trkpt>
<trkpt lat="25.437936" lon="100.391298">
<time>2014-08-04T20:47:01Z</time></trkpt>
<trkpt lat="25.437916" lon="100.391098">
<time>2014-08-04T20:47:02Z</time></trkpt>
<trkpt lat="25.437936" lon="100.390878">
<time>2014-08-04T20:47:03Z</time></trkpt>
<trkpt lat="25.437976" lon="100.390648">
<time>2014-08-04T20:47:04Z</time></trkpt>
<trkpt lat="25.438016" lon="100.390418">
<time>2014-08-04T20:47:05Z</time></trkpt>
<trkpt lat="25.438036" lon="100.390198">
<time>2014-08-04T20:47:06Z</time></trkpt>
<trkpt lat="25.438006" lon="100.389978">
<time>2014-08-04T20:47:07Z</time></trkpt>
<trkpt lat="25.437916" lon="100.389789">
<time>2014-08-04T20:47:08Z</time></trkpt>
<trkpt lat="25.437777" lon="100.389639">
<time>2014-08-04T20:47:09Z</time></trkpt>
<trkpt lat="25.437597" lon="100.389539">
<time>2014-08-04T20:47:10Z</time></trkpt>
<trkpt lat="25.437437" lon="100.389469">
<time>2014-08-04T20:47:11Z</time></trkpt>
<trkpt lat="25.437267" lon="100.389379">
<time>2014-08-04T20:47:12Z</time></trkpt>
<trkpt lat="25.437107" lon="100.389279">
<time>2014-08-04T20:47:13Z</time></trkpt>
<trkpt lat="25.436937" lon="100.389199">
<time>2014-08-04T20:47:14Z</time></trkpt>
<trkpt lat="25.436777" lon="100.389139">
<time>2014-08-04T20:47:15Z</time></trkpt>
<trkpt lat="25.436606" lon="100.389109">
<time>2014-08-04T20:47:16Z</time></trkpt>
<trkpt lat="25.436446" lon="100.389079">
<time>2014-08-04T20:47:17Z</time></trkpt>
<trkpt lat="25.436286" lon="100.389079">
<time>2014-08-04T20:47:18Z</time></trkpt>
<trkpt lat="25.436136" lon="100.389049">
<time>2014-08-04T20:47:19Z</time></trkpt>
<trkpt lat="25.436016" lon="100.388949">
<time>2014-08-04T20:47:20Z</time></trkpt>
<trkpt lat="25.435947" lon="100.388789">
<time>2014-08-04T20:47:21Z</time></trkpt>
<trkpt lat="25.435947" lon="100.388569">
<time>2014-08-04T20:47:22Z</time></trkpt>
<trkpt lat="25.435957" lon="100.3884">
<time>2014-08-04T20:47:23Z</time></trkpt>
<trkpt lat="25.435987" lon="100.3882">
<time>2014-08-04T20:47:24Z</time></trkpt>
<trkpt lat="25.436027" lon="100.38797">
<time>2014-08-04T20:47:25Z</time></trkpt>
<trkpt lat="25.436047" lon="100.3879">
<time>2014-08-04T20:47:26Z</time></trkpt>
<trkpt lat="25.436087" lon="100.38774">
<time>2014-08-04T20:47:27Z</time></trkpt>
<trkpt lat="25.436147" lon="100.38748">
<time>2014-08-04T20:47:28Z</time></trkpt>
<trkpt lat="25.436227" lon="100.38722">
<time>2014-08-04T20:47:29Z</time></trkpt>
<trkpt lat="25.436308" lon="100.387001">
<time>2014-08-04T20:47:30Z</time></trkpt>
<trkpt lat="25.436348" lon="100.386771">
<time>2014-08-04T20:47:31Z</time></trkpt>
<trkpt lat="25.436318" lon="100.386561">
<time>2014-08-04T20:47:32Z</time></trkpt>
<trkpt lat="25.436228" lon="100.386451">
<time>2014-08-04T20:47:33Z</time></trkpt>
<trkpt lat="25.436098" lon="100.386381">
<time>2014-08-04T20:47:34Z</time></trkpt>
<trkpt lat="25.435948" lon="100.386401">
<time>2014-08-04T20:47:35Z</time></trkpt>
<trkpt lat="25.435808" lon="100.386461">
<time>2014-08-04T20:47:36Z</time></trkpt>
<trkpt lat="25.435678" lon="100.386521">
<time>2014-08-04T20:47:37Z</time></trkpt>
<trkpt lat="25.435548" lon="100.386611">
<time>2014-08-04T20:47:38Z</time></trkpt>
<trkpt lat="25.435398" lon="100.386741">
<time>2014-08-04T20:47:39Z</time></trkpt>
<trkpt lat="25.435217" lon="100.386911">
<time>2014-08-04T20:47:40Z</time></trkpt>
<trkpt lat="25.435047" lon="100.387071">
<time>2014-08-04T20:47:41Z</time></trkpt>
<trkpt lat="25.434947" lon="100.387171">
<time>2014-08-04T20:47:42Z</time></trkpt>
<trkpt lat="25.434887" lon="100.38723">
<time>2014-08-04T20:47:43Z</time></trkpt>
<trkpt lat="25.434717" lon="100.38739">
<time>2014-08-04T20:47:44Z</time></trkpt>
<trkpt lat="25.434547" lon="100.38756">
<time>2014-08-04T20:47:45Z</time></trkpt>
<trkpt lat="25.434357" lon="100.38772">
<time>2014-08-04T20:47:46Z</time></trkpt>
<trkpt lat="25.434177" lon="100.3879">
<time>2014-08-04T20:47:47Z</time></trkpt>
<trkpt lat="25.434006" lon="100.38808">
<time>2014-08-04T20:47:48Z</time></trkpt>
<trkpt lat="25.433856" lon="100.38827">
<time>2014-08-04T20:47:49Z</time></trkpt>
<trkpt lat="25.433686" lon="100.38843">
<time>2014-08-04T20:47:50Z</time></trkpt>
<trkpt lat="25.433536" lon="100.388589">
<time>2014-08-04T20:47:51Z</time></trkpt>
<trkpt lat="25.433376" lon="100.388689">
<time>2014-08-04T20:47:52Z</time></trkpt>
<trkpt lat="25.433236" lon="100.388729">
<time>2014-08-04T20:47:53Z</time></trkpt>
<trkpt lat="25.433066" lon="100.388689">
<time>2014-08-04T20:47:54Z</time></trkpt>
<trkpt lat="25.432976" lon="100.38856">
<time>2014-08-04T20:47:55Z</time></trkpt>
<trkpt lat="25.432946" lon="100.38841">
<time>2014-08-04T20:47:56Z</time></trkpt>
<trkpt lat="25.432936" lon="100.38824">
<time>2014-08-04T20:47:57Z</time></trkpt>
<trkpt lat="25.432936" lon="100.38804">
<time>2014-08-04T20:47:58Z</time></trkpt>
<trkpt lat="25.432956" lon="100.38783">
<time>2014-08-04T20:47:59Z</time></trkpt>
<trkpt lat="25.433016" lon="100.38762">
<time>2014-08-04T20:48:00Z</time></trkpt>
<trkpt lat="25.433077" lon="100.38742">
<time>2014-08-04T20:48:01Z</time></trkpt>
<trkpt lat="25.433137" lon="100.387211">
<time>2014-08-04T20:48:02Z</time></trkpt>
<trkpt lat="25.433197" lon="100.387001">
<time>2014-08-04T20:48:03Z</time></trkpt>
<trkpt lat="25.433257" lon="100.386821">
<time>2014-08-04T20:48:04Z</time></trkpt>
<trkpt lat="25.433297" lon="100.386661">
<time>2014-08-04T20:48:05Z</time></trkpt>
<trkpt lat="25.433357" lon="100.386491">
<time>2014-08-04T20:48:06Z</time></trkpt>
<trkpt lat="25.433407" lon="100.386311">
<time>2014-08-04T20:48:07Z</time></trkpt>
<trkpt lat="25.433457" lon="100.386131">
<time>2014-08-04T20:48:08Z</time></trkpt>
<trkpt lat="25.433508" lon="100.385942">
<time>2014-08-04T20:48:09Z</time></trkpt>
<trkpt lat="25.433548" lon="100.385762">
<time>2014-08-04T20:48:10Z</time></trkpt>
<trkpt lat="25.433588" lon="100.385582">
<time>2014-08-04T20:48:11Z</time></trkpt>
<trkpt lat="25.433618" lon="100.385402">
<time>2014-08-04T20:48:12Z</time></trkpt>
<trkpt lat="25.433638" lon="100.385232">
<time>2014-08-04T20:48:13Z</time></trkpt>
<trkpt lat="25.433608" lon="100.385062">
<time>2014-08-04T20:48:14Z</time></trkpt>
<trkpt lat="25.433548" lon="100.384912">
<time>2014-08-04T20:48:15Z</time></trkpt>
<trkpt lat="25.433428" lon="100.384853">
<time>2014-08-04T20:48:16Z</time></trkpt>
<trkpt lat="25.433338" lon="100.384733">
<time>2014-08-04T20:48:17Z</time></trkpt>
<trkpt lat="25.433278" lon="100.384593">
<time>2014-08-04T20:48:18Z</time></trkpt>
<trkpt lat="25.433269" lon="100.384433">
<time>2014-08-04T20:48:19Z</time></trkpt>
<trkpt lat="25.433269" lon="100.384323">
<time>2014-08-04T20:48:20Z</time></trkpt>
<trkpt lat="25.433169" lon="100.384183">
<time>2014-08-04T20:48:21Z</time></trkpt>
<trkpt lat="25.433109" lon="100.384163">
<time>2014-08-04T20:48:22Z</time></trkpt>
<trkpt lat="25.433029" lon="100.384143">
<time>2014-08-04T20:48:23Z</time></trkpt>
<trkpt lat="25.432859" lon="100.384183">
<time>2014-08-04T20:48:24Z</time></trkpt>
<trkpt lat="25.432718" lon="100.384293">
<time>2014-08-04T20:48:25Z</time></trkpt>
<trkpt lat="25.432578" lon="100.384433">
<time>2014-08-04T20:48:26Z</time></trkpt>
<trkpt lat="25.432448" lon="100.384573">
<time>2014-08-04T20:48:27Z</time></trkpt>
<trkpt lat="25.432288" lon="100.384703">
<time>2014-08-04T20:48:28Z</time></trkpt>
<trkpt lat="25.432108" lon="100.384823">
<time>2014-08-04T20:48:29Z</time></trkpt>
<trkpt lat="25.431928" lon="100.384922">
<time>2014-08-04T20:48:30Z</time></trkpt>
<trkpt lat="25.431748" lon="100.385042">
<time>2014-08-04T20:48:31Z</time></trkpt>
<trkpt lat="25.431578" lon="100.385142">
<time>2014-08-04T20:48:32Z</time></trkpt>
<trkpt lat="25.431408" lon="100.385212">
<time>2014-08-04T20:48:33Z</time></trkpt>
<trkpt lat="25.431238" lon="100.385192">
<time>2014-08-04T20:48:34Z</time></trkpt>
<trkpt lat="25.431068" lon="100.385102">
<time>2014-08-04T20:48:35Z</time></trkpt>
<trkpt lat="25.430958" lon="100.384982">
<time>2014-08-04T20:48:36Z</time></trkpt>
<trkpt lat="25.430878" lon="100.384813">
<time>2014-08-04T20:48:37Z</time></trkpt>
<trkpt lat="25.430838" lon="100.384643">
<time>2014-08-04T20:48:38Z</time></trkpt>
<trkpt lat="25.430838" lon="100.384463">
<time>2014-08-04T20:48:39Z</time></trkpt>
<trkpt lat="25.430878" lon="100.384323">
<time>2014-08-04T20:48:40Z</time></trkpt>
<trkpt lat="25.430928" lon="100.384183">
<time>2014-08-04T20:48:41Z</time></trkpt>
<trkpt lat="25.430978" lon="100.384063">
<time>2014-08-04T20:48:42Z</time></trkpt>
<trkpt lat="25.431028" lon="100.383923">
<time>2014-08-04T20:48:43Z</time></trkpt>
<trkpt lat="25.431068" lon="100.383784">
<time>2014-08-04T20:48:44Z</time></trkpt>
<trkpt lat="25.431099" lon="100.383654">
<time>2014-08-04T20:48:45Z</time></trkpt>
<trkpt lat="25.431119" lon="100.383574">
<time>2014-08-04T20:48:46Z</time></trkpt>
<trkpt lat="25.431149" lon="100.383464">
<time>2014-08-04T20:48:47Z</time></trkpt>
<trkpt lat="25.431139" lon="100.383334">
<time>2014-08-04T20:48:48Z</time></trkpt>
<trkpt lat="25.431089" lon="100.383224">
<time>2014-08-04T20:48:49Z</time></trkpt>
<trkpt lat="25.430979" lon="100.383134">
<time>2014-08-04T20:48:50Z</time></trkpt>
<trkpt lat="25.430849" lon="100.383124">
<time>2014-08-04T20:48:51Z</time></trkpt>
<trkpt lat="25.430689" lon="100.383174">
<time>2014-08-04T20:48:52Z</time></trkpt>
<trkpt lat="25.430539" lon="100.383254">
<time>2014-08-04T20:48:53Z</time></trkpt>
<trkpt lat="25.430389" lon="100.383344">
<time>2014-08-04T20:48:54Z</time></trkpt>
<trkpt lat="25.430239" lon="100.383434">
<time>2014-08-04T20:48:55Z</time></trkpt>
<trkpt lat="25.430088" lon="100.383524">
<time>2014-08-04T20:48:56Z</time></trkpt>
<trkpt lat="25.429928" lon="100.383594">
<time>2014-08-04T20:48:57Z</time></trkpt>
<trkpt lat="25.429758" lon="100.383654">
<time>2014-08-04T20:48:58Z</time></trkpt>
<trkpt lat="25.429588" lon="100.383684">
<time>2014-08-04T20:48:59Z</time></trkpt>
<trkpt lat="25.429418" lon="100.383694">
<time>2014-08-04T20:49:00Z</time></trkpt>
<trkpt lat="25.429268" lon="100.383704">
<time>2014-08-04T20:49:01Z</time></trkpt>
<trkpt lat="25.429068" lon="100.383684">
<time>2014-08-04T20:49:02Z</time></trkpt>
<trkpt lat="25.428918" lon="100.383654">
<time>2014-08-04T20:49:03Z</time></trkpt>
<trkpt lat="25.428748" lon="100.383674">
<time>2014-08-04T20:49:04Z</time></trkpt>
<trkpt lat="25.428638" lon="100.383684">
<time>2014-08-04T20:49:05Z</time></trkpt>
<trkpt lat="25.428528" lon="100.383704">
<time>2014-08-04T20:49:06Z</time></trkpt>
<trkpt lat="25.428428" lon="100.383744">
<time>2014-08-04T20:49:07Z</time></trkpt>
<trkpt lat="25.428328" lon="100.383784">
<time>2014-08-04T20:49:08Z</time></trkpt>
<trkpt lat="25.428218" lon="100.383824">
<time>2014-08-04T20:49:09Z</time></trkpt>
<trkpt lat="25.428118" lon="100.383854">
<time>2014-08-04T20:49:10Z</time></trkpt>
<trkpt lat="25.428018" lon="100.383874">
<time>2014-08-04T20:49:11Z</time></trkpt>
<trkpt lat="25.427918" lon="100.383884">
<time>2014-08-04T20:49:12Z</time></trkpt>
<trkpt lat="25.427838" lon="100.383854">
<time>2014-08-04T20:49:13Z</time></trkpt>
<trkpt lat="25.427768" lon="100.383814">
<time>2014-08-04T20:49:14Z</time></trkpt>
<trkpt lat="25.427698" lon="100.383754">
<time>2014-08-04T20:49:15Z</time></trkpt>
<trkpt lat="25.427648" lon="100.383664">
<time>2014-08-04T20:49:16Z</time></trkpt>
<trkpt lat="25.427618" lon="100.383504">
<time>2014-08-04T20:49:17Z</time></trkpt>
<trkpt lat="25.427678" lon="100.383364">
<time>2014-08-04T20:49:18Z</time></trkpt>
<trkpt lat="25.427718" lon="100.383294">
<time>2014-08-04T20:49:19Z</time></trkpt>
<trkpt lat="25.427798" lon="100.383204">
<time>2014-08-04T20:49:20Z</time></trkpt>
<trkpt lat="25.427908" lon="100.383104">
<time>2014-08-04T20:49:21Z</time></trkpt>
<trkpt lat="25.428008" lon="100.383014">
<time>2014-08-04T20:49:22Z</time></trkpt>
<trkpt lat="25.428118" lon="100.382924">
<time>2014-08-04T20:49:23Z</time></trkpt>
<trkpt lat="25.428219" lon="100.382805">
<time>2014-08-04T20:49:24Z</time></trkpt>
<trkpt lat="25.428349" lon="100.382705">
<time>2014-08-04T20:49:25Z</time></trkpt>
<trkpt lat="25.428479" lon="100.382605">
<time>2014-08-04T20:49:26Z</time></trkpt>
<trkpt lat="25.428599" lon="100.382475">
<time>2014-08-04T20:49:27Z</time></trkpt>
<trkpt lat="25.428719" lon="100.382355">
<time>2014-08-04T20:49:28Z</time></trkpt>
<trkpt lat="25.428829" lon="100.382235">
<time>2014-08-04T20:49:29Z</time></trkpt>
<trkpt lat="25.428899" lon="100.382115">
<time>2014-08-04T20:49:30Z</time></trkpt>
<trkpt lat="25.428999" lon="100.382005">
<time>2014-08-04T20:49:31Z</time></trkpt>
<trkpt lat="25.429079" lon="100.381875">
<time>2014-08-04T20:49:32Z</time></trkpt>
<trkpt lat="25.42919" lon="100.381776">
<time>2014-08-04T20:49:33Z</time></trkpt>
<trkpt lat="25.42931" lon="100.381666">
<time>2014-08-04T20:49:34Z</time></trkpt>
<trkpt lat="25.42944" lon="100.381556">
<time>2014-08-04T20:49:35Z</time></trkpt>
<trkpt lat="25.42959" lon="100.381446">
<time>2014-08-04T20:49:36Z</time></trkpt>
<trkpt lat="25.42973" lon="100.381326">
<time>2014-08-04T20:49:37Z</time></trkpt>
<trkpt lat="25.42986" lon="100.381186">
<time>2014-08-04T20:49:38Z</time></trkpt>
<trkpt lat="25.42998" lon="100.381036">
<time>2014-08-04T20:49:39Z</time></trkpt>
<trkpt lat="25.4301" lon="100.380876">
<time>2014-08-04T20:49:40Z</time></trkpt>
<trkpt lat="25.430231" lon="100.380717">
<time>2014-08-04T20:49:41Z</time></trkpt>
<trkpt lat="25.430381" lon="100.380587">
<time>2014-08-04T20:49:42Z</time></trkpt>
<trkpt lat="25.430551" lon="100.380487">
<time>2014-08-04T20:49:43Z</time></trkpt>
<trkpt lat="25.430721" lon="100.380397">
<time>2014-08-04T20:49:44Z</time></trkpt>
<trkpt lat="25.430791" lon="100.380377">
<time>2014-08-04T20:49:45Z</time></trkpt>
<trkpt lat="25.430901" lon="100.380327">
<time>2014-08-04T20:49:46Z</time></trkpt>
<trkpt lat="25.431081" lon="100.380267">
<time>2014-08-04T20:49:47Z</time></trkpt>
<trkpt lat="25.431251" lon="100.380187">
<time>2014-08-04T20:49:48Z</time></trkpt>
<trkpt lat="25.431421" lon="100.380097">
<time>2014-08-04T20:49:49Z</time></trkpt>
<trkpt lat="25.431572" lon="100.380007">
<time>2014-08-04T20:49:50Z</time></trkpt>
<trkpt lat="25.431722" lon="100.379877">
<time>2014-08-04T20:49:51Z</time></trkpt>
<trkpt lat="25.431862" lon="100.379758">
<time>2014-08-04T20:49:52Z</time></trkpt>
<trkpt lat="25.431872" lon="100.379748">
<time>2014-08-04T20:49:53Z</time></trkpt>
<trkpt lat="25.432022" lon="100.379618">
<time>2014-08-04T20:49:54Z</time></trkpt>
<trkpt lat="25.432142" lon="100.379518">
<time>2014-08-04T20:49:55Z</time></trkpt>
<trkpt lat="25.432262" lon="100.379428">
<time>2014-08-04T20:49:56Z</time></trkpt>
<trkpt lat="25.432372" lon="100.379318">
<time>2014-08-04T20:49:57Z</time></trkpt>
<trkpt lat="25.432492" lon="100.379228">
<time>2014-08-04T20:49:58Z</time></trkpt>
<trkpt lat="25.432623" lon="100.379118">
<time>2014-08-04T20:49:59Z</time></trkpt>
<trkpt lat="25.432753" lon="100.379028">
<time>2014-08-04T20:50:00Z</time></trkpt>
<trkpt lat="25.432873" lon="100.378948">
<time>2014-08-04T20:50:01Z</time></trkpt>
<trkpt lat="25.432983" lon="100.378879">
<time>2014-08-04T20:50:02Z</time></trkpt>
<trkpt lat="25.433083" lon="100.378809">
<time>2014-08-04T20:50:03Z</time></trkpt>
<trkpt lat="25.433183" lon="100.378749">
<time>2014-08-04T20:50:04Z</time></trkpt>
<trkpt lat="25.433303" lon="100.378669">
<time>2014-08-04T20:50:05Z</time></trkpt>
<trkpt lat="25.433423" lon="100.378579">
<time>2014-08-04T20:50:06Z</time></trkpt>
<trkpt lat="25.433543" lon="100.378489">
<time>2014-08-04T20:50:07Z</time></trkpt>
<trkpt lat="25.433683" lon="100.378389">
<time>2014-08-04T20:50:08Z</time></trkpt>
<trkpt lat="25.433824" lon="100.378289">
<time>2014-08-04T20:50:09Z</time></trkpt>
<trkpt lat="25.433974" lon="100.378159">
<time>2014-08-04T20:50:10Z</time></trkpt>
<trkpt lat="25.434124" lon="100.378">
<time>2014-08-04T20:50:11Z</time></trkpt>
<trkpt lat="25.434294" lon="100.37784">
<time>2014-08-04T20:50:12Z</time></trkpt>
<trkpt lat="25.434474" lon="100.37768">
<time>2014-08-04T20:50:13Z</time></trkpt>
<trkpt lat="25.434665" lon="100.3775">
<time>2014-08-04T20:50:14Z</time></trkpt>
<trkpt lat="25.434845" lon="100.37729">
<time>2014-08-04T20:50:15Z</time></trkpt>
<trkpt lat="25.435045" lon="100.377101">
<time>2014-08-04T20:50:16Z</time></trkpt>
<trkpt lat="25.435265" lon="100.376931">
<time>2014-08-04T20:50:17Z</time></trkpt>
<trkpt lat="25.435455" lon="100.376751">
<time>2014-08-04T20:50:18Z</time></trkpt>
<trkpt lat="25.435666" lon="100.376551">
<time>2014-08-04T20:50:19Z</time></trkpt>
<trkpt lat="25.435846" lon="100.376312">
<time>2014-08-04T20:50:20Z</time></trkpt>
<trkpt lat="25.436006" lon="100.376112">
<time>2014-08-04T20:50:21Z</time></trkpt>
<trkpt lat="25.436186" lon="100.375942">
<time>2014-08-04T20:50:22Z</time></trkpt>
<trkpt lat="25.436327" lon="100.375742">
<time>2014-08-04T20:50:23Z</time></trkpt>
<trkpt lat="25.436457" lon="100.375552">
<time>2014-08-04T20:50:24Z</time></trkpt>
<trkpt lat="25.436567" lon="100.375373">
<time>2014-08-04T20:50:25Z</time></trkpt>
<trkpt lat="25.436667" lon="100.375193">
<time>2014-08-04T20:50:26Z</time></trkpt>
<trkpt lat="25.436777" lon="100.375053">
<time>2014-08-04T20:50:27Z</time></trkpt>
<trkpt lat="25.436807" lon="100.375023">
<time>2014-08-04T20:50:28Z</time></trkpt>
<trkpt lat="25.436918" lon="100.374963">
<time>2014-08-04T20:50:29Z</time></trkpt>
<trkpt lat="25.437078" lon="100.374953">
<time>2014-08-04T20:50:30Z</time></trkpt>
<trkpt lat="25.437218" lon="100.375023">
<time>2014-08-04T20:50:31Z</time></trkpt>
<trkpt lat="25.437358" lon="100.375093">
<time>2014-08-04T20:50:32Z</time></trkpt>
<trkpt lat="25.437497" lon="100.375183">
<time>2014-08-04T20:50:33Z</time></trkpt>
<trkpt lat="25.437637" lon="100.375263">
<time>2014-08-04T20:50:34Z</time></trkpt>
<trkpt lat="25.437787" lon="100.375343">
<time>2014-08-04T20:50:35Z</time></trkpt>
<trkpt lat="25.437937" lon="100.375393">
<time>2014-08-04T20:50:36Z</time></trkpt>
<trkpt lat="25.438077" lon="100.375413">
<time>2014-08-04T20:50:37Z</time></trkpt>
<trkpt lat="25.438207" lon="100.375393">
<time>2014-08-04T20:50:38Z</time></trkpt>
<trkpt lat="25.438317" lon="100.375353">
<time>2014-08-04T20:50:39Z</time></trkpt>
<trkpt lat="25.438428" lon="100.375273">
<time>2014-08-04T20:50:40Z</time></trkpt>
<trkpt lat="25.438578" lon="100.375193">
<time>2014-08-04T20:50:41Z</time></trkpt>
<trkpt lat="25.438688" lon="100.375103">
<time>2014-08-04T20:50:42Z</time></trkpt>
<trkpt lat="25.438798" lon="100.375023">
<time>2014-08-04T20:50:43Z</time></trkpt>
<trkpt lat="25.438898" lon="100.374953">
<time>2014-08-04T20:50:44Z</time></trkpt>
<trkpt lat="25.438998" lon="100.374893">
<time>2014-08-04T20:50:45Z</time></trkpt>
<trkpt lat="25.439078" lon="100.374833">
<time>2014-08-04T20:50:46Z</time></trkpt>
<trkpt lat="25.439178" lon="100.374763">
<time>2014-08-04T20:50:47Z</time></trkpt>
<trkpt lat="25.439278" lon="100.374683">
<time>2014-08-04T20:50:48Z</time></trkpt>
<trkpt lat="25.439379" lon="100.374594">
<time>2014-08-04T20:50:49Z</time></trkpt>
<trkpt lat="25.439469" lon="100.374484">
<time>2014-08-04T20:50:50Z</time></trkpt>
<trkpt lat="25.439529" lon="100.374364">
<time>2014-08-04T20:50:51Z</time></trkpt>
<trkpt lat="25.439579" lon="100.374234">
<time>2014-08-04T20:50:52Z</time></trkpt>
<trkpt lat="25.439629" lon="100.374104">
<time>2014-08-04T20:50:53Z</time></trkpt>
<trkpt lat="25.439689" lon="100.373964">
<time>2014-08-04T20:50:54Z</time></trkpt>
<trkpt lat="25.439759" lon="100.373835">
<time>2014-08-04T20:50:55Z</time></trkpt>
<trkpt lat="25.43984" lon="100.373695">
<time>2014-08-04T20:50:56Z</time></trkpt>
<trkpt lat="25.43993" lon="100.373525">
<time>2014-08-04T20:50:57Z</time></trkpt>
<trkpt lat="25.44004" lon="100.373415">
<time>2014-08-04T20:50:58Z</time></trkpt>
<trkpt lat="25.44018" lon="100.373315">
<time>2014-08-04T20:50:59Z</time></trkpt>
<trkpt lat="25.44033" lon="100.373165">
<time>2014-08-04T20:51:00Z</time></trkpt>
<trkpt lat="25.44047" lon="100.373056">
<time>2014-08-04T20:51:01Z</time></trkpt>
<trkpt lat="25.440631" lon="100.372936">
<time>2014-08-04T20:51:02Z</time></trkpt>
<trkpt lat="25.440741" lon="100.372826">
<time>2014-08-04T20:51:03Z</time></trkpt>
<trkpt lat="25.440841" lon="100.372696">
<time>2014-08-04T20:51:04Z</time></trkpt>
<trkpt lat="25.440931" lon="100.372606">
<time>2014-08-04T20:51:05Z</time></trkpt>
<trkpt lat="25.441031" lon="100.372506">
<time>2014-08-04T20:51:06Z</time></trkpt>
<trkpt lat="25.441151" lon="100.372426">
<time>2014-08-04T20:51:07Z</time></trkpt>
<trkpt lat="25.441261" lon="100.372337">
<time>2014-08-04T20:51:08Z</time></trkpt>
<trkpt lat="25.441352" lon="100.372237">
<time>2014-08-04T20:51:09Z</time></trkpt>
<trkpt lat="25.441432" lon="100.372147">
<time>2014-08-04T20:51:10Z</time></trkpt>
<trkpt lat="25.441492" lon="100.372057">
<time>2014-08-04T20:51:11Z</time></trkpt>
<trkpt lat="25.441552" lon="100.371977">
<time>2014-08-04T20:51:12Z</time></trkpt>
<trkpt lat="25.441632" lon="100.371897">
<time>2014-08-04T20:51:13Z</time></trkpt>
<trkpt lat="25.441722" lon="100.371787">
<time>2014-08-04T20:51:14Z</time></trkpt>
<trkpt lat="25.441822" lon="100.371677">
<time>2014-08-04T20:51:15Z</time></trkpt>
<trkpt lat="25.441922" lon="100.371568">
<time>2014-08-04T20:51:16Z</time></trkpt>
<trkpt lat="25.441963" lon="100.371448">
<time>2014-08-04T20:51:17Z</time></trkpt>
<trkpt lat="25.441953" lon="100.371328">
<time>2014-08-04T20:51:18Z</time></trkpt>
<trkpt lat="25.441943" lon="100.371208">
<time>2014-08-04T20:51:19Z</time></trkpt>
<trkpt lat="25.441853" lon="100.371078">
<time>2014-08-04T20:51:20Z</time></trkpt>
<trkpt lat="25.441703" lon="100.371018">
<time>2014-08-04T20:51:21Z</time></trkpt>
<trkpt lat="25.441553" lon="100.371018">
<time>2014-08-04T20:51:22Z</time></trkpt>
<trkpt lat="25.441383" lon="100.371038">
<time>2014-08-04T20:51:23Z</time></trkpt>
<trkpt lat="25.441293" lon="100.371048">
<time>2014-08-04T20:51:24Z</time></trkpt>
<trkpt lat="25.441133" lon="100.371028">
<time>2014-08-04T20:51:25Z</time></trkpt>
<trkpt lat="25.440993" lon="100.371018">
<time>2014-08-04T20:51:26Z</time></trkpt>
<trkpt lat="25.440843" lon="100.371018">
<time>2014-08-04T20:51:27Z</time></trkpt>
<trkpt lat="25.440723" lon="100.371008">
<time>2014-08-04T20:51:28Z</time></trkpt>
<trkpt lat="25.440593" lon="100.371018">
<time>2014-08-04T20:51:29Z</time></trkpt>
<trkpt lat="25.440453" lon="100.370998">
<time>2014-08-04T20:51:30Z</time></trkpt>
<trkpt lat="25.440323" lon="100.370988">
<time>2014-08-04T20:51:31Z</time></trkpt>
<trkpt lat="25.440193" lon="100.370968">
<time>2014-08-04T20:51:32Z</time></trkpt>
<trkpt lat="25.440063" lon="100.370919">
<time>2014-08-04T20:51:33Z</time></trkpt>
<trkpt lat="25.439923" lon="100.370859">
<time>2014-08-04T20:51:34Z</time></trkpt>
<trkpt lat="25.439803" lon="100.370829">
<time>2014-08-04T20:51:35Z</time></trkpt>
<trkpt lat="25.439663" lon="100.370769">
<time>2014-08-04T20:51:36Z</time></trkpt>
<trkpt lat="25.439513" lon="100.370719">
<time>2014-08-04T20:51:37Z</time></trkpt>
<trkpt lat="25.439403" lon="100.370649">
<time>2014-08-04T20:51:38Z</time></trkpt>
<trkpt lat="25.439243" lon="100.370559">
<time>2014-08-04T20:51:39Z</time></trkpt>
<trkpt lat="25.439093" lon="100.370459">
<time>2014-08-04T20:51:40Z</time></trkpt>
<trkpt lat="25.438943" lon="100.370379">
<time>2014-08-04T20:51:41Z</time></trkpt>
<trkpt lat="25.438803" lon="100.370329">
<time>2014-08-04T20:51:42Z</time></trkpt>
<trkpt lat="25.438663" lon="100.37024">
<time>2014-08-04T20:51:43Z</time></trkpt>
<trkpt lat="25.438543" lon="100.37018">
<time>2014-08-04T20:51:44Z</time></trkpt>
<trkpt lat="25.438443" lon="100.37012">
<time>2014-08-04T20:51:45Z</time></trkpt>
<trkpt lat="25.438333" lon="100.37007">
<time>2014-08-04T20:51:46Z</time></trkpt>
<trkpt lat="25.438233" lon="100.37001">
<time>2014-08-04T20:51:47Z</time></trkpt>
<trkpt lat="25.438123" lon="100.36996">
<time>2014-08-04T20:51:48Z</time></trkpt>
<trkpt lat="25.438013" lon="100.36992">
<time>2014-08-04T20:51:49Z</time></trkpt>
<trkpt lat="25.437914" lon="100.36986">
<time>2014-08-04T20:51:50Z</time></trkpt>
<trkpt lat="25.437804" lon="100.36979">
<time>2014-08-04T20:51:51Z</time></trkpt>
<trkpt lat="25.437704" lon="100.36969">
<time>2014-08-04T20:51:52Z</time></trkpt>
<trkpt lat="25.437614" lon="100.369561">
<time>2014-08-04T20:51:53Z</time></trkpt>
<trkpt lat="25.437524" lon="100.369431">
<time>2014-08-04T20:51:54Z</time></trkpt>
<trkpt lat="25.437424" lon="100.369281">
<time>2014-08-04T20:51:55Z</time></trkpt>
<trkpt lat="25.437324" lon="100.369141">
<time>2014-08-04T20:51:56Z</time></trkpt>
<trkpt lat="25.437224" lon="100.369001">
<time>2014-08-04T20:51:57Z</time></trkpt>
<trkpt lat="25.437165" lon="100.368842">
<time>2014-08-04T20:51:58Z</time></trkpt>
<trkpt lat="25.437145" lon="100.368672">
<time>2014-08-04T20:51:59Z</time></trkpt>
<trkpt lat="25.437175" lon="100.368502">
<time>2014-08-04T20:52:00Z</time></trkpt>
<trkpt lat="25.437215" lon="100.368372">
<time>2014-08-04T20:52:01Z</time></trkpt>
<trkpt lat="25.437285" lon="100.368223">
<time>2014-08-04T20:52:02Z</time></trkpt>
<trkpt lat="25.437366" lon="100.368073">
<time>2014-08-04T20:52:03Z</time></trkpt>
<trkpt lat="25.437456" lon="100.367943">
<time>2014-08-04T20:52:04Z</time></trkpt>
<trkpt lat="25.437556" lon="100.367803">
<time>2014-08-04T20:52:05Z</time></trkpt>
<trkpt lat="25.437646" lon="100.367663">
<time>2014-08-04T20:52:06Z</time></trkpt>
<trkpt lat="25.437706" lon="100.367524">
<time>2014-08-04T20:52:07Z</time></trkpt>
<trkpt lat="25.437727" lon="100.367354">
<time>2014-08-04T20:52:08Z</time></trkpt>
<trkpt lat="25.437687" lon="100.367174">
<time>2014-08-04T20:52:09Z</time></trkpt>
<trkpt lat="25.437627" lon="100.367004">
<time>2014-08-04T20:52:10Z</time></trkpt>
<trkpt lat="25.437567" lon="100.366835">
<time>2014-08-04T20:52:11Z</time></trkpt>
<trkpt lat="25.437537" lon="100.366665">
<time>2014-08-04T20:52:12Z</time></trkpt>
<trkpt lat="25.437558" lon="100.366575">
<time>2014-08-04T20:52:13Z</time></trkpt>
<trkpt lat="25.437568" lon="100.366495">
<time>2014-08-04T20:52:14Z</time></trkpt>
<trkpt lat="25.437658" lon="100.366325">
<time>2014-08-04T20:52:15Z</time></trkpt>
<trkpt lat="25.437768" lon="100.366196">
<time>2014-08-04T20:52:16Z</time></trkpt>
<trkpt lat="25.437888" lon="100.366086">
<time>2014-08-04T20:52:17Z</time></trkpt>
<trkpt lat="25.438018" lon="100.365976">
<time>2014-08-04T20:52:18Z</time></trkpt>
<trkpt lat="25.438139" lon="100.365876">
<time>2014-08-04T20:52:19Z</time></trkpt>
<trkpt lat="25.438239" lon="100.365776">
<time>2014-08-04T20:52:20Z</time></trkpt>
<trkpt lat="25.438339" lon="100.365677">
<time>2014-08-04T20:52:21Z</time></trkpt>
<trkpt lat="25.438459" lon="100.365587">
<time>2014-08-04T20:52:22Z</time></trkpt>
<trkpt lat="25.438579" lon="100.365507">
<time>2014-08-04T20:52:23Z</time></trkpt>
<trkpt lat="25.438699" lon="100.365467">
<time>2014-08-04T20:52:24Z</time></trkpt>
<trkpt lat="25.438829" lon="100.365447">
<time>2014-08-04T20:52:25Z</time></trkpt>
<trkpt lat="25.438969" lon="100.365437">
<time>2014-08-04T20:52:26Z</time></trkpt>
<trkpt lat="25.439089" lon="100.365437">
<time>2014-08-04T20:52:27Z</time></trkpt>
<trkpt lat="25.439189" lon="100.365437">
<time>2014-08-04T20:52:28Z</time></trkpt>
<trkpt lat="25.43931" lon="100.365417">
<time>2014-08-04T20:52:29Z</time></trkpt>
<trkpt lat="25.43943" lon="100.365357">
<time>2014-08-04T20:52:30Z</time></trkpt>
<trkpt lat="25.43955" lon="100.365297">
<time>2014-08-04T20:52:31Z</time></trkpt>
<trkpt lat="25.43969" lon="100.365197">
<time>2014-08-04T20:52:32Z</time></trkpt>
<trkpt lat="25.43981" lon="100.365117">
<time>2014-08-04T20:52:33Z</time></trkpt>
<trkpt lat="25.43995" lon="100.365018">
<time>2014-08-04T20:52:34Z</time></trkpt>
<trkpt lat="25.44009" lon="100.364928">
<time>2014-08-04T20:52:35Z</time></trkpt>
<trkpt lat="25.440221" lon="100.364818">
<time>2014-08-04T20:52:36Z</time></trkpt>
<trkpt lat="25.440331" lon="100.364748">
<time>2014-08-04T20:52:37Z</time></trkpt>
<trkpt lat="25.440421" lon="100.364638">
<time>2014-08-04T20:52:38Z</time></trkpt>
<trkpt lat="25.440501" lon="100.364518">
<time>2014-08-04T20:52:39Z</time></trkpt>
<trkpt lat="25.440591" lon="100.364408">
<time>2014-08-04T20:52:40Z</time></trkpt>
<trkpt lat="25.440661" lon="100.364279">
<time>2014-08-04T20:52:41Z</time></trkpt>
<trkpt lat="25.440752" lon="100.364179">
<time>2014-08-04T20:52:42Z</time></trkpt>
<trkpt lat="25.440852" lon="100.364079">
<time>2014-08-04T20:52:43Z</time></trkpt>
<trkpt lat="25.440982" lon="100.364009">
<time>2014-08-04T20:52:44Z</time></trkpt>
<trkpt lat="25.441142" lon="100.363899">
<time>2014-08-04T20:52:45Z</time></trkpt>
<trkpt lat="25.441292" lon="100.363809">
<time>2014-08-04T20:52:46Z</time></trkpt>
<trkpt lat="25.441432" lon="100.36372">
<time>2014-08-04T20:52:47Z</time></trkpt>
<trkpt lat="25.441592" lon="100.36364">
<time>2014-08-04T20:52:48Z</time></trkpt>
<trkpt lat="25.441743" lon="100.36352">
<time>2014-08-04T20:52:49Z</time></trkpt>
<trkpt lat="25.441893" lon="100.36338">
<time>2014-08-04T20:52:50Z</time></trkpt>
<trkpt lat="25.442043" lon="100.36325">
<time>2014-08-04T20:52:51Z</time></trkpt>
<trkpt lat="25.442183" lon="100.363131">
<time>2014-08-04T20:52:52Z</time></trkpt>
<trkpt lat="25.442304" lon="100.362991">
<time>2014-08-04T20:52:53Z</time></trkpt>
<trkpt lat="25.442444" lon="100.362871">
<time>2014-08-04T20:52:54Z</time></trkpt>
<trkpt lat="25.442624" lon="100.362741">
<time>2014-08-04T20:52:55Z</time></trkpt>
<trkpt lat="25.442804" lon="100.362621">
<time>2014-08-04T20:52:56Z</time></trkpt>
<trkpt lat="25.442974" lon="100.362502">
<time>2014-08-04T20:52:57Z</time></trkpt>
<trkpt lat="25.443215" lon="100.362412">
<time>2014-08-04T20:52:58Z</time></trkpt>
<trkpt lat="25.443355" lon="100.362382">
<time>2014-08-04T20:52:59Z</time></trkpt>
<trkpt lat="25.443485" lon="100.362342">
<time>2014-08-04T20:53:00Z</time></trkpt>
<trkpt lat="25.443615" lon="100.362312">
<time>2014-08-04T20:53:01Z</time></trkpt>
<trkpt lat="25.443755" lon="100.362262">
<time>2014-08-04T20:53:02Z</time></trkpt>
<trkpt lat="25.443905" lon="100.362252">
<time>2014-08-04T20:53:03Z</time></trkpt>
<trkpt lat="25.444065" lon="100.362222">
<time>2014-08-04T20:53:04Z</time></trkpt>
<trkpt lat="25.444195" lon="100.362222">
<time>2014-08-04T20:53:05Z</time></trkpt>
<trkpt lat="25.444295" lon="100.362252">
<time>2014-08-04T20:53:06Z</time></trkpt>
<trkpt lat="25.444425" lon="100.362272">
<time>2014-08-04T20:53:07Z</time></trkpt>
<trkpt lat="25.444545" lon="100.362282">
<time>2014-08-04T20:53:08Z</time></trkpt>
<trkpt lat="25.444665" lon="100.362282">
<time>2014-08-04T20:53:09Z</time></trkpt>
<trkpt lat="25.444775" lon="100.362282">
<time>2014-08-04T20:53:10Z</time></trkpt>
<trkpt lat="25.444875" lon="100.362282">
<time>2014-08-04T20:53:11Z</time></trkpt>
<trkpt lat="25.445025" lon="100.362282">
<time>2014-08-04T20:53:12Z</time></trkpt>
<trkpt lat="25.445175" lon="100.362232">
<time>2014-08-04T20:53:13Z</time></trkpt>
<trkpt lat="25.445295" lon="100.362212">
<time>2014-08-04T20:53:14Z</time></trkpt>
<trkpt lat="25.445395" lon="100.362202">
<time>2014-08-04T20:53:15Z</time></trkpt>
<trkpt lat="25.445495" lon="100.362212">
<time>2014-08-04T20:53:16Z</time></trkpt>
<trkpt lat="25.445605" lon="100.362222">
<time>2014-08-04T20:53:17Z</time></trkpt>
<trkpt lat="25.445725" lon="100.362252">
<time>2014-08-04T20:53:18Z</time></trkpt>
<trkpt lat="25.445845" lon="100.362282">
<time>2014-08-04T20:53:19Z</time></trkpt>
<trkpt lat="25.445965" lon="100.362282">
<time>2014-08-04T20:53:20Z</time></trkpt>
<trkpt lat="25.446106" lon="100.362272">
<time>2014-08-04T20:53:21Z</time></trkpt>
<trkpt lat="25.446236" lon="100.362212">
<time>2014-08-04T20:53:22Z</time></trkpt>
<trkpt lat="25.446356" lon="100.362122">
<time>2014-08-04T20:53:23Z</time></trkpt>
<trkpt lat="25.446466" lon="100.362032">
<time>2014-08-04T20:53:24Z</time></trkpt>
<trkpt lat="25.446586" lon="100.361962">
<time>2014-08-04T20:53:25Z</time></trkpt>
<trkpt lat="25.446686" lon="100.361893">
<time>2014-08-04T20:53:26Z</time></trkpt>
<trkpt lat="25.446786" lon="100.361813">
<time>2014-08-04T20:53:27Z</time></trkpt>
<trkpt lat="25.446886" lon="100.361733">
<time>2014-08-04T20:53:28Z</time></trkpt>
<trkpt lat="25.446967" lon="100.361653">
<time>2014-08-04T20:53:29Z</time></trkpt>
<trkpt lat="25.447077" lon="100.361583">
<time>2014-08-04T20:53:30Z</time></trkpt>
<trkpt lat="25.447147" lon="100.361533">
<time>2014-08-04T20:53:31Z</time></trkpt>
<trkpt lat="25.447257" lon="100.361473">
<time>2014-08-04T20:53:32Z</time></trkpt>
<trkpt lat="25.447367" lon="100.361423">
<time>2014-08-04T20:53:33Z</time></trkpt>
<trkpt lat="25.447487" lon="100.361343">
<time>2014-08-04T20:53:34Z</time></trkpt>
<trkpt lat="25.447597" lon="100.361284">
<time>2014-08-04T20:53:35Z</time></trkpt>
<trkpt lat="25.447707" lon="100.361224">
<time>2014-08-04T20:53:36Z</time></trkpt>
<trkpt lat="25.447858" lon="100.361154">
<time>2014-08-04T20:53:37Z</time></trkpt>
<trkpt lat="25.447948" lon="100.361124">
<time>2014-08-04T20:53:38Z</time></trkpt>
<trkpt lat="25.448038" lon="100.361084">
<time>2014-08-04T20:53:39Z</time></trkpt>
<trkpt lat="25.448138" lon="100.361054">
<time>2014-08-04T20:53:40Z</time></trkpt>
<trkpt lat="25.448228" lon="100.361014">
<time>2014-08-04T20:53:41Z</time></trkpt>
<trkpt lat="25.448318" lon="100.360984">
<time>2014-08-04T20:53:42Z</time></trkpt>
<trkpt lat="25.448408" lon="100.360954">
<time>2014-08-04T20:53:43Z</time></trkpt>
<trkpt lat="25.448498" lon="100.360914">
<time>2014-08-04T20:53:44Z</time></trkpt>
<trkpt lat="25.448608" lon="100.360854">
<time>2014-08-04T20:53:45Z</time></trkpt>
<trkpt lat="25.448768" lon="100.360764">
<time>2014-08-04T20:53:46Z</time></trkpt>
<trkpt lat="25.448858" lon="100.360734">
<time>2014-08-04T20:53:47Z</time></trkpt>
<trkpt lat="25.449019" lon="100.360655">
<time>2014-08-04T20:53:48Z</time></trkpt>
<trkpt lat="25.449169" lon="100.360565">
<time>2014-08-04T20:53:49Z</time></trkpt>
<trkpt lat="25.449309" lon="100.360505">
<time>2014-08-04T20:53:50Z</time></trkpt>
<trkpt lat="25.449469" lon="100.360435">
<time>2014-08-04T20:53:51Z</time></trkpt>
<trkpt lat="25.449629" lon="100.360335">
<time>2014-08-04T20:53:52Z</time></trkpt>
<trkpt lat="25.449719" lon="100.360275">
<time>2014-08-04T20:53:53Z</time></trkpt>
<trkpt lat="25.449799" lon="100.360215">
<time>2014-08-04T20:53:54Z</time></trkpt>
<trkpt lat="25.44988" lon="100.360155">
<time>2014-08-04T20:53:55Z</time></trkpt>
<trkpt lat="25.45001" lon="100.360056">
<time>2014-08-04T20:53:56Z</time></trkpt>
<trkpt lat="25.45017" lon="100.359936">
<time>2014-08-04T20:53:57Z</time></trkpt>
<trkpt lat="25.45026" lon="100.359896">
<time>2014-08-04T20:53:58Z</time></trkpt>
<trkpt lat="25.45035" lon="100.359856">
<time>2014-08-04T20:53:59Z</time></trkpt>
<trkpt lat="25.45044" lon="100.359816">
<time>2014-08-04T20:54:00Z</time></trkpt>
<trkpt lat="25.45053" lon="100.359776">
<time>2014-08-04T20:54:01Z</time></trkpt>
<trkpt lat="25.45061" lon="100.359746">
<time>2014-08-04T20:54:02Z</time></trkpt>
<trkpt lat="25.4507" lon="100.359706">
<time>2014-08-04T20:54:03Z</time></trkpt>
<trkpt lat="25.450791" lon="100.359666">
<time>2014-08-04T20:54:04Z</time></trkpt>
<trkpt lat="25.450871" lon="100.359636">
<time>2014-08-04T20:54:05Z</time></trkpt>
<trkpt lat="25.451031" lon="100.359537">
<time>2014-08-04T20:54:06Z</time></trkpt>
<trkpt lat="25.451191" lon="100.359477">
<time>2014-08-04T20:54:07Z</time></trkpt>
<trkpt lat="25.451331" lon="100.359417">
<time>2014-08-04T20:54:08Z</time></trkpt>
<trkpt lat="25.451441" lon="100.359377">
<time>2014-08-04T20:54:09Z</time></trkpt>
<trkpt lat="25.451551" lon="100.359317">
<time>2014-08-04T20:54:10Z</time></trkpt>
<trkpt lat="25.451651" lon="100.359257">
<time>2014-08-04T20:54:11Z</time></trkpt>
<trkpt lat="25.451771" lon="100.359177">
<time>2014-08-04T20:54:12Z</time></trkpt>
<trkpt lat="25.451852" lon="100.359117">
<time>2014-08-04T20:54:13Z</time></trkpt>
<trkpt lat="25.451962" lon="100.359047">
<time>2014-08-04T20:54:14Z</time></trkpt>
<trkpt lat="25.452072" lon="100.358958">
<time>2014-08-04T20:54:15Z</time></trkpt>
<trkpt lat="25.452192" lon="100.358868">
<time>2014-08-04T20:54:16Z</time></trkpt>
<trkpt lat="25.452312" lon="100.358788">
<time>2014-08-04T20:54:17Z</time></trkpt>
<trkpt lat="25.452432" lon="100.358718">
<time>2014-08-04T20:54:18Z</time></trkpt>
<trkpt lat="25.452542" lon="100.358658">
<time>2014-08-04T20:54:19Z</time></trkpt>
<trkpt lat="25.452663" lon="100.358598">
<time>2014-08-04T20:54:20Z</time></trkpt>
<trkpt lat="25.452803" lon="100.358548">
<time>2014-08-04T20:54:21Z</time></trkpt>
<trkpt lat="25.452953" lon="100.358508">
<time>2014-08-04T20:54:22Z</time></trkpt>
<trkpt lat="25.453123" lon="100.358468">
<time>2014-08-04T20:54:23Z</time></trkpt>
<trkpt lat="25.453283" lon="100.358428">
<time>2014-08-04T20:54:24Z</time></trkpt>
<trkpt lat="25.453433" lon="100.358359">
<time>2014-08-04T20:54:25Z</time></trkpt>
<trkpt lat="25.453583" lon="100.358249">
<time>2014-08-04T20:54:26Z</time></trkpt>
<trkpt lat="25.453724" lon="100.358109">
<time>2014-08-04T20:54:27Z</time></trkpt>
<trkpt lat="25.453914" lon="100.357949">
<time>2014-08-04T20:54:28Z</time></trkpt>
<trkpt lat="25.454084" lon="100.35778">
<time>2014-08-04T20:54:29Z</time></trkpt>
<trkpt lat="25.454264" lon="100.35763">
<time>2014-08-04T20:54:30Z</time></trkpt>
<trkpt lat="25.454515" lon="100.3575">
<time>2014-08-04T20:54:31Z</time></trkpt>
<trkpt lat="25.454705" lon="100.3574">
<time>2014-08-04T20:54:32Z</time></trkpt>
<trkpt lat="25.454935" lon="100.35735">
<time>2014-08-04T20:54:33Z</time></trkpt>
<trkpt lat="25.455195" lon="100.357251">
<time>2014-08-04T20:54:34Z</time></trkpt>
<trkpt lat="25.455406" lon="100.357171">
<time>2014-08-04T20:54:35Z</time></trkpt>
<trkpt lat="25.455616" lon="100.357081">
<time>2014-08-04T20:54:36Z</time></trkpt>
<trkpt lat="25.455796" lon="100.356971">
<time>2014-08-04T20:54:37Z</time></trkpt>
<trkpt lat="25.455956" lon="100.356851">
<time>2014-08-04T20:54:38Z</time></trkpt>
<trkpt lat="25.456146" lon="100.356781">
<time>2014-08-04T20:54:39Z</time></trkpt>
<trkpt lat="25.456286" lon="100.356721">
<time>2014-08-04T20:54:40Z</time></trkpt>
<trkpt lat="25.456387" lon="100.356682">
<time>2014-08-04T20:54:41Z</time></trkpt>
<trkpt lat="25.456477" lon="100.356642">
<time>2014-08-04T20:54:42Z</time></trkpt>
<trkpt lat="25.456587" lon="100.356562">
<time>2014-08-04T20:54:43Z</time></trkpt>
<trkpt lat="25.456677" lon="100.356502">
<time>2014-08-04T20:54:44Z</time></trkpt>
<trkpt lat="25.456767" lon="100.356402">
<time>2014-08-04T20:54:45Z</time></trkpt>
<trkpt lat="25.456867" lon="100.356272">
<time>2014-08-04T20:54:46Z</time></trkpt>
<trkpt lat="25.456968" lon="100.356123">
<time>2014-08-04T20:54:47Z</time></trkpt>
<trkpt lat="25.457038" lon="100.355943">
<time>2014-08-04T20:54:48Z</time></trkpt>
<trkpt lat="25.457128" lon="100.355773">
<time>2014-08-04T20:54:49Z</time></trkpt>
<trkpt lat="25.457238" lon="100.355614">
<time>2014-08-04T20:54:50Z</time></trkpt>
<trkpt lat="25.457379" lon="100.355484">
<time>2014-08-04T20:54:51Z</time></trkpt>
<trkpt lat="25.457499" lon="100.355404">
<time>2014-08-04T20:54:52Z</time></trkpt>
<trkpt lat="25.457649" lon="100.355294">
<time>2014-08-04T20:54:53Z</time></trkpt>
<trkpt lat="25.457759" lon="100.355224">
<time>2014-08-04T20:54:54Z</time></trkpt>
<trkpt lat="25.457899" lon="100.355164">
<time>2014-08-04T20:54:55Z</time></trkpt>
<trkpt lat="25.458059" lon="100.355104">
<time>2014-08-04T20:54:56Z</time></trkpt>
<trkpt lat="25.45818" lon="100.355084">
<time>2014-08-04T20:54:57Z</time></trkpt>
<trkpt lat="25.45833" lon="100.355094">
<time>2014-08-04T20:54:58Z</time></trkpt>
<trkpt lat="25.45848" lon="100.355124">
<time>2014-08-04T20:54:59Z</time></trkpt>
<trkpt lat="25.45865" lon="100.355164">
<time>2014-08-04T20:55:00Z</time></trkpt>
<trkpt lat="25.45879" lon="100.355184">
<time>2014-08-04T20:55:01Z</time></trkpt>
<trkpt lat="25.45895" lon="100.355174">
<time>2014-08-04T20:55:02Z</time></trkpt>
<trkpt lat="25.45916" lon="100.355154">
<time>2014-08-04T20:55:03Z</time></trkpt>
<trkpt lat="25.45937" lon="100.355094">
<time>2014-08-04T20:55:04Z</time></trkpt>
<trkpt lat="25.45961" lon="100.354955">
<time>2014-08-04T20:55:05Z</time></trkpt>
<trkpt lat="25.45979" lon="100.354865">
<time>2014-08-04T20:55:06Z</time></trkpt>
<trkpt lat="25.45998" lon="100.354815">
<time>2014-08-04T20:55:07Z</time></trkpt>
<trkpt lat="25.46017" lon="100.354815">
<time>2014-08-04T20:55:08Z</time></trkpt>
<trkpt lat="25.460351" lon="100.354815">
<time>2014-08-04T20:55:09Z</time></trkpt>
<trkpt lat="25.460541" lon="100.354815">
<time>2014-08-04T20:55:10Z</time></trkpt>
<trkpt lat="25.460711" lon="100.354785">
<time>2014-08-04T20:55:11Z</time></trkpt>
<trkpt lat="25.460881" lon="100.354725">
<time>2014-08-04T20:55:12Z</time></trkpt>
<trkpt lat="25.461081" lon="100.354665">
<time>2014-08-04T20:55:13Z</time></trkpt>
<trkpt lat="25.461281" lon="100.354585">
<time>2014-08-04T20:55:14Z</time></trkpt>
<trkpt lat="25.461491" lon="100.354515">
<time>2014-08-04T20:55:15Z</time></trkpt>
<trkpt lat="25.461712" lon="100.354416">
<time>2014-08-04T20:55:16Z</time></trkpt>
<trkpt lat="25.461932" lon="100.354346">
<time>2014-08-04T20:55:17Z</time></trkpt>
<trkpt lat="25.462132" lon="100.354256">
<time>2014-08-04T20:55:18Z</time></trkpt>
<trkpt lat="25.462302" lon="100.354126">
<time>2014-08-04T20:55:19Z</time></trkpt>
<trkpt lat="25.462452" lon="100.353976">
<time>2014-08-04T20:55:20Z</time></trkpt>
<trkpt lat="25.462603" lon="100.353807">
<time>2014-08-04T20:55:21Z</time></trkpt>
<trkpt lat="25.462753" lon="100.353647">
<time>2014-08-04T20:55:22Z</time></trkpt>
<trkpt lat="25.462903" lon="100.353507">
<time>2014-08-04T20:55:23Z</time></trkpt>
<trkpt lat="25.463064" lon="100.353408">
<time>2014-08-04T20:55:24Z</time></trkpt>
<trkpt lat="25.463244" lon="100.353328">
<time>2014-08-04T20:55:25Z</time></trkpt>
<trkpt lat="25.463434" lon="100.353268">
<time>2014-08-04T20:55:26Z</time></trkpt>
<trkpt lat="25.463614" lon="100.353218">
<time>2014-08-04T20:55:27Z</time></trkpt>
<trkpt lat="25.463794" lon="100.353158">
<time>2014-08-04T20:55:28Z</time></trkpt>
<trkpt lat="25.463984" lon="100.353098">
<time>2014-08-04T20:55:29Z</time></trkpt>
<trkpt lat="25.464204" lon="100.353058">
<time>2014-08-04T20:55:30Z</time></trkpt>
<trkpt lat="25.464445" lon="100.353018">
<time>2014-08-04T20:55:31Z</time></trkpt>
<trkpt lat="25.464645" lon="100.353028">
<time>2014-08-04T20:55:32Z</time></trkpt>
<trkpt lat="25.464855" lon="100.353028">
<time>2014-08-04T20:55:33Z</time></trkpt>
<trkpt lat="25.465075" lon="100.353058">
<time>2014-08-04T20:55:34Z</time></trkpt>
<trkpt lat="25.465295" lon="100.353088">
<time>2014-08-04T20:55:35Z</time></trkpt>
<trkpt lat="25.465515" lon="100.353098">
<time>2014-08-04T20:55:36Z</time></trkpt>
<trkpt lat="25.465745" lon="100.353078">
<time>2014-08-04T20:55:37Z</time></trkpt>
<trkpt lat="25.465975" lon="100.353028">
<time>2014-08-04T20:55:38Z</time></trkpt>
<trkpt lat="25.466205" lon="100.352968">
<time>2014-08-04T20:55:39Z</time></trkpt>
<trkpt lat="25.466425" lon="100.352898">
<time>2014-08-04T20:55:40Z</time></trkpt>
<trkpt lat="25.466645" lon="100.352809">
<time>2014-08-04T20:55:41Z</time></trkpt>
<trkpt lat="25.466856" lon="100.352779">
<time>2014-08-04T20:55:42Z</time></trkpt>
<trkpt lat="25.467056" lon="100.352789">
<time>2014-08-04T20:55:43Z</time></trkpt>
<trkpt lat="25.467256" lon="100.352829">
<time>2014-08-04T20:55:44Z</time></trkpt>
<trkpt lat="25.467456" lon="100.352839">
<time>2014-08-04T20:55:45Z</time></trkpt>
<trkpt lat="25.467636" lon="100.352789">
<time>2014-08-04T20:55:46Z</time></trkpt>
<trkpt lat="25.467796" lon="100.352679">
<time>2014-08-04T20:55:47Z</time></trkpt>
<trkpt lat="25.467946" lon="100.352539">
<time>2014-08-04T20:55:48Z</time></trkpt>
<trkpt lat="25.468087" lon="100.352389">
<time>2014-08-04T20:55:49Z</time></trkpt>
<trkpt lat="25.468237" lon="100.35224">
<time>2014-08-04T20:55:50Z</time></trkpt>
<trkpt lat="25.468387" lon="100.35207">
<time>2014-08-04T20:55:51Z</time></trkpt>
<trkpt lat="25.468527" lon="100.35192">
<time>2014-08-04T20:55:52Z</time></trkpt>
<trkpt lat="25.468668" lon="100.351791">
<time>2014-08-04T20:55:53Z</time></trkpt>
<trkpt lat="25.468828" lon="100.351671">
<time>2014-08-04T20:55:54Z</time></trkpt>
<trkpt lat="25.468998" lon="100.351571">
<time>2014-08-04T20:55:55Z</time></trkpt>
<trkpt lat="25.469188" lon="100.351491">
<time>2014-08-04T20:55:56Z</time></trkpt>
<trkpt lat="25.469369" lon="100.351441">
<time>2014-08-04T20:55:57Z</time></trkpt>
<trkpt lat="25.469549" lon="100.351411">
<time>2014-08-04T20:55:58Z</time></trkpt>
<trkpt lat="25.469719" lon="100.351371">
<time>2014-08-04T20:55:59Z</time></trkpt>
<trkpt lat="25.469869" lon="100.351311">
<time>2014-08-04T20:56:00Z</time></trkpt>
<trkpt lat="25.470009" lon="100.351252">
<time>2014-08-04T20:56:01Z</time></trkpt>
<trkpt lat="25.470149" lon="100.351182">
<time>2014-08-04T20:56:02Z</time></trkpt>
<trkpt lat="25.470299" lon="100.351112">
<time>2014-08-04T20:56:03Z</time></trkpt>
<trkpt lat="25.47045" lon="100.351012">
<time>2014-08-04T20:56:04Z</time></trkpt>
<trkpt lat="25.4706" lon="100.350872">
<time>2014-08-04T20:56:05Z</time></trkpt>
<trkpt lat="25.47075" lon="100.350723">
<time>2014-08-04T20:56:06Z</time></trkpt>
<trkpt lat="25.4709" lon="100.350553">
<time>2014-08-04T20:56:07Z</time></trkpt>
<trkpt lat="25.471061" lon="100.350373">
<time>2014-08-04T20:56:08Z</time></trkpt>
<trkpt lat="25.471231" lon="100.350214">
<time>2014-08-04T20:56:09Z</time></trkpt>
<trkpt lat="25.471411" lon="100.350044">
<time>2014-08-04T20:56:10Z</time></trkpt>
<trkpt lat="25.471582" lon="100.349884">
<time>2014-08-04T20:56:11Z</time></trkpt>
<trkpt lat="25.471762" lon="100.349744">
<time>2014-08-04T20:56:12Z</time></trkpt>
<trkpt lat="25.471922" lon="100.349625">
<time>2014-08-04T20:56:13Z</time></trkpt>
<trkpt lat="25.472063" lon="100.349475">
<time>2014-08-04T20:56:14Z</time></trkpt>
<trkpt lat="25.472173" lon="100.349305">
<time>2014-08-04T20:56:15Z</time></trkpt>
<trkpt lat="25.472253" lon="100.349106">
<time>2014-08-04T20:56:16Z</time></trkpt>
<trkpt lat="25.472314" lon="100.348916">
<time>2014-08-04T20:56:17Z</time></trkpt>
<trkpt lat="25.472364" lon="100.348717">
<time>2014-08-04T20:56:18Z</time></trkpt>
<trkpt lat="25.472414" lon="100.348507">
<time>2014-08-04T20:56:19Z</time></trkpt>
<trkpt lat="25.472445" lon="100.348297">
<time>2014-08-04T20:56:20Z</time></trkpt>
<trkpt lat="25.472455" lon="100.348068">
<time>2014-08-04T20:56:21Z</time></trkpt>
<trkpt lat="25.472486" lon="100.347858">
<time>2014-08-04T20:56:22Z</time></trkpt>
<trkpt lat="25.472546" lon="100.347659">
<time>2014-08-04T20:56:23Z</time></trkpt>
<trkpt lat="25.472646" lon="100.347499">
<time>2014-08-04T20:56:24Z</time></trkpt>
<trkpt lat="25.472786" lon="100.347349">
<time>2014-08-04T20:56:25Z</time></trkpt>
<trkpt lat="25.472947" lon="100.34721">
<time>2014-08-04T20:56:26Z</time></trkpt>
<trkpt lat="25.473107" lon="100.34708">
<time>2014-08-04T20:56:27Z</time></trkpt>
<trkpt lat="25.473247" lon="100.34697">
<time>2014-08-04T20:56:28Z</time></trkpt>
<trkpt lat="25.473387" lon="100.34687">
<time>2014-08-04T20:56:29Z</time></trkpt>
<trkpt lat="25.473558" lon="100.34679">
<time>2014-08-04T20:56:30Z</time></trkpt>
<trkpt lat="25.473738" lon="100.346721">
<time>2014-08-04T20:56:31Z</time></trkpt>
<trkpt lat="25.473918" lon="100.346651">
<time>2014-08-04T20:56:32Z</time></trkpt>
<trkpt lat="25.474078" lon="100.346581">
<time>2014-08-04T20:56:33Z</time></trkpt>
<trkpt lat="25.474208" lon="100.346491">
<time>2014-08-04T20:56:34Z</time></trkpt>
<trkpt lat="25.474279" lon="100.346351">
<time>2014-08-04T20:56:35Z</time></trkpt>
<trkpt lat="25.474299" lon="100.346182">
<time>2014-08-04T20:56:36Z</time></trkpt>
<trkpt lat="25.474299" lon="100.345992">
<time>2014-08-04T20:56:37Z</time></trkpt>
<trkpt lat="25.47432" lon="100.345792">
<time>2014-08-04T20:56:38Z</time></trkpt>
<trkpt lat="25.47435" lon="100.345583">
<time>2014-08-04T20:56:39Z</time></trkpt>
<trkpt lat="25.4744" lon="100.345383">
<time>2014-08-04T20:56:40Z</time></trkpt>
<trkpt lat="25.474441" lon="100.345164">
<time>2014-08-04T20:56:41Z</time></trkpt>
<trkpt lat="25.474511" lon="100.344934">
<time>2014-08-04T20:56:42Z</time></trkpt>
<trkpt lat="25.474572" lon="100.344725">
<time>2014-08-04T20:56:43Z</time></trkpt>
<trkpt lat="25.474642" lon="100.344525">
<time>2014-08-04T20:56:44Z</time></trkpt>
<trkpt lat="25.474762" lon="100.344355">
<time>2014-08-04T20:56:45Z</time></trkpt>
<trkpt lat="25.474893" lon="100.344236">
<time>2014-08-04T20:56:46Z</time></trkpt>
<trkpt lat="25.475013" lon="100.344136">
<time>2014-08-04T20:56:47Z</time></trkpt>
<trkpt lat="25.475123" lon="100.344066">
<time>2014-08-04T20:56:48Z</time></trkpt>
<trkpt lat="25.475283" lon="100.343996">
<time>2014-08-04T20:56:49Z</time></trkpt>
<trkpt lat="25.475413" lon="100.343946">
<time>2014-08-04T20:56:50Z</time></trkpt>
<trkpt lat="25.475553" lon="100.343896">
<time>2014-08-04T20:56:51Z</time></trkpt>
<trkpt lat="25.475694" lon="100.343797">
<time>2014-08-04T20:56:52Z</time></trkpt>
<trkpt lat="25.475844" lon="100.343727">
<time>2014-08-04T20:56:53Z</time></trkpt>
<trkpt lat="25.476004" lon="100.343647">
<time>2014-08-04T20:56:54Z</time></trkpt>
<trkpt lat="25.476134" lon="100.343547">
<time>2014-08-04T20:56:55Z</time></trkpt>
<trkpt lat="25.476294" lon="100.343437">
<time>2014-08-04T20:56:56Z</time></trkpt>
<trkpt lat="25.476445" lon="100.343347">
<time>2014-08-04T20:56:57Z</time></trkpt>
<trkpt lat="25.476585" lon="100.343268">
<time>2014-08-04T20:56:58Z</time></trkpt>
<trkpt lat="25.476715" lon="100.343218">
<time>2014-08-04T20:56:59Z</time></trkpt>
<trkpt lat="25.476825" lon="100.343178">
<time>2014-08-04T20:57:00Z</time></trkpt>
<trkpt lat="25.476935" lon="100.343148">
<time>2014-08-04T20:57:01Z</time></trkpt>
<trkpt lat="25.477045" lon="100.343128">
<time>2014-08-04T20:57:02Z</time></trkpt>
<trkpt lat="25.477195" lon="100.343118">
<time>2014-08-04T20:57:03Z</time></trkpt>
<trkpt lat="25.477365" lon="100.343098">
<time>2014-08-04T20:57:04Z</time></trkpt>
<trkpt lat="25.477545" lon="100.343088">
<time>2014-08-04T20:57:05Z</time></trkpt>
<trkpt lat="25.477715" lon="100.343078">
<time>2014-08-04T20:57:06Z</time></trkpt>
<trkpt lat="25.477896" lon="100.343068">
<time>2014-08-04T20:57:07Z</time></trkpt>
<trkpt lat="25.478046" lon="100.343058">
<time>2014-08-04T20:57:08Z</time></trkpt>
<trkpt lat="25.478236" lon="100.342988">
<time>2014-08-04T20:57:09Z</time></trkpt>
<trkpt lat="25.478356" lon="100.342858">
<time>2014-08-04T20:57:10Z</time></trkpt>
<trkpt lat="25.478396" lon="100.342729">
<time>2014-08-04T20:57:11Z</time></trkpt>
<trkpt lat="25.478457" lon="100.342559">
<time>2014-08-04T20:57:12Z</time></trkpt>
<trkpt lat="25.478477" lon="100.342349">
<time>2014-08-04T20:57:13Z</time></trkpt>
<trkpt lat="25.478497" lon="100.34219">
<time>2014-08-04T20:57:14Z</time></trkpt>
<trkpt lat="25.478508" lon="100.34203">
<time>2014-08-04T20:57:15Z</time></trkpt>
<trkpt lat="25.478548" lon="100.341871">
<time>2014-08-04T20:57:16Z</time></trkpt>
<trkpt lat="25.478608" lon="100.341721">
<time>2014-08-04T20:57:17Z</time></trkpt>
<trkpt lat="25.478678" lon="100.341591">
<time>2014-08-04T20:57:18Z</time></trkpt>
<trkpt lat="25.478769" lon="100.341461">
<time>2014-08-04T20:57:19Z</time></trkpt>
<trkpt lat="25.478949" lon="100.341292">
<time>2014-08-04T20:57:20Z</time></trkpt>
<trkpt lat="25.479079" lon="100.341172">
<time>2014-08-04T20:57:21Z</time></trkpt>
<trkpt lat="25.47922" lon="100.341042">
<time>2014-08-04T20:57:22Z</time></trkpt>
<trkpt lat="25.4793" lon="100.340972">
<time>2014-08-04T20:57:23Z</time></trkpt>
<trkpt lat="25.47944" lon="100.340843">
<time>2014-08-04T20:57:24Z</time></trkpt>
<trkpt lat="25.47958" lon="100.340743">
<time>2014-08-04T20:57:25Z</time></trkpt>
<trkpt lat="25.47968" lon="100.340673">
<time>2014-08-04T20:57:26Z</time></trkpt>
<trkpt lat="25.479761" lon="100.340613">
<time>2014-08-04T20:57:27Z</time></trkpt>
<trkpt lat="25.479841" lon="100.340533">
<time>2014-08-04T20:57:28Z</time></trkpt>
<trkpt lat="25.479921" lon="100.340453">
<time>2014-08-04T20:57:29Z</time></trkpt>
<trkpt lat="25.480011" lon="100.340384">
<time>2014-08-04T20:57:30Z</time></trkpt>
<trkpt lat="25.480111" lon="100.340324">
<time>2014-08-04T20:57:31Z</time></trkpt>
<trkpt lat="25.480241" lon="100.340264">
<time>2014-08-04T20:57:32Z</time></trkpt>
<trkpt lat="25.480371" lon="100.340234">
<time>2014-08-04T20:57:33Z</time></trkpt>
<trkpt lat="25.480512" lon="100.340224">
<time>2014-08-04T20:57:34Z</time></trkpt>
<trkpt lat="25.480642" lon="100.340234">
<time>2014-08-04T20:57:35Z</time></trkpt>
<trkpt lat="25.480752" lon="100.340254">
<time>2014-08-04T20:57:36Z</time></trkpt>
<trkpt lat="25.480932" lon="100.340284">
<time>2014-08-04T20:57:37Z</time></trkpt>
<trkpt lat="25.481082" lon="100.340284">
<time>2014-08-04T20:57:38Z</time></trkpt>
<trkpt lat="25.481242" lon="100.340274">
<time>2014-08-04T20:57:39Z</time></trkpt>
<trkpt lat="25.481392" lon="100.340274">
<time>2014-08-04T20:57:40Z</time></trkpt>
<trkpt lat="25.481572" lon="100.340264">
<time>2014-08-04T20:57:41Z</time></trkpt>
<trkpt lat="25.481732" lon="100.340264">
<time>2014-08-04T20:57:42Z</time></trkpt>
<trkpt lat="25.481892" lon="100.340254">
<time>2014-08-04T20:57:43Z</time></trkpt>
<trkpt lat="25.482052" lon="100.340234">
<time>2014-08-04T20:57:44Z</time></trkpt>
<trkpt lat="25.482212" lon="100.340204">
<time>2014-08-04T20:57:45Z</time></trkpt>
<trkpt lat="25.482362" lon="100.340144">
<time>2014-08-04T20:57:46Z</time></trkpt>
<trkpt lat="25.482492" lon="100.340064">
<time>2014-08-04T20:57:47Z</time></trkpt>
<trkpt lat="25.482613" lon="100.339935">
<time>2014-08-04T20:57:48Z</time></trkpt>
<trkpt lat="25.482743" lon="100.339815">
<time>2014-08-04T20:57:49Z</time></trkpt>
<trkpt lat="25.482873" lon="100.339685">
<time>2014-08-04T20:57:50Z</time></trkpt>
<trkpt lat="25.483013" lon="100.339555">
<time>2014-08-04T20:57:51Z</time></trkpt>
<trkpt lat="25.483154" lon="100.339406">
<time>2014-08-04T20:57:52Z</time></trkpt>
<trkpt lat="25.483304" lon="100.339266">
<time>2014-08-04T20:57:53Z</time></trkpt>
<trkpt lat="25.483444" lon="100.339136">
<time>2014-08-04T20:57:54Z</time></trkpt>
<trkpt lat="25.483605" lon="100.339026">
<time>2014-08-04T20:57:55Z</time></trkpt>
<trkpt lat="25.483785" lon="100.338947">
<time>2014-08-04T20:57:56Z</time></trkpt>
<trkpt lat="25.483965" lon="100.338907">
<time>2014-08-04T20:57:57Z</time></trkpt>
<trkpt lat="25.484135" lon="100.338867">
<time>2014-08-04T20:57:58Z</time></trkpt>
<trkpt lat="25.484295" lon="100.338837">
<time>2014-08-04T20:57:59Z</time></trkpt>
<trkpt lat="25.484455" lon="100.338807">
<time>2014-08-04T20:58:00Z</time></trkpt>
<trkpt lat="25.484595" lon="100.338777">
<time>2014-08-04T20:58:01Z</time></trkpt>
<trkpt lat="25.484736" lon="100.338737">
<time>2014-08-04T20:58:02Z</time></trkpt>
<trkpt lat="25.484866" lon="100.338707">
<time>2014-08-04T20:58:03Z</time></trkpt>
<trkpt lat="25.484986" lon="100.338677">
<time>2014-08-04T20:58:04Z</time></trkpt>
<trkpt lat="25.485096" lon="100.338667">
<time>2014-08-04T20:58:05Z</time></trkpt>
<trkpt lat="25.485186" lon="100.338627">
<time>2014-08-04T20:58:06Z</time></trkpt>
<trkpt lat="25.485266" lon="100.338567">
<time>2014-08-04T20:58:07Z</time></trkpt>
<trkpt lat="25.485326" lon="100.338458">
<time>2014-08-04T20:58:08Z</time></trkpt>
<trkpt lat="25.485356" lon="100.338338">
<time>2014-08-04T20:58:09Z</time></trkpt>
<trkpt lat="25.485357" lon="100.338208">
<time>2014-08-04T20:58:10Z</time></trkpt>
<trkpt lat="25.485347" lon="100.338058">
<time>2014-08-04T20:58:11Z</time></trkpt>
<trkpt lat="25.485327" lon="100.337899">
<time>2014-08-04T20:58:12Z</time></trkpt>
<trkpt lat="25.485318" lon="100.337739">
<time>2014-08-04T20:58:13Z</time></trkpt>
<trkpt lat="25.485298" lon="100.337589">
<time>2014-08-04T20:58:14Z</time></trkpt>
<trkpt lat="25.485278" lon="100.33744">
<time>2014-08-04T20:58:15Z</time></trkpt>
<trkpt lat="25.485258" lon="100.33728">
<time>2014-08-04T20:58:16Z</time></trkpt>
<trkpt lat="25.485269" lon="100.337111">
<time>2014-08-04T20:58:17Z</time></trkpt>
<trkpt lat="25.485259" lon="100.336941">
<time>2014-08-04T20:58:18Z</time></trkpt>
<trkpt lat="25.485239" lon="100.336761">
<time>2014-08-04T20:58:19Z</time></trkpt>
<trkpt lat="25.48523" lon="100.336582">
<time>2014-08-04T20:58:20Z</time></trkpt>
<trkpt lat="25.48522" lon="100.336412">
<time>2014-08-04T20:58:21Z</time></trkpt>
<trkpt lat="25.48525" lon="100.336272">
<time>2014-08-04T20:58:22Z</time></trkpt>
<trkpt lat="25.485331" lon="100.336163">
<time>2014-08-04T20:58:23Z</time></trkpt>
<trkpt lat="25.485461" lon="100.336053">
<time>2014-08-04T20:58:24Z</time></trkpt>
<trkpt lat="25.485591" lon="100.335963">
<time>2014-08-04T20:58:25Z</time></trkpt>
<trkpt lat="25.485721" lon="100.335933">
<time>2014-08-04T20:58:26Z</time></trkpt>
<trkpt lat="25.485861" lon="100.335943">
<time>2014-08-04T20:58:27Z</time></trkpt>
<trkpt lat="25.486021" lon="100.335953">
<time>2014-08-04T20:58:28Z</time></trkpt>
<trkpt lat="25.486161" lon="100.335983">
<time>2014-08-04T20:58:29Z</time></trkpt>
<trkpt lat="25.486301" lon="100.335973">
<time>2014-08-04T20:58:30Z</time></trkpt>
<trkpt lat="25.486461" lon="100.335943">
<time>2014-08-04T20:58:31Z</time></trkpt>
<trkpt lat="25.486641" lon="100.335903">
<time>2014-08-04T20:58:32Z</time></trkpt>
<trkpt lat="25.486792" lon="100.335853">
<time>2014-08-04T20:58:33Z</time></trkpt>
<trkpt lat="25.486982" lon="100.335803">
<time>2014-08-04T20:58:34Z</time></trkpt>
<trkpt lat="25.487132" lon="100.335753">
<time>2014-08-04T20:58:35Z</time></trkpt>
<trkpt lat="25.487252" lon="100.335694">
<time>2014-08-04T20:58:36Z</time></trkpt>
<trkpt lat="25.487352" lon="100.335604">
<time>2014-08-04T20:58:37Z</time></trkpt>
<trkpt lat="25.487442" lon="100.335474">
<time>2014-08-04T20:58:38Z</time></trkpt>
<trkpt lat="25.487543" lon="100.335384">
<time>2014-08-04T20:58:39Z</time></trkpt>
<trkpt lat="25.487683" lon="100.335284">
<time>2014-08-04T20:58:40Z</time></trkpt>
<trkpt lat="25.487823" lon="100.335215">
<time>2014-08-04T20:58:41Z</time></trkpt>
<trkpt lat="25.488013" lon="100.335175">
<time>2014-08-04T20:58:42Z</time></trkpt>
<trkpt lat="25.488133" lon="100.335205">
<time>2014-08-04T20:58:43Z</time></trkpt>
<trkpt lat="25.488253" lon="100.335274">
<time>2014-08-04T20:58:44Z</time></trkpt>
<trkpt lat="25.488313" lon="100.335344">
<time>2014-08-04T20:58:45Z</time></trkpt>
<trkpt lat="25.488373" lon="100.335504">
<time>2014-08-04T20:58:46Z</time></trkpt>
<trkpt lat="25.488412" lon="100.335664">
<time>2014-08-04T20:58:47Z</time></trkpt>
<trkpt lat="25.488492" lon="100.335833">
<time>2014-08-04T20:58:48Z</time></trkpt>
<trkpt lat="25.488562" lon="100.335923">
<time>2014-08-04T20:58:49Z</time></trkpt>
<trkpt lat="25.488632" lon="100.336013">
<time>2014-08-04T20:58:50Z</time></trkpt>
<trkpt lat="25.488732" lon="100.336083">
<time>2014-08-04T20:58:51Z</time></trkpt>
<trkpt lat="25.488842" lon="100.336133">
<time>2014-08-04T20:58:52Z</time></trkpt>
<trkpt lat="25.488952" lon="100.336143">
<time>2014-08-04T20:58:53Z</time></trkpt>
<trkpt lat="25.489052" lon="100.336113">
<time>2014-08-04T20:58:54Z</time></trkpt>
<trkpt lat="25.489162" lon="100.336063">
<time>2014-08-04T20:58:55Z</time></trkpt>
<trkpt lat="25.489272" lon="100.336003">
<time>2014-08-04T20:58:56Z</time></trkpt>
<trkpt lat="25.489402" lon="100.335913">
<time>2014-08-04T20:58:57Z</time></trkpt>
<trkpt lat="25.489532" lon="100.335843">
<time>2014-08-04T20:58:58Z</time></trkpt>
<trkpt lat="25.489673" lon="100.335753">
<time>2014-08-04T20:58:59Z</time></trkpt>
<trkpt lat="25.489803" lon="100.335644">
<time>2014-08-04T20:59:00Z</time></trkpt>
<trkpt lat="25.489933" lon="100.335504">
<time>2014-08-04T20:59:01Z</time></trkpt>
<trkpt lat="25.490053" lon="100.335374">
<time>2014-08-04T20:59:02Z</time></trkpt>
<trkpt lat="25.490154" lon="100.335234">
<time>2014-08-04T20:59:03Z</time></trkpt>
<trkpt lat="25.490264" lon="100.335085">
<time>2014-08-04T20:59:04Z</time></trkpt>
<trkpt lat="25.490374" lon="100.334955">
<time>2014-08-04T20:59:05Z</time></trkpt>
<trkpt lat="25.490475" lon="100.334825">
<time>2014-08-04T20:59:06Z</time></trkpt>
<trkpt lat="25.490545" lon="100.334686">
<time>2014-08-04T20:59:07Z</time></trkpt>
<trkpt lat="25.490575" lon="100.334526">
<time>2014-08-04T20:59:08Z</time></trkpt>
<trkpt lat="25.490576" lon="100.334346">
<time>2014-08-04T20:59:09Z</time></trkpt>
<trkpt lat="25.490576" lon="100.334207">
<time>2014-08-04T20:59:10Z</time></trkpt>
<trkpt lat="25.490596" lon="100.334037">
<time>2014-08-04T20:59:11Z</time></trkpt>
<trkpt lat="25.490646" lon="100.333887">
<time>2014-08-04T20:59:12Z</time></trkpt>
<trkpt lat="25.490707" lon="100.333718">
<time>2014-08-04T20:59:13Z</time></trkpt>
<trkpt lat="25.490797" lon="100.333578">
<time>2014-08-04T20:59:14Z</time></trkpt>
<trkpt lat="25.490917" lon="100.333458">
<time>2014-08-04T20:59:15Z</time></trkpt>
<trkpt lat="25.491048" lon="100.333329">
<time>2014-08-04T20:59:16Z</time></trkpt>
<trkpt lat="25.491188" lon="100.333229">
<time>2014-08-04T20:59:17Z</time></trkpt>
<trkpt lat="25.491308" lon="100.333079">
<time>2014-08-04T20:59:18Z</time></trkpt>
<trkpt lat="25.491408" lon="100.33291">
<time>2014-08-04T20:59:19Z</time></trkpt>
<trkpt lat="25.491519" lon="100.3328">
<time>2014-08-04T20:59:20Z</time></trkpt>
<trkpt lat="25.491659" lon="100.33269">
<time>2014-08-04T20:59:21Z</time></trkpt>
<trkpt lat="25.491769" lon="100.3326">
<time>2014-08-04T20:59:22Z</time></trkpt>
<trkpt lat="25.491909" lon="100.3325">
<time>2014-08-04T20:59:23Z</time></trkpt>
<trkpt lat="25.49205" lon="100.332411">
<time>2014-08-04T20:59:24Z</time></trkpt>
<trkpt lat="25.49219" lon="100.332321">
<time>2014-08-04T20:59:25Z</time></trkpt>
<trkpt lat="25.49232" lon="100.332231">
<time>2014-08-04T20:59:26Z</time></trkpt>
<trkpt lat="25.49242" lon="100.332131">
<time>2014-08-04T20:59:27Z</time></trkpt>
<trkpt lat="25.492511" lon="100.332021">
<time>2014-08-04T20:59:28Z</time></trkpt>
<trkpt lat="25.492591" lon="100.331912">
<time>2014-08-04T20:59:29Z</time></trkpt>
<trkpt lat="25.492681" lon="100.331832">
<time>2014-08-04T20:59:30Z</time></trkpt>
<trkpt lat="25.492771" lon="100.331772">
<time>2014-08-04T20:59:31Z</time></trkpt>
<trkpt lat="25.492881" lon="100.331742">
<time>2014-08-04T20:59:32Z</time></trkpt>
<trkpt lat="25.492991" lon="100.331732">
<time>2014-08-04T20:59:33Z</time></trkpt>
<trkpt lat="25.493111" lon="100.331752">
<time>2014-08-04T20:59:34Z</time></trkpt>
<trkpt lat="25.493241" lon="100.331772">
<time>2014-08-04T20:59:35Z</time></trkpt>
<trkpt lat="25.493371" lon="100.331762">
<time>2014-08-04T20:59:36Z</time></trkpt>
<trkpt lat="25.493491" lon="100.331682">
<time>2014-08-04T20:59:37Z</time></trkpt>
<trkpt lat="25.493602" lon="100.331582">
<time>2014-08-04T20:59:38Z</time></trkpt>
<trkpt lat="25.493692" lon="100.331413">
<time>2014-08-04T20:59:39Z</time></trkpt>
<trkpt lat="25.493782" lon="100.331253">
<time>2014-08-04T20:59:40Z</time></trkpt>
<trkpt lat="25.493873" lon="100.331073">
<time>2014-08-04T20:59:41Z</time></trkpt>
<trkpt lat="25.493973" lon="100.330914">
<time>2014-08-04T20:59:42Z</time></trkpt>
<trkpt lat="25.494083" lon="100.330774">
<time>2014-08-04T20:59:43Z</time></trkpt>
<trkpt lat="25.494214" lon="100.330654">
<time>2014-08-04T20:59:44Z</time></trkpt>
<trkpt lat="25.494344" lon="100.330545">
<time>2014-08-04T20:59:45Z</time></trkpt>
<trkpt lat="25.494474" lon="100.330445">
<time>2014-08-04T20:59:46Z</time></trkpt>
<trkpt lat="25.494614" lon="100.330355">
<time>2014-08-04T20:59:47Z</time></trkpt>
<trkpt lat="25.494725" lon="100.330255">
<time>2014-08-04T20:59:48Z</time></trkpt>
<trkpt lat="25.494815" lon="100.330155">
<time>2014-08-04T20:59:49Z</time></trkpt>
<trkpt lat="25.494885" lon="100.330046">
<time>2014-08-04T20:59:50Z</time></trkpt>
<trkpt lat="25.494925" lon="100.329936">
<time>2014-08-04T20:59:51Z</time></trkpt>
<trkpt lat="25.494955" lon="100.329826">
<time>2014-08-04T20:59:52Z</time></trkpt>
<trkpt lat="25.495006" lon="100.329726">
<time>2014-08-04T20:59:53Z</time></trkpt>
<trkpt lat="25.495066" lon="100.329627">
<time>2014-08-04T20:59:54Z</time></trkpt>
<trkpt lat="25.495146" lon="100.329527">
<time>2014-08-04T20:59:55Z</time></trkpt>
<trkpt lat="25.495236" lon="100.329437">
<time>2014-08-04T20:59:56Z</time></trkpt>
<trkpt lat="25.495327" lon="100.329327">
<time>2014-08-04T20:59:57Z</time></trkpt>
<trkpt lat="25.495397" lon="100.329218">
<time>2014-08-04T20:59:58Z</time></trkpt>
<trkpt lat="25.495417" lon="100.329088">
<time>2014-08-04T20:59:59Z</time></trkpt>
<trkpt lat="25.495387" lon="100.328958">
<time>2014-08-04T21:00:00Z</time></trkpt>
<trkpt lat="25.495317" lon="100.328848">
<time>2014-08-04T21:00:01Z</time></trkpt>
<trkpt lat="25.495218" lon="100.328729">
<time>2014-08-04T21:00:02Z</time></trkpt>
<trkpt lat="25.495108" lon="100.328629">
<time>2014-08-04T21:00:03Z</time></trkpt>
<trkpt lat="25.494998" lon="100.328529">
<time>2014-08-04T21:00:04Z</time></trkpt>
<trkpt lat="25.494908" lon="100.328439">
<time>2014-08-04T21:00:05Z</time></trkpt>
<trkpt lat="25.494828" lon="100.328359">
<time>2014-08-04T21:00:06Z</time></trkpt>
<trkpt lat="25.494768" lon="100.32827">
<time>2014-08-04T21:00:07Z</time></trkpt>
<trkpt lat="25.494729" lon="100.32816">
<time>2014-08-04T21:00:08Z</time></trkpt>
<trkpt lat="25.494709" lon="100.32802">
<time>2014-08-04T21:00:09Z</time></trkpt>
<trkpt lat="25.494719" lon="100.32791">
<time>2014-08-04T21:00:10Z</time></trkpt>
<trkpt lat="25.494769" lon="100.327801">
<time>2014-08-04T21:00:11Z</time></trkpt>
<trkpt lat="25.494809" lon="100.327711">
<time>2014-08-04T21:00:12Z</time></trkpt>
<trkpt lat="25.49489" lon="100.327591">
<time>2014-08-04T21:00:13Z</time></trkpt>
<trkpt lat="25.49496" lon="100.327531">
<time>2014-08-04T21:00:14Z</time></trkpt>
<trkpt lat="25.49505" lon="100.327461">
<time>2014-08-04T21:00:15Z</time></trkpt>
<trkpt lat="25.49515" lon="100.327411">
<time>2014-08-04T21:00:16Z</time></trkpt>
<trkpt lat="25.49524" lon="100.327362">
<time>2014-08-04T21:00:17Z</time></trkpt>
<trkpt lat="25.49533" lon="100.327332">
<time>2014-08-04T21:00:18Z</time></trkpt>
<trkpt lat="25.49543" lon="100.327282">
<time>2014-08-04T21:00:19Z</time></trkpt>
<trkpt lat="25.49554" lon="100.327292">
<time>2014-08-04T21:00:20Z</time></trkpt>
<trkpt lat="25.49564" lon="100.327312">
<time>2014-08-04T21:00:21Z</time></trkpt>
<trkpt lat="25.49572" lon="100.327401">
<time>2014-08-04T21:00:22Z</time></trkpt>
<trkpt lat="25.49582" lon="100.327531">
<time>2014-08-04T21:00:23Z</time></trkpt>
<trkpt lat="25.49594" lon="100.327641">
<time>2014-08-04T21:00:24Z</time></trkpt>
<trkpt lat="25.49605" lon="100.327771">
<time>2014-08-04T21:00:25Z</time></trkpt>
<trkpt lat="25.49616" lon="100.32789">
<time>2014-08-04T21:00:26Z</time></trkpt>
<trkpt lat="25.496269" lon="100.32797">
<time>2014-08-04T21:00:27Z</time></trkpt>
<trkpt lat="25.496439" lon="100.32797">
<time>2014-08-04T21:00:28Z</time></trkpt>
<trkpt lat="25.4966" lon="100.32791">
<time>2014-08-04T21:00:29Z</time></trkpt>
<trkpt lat="25.49674" lon="100.327831">
<time>2014-08-04T21:00:30Z</time></trkpt>
<trkpt lat="25.49685" lon="100.327721">
<time>2014-08-04T21:00:31Z</time></trkpt>
<trkpt lat="25.49697" lon="100.327591">
<time>2014-08-04T21:00:32Z</time></trkpt>
<trkpt lat="25.497081" lon="100.327501">
<time>2014-08-04T21:00:33Z</time></trkpt>
<trkpt lat="25.497191" lon="100.327431">
<time>2014-08-04T21:00:34Z</time></trkpt>
<trkpt lat="25.497301" lon="100.327372">
<time>2014-08-04T21:00:35Z</time></trkpt>
<trkpt lat="25.497451" lon="100.327312">
<time>2014-08-04T21:00:36Z</time></trkpt>
<trkpt lat="25.497601" lon="100.327262">
<time>2014-08-04T21:00:37Z</time></trkpt>
<trkpt lat="25.497771" lon="100.327212">
<time>2014-08-04T21:00:38Z</time></trkpt>
<trkpt lat="25.497941" lon="100.327172">
<time>2014-08-04T21:00:39Z</time></trkpt>
<trkpt lat="25.498112" lon="100.327132">
<time>2014-08-04T21:00:40Z</time></trkpt>
<trkpt lat="25.498302" lon="100.327092">
<time>2014-08-04T21:00:41Z</time></trkpt>
<trkpt lat="25.498442" lon="100.327042">
<time>2014-08-04T21:00:42Z</time></trkpt>
<trkpt lat="25.498632" lon="100.327002">
<time>2014-08-04T21:00:43Z</time></trkpt>
<trkpt lat="25.498772" lon="100.326962">
<time>2014-08-04T21:00:44Z</time></trkpt>
<trkpt lat="25.498902" lon="100.326942">
<time>2014-08-04T21:00:45Z</time></trkpt>
<trkpt lat="25.499032" lon="100.326912">
<time>2014-08-04T21:00:46Z</time></trkpt>
<trkpt lat="25.499152" lon="100.326912">
<time>2014-08-04T21:00:47Z</time></trkpt>
<trkpt lat="25.499292" lon="100.326912">
<time>2014-08-04T21:00:48Z</time></trkpt>
<trkpt lat="25.499442" lon="100.326912">
<time>2014-08-04T21:00:49Z</time></trkpt>
<trkpt lat="25.499532" lon="100.326912">
<time>2014-08-04T21:00:50Z</time></trkpt>
<trkpt lat="25.499632" lon="100.326922">
<time>2014-08-04T21:00:51Z</time></trkpt>
<trkpt lat="25.499742" lon="100.326922">
<time>2014-08-04T21:00:52Z</time></trkpt>
<trkpt lat="25.499853" lon="100.326932">
<time>2014-08-04T21:00:53Z</time></trkpt>
<trkpt lat="25.499953" lon="100.326942">
<time>2014-08-04T21:00:54Z</time></trkpt>
<trkpt lat="25.500013" lon="100.326942">
<time>2014-08-04T21:00:55Z</time></trkpt>
<trkpt lat="25.500063" lon="100.326942">
<time>2014-08-04T21:00:56Z</time></trkpt>
<trkpt lat="25.500213" lon="100.326932">
<time>2014-08-04T21:00:57Z</time></trkpt>
<trkpt lat="25.500333" lon="100.326942">
<time>2014-08-04T21:00:58Z</time></trkpt>
<trkpt lat="25.500463" lon="100.326942">
<time>2014-08-04T21:00:59Z</time></trkpt>
<trkpt lat="25.500603" lon="100.326942">
<time>2014-08-04T21:01:00Z</time></trkpt>
<trkpt lat="25.500743" lon="100.326942">
<time>2014-08-04T21:01:01Z</time></trkpt>
<trkpt lat="25.500883" lon="100.326952">
<time>2014-08-04T21:01:02Z</time></trkpt>
<trkpt lat="25.501023" lon="100.326982">
<time>2014-08-04T21:01:03Z</time></trkpt>
<trkpt lat="25.501143" lon="100.326972">
<time>2014-08-04T21:01:04Z</time></trkpt>
<trkpt lat="25.501283" lon="100.326972">
<time>2014-08-04T21:01:05Z</time></trkpt>
<trkpt lat="25.501413" lon="100.326982">
<time>2014-08-04T21:01:06Z</time></trkpt>
<trkpt lat="25.501553" lon="100.326992">
<time>2014-08-04T21:01:07Z</time></trkpt>
<trkpt lat="25.501703" lon="100.326992">
<time>2014-08-04T21:01:08Z</time></trkpt>
<trkpt lat="25.501853" lon="100.326992">
<time>2014-08-04T21:01:09Z</time></trkpt>
<trkpt lat="25.501973" lon="100.327022">
<time>2014-08-04T21:01:10Z</time></trkpt>
<trkpt lat="25.502093" lon="100.327022">
<time>2014-08-04T21:01:11Z</time></trkpt>
<trkpt lat="25.502193" lon="100.327022">
<time>2014-08-04T21:01:12Z</time></trkpt>
<trkpt lat="25.502333" lon="100.327032">
<time>2014-08-04T21:01:13Z</time></trkpt>
<trkpt lat="25.502463" lon="100.327052">
<time>2014-08-04T21:01:14Z</time></trkpt>
<trkpt lat="25.502593" lon="100.327072">
<time>2014-08-04T21:01:15Z</time></trkpt>
<trkpt lat="25.502723" lon="100.327082">
<time>2014-08-04T21:01:16Z</time></trkpt>
<trkpt lat="25.502853" lon="100.327082">
<time>2014-08-04T21:01:17Z</time></trkpt>
<trkpt lat="25.502963" lon="100.327072">
<time>2014-08-04T21:01:18Z</time></trkpt>
<trkpt lat="25.503073" lon="100.327052">
<time>2014-08-04T21:01:19Z</time></trkpt>
<trkpt lat="25.503173" lon="100.327032">
<time>2014-08-04T21:01:20Z</time></trkpt>
<trkpt lat="25.503283" lon="100.327012">
<time>2014-08-04T21:01:21Z</time></trkpt>
<trkpt lat="25.503404" lon="100.326972">
<time>2014-08-04T21:01:22Z</time></trkpt>
<trkpt lat="25.503544" lon="100.326942">
<time>2014-08-04T21:01:23Z</time></trkpt>
<trkpt lat="25.503694" lon="100.326922">
<time>2014-08-04T21:01:24Z</time></trkpt>
<trkpt lat="25.503844" lon="100.326912">
<time>2014-08-04T21:01:25Z</time></trkpt>
<trkpt lat="25.503984" lon="100.326922">
<time>2014-08-04T21:01:26Z</time></trkpt>
<trkpt lat="25.504124" lon="100.326952">
<time>2014-08-04T21:01:27Z</time></trkpt>
<trkpt lat="25.504274" lon="100.326982">
<time>2014-08-04T21:01:28Z</time></trkpt>
<trkpt lat="25.504424" lon="100.327022">
<time>2014-08-04T21:01:29Z</time></trkpt>
<trkpt lat="25.504554" lon="100.327052">
<time>2014-08-04T21:01:30Z</time></trkpt>
<trkpt lat="25.504684" lon="100.327092">
<time>2014-08-04T21:01:31Z</time></trkpt>
<trkpt lat="25.504814" lon="100.327112">
<time>2014-08-04T21:01:32Z</time></trkpt>
<trkpt lat="25.504934" lon="100.327152">
<time>2014-08-04T21:01:33Z</time></trkpt>
<trkpt lat="25.505044" lon="100.327172">
<time>2014-08-04T21:01:34Z</time></trkpt>
<trkpt lat="25.505154" lon="100.327182">
<time>2014-08-04T21:01:35Z</time></trkpt>
<trkpt lat="25.505314" lon="100.327212">
<time>2014-08-04T21:01:36Z</time></trkpt>
<trkpt lat="25.505464" lon="100.327242">
<time>2014-08-04T21:01:37Z</time></trkpt>
<trkpt lat="25.505624" lon="100.327272">
<time>2014-08-04T21:01:38Z</time></trkpt>
<trkpt lat="25.505804" lon="100.327311">
<time>2014-08-04T21:01:39Z</time></trkpt>
<trkpt lat="25.505894" lon="100.327321">
<time>2014-08-04T21:01:40Z</time></trkpt>
<trkpt lat="25.505994" lon="100.327341">
<time>2014-08-04T21:01:41Z</time></trkpt>
<trkpt lat="25.506094" lon="100.327351">
<time>2014-08-04T21:01:42Z</time></trkpt>
<trkpt lat="25.506204" lon="100.327371">
<time>2014-08-04T21:01:43Z</time></trkpt>
<trkpt lat="25.506314" lon="100.327401">
<time>2014-08-04T21:01:44Z</time></trkpt>
<trkpt lat="25.506424" lon="100.327411">
<time>2014-08-04T21:01:45Z</time></trkpt>
<trkpt lat="25.506554" lon="100.327441">
<time>2014-08-04T21:01:46Z</time></trkpt>
<trkpt lat="25.506684" lon="100.327451">
<time>2014-08-04T21:01:47Z</time></trkpt>
<trkpt lat="25.506804" lon="100.327461">
<time>2014-08-04T21:01:48Z</time></trkpt>
<trkpt lat="25.506924" lon="100.327471">
<time>2014-08-04T21:01:49Z</time></trkpt>
<trkpt lat="25.507044" lon="100.327471">
<time>2014-08-04T21:01:50Z</time></trkpt>
<trkpt lat="25.507154" lon="100.327501">
<time>2014-08-04T21:01:51Z</time></trkpt>
<trkpt lat="25.507274" lon="100.327531">
<time>2014-08-04T21:01:52Z</time></trkpt>
<trkpt lat="25.507394" lon="100.327561">
<time>2014-08-04T21:01:53Z</time></trkpt>
<trkpt lat="25.507524" lon="100.327581">
<time>2014-08-04T21:01:54Z</time></trkpt>
<trkpt lat="25.507664" lon="100.327611">
<time>2014-08-04T21:01:55Z</time></trkpt>
<trkpt lat="25.507774" lon="100.327641">
<time>2014-08-04T21:01:56Z</time></trkpt>
<trkpt lat="25.507864" lon="100.327671">
<time>2014-08-04T21:01:57Z</time></trkpt>
<trkpt lat="25.507954" lon="100.327691">
<time>2014-08-04T21:01:58Z</time></trkpt>
<trkpt lat="25.508044" lon="100.327711">
<time>2014-08-04T21:01:59Z</time></trkpt>
<trkpt lat="25.508144" lon="100.32772">
<time>2014-08-04T21:02:00Z</time></trkpt>
<trkpt lat="25.508244" lon="100.32773">
<time>2014-08-04T21:02:01Z</time></trkpt>
<trkpt lat="25.508344" lon="100.32776">
<time>2014-08-04T21:02:02Z</time></trkpt>
<trkpt lat="25.508444" lon="100.32778">
<time>2014-08-04T21:02:03Z</time></trkpt>
<trkpt lat="25.508624" lon="100.32783">
<time>2014-08-04T21:02:04Z</time></trkpt>
<trkpt lat="25.508724" lon="100.32785">
<time>2014-08-04T21:02:05Z</time></trkpt>
<trkpt lat="25.508834" lon="100.32788">
<time>2014-08-04T21:02:06Z</time></trkpt>
<trkpt lat="25.508954" lon="100.32792">
<time>2014-08-04T21:02:07Z</time></trkpt>
<trkpt lat="25.509084" lon="100.32796">
<time>2014-08-04T21:02:08Z</time></trkpt>
<trkpt lat="25.509163" lon="100.328">
<time>2014-08-04T21:02:09Z</time></trkpt>
<trkpt lat="25.509263" lon="100.32804">
<time>2014-08-04T21:02:10Z</time></trkpt>
<trkpt lat="25.509363" lon="100.3281">
<time>2014-08-04T21:02:11Z</time></trkpt>
<trkpt lat="25.509493" lon="100.328159">
<time>2014-08-04T21:02:12Z</time></trkpt>
<trkpt lat="25.509643" lon="100.328229">
<time>2014-08-04T21:02:13Z</time></trkpt>
<trkpt lat="25.509773" lon="100.328319">
<time>2014-08-04T21:02:14Z</time></trkpt>
<trkpt lat="25.509953" lon="100.328389">
<time>2014-08-04T21:02:15Z</time></trkpt>
<trkpt lat="25.510143" lon="100.328479">
<time>2014-08-04T21:02:16Z</time></trkpt>
<trkpt lat="25.510343" lon="100.328569">
<time>2014-08-04T21:02:17Z</time></trkpt>
<trkpt lat="25.510563" lon="100.328658">
<time>2014-08-04T21:02:18Z</time></trkpt>
<trkpt lat="25.510793" lon="100.328758">
<time>2014-08-04T21:02:19Z</time></trkpt>
<trkpt lat="25.511032" lon="100.328848">
<time>2014-08-04T21:02:20Z</time></trkpt>
<trkpt lat="25.511232" lon="100.328938">
<time>2014-08-04T21:02:21Z</time></trkpt>
<trkpt lat="25.511472" lon="100.329008">
<time>2014-08-04T21:02:22Z</time></trkpt>
<trkpt lat="25.511672" lon="100.329097">
<time>2014-08-04T21:02:23Z</time></trkpt>
<trkpt lat="25.511852" lon="100.329167">
<time>2014-08-04T21:02:24Z</time></trkpt>
<trkpt lat="25.512022" lon="100.329227">
<time>2014-08-04T21:02:25Z</time></trkpt>
<trkpt lat="25.512172" lon="100.329317">
<time>2014-08-04T21:02:26Z</time></trkpt>
<trkpt lat="25.512342" lon="100.329357">
<time>2014-08-04T21:02:27Z</time></trkpt>
<trkpt lat="25.512502" lon="100.329367">
<time>2014-08-04T21:02:28Z</time></trkpt>
<trkpt lat="25.512702" lon="100.329347">
<time>2014-08-04T21:02:29Z</time></trkpt>
<trkpt lat="25.512932" lon="100.329317">
<time>2014-08-04T21:02:30Z</time></trkpt>
<trkpt lat="25.513222" lon="100.329287">
<time>2014-08-04T21:02:31Z</time></trkpt>
<trkpt lat="25.513452" lon="100.329287">
<time>2014-08-04T21:02:32Z</time></trkpt>
<trkpt lat="25.513703" lon="100.329277">
<time>2014-08-04T21:02:33Z</time></trkpt>
<trkpt lat="25.513933" lon="100.329267">
<time>2014-08-04T21:02:34Z</time></trkpt>
<trkpt lat="25.514223" lon="100.329267">
<time>2014-08-04T21:02:35Z</time></trkpt>
<trkpt lat="25.514473" lon="100.329257">
<time>2014-08-04T21:02:36Z</time></trkpt>
<trkpt lat="25.514713" lon="100.329247">
<time>2014-08-04T21:02:37Z</time></trkpt>
<trkpt lat="25.514903" lon="100.329237">
<time>2014-08-04T21:02:38Z</time></trkpt>
<trkpt lat="25.514953" lon="100.329237">
<time>2014-08-04T21:02:39Z</time></trkpt>
<trkpt lat="25.515193" lon="100.329227">
<time>2014-08-04T21:02:40Z</time></trkpt>
<trkpt lat="25.515423" lon="100.329207">
<time>2014-08-04T21:02:41Z</time></trkpt>
<trkpt lat="25.515663" lon="100.329127">
<time>2014-08-04T21:02:42Z</time></trkpt>
<trkpt lat="25.515914" lon="100.329037">
<time>2014-08-04T21:02:43Z</time></trkpt>
<trkpt lat="25.516184" lon="100.328928">
<time>2014-08-04T21:02:44Z</time></trkpt>
<trkpt lat="25.516464" lon="100.328828">
<time>2014-08-04T21:02:45Z</time></trkpt>
<trkpt lat="25.516755" lon="100.328718">
<time>2014-08-04T21:02:46Z</time></trkpt>
<trkpt lat="25.517055" lon="100.328608">
<time>2014-08-04T21:02:47Z</time></trkpt>
<trkpt lat="25.517355" lon="100.328499">
<time>2014-08-04T21:02:48Z</time></trkpt>
<trkpt lat="25.517646" lon="100.328389">
<time>2014-08-04T21:02:49Z</time></trkpt>
<trkpt lat="25.517926" lon="100.328279">
<time>2014-08-04T21:02:50Z</time></trkpt>
<trkpt lat="25.518186" lon="100.328139">
<time>2014-08-04T21:02:51Z</time></trkpt>
<trkpt lat="25.518427" lon="100.32799">
<time>2014-08-04T21:02:52Z</time></trkpt>
<trkpt lat="25.518627" lon="100.32783">
<time>2014-08-04T21:02:53Z</time></trkpt>
<trkpt lat="25.518827" lon="100.32764">
<time>2014-08-04T21:02:54Z</time></trkpt>
<trkpt lat="25.519058" lon="100.327451">
<time>2014-08-04T21:02:55Z</time></trkpt>
<trkpt lat="25.519288" lon="100.327281">
<time>2014-08-04T21:02:56Z</time></trkpt>
<trkpt lat="25.519539" lon="100.327161">
<time>2014-08-04T21:02:57Z</time></trkpt>
<trkpt lat="25.519819" lon="100.327112">
<time>2014-08-04T21:02:58Z</time></trkpt>
<trkpt lat="25.520099" lon="100.327082">
<time>2014-08-04T21:02:59Z</time></trkpt>
<trkpt lat="25.520379" lon="100.327072">
<time>2014-08-04T21:03:00Z</time></trkpt>
<trkpt lat="25.520659" lon="100.327062">
<time>2014-08-04T21:03:01Z</time></trkpt>
<trkpt lat="25.520939" lon="100.327052">
<time>2014-08-04T21:03:02Z</time></trkpt>
<trkpt lat="25.521219" lon="100.327042">
<time>2014-08-04T21:03:03Z</time></trkpt>
<trkpt lat="25.521499" lon="100.327022">
<time>2014-08-04T21:03:04Z</time></trkpt>
<trkpt lat="25.52178" lon="100.327002">
<time>2014-08-04T21:03:05Z</time></trkpt>
<trkpt lat="25.52195" lon="100.326982">
<time>2014-08-04T21:03:06Z</time></trkpt>
<trkpt lat="25.52215" lon="100.326952">
<time>2014-08-04T21:03:07Z</time></trkpt>
<trkpt lat="25.52231" lon="100.326912">
<time>2014-08-04T21:03:08Z</time></trkpt>
<trkpt lat="25.52249" lon="100.326852">
<time>2014-08-04T21:03:09Z</time></trkpt>
<trkpt lat="25.52275" lon="100.326772">
<time>2014-08-04T21:03:10Z</time></trkpt>
<trkpt lat="25.523011" lon="100.326702">
<time>2014-08-04T21:03:11Z</time></trkpt>
<trkpt lat="25.523261" lon="100.326623">
<time>2014-08-04T21:03:12Z</time></trkpt>
<trkpt lat="25.523491" lon="100.326533">
<time>2014-08-04T21:03:13Z</time></trkpt>
<trkpt lat="25.523721" lon="100.326453">
<time>2014-08-04T21:03:14Z</time></trkpt>
<trkpt lat="25.523932" lon="100.326373">
<time>2014-08-04T21:03:15Z</time></trkpt>
<trkpt lat="25.524152" lon="100.326273">
<time>2014-08-04T21:03:16Z</time></trkpt>
<trkpt lat="25.524362" lon="100.326203">
<time>2014-08-04T21:03:17Z</time></trkpt>
<trkpt lat="25.524632" lon="100.326114">
<time>2014-08-04T21:03:18Z</time></trkpt>
<trkpt lat="25.524872" lon="100.326044">
<time>2014-08-04T21:03:19Z</time></trkpt>
<trkpt lat="25.525103" lon="100.325984">
<time>2014-08-04T21:03:20Z</time></trkpt>
<trkpt lat="25.525363" lon="100.325904">
<time>2014-08-04T21:03:21Z</time></trkpt>
<trkpt lat="25.525623" lon="100.325864">
<time>2014-08-04T21:03:22Z</time></trkpt>
<trkpt lat="25.525843" lon="100.325864">
<time>2014-08-04T21:03:23Z</time></trkpt>
<trkpt lat="25.526053" lon="100.325904">
<time>2014-08-04T21:03:24Z</time></trkpt>
<trkpt lat="25.526273" lon="100.325944">
<time>2014-08-04T21:03:25Z</time></trkpt>
<trkpt lat="25.526523" lon="100.326004">
<time>2014-08-04T21:03:26Z</time></trkpt>
<trkpt lat="25.526953" lon="100.326124">
<time>2014-08-04T21:03:27Z</time></trkpt>
<trkpt lat="25.528563" lon="100.326423">
<time>2014-08-04T21:03:28Z</time></trkpt>
<trkpt lat="25.529743" lon="100.326602">
<time>2014-08-04T21:03:29Z</time></trkpt>
<trkpt lat="25.530233" lon="100.326712">
<time>2014-08-04T21:03:30Z</time></trkpt>
<trkpt lat="25.530943" lon="100.326872">
<time>2014-08-04T21:03:31Z</time></trkpt>
<trkpt lat="25.531063" lon="100.326922">
<time>2014-08-04T21:03:32Z</time></trkpt>
<trkpt lat="25.531623" lon="100.327021">
<time>2014-08-04T21:03:33Z</time></trkpt>
<trkpt lat="25.532173" lon="100.327101">
<time>2014-08-04T21:03:34Z</time></trkpt>
<trkpt lat="25.532313" lon="100.327121">
<time>2014-08-04T21:03:35Z</time></trkpt>
<trkpt lat="25.532753" lon="100.327191">
<time>2014-08-04T21:03:36Z</time></trkpt>
<trkpt lat="25.533043" lon="100.327251">
<time>2014-08-04T21:03:37Z</time></trkpt>
<trkpt lat="25.533403" lon="100.327301">
<time>2014-08-04T21:03:38Z</time></trkpt>
<trkpt lat="25.533793" lon="100.327371">
<time>2014-08-04T21:03:39Z</time></trkpt>
<trkpt lat="25.533953" lon="100.327391">
<time>2014-08-04T21:03:40Z</time></trkpt>
<trkpt lat="25.534213" lon="100.32744">
<time>2014-08-04T21:03:41Z</time></trkpt>
<trkpt lat="25.534393" lon="100.32747">
<time>2014-08-04T21:03:42Z</time></trkpt>
<trkpt lat="25.534763" lon="100.32753">
<time>2014-08-04T21:03:43Z</time></trkpt>
<trkpt lat="25.535223" lon="100.3276">
<time>2014-08-04T21:03:44Z</time></trkpt>
<trkpt lat="25.535473" lon="100.32765">
<time>2014-08-04T21:03:45Z</time></trkpt>
<trkpt lat="25.535473" lon="100.32765">
<time>2014-08-04T21:03:46Z</time></trkpt>
<trkpt lat="25.535503" lon="100.32767">
<time>2014-08-04T21:03:47Z</time></trkpt>
<trkpt lat="25.535513" lon="100.32767">
<time>2014-08-04T21:03:48Z</time></trkpt>
<trkpt lat="25.535843" lon="100.32774">
<time>2014-08-04T21:03:49Z</time></trkpt>
<trkpt lat="25.535983" lon="100.32779">
<time>2014-08-04T21:03:50Z</time></trkpt>
<trkpt lat="25.536123" lon="100.327849">
<time>2014-08-04T21:03:51Z</time></trkpt>
<trkpt lat="25.536323" lon="100.327929">
<time>2014-08-04T21:03:52Z</time></trkpt>
<trkpt lat="25.536453" lon="100.327979">
<time>2014-08-04T21:03:53Z</time></trkpt>
<trkpt lat="25.536503" lon="100.328059">
<time>2014-08-04T21:03:54Z</time></trkpt>
<trkpt lat="25.536863" lon="100.328199">
<time>2014-08-04T21:03:55Z</time></trkpt>
<trkpt lat="25.537292" lon="100.328348">
<time>2014-08-04T21:03:56Z</time></trkpt>
<trkpt lat="25.537742" lon="100.328478">
<time>2014-08-04T21:03:57Z</time></trkpt>
<trkpt lat="25.538052" lon="100.328558">
<time>2014-08-04T21:03:58Z</time></trkpt>
<trkpt lat="25.538772" lon="100.328727">
<time>2014-08-04T21:03:59Z</time></trkpt>
<trkpt lat="25.538812" lon="100.328737">
<time>2014-08-04T21:04:00Z</time></trkpt>
<trkpt lat="25.540362" lon="100.329027">
<time>2014-08-04T21:04:01Z</time></trkpt>
<trkpt lat="25.543443" lon="100.329516">
<time>2014-08-04T21:04:02Z</time></trkpt>
<trkpt lat="25.545393" lon="100.329815">
<time>2014-08-04T21:04:03Z</time></trkpt>
<trkpt lat="25.545543" lon="100.329835">
<time>2014-08-04T21:04:04Z</time></trkpt>
<trkpt lat="25.545753" lon="100.329865">
<time>2014-08-04T21:04:05Z</time></trkpt>
<trkpt lat="25.550564" lon="100.330394">
<time>2014-08-04T21:04:06Z</time></trkpt>
<trkpt lat="25.551994" lon="100.330553">
<time>2014-08-04T21:04:07Z</time></trkpt>
<trkpt lat="25.552514" lon="100.330613">
<time>2014-08-04T21:04:08Z</time></trkpt>
<trkpt lat="25.552984" lon="100.330563">
<time>2014-08-04T21:04:09Z</time></trkpt>
<trkpt lat="25.553304" lon="100.330443">
<time>2014-08-04T21:04:10Z</time></trkpt>
<trkpt lat="25.553855" lon="100.330194">
<time>2014-08-04T21:04:11Z</time></trkpt>
<trkpt lat="25.554015" lon="100.330114">
<time>2014-08-04T21:04:12Z</time></trkpt>
<trkpt lat="25.554025" lon="100.330114">
<time>2014-08-04T21:04:13Z</time></trkpt>
<trkpt lat="25.558181" lon="100.328188">
<time>2014-08-04T21:04:14Z</time></trkpt>
<trkpt lat="25.559192" lon="100.327679">
<time>2014-08-04T21:04:15Z</time></trkpt>
<trkpt lat="25.562276" lon="100.326153">
<time>2014-08-04T21:04:16Z</time></trkpt>
<trkpt lat="25.563187" lon="100.325704">
<time>2014-08-04T21:04:17Z</time></trkpt>
<trkpt lat="25.564028" lon="100.325294">
<time>2014-08-04T21:04:18Z</time></trkpt>
<trkpt lat="25.56502" lon="100.324795">
<time>2014-08-04T21:04:19Z</time></trkpt>
<trkpt lat="25.565721" lon="100.324426">
<time>2014-08-04T21:04:20Z</time></trkpt>
<trkpt lat="25.566201" lon="100.324177">
<time>2014-08-04T21:04:21Z</time></trkpt>
<trkpt lat="25.566432" lon="100.324067">
<time>2014-08-04T21:04:22Z</time></trkpt>
<trkpt lat="25.566492" lon="100.324037">
<time>2014-08-04T21:04:23Z</time></trkpt>
<trkpt lat="25.566592" lon="100.323997">
<time>2014-08-04T21:04:24Z</time></trkpt>
<trkpt lat="25.567293" lon="100.323658">
<time>2014-08-04T21:04:25Z</time></trkpt>
<trkpt lat="25.568495" lon="100.322999">
<time>2014-08-04T21:04:26Z</time></trkpt>
<trkpt lat="25.569406" lon="100.32255">
<time>2014-08-04T21:04:27Z</time></trkpt>
<trkpt lat="25.569586" lon="100.32248">
<time>2014-08-04T21:04:28Z</time></trkpt>
<trkpt lat="25.570527" lon="100.322101">
<time>2014-08-04T21:04:29Z</time></trkpt>
<trkpt lat="25.570527" lon="100.322101">
<time>2014-08-04T21:04:30Z</time></trkpt>
<trkpt lat="25.571158" lon="100.321981">
<time>2014-08-04T21:04:31Z</time></trkpt>
<trkpt lat="25.571748" lon="100.321892">
<time>2014-08-04T21:04:32Z</time></trkpt>
<trkpt lat="25.57556" lon="100.321642">
<time>2014-08-04T21:04:33Z</time></trkpt>
<trkpt lat="25.57573" lon="100.321612">
<time>2014-08-04T21:04:34Z</time></trkpt>
<trkpt lat="25.576181" lon="100.321512">
<time>2014-08-04T21:04:35Z</time></trkpt>
<trkpt lat="25.577122" lon="100.321173">
<time>2014-08-04T21:04:36Z</time></trkpt>
<trkpt lat="25.577722" lon="100.320854">
<time>2014-08-04T21:04:37Z</time></trkpt>
<trkpt lat="25.577903" lon="100.320754">
<time>2014-08-04T21:04:38Z</time></trkpt>
<trkpt lat="25.579435" lon="100.319826">
<time>2014-08-04T21:04:39Z</time></trkpt>
<trkpt lat="25.580076" lon="100.319447">
<time>2014-08-04T21:04:40Z</time></trkpt>
<trkpt lat="25.581929" lon="100.318399">
<time>2014-08-04T21:04:41Z</time></trkpt>
<trkpt lat="25.583161" lon="100.317621">
<time>2014-08-04T21:04:42Z</time></trkpt>
<trkpt lat="25.583351" lon="100.317551">
<time>2014-08-04T21:04:43Z</time></trkpt>
<trkpt lat="25.588058" lon="100.314866">
<time>2014-08-04T21:04:44Z</time></trkpt>
<trkpt lat="25.591613" lon="100.312831">
<time>2014-08-04T21:04:45Z</time></trkpt>
<trkpt lat="25.593967" lon="100.311493">
<time>2014-08-04T21:04:46Z</time></trkpt>
<trkpt lat="25.596971" lon="100.309787">
<time>2014-08-04T21:04:47Z</time></trkpt>
<trkpt lat="25.597071" lon="100.309727">
<time>2014-08-04T21:04:48Z</time></trkpt>
<trkpt lat="25.599955" lon="100.30809">
<time>2014-08-04T21:04:49Z</time></trkpt>
<trkpt lat="25.60283" lon="100.306453">
<time>2014-08-04T21:04:50Z</time></trkpt>
<trkpt lat="25.607376" lon="100.303868">
<time>2014-08-04T21:04:51Z</time></trkpt>
<trkpt lat="25.607576" lon="100.303749">
<time>2014-08-04T21:04:52Z</time></trkpt>
<trkpt lat="25.609049" lon="100.3029">
<time>2014-08-04T21:04:53Z</time></trkpt>
<trkpt lat="25.60999" lon="100.302311">
<time>2014-08-04T21:04:54Z</time></trkpt>
<trkpt lat="25.60999" lon="100.302311">
<time>2014-08-04T21:04:55Z</time></trkpt>
<trkpt lat="25.611063" lon="100.300794">
<time>2014-08-04T21:04:56Z</time></trkpt>
<trkpt lat="25.611394" lon="100.300106">
<time>2014-08-04T21:04:57Z</time></trkpt>
<trkpt lat="25.611646" lon="100.299357">
<time>2014-08-04T21:04:58Z</time></trkpt>
<trkpt lat="25.611837" lon="100.298558">
<time>2014-08-04T21:04:59Z</time></trkpt>
<trkpt lat="25.611908" lon="100.29778">
<time>2014-08-04T21:05:00Z</time></trkpt>
<trkpt lat="25.611909" lon="100.297171">
<time>2014-08-04T21:05:01Z</time></trkpt>
<trkpt lat="25.61192" lon="100.296442">
<time>2014-08-04T21:05:02Z</time></trkpt>
<trkpt lat="25.611913" lon="100.295005">
<time>2014-08-04T21:05:03Z</time></trkpt>
<trkpt lat="25.611894" lon="100.294046">
<time>2014-08-04T21:05:04Z</time></trkpt>
<trkpt lat="25.611894" lon="100.294046">
<time>2014-08-04T21:05:05Z</time></trkpt>
<trkpt lat="25.611875" lon="100.293328">
<time>2014-08-04T21:05:06Z</time></trkpt>
<trkpt lat="25.611856" lon="100.292469">
<time>2014-08-04T21:05:07Z</time></trkpt>
<trkpt lat="25.611758" lon="100.291621">
<time>2014-08-04T21:05:08Z</time></trkpt>
<trkpt lat="25.611509" lon="100.290702">
<time>2014-08-04T21:05:09Z</time></trkpt>
<trkpt lat="25.611369" lon="100.290293">
<time>2014-08-04T21:05:10Z</time></trkpt>
<trkpt lat="25.611309" lon="100.290143">
<time>2014-08-04T21:05:11Z</time></trkpt>
<trkpt lat="25.61109" lon="100.289664">
<time>2014-08-04T21:05:12Z</time></trkpt>
<trkpt lat="25.610811" lon="100.289195">
<time>2014-08-04T21:05:13Z</time></trkpt>
<trkpt lat="25.610511" lon="100.288805">
<time>2014-08-04T21:05:14Z</time></trkpt>
<trkpt lat="25.610051" lon="100.288286">
<time>2014-08-04T21:05:15Z</time></trkpt>
<trkpt lat="25.609072" lon="100.287298">
<time>2014-08-04T21:05:16Z</time></trkpt>
<trkpt lat="25.608703" lon="100.286868">
<time>2014-08-04T21:05:17Z</time></trkpt>
<trkpt lat="25.608233" lon="100.286279">
<time>2014-08-04T21:05:18Z</time></trkpt>
<trkpt lat="25.608044" lon="100.286009">
<time>2014-08-04T21:05:19Z</time></trkpt>
<trkpt lat="25.607874" lon="100.28577">
<time>2014-08-04T21:05:20Z</time></trkpt>
<trkpt lat="25.607604" lon="100.28539">
<time>2014-08-04T21:05:21Z</time></trkpt>
<trkpt lat="25.607434" lon="100.285121">
<time>2014-08-04T21:05:22Z</time></trkpt>
<trkpt lat="25.607275" lon="100.284861">
<time>2014-08-04T21:05:23Z</time></trkpt>
<trkpt lat="25.607005" lon="100.284392">
<time>2014-08-04T21:05:24Z</time></trkpt>
<trkpt lat="25.606835" lon="100.284082">
<time>2014-08-04T21:05:25Z</time></trkpt>
<trkpt lat="25.606666" lon="100.283763">
<time>2014-08-04T21:05:26Z</time></trkpt>
<trkpt lat="25.60473" lon="100.279409">
<time>2014-08-04T21:05:27Z</time></trkpt>
<trkpt lat="25.60466" lon="100.279249">
<time>2014-08-04T21:05:28Z</time></trkpt>
<trkpt lat="25.604021" lon="100.277861">
<time>2014-08-04T21:05:29Z</time></trkpt>
<trkpt lat="25.603712" lon="100.277181">
<time>2014-08-04T21:05:30Z</time></trkpt>
<trkpt lat="25.602125" lon="100.273655">
<time>2014-08-04T21:05:31Z</time></trkpt>
<trkpt lat="25.601266" lon="100.271757">
<time>2014-08-04T21:05:32Z</time></trkpt>
<trkpt lat="25.600227" lon="100.269459">
<time>2014-08-04T21:05:33Z</time></trkpt>
<trkpt lat="25.599978" lon="100.26887">
<time>2014-08-04T21:05:34Z</time></trkpt>
<trkpt lat="25.599958" lon="100.26881">
<time>2014-08-04T21:05:35Z</time></trkpt>
<trkpt lat="25.599778" lon="100.26834">
<time>2014-08-04T21:05:36Z</time></trkpt>
<trkpt lat="25.599638" lon="100.267971">
<time>2014-08-04T21:05:37Z</time></trkpt>
<trkpt lat="25.599528" lon="100.267641">
<time>2014-08-04T21:05:38Z</time></trkpt>
<trkpt lat="25.599508" lon="100.267581">
<time>2014-08-04T21:05:39Z</time></trkpt>
<trkpt lat="25.599508" lon="100.267581">
<time>2014-08-04T21:05:40Z</time></trkpt>
<trkpt lat="25.599939" lon="100.267411">
<time>2014-08-04T21:05:41Z</time></trkpt>
<trkpt lat="25.600069" lon="100.267361">
<time>2014-08-04T21:05:42Z</time></trkpt>
<trkpt lat="25.600169" lon="100.267301">
<time>2014-08-04T21:05:43Z</time></trkpt>
<trkpt lat="25.600299" lon="100.267191">
<time>2014-08-04T21:05:44Z</time></trkpt>
<trkpt lat="25.600339" lon="100.267141">
<time>2014-08-04T21:05:45Z</time></trkpt>
<trkpt lat="25.600349" lon="100.267101">
<time>2014-08-04T21:05:46Z</time></trkpt>
<trkpt lat="25.600359" lon="100.267052">
<time>2014-08-04T21:05:47Z</time></trkpt>
<trkpt lat="25.600349" lon="100.266982">
<time>2014-08-04T21:05:48Z</time></trkpt>
<trkpt lat="25.600339" lon="100.266872">
<time>2014-08-04T21:05:49Z</time></trkpt>
<trkpt lat="25.600329" lon="100.266762">
<time>2014-08-04T21:05:50Z</time></trkpt>
<trkpt lat="25.600349" lon="100.266632">
<time>2014-08-04T21:05:51Z</time></trkpt>
<trkpt lat="25.60037" lon="100.266492">
<time>2014-08-04T21:05:52Z</time></trkpt>
<trkpt lat="25.60042" lon="100.266342">
<time>2014-08-04T21:05:53Z</time></trkpt>
<trkpt lat="25.60042" lon="100.266342">
<time>2014-08-04T21:05:54Z</time></trkpt>
<trkpt lat="25.60039" lon="100.266332">
<time>2014-08-04T21:05:55Z</time></trkpt>
<trkpt lat="25.60035" lon="100.266312">
<time>2014-08-04T21:05:56Z</time></trkpt>
<trkpt lat="25.60031" lon="100.266272">
<time>2014-08-04T21:05:57Z</time></trkpt>
<trkpt lat="25.60027" lon="100.266222">
<time>2014-08-04T21:05:58Z</time></trkpt>
<trkpt lat="25.60024" lon="100.266172">
<time>2014-08-04T21:05:59Z</time></trkpt>
<trkpt lat="25.60022" lon="100.266112">
<time>2014-08-04T21:06:00Z</time></trkpt>
<trkpt lat="25.60021" lon="100.266052">
<time>2014-08-04T21:06:01Z</time></trkpt>
<trkpt lat="25.60021" lon="100.266002">
<time>2014-08-04T21:06:02Z</time></trkpt>
<trkpt lat="25.60022" lon="100.265952">
<time>2014-08-04T21:06:03Z</time></trkpt>
<trkpt lat="25.60025" lon="100.265872">
<time>2014-08-04T21:06:04Z</time></trkpt>
<trkpt lat="25.60029" lon="100.265792">
<time>2014-08-04T21:06:05Z</time></trkpt>
<trkpt lat="25.60033" lon="100.265733">
<time>2014-08-04T21:06:06Z</time></trkpt>
<trkpt lat="25.60039" lon="100.265663">
<time>2014-08-04T21:06:07Z</time></trkpt>
<trkpt lat="25.60064" lon="100.265433">
<time>2014-08-04T21:06:08Z</time></trkpt>
<trkpt lat="25.60072" lon="100.265343">
<time>2014-08-04T21:06:09Z</time></trkpt>
<trkpt lat="25.60076" lon="100.265293">
<time>2014-08-04T21:06:10Z</time></trkpt>
<trkpt lat="25.600801" lon="100.265223">
<time>2014-08-04T21:06:11Z</time></trkpt>
<trkpt lat="25.600831" lon="100.265173">
<time>2014-08-04T21:06:12Z</time></trkpt>
<trkpt lat="25.600851" lon="100.265103">
<time>2014-08-04T21:06:13Z</time></trkpt>
<trkpt lat="25.600861" lon="100.265053">
<time>2014-08-04T21:06:14Z</time></trkpt>
<trkpt lat="25.600871" lon="100.264973">
<time>2014-08-04T21:06:15Z</time></trkpt>
<trkpt lat="25.600881" lon="100.264903">
<time>2014-08-04T21:06:16Z</time></trkpt>
<trkpt lat="25.600881" lon="100.264833">
<time>2014-08-04T21:06:17Z</time></trkpt>
<trkpt lat="25.600891" lon="100.264623">
<time>2014-08-04T21:06:18Z</time></trkpt>
<trkpt lat="25.600891" lon="100.264553">
<time>2014-08-04T21:06:19Z</time></trkpt>
<trkpt lat="25.600891" lon="100.264473">
<time>2014-08-04T21:06:20Z</time></trkpt>
<trkpt lat="25.600881" lon="100.264403">
<time>2014-08-04T21:06:21Z</time></trkpt>
<trkpt lat="25.600871" lon="100.264334">
<time>2014-08-04T21:06:22Z</time></trkpt>
<trkpt lat="25.600861" lon="100.264264">
<time>2014-08-04T21:06:23Z</time></trkpt>
<trkpt lat="25.600841" lon="100.264204">
<time>2014-08-04T21:06:24Z</time></trkpt>
<trkpt lat="25.600811" lon="100.264144">
<time>2014-08-04T21:06:25Z</time></trkpt>
<trkpt lat="25.600791" lon="100.264094">
<time>2014-08-04T21:06:26Z</time></trkpt>
<trkpt lat="25.600771" lon="100.264034">
<time>2014-08-04T21:06:27Z</time></trkpt>
<trkpt lat="25.600731" lon="100.263974">
<time>2014-08-04T21:06:28Z</time></trkpt>
<trkpt lat="25.600511" lon="100.263624">
<time>2014-08-04T21:06:29Z</time></trkpt>
<trkpt lat="25.600511" lon="100.263624">
<time>2014-08-04T21:06:30Z</time></trkpt>
<trkpt lat="25.600662" lon="100.263454">
<time>2014-08-04T21:06:31Z</time></trkpt>
<trkpt lat="25.601332" lon="100.262675">
<time>2014-08-04T21:06:32Z</time></trkpt>
<trkpt lat="25.601522" lon="100.262455">
<time>2014-08-04T21:06:33Z</time></trkpt>
<trkpt lat="25.601522" lon="100.262455">
<time>2014-08-04T21:06:34Z</time></trkpt>
<trkpt lat="25.601502" lon="100.262395">
<time>2014-08-04T21:06:35Z</time></trkpt>
<trkpt lat="25.601482" lon="100.262365">
<time>2014-08-04T21:06:36Z</time></trkpt>
<trkpt lat="25.601303" lon="100.261765">
<time>2014-08-04T21:06:37Z</time></trkpt>
<trkpt lat="25.600993" lon="100.260776">
<time>2014-08-04T21:06:38Z</time></trkpt>
<trkpt lat="25.600863" lon="100.260336">
<time>2014-08-04T21:06:39Z</time></trkpt>
<trkpt lat="25.600593" lon="100.259406">
<time>2014-08-04T21:06:40Z</time></trkpt>
<trkpt lat="25.600114" lon="100.257757">
<time>2014-08-04T21:06:41Z</time></trkpt>
<trkpt lat="25.599874" lon="100.256937">
<time>2014-08-04T21:06:42Z</time></trkpt>
<trkpt lat="25.599714" lon="100.256398">
<time>2014-08-04T21:06:43Z</time></trkpt>
<trkpt lat="25.599444" lon="100.255498">
<time>2014-08-04T21:06:44Z</time></trkpt>
<trkpt lat="25.599114" lon="100.254378">
<time>2014-08-04T21:06:45Z</time></trkpt>
<trkpt lat="25.598964" lon="100.253868">
<time>2014-08-04T21:06:46Z</time></trkpt>
<trkpt lat="25.598654" lon="100.252749">
<time>2014-08-04T21:06:47Z</time></trkpt>
<trkpt lat="25.598204" lon="100.251129">
<time>2014-08-04T21:06:48Z</time></trkpt>
<trkpt lat="25.597894" lon="100.250019">
<time>2014-08-04T21:06:49Z</time></trkpt>
<trkpt lat="25.597814" lon="100.249739">
<time>2014-08-04T21:06:50Z</time></trkpt>
<trkpt lat="25.597574" lon="100.248899">
<time>2014-08-04T21:06:51Z</time></trkpt>
<trkpt lat="25.597184" lon="100.247549">
<time>2014-08-04T21:06:52Z</time></trkpt>
<trkpt lat="25.597154" lon="100.247459">
<time>2014-08-04T21:06:53Z</time></trkpt>
<trkpt lat="25.597124" lon="100.247379">
<time>2014-08-04T21:06:54Z</time></trkpt>
<trkpt lat="25.597084" lon="100.247299">
<time>2014-08-04T21:06:55Z</time></trkpt>
<trkpt lat="25.597044" lon="100.247229">
<time>2014-08-04T21:06:56Z</time></trkpt>
<trkpt lat="25.597034" lon="100.247229">
<time>2014-08-04T21:06:57Z</time></trkpt>
<trkpt lat="25.596994" lon="100.247229">
<time>2014-08-04T21:06:58Z</time></trkpt>
<trkpt lat="25.596954" lon="100.247209">
<time>2014-08-04T21:06:59Z</time></trkpt>
<trkpt lat="25.596944" lon="100.247199">
<time>2014-08-04T21:07:00Z</time></trkpt>
<trkpt lat="25.596904" lon="100.247179">
<time>2014-08-04T21:07:01Z</time></trkpt>
<trkpt lat="25.596864" lon="100.247159">
<time>2014-08-04T21:07:02Z</time></trkpt>
<trkpt lat="25.596834" lon="100.247119">
<time>2014-08-04T21:07:03Z</time></trkpt>
<trkpt lat="25.596804" lon="100.247089">
<time>2014-08-04T21:07:04Z</time></trkpt>
<trkpt lat="25.596784" lon="100.247049">
<time>2014-08-04T21:07:05Z</time></trkpt>
<trkpt lat="25.596764" lon="100.246989">
<time>2014-08-04T21:07:06Z</time></trkpt>
<trkpt lat="25.596754" lon="100.246929">
<time>2014-08-04T21:07:07Z</time></trkpt>
<trkpt lat="25.596754" lon="100.246859">
<time>2014-08-04T21:07:08Z</time></trkpt>
<trkpt lat="25.596764" lon="100.246799">
<time>2014-08-04T21:07:09Z</time></trkpt>
<trkpt lat="25.596774" lon="100.246749">
<time>2014-08-04T21:07:10Z</time></trkpt>
<trkpt lat="25.596794" lon="100.246719">
<time>2014-08-04T21:07:11Z</time></trkpt>
<trkpt lat="25.596794" lon="100.246709">
<time>2014-08-04T21:07:12Z</time></trkpt>
<trkpt lat="25.596824" lon="100.246679">
<time>2014-08-04T21:07:13Z</time></trkpt>
<trkpt lat="25.596864" lon="100.246649">
<time>2014-08-04T21:07:14Z</time></trkpt>
<trkpt lat="25.596874" lon="100.246589">
<time>2014-08-04T21:07:15Z</time></trkpt>
<trkpt lat="25.596874" lon="100.246529">
<time>2014-08-04T21:07:16Z</time></trkpt>
<trkpt lat="25.596874" lon="100.246469">
<time>2014-08-04T21:07:17Z</time></trkpt>
<trkpt lat="25.596854" lon="100.246399">
<time>2014-08-04T21:07:18Z</time></trkpt>
<trkpt lat="25.596414" lon="100.244869">
<time>2014-08-04T21:07:19Z</time></trkpt>
<trkpt lat="25.595943" lon="100.243189">
<time>2014-08-04T21:07:20Z</time></trkpt>
<trkpt lat="25.595472" lon="100.241568">
<time>2014-08-04T21:07:21Z</time></trkpt>
<trkpt lat="25.595362" lon="100.241188">
<time>2014-08-04T21:07:22Z</time></trkpt>
<trkpt lat="25.594942" lon="100.239718">
<time>2014-08-04T21:07:23Z</time></trkpt>
<trkpt lat="25.594701" lon="100.238857">
<time>2014-08-04T21:07:24Z</time></trkpt>
<trkpt lat="25.594671" lon="100.238617">
<time>2014-08-04T21:07:25Z</time></trkpt>
<trkpt lat="25.594651" lon="100.238207">
<time>2014-08-04T21:07:26Z</time></trkpt>
<trkpt lat="25.594641" lon="100.237987">
<time>2014-08-04T21:07:27Z</time></trkpt>
<trkpt lat="25.594631" lon="100.237597">
<time>2014-08-04T21:07:28Z</time></trkpt>
<trkpt lat="25.594457" lon="100.231523">
<time>2014-08-04T21:07:29Z</time></trkpt>
<trkpt lat="25.594467" lon="100.231433">
<time>2014-08-04T21:07:30Z</time></trkpt>
<trkpt lat="25.594426" lon="100.228982">
<time>2014-08-04T21:07:31Z</time></trkpt>
<trkpt lat="25.594415" lon="100.228221">
<time>2014-08-04T21:07:32Z</time></trkpt>
<trkpt lat="25.594363" lon="100.225148">
<time>2014-08-04T21:07:33Z</time></trkpt>
<trkpt lat="25.594363" lon="100.225148">
<time>2014-08-04T21:07:34Z</time></trkpt>
<trkpt lat="25.593402" lon="100.225168">
<time>2014-08-04T21:07:35Z</time></trkpt>
<trkpt lat="25.592432" lon="100.225178">
<time>2014-08-04T21:07:36Z</time></trkpt>
<trkpt lat="25.591501" lon="100.225198">
<time>2014-08-04T21:07:37Z</time></trkpt>
<trkpt lat="25.589771" lon="100.225228">
<time>2014-08-04T21:07:38Z</time></trkpt>
<trkpt lat="25.589691" lon="100.225238">
<time>2014-08-04T21:07:39Z</time></trkpt>
<trkpt lat="25.589621" lon="100.225258">
<time>2014-08-04T21:07:40Z</time></trkpt>
<trkpt lat="25.589531" lon="100.225309">
<time>2014-08-04T21:07:41Z</time></trkpt>
<trkpt lat="25.589371" lon="100.225419">
<time>2014-08-04T21:07:42Z</time></trkpt>
<trkpt lat="25.589371" lon="100.225419">
<time>2014-08-04T21:07:43Z</time></trkpt>
<trkpt lat="25.589361" lon="100.225379">
<time>2014-08-04T21:07:44Z</time></trkpt>
<trkpt lat="25.589361" lon="100.225349">
<time>2014-08-04T21:07:45Z</time></trkpt>
<trkpt lat="25.58925" lon="100.224568">
<time>2014-08-04T21:07:46Z</time></trkpt>
<trkpt lat="25.588938" lon="100.222356">
<time>2014-08-04T21:07:47Z</time></trkpt>
<trkpt lat="25.588867" lon="100.221875">
<time>2014-08-04T21:07:48Z</time></trkpt>
<trkpt lat="25.588616" lon="100.220283">
<time>2014-08-04T21:07:49Z</time></trkpt>
<trkpt lat="25.588575" lon="100.220013">
<time>2014-08-04T21:07:50Z</time></trkpt>
<trkpt lat="25.588324" lon="100.218481">
<time>2014-08-04T21:07:51Z</time></trkpt>
<trkpt lat="25.588324" lon="100.218461">
<time>2014-08-04T21:07:52Z</time></trkpt>
<trkpt lat="25.588193" lon="100.21764">
<time>2014-08-04T21:07:53Z</time></trkpt>
<trkpt lat="25.588183" lon="100.21759">
<time>2014-08-04T21:07:54Z</time></trkpt>
<trkpt lat="25.588102" lon="100.21711">
<time>2014-08-04T21:07:55Z</time></trkpt>
<trkpt lat="25.58783" lon="100.215468">
<time>2014-08-04T21:07:56Z</time></trkpt>
<trkpt lat="25.587759" lon="100.215017">
<time>2014-08-04T21:07:57Z</time></trkpt>
<trkpt lat="25.587709" lon="100.214737">
<time>2014-08-04T21:07:58Z</time></trkpt>
<trkpt lat="25.587426" lon="100.212694">
<time>2014-08-04T21:07:59Z</time></trkpt>
<trkpt lat="25.587296" lon="100.212063">
<time>2014-08-04T21:08:00Z</time></trkpt>
<trkpt lat="25.587225" lon="100.211723">
<time>2014-08-04T21:08:01Z</time></trkpt>
<trkpt lat="25.587205" lon="100.211663">
<time>2014-08-04T21:08:02Z</time></trkpt>
<trkpt lat="25.587195" lon="100.211622">
<time>2014-08-04T21:08:03Z</time></trkpt>
<trkpt lat="25.587185" lon="100.211592">
<time>2014-08-04T21:08:04Z</time></trkpt>
<trkpt lat="25.587095" lon="100.211392">
<time>2014-08-04T21:08:05Z</time></trkpt>
<trkpt lat="25.587034" lon="100.211262">
<time>2014-08-04T21:08:06Z</time></trkpt>
<trkpt lat="25.586984" lon="100.211182">
<time>2014-08-04T21:08:07Z</time></trkpt>
<trkpt lat="25.586924" lon="100.211102">
<time>2014-08-04T21:08:08Z</time></trkpt>
<trkpt lat="25.586854" lon="100.211032">
<time>2014-08-04T21:08:09Z</time></trkpt>
<trkpt lat="25.586694" lon="100.210871">
<time>2014-08-04T21:08:10Z</time></trkpt>
<trkpt lat="25.586634" lon="100.210821">
<time>2014-08-04T21:08:11Z</time></trkpt>
<trkpt lat="25.586464" lon="100.210721">
<time>2014-08-04T21:08:12Z</time></trkpt>
<trkpt lat="25.586163" lon="100.210591">
<time>2014-08-04T21:08:13Z</time></trkpt>
<trkpt lat="25.585262" lon="100.21018">
<time>2014-08-04T21:08:14Z</time></trkpt>
<trkpt lat="25.58335" lon="100.209379">
<time>2014-08-04T21:08:15Z</time></trkpt>
<trkpt lat="25.581068" lon="100.208448">
<time>2014-08-04T21:08:16Z</time></trkpt>
<trkpt lat="25.581068" lon="100.208448">
<time>2014-08-04T21:08:17Z</time></trkpt>
<trkpt lat="25.581058" lon="100.208428">
<time>2014-08-04T21:08:18Z</time></trkpt>
<trkpt lat="25.580938" lon="100.208047">
<time>2014-08-04T21:08:19Z</time></trkpt>
<trkpt lat="25.580747" lon="100.207667">
<time>2014-08-04T21:08:20Z</time></trkpt>
<trkpt lat="25.580526" lon="100.207326">
<time>2014-08-04T21:08:21Z</time></trkpt>
<trkpt lat="25.580276" lon="100.206966">
<time>2014-08-04T21:08:22Z</time></trkpt>
<trkpt lat="25.580105" lon="100.206735">
<time>2014-08-04T21:08:23Z</time></trkpt>
<trkpt lat="25.580075" lon="100.206655">
<time>2014-08-04T21:08:24Z</time></trkpt>
<trkpt lat="25.580075" lon="100.206655">
<time>2014-08-04T21:08:25Z</time></trkpt>
<trkpt lat="25.579985" lon="100.206585">
<time>2014-08-04T21:08:26Z</time></trkpt>
<trkpt lat="25.579845" lon="100.206485">
<time>2014-08-04T21:08:27Z</time></trkpt>
<trkpt lat="25.579745" lon="100.206395">
<time>2014-08-04T21:08:28Z</time></trkpt>
<trkpt lat="25.579665" lon="100.206315">
<time>2014-08-04T21:08:29Z</time></trkpt>
<trkpt lat="25.579595" lon="100.206225">
<time>2014-08-04T21:08:30Z</time></trkpt>
<trkpt lat="25.579524" lon="100.206124">
<time>2014-08-04T21:08:31Z</time></trkpt>
<trkpt lat="25.579444" lon="100.206004">
<time>2014-08-04T21:08:32Z</time></trkpt>
<trkpt lat="25.579374" lon="100.205904">
<time>2014-08-04T21:08:33Z</time></trkpt>
<trkpt lat="25.579334" lon="100.205834">
<time>2014-08-04T21:08:34Z</time></trkpt>
<trkpt lat="25.579314" lon="100.205774">
<time>2014-08-04T21:08:35Z</time></trkpt>
<trkpt lat="25.579294" lon="100.205714">
<time>2014-08-04T21:08:36Z</time></trkpt>
<trkpt lat="25.579274" lon="100.205654">
<time>2014-08-04T21:08:37Z</time></trkpt>
<trkpt lat="25.579263" lon="100.205604">
<time>2014-08-04T21:08:38Z</time></trkpt>
<trkpt lat="25.579263" lon="100.205534">
<time>2014-08-04T21:08:39Z</time></trkpt>
<trkpt lat="25.579263" lon="100.205463">
<time>2014-08-04T21:08:40Z</time></trkpt>
<trkpt lat="25.579263" lon="100.205383">
<time>2014-08-04T21:08:41Z</time></trkpt>
<trkpt lat="25.579283" lon="100.205313">
<time>2014-08-04T21:08:42Z</time></trkpt>
<trkpt lat="25.579303" lon="100.205243">
<time>2014-08-04T21:08:43Z</time></trkpt>
<trkpt lat="25.579343" lon="100.205093">
<time>2014-08-04T21:08:44Z</time></trkpt>
<trkpt lat="25.579373" lon="100.205003">
<time>2014-08-04T21:08:45Z</time></trkpt>
<trkpt lat="25.579383" lon="100.204943">
<time>2014-08-04T21:08:46Z</time></trkpt>
<trkpt lat="25.579403" lon="100.204892">
<time>2014-08-04T21:08:47Z</time></trkpt>
<trkpt lat="25.579402" lon="100.204832">
<time>2014-08-04T21:08:48Z</time></trkpt>
<trkpt lat="25.579412" lon="100.204792">
<time>2014-08-04T21:08:49Z</time></trkpt>
<trkpt lat="25.579412" lon="100.204742">
<time>2014-08-04T21:08:50Z</time></trkpt>
<trkpt lat="25.579412" lon="100.204692">
<time>2014-08-04T21:08:51Z</time></trkpt>
<trkpt lat="25.579412" lon="100.204632">
<time>2014-08-04T21:08:52Z</time></trkpt>
<trkpt lat="25.579372" lon="100.204271">
<time>2014-08-04T21:08:53Z</time></trkpt>
<trkpt lat="25.579341" lon="100.204041">
<time>2014-08-04T21:08:54Z</time></trkpt>
<trkpt lat="25.579301" lon="100.203851">
<time>2014-08-04T21:08:55Z</time></trkpt>
<trkpt lat="25.579271" lon="100.20363">
<time>2014-08-04T21:08:56Z</time></trkpt>
<trkpt lat="25.57926" lon="100.2035">
<time>2014-08-04T21:08:57Z</time></trkpt>
<trkpt lat="25.57924" lon="100.20344">
<time>2014-08-04T21:08:58Z</time></trkpt>
<trkpt lat="25.57923" lon="100.20339">
<time>2014-08-04T21:08:59Z</time></trkpt>
<trkpt lat="25.57922" lon="100.20334">
<time>2014-08-04T21:09:00Z</time></trkpt>
<trkpt lat="25.5792" lon="100.2033">
<time>2014-08-04T21:09:01Z</time></trkpt>
<trkpt lat="25.57919" lon="100.20327">
<time>2014-08-04T21:09:02Z</time></trkpt>
<trkpt lat="25.57916" lon="100.20324">
<time>2014-08-04T21:09:03Z</time></trkpt>
<trkpt lat="25.57914" lon="100.20319">
<time>2014-08-04T21:09:04Z</time></trkpt>
<trkpt lat="25.57907" lon="100.20311">
<time>2014-08-04T21:09:05Z</time></trkpt>
<trkpt lat="25.578929" lon="100.202939">
<time>2014-08-04T21:09:06Z</time></trkpt>
<trkpt lat="25.578829" lon="100.202829">
<time>2014-08-04T21:09:07Z</time></trkpt>
<trkpt lat="25.578749" lon="100.202749">
<time>2014-08-04T21:09:08Z</time></trkpt>
<trkpt lat="25.578669" lon="100.202649">
<time>2014-08-04T21:09:09Z</time></trkpt>
<trkpt lat="25.578559" lon="100.202489">
<time>2014-08-04T21:09:10Z</time></trkpt>
<trkpt lat="25.578488" lon="100.202378">
<time>2014-08-04T21:09:11Z</time></trkpt>
<trkpt lat="25.578408" lon="100.202278">
<time>2014-08-04T21:09:12Z</time></trkpt>
<trkpt lat="25.578328" lon="100.202168">
<time>2014-08-04T21:09:13Z</time></trkpt>
<trkpt lat="25.578268" lon="100.202088">
<time>2014-08-04T21:09:14Z</time></trkpt>
<trkpt lat="25.578218" lon="100.202008">
<time>2014-08-04T21:09:15Z</time></trkpt>
<trkpt lat="25.578168" lon="100.201908">
<time>2014-08-04T21:09:16Z</time></trkpt>
<trkpt lat="25.578147" lon="100.201837">
<time>2014-08-04T21:09:17Z</time></trkpt>
<trkpt lat="25.578127" lon="100.201747">
<time>2014-08-04T21:09:18Z</time></trkpt>
<trkpt lat="25.578097" lon="100.201647">
<time>2014-08-04T21:09:19Z</time></trkpt>
<trkpt lat="25.578057" lon="100.201447">
<time>2014-08-04T21:09:20Z</time></trkpt>
<trkpt lat="25.578037" lon="100.201277">
<time>2014-08-04T21:09:21Z</time></trkpt>
<trkpt lat="25.578016" lon="100.201176">
<time>2014-08-04T21:09:22Z</time></trkpt>
<trkpt lat="25.577986" lon="100.201086">
<time>2014-08-04T21:09:24Z</time></trkpt>
<trkpt lat="25.577956" lon="100.201016">
<time>2014-08-04T21:09:25Z</time></trkpt>
<trkpt lat="25.577926" lon="100.200956">
<time>2014-08-04T21:09:26Z</time></trkpt>
<trkpt lat="25.577876" lon="100.200876">
<time>2014-08-04T21:09:27Z</time></trkpt>
<trkpt lat="25.577164" lon="100.200095">
<time>2014-08-04T21:09:28Z</time></trkpt>
<trkpt lat="25.577094" lon="100.200034">
<time>2014-08-04T21:09:29Z</time></trkpt>
<trkpt lat="25.577054" lon="100.199994">
<time>2014-08-04T21:09:30Z</time></trkpt>
<trkpt lat="25.577014" lon="100.199964">
<time>2014-08-04T21:09:31Z</time></trkpt>
<trkpt lat="25.576974" lon="100.199944">
<time>2014-08-04T21:09:32Z</time></trkpt>
<trkpt lat="25.576924" lon="100.199914">
<time>2014-08-04T21:09:33Z</time></trkpt>
<trkpt lat="25.576864" lon="100.199904">
<time>2014-08-04T21:09:34Z</time></trkpt>
<trkpt lat="25.576824" lon="100.199894">
<time>2014-08-04T21:09:35Z</time></trkpt>
<trkpt lat="25.576754" lon="100.199894">
<time>2014-08-04T21:09:36Z</time></trkpt>
<trkpt lat="25.576604" lon="100.199904">
<time>2014-08-04T21:09:37Z</time></trkpt>
<trkpt lat="25.576424" lon="100.199934">
<time>2014-08-04T21:09:38Z</time></trkpt>
<trkpt lat="25.576334" lon="100.199954">
<time>2014-08-04T21:09:39Z</time></trkpt>
<trkpt lat="25.576224" lon="100.199954">
<time>2014-08-04T21:09:40Z</time></trkpt>
<trkpt lat="25.576154" lon="100.199954">
<time>2014-08-04T21:09:41Z</time></trkpt>
<trkpt lat="25.576064" lon="100.199944">
<time>2014-08-04T21:09:42Z</time></trkpt>
<trkpt lat="25.575984" lon="100.199934">
<time>2014-08-04T21:09:43Z</time></trkpt>
<trkpt lat="25.575894" lon="100.199914">
<time>2014-08-04T21:09:44Z</time></trkpt>
<trkpt lat="25.575783" lon="100.199884">
<time>2014-08-04T21:09:45Z</time></trkpt>
<trkpt lat="25.575663" lon="100.199864">
<time>2014-08-04T21:09:46Z</time></trkpt>
<trkpt lat="25.575553" lon="100.199854">
<time>2014-08-04T21:09:47Z</time></trkpt>
<trkpt lat="25.575433" lon="100.199854">
<time>2014-08-04T21:09:48Z</time></trkpt>
<trkpt lat="25.575303" lon="100.199864">
<time>2014-08-04T21:09:49Z</time></trkpt>
<trkpt lat="25.575153" lon="100.199884">
<time>2014-08-04T21:09:50Z</time></trkpt>
<trkpt lat="25.574993" lon="100.199894">
<time>2014-08-04T21:09:51Z</time></trkpt>
<trkpt lat="25.574843" lon="100.199894">
<time>2014-08-04T21:09:52Z</time></trkpt>
<trkpt lat="25.574713" lon="100.199894">
<time>2014-08-04T21:09:53Z</time></trkpt>
<trkpt lat="25.574603" lon="100.199864">
<time>2014-08-04T21:09:54Z</time></trkpt>
<trkpt lat="25.574503" lon="100.199834">
<time>2014-08-04T21:09:55Z</time></trkpt>
<trkpt lat="25.574443" lon="100.199804">
<time>2014-08-04T21:09:56Z</time></trkpt>
<trkpt lat="25.574373" lon="100.199764">
<time>2014-08-04T21:09:57Z</time></trkpt>
<trkpt lat="25.574142" lon="100.199584">
<time>2014-08-04T21:09:58Z</time></trkpt>
<trkpt lat="25.574002" lon="100.199484">
<time>2014-08-04T21:09:59Z</time></trkpt>
<trkpt lat="25.573912" lon="100.199423">
<time>2014-08-04T21:10:00Z</time></trkpt>
<trkpt lat="25.573832" lon="100.199373">
<time>2014-08-04T21:10:01Z</time></trkpt>
<trkpt lat="25.573692" lon="100.199303">
<time>2014-08-04T21:10:02Z</time></trkpt>
<trkpt lat="25.573401" lon="100.199153">
<time>2014-08-04T21:10:03Z</time></trkpt>
<trkpt lat="25.573211" lon="100.199053">
<time>2014-08-04T21:10:04Z</time></trkpt>
<trkpt lat="25.573031" lon="100.198963">
<time>2014-08-04T21:10:05Z</time></trkpt>
<trkpt lat="25.572971" lon="100.198933">
<time>2014-08-04T21:10:06Z</time></trkpt>
<trkpt lat="25.572921" lon="100.198903">
<time>2014-08-04T21:10:07Z</time></trkpt>
<trkpt lat="25.572851" lon="100.198842">
<time>2014-08-04T21:10:08Z</time></trkpt>
<trkpt lat="25.57276" lon="100.198772">
<time>2014-08-04T21:10:09Z</time></trkpt>
<trkpt lat="25.57268" lon="100.198702">
<time>2014-08-04T21:10:10Z</time></trkpt>
<trkpt lat="25.5726" lon="100.198622">
<time>2014-08-04T21:10:11Z</time></trkpt>
<trkpt lat="25.57255" lon="100.198572">
<time>2014-08-04T21:10:12Z</time></trkpt>
<trkpt lat="25.57251" lon="100.198512">
<time>2014-08-04T21:10:13Z</time></trkpt>
<trkpt lat="25.57246" lon="100.198452">
<time>2014-08-04T21:10:14Z</time></trkpt>
<trkpt lat="25.5724" lon="100.198392">
<time>2014-08-04T21:10:15Z</time></trkpt>
<trkpt lat="25.57235" lon="100.198322">
<time>2014-08-04T21:10:16Z</time></trkpt>
<trkpt lat="25.571587" lon="100.19721">
<time>2014-08-04T21:10:17Z</time></trkpt>
<trkpt lat="25.571397" lon="100.196929">
<time>2014-08-04T21:10:18Z</time></trkpt>
<trkpt lat="25.571156" lon="100.196588">
<time>2014-08-04T21:10:19Z</time></trkpt>
<trkpt lat="25.570916" lon="100.196218">
<time>2014-08-04T21:10:20Z</time></trkpt>
<trkpt lat="25.570875" lon="100.196138">
<time>2014-08-04T21:10:21Z</time></trkpt>
<trkpt lat="25.570835" lon="100.196068">
<time>2014-08-04T21:10:22Z</time></trkpt>
<trkpt lat="25.570815" lon="100.196027">
<time>2014-08-04T21:10:23Z</time></trkpt>
<trkpt lat="25.570785" lon="100.195967">
<time>2014-08-04T21:10:24Z</time></trkpt>
<trkpt lat="25.570765" lon="100.195937">
<time>2014-08-04T21:10:25Z</time></trkpt>
<trkpt lat="25.570755" lon="100.195917">
<time>2014-08-04T21:10:26Z</time></trkpt>
<trkpt lat="25.570745" lon="100.195887">
<time>2014-08-04T21:10:27Z</time></trkpt>
<trkpt lat="25.570715" lon="100.195817">
<time>2014-08-04T21:10:28Z</time></trkpt>
<trkpt lat="25.570695" lon="100.195767">
<time>2014-08-04T21:10:29Z</time></trkpt>
<trkpt lat="25.570675" lon="100.195707">
<time>2014-08-04T21:10:30Z</time></trkpt>
<trkpt lat="25.570655" lon="100.195627">
<time>2014-08-04T21:10:31Z</time></trkpt>
<trkpt lat="25.570453" lon="100.194965">
<time>2014-08-04T21:10:32Z</time></trkpt>
<trkpt lat="25.570383" lon="100.194745">
<time>2014-08-04T21:10:33Z</time></trkpt>
<trkpt lat="25.570333" lon="100.194575">
<time>2014-08-04T21:10:34Z</time></trkpt>
<trkpt lat="25.570282" lon="100.194424">
<time>2014-08-04T21:10:35Z</time></trkpt>
<trkpt lat="25.570182" lon="100.194024">
<time>2014-08-04T21:10:36Z</time></trkpt>
<trkpt lat="25.570131" lon="100.193823">
<time>2014-08-04T21:10:37Z</time></trkpt>
<trkpt lat="25.570081" lon="100.193583">
<time>2014-08-04T21:10:38Z</time></trkpt>
<trkpt lat="25.57003" lon="100.193363">
<time>2014-08-04T21:10:39Z</time></trkpt>
<trkpt lat="25.56999" lon="100.193192">
<time>2014-08-04T21:10:40Z</time></trkpt>
<trkpt lat="25.56994" lon="100.192942">
<time>2014-08-04T21:10:41Z</time></trkpt>
<trkpt lat="25.569879" lon="100.192621">
<time>2014-08-04T21:10:42Z</time></trkpt>
<trkpt lat="25.569849" lon="100.192361">
<time>2014-08-04T21:10:43Z</time></trkpt>
<trkpt lat="25.569767" lon="100.191619">
<time>2014-08-04T21:10:44Z</time></trkpt>
<trkpt lat="25.569757" lon="100.191429">
<time>2014-08-04T21:10:45Z</time></trkpt>
<trkpt lat="25.569747" lon="100.191249">
<time>2014-08-04T21:10:46Z</time></trkpt>
<trkpt lat="25.569737" lon="100.191118">
<time>2014-08-04T21:10:47Z</time></trkpt>
<trkpt lat="25.569736" lon="100.190998">
<time>2014-08-04T21:10:48Z</time></trkpt>
<trkpt lat="25.569736" lon="100.190898">
<time>2014-08-04T21:10:49Z</time></trkpt>
<trkpt lat="25.569726" lon="100.190758">
<time>2014-08-04T21:10:50Z</time></trkpt>
<trkpt lat="25.569726" lon="100.190657">
<time>2014-08-04T21:10:51Z</time></trkpt>
<trkpt lat="25.569736" lon="100.190547">
<time>2014-08-04T21:10:52Z</time></trkpt>
<trkpt lat="25.569745" lon="100.190447">
<time>2014-08-04T21:10:53Z</time></trkpt>
<trkpt lat="25.569785" lon="100.190297">
<time>2014-08-04T21:10:54Z</time></trkpt>
<trkpt lat="25.569835" lon="100.190116">
<time>2014-08-04T21:10:55Z</time></trkpt>
<trkpt lat="25.569904" lon="100.189876">
<time>2014-08-04T21:10:56Z</time></trkpt>
<trkpt lat="25.569954" lon="100.189696">
<time>2014-08-04T21:10:57Z</time></trkpt>
<trkpt lat="25.569994" lon="100.189465">
<time>2014-08-04T21:10:58Z</time></trkpt>
<trkpt lat="25.570033" lon="100.189225">
<time>2014-08-04T21:10:59Z</time></trkpt>
<trkpt lat="25.570073" lon="100.189014">
<time>2014-08-04T21:11:00Z</time></trkpt>
<trkpt lat="25.570103" lon="100.188824">
<time>2014-08-04T21:11:01Z</time></trkpt>
<trkpt lat="25.570132" lon="100.188603">
<time>2014-08-04T21:11:02Z</time></trkpt>
<trkpt lat="25.570142" lon="100.188523">
<time>2014-08-04T21:11:03Z</time></trkpt>
<trkpt lat="25.570142" lon="100.188413">
<time>2014-08-04T21:11:04Z</time></trkpt>
<trkpt lat="25.570122" lon="100.188303">
<time>2014-08-04T21:11:05Z</time></trkpt>
<trkpt lat="25.570112" lon="100.188213">
<time>2014-08-04T21:11:06Z</time></trkpt>
<trkpt lat="25.570081" lon="100.188122">
<time>2014-08-04T21:11:07Z</time></trkpt>
<trkpt lat="25.570031" lon="100.187962">
<time>2014-08-04T21:11:08Z</time></trkpt>
<trkpt lat="25.569981" lon="100.187822">
<time>2014-08-04T21:11:09Z</time></trkpt>
<trkpt lat="25.569951" lon="100.187672">
<time>2014-08-04T21:11:10Z</time></trkpt>
<trkpt lat="25.5699" lon="100.187491">
<time>2014-08-04T21:11:11Z</time></trkpt>
<trkpt lat="25.5699" lon="100.187401">
<time>2014-08-04T21:11:12Z</time></trkpt>
<trkpt lat="25.5699" lon="100.187301">
<time>2014-08-04T21:11:13Z</time></trkpt>
<trkpt lat="25.5699" lon="100.187211">
<time>2014-08-04T21:11:14Z</time></trkpt>
<trkpt lat="25.5699" lon="100.187151">
<time>2014-08-04T21:11:15Z</time></trkpt>
<trkpt lat="25.569929" lon="100.18705">
<time>2014-08-04T21:11:16Z</time></trkpt>
<trkpt lat="25.570327" lon="100.185417">
<time>2014-08-04T21:11:17Z</time></trkpt>
<trkpt lat="25.570674" lon="100.184074">
<time>2014-08-04T21:11:18Z</time></trkpt>
<trkpt lat="25.570883" lon="100.183152">
<time>2014-08-04T21:11:19Z</time></trkpt>
<trkpt lat="25.570922" lon="100.182912">
<time>2014-08-04T21:11:20Z</time></trkpt>
<trkpt lat="25.570952" lon="100.182742">
<time>2014-08-04T21:11:21Z</time></trkpt>
<trkpt lat="25.570972" lon="100.182641">
<time>2014-08-04T21:11:22Z</time></trkpt>
<trkpt lat="25.570992" lon="100.182541">
<time>2014-08-04T21:11:23Z</time></trkpt>
<trkpt lat="25.571031" lon="100.182401">
<time>2014-08-04T21:11:24Z</time></trkpt>
<trkpt lat="25.571111" lon="100.182271">
<time>2014-08-04T21:11:25Z</time></trkpt>
<trkpt lat="25.571231" lon="100.1821">
<time>2014-08-04T21:11:26Z</time></trkpt>
<trkpt lat="25.57161" lon="100.181669">
<time>2014-08-04T21:11:27Z</time></trkpt>
<trkpt lat="25.57181" lon="100.181459">
<time>2014-08-04T21:11:28Z</time></trkpt>
<trkpt lat="25.57187" lon="100.181399">
<time>2014-08-04T21:11:29Z</time></trkpt>
<trkpt lat="25.57191" lon="100.181329">
<time>2014-08-04T21:11:30Z</time></trkpt>
<trkpt lat="25.57197" lon="100.181208">
<time>2014-08-04T21:11:31Z</time></trkpt>
<trkpt lat="25.572089" lon="100.180627">
<time>2014-08-04T21:11:32Z</time></trkpt>
<trkpt lat="25.572108" lon="100.180497">
<time>2014-08-04T21:11:33Z</time></trkpt>
<trkpt lat="25.572118" lon="100.180347">
<time>2014-08-04T21:11:34Z</time></trkpt>
<trkpt lat="25.572118" lon="100.180086">
<time>2014-08-04T21:11:35Z</time></trkpt>
<trkpt lat="25.572107" lon="100.179635">
<time>2014-08-04T21:11:36Z</time></trkpt>
<trkpt lat="25.572086" lon="100.179465">
<time>2014-08-04T21:11:37Z</time></trkpt>
<trkpt lat="25.572046" lon="100.179244">
<time>2014-08-04T21:11:38Z</time></trkpt>
<trkpt lat="25.571805" lon="100.178473">
<time>2014-08-04T21:11:39Z</time></trkpt>
<trkpt lat="25.571774" lon="100.178333">
<time>2014-08-04T21:11:40Z</time></trkpt>
<trkpt lat="25.571764" lon="100.178192">
<time>2014-08-04T21:11:41Z</time></trkpt>
<trkpt lat="25.571774" lon="100.178072">
<time>2014-08-04T21:11:42Z</time></trkpt>
<trkpt lat="25.571804" lon="100.177952">
<time>2014-08-04T21:11:43Z</time></trkpt>
<trkpt lat="25.571833" lon="100.177852">
<time>2014-08-04T21:11:44Z</time></trkpt>
<trkpt lat="25.572092" lon="100.17707">
<time>2014-08-04T21:11:45Z</time></trkpt>
<trkpt lat="25.57239" lon="100.176048">
<time>2014-08-04T21:11:46Z</time></trkpt>
<trkpt lat="25.57246" lon="100.175857">
<time>2014-08-04T21:11:47Z</time></trkpt>
<trkpt lat="25.57249" lon="100.175747">
<time>2014-08-04T21:11:48Z</time></trkpt>
<trkpt lat="25.572519" lon="100.175627">
<time>2014-08-04T21:11:49Z</time></trkpt>
<trkpt lat="25.572539" lon="100.175426">
<time>2014-08-04T21:11:50Z</time></trkpt>
<trkpt lat="25.572548" lon="100.175006">
<time>2014-08-04T21:11:51Z</time></trkpt>
<trkpt lat="25.572587" lon="100.174454">
<time>2014-08-04T21:11:52Z</time></trkpt>
<trkpt lat="25.572597" lon="100.174304">
<time>2014-08-04T21:11:53Z</time></trkpt>
<trkpt lat="25.572607" lon="100.174234">
<time>2014-08-04T21:11:54Z</time></trkpt>
<trkpt lat="25.572647" lon="100.174104">
<time>2014-08-04T21:11:55Z</time></trkpt>
<trkpt lat="25.572726" lon="100.173883">
<time>2014-08-04T21:11:56Z</time></trkpt>
<trkpt lat="25.572816" lon="100.173673">
<time>2014-08-04T21:11:57Z</time></trkpt>
<trkpt lat="25.572866" lon="100.173532">
<time>2014-08-04T21:11:58Z</time></trkpt>
<trkpt lat="25.572886" lon="100.173442">
<time>2014-08-04T21:11:59Z</time></trkpt>
<trkpt lat="25.572905" lon="100.173342">
<time>2014-08-04T21:12:00Z</time></trkpt>
<trkpt lat="25.572905" lon="100.173242">
<time>2014-08-04T21:12:01Z</time></trkpt>
<trkpt lat="25.572905" lon="100.173172">
<time>2014-08-04T21:12:02Z</time></trkpt>
<trkpt lat="25.572865" lon="100.172961">
<time>2014-08-04T21:12:03Z</time></trkpt>
<trkpt lat="25.572834" lon="100.172831">
<time>2014-08-04T21:12:04Z</time></trkpt>
<trkpt lat="25.572804" lon="100.172661">
<time>2014-08-04T21:12:05Z</time></trkpt>
<trkpt lat="25.572773" lon="100.17237">
<time>2014-08-04T21:12:06Z</time></trkpt>
<trkpt lat="25.572763" lon="100.17217">
<time>2014-08-04T21:12:07Z</time></trkpt>
<trkpt lat="25.572753" lon="100.171929">
<time>2014-08-04T21:12:08Z</time></trkpt>
<trkpt lat="25.572762" lon="100.171779">
<time>2014-08-04T21:12:09Z</time></trkpt>
<trkpt lat="25.572802" lon="100.171498">
<time>2014-08-04T21:12:10Z</time></trkpt>
<trkpt lat="25.572851" lon="100.171258">
<time>2014-08-04T21:12:11Z</time></trkpt>
<trkpt lat="25.572931" lon="100.170877">
<time>2014-08-04T21:12:12Z</time></trkpt>
<trkpt lat="25.57296" lon="100.170747">
<time>2014-08-04T21:12:13Z</time></trkpt>
<trkpt lat="25.57299" lon="100.170596">
<time>2014-08-04T21:12:14Z</time></trkpt>
<trkpt lat="25.57302" lon="100.170476">
<time>2014-08-04T21:12:15Z</time></trkpt>
<trkpt lat="25.57305" lon="100.170296">
<time>2014-08-04T21:12:16Z</time></trkpt>
<trkpt lat="25.573069" lon="100.170105">
<time>2014-08-04T21:12:17Z</time></trkpt>
<trkpt lat="25.573079" lon="100.169855">
<time>2014-08-04T21:12:18Z</time></trkpt>
<trkpt lat="25.573068" lon="100.169654">
<time>2014-08-04T21:12:19Z</time></trkpt>
<trkpt lat="25.573048" lon="100.169454">
<time>2014-08-04T21:12:20Z</time></trkpt>
<trkpt lat="25.573038" lon="100.169274">
<time>2014-08-04T21:12:21Z</time></trkpt>
<trkpt lat="25.573047" lon="100.169053">
<time>2014-08-04T21:12:22Z</time></trkpt>
<trkpt lat="25.573087" lon="100.168843">
<time>2014-08-04T21:12:23Z</time></trkpt>
<trkpt lat="25.573146" lon="100.168572">
<time>2014-08-04T21:12:24Z</time></trkpt>
<trkpt lat="25.573206" lon="100.168342">
<time>2014-08-04T21:12:25Z</time></trkpt>
<trkpt lat="25.573266" lon="100.168171">
<time>2014-08-04T21:12:26Z</time></trkpt>
<trkpt lat="25.573296" lon="100.168051">
<time>2014-08-04T21:12:27Z</time></trkpt>
<trkpt lat="25.573335" lon="100.167901">
<time>2014-08-04T21:12:28Z</time></trkpt>
<trkpt lat="25.573384" lon="100.16747">
<time>2014-08-04T21:12:29Z</time></trkpt>
<trkpt lat="25.573424" lon="100.167109">
<time>2014-08-04T21:12:30Z</time></trkpt>
<trkpt lat="25.573453" lon="100.166778">
<time>2014-08-04T21:12:31Z</time></trkpt>
<trkpt lat="25.573472" lon="100.166377">
<time>2014-08-04T21:12:32Z</time></trkpt>
<trkpt lat="25.573482" lon="100.165947">
<time>2014-08-04T21:12:33Z</time></trkpt>
<trkpt lat="25.573491" lon="100.165546">
<time>2014-08-04T21:12:34Z</time></trkpt>
<trkpt lat="25.5735" lon="100.165305">
<time>2014-08-04T21:12:35Z</time></trkpt>
<trkpt lat="25.57354" lon="100.165055">
<time>2014-08-04T21:12:36Z</time></trkpt>
<trkpt lat="25.57358" lon="100.164864">
<time>2014-08-04T21:12:37Z</time></trkpt>
<trkpt lat="25.573808" lon="100.163942">
<time>2014-08-04T21:12:38Z</time></trkpt>
<trkpt lat="25.573947" lon="100.163441">
<time>2014-08-04T21:12:39Z</time></trkpt>
<trkpt lat="25.574017" lon="100.163151">
<time>2014-08-04T21:12:40Z</time></trkpt>
<trkpt lat="25.574036" lon="100.16303">
<time>2014-08-04T21:12:41Z</time></trkpt>
<trkpt lat="25.574036" lon="100.16286">
<time>2014-08-04T21:12:42Z</time></trkpt>
<trkpt lat="25.574036" lon="100.16268">
<time>2014-08-04T21:12:43Z</time></trkpt>
<trkpt lat="25.574005" lon="100.162489">
<time>2014-08-04T21:12:44Z</time></trkpt>
<trkpt lat="25.573985" lon="100.162309">
<time>2014-08-04T21:12:45Z</time></trkpt>
<trkpt lat="25.573945" lon="100.162058">
<time>2014-08-04T21:12:46Z</time></trkpt>
<trkpt lat="25.573894" lon="100.161698">
<time>2014-08-04T21:12:47Z</time></trkpt>
<trkpt lat="25.573863" lon="100.161457">
<time>2014-08-04T21:12:48Z</time></trkpt>
<trkpt lat="25.573843" lon="100.161277">
<time>2014-08-04T21:12:49Z</time></trkpt>
<trkpt lat="25.573823" lon="100.161137">
<time>2014-08-04T21:12:50Z</time></trkpt>
<trkpt lat="25.573833" lon="100.161036">
<time>2014-08-04T21:12:51Z</time></trkpt>
<trkpt lat="25.573842" lon="100.160936">
<time>2014-08-04T21:12:52Z</time></trkpt>
<trkpt lat="25.573862" lon="100.160806">
<time>2014-08-04T21:12:53Z</time></trkpt>
<trkpt lat="25.573902" lon="100.160676">
<time>2014-08-04T21:12:54Z</time></trkpt>
<trkpt lat="25.574081" lon="100.160215">
<time>2014-08-04T21:12:55Z</time></trkpt>
<trkpt lat="25.574211" lon="100.159854">
<time>2014-08-04T21:12:56Z</time></trkpt>
<trkpt lat="25.574449" lon="100.159132">
<time>2014-08-04T21:12:57Z</time></trkpt>
<trkpt lat="25.574499" lon="100.158952">
<time>2014-08-04T21:12:58Z</time></trkpt>
<trkpt lat="25.574559" lon="100.158762">
<time>2014-08-04T21:12:59Z</time></trkpt>
<trkpt lat="25.574648" lon="100.158321">
<time>2014-08-04T21:13:00Z</time></trkpt>
<trkpt lat="25.574707" lon="100.15803">
<time>2014-08-04T21:13:01Z</time></trkpt>
<trkpt lat="25.574816" lon="100.157479">
<time>2014-08-04T21:13:02Z</time></trkpt>
<trkpt lat="25.574856" lon="100.157249">
<time>2014-08-04T21:13:03Z</time></trkpt>
<trkpt lat="25.574895" lon="100.156898">
<time>2014-08-04T21:13:04Z</time></trkpt>
<trkpt lat="25.574905" lon="100.156788">
<time>2014-08-04T21:13:05Z</time></trkpt>
<trkpt lat="25.574895" lon="100.156527">
<time>2014-08-04T21:13:06Z</time></trkpt>
<trkpt lat="25.574914" lon="100.156256">
<time>2014-08-04T21:13:07Z</time></trkpt>
<trkpt lat="25.574944" lon="100.156076">
<time>2014-08-04T21:13:08Z</time></trkpt>
<trkpt lat="25.574984" lon="100.155916">
<time>2014-08-04T21:13:09Z</time></trkpt>
<trkpt lat="25.575004" lon="100.155846">
<time>2014-08-04T21:13:10Z</time></trkpt>
<trkpt lat="25.575023" lon="100.155745">
<time>2014-08-04T21:13:11Z</time></trkpt>
<trkpt lat="25.575043" lon="100.155615">
<time>2014-08-04T21:13:12Z</time></trkpt>
<trkpt lat="25.575043" lon="100.155535">
<time>2014-08-04T21:13:13Z</time></trkpt>
<trkpt lat="25.575043" lon="100.155445">
<time>2014-08-04T21:13:14Z</time></trkpt>
<trkpt lat="25.575033" lon="100.155365">
<time>2014-08-04T21:13:15Z</time></trkpt>
<trkpt lat="25.574972" lon="100.154994">
<time>2014-08-04T21:13:16Z</time></trkpt>
<trkpt lat="25.574901" lon="100.154483">
<time>2014-08-04T21:13:17Z</time></trkpt>
<trkpt lat="25.574881" lon="100.154363">
<time>2014-08-04T21:13:18Z</time></trkpt>
<trkpt lat="25.574861" lon="100.154262">
<time>2014-08-04T21:13:19Z</time></trkpt>
<trkpt lat="25.5748" lon="100.153982">
<time>2014-08-04T21:13:20Z</time></trkpt>
<trkpt lat="25.57478" lon="100.153792">
<time>2014-08-04T21:13:21Z</time></trkpt>
<trkpt lat="25.574759" lon="100.153581">
<time>2014-08-04T21:13:22Z</time></trkpt>
<trkpt lat="25.574769" lon="100.153401">
<time>2014-08-04T21:13:23Z</time></trkpt>
<trkpt lat="25.574799" lon="100.15322">
<time>2014-08-04T21:13:24Z</time></trkpt>
<trkpt lat="25.574888" lon="100.15281">
<time>2014-08-04T21:13:25Z</time></trkpt>
<trkpt lat="25.574908" lon="100.152659">
<time>2014-08-04T21:13:26Z</time></trkpt>
<trkpt lat="25.574928" lon="100.152509">
<time>2014-08-04T21:13:27Z</time></trkpt>
<trkpt lat="25.574927" lon="100.152429">
<time>2014-08-04T21:13:28Z</time></trkpt>
<trkpt lat="25.574927" lon="100.152349">
<time>2014-08-04T21:13:29Z</time></trkpt>
<trkpt lat="25.574927" lon="100.152259">
<time>2014-08-04T21:13:30Z</time></trkpt>
<trkpt lat="25.574907" lon="100.152158">
<time>2014-08-04T21:13:31Z</time></trkpt>
<trkpt lat="25.574867" lon="100.151978">
<time>2014-08-04T21:13:32Z</time></trkpt>
<trkpt lat="25.574846" lon="100.151858">
<time>2014-08-04T21:13:33Z</time></trkpt>
<trkpt lat="25.574806" lon="100.151587">
<time>2014-08-04T21:13:34Z</time></trkpt>
<trkpt lat="25.574776" lon="100.151357">
<time>2014-08-04T21:13:35Z</time></trkpt>
<trkpt lat="25.574755" lon="100.151237">
<time>2014-08-04T21:13:36Z</time></trkpt>
<trkpt lat="25.574735" lon="100.151106">
<time>2014-08-04T21:13:37Z</time></trkpt>
<trkpt lat="25.574705" lon="100.150986">
<time>2014-08-04T21:13:38Z</time></trkpt>
<trkpt lat="25.574665" lon="100.150876">
<time>2014-08-04T21:13:39Z</time></trkpt>
<trkpt lat="25.574584" lon="100.150635">
<time>2014-08-04T21:13:40Z</time></trkpt>
<trkpt lat="25.574524" lon="100.150445">
<time>2014-08-04T21:13:41Z</time></trkpt>
<trkpt lat="25.574494" lon="100.150315">
<time>2014-08-04T21:13:42Z</time></trkpt>
<trkpt lat="25.574473" lon="100.150184">
<time>2014-08-04T21:13:43Z</time></trkpt>
<trkpt lat="25.574443" lon="100.149934">
<time>2014-08-04T21:13:44Z</time></trkpt>
<trkpt lat="25.574423" lon="100.149684">
<time>2014-08-04T21:13:45Z</time></trkpt>
<trkpt lat="25.574412" lon="100.149423">
<time>2014-08-04T21:13:46Z</time></trkpt>
<trkpt lat="25.574421" lon="100.149062">
<time>2014-08-04T21:13:47Z</time></trkpt>
<trkpt lat="25.57447" lon="100.148141">
<time>2014-08-04T21:13:48Z</time></trkpt>
<trkpt lat="25.5745" lon="100.14797">
<time>2014-08-04T21:13:49Z</time></trkpt>
<trkpt lat="25.574519" lon="100.14782">
<time>2014-08-04T21:13:50Z</time></trkpt>
<trkpt lat="25.574569" lon="100.14767">
<time>2014-08-04T21:13:51Z</time></trkpt>
<trkpt lat="25.574619" lon="100.147539">
<time>2014-08-04T21:13:52Z</time></trkpt>
<trkpt lat="25.574679" lon="100.147409">
<time>2014-08-04T21:13:53Z</time></trkpt>
<trkpt lat="25.574689" lon="100.147359">
<time>2014-08-04T21:13:54Z</time></trkpt>
<trkpt lat="25.574709" lon="100.147289">
<time>2014-08-04T21:13:55Z</time></trkpt>
<trkpt lat="25.574718" lon="100.147239">
<time>2014-08-04T21:13:56Z</time></trkpt>
<trkpt lat="25.574718" lon="100.147189">
<time>2014-08-04T21:13:57Z</time></trkpt>
<trkpt lat="25.574718" lon="100.147109">
<time>2014-08-04T21:13:58Z</time></trkpt>
<trkpt lat="25.574718" lon="100.146978">
<time>2014-08-04T21:13:59Z</time></trkpt>
<trkpt lat="25.574698" lon="100.146758">
<time>2014-08-04T21:14:00Z</time></trkpt>
<trkpt lat="25.574687" lon="100.146608">
<time>2014-08-04T21:14:01Z</time></trkpt>
<trkpt lat="25.574667" lon="100.146457">
<time>2014-08-04T21:14:02Z</time></trkpt>
<trkpt lat="25.574627" lon="100.146267">
<time>2014-08-04T21:14:03Z</time></trkpt>
<trkpt lat="25.574557" lon="100.146087">
<time>2014-08-04T21:14:04Z</time></trkpt>
<trkpt lat="25.574486" lon="100.145916">
<time>2014-08-04T21:14:05Z</time></trkpt>
<trkpt lat="25.574386" lon="100.145726">
<time>2014-08-04T21:14:06Z</time></trkpt>
<trkpt lat="25.574135" lon="100.145275">
<time>2014-08-04T21:14:07Z</time></trkpt>
<trkpt lat="25.573834" lon="100.144754">
<time>2014-08-04T21:14:08Z</time></trkpt>
<trkpt lat="25.573653" lon="100.144404">
<time>2014-08-04T21:14:09Z</time></trkpt>
<trkpt lat="25.573453" lon="100.144053">
<time>2014-08-04T21:14:10Z</time></trkpt>
<trkpt lat="25.573312" lon="100.143823">
<time>2014-08-04T21:14:11Z</time></trkpt>
<trkpt lat="25.573262" lon="100.143752">
<time>2014-08-04T21:14:12Z</time></trkpt>
<trkpt lat="25.573212" lon="100.143692">
<time>2014-08-04T21:14:13Z</time></trkpt>
<trkpt lat="25.573162" lon="100.143652">
<time>2014-08-04T21:14:14Z</time></trkpt>
<trkpt lat="25.573112" lon="100.143632">
<time>2014-08-04T21:14:15Z</time></trkpt>
<trkpt lat="25.573052" lon="100.143612">
<time>2014-08-04T21:14:16Z</time></trkpt>
<trkpt lat="25.572992" lon="100.143602">
<time>2014-08-04T21:14:17Z</time></trkpt>
<trkpt lat="25.572912" lon="100.143592">
<time>2014-08-04T21:14:18Z</time></trkpt>
<trkpt lat="25.572742" lon="100.143592">
<time>2014-08-04T21:14:19Z</time></trkpt>
<trkpt lat="25.572602" lon="100.143582">
<time>2014-08-04T21:14:20Z</time></trkpt>
<trkpt lat="25.572482" lon="100.143552">
<time>2014-08-04T21:14:21Z</time></trkpt>
<trkpt lat="25.572281" lon="100.143452">
<time>2014-08-04T21:14:22Z</time></trkpt>
<trkpt lat="25.572041" lon="100.143302">
<time>2014-08-04T21:14:23Z</time></trkpt>
<trkpt lat="25.571751" lon="100.143121">
<time>2014-08-04T21:14:24Z</time></trkpt>
<trkpt lat="25.570749" lon="100.14252">
<time>2014-08-04T21:14:25Z</time></trkpt>
<trkpt lat="25.569938" lon="100.14207">
<time>2014-08-04T21:14:26Z</time></trkpt>
<trkpt lat="25.569728" lon="100.141959">
<time>2014-08-04T21:14:27Z</time></trkpt>
<trkpt lat="25.569518" lon="100.141879">
<time>2014-08-04T21:14:28Z</time></trkpt>
<trkpt lat="25.569177" lon="100.141779">
<time>2014-08-04T21:14:29Z</time></trkpt>
<trkpt lat="25.568877" lon="100.141669">
<time>2014-08-04T21:14:30Z</time></trkpt>
<trkpt lat="25.568487" lon="100.141489">
<time>2014-08-04T21:14:31Z</time></trkpt>
<trkpt lat="25.568246" lon="100.141358">
<time>2014-08-04T21:14:32Z</time></trkpt>
<trkpt lat="25.567996" lon="100.141228">
<time>2014-08-04T21:14:33Z</time></trkpt>
<trkpt lat="25.567806" lon="100.141108">
<time>2014-08-04T21:14:34Z</time></trkpt>
<trkpt lat="25.567706" lon="100.141038">
<time>2014-08-04T21:14:35Z</time></trkpt>
<trkpt lat="25.567555" lon="100.140928">
<time>2014-08-04T21:14:36Z</time></trkpt>
<trkpt lat="25.567395" lon="100.140777">
<time>2014-08-04T21:14:37Z</time></trkpt>
<trkpt lat="25.567285" lon="100.140627">
<time>2014-08-04T21:14:38Z</time></trkpt>
<trkpt lat="25.567195" lon="100.140497">
<time>2014-08-04T21:14:39Z</time></trkpt>
<trkpt lat="25.567064" lon="100.140266">
<time>2014-08-04T21:14:40Z</time></trkpt>
<trkpt lat="25.566974" lon="100.140066">
<time>2014-08-04T21:14:41Z</time></trkpt>
<trkpt lat="25.566914" lon="100.139846">
<time>2014-08-04T21:14:42Z</time></trkpt>
<trkpt lat="25.566903" lon="100.139776">
<time>2014-08-04T21:14:43Z</time></trkpt>
<trkpt lat="25.566903" lon="100.139685">
<time>2014-08-04T21:14:44Z</time></trkpt>
<trkpt lat="25.566913" lon="100.139585">
<time>2014-08-04T21:14:45Z</time></trkpt>
<trkpt lat="25.566953" lon="100.139475">
<time>2014-08-04T21:14:46Z</time></trkpt>
<trkpt lat="25.567023" lon="100.139335">
<time>2014-08-04T21:14:47Z</time></trkpt>
<trkpt lat="25.567162" lon="100.139104">
<time>2014-08-04T21:14:48Z</time></trkpt>
<trkpt lat="25.567262" lon="100.138934">
<time>2014-08-04T21:14:49Z</time></trkpt>
<trkpt lat="25.567352" lon="100.138754">
<time>2014-08-04T21:14:50Z</time></trkpt>
<trkpt lat="25.567392" lon="100.138594">
<time>2014-08-04T21:14:51Z</time></trkpt>
<trkpt lat="25.567392" lon="100.138483">
<time>2014-08-04T21:14:52Z</time></trkpt>
<trkpt lat="25.567381" lon="100.138373">
<time>2014-08-04T21:14:53Z</time></trkpt>
<trkpt lat="25.567351" lon="100.138273">
<time>2014-08-04T21:14:54Z</time></trkpt>
<trkpt lat="25.567311" lon="100.138183">
<time>2014-08-04T21:14:55Z</time></trkpt>
<trkpt lat="25.567241" lon="100.138063">
<time>2014-08-04T21:14:56Z</time></trkpt>
<trkpt lat="25.567121" lon="100.137943">
<time>2014-08-04T21:14:57Z</time></trkpt>
<trkpt lat="25.567011" lon="100.137842">
<time>2014-08-04T21:14:58Z</time></trkpt>
<trkpt lat="25.56692" lon="100.137752">
<time>2014-08-04T21:14:59Z</time></trkpt>
<trkpt lat="25.56688" lon="100.137642">
<time>2014-08-04T21:15:00Z</time></trkpt>
<trkpt lat="25.56686" lon="100.137542">
<time>2014-08-04T21:15:01Z</time></trkpt>
<trkpt lat="25.56685" lon="100.137452">
<time>2014-08-04T21:15:02Z</time></trkpt>
<trkpt lat="25.56686" lon="100.137372">
<time>2014-08-04T21:15:03Z</time></trkpt>
<trkpt lat="25.56688" lon="100.137301">
<time>2014-08-04T21:15:04Z</time></trkpt>
<trkpt lat="25.56691" lon="100.137251">
<time>2014-08-04T21:15:05Z</time></trkpt>
<trkpt lat="25.56695" lon="100.137171">
<time>2014-08-04T21:15:06Z</time></trkpt>
<trkpt lat="25.567019" lon="100.137081">
<time>2014-08-04T21:15:07Z</time></trkpt>
<trkpt lat="25.567069" lon="100.136981">
<time>2014-08-04T21:15:08Z</time></trkpt>
<trkpt lat="25.567119" lon="100.136831">
<time>2014-08-04T21:15:09Z</time></trkpt>
<trkpt lat="25.567169" lon="100.1366">
<time>2014-08-04T21:15:10Z</time></trkpt>
<trkpt lat="25.567198" lon="100.13636">
<time>2014-08-04T21:15:11Z</time></trkpt>
<trkpt lat="25.567208" lon="100.13611">
<time>2014-08-04T21:15:12Z</time></trkpt>
<trkpt lat="25.567198" lon="100.135899">
<time>2014-08-04T21:15:13Z</time></trkpt>
<trkpt lat="25.567198" lon="100.135709">
<time>2014-08-04T21:15:14Z</time></trkpt>
<trkpt lat="25.567167" lon="100.135509">
<time>2014-08-04T21:15:15Z</time></trkpt>
<trkpt lat="25.567107" lon="100.135308">
<time>2014-08-04T21:15:16Z</time></trkpt>
<trkpt lat="25.567037" lon="100.135118">
<time>2014-08-04T21:15:17Z</time></trkpt>
<trkpt lat="25.566936" lon="100.134878">
<time>2014-08-04T21:15:18Z</time></trkpt>
<trkpt lat="25.566806" lon="100.134637">
<time>2014-08-04T21:15:19Z</time></trkpt>
<trkpt lat="25.566635" lon="100.134387">
<time>2014-08-04T21:15:20Z</time></trkpt>
<trkpt lat="25.566385" lon="100.134056">
<time>2014-08-04T21:15:21Z</time></trkpt>
<trkpt lat="25.565994" lon="100.133536">
<time>2014-08-04T21:15:22Z</time></trkpt>
<trkpt lat="25.565784" lon="100.133235">
<time>2014-08-04T21:15:23Z</time></trkpt>
<trkpt lat="25.565573" lon="100.132965">
<time>2014-08-04T21:15:24Z</time></trkpt>
<trkpt lat="25.565293" lon="100.132684">
<time>2014-08-04T21:15:25Z</time></trkpt>
<trkpt lat="25.565263" lon="100.132654">
<time>2014-08-04T21:15:26Z</time></trkpt>
<trkpt lat="25.564982" lon="100.132414">
<time>2014-08-04T21:15:27Z</time></trkpt>
<trkpt lat="25.564772" lon="100.132244">
<time>2014-08-04T21:15:28Z</time></trkpt>
<trkpt lat="25.564542" lon="100.132113">
<time>2014-08-04T21:15:29Z</time></trkpt>
<trkpt lat="25.564371" lon="100.132023">
<time>2014-08-04T21:15:30Z</time></trkpt>
<trkpt lat="25.564221" lon="100.131943">
<time>2014-08-04T21:15:31Z</time></trkpt>
<trkpt lat="25.564121" lon="100.131913">
<time>2014-08-04T21:15:32Z</time></trkpt>
<trkpt lat="25.564011" lon="100.131903">
<time>2014-08-04T21:15:33Z</time></trkpt>
<trkpt lat="25.563901" lon="100.131923">
<time>2014-08-04T21:15:34Z</time></trkpt>
<trkpt lat="25.563801" lon="100.131923">
<time>2014-08-04T21:15:35Z</time></trkpt>
<trkpt lat="25.563651" lon="100.131933">
<time>2014-08-04T21:15:36Z</time></trkpt>
<trkpt lat="25.563501" lon="100.131923">
<time>2014-08-04T21:15:37Z</time></trkpt>
<trkpt lat="25.563361" lon="100.131893">
<time>2014-08-04T21:15:38Z</time></trkpt>
<trkpt lat="25.563261" lon="100.131853">
<time>2014-08-04T21:15:39Z</time></trkpt>
<trkpt lat="25.563131" lon="100.131783">
<time>2014-08-04T21:15:40Z</time></trkpt>
<trkpt lat="25.56288" lon="100.131603">
<time>2014-08-04T21:15:41Z</time></trkpt>
<trkpt lat="25.56275" lon="100.131513">
<time>2014-08-04T21:15:42Z</time></trkpt>
<trkpt lat="25.56266" lon="100.131432">
<time>2014-08-04T21:15:43Z</time></trkpt>
<trkpt lat="25.56251" lon="100.131302">
<time>2014-08-04T21:15:44Z</time></trkpt>
<trkpt lat="25.56241" lon="100.131172">
<time>2014-08-04T21:15:45Z</time></trkpt>
<trkpt lat="25.562339" lon="100.131012">
<time>2014-08-04T21:15:46Z</time></trkpt>
<trkpt lat="25.562309" lon="100.130912">
<time>2014-08-04T21:15:47Z</time></trkpt>
<trkpt lat="25.562289" lon="100.130842">
<time>2014-08-04T21:15:48Z</time></trkpt>
<trkpt lat="25.562259" lon="100.130751">
<time>2014-08-04T21:15:49Z</time></trkpt>
<trkpt lat="25.562249" lon="100.130641">
<time>2014-08-04T21:15:50Z</time></trkpt>
<trkpt lat="25.562229" lon="100.130511">
<time>2014-08-04T21:15:51Z</time></trkpt>
<trkpt lat="25.562238" lon="100.130381">
<time>2014-08-04T21:15:52Z</time></trkpt>
<trkpt lat="25.562278" lon="100.130271">
<time>2014-08-04T21:15:53Z</time></trkpt>
<trkpt lat="25.562348" lon="100.130161">
<time>2014-08-04T21:15:54Z</time></trkpt>
<trkpt lat="25.562548" lon="100.12992">
<time>2014-08-04T21:15:55Z</time></trkpt>
<trkpt lat="25.562798" lon="100.12964">
<time>2014-08-04T21:15:56Z</time></trkpt>
<trkpt lat="25.563017" lon="100.129369">
<time>2014-08-04T21:15:57Z</time></trkpt>
<trkpt lat="25.563167" lon="100.129069">
<time>2014-08-04T21:15:58Z</time></trkpt>
<trkpt lat="25.563546" lon="100.127827">
<time>2014-08-04T21:15:59Z</time></trkpt>
<trkpt lat="25.563566" lon="100.127687">
<time>2014-08-04T21:16:00Z</time></trkpt>
<trkpt lat="25.563576" lon="100.127587">
<time>2014-08-04T21:16:01Z</time></trkpt>
<trkpt lat="25.563575" lon="100.127447">
<time>2014-08-04T21:16:02Z</time></trkpt>
<trkpt lat="25.563545" lon="100.127247">
<time>2014-08-04T21:16:03Z</time></trkpt>
<trkpt lat="25.563505" lon="100.127076">
<time>2014-08-04T21:16:04Z</time></trkpt>
<trkpt lat="25.563465" lon="100.126876">
<time>2014-08-04T21:16:05Z</time></trkpt>
<trkpt lat="25.563404" lon="100.126516">
<time>2014-08-04T21:16:06Z</time></trkpt>
<trkpt lat="25.563354" lon="100.126115">
<time>2014-08-04T21:16:07Z</time></trkpt>
<trkpt lat="25.563233" lon="100.125314">
<time>2014-08-04T21:16:08Z</time></trkpt>
<trkpt lat="25.563182" lon="100.125024">
<time>2014-08-04T21:16:09Z</time></trkpt>
<trkpt lat="25.563102" lon="100.124593">
<time>2014-08-04T21:16:10Z</time></trkpt>
<trkpt lat="25.563072" lon="100.124333">
<time>2014-08-04T21:16:11Z</time></trkpt>
<trkpt lat="25.563051" lon="100.124143">
<time>2014-08-04T21:16:12Z</time></trkpt>
<trkpt lat="25.563041" lon="100.123972">
<time>2014-08-04T21:16:13Z</time></trkpt>
<trkpt lat="25.563051" lon="100.123582">
<time>2014-08-04T21:16:14Z</time></trkpt>
<trkpt lat="25.563041" lon="100.123452">
<time>2014-08-04T21:16:15Z</time></trkpt>
<trkpt lat="25.563031" lon="100.123322">
<time>2014-08-04T21:16:16Z</time></trkpt>
<trkpt lat="25.56301" lon="100.123181">
<time>2014-08-04T21:16:17Z</time></trkpt>
<trkpt lat="25.56295" lon="100.122901">
<time>2014-08-04T21:16:18Z</time></trkpt>
<trkpt lat="25.56289" lon="100.122701">
<time>2014-08-04T21:16:19Z</time></trkpt>
<trkpt lat="25.56283" lon="100.122541">
<time>2014-08-04T21:16:20Z</time></trkpt>
<trkpt lat="25.562719" lon="100.12226">
<time>2014-08-04T21:16:21Z</time></trkpt>
<trkpt lat="25.562589" lon="100.12196">
<time>2014-08-04T21:16:22Z</time></trkpt>
<trkpt lat="25.562509" lon="100.1218">
<time>2014-08-04T21:16:23Z</time></trkpt>
<trkpt lat="25.562238" lon="100.121329">
<time>2014-08-04T21:16:24Z</time></trkpt>
<trkpt lat="25.562218" lon="100.121279">
<time>2014-08-04T21:16:25Z</time></trkpt>
<trkpt lat="25.562198" lon="100.121229">
<time>2014-08-04T21:16:26Z</time></trkpt>
<trkpt lat="25.562188" lon="100.121169">
<time>2014-08-04T21:16:27Z</time></trkpt>
<trkpt lat="25.562178" lon="100.121109">
<time>2014-08-04T21:16:28Z</time></trkpt>
<trkpt lat="25.562188" lon="100.121049">
<time>2014-08-04T21:16:29Z</time></trkpt>
<trkpt lat="25.562188" lon="100.120949">
<time>2014-08-04T21:16:30Z</time></trkpt>
<trkpt lat="25.562218" lon="100.120739">
<time>2014-08-04T21:16:31Z</time></trkpt>
<trkpt lat="25.562237" lon="100.120478">
<time>2014-08-04T21:16:32Z</time></trkpt>
<trkpt lat="25.562217" lon="100.120198">
<time>2014-08-04T21:16:33Z</time></trkpt>
<trkpt lat="25.562187" lon="100.119878">
<time>2014-08-04T21:16:34Z</time></trkpt>
<trkpt lat="25.562096" lon="100.119517">
<time>2014-08-04T21:16:35Z</time></trkpt>
<trkpt lat="25.562036" lon="100.119207">
<time>2014-08-04T21:16:36Z</time></trkpt>
<trkpt lat="25.561986" lon="100.118857">
<time>2014-08-04T21:16:37Z</time></trkpt>
<trkpt lat="25.561936" lon="100.118626">
<time>2014-08-04T21:16:38Z</time></trkpt>
<trkpt lat="25.561885" lon="100.118486">
<time>2014-08-04T21:16:39Z</time></trkpt>
<trkpt lat="25.561805" lon="100.118316">
<time>2014-08-04T21:16:40Z</time></trkpt>
<trkpt lat="25.561755" lon="100.118126">
<time>2014-08-04T21:16:41Z</time></trkpt>
<trkpt lat="25.561685" lon="100.117946">
<time>2014-08-04T21:16:42Z</time></trkpt>
<trkpt lat="25.561605" lon="100.117826">
<time>2014-08-04T21:16:43Z</time></trkpt>
<trkpt lat="25.561445" lon="100.117706">
<time>2014-08-04T21:16:44Z</time></trkpt>
<trkpt lat="25.561144" lon="100.117585">
<time>2014-08-04T21:16:45Z</time></trkpt>
<trkpt lat="25.560924" lon="100.117495">
<time>2014-08-04T21:16:46Z</time></trkpt>
<trkpt lat="25.560774" lon="100.117405">
<time>2014-08-04T21:16:47Z</time></trkpt>
<trkpt lat="25.560504" lon="100.117175">
<time>2014-08-04T21:16:48Z</time></trkpt>
<trkpt lat="25.560374" lon="100.117015">
<time>2014-08-04T21:16:49Z</time></trkpt>
<trkpt lat="25.560334" lon="100.116925">
<time>2014-08-04T21:16:50Z</time></trkpt>
<trkpt lat="25.560223" lon="100.116574">
<time>2014-08-04T21:16:51Z</time></trkpt>
<trkpt lat="25.560213" lon="100.116544">
<time>2014-08-04T21:16:52Z</time></trkpt>
<trkpt lat="25.560173" lon="100.116444">
<time>2014-08-04T21:16:53Z</time></trkpt>
<trkpt lat="25.560133" lon="100.116394">
<time>2014-08-04T21:16:54Z</time></trkpt>
<trkpt lat="25.560003" lon="100.116264">
<time>2014-08-04T21:16:55Z</time></trkpt>
<trkpt lat="25.559903" lon="100.116154">
<time>2014-08-04T21:16:56Z</time></trkpt>
<trkpt lat="25.559783" lon="100.116004">
<time>2014-08-04T21:16:57Z</time></trkpt>
<trkpt lat="25.559682" lon="100.115824">
<time>2014-08-04T21:16:58Z</time></trkpt>
<trkpt lat="25.559612" lon="100.115614">
<time>2014-08-04T21:16:59Z</time></trkpt>
<trkpt lat="25.559582" lon="100.115453">
<time>2014-08-04T21:17:00Z</time></trkpt>
<trkpt lat="25.559592" lon="100.115273">
<time>2014-08-04T21:17:01Z</time></trkpt>
<trkpt lat="25.559622" lon="100.115063">
<time>2014-08-04T21:17:02Z</time></trkpt>
<trkpt lat="25.559682" lon="100.114813">
<time>2014-08-04T21:17:03Z</time></trkpt>
<trkpt lat="25.559731" lon="100.114593">
<time>2014-08-04T21:17:04Z</time></trkpt>
<trkpt lat="25.559751" lon="100.114383">
<time>2014-08-04T21:17:05Z</time></trkpt>
<trkpt lat="25.559731" lon="100.114162">
<time>2014-08-04T21:17:06Z</time></trkpt>
<trkpt lat="25.559671" lon="100.113992">
<time>2014-08-04T21:17:07Z</time></trkpt>
<trkpt lat="25.559601" lon="100.113832">
<time>2014-08-04T21:17:08Z</time></trkpt>
<trkpt lat="25.559481" lon="100.113662">
<time>2014-08-04T21:17:09Z</time></trkpt>
<trkpt lat="25.559331" lon="100.113472">
<time>2014-08-04T21:17:10Z</time></trkpt>
<trkpt lat="25.55919" lon="100.113232">
<time>2014-08-04T21:17:11Z</time></trkpt>
<trkpt lat="25.55915" lon="100.113152">
<time>2014-08-04T21:17:12Z</time></trkpt>
<trkpt lat="25.55905" lon="100.112911">
<time>2014-08-04T21:17:13Z</time></trkpt>
<trkpt lat="25.55901" lon="100.112741">
<time>2014-08-04T21:17:14Z</time></trkpt>
<trkpt lat="25.55898" lon="100.112581">
<time>2014-08-04T21:17:15Z</time></trkpt>
<trkpt lat="25.55899" lon="100.112351">
<time>2014-08-04T21:17:16Z</time></trkpt>
<trkpt lat="25.55903" lon="100.112131">
<time>2014-08-04T21:17:17Z</time></trkpt>
<trkpt lat="25.559079" lon="100.111871">
<time>2014-08-04T21:17:18Z</time></trkpt>
<trkpt lat="25.559139" lon="100.11163">
<time>2014-08-04T21:17:19Z</time></trkpt>
<trkpt lat="25.559199" lon="100.11139">
<time>2014-08-04T21:17:20Z</time></trkpt>
<trkpt lat="25.559209" lon="100.11135">
<time>2014-08-04T21:17:21Z</time></trkpt>
<trkpt lat="25.559259" lon="100.11113">
<time>2014-08-04T21:17:22Z</time></trkpt>
<trkpt lat="25.559299" lon="100.11088">
<time>2014-08-04T21:17:23Z</time></trkpt>
<trkpt lat="25.559339" lon="100.11064">
<time>2014-08-04T21:17:24Z</time></trkpt>
<trkpt lat="25.559379" lon="100.11048">
<time>2014-08-04T21:17:25Z</time></trkpt>
<trkpt lat="25.559409" lon="100.11037">
<time>2014-08-04T21:17:26Z</time></trkpt>
<trkpt lat="25.559449" lon="100.110269">
<time>2014-08-04T21:17:27Z</time></trkpt>
<trkpt lat="25.559499" lon="100.110169">
<time>2014-08-04T21:17:28Z</time></trkpt>
<trkpt lat="25.559519" lon="100.110119">
<time>2014-08-04T21:17:29Z</time></trkpt>
<trkpt lat="25.559538" lon="100.110049">
<time>2014-08-04T21:17:30Z</time></trkpt>
<trkpt lat="25.559548" lon="100.110029">
<time>2014-08-04T21:17:31Z</time></trkpt>
<trkpt lat="25.559548" lon="100.110009">
<time>2014-08-04T21:17:32Z</time></trkpt>
<trkpt lat="25.559558" lon="100.109989">
<time>2014-08-04T21:17:33Z</time></trkpt>
<trkpt lat="25.559558" lon="100.109959">
<time>2014-08-04T21:17:34Z</time></trkpt>
<trkpt lat="25.559558" lon="100.109929">
<time>2014-08-04T21:17:35Z</time></trkpt>
<trkpt lat="25.559548" lon="100.109909">
<time>2014-08-04T21:17:36Z</time></trkpt>
<trkpt lat="25.559548" lon="100.109879">
<time>2014-08-04T21:17:37Z</time></trkpt>
<trkpt lat="25.559538" lon="100.109859">
<time>2014-08-04T21:17:38Z</time></trkpt>
<trkpt lat="25.559538" lon="100.109829">
<time>2014-08-04T21:17:39Z</time></trkpt>
<trkpt lat="25.559508" lon="100.109769">
<time>2014-08-04T21:17:40Z</time></trkpt>
<trkpt lat="25.559488" lon="100.109699">
<time>2014-08-04T21:17:41Z</time></trkpt>
<trkpt lat="25.559468" lon="100.109649">
<time>2014-08-04T21:17:42Z</time></trkpt>
<trkpt lat="25.559458" lon="100.109589">
<time>2014-08-04T21:17:43Z</time></trkpt>
<trkpt lat="25.559448" lon="100.109539">
<time>2014-08-04T21:17:44Z</time></trkpt>
<trkpt lat="25.559438" lon="100.109489">
<time>2014-08-04T21:17:45Z</time></trkpt>
<trkpt lat="25.559438" lon="100.109439">
<time>2014-08-04T21:17:46Z</time></trkpt>
<trkpt lat="25.559438" lon="100.109399">
<time>2014-08-04T21:17:47Z</time></trkpt>
<trkpt lat="25.559438" lon="100.109359">
<time>2014-08-04T21:17:48Z</time></trkpt>
<trkpt lat="25.559438" lon="100.109289">
<time>2014-08-04T21:17:49Z</time></trkpt>
<trkpt lat="25.559448" lon="100.109169">
<time>2014-08-04T21:17:50Z</time></trkpt>
<trkpt lat="25.559468" lon="100.109039">
<time>2014-08-04T21:17:51Z</time></trkpt>
<trkpt lat="25.559528" lon="100.108769">
<time>2014-08-04T21:17:52Z</time></trkpt>
<trkpt lat="25.559597" lon="100.108018">
<time>2014-08-04T21:17:53Z</time></trkpt>
<trkpt lat="25.559617" lon="100.107808">
<time>2014-08-04T21:17:54Z</time></trkpt>
<trkpt lat="25.559647" lon="100.107528">
<time>2014-08-04T21:17:55Z</time></trkpt>
<trkpt lat="25.559717" lon="100.107228">
<time>2014-08-04T21:17:56Z</time></trkpt>
<trkpt lat="25.559777" lon="100.106998">
<time>2014-08-04T21:17:57Z</time></trkpt>
<trkpt lat="25.559827" lon="100.106757">
<time>2014-08-04T21:17:58Z</time></trkpt>
<trkpt lat="25.559897" lon="100.106507">
<time>2014-08-04T21:17:59Z</time></trkpt>
<trkpt lat="25.559937" lon="100.106357">
<time>2014-08-04T21:18:00Z</time></trkpt>
<trkpt lat="25.560017" lon="100.106167">
<time>2014-08-04T21:18:01Z</time></trkpt>
<trkpt lat="25.560157" lon="100.105897">
<time>2014-08-04T21:18:02Z</time></trkpt>
<trkpt lat="25.560347" lon="100.105577">
<time>2014-08-04T21:18:03Z</time></trkpt>
<trkpt lat="25.560467" lon="100.105387">
<time>2014-08-04T21:18:04Z</time></trkpt>
<trkpt lat="25.560627" lon="100.105117">
<time>2014-08-04T21:18:05Z</time></trkpt>
<trkpt lat="25.560737" lon="100.104957">
<time>2014-08-04T21:18:06Z</time></trkpt>
<trkpt lat="25.560867" lon="100.104726">
<time>2014-08-04T21:18:07Z</time></trkpt>
<trkpt lat="25.560977" lon="100.104476">
<time>2014-08-04T21:18:08Z</time></trkpt>
<trkpt lat="25.561067" lon="100.104206">
<time>2014-08-04T21:18:09Z</time></trkpt>
<trkpt lat="25.561156" lon="100.103906">
<time>2014-08-04T21:18:10Z</time></trkpt>
<trkpt lat="25.561246" lon="100.103566">
<time>2014-08-04T21:18:11Z</time></trkpt>
<trkpt lat="25.561356" lon="100.103206">
<time>2014-08-04T21:18:12Z</time></trkpt>
<trkpt lat="25.561456" lon="100.102796">
<time>2014-08-04T21:18:13Z</time></trkpt>
<trkpt lat="25.561516" lon="100.102576">
<time>2014-08-04T21:18:14Z</time></trkpt>
<trkpt lat="25.561546" lon="100.102436">
<time>2014-08-04T21:18:15Z</time></trkpt>
<trkpt lat="25.561566" lon="100.102276">
<time>2014-08-04T21:18:16Z</time></trkpt>
<trkpt lat="25.561556" lon="100.102025">
<time>2014-08-04T21:18:17Z</time></trkpt>
<trkpt lat="25.561526" lon="100.101865">
<time>2014-08-04T21:18:18Z</time></trkpt>
<trkpt lat="25.561506" lon="100.101765">
<time>2014-08-04T21:18:19Z</time></trkpt>
<trkpt lat="25.561396" lon="100.101365">
<time>2014-08-04T21:18:20Z</time></trkpt>
<trkpt lat="25.561336" lon="100.101105">
<time>2014-08-04T21:18:21Z</time></trkpt>
<trkpt lat="25.561296" lon="100.100875">
<time>2014-08-04T21:18:22Z</time></trkpt>
<trkpt lat="25.561286" lon="100.100775">
<time>2014-08-04T21:18:23Z</time></trkpt>
<trkpt lat="25.561286" lon="100.100595">
<time>2014-08-04T21:18:24Z</time></trkpt>
<trkpt lat="25.561306" lon="100.100435">
<time>2014-08-04T21:18:25Z</time></trkpt>
<trkpt lat="25.561356" lon="100.100235">
<time>2014-08-04T21:18:26Z</time></trkpt>
<trkpt lat="25.561386" lon="100.100115">
<time>2014-08-04T21:18:27Z</time></trkpt>
<trkpt lat="25.561476" lon="100.099865">
<time>2014-08-04T21:18:28Z</time></trkpt>
<trkpt lat="25.561526" lon="100.099675">
<time>2014-08-04T21:18:29Z</time></trkpt>
<trkpt lat="25.561556" lon="100.099515">
<time>2014-08-04T21:18:30Z</time></trkpt>
<trkpt lat="25.561566" lon="100.099375">
<time>2014-08-04T21:18:31Z</time></trkpt>
<trkpt lat="25.561546" lon="100.099245">
<time>2014-08-04T21:18:32Z</time></trkpt>
<trkpt lat="25.561466" lon="100.098905">
<time>2014-08-04T21:18:33Z</time></trkpt>
<trkpt lat="25.561366" lon="100.098595">
<time>2014-08-04T21:18:34Z</time></trkpt>
<trkpt lat="25.561295" lon="100.098365">
<time>2014-08-04T21:18:35Z</time></trkpt>
<trkpt lat="25.561265" lon="100.098245">
<time>2014-08-04T21:18:36Z</time></trkpt>
<trkpt lat="25.561175" lon="100.097975">
<time>2014-08-04T21:18:37Z</time></trkpt>
<trkpt lat="25.561125" lon="100.097785">
<time>2014-08-04T21:18:38Z</time></trkpt>
<trkpt lat="25.561075" lon="100.097595">
<time>2014-08-04T21:18:39Z</time></trkpt>
<trkpt lat="25.561035" lon="100.097425">
<time>2014-08-04T21:18:40Z</time></trkpt>
<trkpt lat="25.561015" lon="100.097255">
<time>2014-08-04T21:18:41Z</time></trkpt>
<trkpt lat="25.561025" lon="100.097135">
<time>2014-08-04T21:18:42Z</time></trkpt>
<trkpt lat="25.561055" lon="100.097035">
<time>2014-08-04T21:18:43Z</time></trkpt>
<trkpt lat="25.561105" lon="100.096925">
<time>2014-08-04T21:18:44Z</time></trkpt>
<trkpt lat="25.561175" lon="100.096845">
<time>2014-08-04T21:18:45Z</time></trkpt>
<trkpt lat="25.561295" lon="100.096735">
<time>2014-08-04T21:18:46Z</time></trkpt>
<trkpt lat="25.561325" lon="100.096715">
<time>2014-08-04T21:18:47Z</time></trkpt>
<trkpt lat="25.561415" lon="100.096635">
<time>2014-08-04T21:18:48Z</time></trkpt>
<trkpt lat="25.561486" lon="100.096555">
<time>2014-08-04T21:18:49Z</time></trkpt>
<trkpt lat="25.561526" lon="100.096485">
<time>2014-08-04T21:18:50Z</time></trkpt>
<trkpt lat="25.561566" lon="100.096395">
<time>2014-08-04T21:18:51Z</time></trkpt>
<trkpt lat="25.561606" lon="100.096285">
<time>2014-08-04T21:18:52Z</time></trkpt>
<trkpt lat="25.561636" lon="100.096205">
<time>2014-08-04T21:18:53Z</time></trkpt>
<trkpt lat="25.561686" lon="100.096095">
<time>2014-08-04T21:18:54Z</time></trkpt>
<trkpt lat="25.561746" lon="100.095985">
<time>2014-08-04T21:18:55Z</time></trkpt>
<trkpt lat="25.561796" lon="100.095875">
<time>2014-08-04T21:18:56Z</time></trkpt>
<trkpt lat="25.561866" lon="100.095765">
<time>2014-08-04T21:18:57Z</time></trkpt>
<trkpt lat="25.561936" lon="100.095645">
<time>2014-08-04T21:18:58Z</time></trkpt>
<trkpt lat="25.562006" lon="100.095535">
<time>2014-08-04T21:18:59Z</time></trkpt>
<trkpt lat="25.562086" lon="100.095405">
<time>2014-08-04T21:19:00Z</time></trkpt>
<trkpt lat="25.562136" lon="100.095315">
<time>2014-08-04T21:19:01Z</time></trkpt>
<trkpt lat="25.562206" lon="100.095205">
<time>2014-08-04T21:19:02Z</time></trkpt>
<trkpt lat="25.562286" lon="100.095065">
<time>2014-08-04T21:19:03Z</time></trkpt>
<trkpt lat="25.562396" lon="100.094955">
<time>2014-08-04T21:19:04Z</time></trkpt>
<trkpt lat="25.562536" lon="100.094865">
<time>2014-08-04T21:19:05Z</time></trkpt>
<trkpt lat="25.562646" lon="100.094805">
<time>2014-08-04T21:19:06Z</time></trkpt>
<trkpt lat="25.562756" lon="100.094745">
<time>2014-08-04T21:19:07Z</time></trkpt>
<trkpt lat="25.562846" lon="100.094685">
<time>2014-08-04T21:19:08Z</time></trkpt>
<trkpt lat="25.562936" lon="100.094605">
<time>2014-08-04T21:19:09Z</time></trkpt>
<trkpt lat="25.563026" lon="100.094515">
<time>2014-08-04T21:19:10Z</time></trkpt>
<trkpt lat="25.563116" lon="100.094405">
<time>2014-08-04T21:19:11Z</time></trkpt>
<trkpt lat="25.563216" lon="100.094215">
<time>2014-08-04T21:19:12Z</time></trkpt>
<trkpt lat="25.563286" lon="100.094085">
<time>2014-08-04T21:19:13Z</time></trkpt>
<trkpt lat="25.563336" lon="100.093985">
<time>2014-08-04T21:19:14Z</time></trkpt>
<trkpt lat="25.563406" lon="100.093865">
<time>2014-08-04T21:19:15Z</time></trkpt>
<trkpt lat="25.563447" lon="100.093775">
<time>2014-08-04T21:19:16Z</time></trkpt>
<trkpt lat="25.563517" lon="100.093655">
<time>2014-08-04T21:19:17Z</time></trkpt>
<trkpt lat="25.563577" lon="100.093525">
<time>2014-08-04T21:19:18Z</time></trkpt>
<trkpt lat="25.563647" lon="100.093365">
<time>2014-08-04T21:19:19Z</time></trkpt>
<trkpt lat="25.563687" lon="100.093255">
<time>2014-08-04T21:19:20Z</time></trkpt>
<trkpt lat="25.563737" lon="100.093095">
<time>2014-08-04T21:19:21Z</time></trkpt>
<trkpt lat="25.563757" lon="100.092995">
<time>2014-08-04T21:19:22Z</time></trkpt>
<trkpt lat="25.563767" lon="100.092895">
<time>2014-08-04T21:19:23Z</time></trkpt>
<trkpt lat="25.563807" lon="100.092655">
<time>2014-08-04T21:19:24Z</time></trkpt>
<trkpt lat="25.563827" lon="100.092495">
<time>2014-08-04T21:19:25Z</time></trkpt>
<trkpt lat="25.563857" lon="100.092365">
<time>2014-08-04T21:19:26Z</time></trkpt>
<trkpt lat="25.563897" lon="100.092205">
<time>2014-08-04T21:19:27Z</time></trkpt>
<trkpt lat="25.563937" lon="100.092085">
<time>2014-08-04T21:19:28Z</time></trkpt>
<trkpt lat="25.563977" lon="100.091985">
<time>2014-08-04T21:19:29Z</time></trkpt>
<trkpt lat="25.564027" lon="100.091875">
<time>2014-08-04T21:19:30Z</time></trkpt>
<trkpt lat="25.564217" lon="100.091555">
<time>2014-08-04T21:19:31Z</time></trkpt>
<trkpt lat="25.564307" lon="100.091405">
<time>2014-08-04T21:19:32Z</time></trkpt>
<trkpt lat="25.564497" lon="100.091025">
<time>2014-08-04T21:19:33Z</time></trkpt>
<trkpt lat="25.564578" lon="100.090845">
<time>2014-08-04T21:19:34Z</time></trkpt>
<trkpt lat="25.564638" lon="100.090715">
<time>2014-08-04T21:19:35Z</time></trkpt>
<trkpt lat="25.564708" lon="100.090545">
<time>2014-08-04T21:19:36Z</time></trkpt>
<trkpt lat="25.564738" lon="100.090375">
<time>2014-08-04T21:19:37Z</time></trkpt>
<trkpt lat="25.564748" lon="100.090165">
<time>2014-08-04T21:19:38Z</time></trkpt>
<trkpt lat="25.564748" lon="100.089965">
<time>2014-08-04T21:19:39Z</time></trkpt>
<trkpt lat="25.564758" lon="100.089645">
<time>2014-08-04T21:19:40Z</time></trkpt>
<trkpt lat="25.564788" lon="100.089475">
<time>2014-08-04T21:19:41Z</time></trkpt>
<trkpt lat="25.564788" lon="100.089355">
<time>2014-08-04T21:19:42Z</time></trkpt>
<trkpt lat="25.564808" lon="100.089246">
<time>2014-08-04T21:19:43Z</time></trkpt>
<trkpt lat="25.564858" lon="100.089126">
<time>2014-08-04T21:19:44Z</time></trkpt>
<trkpt lat="25.564938" lon="100.088966">
<time>2014-08-04T21:19:45Z</time></trkpt>
<trkpt lat="25.565018" lon="100.088816">
<time>2014-08-04T21:19:46Z</time></trkpt>
<trkpt lat="25.565118" lon="100.088626">
<time>2014-08-04T21:19:47Z</time></trkpt>
<trkpt lat="25.565199" lon="100.088466">
<time>2014-08-04T21:19:48Z</time></trkpt>
<trkpt lat="25.565259" lon="100.088346">
<time>2014-08-04T21:19:49Z</time></trkpt>
<trkpt lat="25.565299" lon="100.088176">
<time>2014-08-04T21:19:50Z</time></trkpt>
<trkpt lat="25.565319" lon="100.087986">
<time>2014-08-04T21:19:51Z</time></trkpt>
<trkpt lat="25.565299" lon="100.087766">
<time>2014-08-04T21:19:52Z</time></trkpt>
<trkpt lat="25.565289" lon="100.087546">
<time>2014-08-04T21:19:53Z</time></trkpt>
<trkpt lat="25.565289" lon="100.087386">
<time>2014-08-04T21:19:54Z</time></trkpt>
<trkpt lat="25.565329" lon="100.087276">
<time>2014-08-04T21:19:55Z</time></trkpt>
<trkpt lat="25.565439" lon="100.087076">
<time>2014-08-04T21:19:56Z</time></trkpt>
<trkpt lat="25.565549" lon="100.086866">
<time>2014-08-04T21:19:57Z</time></trkpt>
<trkpt lat="25.565669" lon="100.086667">
<time>2014-08-04T21:19:58Z</time></trkpt>
<trkpt lat="25.56576" lon="100.086527">
<time>2014-08-04T21:19:59Z</time></trkpt>
<trkpt lat="25.56584" lon="100.086357">
<time>2014-08-04T21:20:00Z</time></trkpt>
<trkpt lat="25.5659" lon="100.086197">
<time>2014-08-04T21:20:01Z</time></trkpt>
<trkpt lat="25.56596" lon="100.085977">
<time>2014-08-04T21:20:02Z</time></trkpt>
<trkpt lat="25.56602" lon="100.085727">
<time>2014-08-04T21:20:03Z</time></trkpt>
<trkpt lat="25.56607" lon="100.085507">
<time>2014-08-04T21:20:04Z</time></trkpt>
<trkpt lat="25.56613" lon="100.085277">
<time>2014-08-04T21:20:05Z</time></trkpt>
<trkpt lat="25.56618" lon="100.085117">
<time>2014-08-04T21:20:06Z</time></trkpt>
<trkpt lat="25.566251" lon="100.084937">
<time>2014-08-04T21:20:07Z</time></trkpt>
<trkpt lat="25.566321" lon="100.084807">
<time>2014-08-04T21:20:08Z</time></trkpt>
<trkpt lat="25.566431" lon="100.084657">
<time>2014-08-04T21:20:09Z</time></trkpt>
<trkpt lat="25.566551" lon="100.084508">
<time>2014-08-04T21:20:10Z</time></trkpt>
<trkpt lat="25.566661" lon="100.084368">
<time>2014-08-04T21:20:11Z</time></trkpt>
<trkpt lat="25.566781" lon="100.084128">
<time>2014-08-04T21:20:12Z</time></trkpt>
<trkpt lat="25.566841" lon="100.083988">
<time>2014-08-04T21:20:13Z</time></trkpt>
<trkpt lat="25.566901" lon="100.083818">
<time>2014-08-04T21:20:14Z</time></trkpt>
<trkpt lat="25.566952" lon="100.083658">
<time>2014-08-04T21:20:15Z</time></trkpt>
<trkpt lat="25.566992" lon="100.083548">
<time>2014-08-04T21:20:16Z</time></trkpt>
<trkpt lat="25.567052" lon="100.083438">
<time>2014-08-04T21:20:17Z</time></trkpt>
<trkpt lat="25.567122" lon="100.083318">
<time>2014-08-04T21:20:18Z</time></trkpt>
<trkpt lat="25.567202" lon="100.083188">
<time>2014-08-04T21:20:19Z</time></trkpt>
<trkpt lat="25.567292" lon="100.083068">
<time>2014-08-04T21:20:20Z</time></trkpt>
<trkpt lat="25.567362" lon="100.082968">
<time>2014-08-04T21:20:21Z</time></trkpt>
<trkpt lat="25.567452" lon="100.082869">
<time>2014-08-04T21:20:22Z</time></trkpt>
<trkpt lat="25.567552" lon="100.082739">
<time>2014-08-04T21:20:23Z</time></trkpt>
<trkpt lat="25.567693" lon="100.082559">
<time>2014-08-04T21:20:24Z</time></trkpt>
<trkpt lat="25.567803" lon="100.082409">
<time>2014-08-04T21:20:25Z</time></trkpt>
<trkpt lat="25.567933" lon="100.082219">
<time>2014-08-04T21:20:26Z</time></trkpt>
<trkpt lat="25.568033" lon="100.082069">
<time>2014-08-04T21:20:27Z</time></trkpt>
<trkpt lat="25.568133" lon="100.081919">
<time>2014-08-04T21:20:28Z</time></trkpt>
<trkpt lat="25.568193" lon="100.081849">
<time>2014-08-04T21:20:29Z</time></trkpt>
<trkpt lat="25.568253" lon="100.081779">
<time>2014-08-04T21:20:30Z</time></trkpt>
<trkpt lat="25.568363" lon="100.081649">
<time>2014-08-04T21:20:31Z</time></trkpt>
<trkpt lat="25.568474" lon="100.081529">
<time>2014-08-04T21:20:32Z</time></trkpt>
<trkpt lat="25.568574" lon="100.081429">
<time>2014-08-04T21:20:33Z</time></trkpt>
<trkpt lat="25.568634" lon="100.08135">
<time>2014-08-04T21:20:34Z</time></trkpt>
<trkpt lat="25.568694" lon="100.08126">
<time>2014-08-04T21:20:35Z</time></trkpt>
<trkpt lat="25.568724" lon="100.0812">
<time>2014-08-04T21:20:36Z</time></trkpt>
<trkpt lat="25.568744" lon="100.08114">
<time>2014-08-04T21:20:37Z</time></trkpt>
<trkpt lat="25.568784" lon="100.08103">
<time>2014-08-04T21:20:38Z</time></trkpt>
<trkpt lat="25.568804" lon="100.08094">
<time>2014-08-04T21:20:39Z</time></trkpt>
<trkpt lat="25.568824" lon="100.08084">
<time>2014-08-04T21:20:40Z</time></trkpt>
<trkpt lat="25.568864" lon="100.08068">
<time>2014-08-04T21:20:41Z</time></trkpt>
<trkpt lat="25.568894" lon="100.08054">
<time>2014-08-04T21:20:42Z</time></trkpt>
<trkpt lat="25.568935" lon="100.08036">
<time>2014-08-04T21:20:43Z</time></trkpt>
<trkpt lat="25.568965" lon="100.08017">
<time>2014-08-04T21:20:44Z</time></trkpt>
<trkpt lat="25.568985" lon="100.079981">
<time>2014-08-04T21:20:45Z</time></trkpt>
<trkpt lat="25.569005" lon="100.079761">
<time>2014-08-04T21:20:46Z</time></trkpt>
<trkpt lat="25.569025" lon="100.079521">
<time>2014-08-04T21:20:47Z</time></trkpt>
<trkpt lat="25.569035" lon="100.079341">
<time>2014-08-04T21:20:48Z</time></trkpt>
<trkpt lat="25.569046" lon="100.079171">
<time>2014-08-04T21:20:49Z</time></trkpt>
<trkpt lat="25.569066" lon="100.079001">
<time>2014-08-04T21:20:50Z</time></trkpt>
<trkpt lat="25.569086" lon="100.078821">
<time>2014-08-04T21:20:51Z</time></trkpt>
<trkpt lat="25.569096" lon="100.078722">
<time>2014-08-04T21:20:52Z</time></trkpt>
<trkpt lat="25.569116" lon="100.078622">
<time>2014-08-04T21:20:53Z</time></trkpt>
<trkpt lat="25.569146" lon="100.078512">
<time>2014-08-04T21:20:54Z</time></trkpt>
<trkpt lat="25.569146" lon="100.078502">
<time>2014-08-04T21:20:55Z</time></trkpt>
<trkpt lat="25.569186" lon="100.078392">
<time>2014-08-04T21:20:56Z</time></trkpt>
<trkpt lat="25.569246" lon="100.078282">
<time>2014-08-04T21:20:57Z</time></trkpt>
<trkpt lat="25.569296" lon="100.078192">
<time>2014-08-04T21:20:58Z</time></trkpt>
<trkpt lat="25.569377" lon="100.078042">
<time>2014-08-04T21:20:59Z</time></trkpt>
<trkpt lat="25.569457" lon="100.077892">
<time>2014-08-04T21:21:00Z</time></trkpt>
<trkpt lat="25.569507" lon="100.077782">
<time>2014-08-04T21:21:01Z</time></trkpt>
<trkpt lat="25.569557" lon="100.077672">
<time>2014-08-04T21:21:02Z</time></trkpt>
<trkpt lat="25.569587" lon="100.077593">
<time>2014-08-04T21:21:03Z</time></trkpt>
<trkpt lat="25.569637" lon="100.077473">
<time>2014-08-04T21:21:04Z</time></trkpt>
<trkpt lat="25.569707" lon="100.077333">
<time>2014-08-04T21:21:05Z</time></trkpt>
<trkpt lat="25.569777" lon="100.077203">
<time>2014-08-04T21:21:06Z</time></trkpt>
<trkpt lat="25.569898" lon="100.077033">
<time>2014-08-04T21:21:07Z</time></trkpt>
<trkpt lat="25.570058" lon="100.076873">
<time>2014-08-04T21:21:08Z</time></trkpt>
<trkpt lat="25.570228" lon="100.076743">
<time>2014-08-04T21:21:09Z</time></trkpt>
<trkpt lat="25.570388" lon="100.076623">
<time>2014-08-04T21:21:10Z</time></trkpt>
<trkpt lat="25.570568" lon="100.076494">
<time>2014-08-04T21:21:11Z</time></trkpt>
<trkpt lat="25.570729" lon="100.076384">
<time>2014-08-04T21:21:12Z</time></trkpt>
<trkpt lat="25.570889" lon="100.076274">
<time>2014-08-04T21:21:13Z</time></trkpt>
<trkpt lat="25.571059" lon="100.076174">
<time>2014-08-04T21:21:14Z</time></trkpt>
<trkpt lat="25.571209" lon="100.076124">
<time>2014-08-04T21:21:15Z</time></trkpt>
<trkpt lat="25.571349" lon="100.076094">
<time>2014-08-04T21:21:16Z</time></trkpt>
<trkpt lat="25.571479" lon="100.076074">
<time>2014-08-04T21:21:17Z</time></trkpt>
<trkpt lat="25.571619" lon="100.076054">
<time>2014-08-04T21:21:18Z</time></trkpt>
<trkpt lat="25.571759" lon="100.076044">
<time>2014-08-04T21:21:19Z</time></trkpt>
<trkpt lat="25.571909" lon="100.076034">
<time>2014-08-04T21:21:20Z</time></trkpt>
<trkpt lat="25.572059" lon="100.076024">
<time>2014-08-04T21:21:21Z</time></trkpt>
<trkpt lat="25.57218" lon="100.076014">
<time>2014-08-04T21:21:22Z</time></trkpt>
<trkpt lat="25.5722" lon="100.076014">
<time>2014-08-04T21:21:23Z</time></trkpt>
<trkpt lat="25.57234" lon="100.075984">
<time>2014-08-04T21:21:24Z</time></trkpt>
<trkpt lat="25.57248" lon="100.075934">
<time>2014-08-04T21:21:25Z</time></trkpt>
<trkpt lat="25.57261" lon="100.075854">
<time>2014-08-04T21:21:26Z</time></trkpt>
<trkpt lat="25.57271" lon="100.075784">
<time>2014-08-04T21:21:27Z</time></trkpt>
<trkpt lat="25.57283" lon="100.075684">
<time>2014-08-04T21:21:28Z</time></trkpt>
<trkpt lat="25.57296" lon="100.075564">
<time>2014-08-04T21:21:29Z</time></trkpt>
<trkpt lat="25.57306" lon="100.075445">
<time>2014-08-04T21:21:30Z</time></trkpt>
<trkpt lat="25.573151" lon="100.075325">
<time>2014-08-04T21:21:31Z</time></trkpt>
<trkpt lat="25.573241" lon="100.075185">
<time>2014-08-04T21:21:32Z</time></trkpt>
<trkpt lat="25.573351" lon="100.075035">
<time>2014-08-04T21:21:33Z</time></trkpt>
<trkpt lat="25.573471" lon="100.074865">
<time>2014-08-04T21:21:34Z</time></trkpt>
<trkpt lat="25.573551" lon="100.074745">
<time>2014-08-04T21:21:35Z</time></trkpt>
<trkpt lat="25.573641" lon="100.074595">
<time>2014-08-04T21:21:36Z</time></trkpt>
<trkpt lat="25.573732" lon="100.074446">
<time>2014-08-04T21:21:37Z</time></trkpt>
<trkpt lat="25.573822" lon="100.074306">
<time>2014-08-04T21:21:38Z</time></trkpt>
<trkpt lat="25.573902" lon="100.074156">
<time>2014-08-04T21:21:39Z</time></trkpt>
<trkpt lat="25.573982" lon="100.074016">
<time>2014-08-04T21:21:40Z</time></trkpt>
<trkpt lat="25.574052" lon="100.073896">
<time>2014-08-04T21:21:41Z</time></trkpt>
<trkpt lat="25.574143" lon="100.073736">
<time>2014-08-04T21:21:42Z</time></trkpt>
<trkpt lat="25.574233" lon="100.073586">
<time>2014-08-04T21:21:43Z</time></trkpt>
<trkpt lat="25.574293" lon="100.073477">
<time>2014-08-04T21:21:44Z</time></trkpt>
<trkpt lat="25.574393" lon="100.073277">
<time>2014-08-04T21:21:45Z</time></trkpt>
<trkpt lat="25.574463" lon="100.073137">
<time>2014-08-04T21:21:46Z</time></trkpt>
<trkpt lat="25.574544" lon="100.072997">
<time>2014-08-04T21:21:47Z</time></trkpt>
<trkpt lat="25.574624" lon="100.072827">
<time>2014-08-04T21:21:48Z</time></trkpt>
<trkpt lat="25.574674" lon="100.072717">
<time>2014-08-04T21:21:49Z</time></trkpt>
<trkpt lat="25.574744" lon="100.072558">
<time>2014-08-04T21:21:50Z</time></trkpt>
<trkpt lat="25.574814" lon="100.072348">
<time>2014-08-04T21:21:51Z</time></trkpt>
<trkpt lat="25.574885" lon="100.072138">
<time>2014-08-04T21:21:52Z</time></trkpt>
<trkpt lat="25.574955" lon="100.071988">
<time>2014-08-04T21:21:53Z</time></trkpt>
<trkpt lat="25.575015" lon="100.071878">
<time>2014-08-04T21:21:54Z</time></trkpt>
<trkpt lat="25.575115" lon="100.071749">
<time>2014-08-04T21:21:55Z</time></trkpt>
<trkpt lat="25.575215" lon="100.071639">
<time>2014-08-04T21:21:56Z</time></trkpt>
<trkpt lat="25.575345" lon="100.071509">
<time>2014-08-04T21:21:57Z</time></trkpt>
<trkpt lat="25.575396" lon="100.071459">
<time>2014-08-04T21:21:58Z</time></trkpt>
<trkpt lat="25.575466" lon="100.071399">
<time>2014-08-04T21:21:59Z</time></trkpt>
<trkpt lat="25.575466" lon="100.071399">
<time>2014-08-04T21:22:00Z</time></trkpt>
<trkpt lat="25.575806" lon="100.071229">
<time>2014-08-04T21:22:01Z</time></trkpt>
<trkpt lat="25.576146" lon="100.071019">
<time>2014-08-04T21:22:02Z</time></trkpt>
<trkpt lat="25.576457" lon="100.07079">
<time>2014-08-04T21:22:03Z</time></trkpt>
<trkpt lat="25.576607" lon="100.07064">
<time>2014-08-04T21:22:04Z</time></trkpt>
<trkpt lat="25.576817" lon="100.07034">
<time>2014-08-04T21:22:05Z</time></trkpt>
<trkpt lat="25.577068" lon="100.069941">
<time>2014-08-04T21:22:06Z</time></trkpt>
<trkpt lat="25.577309" lon="100.069581">
<time>2014-08-04T21:22:07Z</time></trkpt>
<trkpt lat="25.577359" lon="100.069391">
<time>2014-08-04T21:22:08Z</time></trkpt>
<trkpt lat="25.577399" lon="100.069212">
<time>2014-08-04T21:22:09Z</time></trkpt>
<trkpt lat="25.577449" lon="100.069092">
<time>2014-08-04T21:22:10Z</time></trkpt>
<trkpt lat="25.577529" lon="100.068922">
<time>2014-08-04T21:22:11Z</time></trkpt>
<trkpt lat="25.57771" lon="100.068592">
<time>2014-08-04T21:22:12Z</time></trkpt>
<trkpt lat="25.5778" lon="100.068293">
<time>2014-08-04T21:22:13Z</time></trkpt>
<trkpt lat="25.577871" lon="100.067943">
<time>2014-08-04T21:22:14Z</time></trkpt>
<trkpt lat="25.577931" lon="100.067504">
<time>2014-08-04T21:22:15Z</time></trkpt>
<trkpt lat="25.578092" lon="100.067055">
<time>2014-08-04T21:22:16Z</time></trkpt>
<trkpt lat="25.578202" lon="100.066855">
<time>2014-08-04T21:22:17Z</time></trkpt>
<trkpt lat="25.578373" lon="100.066705">
<time>2014-08-04T21:22:18Z</time></trkpt>
<trkpt lat="25.578373" lon="100.066705">
<time>2014-08-04T21:22:19Z</time></trkpt>
<trkpt lat="25.577973" lon="100.066186">
<time>2014-08-04T21:22:20Z</time></trkpt>
<trkpt lat="25.577903" lon="100.066046">
<time>2014-08-04T21:22:21Z</time></trkpt>
<trkpt lat="25.577883" lon="100.065986">
<time>2014-08-04T21:22:22Z</time></trkpt>
<trkpt lat="25.577834" lon="100.065607">
<time>2014-08-04T21:22:23Z</time></trkpt>
<trkpt lat="25.577794" lon="100.065477">
<time>2014-08-04T21:22:24Z</time></trkpt>
<trkpt lat="25.577525" lon="100.065048">
<time>2014-08-04T21:22:25Z</time></trkpt>
<trkpt lat="25.577445" lon="100.064868">
<time>2014-08-04T21:22:26Z</time></trkpt>
<trkpt lat="25.577425" lon="100.064758">
<time>2014-08-04T21:22:27Z</time></trkpt>
<trkpt lat="25.577486" lon="100.064259">
<time>2014-08-04T21:22:28Z</time></trkpt>
<trkpt lat="25.577637" lon="100.06351">
<time>2014-08-04T21:22:29Z</time></trkpt>
<trkpt lat="25.577727" lon="100.06336">
<time>2014-08-04T21:22:30Z</time></trkpt>
<trkpt lat="25.577837" lon="100.06324">
<time>2014-08-04T21:22:31Z</time></trkpt>
<trkpt lat="25.578278" lon="100.062871">
<time>2014-08-04T21:22:32Z</time></trkpt>
<trkpt lat="25.578529" lon="100.062482">
<time>2014-08-04T21:22:33Z</time></trkpt>
<trkpt lat="25.578529" lon="100.062482">
<time>2014-08-04T21:22:34Z</time></trkpt>
<trkpt lat="25.578569" lon="100.062442">
<time>2014-08-04T21:22:35Z</time></trkpt>
<trkpt lat="25.578779" lon="100.062262">
<time>2014-08-04T21:22:36Z</time></trkpt>
<trkpt lat="25.578919" lon="100.062142">
<time>2014-08-04T21:22:37Z</time></trkpt>
<trkpt lat="25.57915" lon="100.061962">
<time>2014-08-04T21:22:38Z</time></trkpt>
<trkpt lat="25.57927" lon="100.061853">
<time>2014-08-04T21:22:39Z</time></trkpt>
<trkpt lat="25.57938" lon="100.061743">
<time>2014-08-04T21:22:40Z</time></trkpt>
<trkpt lat="25.57947" lon="100.061643">
<time>2014-08-04T21:22:41Z</time></trkpt>
<trkpt lat="25.579531" lon="100.061553">
<time>2014-08-04T21:22:42Z</time></trkpt>
<trkpt lat="25.579601" lon="100.061453">
<time>2014-08-04T21:22:43Z</time></trkpt>
<trkpt lat="25.579651" lon="100.061363">
<time>2014-08-04T21:22:44Z</time></trkpt>
<trkpt lat="25.579711" lon="100.061224">
<time>2014-08-04T21:22:45Z</time></trkpt>
<trkpt lat="25.579721" lon="100.061204">
<time>2014-08-04T21:22:46Z</time></trkpt>
<trkpt lat="25.579782" lon="100.060994">
<time>2014-08-04T21:22:47Z</time></trkpt>
<trkpt lat="25.579832" lon="100.060784">
<time>2014-08-04T21:22:48Z</time></trkpt>
<trkpt lat="25.579913" lon="100.060455">
<time>2014-08-04T21:22:49Z</time></trkpt>
<trkpt lat="25.579983" lon="100.060076">
<time>2014-08-04T21:22:50Z</time></trkpt>
<trkpt lat="25.580104" lon="100.059566">
<time>2014-08-04T21:22:51Z</time></trkpt>
<trkpt lat="25.580225" lon="100.058958">
<time>2014-08-04T21:22:52Z</time></trkpt>
<trkpt lat="25.580276" lon="100.058718">
<time>2014-08-04T21:22:53Z</time></trkpt>
<trkpt lat="25.580306" lon="100.058618">
<time>2014-08-04T21:22:54Z</time></trkpt>
<trkpt lat="25.580397" lon="100.058189">
<time>2014-08-04T21:22:55Z</time></trkpt>
<trkpt lat="25.580427" lon="100.058059">
<time>2014-08-04T21:22:56Z</time></trkpt>
<trkpt lat="25.580538" lon="100.05755">
<time>2014-08-04T21:22:57Z</time></trkpt>
<trkpt lat="25.580639" lon="100.057091">
<time>2014-08-04T21:22:58Z</time></trkpt>
<trkpt lat="25.580729" lon="100.056672">
<time>2014-08-04T21:22:59Z</time></trkpt>
<trkpt lat="25.58082" lon="100.056292">
<time>2014-08-04T21:23:00Z</time></trkpt>
<trkpt lat="25.58087" lon="100.056063">
<time>2014-08-04T21:23:01Z</time></trkpt>
<trkpt lat="25.580921" lon="100.055803">
<time>2014-08-04T21:23:02Z</time></trkpt>
<trkpt lat="25.580941" lon="100.055734">
<time>2014-08-04T21:23:03Z</time></trkpt>
<trkpt lat="25.580991" lon="100.055524">
<time>2014-08-04T21:23:04Z</time></trkpt>
<trkpt lat="25.581133" lon="100.054885">
<time>2014-08-04T21:23:05Z</time></trkpt>
<trkpt lat="25.581203" lon="100.054486">
<time>2014-08-04T21:23:06Z</time></trkpt>
<trkpt lat="25.581264" lon="100.054117">
<time>2014-08-04T21:23:07Z</time></trkpt>
<trkpt lat="25.581295" lon="100.053658">
<time>2014-08-04T21:23:08Z</time></trkpt>
<trkpt lat="25.581316" lon="100.053308">
<time>2014-08-04T21:23:09Z</time></trkpt>
<trkpt lat="25.581326" lon="100.052939">
<time>2014-08-04T21:23:10Z</time></trkpt>
<trkpt lat="25.581337" lon="100.05255">
<time>2014-08-04T21:23:11Z</time></trkpt>
<trkpt lat="25.581348" lon="100.052111">
<time>2014-08-04T21:23:12Z</time></trkpt>
<trkpt lat="25.581369" lon="100.051662">
<time>2014-08-04T21:23:13Z</time></trkpt>
<trkpt lat="25.58138" lon="100.051253">
<time>2014-08-04T21:23:14Z</time></trkpt>
<trkpt lat="25.58139" lon="100.050923">
<time>2014-08-04T21:23:15Z</time></trkpt>
<trkpt lat="25.581401" lon="100.050684">
<time>2014-08-04T21:23:16Z</time></trkpt>
<trkpt lat="25.581412" lon="100.050345">
<time>2014-08-04T21:23:17Z</time></trkpt>
<trkpt lat="25.581433" lon="100.049746">
<time>2014-08-04T21:23:18Z</time></trkpt>
<trkpt lat="25.581454" lon="100.049297">
<time>2014-08-04T21:23:19Z</time></trkpt>
<trkpt lat="25.581474" lon="100.049027">
<time>2014-08-04T21:23:20Z</time></trkpt>
<trkpt lat="25.581495" lon="100.048758">
<time>2014-08-04T21:23:21Z</time></trkpt>
<trkpt lat="25.581495" lon="100.048638">
<time>2014-08-04T21:23:22Z</time></trkpt>
<trkpt lat="25.581485" lon="100.048519">
<time>2014-08-04T21:23:23Z</time></trkpt>
<trkpt lat="25.581466" lon="100.048389">
<time>2014-08-04T21:23:24Z</time></trkpt>
<trkpt lat="25.581446" lon="100.048289">
<time>2014-08-04T21:23:25Z</time></trkpt>
<trkpt lat="25.581416" lon="100.048209">
<time>2014-08-04T21:23:26Z</time></trkpt>
<trkpt lat="25.581386" lon="100.048129">
<time>2014-08-04T21:23:27Z</time></trkpt>
<trkpt lat="25.581346" lon="100.04806">
<time>2014-08-04T21:23:28Z</time></trkpt>
<trkpt lat="25.581316" lon="100.048">
<time>2014-08-04T21:23:29Z</time></trkpt>
<trkpt lat="25.581276" lon="100.04794">
<time>2014-08-04T21:23:30Z</time></trkpt>
<trkpt lat="25.581217" lon="100.04787">
<time>2014-08-04T21:23:31Z</time></trkpt>
<trkpt lat="25.581147" lon="100.0478">
<time>2014-08-04T21:23:32Z</time></trkpt>
<trkpt lat="25.581047" lon="100.04773">
<time>2014-08-04T21:23:33Z</time></trkpt>
<trkpt lat="25.580937" lon="100.04767">
<time>2014-08-04T21:23:34Z</time></trkpt>
<trkpt lat="25.580837" lon="100.047631">
<time>2014-08-04T21:23:35Z</time></trkpt>
<trkpt lat="25.580727" lon="100.047601">
<time>2014-08-04T21:23:36Z</time></trkpt>
<trkpt lat="25.580587" lon="100.047571">
<time>2014-08-04T21:23:37Z</time></trkpt>
<trkpt lat="25.580297" lon="100.047541">
<time>2014-08-04T21:23:38Z</time></trkpt>
<trkpt lat="25.580047" lon="100.047491">
<time>2014-08-04T21:23:39Z</time></trkpt>
<trkpt lat="25.579907" lon="100.047461">
<time>2014-08-04T21:23:40Z</time></trkpt>
<trkpt lat="25.579747" lon="100.047421">
<time>2014-08-04T21:23:41Z</time></trkpt>
<trkpt lat="25.579647" lon="100.047381">
<time>2014-08-04T21:23:42Z</time></trkpt>
<trkpt lat="25.579537" lon="100.047321">
<time>2014-08-04T21:23:43Z</time></trkpt>
<trkpt lat="25.579457" lon="100.047261">
<time>2014-08-04T21:23:44Z</time></trkpt>
<trkpt lat="25.579367" lon="100.047172">
<time>2014-08-04T21:23:45Z</time></trkpt>
<trkpt lat="25.579297" lon="100.047092">
<time>2014-08-04T21:23:46Z</time></trkpt>
<trkpt lat="25.579238" lon="100.047002">
<time>2014-08-04T21:23:47Z</time></trkpt>
<trkpt lat="25.579188" lon="100.046912">
<time>2014-08-04T21:23:48Z</time></trkpt>
<trkpt lat="25.579158" lon="100.046822">
<time>2014-08-04T21:23:49Z</time></trkpt>
<trkpt lat="25.579118" lon="100.046683">
<time>2014-08-04T21:23:50Z</time></trkpt>
<trkpt lat="25.579098" lon="100.046533">
<time>2014-08-04T21:23:51Z</time></trkpt>
<trkpt lat="25.579099" lon="100.046413">
<time>2014-08-04T21:23:52Z</time></trkpt>
<trkpt lat="25.579099" lon="100.046344">
<time>2014-08-04T21:23:53Z</time></trkpt>
<trkpt lat="25.579109" lon="100.046284">
<time>2014-08-04T21:23:54Z</time></trkpt>
<trkpt lat="25.579129" lon="100.046204">
<time>2014-08-04T21:23:55Z</time></trkpt>
<trkpt lat="25.579149" lon="100.046144">
<time>2014-08-04T21:23:56Z</time></trkpt>
<trkpt lat="25.579169" lon="100.046094">
<time>2014-08-04T21:23:57Z</time></trkpt>
<trkpt lat="25.57919" lon="100.046044">
<time>2014-08-04T21:23:58Z</time></trkpt>
<trkpt lat="25.57921" lon="100.046004">
<time>2014-08-04T21:23:59Z</time></trkpt>
<trkpt lat="25.57923" lon="100.045954">
<time>2014-08-04T21:24:00Z</time></trkpt>
<trkpt lat="25.57925" lon="100.045925">
<time>2014-08-04T21:24:01Z</time></trkpt>
<trkpt lat="25.57927" lon="100.045885">
<time>2014-08-04T21:24:02Z</time></trkpt>
<trkpt lat="25.5793" lon="100.045845">
<time>2014-08-04T21:24:03Z</time></trkpt>
<trkpt lat="25.57932" lon="100.045815">
<time>2014-08-04T21:24:04Z</time></trkpt>
<trkpt lat="25.57935" lon="100.045775">
<time>2014-08-04T21:24:05Z</time></trkpt>
<trkpt lat="25.57939" lon="100.045735">
<time>2014-08-04T21:24:06Z</time></trkpt>
<trkpt lat="25.57945" lon="100.045685">
<time>2014-08-04T21:24:07Z</time></trkpt>
<trkpt lat="25.579511" lon="100.045645">
<time>2014-08-04T21:24:08Z</time></trkpt>
<trkpt lat="25.579591" lon="100.045595">
<time>2014-08-04T21:24:09Z</time></trkpt>
<trkpt lat="25.579691" lon="100.045545">
<time>2014-08-04T21:24:10Z</time></trkpt>
<trkpt lat="25.579761" lon="100.045505">
<time>2014-08-04T21:24:11Z</time></trkpt>
<trkpt lat="25.579791" lon="100.045476">
<time>2014-08-04T21:24:12Z</time></trkpt>
<trkpt lat="25.579821" lon="100.045446">
<time>2014-08-04T21:24:13Z</time></trkpt>
<trkpt lat="25.579831" lon="100.045426">
<time>2014-08-04T21:24:14Z</time></trkpt>
<trkpt lat="25.579841" lon="100.045406">
<time>2014-08-04T21:24:15Z</time></trkpt>
<trkpt lat="25.579851" lon="100.045376">
<time>2014-08-04T21:24:16Z</time></trkpt>
<trkpt lat="25.579814" lon="100.044328">
<time>2014-08-04T21:24:17Z</time></trkpt>
<trkpt lat="25.579604" lon="100.044308">
<time>2014-08-04T21:24:18Z</time></trkpt>
<trkpt lat="25.579333" lon="100.044278">
<time>2014-08-04T21:24:19Z</time></trkpt>
<trkpt lat="25.579133" lon="100.044268">
<time>2014-08-04T21:24:20Z</time></trkpt>
<trkpt lat="25.579073" lon="100.044268">
<time>2014-08-04T21:24:21Z</time></trkpt>
<trkpt lat="25.578973" lon="100.044249">
<time>2014-08-04T21:24:22Z</time></trkpt>
<trkpt lat="25.578893" lon="100.044239">
<time>2014-08-04T21:24:23Z</time></trkpt>
<trkpt lat="25.578793" lon="100.044209">
<time>2014-08-04T21:24:24Z</time></trkpt>
<trkpt lat="25.578693" lon="100.044179">
<time>2014-08-04T21:24:25Z</time></trkpt>
<trkpt lat="25.578584" lon="100.044109">
<time>2014-08-04T21:24:26Z</time></trkpt>
<trkpt lat="25.578424" lon="100.043989">
<time>2014-08-04T21:24:27Z</time></trkpt>
<trkpt lat="25.578394" lon="100.043959">
<time>2014-08-04T21:24:28Z</time></trkpt>
<trkpt lat="25.577575" lon="100.043281">
<time>2014-08-04T21:24:29Z</time></trkpt>
<trkpt lat="25.577495" lon="100.043211">
<time>2014-08-04T21:24:30Z</time></trkpt>
<trkpt lat="25.577405" lon="100.043151">
<time>2014-08-04T21:24:31Z</time></trkpt>
<trkpt lat="25.577335" lon="100.043101">
<time>2014-08-04T21:24:32Z</time></trkpt>
<trkpt lat="25.577255" lon="100.043061">
<time>2014-08-04T21:24:33Z</time></trkpt>
<trkpt lat="25.577155" lon="100.043031">
<time>2014-08-04T21:24:34Z</time></trkpt>
<trkpt lat="25.577045" lon="100.043012">
<time>2014-08-04T21:24:35Z</time></trkpt>
<trkpt lat="25.576955" lon="100.043012">
<time>2014-08-04T21:24:36Z</time></trkpt>
<trkpt lat="25.576825" lon="100.043022">
<time>2014-08-04T21:24:37Z</time></trkpt>
<trkpt lat="25.576705" lon="100.043032">
<time>2014-08-04T21:24:38Z</time></trkpt>
<trkpt lat="25.575515" lon="100.043111">
<time>2014-08-04T21:24:39Z</time></trkpt>
<trkpt lat="25.575464" lon="100.043121">
<time>2014-08-04T21:24:40Z</time></trkpt>
<trkpt lat="25.575404" lon="100.043131">
<time>2014-08-04T21:24:41Z</time></trkpt>
<trkpt lat="25.575354" lon="100.043141">
<time>2014-08-04T21:24:42Z</time></trkpt>
<trkpt lat="25.575274" lon="100.043181">
<time>2014-08-04T21:24:43Z</time></trkpt>
<trkpt lat="25.575174" lon="100.043241">
<time>2014-08-04T21:24:44Z</time></trkpt>
<trkpt lat="25.575054" lon="100.043311">
<time>2014-08-04T21:24:45Z</time></trkpt>
<trkpt lat="25.574884" lon="100.043411">
<time>2014-08-04T21:24:46Z</time></trkpt>
<trkpt lat="25.574803" lon="100.043451">
<time>2014-08-04T21:24:47Z</time></trkpt>
<trkpt lat="25.574733" lon="100.04347">
<time>2014-08-04T21:24:48Z</time></trkpt>
<trkpt lat="25.574653" lon="100.04348">
<time>2014-08-04T21:24:49Z</time></trkpt>
<trkpt lat="25.574563" lon="100.04347">
<time>2014-08-04T21:24:50Z</time></trkpt>
<trkpt lat="25.574463" lon="100.043451">
<time>2014-08-04T21:24:51Z</time></trkpt>
<trkpt lat="25.574373" lon="100.043411">
<time>2014-08-04T21:24:52Z</time></trkpt>
<trkpt lat="25.574164" lon="100.043291">
<time>2014-08-04T21:24:53Z</time></trkpt>
<trkpt lat="25.572705" lon="100.042214">
<time>2014-08-04T21:24:54Z</time></trkpt>
<trkpt lat="25.571986" lon="100.041765">
<time>2014-08-04T21:24:55Z</time></trkpt>
<trkpt lat="25.571856" lon="100.041665">
<time>2014-08-04T21:24:56Z</time></trkpt>
<trkpt lat="25.571757" lon="100.041575">
<time>2014-08-04T21:24:57Z</time></trkpt>
<trkpt lat="25.571657" lon="100.041466">
<time>2014-08-04T21:24:58Z</time></trkpt>
<trkpt lat="25.571577" lon="100.041376">
<time>2014-08-04T21:24:59Z</time></trkpt>
<trkpt lat="25.571477" lon="100.041276">
<time>2014-08-04T21:25:00Z</time></trkpt>
<trkpt lat="25.571397" lon="100.041196">
<time>2014-08-04T21:25:01Z</time></trkpt>
<trkpt lat="25.571297" lon="100.041136">
<time>2014-08-04T21:25:02Z</time></trkpt>
<trkpt lat="25.571118" lon="100.041037">
<time>2014-08-04T21:25:03Z</time></trkpt>
<trkpt lat="25.570848" lon="100.040947">
<time>2014-08-04T21:25:04Z</time></trkpt>
<trkpt lat="25.570568" lon="100.040857">
<time>2014-08-04T21:25:05Z</time></trkpt>
<trkpt lat="25.570258" lon="100.040787">
<time>2014-08-04T21:25:06Z</time></trkpt>
<trkpt lat="25.569728" lon="100.040697">
<time>2014-08-04T21:25:07Z</time></trkpt>
<trkpt lat="25.569338" lon="100.040628">
<time>2014-08-04T21:25:08Z</time></trkpt>
<trkpt lat="25.569168" lon="100.040598">
<time>2014-08-04T21:25:09Z</time></trkpt>
<trkpt lat="25.568988" lon="100.040548">
<time>2014-08-04T21:25:10Z</time></trkpt>
<trkpt lat="25.568808" lon="100.040468">
<time>2014-08-04T21:25:11Z</time></trkpt>
<trkpt lat="25.568638" lon="100.040328">
<time>2014-08-04T21:25:12Z</time></trkpt>
<trkpt lat="25.568548" lon="100.040219">
<time>2014-08-04T21:25:13Z</time></trkpt>
<trkpt lat="25.568409" lon="100.040049">
<time>2014-08-04T21:25:14Z</time></trkpt>
<trkpt lat="25.568309" lon="100.03992">
<time>2014-08-04T21:25:15Z</time></trkpt>
<trkpt lat="25.568179" lon="100.03977">
<time>2014-08-04T21:25:16Z</time></trkpt>
<trkpt lat="25.568149" lon="100.03973">
<time>2014-08-04T21:25:17Z</time></trkpt>
<trkpt lat="25.56807" lon="100.03962">
<time>2014-08-04T21:25:18Z</time></trkpt>
<trkpt lat="25.56796" lon="100.039501">
<time>2014-08-04T21:25:19Z</time></trkpt>
<trkpt lat="25.56783" lon="100.039381">
<time>2014-08-04T21:25:20Z</time></trkpt>
<trkpt lat="25.56764" lon="100.039251">
<time>2014-08-04T21:25:21Z</time></trkpt>
<trkpt lat="25.567461" lon="100.039142">
<time>2014-08-04T21:25:22Z</time></trkpt>
<trkpt lat="25.567341" lon="100.039062">
<time>2014-08-04T21:25:23Z</time></trkpt>
<trkpt lat="25.567271" lon="100.039002">
<time>2014-08-04T21:25:24Z</time></trkpt>
<trkpt lat="25.567211" lon="100.038952">
<time>2014-08-04T21:25:25Z</time></trkpt>
<trkpt lat="25.567151" lon="100.038902">
<time>2014-08-04T21:25:26Z</time></trkpt>
<trkpt lat="25.567101" lon="100.038842">
<time>2014-08-04T21:25:27Z</time></trkpt>
<trkpt lat="25.567061" lon="100.038812">
<time>2014-08-04T21:25:28Z</time></trkpt>
<trkpt lat="25.567001" lon="100.038763">
<time>2014-08-04T21:25:29Z</time></trkpt>
<trkpt lat="25.566891" lon="100.038673">
<time>2014-08-04T21:25:30Z</time></trkpt>
<trkpt lat="25.566792" lon="100.038593">
<time>2014-08-04T21:25:31Z</time></trkpt>
<trkpt lat="25.566722" lon="100.038513">
<time>2014-08-04T21:25:32Z</time></trkpt>
<trkpt lat="25.566632" lon="100.038433">
<time>2014-08-04T21:25:33Z</time></trkpt>
<trkpt lat="25.566592" lon="100.038393">
<time>2014-08-04T21:25:34Z</time></trkpt>
<trkpt lat="25.566532" lon="100.038344">
<time>2014-08-04T21:25:35Z</time></trkpt>
<trkpt lat="25.566462" lon="100.038274">
<time>2014-08-04T21:25:36Z</time></trkpt>
<trkpt lat="25.566422" lon="100.038224">
<time>2014-08-04T21:25:37Z</time></trkpt>
<trkpt lat="25.566343" lon="100.038124">
<time>2014-08-04T21:25:38Z</time></trkpt>
<trkpt lat="25.566323" lon="100.038084">
<time>2014-08-04T21:25:39Z</time></trkpt>
<trkpt lat="25.566293" lon="100.038034">
<time>2014-08-04T21:25:40Z</time></trkpt>
<trkpt lat="25.566263" lon="100.037925">
<time>2014-08-04T21:25:41Z</time></trkpt>
<trkpt lat="25.566243" lon="100.037835">
<time>2014-08-04T21:25:42Z</time></trkpt>
<trkpt lat="25.566223" lon="100.037735">
<time>2014-08-04T21:25:43Z</time></trkpt>
<trkpt lat="25.566214" lon="100.037586">
<time>2014-08-04T21:25:44Z</time></trkpt>
<trkpt lat="25.566224" lon="100.037416">
<time>2014-08-04T21:25:45Z</time></trkpt>
<trkpt lat="25.566235" lon="100.037266">
<time>2014-08-04T21:25:46Z</time></trkpt>
<trkpt lat="25.566235" lon="100.037147">
<time>2014-08-04T21:25:47Z</time></trkpt>
<trkpt lat="25.566245" lon="100.037127">
<time>2014-08-04T21:25:48Z</time></trkpt>
<trkpt lat="25.566245" lon="100.036947">
<time>2014-08-04T21:25:49Z</time></trkpt>
<trkpt lat="25.566246" lon="100.036758">
<time>2014-08-04T21:25:50Z</time></trkpt>
<trkpt lat="25.566246" lon="100.036628">
<time>2014-08-04T21:25:51Z</time></trkpt>
<trkpt lat="25.566236" lon="100.036518">
<time>2014-08-04T21:25:52Z</time></trkpt>
<trkpt lat="25.566237" lon="100.036369">
<time>2014-08-04T21:25:53Z</time></trkpt>
<trkpt lat="25.566217" lon="100.036209">
<time>2014-08-04T21:25:54Z</time></trkpt>
<trkpt lat="25.566208" lon="100.03602">
<time>2014-08-04T21:25:55Z</time></trkpt>
<trkpt lat="25.566198" lon="100.03584">
<time>2014-08-04T21:25:56Z</time></trkpt>
<trkpt lat="25.566189" lon="100.035661">
<time>2014-08-04T21:25:57Z</time></trkpt>
<trkpt lat="25.566179" lon="100.035451">
<time>2014-08-04T21:25:58Z</time></trkpt>
<trkpt lat="25.56617" lon="100.035232">
<time>2014-08-04T21:25:59Z</time></trkpt>
<trkpt lat="25.56616" lon="100.035082">
<time>2014-08-04T21:26:00Z</time></trkpt>
<trkpt lat="25.56615" lon="100.034913">
<time>2014-08-04T21:26:01Z</time></trkpt>
<trkpt lat="25.566121" lon="100.034783">
<time>2014-08-04T21:26:02Z</time></trkpt>
<trkpt lat="25.566101" lon="100.034683">
<time>2014-08-04T21:26:03Z</time></trkpt>
<trkpt lat="25.566061" lon="100.034554">
<time>2014-08-04T21:26:04Z</time></trkpt>
<trkpt lat="25.566031" lon="100.034474">
<time>2014-08-04T21:26:05Z</time></trkpt>
<trkpt lat="25.565982" lon="100.034374">
<time>2014-08-04T21:26:06Z</time></trkpt>
<trkpt lat="25.565912" lon="100.034275">
<time>2014-08-04T21:26:07Z</time></trkpt>
<trkpt lat="25.565862" lon="100.034205">
<time>2014-08-04T21:26:08Z</time></trkpt>
<trkpt lat="25.565812" lon="100.034105">
<time>2014-08-04T21:26:09Z</time></trkpt>
<trkpt lat="25.565763" lon="100.034005">
<time>2014-08-04T21:26:10Z</time></trkpt>
<trkpt lat="25.565723" lon="100.033925">
<time>2014-08-04T21:26:11Z</time></trkpt>
<trkpt lat="25.565683" lon="100.033826">
<time>2014-08-04T21:26:12Z</time></trkpt>
<trkpt lat="25.565633" lon="100.033696">
<time>2014-08-04T21:26:13Z</time></trkpt>
<trkpt lat="25.565594" lon="100.033576">
<time>2014-08-04T21:26:14Z</time></trkpt>
<trkpt lat="25.565544" lon="100.033437">
<time>2014-08-04T21:26:15Z</time></trkpt>
<trkpt lat="25.565494" lon="100.033257">
<time>2014-08-04T21:26:16Z</time></trkpt>
<trkpt lat="25.565435" lon="100.033068">
<time>2014-08-04T21:26:17Z</time></trkpt>
<trkpt lat="25.565395" lon="100.032908">
<time>2014-08-04T21:26:18Z</time></trkpt>
<trkpt lat="25.565346" lon="100.032729">
<time>2014-08-04T21:26:19Z</time></trkpt>
<trkpt lat="25.565306" lon="100.032599">
<time>2014-08-04T21:26:20Z</time></trkpt>
<trkpt lat="25.565276" lon="100.032479">
<time>2014-08-04T21:26:21Z</time></trkpt>
<trkpt lat="25.565246" lon="100.03237">
<time>2014-08-04T21:26:22Z</time></trkpt>
<trkpt lat="25.565217" lon="100.03228">
<time>2014-08-04T21:26:23Z</time></trkpt>
<trkpt lat="25.565197" lon="100.03218">
<time>2014-08-04T21:26:24Z</time></trkpt>
<trkpt lat="25.565167" lon="100.032071">
<time>2014-08-04T21:26:25Z</time></trkpt>
<trkpt lat="25.565138" lon="100.031961">
<time>2014-08-04T21:26:26Z</time></trkpt>
<trkpt lat="25.565098" lon="100.031831">
<time>2014-08-04T21:26:27Z</time></trkpt>
<trkpt lat="25.565068" lon="100.031732">
<time>2014-08-04T21:26:28Z</time></trkpt>
<trkpt lat="25.565038" lon="100.031632">
<time>2014-08-04T21:26:29Z</time></trkpt>
<trkpt lat="25.565009" lon="100.031522">
<time>2014-08-04T21:26:30Z</time></trkpt>
<trkpt lat="25.564959" lon="100.031403">
<time>2014-08-04T21:26:31Z</time></trkpt>
<trkpt lat="25.564929" lon="100.031303">
<time>2014-08-04T21:26:32Z</time></trkpt>
<trkpt lat="25.564889" lon="100.031213">
<time>2014-08-04T21:26:33Z</time></trkpt>
<trkpt lat="25.56484" lon="100.031103">
<time>2014-08-04T21:26:34Z</time></trkpt>
<trkpt lat="25.56477" lon="100.030964">
<time>2014-08-04T21:26:35Z</time></trkpt>
<trkpt lat="25.56472" lon="100.030874">
<time>2014-08-04T21:26:36Z</time></trkpt>
<trkpt lat="25.56467" lon="100.030774">
<time>2014-08-04T21:26:37Z</time></trkpt>
<trkpt lat="25.564611" lon="100.030655">
<time>2014-08-04T21:26:38Z</time></trkpt>
<trkpt lat="25.564521" lon="100.030505">
<time>2014-08-04T21:26:39Z</time></trkpt>
<trkpt lat="25.564451" lon="100.030385">
<time>2014-08-04T21:26:40Z</time></trkpt>
<trkpt lat="25.564382" lon="100.030266">
<time>2014-08-04T21:26:41Z</time></trkpt>
<trkpt lat="25.564312" lon="100.030156">
<time>2014-08-04T21:26:42Z</time></trkpt>
<trkpt lat="25.564242" lon="100.030046">
<time>2014-08-04T21:26:43Z</time></trkpt>
<trkpt lat="25.564172" lon="100.029947">
<time>2014-08-04T21:26:44Z</time></trkpt>
<trkpt lat="25.564093" lon="100.029837">
<time>2014-08-04T21:26:45Z</time></trkpt>
<trkpt lat="25.564033" lon="100.029747">
<time>2014-08-04T21:26:46Z</time></trkpt>
<trkpt lat="25.563943" lon="100.029628">
<time>2014-08-04T21:26:47Z</time></trkpt>
<trkpt lat="25.563853" lon="100.029498">
<time>2014-08-04T21:26:48Z</time></trkpt>
<trkpt lat="25.563774" lon="100.029388">
<time>2014-08-04T21:26:49Z</time></trkpt>
<trkpt lat="25.563694" lon="100.029299">
<time>2014-08-04T21:26:50Z</time></trkpt>
<trkpt lat="25.563614" lon="100.029209">
<time>2014-08-04T21:26:51Z</time></trkpt>
<trkpt lat="25.563504" lon="100.029109">
<time>2014-08-04T21:26:52Z</time></trkpt>
<trkpt lat="25.563415" lon="100.029019">
<time>2014-08-04T21:26:53Z</time></trkpt>
<trkpt lat="25.563325" lon="100.02894">
<time>2014-08-04T21:26:54Z</time></trkpt>
<trkpt lat="25.563195" lon="100.02883">
<time>2014-08-04T21:26:55Z</time></trkpt>
<trkpt lat="25.563095" lon="100.02873">
<time>2014-08-04T21:26:56Z</time></trkpt>
<trkpt lat="25.563025" lon="100.02864">
<time>2014-08-04T21:26:57Z</time></trkpt>
<trkpt lat="25.562946" lon="100.028521">
<time>2014-08-04T21:26:58Z</time></trkpt>
<trkpt lat="25.562886" lon="100.028441">
<time>2014-08-04T21:26:59Z</time></trkpt>
<trkpt lat="25.562826" lon="100.028321">
<time>2014-08-04T21:27:00Z</time></trkpt>
<trkpt lat="25.562777" lon="100.028202">
<time>2014-08-04T21:27:01Z</time></trkpt>
<trkpt lat="25.562737" lon="100.028082">
<time>2014-08-04T21:27:02Z</time></trkpt>
<trkpt lat="25.562707" lon="100.027972">
<time>2014-08-04T21:27:03Z</time></trkpt>
<trkpt lat="25.562677" lon="100.027873">
<time>2014-08-04T21:27:04Z</time></trkpt>
<trkpt lat="25.562638" lon="100.027773">
<time>2014-08-04T21:27:05Z</time></trkpt>
<trkpt lat="25.562598" lon="100.027683">
<time>2014-08-04T21:27:06Z</time></trkpt>
<trkpt lat="25.562528" lon="100.027584">
<time>2014-08-04T21:27:07Z</time></trkpt>
<trkpt lat="25.562408" lon="100.027464">
<time>2014-08-04T21:27:08Z</time></trkpt>
<trkpt lat="25.562269" lon="100.027324">
<time>2014-08-04T21:27:09Z</time></trkpt>
<trkpt lat="25.562169" lon="100.027225">
<time>2014-08-04T21:27:10Z</time></trkpt>
<trkpt lat="25.562039" lon="100.027105">
<time>2014-08-04T21:27:11Z</time></trkpt>
<trkpt lat="25.561939" lon="100.027015">
<time>2014-08-04T21:27:12Z</time></trkpt>
<trkpt lat="25.56184" lon="100.026926">
<time>2014-08-04T21:27:13Z</time></trkpt>
<trkpt lat="25.56177" lon="100.026846">
<time>2014-08-04T21:27:14Z</time></trkpt>
<trkpt lat="25.56166" lon="100.026746">
<time>2014-08-04T21:27:15Z</time></trkpt>
<trkpt lat="25.56156" lon="100.026646">
<time>2014-08-04T21:27:16Z</time></trkpt>
<trkpt lat="25.56146" lon="100.026557">
<time>2014-08-04T21:27:17Z</time></trkpt>
<trkpt lat="25.561351" lon="100.026447">
<time>2014-08-04T21:27:18Z</time></trkpt>
<trkpt lat="25.561251" lon="100.026357">
<time>2014-08-04T21:27:19Z</time></trkpt>
<trkpt lat="25.561141" lon="100.026258">
<time>2014-08-04T21:27:20Z</time></trkpt>
<trkpt lat="25.561051" lon="100.026178">
<time>2014-08-04T21:27:21Z</time></trkpt>
<trkpt lat="25.560971" lon="100.026108">
<time>2014-08-04T21:27:22Z</time></trkpt>
<trkpt lat="25.560862" lon="100.026008">
<time>2014-08-04T21:27:23Z</time></trkpt>
<trkpt lat="25.560792" lon="100.025938">
<time>2014-08-04T21:27:24Z</time></trkpt>
<trkpt lat="25.560702" lon="100.025859">
<time>2014-08-04T21:27:25Z</time></trkpt>
<trkpt lat="25.560612" lon="100.025769">
<time>2014-08-04T21:27:26Z</time></trkpt>
<trkpt lat="25.560502" lon="100.025689">
<time>2014-08-04T21:27:27Z</time></trkpt>
<trkpt lat="25.560373" lon="100.02559">
<time>2014-08-04T21:27:28Z</time></trkpt>
<trkpt lat="25.560233" lon="100.0255">
<time>2014-08-04T21:27:29Z</time></trkpt>
<trkpt lat="25.560143" lon="100.02545">
<time>2014-08-04T21:27:30Z</time></trkpt>
<trkpt lat="25.560043" lon="100.02538">
<time>2014-08-04T21:27:31Z</time></trkpt>
<trkpt lat="25.559963" lon="100.02533">
<time>2014-08-04T21:27:32Z</time></trkpt>
<trkpt lat="25.559883" lon="100.02528">
<time>2014-08-04T21:27:33Z</time></trkpt>
<trkpt lat="25.559823" lon="100.025241">
<time>2014-08-04T21:27:34Z</time></trkpt>
<trkpt lat="25.559763" lon="100.025201">
<time>2014-08-04T21:27:35Z</time></trkpt>
<trkpt lat="25.559674" lon="100.025151">
<time>2014-08-04T21:27:36Z</time></trkpt>
<trkpt lat="25.559634" lon="100.025131">
<time>2014-08-04T21:27:37Z</time></trkpt>
<trkpt lat="25.559564" lon="100.025101">
<time>2014-08-04T21:27:38Z</time></trkpt>
<trkpt lat="25.559474" lon="100.025061">
<time>2014-08-04T21:27:39Z</time></trkpt>
<trkpt lat="25.559364" lon="100.025021">
<time>2014-08-04T21:27:40Z</time></trkpt>
<trkpt lat="25.559264" lon="100.024971">
<time>2014-08-04T21:27:41Z</time></trkpt>
<trkpt lat="25.559144" lon="100.024932">
<time>2014-08-04T21:27:42Z</time></trkpt>
<trkpt lat="25.559074" lon="100.024902">
<time>2014-08-04T21:27:43Z</time></trkpt>
<trkpt lat="25.558964" lon="100.024862">
<time>2014-08-04T21:27:44Z</time></trkpt>
<trkpt lat="25.558854" lon="100.024832">
<time>2014-08-04T21:27:45Z</time></trkpt>
<trkpt lat="25.558744" lon="100.024802">
<time>2014-08-04T21:27:46Z</time></trkpt>
<trkpt lat="25.558624" lon="100.024772">
<time>2014-08-04T21:27:47Z</time></trkpt>
<trkpt lat="25.558504" lon="100.024752">
<time>2014-08-04T21:27:48Z</time></trkpt>
<trkpt lat="25.558424" lon="100.024732">
<time>2014-08-04T21:27:49Z</time></trkpt>
<trkpt lat="25.558314" lon="100.024712">
<time>2014-08-04T21:27:50Z</time></trkpt>
<trkpt lat="25.558224" lon="100.024692">
<time>2014-08-04T21:27:51Z</time></trkpt>
<trkpt lat="25.558134" lon="100.024682">
<time>2014-08-04T21:27:52Z</time></trkpt>
<trkpt lat="25.558044" lon="100.024662">
<time>2014-08-04T21:27:53Z</time></trkpt>
<trkpt lat="25.557944" lon="100.024652">
<time>2014-08-04T21:27:54Z</time></trkpt>
<trkpt lat="25.557834" lon="100.024632">
<time>2014-08-04T21:27:55Z</time></trkpt>
<trkpt lat="25.557744" lon="100.024613">
<time>2014-08-04T21:27:56Z</time></trkpt>
<trkpt lat="25.557634" lon="100.024583">
<time>2014-08-04T21:27:57Z</time></trkpt>
<trkpt lat="25.557514" lon="100.024553">
<time>2014-08-04T21:27:58Z</time></trkpt>
<trkpt lat="25.557434" lon="100.024533">
<time>2014-08-04T21:27:59Z</time></trkpt>
<trkpt lat="25.557324" lon="100.024503">
<time>2014-08-04T21:28:00Z</time></trkpt>
<trkpt lat="25.557225" lon="100.024473">
<time>2014-08-04T21:28:01Z</time></trkpt>
<trkpt lat="25.557155" lon="100.024453">
<time>2014-08-04T21:28:02Z</time></trkpt>
<trkpt lat="25.557095" lon="100.024433">
<time>2014-08-04T21:28:03Z</time></trkpt>
<trkpt lat="25.557025" lon="100.024413">
<time>2014-08-04T21:28:04Z</time></trkpt>
<trkpt lat="25.556945" lon="100.024383">
<time>2014-08-04T21:28:05Z</time></trkpt>
<trkpt lat="25.556875" lon="100.024353">
<time>2014-08-04T21:28:06Z</time></trkpt>
<trkpt lat="25.556745" lon="100.024313">
<time>2014-08-04T21:28:07Z</time></trkpt>
<trkpt lat="25.556615" lon="100.024274">
<time>2014-08-04T21:28:08Z</time></trkpt>
<trkpt lat="25.556475" lon="100.024234">
<time>2014-08-04T21:28:09Z</time></trkpt>
<trkpt lat="25.556365" lon="100.024194">
<time>2014-08-04T21:28:10Z</time></trkpt>
<trkpt lat="25.556225" lon="100.024154">
<time>2014-08-04T21:28:11Z</time></trkpt>
<trkpt lat="25.556105" lon="100.024134">
<time>2014-08-04T21:28:12Z</time></trkpt>
<trkpt lat="25.555985" lon="100.024114">
<time>2014-08-04T21:28:13Z</time></trkpt>
<trkpt lat="25.555895" lon="100.024104">
<time>2014-08-04T21:28:14Z</time></trkpt>
<trkpt lat="25.555805" lon="100.024094">
<time>2014-08-04T21:28:15Z</time></trkpt>
<trkpt lat="25.555545" lon="100.024094">
<time>2014-08-04T21:28:16Z</time></trkpt>
<trkpt lat="25.555205" lon="100.024114">
<time>2014-08-04T21:28:17Z</time></trkpt>
<trkpt lat="25.554875" lon="100.024144">
<time>2014-08-04T21:28:18Z</time></trkpt>
<trkpt lat="25.554544" lon="100.024174">
<time>2014-08-04T21:28:19Z</time></trkpt>
<trkpt lat="25.554034" lon="100.024244">
<time>2014-08-04T21:28:20Z</time></trkpt>
<trkpt lat="25.553894" lon="100.024254">
<time>2014-08-04T21:28:21Z</time></trkpt>
<trkpt lat="25.553764" lon="100.024254">
<time>2014-08-04T21:28:22Z</time></trkpt>
<trkpt lat="25.553584" lon="100.024244">
<time>2014-08-04T21:28:23Z</time></trkpt>
<trkpt lat="25.553494" lon="100.024234">
<time>2014-08-04T21:28:24Z</time></trkpt>
<trkpt lat="25.553404" lon="100.024214">
<time>2014-08-04T21:28:25Z</time></trkpt>
<trkpt lat="25.553294" lon="100.024184">
<time>2014-08-04T21:28:26Z</time></trkpt>
<trkpt lat="25.553154" lon="100.024124">
<time>2014-08-04T21:28:27Z</time></trkpt>
<trkpt lat="25.553034" lon="100.024044">
<time>2014-08-04T21:28:28Z</time></trkpt>
<trkpt lat="25.552964" lon="100.023975">
<time>2014-08-04T21:28:29Z</time></trkpt>
<trkpt lat="25.552885" lon="100.023865">
<time>2014-08-04T21:28:30Z</time></trkpt>
<trkpt lat="25.552805" lon="100.023775">
<time>2014-08-04T21:28:31Z</time></trkpt>
<trkpt lat="25.552735" lon="100.023675">
<time>2014-08-04T21:28:32Z</time></trkpt>
<trkpt lat="25.552655" lon="100.023566">
<time>2014-08-04T21:28:33Z</time></trkpt>
<trkpt lat="25.552546" lon="100.023436">
<time>2014-08-04T21:28:34Z</time></trkpt>
<trkpt lat="25.552436" lon="100.023327">
<time>2014-08-04T21:28:35Z</time></trkpt>
<trkpt lat="25.551697" lon="100.022649">
<time>2014-08-04T21:28:36Z</time></trkpt>
<trkpt lat="25.551578" lon="100.022549">
<time>2014-08-04T21:28:37Z</time></trkpt>
<trkpt lat="25.551438" lon="100.022459">
<time>2014-08-04T21:28:38Z</time></trkpt>
<trkpt lat="25.550609" lon="100.021911">
<time>2014-08-04T21:28:39Z</time></trkpt>
<trkpt lat="25.55" lon="100.021532">
<time>2014-08-04T21:28:40Z</time></trkpt>
<trkpt lat="25.54986" lon="100.021472">
<time>2014-08-04T21:28:41Z</time></trkpt>
<trkpt lat="25.54972" lon="100.021412">
<time>2014-08-04T21:28:42Z</time></trkpt>
<trkpt lat="25.54958" lon="100.021353">
<time>2014-08-04T21:28:43Z</time></trkpt>
<trkpt lat="25.54945" lon="100.021313">
<time>2014-08-04T21:28:44Z</time></trkpt>
<trkpt lat="25.54929" lon="100.021273">
<time>2014-08-04T21:28:45Z</time></trkpt>
<trkpt lat="25.54915" lon="100.021253">
<time>2014-08-04T21:28:46Z</time></trkpt>
<trkpt lat="25.54895" lon="100.021253">
<time>2014-08-04T21:28:47Z</time></trkpt>
<trkpt lat="25.54867" lon="100.021253">
<time>2014-08-04T21:28:48Z</time></trkpt>
<trkpt lat="25.5472" lon="100.021193">
<time>2014-08-04T21:28:49Z</time></trkpt>
<trkpt lat="25.54686" lon="100.021163">
<time>2014-08-04T21:28:50Z</time></trkpt>
<trkpt lat="25.5467" lon="100.021143">
<time>2014-08-04T21:28:51Z</time></trkpt>
<trkpt lat="25.54652" lon="100.021103">
<time>2014-08-04T21:28:52Z</time></trkpt>
<trkpt lat="25.54635" lon="100.021044">
<time>2014-08-04T21:28:53Z</time></trkpt>
<trkpt lat="25.54618" lon="100.020934">
<time>2014-08-04T21:28:54Z</time></trkpt>
<trkpt lat="25.546061" lon="100.020814">
<time>2014-08-04T21:28:55Z</time></trkpt>
<trkpt lat="25.545742" lon="100.020236">
<time>2014-08-04T21:28:56Z</time></trkpt>
<trkpt lat="25.545593" lon="100.019937">
<time>2014-08-04T21:28:57Z</time></trkpt>
<trkpt lat="25.545334" lon="100.019449">
<time>2014-08-04T21:28:58Z</time></trkpt>
<trkpt lat="25.545235" lon="100.019319">
<time>2014-08-04T21:28:59Z</time></trkpt>
<trkpt lat="25.545085" lon="100.01916">
<time>2014-08-04T21:29:00Z</time></trkpt>
<trkpt lat="25.544756" lon="100.018831">
<time>2014-08-04T21:29:01Z</time></trkpt>
<trkpt lat="25.544476" lon="100.018541">
<time>2014-08-04T21:29:02Z</time></trkpt>
<trkpt lat="25.544287" lon="100.018332">
<time>2014-08-04T21:29:03Z</time></trkpt>
<trkpt lat="25.544177" lon="100.018242">
<time>2014-08-04T21:29:04Z</time></trkpt>
<trkpt lat="25.544057" lon="100.018183">
<time>2014-08-04T21:29:05Z</time></trkpt>
<trkpt lat="25.543847" lon="100.018113">
<time>2014-08-04T21:29:06Z</time></trkpt>
<trkpt lat="25.543388" lon="100.017993">
<time>2014-08-04T21:29:07Z</time></trkpt>
<trkpt lat="25.543198" lon="100.017913">
<time>2014-08-04T21:29:08Z</time></trkpt>
<trkpt lat="25.542958" lon="100.017814">
<time>2014-08-04T21:29:09Z</time></trkpt>
<trkpt lat="25.542189" lon="100.017455">
<time>2014-08-04T21:29:10Z</time></trkpt>
<trkpt lat="25.541759" lon="100.017305">
<time>2014-08-04T21:29:11Z</time></trkpt>
<trkpt lat="25.541329" lon="100.017136">
<time>2014-08-04T21:29:12Z</time></trkpt>
<trkpt lat="25.54117" lon="100.017066">
<time>2014-08-04T21:29:13Z</time></trkpt>
<trkpt lat="25.541" lon="100.017006">
<time>2014-08-04T21:29:14Z</time></trkpt>
<trkpt lat="25.54059" lon="100.016907">
<time>2014-08-04T21:29:15Z</time></trkpt>
<trkpt lat="25.54022" lon="100.016817">
<time>2014-08-04T21:29:16Z</time></trkpt>
<trkpt lat="25.54005" lon="100.016767">
<time>2014-08-04T21:29:17Z</time></trkpt>
<trkpt lat="25.539121" lon="100.016408">
<time>2014-08-04T21:29:18Z</time></trkpt>
<trkpt lat="25.539041" lon="100.016368">
<time>2014-08-04T21:29:19Z</time></trkpt>
<trkpt lat="25.538961" lon="100.016309">
<time>2014-08-04T21:29:20Z</time></trkpt>
<trkpt lat="25.538891" lon="100.016259">
<time>2014-08-04T21:29:21Z</time></trkpt>
<trkpt lat="25.538821" lon="100.016209">
<time>2014-08-04T21:29:22Z</time></trkpt>
<trkpt lat="25.538751" lon="100.016169">
<time>2014-08-04T21:29:23Z</time></trkpt>
<trkpt lat="25.538681" lon="100.016149">
<time>2014-08-04T21:29:24Z</time></trkpt>
<trkpt lat="25.538351" lon="100.016069">
<time>2014-08-04T21:29:25Z</time></trkpt>
<trkpt lat="25.537782" lon="100.01593">
<time>2014-08-04T21:29:26Z</time></trkpt>
<trkpt lat="25.537252" lon="100.01576">
<time>2014-08-04T21:29:27Z</time></trkpt>
<trkpt lat="25.536862" lon="100.015581">
<time>2014-08-04T21:29:28Z</time></trkpt>
<trkpt lat="25.536652" lon="100.015481">
<time>2014-08-04T21:29:29Z</time></trkpt>
<trkpt lat="25.536433" lon="100.015392">
<time>2014-08-04T21:29:30Z</time></trkpt>
<trkpt lat="25.535853" lon="100.015172">
<time>2014-08-04T21:29:31Z</time></trkpt>
<trkpt lat="25.535234" lon="100.014913">
<time>2014-08-04T21:29:32Z</time></trkpt>
<trkpt lat="25.534534" lon="100.014604">
<time>2014-08-04T21:29:33Z</time></trkpt>
<trkpt lat="25.534254" lon="100.014514">
<time>2014-08-04T21:29:34Z</time></trkpt>
<trkpt lat="25.534005" lon="100.014445">
<time>2014-08-04T21:29:35Z</time></trkpt>
<trkpt lat="25.533765" lon="100.014335">
<time>2014-08-04T21:29:36Z</time></trkpt>
<trkpt lat="25.533545" lon="100.014156">
<time>2014-08-04T21:29:37Z</time></trkpt>
<trkpt lat="25.533436" lon="100.014036">
<time>2014-08-04T21:29:38Z</time></trkpt>
<trkpt lat="25.533336" lon="100.013876">
<time>2014-08-04T21:29:39Z</time></trkpt>
<trkpt lat="25.533266" lon="100.013757">
<time>2014-08-04T21:29:40Z</time></trkpt>
<trkpt lat="25.533227" lon="100.013667">
<time>2014-08-04T21:29:41Z</time></trkpt>
<trkpt lat="25.533197" lon="100.013577">
<time>2014-08-04T21:29:42Z</time></trkpt>
<trkpt lat="25.533167" lon="100.013438">
<time>2014-08-04T21:29:43Z</time></trkpt>
<trkpt lat="25.533157" lon="100.013358">
<time>2014-08-04T21:29:44Z</time></trkpt>
<trkpt lat="25.533148" lon="100.013268">
<time>2014-08-04T21:29:45Z</time></trkpt>
<trkpt lat="25.533148" lon="100.013209">
<time>2014-08-04T21:29:46Z</time></trkpt>
<trkpt lat="25.533148" lon="100.013079">
<time>2014-08-04T21:29:47Z</time></trkpt>
<trkpt lat="25.533149" lon="100.01293">
<time>2014-08-04T21:29:48Z</time></trkpt>
<trkpt lat="25.533159" lon="100.01279">
<time>2014-08-04T21:29:49Z</time></trkpt>
<trkpt lat="25.53317" lon="100.01264">
<time>2014-08-04T21:29:50Z</time></trkpt>
<trkpt lat="25.53317" lon="100.012501">
<time>2014-08-04T21:29:51Z</time></trkpt>
<trkpt lat="25.53318" lon="100.012341">
<time>2014-08-04T21:29:52Z</time></trkpt>
<trkpt lat="25.533171" lon="100.012142">
<time>2014-08-04T21:29:53Z</time></trkpt>
<trkpt lat="25.533162" lon="100.011943">
<time>2014-08-04T21:29:54Z</time></trkpt>
<trkpt lat="25.533142" lon="100.011773">
<time>2014-08-04T21:29:55Z</time></trkpt>
<trkpt lat="25.533113" lon="100.011574">
<time>2014-08-04T21:29:56Z</time></trkpt>
<trkpt lat="25.533073" lon="100.011375">
<time>2014-08-04T21:29:57Z</time></trkpt>
<trkpt lat="25.533054" lon="100.011235">
<time>2014-08-04T21:29:58Z</time></trkpt>
<trkpt lat="25.533014" lon="100.011115">
<time>2014-08-04T21:29:59Z</time></trkpt>
<trkpt lat="25.532964" lon="100.010996">
<time>2014-08-04T21:30:00Z</time></trkpt>
<trkpt lat="25.532905" lon="100.010836">
<time>2014-08-04T21:30:01Z</time></trkpt>
<trkpt lat="25.532855" lon="100.010737">
<time>2014-08-04T21:30:02Z</time></trkpt>
<trkpt lat="25.532795" lon="100.010617">
<time>2014-08-04T21:30:03Z</time></trkpt>
<trkpt lat="25.532736" lon="100.010507">
<time>2014-08-04T21:30:04Z</time></trkpt>
<trkpt lat="25.532626" lon="100.010388">
<time>2014-08-04T21:30:05Z</time></trkpt>
<trkpt lat="25.532546" lon="100.010268">
<time>2014-08-04T21:30:06Z</time></trkpt>
<trkpt lat="25.532447" lon="100.010119">
<time>2014-08-04T21:30:07Z</time></trkpt>
<trkpt lat="25.532327" lon="100.009939">
<time>2014-08-04T21:30:08Z</time></trkpt>
<trkpt lat="25.532208" lon="100.00981">
<time>2014-08-04T21:30:09Z</time></trkpt>
<trkpt lat="25.532108" lon="100.0097">
<time>2014-08-04T21:30:10Z</time></trkpt>
<trkpt lat="25.532018" lon="100.0096">
<time>2014-08-04T21:30:11Z</time></trkpt>
<trkpt lat="25.531899" lon="100.009491">
<time>2014-08-04T21:30:12Z</time></trkpt>
<trkpt lat="25.531789" lon="100.009411">
<time>2014-08-04T21:30:13Z</time></trkpt>
<trkpt lat="25.531659" lon="100.009311">
<time>2014-08-04T21:30:14Z</time></trkpt>
<trkpt lat="25.531549" lon="100.009251">
<time>2014-08-04T21:30:15Z</time></trkpt>
<trkpt lat="25.531449" lon="100.009202">
<time>2014-08-04T21:30:16Z</time></trkpt>
<trkpt lat="25.531339" lon="100.009122">
<time>2014-08-04T21:30:17Z</time></trkpt>
<trkpt lat="25.53123" lon="100.009022">
<time>2014-08-04T21:30:18Z</time></trkpt>
<trkpt lat="25.53108" lon="100.008873">
<time>2014-08-04T21:30:19Z</time></trkpt>
<trkpt lat="25.530891" lon="100.008594">
<time>2014-08-04T21:30:20Z</time></trkpt>
<trkpt lat="25.530742" lon="100.008364">
<time>2014-08-04T21:30:21Z</time></trkpt>
<trkpt lat="25.530632" lon="100.008145">
<time>2014-08-04T21:30:22Z</time></trkpt>
<trkpt lat="25.530503" lon="100.007836">
<time>2014-08-04T21:30:23Z</time></trkpt>
<trkpt lat="25.530453" lon="100.007707">
<time>2014-08-04T21:30:24Z</time></trkpt>
<trkpt lat="25.530007" lon="100.00659">
<time>2014-08-04T21:30:25Z</time></trkpt>
<trkpt lat="25.529937" lon="100.006401">
<time>2014-08-04T21:30:26Z</time></trkpt>
<trkpt lat="25.529808" lon="100.006172">
<time>2014-08-04T21:30:27Z</time></trkpt>
<trkpt lat="25.529688" lon="100.006002">
<time>2014-08-04T21:30:28Z</time></trkpt>
<trkpt lat="25.529459" lon="100.005803">
<time>2014-08-04T21:30:29Z</time></trkpt>
<trkpt lat="25.529259" lon="100.005633">
<time>2014-08-04T21:30:30Z</time></trkpt>
<trkpt lat="25.52917" lon="100.005504">
<time>2014-08-04T21:30:31Z</time></trkpt>
<trkpt lat="25.52908" lon="100.005344">
<time>2014-08-04T21:30:32Z</time></trkpt>
<trkpt lat="25.528911" lon="100.004995">
<time>2014-08-04T21:30:33Z</time></trkpt>
<trkpt lat="25.528632" lon="100.004537">
<time>2014-08-04T21:30:34Z</time></trkpt>
<trkpt lat="25.528383" lon="100.004178">
<time>2014-08-04T21:30:35Z</time></trkpt>
<trkpt lat="25.528244" lon="100.003909">
<time>2014-08-04T21:30:36Z</time></trkpt>
<trkpt lat="25.528165" lon="100.00373">
<time>2014-08-04T21:30:37Z</time></trkpt>
<trkpt lat="25.528075" lon="100.0035">
<time>2014-08-04T21:30:38Z</time></trkpt>
<trkpt lat="25.527787" lon="100.002783">
<time>2014-08-04T21:30:39Z</time></trkpt>
<trkpt lat="25.527648" lon="100.002404">
<time>2014-08-04T21:30:40Z</time></trkpt>
<trkpt lat="25.527589" lon="100.002264">
<time>2014-08-04T21:30:41Z</time></trkpt>
<trkpt lat="25.527519" lon="100.002105">
<time>2014-08-04T21:30:42Z</time></trkpt>
<trkpt lat="25.52745" lon="100.001946">
<time>2014-08-04T21:30:43Z</time></trkpt>
<trkpt lat="25.527271" lon="100.001637">
<time>2014-08-04T21:30:44Z</time></trkpt>
<trkpt lat="25.526952" lon="100.001138">
<time>2014-08-04T21:30:45Z</time></trkpt>
<trkpt lat="25.526334" lon="100.000411">
<time>2014-08-04T21:30:46Z</time></trkpt>
<trkpt lat="25.525965" lon="100.000012">
<time>2014-08-04T21:30:47Z</time></trkpt>
<trkpt lat="25.525427" lon="99.999484">
<time>2014-08-04T21:30:48Z</time></trkpt>
<trkpt lat="25.524918" lon="99.998975">
<time>2014-08-04T21:30:49Z</time></trkpt>
<trkpt lat="25.52411" lon="99.998218">
<time>2014-08-04T21:30:50Z</time></trkpt>
<trkpt lat="25.523711" lon="99.997889">
<time>2014-08-04T21:30:51Z</time></trkpt>
<trkpt lat="25.523451" lon="99.99768">
<time>2014-08-04T21:30:52Z</time></trkpt>
<trkpt lat="25.523062" lon="99.99746">
<time>2014-08-04T21:30:53Z</time></trkpt>
<trkpt lat="25.522782" lon="99.997331">
<time>2014-08-04T21:30:54Z</time></trkpt>
<trkpt lat="25.522232" lon="99.997181">
<time>2014-08-04T21:30:55Z</time></trkpt>
<trkpt lat="25.520663" lon="99.996833">
<time>2014-08-04T21:30:56Z</time></trkpt>
<trkpt lat="25.520193" lon="99.996793">
<time>2014-08-04T21:30:57Z</time></trkpt>
<trkpt lat="25.519903" lon="99.996743">
<time>2014-08-04T21:30:58Z</time></trkpt>
<trkpt lat="25.519573" lon="99.996673">
<time>2014-08-04T21:30:59Z</time></trkpt>
<trkpt lat="25.518803" lon="99.996474">
<time>2014-08-04T21:31:00Z</time></trkpt>
<trkpt lat="25.518504" lon="99.996344">
<time>2014-08-04T21:31:01Z</time></trkpt>
<trkpt lat="25.518284" lon="99.996265">
<time>2014-08-04T21:31:02Z</time></trkpt>
<trkpt lat="25.517885" lon="99.995995">
<time>2014-08-04T21:31:03Z</time></trkpt>
<trkpt lat="25.51559" lon="99.994072">
<time>2014-08-04T21:31:04Z</time></trkpt>
<trkpt lat="25.51522" lon="99.993843">
<time>2014-08-04T21:31:05Z</time></trkpt>
<trkpt lat="25.51475" lon="99.993693">
<time>2014-08-04T21:31:06Z</time></trkpt>
<trkpt lat="25.514261" lon="99.993613">
<time>2014-08-04T21:31:07Z</time></trkpt>
<trkpt lat="25.5136" lon="99.993583">
<time>2014-08-04T21:31:08Z</time></trkpt>
<trkpt lat="25.51339" lon="99.993603">
<time>2014-08-04T21:31:09Z</time></trkpt>
<trkpt lat="25.51312" lon="99.993663">
<time>2014-08-04T21:31:10Z</time></trkpt>
<trkpt lat="25.51288" lon="99.993713">
<time>2014-08-04T21:31:11Z</time></trkpt>
<trkpt lat="25.51277" lon="99.993713">
<time>2014-08-04T21:31:12Z</time></trkpt>
<trkpt lat="25.51261" lon="99.993693">
<time>2014-08-04T21:31:13Z</time></trkpt>
<trkpt lat="25.5125" lon="99.993663">
<time>2014-08-04T21:31:14Z</time></trkpt>
<trkpt lat="25.51239" lon="99.993613">
<time>2014-08-04T21:31:15Z</time></trkpt>
<trkpt lat="25.51225" lon="99.993524">
<time>2014-08-04T21:31:16Z</time></trkpt>
<trkpt lat="25.512021" lon="99.993334">
<time>2014-08-04T21:31:17Z</time></trkpt>
<trkpt lat="25.511502" lon="99.992766">
<time>2014-08-04T21:31:18Z</time></trkpt>
<trkpt lat="25.510794" lon="99.992039">
<time>2014-08-04T21:31:19Z</time></trkpt>
<trkpt lat="25.510694" lon="99.991939">
<time>2014-08-04T21:31:20Z</time></trkpt>
<trkpt lat="25.510276" lon="99.991331">
<time>2014-08-04T21:31:21Z</time></trkpt>
<trkpt lat="25.509729" lon="99.990344">
<time>2014-08-04T21:31:22Z</time></trkpt>
<trkpt lat="25.50949" lon="99.989946">
<time>2014-08-04T21:31:23Z</time></trkpt>
<trkpt lat="25.509231" lon="99.989607">
<time>2014-08-04T21:31:24Z</time></trkpt>
<trkpt lat="25.508912" lon="99.989248">
<time>2014-08-04T21:31:25Z</time></trkpt>
<trkpt lat="25.508523" lon="99.988829">
<time>2014-08-04T21:31:26Z</time></trkpt>
<trkpt lat="25.508463" lon="99.988769">
<time>2014-08-04T21:31:27Z</time></trkpt>
<trkpt lat="25.508304" lon="99.98864">
<time>2014-08-04T21:31:28Z</time></trkpt>
<trkpt lat="25.507994" lon="99.988411">
<time>2014-08-04T21:31:29Z</time></trkpt>
<trkpt lat="25.507805" lon="99.988271">
<time>2014-08-04T21:31:30Z</time></trkpt>
<trkpt lat="25.507625" lon="99.988161">
<time>2014-08-04T21:31:31Z</time></trkpt>
<trkpt lat="25.507475" lon="99.988072">
<time>2014-08-04T21:31:32Z</time></trkpt>
<trkpt lat="25.507245" lon="99.987962">
<time>2014-08-04T21:31:33Z</time></trkpt>
<trkpt lat="25.507085" lon="99.987892">
<time>2014-08-04T21:31:34Z</time></trkpt>
<trkpt lat="25.506936" lon="99.987852">
<time>2014-08-04T21:31:35Z</time></trkpt>
<trkpt lat="25.506845" lon="99.987862">
<time>2014-08-04T21:31:36Z</time></trkpt>
<trkpt lat="25.506415" lon="99.987922">
<time>2014-08-04T21:31:37Z</time></trkpt>
<trkpt lat="25.506275" lon="99.987942">
<time>2014-08-04T21:31:38Z</time></trkpt>
<trkpt lat="25.506215" lon="99.987952">
<time>2014-08-04T21:31:39Z</time></trkpt>
<trkpt lat="25.506175" lon="99.987962">
<time>2014-08-04T21:31:40Z</time></trkpt>
<trkpt lat="25.506115" lon="99.987962">
<time>2014-08-04T21:31:41Z</time></trkpt>
<trkpt lat="25.506045" lon="99.987962">
<time>2014-08-04T21:31:42Z</time></trkpt>
<trkpt lat="25.505975" lon="99.987972">
<time>2014-08-04T21:31:43Z</time></trkpt>
<trkpt lat="25.505895" lon="99.987982">
<time>2014-08-04T21:31:44Z</time></trkpt>
<trkpt lat="25.505855" lon="99.987992">
<time>2014-08-04T21:31:45Z</time></trkpt>
<trkpt lat="25.505835" lon="99.987992">
<time>2014-08-04T21:31:46Z</time></trkpt>
<trkpt lat="25.505825" lon="99.988002">
<time>2014-08-04T21:31:47Z</time></trkpt>
<trkpt lat="25.505805" lon="99.988002">
<time>2014-08-04T21:31:48Z</time></trkpt>
<trkpt lat="25.505775" lon="99.988012">
<time>2014-08-04T21:31:49Z</time></trkpt>
<trkpt lat="25.505755" lon="99.988022">
<time>2014-08-04T21:31:50Z</time></trkpt>
<trkpt lat="25.505735" lon="99.988032">
<time>2014-08-04T21:31:51Z</time></trkpt>
<trkpt lat="25.505544" lon="99.988132">
<time>2014-08-04T21:31:52Z</time></trkpt>
<trkpt lat="25.505474" lon="99.988161">
<time>2014-08-04T21:31:53Z</time></trkpt>
<trkpt lat="25.505424" lon="99.988181">
<time>2014-08-04T21:31:54Z</time></trkpt>
<trkpt lat="25.505364" lon="99.988191">
<time>2014-08-04T21:31:55Z</time></trkpt>
<trkpt lat="25.505274" lon="99.988211">
<time>2014-08-04T21:31:56Z</time></trkpt>
<trkpt lat="25.505154" lon="99.988231">
<time>2014-08-04T21:31:57Z</time></trkpt>
<trkpt lat="25.505114" lon="99.988231">
<time>2014-08-04T21:31:58Z</time></trkpt>
<trkpt lat="25.505044" lon="99.988221">
<time>2014-08-04T21:31:59Z</time></trkpt>
<trkpt lat="25.504994" lon="99.988221">
<time>2014-08-04T21:32:00Z</time></trkpt>
<trkpt lat="25.504944" lon="99.988201">
<time>2014-08-04T21:32:01Z</time></trkpt>
<trkpt lat="25.504894" lon="99.988191">
<time>2014-08-04T21:32:02Z</time></trkpt>
<trkpt lat="25.504844" lon="99.988171">
<time>2014-08-04T21:32:03Z</time></trkpt>
<trkpt lat="25.504734" lon="99.988122">
<time>2014-08-04T21:32:04Z</time></trkpt>
<trkpt lat="25.504644" lon="99.988082">
<time>2014-08-04T21:32:05Z</time></trkpt>
<trkpt lat="25.504554" lon="99.988032">
<time>2014-08-04T21:32:06Z</time></trkpt>
<trkpt lat="25.504474" lon="99.987972">
<time>2014-08-04T21:32:07Z</time></trkpt>
<trkpt lat="25.504325" lon="99.987833">
<time>2014-08-04T21:32:08Z</time></trkpt>
<trkpt lat="25.504175" lon="99.987833">
<time>2014-08-04T21:32:09Z</time></trkpt>
<trkpt lat="25.504145" lon="99.987833">
<time>2014-08-04T21:32:10Z</time></trkpt>
<trkpt lat="25.504065" lon="99.987842">
<time>2014-08-04T21:32:11Z</time></trkpt>
<trkpt lat="25.503975" lon="99.987852">
<time>2014-08-04T21:32:12Z</time></trkpt>
<trkpt lat="25.503915" lon="99.987862">
<time>2014-08-04T21:32:13Z</time></trkpt>
<trkpt lat="25.503834" lon="99.987862">
<time>2014-08-04T21:32:14Z</time></trkpt>
<trkpt lat="25.503754" lon="99.987862">
<time>2014-08-04T21:32:15Z</time></trkpt>
<trkpt lat="25.503634" lon="99.987842">
<time>2014-08-04T21:32:16Z</time></trkpt>
<trkpt lat="25.503565" lon="99.987823">
<time>2014-08-04T21:32:17Z</time></trkpt>
<trkpt lat="25.503475" lon="99.987803">
<time>2014-08-04T21:32:18Z</time></trkpt>
<trkpt lat="25.503405" lon="99.987763">
<time>2014-08-04T21:32:19Z</time></trkpt>
<trkpt lat="25.503325" lon="99.987723">
<time>2014-08-04T21:32:20Z</time></trkpt>
<trkpt lat="25.503265" lon="99.987693">
<time>2014-08-04T21:32:21Z</time></trkpt>
<trkpt lat="25.502965" lon="99.987494">
<time>2014-08-04T21:32:22Z</time></trkpt>
<trkpt lat="25.502816" lon="99.987404">
<time>2014-08-04T21:32:23Z</time></trkpt>
<trkpt lat="25.502746" lon="99.987364">
<time>2014-08-04T21:32:24Z</time></trkpt>
<trkpt lat="25.502666" lon="99.987324">
<time>2014-08-04T21:32:25Z</time></trkpt>
<trkpt lat="25.502506" lon="99.987264">
<time>2014-08-04T21:32:26Z</time></trkpt>
<trkpt lat="25.502316" lon="99.987205">
<time>2014-08-04T21:32:27Z</time></trkpt>
<trkpt lat="25.501207" lon="99.986906">
<time>2014-08-04T21:32:28Z</time></trkpt>
<trkpt lat="25.501027" lon="99.986856">
<time>2014-08-04T21:32:29Z</time></trkpt>
<trkpt lat="25.500777" lon="99.986776">
<time>2014-08-04T21:32:30Z</time></trkpt>
<trkpt lat="25.500567" lon="99.986686">
<time>2014-08-04T21:32:31Z</time></trkpt>
<trkpt lat="25.500317" lon="99.986587">
<time>2014-08-04T21:32:32Z</time></trkpt>
<trkpt lat="25.500017" lon="99.986457">
<time>2014-08-04T21:32:33Z</time></trkpt>
<trkpt lat="25.499908" lon="99.986427">
<time>2014-08-04T21:32:34Z</time></trkpt>
<trkpt lat="25.499768" lon="99.986357">
<time>2014-08-04T21:32:35Z</time></trkpt>
<trkpt lat="25.499658" lon="99.986308">
<time>2014-08-04T21:32:36Z</time></trkpt>
<trkpt lat="25.499478" lon="99.986208">
<time>2014-08-04T21:32:37Z</time></trkpt>
<trkpt lat="25.499318" lon="99.986108">
<time>2014-08-04T21:32:38Z</time></trkpt>
<trkpt lat="25.499139" lon="99.985989">
<time>2014-08-04T21:32:39Z</time></trkpt>
<trkpt lat="25.498889" lon="99.985809">
<time>2014-08-04T21:32:40Z</time></trkpt>
<trkpt lat="25.498789" lon="99.985729">
<time>2014-08-04T21:32:41Z</time></trkpt>
<trkpt lat="25.49865" lon="99.98563">
<time>2014-08-04T21:32:42Z</time></trkpt>
<trkpt lat="25.49857" lon="99.98556">
<time>2014-08-04T21:32:43Z</time></trkpt>
<trkpt lat="25.4985" lon="99.98549">
<time>2014-08-04T21:32:44Z</time></trkpt>
<trkpt lat="25.49844" lon="99.98543">
<time>2014-08-04T21:32:45Z</time></trkpt>
<trkpt lat="25.49839" lon="99.985351">
<time>2014-08-04T21:32:46Z</time></trkpt>
<trkpt lat="25.498321" lon="99.985251">
<time>2014-08-04T21:32:47Z</time></trkpt>
<trkpt lat="25.498241" lon="99.985121">
<time>2014-08-04T21:32:48Z</time></trkpt>
<trkpt lat="25.498191" lon="99.985062">
<time>2014-08-04T21:32:49Z</time></trkpt>
<trkpt lat="25.498141" lon="99.984982">
<time>2014-08-04T21:32:50Z</time></trkpt>
<trkpt lat="25.498061" lon="99.984902">
<time>2014-08-04T21:32:51Z</time></trkpt>
<trkpt lat="25.497892" lon="99.984753">
<time>2014-08-04T21:32:52Z</time></trkpt>
<trkpt lat="25.497742" lon="99.984633">
<time>2014-08-04T21:32:53Z</time></trkpt>
<trkpt lat="25.497632" lon="99.984553">
<time>2014-08-04T21:32:54Z</time></trkpt>
<trkpt lat="25.497443" lon="99.984414">
<time>2014-08-04T21:32:55Z</time></trkpt>
<trkpt lat="25.497323" lon="99.984354">
<time>2014-08-04T21:32:56Z</time></trkpt>
<trkpt lat="25.497213" lon="99.984294">
<time>2014-08-04T21:32:57Z</time></trkpt>
<trkpt lat="25.496983" lon="99.984174">
<time>2014-08-04T21:32:58Z</time></trkpt>
<trkpt lat="25.496833" lon="99.984105">
<time>2014-08-04T21:32:59Z</time></trkpt>
<trkpt lat="25.496644" lon="99.984015">
<time>2014-08-04T21:33:00Z</time></trkpt>
<trkpt lat="25.496534" lon="99.983965">
<time>2014-08-04T21:33:01Z</time></trkpt>
<trkpt lat="25.496414" lon="99.983905">
<time>2014-08-04T21:33:02Z</time></trkpt>
<trkpt lat="25.496304" lon="99.983875">
<time>2014-08-04T21:33:03Z</time></trkpt>
<trkpt lat="25.496184" lon="99.983836">
<time>2014-08-04T21:33:04Z</time></trkpt>
<trkpt lat="25.495984" lon="99.983776">
<time>2014-08-04T21:33:05Z</time></trkpt>
<trkpt lat="25.495734" lon="99.983686">
<time>2014-08-04T21:33:06Z</time></trkpt>
<trkpt lat="25.495554" lon="99.983626">
<time>2014-08-04T21:33:07Z</time></trkpt>
<trkpt lat="25.495335" lon="99.983547">
<time>2014-08-04T21:33:08Z</time></trkpt>
<trkpt lat="25.495165" lon="99.983497">
<time>2014-08-04T21:33:09Z</time></trkpt>
<trkpt lat="25.495045" lon="99.983467">
<time>2014-08-04T21:33:10Z</time></trkpt>
<trkpt lat="25.494915" lon="99.983447">
<time>2014-08-04T21:33:11Z</time></trkpt>
<trkpt lat="25.494675" lon="99.983397">
<time>2014-08-04T21:33:12Z</time></trkpt>
<trkpt lat="25.494485" lon="99.983357">
<time>2014-08-04T21:33:13Z</time></trkpt>
<trkpt lat="25.494165" lon="99.983297">
<time>2014-08-04T21:33:14Z</time></trkpt>
<trkpt lat="25.494025" lon="99.983267">
<time>2014-08-04T21:33:15Z</time></trkpt>
<trkpt lat="25.493875" lon="99.983228">
<time>2014-08-04T21:33:16Z</time></trkpt>
<trkpt lat="25.493695" lon="99.983178">
<time>2014-08-04T21:33:17Z</time></trkpt>
<trkpt lat="25.493545" lon="99.983148">
<time>2014-08-04T21:33:18Z</time></trkpt>
<trkpt lat="25.493405" lon="99.983108">
<time>2014-08-04T21:33:19Z</time></trkpt>
<trkpt lat="25.493275" lon="99.983088">
<time>2014-08-04T21:33:20Z</time></trkpt>
<trkpt lat="25.493135" lon="99.983058">
<time>2014-08-04T21:33:21Z</time></trkpt>
<trkpt lat="25.492975" lon="99.983028">
<time>2014-08-04T21:33:22Z</time></trkpt>
<trkpt lat="25.492865" lon="99.982998">
<time>2014-08-04T21:33:23Z</time></trkpt>
<trkpt lat="25.492736" lon="99.982968">
<time>2014-08-04T21:33:24Z</time></trkpt>
<trkpt lat="25.492626" lon="99.982929">
<time>2014-08-04T21:33:25Z</time></trkpt>
<trkpt lat="25.492546" lon="99.982909">
<time>2014-08-04T21:33:26Z</time></trkpt>
<trkpt lat="25.492466" lon="99.982859">
<time>2014-08-04T21:33:27Z</time></trkpt>
<trkpt lat="25.492396" lon="99.982809">
<time>2014-08-04T21:33:28Z</time></trkpt>
<trkpt lat="25.492306" lon="99.982749">
<time>2014-08-04T21:33:29Z</time></trkpt>
<trkpt lat="25.492266" lon="99.982699">
<time>2014-08-04T21:33:30Z</time></trkpt>
<trkpt lat="25.492206" lon="99.98262">
<time>2014-08-04T21:33:31Z</time></trkpt>
<trkpt lat="25.492177" lon="99.98254">
<time>2014-08-04T21:33:32Z</time></trkpt>
<trkpt lat="25.492157" lon="99.98247">
<time>2014-08-04T21:33:33Z</time></trkpt>
<trkpt lat="25.492137" lon="99.98238">
<time>2014-08-04T21:33:34Z</time></trkpt>
<trkpt lat="25.492127" lon="99.982311">
<time>2014-08-04T21:33:35Z</time></trkpt>
<trkpt lat="25.492138" lon="99.982211">
<time>2014-08-04T21:33:36Z</time></trkpt>
<trkpt lat="25.492148" lon="99.982091">
<time>2014-08-04T21:33:37Z</time></trkpt>
<trkpt lat="25.492178" lon="99.981902">
<time>2014-08-04T21:33:38Z</time></trkpt>
<trkpt lat="25.492199" lon="99.981752">
<time>2014-08-04T21:33:39Z</time></trkpt>
<trkpt lat="25.492301" lon="99.981204">
<time>2014-08-04T21:33:40Z</time></trkpt>
<trkpt lat="25.492372" lon="99.980765">
<time>2014-08-04T21:33:41Z</time></trkpt>
<trkpt lat="25.492402" lon="99.980546">
<time>2014-08-04T21:33:42Z</time></trkpt>
<trkpt lat="25.492433" lon="99.980387">
<time>2014-08-04T21:33:43Z</time></trkpt>
<trkpt lat="25.492443" lon="99.980317">
<time>2014-08-04T21:33:44Z</time></trkpt>
<trkpt lat="25.492484" lon="99.980197">
<time>2014-08-04T21:33:45Z</time></trkpt>
<trkpt lat="25.492524" lon="99.980078">
<time>2014-08-04T21:33:46Z</time></trkpt>
<trkpt lat="25.492574" lon="99.979968">
<time>2014-08-04T21:33:47Z</time></trkpt>
<trkpt lat="25.492625" lon="99.979858">
<time>2014-08-04T21:33:48Z</time></trkpt>
<trkpt lat="25.492665" lon="99.979749">
<time>2014-08-04T21:33:49Z</time></trkpt>
<trkpt lat="25.492685" lon="99.979669">
<time>2014-08-04T21:33:50Z</time></trkpt>
<trkpt lat="25.492695" lon="99.979599">
<time>2014-08-04T21:33:51Z</time></trkpt>
<trkpt lat="25.492696" lon="99.979529">
<time>2014-08-04T21:33:52Z</time></trkpt>
<trkpt lat="25.492696" lon="99.97946">
<time>2014-08-04T21:33:53Z</time></trkpt>
<trkpt lat="25.492676" lon="99.9794">
<time>2014-08-04T21:33:54Z</time></trkpt>
<trkpt lat="25.492656" lon="99.97935">
<time>2014-08-04T21:33:55Z</time></trkpt>
<trkpt lat="25.492626" lon="99.97928">
<time>2014-08-04T21:33:56Z</time></trkpt>
<trkpt lat="25.492596" lon="99.97923">
<time>2014-08-04T21:33:57Z</time></trkpt>
<trkpt lat="25.492487" lon="99.979011">
<time>2014-08-04T21:33:58Z</time></trkpt>
<trkpt lat="25.492447" lon="99.978941">
<time>2014-08-04T21:33:59Z</time></trkpt>
<trkpt lat="25.492417" lon="99.978871">
<time>2014-08-04T21:34:00Z</time></trkpt>
<trkpt lat="25.492407" lon="99.978822">
<time>2014-08-04T21:34:01Z</time></trkpt>
<trkpt lat="25.492408" lon="99.978762">
<time>2014-08-04T21:34:02Z</time></trkpt>
<trkpt lat="25.492408" lon="99.978682">
<time>2014-08-04T21:34:03Z</time></trkpt>
<trkpt lat="25.492428" lon="99.978592">
<time>2014-08-04T21:34:04Z</time></trkpt>
<trkpt lat="25.492448" lon="99.978513">
<time>2014-08-04T21:34:05Z</time></trkpt>
<trkpt lat="25.492509" lon="99.978263">
<time>2014-08-04T21:34:06Z</time></trkpt>
<trkpt lat="25.49257" lon="99.978014">
<time>2014-08-04T21:34:07Z</time></trkpt>
<trkpt lat="25.49261" lon="99.977835">
<time>2014-08-04T21:34:08Z</time></trkpt>
<trkpt lat="25.492641" lon="99.977625">
<time>2014-08-04T21:34:09Z</time></trkpt>
<trkpt lat="25.492702" lon="99.977246">
<time>2014-08-04T21:34:10Z</time></trkpt>
<trkpt lat="25.492774" lon="99.976738">
<time>2014-08-04T21:34:11Z</time></trkpt>
<trkpt lat="25.492814" lon="99.976419">
<time>2014-08-04T21:34:12Z</time></trkpt>
<trkpt lat="25.492845" lon="99.97614">
<time>2014-08-04T21:34:13Z</time></trkpt>
<trkpt lat="25.492856" lon="99.97595">
<time>2014-08-04T21:34:14Z</time></trkpt>
<trkpt lat="25.492846" lon="99.975801">
<time>2014-08-04T21:34:15Z</time></trkpt>
<trkpt lat="25.492837" lon="99.975671">
<time>2014-08-04T21:34:16Z</time></trkpt>
<trkpt lat="25.492827" lon="99.975572">
<time>2014-08-04T21:34:17Z</time></trkpt>
<trkpt lat="25.492797" lon="99.975442">
<time>2014-08-04T21:34:18Z</time></trkpt>
<trkpt lat="25.492768" lon="99.975322">
<time>2014-08-04T21:34:19Z</time></trkpt>
<trkpt lat="25.492708" lon="99.975173">
<time>2014-08-04T21:34:20Z</time></trkpt>
<trkpt lat="25.492589" lon="99.974944">
<time>2014-08-04T21:34:21Z</time></trkpt>
<trkpt lat="25.492519" lon="99.974834">
<time>2014-08-04T21:34:22Z</time></trkpt>
<trkpt lat="25.492389" lon="99.974615">
<time>2014-08-04T21:34:23Z</time></trkpt>
<trkpt lat="25.49224" lon="99.974425">
<time>2014-08-04T21:34:24Z</time></trkpt>
<trkpt lat="25.491951" lon="99.974016">
<time>2014-08-04T21:34:25Z</time></trkpt>
<trkpt lat="25.491692" lon="99.973657">
<time>2014-08-04T21:34:26Z</time></trkpt>
<trkpt lat="25.491503" lon="99.973398">
<time>2014-08-04T21:34:27Z</time></trkpt>
<trkpt lat="25.491393" lon="99.973249">
<time>2014-08-04T21:34:28Z</time></trkpt>
<trkpt lat="25.491134" lon="99.9729">
<time>2014-08-04T21:34:29Z</time></trkpt>
<trkpt lat="25.491104" lon="99.97286">
<time>2014-08-04T21:34:30Z</time></trkpt>
<trkpt lat="25.490964" lon="99.97267">
<time>2014-08-04T21:34:31Z</time></trkpt>
<trkpt lat="25.490725" lon="99.972351">
<time>2014-08-04T21:34:32Z</time></trkpt>
<trkpt lat="25.490675" lon="99.972262">
<time>2014-08-04T21:34:33Z</time></trkpt>
<trkpt lat="25.490626" lon="99.972162">
<time>2014-08-04T21:34:34Z</time></trkpt>
<trkpt lat="25.490596" lon="99.972082">
<time>2014-08-04T21:34:35Z</time></trkpt>
<trkpt lat="25.490576" lon="99.971992">
<time>2014-08-04T21:34:36Z</time></trkpt>
<trkpt lat="25.490566" lon="99.971903">
<time>2014-08-04T21:34:37Z</time></trkpt>
<trkpt lat="25.490577" lon="99.971823">
<time>2014-08-04T21:34:38Z</time></trkpt>
<trkpt lat="25.490587" lon="99.971723">
<time>2014-08-04T21:34:39Z</time></trkpt>
<trkpt lat="25.490627" lon="99.971604">
<time>2014-08-04T21:34:40Z</time></trkpt>
<trkpt lat="25.490718" lon="99.971364">
<time>2014-08-04T21:34:41Z</time></trkpt>
<trkpt lat="25.490768" lon="99.971235">
<time>2014-08-04T21:34:42Z</time></trkpt>
<trkpt lat="25.490869" lon="99.970906">
<time>2014-08-04T21:34:43Z</time></trkpt>
<trkpt lat="25.49091" lon="99.970766">
<time>2014-08-04T21:34:44Z</time></trkpt>
<trkpt lat="25.49093" lon="99.970646">
<time>2014-08-04T21:34:45Z</time></trkpt>
<trkpt lat="25.49096" lon="99.970457">
<time>2014-08-04T21:34:46Z</time></trkpt>
<trkpt lat="25.490981" lon="99.970297">
<time>2014-08-04T21:34:47Z</time></trkpt>
<trkpt lat="25.490991" lon="99.970198">
<time>2014-08-04T21:34:48Z</time></trkpt>
<trkpt lat="25.491001" lon="99.970088">
<time>2014-08-04T21:34:49Z</time></trkpt>
<trkpt lat="25.491002" lon="99.969958">
<time>2014-08-04T21:34:50Z</time></trkpt>
<trkpt lat="25.490992" lon="99.969859">
<time>2014-08-04T21:34:51Z</time></trkpt>
<trkpt lat="25.490983" lon="99.969639">
<time>2014-08-04T21:34:52Z</time></trkpt>
<trkpt lat="25.490973" lon="99.96959">
<time>2014-08-04T21:34:53Z</time></trkpt>
<trkpt lat="25.490953" lon="99.96942">
<time>2014-08-04T21:34:54Z</time></trkpt>
<trkpt lat="25.490924" lon="99.96929">
<time>2014-08-04T21:34:55Z</time></trkpt>
<trkpt lat="25.490914" lon="99.969201">
<time>2014-08-04T21:34:56Z</time></trkpt>
<trkpt lat="25.490894" lon="99.969131">
<time>2014-08-04T21:34:57Z</time></trkpt>
<trkpt lat="25.490874" lon="99.969061">
<time>2014-08-04T21:34:58Z</time></trkpt>
<trkpt lat="25.490844" lon="99.969001">
<time>2014-08-04T21:34:59Z</time></trkpt>
<trkpt lat="25.490805" lon="99.968921">
<time>2014-08-04T21:35:00Z</time></trkpt>
<trkpt lat="25.490755" lon="99.968812">
<time>2014-08-04T21:35:01Z</time></trkpt>
<trkpt lat="25.490665" lon="99.968672">
<time>2014-08-04T21:35:02Z</time></trkpt>
<trkpt lat="25.490546" lon="99.968503">
<time>2014-08-04T21:35:03Z</time></trkpt>
<trkpt lat="25.490266" lon="99.968134">
<time>2014-08-04T21:35:04Z</time></trkpt>
<trkpt lat="25.490067" lon="99.967884">
<time>2014-08-04T21:35:05Z</time></trkpt>
<trkpt lat="25.489957" lon="99.967735">
<time>2014-08-04T21:35:06Z</time></trkpt>
<trkpt lat="25.489878" lon="99.967595">
<time>2014-08-04T21:35:07Z</time></trkpt>
<trkpt lat="25.489818" lon="99.967496">
<time>2014-08-04T21:35:08Z</time></trkpt>
<trkpt lat="25.489758" lon="99.967356">
<time>2014-08-04T21:35:09Z</time></trkpt>
<trkpt lat="25.489719" lon="99.967256">
<time>2014-08-04T21:35:10Z</time></trkpt>
<trkpt lat="25.489679" lon="99.967117">
<time>2014-08-04T21:35:11Z</time></trkpt>
<trkpt lat="25.489649" lon="99.966967">
<time>2014-08-04T21:35:12Z</time></trkpt>
<trkpt lat="25.48963" lon="99.966847">
<time>2014-08-04T21:35:13Z</time></trkpt>
<trkpt lat="25.48962" lon="99.966738">
<time>2014-08-04T21:35:14Z</time></trkpt>
<trkpt lat="25.489601" lon="99.966508">
<time>2014-08-04T21:35:15Z</time></trkpt>
<trkpt lat="25.489591" lon="99.966229">
<time>2014-08-04T21:35:16Z</time></trkpt>
<trkpt lat="25.489572" lon="99.96589">
<time>2014-08-04T21:35:17Z</time></trkpt>
<trkpt lat="25.489562" lon="99.965771">
<time>2014-08-04T21:35:18Z</time></trkpt>
<trkpt lat="25.489553" lon="99.965611">
<time>2014-08-04T21:35:19Z</time></trkpt>
<trkpt lat="25.489523" lon="99.965481">
<time>2014-08-04T21:35:20Z</time></trkpt>
<trkpt lat="25.489474" lon="99.965322">
<time>2014-08-04T21:35:21Z</time></trkpt>
<trkpt lat="25.489354" lon="99.965023">
<time>2014-08-04T21:35:22Z</time></trkpt>
<trkpt lat="25.489295" lon="99.964893">
<time>2014-08-04T21:35:23Z</time></trkpt>
<trkpt lat="25.489175" lon="99.964574">
<time>2014-08-04T21:35:24Z</time></trkpt>
<trkpt lat="25.489116" lon="99.964394">
<time>2014-08-04T21:35:25Z</time></trkpt>
<trkpt lat="25.488967" lon="99.963916">
<time>2014-08-04T21:35:26Z</time></trkpt>
<trkpt lat="25.488927" lon="99.963816">
<time>2014-08-04T21:35:27Z</time></trkpt>
<trkpt lat="25.488878" lon="99.963706">
<time>2014-08-04T21:35:28Z</time></trkpt>
<trkpt lat="25.488828" lon="99.963607">
<time>2014-08-04T21:35:29Z</time></trkpt>
<trkpt lat="25.488758" lon="99.963497">
<time>2014-08-04T21:35:30Z</time></trkpt>
<trkpt lat="25.488608" lon="99.963287">
<time>2014-08-04T21:35:31Z</time></trkpt>
<trkpt lat="25.488529" lon="99.963198">
<time>2014-08-04T21:35:32Z</time></trkpt>
<trkpt lat="25.488459" lon="99.963128">
<time>2014-08-04T21:35:33Z</time></trkpt>
<trkpt lat="25.488359" lon="99.963038">
<time>2014-08-04T21:35:34Z</time></trkpt>
<trkpt lat="25.488269" lon="99.962968">
<time>2014-08-04T21:35:35Z</time></trkpt>
<trkpt lat="25.488159" lon="99.962908">
<time>2014-08-04T21:35:36Z</time></trkpt>
<trkpt lat="25.488069" lon="99.962869">
<time>2014-08-04T21:35:37Z</time></trkpt>
<trkpt lat="25.487959" lon="99.962819">
<time>2014-08-04T21:35:38Z</time></trkpt>
<trkpt lat="25.48783" lon="99.962789">
<time>2014-08-04T21:35:39Z</time></trkpt>
<trkpt lat="25.48774" lon="99.962769">
<time>2014-08-04T21:35:40Z</time></trkpt>
<trkpt lat="25.48764" lon="99.962759">
<time>2014-08-04T21:35:41Z</time></trkpt>
<trkpt lat="25.487339" lon="99.962749">
<time>2014-08-04T21:35:42Z</time></trkpt>
<trkpt lat="25.487109" lon="99.962719">
<time>2014-08-04T21:35:43Z</time></trkpt>
<trkpt lat="25.486939" lon="99.962709">
<time>2014-08-04T21:35:44Z</time></trkpt>
<trkpt lat="25.486709" lon="99.962699">
<time>2014-08-04T21:35:45Z</time></trkpt>
<trkpt lat="25.486559" lon="99.962719">
<time>2014-08-04T21:35:46Z</time></trkpt>
<trkpt lat="25.486399" lon="99.962729">
<time>2014-08-04T21:35:47Z</time></trkpt>
<trkpt lat="25.486249" lon="99.962739">
<time>2014-08-04T21:35:48Z</time></trkpt>
<trkpt lat="25.486089" lon="99.962739">
<time>2014-08-04T21:35:49Z</time></trkpt>
<trkpt lat="25.485979" lon="99.962729">
<time>2014-08-04T21:35:50Z</time></trkpt>
<trkpt lat="25.485889" lon="99.962719">
<time>2014-08-04T21:35:51Z</time></trkpt>
<trkpt lat="25.485789" lon="99.962689">
<time>2014-08-04T21:35:52Z</time></trkpt>
<trkpt lat="25.485699" lon="99.962649">
<time>2014-08-04T21:35:53Z</time></trkpt>
<trkpt lat="25.485629" lon="99.962619">
<time>2014-08-04T21:35:54Z</time></trkpt>
<trkpt lat="25.485559" lon="99.962579">
<time>2014-08-04T21:35:55Z</time></trkpt>
<trkpt lat="25.48548" lon="99.96251">
<time>2014-08-04T21:35:56Z</time></trkpt>
<trkpt lat="25.48538" lon="99.96242">
<time>2014-08-04T21:35:57Z</time></trkpt>
<trkpt lat="25.48521" lon="99.96225">
<time>2014-08-04T21:35:58Z</time></trkpt>
<trkpt lat="25.484971" lon="99.961971">
<time>2014-08-04T21:35:59Z</time></trkpt>
<trkpt lat="25.484881" lon="99.961871">
<time>2014-08-04T21:36:00Z</time></trkpt>
<trkpt lat="25.484821" lon="99.961772">
<time>2014-08-04T21:36:01Z</time></trkpt>
<trkpt lat="25.484771" lon="99.961672">
<time>2014-08-04T21:36:02Z</time></trkpt>
<trkpt lat="25.484732" lon="99.961552">
<time>2014-08-04T21:36:03Z</time></trkpt>
<trkpt lat="25.484692" lon="99.961383">
<time>2014-08-04T21:36:04Z</time></trkpt>
<trkpt lat="25.484653" lon="99.961143">
<time>2014-08-04T21:36:05Z</time></trkpt>
<trkpt lat="25.484643" lon="99.961024">
<time>2014-08-04T21:36:06Z</time></trkpt>
<trkpt lat="25.484604" lon="99.960605">
<time>2014-08-04T21:36:07Z</time></trkpt>
<trkpt lat="25.484584" lon="99.960435">
<time>2014-08-04T21:36:08Z</time></trkpt>
<trkpt lat="25.484585" lon="99.960276">
<time>2014-08-04T21:36:09Z</time></trkpt>
<trkpt lat="25.484585" lon="99.960146">
<time>2014-08-04T21:36:10Z</time></trkpt>
<trkpt lat="25.484595" lon="99.959996">
<time>2014-08-04T21:36:11Z</time></trkpt>
<trkpt lat="25.484627" lon="99.959548">
<time>2014-08-04T21:36:12Z</time></trkpt>
<trkpt lat="25.484657" lon="99.959198">
<time>2014-08-04T21:36:13Z</time></trkpt>
<trkpt lat="25.484668" lon="99.959059">
<time>2014-08-04T21:36:14Z</time></trkpt>
<trkpt lat="25.484668" lon="99.958889">
<time>2014-08-04T21:36:15Z</time></trkpt>
<trkpt lat="25.484668" lon="99.95875">
<time>2014-08-04T21:36:16Z</time></trkpt>
<trkpt lat="25.484659" lon="99.95863">
<time>2014-08-04T21:36:17Z</time></trkpt>
<trkpt lat="25.484639" lon="99.95848">
<time>2014-08-04T21:36:18Z</time></trkpt>
<trkpt lat="25.484599" lon="99.958331">
<time>2014-08-04T21:36:19Z</time></trkpt>
<trkpt lat="25.48456" lon="99.958191">
<time>2014-08-04T21:36:20Z</time></trkpt>
<trkpt lat="25.484441" lon="99.957832">
<time>2014-08-04T21:36:21Z</time></trkpt>
<trkpt lat="25.484381" lon="99.957662">
<time>2014-08-04T21:36:22Z</time></trkpt>
<trkpt lat="25.484361" lon="99.957553">
<time>2014-08-04T21:36:23Z</time></trkpt>
<trkpt lat="25.484341" lon="99.957463">
<time>2014-08-04T21:36:24Z</time></trkpt>
<trkpt lat="25.484332" lon="99.957383">
<time>2014-08-04T21:36:25Z</time></trkpt>
<trkpt lat="25.484332" lon="99.957323">
<time>2014-08-04T21:36:26Z</time></trkpt>
<trkpt lat="25.484342" lon="99.957184">
<time>2014-08-04T21:36:27Z</time></trkpt>
<trkpt lat="25.484362" lon="99.957044">
<time>2014-08-04T21:36:28Z</time></trkpt>
<trkpt lat="25.484403" lon="99.956805">
<time>2014-08-04T21:36:29Z</time></trkpt>
<trkpt lat="25.484464" lon="99.956545">
<time>2014-08-04T21:36:30Z</time></trkpt>
<trkpt lat="25.484474" lon="99.956406">
<time>2014-08-04T21:36:31Z</time></trkpt>
<trkpt lat="25.484484" lon="99.956266">
<time>2014-08-04T21:36:32Z</time></trkpt>
<trkpt lat="25.484485" lon="99.956126">
<time>2014-08-04T21:36:33Z</time></trkpt>
<trkpt lat="25.484485" lon="99.956047">
<time>2014-08-04T21:36:34Z</time></trkpt>
<trkpt lat="25.484465" lon="99.955967">
<time>2014-08-04T21:36:35Z</time></trkpt>
<trkpt lat="25.484425" lon="99.955877">
<time>2014-08-04T21:36:36Z</time></trkpt>
<trkpt lat="25.484365" lon="99.955797">
<time>2014-08-04T21:36:37Z</time></trkpt>
<trkpt lat="25.484315" lon="99.955737">
<time>2014-08-04T21:36:38Z</time></trkpt>
<trkpt lat="25.484266" lon="99.955687">
<time>2014-08-04T21:36:39Z</time></trkpt>
<trkpt lat="25.484176" lon="99.955628">
<time>2014-08-04T21:36:40Z</time></trkpt>
<trkpt lat="25.483956" lon="99.955478">
<time>2014-08-04T21:36:41Z</time></trkpt>
<trkpt lat="25.483866" lon="99.955408">
<time>2014-08-04T21:36:42Z</time></trkpt>
<trkpt lat="25.483786" lon="99.955338">
<time>2014-08-04T21:36:43Z</time></trkpt>
<trkpt lat="25.483716" lon="99.955239">
<time>2014-08-04T21:36:44Z</time></trkpt>
<trkpt lat="25.483607" lon="99.955099">
<time>2014-08-04T21:36:45Z</time></trkpt>
<trkpt lat="25.483537" lon="99.954979">
<time>2014-08-04T21:36:46Z</time></trkpt>
<trkpt lat="25.483457" lon="99.954879">
<time>2014-08-04T21:36:47Z</time></trkpt>
<trkpt lat="25.483327" lon="99.95474">
<time>2014-08-04T21:36:48Z</time></trkpt>
<trkpt lat="25.483148" lon="99.95456">
<time>2014-08-04T21:36:49Z</time></trkpt>
<trkpt lat="25.483058" lon="99.95447">
<time>2014-08-04T21:36:50Z</time></trkpt>
<trkpt lat="25.483008" lon="99.954411">
<time>2014-08-04T21:36:51Z</time></trkpt>
<trkpt lat="25.482968" lon="99.954351">
<time>2014-08-04T21:36:52Z</time></trkpt>
<trkpt lat="25.482938" lon="99.954291">
<time>2014-08-04T21:36:53Z</time></trkpt>
<trkpt lat="25.482928" lon="99.954221">
<time>2014-08-04T21:36:54Z</time></trkpt>
<trkpt lat="25.482919" lon="99.954141">
<time>2014-08-04T21:36:55Z</time></trkpt>
<trkpt lat="25.482929" lon="99.954052">
<time>2014-08-04T21:36:56Z</time></trkpt>
<trkpt lat="25.482959" lon="99.953832">
<time>2014-08-04T21:36:57Z</time></trkpt>
<trkpt lat="25.48298" lon="99.953742">
<time>2014-08-04T21:36:58Z</time></trkpt>
<trkpt lat="25.48299" lon="99.953672">
<time>2014-08-04T21:36:59Z</time></trkpt>
<trkpt lat="25.483" lon="99.953583">
<time>2014-08-04T21:37:00Z</time></trkpt>
<trkpt lat="25.483" lon="99.953433">
<time>2014-08-04T21:37:01Z</time></trkpt>
<trkpt lat="25.482991" lon="99.953273">
<time>2014-08-04T21:37:02Z</time></trkpt>
<trkpt lat="25.482971" lon="99.952894">
<time>2014-08-04T21:37:03Z</time></trkpt>
<trkpt lat="25.482962" lon="99.952745">
<time>2014-08-04T21:37:04Z</time></trkpt>
<trkpt lat="25.482972" lon="99.952605">
<time>2014-08-04T21:37:05Z</time></trkpt>
<trkpt lat="25.482982" lon="99.952485">
<time>2014-08-04T21:37:06Z</time></trkpt>
<trkpt lat="25.483003" lon="99.952386">
<time>2014-08-04T21:37:07Z</time></trkpt>
<trkpt lat="25.483023" lon="99.952306">
<time>2014-08-04T21:37:08Z</time></trkpt>
<trkpt lat="25.483063" lon="99.952196">
<time>2014-08-04T21:37:09Z</time></trkpt>
<trkpt lat="25.483123" lon="99.952076">
<time>2014-08-04T21:37:10Z</time></trkpt>
<trkpt lat="25.483184" lon="99.951966">
<time>2014-08-04T21:37:11Z</time></trkpt>
<trkpt lat="25.483274" lon="99.951827">
<time>2014-08-04T21:37:12Z</time></trkpt>
<trkpt lat="25.483334" lon="99.951747">
<time>2014-08-04T21:37:13Z</time></trkpt>
<trkpt lat="25.483394" lon="99.951657">
<time>2014-08-04T21:37:14Z</time></trkpt>
<trkpt lat="25.483495" lon="99.951547">
<time>2014-08-04T21:37:15Z</time></trkpt>
<trkpt lat="25.483595" lon="99.951438">
<time>2014-08-04T21:37:16Z</time></trkpt>
<trkpt lat="25.483695" lon="99.951348">
<time>2014-08-04T21:37:17Z</time></trkpt>
<trkpt lat="25.483825" lon="99.951238">
<time>2014-08-04T21:37:18Z</time></trkpt>
<trkpt lat="25.484076" lon="99.951039">
<time>2014-08-04T21:37:19Z</time></trkpt>
<trkpt lat="25.484176" lon="99.950949">
<time>2014-08-04T21:37:20Z</time></trkpt>
<trkpt lat="25.484266" lon="99.950859">
<time>2014-08-04T21:37:21Z</time></trkpt>
<trkpt lat="25.484336" lon="99.950779">
<time>2014-08-04T21:37:22Z</time></trkpt>
<trkpt lat="25.484387" lon="99.950709">
<time>2014-08-04T21:37:23Z</time></trkpt>
<trkpt lat="25.484457" lon="99.9506">
<time>2014-08-04T21:37:24Z</time></trkpt>
<trkpt lat="25.484507" lon="99.95048">
<time>2014-08-04T21:37:25Z</time></trkpt>
<trkpt lat="25.484537" lon="99.95036">
<time>2014-08-04T21:37:26Z</time></trkpt>
<trkpt lat="25.484548" lon="99.95023">
<time>2014-08-04T21:37:27Z</time></trkpt>
<trkpt lat="25.484548" lon="99.950141">
<time>2014-08-04T21:37:28Z</time></trkpt>
<trkpt lat="25.484548" lon="99.949981">
<time>2014-08-04T21:37:29Z</time></trkpt>
<trkpt lat="25.484548" lon="99.949871">
<time>2014-08-04T21:37:30Z</time></trkpt>
<trkpt lat="25.484559" lon="99.949742">
<time>2014-08-04T21:37:31Z</time></trkpt>
<trkpt lat="25.484589" lon="99.949532">
<time>2014-08-04T21:37:32Z</time></trkpt>
<trkpt lat="25.48464" lon="99.949243">
<time>2014-08-04T21:37:33Z</time></trkpt>
<trkpt lat="25.484751" lon="99.948754">
<time>2014-08-04T21:37:34Z</time></trkpt>
<trkpt lat="25.484811" lon="99.948445">
<time>2014-08-04T21:37:35Z</time></trkpt>
<trkpt lat="25.484872" lon="99.948105">
<time>2014-08-04T21:37:36Z</time></trkpt>
<trkpt lat="25.484912" lon="99.948005">
<time>2014-08-04T21:37:37Z</time></trkpt>
<trkpt lat="25.484912" lon="99.947995">
<time>2014-08-04T21:37:38Z</time></trkpt>
<trkpt lat="25.484963" lon="99.947896">
<time>2014-08-04T21:37:39Z</time></trkpt>
<trkpt lat="25.485033" lon="99.947796">
<time>2014-08-04T21:37:40Z</time></trkpt>
<trkpt lat="25.485113" lon="99.947696">
<time>2014-08-04T21:37:41Z</time></trkpt>
<trkpt lat="25.485193" lon="99.947616">
<time>2014-08-04T21:37:42Z</time></trkpt>
<trkpt lat="25.485344" lon="99.947477">
<time>2014-08-04T21:37:43Z</time></trkpt>
<trkpt lat="25.485434" lon="99.947397">
<time>2014-08-04T21:37:44Z</time></trkpt>
<trkpt lat="25.485524" lon="99.947337">
<time>2014-08-04T21:37:45Z</time></trkpt>
<trkpt lat="25.485614" lon="99.947277">
<time>2014-08-04T21:37:46Z</time></trkpt>
<trkpt lat="25.485704" lon="99.947207">
<time>2014-08-04T21:37:47Z</time></trkpt>
<trkpt lat="25.485794" lon="99.947157">
<time>2014-08-04T21:37:48Z</time></trkpt>
<trkpt lat="25.485935" lon="99.947087">
<time>2014-08-04T21:37:49Z</time></trkpt>
<trkpt lat="25.486035" lon="99.947038">
<time>2014-08-04T21:37:50Z</time></trkpt>
<trkpt lat="25.486125" lon="99.946988">
<time>2014-08-04T21:37:51Z</time></trkpt>
<trkpt lat="25.486205" lon="99.946938">
<time>2014-08-04T21:37:52Z</time></trkpt>
<trkpt lat="25.486275" lon="99.946858">
<time>2014-08-04T21:37:53Z</time></trkpt>
<trkpt lat="25.486335" lon="99.946768">
<time>2014-08-04T21:37:54Z</time></trkpt>
<trkpt lat="25.486355" lon="99.946708">
<time>2014-08-04T21:37:55Z</time></trkpt>
<trkpt lat="25.486376" lon="99.946648">
<time>2014-08-04T21:37:56Z</time></trkpt>
<trkpt lat="25.486386" lon="99.946549">
<time>2014-08-04T21:37:57Z</time></trkpt>
<trkpt lat="25.486396" lon="99.946399">
<time>2014-08-04T21:37:58Z</time></trkpt>
<trkpt lat="25.486387" lon="99.94611">
<time>2014-08-04T21:37:59Z</time></trkpt>
<trkpt lat="25.486348" lon="99.945331">
<time>2014-08-04T21:38:00Z</time></trkpt>
<trkpt lat="25.48632" lon="99.944243">
<time>2014-08-04T21:38:01Z</time></trkpt>
<trkpt lat="25.48631" lon="99.944064">
<time>2014-08-04T21:38:02Z</time></trkpt>
<trkpt lat="25.486301" lon="99.943964">
<time>2014-08-04T21:38:03Z</time></trkpt>
<trkpt lat="25.486301" lon="99.943854">
<time>2014-08-04T21:38:04Z</time></trkpt>
<trkpt lat="25.486271" lon="99.943715">
<time>2014-08-04T21:38:05Z</time></trkpt>
<trkpt lat="25.486241" lon="99.943565">
<time>2014-08-04T21:38:06Z</time></trkpt>
<trkpt lat="25.486202" lon="99.943415">
<time>2014-08-04T21:38:07Z</time></trkpt>
<trkpt lat="25.486162" lon="99.943305">
<time>2014-08-04T21:38:08Z</time></trkpt>
<trkpt lat="25.486022" lon="99.942946">
<time>2014-08-04T21:38:09Z</time></trkpt>
<trkpt lat="25.485983" lon="99.942816">
<time>2014-08-04T21:38:10Z</time></trkpt>
<trkpt lat="25.485953" lon="99.942717">
<time>2014-08-04T21:38:11Z</time></trkpt>
<trkpt lat="25.485923" lon="99.942607">
<time>2014-08-04T21:38:12Z</time></trkpt>
<trkpt lat="25.485913" lon="99.942497">
<time>2014-08-04T21:38:13Z</time></trkpt>
<trkpt lat="25.485893" lon="99.942367">
<time>2014-08-04T21:38:14Z</time></trkpt>
<trkpt lat="25.485864" lon="99.941978">
<time>2014-08-04T21:38:15Z</time></trkpt>
<trkpt lat="25.485845" lon="99.941778">
<time>2014-08-04T21:38:16Z</time></trkpt>
<trkpt lat="25.485825" lon="99.941619">
<time>2014-08-04T21:38:17Z</time></trkpt>
<trkpt lat="25.485785" lon="99.941459">
<time>2014-08-04T21:38:18Z</time></trkpt>
<trkpt lat="25.485745" lon="99.941299">
<time>2014-08-04T21:38:19Z</time></trkpt>
<trkpt lat="25.485706" lon="99.94112">
<time>2014-08-04T21:38:20Z</time></trkpt>
<trkpt lat="25.485586" lon="99.9407">
<time>2014-08-04T21:38:21Z</time></trkpt>
<trkpt lat="25.485398" lon="99.940002">
<time>2014-08-04T21:38:22Z</time></trkpt>
<trkpt lat="25.485189" lon="99.939213">
<time>2014-08-04T21:38:23Z</time></trkpt>
<trkpt lat="25.485139" lon="99.939044">
<time>2014-08-04T21:38:24Z</time></trkpt>
<trkpt lat="25.48501" lon="99.938504">
<time>2014-08-04T21:38:25Z</time></trkpt>
<trkpt lat="25.48498" lon="99.938355">
<time>2014-08-04T21:38:26Z</time></trkpt>
<trkpt lat="25.48498" lon="99.938235">
<time>2014-08-04T21:38:27Z</time></trkpt>
<trkpt lat="25.484991" lon="99.938125">
<time>2014-08-04T21:38:28Z</time></trkpt>
<trkpt lat="25.485011" lon="99.937995">
<time>2014-08-04T21:38:29Z</time></trkpt>
<trkpt lat="25.485051" lon="99.937896">
<time>2014-08-04T21:38:30Z</time></trkpt>
<trkpt lat="25.485091" lon="99.937816">
<time>2014-08-04T21:38:31Z</time></trkpt>
<trkpt lat="25.485131" lon="99.937736">
<time>2014-08-04T21:38:32Z</time></trkpt>
<trkpt lat="25.485201" lon="99.937656">
<time>2014-08-04T21:38:33Z</time></trkpt>
<trkpt lat="25.485271" lon="99.937596">
<time>2014-08-04T21:38:34Z</time></trkpt>
<trkpt lat="25.485362" lon="99.937526">
<time>2014-08-04T21:38:35Z</time></trkpt>
<trkpt lat="25.485502" lon="99.937436">
<time>2014-08-04T21:38:36Z</time></trkpt>
<trkpt lat="25.485672" lon="99.937347">
<time>2014-08-04T21:38:37Z</time></trkpt>
<trkpt lat="25.485772" lon="99.937277">
<time>2014-08-04T21:38:38Z</time></trkpt>
<trkpt lat="25.485842" lon="99.937207">
<time>2014-08-04T21:38:39Z</time></trkpt>
<trkpt lat="25.485902" lon="99.937107">
<time>2014-08-04T21:38:40Z</time></trkpt>
<trkpt lat="25.485953" lon="99.937007">
<time>2014-08-04T21:38:41Z</time></trkpt>
<trkpt lat="25.485983" lon="99.936897">
<time>2014-08-04T21:38:42Z</time></trkpt>
<trkpt lat="25.486053" lon="99.936668">
<time>2014-08-04T21:38:43Z</time></trkpt>
<trkpt lat="25.486174" lon="99.936198">
<time>2014-08-04T21:38:44Z</time></trkpt>
<trkpt lat="25.486345" lon="99.935649">
<time>2014-08-04T21:38:45Z</time></trkpt>
<trkpt lat="25.486405" lon="99.93541">
<time>2014-08-04T21:38:46Z</time></trkpt>
<trkpt lat="25.486446" lon="99.93522">
<time>2014-08-04T21:38:47Z</time></trkpt>
<trkpt lat="25.486476" lon="99.93505">
<time>2014-08-04T21:38:48Z</time></trkpt>
<trkpt lat="25.486486" lon="99.934941">
<time>2014-08-04T21:38:49Z</time></trkpt>
<trkpt lat="25.486506" lon="99.934761">
<time>2014-08-04T21:38:50Z</time></trkpt>
<trkpt lat="25.486517" lon="99.934521">
<time>2014-08-04T21:38:51Z</time></trkpt>
<trkpt lat="25.486517" lon="99.934252">
<time>2014-08-04T21:38:52Z</time></trkpt>
<trkpt lat="25.486528" lon="99.933683">
<time>2014-08-04T21:38:53Z</time></trkpt>
<trkpt lat="25.486528" lon="99.933333">
<time>2014-08-04T21:38:54Z</time></trkpt>
<trkpt lat="25.486519" lon="99.932694">
<time>2014-08-04T21:38:55Z</time></trkpt>
<trkpt lat="25.48653" lon="99.932554">
<time>2014-08-04T21:38:56Z</time></trkpt>
<trkpt lat="25.48654" lon="99.932444">
<time>2014-08-04T21:38:57Z</time></trkpt>
<trkpt lat="25.48655" lon="99.932345">
<time>2014-08-04T21:38:58Z</time></trkpt>
<trkpt lat="25.48659" lon="99.932225">
<time>2014-08-04T21:38:59Z</time></trkpt>
<trkpt lat="25.48665" lon="99.932105">
<time>2014-08-04T21:39:00Z</time></trkpt>
<trkpt lat="25.48673" lon="99.931995">
<time>2014-08-04T21:39:01Z</time></trkpt>
<trkpt lat="25.486821" lon="99.931875">
<time>2014-08-04T21:39:02Z</time></trkpt>
<trkpt lat="25.486971" lon="99.931696">
<time>2014-08-04T21:39:03Z</time></trkpt>
<trkpt lat="25.487051" lon="99.931566">
<time>2014-08-04T21:39:04Z</time></trkpt>
<trkpt lat="25.487111" lon="99.931446">
<time>2014-08-04T21:39:05Z</time></trkpt>
<trkpt lat="25.487161" lon="99.931346">
<time>2014-08-04T21:39:06Z</time></trkpt>
<trkpt lat="25.487212" lon="99.931186">
<time>2014-08-04T21:39:07Z</time></trkpt>
<trkpt lat="25.487232" lon="99.931047">
<time>2014-08-04T21:39:08Z</time></trkpt>
<trkpt lat="25.487272" lon="99.930837">
<time>2014-08-04T21:39:09Z</time></trkpt>
<trkpt lat="25.487323" lon="99.930487">
<time>2014-08-04T21:39:10Z</time></trkpt>
<trkpt lat="25.487363" lon="99.930198">
<time>2014-08-04T21:39:11Z</time></trkpt>
<trkpt lat="25.487423" lon="99.929858">
<time>2014-08-04T21:39:12Z</time></trkpt>
<trkpt lat="25.487454" lon="99.929738">
<time>2014-08-04T21:39:13Z</time></trkpt>
<trkpt lat="25.487514" lon="99.929499">
<time>2014-08-04T21:39:14Z</time></trkpt>
<trkpt lat="25.487544" lon="99.929369">
<time>2014-08-04T21:39:15Z</time></trkpt>
<trkpt lat="25.487564" lon="99.929259">
<time>2014-08-04T21:39:16Z</time></trkpt>
<trkpt lat="25.487574" lon="99.929129">
<time>2014-08-04T21:39:17Z</time></trkpt>
<trkpt lat="25.487574" lon="99.929069">
<time>2014-08-04T21:39:18Z</time></trkpt>
<trkpt lat="25.487585" lon="99.929009">
<time>2014-08-04T21:39:19Z</time></trkpt>
<trkpt lat="25.487585" lon="99.929009">
<time>2014-08-04T21:39:20Z</time></trkpt>
<trkpt lat="25.487415" lon="99.92884">
<time>2014-08-04T21:39:21Z</time></trkpt>
<trkpt lat="25.487375" lon="99.9288">
<time>2014-08-04T21:39:22Z</time></trkpt>
<trkpt lat="25.487335" lon="99.92877">
<time>2014-08-04T21:39:23Z</time></trkpt>
<trkpt lat="25.487285" lon="99.92876">
<time>2014-08-04T21:39:24Z</time></trkpt>
<trkpt lat="25.487315" lon="99.9287">
<time>2014-08-04T21:39:25Z</time></trkpt>
<trkpt lat="25.487345" lon="99.92862">
<time>2014-08-04T21:39:26Z</time></trkpt>
<trkpt lat="25.487375" lon="99.92855">
<time>2014-08-04T21:39:27Z</time></trkpt>
<trkpt lat="25.487395" lon="99.92847">
<time>2014-08-04T21:39:28Z</time></trkpt>
<trkpt lat="25.487425" lon="99.9284">
<time>2014-08-04T21:39:29Z</time></trkpt>
<trkpt lat="25.487435" lon="99.92835">
<time>2014-08-04T21:39:30Z</time></trkpt>
<trkpt lat="25.487435" lon="99.92835">
<time>2014-08-04T21:39:31Z</time></trkpt>
<trkpt lat="25.487415" lon="99.9283">
<time>2014-08-04T21:39:32Z</time></trkpt>
<trkpt lat="25.487405" lon="99.92829">
<time>2014-08-04T21:39:33Z</time></trkpt>
<trkpt lat="25.487395" lon="99.92829">
<time>2014-08-04T21:39:34Z</time></trkpt>
<trkpt lat="25.487375" lon="99.92827">
<time>2014-08-04T21:39:35Z</time></trkpt>
<trkpt lat="25.487355" lon="99.92825">
<time>2014-08-04T21:39:36Z</time></trkpt>
<trkpt lat="25.487335" lon="99.92823">
<time>2014-08-04T21:39:37Z</time></trkpt>
<trkpt lat="25.487325" lon="99.92821">
<time>2014-08-04T21:39:38Z</time></trkpt>
<trkpt lat="25.487076" lon="99.927791">
<time>2014-08-04T21:39:39Z</time></trkpt>
<trkpt lat="25.486926" lon="99.927631">
<time>2014-08-04T21:39:40Z</time></trkpt>
<trkpt lat="25.486756" lon="99.927481">
<time>2014-08-04T21:39:41Z</time></trkpt>
<trkpt lat="25.486266" lon="99.927162">
<time>2014-08-04T21:39:42Z</time></trkpt>
<trkpt lat="25.486136" lon="99.927062">
<time>2014-08-04T21:39:43Z</time></trkpt>
<trkpt lat="25.485997" lon="99.926942">
<time>2014-08-04T21:39:44Z</time></trkpt>
<trkpt lat="25.485817" lon="99.926742">
<time>2014-08-04T21:39:45Z</time></trkpt>
<trkpt lat="25.485677" lon="99.926573">
<time>2014-08-04T21:39:46Z</time></trkpt>
<trkpt lat="25.485467" lon="99.926273">
<time>2014-08-04T21:39:47Z</time></trkpt>
<trkpt lat="25.484798" lon="99.925314">
<time>2014-08-04T21:39:48Z</time></trkpt>
<trkpt lat="25.484648" lon="99.925094">
<time>2014-08-04T21:39:49Z</time></trkpt>
<trkpt lat="25.484538" lon="99.924905">
<time>2014-08-04T21:39:50Z</time></trkpt>
<trkpt lat="25.484439" lon="99.924695">
<time>2014-08-04T21:39:51Z</time></trkpt>
<trkpt lat="25.484259" lon="99.924235">
<time>2014-08-04T21:39:52Z</time></trkpt>
<trkpt lat="25.48406" lon="99.923696">
<time>2014-08-04T21:39:53Z</time></trkpt>
<trkpt lat="25.48378" lon="99.922937">
<time>2014-08-04T21:39:54Z</time></trkpt>
<trkpt lat="25.483681" lon="99.922577">
<time>2014-08-04T21:39:55Z</time></trkpt>
<trkpt lat="25.483651" lon="99.922377">
<time>2014-08-04T21:39:56Z</time></trkpt>
<trkpt lat="25.483611" lon="99.922118">
<time>2014-08-04T21:39:57Z</time></trkpt>
<trkpt lat="25.483581" lon="99.921668">
<time>2014-08-04T21:39:58Z</time></trkpt>
<trkpt lat="25.483502" lon="99.920509">
<time>2014-08-04T21:39:59Z</time></trkpt>
<trkpt lat="25.483443" lon="99.91991">
<time>2014-08-04T21:40:00Z</time></trkpt>
<trkpt lat="25.483413" lon="99.91971">
<time>2014-08-04T21:40:01Z</time></trkpt>
<trkpt lat="25.483184" lon="99.918631">
<time>2014-08-04T21:40:02Z</time></trkpt>
<trkpt lat="25.483184" lon="99.918601">
<time>2014-08-04T21:40:03Z</time></trkpt>
<trkpt lat="25.483184" lon="99.918601">
<time>2014-08-04T21:40:04Z</time></trkpt>
<trkpt lat="25.483194" lon="99.918581">
<time>2014-08-04T21:40:05Z</time></trkpt>
<trkpt lat="25.483204" lon="99.918561">
<time>2014-08-04T21:40:06Z</time></trkpt>
<trkpt lat="25.483224" lon="99.918551">
<time>2014-08-04T21:40:07Z</time></trkpt>
<trkpt lat="25.483244" lon="99.918541">
<time>2014-08-04T21:40:08Z</time></trkpt>
<trkpt lat="25.483254" lon="99.918531">
<time>2014-08-04T21:40:09Z</time></trkpt>
<trkpt lat="25.483274" lon="99.918531">
<time>2014-08-04T21:40:10Z</time></trkpt>
<trkpt lat="25.483304" lon="99.918531">
<time>2014-08-04T21:40:11Z</time></trkpt>
<trkpt lat="25.483334" lon="99.918541">
<time>2014-08-04T21:40:12Z</time></trkpt>
<trkpt lat="25.483334" lon="99.918541">
<time>2014-08-04T21:40:13Z</time></trkpt>
<trkpt lat="25.483264" lon="99.918401">
<time>2014-08-04T21:40:14Z</time></trkpt>
<trkpt lat="25.483194" lon="99.918241">
<time>2014-08-04T21:40:15Z</time></trkpt>
<trkpt lat="25.483134" lon="99.918071">
<time>2014-08-04T21:40:16Z</time></trkpt>
<trkpt lat="25.483124" lon="99.918021">
<time>2014-08-04T21:40:17Z</time></trkpt>
<trkpt lat="25.483084" lon="99.917922">
<time>2014-08-04T21:40:18Z</time></trkpt>
<trkpt lat="25.482955" lon="99.917462">
<time>2014-08-04T21:40:19Z</time></trkpt>
<trkpt lat="25.482825" lon="99.917032">
<time>2014-08-04T21:40:20Z</time></trkpt>
<trkpt lat="25.482745" lon="99.916762">
<time>2014-08-04T21:40:21Z</time></trkpt>
<trkpt lat="25.482705" lon="99.916563">
<time>2014-08-04T21:40:22Z</time></trkpt>
<trkpt lat="25.482635" lon="99.916223">
<time>2014-08-04T21:40:23Z</time></trkpt>
<trkpt lat="25.482606" lon="99.915963">
<time>2014-08-04T21:40:24Z</time></trkpt>
<trkpt lat="25.482556" lon="99.915473">
<time>2014-08-04T21:40:25Z</time></trkpt>
<trkpt lat="25.482536" lon="99.915124">
<time>2014-08-04T21:40:26Z</time></trkpt>
<trkpt lat="25.482526" lon="99.914934">
<time>2014-08-04T21:40:27Z</time></trkpt>
<trkpt lat="25.482516" lon="99.914814">
<time>2014-08-04T21:40:28Z</time></trkpt>
<trkpt lat="25.482467" lon="99.914564">
<time>2014-08-04T21:40:29Z</time></trkpt>
<trkpt lat="25.482397" lon="99.914314">
<time>2014-08-04T21:40:30Z</time></trkpt>
<trkpt lat="25.482267" lon="99.913884">
<time>2014-08-04T21:40:31Z</time></trkpt>
<trkpt lat="25.482117" lon="99.913385">
<time>2014-08-04T21:40:32Z</time></trkpt>
<trkpt lat="25.481987" lon="99.912965">
<time>2014-08-04T21:40:33Z</time></trkpt>
<trkpt lat="25.481877" lon="99.912615">
<time>2014-08-04T21:40:34Z</time></trkpt>
<trkpt lat="25.481768" lon="99.912285">
<time>2014-08-04T21:40:35Z</time></trkpt>
<trkpt lat="25.481408" lon="99.911086">
<time>2014-08-04T21:40:36Z</time></trkpt>
<trkpt lat="25.481318" lon="99.910826">
<time>2014-08-04T21:40:37Z</time></trkpt>
<trkpt lat="25.481158" lon="99.910296">
<time>2014-08-04T21:40:38Z</time></trkpt>
<trkpt lat="25.480998" lon="99.909787">
<time>2014-08-04T21:40:39Z</time></trkpt>
<trkpt lat="25.480969" lon="99.909677">
<time>2014-08-04T21:40:40Z</time></trkpt>
<trkpt lat="25.480949" lon="99.909557">
<time>2014-08-04T21:40:41Z</time></trkpt>
<trkpt lat="25.480949" lon="99.909457">
<time>2014-08-04T21:40:42Z</time></trkpt>
<trkpt lat="25.480949" lon="99.909347">
<time>2014-08-04T21:40:43Z</time></trkpt>
<trkpt lat="25.480979" lon="99.909217">
<time>2014-08-04T21:40:44Z</time></trkpt>
<trkpt lat="25.481029" lon="99.909047">
<time>2014-08-04T21:40:45Z</time></trkpt>
<trkpt lat="25.481129" lon="99.908767">
<time>2014-08-04T21:40:46Z</time></trkpt>
<trkpt lat="25.481269" lon="99.908357">
<time>2014-08-04T21:40:47Z</time></trkpt>
<trkpt lat="25.481419" lon="99.907947">
<time>2014-08-04T21:40:48Z</time></trkpt>
<trkpt lat="25.481519" lon="99.907677">
<time>2014-08-04T21:40:49Z</time></trkpt>
<trkpt lat="25.481549" lon="99.907527">
<time>2014-08-04T21:40:50Z</time></trkpt>
<trkpt lat="25.481559" lon="99.907407">
<time>2014-08-04T21:40:51Z</time></trkpt>
<trkpt lat="25.481549" lon="99.907257">
<time>2014-08-04T21:40:52Z</time></trkpt>
<trkpt lat="25.48152" lon="99.907128">
<time>2014-08-04T21:40:53Z</time></trkpt>
<trkpt lat="25.48148" lon="99.907008">
<time>2014-08-04T21:40:54Z</time></trkpt>
<trkpt lat="25.48142" lon="99.906868">
<time>2014-08-04T21:40:55Z</time></trkpt>
<trkpt lat="25.48132" lon="99.906688">
<time>2014-08-04T21:40:56Z</time></trkpt>
<trkpt lat="25.4812" lon="99.906488">
<time>2014-08-04T21:40:57Z</time></trkpt>
<trkpt lat="25.48109" lon="99.906348">
<time>2014-08-04T21:40:58Z</time></trkpt>
<trkpt lat="25.48096" lon="99.906208">
<time>2014-08-04T21:40:59Z</time></trkpt>
<trkpt lat="25.48069" lon="99.905968">
<time>2014-08-04T21:41:00Z</time></trkpt>
<trkpt lat="25.48044" lon="99.905748">
<time>2014-08-04T21:41:01Z</time></trkpt>
<trkpt lat="25.48017" lon="99.905518">
<time>2014-08-04T21:41:02Z</time></trkpt>
<trkpt lat="25.48005" lon="99.905408">
<time>2014-08-04T21:41:03Z</time></trkpt>
<trkpt lat="25.479969" lon="99.905348">
<time>2014-08-04T21:41:04Z</time></trkpt>
<trkpt lat="25.479879" lon="99.905288">
<time>2014-08-04T21:41:05Z</time></trkpt>
<trkpt lat="25.479679" lon="99.905188">
<time>2014-08-04T21:41:06Z</time></trkpt>
<trkpt lat="25.479249" lon="99.904998">
<time>2014-08-04T21:41:07Z</time></trkpt>
<trkpt lat="25.478819" lon="99.904808">
<time>2014-08-04T21:41:08Z</time></trkpt>
<trkpt lat="25.478499" lon="99.904668">
<time>2014-08-04T21:41:09Z</time></trkpt>
<trkpt lat="25.478339" lon="99.904578">
<time>2014-08-04T21:41:10Z</time></trkpt>
<trkpt lat="25.478219" lon="99.904508">
<time>2014-08-04T21:41:11Z</time></trkpt>
<trkpt lat="25.477999" lon="99.904368">
<time>2014-08-04T21:41:12Z</time></trkpt>
<trkpt lat="25.477819" lon="99.904238">
<time>2014-08-04T21:41:13Z</time></trkpt>
<trkpt lat="25.477629" lon="99.904098">
<time>2014-08-04T21:41:14Z</time></trkpt>
<trkpt lat="25.477499" lon="99.903978">
<time>2014-08-04T21:41:15Z</time></trkpt>
<trkpt lat="25.477359" lon="99.903858">
<time>2014-08-04T21:41:16Z</time></trkpt>
<trkpt lat="25.477239" lon="99.903708">
<time>2014-08-04T21:41:17Z</time></trkpt>
<trkpt lat="25.477109" lon="99.903578">
<time>2014-08-04T21:41:18Z</time></trkpt>
<trkpt lat="25.476999" lon="99.903448">
<time>2014-08-04T21:41:19Z</time></trkpt>
<trkpt lat="25.476919" lon="99.903348">
<time>2014-08-04T21:41:20Z</time></trkpt>
<trkpt lat="25.476859" lon="99.903238">
<time>2014-08-04T21:41:21Z</time></trkpt>
<trkpt lat="25.476819" lon="99.903118">
<time>2014-08-04T21:41:22Z</time></trkpt>
<trkpt lat="25.476779" lon="99.902998">
<time>2014-08-04T21:41:23Z</time></trkpt>
<trkpt lat="25.476739" lon="99.902868">
<time>2014-08-04T21:41:24Z</time></trkpt>
<trkpt lat="25.476719" lon="99.902748">
<time>2014-08-04T21:41:25Z</time></trkpt>
<trkpt lat="25.476659" lon="99.902338">
<time>2014-08-04T21:41:26Z</time></trkpt>
<trkpt lat="25.476589" lon="99.901798">
<time>2014-08-04T21:41:27Z</time></trkpt>
<trkpt lat="25.476529" lon="99.901508">
<time>2014-08-04T21:41:28Z</time></trkpt>
<trkpt lat="25.476469" lon="99.901208">
<time>2014-08-04T21:41:29Z</time></trkpt>
<trkpt lat="25.476349" lon="99.900718">
<time>2014-08-04T21:41:30Z</time></trkpt>
<trkpt lat="25.476249" lon="99.900278">
<time>2014-08-04T21:41:31Z</time></trkpt>
<trkpt lat="25.476119" lon="99.899768">
<time>2014-08-04T21:41:32Z</time></trkpt>
<trkpt lat="25.476049" lon="99.899448">
<time>2014-08-04T21:41:33Z</time></trkpt>
<trkpt lat="25.476009" lon="99.899238">
<time>2014-08-04T21:41:34Z</time></trkpt>
<trkpt lat="25.475769" lon="99.898228">
<time>2014-08-04T21:41:35Z</time></trkpt>
<trkpt lat="25.475658" lon="99.897788">
<time>2014-08-04T21:41:36Z</time></trkpt>
<trkpt lat="25.475608" lon="99.897608">
<time>2014-08-04T21:41:37Z</time></trkpt>
<trkpt lat="25.475538" lon="99.897348">
<time>2014-08-04T21:41:38Z</time></trkpt>
<trkpt lat="25.475488" lon="99.897198">
<time>2014-08-04T21:41:39Z</time></trkpt>
<trkpt lat="25.475418" lon="99.897008">
<time>2014-08-04T21:41:40Z</time></trkpt>
<trkpt lat="25.475348" lon="99.896838">
<time>2014-08-04T21:41:41Z</time></trkpt>
<trkpt lat="25.475278" lon="99.896718">
<time>2014-08-04T21:41:42Z</time></trkpt>
<trkpt lat="25.475108" lon="99.896458">
<time>2014-08-04T21:41:43Z</time></trkpt>
<trkpt lat="25.474938" lon="99.896208">
<time>2014-08-04T21:41:44Z</time></trkpt>
<trkpt lat="25.474878" lon="99.896078">
<time>2014-08-04T21:41:45Z</time></trkpt>
<trkpt lat="25.474818" lon="99.895938">
<time>2014-08-04T21:41:46Z</time></trkpt>
<trkpt lat="25.474688" lon="99.895558">
<time>2014-08-04T21:41:47Z</time></trkpt>
<trkpt lat="25.474588" lon="99.895188">
<time>2014-08-04T21:41:48Z</time></trkpt>
<trkpt lat="25.474548" lon="99.895018">
<time>2014-08-04T21:41:49Z</time></trkpt>
<trkpt lat="25.474488" lon="99.894798">
<time>2014-08-04T21:41:50Z</time></trkpt>
<trkpt lat="25.474437" lon="99.894648">
<time>2014-08-04T21:41:51Z</time></trkpt>
<trkpt lat="25.474377" lon="99.894527">
<time>2014-08-04T21:41:52Z</time></trkpt>
<trkpt lat="25.474287" lon="99.894337">
<time>2014-08-04T21:41:53Z</time></trkpt>
<trkpt lat="25.474197" lon="99.894177">
<time>2014-08-04T21:41:54Z</time></trkpt>
<trkpt lat="25.474077" lon="99.894007">
<time>2014-08-04T21:41:55Z</time></trkpt>
<trkpt lat="25.473847" lon="99.893687">
<time>2014-08-04T21:41:56Z</time></trkpt>
<trkpt lat="25.473677" lon="99.893427">
<time>2014-08-04T21:41:57Z</time></trkpt>
<trkpt lat="25.473597" lon="99.893297">
<time>2014-08-04T21:41:58Z</time></trkpt>
<trkpt lat="25.473547" lon="99.893187">
<time>2014-08-04T21:41:59Z</time></trkpt>
<trkpt lat="25.473497" lon="99.893057">
<time>2014-08-04T21:42:00Z</time></trkpt>
<trkpt lat="25.473467" lon="99.892897">
<time>2014-08-04T21:42:01Z</time></trkpt>
<trkpt lat="25.473457" lon="99.892747">
<time>2014-08-04T21:42:02Z</time></trkpt>
<trkpt lat="25.473437" lon="99.892577">
<time>2014-08-04T21:42:03Z</time></trkpt>
<trkpt lat="25.473406" lon="99.892387">
<time>2014-08-04T21:42:04Z</time></trkpt>
<trkpt lat="25.473376" lon="99.892127">
<time>2014-08-04T21:42:05Z</time></trkpt>
<trkpt lat="25.473336" lon="99.891866">
<time>2014-08-04T21:42:06Z</time></trkpt>
<trkpt lat="25.473266" lon="99.891526">
<time>2014-08-04T21:42:07Z</time></trkpt>
<trkpt lat="25.473196" lon="99.891276">
<time>2014-08-04T21:42:08Z</time></trkpt>
<trkpt lat="25.473116" lon="99.891056">
<time>2014-08-04T21:42:09Z</time></trkpt>
<trkpt lat="25.473026" lon="99.890826">
<time>2014-08-04T21:42:10Z</time></trkpt>
<trkpt lat="25.472896" lon="99.890546">
<time>2014-08-04T21:42:11Z</time></trkpt>
<trkpt lat="25.472725" lon="99.890186">
<time>2014-08-04T21:42:12Z</time></trkpt>
<trkpt lat="25.472465" lon="99.889715">
<time>2014-08-04T21:42:13Z</time></trkpt>
<trkpt lat="25.472315" lon="99.889405">
<time>2014-08-04T21:42:14Z</time></trkpt>
<trkpt lat="25.472265" lon="99.889275">
<time>2014-08-04T21:42:15Z</time></trkpt>
<trkpt lat="25.472235" lon="99.889145">
<time>2014-08-04T21:42:16Z</time></trkpt>
<trkpt lat="25.472195" lon="99.888945">
<time>2014-08-04T21:42:17Z</time></trkpt>
<trkpt lat="25.472155" lon="99.888755">
<time>2014-08-04T21:42:18Z</time></trkpt>
<trkpt lat="25.472104" lon="99.888565">
<time>2014-08-04T21:42:19Z</time></trkpt>
<trkpt lat="25.472024" lon="99.888275">
<time>2014-08-04T21:42:20Z</time></trkpt>
<trkpt lat="25.471914" lon="99.887944">
<time>2014-08-04T21:42:21Z</time></trkpt>
<trkpt lat="25.471674" lon="99.887204">
<time>2014-08-04T21:42:22Z</time></trkpt>
<trkpt lat="25.471543" lon="99.886814">
<time>2014-08-04T21:42:23Z</time></trkpt>
<trkpt lat="25.471493" lon="99.886644">
<time>2014-08-04T21:42:24Z</time></trkpt>
<trkpt lat="25.471493" lon="99.886594">
<time>2014-08-04T21:42:25Z</time></trkpt>
<trkpt lat="25.471473" lon="99.886514">
<time>2014-08-04T21:42:26Z</time></trkpt>
<trkpt lat="25.471463" lon="99.886424">
<time>2014-08-04T21:42:27Z</time></trkpt>
<trkpt lat="25.471473" lon="99.886363">
<time>2014-08-04T21:42:28Z</time></trkpt>
<trkpt lat="25.471473" lon="99.886293">
<time>2014-08-04T21:42:29Z</time></trkpt>
<trkpt lat="25.471493" lon="99.886163">
<time>2014-08-04T21:42:30Z</time></trkpt>
<trkpt lat="25.471533" lon="99.886003">
<time>2014-08-04T21:42:31Z</time></trkpt>
<trkpt lat="25.471583" lon="99.885763">
<time>2014-08-04T21:42:32Z</time></trkpt>
<trkpt lat="25.471603" lon="99.885653">
<time>2014-08-04T21:42:33Z</time></trkpt>
<trkpt lat="25.471622" lon="99.885533">
<time>2014-08-04T21:42:34Z</time></trkpt>
<trkpt lat="25.471642" lon="99.885383">
<time>2014-08-04T21:42:35Z</time></trkpt>
<trkpt lat="25.471662" lon="99.885173">
<time>2014-08-04T21:42:36Z</time></trkpt>
<trkpt lat="25.471682" lon="99.884952">
<time>2014-08-04T21:42:37Z</time></trkpt>
<trkpt lat="25.471702" lon="99.884742">
<time>2014-08-04T21:42:38Z</time></trkpt>
<trkpt lat="25.471702" lon="99.884572">
<time>2014-08-04T21:42:39Z</time></trkpt>
<trkpt lat="25.471692" lon="99.884442">
<time>2014-08-04T21:42:40Z</time></trkpt>
<trkpt lat="25.471682" lon="99.884242">
<time>2014-08-04T21:42:41Z</time></trkpt>
<trkpt lat="25.471672" lon="99.884092">
<time>2014-08-04T21:42:42Z</time></trkpt>
<trkpt lat="25.471661" lon="99.883952">
<time>2014-08-04T21:42:43Z</time></trkpt>
<trkpt lat="25.471651" lon="99.883792">
<time>2014-08-04T21:42:44Z</time></trkpt>
<trkpt lat="25.471661" lon="99.883621">
<time>2014-08-04T21:42:45Z</time></trkpt>
<trkpt lat="25.471681" lon="99.883381">
<time>2014-08-04T21:42:46Z</time></trkpt>
<trkpt lat="25.471711" lon="99.883081">
<time>2014-08-04T21:42:47Z</time></trkpt>
<trkpt lat="25.471721" lon="99.882921">
<time>2014-08-04T21:42:48Z</time></trkpt>
<trkpt lat="25.471731" lon="99.882751">
<time>2014-08-04T21:42:49Z</time></trkpt>
<trkpt lat="25.47173" lon="99.882581">
<time>2014-08-04T21:42:50Z</time></trkpt>
<trkpt lat="25.47172" lon="99.882471">
<time>2014-08-04T21:42:51Z</time></trkpt>
<trkpt lat="25.47171" lon="99.88239">
<time>2014-08-04T21:42:52Z</time></trkpt>
<trkpt lat="25.47169" lon="99.8823">
<time>2014-08-04T21:42:53Z</time></trkpt>
<trkpt lat="25.47166" lon="99.88219">
<time>2014-08-04T21:42:54Z</time></trkpt>
<trkpt lat="25.47163" lon="99.88208">
<time>2014-08-04T21:42:55Z</time></trkpt>
<trkpt lat="25.47158" lon="99.88196">
<time>2014-08-04T21:42:56Z</time></trkpt>
<trkpt lat="25.471359" lon="99.88145">
<time>2014-08-04T21:42:57Z</time></trkpt>
<trkpt lat="25.471159" lon="99.880949">
<time>2014-08-04T21:42:58Z</time></trkpt>
<trkpt lat="25.470868" lon="99.880158">
<time>2014-08-04T21:42:59Z</time></trkpt>
<trkpt lat="25.470668" lon="99.879618">
<time>2014-08-04T21:43:00Z</time></trkpt>
<trkpt lat="25.470487" lon="99.879168">
<time>2014-08-04T21:43:01Z</time></trkpt>
<trkpt lat="25.470377" lon="99.878947">
<time>2014-08-04T21:43:02Z</time></trkpt>
<trkpt lat="25.470247" lon="99.878667">
<time>2014-08-04T21:43:03Z</time></trkpt>
<trkpt lat="25.470137" lon="99.878407">
<time>2014-08-04T21:43:04Z</time></trkpt>
<trkpt lat="25.470096" lon="99.878247">
<time>2014-08-04T21:43:05Z</time></trkpt>
<trkpt lat="25.470066" lon="99.878106">
<time>2014-08-04T21:43:06Z</time></trkpt>
<trkpt lat="25.470056" lon="99.877966">
<time>2014-08-04T21:43:07Z</time></trkpt>
<trkpt lat="25.470056" lon="99.877816">
<time>2014-08-04T21:43:08Z</time></trkpt>
<trkpt lat="25.470066" lon="99.877636">
<time>2014-08-04T21:43:09Z</time></trkpt>
<trkpt lat="25.470125" lon="99.877296">
<time>2014-08-04T21:43:10Z</time></trkpt>
<trkpt lat="25.470155" lon="99.877135">
<time>2014-08-04T21:43:11Z</time></trkpt>
<trkpt lat="25.470175" lon="99.876925">
<time>2014-08-04T21:43:12Z</time></trkpt>
<trkpt lat="25.470245" lon="99.876555">
<time>2014-08-04T21:43:13Z</time></trkpt>
<trkpt lat="25.470304" lon="99.876114">
<time>2014-08-04T21:43:14Z</time></trkpt>
<trkpt lat="25.470324" lon="99.875934">
<time>2014-08-04T21:43:15Z</time></trkpt>
<trkpt lat="25.470354" lon="99.875754">
<time>2014-08-04T21:43:16Z</time></trkpt>
<trkpt lat="25.470404" lon="99.875544">
<time>2014-08-04T21:43:17Z</time></trkpt>
<trkpt lat="25.470504" lon="99.875263">
<time>2014-08-04T21:43:18Z</time></trkpt>
<trkpt lat="25.470553" lon="99.875093">
<time>2014-08-04T21:43:19Z</time></trkpt>
<trkpt lat="25.470563" lon="99.875023">
<time>2014-08-04T21:43:20Z</time></trkpt>
<trkpt lat="25.470583" lon="99.874943">
<time>2014-08-04T21:43:21Z</time></trkpt>
<trkpt lat="25.470593" lon="99.874853">
<time>2014-08-04T21:43:22Z</time></trkpt>
<trkpt lat="25.470603" lon="99.874763">
<time>2014-08-04T21:43:23Z</time></trkpt>
<trkpt lat="25.470593" lon="99.874673">
<time>2014-08-04T21:43:24Z</time></trkpt>
<trkpt lat="25.470593" lon="99.874593">
<time>2014-08-04T21:43:25Z</time></trkpt>
<trkpt lat="25.470573" lon="99.874503">
<time>2014-08-04T21:43:26Z</time></trkpt>
<trkpt lat="25.470533" lon="99.874362">
<time>2014-08-04T21:43:27Z</time></trkpt>
<trkpt lat="25.470472" lon="99.874182">
<time>2014-08-04T21:43:28Z</time></trkpt>
<trkpt lat="25.470412" lon="99.873972">
<time>2014-08-04T21:43:29Z</time></trkpt>
<trkpt lat="25.470392" lon="99.873882">
<time>2014-08-04T21:43:30Z</time></trkpt>
<trkpt lat="25.470372" lon="99.873772">
<time>2014-08-04T21:43:31Z</time></trkpt>
<trkpt lat="25.470352" lon="99.873682">
<time>2014-08-04T21:43:32Z</time></trkpt>
<trkpt lat="25.470342" lon="99.873612">
<time>2014-08-04T21:43:33Z</time></trkpt>
<trkpt lat="25.470332" lon="99.873541">
<time>2014-08-04T21:43:34Z</time></trkpt>
<trkpt lat="25.470322" lon="99.873471">
<time>2014-08-04T21:43:35Z</time></trkpt>
<trkpt lat="25.470322" lon="99.873371">
<time>2014-08-04T21:43:36Z</time></trkpt>
<trkpt lat="25.470321" lon="99.873281">
<time>2014-08-04T21:43:37Z</time></trkpt>
<trkpt lat="25.470331" lon="99.873031">
<time>2014-08-04T21:43:38Z</time></trkpt>
<trkpt lat="25.470331" lon="99.872961">
<time>2014-08-04T21:43:39Z</time></trkpt>
<trkpt lat="25.470331" lon="99.872851">
<time>2014-08-04T21:43:40Z</time></trkpt>
<trkpt lat="25.470321" lon="99.87273">
<time>2014-08-04T21:43:41Z</time></trkpt>
<trkpt lat="25.470321" lon="99.87266">
<time>2014-08-04T21:43:42Z</time></trkpt>
<trkpt lat="25.470311" lon="99.87259">
<time>2014-08-04T21:43:43Z</time></trkpt>
<trkpt lat="25.470291" lon="99.87249">
<time>2014-08-04T21:43:44Z</time></trkpt>
<trkpt lat="25.47026" lon="99.8724">
<time>2014-08-04T21:43:45Z</time></trkpt>
<trkpt lat="25.47016" lon="99.8721">
<time>2014-08-04T21:43:46Z</time></trkpt>
<trkpt lat="25.4701" lon="99.871899">
<time>2014-08-04T21:43:47Z</time></trkpt>
<trkpt lat="25.47005" lon="99.871759">
<time>2014-08-04T21:43:48Z</time></trkpt>
<trkpt lat="25.47001" lon="99.871639">
<time>2014-08-04T21:43:49Z</time></trkpt>
<trkpt lat="25.469989" lon="99.871529">
<time>2014-08-04T21:43:50Z</time></trkpt>
<trkpt lat="25.469969" lon="99.871409">
<time>2014-08-04T21:43:51Z</time></trkpt>
<trkpt lat="25.469959" lon="99.871329">
<time>2014-08-04T21:43:52Z</time></trkpt>
<trkpt lat="25.469959" lon="99.871279">
<time>2014-08-04T21:43:53Z</time></trkpt>
<trkpt lat="25.469969" lon="99.871189">
<time>2014-08-04T21:43:54Z</time></trkpt>
<trkpt lat="25.469979" lon="99.871028">
<time>2014-08-04T21:43:55Z</time></trkpt>
<trkpt lat="25.470019" lon="99.870778">
<time>2014-08-04T21:43:56Z</time></trkpt>
<trkpt lat="25.470028" lon="99.870698">
<time>2014-08-04T21:43:57Z</time></trkpt>
<trkpt lat="25.470038" lon="99.870598">
<time>2014-08-04T21:43:58Z</time></trkpt>
<trkpt lat="25.470038" lon="99.870538">
<time>2014-08-04T21:43:59Z</time></trkpt>
<trkpt lat="25.470028" lon="99.870468">
<time>2014-08-04T21:44:00Z</time></trkpt>
<trkpt lat="25.470028" lon="99.870408">
<time>2014-08-04T21:44:01Z</time></trkpt>
<trkpt lat="25.469998" lon="99.870277">
<time>2014-08-04T21:44:02Z</time></trkpt>
<trkpt lat="25.469968" lon="99.870147">
<time>2014-08-04T21:44:03Z</time></trkpt>
<trkpt lat="25.469897" lon="99.869887">
<time>2014-08-04T21:44:04Z</time></trkpt>
<trkpt lat="25.469797" lon="99.869566">
<time>2014-08-04T21:44:05Z</time></trkpt>
<trkpt lat="25.469767" lon="99.869446">
<time>2014-08-04T21:44:06Z</time></trkpt>
<trkpt lat="25.469737" lon="99.869346">
<time>2014-08-04T21:44:07Z</time></trkpt>
<trkpt lat="25.469727" lon="99.869246">
<time>2014-08-04T21:44:08Z</time></trkpt>
<trkpt lat="25.469706" lon="99.869016">
<time>2014-08-04T21:44:09Z</time></trkpt>
<trkpt lat="25.469696" lon="99.868805">
<time>2014-08-04T21:44:10Z</time></trkpt>
<trkpt lat="25.469686" lon="99.868635">
<time>2014-08-04T21:44:11Z</time></trkpt>
<trkpt lat="25.469696" lon="99.868445">
<time>2014-08-04T21:44:12Z</time></trkpt>
<trkpt lat="25.469705" lon="99.868295">
<time>2014-08-04T21:44:13Z</time></trkpt>
<trkpt lat="25.469755" lon="99.867914">
<time>2014-08-04T21:44:14Z</time></trkpt>
<trkpt lat="25.469775" lon="99.867764">
<time>2014-08-04T21:44:15Z</time></trkpt>
<trkpt lat="25.469775" lon="99.867664">
<time>2014-08-04T21:44:16Z</time></trkpt>
<trkpt lat="25.469775" lon="99.867564">
<time>2014-08-04T21:44:17Z</time></trkpt>
<trkpt lat="25.469764" lon="99.867474">
<time>2014-08-04T21:44:18Z</time></trkpt>
<trkpt lat="25.469734" lon="99.867343">
<time>2014-08-04T21:44:19Z</time></trkpt>
<trkpt lat="25.469704" lon="99.867223">
<time>2014-08-04T21:44:20Z</time></trkpt>
<trkpt lat="25.469564" lon="99.866813">
<time>2014-08-04T21:44:21Z</time></trkpt>
<trkpt lat="25.469503" lon="99.866673">
<time>2014-08-04T21:44:22Z</time></trkpt>
<trkpt lat="25.469463" lon="99.866592">
<time>2014-08-04T21:44:23Z</time></trkpt>
<trkpt lat="25.469403" lon="99.866502">
<time>2014-08-04T21:44:24Z</time></trkpt>
<trkpt lat="25.469303" lon="99.866372">
<time>2014-08-04T21:44:25Z</time></trkpt>
<trkpt lat="25.469243" lon="99.866312">
<time>2014-08-04T21:44:26Z</time></trkpt>
<trkpt lat="25.468972" lon="99.866012">
<time>2014-08-04T21:44:27Z</time></trkpt>
<trkpt lat="25.468862" lon="99.865891">
<time>2014-08-04T21:44:28Z</time></trkpt>
<trkpt lat="25.468742" lon="99.865751">
<time>2014-08-04T21:44:29Z</time></trkpt>
<trkpt lat="25.468602" lon="99.865571">
<time>2014-08-04T21:44:30Z</time></trkpt>
<trkpt lat="25.468461" lon="99.865361">
<time>2014-08-04T21:44:31Z</time></trkpt>
<trkpt lat="25.46796" lon="99.86463">
<time>2014-08-04T21:44:32Z</time></trkpt>
<trkpt lat="25.467299" lon="99.863648">
<time>2014-08-04T21:44:33Z</time></trkpt>
<trkpt lat="25.467118" lon="99.863398">
<time>2014-08-04T21:44:34Z</time></trkpt>
<trkpt lat="25.467018" lon="99.863248">
<time>2014-08-04T21:44:35Z</time></trkpt>
<trkpt lat="25.466908" lon="99.863107">
<time>2014-08-04T21:44:36Z</time></trkpt>
<trkpt lat="25.466788" lon="99.862967">
<time>2014-08-04T21:44:37Z</time></trkpt>
<trkpt lat="25.466718" lon="99.862897">
<time>2014-08-04T21:44:38Z</time></trkpt>
<trkpt lat="25.466597" lon="99.862797">
<time>2014-08-04T21:44:39Z</time></trkpt>
<trkpt lat="25.466437" lon="99.862657">
<time>2014-08-04T21:44:40Z</time></trkpt>
<trkpt lat="25.466367" lon="99.862597">
<time>2014-08-04T21:44:41Z</time></trkpt>
<trkpt lat="25.466327" lon="99.862557">
<time>2014-08-04T21:44:42Z</time></trkpt>
<trkpt lat="25.466277" lon="99.862506">
<time>2014-08-04T21:44:43Z</time></trkpt>
<trkpt lat="25.466237" lon="99.862456">
<time>2014-08-04T21:44:44Z</time></trkpt>
<trkpt lat="25.466197" lon="99.862406">
<time>2014-08-04T21:44:45Z</time></trkpt>
<trkpt lat="25.466126" lon="99.862286">
<time>2014-08-04T21:44:46Z</time></trkpt>
<trkpt lat="25.466016" lon="99.862046">
<time>2014-08-04T21:44:47Z</time></trkpt>
<trkpt lat="25.465765" lon="99.861475">
<time>2014-08-04T21:44:48Z</time></trkpt>
<trkpt lat="25.465635" lon="99.861184">
<time>2014-08-04T21:44:49Z</time></trkpt>
<trkpt lat="25.465555" lon="99.861044">
<time>2014-08-04T21:44:50Z</time></trkpt>
<trkpt lat="25.465484" lon="99.860924">
<time>2014-08-04T21:44:51Z</time></trkpt>
<trkpt lat="25.465444" lon="99.860874">
<time>2014-08-04T21:44:52Z</time></trkpt>
<trkpt lat="25.465374" lon="99.860804">
<time>2014-08-04T21:44:53Z</time></trkpt>
<trkpt lat="25.465294" lon="99.860724">
<time>2014-08-04T21:44:54Z</time></trkpt>
<trkpt lat="25.465224" lon="99.860674">
<time>2014-08-04T21:44:55Z</time></trkpt>
<trkpt lat="25.465194" lon="99.860664">
<time>2014-08-04T21:44:56Z</time></trkpt>
<trkpt lat="25.464523" lon="99.860313">
<time>2014-08-04T21:44:57Z</time></trkpt>
<trkpt lat="25.464453" lon="99.860273">
<time>2014-08-04T21:44:58Z</time></trkpt>
<trkpt lat="25.464373" lon="99.860213">
<time>2014-08-04T21:44:59Z</time></trkpt>
<trkpt lat="25.464283" lon="99.860143">
<time>2014-08-04T21:45:00Z</time></trkpt>
<trkpt lat="25.464183" lon="99.860073">
<time>2014-08-04T21:45:01Z</time></trkpt>
<trkpt lat="25.464083" lon="99.859972">
<time>2014-08-04T21:45:02Z</time></trkpt>
<trkpt lat="25.463942" lon="99.859802">
<time>2014-08-04T21:45:03Z</time></trkpt>
<trkpt lat="25.463652" lon="99.859482">
<time>2014-08-04T21:45:04Z</time></trkpt>
<trkpt lat="25.463491" lon="99.859311">
<time>2014-08-04T21:45:05Z</time></trkpt>
<trkpt lat="25.463391" lon="99.859201">
<time>2014-08-04T21:45:06Z</time></trkpt>
<trkpt lat="25.463301" lon="99.859111">
<time>2014-08-04T21:45:07Z</time></trkpt>
<trkpt lat="25.463181" lon="99.859001">
<time>2014-08-04T21:45:08Z</time></trkpt>
<trkpt lat="25.462931" lon="99.858801">
<time>2014-08-04T21:45:09Z</time></trkpt>
<trkpt lat="25.46278" lon="99.85867">
<time>2014-08-04T21:45:10Z</time></trkpt>
<trkpt lat="25.46261" lon="99.85852">
<time>2014-08-04T21:45:11Z</time></trkpt>
<trkpt lat="25.46248" lon="99.85839">
<time>2014-08-04T21:45:12Z</time></trkpt>
<trkpt lat="25.462189" lon="99.858089">
<time>2014-08-04T21:45:13Z</time></trkpt>
<trkpt lat="25.461959" lon="99.857849">
<time>2014-08-04T21:45:14Z</time></trkpt>
<trkpt lat="25.461859" lon="99.857729">
<time>2014-08-04T21:45:15Z</time></trkpt>
<trkpt lat="25.461758" lon="99.857599">
<time>2014-08-04T21:45:16Z</time></trkpt>
<trkpt lat="25.461688" lon="99.857468">
<time>2014-08-04T21:45:17Z</time></trkpt>
<trkpt lat="25.461568" lon="99.857218">
<time>2014-08-04T21:45:18Z</time></trkpt>
<trkpt lat="25.461397" lon="99.856787">
<time>2014-08-04T21:45:19Z</time></trkpt>
<trkpt lat="25.461357" lon="99.856657">
<time>2014-08-04T21:45:20Z</time></trkpt>
<trkpt lat="25.461327" lon="99.856557">
<time>2014-08-04T21:45:21Z</time></trkpt>
<trkpt lat="25.461317" lon="99.856517">
<time>2014-08-04T21:45:22Z</time></trkpt>
<trkpt lat="25.461296" lon="99.856347">
<time>2014-08-04T21:45:23Z</time></trkpt>
<trkpt lat="25.461225" lon="99.855806">
<time>2014-08-04T21:45:24Z</time></trkpt>
<trkpt lat="25.461155" lon="99.855295">
<time>2014-08-04T21:45:25Z</time></trkpt>
<trkpt lat="25.461124" lon="99.855114">
<time>2014-08-04T21:45:26Z</time></trkpt>
<trkpt lat="25.461084" lon="99.854944">
<time>2014-08-04T21:45:27Z</time></trkpt>
<trkpt lat="25.461034" lon="99.854794">
<time>2014-08-04T21:45:28Z</time></trkpt>
<trkpt lat="25.460964" lon="99.854654">
<time>2014-08-04T21:45:29Z</time></trkpt>
<trkpt lat="25.460873" lon="99.854523">
<time>2014-08-04T21:45:30Z</time></trkpt>
<trkpt lat="25.460753" lon="99.854393">
<time>2014-08-04T21:45:31Z</time></trkpt>
<trkpt lat="25.460573" lon="99.854223">
<time>2014-08-04T21:45:32Z</time></trkpt>
<trkpt lat="25.460433" lon="99.854083">
<time>2014-08-04T21:45:33Z</time></trkpt>
<trkpt lat="25.460342" lon="99.853982">
<time>2014-08-04T21:45:34Z</time></trkpt>
<trkpt lat="25.460242" lon="99.853842">
<time>2014-08-04T21:45:35Z</time></trkpt>
<trkpt lat="25.460152" lon="99.853712">
<time>2014-08-04T21:45:36Z</time></trkpt>
<trkpt lat="25.460072" lon="99.853582">
<time>2014-08-04T21:45:37Z</time></trkpt>
<trkpt lat="25.460011" lon="99.853442">
<time>2014-08-04T21:45:38Z</time></trkpt>
<trkpt lat="25.459961" lon="99.853291">
<time>2014-08-04T21:45:39Z</time></trkpt>
<trkpt lat="25.459931" lon="99.853161">
<time>2014-08-04T21:45:40Z</time></trkpt>
<trkpt lat="25.459881" lon="99.852981">
<time>2014-08-04T21:45:41Z</time></trkpt>
<trkpt lat="25.45983" lon="99.85282">
<time>2014-08-04T21:45:42Z</time></trkpt>
<trkpt lat="25.45977" lon="99.85268">
<time>2014-08-04T21:45:43Z</time></trkpt>
<trkpt lat="25.45969" lon="99.85253">
<time>2014-08-04T21:45:44Z</time></trkpt>
<trkpt lat="25.4596" lon="99.8524">
<time>2014-08-04T21:45:45Z</time></trkpt>
<trkpt lat="25.459509" lon="99.852269">
<time>2014-08-04T21:45:46Z</time></trkpt>
<trkpt lat="25.459339" lon="99.852029">
<time>2014-08-04T21:45:47Z</time></trkpt>
<trkpt lat="25.459249" lon="99.851889">
<time>2014-08-04T21:45:48Z</time></trkpt>
<trkpt lat="25.459188" lon="99.851759">
<time>2014-08-04T21:45:49Z</time></trkpt>
<trkpt lat="25.459128" lon="99.851608">
<time>2014-08-04T21:45:50Z</time></trkpt>
<trkpt lat="25.459088" lon="99.851468">
<time>2014-08-04T21:45:51Z</time></trkpt>
<trkpt lat="25.459058" lon="99.851258">
<time>2014-08-04T21:45:52Z</time></trkpt>
<trkpt lat="25.459058" lon="99.851228">
<time>2014-08-04T21:45:53Z</time></trkpt>
<trkpt lat="25.459047" lon="99.851117">
<time>2014-08-04T21:45:54Z</time></trkpt>
<trkpt lat="25.459037" lon="99.850927">
<time>2014-08-04T21:45:55Z</time></trkpt>
<trkpt lat="25.459016" lon="99.850496">
<time>2014-08-04T21:45:56Z</time></trkpt>
<trkpt lat="25.458986" lon="99.850176">
<time>2014-08-04T21:45:57Z</time></trkpt>
<trkpt lat="25.458965" lon="99.849995">
<time>2014-08-04T21:45:58Z</time></trkpt>
<trkpt lat="25.458925" lon="99.849835">
<time>2014-08-04T21:45:59Z</time></trkpt>
<trkpt lat="25.458895" lon="99.849685">
<time>2014-08-04T21:46:00Z</time></trkpt>
<trkpt lat="25.458845" lon="99.849524">
<time>2014-08-04T21:46:01Z</time></trkpt>
<trkpt lat="25.458784" lon="99.849374">
<time>2014-08-04T21:46:02Z</time></trkpt>
<trkpt lat="25.458724" lon="99.849234">
<time>2014-08-04T21:46:03Z</time></trkpt>
<trkpt lat="25.458583" lon="99.848913">
<time>2014-08-04T21:46:04Z</time></trkpt>
<trkpt lat="25.458423" lon="99.848533">
<time>2014-08-04T21:46:05Z</time></trkpt>
<trkpt lat="25.458142" lon="99.847901">
<time>2014-08-04T21:46:06Z</time></trkpt>
<trkpt lat="25.458081" lon="99.847771">
<time>2014-08-04T21:46:07Z</time></trkpt>
<trkpt lat="25.458021" lon="99.847641">
<time>2014-08-04T21:46:08Z</time></trkpt>
<trkpt lat="25.457911" lon="99.847441">
<time>2014-08-04T21:46:09Z</time></trkpt>
<trkpt lat="25.457851" lon="99.84732">
<time>2014-08-04T21:46:10Z</time></trkpt>
<trkpt lat="25.45776" lon="99.84714">
<time>2014-08-04T21:46:11Z</time></trkpt>
<trkpt lat="25.45769" lon="99.847">
<time>2014-08-04T21:46:12Z</time></trkpt>
<trkpt lat="25.457559" lon="99.846669">
<time>2014-08-04T21:46:13Z</time></trkpt>
<trkpt lat="25.457429" lon="99.846399">
<time>2014-08-04T21:46:14Z</time></trkpt>
<trkpt lat="25.457349" lon="99.846238">
<time>2014-08-04T21:46:15Z</time></trkpt>
<trkpt lat="25.457268" lon="99.846108">
<time>2014-08-04T21:46:16Z</time></trkpt>
<trkpt lat="25.457188" lon="99.845988">
<time>2014-08-04T21:46:17Z</time></trkpt>
<trkpt lat="25.457098" lon="99.845878">
<time>2014-08-04T21:46:18Z</time></trkpt>
<trkpt lat="25.456978" lon="99.845777">
<time>2014-08-04T21:46:19Z</time></trkpt>
<trkpt lat="25.456858" lon="99.845707">
<time>2014-08-04T21:46:20Z</time></trkpt>
<trkpt lat="25.456747" lon="99.845657">
<time>2014-08-04T21:46:21Z</time></trkpt>
<trkpt lat="25.456587" lon="99.845597">
<time>2014-08-04T21:46:22Z</time></trkpt>
<trkpt lat="25.456317" lon="99.845487">
<time>2014-08-04T21:46:23Z</time></trkpt>
<trkpt lat="25.456027" lon="99.845387">
<time>2014-08-04T21:46:24Z</time></trkpt>
<trkpt lat="25.455766" lon="99.845287">
<time>2014-08-04T21:46:25Z</time></trkpt>
<trkpt lat="25.455596" lon="99.845226">
<time>2014-08-04T21:46:26Z</time></trkpt>
<trkpt lat="25.455456" lon="99.845166">
<time>2014-08-04T21:46:27Z</time></trkpt>
<trkpt lat="25.455316" lon="99.845106">
<time>2014-08-04T21:46:28Z</time></trkpt>
<trkpt lat="25.455186" lon="99.845036">
<time>2014-08-04T21:46:29Z</time></trkpt>
<trkpt lat="25.455086" lon="99.844976">
<time>2014-08-04T21:46:30Z</time></trkpt>
<trkpt lat="25.454976" lon="99.844906">
<time>2014-08-04T21:46:31Z</time></trkpt>
<trkpt lat="25.454855" lon="99.844806">
<time>2014-08-04T21:46:32Z</time></trkpt>
<trkpt lat="25.454705" lon="99.844655">
<time>2014-08-04T21:46:33Z</time></trkpt>
<trkpt lat="25.454525" lon="99.844465">
<time>2014-08-04T21:46:34Z</time></trkpt>
<trkpt lat="25.454164" lon="99.844054">
<time>2014-08-04T21:46:35Z</time></trkpt>
<trkpt lat="25.453983" lon="99.843854">
<time>2014-08-04T21:46:36Z</time></trkpt>
<trkpt lat="25.453643" lon="99.843523">
<time>2014-08-04T21:46:37Z</time></trkpt>
<trkpt lat="25.453533" lon="99.843393">
<time>2014-08-04T21:46:38Z</time></trkpt>
<trkpt lat="25.453432" lon="99.843233">
<time>2014-08-04T21:46:39Z</time></trkpt>
<trkpt lat="25.453352" lon="99.843122">
<time>2014-08-04T21:46:40Z</time></trkpt>
<trkpt lat="25.453282" lon="99.842972">
<time>2014-08-04T21:46:41Z</time></trkpt>
<trkpt lat="25.453201" lon="99.842812">
<time>2014-08-04T21:46:42Z</time></trkpt>
<trkpt lat="25.453091" lon="99.842561">
<time>2014-08-04T21:46:43Z</time></trkpt>
<trkpt lat="25.45297" lon="99.842271">
<time>2014-08-04T21:46:44Z</time></trkpt>
<trkpt lat="25.45292" lon="99.842131">
<time>2014-08-04T21:46:45Z</time></trkpt>
<trkpt lat="25.45283" lon="99.84189">
<time>2014-08-04T21:46:46Z</time></trkpt>
<trkpt lat="25.452739" lon="99.84162">
<time>2014-08-04T21:46:47Z</time></trkpt>
<trkpt lat="25.452699" lon="99.841449">
<time>2014-08-04T21:46:48Z</time></trkpt>
<trkpt lat="25.452679" lon="99.841309">
<time>2014-08-04T21:46:49Z</time></trkpt>
<trkpt lat="25.452678" lon="99.841189">
<time>2014-08-04T21:46:50Z</time></trkpt>
<trkpt lat="25.452678" lon="99.841099">
<time>2014-08-04T21:46:51Z</time></trkpt>
<trkpt lat="25.452688" lon="99.840978">
<time>2014-08-04T21:46:52Z</time></trkpt>
<trkpt lat="25.452698" lon="99.840848">
<time>2014-08-04T21:46:53Z</time></trkpt>
<trkpt lat="25.452697" lon="99.840658">
<time>2014-08-04T21:46:54Z</time></trkpt>
<trkpt lat="25.452697" lon="99.840527">
<time>2014-08-04T21:46:55Z</time></trkpt>
<trkpt lat="25.452677" lon="99.840367">
<time>2014-08-04T21:46:56Z</time></trkpt>
<trkpt lat="25.452657" lon="99.840217">
<time>2014-08-04T21:46:57Z</time></trkpt>
<trkpt lat="25.452596" lon="99.839846">
<time>2014-08-04T21:46:58Z</time></trkpt>
<trkpt lat="25.452525" lon="99.839475">
<time>2014-08-04T21:46:59Z</time></trkpt>
<trkpt lat="25.452475" lon="99.839135">
<time>2014-08-04T21:47:00Z</time></trkpt>
<trkpt lat="25.452424" lon="99.838864">
<time>2014-08-04T21:47:01Z</time></trkpt>
<trkpt lat="25.452374" lon="99.838644">
<time>2014-08-04T21:47:02Z</time></trkpt>
<trkpt lat="25.452303" lon="99.838403">
<time>2014-08-04T21:47:03Z</time></trkpt>
<trkpt lat="25.452213" lon="99.838143">
<time>2014-08-04T21:47:04Z</time></trkpt>
<trkpt lat="25.452092" lon="99.837842">
<time>2014-08-04T21:47:05Z</time></trkpt>
<trkpt lat="25.451982" lon="99.837602">
<time>2014-08-04T21:47:06Z</time></trkpt>
<trkpt lat="25.451871" lon="99.837361">
<time>2014-08-04T21:47:07Z</time></trkpt>
<trkpt lat="25.451761" lon="99.837121">
<time>2014-08-04T21:47:08Z</time></trkpt>
<trkpt lat="25.45164" lon="99.83685">
<time>2014-08-04T21:47:09Z</time></trkpt>
<trkpt lat="25.45154" lon="99.83665">
<time>2014-08-04T21:47:10Z</time></trkpt>
<trkpt lat="25.451429" lon="99.836379">
<time>2014-08-04T21:47:11Z</time></trkpt>
<trkpt lat="25.451379" lon="99.836229">
<time>2014-08-04T21:47:12Z</time></trkpt>
<trkpt lat="25.451258" lon="99.835828">
<time>2014-08-04T21:47:13Z</time></trkpt>
<trkpt lat="25.451137" lon="99.835407">
<time>2014-08-04T21:47:14Z</time></trkpt>
<trkpt lat="25.451017" lon="99.834986">
<time>2014-08-04T21:47:15Z</time></trkpt>
<trkpt lat="25.450916" lon="99.834626">
<time>2014-08-04T21:47:16Z</time></trkpt>
<trkpt lat="25.450805" lon="99.834225">
<time>2014-08-04T21:47:17Z</time></trkpt>
<trkpt lat="25.450704" lon="99.833904">
<time>2014-08-04T21:47:18Z</time></trkpt>
<trkpt lat="25.450654" lon="99.833744">
<time>2014-08-04T21:47:19Z</time></trkpt>
<trkpt lat="25.450594" lon="99.833583">
<time>2014-08-04T21:47:20Z</time></trkpt>
<trkpt lat="25.450493" lon="99.833273">
<time>2014-08-04T21:47:21Z</time></trkpt>
<trkpt lat="25.450352" lon="99.832822">
<time>2014-08-04T21:47:22Z</time></trkpt>
<trkpt lat="25.450312" lon="99.832692">
<time>2014-08-04T21:47:23Z</time></trkpt>
<trkpt lat="25.450282" lon="99.832551">
<time>2014-08-04T21:47:24Z</time></trkpt>
<trkpt lat="25.450242" lon="99.832421">
<time>2014-08-04T21:47:25Z</time></trkpt>
<trkpt lat="25.450191" lon="99.832281">
<time>2014-08-04T21:47:26Z</time></trkpt>
<trkpt lat="25.450151" lon="99.83201">
<time>2014-08-04T21:47:27Z</time></trkpt>
<trkpt lat="25.45013" lon="99.83187">
<time>2014-08-04T21:47:28Z</time></trkpt>
<trkpt lat="25.4501" lon="99.83175">
<time>2014-08-04T21:47:29Z</time></trkpt>
<trkpt lat="25.45005" lon="99.831599">
<time>2014-08-04T21:47:30Z</time></trkpt>
<trkpt lat="25.449969" lon="99.831369">
<time>2014-08-04T21:47:31Z</time></trkpt>
<trkpt lat="25.449939" lon="99.831249">
<time>2014-08-04T21:47:32Z</time></trkpt>
<trkpt lat="25.449899" lon="99.831088">
<time>2014-08-04T21:47:33Z</time></trkpt>
<trkpt lat="25.449869" lon="99.830948">
<time>2014-08-04T21:47:34Z</time></trkpt>
<trkpt lat="25.449848" lon="99.830838">
<time>2014-08-04T21:47:35Z</time></trkpt>
<trkpt lat="25.449828" lon="99.830708">
<time>2014-08-04T21:47:36Z</time></trkpt>
<trkpt lat="25.449788" lon="99.830587">
<time>2014-08-04T21:47:37Z</time></trkpt>
<trkpt lat="25.449698" lon="99.830407">
<time>2014-08-04T21:47:38Z</time></trkpt>
<trkpt lat="25.449647" lon="99.830307">
<time>2014-08-04T21:47:39Z</time></trkpt>
<trkpt lat="25.449497" lon="99.830096">
<time>2014-08-04T21:47:40Z</time></trkpt>
<trkpt lat="25.449457" lon="99.830026">
<time>2014-08-04T21:47:41Z</time></trkpt>
<trkpt lat="25.449407" lon="99.829936">
<time>2014-08-04T21:47:42Z</time></trkpt>
<trkpt lat="25.449387" lon="99.829866">
<time>2014-08-04T21:47:43Z</time></trkpt>
<trkpt lat="25.449376" lon="99.829786">
<time>2014-08-04T21:47:44Z</time></trkpt>
<trkpt lat="25.449376" lon="99.829686">
<time>2014-08-04T21:47:45Z</time></trkpt>
<trkpt lat="25.449386" lon="99.829615">
<time>2014-08-04T21:47:46Z</time></trkpt>
<trkpt lat="25.449406" lon="99.829525">
<time>2014-08-04T21:47:47Z</time></trkpt>
<trkpt lat="25.449456" lon="99.829435">
<time>2014-08-04T21:47:48Z</time></trkpt>
<trkpt lat="25.449506" lon="99.829355">
<time>2014-08-04T21:47:49Z</time></trkpt>
<trkpt lat="25.449555" lon="99.829285">
<time>2014-08-04T21:47:50Z</time></trkpt>
<trkpt lat="25.449695" lon="99.829134">
<time>2014-08-04T21:47:51Z</time></trkpt>
<trkpt lat="25.449805" lon="99.829014">
<time>2014-08-04T21:47:52Z</time></trkpt>
<trkpt lat="25.449995" lon="99.828834">
<time>2014-08-04T21:47:53Z</time></trkpt>
<trkpt lat="25.450135" lon="99.828704">
<time>2014-08-04T21:47:54Z</time></trkpt>
<trkpt lat="25.450484" lon="99.828463">
<time>2014-08-04T21:47:55Z</time></trkpt>
<trkpt lat="25.450574" lon="99.828413">
<time>2014-08-04T21:47:56Z</time></trkpt>
<trkpt lat="25.450724" lon="99.828343">
<time>2014-08-04T21:47:57Z</time></trkpt>
<trkpt lat="25.450864" lon="99.828263">
<time>2014-08-04T21:47:58Z</time></trkpt>
<trkpt lat="25.451034" lon="99.828182">
<time>2014-08-04T21:47:59Z</time></trkpt>
<trkpt lat="25.451234" lon="99.828092">
<time>2014-08-04T21:48:00Z</time></trkpt>
<trkpt lat="25.451364" lon="99.828042">
<time>2014-08-04T21:48:01Z</time></trkpt>
<trkpt lat="25.451483" lon="99.827972">
<time>2014-08-04T21:48:02Z</time></trkpt>
<trkpt lat="25.451583" lon="99.827912">
<time>2014-08-04T21:48:03Z</time></trkpt>
<trkpt lat="25.451683" lon="99.827832">
<time>2014-08-04T21:48:04Z</time></trkpt>
<trkpt lat="25.451793" lon="99.827701">
<time>2014-08-04T21:48:05Z</time></trkpt>
<trkpt lat="25.451963" lon="99.827481">
<time>2014-08-04T21:48:06Z</time></trkpt>
<trkpt lat="25.452033" lon="99.827411">
<time>2014-08-04T21:48:07Z</time></trkpt>
<trkpt lat="25.452142" lon="99.827281">
<time>2014-08-04T21:48:08Z</time></trkpt>
<trkpt lat="25.452232" lon="99.82715">
<time>2014-08-04T21:48:09Z</time></trkpt>
<trkpt lat="25.452322" lon="99.82699">
<time>2014-08-04T21:48:10Z</time></trkpt>
<trkpt lat="25.452372" lon="99.82683">
<time>2014-08-04T21:48:11Z</time></trkpt>
<trkpt lat="25.452411" lon="99.826649">
<time>2014-08-04T21:48:12Z</time></trkpt>
<trkpt lat="25.452451" lon="99.826389">
<time>2014-08-04T21:48:13Z</time></trkpt>
<trkpt lat="25.45248" lon="99.826218">
<time>2014-08-04T21:48:14Z</time></trkpt>
<trkpt lat="25.45252" lon="99.826048">
<time>2014-08-04T21:48:15Z</time></trkpt>
<trkpt lat="25.45257" lon="99.825898">
<time>2014-08-04T21:48:16Z</time></trkpt>
<trkpt lat="25.45263" lon="99.825727">
<time>2014-08-04T21:48:17Z</time></trkpt>
<trkpt lat="25.452699" lon="99.825577">
<time>2014-08-04T21:48:18Z</time></trkpt>
<trkpt lat="25.452809" lon="99.825357">
<time>2014-08-04T21:48:19Z</time></trkpt>
<trkpt lat="25.452919" lon="99.825176">
<time>2014-08-04T21:48:20Z</time></trkpt>
<trkpt lat="25.453138" lon="99.824856">
<time>2014-08-04T21:48:21Z</time></trkpt>
<trkpt lat="25.453318" lon="99.824575">
<time>2014-08-04T21:48:22Z</time></trkpt>
<trkpt lat="25.453497" lon="99.824305">
<time>2014-08-04T21:48:23Z</time></trkpt>
<trkpt lat="25.453657" lon="99.824074">
<time>2014-08-04T21:48:24Z</time></trkpt>
<trkpt lat="25.453826" lon="99.823854">
<time>2014-08-04T21:48:25Z</time></trkpt>
<trkpt lat="25.453906" lon="99.823773">
<time>2014-08-04T21:48:26Z</time></trkpt>
<trkpt lat="25.454016" lon="99.823653">
<time>2014-08-04T21:48:27Z</time></trkpt>
<trkpt lat="25.454146" lon="99.823523">
<time>2014-08-04T21:48:28Z</time></trkpt>
<trkpt lat="25.454316" lon="99.823363">
<time>2014-08-04T21:48:29Z</time></trkpt>
<trkpt lat="25.454445" lon="99.823232">
<time>2014-08-04T21:48:30Z</time></trkpt>
<trkpt lat="25.454575" lon="99.823102">
<time>2014-08-04T21:48:31Z</time></trkpt>
<trkpt lat="25.454685" lon="99.822982">
<time>2014-08-04T21:48:32Z</time></trkpt>
<trkpt lat="25.454775" lon="99.822852">
<time>2014-08-04T21:48:33Z</time></trkpt>
<trkpt lat="25.454854" lon="99.822711">
<time>2014-08-04T21:48:34Z</time></trkpt>
<trkpt lat="25.454934" lon="99.822551">
<time>2014-08-04T21:48:35Z</time></trkpt>
<trkpt lat="25.454974" lon="99.822461">
<time>2014-08-04T21:48:36Z</time></trkpt>
<trkpt lat="25.454994" lon="99.822401">
<time>2014-08-04T21:48:37Z</time></trkpt>
<trkpt lat="25.455044" lon="99.82224">
<time>2014-08-04T21:48:38Z</time></trkpt>
<trkpt lat="25.455083" lon="99.82208">
<time>2014-08-04T21:48:39Z</time></trkpt>
<trkpt lat="25.455113" lon="99.82188">
<time>2014-08-04T21:48:40Z</time></trkpt>
<trkpt lat="25.455142" lon="99.821649">
<time>2014-08-04T21:48:41Z</time></trkpt>
<trkpt lat="25.455202" lon="99.821188">
<time>2014-08-04T21:48:42Z</time></trkpt>
<trkpt lat="25.455251" lon="99.820847">
<time>2014-08-04T21:48:43Z</time></trkpt>
<trkpt lat="25.455291" lon="99.820657">
<time>2014-08-04T21:48:44Z</time></trkpt>
<trkpt lat="25.45532" lon="99.820547">
<time>2014-08-04T21:48:45Z</time></trkpt>
<trkpt lat="25.45538" lon="99.820437">
<time>2014-08-04T21:48:46Z</time></trkpt>
<trkpt lat="25.45546" lon="99.820336">
<time>2014-08-04T21:48:47Z</time></trkpt>
<trkpt lat="25.45555" lon="99.820246">
<time>2014-08-04T21:48:48Z</time></trkpt>
<trkpt lat="25.45566" lon="99.820146">
<time>2014-08-04T21:48:49Z</time></trkpt>
<trkpt lat="25.4558" lon="99.820036">
<time>2014-08-04T21:48:50Z</time></trkpt>
<trkpt lat="25.45589" lon="99.819986">
<time>2014-08-04T21:48:51Z</time></trkpt>
<trkpt lat="25.45597" lon="99.819946">
<time>2014-08-04T21:48:52Z</time></trkpt>
<trkpt lat="25.456069" lon="99.819896">
<time>2014-08-04T21:48:53Z</time></trkpt>
<trkpt lat="25.456179" lon="99.819855">
<time>2014-08-04T21:48:54Z</time></trkpt>
<trkpt lat="25.456259" lon="99.819825">
<time>2014-08-04T21:48:55Z</time></trkpt>
<trkpt lat="25.456369" lon="99.819775">
<time>2014-08-04T21:48:56Z</time></trkpt>
<trkpt lat="25.456499" lon="99.819725">
<time>2014-08-04T21:48:57Z</time></trkpt>
<trkpt lat="25.456699" lon="99.819665">
<time>2014-08-04T21:48:58Z</time></trkpt>
<trkpt lat="25.456849" lon="99.819615">
<time>2014-08-04T21:48:59Z</time></trkpt>
<trkpt lat="25.456959" lon="99.819565">
<time>2014-08-04T21:49:00Z</time></trkpt>
<trkpt lat="25.457159" lon="99.819475">
<time>2014-08-04T21:49:01Z</time></trkpt>
<trkpt lat="25.457339" lon="99.819384">
<time>2014-08-04T21:49:02Z</time></trkpt>
<trkpt lat="25.457509" lon="99.819304">
<time>2014-08-04T21:49:03Z</time></trkpt>
<trkpt lat="25.457719" lon="99.819184">
<time>2014-08-04T21:49:04Z</time></trkpt>
<trkpt lat="25.457838" lon="99.819104">
<time>2014-08-04T21:49:05Z</time></trkpt>
<trkpt lat="25.457948" lon="99.819024">
<time>2014-08-04T21:49:06Z</time></trkpt>
<trkpt lat="25.458048" lon="99.818934">
<time>2014-08-04T21:49:07Z</time></trkpt>
<trkpt lat="25.458158" lon="99.818833">
<time>2014-08-04T21:49:08Z</time></trkpt>
<trkpt lat="25.458278" lon="99.818703">
<time>2014-08-04T21:49:09Z</time></trkpt>
<trkpt lat="25.458438" lon="99.818523">
<time>2014-08-04T21:49:10Z</time></trkpt>
<trkpt lat="25.458607" lon="99.818322">
<time>2014-08-04T21:49:11Z</time></trkpt>
<trkpt lat="25.458707" lon="99.818192">
<time>2014-08-04T21:49:12Z</time></trkpt>
<trkpt lat="25.458797" lon="99.818052">
<time>2014-08-04T21:49:13Z</time></trkpt>
<trkpt lat="25.458886" lon="99.817891">
<time>2014-08-04T21:49:14Z</time></trkpt>
<trkpt lat="25.458996" lon="99.817671">
<time>2014-08-04T21:49:15Z</time></trkpt>
<trkpt lat="25.459096" lon="99.817491">
<time>2014-08-04T21:49:16Z</time></trkpt>
<trkpt lat="25.459195" lon="99.8173">
<time>2014-08-04T21:49:17Z</time></trkpt>
<trkpt lat="25.459275" lon="99.81716">
<time>2014-08-04T21:49:18Z</time></trkpt>
<trkpt lat="25.459375" lon="99.81701">
<time>2014-08-04T21:49:19Z</time></trkpt>
<trkpt lat="25.459525" lon="99.816819">
<time>2014-08-04T21:49:20Z</time></trkpt>
<trkpt lat="25.459594" lon="99.816729">
<time>2014-08-04T21:49:21Z</time></trkpt>
<trkpt lat="25.459794" lon="99.816489">
<time>2014-08-04T21:49:22Z</time></trkpt>
<trkpt lat="25.459964" lon="99.816248">
<time>2014-08-04T21:49:23Z</time></trkpt>
<trkpt lat="25.460123" lon="99.816018">
<time>2014-08-04T21:49:24Z</time></trkpt>
<trkpt lat="25.460273" lon="99.815797">
<time>2014-08-04T21:49:25Z</time></trkpt>
<trkpt lat="25.460423" lon="99.815577">
<time>2014-08-04T21:49:26Z</time></trkpt>
<trkpt lat="25.460552" lon="99.815366">
<time>2014-08-04T21:49:27Z</time></trkpt>
<trkpt lat="25.460682" lon="99.815116">
<time>2014-08-04T21:49:28Z</time></trkpt>
<trkpt lat="25.460811" lon="99.814865">
<time>2014-08-04T21:49:29Z</time></trkpt>
<trkpt lat="25.460911" lon="99.814655">
<time>2014-08-04T21:49:30Z</time></trkpt>
<trkpt lat="25.461011" lon="99.814445">
<time>2014-08-04T21:49:31Z</time></trkpt>
<trkpt lat="25.46106" lon="99.814304">
<time>2014-08-04T21:49:32Z</time></trkpt>
<trkpt lat="25.46112" lon="99.814144">
<time>2014-08-04T21:49:33Z</time></trkpt>
<trkpt lat="25.46118" lon="99.813924">
<time>2014-08-04T21:49:34Z</time></trkpt>
<trkpt lat="25.461279" lon="99.813553">
<time>2014-08-04T21:49:35Z</time></trkpt>
<trkpt lat="25.461319" lon="99.813413">
<time>2014-08-04T21:49:36Z</time></trkpt>
<trkpt lat="25.461418" lon="99.813082">
<time>2014-08-04T21:49:37Z</time></trkpt>
<trkpt lat="25.461448" lon="99.812972">
<time>2014-08-04T21:49:38Z</time></trkpt>
<trkpt lat="25.461498" lon="99.812831">
<time>2014-08-04T21:49:39Z</time></trkpt>
<trkpt lat="25.461558" lon="99.812701">
<time>2014-08-04T21:49:40Z</time></trkpt>
<trkpt lat="25.461617" lon="99.812571">
<time>2014-08-04T21:49:41Z</time></trkpt>
<trkpt lat="25.461687" lon="99.812431">
<time>2014-08-04T21:49:42Z</time></trkpt>
<trkpt lat="25.461787" lon="99.81228">
<time>2014-08-04T21:49:43Z</time></trkpt>
<trkpt lat="25.461947" lon="99.81204">
<time>2014-08-04T21:49:44Z</time></trkpt>
<trkpt lat="25.462076" lon="99.811819">
<time>2014-08-04T21:49:45Z</time></trkpt>
<trkpt lat="25.462146" lon="99.811719">
<time>2014-08-04T21:49:46Z</time></trkpt>
<trkpt lat="25.462206" lon="99.811629">
<time>2014-08-04T21:49:47Z</time></trkpt>
<trkpt lat="25.462286" lon="99.811499">
<time>2014-08-04T21:49:48Z</time></trkpt>
<trkpt lat="25.462355" lon="99.811369">
<time>2014-08-04T21:49:49Z</time></trkpt>
<trkpt lat="25.462415" lon="99.811238">
<time>2014-08-04T21:49:50Z</time></trkpt>
<trkpt lat="25.462465" lon="99.811088">
<time>2014-08-04T21:49:51Z</time></trkpt>
<trkpt lat="25.462515" lon="99.810928">
<time>2014-08-04T21:49:52Z</time></trkpt>
<trkpt lat="25.462574" lon="99.810687">
<time>2014-08-04T21:49:53Z</time></trkpt>
<trkpt lat="25.462624" lon="99.810497">
<time>2014-08-04T21:49:54Z</time></trkpt>
<trkpt lat="25.462674" lon="99.810337">
<time>2014-08-04T21:49:55Z</time></trkpt>
<trkpt lat="25.462703" lon="99.810186">
<time>2014-08-04T21:49:56Z</time></trkpt>
<trkpt lat="25.462733" lon="99.809996">
<time>2014-08-04T21:49:57Z</time></trkpt>
<trkpt lat="25.462753" lon="99.809856">
<time>2014-08-04T21:49:58Z</time></trkpt>
<trkpt lat="25.462763" lon="99.809695">
<time>2014-08-04T21:49:59Z</time></trkpt>
<trkpt lat="25.462772" lon="99.809475">
<time>2014-08-04T21:50:00Z</time></trkpt>
<trkpt lat="25.462782" lon="99.809204">
<time>2014-08-04T21:50:01Z</time></trkpt>
<trkpt lat="25.462801" lon="99.808944">
<time>2014-08-04T21:50:02Z</time></trkpt>
<trkpt lat="25.462821" lon="99.808653">
<time>2014-08-04T21:50:03Z</time></trkpt>
<trkpt lat="25.46284" lon="99.808483">
<time>2014-08-04T21:50:04Z</time></trkpt>
<trkpt lat="25.46284" lon="99.808313">
<time>2014-08-04T21:50:05Z</time></trkpt>
<trkpt lat="25.46283" lon="99.808152">
<time>2014-08-04T21:50:06Z</time></trkpt>
<trkpt lat="25.46281" lon="99.808022">
<time>2014-08-04T21:50:07Z</time></trkpt>
<trkpt lat="25.462789" lon="99.807902">
<time>2014-08-04T21:50:08Z</time></trkpt>
<trkpt lat="25.462719" lon="99.807611">
<time>2014-08-04T21:50:09Z</time></trkpt>
<trkpt lat="25.462658" lon="99.807351">
<time>2014-08-04T21:50:10Z</time></trkpt>
<trkpt lat="25.462628" lon="99.807211">
<time>2014-08-04T21:50:11Z</time></trkpt>
<trkpt lat="25.462598" lon="99.80703">
<time>2014-08-04T21:50:12Z</time></trkpt>
<trkpt lat="25.462568" lon="99.80684">
<time>2014-08-04T21:50:13Z</time></trkpt>
<trkpt lat="25.462517" lon="99.80665">
<time>2014-08-04T21:50:14Z</time></trkpt>
<trkpt lat="25.462477" lon="99.806479">
<time>2014-08-04T21:50:15Z</time></trkpt>
<trkpt lat="25.462417" lon="99.806329">
<time>2014-08-04T21:50:16Z</time></trkpt>
<trkpt lat="25.462366" lon="99.806189">
<time>2014-08-04T21:50:17Z</time></trkpt>
<trkpt lat="25.462236" lon="99.805908">
<time>2014-08-04T21:50:18Z</time></trkpt>
<trkpt lat="25.462176" lon="99.805758">
<time>2014-08-04T21:50:19Z</time></trkpt>
<trkpt lat="25.462135" lon="99.805618">
<time>2014-08-04T21:50:20Z</time></trkpt>
<trkpt lat="25.462105" lon="99.805457">
<time>2014-08-04T21:50:21Z</time></trkpt>
<trkpt lat="25.462085" lon="99.805297">
<time>2014-08-04T21:50:22Z</time></trkpt>
<trkpt lat="25.462075" lon="99.805147">
<time>2014-08-04T21:50:23Z</time></trkpt>
<trkpt lat="25.462054" lon="99.804977">
<time>2014-08-04T21:50:24Z</time></trkpt>
<trkpt lat="25.462044" lon="99.804836">
<time>2014-08-04T21:50:25Z</time></trkpt>
<trkpt lat="25.462044" lon="99.804706">
<time>2014-08-04T21:50:26Z</time></trkpt>
<trkpt lat="25.462044" lon="99.804656">
<time>2014-08-04T21:50:27Z</time></trkpt>
<trkpt lat="25.462053" lon="99.804526">
<time>2014-08-04T21:50:28Z</time></trkpt>
<trkpt lat="25.462073" lon="99.804335">
<time>2014-08-04T21:50:29Z</time></trkpt>
<trkpt lat="25.462113" lon="99.804025">
<time>2014-08-04T21:50:30Z</time></trkpt>
<trkpt lat="25.462142" lon="99.803855">
<time>2014-08-04T21:50:31Z</time></trkpt>
<trkpt lat="25.462182" lon="99.803694">
<time>2014-08-04T21:50:32Z</time></trkpt>
<trkpt lat="25.462222" lon="99.803534">
<time>2014-08-04T21:50:33Z</time></trkpt>
<trkpt lat="25.462282" lon="99.803354">
<time>2014-08-04T21:50:34Z</time></trkpt>
<trkpt lat="25.462381" lon="99.803073">
<time>2014-08-04T21:50:35Z</time></trkpt>
<trkpt lat="25.462481" lon="99.802793">
<time>2014-08-04T21:50:36Z</time></trkpt>
<trkpt lat="25.46252" lon="99.802692">
<time>2014-08-04T21:50:37Z</time></trkpt>
<trkpt lat="25.46258" lon="99.802582">
<time>2014-08-04T21:50:38Z</time></trkpt>
<trkpt lat="25.46265" lon="99.802482">
<time>2014-08-04T21:50:39Z</time></trkpt>
<trkpt lat="25.46273" lon="99.802382">
<time>2014-08-04T21:50:40Z</time></trkpt>
<trkpt lat="25.46283" lon="99.802302">
<time>2014-08-04T21:50:41Z</time></trkpt>
<trkpt lat="25.46301" lon="99.802161">
<time>2014-08-04T21:50:42Z</time></trkpt>
<trkpt lat="25.4631" lon="99.802081">
<time>2014-08-04T21:50:43Z</time></trkpt>
<trkpt lat="25.46317" lon="99.801991">
<time>2014-08-04T21:50:44Z</time></trkpt>
<trkpt lat="25.463229" lon="99.801881">
<time>2014-08-04T21:50:45Z</time></trkpt>
<trkpt lat="25.463269" lon="99.801761">
<time>2014-08-04T21:50:46Z</time></trkpt>
<trkpt lat="25.463309" lon="99.801641">
<time>2014-08-04T21:50:47Z</time></trkpt>
<trkpt lat="25.463339" lon="99.80152">
<time>2014-08-04T21:50:48Z</time></trkpt>
<trkpt lat="25.463369" lon="99.80139">
<time>2014-08-04T21:50:49Z</time></trkpt>
<trkpt lat="25.463418" lon="99.80129">
<time>2014-08-04T21:50:50Z</time></trkpt>
<trkpt lat="25.463478" lon="99.80119">
<time>2014-08-04T21:50:51Z</time></trkpt>
<trkpt lat="25.463558" lon="99.8011">
<time>2014-08-04T21:50:52Z</time></trkpt>
<trkpt lat="25.463668" lon="99.800999">
<time>2014-08-04T21:50:53Z</time></trkpt>
<trkpt lat="25.463768" lon="99.800919">
<time>2014-08-04T21:50:54Z</time></trkpt>
<trkpt lat="25.463998" lon="99.800739">
<time>2014-08-04T21:50:55Z</time></trkpt>
<trkpt lat="25.464158" lon="99.800619">
<time>2014-08-04T21:50:56Z</time></trkpt>
<trkpt lat="25.464307" lon="99.800499">
<time>2014-08-04T21:50:57Z</time></trkpt>
<trkpt lat="25.464417" lon="99.800398">
<time>2014-08-04T21:50:58Z</time></trkpt>
<trkpt lat="25.464507" lon="99.800318">
<time>2014-08-04T21:50:59Z</time></trkpt>
<trkpt lat="25.464577" lon="99.800218">
<time>2014-08-04T21:51:00Z</time></trkpt>
<trkpt lat="25.464627" lon="99.800118">
<time>2014-08-04T21:51:01Z</time></trkpt>
<trkpt lat="25.464657" lon="99.800008">
<time>2014-08-04T21:51:02Z</time></trkpt>
<trkpt lat="25.464666" lon="99.799887">
<time>2014-08-04T21:51:03Z</time></trkpt>
<trkpt lat="25.464646" lon="99.799777">
<time>2014-08-04T21:51:04Z</time></trkpt>
<trkpt lat="25.464606" lon="99.799657">
<time>2014-08-04T21:51:05Z</time></trkpt>
<trkpt lat="25.464556" lon="99.799527">
<time>2014-08-04T21:51:06Z</time></trkpt>
<trkpt lat="25.464466" lon="99.799307">
<time>2014-08-04T21:51:07Z</time></trkpt>
<trkpt lat="25.464405" lon="99.799156">
<time>2014-08-04T21:51:08Z</time></trkpt>
<trkpt lat="25.464335" lon="99.798966">
<time>2014-08-04T21:51:09Z</time></trkpt>
<trkpt lat="25.464275" lon="99.798836">
<time>2014-08-04T21:51:10Z</time></trkpt>
<trkpt lat="25.464224" lon="99.798705">
<time>2014-08-04T21:51:11Z</time></trkpt>
<trkpt lat="25.464184" lon="99.798565">
<time>2014-08-04T21:51:12Z</time></trkpt>
<trkpt lat="25.464144" lon="99.798425">
<time>2014-08-04T21:51:13Z</time></trkpt>
<trkpt lat="25.464114" lon="99.798295">
<time>2014-08-04T21:51:14Z</time></trkpt>
<trkpt lat="25.464094" lon="99.798135">
<time>2014-08-04T21:51:15Z</time></trkpt>
<trkpt lat="25.464073" lon="99.797934">
<time>2014-08-04T21:51:16Z</time></trkpt>
<trkpt lat="25.464073" lon="99.797854">
<time>2014-08-04T21:51:17Z</time></trkpt>
<trkpt lat="25.464053" lon="99.797724">
<time>2014-08-04T21:51:18Z</time></trkpt>
<trkpt lat="25.464033" lon="99.797604">
<time>2014-08-04T21:51:19Z</time></trkpt>
<trkpt lat="25.464002" lon="99.797473">
<time>2014-08-04T21:51:20Z</time></trkpt>
<trkpt lat="25.463952" lon="99.797363">
<time>2014-08-04T21:51:21Z</time></trkpt>
<trkpt lat="25.463902" lon="99.797253">
<time>2014-08-04T21:51:22Z</time></trkpt>
<trkpt lat="25.463852" lon="99.797173">
<time>2014-08-04T21:51:23Z</time></trkpt>
<trkpt lat="25.463732" lon="99.796983">
<time>2014-08-04T21:51:24Z</time></trkpt>
<trkpt lat="25.463671" lon="99.796882">
<time>2014-08-04T21:51:25Z</time></trkpt>
<trkpt lat="25.463621" lon="99.796782">
<time>2014-08-04T21:51:26Z</time></trkpt>
<trkpt lat="25.463601" lon="99.796682">
<time>2014-08-04T21:51:27Z</time></trkpt>
<trkpt lat="25.463601" lon="99.796582">
<time>2014-08-04T21:51:28Z</time></trkpt>
<trkpt lat="25.463621" lon="99.796482">
<time>2014-08-04T21:51:29Z</time></trkpt>
<trkpt lat="25.463661" lon="99.796392">
<time>2014-08-04T21:51:30Z</time></trkpt>
<trkpt lat="25.463711" lon="99.796312">
<time>2014-08-04T21:51:31Z</time></trkpt>
<trkpt lat="25.463781" lon="99.796261">
<time>2014-08-04T21:51:32Z</time></trkpt>
<trkpt lat="25.463861" lon="99.796221">
<time>2014-08-04T21:51:33Z</time></trkpt>
<trkpt lat="25.463961" lon="99.796201">
<time>2014-08-04T21:51:34Z</time></trkpt>
<trkpt lat="25.464011" lon="99.796201">
<time>2014-08-04T21:51:35Z</time></trkpt>
<trkpt lat="25.464061" lon="99.796201">
<time>2014-08-04T21:51:36Z</time></trkpt>
<trkpt lat="25.464161" lon="99.796221">
<time>2014-08-04T21:51:37Z</time></trkpt>
<trkpt lat="25.464271" lon="99.796241">
<time>2014-08-04T21:51:38Z</time></trkpt>
<trkpt lat="25.464431" lon="99.796281">
<time>2014-08-04T21:51:39Z</time></trkpt>
<trkpt lat="25.464651" lon="99.796342">
<time>2014-08-04T21:51:40Z</time></trkpt>
<trkpt lat="25.464781" lon="99.796362">
<time>2014-08-04T21:51:41Z</time></trkpt>
<trkpt lat="25.464811" lon="99.796362">
<time>2014-08-04T21:51:42Z</time></trkpt>
<trkpt lat="25.464901" lon="99.796372">
<time>2014-08-04T21:51:43Z</time></trkpt>
<trkpt lat="25.464931" lon="99.796372">
<time>2014-08-04T21:51:44Z</time></trkpt>
<trkpt lat="25.465241" lon="99.796462">
<time>2014-08-04T21:51:45Z</time></trkpt>
<trkpt lat="25.465451" lon="99.796492">
<time>2014-08-04T21:51:46Z</time></trkpt>
<trkpt lat="25.465651" lon="99.796502">
<time>2014-08-04T21:51:47Z</time></trkpt>
<trkpt lat="25.465962" lon="99.796502">
<time>2014-08-04T21:51:48Z</time></trkpt>
<trkpt lat="25.466052" lon="99.796502">
<time>2014-08-04T21:51:49Z</time></trkpt>
<trkpt lat="25.466152" lon="99.796512">
<time>2014-08-04T21:51:50Z</time></trkpt>
<trkpt lat="25.466202" lon="99.796532">
<time>2014-08-04T21:51:51Z</time></trkpt>
<trkpt lat="25.466242" lon="99.796542">
<time>2014-08-04T21:51:52Z</time></trkpt>
<trkpt lat="25.466292" lon="99.796562">
<time>2014-08-04T21:51:53Z</time></trkpt>
<trkpt lat="25.466332" lon="99.796582">
<time>2014-08-04T21:51:54Z</time></trkpt>
<trkpt lat="25.466462" lon="99.796642">
<time>2014-08-04T21:51:55Z</time></trkpt>
<trkpt lat="25.466592" lon="99.796702">
<time>2014-08-04T21:51:56Z</time></trkpt>
<trkpt lat="25.466642" lon="99.796722">
<time>2014-08-04T21:51:57Z</time></trkpt>
<trkpt lat="25.466692" lon="99.796722">
<time>2014-08-04T21:51:58Z</time></trkpt>
<trkpt lat="25.466752" lon="99.796722">
<time>2014-08-04T21:51:59Z</time></trkpt>
<trkpt lat="25.466772" lon="99.796722">
<time>2014-08-04T21:52:00Z</time></trkpt>
<trkpt lat="25.466802" lon="99.796712">
<time>2014-08-04T21:52:01Z</time></trkpt>
<trkpt lat="25.466832" lon="99.796702">
<time>2014-08-04T21:52:02Z</time></trkpt>
<trkpt lat="25.466932" lon="99.796672">
<time>2014-08-04T21:52:03Z</time></trkpt>
<trkpt lat="25.467062" lon="99.796612">
<time>2014-08-04T21:52:04Z</time></trkpt>
<trkpt lat="25.467222" lon="99.796532">
<time>2014-08-04T21:52:05Z</time></trkpt>
<trkpt lat="25.467362" lon="99.796452">
<time>2014-08-04T21:52:06Z</time></trkpt>
<trkpt lat="25.467732" lon="99.796261">
<time>2014-08-04T21:52:07Z</time></trkpt>
<trkpt lat="25.467952" lon="99.796151">
<time>2014-08-04T21:52:08Z</time></trkpt>
<trkpt lat="25.468071" lon="99.796091">
<time>2014-08-04T21:52:09Z</time></trkpt>
<trkpt lat="25.468171" lon="99.796021">
<time>2014-08-04T21:52:10Z</time></trkpt>
<trkpt lat="25.468261" lon="99.795951">
<time>2014-08-04T21:52:11Z</time></trkpt>
<trkpt lat="25.468301" lon="99.795921">
<time>2014-08-04T21:52:12Z</time></trkpt>
<trkpt lat="25.468331" lon="99.795881">
<time>2014-08-04T21:52:13Z</time></trkpt>
<trkpt lat="25.468361" lon="99.795851">
<time>2014-08-04T21:52:14Z</time></trkpt>
<trkpt lat="25.468381" lon="99.795821">
<time>2014-08-04T21:52:15Z</time></trkpt>
<trkpt lat="25.468421" lon="99.795761">
<time>2014-08-04T21:52:16Z</time></trkpt>
<trkpt lat="25.468471" lon="99.79568">
<time>2014-08-04T21:52:17Z</time></trkpt>
<trkpt lat="25.468541" lon="99.79556">
<time>2014-08-04T21:52:18Z</time></trkpt>
<trkpt lat="25.46868" lon="99.79527">
<time>2014-08-04T21:52:19Z</time></trkpt>
<trkpt lat="25.4688" lon="99.795039">
<time>2014-08-04T21:52:20Z</time></trkpt>
<trkpt lat="25.46893" lon="99.794769">
<time>2014-08-04T21:52:21Z</time></trkpt>
<trkpt lat="25.469049" lon="99.794519">
<time>2014-08-04T21:52:22Z</time></trkpt>
<trkpt lat="25.469169" lon="99.794288">
<time>2014-08-04T21:52:23Z</time></trkpt>
<trkpt lat="25.469249" lon="99.794138">
<time>2014-08-04T21:52:24Z</time></trkpt>
<trkpt lat="25.469329" lon="99.793978">
<time>2014-08-04T21:52:25Z</time></trkpt>
<trkpt lat="25.469428" lon="99.793827">
<time>2014-08-04T21:52:26Z</time></trkpt>
<trkpt lat="25.469538" lon="99.793647">
<time>2014-08-04T21:52:27Z</time></trkpt>
<trkpt lat="25.469658" lon="99.793477">
<time>2014-08-04T21:52:28Z</time></trkpt>
<trkpt lat="25.469758" lon="99.793317">
<time>2014-08-04T21:52:29Z</time></trkpt>
<trkpt lat="25.469818" lon="99.793216">
<time>2014-08-04T21:52:30Z</time></trkpt>
<trkpt lat="25.469848" lon="99.793176">
<time>2014-08-04T21:52:31Z</time></trkpt>
<trkpt lat="25.469858" lon="99.793126">
<time>2014-08-04T21:52:32Z</time></trkpt>
<trkpt lat="25.469867" lon="99.793096">
<time>2014-08-04T21:52:33Z</time></trkpt>
<trkpt lat="25.469877" lon="99.793056">
<time>2014-08-04T21:52:34Z</time></trkpt>
<trkpt lat="25.469877" lon="99.793026">
<time>2014-08-04T21:52:35Z</time></trkpt>
<trkpt lat="25.469887" lon="99.792996">
<time>2014-08-04T21:52:36Z</time></trkpt>
<trkpt lat="25.469877" lon="99.792956">
<time>2014-08-04T21:52:37Z</time></trkpt>
<trkpt lat="25.469877" lon="99.792926">
<time>2014-08-04T21:52:38Z</time></trkpt>
<trkpt lat="25.469867" lon="99.792896">
<time>2014-08-04T21:52:39Z</time></trkpt>
<trkpt lat="25.469857" lon="99.792866">
<time>2014-08-04T21:52:40Z</time></trkpt>
<trkpt lat="25.469847" lon="99.792836">
<time>2014-08-04T21:52:41Z</time></trkpt>
<trkpt lat="25.469837" lon="99.792816">
<time>2014-08-04T21:52:42Z</time></trkpt>
<trkpt lat="25.469817" lon="99.792786">
<time>2014-08-04T21:52:43Z</time></trkpt>
<trkpt lat="25.469777" lon="99.792726">
<time>2014-08-04T21:52:44Z</time></trkpt>
<trkpt lat="25.469677" lon="99.792616">
<time>2014-08-04T21:52:45Z</time></trkpt>
<trkpt lat="25.469577" lon="99.792515">
<time>2014-08-04T21:52:46Z</time></trkpt>
<trkpt lat="25.469557" lon="99.792485">
<time>2014-08-04T21:52:47Z</time></trkpt>
<trkpt lat="25.469436" lon="99.792365">
<time>2014-08-04T21:52:48Z</time></trkpt>
<trkpt lat="25.469306" lon="99.792235">
<time>2014-08-04T21:52:49Z</time></trkpt>
<trkpt lat="25.469166" lon="99.792065">
<time>2014-08-04T21:52:50Z</time></trkpt>
<trkpt lat="25.469106" lon="99.791985">
<time>2014-08-04T21:52:51Z</time></trkpt>
<trkpt lat="25.469076" lon="99.791915">
<time>2014-08-04T21:52:52Z</time></trkpt>
<trkpt lat="25.469065" lon="99.791844">
<time>2014-08-04T21:52:53Z</time></trkpt>
<trkpt lat="25.469065" lon="99.791784">
<time>2014-08-04T21:52:54Z</time></trkpt>
<trkpt lat="25.469065" lon="99.791734">
<time>2014-08-04T21:52:55Z</time></trkpt>
<trkpt lat="25.469085" lon="99.791634">
<time>2014-08-04T21:52:56Z</time></trkpt>
<trkpt lat="25.469115" lon="99.791534">
<time>2014-08-04T21:52:57Z</time></trkpt>
<trkpt lat="25.469155" lon="99.791434">
<time>2014-08-04T21:52:58Z</time></trkpt>
<trkpt lat="25.469215" lon="99.791354">
<time>2014-08-04T21:52:59Z</time></trkpt>
<trkpt lat="25.469285" lon="99.791264">
<time>2014-08-04T21:53:00Z</time></trkpt>
<trkpt lat="25.469315" lon="99.791233">
<time>2014-08-04T21:53:01Z</time></trkpt>
<trkpt lat="25.469355" lon="99.791193">
<time>2014-08-04T21:53:02Z</time></trkpt>
<trkpt lat="25.469405" lon="99.791153">
<time>2014-08-04T21:53:03Z</time></trkpt>
<trkpt lat="25.469574" lon="99.791013">
<time>2014-08-04T21:53:04Z</time></trkpt>
<trkpt lat="25.469784" lon="99.790843">
<time>2014-08-04T21:53:05Z</time></trkpt>
<trkpt lat="25.469914" lon="99.790723">
<time>2014-08-04T21:53:06Z</time></trkpt>
<trkpt lat="25.470044" lon="99.790613">
<time>2014-08-04T21:53:07Z</time></trkpt>
<trkpt lat="25.470124" lon="99.790532">
<time>2014-08-04T21:53:08Z</time></trkpt>
<trkpt lat="25.470234" lon="99.790422">
<time>2014-08-04T21:53:09Z</time></trkpt>
<trkpt lat="25.470404" lon="99.790232">
<time>2014-08-04T21:53:10Z</time></trkpt>
<trkpt lat="25.470583" lon="99.790042">
<time>2014-08-04T21:53:11Z</time></trkpt>
<trkpt lat="25.470743" lon="99.789871">
<time>2014-08-04T21:53:12Z</time></trkpt>
<trkpt lat="25.470843" lon="99.789761">
<time>2014-08-04T21:53:13Z</time></trkpt>
<trkpt lat="25.471013" lon="99.789591">
<time>2014-08-04T21:53:14Z</time></trkpt>
<trkpt lat="25.471143" lon="99.789451">
<time>2014-08-04T21:53:15Z</time></trkpt>
<trkpt lat="25.471273" lon="99.789321">
<time>2014-08-04T21:53:16Z</time></trkpt>
<trkpt lat="25.471352" lon="99.789231">
<time>2014-08-04T21:53:17Z</time></trkpt>
<trkpt lat="25.471412" lon="99.78914">
<time>2014-08-04T21:53:18Z</time></trkpt>
<trkpt lat="25.471452" lon="99.78904">
<time>2014-08-04T21:53:19Z</time></trkpt>
<trkpt lat="25.471482" lon="99.78892">
<time>2014-08-04T21:53:20Z</time></trkpt>
<trkpt lat="25.471502" lon="99.7888">
<time>2014-08-04T21:53:21Z</time></trkpt>
<trkpt lat="25.471502" lon="99.78868">
<time>2014-08-04T21:53:22Z</time></trkpt>
<trkpt lat="25.471502" lon="99.78857">
<time>2014-08-04T21:53:23Z</time></trkpt>
<trkpt lat="25.471501" lon="99.788389">
<time>2014-08-04T21:53:24Z</time></trkpt>
<trkpt lat="25.471511" lon="99.788279">
<time>2014-08-04T21:53:25Z</time></trkpt>
<trkpt lat="25.471541" lon="99.788169">
<time>2014-08-04T21:53:26Z</time></trkpt>
<trkpt lat="25.471601" lon="99.788059">
<time>2014-08-04T21:53:27Z</time></trkpt>
<trkpt lat="25.471671" lon="99.787969">
<time>2014-08-04T21:53:28Z</time></trkpt>
<trkpt lat="25.471751" lon="99.787859">
<time>2014-08-04T21:53:29Z</time></trkpt>
<trkpt lat="25.471831" lon="99.787768">
<time>2014-08-04T21:53:30Z</time></trkpt>
<trkpt lat="25.471901" lon="99.787698">
<time>2014-08-04T21:53:31Z</time></trkpt>
<trkpt lat="25.47203" lon="99.787578">
<time>2014-08-04T21:53:32Z</time></trkpt>
<trkpt lat="25.47214" lon="99.787488">
<time>2014-08-04T21:53:33Z</time></trkpt>
<trkpt lat="25.47226" lon="99.787398">
<time>2014-08-04T21:53:34Z</time></trkpt>
<trkpt lat="25.47239" lon="99.787328">
<time>2014-08-04T21:53:35Z</time></trkpt>
<trkpt lat="25.47253" lon="99.787268">
<time>2014-08-04T21:53:36Z</time></trkpt>
<trkpt lat="25.47267" lon="99.787218">
<time>2014-08-04T21:53:37Z</time></trkpt>
<trkpt lat="25.47285" lon="99.787168">
<time>2014-08-04T21:53:38Z</time></trkpt>
<trkpt lat="25.47304" lon="99.787118">
<time>2014-08-04T21:53:39Z</time></trkpt>
<trkpt lat="25.47322" lon="99.787077">
<time>2014-08-04T21:53:40Z</time></trkpt>
<trkpt lat="25.47335" lon="99.787037">
<time>2014-08-04T21:53:41Z</time></trkpt>
<trkpt lat="25.47345" lon="99.787017">
<time>2014-08-04T21:53:42Z</time></trkpt>
<trkpt lat="25.47349" lon="99.787007">
<time>2014-08-04T21:53:43Z</time></trkpt>
<trkpt lat="25.47354" lon="99.787007">
<time>2014-08-04T21:53:44Z</time></trkpt>
<trkpt lat="25.47362" lon="99.786997">
<time>2014-08-04T21:53:45Z</time></trkpt>
<trkpt lat="25.47368" lon="99.787007">
<time>2014-08-04T21:53:46Z</time></trkpt>
<trkpt lat="25.47373" lon="99.787007">
<time>2014-08-04T21:53:47Z</time></trkpt>
<trkpt lat="25.47377" lon="99.787017">
<time>2014-08-04T21:53:48Z</time></trkpt>
<trkpt lat="25.47379" lon="99.787027">
<time>2014-08-04T21:53:49Z</time></trkpt>
<trkpt lat="25.4738" lon="99.787027">
<time>2014-08-04T21:53:50Z</time></trkpt>
<trkpt lat="25.47381" lon="99.787027">
<time>2014-08-04T21:53:51Z</time></trkpt>
<trkpt lat="25.47384" lon="99.787027">
<time>2014-08-04T21:53:52Z</time></trkpt>
<trkpt lat="25.47387" lon="99.787037">
<time>2014-08-04T21:53:53Z</time></trkpt>
<trkpt lat="25.4739" lon="99.787047">
<time>2014-08-04T21:53:54Z</time></trkpt>
<trkpt lat="25.47392" lon="99.787047">
<time>2014-08-04T21:53:55Z</time></trkpt>
<trkpt lat="25.47394" lon="99.787057">
<time>2014-08-04T21:53:56Z</time></trkpt>
<trkpt lat="25.47398" lon="99.787067">
<time>2014-08-04T21:53:57Z</time></trkpt>
<trkpt lat="25.47399" lon="99.787067">
<time>2014-08-04T21:53:58Z</time></trkpt>
<trkpt lat="25.47402" lon="99.787077">
<time>2014-08-04T21:53:59Z</time></trkpt>
<trkpt lat="25.47403" lon="99.787077">
<time>2014-08-04T21:54:00Z</time></trkpt>
<trkpt lat="25.47408" lon="99.787097">
<time>2014-08-04T21:54:01Z</time></trkpt>
<trkpt lat="25.47414" lon="99.787118">
<time>2014-08-04T21:54:02Z</time></trkpt>
<trkpt lat="25.4742" lon="99.787128">
<time>2014-08-04T21:54:03Z</time></trkpt>
<trkpt lat="25.47426" lon="99.787138">
<time>2014-08-04T21:54:04Z</time></trkpt>
<trkpt lat="25.474321" lon="99.787148">
<time>2014-08-04T21:54:05Z</time></trkpt>
<trkpt lat="25.474351" lon="99.787168">
<time>2014-08-04T21:54:06Z</time></trkpt>
<trkpt lat="25.474441" lon="99.787188">
<time>2014-08-04T21:54:07Z</time></trkpt>
<trkpt lat="25.474591" lon="99.787228">
<time>2014-08-04T21:54:08Z</time></trkpt>
<trkpt lat="25.474691" lon="99.787258">
<time>2014-08-04T21:54:09Z</time></trkpt>
<trkpt lat="25.474871" lon="99.787298">
<time>2014-08-04T21:54:10Z</time></trkpt>
<trkpt lat="25.475101" lon="99.787368">
<time>2014-08-04T21:54:11Z</time></trkpt>
<trkpt lat="25.475291" lon="99.787438">
<time>2014-08-04T21:54:12Z</time></trkpt>
<trkpt lat="25.475461" lon="99.787508">
<time>2014-08-04T21:54:13Z</time></trkpt>
<trkpt lat="25.475631" lon="99.787568">
<time>2014-08-04T21:54:14Z</time></trkpt>
<trkpt lat="25.475752" lon="99.787608">
<time>2014-08-04T21:54:15Z</time></trkpt>
<trkpt lat="25.475862" lon="99.787628">
<time>2014-08-04T21:54:16Z</time></trkpt>
<trkpt lat="25.475982" lon="99.787638">
<time>2014-08-04T21:54:17Z</time></trkpt>
<trkpt lat="25.476132" lon="99.787638">
<time>2014-08-04T21:54:18Z</time></trkpt>
<trkpt lat="25.476352" lon="99.787648">
<time>2014-08-04T21:54:19Z</time></trkpt>
<trkpt lat="25.476492" lon="99.787648">
<time>2014-08-04T21:54:20Z</time></trkpt>
<trkpt lat="25.476712" lon="99.787678">
<time>2014-08-04T21:54:21Z</time></trkpt>
<trkpt lat="25.476982" lon="99.787738">
<time>2014-08-04T21:54:22Z</time></trkpt>
<trkpt lat="25.477302" lon="99.787828">
<time>2014-08-04T21:54:23Z</time></trkpt>
<trkpt lat="25.477622" lon="99.787909">
<time>2014-08-04T21:54:24Z</time></trkpt>
<trkpt lat="25.477833" lon="99.787969">
<time>2014-08-04T21:54:25Z</time></trkpt>
<trkpt lat="25.477973" lon="99.788009">
<time>2014-08-04T21:54:26Z</time></trkpt>
<trkpt lat="25.478113" lon="99.788049">
<time>2014-08-04T21:54:27Z</time></trkpt>
<trkpt lat="25.478233" lon="99.788109">
<time>2014-08-04T21:54:28Z</time></trkpt>
<trkpt lat="25.478323" lon="99.788159">
<time>2014-08-04T21:54:29Z</time></trkpt>
<trkpt lat="25.478483" lon="99.788249">
<time>2014-08-04T21:54:30Z</time></trkpt>
<trkpt lat="25.478583" lon="99.788309">
<time>2014-08-04T21:54:31Z</time></trkpt>
<trkpt lat="25.478703" lon="99.788369">
<time>2014-08-04T21:54:32Z</time></trkpt>
<trkpt lat="25.478833" lon="99.788419">
<time>2014-08-04T21:54:33Z</time></trkpt>
<trkpt lat="25.478954" lon="99.788449">
<time>2014-08-04T21:54:34Z</time></trkpt>
<trkpt lat="25.479024" lon="99.788469">
<time>2014-08-04T21:54:35Z</time></trkpt>
<trkpt lat="25.479224" lon="99.788529">
<time>2014-08-04T21:54:36Z</time></trkpt>
<trkpt lat="25.479364" lon="99.788569">
<time>2014-08-04T21:54:37Z</time></trkpt>
<trkpt lat="25.479494" lon="99.788629">
<time>2014-08-04T21:54:38Z</time></trkpt>
<trkpt lat="25.479614" lon="99.78868">
<time>2014-08-04T21:54:39Z</time></trkpt>
<trkpt lat="25.479784" lon="99.78878">
<time>2014-08-04T21:54:40Z</time></trkpt>
<trkpt lat="25.479944" lon="99.78888">
<time>2014-08-04T21:54:41Z</time></trkpt>
<trkpt lat="25.480105" lon="99.78898">
<time>2014-08-04T21:54:42Z</time></trkpt>
<trkpt lat="25.480275" lon="99.78909">
<time>2014-08-04T21:54:43Z</time></trkpt>
<trkpt lat="25.480445" lon="99.78921">
<time>2014-08-04T21:54:44Z</time></trkpt>
<trkpt lat="25.480595" lon="99.78931">
<time>2014-08-04T21:54:45Z</time></trkpt>
<trkpt lat="25.480725" lon="99.789391">
<time>2014-08-04T21:54:46Z</time></trkpt>
<trkpt lat="25.480825" lon="99.789461">
<time>2014-08-04T21:54:47Z</time></trkpt>
<trkpt lat="25.480946" lon="99.789551">
<time>2014-08-04T21:54:48Z</time></trkpt>
<trkpt lat="25.481066" lon="99.789651">
<time>2014-08-04T21:54:49Z</time></trkpt>
<trkpt lat="25.481176" lon="99.789751">
<time>2014-08-04T21:54:50Z</time></trkpt>
<trkpt lat="25.481276" lon="99.789861">
<time>2014-08-04T21:54:51Z</time></trkpt>
<trkpt lat="25.481346" lon="99.789931">
<time>2014-08-04T21:54:52Z</time></trkpt>
<trkpt lat="25.481426" lon="99.790011">
<time>2014-08-04T21:54:53Z</time></trkpt>
<trkpt lat="25.481517" lon="99.790082">
<time>2014-08-04T21:54:54Z</time></trkpt>
<trkpt lat="25.481607" lon="99.790132">
<time>2014-08-04T21:54:55Z</time></trkpt>
<trkpt lat="25.481707" lon="99.790152">
<time>2014-08-04T21:54:56Z</time></trkpt>
<trkpt lat="25.481807" lon="99.790162">
<time>2014-08-04T21:54:57Z</time></trkpt>
<trkpt lat="25.481917" lon="99.790152">
<time>2014-08-04T21:54:58Z</time></trkpt>
<trkpt lat="25.482007" lon="99.790132">
<time>2014-08-04T21:54:59Z</time></trkpt>
<trkpt lat="25.482167" lon="99.790102">
<time>2014-08-04T21:55:00Z</time></trkpt>
<trkpt lat="25.482297" lon="99.790071">
<time>2014-08-04T21:55:01Z</time></trkpt>
<trkpt lat="25.482437" lon="99.790021">
<time>2014-08-04T21:55:02Z</time></trkpt>
<trkpt lat="25.482487" lon="99.790001">
<time>2014-08-04T21:55:03Z</time></trkpt>
<trkpt lat="25.482567" lon="99.789961">
<time>2014-08-04T21:55:04Z</time></trkpt>
<trkpt lat="25.482677" lon="99.789911">
<time>2014-08-04T21:55:05Z</time></trkpt>
<trkpt lat="25.482827" lon="99.789831">
<time>2014-08-04T21:55:06Z</time></trkpt>
<trkpt lat="25.482996" lon="99.789741">
<time>2014-08-04T21:55:07Z</time></trkpt>
<trkpt lat="25.483166" lon="99.789651">
<time>2014-08-04T21:55:08Z</time></trkpt>
<trkpt lat="25.483336" lon="99.789561">
<time>2014-08-04T21:55:09Z</time></trkpt>
<trkpt lat="25.483496" lon="99.789471">
<time>2014-08-04T21:55:10Z</time></trkpt>
<trkpt lat="25.483656" lon="99.78939">
<time>2014-08-04T21:55:11Z</time></trkpt>
<trkpt lat="25.483786" lon="99.78932">
<time>2014-08-04T21:55:12Z</time></trkpt>
<trkpt lat="25.483986" lon="99.78923">
<time>2014-08-04T21:55:13Z</time></trkpt>
<trkpt lat="25.484116" lon="99.78917">
<time>2014-08-04T21:55:14Z</time></trkpt>
<trkpt lat="25.484246" lon="99.78911">
<time>2014-08-04T21:55:15Z</time></trkpt>
<trkpt lat="25.484426" lon="99.78904">
<time>2014-08-04T21:55:16Z</time></trkpt>
<trkpt lat="25.484566" lon="99.78898">
<time>2014-08-04T21:55:17Z</time></trkpt>
<trkpt lat="25.484676" lon="99.78893">
<time>2014-08-04T21:55:18Z</time></trkpt>
<trkpt lat="25.484826" lon="99.78885">
<time>2014-08-04T21:55:19Z</time></trkpt>
<trkpt lat="25.484976" lon="99.78877">
<time>2014-08-04T21:55:20Z</time></trkpt>
<trkpt lat="25.485086" lon="99.788689">
<time>2014-08-04T21:55:21Z</time></trkpt>
<trkpt lat="25.485226" lon="99.788599">
<time>2014-08-04T21:55:22Z</time></trkpt>
<trkpt lat="25.485346" lon="99.788529">
<time>2014-08-04T21:55:23Z</time></trkpt>
<trkpt lat="25.485476" lon="99.788479">
<time>2014-08-04T21:55:24Z</time></trkpt>
<trkpt lat="25.485596" lon="99.788449">
<time>2014-08-04T21:55:25Z</time></trkpt>
<trkpt lat="25.485726" lon="99.788439">
<time>2014-08-04T21:55:26Z</time></trkpt>
<trkpt lat="25.485836" lon="99.788439">
<time>2014-08-04T21:55:27Z</time></trkpt>
<trkpt lat="25.485956" lon="99.788439">
<time>2014-08-04T21:55:28Z</time></trkpt>
<trkpt lat="25.486096" lon="99.788439">
<time>2014-08-04T21:55:29Z</time></trkpt>
<trkpt lat="25.486236" lon="99.788439">
<time>2014-08-04T21:55:30Z</time></trkpt>
<trkpt lat="25.486336" lon="99.788429">
<time>2014-08-04T21:55:31Z</time></trkpt>
<trkpt lat="25.486486" lon="99.788429">
<time>2014-08-04T21:55:32Z</time></trkpt>
<trkpt lat="25.486566" lon="99.788419">
<time>2014-08-04T21:55:33Z</time></trkpt>
<trkpt lat="25.486746" lon="99.788389">
<time>2014-08-04T21:55:34Z</time></trkpt>
<trkpt lat="25.486886" lon="99.788349">
<time>2014-08-04T21:55:35Z</time></trkpt>
<trkpt lat="25.486996" lon="99.788309">
<time>2014-08-04T21:55:36Z</time></trkpt>
<trkpt lat="25.487036" lon="99.788289">
<time>2014-08-04T21:55:37Z</time></trkpt>
<trkpt lat="25.487046" lon="99.788279">
<time>2014-08-04T21:55:38Z</time></trkpt>
<trkpt lat="25.487126" lon="99.788249">
<time>2014-08-04T21:55:39Z</time></trkpt>
<trkpt lat="25.487236" lon="99.788169">
<time>2014-08-04T21:55:40Z</time></trkpt>
<trkpt lat="25.487336" lon="99.788079">
<time>2014-08-04T21:55:41Z</time></trkpt>
<trkpt lat="25.487405" lon="99.787998">
<time>2014-08-04T21:55:42Z</time></trkpt>
<trkpt lat="25.487465" lon="99.787918">
<time>2014-08-04T21:55:43Z</time></trkpt>
<trkpt lat="25.487565" lon="99.787788">
<time>2014-08-04T21:55:44Z</time></trkpt>
<trkpt lat="25.487645" lon="99.787688">
<time>2014-08-04T21:55:45Z</time></trkpt>
<trkpt lat="25.487745" lon="99.787558">
<time>2014-08-04T21:55:46Z</time></trkpt>
<trkpt lat="25.487825" lon="99.787468">
<time>2014-08-04T21:55:47Z</time></trkpt>
<trkpt lat="25.487925" lon="99.787378">
<time>2014-08-04T21:55:48Z</time></trkpt>
<trkpt lat="25.488025" lon="99.787277">
<time>2014-08-04T21:55:49Z</time></trkpt>
<trkpt lat="25.488185" lon="99.787137">
<time>2014-08-04T21:55:50Z</time></trkpt>
<trkpt lat="25.488235" lon="99.787087">
<time>2014-08-04T21:55:51Z</time></trkpt>
<trkpt lat="25.488294" lon="99.787027">
<time>2014-08-04T21:55:52Z</time></trkpt>
<trkpt lat="25.488334" lon="99.786957">
<time>2014-08-04T21:55:53Z</time></trkpt>
<trkpt lat="25.488374" lon="99.786887">
<time>2014-08-04T21:55:54Z</time></trkpt>
<trkpt lat="25.488414" lon="99.786797">
<time>2014-08-04T21:55:55Z</time></trkpt>
<trkpt lat="25.488454" lon="99.786677">
<time>2014-08-04T21:55:56Z</time></trkpt>
<trkpt lat="25.488534" lon="99.786396">
<time>2014-08-04T21:55:57Z</time></trkpt>
<trkpt lat="25.488564" lon="99.786306">
<time>2014-08-04T21:55:58Z</time></trkpt>
<trkpt lat="25.488593" lon="99.786216">
<time>2014-08-04T21:55:59Z</time></trkpt>
<trkpt lat="25.488633" lon="99.786096">
<time>2014-08-04T21:56:00Z</time></trkpt>
<trkpt lat="25.488743" lon="99.785855">
<time>2014-08-04T21:56:01Z</time></trkpt>
<trkpt lat="25.488853" lon="99.785585">
<time>2014-08-04T21:56:02Z</time></trkpt>
<trkpt lat="25.489012" lon="99.785245">
<time>2014-08-04T21:56:03Z</time></trkpt>
<trkpt lat="25.489092" lon="99.785094">
<time>2014-08-04T21:56:04Z</time></trkpt>
<trkpt lat="25.489152" lon="99.784974">
<time>2014-08-04T21:56:05Z</time></trkpt>
<trkpt lat="25.489262" lon="99.784814">
<time>2014-08-04T21:56:06Z</time></trkpt>
<trkpt lat="25.489392" lon="99.784604">
<time>2014-08-04T21:56:07Z</time></trkpt>
<trkpt lat="25.489482" lon="99.784474">
<time>2014-08-04T21:56:08Z</time></trkpt>
<trkpt lat="25.489551" lon="99.784384">
<time>2014-08-04T21:56:09Z</time></trkpt>
<trkpt lat="25.489581" lon="99.784343">
<time>2014-08-04T21:56:10Z</time></trkpt>
<trkpt lat="25.489631" lon="99.784313">
<time>2014-08-04T21:56:11Z</time></trkpt>
<trkpt lat="25.489701" lon="99.784263">
<time>2014-08-04T21:56:12Z</time></trkpt>
<trkpt lat="25.489791" lon="99.784233">
<time>2014-08-04T21:56:13Z</time></trkpt>
<trkpt lat="25.489871" lon="99.784213">
<time>2014-08-04T21:56:14Z</time></trkpt>
<trkpt lat="25.489981" lon="99.784193">
<time>2014-08-04T21:56:15Z</time></trkpt>
<trkpt lat="25.490121" lon="99.784173">
<time>2014-08-04T21:56:16Z</time></trkpt>
<trkpt lat="25.490461" lon="99.784143">
<time>2014-08-04T21:56:17Z</time></trkpt>
<trkpt lat="25.490892" lon="99.784093">
<time>2014-08-04T21:56:18Z</time></trkpt>
<trkpt lat="25.491092" lon="99.784073">
<time>2014-08-04T21:56:19Z</time></trkpt>
<trkpt lat="25.491312" lon="99.784053">
<time>2014-08-04T21:56:20Z</time></trkpt>
<trkpt lat="25.491532" lon="99.784033">
<time>2014-08-04T21:56:21Z</time></trkpt>
<trkpt lat="25.491642" lon="99.784023">
<time>2014-08-04T21:56:22Z</time></trkpt>
<trkpt lat="25.491942" lon="99.784003">
<time>2014-08-04T21:56:23Z</time></trkpt>
<trkpt lat="25.492272" lon="99.784003">
<time>2014-08-04T21:56:24Z</time></trkpt>
<trkpt lat="25.492492" lon="99.783993">
<time>2014-08-04T21:56:25Z</time></trkpt>
<trkpt lat="25.492602" lon="99.783993">
<time>2014-08-04T21:56:26Z</time></trkpt>
<trkpt lat="25.492692" lon="99.783983">
<time>2014-08-04T21:56:27Z</time></trkpt>
<trkpt lat="25.492792" lon="99.783963">
<time>2014-08-04T21:56:28Z</time></trkpt>
<trkpt lat="25.492872" lon="99.783943">
<time>2014-08-04T21:56:29Z</time></trkpt>
<trkpt lat="25.492962" lon="99.783913">
<time>2014-08-04T21:56:30Z</time></trkpt>
<trkpt lat="25.493052" lon="99.783883">
<time>2014-08-04T21:56:31Z</time></trkpt>
<trkpt lat="25.493152" lon="99.783843">
<time>2014-08-04T21:56:32Z</time></trkpt>
<trkpt lat="25.493252" lon="99.783803">
<time>2014-08-04T21:56:33Z</time></trkpt>
<trkpt lat="25.493352" lon="99.783773">
<time>2014-08-04T21:56:34Z</time></trkpt>
<trkpt lat="25.493462" lon="99.783753">
<time>2014-08-04T21:56:35Z</time></trkpt>
<trkpt lat="25.493552" lon="99.783733">
<time>2014-08-04T21:56:36Z</time></trkpt>
<trkpt lat="25.493722" lon="99.783723">
<time>2014-08-04T21:56:37Z</time></trkpt>
<trkpt lat="25.494002" lon="99.783723">
<time>2014-08-04T21:56:38Z</time></trkpt>
<trkpt lat="25.494392" lon="99.783733">
<time>2014-08-04T21:56:39Z</time></trkpt>
<trkpt lat="25.494792" lon="99.783753">
<time>2014-08-04T21:56:40Z</time></trkpt>
<trkpt lat="25.495162" lon="99.783773">
<time>2014-08-04T21:56:41Z</time></trkpt>
<trkpt lat="25.495533" lon="99.783793">
<time>2014-08-04T21:56:42Z</time></trkpt>
<trkpt lat="25.495803" lon="99.783793">
<time>2014-08-04T21:56:43Z</time></trkpt>
<trkpt lat="25.496013" lon="99.783803">
<time>2014-08-04T21:56:44Z</time></trkpt>
<trkpt lat="25.496203" lon="99.783813">
<time>2014-08-04T21:56:45Z</time></trkpt>
<trkpt lat="25.496313" lon="99.783833">
<time>2014-08-04T21:56:46Z</time></trkpt>
<trkpt lat="25.496423" lon="99.783853">
<time>2014-08-04T21:56:47Z</time></trkpt>
<trkpt lat="25.496523" lon="99.783903">
<time>2014-08-04T21:56:48Z</time></trkpt>
<trkpt lat="25.496623" lon="99.783953">
<time>2014-08-04T21:56:49Z</time></trkpt>
<trkpt lat="25.496703" lon="99.783993">
<time>2014-08-04T21:56:50Z</time></trkpt>
<trkpt lat="25.496783" lon="99.784063">
<time>2014-08-04T21:56:51Z</time></trkpt>
<trkpt lat="25.496954" lon="99.784203">
<time>2014-08-04T21:56:52Z</time></trkpt>
<trkpt lat="25.497054" lon="99.784273">
<time>2014-08-04T21:56:53Z</time></trkpt>
<trkpt lat="25.497164" lon="99.784323">
<time>2014-08-04T21:56:54Z</time></trkpt>
<trkpt lat="25.497274" lon="99.784363">
<time>2014-08-04T21:56:55Z</time></trkpt>
<trkpt lat="25.497384" lon="99.784383">
<time>2014-08-04T21:56:56Z</time></trkpt>
<trkpt lat="25.497494" lon="99.784383">
<time>2014-08-04T21:56:57Z</time></trkpt>
<trkpt lat="25.497594" lon="99.784383">
<time>2014-08-04T21:56:58Z</time></trkpt>
<trkpt lat="25.497704" lon="99.784363">
<time>2014-08-04T21:56:59Z</time></trkpt>
<trkpt lat="25.497844" lon="99.784333">
<time>2014-08-04T21:57:00Z</time></trkpt>
<trkpt lat="25.497944" lon="99.784293">
<time>2014-08-04T21:57:01Z</time></trkpt>
<trkpt lat="25.498084" lon="99.784243">
<time>2014-08-04T21:57:02Z</time></trkpt>
<trkpt lat="25.498184" lon="99.784213">
<time>2014-08-04T21:57:03Z</time></trkpt>
<trkpt lat="25.498254" lon="99.784183">
<time>2014-08-04T21:57:04Z</time></trkpt>
<trkpt lat="25.498324" lon="99.784153">
<time>2014-08-04T21:57:05Z</time></trkpt>
<trkpt lat="25.498444" lon="99.784083">
<time>2014-08-04T21:57:06Z</time></trkpt>
<trkpt lat="25.498494" lon="99.784043">
<time>2014-08-04T21:57:07Z</time></trkpt>
<trkpt lat="25.498554" lon="99.783993">
<time>2014-08-04T21:57:08Z</time></trkpt>
<trkpt lat="25.498654" lon="99.783893">
<time>2014-08-04T21:57:09Z</time></trkpt>
<trkpt lat="25.498754" lon="99.783793">
<time>2014-08-04T21:57:10Z</time></trkpt>
<trkpt lat="25.498893" lon="99.783622">
<time>2014-08-04T21:57:11Z</time></trkpt>
<trkpt lat="25.499063" lon="99.783422">
<time>2014-08-04T21:57:12Z</time></trkpt>
<trkpt lat="25.499113" lon="99.783372">
<time>2014-08-04T21:57:13Z</time></trkpt>
<trkpt lat="25.499143" lon="99.783322">
<time>2014-08-04T21:57:14Z</time></trkpt>
<trkpt lat="25.499183" lon="99.783262">
<time>2014-08-04T21:57:15Z</time></trkpt>
<trkpt lat="25.499213" lon="99.783212">
<time>2014-08-04T21:57:16Z</time></trkpt>
<trkpt lat="25.499243" lon="99.783142">
<time>2014-08-04T21:57:17Z</time></trkpt>
<trkpt lat="25.499263" lon="99.783102">
<time>2014-08-04T21:57:18Z</time></trkpt>
<trkpt lat="25.499283" lon="99.783062">
<time>2014-08-04T21:57:19Z</time></trkpt>
<trkpt lat="25.499293" lon="99.783022">
<time>2014-08-04T21:57:20Z</time></trkpt>
<trkpt lat="25.499313" lon="99.782962">
<time>2014-08-04T21:57:21Z</time></trkpt>
<trkpt lat="25.499333" lon="99.782881">
<time>2014-08-04T21:57:22Z</time></trkpt>
<trkpt lat="25.499353" lon="99.782801">
<time>2014-08-04T21:57:23Z</time></trkpt>
<trkpt lat="25.499373" lon="99.782731">
<time>2014-08-04T21:57:24Z</time></trkpt>
<trkpt lat="25.499392" lon="99.782691">
<time>2014-08-04T21:57:25Z</time></trkpt>
<trkpt lat="25.499422" lon="99.782631">
<time>2014-08-04T21:57:26Z</time></trkpt>
<trkpt lat="25.499442" lon="99.782591">
<time>2014-08-04T21:57:27Z</time></trkpt>
<trkpt lat="25.499472" lon="99.782561">
<time>2014-08-04T21:57:28Z</time></trkpt>
<trkpt lat="25.499492" lon="99.782531">
<time>2014-08-04T21:57:29Z</time></trkpt>
<trkpt lat="25.499522" lon="99.782491">
<time>2014-08-04T21:57:30Z</time></trkpt>
<trkpt lat="25.499552" lon="99.782471">
<time>2014-08-04T21:57:31Z</time></trkpt>
<trkpt lat="25.499612" lon="99.782421">
<time>2014-08-04T21:57:32Z</time></trkpt>
<trkpt lat="25.499732" lon="99.782341">
<time>2014-08-04T21:57:33Z</time></trkpt>
<trkpt lat="25.499782" lon="99.782321">
<time>2014-08-04T21:57:34Z</time></trkpt>
<trkpt lat="25.499842" lon="99.782291">
<time>2014-08-04T21:57:35Z</time></trkpt>
<trkpt lat="25.499902" lon="99.782261">
<time>2014-08-04T21:57:36Z</time></trkpt>
<trkpt lat="25.499962" lon="99.782231">
<time>2014-08-04T21:57:37Z</time></trkpt>
<trkpt lat="25.500022" lon="99.782211">
<time>2014-08-04T21:57:38Z</time></trkpt>
<trkpt lat="25.500142" lon="99.782171">
<time>2014-08-04T21:57:39Z</time></trkpt>
<trkpt lat="25.500392" lon="99.78213">
<time>2014-08-04T21:57:40Z</time></trkpt>
<trkpt lat="25.500532" lon="99.7821">
<time>2014-08-04T21:57:41Z</time></trkpt>
<trkpt lat="25.500662" lon="99.78208">
<time>2014-08-04T21:57:42Z</time></trkpt>
<trkpt lat="25.500832" lon="99.78204">
<time>2014-08-04T21:57:43Z</time></trkpt>
<trkpt lat="25.500972" lon="99.78202">
<time>2014-08-04T21:57:44Z</time></trkpt>
<trkpt lat="25.501012" lon="99.78201">
<time>2014-08-04T21:57:45Z</time></trkpt>
<trkpt lat="25.501122" lon="99.782">
<time>2014-08-04T21:57:46Z</time></trkpt>
<trkpt lat="25.501232" lon="99.782">
<time>2014-08-04T21:57:47Z</time></trkpt>
<trkpt lat="25.501292" lon="99.78201">
<time>2014-08-04T21:57:48Z</time></trkpt>
<trkpt lat="25.501352" lon="99.78203">
<time>2014-08-04T21:57:49Z</time></trkpt>
<trkpt lat="25.501412" lon="99.78204">
<time>2014-08-04T21:57:50Z</time></trkpt>
<trkpt lat="25.501462" lon="99.78207">
<time>2014-08-04T21:57:51Z</time></trkpt>
<trkpt lat="25.501522" lon="99.78211">
<time>2014-08-04T21:57:52Z</time></trkpt>
<trkpt lat="25.501573" lon="99.78216">
<time>2014-08-04T21:57:53Z</time></trkpt>
<trkpt lat="25.501613" lon="99.782201">
<time>2014-08-04T21:57:54Z</time></trkpt>
<trkpt lat="25.501773" lon="99.782401">
<time>2014-08-04T21:57:55Z</time></trkpt>
<trkpt lat="25.501913" lon="99.782581">
<time>2014-08-04T21:57:56Z</time></trkpt>
<trkpt lat="25.501973" lon="99.782651">
<time>2014-08-04T21:57:57Z</time></trkpt>
<trkpt lat="25.502023" lon="99.782701">
<time>2014-08-04T21:57:58Z</time></trkpt>
<trkpt lat="25.502093" lon="99.782751">
<time>2014-08-04T21:57:59Z</time></trkpt>
<trkpt lat="25.502153" lon="99.782781">
<time>2014-08-04T21:58:00Z</time></trkpt>
<trkpt lat="25.502183" lon="99.782791">
<time>2014-08-04T21:58:01Z</time></trkpt>
<trkpt lat="25.502214" lon="99.782801">
<time>2014-08-04T21:58:02Z</time></trkpt>
<trkpt lat="25.502244" lon="99.782811">
<time>2014-08-04T21:58:03Z</time></trkpt>
<trkpt lat="25.502284" lon="99.782811">
<time>2014-08-04T21:58:04Z</time></trkpt>
<trkpt lat="25.502314" lon="99.782821">
<time>2014-08-04T21:58:05Z</time></trkpt>
<trkpt lat="25.502344" lon="99.782821">
<time>2014-08-04T21:58:06Z</time></trkpt>
<trkpt lat="25.502364" lon="99.782811">
<time>2014-08-04T21:58:07Z</time></trkpt>
<trkpt lat="25.502384" lon="99.782811">
<time>2014-08-04T21:58:08Z</time></trkpt>
<trkpt lat="25.502414" lon="99.782801">
<time>2014-08-04T21:58:09Z</time></trkpt>
<trkpt lat="25.502444" lon="99.782791">
<time>2014-08-04T21:58:10Z</time></trkpt>
<trkpt lat="25.502464" lon="99.782781">
<time>2014-08-04T21:58:11Z</time></trkpt>
<trkpt lat="25.502484" lon="99.782761">
<time>2014-08-04T21:58:12Z</time></trkpt>
<trkpt lat="25.502514" lon="99.782741">
<time>2014-08-04T21:58:13Z</time></trkpt>
<trkpt lat="25.502534" lon="99.782721">
<time>2014-08-04T21:58:14Z</time></trkpt>
<trkpt lat="25.502553" lon="99.782701">
<time>2014-08-04T21:58:15Z</time></trkpt>
<trkpt lat="25.502563" lon="99.782681">
<time>2014-08-04T21:58:16Z</time></trkpt>
<trkpt lat="25.502583" lon="99.782651">
<time>2014-08-04T21:58:17Z</time></trkpt>
<trkpt lat="25.502603" lon="99.782621">
<time>2014-08-04T21:58:18Z</time></trkpt>
<trkpt lat="25.502653" lon="99.782501">
<time>2014-08-04T21:58:19Z</time></trkpt>
<trkpt lat="25.502713" lon="99.782341">
<time>2014-08-04T21:58:20Z</time></trkpt>
<trkpt lat="25.502783" lon="99.78212">
<time>2014-08-04T21:58:21Z</time></trkpt>
<trkpt lat="25.502932" lon="99.78163">
<time>2014-08-04T21:58:22Z</time></trkpt>
<trkpt lat="25.503072" lon="99.781109">
<time>2014-08-04T21:58:23Z</time></trkpt>
<trkpt lat="25.503112" lon="99.780999">
<time>2014-08-04T21:58:24Z</time></trkpt>
<trkpt lat="25.503132" lon="99.780919">
<time>2014-08-04T21:58:25Z</time></trkpt>
<trkpt lat="25.503162" lon="99.780859">
<time>2014-08-04T21:58:26Z</time></trkpt>
<trkpt lat="25.503192" lon="99.780789">
<time>2014-08-04T21:58:27Z</time></trkpt>
<trkpt lat="25.503221" lon="99.780739">
<time>2014-08-04T21:58:28Z</time></trkpt>
<trkpt lat="25.503251" lon="99.780699">
<time>2014-08-04T21:58:29Z</time></trkpt>
<trkpt lat="25.503291" lon="99.780649">
<time>2014-08-04T21:58:30Z</time></trkpt>
<trkpt lat="25.503341" lon="99.780609">
<time>2014-08-04T21:58:31Z</time></trkpt>
<trkpt lat="25.503391" lon="99.780569">
<time>2014-08-04T21:58:32Z</time></trkpt>
<trkpt lat="25.503441" lon="99.780539">
<time>2014-08-04T21:58:33Z</time></trkpt>
<trkpt lat="25.503531" lon="99.780488">
<time>2014-08-04T21:58:34Z</time></trkpt>
<trkpt lat="25.503621" lon="99.780448">
<time>2014-08-04T21:58:35Z</time></trkpt>
<trkpt lat="25.504531" lon="99.780058">
<time>2014-08-04T21:58:36Z</time></trkpt>
<trkpt lat="25.504621" lon="99.780028">
<time>2014-08-04T21:58:37Z</time></trkpt>
<trkpt lat="25.504691" lon="99.780008">
<time>2014-08-04T21:58:38Z</time></trkpt>
<trkpt lat="25.504791" lon="99.779988">
<time>2014-08-04T21:58:39Z</time></trkpt>
<trkpt lat="25.504851" lon="99.779978">
<time>2014-08-04T21:58:40Z</time></trkpt>
<trkpt lat="25.504931" lon="99.779978">
<time>2014-08-04T21:58:41Z</time></trkpt>
<trkpt lat="25.505031" lon="99.779968">
<time>2014-08-04T21:58:42Z</time></trkpt>
<trkpt lat="25.505201" lon="99.779978">
<time>2014-08-04T21:58:43Z</time></trkpt>
<trkpt lat="25.506232" lon="99.780078">
<time>2014-08-04T21:58:44Z</time></trkpt>
<trkpt lat="25.506572" lon="99.780108">
<time>2014-08-04T21:58:45Z</time></trkpt>
<trkpt lat="25.506662" lon="99.780118">
<time>2014-08-04T21:58:46Z</time></trkpt>
<trkpt lat="25.506732" lon="99.780128">
<time>2014-08-04T21:58:47Z</time></trkpt>
<trkpt lat="25.506782" lon="99.780138">
<time>2014-08-04T21:58:48Z</time></trkpt>
<trkpt lat="25.506842" lon="99.780168">
<time>2014-08-04T21:58:49Z</time></trkpt>
<trkpt lat="25.506902" lon="99.780188">
<time>2014-08-04T21:58:50Z</time></trkpt>
<trkpt lat="25.506962" lon="99.780218">
<time>2014-08-04T21:58:51Z</time></trkpt>
<trkpt lat="25.507032" lon="99.780268">
<time>2014-08-04T21:58:52Z</time></trkpt>
<trkpt lat="25.507242" lon="99.780428">
<time>2014-08-04T21:58:53Z</time></trkpt>
<trkpt lat="25.507302" lon="99.780468">
<time>2014-08-04T21:58:54Z</time></trkpt>
<trkpt lat="25.507353" lon="99.780488">
<time>2014-08-04T21:58:55Z</time></trkpt>
<trkpt lat="25.507393" lon="99.780508">
<time>2014-08-04T21:58:56Z</time></trkpt>
<trkpt lat="25.507453" lon="99.780528">
<time>2014-08-04T21:58:57Z</time></trkpt>
<trkpt lat="25.507513" lon="99.780548">
<time>2014-08-04T21:58:58Z</time></trkpt>
<trkpt lat="25.507573" lon="99.780548">
<time>2014-08-04T21:58:59Z</time></trkpt>
<trkpt lat="25.507653" lon="99.780548">
<time>2014-08-04T21:59:00Z</time></trkpt>
<trkpt lat="25.507713" lon="99.780538">
<time>2014-08-04T21:59:01Z</time></trkpt>
<trkpt lat="25.507773" lon="99.780528">
<time>2014-08-04T21:59:02Z</time></trkpt>
<trkpt lat="25.507833" lon="99.780508">
<time>2014-08-04T21:59:03Z</time></trkpt>
<trkpt lat="25.507873" lon="99.780488">
<time>2014-08-04T21:59:04Z</time></trkpt>
<trkpt lat="25.507933" lon="99.780458">
<time>2014-08-04T21:59:05Z</time></trkpt>
<trkpt lat="25.508033" lon="99.780388">
<time>2014-08-04T21:59:06Z</time></trkpt>
<trkpt lat="25.508163" lon="99.780308">
<time>2014-08-04T21:59:07Z</time></trkpt>
<trkpt lat="25.508223" lon="99.780268">
<time>2014-08-04T21:59:08Z</time></trkpt>
<trkpt lat="25.508303" lon="99.780228">
<time>2014-08-04T21:59:09Z</time></trkpt>
<trkpt lat="25.508423" lon="99.780188">
<time>2014-08-04T21:59:10Z</time></trkpt>
<trkpt lat="25.508513" lon="99.780178">
<time>2014-08-04T21:59:11Z</time></trkpt>
<trkpt lat="25.508593" lon="99.780168">
<time>2014-08-04T21:59:12Z</time></trkpt>
<trkpt lat="25.508723" lon="99.780168">
<time>2014-08-04T21:59:13Z</time></trkpt>
<trkpt lat="25.509033" lon="99.780208">
<time>2014-08-04T21:59:14Z</time></trkpt>
<trkpt lat="25.509513" lon="99.780248">
<time>2014-08-04T21:59:15Z</time></trkpt>
<trkpt lat="25.509663" lon="99.780258">
<time>2014-08-04T21:59:16Z</time></trkpt>
<trkpt lat="25.509793" lon="99.780248">
<time>2014-08-04T21:59:17Z</time></trkpt>
<trkpt lat="25.509923" lon="99.780218">
<time>2014-08-04T21:59:18Z</time></trkpt>
<trkpt lat="25.510003" lon="99.780198">
<time>2014-08-04T21:59:19Z</time></trkpt>
<trkpt lat="25.510123" lon="99.780148">
<time>2014-08-04T21:59:20Z</time></trkpt>
<trkpt lat="25.510193" lon="99.780108">
<time>2014-08-04T21:59:21Z</time></trkpt>
<trkpt lat="25.510253" lon="99.780078">
<time>2014-08-04T21:59:22Z</time></trkpt>
<trkpt lat="25.510313" lon="99.780028">
<time>2014-08-04T21:59:23Z</time></trkpt>
<trkpt lat="25.510363" lon="99.779988">
<time>2014-08-04T21:59:24Z</time></trkpt>
<trkpt lat="25.510413" lon="99.779948">
<time>2014-08-04T21:59:25Z</time></trkpt>
<trkpt lat="25.510473" lon="99.779888">
<time>2014-08-04T21:59:26Z</time></trkpt>
<trkpt lat="25.510543" lon="99.779808">
<time>2014-08-04T21:59:27Z</time></trkpt>
<trkpt lat="25.510653" lon="99.779667">
<time>2014-08-04T21:59:28Z</time></trkpt>
<trkpt lat="25.510962" lon="99.779267">
<time>2014-08-04T21:59:29Z</time></trkpt>
<trkpt lat="25.511102" lon="99.779097">
<time>2014-08-04T21:59:30Z</time></trkpt>
<trkpt lat="25.511252" lon="99.778947">
<time>2014-08-04T21:59:31Z</time></trkpt>
<trkpt lat="25.511372" lon="99.778846">
<time>2014-08-04T21:59:32Z</time></trkpt>
<trkpt lat="25.511512" lon="99.778766">
<time>2014-08-04T21:59:33Z</time></trkpt>
<trkpt lat="25.511672" lon="99.778676">
<time>2014-08-04T21:59:34Z</time></trkpt>
<trkpt lat="25.511822" lon="99.778606">
<time>2014-08-04T21:59:35Z</time></trkpt>
<trkpt lat="25.511962" lon="99.778526">
<time>2014-08-04T21:59:36Z</time></trkpt>
<trkpt lat="25.512102" lon="99.778406">
<time>2014-08-04T21:59:37Z</time></trkpt>
<trkpt lat="25.512262" lon="99.778226">
<time>2014-08-04T21:59:38Z</time></trkpt>
<trkpt lat="25.512422" lon="99.777996">
<time>2014-08-04T21:59:39Z</time></trkpt>
<trkpt lat="25.512561" lon="99.777765">
<time>2014-08-04T21:59:40Z</time></trkpt>
<trkpt lat="25.512771" lon="99.777505">
<time>2014-08-04T21:59:41Z</time></trkpt>
<trkpt lat="25.512981" lon="99.777235">
<time>2014-08-04T21:59:42Z</time></trkpt>
<trkpt lat="25.513221" lon="99.777024">
<time>2014-08-04T21:59:43Z</time></trkpt>
<trkpt lat="25.513421" lon="99.776894">
<time>2014-08-04T21:59:44Z</time></trkpt>
<trkpt lat="25.513561" lon="99.776814">
<time>2014-08-04T21:59:45Z</time></trkpt>
<trkpt lat="25.513741" lon="99.776724">
<time>2014-08-04T21:59:46Z</time></trkpt>
<trkpt lat="25.513901" lon="99.776654">
<time>2014-08-04T21:59:47Z</time></trkpt>
<trkpt lat="25.514061" lon="99.776574">
<time>2014-08-04T21:59:48Z</time></trkpt>
<trkpt lat="25.514251" lon="99.776494">
<time>2014-08-04T21:59:49Z</time></trkpt>
<trkpt lat="25.514411" lon="99.776434">
<time>2014-08-04T21:59:50Z</time></trkpt>
<trkpt lat="25.514581" lon="99.776384">
<time>2014-08-04T21:59:51Z</time></trkpt>
<trkpt lat="25.514751" lon="99.776334">
<time>2014-08-04T21:59:52Z</time></trkpt>
<trkpt lat="25.515081" lon="99.776244">
<time>2014-08-04T21:59:53Z</time></trkpt>
<trkpt lat="25.515971" lon="99.776023">
<time>2014-08-04T21:59:54Z</time></trkpt>
<trkpt lat="25.516221" lon="99.775963">
<time>2014-08-04T21:59:55Z</time></trkpt>
<trkpt lat="25.516421" lon="99.775923">
<time>2014-08-04T21:59:56Z</time></trkpt>
<trkpt lat="25.516561" lon="99.775893">
<time>2014-08-04T21:59:57Z</time></trkpt>
<trkpt lat="25.516591" lon="99.775893">
<time>2014-08-04T21:59:58Z</time></trkpt>
<trkpt lat="25.516701" lon="99.775863">
<time>2014-08-04T21:59:59Z</time></trkpt>
<trkpt lat="25.516741" lon="99.775853">
<time>2014-08-04T22:00:00Z</time></trkpt>
<trkpt lat="25.516801" lon="99.775833">
<time>2014-08-04T22:00:01Z</time></trkpt>
<trkpt lat="25.516851" lon="99.775803">
<time>2014-08-04T22:00:02Z</time></trkpt>
<trkpt lat="25.516901" lon="99.775763">
<time>2014-08-04T22:00:03Z</time></trkpt>
<trkpt lat="25.516971" lon="99.775713">
<time>2014-08-04T22:00:04Z</time></trkpt>
<trkpt lat="25.517021" lon="99.775663">
<time>2014-08-04T22:00:05Z</time></trkpt>
<trkpt lat="25.517061" lon="99.775593">
<time>2014-08-04T22:00:06Z</time></trkpt>
<trkpt lat="25.517111" lon="99.775533">
<time>2014-08-04T22:00:07Z</time></trkpt>
<trkpt lat="25.517141" lon="99.775473">
<time>2014-08-04T22:00:08Z</time></trkpt>
<trkpt lat="25.51719" lon="99.775373">
<time>2014-08-04T22:00:09Z</time></trkpt>
<trkpt lat="25.51732" lon="99.775153">
<time>2014-08-04T22:00:10Z</time></trkpt>
<trkpt lat="25.51738" lon="99.775052">
<time>2014-08-04T22:00:11Z</time></trkpt>
<trkpt lat="25.51765" lon="99.774772">
<time>2014-08-04T22:00:12Z</time></trkpt>
<trkpt lat="25.51802" lon="99.774422">
<time>2014-08-04T22:00:13Z</time></trkpt>
<trkpt lat="25.51813" lon="99.774332">
<time>2014-08-04T22:00:14Z</time></trkpt>
<trkpt lat="25.51823" lon="99.774262">
<time>2014-08-04T22:00:15Z</time></trkpt>
<trkpt lat="25.51832" lon="99.774222">
<time>2014-08-04T22:00:16Z</time></trkpt>
<trkpt lat="25.5184" lon="99.774202">
<time>2014-08-04T22:00:17Z</time></trkpt>
<trkpt lat="25.51847" lon="99.774192">
<time>2014-08-04T22:00:18Z</time></trkpt>
<trkpt lat="25.5186" lon="99.774182">
<time>2014-08-04T22:00:19Z</time></trkpt>
<trkpt lat="25.51872" lon="99.774172">
<time>2014-08-04T22:00:20Z</time></trkpt>
<trkpt lat="25.51884" lon="99.774142">
<time>2014-08-04T22:00:21Z</time></trkpt>
<trkpt lat="25.51894" lon="99.774092">
<time>2014-08-04T22:00:22Z</time></trkpt>
<trkpt lat="25.51902" lon="99.774031">
<time>2014-08-04T22:00:23Z</time></trkpt>
<trkpt lat="25.51911" lon="99.773941">
<time>2014-08-04T22:00:24Z</time></trkpt>
<trkpt lat="25.519699" lon="99.773181">
<time>2014-08-04T22:00:25Z</time></trkpt>
<trkpt lat="25.519849" lon="99.77297">
<time>2014-08-04T22:00:26Z</time></trkpt>
<trkpt lat="25.520139" lon="99.77248">
<time>2014-08-04T22:00:27Z</time></trkpt>
<trkpt lat="25.520439" lon="99.77197">
<time>2014-08-04T22:00:28Z</time></trkpt>
<trkpt lat="25.520688" lon="99.771569">
<time>2014-08-04T22:00:29Z</time></trkpt>
<trkpt lat="25.520788" lon="99.771439">
<time>2014-08-04T22:00:30Z</time></trkpt>
<trkpt lat="25.520828" lon="99.771389">
<time>2014-08-04T22:00:31Z</time></trkpt>
<trkpt lat="25.520868" lon="99.771349">
<time>2014-08-04T22:00:32Z</time></trkpt>
<trkpt lat="25.520928" lon="99.771299">
<time>2014-08-04T22:00:33Z</time></trkpt>
<trkpt lat="25.520998" lon="99.771259">
<time>2014-08-04T22:00:34Z</time></trkpt>
<trkpt lat="25.521098" lon="99.771219">
<time>2014-08-04T22:00:35Z</time></trkpt>
<trkpt lat="25.521198" lon="99.771189">
<time>2014-08-04T22:00:36Z</time></trkpt>
<trkpt lat="25.521348" lon="99.771169">
<time>2014-08-04T22:00:37Z</time></trkpt>
<trkpt lat="25.521478" lon="99.771159">
<time>2014-08-04T22:00:38Z</time></trkpt>
<trkpt lat="25.521588" lon="99.771149">
<time>2014-08-04T22:00:39Z</time></trkpt>
<trkpt lat="25.521678" lon="99.771129">
<time>2014-08-04T22:00:40Z</time></trkpt>
<trkpt lat="25.521758" lon="99.771099">
<time>2014-08-04T22:00:41Z</time></trkpt>
<trkpt lat="25.521838" lon="99.771069">
<time>2014-08-04T22:00:42Z</time></trkpt>
<trkpt lat="25.521928" lon="99.771019">
<time>2014-08-04T22:00:43Z</time></trkpt>
<trkpt lat="25.522018" lon="99.770949">
<time>2014-08-04T22:00:44Z</time></trkpt>
<trkpt lat="25.522238" lon="99.770759">
<time>2014-08-04T22:00:45Z</time></trkpt>
<trkpt lat="25.522338" lon="99.770669">
<time>2014-08-04T22:00:46Z</time></trkpt>
<trkpt lat="25.522458" lon="99.770538">
<time>2014-08-04T22:00:47Z</time></trkpt>
<trkpt lat="25.522558" lon="99.770388">
<time>2014-08-04T22:00:48Z</time></trkpt>
<trkpt lat="25.522628" lon="99.770288">
<time>2014-08-04T22:00:49Z</time></trkpt>
<trkpt lat="25.522668" lon="99.770218">
<time>2014-08-04T22:00:50Z</time></trkpt>
<trkpt lat="25.522688" lon="99.770148">
<time>2014-08-04T22:00:51Z</time></trkpt>
<trkpt lat="25.522718" lon="99.770058">
<time>2014-08-04T22:00:52Z</time></trkpt>
<trkpt lat="25.522748" lon="99.769938">
<time>2014-08-04T22:00:53Z</time></trkpt>
<trkpt lat="25.522758" lon="99.769808">
<time>2014-08-04T22:00:54Z</time></trkpt>
<trkpt lat="25.522768" lon="99.769688">
<time>2014-08-04T22:00:55Z</time></trkpt>
<trkpt lat="25.522787" lon="99.769157">
<time>2014-08-04T22:00:56Z</time></trkpt>
<trkpt lat="25.522797" lon="99.768997">
<time>2014-08-04T22:00:57Z</time></trkpt>
<trkpt lat="25.522817" lon="99.768837">
<time>2014-08-04T22:00:58Z</time></trkpt>
<trkpt lat="25.522837" lon="99.768587">
<time>2014-08-04T22:00:59Z</time></trkpt>
<trkpt lat="25.522887" lon="99.768227">
<time>2014-08-04T22:01:00Z</time></trkpt>
<trkpt lat="25.522906" lon="99.767896">
<time>2014-08-04T22:01:01Z</time></trkpt>
<trkpt lat="25.522916" lon="99.767726">
<time>2014-08-04T22:01:02Z</time></trkpt>
<trkpt lat="25.522926" lon="99.767226">
<time>2014-08-04T22:01:03Z</time></trkpt>
<trkpt lat="25.522936" lon="99.767076">
<time>2014-08-04T22:01:04Z</time></trkpt>
<trkpt lat="25.522966" lon="99.766806">
<time>2014-08-04T22:01:05Z</time></trkpt>
<trkpt lat="25.523085" lon="99.765845">
<time>2014-08-04T22:01:06Z</time></trkpt>
<trkpt lat="25.523105" lon="99.765715">
<time>2014-08-04T22:01:07Z</time></trkpt>
<trkpt lat="25.523145" lon="99.765585">
<time>2014-08-04T22:01:08Z</time></trkpt>
<trkpt lat="25.523185" lon="99.765465">
<time>2014-08-04T22:01:09Z</time></trkpt>
<trkpt lat="25.523275" lon="99.765295">
<time>2014-08-04T22:01:10Z</time></trkpt>
<trkpt lat="25.523425" lon="99.765025">
<time>2014-08-04T22:01:11Z</time></trkpt>
<trkpt lat="25.523465" lon="99.764945">
<time>2014-08-04T22:01:12Z</time></trkpt>
<trkpt lat="25.523495" lon="99.764875">
<time>2014-08-04T22:01:13Z</time></trkpt>
<trkpt lat="25.523535" lon="99.764785">
<time>2014-08-04T22:01:14Z</time></trkpt>
<trkpt lat="25.523544" lon="99.764715">
<time>2014-08-04T22:01:15Z</time></trkpt>
<trkpt lat="25.523544" lon="99.764624">
<time>2014-08-04T22:01:16Z</time></trkpt>
<trkpt lat="25.523544" lon="99.764524">
<time>2014-08-04T22:01:17Z</time></trkpt>
<trkpt lat="25.523494" lon="99.764144">
<time>2014-08-04T22:01:18Z</time></trkpt>
<trkpt lat="25.523434" lon="99.763734">
<time>2014-08-04T22:01:19Z</time></trkpt>
<trkpt lat="25.523364" lon="99.763464">
<time>2014-08-04T22:01:20Z</time></trkpt>
<trkpt lat="25.523294" lon="99.763174">
<time>2014-08-04T22:01:21Z</time></trkpt>
<trkpt lat="25.523183" lon="99.762864">
<time>2014-08-04T22:01:22Z</time></trkpt>
<trkpt lat="25.523073" lon="99.762603">
<time>2014-08-04T22:01:23Z</time></trkpt>
<trkpt lat="25.522943" lon="99.762313">
<time>2014-08-04T22:01:24Z</time></trkpt>
<trkpt lat="25.522883" lon="99.762183">
<time>2014-08-04T22:01:25Z</time></trkpt>
<trkpt lat="25.522793" lon="99.762013">
<time>2014-08-04T22:01:26Z</time></trkpt>
<trkpt lat="25.522693" lon="99.761863">
<time>2014-08-04T22:01:27Z</time></trkpt>
<trkpt lat="25.522603" lon="99.761743">
<time>2014-08-04T22:01:28Z</time></trkpt>
<trkpt lat="25.522372" lon="99.761463">
<time>2014-08-04T22:01:29Z</time></trkpt>
<trkpt lat="25.522282" lon="99.761343">
<time>2014-08-04T22:01:30Z</time></trkpt>
<trkpt lat="25.522182" lon="99.761173">
<time>2014-08-04T22:01:31Z</time></trkpt>
<trkpt lat="25.522082" lon="99.761003">
<time>2014-08-04T22:01:32Z</time></trkpt>
<trkpt lat="25.522002" lon="99.760843">
<time>2014-08-04T22:01:33Z</time></trkpt>
<trkpt lat="25.521922" lon="99.760643">
<time>2014-08-04T22:01:34Z</time></trkpt>
<trkpt lat="25.521872" lon="99.760473">
<time>2014-08-04T22:01:35Z</time></trkpt>
<trkpt lat="25.521822" lon="99.760233">
<time>2014-08-04T22:01:36Z</time></trkpt>
<trkpt lat="25.521802" lon="99.760032">
<time>2014-08-04T22:01:37Z</time></trkpt>
<trkpt lat="25.521781" lon="99.759872">
<time>2014-08-04T22:01:38Z</time></trkpt>
<trkpt lat="25.521781" lon="99.759782">
<time>2014-08-04T22:01:39Z</time></trkpt>
<trkpt lat="25.521781" lon="99.759702">
<time>2014-08-04T22:01:40Z</time></trkpt>
<trkpt lat="25.521791" lon="99.759622">
<time>2014-08-04T22:01:41Z</time></trkpt>
<trkpt lat="25.521821" lon="99.759522">
<time>2014-08-04T22:01:42Z</time></trkpt>
<trkpt lat="25.521881" lon="99.759382">
<time>2014-08-04T22:01:43Z</time></trkpt>
<trkpt lat="25.522021" lon="99.759082">
<time>2014-08-04T22:01:44Z</time></trkpt>
<trkpt lat="25.522131" lon="99.758892">
<time>2014-08-04T22:01:45Z</time></trkpt>
<trkpt lat="25.522251" lon="99.758702">
<time>2014-08-04T22:01:46Z</time></trkpt>
<trkpt lat="25.522391" lon="99.758512">
<time>2014-08-04T22:01:47Z</time></trkpt>
<trkpt lat="25.522541" lon="99.758352">
<time>2014-08-04T22:01:48Z</time></trkpt>
<trkpt lat="25.522701" lon="99.758192">
<time>2014-08-04T22:01:49Z</time></trkpt>
<trkpt lat="25.522851" lon="99.758042">
<time>2014-08-04T22:01:50Z</time></trkpt>
<trkpt lat="25.522961" lon="99.757912">
<time>2014-08-04T22:01:51Z</time></trkpt>
<trkpt lat="25.523021" lon="99.757842">
<time>2014-08-04T22:01:52Z</time></trkpt>
<trkpt lat="25.523071" lon="99.757762">
<time>2014-08-04T22:01:53Z</time></trkpt>
<trkpt lat="25.523101" lon="99.757692">
<time>2014-08-04T22:01:54Z</time></trkpt>
<trkpt lat="25.523121" lon="99.757622">
<time>2014-08-04T22:01:55Z</time></trkpt>
<trkpt lat="25.523121" lon="99.757542">
<time>2014-08-04T22:01:56Z</time></trkpt>
<trkpt lat="25.523121" lon="99.757462">
<time>2014-08-04T22:01:57Z</time></trkpt>
<trkpt lat="25.523091" lon="99.757352">
<time>2014-08-04T22:01:58Z</time></trkpt>
<trkpt lat="25.523081" lon="99.757292">
<time>2014-08-04T22:01:59Z</time></trkpt>
<trkpt lat="25.523061" lon="99.757202">
<time>2014-08-04T22:02:00Z</time></trkpt>
<trkpt lat="25.522831" lon="99.756191">
<time>2014-08-04T22:02:01Z</time></trkpt>
<trkpt lat="25.522781" lon="99.755981">
<time>2014-08-04T22:02:02Z</time></trkpt>
<trkpt lat="25.52275" lon="99.755771">
<time>2014-08-04T22:02:03Z</time></trkpt>
<trkpt lat="25.52273" lon="99.755641">
<time>2014-08-04T22:02:04Z</time></trkpt>
<trkpt lat="25.52272" lon="99.755511">
<time>2014-08-04T22:02:05Z</time></trkpt>
<trkpt lat="25.52271" lon="99.755351">
<time>2014-08-04T22:02:06Z</time></trkpt>
<trkpt lat="25.52268" lon="99.753771">
<time>2014-08-04T22:02:07Z</time></trkpt>
<trkpt lat="25.52267" lon="99.753491">
<time>2014-08-04T22:02:08Z</time></trkpt>
<trkpt lat="25.52265" lon="99.753301">
<time>2014-08-04T22:02:09Z</time></trkpt>
<trkpt lat="25.52263" lon="99.753191">
<time>2014-08-04T22:02:10Z</time></trkpt>
<trkpt lat="25.52261" lon="99.753121">
<time>2014-08-04T22:02:11Z</time></trkpt>
<trkpt lat="25.52258" lon="99.753061">
<time>2014-08-04T22:02:12Z</time></trkpt>
<trkpt lat="25.52253" lon="99.753001">
<time>2014-08-04T22:02:13Z</time></trkpt>
<trkpt lat="25.52248" lon="99.752941">
<time>2014-08-04T22:02:14Z</time></trkpt>
<trkpt lat="25.52241" lon="99.752891">
<time>2014-08-04T22:02:15Z</time></trkpt>
<trkpt lat="25.52232" lon="99.752821">
<time>2014-08-04T22:02:16Z</time></trkpt>
<trkpt lat="25.52216" lon="99.752681">
<time>2014-08-04T22:02:17Z</time></trkpt>
<trkpt lat="25.52204" lon="99.752571">
<time>2014-08-04T22:02:18Z</time></trkpt>
<trkpt lat="25.52196" lon="99.752471">
<time>2014-08-04T22:02:19Z</time></trkpt>
<trkpt lat="25.52188" lon="99.752351">
<time>2014-08-04T22:02:20Z</time></trkpt>
<trkpt lat="25.521759" lon="99.752161">
<time>2014-08-04T22:02:21Z</time></trkpt>
<trkpt lat="25.521649" lon="99.751991">
<time>2014-08-04T22:02:22Z</time></trkpt>
<trkpt lat="25.521589" lon="99.751891">
<time>2014-08-04T22:02:23Z</time></trkpt>
<trkpt lat="25.521529" lon="99.751771">
<time>2014-08-04T22:02:24Z</time></trkpt>
<trkpt lat="25.521489" lon="99.751691">
<time>2014-08-04T22:02:25Z</time></trkpt>
<trkpt lat="25.521449" lon="99.751591">
<time>2014-08-04T22:02:26Z</time></trkpt>
<trkpt lat="25.521419" lon="99.751501">
<time>2014-08-04T22:02:27Z</time></trkpt>
<trkpt lat="25.521409" lon="99.751411">
<time>2014-08-04T22:02:28Z</time></trkpt>
<trkpt lat="25.521399" lon="99.751331">
<time>2014-08-04T22:02:29Z</time></trkpt>
<trkpt lat="25.521389" lon="99.751251">
<time>2014-08-04T22:02:30Z</time></trkpt>
<trkpt lat="25.521389" lon="99.751131">
<time>2014-08-04T22:02:31Z</time></trkpt>
<trkpt lat="25.521409" lon="99.751001">
<time>2014-08-04T22:02:32Z</time></trkpt>
<trkpt lat="25.521419" lon="99.750891">
<time>2014-08-04T22:02:33Z</time></trkpt>
<trkpt lat="25.521449" lon="99.750781">
<time>2014-08-04T22:02:34Z</time></trkpt>
<trkpt lat="25.521579" lon="99.750291">
<time>2014-08-04T22:02:35Z</time></trkpt>
<trkpt lat="25.521649" lon="99.750021">
<time>2014-08-04T22:02:36Z</time></trkpt>
<trkpt lat="25.521769" lon="99.749461">
<time>2014-08-04T22:02:37Z</time></trkpt>
<trkpt lat="25.521779" lon="99.749421">
<time>2014-08-04T22:02:38Z</time></trkpt>
<trkpt lat="25.521779" lon="99.749381">
<time>2014-08-04T22:02:39Z</time></trkpt>
<trkpt lat="25.521789" lon="99.749341">
<time>2014-08-04T22:02:40Z</time></trkpt>
<trkpt lat="25.521789" lon="99.749301">
<time>2014-08-04T22:02:41Z</time></trkpt>
<trkpt lat="25.521789" lon="99.749261">
<time>2014-08-04T22:02:42Z</time></trkpt>
<trkpt lat="25.521789" lon="99.749221">
<time>2014-08-04T22:02:43Z</time></trkpt>
<trkpt lat="25.521789" lon="99.749191">
<time>2014-08-04T22:02:44Z</time></trkpt>
<trkpt lat="25.521779" lon="99.749151">
<time>2014-08-04T22:02:45Z</time></trkpt>
<trkpt lat="25.521779" lon="99.749121">
<time>2014-08-04T22:02:46Z</time></trkpt>
<trkpt lat="25.521769" lon="99.749091">
<time>2014-08-04T22:02:47Z</time></trkpt>
<trkpt lat="25.521759" lon="99.749051">
<time>2014-08-04T22:02:48Z</time></trkpt>
<trkpt lat="25.521749" lon="99.749011">
<time>2014-08-04T22:02:49Z</time></trkpt>
<trkpt lat="25.521709" lon="99.748921">
<time>2014-08-04T22:02:50Z</time></trkpt>
<trkpt lat="25.521599" lon="99.748691">
<time>2014-08-04T22:02:51Z</time></trkpt>
<trkpt lat="25.521579" lon="99.748671">
<time>2014-08-04T22:02:52Z</time></trkpt>
<trkpt lat="25.521569" lon="99.748651">
<time>2014-08-04T22:02:53Z</time></trkpt>
<trkpt lat="25.521539" lon="99.748561">
<time>2014-08-04T22:02:54Z</time></trkpt>
<trkpt lat="25.521499" lon="99.748471">
<time>2014-08-04T22:02:55Z</time></trkpt>
<trkpt lat="25.521489" lon="99.748421">
<time>2014-08-04T22:02:56Z</time></trkpt>
<trkpt lat="25.521479" lon="99.748401">
<time>2014-08-04T22:02:57Z</time></trkpt>
<trkpt lat="25.521459" lon="99.748321">
<time>2014-08-04T22:02:58Z</time></trkpt>
<trkpt lat="25.521459" lon="99.748291">
<time>2014-08-04T22:02:59Z</time></trkpt>
<trkpt lat="25.521449" lon="99.748241">
<time>2014-08-04T22:03:00Z</time></trkpt>
<trkpt lat="25.521419" lon="99.748051">
<time>2014-08-04T22:03:01Z</time></trkpt>
<trkpt lat="25.521399" lon="99.747911">
<time>2014-08-04T22:03:02Z</time></trkpt>
<trkpt lat="25.521359" lon="99.747791">
<time>2014-08-04T22:03:03Z</time></trkpt>
<trkpt lat="25.521319" lon="99.747681">
<time>2014-08-04T22:03:04Z</time></trkpt>
<trkpt lat="25.521249" lon="99.747521">
<time>2014-08-04T22:03:05Z</time></trkpt>
<trkpt lat="25.521129" lon="99.747291">
<time>2014-08-04T22:03:06Z</time></trkpt>
<trkpt lat="25.520799" lon="99.746482">
<time>2014-08-04T22:03:07Z</time></trkpt>
<trkpt lat="25.520589" lon="99.745792">
<time>2014-08-04T22:03:08Z</time></trkpt>
<trkpt lat="25.520519" lon="99.745462">
<time>2014-08-04T22:03:09Z</time></trkpt>
<trkpt lat="25.520509" lon="99.745362">
<time>2014-08-04T22:03:10Z</time></trkpt>
<trkpt lat="25.520519" lon="99.745262">
<time>2014-08-04T22:03:11Z</time></trkpt>
<trkpt lat="25.520519" lon="99.745212">
<time>2014-08-04T22:03:12Z</time></trkpt>
<trkpt lat="25.520539" lon="99.745152">
<time>2014-08-04T22:03:13Z</time></trkpt>
<trkpt lat="25.520549" lon="99.745092">
<time>2014-08-04T22:03:14Z</time></trkpt>
<trkpt lat="25.520569" lon="99.745042">
<time>2014-08-04T22:03:15Z</time></trkpt>
<trkpt lat="25.520629" lon="99.744942">
<time>2014-08-04T22:03:16Z</time></trkpt>
<trkpt lat="25.520719" lon="99.744862">
<time>2014-08-04T22:03:17Z</time></trkpt>
<trkpt lat="25.520839" lon="99.744772">
<time>2014-08-04T22:03:18Z</time></trkpt>
<trkpt lat="25.520959" lon="99.744692">
<time>2014-08-04T22:03:19Z</time></trkpt>
<trkpt lat="25.521049" lon="99.744622">
<time>2014-08-04T22:03:20Z</time></trkpt>
<trkpt lat="25.521129" lon="99.744542">
<time>2014-08-04T22:03:21Z</time></trkpt>
<trkpt lat="25.52116" lon="99.744502">
<time>2014-08-04T22:03:22Z</time></trkpt>
<trkpt lat="25.5212" lon="99.744452">
<time>2014-08-04T22:03:23Z</time></trkpt>
<trkpt lat="25.52127" lon="99.744342">
<time>2014-08-04T22:03:24Z</time></trkpt>
<trkpt lat="25.52139" lon="99.744162">
<time>2014-08-04T22:03:25Z</time></trkpt>
<trkpt lat="25.52148" lon="99.744012">
<time>2014-08-04T22:03:26Z</time></trkpt>
<trkpt lat="25.52161" lon="99.743782">
<time>2014-08-04T22:03:27Z</time></trkpt>
<trkpt lat="25.52167" lon="99.743682">
<time>2014-08-04T22:03:28Z</time></trkpt>
<trkpt lat="25.52171" lon="99.743612">
<time>2014-08-04T22:03:29Z</time></trkpt>
<trkpt lat="25.52178" lon="99.743522">
<time>2014-08-04T22:03:30Z</time></trkpt>
<trkpt lat="25.52184" lon="99.743442">
<time>2014-08-04T22:03:31Z</time></trkpt>
<trkpt lat="25.5219" lon="99.743382">
<time>2014-08-04T22:03:32Z</time></trkpt>
<trkpt lat="25.52212" lon="99.743173">
<time>2014-08-04T22:03:33Z</time></trkpt>
<trkpt lat="25.52266" lon="99.742653">
<time>2014-08-04T22:03:34Z</time></trkpt>
<trkpt lat="25.523661" lon="99.741743">
<time>2014-08-04T22:03:35Z</time></trkpt>
<trkpt lat="25.523791" lon="99.741613">
<time>2014-08-04T22:03:36Z</time></trkpt>
<trkpt lat="25.523861" lon="99.741563">
<time>2014-08-04T22:03:37Z</time></trkpt>
<trkpt lat="25.523891" lon="99.741543">
<time>2014-08-04T22:03:38Z</time></trkpt>
<trkpt lat="25.523921" lon="99.741533">
<time>2014-08-04T22:03:39Z</time></trkpt>
<trkpt lat="25.523941" lon="99.741523">
<time>2014-08-04T22:03:40Z</time></trkpt>
<trkpt lat="25.523961" lon="99.741513">
<time>2014-08-04T22:03:41Z</time></trkpt>
<trkpt lat="25.523991" lon="99.741503">
<time>2014-08-04T22:03:42Z</time></trkpt>
<trkpt lat="25.524021" lon="99.741493">
<time>2014-08-04T22:03:43Z</time></trkpt>
<trkpt lat="25.524041" lon="99.741493">
<time>2014-08-04T22:03:44Z</time></trkpt>
<trkpt lat="25.524091" lon="99.741493">
<time>2014-08-04T22:03:45Z</time></trkpt>
<trkpt lat="25.524121" lon="99.741483">
<time>2014-08-04T22:03:46Z</time></trkpt>
<trkpt lat="25.524141" lon="99.741483">
<time>2014-08-04T22:03:47Z</time></trkpt>
<trkpt lat="25.524161" lon="99.741493">
<time>2014-08-04T22:03:48Z</time></trkpt>
<trkpt lat="25.524181" lon="99.741493">
<time>2014-08-04T22:03:49Z</time></trkpt>
<trkpt lat="25.524241" lon="99.741503">
<time>2014-08-04T22:03:50Z</time></trkpt>
<trkpt lat="25.524331" lon="99.741513">
<time>2014-08-04T22:03:51Z</time></trkpt>
<trkpt lat="25.524421" lon="99.741523">
<time>2014-08-04T22:03:52Z</time></trkpt>
<trkpt lat="25.524441" lon="99.741523">
<time>2014-08-04T22:03:53Z</time></trkpt>
<trkpt lat="25.524471" lon="99.741533">
<time>2014-08-04T22:03:54Z</time></trkpt>
<trkpt lat="25.524491" lon="99.741533">
<time>2014-08-04T22:03:55Z</time></trkpt>
<trkpt lat="25.524521" lon="99.741533">
<time>2014-08-04T22:03:56Z</time></trkpt>
<trkpt lat="25.524571" lon="99.741533">
<time>2014-08-04T22:03:57Z</time></trkpt>
<trkpt lat="25.524591" lon="99.741533">
<time>2014-08-04T22:03:58Z</time></trkpt>
<trkpt lat="25.524601" lon="99.741533">
<time>2014-08-04T22:03:59Z</time></trkpt>
<trkpt lat="25.524621" lon="99.741523">
<time>2014-08-04T22:04:00Z</time></trkpt>
<trkpt lat="25.524631" lon="99.741523">
<time>2014-08-04T22:04:01Z</time></trkpt>
<trkpt lat="25.524651" lon="99.741513">
<time>2014-08-04T22:04:02Z</time></trkpt>
<trkpt lat="25.524671" lon="99.741513">
<time>2014-08-04T22:04:03Z</time></trkpt>
<trkpt lat="25.524691" lon="99.741493">
<time>2014-08-04T22:04:04Z</time></trkpt>
<trkpt lat="25.524711" lon="99.741483">
<time>2014-08-04T22:04:05Z</time></trkpt>
<trkpt lat="25.524731" lon="99.741473">
<time>2014-08-04T22:04:06Z</time></trkpt>
<trkpt lat="25.524761" lon="99.741453">
<time>2014-08-04T22:04:07Z</time></trkpt>
<trkpt lat="25.524771" lon="99.741433">
<time>2014-08-04T22:04:08Z</time></trkpt>
<trkpt lat="25.524791" lon="99.741423">
<time>2014-08-04T22:04:09Z</time></trkpt>
<trkpt lat="25.524832" lon="99.741383">
<time>2014-08-04T22:04:10Z</time></trkpt>
<trkpt lat="25.524912" lon="99.741263">
<time>2014-08-04T22:04:11Z</time></trkpt>
<trkpt lat="25.524972" lon="99.741163">
<time>2014-08-04T22:04:12Z</time></trkpt>
<trkpt lat="25.525012" lon="99.741113">
<time>2014-08-04T22:04:13Z</time></trkpt>
<trkpt lat="25.525042" lon="99.741073">
<time>2014-08-04T22:04:14Z</time></trkpt>
<trkpt lat="25.525072" lon="99.741043">
<time>2014-08-04T22:04:15Z</time></trkpt>
<trkpt lat="25.525102" lon="99.741013">
<time>2014-08-04T22:04:16Z</time></trkpt>
<trkpt lat="25.525132" lon="99.740993">
<time>2014-08-04T22:04:17Z</time></trkpt>
<trkpt lat="25.525162" lon="99.740973">
<time>2014-08-04T22:04:18Z</time></trkpt>
<trkpt lat="25.525212" lon="99.740953">
<time>2014-08-04T22:04:19Z</time></trkpt>
<trkpt lat="25.525262" lon="99.740943">
<time>2014-08-04T22:04:20Z</time></trkpt>
<trkpt lat="25.525402" lon="99.740893">
<time>2014-08-04T22:04:21Z</time></trkpt>
<trkpt lat="25.525492" lon="99.740863">
<time>2014-08-04T22:04:22Z</time></trkpt>
<trkpt lat="25.525582" lon="99.740823">
<time>2014-08-04T22:04:23Z</time></trkpt>
<trkpt lat="25.525652" lon="99.740783">
<time>2014-08-04T22:04:24Z</time></trkpt>
<trkpt lat="25.525752" lon="99.740713">
<time>2014-08-04T22:04:25Z</time></trkpt>
<trkpt lat="25.525862" lon="99.740634">
<time>2014-08-04T22:04:26Z</time></trkpt>
<trkpt lat="25.525942" lon="99.740574">
<time>2014-08-04T22:04:27Z</time></trkpt>
<trkpt lat="25.525992" lon="99.740534">
<time>2014-08-04T22:04:28Z</time></trkpt>
<trkpt lat="25.526022" lon="99.740524">
<time>2014-08-04T22:04:29Z</time></trkpt>
<trkpt lat="25.526052" lon="99.740504">
<time>2014-08-04T22:04:30Z</time></trkpt>
<trkpt lat="25.526082" lon="99.740494">
<time>2014-08-04T22:04:31Z</time></trkpt>
<trkpt lat="25.526102" lon="99.740494">
<time>2014-08-04T22:04:32Z</time></trkpt>
<trkpt lat="25.526122" lon="99.740484">
<time>2014-08-04T22:04:33Z</time></trkpt>
<trkpt lat="25.526142" lon="99.740484">
<time>2014-08-04T22:04:34Z</time></trkpt>
<trkpt lat="25.526162" lon="99.740484">
<time>2014-08-04T22:04:35Z</time></trkpt>
<trkpt lat="25.526172" lon="99.740484">
<time>2014-08-04T22:04:36Z</time></trkpt>
<trkpt lat="25.526192" lon="99.740484">
<time>2014-08-04T22:04:37Z</time></trkpt>
<trkpt lat="25.526202" lon="99.740484">
<time>2014-08-04T22:04:38Z</time></trkpt>
<trkpt lat="25.526252" lon="99.740484">
<time>2014-08-04T22:04:39Z</time></trkpt>
<trkpt lat="25.526272" lon="99.740484">
<time>2014-08-04T22:04:40Z</time></trkpt>
<trkpt lat="25.526742" lon="99.740574">
<time>2014-08-04T22:04:41Z</time></trkpt>
<trkpt lat="25.526742" lon="99.740574">
<time>2014-08-04T22:04:42Z</time></trkpt>
<trkpt lat="25.526802" lon="99.740484">
<time>2014-08-04T22:04:43Z</time></trkpt>
<trkpt lat="25.526843" lon="99.740414">
<time>2014-08-04T22:04:44Z</time></trkpt>
<trkpt lat="25.526873" lon="99.740374">
<time>2014-08-04T22:04:45Z</time></trkpt>
<trkpt lat="25.526883" lon="99.740334">
<time>2014-08-04T22:04:46Z</time></trkpt>
<trkpt lat="25.526903" lon="99.740294">
<time>2014-08-04T22:04:47Z</time></trkpt>
<trkpt lat="25.526923" lon="99.740224">
<time>2014-08-04T22:04:48Z</time></trkpt>
<trkpt lat="25.526923" lon="99.740224">
<time>2014-08-04T22:04:49Z</time></trkpt>
<trkpt lat="25.526883" lon="99.740164">
<time>2014-08-04T22:04:50Z</time></trkpt>
<trkpt lat="25.526863" lon="99.740124">
<time>2014-08-04T22:04:51Z</time></trkpt>
<trkpt lat="25.526823" lon="99.740084">
<time>2014-08-04T22:04:52Z</time></trkpt>
<trkpt lat="25.526793" lon="99.740044">
<time>2014-08-04T22:04:53Z</time></trkpt>
<trkpt lat="25.526713" lon="99.739984">
<time>2014-08-04T22:04:54Z</time></trkpt>
<trkpt lat="25.526613" lon="99.739914">
<time>2014-08-04T22:04:55Z</time></trkpt>
<trkpt lat="25.526473" lon="99.739824">
<time>2014-08-04T22:04:56Z</time></trkpt>
<trkpt lat="25.526423" lon="99.739794">
<time>2014-08-04T22:04:57Z</time></trkpt>
<trkpt lat="25.526373" lon="99.739784">
<time>2014-08-04T22:04:58Z</time></trkpt>
<trkpt lat="25.526313" lon="99.739764">
<time>2014-08-04T22:04:59Z</time></trkpt>
<trkpt lat="25.526253" lon="99.739764">
<time>2014-08-04T22:05:00Z</time></trkpt>
<trkpt lat="25.526213" lon="99.739764">
<time>2014-08-04T22:05:01Z</time></trkpt>
<trkpt lat="25.526183" lon="99.739764">
<time>2014-08-04T22:05:02Z</time></trkpt>
<trkpt lat="25.526142" lon="99.739774">
<time>2014-08-04T22:05:03Z</time></trkpt>
<trkpt lat="25.526102" lon="99.739794">
<time>2014-08-04T22:05:04Z</time></trkpt>
<trkpt lat="25.526072" lon="99.739814">
<time>2014-08-04T22:05:05Z</time></trkpt>
<trkpt lat="25.526042" lon="99.739844">
<time>2014-08-04T22:05:06Z</time></trkpt>
<trkpt lat="25.526002" lon="99.739894">
<time>2014-08-04T22:05:07Z</time></trkpt>
<trkpt lat="25.525972" lon="99.739934">
<time>2014-08-04T22:05:08Z</time></trkpt>
<trkpt lat="25.525872" lon="99.740054">
<time>2014-08-04T22:05:09Z</time></trkpt>
<trkpt lat="25.525822" lon="99.740114">
<time>2014-08-04T22:05:10Z</time></trkpt>
<trkpt lat="25.525762" lon="99.740164">
<time>2014-08-04T22:05:11Z</time></trkpt>
<trkpt lat="25.525732" lon="99.740184">
<time>2014-08-04T22:05:12Z</time></trkpt>
<trkpt lat="25.525702" lon="99.740204">
<time>2014-08-04T22:05:13Z</time></trkpt>
<trkpt lat="25.525672" lon="99.740224">
<time>2014-08-04T22:05:14Z</time></trkpt>
<trkpt lat="25.525632" lon="99.740254">
<time>2014-08-04T22:05:15Z</time></trkpt>
<trkpt lat="25.525562" lon="99.740284">
<time>2014-08-04T22:05:16Z</time></trkpt>
<trkpt lat="25.525422" lon="99.740354">
<time>2014-08-04T22:05:17Z</time></trkpt>
<trkpt lat="25.525322" lon="99.740394">
<time>2014-08-04T22:05:18Z</time></trkpt>
<trkpt lat="25.525122" lon="99.740454">
<time>2014-08-04T22:05:19Z</time></trkpt>
<trkpt lat="25.525042" lon="99.740474">
<time>2014-08-04T22:05:20Z</time></trkpt>
<trkpt lat="25.524972" lon="99.740484">
<time>2014-08-04T22:05:21Z</time></trkpt>
<trkpt lat="25.524892" lon="99.740494">
<time>2014-08-04T22:05:22Z</time></trkpt>
<trkpt lat="25.524822" lon="99.740504">
<time>2014-08-04T22:05:23Z</time></trkpt>
<trkpt lat="25.524742" lon="99.740514">
<time>2014-08-04T22:05:24Z</time></trkpt>
<trkpt lat="25.524662" lon="99.740514">
<time>2014-08-04T22:05:25Z</time></trkpt>
<trkpt lat="25.524602" lon="99.740504">
<time>2014-08-04T22:05:26Z</time></trkpt>
<trkpt lat="25.524542" lon="99.740494">
<time>2014-08-04T22:05:27Z</time></trkpt>
<trkpt lat="25.524472" lon="99.740484">
<time>2014-08-04T22:05:28Z</time></trkpt>
<trkpt lat="25.524402" lon="99.740474">
<time>2014-08-04T22:05:29Z</time></trkpt>
<trkpt lat="25.524352" lon="99.740454">
<time>2014-08-04T22:05:30Z</time></trkpt>
<trkpt lat="25.524292" lon="99.740434">
<time>2014-08-04T22:05:31Z</time></trkpt>
<trkpt lat="25.524222" lon="99.740404">
<time>2014-08-04T22:05:32Z</time></trkpt>
<trkpt lat="25.524152" lon="99.740364">
<time>2014-08-04T22:05:33Z</time></trkpt>
<trkpt lat="25.523522" lon="99.739924">
<time>2014-08-04T22:05:34Z</time></trkpt>
<trkpt lat="25.523442" lon="99.739854">
<time>2014-08-04T22:05:35Z</time></trkpt>
<trkpt lat="25.523372" lon="99.739784">
<time>2014-08-04T22:05:36Z</time></trkpt>
<trkpt lat="25.523332" lon="99.739734">
<time>2014-08-04T22:05:37Z</time></trkpt>
<trkpt lat="25.523302" lon="99.739674">
<time>2014-08-04T22:05:38Z</time></trkpt>
<trkpt lat="25.523252" lon="99.739574">
<time>2014-08-04T22:05:39Z</time></trkpt>
<trkpt lat="25.523202" lon="99.739474">
<time>2014-08-04T22:05:40Z</time></trkpt>
<trkpt lat="25.523122" lon="99.739284">
<time>2014-08-04T22:05:41Z</time></trkpt>
<trkpt lat="25.523062" lon="99.739124">
<time>2014-08-04T22:05:42Z</time></trkpt>
<trkpt lat="25.523032" lon="99.739044">
<time>2014-08-04T22:05:43Z</time></trkpt>
<trkpt lat="25.523012" lon="99.738954">
<time>2014-08-04T22:05:44Z</time></trkpt>
<trkpt lat="25.522992" lon="99.738864">
<time>2014-08-04T22:05:45Z</time></trkpt>
<trkpt lat="25.522972" lon="99.738725">
<time>2014-08-04T22:05:46Z</time></trkpt>
<trkpt lat="25.522942" lon="99.738485">
<time>2014-08-04T22:05:47Z</time></trkpt>
<trkpt lat="25.522922" lon="99.738265">
<time>2014-08-04T22:05:48Z</time></trkpt>
<trkpt lat="25.522902" lon="99.737995">
<time>2014-08-04T22:05:49Z</time></trkpt>
<trkpt lat="25.522892" lon="99.737815">
<time>2014-08-04T22:05:50Z</time></trkpt>
<trkpt lat="25.522872" lon="99.737705">
<time>2014-08-04T22:05:51Z</time></trkpt>
<trkpt lat="25.522852" lon="99.737625">
<time>2014-08-04T22:05:52Z</time></trkpt>
<trkpt lat="25.522832" lon="99.737555">
<time>2014-08-04T22:05:53Z</time></trkpt>
<trkpt lat="25.522802" lon="99.737485">
<time>2014-08-04T22:05:54Z</time></trkpt>
<trkpt lat="25.522772" lon="99.737425">
<time>2014-08-04T22:05:55Z</time></trkpt>
<trkpt lat="25.522742" lon="99.737365">
<time>2014-08-04T22:05:56Z</time></trkpt>
<trkpt lat="25.522702" lon="99.737315">
<time>2014-08-04T22:05:57Z</time></trkpt>
<trkpt lat="25.522662" lon="99.737275">
<time>2014-08-04T22:05:58Z</time></trkpt>
<trkpt lat="25.522622" lon="99.737235">
<time>2014-08-04T22:05:59Z</time></trkpt>
<trkpt lat="25.522322" lon="99.737036">
<time>2014-08-04T22:06:00Z</time></trkpt>
<trkpt lat="25.522282" lon="99.736996">
<time>2014-08-04T22:06:01Z</time></trkpt>
<trkpt lat="25.522252" lon="99.736966">
<time>2014-08-04T22:06:02Z</time></trkpt>
<trkpt lat="25.522212" lon="99.736926">
<time>2014-08-04T22:06:03Z</time></trkpt>
<trkpt lat="25.522182" lon="99.736876">
<time>2014-08-04T22:06:04Z</time></trkpt>
<trkpt lat="25.522162" lon="99.736826">
<time>2014-08-04T22:06:05Z</time></trkpt>
<trkpt lat="25.522152" lon="99.736786">
<time>2014-08-04T22:06:06Z</time></trkpt>
<trkpt lat="25.522142" lon="99.736746">
<time>2014-08-04T22:06:07Z</time></trkpt>
<trkpt lat="25.522132" lon="99.736706">
<time>2014-08-04T22:06:08Z</time></trkpt>
<trkpt lat="25.522132" lon="99.736636">
<time>2014-08-04T22:06:09Z</time></trkpt>
<trkpt lat="25.522122" lon="99.736486">
<time>2014-08-04T22:06:10Z</time></trkpt>
<trkpt lat="25.522112" lon="99.736426">
<time>2014-08-04T22:06:11Z</time></trkpt>
<trkpt lat="25.522113" lon="99.736366">
<time>2014-08-04T22:06:12Z</time></trkpt>
<trkpt lat="25.522093" lon="99.736306">
<time>2014-08-04T22:06:13Z</time></trkpt>
<trkpt lat="25.522073" lon="99.736256">
<time>2014-08-04T22:06:14Z</time></trkpt>
<trkpt lat="25.522063" lon="99.736216">
<time>2014-08-04T22:06:15Z</time></trkpt>
<trkpt lat="25.522043" lon="99.736186">
<time>2014-08-04T22:06:16Z</time></trkpt>
<trkpt lat="25.522013" lon="99.736136">
<time>2014-08-04T22:06:17Z</time></trkpt>
<trkpt lat="25.521983" lon="99.736096">
<time>2014-08-04T22:06:18Z</time></trkpt>
<trkpt lat="25.521933" lon="99.736036">
<time>2014-08-04T22:06:19Z</time></trkpt>
<trkpt lat="25.521873" lon="99.735956">
<time>2014-08-04T22:06:20Z</time></trkpt>
<trkpt lat="25.521853" lon="99.735916">
<time>2014-08-04T22:06:21Z</time></trkpt>
<trkpt lat="25.521833" lon="99.735886">
<time>2014-08-04T22:06:22Z</time></trkpt>
<trkpt lat="25.521823" lon="99.735846">
<time>2014-08-04T22:06:23Z</time></trkpt>
<trkpt lat="25.521803" lon="99.735796">
<time>2014-08-04T22:06:24Z</time></trkpt>
<trkpt lat="25.521793" lon="99.735716">
<time>2014-08-04T22:06:25Z</time></trkpt>
<trkpt lat="25.521793" lon="99.735607">
<time>2014-08-04T22:06:26Z</time></trkpt>
<trkpt lat="25.521783" lon="99.735507">
<time>2014-08-04T22:06:27Z</time></trkpt>
<trkpt lat="25.521763" lon="99.735417">
<time>2014-08-04T22:06:28Z</time></trkpt>
<trkpt lat="25.521743" lon="99.735327">
<time>2014-08-04T22:06:29Z</time></trkpt>
<trkpt lat="25.521713" lon="99.735237">
<time>2014-08-04T22:06:30Z</time></trkpt>
<trkpt lat="25.521673" lon="99.735147">
<time>2014-08-04T22:06:31Z</time></trkpt>
<trkpt lat="25.521623" lon="99.735057">
<time>2014-08-04T22:06:32Z</time></trkpt>
<trkpt lat="25.521423" lon="99.734817">
<time>2014-08-04T22:06:33Z</time></trkpt>
<trkpt lat="25.521163" lon="99.734537">
<time>2014-08-04T22:06:34Z</time></trkpt>
<trkpt lat="25.520993" lon="99.734357">
<time>2014-08-04T22:06:35Z</time></trkpt>
<trkpt lat="25.520803" lon="99.734178">
<time>2014-08-04T22:06:36Z</time></trkpt>
<trkpt lat="25.520763" lon="99.734128">
<time>2014-08-04T22:06:37Z</time></trkpt>
<trkpt lat="25.520713" lon="99.734078">
<time>2014-08-04T22:06:38Z</time></trkpt>
<trkpt lat="25.520673" lon="99.734028">
<time>2014-08-04T22:06:39Z</time></trkpt>
<trkpt lat="25.520643" lon="99.733988">
<time>2014-08-04T22:06:40Z</time></trkpt>
<trkpt lat="25.520623" lon="99.733958">
<time>2014-08-04T22:06:41Z</time></trkpt>
<trkpt lat="25.520623" lon="99.733938">
<time>2014-08-04T22:06:42Z</time></trkpt>
<trkpt lat="25.520613" lon="99.733908">
<time>2014-08-04T22:06:43Z</time></trkpt>
<trkpt lat="25.520603" lon="99.733878">
<time>2014-08-04T22:06:44Z</time></trkpt>
<trkpt lat="25.520603" lon="99.733808">
<time>2014-08-04T22:06:45Z</time></trkpt>
<trkpt lat="25.520613" lon="99.733728">
<time>2014-08-04T22:06:46Z</time></trkpt>
<trkpt lat="25.520643" lon="99.733628">
<time>2014-08-04T22:06:47Z</time></trkpt>
<trkpt lat="25.520714" lon="99.733458">
<time>2014-08-04T22:06:48Z</time></trkpt>
<trkpt lat="25.520754" lon="99.733358">
<time>2014-08-04T22:06:49Z</time></trkpt>
<trkpt lat="25.520764" lon="99.733308">
<time>2014-08-04T22:06:50Z</time></trkpt>
<trkpt lat="25.520774" lon="99.733258">
<time>2014-08-04T22:06:51Z</time></trkpt>
<trkpt lat="25.520774" lon="99.733198">
<time>2014-08-04T22:06:52Z</time></trkpt>
<trkpt lat="25.520774" lon="99.733128">
<time>2014-08-04T22:06:53Z</time></trkpt>
<trkpt lat="25.520774" lon="99.733078">
<time>2014-08-04T22:06:54Z</time></trkpt>
<trkpt lat="25.520764" lon="99.733018">
<time>2014-08-04T22:06:55Z</time></trkpt>
<trkpt lat="25.520754" lon="99.732949">
<time>2014-08-04T22:06:56Z</time></trkpt>
<trkpt lat="25.520734" lon="99.732889">
<time>2014-08-04T22:06:57Z</time></trkpt>
<trkpt lat="25.520714" lon="99.732829">
<time>2014-08-04T22:06:58Z</time></trkpt>
<trkpt lat="25.520694" lon="99.732779">
<time>2014-08-04T22:06:59Z</time></trkpt>
<trkpt lat="25.520674" lon="99.732739">
<time>2014-08-04T22:07:00Z</time></trkpt>
<trkpt lat="25.520654" lon="99.732689">
<time>2014-08-04T22:07:01Z</time></trkpt>
<trkpt lat="25.520584" lon="99.732569">
<time>2014-08-04T22:07:02Z</time></trkpt>
<trkpt lat="25.520434" lon="99.732309">
<time>2014-08-04T22:07:03Z</time></trkpt>
<trkpt lat="25.520394" lon="99.732229">
<time>2014-08-04T22:07:04Z</time></trkpt>
<trkpt lat="25.520374" lon="99.732149">
<time>2014-08-04T22:07:05Z</time></trkpt>
<trkpt lat="25.520364" lon="99.732059">
<time>2014-08-04T22:07:06Z</time></trkpt>
<trkpt lat="25.520364" lon="99.731999">
<time>2014-08-04T22:07:07Z</time></trkpt>
<trkpt lat="25.520364" lon="99.731929">
<time>2014-08-04T22:07:08Z</time></trkpt>
<trkpt lat="25.520395" lon="99.731789">
<time>2014-08-04T22:07:09Z</time></trkpt>
<trkpt lat="25.520415" lon="99.73165">
<time>2014-08-04T22:07:10Z</time></trkpt>
<trkpt lat="25.520445" lon="99.73148">
<time>2014-08-04T22:07:11Z</time></trkpt>
<trkpt lat="25.520445" lon="99.7314">
<time>2014-08-04T22:07:12Z</time></trkpt>
<trkpt lat="25.520445" lon="99.73132">
<time>2014-08-04T22:07:13Z</time></trkpt>
<trkpt lat="25.520445" lon="99.7312">
<time>2014-08-04T22:07:14Z</time></trkpt>
<trkpt lat="25.520425" lon="99.7307">
<time>2014-08-04T22:07:15Z</time></trkpt>
<trkpt lat="25.520415" lon="99.730471">
<time>2014-08-04T22:07:16Z</time></trkpt>
<trkpt lat="25.520395" lon="99.730401">
<time>2014-08-04T22:07:17Z</time></trkpt>
<trkpt lat="25.520386" lon="99.730301">
<time>2014-08-04T22:07:18Z</time></trkpt>
<trkpt lat="25.520356" lon="99.730221">
<time>2014-08-04T22:07:19Z</time></trkpt>
<trkpt lat="25.520336" lon="99.730141">
<time>2014-08-04T22:07:20Z</time></trkpt>
<trkpt lat="25.520296" lon="99.730051">
<time>2014-08-04T22:07:21Z</time></trkpt>
<trkpt lat="25.520266" lon="99.729971">
<time>2014-08-04T22:07:22Z</time></trkpt>
<trkpt lat="25.520136" lon="99.729741">
<time>2014-08-04T22:07:23Z</time></trkpt>
<trkpt lat="25.520096" lon="99.729661">
<time>2014-08-04T22:07:24Z</time></trkpt>
<trkpt lat="25.520056" lon="99.729601">
<time>2014-08-04T22:07:25Z</time></trkpt>
<trkpt lat="25.520036" lon="99.729541">
<time>2014-08-04T22:07:26Z</time></trkpt>
<trkpt lat="25.520016" lon="99.729462">
<time>2014-08-04T22:07:27Z</time></trkpt>
<trkpt lat="25.519996" lon="99.729352">
<time>2014-08-04T22:07:28Z</time></trkpt>
<trkpt lat="25.519966" lon="99.729172">
<time>2014-08-04T22:07:29Z</time></trkpt>
<trkpt lat="25.519956" lon="99.729092">
<time>2014-08-04T22:07:30Z</time></trkpt>
<trkpt lat="25.519936" lon="99.728982">
<time>2014-08-04T22:07:31Z</time></trkpt>
<trkpt lat="25.519916" lon="99.728912">
<time>2014-08-04T22:07:32Z</time></trkpt>
<trkpt lat="25.519886" lon="99.728842">
<time>2014-08-04T22:07:33Z</time></trkpt>
<trkpt lat="25.519856" lon="99.728772">
<time>2014-08-04T22:07:34Z</time></trkpt>
<trkpt lat="25.519637" lon="99.728313">
<time>2014-08-04T22:07:35Z</time></trkpt>
<trkpt lat="25.519607" lon="99.728243">
<time>2014-08-04T22:07:36Z</time></trkpt>
<trkpt lat="25.519587" lon="99.728173">
<time>2014-08-04T22:07:37Z</time></trkpt>
<trkpt lat="25.519567" lon="99.728113">
<time>2014-08-04T22:07:38Z</time></trkpt>
<trkpt lat="25.519557" lon="99.728043">
<time>2014-08-04T22:07:39Z</time></trkpt>
<trkpt lat="25.519547" lon="99.727993">
<time>2014-08-04T22:07:40Z</time></trkpt>
<trkpt lat="25.519547" lon="99.727953">
<time>2014-08-04T22:07:41Z</time></trkpt>
<trkpt lat="25.519547" lon="99.727923">
<time>2014-08-04T22:07:42Z</time></trkpt>
<trkpt lat="25.519557" lon="99.727873">
<time>2014-08-04T22:07:43Z</time></trkpt>
<trkpt lat="25.519557" lon="99.727833">
<time>2014-08-04T22:07:44Z</time></trkpt>
<trkpt lat="25.519587" lon="99.727723">
<time>2014-08-04T22:07:45Z</time></trkpt>
<trkpt lat="25.519607" lon="99.727653">
<time>2014-08-04T22:07:46Z</time></trkpt>
<trkpt lat="25.519607" lon="99.727603">
<time>2014-08-04T22:07:47Z</time></trkpt>
<trkpt lat="25.519617" lon="99.727523">
<time>2014-08-04T22:07:48Z</time></trkpt>
<trkpt lat="25.519607" lon="99.727354">
<time>2014-08-04T22:07:49Z</time></trkpt>
<trkpt lat="25.519608" lon="99.727274">
<time>2014-08-04T22:07:50Z</time></trkpt>
<trkpt lat="25.519588" lon="99.727154">
<time>2014-08-04T22:07:51Z</time></trkpt>
<trkpt lat="25.519568" lon="99.727014">
<time>2014-08-04T22:07:52Z</time></trkpt>
<trkpt lat="25.519558" lon="99.726894">
<time>2014-08-04T22:07:53Z</time></trkpt>
<trkpt lat="25.519548" lon="99.726824">
<time>2014-08-04T22:07:54Z</time></trkpt>
<trkpt lat="25.519548" lon="99.726764">
<time>2014-08-04T22:07:55Z</time></trkpt>
<trkpt lat="25.519558" lon="99.726634">
<time>2014-08-04T22:07:56Z</time></trkpt>
<trkpt lat="25.519578" lon="99.726505">
<time>2014-08-04T22:07:57Z</time></trkpt>
<trkpt lat="25.519608" lon="99.726375">
<time>2014-08-04T22:07:58Z</time></trkpt>
<trkpt lat="25.519618" lon="99.726335">
<time>2014-08-04T22:07:59Z</time></trkpt>
<trkpt lat="25.519638" lon="99.726245">
<time>2014-08-04T22:08:00Z</time></trkpt>
<trkpt lat="25.519658" lon="99.726145">
<time>2014-08-04T22:08:01Z</time></trkpt>
<trkpt lat="25.519669" lon="99.726075">
<time>2014-08-04T22:08:02Z</time></trkpt>
<trkpt lat="25.519669" lon="99.725975">
<time>2014-08-04T22:08:03Z</time></trkpt>
<trkpt lat="25.519669" lon="99.725915">
<time>2014-08-04T22:08:04Z</time></trkpt>
<trkpt lat="25.519669" lon="99.725845">
<time>2014-08-04T22:08:05Z</time></trkpt>
<trkpt lat="25.519649" lon="99.725705">
<time>2014-08-04T22:08:06Z</time></trkpt>
<trkpt lat="25.519639" lon="99.725615">
<time>2014-08-04T22:08:07Z</time></trkpt>
<trkpt lat="25.519609" lon="99.725466">
<time>2014-08-04T22:08:08Z</time></trkpt>
<trkpt lat="25.519529" lon="99.725046">
<time>2014-08-04T22:08:09Z</time></trkpt>
<trkpt lat="25.51949" lon="99.724776">
<time>2014-08-04T22:08:10Z</time></trkpt>
<trkpt lat="25.51948" lon="99.724627">
<time>2014-08-04T22:08:11Z</time></trkpt>
<trkpt lat="25.51948" lon="99.724507">
<time>2014-08-04T22:08:12Z</time></trkpt>
<trkpt lat="25.51949" lon="99.724367">
<time>2014-08-04T22:08:13Z</time></trkpt>
<trkpt lat="25.51952" lon="99.724097">
<time>2014-08-04T22:08:14Z</time></trkpt>
<trkpt lat="25.519591" lon="99.723188">
<time>2014-08-04T22:08:15Z</time></trkpt>
<trkpt lat="25.519601" lon="99.723068">
<time>2014-08-04T22:08:16Z</time></trkpt>
<trkpt lat="25.519601" lon="99.722998">
<time>2014-08-04T22:08:17Z</time></trkpt>
<trkpt lat="25.519591" lon="99.722909">
<time>2014-08-04T22:08:18Z</time></trkpt>
<trkpt lat="25.519581" lon="99.722799">
<time>2014-08-04T22:08:19Z</time></trkpt>
<trkpt lat="25.519572" lon="99.722659">
<time>2014-08-04T22:08:20Z</time></trkpt>
<trkpt lat="25.519522" lon="99.722279">
<time>2014-08-04T22:08:21Z</time></trkpt>
<trkpt lat="25.519522" lon="99.722179">
<time>2014-08-04T22:08:22Z</time></trkpt>
<trkpt lat="25.519542" lon="99.72207">
<time>2014-08-04T22:08:23Z</time></trkpt>
<trkpt lat="25.519572" lon="99.72196">
<time>2014-08-04T22:08:24Z</time></trkpt>
<trkpt lat="25.519652" lon="99.7218">
<time>2014-08-04T22:08:25Z</time></trkpt>
<trkpt lat="25.519763" lon="99.72157">
<time>2014-08-04T22:08:26Z</time></trkpt>
<trkpt lat="25.519813" lon="99.72145">
<time>2014-08-04T22:08:27Z</time></trkpt>
<trkpt lat="25.519863" lon="99.72133">
<time>2014-08-04T22:08:28Z</time></trkpt>
<trkpt lat="25.519883" lon="99.721251">
<time>2014-08-04T22:08:29Z</time></trkpt>
<trkpt lat="25.519903" lon="99.721171">
<time>2014-08-04T22:08:30Z</time></trkpt>
<trkpt lat="25.519903" lon="99.721081">
<time>2014-08-04T22:08:31Z</time></trkpt>
<trkpt lat="25.519903" lon="99.720981">
<time>2014-08-04T22:08:32Z</time></trkpt>
<trkpt lat="25.519893" lon="99.720901">
<time>2014-08-04T22:08:33Z</time></trkpt>
<trkpt lat="25.519884" lon="99.720821">
<time>2014-08-04T22:08:34Z</time></trkpt>
<trkpt lat="25.519834" lon="99.720651">
<time>2014-08-04T22:08:35Z</time></trkpt>
<trkpt lat="25.519814" lon="99.720541">
<time>2014-08-04T22:08:36Z</time></trkpt>
<trkpt lat="25.519714" lon="99.720062">
<time>2014-08-04T22:08:37Z</time></trkpt>
<trkpt lat="25.519645" lon="99.719633">
<time>2014-08-04T22:08:38Z</time></trkpt>
<trkpt lat="25.519615" lon="99.719453">
<time>2014-08-04T22:08:39Z</time></trkpt>
<trkpt lat="25.519605" lon="99.719273">
<time>2014-08-04T22:08:40Z</time></trkpt>
<trkpt lat="25.519605" lon="99.719083">
<time>2014-08-04T22:08:41Z</time></trkpt>
<trkpt lat="25.519626" lon="99.718674">
<time>2014-08-04T22:08:42Z</time></trkpt>
<trkpt lat="25.519626" lon="99.718524">
<time>2014-08-04T22:08:43Z</time></trkpt>
<trkpt lat="25.519616" lon="99.718384">
<time>2014-08-04T22:08:44Z</time></trkpt>
<trkpt lat="25.519596" lon="99.718115">
<time>2014-08-04T22:08:45Z</time></trkpt>
<trkpt lat="25.519577" lon="99.717935">
<time>2014-08-04T22:08:46Z</time></trkpt>
<trkpt lat="25.519567" lon="99.717825">
<time>2014-08-04T22:08:47Z</time></trkpt>
<trkpt lat="25.519567" lon="99.717745">
<time>2014-08-04T22:08:48Z</time></trkpt>
<trkpt lat="25.519597" lon="99.717605">
<time>2014-08-04T22:08:49Z</time></trkpt>
<trkpt lat="25.519839" lon="99.716247">
<time>2014-08-04T22:08:50Z</time></trkpt>
<trkpt lat="25.519869" lon="99.716088">
<time>2014-08-04T22:08:51Z</time></trkpt>
<trkpt lat="25.519919" lon="99.715918">
<time>2014-08-04T22:08:52Z</time></trkpt>
<trkpt lat="25.519959" lon="99.715798">
<time>2014-08-04T22:08:53Z</time></trkpt>
<trkpt lat="25.520069" lon="99.715578">
<time>2014-08-04T22:08:54Z</time></trkpt>
<trkpt lat="25.52011" lon="99.715438">
<time>2014-08-04T22:08:55Z</time></trkpt>
<trkpt lat="25.52016" lon="99.715299">
<time>2014-08-04T22:08:56Z</time></trkpt>
<trkpt lat="25.52018" lon="99.715169">
<time>2014-08-04T22:08:57Z</time></trkpt>
<trkpt lat="25.52021" lon="99.715059">
<time>2014-08-04T22:08:58Z</time></trkpt>
<trkpt lat="25.52023" lon="99.714939">
<time>2014-08-04T22:08:59Z</time></trkpt>
<trkpt lat="25.52023" lon="99.714839">
<time>2014-08-04T22:09:00Z</time></trkpt>
<trkpt lat="25.52023" lon="99.714749">
<time>2014-08-04T22:09:01Z</time></trkpt>
<trkpt lat="25.520221" lon="99.7146">
<time>2014-08-04T22:09:02Z</time></trkpt>
<trkpt lat="25.520201" lon="99.71442">
<time>2014-08-04T22:09:03Z</time></trkpt>
<trkpt lat="25.520161" lon="99.71422">
<time>2014-08-04T22:09:04Z</time></trkpt>
<trkpt lat="25.520151" lon="99.71411">
<time>2014-08-04T22:09:05Z</time></trkpt>
<trkpt lat="25.520141" lon="99.713971">
<time>2014-08-04T22:09:06Z</time></trkpt>
<trkpt lat="25.520142" lon="99.713771">
<time>2014-08-04T22:09:07Z</time></trkpt>
<trkpt lat="25.520152" lon="99.713591">
<time>2014-08-04T22:09:08Z</time></trkpt>
<trkpt lat="25.520162" lon="99.713431">
<time>2014-08-04T22:09:09Z</time></trkpt>
<trkpt lat="25.520243" lon="99.713052">
<time>2014-08-04T22:09:10Z</time></trkpt>
<trkpt lat="25.520313" lon="99.712743">
<time>2014-08-04T22:09:11Z</time></trkpt>
<trkpt lat="25.520333" lon="99.712593">
<time>2014-08-04T22:09:12Z</time></trkpt>
<trkpt lat="25.520343" lon="99.712523">
<time>2014-08-04T22:09:13Z</time></trkpt>
<trkpt lat="25.520343" lon="99.712403">
<time>2014-08-04T22:09:14Z</time></trkpt>
<trkpt lat="25.520334" lon="99.712203">
<time>2014-08-04T22:09:15Z</time></trkpt>
<trkpt lat="25.520324" lon="99.712064">
<time>2014-08-04T22:09:16Z</time></trkpt>
<trkpt lat="25.520324" lon="99.711954">
<time>2014-08-04T22:09:17Z</time></trkpt>
<trkpt lat="25.520344" lon="99.711844">
<time>2014-08-04T22:09:18Z</time></trkpt>
<trkpt lat="25.520374" lon="99.711734">
<time>2014-08-04T22:09:19Z</time></trkpt>
<trkpt lat="25.520424" lon="99.711644">
<time>2014-08-04T22:09:20Z</time></trkpt>
<trkpt lat="25.520495" lon="99.711524">
<time>2014-08-04T22:09:21Z</time></trkpt>
<trkpt lat="25.520545" lon="99.711405">
<time>2014-08-04T22:09:22Z</time></trkpt>
<trkpt lat="25.520575" lon="99.711315">
<time>2014-08-04T22:09:23Z</time></trkpt>
<trkpt lat="25.520605" lon="99.711195">
<time>2014-08-04T22:09:24Z</time></trkpt>
<trkpt lat="25.520605" lon="99.711075">
<time>2014-08-04T22:09:25Z</time></trkpt>
<trkpt lat="25.520595" lon="99.710945">
<time>2014-08-04T22:09:26Z</time></trkpt>
<trkpt lat="25.520576" lon="99.710836">
<time>2014-08-04T22:09:27Z</time></trkpt>
<trkpt lat="25.520546" lon="99.710746">
<time>2014-08-04T22:09:28Z</time></trkpt>
<trkpt lat="25.520516" lon="99.710646">
<time>2014-08-04T22:09:29Z</time></trkpt>
<trkpt lat="25.520476" lon="99.710486">
<time>2014-08-04T22:09:30Z</time></trkpt>
<trkpt lat="25.520456" lon="99.710366">
<time>2014-08-04T22:09:31Z</time></trkpt>
<trkpt lat="25.520456" lon="99.710286">
<time>2014-08-04T22:09:32Z</time></trkpt>
<trkpt lat="25.520456" lon="99.710246">
<time>2014-08-04T22:09:33Z</time></trkpt>
<trkpt lat="25.520466" lon="99.710207">
<time>2014-08-04T22:09:34Z</time></trkpt>
<trkpt lat="25.520486" lon="99.710147">
<time>2014-08-04T22:09:35Z</time></trkpt>
<trkpt lat="25.520527" lon="99.710067">
<time>2014-08-04T22:09:36Z</time></trkpt>
<trkpt lat="25.520607" lon="99.709947">
<time>2014-08-04T22:09:37Z</time></trkpt>
<trkpt lat="25.520697" lon="99.709817">
<time>2014-08-04T22:09:38Z</time></trkpt>
<trkpt lat="25.520897" lon="99.709528">
<time>2014-08-04T22:09:39Z</time></trkpt>
<trkpt lat="25.520958" lon="99.709428">
<time>2014-08-04T22:09:40Z</time></trkpt>
<trkpt lat="25.520998" lon="99.709338">
<time>2014-08-04T22:09:41Z</time></trkpt>
<trkpt lat="25.521028" lon="99.709268">
<time>2014-08-04T22:09:42Z</time></trkpt>
<trkpt lat="25.521048" lon="99.709208">
<time>2014-08-04T22:09:43Z</time></trkpt>
<trkpt lat="25.521078" lon="99.709148">
<time>2014-08-04T22:09:44Z</time></trkpt>
<trkpt lat="25.521098" lon="99.709068">
<time>2014-08-04T22:09:45Z</time></trkpt>
<trkpt lat="25.521128" lon="99.708939">
<time>2014-08-04T22:09:46Z</time></trkpt>
<trkpt lat="25.521138" lon="99.708859">
<time>2014-08-04T22:09:47Z</time></trkpt>
<trkpt lat="25.521149" lon="99.708779">
<time>2014-08-04T22:09:48Z</time></trkpt>
<trkpt lat="25.521159" lon="99.708699">
<time>2014-08-04T22:09:49Z</time></trkpt>
<trkpt lat="25.521169" lon="99.708629">
<time>2014-08-04T22:09:50Z</time></trkpt>
<trkpt lat="25.521179" lon="99.708529">
<time>2014-08-04T22:09:51Z</time></trkpt>
<trkpt lat="25.521179" lon="99.708449">
<time>2014-08-04T22:09:52Z</time></trkpt>
<trkpt lat="25.521179" lon="99.70835">
<time>2014-08-04T22:09:53Z</time></trkpt>
<trkpt lat="25.521169" lon="99.70825">
<time>2014-08-04T22:09:54Z</time></trkpt>
<trkpt lat="25.521159" lon="99.70814">
<time>2014-08-04T22:09:55Z</time></trkpt>
<trkpt lat="25.52114" lon="99.70804">
<time>2014-08-04T22:09:56Z</time></trkpt>
<trkpt lat="25.521021" lon="99.707271">
<time>2014-08-04T22:09:57Z</time></trkpt>
<trkpt lat="25.520991" lon="99.707112">
<time>2014-08-04T22:09:58Z</time></trkpt>
<trkpt lat="25.520941" lon="99.706952">
<time>2014-08-04T22:09:59Z</time></trkpt>
<trkpt lat="25.520891" lon="99.706772">
<time>2014-08-04T22:10:00Z</time></trkpt>
<trkpt lat="25.520682" lon="99.706163">
<time>2014-08-04T22:10:01Z</time></trkpt>
<trkpt lat="25.520622" lon="99.705954">
<time>2014-08-04T22:10:02Z</time></trkpt>
<trkpt lat="25.520602" lon="99.705874">
<time>2014-08-04T22:10:03Z</time></trkpt>
<trkpt lat="25.520583" lon="99.705794">
<time>2014-08-04T22:10:04Z</time></trkpt>
<trkpt lat="25.520573" lon="99.705714">
<time>2014-08-04T22:10:05Z</time></trkpt>
<trkpt lat="25.520563" lon="99.705634">
<time>2014-08-04T22:10:06Z</time></trkpt>
<trkpt lat="25.520524" lon="99.705085">
<time>2014-08-04T22:10:07Z</time></trkpt>
<trkpt lat="25.520514" lon="99.704995">
<time>2014-08-04T22:10:08Z</time></trkpt>
<trkpt lat="25.520514" lon="99.704906">
<time>2014-08-04T22:10:09Z</time></trkpt>
<trkpt lat="25.520514" lon="99.704836">
<time>2014-08-04T22:10:10Z</time></trkpt>
<trkpt lat="25.520524" lon="99.704776">
<time>2014-08-04T22:10:11Z</time></trkpt>
<trkpt lat="25.520534" lon="99.704706">
<time>2014-08-04T22:10:12Z</time></trkpt>
<trkpt lat="25.520544" lon="99.704626">
<time>2014-08-04T22:10:13Z</time></trkpt>
<trkpt lat="25.520595" lon="99.704436">
<time>2014-08-04T22:10:14Z</time></trkpt>
<trkpt lat="25.520655" lon="99.704247">
<time>2014-08-04T22:10:15Z</time></trkpt>
<trkpt lat="25.520675" lon="99.704187">
<time>2014-08-04T22:10:16Z</time></trkpt>
<trkpt lat="25.520685" lon="99.704117">
<time>2014-08-04T22:10:17Z</time></trkpt>
<trkpt lat="25.520695" lon="99.704067">
<time>2014-08-04T22:10:18Z</time></trkpt>
<trkpt lat="25.520695" lon="99.704017">
<time>2014-08-04T22:10:19Z</time></trkpt>
<trkpt lat="25.520685" lon="99.703977">
<time>2014-08-04T22:10:20Z</time></trkpt>
<trkpt lat="25.520675" lon="99.703947">
<time>2014-08-04T22:10:21Z</time></trkpt>
<trkpt lat="25.520665" lon="99.703897">
<time>2014-08-04T22:10:22Z</time></trkpt>
<trkpt lat="25.520645" lon="99.703848">
<time>2014-08-04T22:10:23Z</time></trkpt>
<trkpt lat="25.520616" lon="99.703778">
<time>2014-08-04T22:10:24Z</time></trkpt>
<trkpt lat="25.520556" lon="99.703668">
<time>2014-08-04T22:10:25Z</time></trkpt>
<trkpt lat="25.520536" lon="99.703628">
<time>2014-08-04T22:10:26Z</time></trkpt>
<trkpt lat="25.520506" lon="99.703578">
<time>2014-08-04T22:10:27Z</time></trkpt>
<trkpt lat="25.520496" lon="99.703538">
<time>2014-08-04T22:10:28Z</time></trkpt>
<trkpt lat="25.520446" lon="99.703408">
<time>2014-08-04T22:10:29Z</time></trkpt>
<trkpt lat="25.520436" lon="99.703368">
<time>2014-08-04T22:10:30Z</time></trkpt>
<trkpt lat="25.520426" lon="99.703338">
<time>2014-08-04T22:10:31Z</time></trkpt>
<trkpt lat="25.520416" lon="99.703299">
<time>2014-08-04T22:10:32Z</time></trkpt>
<trkpt lat="25.520406" lon="99.703249">
<time>2014-08-04T22:10:33Z</time></trkpt>
<trkpt lat="25.520396" lon="99.703169">
<time>2014-08-04T22:10:34Z</time></trkpt>
<trkpt lat="25.520386" lon="99.703119">
<time>2014-08-04T22:10:35Z</time></trkpt>
<trkpt lat="25.520367" lon="99.702899">
<time>2014-08-04T22:10:36Z</time></trkpt>
<trkpt lat="25.520357" lon="99.702869">
<time>2014-08-04T22:10:37Z</time></trkpt>
<trkpt lat="25.520357" lon="99.702809">
<time>2014-08-04T22:10:38Z</time></trkpt>
<trkpt lat="25.520347" lon="99.70276">
<time>2014-08-04T22:10:39Z</time></trkpt>
<trkpt lat="25.520337" lon="99.70273">
<time>2014-08-04T22:10:40Z</time></trkpt>
<trkpt lat="25.520327" lon="99.70269">
<time>2014-08-04T22:10:41Z</time></trkpt>
<trkpt lat="25.520317" lon="99.70266">
<time>2014-08-04T22:10:42Z</time></trkpt>
<trkpt lat="25.520307" lon="99.70264">
<time>2014-08-04T22:10:43Z</time></trkpt>
<trkpt lat="25.520287" lon="99.70261">
<time>2014-08-04T22:10:44Z</time></trkpt>
<trkpt lat="25.520277" lon="99.70258">
<time>2014-08-04T22:10:45Z</time></trkpt>
<trkpt lat="25.520257" lon="99.70255">
<time>2014-08-04T22:10:46Z</time></trkpt>
<trkpt lat="25.520237" lon="99.70253">
<time>2014-08-04T22:10:47Z</time></trkpt>
<trkpt lat="25.520217" lon="99.7025">
<time>2014-08-04T22:10:48Z</time></trkpt>
<trkpt lat="25.520167" lon="99.70246">
<time>2014-08-04T22:10:49Z</time></trkpt>
<trkpt lat="25.520127" lon="99.70242">
<time>2014-08-04T22:10:50Z</time></trkpt>
<trkpt lat="25.519968" lon="99.7023">
<time>2014-08-04T22:10:51Z</time></trkpt>
<trkpt lat="25.519848" lon="99.702191">
<time>2014-08-04T22:10:52Z</time></trkpt>
<trkpt lat="25.519748" lon="99.702081">
<time>2014-08-04T22:10:53Z</time></trkpt>
<trkpt lat="25.519628" lon="99.701921">
<time>2014-08-04T22:10:54Z</time></trkpt>
<trkpt lat="25.519528" lon="99.701761">
<time>2014-08-04T22:10:55Z</time></trkpt>
<trkpt lat="25.519468" lon="99.701652">
<time>2014-08-04T22:10:56Z</time></trkpt>
<trkpt lat="25.519389" lon="99.701512">
<time>2014-08-04T22:10:57Z</time></trkpt>
<trkpt lat="25.519269" lon="99.701242">
<time>2014-08-04T22:10:58Z</time></trkpt>
<trkpt lat="25.519229" lon="99.701153">
<time>2014-08-04T22:10:59Z</time></trkpt>
<trkpt lat="25.519209" lon="99.701103">
<time>2014-08-04T22:11:00Z</time></trkpt>
<trkpt lat="25.519179" lon="99.701053">
<time>2014-08-04T22:11:01Z</time></trkpt>
<trkpt lat="25.519149" lon="99.701013">
<time>2014-08-04T22:11:02Z</time></trkpt>
<trkpt lat="25.519129" lon="99.700973">
<time>2014-08-04T22:11:03Z</time></trkpt>
<trkpt lat="25.519099" lon="99.700943">
<time>2014-08-04T22:11:04Z</time></trkpt>
<trkpt lat="25.519069" lon="99.700903">
<time>2014-08-04T22:11:05Z</time></trkpt>
<trkpt lat="25.519039" lon="99.700873">
<time>2014-08-04T22:11:06Z</time></trkpt>
<trkpt lat="25.51899" lon="99.700833">
<time>2014-08-04T22:11:07Z</time></trkpt>
<trkpt lat="25.51895" lon="99.700803">
<time>2014-08-04T22:11:08Z</time></trkpt>
<trkpt lat="25.51889" lon="99.700763">
<time>2014-08-04T22:11:09Z</time></trkpt>
<trkpt lat="25.51881" lon="99.700733">
<time>2014-08-04T22:11:10Z</time></trkpt>
<trkpt lat="25.51864" lon="99.700634">
<time>2014-08-04T22:11:11Z</time></trkpt>
<trkpt lat="25.51822" lon="99.700364">
<time>2014-08-04T22:11:12Z</time></trkpt>
<trkpt lat="25.51808" lon="99.700274">
<time>2014-08-04T22:11:13Z</time></trkpt>
<trkpt lat="25.51799" lon="99.700204">
<time>2014-08-04T22:11:14Z</time></trkpt>
<trkpt lat="25.51792" lon="99.700145">
<time>2014-08-04T22:11:15Z</time></trkpt>
<trkpt lat="25.51787" lon="99.700065">
<time>2014-08-04T22:11:16Z</time></trkpt>
<trkpt lat="25.517841" lon="99.699975">
<time>2014-08-04T22:11:17Z</time></trkpt>
<trkpt lat="25.517821" lon="99.699885">
<time>2014-08-04T22:11:18Z</time></trkpt>
<trkpt lat="25.517821" lon="99.699795">
<time>2014-08-04T22:11:19Z</time></trkpt>
<trkpt lat="25.517831" lon="99.699566">
<time>2014-08-04T22:11:20Z</time></trkpt>
<trkpt lat="25.517841" lon="99.699416">
<time>2014-08-04T22:11:21Z</time></trkpt>
<trkpt lat="25.517802" lon="99.699057">
<time>2014-08-04T22:11:22Z</time></trkpt>
<trkpt lat="25.517782" lon="99.698847">
<time>2014-08-04T22:11:23Z</time></trkpt>
<trkpt lat="25.517773" lon="99.698607">
<time>2014-08-04T22:11:24Z</time></trkpt>
<trkpt lat="25.517763" lon="99.698468">
<time>2014-08-04T22:11:25Z</time></trkpt>
<trkpt lat="25.517753" lon="99.698358">
<time>2014-08-04T22:11:26Z</time></trkpt>
<trkpt lat="25.517723" lon="99.698258">
<time>2014-08-04T22:11:27Z</time></trkpt>
<trkpt lat="25.517663" lon="99.698158">
<time>2014-08-04T22:11:28Z</time></trkpt>
<trkpt lat="25.517564" lon="99.698009">
<time>2014-08-04T22:11:29Z</time></trkpt>
<trkpt lat="25.517484" lon="99.697889">
<time>2014-08-04T22:11:30Z</time></trkpt>
<trkpt lat="25.517444" lon="99.697819">
<time>2014-08-04T22:11:31Z</time></trkpt>
<trkpt lat="25.517424" lon="99.697739">
<time>2014-08-04T22:11:32Z</time></trkpt>
<trkpt lat="25.517394" lon="99.697639">
<time>2014-08-04T22:11:33Z</time></trkpt>
<trkpt lat="25.517364" lon="99.69746">
<time>2014-08-04T22:11:34Z</time></trkpt>
<trkpt lat="25.517345" lon="99.69725">
<time>2014-08-04T22:11:35Z</time></trkpt>
<trkpt lat="25.517325" lon="99.69709">
<time>2014-08-04T22:11:36Z</time></trkpt>
<trkpt lat="25.517305" lon="99.696961">
<time>2014-08-04T22:11:37Z</time></trkpt>
<trkpt lat="25.517265" lon="99.696821">
<time>2014-08-04T22:11:38Z</time></trkpt>
<trkpt lat="25.517226" lon="99.696721">
<time>2014-08-04T22:11:39Z</time></trkpt>
<trkpt lat="25.517166" lon="99.696621">
<time>2014-08-04T22:11:40Z</time></trkpt>
<trkpt lat="25.517106" lon="99.696532">
<time>2014-08-04T22:11:41Z</time></trkpt>
<trkpt lat="25.517046" lon="99.696442">
<time>2014-08-04T22:11:42Z</time></trkpt>
<trkpt lat="25.516956" lon="99.696352">
<time>2014-08-04T22:11:43Z</time></trkpt>
<trkpt lat="25.516876" lon="99.696282">
<time>2014-08-04T22:11:44Z</time></trkpt>
<trkpt lat="25.516776" lon="99.696212">
<time>2014-08-04T22:11:45Z</time></trkpt>
<trkpt lat="25.516686" lon="99.696162">
<time>2014-08-04T22:11:46Z</time></trkpt>
<trkpt lat="25.516596" lon="99.696122">
<time>2014-08-04T22:11:47Z</time></trkpt>
<trkpt lat="25.516476" lon="99.696073">
<time>2014-08-04T22:11:48Z</time></trkpt>
<trkpt lat="25.516306" lon="99.696013">
<time>2014-08-04T22:11:49Z</time></trkpt>
<trkpt lat="25.516187" lon="99.695963">
<time>2014-08-04T22:11:50Z</time></trkpt>
<trkpt lat="25.516147" lon="99.695943">
<time>2014-08-04T22:11:51Z</time></trkpt>
<trkpt lat="25.516117" lon="99.695923">
<time>2014-08-04T22:11:52Z</time></trkpt>
<trkpt lat="25.516077" lon="99.695893">
<time>2014-08-04T22:11:53Z</time></trkpt>
<trkpt lat="25.516047" lon="99.695853">
<time>2014-08-04T22:11:54Z</time></trkpt>
<trkpt lat="25.516017" lon="99.695803">
<time>2014-08-04T22:11:55Z</time></trkpt>
<trkpt lat="25.515997" lon="99.695743">
<time>2014-08-04T22:11:56Z</time></trkpt>
<trkpt lat="25.515977" lon="99.695683">
<time>2014-08-04T22:11:57Z</time></trkpt>
<trkpt lat="25.515947" lon="99.695504">
<time>2014-08-04T22:11:58Z</time></trkpt>
<trkpt lat="25.515927" lon="99.695424">
<time>2014-08-04T22:11:59Z</time></trkpt>
<trkpt lat="25.515898" lon="99.695304">
<time>2014-08-04T22:12:00Z</time></trkpt>
<trkpt lat="25.515858" lon="99.695214">
<time>2014-08-04T22:12:01Z</time></trkpt>
<trkpt lat="25.515818" lon="99.695134">
<time>2014-08-04T22:12:02Z</time></trkpt>
<trkpt lat="25.515758" lon="99.695045">
<time>2014-08-04T22:12:03Z</time></trkpt>
<trkpt lat="25.515698" lon="99.694955">
<time>2014-08-04T22:12:04Z</time></trkpt>
<trkpt lat="25.515618" lon="99.694845">
<time>2014-08-04T22:12:05Z</time></trkpt>
<trkpt lat="25.515558" lon="99.694755">
<time>2014-08-04T22:12:06Z</time></trkpt>
<trkpt lat="25.515489" lon="99.694596">
<time>2014-08-04T22:12:07Z</time></trkpt>
<trkpt lat="25.515439" lon="99.694406">
<time>2014-08-04T22:12:08Z</time></trkpt>
<trkpt lat="25.515399" lon="99.694306">
<time>2014-08-04T22:12:09Z</time></trkpt>
<trkpt lat="25.515339" lon="99.694176">
<time>2014-08-04T22:12:10Z</time></trkpt>
<trkpt lat="25.51517" lon="99.693857">
<time>2014-08-04T22:12:11Z</time></trkpt>
<trkpt lat="25.51514" lon="99.693797">
<time>2014-08-04T22:12:12Z</time></trkpt>
<trkpt lat="25.51513" lon="99.693747">
<time>2014-08-04T22:12:13Z</time></trkpt>
<trkpt lat="25.51512" lon="99.693687">
<time>2014-08-04T22:12:14Z</time></trkpt>
<trkpt lat="25.51512" lon="99.693638">
<time>2014-08-04T22:12:15Z</time></trkpt>
<trkpt lat="25.51513" lon="99.693578">
<time>2014-08-04T22:12:16Z</time></trkpt>
<trkpt lat="25.51515" lon="99.693518">
<time>2014-08-04T22:12:17Z</time></trkpt>
<trkpt lat="25.51518" lon="99.693468">
<time>2014-08-04T22:12:18Z</time></trkpt>
<trkpt lat="25.515221" lon="99.693388">
<time>2014-08-04T22:12:19Z</time></trkpt>
<trkpt lat="25.515291" lon="99.693298">
<time>2014-08-04T22:12:20Z</time></trkpt>
<trkpt lat="25.515341" lon="99.693218">
<time>2014-08-04T22:12:21Z</time></trkpt>
<trkpt lat="25.515371" lon="99.693159">
<time>2014-08-04T22:12:22Z</time></trkpt>
<trkpt lat="25.515401" lon="99.693099">
<time>2014-08-04T22:12:23Z</time></trkpt>
<trkpt lat="25.515421" lon="99.693049">
<time>2014-08-04T22:12:24Z</time></trkpt>
<trkpt lat="25.515431" lon="99.692999">
<time>2014-08-04T22:12:25Z</time></trkpt>
<trkpt lat="25.515441" lon="99.692949">
<time>2014-08-04T22:12:26Z</time></trkpt>
<trkpt lat="25.515451" lon="99.692919">
<time>2014-08-04T22:12:27Z</time></trkpt>
<trkpt lat="25.515452" lon="99.692869">
<time>2014-08-04T22:12:28Z</time></trkpt>
<trkpt lat="25.515452" lon="99.692799">
<time>2014-08-04T22:12:29Z</time></trkpt>
<trkpt lat="25.515452" lon="99.692719">
<time>2014-08-04T22:12:30Z</time></trkpt>
<trkpt lat="25.515423" lon="99.69227">
<time>2014-08-04T22:12:31Z</time></trkpt>
<trkpt lat="25.515413" lon="99.692121">
<time>2014-08-04T22:12:32Z</time></trkpt>
<trkpt lat="25.515393" lon="99.691991">
<time>2014-08-04T22:12:33Z</time></trkpt>
<trkpt lat="25.515363" lon="99.691861">
<time>2014-08-04T22:12:34Z</time></trkpt>
<trkpt lat="25.515324" lon="99.691672">
<time>2014-08-04T22:12:35Z</time></trkpt>
<trkpt lat="25.515294" lon="99.691552">
<time>2014-08-04T22:12:36Z</time></trkpt>
<trkpt lat="25.515284" lon="99.691432">
<time>2014-08-04T22:12:37Z</time></trkpt>
<trkpt lat="25.515274" lon="99.691282">
<time>2014-08-04T22:12:38Z</time></trkpt>
<trkpt lat="25.515264" lon="99.691133">
<time>2014-08-04T22:12:39Z</time></trkpt>
<trkpt lat="25.515255" lon="99.690993">
<time>2014-08-04T22:12:40Z</time></trkpt>
<trkpt lat="25.515245" lon="99.690873">
<time>2014-08-04T22:12:41Z</time></trkpt>
<trkpt lat="25.515225" lon="99.690764">
<time>2014-08-04T22:12:42Z</time></trkpt>
<trkpt lat="25.515205" lon="99.690634">
<time>2014-08-04T22:12:43Z</time></trkpt>
<trkpt lat="25.515166" lon="99.690494">
<time>2014-08-04T22:12:44Z</time></trkpt>
<trkpt lat="25.515126" lon="99.690314">
<time>2014-08-04T22:12:45Z</time></trkpt>
<trkpt lat="25.515096" lon="99.690185">
<time>2014-08-04T22:12:46Z</time></trkpt>
<trkpt lat="25.515066" lon="99.690075">
<time>2014-08-04T22:12:47Z</time></trkpt>
<trkpt lat="25.515056" lon="99.689965">
<time>2014-08-04T22:12:48Z</time></trkpt>
<trkpt lat="25.515037" lon="99.689875">
<time>2014-08-04T22:12:49Z</time></trkpt>
<trkpt lat="25.515037" lon="99.689746">
<time>2014-08-04T22:12:50Z</time></trkpt>
<trkpt lat="25.515037" lon="99.689626">
<time>2014-08-04T22:12:51Z</time></trkpt>
<trkpt lat="25.515047" lon="99.689386">
<time>2014-08-04T22:12:52Z</time></trkpt>
<trkpt lat="25.515038" lon="99.689227">
<time>2014-08-04T22:12:53Z</time></trkpt>
<trkpt lat="25.515018" lon="99.689087">
<time>2014-08-04T22:12:54Z</time></trkpt>
<trkpt lat="25.514998" lon="99.688937">
<time>2014-08-04T22:12:55Z</time></trkpt>
<trkpt lat="25.514969" lon="99.688798">
<time>2014-08-04T22:12:56Z</time></trkpt>
<trkpt lat="25.514929" lon="99.688628">
<time>2014-08-04T22:12:57Z</time></trkpt>
<trkpt lat="25.514889" lon="99.688468">
<time>2014-08-04T22:12:58Z</time></trkpt>
<trkpt lat="25.514621" lon="99.68759">
<time>2014-08-04T22:12:59Z</time></trkpt>
<trkpt lat="25.514551" lon="99.687391">
<time>2014-08-04T22:13:00Z</time></trkpt>
<trkpt lat="25.514471" lon="99.687221">
<time>2014-08-04T22:13:01Z</time></trkpt>
<trkpt lat="25.514342" lon="99.686942">
<time>2014-08-04T22:13:02Z</time></trkpt>
<trkpt lat="25.514292" lon="99.686842">
<time>2014-08-04T22:13:03Z</time></trkpt>
<trkpt lat="25.514252" lon="99.686772">
<time>2014-08-04T22:13:04Z</time></trkpt>
<trkpt lat="25.514242" lon="99.686752">
<time>2014-08-04T22:13:05Z</time></trkpt>
<trkpt lat="25.514112" lon="99.686533">
<time>2014-08-04T22:13:06Z</time></trkpt>
<trkpt lat="25.514042" lon="99.686433">
<time>2014-08-04T22:13:07Z</time></trkpt>
<trkpt lat="25.513993" lon="99.686353">
<time>2014-08-04T22:13:08Z</time></trkpt>
<trkpt lat="25.513923" lon="99.686253">
<time>2014-08-04T22:13:09Z</time></trkpt>
<trkpt lat="25.513853" lon="99.686173">
<time>2014-08-04T22:13:10Z</time></trkpt>
<trkpt lat="25.513533" lon="99.685794">
<time>2014-08-04T22:13:11Z</time></trkpt>
<trkpt lat="25.513284" lon="99.685525">
<time>2014-08-04T22:13:12Z</time></trkpt>
<trkpt lat="25.513094" lon="99.685355">
<time>2014-08-04T22:13:13Z</time></trkpt>
<trkpt lat="25.512984" lon="99.685246">
<time>2014-08-04T22:13:14Z</time></trkpt>
<trkpt lat="25.512785" lon="99.685066">
<time>2014-08-04T22:13:15Z</time></trkpt>
<trkpt lat="25.512685" lon="99.684956">
<time>2014-08-04T22:13:16Z</time></trkpt>
<trkpt lat="25.512585" lon="99.684846">
<time>2014-08-04T22:13:17Z</time></trkpt>
<trkpt lat="25.512355" lon="99.684527">
<time>2014-08-04T22:13:18Z</time></trkpt>
<trkpt lat="25.512246" lon="99.684377">
<time>2014-08-04T22:13:19Z</time></trkpt>
<trkpt lat="25.512106" lon="99.684208">
<time>2014-08-04T22:13:20Z</time></trkpt>
<trkpt lat="25.511996" lon="99.684078">
<time>2014-08-04T22:13:21Z</time></trkpt>
<trkpt lat="25.511896" lon="99.683978">
<time>2014-08-04T22:13:22Z</time></trkpt>
<trkpt lat="25.511697" lon="99.683789">
<time>2014-08-04T22:13:23Z</time></trkpt>
<trkpt lat="25.511457" lon="99.683569">
<time>2014-08-04T22:13:24Z</time></trkpt>
<trkpt lat="25.511187" lon="99.68333">
<time>2014-08-04T22:13:25Z</time></trkpt>
<trkpt lat="25.511047" lon="99.6832">
<time>2014-08-04T22:13:26Z</time></trkpt>
<trkpt lat="25.510968" lon="99.68311">
<time>2014-08-04T22:13:27Z</time></trkpt>
<trkpt lat="25.510878" lon="99.682991">
<time>2014-08-04T22:13:28Z</time></trkpt>
<trkpt lat="25.510838" lon="99.682941">
<time>2014-08-04T22:13:29Z</time></trkpt>
<trkpt lat="25.510798" lon="99.682881">
<time>2014-08-04T22:13:30Z</time></trkpt>
<trkpt lat="25.510718" lon="99.682741">
<time>2014-08-04T22:13:31Z</time></trkpt>
<trkpt lat="25.510688" lon="99.682671">
<time>2014-08-04T22:13:32Z</time></trkpt>
<trkpt lat="25.510638" lon="99.682562">
<time>2014-08-04T22:13:33Z</time></trkpt>
<trkpt lat="25.510559" lon="99.682392">
<time>2014-08-04T22:13:34Z</time></trkpt>
<trkpt lat="25.510489" lon="99.682232">
<time>2014-08-04T22:13:35Z</time></trkpt>
<trkpt lat="25.510379" lon="99.682043">
<time>2014-08-04T22:13:36Z</time></trkpt>
<trkpt lat="25.5102" lon="99.681753">
<time>2014-08-04T22:13:37Z</time></trkpt>
<trkpt lat="25.51011" lon="99.681604">
<time>2014-08-04T22:13:38Z</time></trkpt>
<trkpt lat="25.509891" lon="99.681205">
<time>2014-08-04T22:13:39Z</time></trkpt>
<trkpt lat="25.509781" lon="99.680995">
<time>2014-08-04T22:13:40Z</time></trkpt>
<trkpt lat="25.509701" lon="99.680845">
<time>2014-08-04T22:13:41Z</time></trkpt>
<trkpt lat="25.509662" lon="99.680766">
<time>2014-08-04T22:13:42Z</time></trkpt>
<trkpt lat="25.509582" lon="99.680646">
<time>2014-08-04T22:13:43Z</time></trkpt>
<trkpt lat="25.509472" lon="99.680516">
<time>2014-08-04T22:13:44Z</time></trkpt>
<trkpt lat="25.509392" lon="99.680446">
<time>2014-08-04T22:13:45Z</time></trkpt>
<trkpt lat="25.509312" lon="99.680376">
<time>2014-08-04T22:13:46Z</time></trkpt>
<trkpt lat="25.509162" lon="99.680267">
<time>2014-08-04T22:13:47Z</time></trkpt>
<trkpt lat="25.509042" lon="99.680177">
<time>2014-08-04T22:13:48Z</time></trkpt>
<trkpt lat="25.508873" lon="99.680037">
<time>2014-08-04T22:13:49Z</time></trkpt>
<trkpt lat="25.508663" lon="99.679868">
<time>2014-08-04T22:13:50Z</time></trkpt>
<trkpt lat="25.508533" lon="99.679758">
<time>2014-08-04T22:13:51Z</time></trkpt>
<trkpt lat="25.508413" lon="99.679658">
<time>2014-08-04T22:13:52Z</time></trkpt>
<trkpt lat="25.508273" lon="99.679508">
<time>2014-08-04T22:13:53Z</time></trkpt>
<trkpt lat="25.508184" lon="99.679399">
<time>2014-08-04T22:13:54Z</time></trkpt>
<trkpt lat="25.508114" lon="99.679319">
<time>2014-08-04T22:13:55Z</time></trkpt>
<trkpt lat="25.508024" lon="99.679239">
<time>2014-08-04T22:13:56Z</time></trkpt>
<trkpt lat="25.507994" lon="99.679209">
<time>2014-08-04T22:13:57Z</time></trkpt>
<trkpt lat="25.507954" lon="99.679179">
<time>2014-08-04T22:13:58Z</time></trkpt>
<trkpt lat="25.507904" lon="99.679159">
<time>2014-08-04T22:13:59Z</time></trkpt>
<trkpt lat="25.507834" lon="99.679139">
<time>2014-08-04T22:14:00Z</time></trkpt>
<trkpt lat="25.507804" lon="99.679129">
<time>2014-08-04T22:14:01Z</time></trkpt>
<trkpt lat="25.507754" lon="99.679129">
<time>2014-08-04T22:14:02Z</time></trkpt>
<trkpt lat="25.507694" lon="99.679129">
<time>2014-08-04T22:14:03Z</time></trkpt>
<trkpt lat="25.507644" lon="99.679139">
<time>2014-08-04T22:14:04Z</time></trkpt>
<trkpt lat="25.507584" lon="99.679159">
<time>2014-08-04T22:14:05Z</time></trkpt>
<trkpt lat="25.507534" lon="99.679189">
<time>2014-08-04T22:14:06Z</time></trkpt>
<trkpt lat="25.507444" lon="99.679249">
<time>2014-08-04T22:14:07Z</time></trkpt>
<trkpt lat="25.507333" lon="99.679339">
<time>2014-08-04T22:14:08Z</time></trkpt>
<trkpt lat="25.507243" lon="99.679419">
<time>2014-08-04T22:14:09Z</time></trkpt>
<trkpt lat="25.507083" lon="99.679548">
<time>2014-08-04T22:14:10Z</time></trkpt>
<trkpt lat="25.507053" lon="99.679568">
<time>2014-08-04T22:14:11Z</time></trkpt>
<trkpt lat="25.507013" lon="99.679578">
<time>2014-08-04T22:14:12Z</time></trkpt>
<trkpt lat="25.506973" lon="99.679588">
<time>2014-08-04T22:14:13Z</time></trkpt>
<trkpt lat="25.506953" lon="99.679598">
<time>2014-08-04T22:14:14Z</time></trkpt>
<trkpt lat="25.506933" lon="99.679598">
<time>2014-08-04T22:14:15Z</time></trkpt>
<trkpt lat="25.506913" lon="99.679598">
<time>2014-08-04T22:14:16Z</time></trkpt>
<trkpt lat="25.506893" lon="99.679598">
<time>2014-08-04T22:14:17Z</time></trkpt>
<trkpt lat="25.506873" lon="99.679588">
<time>2014-08-04T22:14:18Z</time></trkpt>
<trkpt lat="25.506853" lon="99.679578">
<time>2014-08-04T22:14:19Z</time></trkpt>
<trkpt lat="25.506833" lon="99.679568">
<time>2014-08-04T22:14:20Z</time></trkpt>
<trkpt lat="25.506813" lon="99.679548">
<time>2014-08-04T22:14:21Z</time></trkpt>
<trkpt lat="25.506793" lon="99.679528">
<time>2014-08-04T22:14:22Z</time></trkpt>
<trkpt lat="25.506773" lon="99.679509">
<time>2014-08-04T22:14:23Z</time></trkpt>
<trkpt lat="25.506753" lon="99.679499">
<time>2014-08-04T22:14:24Z</time></trkpt>
<trkpt lat="25.506753" lon="99.679479">
<time>2014-08-04T22:14:25Z</time></trkpt>
<trkpt lat="25.506743" lon="99.679449">
<time>2014-08-04T22:14:26Z</time></trkpt>
<trkpt lat="25.506733" lon="99.679409">
<time>2014-08-04T22:14:27Z</time></trkpt>
<trkpt lat="25.506733" lon="99.679369">
<time>2014-08-04T22:14:28Z</time></trkpt>
<trkpt lat="25.506743" lon="99.679319">
<time>2014-08-04T22:14:29Z</time></trkpt>
<trkpt lat="25.506753" lon="99.679269">
<time>2014-08-04T22:14:30Z</time></trkpt>
<trkpt lat="25.506763" lon="99.679239">
<time>2014-08-04T22:14:31Z</time></trkpt>
<trkpt lat="25.506784" lon="99.679209">
<time>2014-08-04T22:14:32Z</time></trkpt>
<trkpt lat="25.506794" lon="99.679179">
<time>2014-08-04T22:14:33Z</time></trkpt>
<trkpt lat="25.506814" lon="99.679159">
<time>2014-08-04T22:14:34Z</time></trkpt>
<trkpt lat="25.506834" lon="99.679129">
<time>2014-08-04T22:14:35Z</time></trkpt>
<trkpt lat="25.506854" lon="99.679109">
<time>2014-08-04T22:14:36Z</time></trkpt>
<trkpt lat="25.507094" lon="99.67891">
<time>2014-08-04T22:14:37Z</time></trkpt>
<trkpt lat="25.507134" lon="99.67888">
<time>2014-08-04T22:14:38Z</time></trkpt>
<trkpt lat="25.507164" lon="99.67884">
<time>2014-08-04T22:14:39Z</time></trkpt>
<trkpt lat="25.507194" lon="99.67881">
<time>2014-08-04T22:14:40Z</time></trkpt>
<trkpt lat="25.507194" lon="99.67879">
<time>2014-08-04T22:14:41Z</time></trkpt>
<trkpt lat="25.507204" lon="99.67877">
<time>2014-08-04T22:14:42Z</time></trkpt>
<trkpt lat="25.507215" lon="99.67874">
<time>2014-08-04T22:14:43Z</time></trkpt>
<trkpt lat="25.507215" lon="99.67871">
<time>2014-08-04T22:14:44Z</time></trkpt>
<trkpt lat="25.507215" lon="99.67867">
<time>2014-08-04T22:14:45Z</time></trkpt>
<trkpt lat="25.507215" lon="99.67864">
<time>2014-08-04T22:14:46Z</time></trkpt>
<trkpt lat="25.507205" lon="99.678601">
<time>2014-08-04T22:14:47Z</time></trkpt>
<trkpt lat="25.507195" lon="99.678561">
<time>2014-08-04T22:14:48Z</time></trkpt>
<trkpt lat="25.507175" lon="99.678501">
<time>2014-08-04T22:14:49Z</time></trkpt>
<trkpt lat="25.507145" lon="99.678441">
<time>2014-08-04T22:14:50Z</time></trkpt>
<trkpt lat="25.507105" lon="99.678381">
<time>2014-08-04T22:14:51Z</time></trkpt>
<trkpt lat="25.506956" lon="99.678142">
<time>2014-08-04T22:14:52Z</time></trkpt>
<trkpt lat="25.506327" lon="99.677174">
<time>2014-08-04T22:14:53Z</time></trkpt>
<trkpt lat="25.506227" lon="99.677034">
<time>2014-08-04T22:14:54Z</time></trkpt>
<trkpt lat="25.506168" lon="99.676934">
<time>2014-08-04T22:14:55Z</time></trkpt>
<trkpt lat="25.506118" lon="99.676845">
<time>2014-08-04T22:14:56Z</time></trkpt>
<trkpt lat="25.506068" lon="99.676755">
<time>2014-08-04T22:14:57Z</time></trkpt>
<trkpt lat="25.506038" lon="99.676695">
<time>2014-08-04T22:14:58Z</time></trkpt>
<trkpt lat="25.506008" lon="99.676625">
<time>2014-08-04T22:14:59Z</time></trkpt>
<trkpt lat="25.505988" lon="99.676575">
<time>2014-08-04T22:15:00Z</time></trkpt>
<trkpt lat="25.505958" lon="99.676495">
<time>2014-08-04T22:15:01Z</time></trkpt>
<trkpt lat="25.505939" lon="99.676416">
<time>2014-08-04T22:15:02Z</time></trkpt>
<trkpt lat="25.505919" lon="99.676356">
<time>2014-08-04T22:15:03Z</time></trkpt>
<trkpt lat="25.50577" lon="99.675747">
<time>2014-08-04T22:15:04Z</time></trkpt>
<trkpt lat="25.50566" lon="99.675368">
<time>2014-08-04T22:15:05Z</time></trkpt>
<trkpt lat="25.505611" lon="99.675248">
<time>2014-08-04T22:15:06Z</time></trkpt>
<trkpt lat="25.505591" lon="99.675188">
<time>2014-08-04T22:15:07Z</time></trkpt>
<trkpt lat="25.505561" lon="99.675139">
<time>2014-08-04T22:15:08Z</time></trkpt>
<trkpt lat="25.505521" lon="99.675089">
<time>2014-08-04T22:15:09Z</time></trkpt>
<trkpt lat="25.505481" lon="99.675049">
<time>2014-08-04T22:15:10Z</time></trkpt>
<trkpt lat="25.505401" lon="99.674979">
<time>2014-08-04T22:15:11Z</time></trkpt>
<trkpt lat="25.505241" lon="99.674879">
<time>2014-08-04T22:15:12Z</time></trkpt>
<trkpt lat="25.505131" lon="99.674809">
<time>2014-08-04T22:15:13Z</time></trkpt>
<trkpt lat="25.505011" lon="99.674739">
<time>2014-08-04T22:15:14Z</time></trkpt>
<trkpt lat="25.504882" lon="99.67467">
<time>2014-08-04T22:15:15Z</time></trkpt>
<trkpt lat="25.504812" lon="99.67464">
<time>2014-08-04T22:15:16Z</time></trkpt>
<trkpt lat="25.504752" lon="99.67462">
<time>2014-08-04T22:15:17Z</time></trkpt>
<trkpt lat="25.504692" lon="99.67461">
<time>2014-08-04T22:15:18Z</time></trkpt>
<trkpt lat="25.504632" lon="99.6746">
<time>2014-08-04T22:15:19Z</time></trkpt>
<trkpt lat="25.504592" lon="99.6746">
<time>2014-08-04T22:15:20Z</time></trkpt>
<trkpt lat="25.504562" lon="99.6746">
<time>2014-08-04T22:15:21Z</time></trkpt>
<trkpt lat="25.504512" lon="99.67461">
<time>2014-08-04T22:15:22Z</time></trkpt>
<trkpt lat="25.504371" lon="99.67465">
<time>2014-08-04T22:15:23Z</time></trkpt>
<trkpt lat="25.504201" lon="99.67471">
<time>2014-08-04T22:15:24Z</time></trkpt>
<trkpt lat="25.504031" lon="99.674779">
<time>2014-08-04T22:15:25Z</time></trkpt>
<trkpt lat="25.503881" lon="99.674829">
<time>2014-08-04T22:15:26Z</time></trkpt>
<trkpt lat="25.503781" lon="99.674849">
<time>2014-08-04T22:15:27Z</time></trkpt>
<trkpt lat="25.503681" lon="99.674879">
<time>2014-08-04T22:15:28Z</time></trkpt>
<trkpt lat="25.50319" lon="99.674969">
<time>2014-08-04T22:15:29Z</time></trkpt>
<trkpt lat="25.50306" lon="99.674999">
<time>2014-08-04T22:15:30Z</time></trkpt>
<trkpt lat="25.50299" lon="99.675009">
<time>2014-08-04T22:15:31Z</time></trkpt>
<trkpt lat="25.50296" lon="99.675009">
<time>2014-08-04T22:15:32Z</time></trkpt>
<trkpt lat="25.50294" lon="99.675009">
<time>2014-08-04T22:15:33Z</time></trkpt>
<trkpt lat="25.50292" lon="99.675009">
<time>2014-08-04T22:15:34Z</time></trkpt>
<trkpt lat="25.5029" lon="99.674999">
<time>2014-08-04T22:15:35Z</time></trkpt>
<trkpt lat="25.50288" lon="99.674999">
<time>2014-08-04T22:15:36Z</time></trkpt>
<trkpt lat="25.50286" lon="99.674989">
<time>2014-08-04T22:15:37Z</time></trkpt>
<trkpt lat="25.50285" lon="99.674989">
<time>2014-08-04T22:15:38Z</time></trkpt>
<trkpt lat="25.50282" lon="99.674979">
<time>2014-08-04T22:15:39Z</time></trkpt>
<trkpt lat="25.50281" lon="99.674969">
<time>2014-08-04T22:15:40Z</time></trkpt>
<trkpt lat="25.5028" lon="99.674959">
<time>2014-08-04T22:15:41Z</time></trkpt>
<trkpt lat="25.50279" lon="99.674949">
<time>2014-08-04T22:15:42Z</time></trkpt>
<trkpt lat="25.50277" lon="99.674939">
<time>2014-08-04T22:15:43Z</time></trkpt>
<trkpt lat="25.50276" lon="99.674919">
<time>2014-08-04T22:15:44Z</time></trkpt>
<trkpt lat="25.50274" lon="99.674899">
<time>2014-08-04T22:15:45Z</time></trkpt>
<trkpt lat="25.50273" lon="99.674879">
<time>2014-08-04T22:15:46Z</time></trkpt>
<trkpt lat="25.50272" lon="99.674839">
<time>2014-08-04T22:15:47Z</time></trkpt>
<trkpt lat="25.502711" lon="99.674809">
<time>2014-08-04T22:15:48Z</time></trkpt>
<trkpt lat="25.502711" lon="99.674789">
<time>2014-08-04T22:15:49Z</time></trkpt>
<trkpt lat="25.502701" lon="99.674759">
<time>2014-08-04T22:15:50Z</time></trkpt>
<trkpt lat="25.502711" lon="99.67473">
<time>2014-08-04T22:15:51Z</time></trkpt>
<trkpt lat="25.502711" lon="99.67471">
<time>2014-08-04T22:15:52Z</time></trkpt>
<trkpt lat="25.502721" lon="99.67468">
<time>2014-08-04T22:15:53Z</time></trkpt>
<trkpt lat="25.502731" lon="99.67466">
<time>2014-08-04T22:15:54Z</time></trkpt>
<trkpt lat="25.502751" lon="99.67463">
<time>2014-08-04T22:15:55Z</time></trkpt>
<trkpt lat="25.502761" lon="99.67461">
<time>2014-08-04T22:15:56Z</time></trkpt>
<trkpt lat="25.502791" lon="99.67459">
<time>2014-08-04T22:15:57Z</time></trkpt>
<trkpt lat="25.502811" lon="99.67457">
<time>2014-08-04T22:15:58Z</time></trkpt>
<trkpt lat="25.502841" lon="99.67455">
<time>2014-08-04T22:15:59Z</time></trkpt>
<trkpt lat="25.502901" lon="99.67452">
<time>2014-08-04T22:16:00Z</time></trkpt>
<trkpt lat="25.502951" lon="99.6745">
<time>2014-08-04T22:16:01Z</time></trkpt>
<trkpt lat="25.503101" lon="99.67444">
<time>2014-08-04T22:16:02Z</time></trkpt>
<trkpt lat="25.503252" lon="99.67438">
<time>2014-08-04T22:16:03Z</time></trkpt>
<trkpt lat="25.503402" lon="99.67432">
<time>2014-08-04T22:16:04Z</time></trkpt>
<trkpt lat="25.503672" lon="99.674221">
<time>2014-08-04T22:16:05Z</time></trkpt>
<trkpt lat="25.503932" lon="99.674081">
<time>2014-08-04T22:16:06Z</time></trkpt>
<trkpt lat="25.503992" lon="99.674041">
<time>2014-08-04T22:16:07Z</time></trkpt>
<trkpt lat="25.504043" lon="99.673991">
<time>2014-08-04T22:16:08Z</time></trkpt>
<trkpt lat="25.504123" lon="99.673911">
<time>2014-08-04T22:16:09Z</time></trkpt>
<trkpt lat="25.504223" lon="99.673792">
<time>2014-08-04T22:16:10Z</time></trkpt>
<trkpt lat="25.504303" lon="99.673702">
<time>2014-08-04T22:16:11Z</time></trkpt>
<trkpt lat="25.504383" lon="99.673622">
<time>2014-08-04T22:16:12Z</time></trkpt>
<trkpt lat="25.504484" lon="99.673542">
<time>2014-08-04T22:16:13Z</time></trkpt>
<trkpt lat="25.504584" lon="99.673482">
<time>2014-08-04T22:16:14Z</time></trkpt>
<trkpt lat="25.504694" lon="99.673422">
<time>2014-08-04T22:16:15Z</time></trkpt>
<trkpt lat="25.504744" lon="99.673383">
<time>2014-08-04T22:16:16Z</time></trkpt>
<trkpt lat="25.504784" lon="99.673343">
<time>2014-08-04T22:16:17Z</time></trkpt>
<trkpt lat="25.504814" lon="99.673293">
<time>2014-08-04T22:16:18Z</time></trkpt>
<trkpt lat="25.504844" lon="99.673243">
<time>2014-08-04T22:16:19Z</time></trkpt>
<trkpt lat="25.504864" lon="99.673203">
<time>2014-08-04T22:16:20Z</time></trkpt>
<trkpt lat="25.504874" lon="99.673153">
<time>2014-08-04T22:16:21Z</time></trkpt>
<trkpt lat="25.504885" lon="99.673103">
<time>2014-08-04T22:16:22Z</time></trkpt>
<trkpt lat="25.504885" lon="99.673053">
<time>2014-08-04T22:16:23Z</time></trkpt>
<trkpt lat="25.504885" lon="99.673003">
<time>2014-08-04T22:16:24Z</time></trkpt>
<trkpt lat="25.504865" lon="99.672944">
<time>2014-08-04T22:16:25Z</time></trkpt>
<trkpt lat="25.504855" lon="99.672894">
<time>2014-08-04T22:16:26Z</time></trkpt>
<trkpt lat="25.504835" lon="99.672844">
<time>2014-08-04T22:16:27Z</time></trkpt>
<trkpt lat="25.504775" lon="99.672744">
<time>2014-08-04T22:16:28Z</time></trkpt>
<trkpt lat="25.504705" lon="99.672644">
<time>2014-08-04T22:16:29Z</time></trkpt>
<trkpt lat="25.504635" lon="99.672554">
<time>2014-08-04T22:16:30Z</time></trkpt>
<trkpt lat="25.504596" lon="99.672505">
<time>2014-08-04T22:16:31Z</time></trkpt>
<trkpt lat="25.504556" lon="99.672485">
<time>2014-08-04T22:16:32Z</time></trkpt>
<trkpt lat="25.504506" lon="99.672455">
<time>2014-08-04T22:16:33Z</time></trkpt>
<trkpt lat="25.504466" lon="99.672435">
<time>2014-08-04T22:16:34Z</time></trkpt>
<trkpt lat="25.504446" lon="99.672425">
<time>2014-08-04T22:16:35Z</time></trkpt>
<trkpt lat="25.504416" lon="99.672425">
<time>2014-08-04T22:16:36Z</time></trkpt>
<trkpt lat="25.504366" lon="99.672415">
<time>2014-08-04T22:16:37Z</time></trkpt>
<trkpt lat="25.504276" lon="99.672425">
<time>2014-08-04T22:16:38Z</time></trkpt>
<trkpt lat="25.504186" lon="99.672445">
<time>2014-08-04T22:16:39Z</time></trkpt>
<trkpt lat="25.504105" lon="99.672465">
<time>2014-08-04T22:16:40Z</time></trkpt>
<trkpt lat="25.504035" lon="99.672475">
<time>2014-08-04T22:16:41Z</time></trkpt>
<trkpt lat="25.503945" lon="99.672475">
<time>2014-08-04T22:16:42Z</time></trkpt>
<trkpt lat="25.503845" lon="99.672455">
<time>2014-08-04T22:16:43Z</time></trkpt>
<trkpt lat="25.503735" lon="99.672425">
<time>2014-08-04T22:16:44Z</time></trkpt>
<trkpt lat="25.503326" lon="99.672285">
<time>2014-08-04T22:16:45Z</time></trkpt>
<trkpt lat="25.503226" lon="99.672255">
<time>2014-08-04T22:16:46Z</time></trkpt>
<trkpt lat="25.503126" lon="99.672225">
<time>2014-08-04T22:16:47Z</time></trkpt>
<trkpt lat="25.502906" lon="99.672175">
<time>2014-08-04T22:16:48Z</time></trkpt>
<trkpt lat="25.502606" lon="99.672135">
<time>2014-08-04T22:16:49Z</time></trkpt>
<trkpt lat="25.502406" lon="99.672106">
<time>2014-08-04T22:16:50Z</time></trkpt>
<trkpt lat="25.501816" lon="99.672046">
<time>2014-08-04T22:16:51Z</time></trkpt>
<trkpt lat="25.501756" lon="99.672036">
<time>2014-08-04T22:16:52Z</time></trkpt>
<trkpt lat="25.501706" lon="99.672026">
<time>2014-08-04T22:16:53Z</time></trkpt>
<trkpt lat="25.501656" lon="99.672016">
<time>2014-08-04T22:16:54Z</time></trkpt>
<trkpt lat="25.501626" lon="99.671996">
<time>2014-08-04T22:16:55Z</time></trkpt>
<trkpt lat="25.501586" lon="99.671976">
<time>2014-08-04T22:16:56Z</time></trkpt>
<trkpt lat="25.501556" lon="99.671956">
<time>2014-08-04T22:16:57Z</time></trkpt>
<trkpt lat="25.501536" lon="99.671926">
<time>2014-08-04T22:16:58Z</time></trkpt>
<trkpt lat="25.501516" lon="99.671896">
<time>2014-08-04T22:16:59Z</time></trkpt>
<trkpt lat="25.501506" lon="99.671856">
<time>2014-08-04T22:17:00Z</time></trkpt>
<trkpt lat="25.501496" lon="99.671816">
<time>2014-08-04T22:17:01Z</time></trkpt>
<trkpt lat="25.501496" lon="99.671776">
<time>2014-08-04T22:17:02Z</time></trkpt>
<trkpt lat="25.501506" lon="99.671736">
<time>2014-08-04T22:17:03Z</time></trkpt>
<trkpt lat="25.501516" lon="99.671697">
<time>2014-08-04T22:17:04Z</time></trkpt>
<trkpt lat="25.501536" lon="99.671657">
<time>2014-08-04T22:17:05Z</time></trkpt>
<trkpt lat="25.501556" lon="99.671617">
<time>2014-08-04T22:17:06Z</time></trkpt>
<trkpt lat="25.501586" lon="99.671587">
<time>2014-08-04T22:17:07Z</time></trkpt>
<trkpt lat="25.501616" lon="99.671557">
<time>2014-08-04T22:17:08Z</time></trkpt>
<trkpt lat="25.501656" lon="99.671537">
<time>2014-08-04T22:17:09Z</time></trkpt>
<trkpt lat="25.501707" lon="99.671527">
<time>2014-08-04T22:17:10Z</time></trkpt>
<trkpt lat="25.501747" lon="99.671507">
<time>2014-08-04T22:17:11Z</time></trkpt>
<trkpt lat="25.501817" lon="99.671497">
<time>2014-08-04T22:17:12Z</time></trkpt>
<trkpt lat="25.501877" lon="99.671497">
<time>2014-08-04T22:17:13Z</time></trkpt>
<trkpt lat="25.502017" lon="99.671467">
<time>2014-08-04T22:17:14Z</time></trkpt>
<trkpt lat="25.502127" lon="99.671437">
<time>2014-08-04T22:17:15Z</time></trkpt>
<trkpt lat="25.502197" lon="99.671417">
<time>2014-08-04T22:17:16Z</time></trkpt>
<trkpt lat="25.502387" lon="99.671347">
<time>2014-08-04T22:17:17Z</time></trkpt>
<trkpt lat="25.502567" lon="99.671258">
<time>2014-08-04T22:17:18Z</time></trkpt>
<trkpt lat="25.502687" lon="99.671198">
<time>2014-08-04T22:17:19Z</time></trkpt>
<trkpt lat="25.502798" lon="99.671168">
<time>2014-08-04T22:17:20Z</time></trkpt>
<trkpt lat="25.502868" lon="99.671138">
<time>2014-08-04T22:17:21Z</time></trkpt>
<trkpt lat="25.502918" lon="99.671118">
<time>2014-08-04T22:17:22Z</time></trkpt>
<trkpt lat="25.502948" lon="99.671108">
<time>2014-08-04T22:17:23Z</time></trkpt>
<trkpt lat="25.502978" lon="99.671088">
<time>2014-08-04T22:17:24Z</time></trkpt>
<trkpt lat="25.503008" lon="99.671078">
<time>2014-08-04T22:17:25Z</time></trkpt>
<trkpt lat="25.503028" lon="99.671048">
<time>2014-08-04T22:17:26Z</time></trkpt>
<trkpt lat="25.503048" lon="99.671018">
<time>2014-08-04T22:17:27Z</time></trkpt>
<trkpt lat="25.503068" lon="99.670988">
<time>2014-08-04T22:17:28Z</time></trkpt>
<trkpt lat="25.503078" lon="99.670958">
<time>2014-08-04T22:17:29Z</time></trkpt>
<trkpt lat="25.503088" lon="99.670928">
<time>2014-08-04T22:17:30Z</time></trkpt>
<trkpt lat="25.503088" lon="99.670898">
<time>2014-08-04T22:17:31Z</time></trkpt>
<trkpt lat="25.503088" lon="99.670858">
<time>2014-08-04T22:17:32Z</time></trkpt>
<trkpt lat="25.503078" lon="99.670828">
<time>2014-08-04T22:17:33Z</time></trkpt>
<trkpt lat="25.503068" lon="99.670789">
<time>2014-08-04T22:17:34Z</time></trkpt>
<trkpt lat="25.503048" lon="99.670749">
<time>2014-08-04T22:17:35Z</time></trkpt>
<trkpt lat="25.503028" lon="99.670719">
<time>2014-08-04T22:17:36Z</time></trkpt>
<trkpt lat="25.502999" lon="99.670679">
<time>2014-08-04T22:17:37Z</time></trkpt>
<trkpt lat="25.502789" lon="99.670429">
<time>2014-08-04T22:17:38Z</time></trkpt>
<trkpt lat="25.502639" lon="99.67024">
<time>2014-08-04T22:17:39Z</time></trkpt>
<trkpt lat="25.502519" lon="99.6701">
<time>2014-08-04T22:17:40Z</time></trkpt>
<trkpt lat="25.50245" lon="99.67002">
<time>2014-08-04T22:17:41Z</time></trkpt>
<trkpt lat="25.5024" lon="99.66999">
<time>2014-08-04T22:17:42Z</time></trkpt>
<trkpt lat="25.50237" lon="99.669961">
<time>2014-08-04T22:17:43Z</time></trkpt>
<trkpt lat="25.50235" lon="99.669951">
<time>2014-08-04T22:17:44Z</time></trkpt>
<trkpt lat="25.50232" lon="99.669931">
<time>2014-08-04T22:17:45Z</time></trkpt>
<trkpt lat="25.50229" lon="99.669921">
<time>2014-08-04T22:17:46Z</time></trkpt>
<trkpt lat="25.50227" lon="99.669911">
<time>2014-08-04T22:17:47Z</time></trkpt>
<trkpt lat="25.50225" lon="99.669901">
<time>2014-08-04T22:17:48Z</time></trkpt>
<trkpt lat="25.50223" lon="99.669901">
<time>2014-08-04T22:17:49Z</time></trkpt>
<trkpt lat="25.50222" lon="99.669891">
<time>2014-08-04T22:17:50Z</time></trkpt>
<trkpt lat="25.50221" lon="99.669891">
<time>2014-08-04T22:17:51Z</time></trkpt>
<trkpt lat="25.50219" lon="99.669891">
<time>2014-08-04T22:17:52Z</time></trkpt>
<trkpt lat="25.50218" lon="99.669891">
<time>2014-08-04T22:17:53Z</time></trkpt>
<trkpt lat="25.50215" lon="99.669891">
<time>2014-08-04T22:17:54Z</time></trkpt>
<trkpt lat="25.50208" lon="99.669901">
<time>2014-08-04T22:17:55Z</time></trkpt>
<trkpt lat="25.50206" lon="99.669901">
<time>2014-08-04T22:17:56Z</time></trkpt>
<trkpt lat="25.50202" lon="99.669911">
<time>2014-08-04T22:17:57Z</time></trkpt>
<trkpt lat="25.50192" lon="99.669941">
<time>2014-08-04T22:17:58Z</time></trkpt>
<trkpt lat="25.501809" lon="99.66998">
<time>2014-08-04T22:17:59Z</time></trkpt>
<trkpt lat="25.501759" lon="99.66999">
<time>2014-08-04T22:18:00Z</time></trkpt>
<trkpt lat="25.501719" lon="99.66999">
<time>2014-08-04T22:18:01Z</time></trkpt>
<trkpt lat="25.501689" lon="99.67">
<time>2014-08-04T22:18:02Z</time></trkpt>
<trkpt lat="25.501649" lon="99.67">
<time>2014-08-04T22:18:03Z</time></trkpt>
<trkpt lat="25.501619" lon="99.67">
<time>2014-08-04T22:18:04Z</time></trkpt>
<trkpt lat="25.501599" lon="99.67">
<time>2014-08-04T22:18:05Z</time></trkpt>
<trkpt lat="25.501569" lon="99.66999">
<time>2014-08-04T22:18:06Z</time></trkpt>
<trkpt lat="25.501529" lon="99.66998">
<time>2014-08-04T22:18:07Z</time></trkpt>
<trkpt lat="25.501489" lon="99.669961">
<time>2014-08-04T22:18:08Z</time></trkpt>
<trkpt lat="25.501469" lon="99.669941">
<time>2014-08-04T22:18:09Z</time></trkpt>
<trkpt lat="25.50144" lon="99.669911">
<time>2014-08-04T22:18:10Z</time></trkpt>
<trkpt lat="25.50142" lon="99.669881">
<time>2014-08-04T22:18:11Z</time></trkpt>
<trkpt lat="25.5014" lon="99.669841">
<time>2014-08-04T22:18:12Z</time></trkpt>
<trkpt lat="25.50139" lon="99.669801">
<time>2014-08-04T22:18:13Z</time></trkpt>
<trkpt lat="25.50138" lon="99.669761">
<time>2014-08-04T22:18:14Z</time></trkpt>
<trkpt lat="25.50138" lon="99.669711">
<time>2014-08-04T22:18:15Z</time></trkpt>
<trkpt lat="25.50138" lon="99.669611">
<time>2014-08-04T22:18:16Z</time></trkpt>
<trkpt lat="25.50139" lon="99.669502">
<time>2014-08-04T22:18:17Z</time></trkpt>
<trkpt lat="25.5014" lon="99.669392">
<time>2014-08-04T22:18:18Z</time></trkpt>
<trkpt lat="25.501401" lon="99.669282">
<time>2014-08-04T22:18:19Z</time></trkpt>
<trkpt lat="25.501411" lon="99.669232">
<time>2014-08-04T22:18:20Z</time></trkpt>
<trkpt lat="25.501401" lon="99.669182">
<time>2014-08-04T22:18:21Z</time></trkpt>
<trkpt lat="25.501401" lon="99.669142">
<time>2014-08-04T22:18:22Z</time></trkpt>
<trkpt lat="25.501401" lon="99.669113">
<time>2014-08-04T22:18:23Z</time></trkpt>
<trkpt lat="25.501391" lon="99.669073">
<time>2014-08-04T22:18:24Z</time></trkpt>
<trkpt lat="25.501391" lon="99.669043">
<time>2014-08-04T22:18:25Z</time></trkpt>
<trkpt lat="25.501381" lon="99.669013">
<time>2014-08-04T22:18:26Z</time></trkpt>
<trkpt lat="25.501371" lon="99.668983">
<time>2014-08-04T22:18:27Z</time></trkpt>
<trkpt lat="25.501351" lon="99.668953">
<time>2014-08-04T22:18:28Z</time></trkpt>
<trkpt lat="25.501341" lon="99.668923">
<time>2014-08-04T22:18:29Z</time></trkpt>
<trkpt lat="25.501321" lon="99.668903">
<time>2014-08-04T22:18:30Z</time></trkpt>
<trkpt lat="25.501301" lon="99.668873">
<time>2014-08-04T22:18:31Z</time></trkpt>
<trkpt lat="25.501281" lon="99.668863">
<time>2014-08-04T22:18:32Z</time></trkpt>
<trkpt lat="25.501251" lon="99.668843">
<time>2014-08-04T22:18:33Z</time></trkpt>
<trkpt lat="25.501212" lon="99.668803">
<time>2014-08-04T22:18:34Z</time></trkpt>
<trkpt lat="25.501172" lon="99.668783">
<time>2014-08-04T22:18:35Z</time></trkpt>
<trkpt lat="25.501142" lon="99.668773">
<time>2014-08-04T22:18:36Z</time></trkpt>
<trkpt lat="25.501122" lon="99.668763">
<time>2014-08-04T22:18:37Z</time></trkpt>
<trkpt lat="25.501082" lon="99.668753">
<time>2014-08-04T22:18:38Z</time></trkpt>
<trkpt lat="25.501032" lon="99.668743">
<time>2014-08-04T22:18:39Z</time></trkpt>
<trkpt lat="25.500972" lon="99.668723">
<time>2014-08-04T22:18:40Z</time></trkpt>
<trkpt lat="25.500762" lon="99.668693">
<time>2014-08-04T22:18:41Z</time></trkpt>
<trkpt lat="25.500652" lon="99.668674">
<time>2014-08-04T22:18:42Z</time></trkpt>
<trkpt lat="25.500542" lon="99.668644">
<time>2014-08-04T22:18:43Z</time></trkpt>
<trkpt lat="25.500492" lon="99.668624">
<time>2014-08-04T22:18:44Z</time></trkpt>
<trkpt lat="25.500452" lon="99.668594">
<time>2014-08-04T22:18:45Z</time></trkpt>
<trkpt lat="25.500402" lon="99.668574">
<time>2014-08-04T22:18:46Z</time></trkpt>
<trkpt lat="25.500382" lon="99.668554">
<time>2014-08-04T22:18:47Z</time></trkpt>
<trkpt lat="25.500332" lon="99.668514">
<time>2014-08-04T22:18:48Z</time></trkpt>
<trkpt lat="25.500302" lon="99.668464">
<time>2014-08-04T22:18:49Z</time></trkpt>
<trkpt lat="25.500252" lon="99.668364">
<time>2014-08-04T22:18:50Z</time></trkpt>
<trkpt lat="25.500202" lon="99.668274">
<time>2014-08-04T22:18:51Z</time></trkpt>
<trkpt lat="25.500162" lon="99.668165">
<time>2014-08-04T22:18:52Z</time></trkpt>
<trkpt lat="25.500123" lon="99.668065">
<time>2014-08-04T22:18:53Z</time></trkpt>
<trkpt lat="25.500073" lon="99.667985">
<time>2014-08-04T22:18:54Z</time></trkpt>
<trkpt lat="25.500013" lon="99.667895">
<time>2014-08-04T22:18:55Z</time></trkpt>
<trkpt lat="25.499983" lon="99.667845">
<time>2014-08-04T22:18:56Z</time></trkpt>
<trkpt lat="25.499943" lon="99.667816">
<time>2014-08-04T22:18:57Z</time></trkpt>
<trkpt lat="25.499913" lon="99.667796">
<time>2014-08-04T22:18:58Z</time></trkpt>
<trkpt lat="25.499873" lon="99.667786">
<time>2014-08-04T22:18:59Z</time></trkpt>
<trkpt lat="25.499833" lon="99.667776">
<time>2014-08-04T22:19:00Z</time></trkpt>
<trkpt lat="25.499773" lon="99.667776">
<time>2014-08-04T22:19:01Z</time></trkpt>
<trkpt lat="25.499723" lon="99.667776">
<time>2014-08-04T22:19:02Z</time></trkpt>
<trkpt lat="25.499683" lon="99.667786">
<time>2014-08-04T22:19:03Z</time></trkpt>
<trkpt lat="25.499613" lon="99.667816">
<time>2014-08-04T22:19:04Z</time></trkpt>
<trkpt lat="25.499573" lon="99.667845">
<time>2014-08-04T22:19:05Z</time></trkpt>
<trkpt lat="25.499483" lon="99.667915">
<time>2014-08-04T22:19:06Z</time></trkpt>
<trkpt lat="25.499122" lon="99.668265">
<time>2014-08-04T22:19:07Z</time></trkpt>
<trkpt lat="25.499072" lon="99.668304">
<time>2014-08-04T22:19:08Z</time></trkpt>
<trkpt lat="25.499052" lon="99.668314">
<time>2014-08-04T22:19:09Z</time></trkpt>
<trkpt lat="25.499012" lon="99.668324">
<time>2014-08-04T22:19:10Z</time></trkpt>
<trkpt lat="25.498982" lon="99.668324">
<time>2014-08-04T22:19:11Z</time></trkpt>
<trkpt lat="25.498932" lon="99.668324">
<time>2014-08-04T22:19:12Z</time></trkpt>
<trkpt lat="25.498902" lon="99.668324">
<time>2014-08-04T22:19:13Z</time></trkpt>
<trkpt lat="25.498852" lon="99.668304">
<time>2014-08-04T22:19:14Z</time></trkpt>
<trkpt lat="25.498812" lon="99.668284">
<time>2014-08-04T22:19:15Z</time></trkpt>
<trkpt lat="25.498782" lon="99.668235">
<time>2014-08-04T22:19:16Z</time></trkpt>
<trkpt lat="25.498762" lon="99.668195">
<time>2014-08-04T22:19:17Z</time></trkpt>
<trkpt lat="25.498762" lon="99.668165">
<time>2014-08-04T22:19:18Z</time></trkpt>
<trkpt lat="25.498762" lon="99.668125">
<time>2014-08-04T22:19:19Z</time></trkpt>
<trkpt lat="25.498762" lon="99.668025">
<time>2014-08-04T22:19:20Z</time></trkpt>
<trkpt lat="25.498762" lon="99.667915">
<time>2014-08-04T22:19:21Z</time></trkpt>
<trkpt lat="25.498783" lon="99.667736">
<time>2014-08-04T22:19:22Z</time></trkpt>
<trkpt lat="25.498904" lon="99.667377">
<time>2014-08-04T22:19:23Z</time></trkpt>
<trkpt lat="25.498954" lon="99.667167">
<time>2014-08-04T22:19:24Z</time></trkpt>
<trkpt lat="25.498994" lon="99.666948">
<time>2014-08-04T22:19:25Z</time></trkpt>
<trkpt lat="25.499025" lon="99.666459">
<time>2014-08-04T22:19:26Z</time></trkpt>
<trkpt lat="25.499086" lon="99.666229">
<time>2014-08-04T22:19:27Z</time></trkpt>
<trkpt lat="25.499166" lon="99.66605">
<time>2014-08-04T22:19:28Z</time></trkpt>
<trkpt lat="25.499226" lon="99.6659">
<time>2014-08-04T22:19:29Z</time></trkpt>
<trkpt lat="25.499247" lon="99.66579">
<time>2014-08-04T22:19:30Z</time></trkpt>
<trkpt lat="25.499247" lon="99.66568">
<time>2014-08-04T22:19:31Z</time></trkpt>
<trkpt lat="25.499217" lon="99.665611">
<time>2014-08-04T22:19:32Z</time></trkpt>
<trkpt lat="25.499167" lon="99.665551">
<time>2014-08-04T22:19:33Z</time></trkpt>
<trkpt lat="25.499107" lon="99.665481">
<time>2014-08-04T22:19:34Z</time></trkpt>
<trkpt lat="25.499037" lon="99.665441">
<time>2014-08-04T22:19:35Z</time></trkpt>
<trkpt lat="25.498967" lon="99.665411">
<time>2014-08-04T22:19:36Z</time></trkpt>
<trkpt lat="25.498897" lon="99.665391">
<time>2014-08-04T22:19:37Z</time></trkpt>
<trkpt lat="25.498817" lon="99.665381">
<time>2014-08-04T22:19:38Z</time></trkpt>
<trkpt lat="25.498747" lon="99.665391">
<time>2014-08-04T22:19:39Z</time></trkpt>
<trkpt lat="25.498637" lon="99.665411">
<time>2014-08-04T22:19:40Z</time></trkpt>
<trkpt lat="25.498377" lon="99.665521">
<time>2014-08-04T22:19:41Z</time></trkpt>
<trkpt lat="25.498147" lon="99.665641">
<time>2014-08-04T22:19:42Z</time></trkpt>
<trkpt lat="25.498016" lon="99.66575">
<time>2014-08-04T22:19:43Z</time></trkpt>
<trkpt lat="25.497926" lon="99.66586">
<time>2014-08-04T22:19:44Z</time></trkpt>
<trkpt lat="25.497846" lon="99.666">
<time>2014-08-04T22:19:45Z</time></trkpt>
<trkpt lat="25.497776" lon="99.66609">
<time>2014-08-04T22:19:46Z</time></trkpt>
<trkpt lat="25.497645" lon="99.666229">
<time>2014-08-04T22:19:47Z</time></trkpt>
<trkpt lat="25.497054" lon="99.666648">
<time>2014-08-04T22:19:48Z</time></trkpt>
<trkpt lat="25.496894" lon="99.666748">
<time>2014-08-04T22:19:49Z</time></trkpt>
<trkpt lat="25.496834" lon="99.666788">
<time>2014-08-04T22:19:50Z</time></trkpt>
<trkpt lat="25.496784" lon="99.666808">
<time>2014-08-04T22:19:51Z</time></trkpt>
<trkpt lat="25.496714" lon="99.666818">
<time>2014-08-04T22:19:52Z</time></trkpt>
<trkpt lat="25.496654" lon="99.666828">
<time>2014-08-04T22:19:53Z</time></trkpt>
<trkpt lat="25.496584" lon="99.666818">
<time>2014-08-04T22:19:54Z</time></trkpt>
<trkpt lat="25.496544" lon="99.666798">
<time>2014-08-04T22:19:55Z</time></trkpt>
<trkpt lat="25.496514" lon="99.666778">
<time>2014-08-04T22:19:56Z</time></trkpt>
<trkpt lat="25.496474" lon="99.666738">
<time>2014-08-04T22:19:57Z</time></trkpt>
<trkpt lat="25.496454" lon="99.666688">
<time>2014-08-04T22:19:58Z</time></trkpt>
<trkpt lat="25.496424" lon="99.666608">
<time>2014-08-04T22:19:59Z</time></trkpt>
<trkpt lat="25.496404" lon="99.666499">
<time>2014-08-04T22:20:00Z</time></trkpt>
<trkpt lat="25.496405" lon="99.666359">
<time>2014-08-04T22:20:01Z</time></trkpt>
<trkpt lat="25.496405" lon="99.666199">
<time>2014-08-04T22:20:02Z</time></trkpt>
<trkpt lat="25.496435" lon="99.66604">
<time>2014-08-04T22:20:03Z</time></trkpt>
<trkpt lat="25.496486" lon="99.6659">
<time>2014-08-04T22:20:04Z</time></trkpt>
<trkpt lat="25.496596" lon="99.665691">
<time>2014-08-04T22:20:05Z</time></trkpt>
<trkpt lat="25.496737" lon="99.665461">
<time>2014-08-04T22:20:06Z</time></trkpt>
<trkpt lat="25.496817" lon="99.665331">
<time>2014-08-04T22:20:07Z</time></trkpt>
<trkpt lat="25.496847" lon="99.665222">
<time>2014-08-04T22:20:08Z</time></trkpt>
<trkpt lat="25.496877" lon="99.665072">
<time>2014-08-04T22:20:09Z</time></trkpt>
<trkpt lat="25.496848" lon="99.664902">
<time>2014-08-04T22:20:10Z</time></trkpt>
<trkpt lat="25.496768" lon="99.664783">
<time>2014-08-04T22:20:11Z</time></trkpt>
<trkpt lat="25.496718" lon="99.664723">
<time>2014-08-04T22:20:12Z</time></trkpt>
<trkpt lat="25.496638" lon="99.664653">
<time>2014-08-04T22:20:13Z</time></trkpt>
<trkpt lat="25.496508" lon="99.664553">
<time>2014-08-04T22:20:14Z</time></trkpt>
<trkpt lat="25.496438" lon="99.664483">
<time>2014-08-04T22:20:15Z</time></trkpt>
<trkpt lat="25.496408" lon="99.664433">
<time>2014-08-04T22:20:16Z</time></trkpt>
<trkpt lat="25.496389" lon="99.664354">
<time>2014-08-04T22:20:17Z</time></trkpt>
<trkpt lat="25.496379" lon="99.664234">
<time>2014-08-04T22:20:18Z</time></trkpt>
<trkpt lat="25.496399" lon="99.664124">
<time>2014-08-04T22:20:19Z</time></trkpt>
<trkpt lat="25.496449" lon="99.664004">
<time>2014-08-04T22:20:20Z</time></trkpt>
<trkpt lat="25.496499" lon="99.663935">
<time>2014-08-04T22:20:21Z</time></trkpt>
<trkpt lat="25.4966" lon="99.663845">
<time>2014-08-04T22:20:22Z</time></trkpt>
<trkpt lat="25.49668" lon="99.663805">
<time>2014-08-04T22:20:23Z</time></trkpt>
<trkpt lat="25.4968" lon="99.663745">
<time>2014-08-04T22:20:24Z</time></trkpt>
<trkpt lat="25.49687" lon="99.663695">
<time>2014-08-04T22:20:25Z</time></trkpt>
<trkpt lat="25.49692" lon="99.663655">
<time>2014-08-04T22:20:26Z</time></trkpt>
<trkpt lat="25.49695" lon="99.663605">
<time>2014-08-04T22:20:27Z</time></trkpt>
<trkpt lat="25.49698" lon="99.663535">
<time>2014-08-04T22:20:28Z</time></trkpt>
<trkpt lat="25.49699" lon="99.663486">
<time>2014-08-04T22:20:29Z</time></trkpt>
<trkpt lat="25.49698" lon="99.663446">
<time>2014-08-04T22:20:30Z</time></trkpt>
<trkpt lat="25.496981" lon="99.663386">
<time>2014-08-04T22:20:31Z</time></trkpt>
<trkpt lat="25.496951" lon="99.663316">
<time>2014-08-04T22:20:32Z</time></trkpt>
<trkpt lat="25.496871" lon="99.663136">
<time>2014-08-04T22:20:33Z</time></trkpt>
<trkpt lat="25.496781" lon="99.662967">
<time>2014-08-04T22:20:34Z</time></trkpt>
<trkpt lat="25.496702" lon="99.662817">
<time>2014-08-04T22:20:35Z</time></trkpt>
<trkpt lat="25.496652" lon="99.662757">
<time>2014-08-04T22:20:36Z</time></trkpt>
<trkpt lat="25.496602" lon="99.662727">
<time>2014-08-04T22:20:37Z</time></trkpt>
<trkpt lat="25.496552" lon="99.662697">
<time>2014-08-04T22:20:38Z</time></trkpt>
<trkpt lat="25.496502" lon="99.662687">
<time>2014-08-04T22:20:39Z</time></trkpt>
<trkpt lat="25.496452" lon="99.662677">
<time>2014-08-04T22:20:40Z</time></trkpt>
<trkpt lat="25.496382" lon="99.662677">
<time>2014-08-04T22:20:41Z</time></trkpt>
<trkpt lat="25.496062" lon="99.662687">
<time>2014-08-04T22:20:42Z</time></trkpt>
<trkpt lat="25.495861" lon="99.662707">
<time>2014-08-04T22:20:43Z</time></trkpt>
<trkpt lat="25.495651" lon="99.662747">
<time>2014-08-04T22:20:44Z</time></trkpt>
<trkpt lat="25.495481" lon="99.662777">
<time>2014-08-04T22:20:45Z</time></trkpt>
<trkpt lat="25.495381" lon="99.662787">
<time>2014-08-04T22:20:46Z</time></trkpt>
<trkpt lat="25.495301" lon="99.662787">
<time>2014-08-04T22:20:47Z</time></trkpt>
<trkpt lat="25.495211" lon="99.662777">
<time>2014-08-04T22:20:48Z</time></trkpt>
<trkpt lat="25.495161" lon="99.662757">
<time>2014-08-04T22:20:49Z</time></trkpt>
<trkpt lat="25.495121" lon="99.662727">
<time>2014-08-04T22:20:50Z</time></trkpt>
<trkpt lat="25.495081" lon="99.662677">
<time>2014-08-04T22:20:51Z</time></trkpt>
<trkpt lat="25.495041" lon="99.662618">
<time>2014-08-04T22:20:52Z</time></trkpt>
<trkpt lat="25.495031" lon="99.662568">
<time>2014-08-04T22:20:53Z</time></trkpt>
<trkpt lat="25.495022" lon="99.662488">
<time>2014-08-04T22:20:54Z</time></trkpt>
<trkpt lat="25.495042" lon="99.662358">
<time>2014-08-04T22:20:55Z</time></trkpt>
<trkpt lat="25.495072" lon="99.662268">
<time>2014-08-04T22:20:56Z</time></trkpt>
<trkpt lat="25.495152" lon="99.662079">
<time>2014-08-04T22:20:57Z</time></trkpt>
<trkpt lat="25.495243" lon="99.661919">
<time>2014-08-04T22:20:58Z</time></trkpt>
<trkpt lat="25.495343" lon="99.661799">
<time>2014-08-04T22:20:59Z</time></trkpt>
<trkpt lat="25.495433" lon="99.66172">
<time>2014-08-04T22:21:00Z</time></trkpt>
<trkpt lat="25.495634" lon="99.66157">
<time>2014-08-04T22:21:01Z</time></trkpt>
<trkpt lat="25.495844" lon="99.66142">
<time>2014-08-04T22:21:02Z</time></trkpt>
<trkpt lat="25.495984" lon="99.661301">
<time>2014-08-04T22:21:03Z</time></trkpt>
<trkpt lat="25.496074" lon="99.661201">
<time>2014-08-04T22:21:04Z</time></trkpt>
<trkpt lat="25.496145" lon="99.661101">
<time>2014-08-04T22:21:05Z</time></trkpt>
<trkpt lat="25.496185" lon="99.661021">
<time>2014-08-04T22:21:06Z</time></trkpt>
<trkpt lat="25.496205" lon="99.660961">
<time>2014-08-04T22:21:07Z</time></trkpt>
<trkpt lat="25.496205" lon="99.660911">
<time>2014-08-04T22:21:08Z</time></trkpt>
<trkpt lat="25.496215" lon="99.660832">
<time>2014-08-04T22:21:09Z</time></trkpt>
<trkpt lat="25.496195" lon="99.660762">
<time>2014-08-04T22:21:10Z</time></trkpt>
<trkpt lat="25.496165" lon="99.660702">
<time>2014-08-04T22:21:11Z</time></trkpt>
<trkpt lat="25.496106" lon="99.660602">
<time>2014-08-04T22:21:12Z</time></trkpt>
<trkpt lat="25.496016" lon="99.660472">
<time>2014-08-04T22:21:13Z</time></trkpt>
<trkpt lat="25.495826" lon="99.660253">
<time>2014-08-04T22:21:14Z</time></trkpt>
<trkpt lat="25.495606" lon="99.660043">
<time>2014-08-04T22:21:15Z</time></trkpt>
<trkpt lat="25.495467" lon="99.659934">
<time>2014-08-04T22:21:16Z</time></trkpt>
<trkpt lat="25.495207" lon="99.659754">
<time>2014-08-04T22:21:17Z</time></trkpt>
<trkpt lat="25.494977" lon="99.659624">
<time>2014-08-04T22:21:18Z</time></trkpt>
<trkpt lat="25.494627" lon="99.659465">
<time>2014-08-04T22:21:19Z</time></trkpt>
<trkpt lat="25.493968" lon="99.659165">
<time>2014-08-04T22:21:20Z</time></trkpt>
<trkpt lat="25.493698" lon="99.659016">
<time>2014-08-04T22:21:21Z</time></trkpt>
<trkpt lat="25.493568" lon="99.658936">
<time>2014-08-04T22:21:22Z</time></trkpt>
<trkpt lat="25.493448" lon="99.658866">
<time>2014-08-04T22:21:23Z</time></trkpt>
<trkpt lat="25.493348" lon="99.658826">
<time>2014-08-04T22:21:24Z</time></trkpt>
<trkpt lat="25.493248" lon="99.658796">
<time>2014-08-04T22:21:25Z</time></trkpt>
<trkpt lat="25.493158" lon="99.658786">
<time>2014-08-04T22:21:26Z</time></trkpt>
<trkpt lat="25.493048" lon="99.658806">
<time>2014-08-04T22:21:27Z</time></trkpt>
<trkpt lat="25.492938" lon="99.658846">
<time>2014-08-04T22:21:28Z</time></trkpt>
<trkpt lat="25.492798" lon="99.658906">
<time>2014-08-04T22:21:29Z</time></trkpt>
<trkpt lat="25.492718" lon="99.658946">
<time>2014-08-04T22:21:30Z</time></trkpt>
<trkpt lat="25.492638" lon="99.658956">
<time>2014-08-04T22:21:31Z</time></trkpt>
<trkpt lat="25.492567" lon="99.658956">
<time>2014-08-04T22:21:32Z</time></trkpt>
<trkpt lat="25.492487" lon="99.658946">
<time>2014-08-04T22:21:33Z</time></trkpt>
<trkpt lat="25.492428" lon="99.658906">
<time>2014-08-04T22:21:34Z</time></trkpt>
<trkpt lat="25.492378" lon="99.658856">
<time>2014-08-04T22:21:35Z</time></trkpt>
<trkpt lat="25.492348" lon="99.658786">
<time>2014-08-04T22:21:36Z</time></trkpt>
<trkpt lat="25.492338" lon="99.658707">
<time>2014-08-04T22:21:37Z</time></trkpt>
<trkpt lat="25.492338" lon="99.658607">
<time>2014-08-04T22:21:38Z</time></trkpt>
<trkpt lat="25.492368" lon="99.658487">
<time>2014-08-04T22:21:39Z</time></trkpt>
<trkpt lat="25.492399" lon="99.658377">
<time>2014-08-04T22:21:40Z</time></trkpt>
<trkpt lat="25.492429" lon="99.658248">
<time>2014-08-04T22:21:41Z</time></trkpt>
<trkpt lat="25.492429" lon="99.658178">
<time>2014-08-04T22:21:42Z</time></trkpt>
<trkpt lat="25.492429" lon="99.658078">
<time>2014-08-04T22:21:43Z</time></trkpt>
<trkpt lat="25.492409" lon="99.657978">
<time>2014-08-04T22:21:44Z</time></trkpt>
<trkpt lat="25.492379" lon="99.657868">
<time>2014-08-04T22:21:45Z</time></trkpt>
<trkpt lat="25.49227" lon="99.657549">
<time>2014-08-04T22:21:46Z</time></trkpt>
<trkpt lat="25.49217" lon="99.65731">
<time>2014-08-04T22:21:47Z</time></trkpt>
<trkpt lat="25.492061" lon="99.65709">
<time>2014-08-04T22:21:48Z</time></trkpt>
<trkpt lat="25.491811" lon="99.656681">
<time>2014-08-04T22:21:49Z</time></trkpt>
<trkpt lat="25.491682" lon="99.656492">
<time>2014-08-04T22:21:50Z</time></trkpt>
<trkpt lat="25.491532" lon="99.656302">
<time>2014-08-04T22:21:51Z</time></trkpt>
<trkpt lat="25.491382" lon="99.656142">
<time>2014-08-04T22:21:52Z</time></trkpt>
<trkpt lat="25.491193" lon="99.656003">
<time>2014-08-04T22:21:53Z</time></trkpt>
<trkpt lat="25.491073" lon="99.655913">
<time>2014-08-04T22:21:54Z</time></trkpt>
<trkpt lat="25.491003" lon="99.655823">
<time>2014-08-04T22:21:55Z</time></trkpt>
<trkpt lat="25.490943" lon="99.655743">
<time>2014-08-04T22:21:56Z</time></trkpt>
<trkpt lat="25.490913" lon="99.655673">
<time>2014-08-04T22:21:57Z</time></trkpt>
<trkpt lat="25.490903" lon="99.655594">
<time>2014-08-04T22:21:58Z</time></trkpt>
<trkpt lat="25.490913" lon="99.655534">
<time>2014-08-04T22:21:59Z</time></trkpt>
<trkpt lat="25.490933" lon="99.655474">
<time>2014-08-04T22:22:00Z</time></trkpt>
<trkpt lat="25.490974" lon="99.655414">
<time>2014-08-04T22:22:01Z</time></trkpt>
<trkpt lat="25.491034" lon="99.655374">
<time>2014-08-04T22:22:02Z</time></trkpt>
<trkpt lat="25.491094" lon="99.655354">
<time>2014-08-04T22:22:03Z</time></trkpt>
<trkpt lat="25.491154" lon="99.655344">
<time>2014-08-04T22:22:04Z</time></trkpt>
<trkpt lat="25.491234" lon="99.655374">
<time>2014-08-04T22:22:05Z</time></trkpt>
<trkpt lat="25.491513" lon="99.655554">
<time>2014-08-04T22:22:06Z</time></trkpt>
<trkpt lat="25.491853" lon="99.655753">
<time>2014-08-04T22:22:07Z</time></trkpt>
<trkpt lat="25.492293" lon="99.655983">
<time>2014-08-04T22:22:08Z</time></trkpt>
<trkpt lat="25.492523" lon="99.656142">
<time>2014-08-04T22:22:09Z</time></trkpt>
<trkpt lat="25.492702" lon="99.656292">
<time>2014-08-04T22:22:10Z</time></trkpt>
<trkpt lat="25.493092" lon="99.656631">
<time>2014-08-04T22:22:11Z</time></trkpt>
<trkpt lat="25.493292" lon="99.656771">
<time>2014-08-04T22:22:12Z</time></trkpt>
<trkpt lat="25.493392" lon="99.656831">
<time>2014-08-04T22:22:13Z</time></trkpt>
<trkpt lat="25.493502" lon="99.656861">
<time>2014-08-04T22:22:14Z</time></trkpt>
<trkpt lat="25.493622" lon="99.656861">
<time>2014-08-04T22:22:15Z</time></trkpt>
<trkpt lat="25.493752" lon="99.656841">
<time>2014-08-04T22:22:16Z</time></trkpt>
<trkpt lat="25.493852" lon="99.656811">
<time>2014-08-04T22:22:17Z</time></trkpt>
<trkpt lat="25.494032" lon="99.656761">
<time>2014-08-04T22:22:18Z</time></trkpt>
<trkpt lat="25.494102" lon="99.656751">
<time>2014-08-04T22:22:19Z</time></trkpt>
<trkpt lat="25.494192" lon="99.656761">
<time>2014-08-04T22:22:20Z</time></trkpt>
<trkpt lat="25.494272" lon="99.656771">
<time>2014-08-04T22:22:21Z</time></trkpt>
<trkpt lat="25.494382" lon="99.656801">
<time>2014-08-04T22:22:22Z</time></trkpt>
<trkpt lat="25.494512" lon="99.656841">
<time>2014-08-04T22:22:23Z</time></trkpt>
<trkpt lat="25.494612" lon="99.656871">
<time>2014-08-04T22:22:24Z</time></trkpt>
<trkpt lat="25.494692" lon="99.656881">
<time>2014-08-04T22:22:25Z</time></trkpt>
<trkpt lat="25.494782" lon="99.656891">
<time>2014-08-04T22:22:26Z</time></trkpt>
<trkpt lat="25.494892" lon="99.656881">
<time>2014-08-04T22:22:27Z</time></trkpt>
<trkpt lat="25.495022" lon="99.656841">
<time>2014-08-04T22:22:28Z</time></trkpt>
<trkpt lat="25.495112" lon="99.656801">
<time>2014-08-04T22:22:29Z</time></trkpt>
<trkpt lat="25.495192" lon="99.656741">
<time>2014-08-04T22:22:30Z</time></trkpt>
<trkpt lat="25.495233" lon="99.656681">
<time>2014-08-04T22:22:31Z</time></trkpt>
<trkpt lat="25.495253" lon="99.656611">
<time>2014-08-04T22:22:32Z</time></trkpt>
<trkpt lat="25.495263" lon="99.656491">
<time>2014-08-04T22:22:33Z</time></trkpt>
<trkpt lat="25.495294" lon="99.656132">
<time>2014-08-04T22:22:34Z</time></trkpt>
<trkpt lat="25.495314" lon="99.655813">
<time>2014-08-04T22:22:35Z</time></trkpt>
<trkpt lat="25.495345" lon="99.655574">
<time>2014-08-04T22:22:36Z</time></trkpt>
<trkpt lat="25.495355" lon="99.655394">
<time>2014-08-04T22:22:37Z</time></trkpt>
<trkpt lat="25.495355" lon="99.655254">
<time>2014-08-04T22:22:38Z</time></trkpt>
<trkpt lat="25.495355" lon="99.655125">
<time>2014-08-04T22:22:39Z</time></trkpt>
<trkpt lat="25.495326" lon="99.655025">
<time>2014-08-04T22:22:40Z</time></trkpt>
<trkpt lat="25.495286" lon="99.654915">
<time>2014-08-04T22:22:41Z</time></trkpt>
<trkpt lat="25.495236" lon="99.654835">
<time>2014-08-04T22:22:42Z</time></trkpt>
<trkpt lat="25.495166" lon="99.654755">
<time>2014-08-04T22:22:43Z</time></trkpt>
<trkpt lat="25.495056" lon="99.654656">
<time>2014-08-04T22:22:44Z</time></trkpt>
<trkpt lat="25.494926" lon="99.654576">
<time>2014-08-04T22:22:45Z</time></trkpt>
<trkpt lat="25.494826" lon="99.654506">
<time>2014-08-04T22:22:46Z</time></trkpt>
<trkpt lat="25.494776" lon="99.654436">
<time>2014-08-04T22:22:47Z</time></trkpt>
<trkpt lat="25.494757" lon="99.654376">
<time>2014-08-04T22:22:48Z</time></trkpt>
<trkpt lat="25.494737" lon="99.654286">
<time>2014-08-04T22:22:49Z</time></trkpt>
<trkpt lat="25.494737" lon="99.653997">
<time>2014-08-04T22:22:50Z</time></trkpt>
<trkpt lat="25.494737" lon="99.653887">
<time>2014-08-04T22:22:51Z</time></trkpt>
<trkpt lat="25.494728" lon="99.653797">
<time>2014-08-04T22:22:52Z</time></trkpt>
<trkpt lat="25.494698" lon="99.653708">
<time>2014-08-04T22:22:53Z</time></trkpt>
<trkpt lat="25.494648" lon="99.653648">
<time>2014-08-04T22:22:54Z</time></trkpt>
<trkpt lat="25.494318" lon="99.653329">
<time>2014-08-04T22:22:55Z</time></trkpt>
<trkpt lat="25.494248" lon="99.653209">
<time>2014-08-04T22:22:56Z</time></trkpt>
<trkpt lat="25.494239" lon="99.653119">
<time>2014-08-04T22:22:57Z</time></trkpt>
<trkpt lat="25.494259" lon="99.653009">
<time>2014-08-04T22:22:58Z</time></trkpt>
<trkpt lat="25.494359" lon="99.65272">
<time>2014-08-04T22:22:59Z</time></trkpt>
<trkpt lat="25.49437" lon="99.65264">
<time>2014-08-04T22:23:00Z</time></trkpt>
<trkpt lat="25.49436" lon="99.65256">
<time>2014-08-04T22:23:01Z</time></trkpt>
<trkpt lat="25.49433" lon="99.65251">
<time>2014-08-04T22:23:02Z</time></trkpt>
<trkpt lat="25.49429" lon="99.65246">
<time>2014-08-04T22:23:03Z</time></trkpt>
<trkpt lat="25.49421" lon="99.652391">
<time>2014-08-04T22:23:04Z</time></trkpt>
<trkpt lat="25.49408" lon="99.652291">
<time>2014-08-04T22:23:05Z</time></trkpt>
<trkpt lat="25.49383" lon="99.652081">
<time>2014-08-04T22:23:06Z</time></trkpt>
<trkpt lat="25.49377" lon="99.652001">
<time>2014-08-04T22:23:07Z</time></trkpt>
<trkpt lat="25.493741" lon="99.651922">
<time>2014-08-04T22:23:08Z</time></trkpt>
<trkpt lat="25.493721" lon="99.651822">
<time>2014-08-04T22:23:09Z</time></trkpt>
<trkpt lat="25.493711" lon="99.651702">
<time>2014-08-04T22:23:10Z</time></trkpt>
<trkpt lat="25.493721" lon="99.651522">
<time>2014-08-04T22:23:11Z</time></trkpt>
<trkpt lat="25.493742" lon="99.651353">
<time>2014-08-04T22:23:12Z</time></trkpt>
<trkpt lat="25.493762" lon="99.651213">
<time>2014-08-04T22:23:13Z</time></trkpt>
<trkpt lat="25.493772" lon="99.651093">
<time>2014-08-04T22:23:14Z</time></trkpt>
<trkpt lat="25.493772" lon="99.651014">
<time>2014-08-04T22:23:15Z</time></trkpt>
<trkpt lat="25.493762" lon="99.650934">
<time>2014-08-04T22:23:16Z</time></trkpt>
<trkpt lat="25.493732" lon="99.650874">
<time>2014-08-04T22:23:17Z</time></trkpt>
<trkpt lat="25.493703" lon="99.650814">
<time>2014-08-04T22:23:18Z</time></trkpt>
<trkpt lat="25.493653" lon="99.650774">
<time>2014-08-04T22:23:19Z</time></trkpt>
<trkpt lat="25.493593" lon="99.650734">
<time>2014-08-04T22:23:20Z</time></trkpt>
<trkpt lat="25.493553" lon="99.650714">
<time>2014-08-04T22:23:21Z</time></trkpt>
<trkpt lat="25.493513" lon="99.650704">
<time>2014-08-04T22:23:22Z</time></trkpt>
<trkpt lat="25.493483" lon="99.650704">
<time>2014-08-04T22:23:23Z</time></trkpt>
<trkpt lat="25.493423" lon="99.650704">
<time>2014-08-04T22:23:24Z</time></trkpt>
<trkpt lat="25.493263" lon="99.650714">
<time>2014-08-04T22:23:25Z</time></trkpt>
<trkpt lat="25.493193" lon="99.650724">
<time>2014-08-04T22:23:26Z</time></trkpt>
<trkpt lat="25.493123" lon="99.650724">
<time>2014-08-04T22:23:27Z</time></trkpt>
<trkpt lat="25.493063" lon="99.650714">
<time>2014-08-04T22:23:28Z</time></trkpt>
<trkpt lat="25.493003" lon="99.650684">
<time>2014-08-04T22:23:29Z</time></trkpt>
<trkpt lat="25.492933" lon="99.650644">
<time>2014-08-04T22:23:30Z</time></trkpt>
<trkpt lat="25.492643" lon="99.650405">
<time>2014-08-04T22:23:31Z</time></trkpt>
<trkpt lat="25.492583" lon="99.650355">
<time>2014-08-04T22:23:32Z</time></trkpt>
<trkpt lat="25.492443" lon="99.650275">
<time>2014-08-04T22:23:33Z</time></trkpt>
<trkpt lat="25.492233" lon="99.650185">
<time>2014-08-04T22:23:34Z</time></trkpt>
<trkpt lat="25.492013" lon="99.650116">
<time>2014-08-04T22:23:35Z</time></trkpt>
<trkpt lat="25.491903" lon="99.650076">
<time>2014-08-04T22:23:36Z</time></trkpt>
<trkpt lat="25.491703" lon="99.650046">
<time>2014-08-04T22:23:37Z</time></trkpt>
<trkpt lat="25.491533" lon="99.650036">
<time>2014-08-04T22:23:38Z</time></trkpt>
<trkpt lat="25.491453" lon="99.650026">
<time>2014-08-04T22:23:39Z</time></trkpt>
<trkpt lat="25.491333" lon="99.650006">
<time>2014-08-04T22:23:40Z</time></trkpt>
<trkpt lat="25.491283" lon="99.649986">
<time>2014-08-04T22:23:41Z</time></trkpt>
<trkpt lat="25.491233" lon="99.649956">
<time>2014-08-04T22:23:42Z</time></trkpt>
<trkpt lat="25.491183" lon="99.649896">
<time>2014-08-04T22:23:43Z</time></trkpt>
<trkpt lat="25.491153" lon="99.649836">
<time>2014-08-04T22:23:44Z</time></trkpt>
<trkpt lat="25.491144" lon="99.649786">
<time>2014-08-04T22:23:45Z</time></trkpt>
<trkpt lat="25.491154" lon="99.649716">
<time>2014-08-04T22:23:46Z</time></trkpt>
<trkpt lat="25.491174" lon="99.649647">
<time>2014-08-04T22:23:47Z</time></trkpt>
<trkpt lat="25.491204" lon="99.649597">
<time>2014-08-04T22:23:48Z</time></trkpt>
<trkpt lat="25.491244" lon="99.649537">
<time>2014-08-04T22:23:49Z</time></trkpt>
<trkpt lat="25.491394" lon="99.649377">
<time>2014-08-04T22:23:50Z</time></trkpt>
<trkpt lat="25.491535" lon="99.649227">
<time>2014-08-04T22:23:51Z</time></trkpt>
<trkpt lat="25.491655" lon="99.649078">
<time>2014-08-04T22:23:52Z</time></trkpt>
<trkpt lat="25.491765" lon="99.648958">
<time>2014-08-04T22:23:53Z</time></trkpt>
<trkpt lat="25.491865" lon="99.648878">
<time>2014-08-04T22:23:54Z</time></trkpt>
<trkpt lat="25.491956" lon="99.648818">
<time>2014-08-04T22:23:55Z</time></trkpt>
<trkpt lat="25.492056" lon="99.648768">
<time>2014-08-04T22:23:56Z</time></trkpt>
<trkpt lat="25.492156" lon="99.648729">
<time>2014-08-04T22:23:57Z</time></trkpt>
<trkpt lat="25.492216" lon="99.648679">
<time>2014-08-04T22:23:58Z</time></trkpt>
<trkpt lat="25.492246" lon="99.648659">
<time>2014-08-04T22:23:59Z</time></trkpt>
<trkpt lat="25.492276" lon="99.648619">
<time>2014-08-04T22:24:00Z</time></trkpt>
<trkpt lat="25.492296" lon="99.648569">
<time>2014-08-04T22:24:01Z</time></trkpt>
<trkpt lat="25.492306" lon="99.648519">
<time>2014-08-04T22:24:02Z</time></trkpt>
<trkpt lat="25.492306" lon="99.648459">
<time>2014-08-04T22:24:03Z</time></trkpt>
<trkpt lat="25.492306" lon="99.648389">
<time>2014-08-04T22:24:04Z</time></trkpt>
<trkpt lat="25.492286" lon="99.648329">
<time>2014-08-04T22:24:05Z</time></trkpt>
<trkpt lat="25.492247" lon="99.64824">
<time>2014-08-04T22:24:06Z</time></trkpt>
<trkpt lat="25.492047" lon="99.64783">
<time>2014-08-04T22:24:07Z</time></trkpt>
<trkpt lat="25.491977" lon="99.647681">
<time>2014-08-04T22:24:08Z</time></trkpt>
<trkpt lat="25.491888" lon="99.647501">
<time>2014-08-04T22:24:09Z</time></trkpt>
<trkpt lat="25.491778" lon="99.647361">
<time>2014-08-04T22:24:10Z</time></trkpt>
<trkpt lat="25.491658" lon="99.647232">
<time>2014-08-04T22:24:11Z</time></trkpt>
<trkpt lat="25.491418" lon="99.646992">
<time>2014-08-04T22:24:12Z</time></trkpt>
<trkpt lat="25.491309" lon="99.646872">
<time>2014-08-04T22:24:13Z</time></trkpt>
<trkpt lat="25.491239" lon="99.646783">
<time>2014-08-04T22:24:14Z</time></trkpt>
<trkpt lat="25.491209" lon="99.646723">
<time>2014-08-04T22:24:15Z</time></trkpt>
<trkpt lat="25.491179" lon="99.646643">
<time>2014-08-04T22:24:16Z</time></trkpt>
<trkpt lat="25.491159" lon="99.646563">
<time>2014-08-04T22:24:17Z</time></trkpt>
<trkpt lat="25.491159" lon="99.646473">
<time>2014-08-04T22:24:18Z</time></trkpt>
<trkpt lat="25.491159" lon="99.646393">
<time>2014-08-04T22:24:19Z</time></trkpt>
<trkpt lat="25.49117" lon="99.646314">
<time>2014-08-04T22:24:20Z</time></trkpt>
<trkpt lat="25.49121" lon="99.646174">
<time>2014-08-04T22:24:21Z</time></trkpt>
<trkpt lat="25.49127" lon="99.646034">
<time>2014-08-04T22:24:22Z</time></trkpt>
<trkpt lat="25.49133" lon="99.645875">
<time>2014-08-04T22:24:23Z</time></trkpt>
<trkpt lat="25.49138" lon="99.645785">
<time>2014-08-04T22:24:24Z</time></trkpt>
<trkpt lat="25.491431" lon="99.645715">
<time>2014-08-04T22:24:25Z</time></trkpt>
<trkpt lat="25.491491" lon="99.645675">
<time>2014-08-04T22:24:26Z</time></trkpt>
<trkpt lat="25.491531" lon="99.645635">
<time>2014-08-04T22:24:27Z</time></trkpt>
<trkpt lat="25.491581" lon="99.645615">
<time>2014-08-04T22:24:28Z</time></trkpt>
<trkpt lat="25.491641" lon="99.645615">
<time>2014-08-04T22:24:29Z</time></trkpt>
<trkpt lat="25.491701" lon="99.645625">
<time>2014-08-04T22:24:30Z</time></trkpt>
<trkpt lat="25.491761" lon="99.645655">
<time>2014-08-04T22:24:31Z</time></trkpt>
<trkpt lat="25.491821" lon="99.645695">
<time>2014-08-04T22:24:32Z</time></trkpt>
<trkpt lat="25.491871" lon="99.645735">
<time>2014-08-04T22:24:33Z</time></trkpt>
<trkpt lat="25.491921" lon="99.645775">
<time>2014-08-04T22:24:34Z</time></trkpt>
<trkpt lat="25.491971" lon="99.645815">
<time>2014-08-04T22:24:35Z</time></trkpt>
<trkpt lat="25.492021" lon="99.645845">
<time>2014-08-04T22:24:36Z</time></trkpt>
<trkpt lat="25.492071" lon="99.645865">
<time>2014-08-04T22:24:37Z</time></trkpt>
<trkpt lat="25.492131" lon="99.645874">
<time>2014-08-04T22:24:38Z</time></trkpt>
<trkpt lat="25.492181" lon="99.645874">
<time>2014-08-04T22:24:39Z</time></trkpt>
<trkpt lat="25.492241" lon="99.645874">
<time>2014-08-04T22:24:40Z</time></trkpt>
<trkpt lat="25.492291" lon="99.645855">
<time>2014-08-04T22:24:41Z</time></trkpt>
<trkpt lat="25.492361" lon="99.645815">
<time>2014-08-04T22:24:42Z</time></trkpt>
<trkpt lat="25.492461" lon="99.645765">
<time>2014-08-04T22:24:43Z</time></trkpt>
<trkpt lat="25.492661" lon="99.645625">
<time>2014-08-04T22:24:44Z</time></trkpt>
<trkpt lat="25.492801" lon="99.645515">
<time>2014-08-04T22:24:45Z</time></trkpt>
<trkpt lat="25.492861" lon="99.645465">
<time>2014-08-04T22:24:46Z</time></trkpt>
<trkpt lat="25.492922" lon="99.645385">
<time>2014-08-04T22:24:47Z</time></trkpt>
<trkpt lat="25.492972" lon="99.645286">
<time>2014-08-04T22:24:48Z</time></trkpt>
<trkpt lat="25.493002" lon="99.645196">
<time>2014-08-04T22:24:49Z</time></trkpt>
<trkpt lat="25.493022" lon="99.645106">
<time>2014-08-04T22:24:50Z</time></trkpt>
<trkpt lat="25.493022" lon="99.645046">
<time>2014-08-04T22:24:51Z</time></trkpt>
<trkpt lat="25.493012" lon="99.644996">
<time>2014-08-04T22:24:52Z</time></trkpt>
<trkpt lat="25.492992" lon="99.644926">
<time>2014-08-04T22:24:53Z</time></trkpt>
<trkpt lat="25.492952" lon="99.644867">
<time>2014-08-04T22:24:54Z</time></trkpt>
<trkpt lat="25.492913" lon="99.644817">
<time>2014-08-04T22:24:55Z</time></trkpt>
<trkpt lat="25.492863" lon="99.644777">
<time>2014-08-04T22:24:56Z</time></trkpt>
<trkpt lat="25.492813" lon="99.644757">
<time>2014-08-04T22:24:57Z</time></trkpt>
<trkpt lat="25.492763" lon="99.644747">
<time>2014-08-04T22:24:58Z</time></trkpt>
<trkpt lat="25.492723" lon="99.644747">
<time>2014-08-04T22:24:59Z</time></trkpt>
<trkpt lat="25.492673" lon="99.644747">
<time>2014-08-04T22:25:00Z</time></trkpt>
<trkpt lat="25.492613" lon="99.644767">
<time>2014-08-04T22:25:01Z</time></trkpt>
<trkpt lat="25.492552" lon="99.644797">
<time>2014-08-04T22:25:02Z</time></trkpt>
<trkpt lat="25.492512" lon="99.644827">
<time>2014-08-04T22:25:03Z</time></trkpt>
<trkpt lat="25.492412" lon="99.644926">
<time>2014-08-04T22:25:04Z</time></trkpt>
<trkpt lat="25.492312" lon="99.645016">
<time>2014-08-04T22:25:05Z</time></trkpt>
<trkpt lat="25.492242" lon="99.645066">
<time>2014-08-04T22:25:06Z</time></trkpt>
<trkpt lat="25.492192" lon="99.645086">
<time>2014-08-04T22:25:07Z</time></trkpt>
<trkpt lat="25.492122" lon="99.645096">
<time>2014-08-04T22:25:08Z</time></trkpt>
<trkpt lat="25.492062" lon="99.645096">
<time>2014-08-04T22:25:09Z</time></trkpt>
<trkpt lat="25.492012" lon="99.645086">
<time>2014-08-04T22:25:10Z</time></trkpt>
<trkpt lat="25.491962" lon="99.645066">
<time>2014-08-04T22:25:11Z</time></trkpt>
<trkpt lat="25.491912" lon="99.645026">
<time>2014-08-04T22:25:12Z</time></trkpt>
<trkpt lat="25.491852" lon="99.644966">
<time>2014-08-04T22:25:13Z</time></trkpt>
<trkpt lat="25.491812" lon="99.644906">
<time>2014-08-04T22:25:14Z</time></trkpt>
<trkpt lat="25.491772" lon="99.644827">
<time>2014-08-04T22:25:15Z</time></trkpt>
<trkpt lat="25.491752" lon="99.644767">
<time>2014-08-04T22:25:16Z</time></trkpt>
<trkpt lat="25.491713" lon="99.644427">
<time>2014-08-04T22:25:17Z</time></trkpt>
<trkpt lat="25.491693" lon="99.644348">
<time>2014-08-04T22:25:18Z</time></trkpt>
<trkpt lat="25.491673" lon="99.644278">
<time>2014-08-04T22:25:19Z</time></trkpt>
<trkpt lat="25.491643" lon="99.644208">
<time>2014-08-04T22:25:20Z</time></trkpt>
<trkpt lat="25.491613" lon="99.644158">
<time>2014-08-04T22:25:21Z</time></trkpt>
<trkpt lat="25.491573" lon="99.644108">
<time>2014-08-04T22:25:22Z</time></trkpt>
<trkpt lat="25.491543" lon="99.644068">
<time>2014-08-04T22:25:23Z</time></trkpt>
<trkpt lat="25.491483" lon="99.644008">
<time>2014-08-04T22:25:24Z</time></trkpt>
<trkpt lat="25.491413" lon="99.643968">
<time>2014-08-04T22:25:25Z</time></trkpt>
<trkpt lat="25.491114" lon="99.643789">
<time>2014-08-04T22:25:26Z</time></trkpt>
<trkpt lat="25.490804" lon="99.643579">
<time>2014-08-04T22:25:27Z</time></trkpt>
<trkpt lat="25.490674" lon="99.643489">
<time>2014-08-04T22:25:28Z</time></trkpt>
<trkpt lat="25.490524" lon="99.64336">
<time>2014-08-04T22:25:29Z</time></trkpt>
<trkpt lat="25.490394" lon="99.64329">
<time>2014-08-04T22:25:30Z</time></trkpt>
<trkpt lat="25.490164" lon="99.64319">
<time>2014-08-04T22:25:31Z</time></trkpt>
<trkpt lat="25.490054" lon="99.64314">
<time>2014-08-04T22:25:32Z</time></trkpt>
<trkpt lat="25.489974" lon="99.6431">
<time>2014-08-04T22:25:33Z</time></trkpt>
<trkpt lat="25.489924" lon="99.64305">
<time>2014-08-04T22:25:34Z</time></trkpt>
<trkpt lat="25.489905" lon="99.64302">
<time>2014-08-04T22:25:35Z</time></trkpt>
<trkpt lat="25.489885" lon="99.64299">
<time>2014-08-04T22:25:36Z</time></trkpt>
<trkpt lat="25.489855" lon="99.642941">
<time>2014-08-04T22:25:37Z</time></trkpt>
<trkpt lat="25.489855" lon="99.642901">
<time>2014-08-04T22:25:38Z</time></trkpt>
<trkpt lat="25.489845" lon="99.642851">
<time>2014-08-04T22:25:39Z</time></trkpt>
<trkpt lat="25.489845" lon="99.642791">
<time>2014-08-04T22:25:40Z</time></trkpt>
<trkpt lat="25.489865" lon="99.642741">
<time>2014-08-04T22:25:41Z</time></trkpt>
<trkpt lat="25.489885" lon="99.642681">
<time>2014-08-04T22:25:42Z</time></trkpt>
<trkpt lat="25.489905" lon="99.642641">
<time>2014-08-04T22:25:43Z</time></trkpt>
<trkpt lat="25.489955" lon="99.642591">
<time>2014-08-04T22:25:44Z</time></trkpt>
<trkpt lat="25.490005" lon="99.642541">
<time>2014-08-04T22:25:45Z</time></trkpt>
<trkpt lat="25.490115" lon="99.642471">
<time>2014-08-04T22:25:46Z</time></trkpt>
<trkpt lat="25.490236" lon="99.642392">
<time>2014-08-04T22:25:47Z</time></trkpt>
<trkpt lat="25.490426" lon="99.642302">
<time>2014-08-04T22:25:48Z</time></trkpt>
<trkpt lat="25.490536" lon="99.642262">
<time>2014-08-04T22:25:49Z</time></trkpt>
<trkpt lat="25.490616" lon="99.642242">
<time>2014-08-04T22:25:50Z</time></trkpt>
<trkpt lat="25.490676" lon="99.642222">
<time>2014-08-04T22:25:51Z</time></trkpt>
<trkpt lat="25.490746" lon="99.642212">
<time>2014-08-04T22:25:52Z</time></trkpt>
<trkpt lat="25.490826" lon="99.642212">
<time>2014-08-04T22:25:53Z</time></trkpt>
<trkpt lat="25.490916" lon="99.642212">
<time>2014-08-04T22:25:54Z</time></trkpt>
<trkpt lat="25.491036" lon="99.642232">
<time>2014-08-04T22:25:55Z</time></trkpt>
<trkpt lat="25.491146" lon="99.642252">
<time>2014-08-04T22:25:56Z</time></trkpt>
<trkpt lat="25.491246" lon="99.642272">
<time>2014-08-04T22:25:57Z</time></trkpt>
<trkpt lat="25.491306" lon="99.642272">
<time>2014-08-04T22:25:58Z</time></trkpt>
<trkpt lat="25.491346" lon="99.642272">
<time>2014-08-04T22:25:59Z</time></trkpt>
<trkpt lat="25.491396" lon="99.642262">
<time>2014-08-04T22:26:00Z</time></trkpt>
<trkpt lat="25.491446" lon="99.642252">
<time>2014-08-04T22:26:01Z</time></trkpt>
<trkpt lat="25.491486" lon="99.642232">
<time>2014-08-04T22:26:02Z</time></trkpt>
<trkpt lat="25.491526" lon="99.642192">
<time>2014-08-04T22:26:03Z</time></trkpt>
<trkpt lat="25.491556" lon="99.642162">
<time>2014-08-04T22:26:04Z</time></trkpt>
<trkpt lat="25.491576" lon="99.642122">
<time>2014-08-04T22:26:05Z</time></trkpt>
<trkpt lat="25.491607" lon="99.642062">
<time>2014-08-04T22:26:06Z</time></trkpt>
<trkpt lat="25.491617" lon="99.642012">
<time>2014-08-04T22:26:07Z</time></trkpt>
<trkpt lat="25.491627" lon="99.641942">
<time>2014-08-04T22:26:08Z</time></trkpt>
<trkpt lat="25.491627" lon="99.641863">
<time>2014-08-04T22:26:09Z</time></trkpt>
<trkpt lat="25.491607" lon="99.641723">
<time>2014-08-04T22:26:10Z</time></trkpt>
<trkpt lat="25.491567" lon="99.641513">
<time>2014-08-04T22:26:11Z</time></trkpt>
<trkpt lat="25.491538" lon="99.641334">
<time>2014-08-04T22:26:12Z</time></trkpt>
<trkpt lat="25.491498" lon="99.641154">
<time>2014-08-04T22:26:13Z</time></trkpt>
<trkpt lat="25.491468" lon="99.641064">
<time>2014-08-04T22:26:14Z</time></trkpt>
<trkpt lat="25.491408" lon="99.640974">
<time>2014-08-04T22:26:15Z</time></trkpt>
<trkpt lat="25.491298" lon="99.640855">
<time>2014-08-04T22:26:16Z</time></trkpt>
<trkpt lat="25.491188" lon="99.640765">
<time>2014-08-04T22:26:17Z</time></trkpt>
<trkpt lat="25.491069" lon="99.640655">
<time>2014-08-04T22:26:18Z</time></trkpt>
<trkpt lat="25.490989" lon="99.640575">
<time>2014-08-04T22:26:19Z</time></trkpt>
<trkpt lat="25.490959" lon="99.640505">
<time>2014-08-04T22:26:20Z</time></trkpt>
<trkpt lat="25.490939" lon="99.640445">
<time>2014-08-04T22:26:21Z</time></trkpt>
<trkpt lat="25.490929" lon="99.640386">
<time>2014-08-04T22:26:22Z</time></trkpt>
<trkpt lat="25.490939" lon="99.640326">
<time>2014-08-04T22:26:23Z</time></trkpt>
<trkpt lat="25.490949" lon="99.640276">
<time>2014-08-04T22:26:24Z</time></trkpt>
<trkpt lat="25.490979" lon="99.640226">
<time>2014-08-04T22:26:25Z</time></trkpt>
<trkpt lat="25.490999" lon="99.640186">
<time>2014-08-04T22:26:26Z</time></trkpt>
<trkpt lat="25.491049" lon="99.640136">
<time>2014-08-04T22:26:27Z</time></trkpt>
<trkpt lat="25.49113" lon="99.640046">
<time>2014-08-04T22:26:28Z</time></trkpt>
<trkpt lat="25.49117" lon="99.639986">
<time>2014-08-04T22:26:29Z</time></trkpt>
<trkpt lat="25.4912" lon="99.639906">
<time>2014-08-04T22:26:30Z</time></trkpt>
<trkpt lat="25.49122" lon="99.639837">
<time>2014-08-04T22:26:31Z</time></trkpt>
<trkpt lat="25.49123" lon="99.639767">
<time>2014-08-04T22:26:32Z</time></trkpt>
<trkpt lat="25.49123" lon="99.639627">
<time>2014-08-04T22:26:33Z</time></trkpt>
<trkpt lat="25.491211" lon="99.639457">
<time>2014-08-04T22:26:34Z</time></trkpt>
<trkpt lat="25.491211" lon="99.639338">
<time>2014-08-04T22:26:35Z</time></trkpt>
<trkpt lat="25.491221" lon="99.639288">
<time>2014-08-04T22:26:36Z</time></trkpt>
<trkpt lat="25.491241" lon="99.639248">
<time>2014-08-04T22:26:37Z</time></trkpt>
<trkpt lat="25.491261" lon="99.639188">
<time>2014-08-04T22:26:38Z</time></trkpt>
<trkpt lat="25.491301" lon="99.639138">
<time>2014-08-04T22:26:39Z</time></trkpt>
<trkpt lat="25.491351" lon="99.639118">
<time>2014-08-04T22:26:40Z</time></trkpt>
<trkpt lat="25.491401" lon="99.639098">
<time>2014-08-04T22:26:41Z</time></trkpt>
<trkpt lat="25.491441" lon="99.639098">
<time>2014-08-04T22:26:42Z</time></trkpt>
<trkpt lat="25.491491" lon="99.639108">
<time>2014-08-04T22:26:43Z</time></trkpt>
<trkpt lat="25.491641" lon="99.639138">
<time>2014-08-04T22:26:44Z</time></trkpt>
<trkpt lat="25.491721" lon="99.639168">
<time>2014-08-04T22:26:45Z</time></trkpt>
<trkpt lat="25.491761" lon="99.639168">
<time>2014-08-04T22:26:46Z</time></trkpt>
<trkpt lat="25.491811" lon="99.639168">
<time>2014-08-04T22:26:47Z</time></trkpt>
<trkpt lat="25.491851" lon="99.639158">
<time>2014-08-04T22:26:48Z</time></trkpt>
<trkpt lat="25.491891" lon="99.639138">
<time>2014-08-04T22:26:49Z</time></trkpt>
<trkpt lat="25.491931" lon="99.639118">
<time>2014-08-04T22:26:50Z</time></trkpt>
<trkpt lat="25.492001" lon="99.639068">
<time>2014-08-04T22:26:51Z</time></trkpt>
<trkpt lat="25.492041" lon="99.639028">
<time>2014-08-04T22:26:52Z</time></trkpt>
<trkpt lat="25.492071" lon="99.638988">
<time>2014-08-04T22:26:53Z</time></trkpt>
<trkpt lat="25.492112" lon="99.638888">
<time>2014-08-04T22:26:54Z</time></trkpt>
<trkpt lat="25.492192" lon="99.638609">
<time>2014-08-04T22:26:55Z</time></trkpt>
<trkpt lat="25.492323" lon="99.63812">
<time>2014-08-04T22:26:56Z</time></trkpt>
<trkpt lat="25.492343" lon="99.63803">
<time>2014-08-04T22:26:57Z</time></trkpt>
<trkpt lat="25.492353" lon="99.63797">
<time>2014-08-04T22:26:58Z</time></trkpt>
<trkpt lat="25.492353" lon="99.63789">
<time>2014-08-04T22:26:59Z</time></trkpt>
<trkpt lat="25.492333" lon="99.63781">
<time>2014-08-04T22:27:00Z</time></trkpt>
<trkpt lat="25.492313" lon="99.637751">
<time>2014-08-04T22:27:01Z</time></trkpt>
<trkpt lat="25.492293" lon="99.637701">
<time>2014-08-04T22:27:02Z</time></trkpt>
<trkpt lat="25.492264" lon="99.637651">
<time>2014-08-04T22:27:03Z</time></trkpt>
<trkpt lat="25.492224" lon="99.637601">
<time>2014-08-04T22:27:04Z</time></trkpt>
<trkpt lat="25.492184" lon="99.637561">
<time>2014-08-04T22:27:05Z</time></trkpt>
<trkpt lat="25.492164" lon="99.637551">
<time>2014-08-04T22:27:06Z</time></trkpt>
<trkpt lat="25.492124" lon="99.637531">
<time>2014-08-04T22:27:07Z</time></trkpt>
<trkpt lat="25.492084" lon="99.637511">
<time>2014-08-04T22:27:08Z</time></trkpt>
<trkpt lat="25.492014" lon="99.637491">
<time>2014-08-04T22:27:09Z</time></trkpt>
<trkpt lat="25.491914" lon="99.637471">
<time>2014-08-04T22:27:10Z</time></trkpt>
<trkpt lat="25.491734" lon="99.637451">
<time>2014-08-04T22:27:11Z</time></trkpt>
<trkpt lat="25.491524" lon="99.637431">
<time>2014-08-04T22:27:12Z</time></trkpt>
<trkpt lat="25.491354" lon="99.637421">
<time>2014-08-04T22:27:13Z</time></trkpt>
<trkpt lat="25.491274" lon="99.637411">
<time>2014-08-04T22:27:14Z</time></trkpt>
<trkpt lat="25.491134" lon="99.637391">
<time>2014-08-04T22:27:15Z</time></trkpt>
<trkpt lat="25.491054" lon="99.637371">
<time>2014-08-04T22:27:16Z</time></trkpt>
<trkpt lat="25.490964" lon="99.637341">
<time>2014-08-04T22:27:17Z</time></trkpt>
<trkpt lat="25.490854" lon="99.637291">
<time>2014-08-04T22:27:18Z</time></trkpt>
<trkpt lat="25.490794" lon="99.637242">
<time>2014-08-04T22:27:19Z</time></trkpt>
<trkpt lat="25.490744" lon="99.637192">
<time>2014-08-04T22:27:20Z</time></trkpt>
<trkpt lat="25.490614" lon="99.637012">
<time>2014-08-04T22:27:21Z</time></trkpt>
<trkpt lat="25.490464" lon="99.636752">
<time>2014-08-04T22:27:22Z</time></trkpt>
<trkpt lat="25.490245" lon="99.636393">
<time>2014-08-04T22:27:23Z</time></trkpt>
<trkpt lat="25.489945" lon="99.635874">
<time>2014-08-04T22:27:24Z</time></trkpt>
<trkpt lat="25.489866" lon="99.635694">
<time>2014-08-04T22:27:25Z</time></trkpt>
<trkpt lat="25.489826" lon="99.635575">
<time>2014-08-04T22:27:26Z</time></trkpt>
<trkpt lat="25.489786" lon="99.635425">
<time>2014-08-04T22:27:27Z</time></trkpt>
<trkpt lat="25.489756" lon="99.635225">
<time>2014-08-04T22:27:28Z</time></trkpt>
<trkpt lat="25.489727" lon="99.634946">
<time>2014-08-04T22:27:29Z</time></trkpt>
<trkpt lat="25.489737" lon="99.634816">
<time>2014-08-04T22:27:30Z</time></trkpt>
<trkpt lat="25.489737" lon="99.634756">
<time>2014-08-04T22:27:31Z</time></trkpt>
<trkpt lat="25.489767" lon="99.634616">
<time>2014-08-04T22:27:32Z</time></trkpt>
<trkpt lat="25.489807" lon="99.634487">
<time>2014-08-04T22:27:33Z</time></trkpt>
<trkpt lat="25.489827" lon="99.634437">
<time>2014-08-04T22:27:34Z</time></trkpt>
<trkpt lat="25.489898" lon="99.634257">
<time>2014-08-04T22:27:35Z</time></trkpt>
<trkpt lat="25.489938" lon="99.634087">
<time>2014-08-04T22:27:36Z</time></trkpt>
<trkpt lat="25.489968" lon="99.633958">
<time>2014-08-04T22:27:37Z</time></trkpt>
<trkpt lat="25.489978" lon="99.633818">
<time>2014-08-04T22:27:38Z</time></trkpt>
<trkpt lat="25.489979" lon="99.633648">
<time>2014-08-04T22:27:39Z</time></trkpt>
<trkpt lat="25.489979" lon="99.633498">
<time>2014-08-04T22:27:40Z</time></trkpt>
<trkpt lat="25.489979" lon="99.633359">
<time>2014-08-04T22:27:41Z</time></trkpt>
<trkpt lat="25.489999" lon="99.633219">
<time>2014-08-04T22:27:42Z</time></trkpt>
<trkpt lat="25.490039" lon="99.633039">
<time>2014-08-04T22:27:43Z</time></trkpt>
<trkpt lat="25.490391" lon="99.631921">
<time>2014-08-04T22:27:44Z</time></trkpt>
<trkpt lat="25.490441" lon="99.631801">
<time>2014-08-04T22:27:45Z</time></trkpt>
<trkpt lat="25.490521" lon="99.631642">
<time>2014-08-04T22:27:46Z</time></trkpt>
<trkpt lat="25.490592" lon="99.631542">
<time>2014-08-04T22:27:47Z</time></trkpt>
<trkpt lat="25.490692" lon="99.631442">
<time>2014-08-04T22:27:48Z</time></trkpt>
<trkpt lat="25.490812" lon="99.631372">
<time>2014-08-04T22:27:49Z</time></trkpt>
<trkpt lat="25.490912" lon="99.631352">
<time>2014-08-04T22:27:50Z</time></trkpt>
<trkpt lat="25.490982" lon="99.631352">
<time>2014-08-04T22:27:51Z</time></trkpt>
<trkpt lat="25.491062" lon="99.631362">
<time>2014-08-04T22:27:52Z</time></trkpt>
<trkpt lat="25.491282" lon="99.631442">
<time>2014-08-04T22:27:53Z</time></trkpt>
<trkpt lat="25.491342" lon="99.631462">
<time>2014-08-04T22:27:54Z</time></trkpt>
<trkpt lat="25.491392" lon="99.631472">
<time>2014-08-04T22:27:55Z</time></trkpt>
<trkpt lat="25.491432" lon="99.631462">
<time>2014-08-04T22:27:56Z</time></trkpt>
<trkpt lat="25.491472" lon="99.631462">
<time>2014-08-04T22:27:57Z</time></trkpt>
<trkpt lat="25.491512" lon="99.631442">
<time>2014-08-04T22:27:58Z</time></trkpt>
<trkpt lat="25.491562" lon="99.631422">
<time>2014-08-04T22:27:59Z</time></trkpt>
<trkpt lat="25.491592" lon="99.631382">
<time>2014-08-04T22:28:00Z</time></trkpt>
<trkpt lat="25.491612" lon="99.631352">
<time>2014-08-04T22:28:01Z</time></trkpt>
<trkpt lat="25.491622" lon="99.631312">
<time>2014-08-04T22:28:02Z</time></trkpt>
<trkpt lat="25.491632" lon="99.631252">
<time>2014-08-04T22:28:03Z</time></trkpt>
<trkpt lat="25.491632" lon="99.631192">
<time>2014-08-04T22:28:04Z</time></trkpt>
<trkpt lat="25.491612" lon="99.631132">
<time>2014-08-04T22:28:05Z</time></trkpt>
<trkpt lat="25.491583" lon="99.631043">
<time>2014-08-04T22:28:06Z</time></trkpt>
<trkpt lat="25.491343" lon="99.630613">
<time>2014-08-04T22:28:07Z</time></trkpt>
<trkpt lat="25.491313" lon="99.630543">
<time>2014-08-04T22:28:08Z</time></trkpt>
<trkpt lat="25.491303" lon="99.630493">
<time>2014-08-04T22:28:09Z</time></trkpt>
<trkpt lat="25.491293" lon="99.630444">
<time>2014-08-04T22:28:10Z</time></trkpt>
<trkpt lat="25.491293" lon="99.630394">
<time>2014-08-04T22:28:11Z</time></trkpt>
<trkpt lat="25.491293" lon="99.630324">
<time>2014-08-04T22:28:12Z</time></trkpt>
<trkpt lat="25.491303" lon="99.630254">
<time>2014-08-04T22:28:13Z</time></trkpt>
<trkpt lat="25.491324" lon="99.630174">
<time>2014-08-04T22:28:14Z</time></trkpt>
<trkpt lat="25.491364" lon="99.630094">
<time>2014-08-04T22:28:15Z</time></trkpt>
<trkpt lat="25.491474" lon="99.629894">
<time>2014-08-04T22:28:16Z</time></trkpt>
<trkpt lat="25.491825" lon="99.629315">
<time>2014-08-04T22:28:17Z</time></trkpt>
<trkpt lat="25.491965" lon="99.629126">
<time>2014-08-04T22:28:18Z</time></trkpt>
<trkpt lat="25.492025" lon="99.629056">
<time>2014-08-04T22:28:19Z</time></trkpt>
<trkpt lat="25.492115" lon="99.628976">
<time>2014-08-04T22:28:20Z</time></trkpt>
<trkpt lat="25.492296" lon="99.628856">
<time>2014-08-04T22:28:21Z</time></trkpt>
<trkpt lat="25.492326" lon="99.628826">
<time>2014-08-04T22:28:22Z</time></trkpt>
<trkpt lat="25.492356" lon="99.628786">
<time>2014-08-04T22:28:23Z</time></trkpt>
<trkpt lat="25.492386" lon="99.628746">
<time>2014-08-04T22:28:24Z</time></trkpt>
<trkpt lat="25.492406" lon="99.628706">
<time>2014-08-04T22:28:25Z</time></trkpt>
<trkpt lat="25.492416" lon="99.628646">
<time>2014-08-04T22:28:26Z</time></trkpt>
<trkpt lat="25.492426" lon="99.628607">
<time>2014-08-04T22:28:27Z</time></trkpt>
<trkpt lat="25.492416" lon="99.628567">
<time>2014-08-04T22:28:28Z</time></trkpt>
<trkpt lat="25.492406" lon="99.628517">
<time>2014-08-04T22:28:29Z</time></trkpt>
<trkpt lat="25.492376" lon="99.628457">
<time>2014-08-04T22:28:30Z</time></trkpt>
<trkpt lat="25.492246" lon="99.628237">
<time>2014-08-04T22:28:31Z</time></trkpt>
<trkpt lat="25.492226" lon="99.628167">
<time>2014-08-04T22:28:32Z</time></trkpt>
<trkpt lat="25.492206" lon="99.628117">
<time>2014-08-04T22:28:33Z</time></trkpt>
<trkpt lat="25.492196" lon="99.628057">
<time>2014-08-04T22:28:34Z</time></trkpt>
<trkpt lat="25.492187" lon="99.627997">
<time>2014-08-04T22:28:35Z</time></trkpt>
<trkpt lat="25.492187" lon="99.627958">
<time>2014-08-04T22:28:36Z</time></trkpt>
<trkpt lat="25.492197" lon="99.627918">
<time>2014-08-04T22:28:37Z</time></trkpt>
<trkpt lat="25.492207" lon="99.627868">
<time>2014-08-04T22:28:38Z</time></trkpt>
<trkpt lat="25.492227" lon="99.627818">
<time>2014-08-04T22:28:39Z</time></trkpt>
<trkpt lat="25.492247" lon="99.627778">
<time>2014-08-04T22:28:40Z</time></trkpt>
<trkpt lat="25.492267" lon="99.627738">
<time>2014-08-04T22:28:41Z</time></trkpt>
<trkpt lat="25.492307" lon="99.627688">
<time>2014-08-04T22:28:42Z</time></trkpt>
<trkpt lat="25.492357" lon="99.627648">
<time>2014-08-04T22:28:43Z</time></trkpt>
<trkpt lat="25.492407" lon="99.627608">
<time>2014-08-04T22:28:44Z</time></trkpt>
<trkpt lat="25.492467" lon="99.627588">
<time>2014-08-04T22:28:45Z</time></trkpt>
<trkpt lat="25.492537" lon="99.627558">
<time>2014-08-04T22:28:46Z</time></trkpt>
<trkpt lat="25.492587" lon="99.627548">
<time>2014-08-04T22:28:47Z</time></trkpt>
<trkpt lat="25.492707" lon="99.627498">
<time>2014-08-04T22:28:48Z</time></trkpt>
<trkpt lat="25.492827" lon="99.627438">
<time>2014-08-04T22:28:49Z</time></trkpt>
<trkpt lat="25.492898" lon="99.627378">
<time>2014-08-04T22:28:50Z</time></trkpt>
<trkpt lat="25.492948" lon="99.627319">
<time>2014-08-04T22:28:51Z</time></trkpt>
<trkpt lat="25.492988" lon="99.627259">
<time>2014-08-04T22:28:52Z</time></trkpt>
<trkpt lat="25.493008" lon="99.627209">
<time>2014-08-04T22:28:53Z</time></trkpt>
<trkpt lat="25.493018" lon="99.627129">
<time>2014-08-04T22:28:54Z</time></trkpt>
<trkpt lat="25.493028" lon="99.627069">
<time>2014-08-04T22:28:55Z</time></trkpt>
<trkpt lat="25.493008" lon="99.626989">
<time>2014-08-04T22:28:56Z</time></trkpt>
<trkpt lat="25.492998" lon="99.626929">
<time>2014-08-04T22:28:57Z</time></trkpt>
<trkpt lat="25.492978" lon="99.626869">
<time>2014-08-04T22:28:58Z</time></trkpt>
<trkpt lat="25.492948" lon="99.626819">
<time>2014-08-04T22:28:59Z</time></trkpt>
<trkpt lat="25.492908" lon="99.626759">
<time>2014-08-04T22:29:00Z</time></trkpt>
<trkpt lat="25.492868" lon="99.626719">
<time>2014-08-04T22:29:01Z</time></trkpt>
<trkpt lat="25.492828" lon="99.62668">
<time>2014-08-04T22:29:02Z</time></trkpt>
<trkpt lat="25.492738" lon="99.62662">
<time>2014-08-04T22:29:03Z</time></trkpt>
<trkpt lat="25.492678" lon="99.62659">
<time>2014-08-04T22:29:04Z</time></trkpt>
<trkpt lat="25.492578" lon="99.62654">
<time>2014-08-04T22:29:05Z</time></trkpt>
<trkpt lat="25.492478" lon="99.6265">
<time>2014-08-04T22:29:06Z</time></trkpt>
<trkpt lat="25.492348" lon="99.62646">
<time>2014-08-04T22:29:07Z</time></trkpt>
<trkpt lat="25.492268" lon="99.62643">
<time>2014-08-04T22:29:08Z</time></trkpt>
<trkpt lat="25.492208" lon="99.6264">
<time>2014-08-04T22:29:09Z</time></trkpt>
<trkpt lat="25.492148" lon="99.62635">
<time>2014-08-04T22:29:10Z</time></trkpt>
<trkpt lat="25.492109" lon="99.62631">
<time>2014-08-04T22:29:11Z</time></trkpt>
<trkpt lat="25.492079" lon="99.62626">
<time>2014-08-04T22:29:12Z</time></trkpt>
<trkpt lat="25.491939" lon="99.626001">
<time>2014-08-04T22:29:13Z</time></trkpt>
<trkpt lat="25.491769" lon="99.625641">
<time>2014-08-04T22:29:14Z</time></trkpt>
<trkpt lat="25.491689" lon="99.625481">
<time>2014-08-04T22:29:15Z</time></trkpt>
<trkpt lat="25.491629" lon="99.625332">
<time>2014-08-04T22:29:16Z</time></trkpt>
<trkpt lat="25.49159" lon="99.625232">
<time>2014-08-04T22:29:17Z</time></trkpt>
<trkpt lat="25.49155" lon="99.625142">
<time>2014-08-04T22:29:18Z</time></trkpt>
<trkpt lat="25.49152" lon="99.625022">
<time>2014-08-04T22:29:19Z</time></trkpt>
<trkpt lat="25.49149" lon="99.624912">
<time>2014-08-04T22:29:20Z</time></trkpt>
<trkpt lat="25.49147" lon="99.624752">
<time>2014-08-04T22:29:21Z</time></trkpt>
<trkpt lat="25.49142" lon="99.624563">
<time>2014-08-04T22:29:22Z</time></trkpt>
<trkpt lat="25.49138" lon="99.624443">
<time>2014-08-04T22:29:23Z</time></trkpt>
<trkpt lat="25.491321" lon="99.624303">
<time>2014-08-04T22:29:24Z</time></trkpt>
<trkpt lat="25.491071" lon="99.623764">
<time>2014-08-04T22:29:25Z</time></trkpt>
<trkpt lat="25.490951" lon="99.623484">
<time>2014-08-04T22:29:26Z</time></trkpt>
<trkpt lat="25.490652" lon="99.622945">
<time>2014-08-04T22:29:27Z</time></trkpt>
<trkpt lat="25.490332" lon="99.622326">
<time>2014-08-04T22:29:28Z</time></trkpt>
<trkpt lat="25.490023" lon="99.621697">
<time>2014-08-04T22:29:29Z</time></trkpt>
<trkpt lat="25.489943" lon="99.621487">
<time>2014-08-04T22:29:30Z</time></trkpt>
<trkpt lat="25.489903" lon="99.621327">
<time>2014-08-04T22:29:31Z</time></trkpt>
<trkpt lat="25.489883" lon="99.621168">
<time>2014-08-04T22:29:32Z</time></trkpt>
<trkpt lat="25.489884" lon="99.620968">
<time>2014-08-04T22:29:33Z</time></trkpt>
<trkpt lat="25.489934" lon="99.620259">
<time>2014-08-04T22:29:34Z</time></trkpt>
<trkpt lat="25.489964" lon="99.619979">
<time>2014-08-04T22:29:35Z</time></trkpt>
<trkpt lat="25.490015" lon="99.619799">
<time>2014-08-04T22:29:36Z</time></trkpt>
<trkpt lat="25.490065" lon="99.6196">
<time>2014-08-04T22:29:37Z</time></trkpt>
<trkpt lat="25.490075" lon="99.61951">
<time>2014-08-04T22:29:38Z</time></trkpt>
<trkpt lat="25.490075" lon="99.61945">
<time>2014-08-04T22:29:39Z</time></trkpt>
<trkpt lat="25.490065" lon="99.61939">
<time>2014-08-04T22:29:40Z</time></trkpt>
<trkpt lat="25.490055" lon="99.61934">
<time>2014-08-04T22:29:41Z</time></trkpt>
<trkpt lat="25.490025" lon="99.61929">
<time>2014-08-04T22:29:42Z</time></trkpt>
<trkpt lat="25.490005" lon="99.61925">
<time>2014-08-04T22:29:43Z</time></trkpt>
<trkpt lat="25.489945" lon="99.61919">
<time>2014-08-04T22:29:44Z</time></trkpt>
<trkpt lat="25.489905" lon="99.61914">
<time>2014-08-04T22:29:45Z</time></trkpt>
<trkpt lat="25.489735" lon="99.61901">
<time>2014-08-04T22:29:46Z</time></trkpt>
<trkpt lat="25.489695" lon="99.61896">
<time>2014-08-04T22:29:47Z</time></trkpt>
<trkpt lat="25.489585" lon="99.618841">
<time>2014-08-04T22:29:48Z</time></trkpt>
<trkpt lat="25.489416" lon="99.618621">
<time>2014-08-04T22:29:49Z</time></trkpt>
<trkpt lat="25.489226" lon="99.618341">
<time>2014-08-04T22:29:50Z</time></trkpt>
<trkpt lat="25.489056" lon="99.618091">
<time>2014-08-04T22:29:51Z</time></trkpt>
<trkpt lat="25.488946" lon="99.617922">
<time>2014-08-04T22:29:52Z</time></trkpt>
<trkpt lat="25.488886" lon="99.617802">
<time>2014-08-04T22:29:53Z</time></trkpt>
<trkpt lat="25.488856" lon="99.617722">
<time>2014-08-04T22:29:54Z</time></trkpt>
<trkpt lat="25.488786" lon="99.617502">
<time>2014-08-04T22:29:55Z</time></trkpt>
<trkpt lat="25.488717" lon="99.617233">
<time>2014-08-04T22:29:56Z</time></trkpt>
<trkpt lat="25.488647" lon="99.616963">
<time>2014-08-04T22:29:57Z</time></trkpt>
<trkpt lat="25.488577" lon="99.616763">
<time>2014-08-04T22:29:58Z</time></trkpt>
<trkpt lat="25.488497" lon="99.616603">
<time>2014-08-04T22:29:59Z</time></trkpt>
<trkpt lat="25.488397" lon="99.616414">
<time>2014-08-04T22:30:00Z</time></trkpt>
<trkpt lat="25.488307" lon="99.616264">
<time>2014-08-04T22:30:01Z</time></trkpt>
<trkpt lat="25.488207" lon="99.616044">
<time>2014-08-04T22:30:02Z</time></trkpt>
<trkpt lat="25.488167" lon="99.615904">
<time>2014-08-04T22:30:03Z</time></trkpt>
<trkpt lat="25.488158" lon="99.615764">
<time>2014-08-04T22:30:04Z</time></trkpt>
<trkpt lat="25.488178" lon="99.615584">
<time>2014-08-04T22:30:05Z</time></trkpt>
<trkpt lat="25.488228" lon="99.615365">
<time>2014-08-04T22:30:06Z</time></trkpt>
<trkpt lat="25.488288" lon="99.615155">
<time>2014-08-04T22:30:07Z</time></trkpt>
<trkpt lat="25.488368" lon="99.614885">
<time>2014-08-04T22:30:08Z</time></trkpt>
<trkpt lat="25.488408" lon="99.614775">
<time>2014-08-04T22:30:09Z</time></trkpt>
<trkpt lat="25.488429" lon="99.614606">
<time>2014-08-04T22:30:10Z</time></trkpt>
<trkpt lat="25.488429" lon="99.614436">
<time>2014-08-04T22:30:11Z</time></trkpt>
<trkpt lat="25.488409" lon="99.614196">
<time>2014-08-04T22:30:12Z</time></trkpt>
<trkpt lat="25.488399" lon="99.613996">
<time>2014-08-04T22:30:13Z</time></trkpt>
<trkpt lat="25.488429" lon="99.613786">
<time>2014-08-04T22:30:14Z</time></trkpt>
<trkpt lat="25.488489" lon="99.613487">
<time>2014-08-04T22:30:15Z</time></trkpt>
<trkpt lat="25.488499" lon="99.613357">
<time>2014-08-04T22:30:16Z</time></trkpt>
<trkpt lat="25.48849" lon="99.613217">
<time>2014-08-04T22:30:17Z</time></trkpt>
<trkpt lat="25.48846" lon="99.613067">
<time>2014-08-04T22:30:18Z</time></trkpt>
<trkpt lat="25.48842" lon="99.612897">
<time>2014-08-04T22:30:19Z</time></trkpt>
<trkpt lat="25.48836" lon="99.612638">
<time>2014-08-04T22:30:20Z</time></trkpt>
<trkpt lat="25.48831" lon="99.612378">
<time>2014-08-04T22:30:21Z</time></trkpt>
<trkpt lat="25.48829" lon="99.612158">
<time>2014-08-04T22:30:22Z</time></trkpt>
<trkpt lat="25.4883" lon="99.611838">
<time>2014-08-04T22:30:23Z</time></trkpt>
<trkpt lat="25.488311" lon="99.611609">
<time>2014-08-04T22:30:24Z</time></trkpt>
<trkpt lat="25.488301" lon="99.611419">
<time>2014-08-04T22:30:25Z</time></trkpt>
<trkpt lat="25.488271" lon="99.611199">
<time>2014-08-04T22:30:26Z</time></trkpt>
<trkpt lat="25.488211" lon="99.610929">
<time>2014-08-04T22:30:27Z</time></trkpt>
<trkpt lat="25.488171" lon="99.610709">
<time>2014-08-04T22:30:28Z</time></trkpt>
<trkpt lat="25.488151" lon="99.61042">
<time>2014-08-04T22:30:29Z</time></trkpt>
<trkpt lat="25.488151" lon="99.6101">
<time>2014-08-04T22:30:30Z</time></trkpt>
<trkpt lat="25.488152" lon="99.60959">
<time>2014-08-04T22:30:31Z</time></trkpt>
<trkpt lat="25.488132" lon="99.609341">
<time>2014-08-04T22:30:32Z</time></trkpt>
<trkpt lat="25.488112" lon="99.609141">
<time>2014-08-04T22:30:33Z</time></trkpt>
<trkpt lat="25.488072" lon="99.608981">
<time>2014-08-04T22:30:34Z</time></trkpt>
<trkpt lat="25.487992" lon="99.608781">
<time>2014-08-04T22:30:35Z</time></trkpt>
<trkpt lat="25.487912" lon="99.608621">
<time>2014-08-04T22:30:36Z</time></trkpt>
<trkpt lat="25.487802" lon="99.608461">
<time>2014-08-04T22:30:37Z</time></trkpt>
<trkpt lat="25.487702" lon="99.608272">
<time>2014-08-04T22:30:38Z</time></trkpt>
<trkpt lat="25.487632" lon="99.608122">
<time>2014-08-04T22:30:39Z</time></trkpt>
<trkpt lat="25.487592" lon="99.607962">
<time>2014-08-04T22:30:40Z</time></trkpt>
<trkpt lat="25.487562" lon="99.607712">
<time>2014-08-04T22:30:41Z</time></trkpt>
<trkpt lat="25.487543" lon="99.607442">
<time>2014-08-04T22:30:42Z</time></trkpt>
<trkpt lat="25.487553" lon="99.607192">
<time>2014-08-04T22:30:43Z</time></trkpt>
<trkpt lat="25.487563" lon="99.607043">
<time>2014-08-04T22:30:44Z</time></trkpt>
<trkpt lat="25.487603" lon="99.606883">
<time>2014-08-04T22:30:45Z</time></trkpt>
<trkpt lat="25.487663" lon="99.606743">
<time>2014-08-04T22:30:46Z</time></trkpt>
<trkpt lat="25.487733" lon="99.606613">
<time>2014-08-04T22:30:47Z</time></trkpt>
<trkpt lat="25.487833" lon="99.606503">
<time>2014-08-04T22:30:48Z</time></trkpt>
<trkpt lat="25.487953" lon="99.606403">
<time>2014-08-04T22:30:49Z</time></trkpt>
<trkpt lat="25.488073" lon="99.606323">
<time>2014-08-04T22:30:50Z</time></trkpt>
<trkpt lat="25.488193" lon="99.606223">
<time>2014-08-04T22:30:51Z</time></trkpt>
<trkpt lat="25.488273" lon="99.606123">
<time>2014-08-04T22:30:52Z</time></trkpt>
<trkpt lat="25.488303" lon="99.606013">
<time>2014-08-04T22:30:53Z</time></trkpt>
<trkpt lat="25.488313" lon="99.605923">
<time>2014-08-04T22:30:54Z</time></trkpt>
<trkpt lat="25.488303" lon="99.605763">
<time>2014-08-04T22:30:55Z</time></trkpt>
<trkpt lat="25.488283" lon="99.605594">
<time>2014-08-04T22:30:56Z</time></trkpt>
<trkpt lat="25.488274" lon="99.605524">
<time>2014-08-04T22:30:57Z</time></trkpt>
<trkpt lat="25.488284" lon="99.605474">
<time>2014-08-04T22:30:58Z</time></trkpt>
<trkpt lat="25.488294" lon="99.605434">
<time>2014-08-04T22:30:59Z</time></trkpt>
<trkpt lat="25.488304" lon="99.605394">
<time>2014-08-04T22:31:00Z</time></trkpt>
<trkpt lat="25.488324" lon="99.605364">
<time>2014-08-04T22:31:01Z</time></trkpt>
<trkpt lat="25.488344" lon="99.605334">
<time>2014-08-04T22:31:02Z</time></trkpt>
<trkpt lat="25.488384" lon="99.605304">
<time>2014-08-04T22:31:03Z</time></trkpt>
<trkpt lat="25.488424" lon="99.605284">
<time>2014-08-04T22:31:04Z</time></trkpt>
<trkpt lat="25.488454" lon="99.605274">
<time>2014-08-04T22:31:05Z</time></trkpt>
<trkpt lat="25.488494" lon="99.605264">
<time>2014-08-04T22:31:06Z</time></trkpt>
<trkpt lat="25.488534" lon="99.605274">
<time>2014-08-04T22:31:07Z</time></trkpt>
<trkpt lat="25.488584" lon="99.605284">
<time>2014-08-04T22:31:08Z</time></trkpt>
<trkpt lat="25.488624" lon="99.605314">
<time>2014-08-04T22:31:09Z</time></trkpt>
<trkpt lat="25.488654" lon="99.605334">
<time>2014-08-04T22:31:10Z</time></trkpt>
<trkpt lat="25.488674" lon="99.605374">
<time>2014-08-04T22:31:11Z</time></trkpt>
<trkpt lat="25.488684" lon="99.605404">
<time>2014-08-04T22:31:12Z</time></trkpt>
<trkpt lat="25.488694" lon="99.605444">
<time>2014-08-04T22:31:13Z</time></trkpt>
<trkpt lat="25.488724" lon="99.605594">
<time>2014-08-04T22:31:14Z</time></trkpt>
<trkpt lat="25.488734" lon="99.605703">
<time>2014-08-04T22:31:15Z</time></trkpt>
<trkpt lat="25.488744" lon="99.605833">
<time>2014-08-04T22:31:16Z</time></trkpt>
<trkpt lat="25.488774" lon="99.605933">
<time>2014-08-04T22:31:17Z</time></trkpt>
<trkpt lat="25.488813" lon="99.606043">
<time>2014-08-04T22:31:18Z</time></trkpt>
<trkpt lat="25.488873" lon="99.606143">
<time>2014-08-04T22:31:19Z</time></trkpt>
<trkpt lat="25.489003" lon="99.606323">
<time>2014-08-04T22:31:20Z</time></trkpt>
<trkpt lat="25.489163" lon="99.606503">
<time>2014-08-04T22:31:21Z</time></trkpt>
<trkpt lat="25.489213" lon="99.606583">
<time>2014-08-04T22:31:22Z</time></trkpt>
<trkpt lat="25.489263" lon="99.606673">
<time>2014-08-04T22:31:23Z</time></trkpt>
<trkpt lat="25.489303" lon="99.606803">
<time>2014-08-04T22:31:24Z</time></trkpt>
<trkpt lat="25.489333" lon="99.606953">
<time>2014-08-04T22:31:25Z</time></trkpt>
<trkpt lat="25.489353" lon="99.607132">
<time>2014-08-04T22:31:26Z</time></trkpt>
<trkpt lat="25.489383" lon="99.607512">
<time>2014-08-04T22:31:27Z</time></trkpt>
<trkpt lat="25.489403" lon="99.607662">
<time>2014-08-04T22:31:28Z</time></trkpt>
<trkpt lat="25.489443" lon="99.607752">
<time>2014-08-04T22:31:29Z</time></trkpt>
<trkpt lat="25.489503" lon="99.607842">
<time>2014-08-04T22:31:30Z</time></trkpt>
<trkpt lat="25.489563" lon="99.607892">
<time>2014-08-04T22:31:31Z</time></trkpt>
<trkpt lat="25.489633" lon="99.607942">
<time>2014-08-04T22:31:32Z</time></trkpt>
<trkpt lat="25.489753" lon="99.607992">
<time>2014-08-04T22:31:33Z</time></trkpt>
<trkpt lat="25.489863" lon="99.608032">
<time>2014-08-04T22:31:34Z</time></trkpt>
<trkpt lat="25.489973" lon="99.608042">
<time>2014-08-04T22:31:35Z</time></trkpt>
<trkpt lat="25.490033" lon="99.608042">
<time>2014-08-04T22:31:36Z</time></trkpt>
<trkpt lat="25.490093" lon="99.608022">
<time>2014-08-04T22:31:37Z</time></trkpt>
<trkpt lat="25.490173" lon="99.607982">
<time>2014-08-04T22:31:38Z</time></trkpt>
<trkpt lat="25.490243" lon="99.607902">
<time>2014-08-04T22:31:39Z</time></trkpt>
<trkpt lat="25.490303" lon="99.607812">
<time>2014-08-04T22:31:40Z</time></trkpt>
<trkpt lat="25.490443" lon="99.607542">
<time>2014-08-04T22:31:41Z</time></trkpt>
<trkpt lat="25.490493" lon="99.607452">
<time>2014-08-04T22:31:42Z</time></trkpt>
<trkpt lat="25.490593" lon="99.607352">
<time>2014-08-04T22:31:43Z</time></trkpt>
<trkpt lat="25.490674" lon="99.607302">
<time>2014-08-04T22:31:44Z</time></trkpt>
<trkpt lat="25.490764" lon="99.607282">
<time>2014-08-04T22:31:45Z</time></trkpt>
<trkpt lat="25.490904" lon="99.607272">
<time>2014-08-04T22:31:46Z</time></trkpt>
<trkpt lat="25.491014" lon="99.607292">
<time>2014-08-04T22:31:47Z</time></trkpt>
<trkpt lat="25.491174" lon="99.607332">
<time>2014-08-04T22:31:48Z</time></trkpt>
<trkpt lat="25.491324" lon="99.607372">
<time>2014-08-04T22:31:49Z</time></trkpt>
<trkpt lat="25.491524" lon="99.607422">
<time>2014-08-04T22:31:50Z</time></trkpt>
<trkpt lat="25.491694" lon="99.607442">
<time>2014-08-04T22:31:51Z</time></trkpt>
<trkpt lat="25.491914" lon="99.607482">
<time>2014-08-04T22:31:52Z</time></trkpt>
<trkpt lat="25.492094" lon="99.607512">
<time>2014-08-04T22:31:53Z</time></trkpt>
<trkpt lat="25.492314" lon="99.607552">
<time>2014-08-04T22:31:54Z</time></trkpt>
<trkpt lat="25.492524" lon="99.607622">
<time>2014-08-04T22:31:55Z</time></trkpt>
<trkpt lat="25.492674" lon="99.607672">
<time>2014-08-04T22:31:56Z</time></trkpt>
<trkpt lat="25.492804" lon="99.607722">
<time>2014-08-04T22:31:57Z</time></trkpt>
<trkpt lat="25.492914" lon="99.607752">
<time>2014-08-04T22:31:58Z</time></trkpt>
<trkpt lat="25.493024" lon="99.607762">
<time>2014-08-04T22:31:59Z</time></trkpt>
<trkpt lat="25.493084" lon="99.607762">
<time>2014-08-04T22:32:00Z</time></trkpt>
<trkpt lat="25.493114" lon="99.607762">
<time>2014-08-04T22:32:01Z</time></trkpt>
<trkpt lat="25.493154" lon="99.607752">
<time>2014-08-04T22:32:02Z</time></trkpt>
<trkpt lat="25.493254" lon="99.607712">
<time>2014-08-04T22:32:03Z</time></trkpt>
<trkpt lat="25.493494" lon="99.607622">
<time>2014-08-04T22:32:04Z</time></trkpt>
<trkpt lat="25.493664" lon="99.607572">
<time>2014-08-04T22:32:05Z</time></trkpt>
<trkpt lat="25.493834" lon="99.607542">
<time>2014-08-04T22:32:06Z</time></trkpt>
<trkpt lat="25.494154" lon="99.607512">
<time>2014-08-04T22:32:07Z</time></trkpt>
<trkpt lat="25.494475" lon="99.607472">
<time>2014-08-04T22:32:08Z</time></trkpt>
<trkpt lat="25.494805" lon="99.607442">
<time>2014-08-04T22:32:09Z</time></trkpt>
<trkpt lat="25.495055" lon="99.607442">
<time>2014-08-04T22:32:10Z</time></trkpt>
<trkpt lat="25.495265" lon="99.607452">
<time>2014-08-04T22:32:11Z</time></trkpt>
<trkpt lat="25.495365" lon="99.607462">
<time>2014-08-04T22:32:12Z</time></trkpt>
<trkpt lat="25.495475" lon="99.607492">
<time>2014-08-04T22:32:13Z</time></trkpt>
<trkpt lat="25.495555" lon="99.607512">
<time>2014-08-04T22:32:14Z</time></trkpt>
<trkpt lat="25.495645" lon="99.607552">
<time>2014-08-04T22:32:15Z</time></trkpt>
<trkpt lat="25.495725" lon="99.607612">
<time>2014-08-04T22:32:16Z</time></trkpt>
<trkpt lat="25.495785" lon="99.607672">
<time>2014-08-04T22:32:17Z</time></trkpt>
<trkpt lat="25.495865" lon="99.607752">
<time>2014-08-04T22:32:18Z</time></trkpt>
<trkpt lat="25.496045" lon="99.607942">
<time>2014-08-04T22:32:19Z</time></trkpt>
<trkpt lat="25.496215" lon="99.608122">
<time>2014-08-04T22:32:20Z</time></trkpt>
<trkpt lat="25.496265" lon="99.608151">
<time>2014-08-04T22:32:21Z</time></trkpt>
<trkpt lat="25.496305" lon="99.608171">
<time>2014-08-04T22:32:22Z</time></trkpt>
<trkpt lat="25.496345" lon="99.608181">
<time>2014-08-04T22:32:23Z</time></trkpt>
<trkpt lat="25.496385" lon="99.608181">
<time>2014-08-04T22:32:24Z</time></trkpt>
<trkpt lat="25.496405" lon="99.608181">
<time>2014-08-04T22:32:25Z</time></trkpt>
<trkpt lat="25.496435" lon="99.608181">
<time>2014-08-04T22:32:26Z</time></trkpt>
<trkpt lat="25.496475" lon="99.608161">
<time>2014-08-04T22:32:27Z</time></trkpt>
<trkpt lat="25.496505" lon="99.608141">
<time>2014-08-04T22:32:28Z</time></trkpt>
<trkpt lat="25.496525" lon="99.608112">
<time>2014-08-04T22:32:29Z</time></trkpt>
<trkpt lat="25.496545" lon="99.608082">
<time>2014-08-04T22:32:30Z</time></trkpt>
<trkpt lat="25.496565" lon="99.608042">
<time>2014-08-04T22:32:31Z</time></trkpt>
<trkpt lat="25.496575" lon="99.607992">
<time>2014-08-04T22:32:32Z</time></trkpt>
<trkpt lat="25.496585" lon="99.607952">
<time>2014-08-04T22:32:33Z</time></trkpt>
<trkpt lat="25.496575" lon="99.607902">
<time>2014-08-04T22:32:34Z</time></trkpt>
<trkpt lat="25.496565" lon="99.607862">
<time>2014-08-04T22:32:35Z</time></trkpt>
<trkpt lat="25.496545" lon="99.607802">
<time>2014-08-04T22:32:36Z</time></trkpt>
<trkpt lat="25.496515" lon="99.607752">
<time>2014-08-04T22:32:37Z</time></trkpt>
<trkpt lat="25.496475" lon="99.607692">
<time>2014-08-04T22:32:38Z</time></trkpt>
<trkpt lat="25.496395" lon="99.607582">
<time>2014-08-04T22:32:39Z</time></trkpt>
<trkpt lat="25.496135" lon="99.607282">
<time>2014-08-04T22:32:40Z</time></trkpt>
<trkpt lat="25.495965" lon="99.607132">
<time>2014-08-04T22:32:41Z</time></trkpt>
<trkpt lat="25.495845" lon="99.607052">
<time>2014-08-04T22:32:42Z</time></trkpt>
<trkpt lat="25.495735" lon="99.606992">
<time>2014-08-04T22:32:43Z</time></trkpt>
<trkpt lat="25.495465" lon="99.606892">
<time>2014-08-04T22:32:44Z</time></trkpt>
<trkpt lat="25.495185" lon="99.606793">
<time>2014-08-04T22:32:45Z</time></trkpt>
<trkpt lat="25.494735" lon="99.606593">
<time>2014-08-04T22:32:46Z</time></trkpt>
<trkpt lat="25.494635" lon="99.606563">
<time>2014-08-04T22:32:47Z</time></trkpt>
<trkpt lat="25.494475" lon="99.606533">
<time>2014-08-04T22:32:48Z</time></trkpt>
<trkpt lat="25.494475" lon="99.606533">
<time>2014-08-04T22:32:49Z</time></trkpt>
<trkpt lat="25.493745" lon="99.606143">
<time>2014-08-04T22:32:50Z</time></trkpt>
<trkpt lat="25.493505" lon="99.606033">
<time>2014-08-04T22:32:51Z</time></trkpt>
<trkpt lat="25.493475" lon="99.605873">
<time>2014-08-04T22:32:52Z</time></trkpt>
<trkpt lat="25.493475" lon="99.605873">
<time>2014-08-04T22:32:53Z</time></trkpt>
<trkpt lat="25.493465" lon="99.605873">
<time>2014-08-04T22:32:54Z</time></trkpt>
<trkpt lat="25.493295" lon="99.605693">
<time>2014-08-04T22:32:55Z</time></trkpt>
<trkpt lat="25.493205" lon="99.605653">
<time>2014-08-04T22:32:56Z</time></trkpt>
<trkpt lat="25.493005" lon="99.605653">
<time>2014-08-04T22:32:57Z</time></trkpt>
<trkpt lat="25.492745" lon="99.605633">
<time>2014-08-04T22:32:58Z</time></trkpt>
<trkpt lat="25.492645" lon="99.605593">
<time>2014-08-04T22:32:59Z</time></trkpt>
<trkpt lat="25.492545" lon="99.605534">
<time>2014-08-04T22:33:00Z</time></trkpt>
<trkpt lat="25.492325" lon="99.605304">
<time>2014-08-04T22:33:01Z</time></trkpt>
<trkpt lat="25.492195" lon="99.605114">
<time>2014-08-04T22:33:02Z</time></trkpt>
<trkpt lat="25.491955" lon="99.604824">
<time>2014-08-04T22:33:03Z</time></trkpt>
<trkpt lat="25.491755" lon="99.604534">
<time>2014-08-04T22:33:04Z</time></trkpt>
<trkpt lat="25.491455" lon="99.604114">
<time>2014-08-04T22:33:05Z</time></trkpt>
<trkpt lat="25.491455" lon="99.604045">
<time>2014-08-04T22:33:06Z</time></trkpt>
<trkpt lat="25.491525" lon="99.603875">
<time>2014-08-04T22:33:07Z</time></trkpt>
<trkpt lat="25.491555" lon="99.603755">
<time>2014-08-04T22:33:08Z</time></trkpt>
<trkpt lat="25.491555" lon="99.603645">
<time>2014-08-04T22:33:09Z</time></trkpt>
<trkpt lat="25.491525" lon="99.603525">
<time>2014-08-04T22:33:10Z</time></trkpt>
<trkpt lat="25.491455" lon="99.603475">
<time>2014-08-04T22:33:11Z</time></trkpt>
<trkpt lat="25.491385" lon="99.603465">
<time>2014-08-04T22:33:12Z</time></trkpt>
<trkpt lat="25.491225" lon="99.603495">
<time>2014-08-04T22:33:13Z</time></trkpt>
<trkpt lat="25.491125" lon="99.603465">
<time>2014-08-04T22:33:14Z</time></trkpt>
<trkpt lat="25.491055" lon="99.603405">
<time>2014-08-04T22:33:15Z</time></trkpt>
<trkpt lat="25.490835" lon="99.603075">
<time>2014-08-04T22:33:16Z</time></trkpt>
<trkpt lat="25.490735" lon="99.602985">
<time>2014-08-04T22:33:17Z</time></trkpt>
<trkpt lat="25.490485" lon="99.602885">
<time>2014-08-04T22:33:18Z</time></trkpt>
<trkpt lat="25.490405" lon="99.602825">
<time>2014-08-04T22:33:19Z</time></trkpt>
<trkpt lat="25.490335" lon="99.602745">
<time>2014-08-04T22:33:20Z</time></trkpt>
<trkpt lat="25.490285" lon="99.602635">
<time>2014-08-04T22:33:21Z</time></trkpt>
<trkpt lat="25.490255" lon="99.602505">
<time>2014-08-04T22:33:22Z</time></trkpt>
<trkpt lat="25.490245" lon="99.602376">
<time>2014-08-04T22:33:23Z</time></trkpt>
<trkpt lat="25.490175" lon="99.602026">
<time>2014-08-04T22:33:24Z</time></trkpt>
<trkpt lat="25.490125" lon="99.601826">
<time>2014-08-04T22:33:25Z</time></trkpt>
<trkpt lat="25.490115" lon="99.601726">
<time>2014-08-04T22:33:26Z</time></trkpt>
<trkpt lat="25.490065" lon="99.601606">
<time>2014-08-04T22:33:27Z</time></trkpt>
<trkpt lat="25.490015" lon="99.601536">
<time>2014-08-04T22:33:28Z</time></trkpt>
<trkpt lat="25.489835" lon="99.601396">
<time>2014-08-04T22:33:29Z</time></trkpt>
<trkpt lat="25.489625" lon="99.601086">
<time>2014-08-04T22:33:30Z</time></trkpt>
<trkpt lat="25.489575" lon="99.600966">
<time>2014-08-04T22:33:31Z</time></trkpt>
<trkpt lat="25.489495" lon="99.600626">
<time>2014-08-04T22:33:32Z</time></trkpt>
<trkpt lat="25.489445" lon="99.600467">
<time>2014-08-04T22:33:33Z</time></trkpt>
<trkpt lat="25.489445" lon="99.600467">
<time>2014-08-04T22:33:34Z</time></trkpt>
<trkpt lat="25.489445" lon="99.600287">
<time>2014-08-04T22:33:35Z</time></trkpt>
<trkpt lat="25.489485" lon="99.599747">
<time>2014-08-04T22:33:36Z</time></trkpt>
<trkpt lat="25.489515" lon="99.599277">
<time>2014-08-04T22:33:37Z</time></trkpt>
<trkpt lat="25.489535" lon="99.599007">
<time>2014-08-04T22:33:38Z</time></trkpt>
<trkpt lat="25.489555" lon="99.598807">
<time>2014-08-04T22:33:39Z</time></trkpt>
<trkpt lat="25.489585" lon="99.598607">
<time>2014-08-04T22:33:40Z</time></trkpt>
<trkpt lat="25.489676" lon="99.598217">
<time>2014-08-04T22:33:41Z</time></trkpt>
<trkpt lat="25.489716" lon="99.597928">
<time>2014-08-04T22:33:42Z</time></trkpt>
<trkpt lat="25.489746" lon="99.597618">
<time>2014-08-04T22:33:43Z</time></trkpt>
<trkpt lat="25.489766" lon="99.597428">
<time>2014-08-04T22:33:44Z</time></trkpt>
<trkpt lat="25.489766" lon="99.597168">
<time>2014-08-04T22:33:45Z</time></trkpt>
<trkpt lat="25.489736" lon="99.596818">
<time>2014-08-04T22:33:46Z</time></trkpt>
<trkpt lat="25.489716" lon="99.596628">
<time>2014-08-04T22:33:47Z</time></trkpt>
<trkpt lat="25.489666" lon="99.596438">
<time>2014-08-04T22:33:48Z</time></trkpt>
<trkpt lat="25.489626" lon="99.596278">
<time>2014-08-04T22:33:49Z</time></trkpt>
<trkpt lat="25.489455" lon="99.595798">
<time>2014-08-04T22:33:50Z</time></trkpt>
<trkpt lat="25.489315" lon="99.595368">
<time>2014-08-04T22:33:51Z</time></trkpt>
<trkpt lat="25.489135" lon="99.594978">
<time>2014-08-04T22:33:52Z</time></trkpt>
<trkpt lat="25.488905" lon="99.594498">
<time>2014-08-04T22:33:53Z</time></trkpt>
<trkpt lat="25.488805" lon="99.594328">
<time>2014-08-04T22:33:54Z</time></trkpt>
<trkpt lat="25.488685" lon="99.594109">
<time>2014-08-04T22:33:55Z</time></trkpt>
<trkpt lat="25.488595" lon="99.593949">
<time>2014-08-04T22:33:56Z</time></trkpt>
<trkpt lat="25.488565" lon="99.593859">
<time>2014-08-04T22:33:57Z</time></trkpt>
<trkpt lat="25.488545" lon="99.593759">
<time>2014-08-04T22:33:58Z</time></trkpt>
<trkpt lat="25.488555" lon="99.593379">
<time>2014-08-04T22:33:59Z</time></trkpt>
<trkpt lat="25.488555" lon="99.593259">
<time>2014-08-04T22:34:00Z</time></trkpt>
<trkpt lat="25.488535" lon="99.593109">
<time>2014-08-04T22:34:01Z</time></trkpt>
<trkpt lat="25.488465" lon="99.592899">
<time>2014-08-04T22:34:02Z</time></trkpt>
<trkpt lat="25.488415" lon="99.592739">
<time>2014-08-04T22:34:03Z</time></trkpt>
<trkpt lat="25.488065" lon="99.591849">
<time>2014-08-04T22:34:04Z</time></trkpt>
<trkpt lat="25.487984" lon="99.591689">
<time>2014-08-04T22:34:05Z</time></trkpt>
<trkpt lat="25.487874" lon="99.591499">
<time>2014-08-04T22:34:06Z</time></trkpt>
<trkpt lat="25.487764" lon="99.591349">
<time>2014-08-04T22:34:07Z</time></trkpt>
<trkpt lat="25.487084" lon="99.590599">
<time>2014-08-04T22:34:08Z</time></trkpt>
<trkpt lat="25.486804" lon="99.590299">
<time>2014-08-04T22:34:09Z</time></trkpt>
<trkpt lat="25.486634" lon="99.590139">
<time>2014-08-04T22:34:10Z</time></trkpt>
<trkpt lat="25.486484" lon="99.590019">
<time>2014-08-04T22:34:11Z</time></trkpt>
<trkpt lat="25.486213" lon="99.589879">
<time>2014-08-04T22:34:12Z</time></trkpt>
<trkpt lat="25.485603" lon="99.589619">
<time>2014-08-04T22:34:13Z</time></trkpt>
<trkpt lat="25.485253" lon="99.589439">
<time>2014-08-04T22:34:14Z</time></trkpt>
<trkpt lat="25.484773" lon="99.589179">
<time>2014-08-04T22:34:15Z</time></trkpt>
<trkpt lat="25.484573" lon="99.589049">
<time>2014-08-04T22:34:16Z</time></trkpt>
<trkpt lat="25.484473" lon="99.588949">
<time>2014-08-04T22:34:17Z</time></trkpt>
<trkpt lat="25.484373" lon="99.588799">
<time>2014-08-04T22:34:18Z</time></trkpt>
<trkpt lat="25.484282" lon="99.588629">
<time>2014-08-04T22:34:19Z</time></trkpt>
<trkpt lat="25.484182" lon="99.588509">
<time>2014-08-04T22:34:20Z</time></trkpt>
<trkpt lat="25.484092" lon="99.588439">
<time>2014-08-04T22:34:21Z</time></trkpt>
<trkpt lat="25.483952" lon="99.588389">
<time>2014-08-04T22:34:22Z</time></trkpt>
<trkpt lat="25.483522" lon="99.588329">
<time>2014-08-04T22:34:23Z</time></trkpt>
<trkpt lat="25.483342" lon="99.588279">
<time>2014-08-04T22:34:24Z</time></trkpt>
<trkpt lat="25.483212" lon="99.588189">
<time>2014-08-04T22:34:25Z</time></trkpt>
<trkpt lat="25.483082" lon="99.588059">
<time>2014-08-04T22:34:26Z</time></trkpt>
<trkpt lat="25.482942" lon="99.587889">
<time>2014-08-04T22:34:27Z</time></trkpt>
<trkpt lat="25.482812" lon="99.587749">
<time>2014-08-04T22:34:28Z</time></trkpt>
<trkpt lat="25.482702" lon="99.587669">
<time>2014-08-04T22:34:29Z</time></trkpt>
<trkpt lat="25.482592" lon="99.587619">
<time>2014-08-04T22:34:30Z</time></trkpt>
<trkpt lat="25.482431" lon="99.587569">
<time>2014-08-04T22:34:31Z</time></trkpt>
<trkpt lat="25.482261" lon="99.587559">
<time>2014-08-04T22:34:32Z</time></trkpt>
<trkpt lat="25.482051" lon="99.587569">
<time>2014-08-04T22:34:33Z</time></trkpt>
<trkpt lat="25.481931" lon="99.587549">
<time>2014-08-04T22:34:34Z</time></trkpt>
<trkpt lat="25.481801" lon="99.587489">
<time>2014-08-04T22:34:35Z</time></trkpt>
<trkpt lat="25.481661" lon="99.587359">
<time>2014-08-04T22:34:36Z</time></trkpt>
<trkpt lat="25.481531" lon="99.587199">
<time>2014-08-04T22:34:37Z</time></trkpt>
<trkpt lat="25.481411" lon="99.587079">
<time>2014-08-04T22:34:38Z</time></trkpt>
<trkpt lat="25.481331" lon="99.587009">
<time>2014-08-04T22:34:39Z</time></trkpt>
<trkpt lat="25.481251" lon="99.586969">
<time>2014-08-04T22:34:40Z</time></trkpt>
<trkpt lat="25.481151" lon="99.586939">
<time>2014-08-04T22:34:41Z</time></trkpt>
<trkpt lat="25.481001" lon="99.586929">
<time>2014-08-04T22:34:42Z</time></trkpt>
<trkpt lat="25.480641" lon="99.586929">
<time>2014-08-04T22:34:43Z</time></trkpt>
<trkpt lat="25.480471" lon="99.586909">
<time>2014-08-04T22:34:44Z</time></trkpt>
<trkpt lat="25.480261" lon="99.586839">
<time>2014-08-04T22:34:45Z</time></trkpt>
<trkpt lat="25.4801" lon="99.586759">
<time>2014-08-04T22:34:46Z</time></trkpt>
<trkpt lat="25.47969" lon="99.586559">
<time>2014-08-04T22:34:47Z</time></trkpt>
<trkpt lat="25.47955" lon="99.586459">
<time>2014-08-04T22:34:48Z</time></trkpt>
<trkpt lat="25.47945" lon="99.586349">
<time>2014-08-04T22:34:49Z</time></trkpt>
<trkpt lat="25.47933" lon="99.586189">
<time>2014-08-04T22:34:50Z</time></trkpt>
<trkpt lat="25.47922" lon="99.586058">
<time>2014-08-04T22:34:51Z</time></trkpt>
<trkpt lat="25.47909" lon="99.585948">
<time>2014-08-04T22:34:52Z</time></trkpt>
<trkpt lat="25.47897" lon="99.585878">
<time>2014-08-04T22:34:53Z</time></trkpt>
<trkpt lat="25.47888" lon="99.585848">
<time>2014-08-04T22:34:54Z</time></trkpt>
<trkpt lat="25.47877" lon="99.585828">
<time>2014-08-04T22:34:55Z</time></trkpt>
<trkpt lat="25.47861" lon="99.585848">
<time>2014-08-04T22:34:56Z</time></trkpt>
<trkpt lat="25.47844" lon="99.585888">
<time>2014-08-04T22:34:57Z</time></trkpt>
<trkpt lat="25.47829" lon="99.585938">
<time>2014-08-04T22:34:58Z</time></trkpt>
<trkpt lat="25.478049" lon="99.586039">
<time>2014-08-04T22:34:59Z</time></trkpt>
<trkpt lat="25.477819" lon="99.586129">
<time>2014-08-04T22:35:00Z</time></trkpt>
<trkpt lat="25.477579" lon="99.586199">
<time>2014-08-04T22:35:01Z</time></trkpt>
<trkpt lat="25.477289" lon="99.586259">
<time>2014-08-04T22:35:02Z</time></trkpt>
<trkpt lat="25.477079" lon="99.586269">
<time>2014-08-04T22:35:03Z</time></trkpt>
<trkpt lat="25.476939" lon="99.586259">
<time>2014-08-04T22:35:04Z</time></trkpt>
<trkpt lat="25.476789" lon="99.586249">
<time>2014-08-04T22:35:05Z</time></trkpt>
<trkpt lat="25.476519" lon="99.586189">
<time>2014-08-04T22:35:06Z</time></trkpt>
<trkpt lat="25.476339" lon="99.586129">
<time>2014-08-04T22:35:07Z</time></trkpt>
<trkpt lat="25.476209" lon="99.586059">
<time>2014-08-04T22:35:08Z</time></trkpt>
<trkpt lat="25.475889" lon="99.585778">
<time>2014-08-04T22:35:09Z</time></trkpt>
<trkpt lat="25.475468" lon="99.585418">
<time>2014-08-04T22:35:10Z</time></trkpt>
<trkpt lat="25.475258" lon="99.585238">
<time>2014-08-04T22:35:11Z</time></trkpt>
<trkpt lat="25.475098" lon="99.585088">
<time>2014-08-04T22:35:12Z</time></trkpt>
<trkpt lat="25.474978" lon="99.584958">
<time>2014-08-04T22:35:13Z</time></trkpt>
<trkpt lat="25.474888" lon="99.584778">
<time>2014-08-04T22:35:14Z</time></trkpt>
<trkpt lat="25.474788" lon="99.584538">
<time>2014-08-04T22:35:15Z</time></trkpt>
<trkpt lat="25.474708" lon="99.584328">
<time>2014-08-04T22:35:16Z</time></trkpt>
<trkpt lat="25.474638" lon="99.584188">
<time>2014-08-04T22:35:17Z</time></trkpt>
<trkpt lat="25.474507" lon="99.584038">
<time>2014-08-04T22:35:18Z</time></trkpt>
<trkpt lat="25.474337" lon="99.583918">
<time>2014-08-04T22:35:19Z</time></trkpt>
<trkpt lat="25.473997" lon="99.583728">
<time>2014-08-04T22:35:20Z</time></trkpt>
<trkpt lat="25.473757" lon="99.583568">
<time>2014-08-04T22:35:21Z</time></trkpt>
<trkpt lat="25.473587" lon="99.583428">
<time>2014-08-04T22:35:22Z</time></trkpt>
<trkpt lat="25.473407" lon="99.583278">
<time>2014-08-04T22:35:23Z</time></trkpt>
<trkpt lat="25.473076" lon="99.583008">
<time>2014-08-04T22:35:24Z</time></trkpt>
<trkpt lat="25.472886" lon="99.582828">
<time>2014-08-04T22:35:25Z</time></trkpt>
<trkpt lat="25.472716" lon="99.582588">
<time>2014-08-04T22:35:26Z</time></trkpt>
<trkpt lat="25.472616" lon="99.582458">
<time>2014-08-04T22:35:27Z</time></trkpt>
<trkpt lat="25.472386" lon="99.582207">
<time>2014-08-04T22:35:28Z</time></trkpt>
<trkpt lat="25.472256" lon="99.582017">
<time>2014-08-04T22:35:29Z</time></trkpt>
<trkpt lat="25.472035" lon="99.581617">
<time>2014-08-04T22:35:30Z</time></trkpt>
<trkpt lat="25.471825" lon="99.581107">
<time>2014-08-04T22:35:31Z</time></trkpt>
<trkpt lat="25.471705" lon="99.580817">
<time>2014-08-04T22:35:32Z</time></trkpt>
<trkpt lat="25.471634" lon="99.580557">
<time>2014-08-04T22:35:33Z</time></trkpt>
<trkpt lat="25.471544" lon="99.580277">
<time>2014-08-04T22:35:34Z</time></trkpt>
<trkpt lat="25.471394" lon="99.579956">
<time>2014-08-04T22:35:35Z</time></trkpt>
<trkpt lat="25.471103" lon="99.579386">
<time>2014-08-04T22:35:36Z</time></trkpt>
<trkpt lat="25.470823" lon="99.578816">
<time>2014-08-04T22:35:37Z</time></trkpt>
<trkpt lat="25.470492" lon="99.578145">
<time>2014-08-04T22:35:38Z</time></trkpt>
<trkpt lat="25.470212" lon="99.577685">
<time>2014-08-04T22:35:39Z</time></trkpt>
<trkpt lat="25.470081" lon="99.577405">
<time>2014-08-04T22:35:40Z</time></trkpt>
<trkpt lat="25.469971" lon="99.577115">
<time>2014-08-04T22:35:41Z</time></trkpt>
<trkpt lat="25.469841" lon="99.576654">
<time>2014-08-04T22:35:42Z</time></trkpt>
<trkpt lat="25.46966" lon="99.575864">
<time>2014-08-04T22:35:43Z</time></trkpt>
<trkpt lat="25.46965" lon="99.575804">
<time>2014-08-04T22:35:44Z</time></trkpt>
<trkpt lat="25.46964" lon="99.575754">
<time>2014-08-04T22:35:45Z</time></trkpt>
<trkpt lat="25.46965" lon="99.575654">
<time>2014-08-04T22:35:46Z</time></trkpt>
<trkpt lat="25.46967" lon="99.575594">
<time>2014-08-04T22:35:47Z</time></trkpt>
<trkpt lat="25.46969" lon="99.575534">
<time>2014-08-04T22:35:48Z</time></trkpt>
<trkpt lat="25.469779" lon="99.575354">
<time>2014-08-04T22:35:49Z</time></trkpt>
<trkpt lat="25.470049" lon="99.574883">
<time>2014-08-04T22:35:50Z</time></trkpt>
<trkpt lat="25.470089" lon="99.574783">
<time>2014-08-04T22:35:51Z</time></trkpt>
<trkpt lat="25.470109" lon="99.574683">
<time>2014-08-04T22:35:52Z</time></trkpt>
<trkpt lat="25.470079" lon="99.574593">
<time>2014-08-04T22:35:53Z</time></trkpt>
<trkpt lat="25.470029" lon="99.574523">
<time>2014-08-04T22:35:54Z</time></trkpt>
<trkpt lat="25.469949" lon="99.574483">
<time>2014-08-04T22:35:55Z</time></trkpt>
<trkpt lat="25.469849" lon="99.574463">
<time>2014-08-04T22:35:56Z</time></trkpt>
<trkpt lat="25.469749" lon="99.574483">
<time>2014-08-04T22:35:57Z</time></trkpt>
<trkpt lat="25.469619" lon="99.574523">
<time>2014-08-04T22:35:58Z</time></trkpt>
<trkpt lat="25.469429" lon="99.574603">
<time>2014-08-04T22:35:59Z</time></trkpt>
<trkpt lat="25.469079" lon="99.574763">
<time>2014-08-04T22:36:00Z</time></trkpt>
<trkpt lat="25.468949" lon="99.574793">
<time>2014-08-04T22:36:01Z</time></trkpt>
<trkpt lat="25.468879" lon="99.574793">
<time>2014-08-04T22:36:02Z</time></trkpt>
<trkpt lat="25.468819" lon="99.574793">
<time>2014-08-04T22:36:03Z</time></trkpt>
<trkpt lat="25.468749" lon="99.574773">
<time>2014-08-04T22:36:04Z</time></trkpt>
<trkpt lat="25.468678" lon="99.574743">
<time>2014-08-04T22:36:05Z</time></trkpt>
<trkpt lat="25.468508" lon="99.574653">
<time>2014-08-04T22:36:06Z</time></trkpt>
<trkpt lat="25.468348" lon="99.574533">
<time>2014-08-04T22:36:07Z</time></trkpt>
<trkpt lat="25.467878" lon="99.574183">
<time>2014-08-04T22:36:08Z</time></trkpt>
<trkpt lat="25.467788" lon="99.574083">
<time>2014-08-04T22:36:09Z</time></trkpt>
<trkpt lat="25.467738" lon="99.574033">
<time>2014-08-04T22:36:10Z</time></trkpt>
<trkpt lat="25.467707" lon="99.573993">
<time>2014-08-04T22:36:11Z</time></trkpt>
<trkpt lat="25.467687" lon="99.573932">
<time>2014-08-04T22:36:12Z</time></trkpt>
<trkpt lat="25.467657" lon="99.573872">
<time>2014-08-04T22:36:13Z</time></trkpt>
<trkpt lat="25.467547" lon="99.573482">
<time>2014-08-04T22:36:14Z</time></trkpt>
<trkpt lat="25.467477" lon="99.573282">
<time>2014-08-04T22:36:15Z</time></trkpt>
<trkpt lat="25.467407" lon="99.573162">
<time>2014-08-04T22:36:16Z</time></trkpt>
<trkpt lat="25.467256" lon="99.572922">
<time>2014-08-04T22:36:17Z</time></trkpt>
<trkpt lat="25.467046" lon="99.572621">
<time>2014-08-04T22:36:18Z</time></trkpt>
<trkpt lat="25.466775" lon="99.572191">
<time>2014-08-04T22:36:19Z</time></trkpt>
<trkpt lat="25.466735" lon="99.572131">
<time>2014-08-04T22:36:20Z</time></trkpt>
<trkpt lat="25.466655" lon="99.572051">
<time>2014-08-04T22:36:21Z</time></trkpt>
<trkpt lat="25.466575" lon="99.571991">
<time>2014-08-04T22:36:22Z</time></trkpt>
<trkpt lat="25.466485" lon="99.571921">
<time>2014-08-04T22:36:23Z</time></trkpt>
<trkpt lat="25.466275" lon="99.571791">
<time>2014-08-04T22:36:24Z</time></trkpt>
<trkpt lat="25.466014" lon="99.5716">
<time>2014-08-04T22:36:25Z</time></trkpt>
<trkpt lat="25.465844" lon="99.57145">
<time>2014-08-04T22:36:26Z</time></trkpt>
<trkpt lat="25.465794" lon="99.57138">
<time>2014-08-04T22:36:27Z</time></trkpt>
<trkpt lat="25.465744" lon="99.57132">
<time>2014-08-04T22:36:28Z</time></trkpt>
<trkpt lat="25.465714" lon="99.57126">
<time>2014-08-04T22:36:29Z</time></trkpt>
<trkpt lat="25.465684" lon="99.5712">
<time>2014-08-04T22:36:30Z</time></trkpt>
<trkpt lat="25.465664" lon="99.57114">
<time>2014-08-04T22:36:31Z</time></trkpt>
<trkpt lat="25.465664" lon="99.57107">
<time>2014-08-04T22:36:32Z</time></trkpt>
<trkpt lat="25.465664" lon="99.571">
<time>2014-08-04T22:36:33Z</time></trkpt>
<trkpt lat="25.465664" lon="99.57093">
<time>2014-08-04T22:36:34Z</time></trkpt>
<trkpt lat="25.465673" lon="99.57068">
<time>2014-08-04T22:36:35Z</time></trkpt>
<trkpt lat="25.465663" lon="99.57057">
<time>2014-08-04T22:36:36Z</time></trkpt>
<trkpt lat="25.465633" lon="99.570449">
<time>2014-08-04T22:36:37Z</time></trkpt>
<trkpt lat="25.465593" lon="99.570339">
<time>2014-08-04T22:36:38Z</time></trkpt>
<trkpt lat="25.465513" lon="99.570179">
<time>2014-08-04T22:36:39Z</time></trkpt>
<trkpt lat="25.465352" lon="99.569909">
<time>2014-08-04T22:36:40Z</time></trkpt>
<trkpt lat="25.465282" lon="99.569779">
<time>2014-08-04T22:36:41Z</time></trkpt>
<trkpt lat="25.465222" lon="99.569589">
<time>2014-08-04T22:36:42Z</time></trkpt>
<trkpt lat="25.465161" lon="99.569268">
<time>2014-08-04T22:36:43Z</time></trkpt>
<trkpt lat="25.465091" lon="99.569038">
<time>2014-08-04T22:36:44Z</time></trkpt>
<trkpt lat="25.465001" lon="99.568818">
<time>2014-08-04T22:36:45Z</time></trkpt>
<trkpt lat="25.46459" lon="99.567957">
<time>2014-08-04T22:36:46Z</time></trkpt>
<trkpt lat="25.464459" lon="99.567747">
<time>2014-08-04T22:36:47Z</time></trkpt>
<trkpt lat="25.463688" lon="99.566766">
<time>2014-08-04T22:36:48Z</time></trkpt>
<trkpt lat="25.463508" lon="99.566615">
<time>2014-08-04T22:36:49Z</time></trkpt>
<trkpt lat="25.463357" lon="99.566465">
<time>2014-08-04T22:36:50Z</time></trkpt>
<trkpt lat="25.463327" lon="99.566415">
<time>2014-08-04T22:36:51Z</time></trkpt>
<trkpt lat="25.463297" lon="99.566355">
<time>2014-08-04T22:36:52Z</time></trkpt>
<trkpt lat="25.463247" lon="99.566185">
<time>2014-08-04T22:36:53Z</time></trkpt>
<trkpt lat="25.463196" lon="99.565855">
<time>2014-08-04T22:36:54Z</time></trkpt>
<trkpt lat="25.463106" lon="99.565594">
<time>2014-08-04T22:36:55Z</time></trkpt>
<trkpt lat="25.462946" lon="99.565244">
<time>2014-08-04T22:36:56Z</time></trkpt>
<trkpt lat="25.462875" lon="99.565054">
<time>2014-08-04T22:36:57Z</time></trkpt>
<trkpt lat="25.462825" lon="99.564863">
<time>2014-08-04T22:36:58Z</time></trkpt>
<trkpt lat="25.462805" lon="99.564663">
<time>2014-08-04T22:36:59Z</time></trkpt>
<trkpt lat="25.462814" lon="99.564503">
<time>2014-08-04T22:37:00Z</time></trkpt>
<trkpt lat="25.462854" lon="99.564323">
<time>2014-08-04T22:37:01Z</time></trkpt>
<trkpt lat="25.462944" lon="99.564032">
<time>2014-08-04T22:37:02Z</time></trkpt>
<trkpt lat="25.463003" lon="99.563792">
<time>2014-08-04T22:37:03Z</time></trkpt>
<trkpt lat="25.463013" lon="99.563592">
<time>2014-08-04T22:37:04Z</time></trkpt>
<trkpt lat="25.462993" lon="99.563341">
<time>2014-08-04T22:37:05Z</time></trkpt>
<trkpt lat="25.462993" lon="99.563161">
<time>2014-08-04T22:37:06Z</time></trkpt>
<trkpt lat="25.463012" lon="99.563061">
<time>2014-08-04T22:37:07Z</time></trkpt>
<trkpt lat="25.463062" lon="99.562911">
<time>2014-08-04T22:37:08Z</time></trkpt>
<trkpt lat="25.463182" lon="99.562681">
<time>2014-08-04T22:37:09Z</time></trkpt>
<trkpt lat="25.463262" lon="99.56253">
<time>2014-08-04T22:37:10Z</time></trkpt>
<trkpt lat="25.463361" lon="99.56221">
<time>2014-08-04T22:37:11Z</time></trkpt>
<trkpt lat="25.463431" lon="99.56196">
<time>2014-08-04T22:37:12Z</time></trkpt>
<trkpt lat="25.463511" lon="99.561759">
<time>2014-08-04T22:37:13Z</time></trkpt>
<trkpt lat="25.46361" lon="99.561539">
<time>2014-08-04T22:37:14Z</time></trkpt>
<trkpt lat="25.46378" lon="99.561148">
<time>2014-08-04T22:37:15Z</time></trkpt>
<trkpt lat="25.463869" lon="99.560998">
<time>2014-08-04T22:37:16Z</time></trkpt>
<trkpt lat="25.464119" lon="99.560778">
<time>2014-08-04T22:37:17Z</time></trkpt>
<trkpt lat="25.464279" lon="99.560628">
<time>2014-08-04T22:37:18Z</time></trkpt>
<trkpt lat="25.464339" lon="99.560548">
<time>2014-08-04T22:37:19Z</time></trkpt>
<trkpt lat="25.464389" lon="99.560477">
<time>2014-08-04T22:37:20Z</time></trkpt>
<trkpt lat="25.464429" lon="99.560397">
<time>2014-08-04T22:37:21Z</time></trkpt>
<trkpt lat="25.464459" lon="99.560327">
<time>2014-08-04T22:37:22Z</time></trkpt>
<trkpt lat="25.464518" lon="99.560137">
<time>2014-08-04T22:37:23Z</time></trkpt>
<trkpt lat="25.464598" lon="99.559907">
<time>2014-08-04T22:37:24Z</time></trkpt>
<trkpt lat="25.464698" lon="99.559716">
<time>2014-08-04T22:37:25Z</time></trkpt>
<trkpt lat="25.464897" lon="99.559426">
<time>2014-08-04T22:37:26Z</time></trkpt>
<trkpt lat="25.465067" lon="99.559196">
<time>2014-08-04T22:37:27Z</time></trkpt>
<trkpt lat="25.465117" lon="99.559075">
<time>2014-08-04T22:37:28Z</time></trkpt>
<trkpt lat="25.465157" lon="99.558985">
<time>2014-08-04T22:37:29Z</time></trkpt>
<trkpt lat="25.465186" lon="99.558835">
<time>2014-08-04T22:37:30Z</time></trkpt>
<trkpt lat="25.465206" lon="99.558665">
<time>2014-08-04T22:37:31Z</time></trkpt>
<trkpt lat="25.465215" lon="99.558084">
<time>2014-08-04T22:37:32Z</time></trkpt>
<trkpt lat="25.465235" lon="99.557844">
<time>2014-08-04T22:37:33Z</time></trkpt>
<trkpt lat="25.465254" lon="99.557633">
<time>2014-08-04T22:37:34Z</time></trkpt>
<trkpt lat="25.465324" lon="99.557373">
<time>2014-08-04T22:37:35Z</time></trkpt>
<trkpt lat="25.465423" lon="99.557062">
<time>2014-08-04T22:37:36Z</time></trkpt>
<trkpt lat="25.465513" lon="99.556802">
<time>2014-08-04T22:37:37Z</time></trkpt>
<trkpt lat="25.465553" lon="99.556652">
<time>2014-08-04T22:37:38Z</time></trkpt>
<trkpt lat="25.465602" lon="99.556301">
<time>2014-08-04T22:37:39Z</time></trkpt>
<trkpt lat="25.465691" lon="99.55575">
<time>2014-08-04T22:37:40Z</time></trkpt>
<trkpt lat="25.465701" lon="99.55563">
<time>2014-08-04T22:37:41Z</time></trkpt>
<trkpt lat="25.465691" lon="99.55549">
<time>2014-08-04T22:37:42Z</time></trkpt>
<trkpt lat="25.46567" lon="99.55541">
<time>2014-08-04T22:37:43Z</time></trkpt>
<trkpt lat="25.46556" lon="99.555139">
<time>2014-08-04T22:37:44Z</time></trkpt>
<trkpt lat="25.46551" lon="99.554969">
<time>2014-08-04T22:37:45Z</time></trkpt>
<trkpt lat="25.465499" lon="99.554859">
<time>2014-08-04T22:37:46Z</time></trkpt>
<trkpt lat="25.465519" lon="99.554719">
<time>2014-08-04T22:37:47Z</time></trkpt>
<trkpt lat="25.465579" lon="99.554458">
<time>2014-08-04T22:37:48Z</time></trkpt>
<trkpt lat="25.465608" lon="99.554268">
<time>2014-08-04T22:37:49Z</time></trkpt>
<trkpt lat="25.465608" lon="99.554077">
<time>2014-08-04T22:37:50Z</time></trkpt>
<trkpt lat="25.465548" lon="99.553897">
<time>2014-08-04T22:37:51Z</time></trkpt>
<trkpt lat="25.465276" lon="99.553286">
<time>2014-08-04T22:37:52Z</time></trkpt>
<trkpt lat="25.465176" lon="99.552986">
<time>2014-08-04T22:37:53Z</time></trkpt>
<trkpt lat="25.465075" lon="99.552685">
<time>2014-08-04T22:37:54Z</time></trkpt>
<trkpt lat="25.465015" lon="99.552485">
<time>2014-08-04T22:37:55Z</time></trkpt>
<trkpt lat="25.465015" lon="99.552485">
<time>2014-08-04T22:37:56Z</time></trkpt>
<trkpt lat="25.464975" lon="99.552445">
<time>2014-08-04T22:37:57Z</time></trkpt>
<trkpt lat="25.464945" lon="99.552425">
<time>2014-08-04T22:37:58Z</time></trkpt>
<trkpt lat="25.464915" lon="99.552405">
<time>2014-08-04T22:37:59Z</time></trkpt>
<trkpt lat="25.464895" lon="99.552395">
<time>2014-08-04T22:38:00Z</time></trkpt>
<trkpt lat="25.464865" lon="99.552375">
<time>2014-08-04T22:38:01Z</time></trkpt>
<trkpt lat="25.464835" lon="99.552375">
<time>2014-08-04T22:38:02Z</time></trkpt>
<trkpt lat="25.464805" lon="99.552365">
<time>2014-08-04T22:38:03Z</time></trkpt>
<trkpt lat="25.464775" lon="99.552355">
<time>2014-08-04T22:38:04Z</time></trkpt>
<trkpt lat="25.464665" lon="99.552365">
<time>2014-08-04T22:38:05Z</time></trkpt>
<trkpt lat="25.464585" lon="99.552375">
<time>2014-08-04T22:38:06Z</time></trkpt>
<trkpt lat="25.464515" lon="99.552375">
<time>2014-08-04T22:38:07Z</time></trkpt>
<trkpt lat="25.464454" lon="99.552365">
<time>2014-08-04T22:38:08Z</time></trkpt>
<trkpt lat="25.464414" lon="99.552345">
<time>2014-08-04T22:38:09Z</time></trkpt>
<trkpt lat="25.464334" lon="99.552314">
<time>2014-08-04T22:38:10Z</time></trkpt>
<trkpt lat="25.464284" lon="99.552284">
<time>2014-08-04T22:38:11Z</time></trkpt>
<trkpt lat="25.464224" lon="99.552224">
<time>2014-08-04T22:38:12Z</time></trkpt>
<trkpt lat="25.464144" lon="99.552134">
<time>2014-08-04T22:38:13Z</time></trkpt>
<trkpt lat="25.464094" lon="99.552064">
<time>2014-08-04T22:38:14Z</time></trkpt>
<trkpt lat="25.463973" lon="99.551874">
<time>2014-08-04T22:38:15Z</time></trkpt>
<trkpt lat="25.463692" lon="99.551383">
<time>2014-08-04T22:38:16Z</time></trkpt>
<trkpt lat="25.463542" lon="99.551122">
<time>2014-08-04T22:38:17Z</time></trkpt>
<trkpt lat="25.463331" lon="99.550842">
<time>2014-08-04T22:38:18Z</time></trkpt>
<trkpt lat="25.462619" lon="99.55004">
<time>2014-08-04T22:38:19Z</time></trkpt>
<trkpt lat="25.462549" lon="99.54997">
<time>2014-08-04T22:38:20Z</time></trkpt>
<trkpt lat="25.462479" lon="99.54991">
<time>2014-08-04T22:38:21Z</time></trkpt>
<trkpt lat="25.462259" lon="99.54978">
<time>2014-08-04T22:38:22Z</time></trkpt>
<trkpt lat="25.462109" lon="99.54967">
<time>2014-08-04T22:38:23Z</time></trkpt>
<trkpt lat="25.461988" lon="99.54956">
<time>2014-08-04T22:38:24Z</time></trkpt>
<trkpt lat="25.461848" lon="99.549389">
<time>2014-08-04T22:38:25Z</time></trkpt>
<trkpt lat="25.461657" lon="99.549139">
<time>2014-08-04T22:38:26Z</time></trkpt>
<trkpt lat="25.461487" lon="99.548938">
<time>2014-08-04T22:38:27Z</time></trkpt>
<trkpt lat="25.461327" lon="99.548778">
<time>2014-08-04T22:38:28Z</time></trkpt>
<trkpt lat="25.461136" lon="99.548648">
<time>2014-08-04T22:38:29Z</time></trkpt>
<trkpt lat="25.460946" lon="99.548538">
<time>2014-08-04T22:38:30Z</time></trkpt>
<trkpt lat="25.460846" lon="99.548467">
<time>2014-08-04T22:38:31Z</time></trkpt>
<trkpt lat="25.460756" lon="99.548397">
<time>2014-08-04T22:38:32Z</time></trkpt>
<trkpt lat="25.460715" lon="99.548347">
<time>2014-08-04T22:38:33Z</time></trkpt>
<trkpt lat="25.460675" lon="99.548307">
<time>2014-08-04T22:38:34Z</time></trkpt>
<trkpt lat="25.460635" lon="99.548247">
<time>2014-08-04T22:38:35Z</time></trkpt>
<trkpt lat="25.460354" lon="99.547796">
<time>2014-08-04T22:38:36Z</time></trkpt>
<trkpt lat="25.460244" lon="99.547636">
<time>2014-08-04T22:38:37Z</time></trkpt>
<trkpt lat="25.460184" lon="99.547566">
<time>2014-08-04T22:38:38Z</time></trkpt>
<trkpt lat="25.460103" lon="99.547486">
<time>2014-08-04T22:38:39Z</time></trkpt>
<trkpt lat="25.460003" lon="99.547395">
<time>2014-08-04T22:38:40Z</time></trkpt>
<trkpt lat="25.459793" lon="99.547245">
<time>2014-08-04T22:38:41Z</time></trkpt>
<trkpt lat="25.459603" lon="99.547095">
<time>2014-08-04T22:38:42Z</time></trkpt>
<trkpt lat="25.459512" lon="99.547015">
<time>2014-08-04T22:38:43Z</time></trkpt>
<trkpt lat="25.459412" lon="99.546874">
<time>2014-08-04T22:38:44Z</time></trkpt>
<trkpt lat="25.459352" lon="99.546774">
<time>2014-08-04T22:38:45Z</time></trkpt>
<trkpt lat="25.459241" lon="99.546524">
<time>2014-08-04T22:38:46Z</time></trkpt>
<trkpt lat="25.459141" lon="99.546333">
<time>2014-08-04T22:38:47Z</time></trkpt>
<trkpt lat="25.45904" lon="99.546183">
<time>2014-08-04T22:38:48Z</time></trkpt>
<trkpt lat="25.45892" lon="99.546043">
<time>2014-08-04T22:38:49Z</time></trkpt>
<trkpt lat="25.45882" lon="99.545963">
<time>2014-08-04T22:38:50Z</time></trkpt>
<trkpt lat="25.45872" lon="99.545913">
<time>2014-08-04T22:38:51Z</time></trkpt>
<trkpt lat="25.4586" lon="99.545882">
<time>2014-08-04T22:38:52Z</time></trkpt>
<trkpt lat="25.45853" lon="99.545872">
<time>2014-08-04T22:38:53Z</time></trkpt>
<trkpt lat="25.45838" lon="99.545882">
<time>2014-08-04T22:38:54Z</time></trkpt>
<trkpt lat="25.4577" lon="99.545963">
<time>2014-08-04T22:38:55Z</time></trkpt>
<trkpt lat="25.45742" lon="99.545983">
<time>2014-08-04T22:38:56Z</time></trkpt>
<trkpt lat="25.457189" lon="99.545963">
<time>2014-08-04T22:38:57Z</time></trkpt>
<trkpt lat="25.456979" lon="99.545913">
<time>2014-08-04T22:38:58Z</time></trkpt>
<trkpt lat="25.456629" lon="99.545822">
<time>2014-08-04T22:38:59Z</time></trkpt>
<trkpt lat="25.455208" lon="99.545392">
<time>2014-08-04T22:39:00Z</time></trkpt>
<trkpt lat="25.454427" lon="99.545091">
<time>2014-08-04T22:39:01Z</time></trkpt>
<trkpt lat="25.453866" lon="99.54486">
<time>2014-08-04T22:39:02Z</time></trkpt>
<trkpt lat="25.453516" lon="99.54469">
<time>2014-08-04T22:39:03Z</time></trkpt>
<trkpt lat="25.453325" lon="99.54458">
<time>2014-08-04T22:39:04Z</time></trkpt>
<trkpt lat="25.453125" lon="99.54446">
<time>2014-08-04T22:39:05Z</time></trkpt>
<trkpt lat="25.452644" lon="99.544109">
<time>2014-08-04T22:39:06Z</time></trkpt>
<trkpt lat="25.451833" lon="99.543538">
<time>2014-08-04T22:39:07Z</time></trkpt>
<trkpt lat="25.451292" lon="99.543147">
<time>2014-08-04T22:39:08Z</time></trkpt>
<trkpt lat="25.451031" lon="99.542967">
<time>2014-08-04T22:39:09Z</time></trkpt>
<trkpt lat="25.450821" lon="99.542816">
<time>2014-08-04T22:39:10Z</time></trkpt>
<trkpt lat="25.450701" lon="99.542706">
<time>2014-08-04T22:39:11Z</time></trkpt>
<trkpt lat="25.45056" lon="99.542536">
<time>2014-08-04T22:39:12Z</time></trkpt>
<trkpt lat="25.450259" lon="99.542115">
<time>2014-08-04T22:39:13Z</time></trkpt>
<trkpt lat="25.449988" lon="99.541744">
<time>2014-08-04T22:39:14Z</time></trkpt>
<trkpt lat="25.449607" lon="99.541243">
<time>2014-08-04T22:39:15Z</time></trkpt>
<trkpt lat="25.449537" lon="99.541133">
<time>2014-08-04T22:39:16Z</time></trkpt>
<trkpt lat="25.449466" lon="99.541022">
<time>2014-08-04T22:39:17Z</time></trkpt>
<trkpt lat="25.449316" lon="99.540832">
<time>2014-08-04T22:39:18Z</time></trkpt>
<trkpt lat="25.449286" lon="99.540782">
<time>2014-08-04T22:39:19Z</time></trkpt>
<trkpt lat="25.449165" lon="99.540632">
<time>2014-08-04T22:39:20Z</time></trkpt>
<trkpt lat="25.448995" lon="99.540401">
<time>2014-08-04T22:39:21Z</time></trkpt>
<trkpt lat="25.448925" lon="99.540311">
<time>2014-08-04T22:39:22Z</time></trkpt>
<trkpt lat="25.448854" lon="99.540231">
<time>2014-08-04T22:39:23Z</time></trkpt>
<trkpt lat="25.448754" lon="99.54009">
<time>2014-08-04T22:39:24Z</time></trkpt>
<trkpt lat="25.448674" lon="99.53998">
<time>2014-08-04T22:39:25Z</time></trkpt>
<trkpt lat="25.448614" lon="99.53993">
<time>2014-08-04T22:39:26Z</time></trkpt>
<trkpt lat="25.448564" lon="99.53989">
<time>2014-08-04T22:39:27Z</time></trkpt>
<trkpt lat="25.448514" lon="99.53985">
<time>2014-08-04T22:39:28Z</time></trkpt>
<trkpt lat="25.448453" lon="99.53982">
<time>2014-08-04T22:39:29Z</time></trkpt>
<trkpt lat="25.448373" lon="99.53978">
<time>2014-08-04T22:39:30Z</time></trkpt>
<trkpt lat="25.448213" lon="99.53971">
<time>2014-08-04T22:39:31Z</time></trkpt>
<trkpt lat="25.447913" lon="99.539599">
<time>2014-08-04T22:39:32Z</time></trkpt>
<trkpt lat="25.447352" lon="99.539409">
<time>2014-08-04T22:39:33Z</time></trkpt>
<trkpt lat="25.447192" lon="99.539359">
<time>2014-08-04T22:39:34Z</time></trkpt>
<trkpt lat="25.447022" lon="99.539349">
<time>2014-08-04T22:39:35Z</time></trkpt>
<trkpt lat="25.446832" lon="99.539349">
<time>2014-08-04T22:39:36Z</time></trkpt>
<trkpt lat="25.446582" lon="99.539399">
<time>2014-08-04T22:39:37Z</time></trkpt>
<trkpt lat="25.445952" lon="99.539539">
<time>2014-08-04T22:39:38Z</time></trkpt>
<trkpt lat="25.445452" lon="99.53967">
<time>2014-08-04T22:39:39Z</time></trkpt>
<trkpt lat="25.445312" lon="99.5397">
<time>2014-08-04T22:39:40Z</time></trkpt>
<trkpt lat="25.445232" lon="99.5397">
<time>2014-08-04T22:39:41Z</time></trkpt>
<trkpt lat="25.445142" lon="99.5397">
<time>2014-08-04T22:39:42Z</time></trkpt>
<trkpt lat="25.445062" lon="99.53968">
<time>2014-08-04T22:39:43Z</time></trkpt>
<trkpt lat="25.444982" lon="99.53965">
<time>2014-08-04T22:39:44Z</time></trkpt>
<trkpt lat="25.444932" lon="99.53963">
<time>2014-08-04T22:39:45Z</time></trkpt>
<trkpt lat="25.444892" lon="99.539599">
<time>2014-08-04T22:39:46Z</time></trkpt>
<trkpt lat="25.444832" lon="99.539539">
<time>2014-08-04T22:39:47Z</time></trkpt>
<trkpt lat="25.444742" lon="99.539439">
<time>2014-08-04T22:39:48Z</time></trkpt>
<trkpt lat="25.444551" lon="99.539219">
<time>2014-08-04T22:39:49Z</time></trkpt>
<trkpt lat="25.444371" lon="99.539028">
<time>2014-08-04T22:39:50Z</time></trkpt>
<trkpt lat="25.44422" lon="99.538868">
<time>2014-08-04T22:39:51Z</time></trkpt>
<trkpt lat="25.443959" lon="99.538577">
<time>2014-08-04T22:39:52Z</time></trkpt>
<trkpt lat="25.443799" lon="99.538407">
<time>2014-08-04T22:39:53Z</time></trkpt>
<trkpt lat="25.443578" lon="99.538206">
<time>2014-08-04T22:39:54Z</time></trkpt>
<trkpt lat="25.443298" lon="99.537996">
<time>2014-08-04T22:39:55Z</time></trkpt>
<trkpt lat="25.442947" lon="99.537745">
<time>2014-08-04T22:39:56Z</time></trkpt>
<trkpt lat="25.442566" lon="99.537455">
<time>2014-08-04T22:39:57Z</time></trkpt>
<trkpt lat="25.442376" lon="99.537304">
<time>2014-08-04T22:39:58Z</time></trkpt>
<trkpt lat="25.442286" lon="99.537214">
<time>2014-08-04T22:39:59Z</time></trkpt>
<trkpt lat="25.442246" lon="99.537154">
<time>2014-08-04T22:40:00Z</time></trkpt>
<trkpt lat="25.442215" lon="99.537104">
<time>2014-08-04T22:40:01Z</time></trkpt>
<trkpt lat="25.442155" lon="99.537004">
<time>2014-08-04T22:40:02Z</time></trkpt>
<trkpt lat="25.442115" lon="99.536893">
<time>2014-08-04T22:40:03Z</time></trkpt>
<trkpt lat="25.442034" lon="99.536633">
<time>2014-08-04T22:40:04Z</time></trkpt>
<trkpt lat="25.441984" lon="99.536442">
<time>2014-08-04T22:40:05Z</time></trkpt>
<trkpt lat="25.441923" lon="99.536152">
<time>2014-08-04T22:40:06Z</time></trkpt>
<trkpt lat="25.441863" lon="99.535991">
<time>2014-08-04T22:40:07Z</time></trkpt>
<trkpt lat="25.441812" lon="99.535901">
<time>2014-08-04T22:40:08Z</time></trkpt>
<trkpt lat="25.441722" lon="99.535791">
<time>2014-08-04T22:40:09Z</time></trkpt>
<trkpt lat="25.441562" lon="99.535651">
<time>2014-08-04T22:40:10Z</time></trkpt>
<trkpt lat="25.441331" lon="99.53545">
<time>2014-08-04T22:40:11Z</time></trkpt>
<trkpt lat="25.441071" lon="99.53525">
<time>2014-08-04T22:40:12Z</time></trkpt>
<trkpt lat="25.44075" lon="99.534999">
<time>2014-08-04T22:40:13Z</time></trkpt>
<trkpt lat="25.44061" lon="99.534889">
<time>2014-08-04T22:40:14Z</time></trkpt>
<trkpt lat="25.440419" lon="99.534738">
<time>2014-08-04T22:40:15Z</time></trkpt>
<trkpt lat="25.440299" lon="99.534638">
<time>2014-08-04T22:40:16Z</time></trkpt>
<trkpt lat="25.440028" lon="99.534418">
<time>2014-08-04T22:40:17Z</time></trkpt>
<trkpt lat="25.439728" lon="99.534157">
<time>2014-08-04T22:40:18Z</time></trkpt>
<trkpt lat="25.439657" lon="99.534097">
<time>2014-08-04T22:40:19Z</time></trkpt>
<trkpt lat="25.439106" lon="99.533616">
<time>2014-08-04T22:40:20Z</time></trkpt>
<trkpt lat="25.438665" lon="99.533245">
<time>2014-08-04T22:40:21Z</time></trkpt>
<trkpt lat="25.438465" lon="99.533094">
<time>2014-08-04T22:40:22Z</time></trkpt>
<trkpt lat="25.438304" lon="99.532964">
<time>2014-08-04T22:40:23Z</time></trkpt>
<trkpt lat="25.438124" lon="99.532784">
<time>2014-08-04T22:40:24Z</time></trkpt>
<trkpt lat="25.437993" lon="99.532633">
<time>2014-08-04T22:40:25Z</time></trkpt>
<trkpt lat="25.437833" lon="99.532433">
<time>2014-08-04T22:40:26Z</time></trkpt>
<trkpt lat="25.437652" lon="99.532142">
<time>2014-08-04T22:40:27Z</time></trkpt>
<trkpt lat="25.437481" lon="99.531892">
<time>2014-08-04T22:40:28Z</time></trkpt>
<trkpt lat="25.43713" lon="99.531481">
<time>2014-08-04T22:40:29Z</time></trkpt>
<trkpt lat="25.436879" lon="99.53121">
<time>2014-08-04T22:40:30Z</time></trkpt>
<trkpt lat="25.436819" lon="99.53115">
<time>2014-08-04T22:40:31Z</time></trkpt>
<trkpt lat="25.436769" lon="99.53109">
<time>2014-08-04T22:40:32Z</time></trkpt>
<trkpt lat="25.436488" lon="99.530769">
<time>2014-08-04T22:40:33Z</time></trkpt>
<trkpt lat="25.436388" lon="99.530659">
<time>2014-08-04T22:40:34Z</time></trkpt>
<trkpt lat="25.436267" lon="99.530528">
<time>2014-08-04T22:40:35Z</time></trkpt>
<trkpt lat="25.436187" lon="99.530458">
<time>2014-08-04T22:40:36Z</time></trkpt>
<trkpt lat="25.436087" lon="99.530388">
<time>2014-08-04T22:40:37Z</time></trkpt>
<trkpt lat="25.435977" lon="99.530328">
<time>2014-08-04T22:40:38Z</time></trkpt>
<trkpt lat="25.435777" lon="99.530248">
<time>2014-08-04T22:40:39Z</time></trkpt>
<trkpt lat="25.435316" lon="99.530097">
<time>2014-08-04T22:40:40Z</time></trkpt>
<trkpt lat="25.434806" lon="99.529967">
<time>2014-08-04T22:40:41Z</time></trkpt>
<trkpt lat="25.430042" lon="99.529025">
<time>2014-08-04T22:40:42Z</time></trkpt>
<trkpt lat="25.429782" lon="99.528964">
<time>2014-08-04T22:40:43Z</time></trkpt>
<trkpt lat="25.429632" lon="99.528914">
<time>2014-08-04T22:40:44Z</time></trkpt>
<trkpt lat="25.429371" lon="99.528754">
<time>2014-08-04T22:40:45Z</time></trkpt>
<trkpt lat="25.42893" lon="99.528433">
<time>2014-08-04T22:40:46Z</time></trkpt>
<trkpt lat="25.428048" lon="99.527802">
<time>2014-08-04T22:40:47Z</time></trkpt>
<trkpt lat="25.427387" lon="99.52732">
<time>2014-08-04T22:40:48Z</time></trkpt>
<trkpt lat="25.427287" lon="99.52724">
<time>2014-08-04T22:40:49Z</time></trkpt>
<trkpt lat="25.426675" lon="99.526819">
<time>2014-08-04T22:40:50Z</time></trkpt>
<trkpt lat="25.426435" lon="99.526649">
<time>2014-08-04T22:40:51Z</time></trkpt>
<trkpt lat="25.426255" lon="99.526558">
<time>2014-08-04T22:40:52Z</time></trkpt>
<trkpt lat="25.426104" lon="99.526488">
<time>2014-08-04T22:40:53Z</time></trkpt>
<trkpt lat="25.425884" lon="99.526418">
<time>2014-08-04T22:40:54Z</time></trkpt>
<trkpt lat="25.425764" lon="99.526388">
<time>2014-08-04T22:40:55Z</time></trkpt>
<trkpt lat="25.425684" lon="99.526368">
<time>2014-08-04T22:40:56Z</time></trkpt>
<trkpt lat="25.425644" lon="99.526358">
<time>2014-08-04T22:40:57Z</time></trkpt>
<trkpt lat="25.425524" lon="99.526348">
<time>2014-08-04T22:40:58Z</time></trkpt>
<trkpt lat="25.425274" lon="99.526348">
<time>2014-08-04T22:40:59Z</time></trkpt>
<trkpt lat="25.424604" lon="99.526378">
<time>2014-08-04T22:41:00Z</time></trkpt>
<trkpt lat="25.423984" lon="99.526398">
<time>2014-08-04T22:41:01Z</time></trkpt>
<trkpt lat="25.423674" lon="99.526428">
<time>2014-08-04T22:41:02Z</time></trkpt>
<trkpt lat="25.423384" lon="99.526448">
<time>2014-08-04T22:41:03Z</time></trkpt>
<trkpt lat="25.423224" lon="99.526438">
<time>2014-08-04T22:41:04Z</time></trkpt>
<trkpt lat="25.423103" lon="99.526408">
<time>2014-08-04T22:41:05Z</time></trkpt>
<trkpt lat="25.423063" lon="99.526408">
<time>2014-08-04T22:41:06Z</time></trkpt>
<trkpt lat="25.422953" lon="99.526378">
<time>2014-08-04T22:41:07Z</time></trkpt>
<trkpt lat="25.422763" lon="99.526318">
<time>2014-08-04T22:41:08Z</time></trkpt>
<trkpt lat="25.422483" lon="99.526188">
<time>2014-08-04T22:41:09Z</time></trkpt>
<trkpt lat="25.422232" lon="99.526077">
<time>2014-08-04T22:41:10Z</time></trkpt>
<trkpt lat="25.422142" lon="99.526037">
<time>2014-08-04T22:41:11Z</time></trkpt>
<trkpt lat="25.421742" lon="99.525807">
<time>2014-08-04T22:41:12Z</time></trkpt>
<trkpt lat="25.421631" lon="99.525746">
<time>2014-08-04T22:41:13Z</time></trkpt>
<trkpt lat="25.421281" lon="99.525556">
<time>2014-08-04T22:41:14Z</time></trkpt>
<trkpt lat="25.4209" lon="99.525325">
<time>2014-08-04T22:41:15Z</time></trkpt>
<trkpt lat="25.420569" lon="99.525125">
<time>2014-08-04T22:41:16Z</time></trkpt>
<trkpt lat="25.420419" lon="99.525015">
<time>2014-08-04T22:41:17Z</time></trkpt>
<trkpt lat="25.420309" lon="99.524914">
<time>2014-08-04T22:41:18Z</time></trkpt>
<trkpt lat="25.420108" lon="99.524714">
<time>2014-08-04T22:41:19Z</time></trkpt>
<trkpt lat="25.419767" lon="99.524373">
<time>2014-08-04T22:41:20Z</time></trkpt>
<trkpt lat="25.419657" lon="99.524253">
<time>2014-08-04T22:41:21Z</time></trkpt>
<trkpt lat="25.419597" lon="99.524162">
<time>2014-08-04T22:41:22Z</time></trkpt>
<trkpt lat="25.419576" lon="99.524122">
<time>2014-08-04T22:41:23Z</time></trkpt>
<trkpt lat="25.419556" lon="99.524072">
<time>2014-08-04T22:41:24Z</time></trkpt>
<trkpt lat="25.419536" lon="99.524022">
<time>2014-08-04T22:41:25Z</time></trkpt>
<trkpt lat="25.419526" lon="99.523982">
<time>2014-08-04T22:41:26Z</time></trkpt>
<trkpt lat="25.419516" lon="99.523942">
<time>2014-08-04T22:41:27Z</time></trkpt>
<trkpt lat="25.419516" lon="99.523872">
<time>2014-08-04T22:41:28Z</time></trkpt>
<trkpt lat="25.419516" lon="99.523841">
<time>2014-08-04T22:41:29Z</time></trkpt>
<trkpt lat="25.419525" lon="99.523541">
<time>2014-08-04T22:41:30Z</time></trkpt>
<trkpt lat="25.419534" lon="99.52313">
<time>2014-08-04T22:41:31Z</time></trkpt>
<trkpt lat="25.41959" lon="99.521936">
<time>2014-08-04T22:41:32Z</time></trkpt>
<trkpt lat="25.419589" lon="99.521616">
<time>2014-08-04T22:41:33Z</time></trkpt>
<trkpt lat="25.419609" lon="99.521485">
<time>2014-08-04T22:41:34Z</time></trkpt>
<trkpt lat="25.419629" lon="99.521375">
<time>2014-08-04T22:41:35Z</time></trkpt>
<trkpt lat="25.419698" lon="99.521154">
<time>2014-08-04T22:41:36Z</time></trkpt>
<trkpt lat="25.419897" lon="99.520553">
<time>2014-08-04T22:41:37Z</time></trkpt>
<trkpt lat="25.420035" lon="99.520101">
<time>2014-08-04T22:41:38Z</time></trkpt>
<trkpt lat="25.420145" lon="99.519861">
<time>2014-08-04T22:41:39Z</time></trkpt>
<trkpt lat="25.420214" lon="99.51976">
<time>2014-08-04T22:41:40Z</time></trkpt>
<trkpt lat="25.420254" lon="99.51972">
<time>2014-08-04T22:41:41Z</time></trkpt>
<trkpt lat="25.420284" lon="99.51968">
<time>2014-08-04T22:41:42Z</time></trkpt>
<trkpt lat="25.420374" lon="99.51961">
<time>2014-08-04T22:41:43Z</time></trkpt>
<trkpt lat="25.420494" lon="99.51954">
<time>2014-08-04T22:41:44Z</time></trkpt>
<trkpt lat="25.420624" lon="99.5195">
<time>2014-08-04T22:41:45Z</time></trkpt>
<trkpt lat="25.420754" lon="99.51944">
<time>2014-08-04T22:41:46Z</time></trkpt>
<trkpt lat="25.421113" lon="99.519289">
<time>2014-08-04T22:41:47Z</time></trkpt>
<trkpt lat="25.421373" lon="99.519179">
<time>2014-08-04T22:41:48Z</time></trkpt>
<trkpt lat="25.421543" lon="99.519069">
<time>2014-08-04T22:41:49Z</time></trkpt>
<trkpt lat="25.421712" lon="99.518888">
<time>2014-08-04T22:41:50Z</time></trkpt>
<trkpt lat="25.421792" lon="99.518778">
<time>2014-08-04T22:41:51Z</time></trkpt>
<trkpt lat="25.421882" lon="99.518637">
<time>2014-08-04T22:41:52Z</time></trkpt>
<trkpt lat="25.421961" lon="99.518457">
<time>2014-08-04T22:41:53Z</time></trkpt>
<trkpt lat="25.422031" lon="99.518256">
<time>2014-08-04T22:41:54Z</time></trkpt>
<trkpt lat="25.42209" lon="99.518026">
<time>2014-08-04T22:41:55Z</time></trkpt>
<trkpt lat="25.422159" lon="99.517825">
<time>2014-08-04T22:41:56Z</time></trkpt>
<trkpt lat="25.422219" lon="99.517685">
<time>2014-08-04T22:41:57Z</time></trkpt>
<trkpt lat="25.422338" lon="99.517494">
<time>2014-08-04T22:41:58Z</time></trkpt>
<trkpt lat="25.422568" lon="99.517183">
<time>2014-08-04T22:41:59Z</time></trkpt>
<trkpt lat="25.422707" lon="99.516973">
<time>2014-08-04T22:42:00Z</time></trkpt>
<trkpt lat="25.422876" lon="99.516642">
<time>2014-08-04T22:42:01Z</time></trkpt>
<trkpt lat="25.423075" lon="99.516171">
<time>2014-08-04T22:42:02Z</time></trkpt>
<trkpt lat="25.423224" lon="99.5158">
<time>2014-08-04T22:42:03Z</time></trkpt>
<trkpt lat="25.423343" lon="99.515559">
<time>2014-08-04T22:42:04Z</time></trkpt>
<trkpt lat="25.423433" lon="99.515368">
<time>2014-08-04T22:42:05Z</time></trkpt>
<trkpt lat="25.423602" lon="99.515078">
<time>2014-08-04T22:42:06Z</time></trkpt>
<trkpt lat="25.423651" lon="99.514937">
<time>2014-08-04T22:42:07Z</time></trkpt>
<trkpt lat="25.423681" lon="99.514847">
<time>2014-08-04T22:42:08Z</time></trkpt>
<trkpt lat="25.423691" lon="99.514716">
<time>2014-08-04T22:42:09Z</time></trkpt>
<trkpt lat="25.42369" lon="99.514596">
<time>2014-08-04T22:42:10Z</time></trkpt>
<trkpt lat="25.42368" lon="99.514456">
<time>2014-08-04T22:42:11Z</time></trkpt>
<trkpt lat="25.42367" lon="99.514366">
<time>2014-08-04T22:42:12Z</time></trkpt>
<trkpt lat="25.423669" lon="99.514275">
<time>2014-08-04T22:42:13Z</time></trkpt>
<trkpt lat="25.423669" lon="99.514185">
<time>2014-08-04T22:42:14Z</time></trkpt>
<trkpt lat="25.423689" lon="99.514105">
<time>2014-08-04T22:42:15Z</time></trkpt>
<trkpt lat="25.423709" lon="99.514025">
<time>2014-08-04T22:42:16Z</time></trkpt>
<trkpt lat="25.423728" lon="99.513944">
<time>2014-08-04T22:42:17Z</time></trkpt>
<trkpt lat="25.423808" lon="99.513794">
<time>2014-08-04T22:42:18Z</time></trkpt>
<trkpt lat="25.423927" lon="99.513593">
<time>2014-08-04T22:42:19Z</time></trkpt>
<trkpt lat="25.423997" lon="99.513493">
<time>2014-08-04T22:42:20Z</time></trkpt>
<trkpt lat="25.424087" lon="99.513343">
<time>2014-08-04T22:42:21Z</time></trkpt>
<trkpt lat="25.424136" lon="99.513232">
<time>2014-08-04T22:42:22Z</time></trkpt>
<trkpt lat="25.424176" lon="99.513102">
<time>2014-08-04T22:42:23Z</time></trkpt>
<trkpt lat="25.424186" lon="99.513002">
<time>2014-08-04T22:42:24Z</time></trkpt>
<trkpt lat="25.424186" lon="99.512901">
<time>2014-08-04T22:42:25Z</time></trkpt>
<trkpt lat="25.424175" lon="99.512801">
<time>2014-08-04T22:42:26Z</time></trkpt>
<trkpt lat="25.424155" lon="99.512751">
<time>2014-08-04T22:42:27Z</time></trkpt>
<trkpt lat="25.424135" lon="99.512691">
<time>2014-08-04T22:42:28Z</time></trkpt>
<trkpt lat="25.424075" lon="99.512591">
<time>2014-08-04T22:42:29Z</time></trkpt>
<trkpt lat="25.424024" lon="99.51254">
<time>2014-08-04T22:42:30Z</time></trkpt>
<trkpt lat="25.423864" lon="99.5124">
<time>2014-08-04T22:42:31Z</time></trkpt>
<trkpt lat="25.423784" lon="99.51233">
<time>2014-08-04T22:42:32Z</time></trkpt>
<trkpt lat="25.423713" lon="99.51225">
<time>2014-08-04T22:42:33Z</time></trkpt>
<trkpt lat="25.423653" lon="99.512159">
<time>2014-08-04T22:42:34Z</time></trkpt>
<trkpt lat="25.423553" lon="99.511949">
<time>2014-08-04T22:42:35Z</time></trkpt>
<trkpt lat="25.423462" lon="99.511728">
<time>2014-08-04T22:42:36Z</time></trkpt>
<trkpt lat="25.423321" lon="99.511287">
<time>2014-08-04T22:42:37Z</time></trkpt>
<trkpt lat="25.42327" lon="99.511146">
<time>2014-08-04T22:42:38Z</time></trkpt>
<trkpt lat="25.42324" lon="99.511036">
<time>2014-08-04T22:42:39Z</time></trkpt>
<trkpt lat="25.42323" lon="99.510956">
<time>2014-08-04T22:42:40Z</time></trkpt>
<trkpt lat="25.423229" lon="99.510866">
<time>2014-08-04T22:42:41Z</time></trkpt>
<trkpt lat="25.423239" lon="99.510775">
<time>2014-08-04T22:42:42Z</time></trkpt>
<trkpt lat="25.423259" lon="99.510685">
<time>2014-08-04T22:42:43Z</time></trkpt>
<trkpt lat="25.423278" lon="99.510565">
<time>2014-08-04T22:42:44Z</time></trkpt>
<trkpt lat="25.423318" lon="99.510384">
<time>2014-08-04T22:42:45Z</time></trkpt>
<trkpt lat="25.423377" lon="99.510184">
<time>2014-08-04T22:42:46Z</time></trkpt>
<trkpt lat="25.423427" lon="99.509943">
<time>2014-08-04T22:42:47Z</time></trkpt>
<trkpt lat="25.423565" lon="99.509341">
<time>2014-08-04T22:42:48Z</time></trkpt>
<trkpt lat="25.423585" lon="99.509221">
<time>2014-08-04T22:42:49Z</time></trkpt>
<trkpt lat="25.423604" lon="99.509111">
<time>2014-08-04T22:42:50Z</time></trkpt>
<trkpt lat="25.423604" lon="99.50898">
<time>2014-08-04T22:42:51Z</time></trkpt>
<trkpt lat="25.423594" lon="99.50889">
<time>2014-08-04T22:42:52Z</time></trkpt>
<trkpt lat="25.423583" lon="99.50882">
<time>2014-08-04T22:42:53Z</time></trkpt>
<trkpt lat="25.423553" lon="99.508669">
<time>2014-08-04T22:42:54Z</time></trkpt>
<trkpt lat="25.423482" lon="99.508469">
<time>2014-08-04T22:42:55Z</time></trkpt>
<trkpt lat="25.423301" lon="99.508018">
<time>2014-08-04T22:42:56Z</time></trkpt>
<trkpt lat="25.42321" lon="99.507777">
<time>2014-08-04T22:42:57Z</time></trkpt>
<trkpt lat="25.42316" lon="99.507616">
<time>2014-08-04T22:42:58Z</time></trkpt>
<trkpt lat="25.423139" lon="99.507486">
<time>2014-08-04T22:42:59Z</time></trkpt>
<trkpt lat="25.423139" lon="99.507376">
<time>2014-08-04T22:43:00Z</time></trkpt>
<trkpt lat="25.423168" lon="99.506975">
<time>2014-08-04T22:43:01Z</time></trkpt>
<trkpt lat="25.423294" lon="99.505831">
<time>2014-08-04T22:43:02Z</time></trkpt>
<trkpt lat="25.423403" lon="99.50525">
<time>2014-08-04T22:43:03Z</time></trkpt>
<trkpt lat="25.423412" lon="99.505189">
<time>2014-08-04T22:43:04Z</time></trkpt>
<trkpt lat="25.423432" lon="99.505129">
<time>2014-08-04T22:43:05Z</time></trkpt>
<trkpt lat="25.423462" lon="99.505069">
<time>2014-08-04T22:43:06Z</time></trkpt>
<trkpt lat="25.423502" lon="99.505019">
<time>2014-08-04T22:43:07Z</time></trkpt>
<trkpt lat="25.423532" lon="99.504979">
<time>2014-08-04T22:43:08Z</time></trkpt>
<trkpt lat="25.423592" lon="99.504929">
<time>2014-08-04T22:43:09Z</time></trkpt>
<trkpt lat="25.423682" lon="99.504889">
<time>2014-08-04T22:43:10Z</time></trkpt>
<trkpt lat="25.423752" lon="99.504858">
<time>2014-08-04T22:43:11Z</time></trkpt>
<trkpt lat="25.423852" lon="99.504838">
<time>2014-08-04T22:43:12Z</time></trkpt>
<trkpt lat="25.423952" lon="99.504828">
<time>2014-08-04T22:43:13Z</time></trkpt>
<trkpt lat="25.424141" lon="99.504798">
<time>2014-08-04T22:43:14Z</time></trkpt>
<trkpt lat="25.424311" lon="99.504768">
<time>2014-08-04T22:43:15Z</time></trkpt>
<trkpt lat="25.424501" lon="99.504708">
<time>2014-08-04T22:43:16Z</time></trkpt>
<trkpt lat="25.424641" lon="99.504658">
<time>2014-08-04T22:43:17Z</time></trkpt>
<trkpt lat="25.424731" lon="99.504608">
<time>2014-08-04T22:43:18Z</time></trkpt>
<trkpt lat="25.424861" lon="99.504527">
<time>2014-08-04T22:43:19Z</time></trkpt>
<trkpt lat="25.425011" lon="99.504447">
<time>2014-08-04T22:43:20Z</time></trkpt>
<trkpt lat="25.42517" lon="99.504387">
<time>2014-08-04T22:43:21Z</time></trkpt>
<trkpt lat="25.42533" lon="99.504317">
<time>2014-08-04T22:43:22Z</time></trkpt>
<trkpt lat="25.42551" lon="99.504257">
<time>2014-08-04T22:43:23Z</time></trkpt>
<trkpt lat="25.42562" lon="99.504207">
<time>2014-08-04T22:43:24Z</time></trkpt>
<trkpt lat="25.42568" lon="99.504176">
<time>2014-08-04T22:43:25Z</time></trkpt>
<trkpt lat="25.42575" lon="99.504136">
<time>2014-08-04T22:43:26Z</time></trkpt>
<trkpt lat="25.42579" lon="99.504116">
<time>2014-08-04T22:43:27Z</time></trkpt>
<trkpt lat="25.42585" lon="99.504076">
<time>2014-08-04T22:43:28Z</time></trkpt>
<trkpt lat="25.426049" lon="99.503936">
<time>2014-08-04T22:43:29Z</time></trkpt>
<trkpt lat="25.426209" lon="99.503815">
<time>2014-08-04T22:43:30Z</time></trkpt>
<trkpt lat="25.426369" lon="99.503685">
<time>2014-08-04T22:43:31Z</time></trkpt>
<trkpt lat="25.426419" lon="99.503645">
<time>2014-08-04T22:43:32Z</time></trkpt>
<trkpt lat="25.426448" lon="99.503595">
<time>2014-08-04T22:43:33Z</time></trkpt>
<trkpt lat="25.426478" lon="99.503545">
<time>2014-08-04T22:43:34Z</time></trkpt>
<trkpt lat="25.426508" lon="99.503494">
<time>2014-08-04T22:43:35Z</time></trkpt>
<trkpt lat="25.426518" lon="99.503464">
<time>2014-08-04T22:43:36Z</time></trkpt>
<trkpt lat="25.426528" lon="99.503424">
<time>2014-08-04T22:43:37Z</time></trkpt>
<trkpt lat="25.426538" lon="99.503374">
<time>2014-08-04T22:43:38Z</time></trkpt>
<trkpt lat="25.426538" lon="99.503294">
<time>2014-08-04T22:43:39Z</time></trkpt>
<trkpt lat="25.426537" lon="99.503224">
<time>2014-08-04T22:43:40Z</time></trkpt>
<trkpt lat="25.426527" lon="99.503153">
<time>2014-08-04T22:43:41Z</time></trkpt>
<trkpt lat="25.426507" lon="99.503033">
<time>2014-08-04T22:43:42Z</time></trkpt>
<trkpt lat="25.426486" lon="99.502913">
<time>2014-08-04T22:43:43Z</time></trkpt>
<trkpt lat="25.426466" lon="99.502802">
<time>2014-08-04T22:43:44Z</time></trkpt>
<trkpt lat="25.426466" lon="99.502712">
<time>2014-08-04T22:43:45Z</time></trkpt>
<trkpt lat="25.426466" lon="99.502652">
<time>2014-08-04T22:43:46Z</time></trkpt>
<trkpt lat="25.426475" lon="99.502572">
<time>2014-08-04T22:43:47Z</time></trkpt>
<trkpt lat="25.426485" lon="99.502512">
<time>2014-08-04T22:43:48Z</time></trkpt>
<trkpt lat="25.426505" lon="99.502451">
<time>2014-08-04T22:43:49Z</time></trkpt>
<trkpt lat="25.426525" lon="99.502401">
<time>2014-08-04T22:43:50Z</time></trkpt>
<trkpt lat="25.426545" lon="99.502351">
<time>2014-08-04T22:43:51Z</time></trkpt>
<trkpt lat="25.426594" lon="99.502231">
<time>2014-08-04T22:43:52Z</time></trkpt>
<trkpt lat="25.426654" lon="99.5021">
<time>2014-08-04T22:43:53Z</time></trkpt>
<trkpt lat="25.426684" lon="99.50202">
<time>2014-08-04T22:43:54Z</time></trkpt>
<trkpt lat="25.426714" lon="99.50196">
<time>2014-08-04T22:43:55Z</time></trkpt>
<trkpt lat="25.426723" lon="99.50191">
<time>2014-08-04T22:43:56Z</time></trkpt>
<trkpt lat="25.426733" lon="99.50185">
<time>2014-08-04T22:43:57Z</time></trkpt>
<trkpt lat="25.426733" lon="99.50181">
<time>2014-08-04T22:43:58Z</time></trkpt>
<trkpt lat="25.426723" lon="99.501749">
<time>2014-08-04T22:43:59Z</time></trkpt>
<trkpt lat="25.426723" lon="99.501689">
<time>2014-08-04T22:44:00Z</time></trkpt>
<trkpt lat="25.426712" lon="99.501609">
<time>2014-08-04T22:44:01Z</time></trkpt>
<trkpt lat="25.426692" lon="99.501539">
<time>2014-08-04T22:44:02Z</time></trkpt>
<trkpt lat="25.426662" lon="99.501459">
<time>2014-08-04T22:44:03Z</time></trkpt>
<trkpt lat="25.426622" lon="99.501348">
<time>2014-08-04T22:44:04Z</time></trkpt>
<trkpt lat="25.426581" lon="99.501228">
<time>2014-08-04T22:44:05Z</time></trkpt>
<trkpt lat="25.426561" lon="99.501138">
<time>2014-08-04T22:44:06Z</time></trkpt>
<trkpt lat="25.426531" lon="99.501067">
<time>2014-08-04T22:44:07Z</time></trkpt>
<trkpt lat="25.426531" lon="99.500987">
<time>2014-08-04T22:44:08Z</time></trkpt>
<trkpt lat="25.42652" lon="99.500897">
<time>2014-08-04T22:44:09Z</time></trkpt>
<trkpt lat="25.42652" lon="99.500837">
<time>2014-08-04T22:44:10Z</time></trkpt>
<trkpt lat="25.42653" lon="99.500737">
<time>2014-08-04T22:44:11Z</time></trkpt>
<trkpt lat="25.42654" lon="99.500656">
<time>2014-08-04T22:44:12Z</time></trkpt>
<trkpt lat="25.426569" lon="99.500516">
<time>2014-08-04T22:44:13Z</time></trkpt>
<trkpt lat="25.426599" lon="99.500375">
<time>2014-08-04T22:44:14Z</time></trkpt>
<trkpt lat="25.426618" lon="99.500265">
<time>2014-08-04T22:44:15Z</time></trkpt>
<trkpt lat="25.426658" lon="99.500155">
<time>2014-08-04T22:44:16Z</time></trkpt>
<trkpt lat="25.426678" lon="99.500085">
<time>2014-08-04T22:44:17Z</time></trkpt>
<trkpt lat="25.426708" lon="99.500024">
<time>2014-08-04T22:44:18Z</time></trkpt>
<trkpt lat="25.426737" lon="99.499944">
<time>2014-08-04T22:44:19Z</time></trkpt>
<trkpt lat="25.426787" lon="99.499834">
<time>2014-08-04T22:44:20Z</time></trkpt>
<trkpt lat="25.426976" lon="99.499443">
<time>2014-08-04T22:44:21Z</time></trkpt>
<trkpt lat="25.427125" lon="99.499162">
<time>2014-08-04T22:44:22Z</time></trkpt>
<trkpt lat="25.427185" lon="99.499052">
<time>2014-08-04T22:44:23Z</time></trkpt>
<trkpt lat="25.427225" lon="99.498971">
<time>2014-08-04T22:44:24Z</time></trkpt>
<trkpt lat="25.427264" lon="99.498901">
<time>2014-08-04T22:44:25Z</time></trkpt>
<trkpt lat="25.427304" lon="99.498841">
<time>2014-08-04T22:44:26Z</time></trkpt>
<trkpt lat="25.427354" lon="99.498761">
<time>2014-08-04T22:44:27Z</time></trkpt>
<trkpt lat="25.427414" lon="99.498681">
<time>2014-08-04T22:44:28Z</time></trkpt>
<trkpt lat="25.427474" lon="99.49861">
<time>2014-08-04T22:44:29Z</time></trkpt>
<trkpt lat="25.427543" lon="99.49852">
<time>2014-08-04T22:44:30Z</time></trkpt>
<trkpt lat="25.427603" lon="99.49844">
<time>2014-08-04T22:44:31Z</time></trkpt>
<trkpt lat="25.427683" lon="99.49832">
<time>2014-08-04T22:44:32Z</time></trkpt>
<trkpt lat="25.427743" lon="99.498219">
<time>2014-08-04T22:44:33Z</time></trkpt>
<trkpt lat="25.427792" lon="99.498149">
<time>2014-08-04T22:44:34Z</time></trkpt>
<trkpt lat="25.427852" lon="99.498039">
<time>2014-08-04T22:44:35Z</time></trkpt>
<trkpt lat="25.427892" lon="99.497958">
<time>2014-08-04T22:44:36Z</time></trkpt>
<trkpt lat="25.427981" lon="99.497808">
<time>2014-08-04T22:44:37Z</time></trkpt>
<trkpt lat="25.428031" lon="99.497728">
<time>2014-08-04T22:44:38Z</time></trkpt>
<trkpt lat="25.428061" lon="99.497668">
<time>2014-08-04T22:44:39Z</time></trkpt>
<trkpt lat="25.428101" lon="99.497607">
<time>2014-08-04T22:44:40Z</time></trkpt>
<trkpt lat="25.428141" lon="99.497547">
<time>2014-08-04T22:44:41Z</time></trkpt>
<trkpt lat="25.42818" lon="99.497497">
<time>2014-08-04T22:44:42Z</time></trkpt>
<trkpt lat="25.42822" lon="99.497457">
<time>2014-08-04T22:44:43Z</time></trkpt>
<trkpt lat="25.42826" lon="99.497407">
<time>2014-08-04T22:44:44Z</time></trkpt>
<trkpt lat="25.4283" lon="99.497377">
<time>2014-08-04T22:44:45Z</time></trkpt>
<trkpt lat="25.42834" lon="99.497337">
<time>2014-08-04T22:44:46Z</time></trkpt>
<trkpt lat="25.42842" lon="99.497277">
<time>2014-08-04T22:44:47Z</time></trkpt>
<trkpt lat="25.428739" lon="99.497026">
<time>2014-08-04T22:44:48Z</time></trkpt>
<trkpt lat="25.428919" lon="99.496865">
<time>2014-08-04T22:44:49Z</time></trkpt>
<trkpt lat="25.429048" lon="99.496765">
<time>2014-08-04T22:44:50Z</time></trkpt>
<trkpt lat="25.429178" lon="99.496645">
<time>2014-08-04T22:44:51Z</time></trkpt>
<trkpt lat="25.429298" lon="99.496524">
<time>2014-08-04T22:44:52Z</time></trkpt>
<trkpt lat="25.429378" lon="99.496424">
<time>2014-08-04T22:44:53Z</time></trkpt>
<trkpt lat="25.429457" lon="99.496334">
<time>2014-08-04T22:44:54Z</time></trkpt>
<trkpt lat="25.429557" lon="99.496223">
<time>2014-08-04T22:44:55Z</time></trkpt>
<trkpt lat="25.429597" lon="99.496183">
<time>2014-08-04T22:44:56Z</time></trkpt>
<trkpt lat="25.429637" lon="99.496153">
<time>2014-08-04T22:44:57Z</time></trkpt>
<trkpt lat="25.429677" lon="99.496123">
<time>2014-08-04T22:44:58Z</time></trkpt>
<trkpt lat="25.429717" lon="99.496103">
<time>2014-08-04T22:44:59Z</time></trkpt>
<trkpt lat="25.429767" lon="99.496083">
<time>2014-08-04T22:45:00Z</time></trkpt>
<trkpt lat="25.429807" lon="99.496063">
<time>2014-08-04T22:45:01Z</time></trkpt>
<trkpt lat="25.429856" lon="99.496043">
<time>2014-08-04T22:45:02Z</time></trkpt>
<trkpt lat="25.429896" lon="99.496033">
<time>2014-08-04T22:45:03Z</time></trkpt>
<trkpt lat="25.429956" lon="99.496013">
<time>2014-08-04T22:45:04Z</time></trkpt>
<trkpt lat="25.430006" lon="99.495993">
<time>2014-08-04T22:45:05Z</time></trkpt>
<trkpt lat="25.430066" lon="99.495973">
<time>2014-08-04T22:45:06Z</time></trkpt>
<trkpt lat="25.430106" lon="99.495943">
<time>2014-08-04T22:45:07Z</time></trkpt>
<trkpt lat="25.430166" lon="99.495913">
<time>2014-08-04T22:45:08Z</time></trkpt>
<trkpt lat="25.430206" lon="99.495882">
<time>2014-08-04T22:45:09Z</time></trkpt>
<trkpt lat="25.430246" lon="99.495842">
<time>2014-08-04T22:45:10Z</time></trkpt>
<trkpt lat="25.430296" lon="99.495792">
<time>2014-08-04T22:45:11Z</time></trkpt>
<trkpt lat="25.430336" lon="99.495732">
<time>2014-08-04T22:45:12Z</time></trkpt>
<trkpt lat="25.430445" lon="99.495602">
<time>2014-08-04T22:45:13Z</time></trkpt>
<trkpt lat="25.430515" lon="99.495491">
<time>2014-08-04T22:45:14Z</time></trkpt>
<trkpt lat="25.430654" lon="99.495271">
<time>2014-08-04T22:45:15Z</time></trkpt>
<trkpt lat="25.430744" lon="99.49515">
<time>2014-08-04T22:45:16Z</time></trkpt>
<trkpt lat="25.430814" lon="99.49506">
<time>2014-08-04T22:45:17Z</time></trkpt>
<trkpt lat="25.430873" lon="99.49495">
<time>2014-08-04T22:45:18Z</time></trkpt>
<trkpt lat="25.430913" lon="99.49489">
<time>2014-08-04T22:45:19Z</time></trkpt>
<trkpt lat="25.430943" lon="99.494819">
<time>2014-08-04T22:45:20Z</time></trkpt>
<trkpt lat="25.431003" lon="99.494699">
<time>2014-08-04T22:45:21Z</time></trkpt>
<trkpt lat="25.431052" lon="99.494569">
<time>2014-08-04T22:45:22Z</time></trkpt>
<trkpt lat="25.431102" lon="99.494408">
<time>2014-08-04T22:45:23Z</time></trkpt>
<trkpt lat="25.431141" lon="99.494258">
<time>2014-08-04T22:45:24Z</time></trkpt>
<trkpt lat="25.431191" lon="99.494077">
<time>2014-08-04T22:45:25Z</time></trkpt>
<trkpt lat="25.43125" lon="99.493786">
<time>2014-08-04T22:45:26Z</time></trkpt>
<trkpt lat="25.43127" lon="99.493666">
<time>2014-08-04T22:45:27Z</time></trkpt>
<trkpt lat="25.431377" lon="99.492814">
<time>2014-08-04T22:45:28Z</time></trkpt>
<trkpt lat="25.431387" lon="99.492713">
<time>2014-08-04T22:45:29Z</time></trkpt>
<trkpt lat="25.431397" lon="99.492603">
<time>2014-08-04T22:45:30Z</time></trkpt>
<trkpt lat="25.431396" lon="99.492503">
<time>2014-08-04T22:45:31Z</time></trkpt>
<trkpt lat="25.431396" lon="99.492423">
<time>2014-08-04T22:45:32Z</time></trkpt>
<trkpt lat="25.431386" lon="99.492352">
<time>2014-08-04T22:45:33Z</time></trkpt>
<trkpt lat="25.431376" lon="99.492282">
<time>2014-08-04T22:45:34Z</time></trkpt>
<trkpt lat="25.431355" lon="99.492212">
<time>2014-08-04T22:45:35Z</time></trkpt>
<trkpt lat="25.431325" lon="99.492031">
<time>2014-08-04T22:45:36Z</time></trkpt>
<trkpt lat="25.431314" lon="99.491931">
<time>2014-08-04T22:45:37Z</time></trkpt>
<trkpt lat="25.431294" lon="99.491821">
<time>2014-08-04T22:45:38Z</time></trkpt>
<trkpt lat="25.431294" lon="99.491721">
<time>2014-08-04T22:45:39Z</time></trkpt>
<trkpt lat="25.431312" lon="99.491069">
<time>2014-08-04T22:45:40Z</time></trkpt>
<trkpt lat="25.431319" lon="99.489955">
<time>2014-08-04T22:45:41Z</time></trkpt>
<trkpt lat="25.431328" lon="99.489725">
<time>2014-08-04T22:45:42Z</time></trkpt>
<trkpt lat="25.431328" lon="99.489615">
<time>2014-08-04T22:45:43Z</time></trkpt>
<trkpt lat="25.431327" lon="99.489534">
<time>2014-08-04T22:45:44Z</time></trkpt>
<trkpt lat="25.431347" lon="99.489464">
<time>2014-08-04T22:45:45Z</time></trkpt>
<trkpt lat="25.431357" lon="99.489424">
<time>2014-08-04T22:45:46Z</time></trkpt>
<trkpt lat="25.431387" lon="99.489344">
<time>2014-08-04T22:45:47Z</time></trkpt>
<trkpt lat="25.431447" lon="99.489243">
<time>2014-08-04T22:45:48Z</time></trkpt>
<trkpt lat="25.431496" lon="99.489143">
<time>2014-08-04T22:45:49Z</time></trkpt>
<trkpt lat="25.431556" lon="99.489043">
<time>2014-08-04T22:45:50Z</time></trkpt>
<trkpt lat="25.431596" lon="99.488953">
<time>2014-08-04T22:45:51Z</time></trkpt>
<trkpt lat="25.431625" lon="99.488882">
<time>2014-08-04T22:45:52Z</time></trkpt>
<trkpt lat="25.431655" lon="99.488822">
<time>2014-08-04T22:45:53Z</time></trkpt>
<trkpt lat="25.431665" lon="99.488772">
<time>2014-08-04T22:45:54Z</time></trkpt>
<trkpt lat="25.431675" lon="99.488702">
<time>2014-08-04T22:45:55Z</time></trkpt>
<trkpt lat="25.431685" lon="99.488612">
<time>2014-08-04T22:45:56Z</time></trkpt>
<trkpt lat="25.431684" lon="99.488511">
<time>2014-08-04T22:45:57Z</time></trkpt>
<trkpt lat="25.431684" lon="99.488301">
<time>2014-08-04T22:45:58Z</time></trkpt>
<trkpt lat="25.431683" lon="99.48803">
<time>2014-08-04T22:45:59Z</time></trkpt>
<trkpt lat="25.431682" lon="99.48786">
<time>2014-08-04T22:46:00Z</time></trkpt>
<trkpt lat="25.431682" lon="99.487769">
<time>2014-08-04T22:46:01Z</time></trkpt>
<trkpt lat="25.431672" lon="99.487679">
<time>2014-08-04T22:46:02Z</time></trkpt>
<trkpt lat="25.431662" lon="99.487589">
<time>2014-08-04T22:46:03Z</time></trkpt>
<trkpt lat="25.431641" lon="99.487499">
<time>2014-08-04T22:46:04Z</time></trkpt>
<trkpt lat="25.431621" lon="99.487418">
<time>2014-08-04T22:46:05Z</time></trkpt>
<trkpt lat="25.431601" lon="99.487328">
<time>2014-08-04T22:46:06Z</time></trkpt>
<trkpt lat="25.431571" lon="99.487218">
<time>2014-08-04T22:46:07Z</time></trkpt>
<trkpt lat="25.43154" lon="99.487087">
<time>2014-08-04T22:46:08Z</time></trkpt>
<trkpt lat="25.4315" lon="99.486947">
<time>2014-08-04T22:46:09Z</time></trkpt>
<trkpt lat="25.431489" lon="99.486867">
<time>2014-08-04T22:46:10Z</time></trkpt>
<trkpt lat="25.431479" lon="99.486766">
<time>2014-08-04T22:46:11Z</time></trkpt>
<trkpt lat="25.431459" lon="99.486606">
<time>2014-08-04T22:46:12Z</time></trkpt>
<trkpt lat="25.431448" lon="99.486466">
<time>2014-08-04T22:46:13Z</time></trkpt>
<trkpt lat="25.431438" lon="99.486375">
<time>2014-08-04T22:46:14Z</time></trkpt>
<trkpt lat="25.431418" lon="99.486315">
<time>2014-08-04T22:46:15Z</time></trkpt>
<trkpt lat="25.431398" lon="99.486265">
<time>2014-08-04T22:46:16Z</time></trkpt>
<trkpt lat="25.431368" lon="99.486215">
<time>2014-08-04T22:46:17Z</time></trkpt>
<trkpt lat="25.431337" lon="99.486165">
<time>2014-08-04T22:46:18Z</time></trkpt>
<trkpt lat="25.431297" lon="99.486095">
<time>2014-08-04T22:46:19Z</time></trkpt>
<trkpt lat="25.431237" lon="99.486024">
<time>2014-08-04T22:46:20Z</time></trkpt>
<trkpt lat="25.431177" lon="99.485934">
<time>2014-08-04T22:46:21Z</time></trkpt>
<trkpt lat="25.431126" lon="99.485824">
<time>2014-08-04T22:46:22Z</time></trkpt>
<trkpt lat="25.431086" lon="99.485724">
<time>2014-08-04T22:46:23Z</time></trkpt>
<trkpt lat="25.431056" lon="99.485623">
<time>2014-08-04T22:46:24Z</time></trkpt>
<trkpt lat="25.431025" lon="99.485523">
<time>2014-08-04T22:46:25Z</time></trkpt>
<trkpt lat="25.431005" lon="99.485403">
<time>2014-08-04T22:46:26Z</time></trkpt>
<trkpt lat="25.430985" lon="99.485292">
<time>2014-08-04T22:46:27Z</time></trkpt>
<trkpt lat="25.430934" lon="99.485022">
<time>2014-08-04T22:46:28Z</time></trkpt>
<trkpt lat="25.430832" lon="99.48452">
<time>2014-08-04T22:46:29Z</time></trkpt>
<trkpt lat="25.430782" lon="99.48428">
<time>2014-08-04T22:46:30Z</time></trkpt>
<trkpt lat="25.430609" lon="99.483497">
<time>2014-08-04T22:46:31Z</time></trkpt>
<trkpt lat="25.430549" lon="99.483247">
<time>2014-08-04T22:46:32Z</time></trkpt>
<trkpt lat="25.430508" lon="99.483066">
<time>2014-08-04T22:46:33Z</time></trkpt>
<trkpt lat="25.430458" lon="99.482956">
<time>2014-08-04T22:46:34Z</time></trkpt>
<trkpt lat="25.430418" lon="99.482856">
<time>2014-08-04T22:46:35Z</time></trkpt>
<trkpt lat="25.430387" lon="99.482775">
<time>2014-08-04T22:46:36Z</time></trkpt>
<trkpt lat="25.430347" lon="99.482725">
<time>2014-08-04T22:46:37Z</time></trkpt>
<trkpt lat="25.430307" lon="99.482675">
<time>2014-08-04T22:46:38Z</time></trkpt>
<trkpt lat="25.430257" lon="99.482635">
<time>2014-08-04T22:46:39Z</time></trkpt>
<trkpt lat="25.430227" lon="99.482605">
<time>2014-08-04T22:46:40Z</time></trkpt>
<trkpt lat="25.430187" lon="99.482575">
<time>2014-08-04T22:46:41Z</time></trkpt>
<trkpt lat="25.430147" lon="99.482545">
<time>2014-08-04T22:46:42Z</time></trkpt>
<trkpt lat="25.430076" lon="99.482505">
<time>2014-08-04T22:46:43Z</time></trkpt>
<trkpt lat="25.429996" lon="99.482465">
<time>2014-08-04T22:46:44Z</time></trkpt>
<trkpt lat="25.429916" lon="99.482414">
<time>2014-08-04T22:46:45Z</time></trkpt>
<trkpt lat="25.429856" lon="99.482364">
<time>2014-08-04T22:46:46Z</time></trkpt>
<trkpt lat="25.429836" lon="99.482344">
<time>2014-08-04T22:46:47Z</time></trkpt>
<trkpt lat="25.429806" lon="99.482314">
<time>2014-08-04T22:46:48Z</time></trkpt>
<trkpt lat="25.429776" lon="99.482254">
<time>2014-08-04T22:46:49Z</time></trkpt>
<trkpt lat="25.429705" lon="99.482134">
<time>2014-08-04T22:46:50Z</time></trkpt>
<trkpt lat="25.429635" lon="99.481983">
<time>2014-08-04T22:46:51Z</time></trkpt>
<trkpt lat="25.429594" lon="99.481853">
<time>2014-08-04T22:46:52Z</time></trkpt>
<trkpt lat="25.429544" lon="99.481733">
<time>2014-08-04T22:46:53Z</time></trkpt>
<trkpt lat="25.429484" lon="99.481552">
<time>2014-08-04T22:46:54Z</time></trkpt>
<trkpt lat="25.429423" lon="99.481372">
<time>2014-08-04T22:46:55Z</time></trkpt>
<trkpt lat="25.429372" lon="99.481191">
<time>2014-08-04T22:46:56Z</time></trkpt>
<trkpt lat="25.429322" lon="99.480981">
<time>2014-08-04T22:46:57Z</time></trkpt>
<trkpt lat="25.429271" lon="99.48081">
<time>2014-08-04T22:46:58Z</time></trkpt>
<trkpt lat="25.429241" lon="99.48071">
<time>2014-08-04T22:46:59Z</time></trkpt>
<trkpt lat="25.429211" lon="99.48061">
<time>2014-08-04T22:47:00Z</time></trkpt>
<trkpt lat="25.42915" lon="99.480459">
<time>2014-08-04T22:47:01Z</time></trkpt>
<trkpt lat="25.42911" lon="99.480379">
<time>2014-08-04T22:47:02Z</time></trkpt>
<trkpt lat="25.42903" lon="99.480198">
<time>2014-08-04T22:47:03Z</time></trkpt>
<trkpt lat="25.428959" lon="99.480038">
<time>2014-08-04T22:47:04Z</time></trkpt>
<trkpt lat="25.428899" lon="99.479888">
<time>2014-08-04T22:47:05Z</time></trkpt>
<trkpt lat="25.428858" lon="99.479757">
<time>2014-08-04T22:47:06Z</time></trkpt>
<trkpt lat="25.428818" lon="99.479657">
<time>2014-08-04T22:47:07Z</time></trkpt>
<trkpt lat="25.428788" lon="99.479527">
<time>2014-08-04T22:47:08Z</time></trkpt>
<trkpt lat="25.428757" lon="99.479396">
<time>2014-08-04T22:47:09Z</time></trkpt>
<trkpt lat="25.428727" lon="99.479186">
<time>2014-08-04T22:47:10Z</time></trkpt>
<trkpt lat="25.428706" lon="99.479075">
<time>2014-08-04T22:47:11Z</time></trkpt>
<trkpt lat="25.428656" lon="99.478895">
<time>2014-08-04T22:47:12Z</time></trkpt>
<trkpt lat="25.428595" lon="99.478704">
<time>2014-08-04T22:47:13Z</time></trkpt>
<trkpt lat="25.428555" lon="99.478604">
<time>2014-08-04T22:47:14Z</time></trkpt>
<trkpt lat="25.428525" lon="99.478504">
<time>2014-08-04T22:47:15Z</time></trkpt>
<trkpt lat="25.428484" lon="99.478414">
<time>2014-08-04T22:47:16Z</time></trkpt>
<trkpt lat="25.428444" lon="99.478323">
<time>2014-08-04T22:47:17Z</time></trkpt>
<trkpt lat="25.428384" lon="99.478203">
<time>2014-08-04T22:47:18Z</time></trkpt>
<trkpt lat="25.428313" lon="99.478053">
<time>2014-08-04T22:47:19Z</time></trkpt>
<trkpt lat="25.428233" lon="99.477922">
<time>2014-08-04T22:47:20Z</time></trkpt>
<trkpt lat="25.428193" lon="99.477842">
<time>2014-08-04T22:47:21Z</time></trkpt>
<trkpt lat="25.428122" lon="99.477742">
<time>2014-08-04T22:47:22Z</time></trkpt>
<trkpt lat="25.428042" lon="99.477632">
<time>2014-08-04T22:47:23Z</time></trkpt>
<trkpt lat="25.427952" lon="99.477501">
<time>2014-08-04T22:47:24Z</time></trkpt>
<trkpt lat="25.427771" lon="99.477291">
<time>2014-08-04T22:47:25Z</time></trkpt>
<trkpt lat="25.42757" lon="99.47698">
<time>2014-08-04T22:47:26Z</time></trkpt>
<trkpt lat="25.42749" lon="99.47686">
<time>2014-08-04T22:47:27Z</time></trkpt>
<trkpt lat="25.427419" lon="99.476759">
<time>2014-08-04T22:47:28Z</time></trkpt>
<trkpt lat="25.427309" lon="99.476559">
<time>2014-08-04T22:47:29Z</time></trkpt>
<trkpt lat="25.427238" lon="99.476438">
<time>2014-08-04T22:47:30Z</time></trkpt>
<trkpt lat="25.427178" lon="99.476348">
<time>2014-08-04T22:47:31Z</time></trkpt>
<trkpt lat="25.427118" lon="99.476278">
<time>2014-08-04T22:47:32Z</time></trkpt>
<trkpt lat="25.427048" lon="99.476188">
<time>2014-08-04T22:47:33Z</time></trkpt>
<trkpt lat="25.426857" lon="99.475967">
<time>2014-08-04T22:47:34Z</time></trkpt>
<trkpt lat="25.426747" lon="99.475847">
<time>2014-08-04T22:47:35Z</time></trkpt>
<trkpt lat="25.426646" lon="99.475707">
<time>2014-08-04T22:47:36Z</time></trkpt>
<trkpt lat="25.426546" lon="99.475546">
<time>2014-08-04T22:47:37Z</time></trkpt>
<trkpt lat="25.426486" lon="99.475456">
<time>2014-08-04T22:47:38Z</time></trkpt>
<trkpt lat="25.426345" lon="99.475215">
<time>2014-08-04T22:47:39Z</time></trkpt>
<trkpt lat="25.425913" lon="99.474483">
<time>2014-08-04T22:47:40Z</time></trkpt>
<trkpt lat="25.425852" lon="99.474363">
<time>2014-08-04T22:47:41Z</time></trkpt>
<trkpt lat="25.425802" lon="99.474263">
<time>2014-08-04T22:47:42Z</time></trkpt>
<trkpt lat="25.425772" lon="99.474193">
<time>2014-08-04T22:47:43Z</time></trkpt>
<trkpt lat="25.425732" lon="99.474092">
<time>2014-08-04T22:47:44Z</time></trkpt>
<trkpt lat="25.425711" lon="99.474032">
<time>2014-08-04T22:47:45Z</time></trkpt>
<trkpt lat="25.425701" lon="99.473982">
<time>2014-08-04T22:47:46Z</time></trkpt>
<trkpt lat="25.425691" lon="99.473922">
<time>2014-08-04T22:47:47Z</time></trkpt>
<trkpt lat="25.425691" lon="99.473802">
<time>2014-08-04T22:47:48Z</time></trkpt>
<trkpt lat="25.425691" lon="99.473681">
<time>2014-08-04T22:47:49Z</time></trkpt>
<trkpt lat="25.42569" lon="99.473501">
<time>2014-08-04T22:47:50Z</time></trkpt>
<trkpt lat="25.425807" lon="99.472268">
<time>2014-08-04T22:47:51Z</time></trkpt>
<trkpt lat="25.425875" lon="99.471516">
<time>2014-08-04T22:47:52Z</time></trkpt>
<trkpt lat="25.425933" lon="99.470934">
<time>2014-08-04T22:47:53Z</time></trkpt>
<trkpt lat="25.425972" lon="99.470463">
<time>2014-08-04T22:47:54Z</time></trkpt>
<trkpt lat="25.425981" lon="99.470313">
<time>2014-08-04T22:47:55Z</time></trkpt>
<trkpt lat="25.425971" lon="99.470213">
<time>2014-08-04T22:47:56Z</time></trkpt>
<trkpt lat="25.425971" lon="99.470112">
<time>2014-08-04T22:47:57Z</time></trkpt>
<trkpt lat="25.425961" lon="99.470042">
<time>2014-08-04T22:47:58Z</time></trkpt>
<trkpt lat="25.425951" lon="99.469972">
<time>2014-08-04T22:47:59Z</time></trkpt>
<trkpt lat="25.42593" lon="99.469892">
<time>2014-08-04T22:48:00Z</time></trkpt>
<trkpt lat="25.4259" lon="99.469822">
<time>2014-08-04T22:48:01Z</time></trkpt>
<trkpt lat="25.42587" lon="99.469751">
<time>2014-08-04T22:48:02Z</time></trkpt>
<trkpt lat="25.42584" lon="99.469671">
<time>2014-08-04T22:48:03Z</time></trkpt>
<trkpt lat="25.425749" lon="99.469521">
<time>2014-08-04T22:48:04Z</time></trkpt>
<trkpt lat="25.424976" lon="99.468218">
<time>2014-08-04T22:48:05Z</time></trkpt>
<trkpt lat="25.424875" lon="99.468057">
<time>2014-08-04T22:48:06Z</time></trkpt>
<trkpt lat="25.424785" lon="99.467937">
<time>2014-08-04T22:48:07Z</time></trkpt>
<trkpt lat="25.424725" lon="99.467847">
<time>2014-08-04T22:48:08Z</time></trkpt>
<trkpt lat="25.424654" lon="99.467767">
<time>2014-08-04T22:48:09Z</time></trkpt>
<trkpt lat="25.424594" lon="99.467707">
<time>2014-08-04T22:48:10Z</time></trkpt>
<trkpt lat="25.424534" lon="99.467646">
<time>2014-08-04T22:48:11Z</time></trkpt>
<trkpt lat="25.424484" lon="99.467596">
<time>2014-08-04T22:48:12Z</time></trkpt>
<trkpt lat="25.424404" lon="99.467536">
<time>2014-08-04T22:48:13Z</time></trkpt>
<trkpt lat="25.424344" lon="99.467486">
<time>2014-08-04T22:48:14Z</time></trkpt>
<trkpt lat="25.424284" lon="99.467456">
<time>2014-08-04T22:48:15Z</time></trkpt>
<trkpt lat="25.423933" lon="99.467235">
<time>2014-08-04T22:48:16Z</time></trkpt>
<trkpt lat="25.423853" lon="99.467185">
<time>2014-08-04T22:48:17Z</time></trkpt>
<trkpt lat="25.423742" lon="99.467085">
<time>2014-08-04T22:48:18Z</time></trkpt>
<trkpt lat="25.423682" lon="99.467035">
<time>2014-08-04T22:48:19Z</time></trkpt>
<trkpt lat="25.423632" lon="99.466965">
<time>2014-08-04T22:48:20Z</time></trkpt>
<trkpt lat="25.423572" lon="99.466865">
<time>2014-08-04T22:48:21Z</time></trkpt>
<trkpt lat="25.423532" lon="99.466764">
<time>2014-08-04T22:48:22Z</time></trkpt>
<trkpt lat="25.423491" lon="99.466614">
<time>2014-08-04T22:48:23Z</time></trkpt>
<trkpt lat="25.42338" lon="99.466173">
<time>2014-08-04T22:48:24Z</time></trkpt>
<trkpt lat="25.423249" lon="99.465612">
<time>2014-08-04T22:48:25Z</time></trkpt>
<trkpt lat="25.423107" lon="99.46505">
<time>2014-08-04T22:48:26Z</time></trkpt>
<trkpt lat="25.422915" lon="99.464339">
<time>2014-08-04T22:48:27Z</time></trkpt>
<trkpt lat="25.422855" lon="99.464068">
<time>2014-08-04T22:48:28Z</time></trkpt>
<trkpt lat="25.422814" lon="99.463888">
<time>2014-08-04T22:48:29Z</time></trkpt>
<trkpt lat="25.422784" lon="99.463757">
<time>2014-08-04T22:48:30Z</time></trkpt>
<trkpt lat="25.422723" lon="99.463567">
<time>2014-08-04T22:48:31Z</time></trkpt>
<trkpt lat="25.422653" lon="99.463366">
<time>2014-08-04T22:48:32Z</time></trkpt>
<trkpt lat="25.422582" lon="99.463196">
<time>2014-08-04T22:48:33Z</time></trkpt>
<trkpt lat="25.422542" lon="99.463086">
<time>2014-08-04T22:48:34Z</time></trkpt>
<trkpt lat="25.422522" lon="99.462976">
<time>2014-08-04T22:48:35Z</time></trkpt>
<trkpt lat="25.422501" lon="99.462865">
<time>2014-08-04T22:48:36Z</time></trkpt>
<trkpt lat="25.422501" lon="99.462765">
<time>2014-08-04T22:48:37Z</time></trkpt>
<trkpt lat="25.4225" lon="99.462464">
<time>2014-08-04T22:48:38Z</time></trkpt>
<trkpt lat="25.422519" lon="99.461933">
<time>2014-08-04T22:48:39Z</time></trkpt>
<trkpt lat="25.422529" lon="99.461693">
<time>2014-08-04T22:48:40Z</time></trkpt>
<trkpt lat="25.422528" lon="99.461572">
<time>2014-08-04T22:48:41Z</time></trkpt>
<trkpt lat="25.422548" lon="99.461442">
<time>2014-08-04T22:48:42Z</time></trkpt>
<trkpt lat="25.422568" lon="99.461322">
<time>2014-08-04T22:48:43Z</time></trkpt>
<trkpt lat="25.422607" lon="99.461181">
<time>2014-08-04T22:48:44Z</time></trkpt>
<trkpt lat="25.422677" lon="99.460981">
<time>2014-08-04T22:48:45Z</time></trkpt>
<trkpt lat="25.422746" lon="99.460751">
<time>2014-08-04T22:48:46Z</time></trkpt>
<trkpt lat="25.422796" lon="99.46057">
<time>2014-08-04T22:48:47Z</time></trkpt>
<trkpt lat="25.422845" lon="99.4604">
<time>2014-08-04T22:48:48Z</time></trkpt>
<trkpt lat="25.422875" lon="99.4603">
<time>2014-08-04T22:48:49Z</time></trkpt>
<trkpt lat="25.422905" lon="99.460159">
<time>2014-08-04T22:48:50Z</time></trkpt>
<trkpt lat="25.422925" lon="99.460029">
<time>2014-08-04T22:48:51Z</time></trkpt>
<trkpt lat="25.422934" lon="99.459929">
<time>2014-08-04T22:48:52Z</time></trkpt>
<trkpt lat="25.422954" lon="99.459849">
<time>2014-08-04T22:48:53Z</time></trkpt>
<trkpt lat="25.422974" lon="99.459748">
<time>2014-08-04T22:48:54Z</time></trkpt>
<trkpt lat="25.423004" lon="99.459658">
<time>2014-08-04T22:48:55Z</time></trkpt>
<trkpt lat="25.423043" lon="99.459568">
<time>2014-08-04T22:48:56Z</time></trkpt>
<trkpt lat="25.423093" lon="99.459448">
<time>2014-08-04T22:48:57Z</time></trkpt>
<trkpt lat="25.423143" lon="99.459337">
<time>2014-08-04T22:48:58Z</time></trkpt>
<trkpt lat="25.423233" lon="99.459167">
<time>2014-08-04T22:48:59Z</time></trkpt>
<trkpt lat="25.423332" lon="99.458977">
<time>2014-08-04T22:49:00Z</time></trkpt>
<trkpt lat="25.423452" lon="99.458756">
<time>2014-08-04T22:49:01Z</time></trkpt>
<trkpt lat="25.423521" lon="99.458626">
<time>2014-08-04T22:49:02Z</time></trkpt>
<trkpt lat="25.423591" lon="99.458526">
<time>2014-08-04T22:49:03Z</time></trkpt>
<trkpt lat="25.423671" lon="99.458395">
<time>2014-08-04T22:49:04Z</time></trkpt>
<trkpt lat="25.42388" lon="99.458135">
<time>2014-08-04T22:49:05Z</time></trkpt>
<trkpt lat="25.42406" lon="99.457934">
<time>2014-08-04T22:49:06Z</time></trkpt>
<trkpt lat="25.42417" lon="99.457794">
<time>2014-08-04T22:49:07Z</time></trkpt>
<trkpt lat="25.424269" lon="99.457664">
<time>2014-08-04T22:49:08Z</time></trkpt>
<trkpt lat="25.424319" lon="99.457594">
<time>2014-08-04T22:49:09Z</time></trkpt>
<trkpt lat="25.424389" lon="99.457534">
<time>2014-08-04T22:49:10Z</time></trkpt>
<trkpt lat="25.424439" lon="99.457463">
<time>2014-08-04T22:49:11Z</time></trkpt>
<trkpt lat="25.424489" lon="99.457423">
<time>2014-08-04T22:49:12Z</time></trkpt>
<trkpt lat="25.424549" lon="99.457373">
<time>2014-08-04T22:49:13Z</time></trkpt>
<trkpt lat="25.424589" lon="99.457343">
<time>2014-08-04T22:49:14Z</time></trkpt>
<trkpt lat="25.424638" lon="99.457303">
<time>2014-08-04T22:49:15Z</time></trkpt>
<trkpt lat="25.424698" lon="99.457273">
<time>2014-08-04T22:49:16Z</time></trkpt>
<trkpt lat="25.424768" lon="99.457223">
<time>2014-08-04T22:49:17Z</time></trkpt>
<trkpt lat="25.424868" lon="99.457153">
<time>2014-08-04T22:49:18Z</time></trkpt>
<trkpt lat="25.424938" lon="99.457103">
<time>2014-08-04T22:49:19Z</time></trkpt>
<trkpt lat="25.424988" lon="99.457063">
<time>2014-08-04T22:49:20Z</time></trkpt>
<trkpt lat="25.425028" lon="99.457023">
<time>2014-08-04T22:49:21Z</time></trkpt>
<trkpt lat="25.425068" lon="99.456982">
<time>2014-08-04T22:49:22Z</time></trkpt>
<trkpt lat="25.425088" lon="99.456952">
<time>2014-08-04T22:49:23Z</time></trkpt>
<trkpt lat="25.425118" lon="99.456892">
<time>2014-08-04T22:49:24Z</time></trkpt>
<trkpt lat="25.425147" lon="99.456822">
<time>2014-08-04T22:49:25Z</time></trkpt>
<trkpt lat="25.425187" lon="99.456752">
<time>2014-08-04T22:49:26Z</time></trkpt>
<trkpt lat="25.425227" lon="99.456642">
<time>2014-08-04T22:49:27Z</time></trkpt>
<trkpt lat="25.425257" lon="99.456582">
<time>2014-08-04T22:49:28Z</time></trkpt>
<trkpt lat="25.425277" lon="99.456532">
<time>2014-08-04T22:49:29Z</time></trkpt>
<trkpt lat="25.425317" lon="99.456471">
<time>2014-08-04T22:49:30Z</time></trkpt>
<trkpt lat="25.425347" lon="99.456411">
<time>2014-08-04T22:49:31Z</time></trkpt>
<trkpt lat="25.425386" lon="99.456351">
<time>2014-08-04T22:49:32Z</time></trkpt>
<trkpt lat="25.425416" lon="99.456301">
<time>2014-08-04T22:49:33Z</time></trkpt>
<trkpt lat="25.425456" lon="99.456251">
<time>2014-08-04T22:49:34Z</time></trkpt>
<trkpt lat="25.425496" lon="99.456201">
<time>2014-08-04T22:49:35Z</time></trkpt>
<trkpt lat="25.425566" lon="99.456121">
<time>2014-08-04T22:49:36Z</time></trkpt>
<trkpt lat="25.425935" lon="99.45571">
<time>2014-08-04T22:49:37Z</time></trkpt>
<trkpt lat="25.426224" lon="99.455399">
<time>2014-08-04T22:49:38Z</time></trkpt>
<trkpt lat="25.426354" lon="99.455249">
<time>2014-08-04T22:49:39Z</time></trkpt>
<trkpt lat="25.426514" lon="99.455079">
<time>2014-08-04T22:49:40Z</time></trkpt>
<trkpt lat="25.426564" lon="99.455018">
<time>2014-08-04T22:49:41Z</time></trkpt>
<trkpt lat="25.426634" lon="99.454948">
<time>2014-08-04T22:49:42Z</time></trkpt>
<trkpt lat="25.426713" lon="99.454868">
<time>2014-08-04T22:49:43Z</time></trkpt>
<trkpt lat="25.427243" lon="99.454447">
<time>2014-08-04T22:49:44Z</time></trkpt>
<trkpt lat="25.427442" lon="99.454277">
<time>2014-08-04T22:49:45Z</time></trkpt>
<trkpt lat="25.427542" lon="99.454187">
<time>2014-08-04T22:49:46Z</time></trkpt>
<trkpt lat="25.427652" lon="99.454097">
<time>2014-08-04T22:49:47Z</time></trkpt>
<trkpt lat="25.427742" lon="99.454006">
<time>2014-08-04T22:49:48Z</time></trkpt>
<trkpt lat="25.427792" lon="99.453956">
<time>2014-08-04T22:49:49Z</time></trkpt>
<trkpt lat="25.427832" lon="99.453906">
<time>2014-08-04T22:49:50Z</time></trkpt>
<trkpt lat="25.427901" lon="99.453816">
<time>2014-08-04T22:49:51Z</time></trkpt>
<trkpt lat="25.428041" lon="99.453586">
<time>2014-08-04T22:49:52Z</time></trkpt>
<trkpt lat="25.428141" lon="99.453445">
<time>2014-08-04T22:49:53Z</time></trkpt>
<trkpt lat="25.42828" lon="99.453245">
<time>2014-08-04T22:49:54Z</time></trkpt>
<trkpt lat="25.4284" lon="99.453085">
<time>2014-08-04T22:49:55Z</time></trkpt>
<trkpt lat="25.42847" lon="99.452984">
<time>2014-08-04T22:49:56Z</time></trkpt>
<trkpt lat="25.428569" lon="99.452854">
<time>2014-08-04T22:49:57Z</time></trkpt>
<trkpt lat="25.428649" lon="99.452754">
<time>2014-08-04T22:49:58Z</time></trkpt>
<trkpt lat="25.428699" lon="99.452684">
<time>2014-08-04T22:49:59Z</time></trkpt>
<trkpt lat="25.428739" lon="99.452624">
<time>2014-08-04T22:50:00Z</time></trkpt>
<trkpt lat="25.428769" lon="99.452554">
<time>2014-08-04T22:50:01Z</time></trkpt>
<trkpt lat="25.428819" lon="99.452473">
<time>2014-08-04T22:50:02Z</time></trkpt>
<trkpt lat="25.428848" lon="99.452393">
<time>2014-08-04T22:50:03Z</time></trkpt>
<trkpt lat="25.428898" lon="99.452283">
<time>2014-08-04T22:50:04Z</time></trkpt>
<trkpt lat="25.428958" lon="99.452133">
<time>2014-08-04T22:50:05Z</time></trkpt>
<trkpt lat="25.429018" lon="99.452023">
<time>2014-08-04T22:50:06Z</time></trkpt>
<trkpt lat="25.429067" lon="99.451932">
<time>2014-08-04T22:50:07Z</time></trkpt>
<trkpt lat="25.429107" lon="99.451872">
<time>2014-08-04T22:50:08Z</time></trkpt>
<trkpt lat="25.429147" lon="99.451832">
<time>2014-08-04T22:50:09Z</time></trkpt>
<trkpt lat="25.429207" lon="99.451752">
<time>2014-08-04T22:50:10Z</time></trkpt>
<trkpt lat="25.429247" lon="99.451712">
<time>2014-08-04T22:50:11Z</time></trkpt>
<trkpt lat="25.429307" lon="99.451652">
<time>2014-08-04T22:50:12Z</time></trkpt>
<trkpt lat="25.429347" lon="99.451602">
<time>2014-08-04T22:50:13Z</time></trkpt>
<trkpt lat="25.429407" lon="99.451562">
<time>2014-08-04T22:50:14Z</time></trkpt>
<trkpt lat="25.429457" lon="99.451512">
<time>2014-08-04T22:50:15Z</time></trkpt>
<trkpt lat="25.429487" lon="99.451482">
<time>2014-08-04T22:50:16Z</time></trkpt>
<trkpt lat="25.429527" lon="99.451431">
<time>2014-08-04T22:50:17Z</time></trkpt>
<trkpt lat="25.429566" lon="99.451381">
<time>2014-08-04T22:50:18Z</time></trkpt>
<trkpt lat="25.429606" lon="99.451321">
<time>2014-08-04T22:50:19Z</time></trkpt>
<trkpt lat="25.429656" lon="99.451241">
<time>2014-08-04T22:50:20Z</time></trkpt>
<trkpt lat="25.429706" lon="99.451151">
<time>2014-08-04T22:50:21Z</time></trkpt>
<trkpt lat="25.429776" lon="99.451051">
<time>2014-08-04T22:50:22Z</time></trkpt>
<trkpt lat="25.429816" lon="99.450981">
<time>2014-08-04T22:50:23Z</time></trkpt>
<trkpt lat="25.429855" lon="99.450911">
<time>2014-08-04T22:50:24Z</time></trkpt>
<trkpt lat="25.429945" lon="99.4508">
<time>2014-08-04T22:50:25Z</time></trkpt>
<trkpt lat="25.430005" lon="99.45071">
<time>2014-08-04T22:50:26Z</time></trkpt>
<trkpt lat="25.430085" lon="99.45064">
<time>2014-08-04T22:50:27Z</time></trkpt>
<trkpt lat="25.430135" lon="99.45059">
<time>2014-08-04T22:50:28Z</time></trkpt>
<trkpt lat="25.430185" lon="99.45054">
<time>2014-08-04T22:50:29Z</time></trkpt>
<trkpt lat="25.430265" lon="99.45047">
<time>2014-08-04T22:50:30Z</time></trkpt>
<trkpt lat="25.430325" lon="99.45043">
<time>2014-08-04T22:50:31Z</time></trkpt>
<trkpt lat="25.430375" lon="99.45039">
<time>2014-08-04T22:50:32Z</time></trkpt>
<trkpt lat="25.430444" lon="99.450349">
<time>2014-08-04T22:50:33Z</time></trkpt>
<trkpt lat="25.430594" lon="99.450279">
<time>2014-08-04T22:50:34Z</time></trkpt>
<trkpt lat="25.430794" lon="99.450189">
<time>2014-08-04T22:50:35Z</time></trkpt>
<trkpt lat="25.431344" lon="99.449969">
<time>2014-08-04T22:50:36Z</time></trkpt>
<trkpt lat="25.431614" lon="99.449869">
<time>2014-08-04T22:50:37Z</time></trkpt>
<trkpt lat="25.431824" lon="99.449808">
<time>2014-08-04T22:50:38Z</time></trkpt>
<trkpt lat="25.431994" lon="99.449748">
<time>2014-08-04T22:50:39Z</time></trkpt>
<trkpt lat="25.432054" lon="99.449738">
<time>2014-08-04T22:50:40Z</time></trkpt>
<trkpt lat="25.432114" lon="99.449728">
<time>2014-08-04T22:50:41Z</time></trkpt>
<trkpt lat="25.432164" lon="99.449718">
<time>2014-08-04T22:50:42Z</time></trkpt>
<trkpt lat="25.432214" lon="99.449718">
<time>2014-08-04T22:50:43Z</time></trkpt>
<trkpt lat="25.432264" lon="99.449718">
<time>2014-08-04T22:50:44Z</time></trkpt>
<trkpt lat="25.432374" lon="99.449718">
<time>2014-08-04T22:50:45Z</time></trkpt>
<trkpt lat="25.432434" lon="99.449718">
<time>2014-08-04T22:50:46Z</time></trkpt>
<trkpt lat="25.432494" lon="99.449708">
<time>2014-08-04T22:50:47Z</time></trkpt>
<trkpt lat="25.432554" lon="99.449698">
<time>2014-08-04T22:50:48Z</time></trkpt>
<trkpt lat="25.432614" lon="99.449668">
<time>2014-08-04T22:50:49Z</time></trkpt>
<trkpt lat="25.432673" lon="99.449628">
<time>2014-08-04T22:50:50Z</time></trkpt>
<trkpt lat="25.432743" lon="99.449588">
<time>2014-08-04T22:50:51Z</time></trkpt>
<trkpt lat="25.432833" lon="99.449508">
<time>2014-08-04T22:50:52Z</time></trkpt>
<trkpt lat="25.432953" lon="99.449378">
<time>2014-08-04T22:50:53Z</time></trkpt>
<trkpt lat="25.433083" lon="99.449237">
<time>2014-08-04T22:50:54Z</time></trkpt>
<trkpt lat="25.433182" lon="99.449097">
<time>2014-08-04T22:50:55Z</time></trkpt>
<trkpt lat="25.433232" lon="99.449037">
<time>2014-08-04T22:50:56Z</time></trkpt>
<trkpt lat="25.433292" lon="99.448957">
<time>2014-08-04T22:50:57Z</time></trkpt>
<trkpt lat="25.433392" lon="99.448837">
<time>2014-08-04T22:50:58Z</time></trkpt>
<trkpt lat="25.433462" lon="99.448747">
<time>2014-08-04T22:50:59Z</time></trkpt>
<trkpt lat="25.433542" lon="99.448646">
<time>2014-08-04T22:51:00Z</time></trkpt>
<trkpt lat="25.433631" lon="99.448536">
<time>2014-08-04T22:51:01Z</time></trkpt>
<trkpt lat="25.433751" lon="99.448396">
<time>2014-08-04T22:51:02Z</time></trkpt>
<trkpt lat="25.433871" lon="99.448276">
<time>2014-08-04T22:51:03Z</time></trkpt>
<trkpt lat="25.433941" lon="99.448176">
<time>2014-08-04T22:51:04Z</time></trkpt>
<trkpt lat="25.434031" lon="99.448055">
<time>2014-08-04T22:51:05Z</time></trkpt>
<trkpt lat="25.43409" lon="99.447945">
<time>2014-08-04T22:51:06Z</time></trkpt>
<trkpt lat="25.43417" lon="99.447835">
<time>2014-08-04T22:51:07Z</time></trkpt>
<trkpt lat="25.43423" lon="99.447735">
<time>2014-08-04T22:51:08Z</time></trkpt>
<trkpt lat="25.43431" lon="99.447605">
<time>2014-08-04T22:51:09Z</time></trkpt>
<trkpt lat="25.43437" lon="99.447484">
<time>2014-08-04T22:51:10Z</time></trkpt>
<trkpt lat="25.434419" lon="99.447384">
<time>2014-08-04T22:51:11Z</time></trkpt>
<trkpt lat="25.434479" lon="99.447264">
<time>2014-08-04T22:51:12Z</time></trkpt>
<trkpt lat="25.434519" lon="99.447184">
<time>2014-08-04T22:51:13Z</time></trkpt>
<trkpt lat="25.434569" lon="99.447064">
<time>2014-08-04T22:51:14Z</time></trkpt>
<trkpt lat="25.434599" lon="99.446994">
<time>2014-08-04T22:51:15Z</time></trkpt>
<trkpt lat="25.434618" lon="99.446903">
<time>2014-08-04T22:51:16Z</time></trkpt>
<trkpt lat="25.434648" lon="99.446813">
<time>2014-08-04T22:51:17Z</time></trkpt>
<trkpt lat="25.434678" lon="99.446703">
<time>2014-08-04T22:51:18Z</time></trkpt>
<trkpt lat="25.434698" lon="99.446613">
<time>2014-08-04T22:51:19Z</time></trkpt>
<trkpt lat="25.434728" lon="99.446473">
<time>2014-08-04T22:51:20Z</time></trkpt>
<trkpt lat="25.434747" lon="99.446352">
<time>2014-08-04T22:51:21Z</time></trkpt>
<trkpt lat="25.434777" lon="99.446212">
<time>2014-08-04T22:51:22Z</time></trkpt>
<trkpt lat="25.434817" lon="99.446062">
<time>2014-08-04T22:51:23Z</time></trkpt>
<trkpt lat="25.434837" lon="99.445972">
<time>2014-08-04T22:51:24Z</time></trkpt>
<trkpt lat="25.434866" lon="99.445852">
<time>2014-08-04T22:51:25Z</time></trkpt>
<trkpt lat="25.434896" lon="99.445741">
<time>2014-08-04T22:51:26Z</time></trkpt>
<trkpt lat="25.434926" lon="99.445641">
<time>2014-08-04T22:51:27Z</time></trkpt>
<trkpt lat="25.434956" lon="99.445541">
<time>2014-08-04T22:51:28Z</time></trkpt>
<trkpt lat="25.435006" lon="99.445401">
<time>2014-08-04T22:51:29Z</time></trkpt>
<trkpt lat="25.435055" lon="99.445301">
<time>2014-08-04T22:51:30Z</time></trkpt>
<trkpt lat="25.435145" lon="99.44511">
<time>2014-08-04T22:51:31Z</time></trkpt>
<trkpt lat="25.435245" lon="99.4449">
<time>2014-08-04T22:51:32Z</time></trkpt>
<trkpt lat="25.435324" lon="99.44472">
<time>2014-08-04T22:51:33Z</time></trkpt>
<trkpt lat="25.435404" lon="99.4446">
<time>2014-08-04T22:51:34Z</time></trkpt>
<trkpt lat="25.435474" lon="99.444469">
<time>2014-08-04T22:51:35Z</time></trkpt>
<trkpt lat="25.435534" lon="99.444349">
<time>2014-08-04T22:51:36Z</time></trkpt>
<trkpt lat="25.435643" lon="99.444159">
<time>2014-08-04T22:51:37Z</time></trkpt>
<trkpt lat="25.435723" lon="99.444039">
<time>2014-08-04T22:51:38Z</time></trkpt>
<trkpt lat="25.435773" lon="99.443969">
<time>2014-08-04T22:51:39Z</time></trkpt>
<trkpt lat="25.435833" lon="99.443878">
<time>2014-08-04T22:51:40Z</time></trkpt>
<trkpt lat="25.435873" lon="99.443818">
<time>2014-08-04T22:51:41Z</time></trkpt>
<trkpt lat="25.435963" lon="99.443698">
<time>2014-08-04T22:51:42Z</time></trkpt>
<trkpt lat="25.436182" lon="99.443428">
<time>2014-08-04T22:51:43Z</time></trkpt>
<trkpt lat="25.436342" lon="99.443227">
<time>2014-08-04T22:51:44Z</time></trkpt>
<trkpt lat="25.436452" lon="99.443107">
<time>2014-08-04T22:51:45Z</time></trkpt>
<trkpt lat="25.436521" lon="99.443017">
<time>2014-08-04T22:51:46Z</time></trkpt>
<trkpt lat="25.436601" lon="99.442907">
<time>2014-08-04T22:51:47Z</time></trkpt>
<trkpt lat="25.436681" lon="99.442817">
<time>2014-08-04T22:51:48Z</time></trkpt>
<trkpt lat="25.436841" lon="99.442597">
<time>2014-08-04T22:51:49Z</time></trkpt>
<trkpt lat="25.436941" lon="99.442436">
<time>2014-08-04T22:51:50Z</time></trkpt>
<trkpt lat="25.43701" lon="99.442326">
<time>2014-08-04T22:51:51Z</time></trkpt>
<trkpt lat="25.43708" lon="99.442216">
<time>2014-08-04T22:51:52Z</time></trkpt>
<trkpt lat="25.43716" lon="99.442076">
<time>2014-08-04T22:51:53Z</time></trkpt>
<trkpt lat="25.43724" lon="99.441936">
<time>2014-08-04T22:51:54Z</time></trkpt>
<trkpt lat="25.437379" lon="99.441675">
<time>2014-08-04T22:51:55Z</time></trkpt>
<trkpt lat="25.437479" lon="99.441485">
<time>2014-08-04T22:51:56Z</time></trkpt>
<trkpt lat="25.437559" lon="99.441345">
<time>2014-08-04T22:51:57Z</time></trkpt>
<trkpt lat="25.437628" lon="99.441194">
<time>2014-08-04T22:51:58Z</time></trkpt>
<trkpt lat="25.437688" lon="99.441044">
<time>2014-08-04T22:51:59Z</time></trkpt>
<trkpt lat="25.437728" lon="99.440934">
<time>2014-08-04T22:52:00Z</time></trkpt>
<trkpt lat="25.437778" lon="99.440784">
<time>2014-08-04T22:52:01Z</time></trkpt>
<trkpt lat="25.437818" lon="99.440624">
<time>2014-08-04T22:52:02Z</time></trkpt>
<trkpt lat="25.437897" lon="99.440293">
<time>2014-08-04T22:52:03Z</time></trkpt>
<trkpt lat="25.437947" lon="99.440113">
<time>2014-08-04T22:52:04Z</time></trkpt>
<trkpt lat="25.438066" lon="99.439742">
<time>2014-08-04T22:52:05Z</time></trkpt>
<trkpt lat="25.438116" lon="99.439602">
<time>2014-08-04T22:52:06Z</time></trkpt>
<trkpt lat="25.438156" lon="99.439512">
<time>2014-08-04T22:52:07Z</time></trkpt>
<trkpt lat="25.438216" lon="99.439392">
<time>2014-08-04T22:52:08Z</time></trkpt>
<trkpt lat="25.438255" lon="99.439342">
<time>2014-08-04T22:52:09Z</time></trkpt>
<trkpt lat="25.438285" lon="99.439312">
<time>2014-08-04T22:52:10Z</time></trkpt>
<trkpt lat="25.438315" lon="99.439272">
<time>2014-08-04T22:52:11Z</time></trkpt>
<trkpt lat="25.438365" lon="99.439232">
<time>2014-08-04T22:52:12Z</time></trkpt>
<trkpt lat="25.438395" lon="99.439212">
<time>2014-08-04T22:52:13Z</time></trkpt>
<trkpt lat="25.438435" lon="99.439192">
<time>2014-08-04T22:52:14Z</time></trkpt>
<trkpt lat="25.438485" lon="99.439152">
<time>2014-08-04T22:52:15Z</time></trkpt>
<trkpt lat="25.438605" lon="99.439102">
<time>2014-08-04T22:52:16Z</time></trkpt>
<trkpt lat="25.438895" lon="99.438991">
<time>2014-08-04T22:52:17Z</time></trkpt>
<trkpt lat="25.439215" lon="99.438861">
<time>2014-08-04T22:52:18Z</time></trkpt>
<trkpt lat="25.439545" lon="99.438721">
<time>2014-08-04T22:52:19Z</time></trkpt>
<trkpt lat="25.440085" lon="99.438501">
<time>2014-08-04T22:52:20Z</time></trkpt>
<trkpt lat="25.440574" lon="99.43832">
<time>2014-08-04T22:52:21Z</time></trkpt>
<trkpt lat="25.440954" lon="99.43817">
<time>2014-08-04T22:52:22Z</time></trkpt>
<trkpt lat="25.441194" lon="99.43808">
<time>2014-08-04T22:52:23Z</time></trkpt>
<trkpt lat="25.441284" lon="99.43804">
<time>2014-08-04T22:52:24Z</time></trkpt>
<trkpt lat="25.441474" lon="99.43797">
<time>2014-08-04T22:52:25Z</time></trkpt>
<trkpt lat="25.441564" lon="99.43794">
<time>2014-08-04T22:52:26Z</time></trkpt>
<trkpt lat="25.441754" lon="99.43787">
<time>2014-08-04T22:52:27Z</time></trkpt>
<trkpt lat="25.441814" lon="99.43785">
<time>2014-08-04T22:52:28Z</time></trkpt>
<trkpt lat="25.441904" lon="99.43783">
<time>2014-08-04T22:52:29Z</time></trkpt>
<trkpt lat="25.441974" lon="99.43782">
<time>2014-08-04T22:52:30Z</time></trkpt>
<trkpt lat="25.442044" lon="99.43781">
<time>2014-08-04T22:52:31Z</time></trkpt>
<trkpt lat="25.442314" lon="99.43778">
<time>2014-08-04T22:52:32Z</time></trkpt>
<trkpt lat="25.442564" lon="99.43777">
<time>2014-08-04T22:52:33Z</time></trkpt>
<trkpt lat="25.442694" lon="99.43775">
<time>2014-08-04T22:52:34Z</time></trkpt>
<trkpt lat="25.442974" lon="99.4377">
<time>2014-08-04T22:52:35Z</time></trkpt>
<trkpt lat="25.443084" lon="99.43768">
<time>2014-08-04T22:52:36Z</time></trkpt>
<trkpt lat="25.443214" lon="99.43766">
<time>2014-08-04T22:52:37Z</time></trkpt>
<trkpt lat="25.443374" lon="99.43762">
<time>2014-08-04T22:52:38Z</time></trkpt>
<trkpt lat="25.443554" lon="99.437569">
<time>2014-08-04T22:52:39Z</time></trkpt>
<trkpt lat="25.443684" lon="99.437549">
<time>2014-08-04T22:52:40Z</time></trkpt>
<trkpt lat="25.443774" lon="99.437519">
<time>2014-08-04T22:52:41Z</time></trkpt>
<trkpt lat="25.444074" lon="99.437459">
<time>2014-08-04T22:52:42Z</time></trkpt>
<trkpt lat="25.444314" lon="99.437429">
<time>2014-08-04T22:52:43Z</time></trkpt>
<trkpt lat="25.444434" lon="99.437409">
<time>2014-08-04T22:52:44Z</time></trkpt>
<trkpt lat="25.444484" lon="99.437399">
<time>2014-08-04T22:52:45Z</time></trkpt>
<trkpt lat="25.444534" lon="99.437379">
<time>2014-08-04T22:52:46Z</time></trkpt>
<trkpt lat="25.444584" lon="99.437359">
<time>2014-08-04T22:52:47Z</time></trkpt>
<trkpt lat="25.444644" lon="99.437319">
<time>2014-08-04T22:52:48Z</time></trkpt>
<trkpt lat="25.444674" lon="99.437289">
<time>2014-08-04T22:52:49Z</time></trkpt>
<trkpt lat="25.444694" lon="99.437259">
<time>2014-08-04T22:52:50Z</time></trkpt>
<trkpt lat="25.444704" lon="99.437229">
<time>2014-08-04T22:52:51Z</time></trkpt>
<trkpt lat="25.444704" lon="99.437199">
<time>2014-08-04T22:52:52Z</time></trkpt>
<trkpt lat="25.444704" lon="99.437189">
<time>2014-08-04T22:52:53Z</time></trkpt>
<trkpt lat="25.444713" lon="99.437049">
<time>2014-08-04T22:52:54Z</time></trkpt>
<trkpt lat="25.444553" lon="99.436999">
<time>2014-08-04T22:52:55Z</time></trkpt>
<trkpt lat="25.444463" lon="99.436989">
<time>2014-08-04T22:52:56Z</time></trkpt>
<trkpt lat="25.444333" lon="99.436989">
<time>2014-08-04T22:52:57Z</time></trkpt>
<trkpt lat="25.444203" lon="99.436989">
<time>2014-08-04T22:52:58Z</time></trkpt>
<trkpt lat="25.444063" lon="99.436999">
<time>2014-08-04T22:52:59Z</time></trkpt>
<trkpt lat="25.443963" lon="99.437009">
<time>2014-08-04T22:53:00Z</time></trkpt>
<trkpt lat="25.443813" lon="99.437029">
<time>2014-08-04T22:53:01Z</time></trkpt>
<trkpt lat="25.443683" lon="99.437059">
<time>2014-08-04T22:53:02Z</time></trkpt>
<trkpt lat="25.443543" lon="99.437079">
<time>2014-08-04T22:53:03Z</time></trkpt>
<trkpt lat="25.443423" lon="99.437099">
<time>2014-08-04T22:53:04Z</time></trkpt>
<trkpt lat="25.443353" lon="99.437109">
<time>2014-08-04T22:53:05Z</time></trkpt>
<trkpt lat="25.443263" lon="99.437119">
<time>2014-08-04T22:53:06Z</time></trkpt>
<trkpt lat="25.443183" lon="99.437119">
<time>2014-08-04T22:53:07Z</time></trkpt>
<trkpt lat="25.443093" lon="99.437119">
<time>2014-08-04T22:53:08Z</time></trkpt>
<trkpt lat="25.443003" lon="99.437119">
<time>2014-08-04T22:53:09Z</time></trkpt>
<trkpt lat="25.442883" lon="99.437109">
<time>2014-08-04T22:53:10Z</time></trkpt>
<trkpt lat="25.442713" lon="99.437089">
<time>2014-08-04T22:53:11Z</time></trkpt>
<trkpt lat="25.442573" lon="99.437069">
<time>2014-08-04T22:53:12Z</time></trkpt>
<trkpt lat="25.442403" lon="99.437059">
<time>2014-08-04T22:53:13Z</time></trkpt>
<trkpt lat="25.442263" lon="99.437049">
<time>2014-08-04T22:53:14Z</time></trkpt>
<trkpt lat="25.442093" lon="99.437049">
<time>2014-08-04T22:53:15Z</time></trkpt>
<trkpt lat="25.441953" lon="99.437049">
<time>2014-08-04T22:53:16Z</time></trkpt>
<trkpt lat="25.441793" lon="99.437039">
<time>2014-08-04T22:53:17Z</time></trkpt>
<trkpt lat="25.441663" lon="99.437029">
<time>2014-08-04T22:53:18Z</time></trkpt>
<trkpt lat="25.441572" lon="99.437009">
<time>2014-08-04T22:53:19Z</time></trkpt>
<trkpt lat="25.441522" lon="99.436999">
<time>2014-08-04T22:53:20Z</time></trkpt>
<trkpt lat="25.441462" lon="99.436979">
<time>2014-08-04T22:53:21Z</time></trkpt>
<trkpt lat="25.441422" lon="99.436949">
<time>2014-08-04T22:53:22Z</time></trkpt>
<trkpt lat="25.441362" lon="99.436909">
<time>2014-08-04T22:53:23Z</time></trkpt>
<trkpt lat="25.441322" lon="99.436859">
<time>2014-08-04T22:53:24Z</time></trkpt>
<trkpt lat="25.441272" lon="99.436799">
<time>2014-08-04T22:53:25Z</time></trkpt>
<trkpt lat="25.441242" lon="99.436728">
<time>2014-08-04T22:53:26Z</time></trkpt>
<trkpt lat="25.441232" lon="99.436678">
<time>2014-08-04T22:53:27Z</time></trkpt>
<trkpt lat="25.441212" lon="99.436598">
<time>2014-08-04T22:53:28Z</time></trkpt>
<trkpt lat="25.441212" lon="99.436548">
<time>2014-08-04T22:53:29Z</time></trkpt>
<trkpt lat="25.441222" lon="99.436488">
<time>2014-08-04T22:53:30Z</time></trkpt>
<trkpt lat="25.441241" lon="99.436428">
<time>2014-08-04T22:53:31Z</time></trkpt>
<trkpt lat="25.441261" lon="99.436378">
<time>2014-08-04T22:53:32Z</time></trkpt>
<trkpt lat="25.441291" lon="99.436298">
<time>2014-08-04T22:53:33Z</time></trkpt>
<trkpt lat="25.441331" lon="99.436208">
<time>2014-08-04T22:53:34Z</time></trkpt>
<trkpt lat="25.441391" lon="99.436118">
<time>2014-08-04T22:53:35Z</time></trkpt>
<trkpt lat="25.441511" lon="99.435927">
<time>2014-08-04T22:53:36Z</time></trkpt>
<trkpt lat="25.44183" lon="99.435467">
<time>2014-08-04T22:53:37Z</time></trkpt>
<trkpt lat="25.442089" lon="99.434996">
<time>2014-08-04T22:53:38Z</time></trkpt>
<trkpt lat="25.442159" lon="99.434866">
<time>2014-08-04T22:53:39Z</time></trkpt>
<trkpt lat="25.442189" lon="99.434796">
<time>2014-08-04T22:53:40Z</time></trkpt>
<trkpt lat="25.442219" lon="99.434716">
<time>2014-08-04T22:53:41Z</time></trkpt>
<trkpt lat="25.442249" lon="99.434626">
<time>2014-08-04T22:53:42Z</time></trkpt>
<trkpt lat="25.442259" lon="99.434546">
<time>2014-08-04T22:53:43Z</time></trkpt>
<trkpt lat="25.442279" lon="99.434486">
<time>2014-08-04T22:53:44Z</time></trkpt>
<trkpt lat="25.442289" lon="99.434386">
<time>2014-08-04T22:53:45Z</time></trkpt>
<trkpt lat="25.442298" lon="99.434266">
<time>2014-08-04T22:53:46Z</time></trkpt>
<trkpt lat="25.442308" lon="99.434105">
<time>2014-08-04T22:53:47Z</time></trkpt>
<trkpt lat="25.442308" lon="99.434025">
<time>2014-08-04T22:53:48Z</time></trkpt>
<trkpt lat="25.442298" lon="99.433845">
<time>2014-08-04T22:53:49Z</time></trkpt>
<trkpt lat="25.442278" lon="99.433745">
<time>2014-08-04T22:53:50Z</time></trkpt>
<trkpt lat="25.442237" lon="99.433395">
<time>2014-08-04T22:53:51Z</time></trkpt>
<trkpt lat="25.442217" lon="99.433254">
<time>2014-08-04T22:53:52Z</time></trkpt>
<trkpt lat="25.442217" lon="99.433154">
<time>2014-08-04T22:53:53Z</time></trkpt>
<trkpt lat="25.442217" lon="99.433044">
<time>2014-08-04T22:53:54Z</time></trkpt>
<trkpt lat="25.442227" lon="99.432964">
<time>2014-08-04T22:53:55Z</time></trkpt>
<trkpt lat="25.442246" lon="99.432844">
<time>2014-08-04T22:53:56Z</time></trkpt>
<trkpt lat="25.442286" lon="99.432674">
<time>2014-08-04T22:53:57Z</time></trkpt>
<trkpt lat="25.442336" lon="99.432524">
<time>2014-08-04T22:53:58Z</time></trkpt>
<trkpt lat="25.442376" lon="99.432404">
<time>2014-08-04T22:53:59Z</time></trkpt>
<trkpt lat="25.442406" lon="99.432253">
<time>2014-08-04T22:54:00Z</time></trkpt>
<trkpt lat="25.442425" lon="99.432103">
<time>2014-08-04T22:54:01Z</time></trkpt>
<trkpt lat="25.442435" lon="99.431993">
<time>2014-08-04T22:54:02Z</time></trkpt>
<trkpt lat="25.442435" lon="99.431823">
<time>2014-08-04T22:54:03Z</time></trkpt>
<trkpt lat="25.442435" lon="99.431603">
<time>2014-08-04T22:54:04Z</time></trkpt>
<trkpt lat="25.442425" lon="99.431513">
<time>2014-08-04T22:54:05Z</time></trkpt>
<trkpt lat="25.442384" lon="99.431353">
<time>2014-08-04T22:54:06Z</time></trkpt>
<trkpt lat="25.442364" lon="99.431212">
<time>2014-08-04T22:54:07Z</time></trkpt>
<trkpt lat="25.442364" lon="99.431112">
<time>2014-08-04T22:54:08Z</time></trkpt>
<trkpt lat="25.442374" lon="99.431052">
<time>2014-08-04T22:54:09Z</time></trkpt>
<trkpt lat="25.442384" lon="99.431002">
<time>2014-08-04T22:54:10Z</time></trkpt>
<trkpt lat="25.442424" lon="99.430932">
<time>2014-08-04T22:54:11Z</time></trkpt>
<trkpt lat="25.442464" lon="99.430882">
<time>2014-08-04T22:54:12Z</time></trkpt>
<trkpt lat="25.442504" lon="99.430832">
<time>2014-08-04T22:54:13Z</time></trkpt>
<trkpt lat="25.442544" lon="99.430802">
<time>2014-08-04T22:54:14Z</time></trkpt>
<trkpt lat="25.442594" lon="99.430772">
<time>2014-08-04T22:54:15Z</time></trkpt>
<trkpt lat="25.442634" lon="99.430762">
<time>2014-08-04T22:54:16Z</time></trkpt>
<trkpt lat="25.442694" lon="99.430742">
<time>2014-08-04T22:54:17Z</time></trkpt>
<trkpt lat="25.442764" lon="99.430722">
<time>2014-08-04T22:54:18Z</time></trkpt>
<trkpt lat="25.442824" lon="99.430722">
<time>2014-08-04T22:54:19Z</time></trkpt>
<trkpt lat="25.442884" lon="99.430722">
<time>2014-08-04T22:54:20Z</time></trkpt>
<trkpt lat="25.442944" lon="99.430742">
<time>2014-08-04T22:54:21Z</time></trkpt>
<trkpt lat="25.443014" lon="99.430762">
<time>2014-08-04T22:54:22Z</time></trkpt>
<trkpt lat="25.443064" lon="99.430792">
<time>2014-08-04T22:54:23Z</time></trkpt>
<trkpt lat="25.443114" lon="99.430832">
<time>2014-08-04T22:54:24Z</time></trkpt>
<trkpt lat="25.443184" lon="99.430892">
<time>2014-08-04T22:54:25Z</time></trkpt>
<trkpt lat="25.443254" lon="99.430952">
<time>2014-08-04T22:54:26Z</time></trkpt>
<trkpt lat="25.443314" lon="99.431002">
<time>2014-08-04T22:54:27Z</time></trkpt>
<trkpt lat="25.443384" lon="99.431042">
<time>2014-08-04T22:54:28Z</time></trkpt>
<trkpt lat="25.443444" lon="99.431072">
<time>2014-08-04T22:54:29Z</time></trkpt>
<trkpt lat="25.443504" lon="99.431102">
<time>2014-08-04T22:54:30Z</time></trkpt>
<trkpt lat="25.443544" lon="99.431112">
<time>2014-08-04T22:54:31Z</time></trkpt>
<trkpt lat="25.443604" lon="99.431132">
<time>2014-08-04T22:54:32Z</time></trkpt>
<trkpt lat="25.443664" lon="99.431132">
<time>2014-08-04T22:54:33Z</time></trkpt>
<trkpt lat="25.443724" lon="99.431122">
<time>2014-08-04T22:54:34Z</time></trkpt>
<trkpt lat="25.443784" lon="99.431112">
<time>2014-08-04T22:54:35Z</time></trkpt>
<trkpt lat="25.443834" lon="99.431082">
<time>2014-08-04T22:54:36Z</time></trkpt>
<trkpt lat="25.443884" lon="99.431062">
<time>2014-08-04T22:54:37Z</time></trkpt>
<trkpt lat="25.443924" lon="99.431032">
<time>2014-08-04T22:54:38Z</time></trkpt>
<trkpt lat="25.443954" lon="99.430992">
<time>2014-08-04T22:54:39Z</time></trkpt>
<trkpt lat="25.443994" lon="99.430952">
<time>2014-08-04T22:54:40Z</time></trkpt>
<trkpt lat="25.444024" lon="99.430912">
<time>2014-08-04T22:54:41Z</time></trkpt>
<trkpt lat="25.444054" lon="99.430862">
<time>2014-08-04T22:54:42Z</time></trkpt>
<trkpt lat="25.444084" lon="99.430792">
<time>2014-08-04T22:54:43Z</time></trkpt>
<trkpt lat="25.444094" lon="99.430752">
<time>2014-08-04T22:54:44Z</time></trkpt>
<trkpt lat="25.444094" lon="99.430692">
<time>2014-08-04T22:54:45Z</time></trkpt>
<trkpt lat="25.444104" lon="99.430602">
<time>2014-08-04T22:54:46Z</time></trkpt>
<trkpt lat="25.444084" lon="99.430502">
<time>2014-08-04T22:54:47Z</time></trkpt>
<trkpt lat="25.444064" lon="99.430422">
<time>2014-08-04T22:54:48Z</time></trkpt>
<trkpt lat="25.444023" lon="99.430322">
<time>2014-08-04T22:54:49Z</time></trkpt>
<trkpt lat="25.443953" lon="99.430141">
<time>2014-08-04T22:54:50Z</time></trkpt>
<trkpt lat="25.443883" lon="99.429981">
<time>2014-08-04T22:54:51Z</time></trkpt>
<trkpt lat="25.443843" lon="99.429861">
<time>2014-08-04T22:54:52Z</time></trkpt>
<trkpt lat="25.443793" lon="99.429731">
<time>2014-08-04T22:54:53Z</time></trkpt>
<trkpt lat="25.443752" lon="99.429561">
<time>2014-08-04T22:54:54Z</time></trkpt>
<trkpt lat="25.443722" lon="99.429431">
<time>2014-08-04T22:54:55Z</time></trkpt>
<trkpt lat="25.443712" lon="99.429301">
<time>2014-08-04T22:54:56Z</time></trkpt>
<trkpt lat="25.443722" lon="99.429171">
<time>2014-08-04T22:54:57Z</time></trkpt>
<trkpt lat="25.443732" lon="99.42901">
<time>2014-08-04T22:54:58Z</time></trkpt>
<trkpt lat="25.443761" lon="99.42886">
<time>2014-08-04T22:54:59Z</time></trkpt>
<trkpt lat="25.443781" lon="99.42871">
<time>2014-08-04T22:55:00Z</time></trkpt>
<trkpt lat="25.443811" lon="99.42862">
<time>2014-08-04T22:55:01Z</time></trkpt>
<trkpt lat="25.443861" lon="99.42852">
<time>2014-08-04T22:55:02Z</time></trkpt>
<trkpt lat="25.443921" lon="99.42841">
<time>2014-08-04T22:55:03Z</time></trkpt>
<trkpt lat="25.443961" lon="99.42835">
<time>2014-08-04T22:55:04Z</time></trkpt>
<trkpt lat="25.444031" lon="99.42826">
<time>2014-08-04T22:55:05Z</time></trkpt>
<trkpt lat="25.444181" lon="99.42807">
<time>2014-08-04T22:55:06Z</time></trkpt>
<trkpt lat="25.44428" lon="99.42794">
<time>2014-08-04T22:55:07Z</time></trkpt>
<trkpt lat="25.44434" lon="99.427849">
<time>2014-08-04T22:55:08Z</time></trkpt>
<trkpt lat="25.44438" lon="99.427749">
<time>2014-08-04T22:55:09Z</time></trkpt>
<trkpt lat="25.44441" lon="99.427689">
<time>2014-08-04T22:55:10Z</time></trkpt>
<trkpt lat="25.44443" lon="99.427599">
<time>2014-08-04T22:55:11Z</time></trkpt>
<trkpt lat="25.44445" lon="99.427499">
<time>2014-08-04T22:55:12Z</time></trkpt>
<trkpt lat="25.44446" lon="99.427389">
<time>2014-08-04T22:55:13Z</time></trkpt>
<trkpt lat="25.44447" lon="99.427289">
<time>2014-08-04T22:55:14Z</time></trkpt>
<trkpt lat="25.44448" lon="99.427109">
<time>2014-08-04T22:55:15Z</time></trkpt>
<trkpt lat="25.444489" lon="99.426819">
<time>2014-08-04T22:55:16Z</time></trkpt>
<trkpt lat="25.444489" lon="99.426669">
<time>2014-08-04T22:55:17Z</time></trkpt>
<trkpt lat="25.444479" lon="99.426518">
<time>2014-08-04T22:55:18Z</time></trkpt>
<trkpt lat="25.444469" lon="99.426378">
<time>2014-08-04T22:55:19Z</time></trkpt>
<trkpt lat="25.444439" lon="99.426238">
<time>2014-08-04T22:55:20Z</time></trkpt>
<trkpt lat="25.444388" lon="99.426068">
<time>2014-08-04T22:55:21Z</time></trkpt>
<trkpt lat="25.444358" lon="99.425968">
<time>2014-08-04T22:55:22Z</time></trkpt>
<trkpt lat="25.444298" lon="99.425758">
<time>2014-08-04T22:55:23Z</time></trkpt>
<trkpt lat="25.444278" lon="99.425678">
<time>2014-08-04T22:55:24Z</time></trkpt>
<trkpt lat="25.444248" lon="99.425588">
<time>2014-08-04T22:55:25Z</time></trkpt>
<trkpt lat="25.444238" lon="99.425538">
<time>2014-08-04T22:55:26Z</time></trkpt>
<trkpt lat="25.444208" lon="99.425468">
<time>2014-08-04T22:55:27Z</time></trkpt>
<trkpt lat="25.444188" lon="99.425428">
<time>2014-08-04T22:55:28Z</time></trkpt>
<trkpt lat="25.444168" lon="99.425378">
<time>2014-08-04T22:55:29Z</time></trkpt>
<trkpt lat="25.444137" lon="99.425308">
<time>2014-08-04T22:55:30Z</time></trkpt>
<trkpt lat="25.444117" lon="99.425258">
<time>2014-08-04T22:55:31Z</time></trkpt>
<trkpt lat="25.444067" lon="99.425188">
<time>2014-08-04T22:55:32Z</time></trkpt>
<trkpt lat="25.444027" lon="99.425107">
<time>2014-08-04T22:55:33Z</time></trkpt>
<trkpt lat="25.443977" lon="99.425027">
<time>2014-08-04T22:55:34Z</time></trkpt>
<trkpt lat="25.443937" lon="99.424957">
<time>2014-08-04T22:55:35Z</time></trkpt>
<trkpt lat="25.443907" lon="99.424907">
<time>2014-08-04T22:55:36Z</time></trkpt>
<trkpt lat="25.443857" lon="99.424807">
<time>2014-08-04T22:55:37Z</time></trkpt>
<trkpt lat="25.443726" lon="99.424467">
<time>2014-08-04T22:55:38Z</time></trkpt>
<trkpt lat="25.443676" lon="99.424347">
<time>2014-08-04T22:55:39Z</time></trkpt>
<trkpt lat="25.443636" lon="99.424247">
<time>2014-08-04T22:55:40Z</time></trkpt>
<trkpt lat="25.443616" lon="99.424187">
<time>2014-08-04T22:55:41Z</time></trkpt>
<trkpt lat="25.443586" lon="99.424127">
<time>2014-08-04T22:55:42Z</time></trkpt>
<trkpt lat="25.443556" lon="99.424077">
<time>2014-08-04T22:55:43Z</time></trkpt>
<trkpt lat="25.443516" lon="99.424007">
<time>2014-08-04T22:55:44Z</time></trkpt>
<trkpt lat="25.443466" lon="99.423917">
<time>2014-08-04T22:55:45Z</time></trkpt>
<trkpt lat="25.443396" lon="99.423787">
<time>2014-08-04T22:55:46Z</time></trkpt>
<trkpt lat="25.443356" lon="99.423677">
<time>2014-08-04T22:55:47Z</time></trkpt>
<trkpt lat="25.443305" lon="99.423557">
<time>2014-08-04T22:55:48Z</time></trkpt>
<trkpt lat="25.443275" lon="99.423456">
<time>2014-08-04T22:55:49Z</time></trkpt>
<trkpt lat="25.443275" lon="99.423376">
<time>2014-08-04T22:55:50Z</time></trkpt>
<trkpt lat="25.443275" lon="99.423256">
<time>2014-08-04T22:55:51Z</time></trkpt>
<trkpt lat="25.443285" lon="99.423126">
<time>2014-08-04T22:55:52Z</time></trkpt>
<trkpt lat="25.443315" lon="99.422996">
<time>2014-08-04T22:55:53Z</time></trkpt>
<trkpt lat="25.443355" lon="99.422876">
<time>2014-08-04T22:55:54Z</time></trkpt>
<trkpt lat="25.443395" lon="99.422786">
<time>2014-08-04T22:55:55Z</time></trkpt>
<trkpt lat="25.443524" lon="99.422496">
<time>2014-08-04T22:55:56Z</time></trkpt>
<trkpt lat="25.443634" lon="99.422246">
<time>2014-08-04T22:55:57Z</time></trkpt>
<trkpt lat="25.443664" lon="99.422166">
<time>2014-08-04T22:55:58Z</time></trkpt>
<trkpt lat="25.443684" lon="99.422086">
<time>2014-08-04T22:55:59Z</time></trkpt>
<trkpt lat="25.443694" lon="99.422016">
<time>2014-08-04T22:56:00Z</time></trkpt>
<trkpt lat="25.443704" lon="99.421956">
<time>2014-08-04T22:56:01Z</time></trkpt>
<trkpt lat="25.443704" lon="99.421896">
<time>2014-08-04T22:56:02Z</time></trkpt>
<trkpt lat="25.443694" lon="99.421806">
<time>2014-08-04T22:56:03Z</time></trkpt>
<trkpt lat="25.443684" lon="99.421726">
<time>2014-08-04T22:56:04Z</time></trkpt>
<trkpt lat="25.443654" lon="99.421535">
<time>2014-08-04T22:56:05Z</time></trkpt>
<trkpt lat="25.443643" lon="99.421395">
<time>2014-08-04T22:56:06Z</time></trkpt>
<trkpt lat="25.443623" lon="99.421285">
<time>2014-08-04T22:56:07Z</time></trkpt>
<trkpt lat="25.443623" lon="99.421245">
<time>2014-08-04T22:56:08Z</time></trkpt>
<trkpt lat="25.443613" lon="99.421125">
<time>2014-08-04T22:56:09Z</time></trkpt>
<trkpt lat="25.443623" lon="99.421005">
<time>2014-08-04T22:56:10Z</time></trkpt>
<trkpt lat="25.443633" lon="99.420865">
<time>2014-08-04T22:56:11Z</time></trkpt>
<trkpt lat="25.443653" lon="99.420775">
<time>2014-08-04T22:56:12Z</time></trkpt>
<trkpt lat="25.443693" lon="99.420595">
<time>2014-08-04T22:56:13Z</time></trkpt>
<trkpt lat="25.443753" lon="99.420405">
<time>2014-08-04T22:56:14Z</time></trkpt>
<trkpt lat="25.443832" lon="99.420155">
<time>2014-08-04T22:56:15Z</time></trkpt>
<trkpt lat="25.443882" lon="99.420025">
<time>2014-08-04T22:56:16Z</time></trkpt>
<trkpt lat="25.443902" lon="99.419955">
<time>2014-08-04T22:56:17Z</time></trkpt>
<trkpt lat="25.443912" lon="99.419885">
<time>2014-08-04T22:56:18Z</time></trkpt>
<trkpt lat="25.443922" lon="99.419805">
<time>2014-08-04T22:56:19Z</time></trkpt>
<trkpt lat="25.443932" lon="99.419755">
<time>2014-08-04T22:56:20Z</time></trkpt>
<trkpt lat="25.443942" lon="99.419675">
<time>2014-08-04T22:56:21Z</time></trkpt>
<trkpt lat="25.443942" lon="99.419585">
<time>2014-08-04T22:56:22Z</time></trkpt>
<trkpt lat="25.443932" lon="99.419515">
<time>2014-08-04T22:56:23Z</time></trkpt>
<trkpt lat="25.443932" lon="99.419385">
<time>2014-08-04T22:56:24Z</time></trkpt>
<trkpt lat="25.443922" lon="99.419234">
<time>2014-08-04T22:56:25Z</time></trkpt>
<trkpt lat="25.443912" lon="99.419144">
<time>2014-08-04T22:56:26Z</time></trkpt>
<trkpt lat="25.443911" lon="99.419024">
<time>2014-08-04T22:56:27Z</time></trkpt>
<trkpt lat="25.443921" lon="99.418844">
<time>2014-08-04T22:56:28Z</time></trkpt>
<trkpt lat="25.443921" lon="99.418684">
<time>2014-08-04T22:56:29Z</time></trkpt>
<trkpt lat="25.443931" lon="99.418584">
<time>2014-08-04T22:56:30Z</time></trkpt>
<trkpt lat="25.443931" lon="99.418474">
<time>2014-08-04T22:56:31Z</time></trkpt>
<trkpt lat="25.443921" lon="99.418384">
<time>2014-08-04T22:56:32Z</time></trkpt>
<trkpt lat="25.443911" lon="99.418304">
<time>2014-08-04T22:56:33Z</time></trkpt>
<trkpt lat="25.443901" lon="99.418244">
<time>2014-08-04T22:56:34Z</time></trkpt>
<trkpt lat="25.443881" lon="99.418134">
<time>2014-08-04T22:56:35Z</time></trkpt>
<trkpt lat="25.443851" lon="99.418004">
<time>2014-08-04T22:56:36Z</time></trkpt>
<trkpt lat="25.443841" lon="99.417884">
<time>2014-08-04T22:56:37Z</time></trkpt>
<trkpt lat="25.44384" lon="99.417794">
<time>2014-08-04T22:56:38Z</time></trkpt>
<trkpt lat="25.44383" lon="99.417714">
<time>2014-08-04T22:56:39Z</time></trkpt>
<trkpt lat="25.44385" lon="99.417644">
<time>2014-08-04T22:56:40Z</time></trkpt>
<trkpt lat="25.44387" lon="99.417564">
<time>2014-08-04T22:56:41Z</time></trkpt>
<trkpt lat="25.44391" lon="99.417494">
<time>2014-08-04T22:56:42Z</time></trkpt>
<trkpt lat="25.44394" lon="99.417444">
<time>2014-08-04T22:56:43Z</time></trkpt>
<trkpt lat="25.44401" lon="99.417384">
<time>2014-08-04T22:56:44Z</time></trkpt>
<trkpt lat="25.44409" lon="99.417334">
<time>2014-08-04T22:56:45Z</time></trkpt>
<trkpt lat="25.44416" lon="99.417294">
<time>2014-08-04T22:56:46Z</time></trkpt>
<trkpt lat="25.4442" lon="99.417284">
<time>2014-08-04T22:56:47Z</time></trkpt>
<trkpt lat="25.44427" lon="99.417274">
<time>2014-08-04T22:56:48Z</time></trkpt>
<trkpt lat="25.44432" lon="99.417274">
<time>2014-08-04T22:56:49Z</time></trkpt>
<trkpt lat="25.44438" lon="99.417274">
<time>2014-08-04T22:56:50Z</time></trkpt>
<trkpt lat="25.44443" lon="99.417294">
<time>2014-08-04T22:56:51Z</time></trkpt>
<trkpt lat="25.4445" lon="99.417334">
<time>2014-08-04T22:56:52Z</time></trkpt>
<trkpt lat="25.44457" lon="99.417384">
<time>2014-08-04T22:56:53Z</time></trkpt>
<trkpt lat="25.44469" lon="99.417464">
<time>2014-08-04T22:56:54Z</time></trkpt>
<trkpt lat="25.44474" lon="99.417494">
<time>2014-08-04T22:56:55Z</time></trkpt>
<trkpt lat="25.444781" lon="99.417514">
<time>2014-08-04T22:56:56Z</time></trkpt>
<trkpt lat="25.444821" lon="99.417514">
<time>2014-08-04T22:56:57Z</time></trkpt>
<trkpt lat="25.444931" lon="99.417514">
<time>2014-08-04T22:56:58Z</time></trkpt>
<trkpt lat="25.445001" lon="99.417504">
<time>2014-08-04T22:56:59Z</time></trkpt>
<trkpt lat="25.445051" lon="99.417494">
<time>2014-08-04T22:57:00Z</time></trkpt>
<trkpt lat="25.445111" lon="99.417454">
<time>2014-08-04T22:57:01Z</time></trkpt>
<trkpt lat="25.445181" lon="99.417404">
<time>2014-08-04T22:57:02Z</time></trkpt>
<trkpt lat="25.44524" lon="99.417344">
<time>2014-08-04T22:57:03Z</time></trkpt>
<trkpt lat="25.44528" lon="99.417294">
<time>2014-08-04T22:57:04Z</time></trkpt>
<trkpt lat="25.44531" lon="99.417234">
<time>2014-08-04T22:57:05Z</time></trkpt>
<trkpt lat="25.44534" lon="99.417144">
<time>2014-08-04T22:57:06Z</time></trkpt>
<trkpt lat="25.4454" lon="99.417034">
<time>2014-08-04T22:57:07Z</time></trkpt>
<trkpt lat="25.44542" lon="99.416964">
<time>2014-08-04T22:57:08Z</time></trkpt>
<trkpt lat="25.44547" lon="99.416814">
<time>2014-08-04T22:57:09Z</time></trkpt>
<trkpt lat="25.4455" lon="99.416754">
<time>2014-08-04T22:57:10Z</time></trkpt>
<trkpt lat="25.44555" lon="99.416694">
<time>2014-08-04T22:57:11Z</time></trkpt>
<trkpt lat="25.4456" lon="99.416644">
<time>2014-08-04T22:57:12Z</time></trkpt>
<trkpt lat="25.44564" lon="99.416604">
<time>2014-08-04T22:57:13Z</time></trkpt>
<trkpt lat="25.4457" lon="99.416574">
<time>2014-08-04T22:57:14Z</time></trkpt>
<trkpt lat="25.44581" lon="99.416524">
<time>2014-08-04T22:57:15Z</time></trkpt>
<trkpt lat="25.44591" lon="99.416494">
<time>2014-08-04T22:57:16Z</time></trkpt>
<trkpt lat="25.44606" lon="99.416454">
<time>2014-08-04T22:57:17Z</time></trkpt>
<trkpt lat="25.44615" lon="99.416404">
<time>2014-08-04T22:57:18Z</time></trkpt>
<trkpt lat="25.44624" lon="99.416344">
<time>2014-08-04T22:57:19Z</time></trkpt>
<trkpt lat="25.44632" lon="99.416284">
<time>2014-08-04T22:57:20Z</time></trkpt>
<trkpt lat="25.44635" lon="99.416254">
<time>2014-08-04T22:57:21Z</time></trkpt>
<trkpt lat="25.4464" lon="99.416214">
<time>2014-08-04T22:57:22Z</time></trkpt>
<trkpt lat="25.44644" lon="99.416154">
<time>2014-08-04T22:57:23Z</time></trkpt>
<trkpt lat="25.44649" lon="99.416064">
<time>2014-08-04T22:57:24Z</time></trkpt>
<trkpt lat="25.44653" lon="99.416004">
<time>2014-08-04T22:57:25Z</time></trkpt>
<trkpt lat="25.44656" lon="99.415933">
<time>2014-08-04T22:57:26Z</time></trkpt>
<trkpt lat="25.44659" lon="99.415853">
<time>2014-08-04T22:57:27Z</time></trkpt>
<trkpt lat="25.44664" lon="99.415723">
<time>2014-08-04T22:57:28Z</time></trkpt>
<trkpt lat="25.44667" lon="99.415633">
<time>2014-08-04T22:57:29Z</time></trkpt>
<trkpt lat="25.4467" lon="99.415563">
<time>2014-08-04T22:57:30Z</time></trkpt>
<trkpt lat="25.44676" lon="99.415463">
<time>2014-08-04T22:57:31Z</time></trkpt>
<trkpt lat="25.44681" lon="99.415393">
<time>2014-08-04T22:57:32Z</time></trkpt>
<trkpt lat="25.44686" lon="99.415323">
<time>2014-08-04T22:57:33Z</time></trkpt>
<trkpt lat="25.446949" lon="99.415203">
<time>2014-08-04T22:57:34Z</time></trkpt>
<trkpt lat="25.447039" lon="99.415093">
<time>2014-08-04T22:57:35Z</time></trkpt>
<trkpt lat="25.447109" lon="99.415023">
<time>2014-08-04T22:57:36Z</time></trkpt>
<trkpt lat="25.447149" lon="99.414973">
<time>2014-08-04T22:57:37Z</time></trkpt>
<trkpt lat="25.447199" lon="99.414923">
<time>2014-08-04T22:57:38Z</time></trkpt>
<trkpt lat="25.447289" lon="99.414853">
<time>2014-08-04T22:57:39Z</time></trkpt>
<trkpt lat="25.447399" lon="99.414763">
<time>2014-08-04T22:57:40Z</time></trkpt>
<trkpt lat="25.447479" lon="99.414703">
<time>2014-08-04T22:57:41Z</time></trkpt>
<trkpt lat="25.447559" lon="99.414643">
<time>2014-08-04T22:57:42Z</time></trkpt>
<trkpt lat="25.447609" lon="99.414583">
<time>2014-08-04T22:57:43Z</time></trkpt>
<trkpt lat="25.447659" lon="99.414533">
<time>2014-08-04T22:57:44Z</time></trkpt>
<trkpt lat="25.447699" lon="99.414473">
<time>2014-08-04T22:57:45Z</time></trkpt>
<trkpt lat="25.447739" lon="99.414413">
<time>2014-08-04T22:57:46Z</time></trkpt>
<trkpt lat="25.447769" lon="99.414343">
<time>2014-08-04T22:57:47Z</time></trkpt>
<trkpt lat="25.447809" lon="99.414263">
<time>2014-08-04T22:57:48Z</time></trkpt>
<trkpt lat="25.447829" lon="99.414213">
<time>2014-08-04T22:57:49Z</time></trkpt>
<trkpt lat="25.447859" lon="99.414123">
<time>2014-08-04T22:57:50Z</time></trkpt>
<trkpt lat="25.448059" lon="99.413533">
<time>2014-08-04T22:57:51Z</time></trkpt>
<trkpt lat="25.448149" lon="99.413263">
<time>2014-08-04T22:57:52Z</time></trkpt>
<trkpt lat="25.448209" lon="99.413113">
<time>2014-08-04T22:57:53Z</time></trkpt>
<trkpt lat="25.448238" lon="99.412983">
<time>2014-08-04T22:57:54Z</time></trkpt>
<trkpt lat="25.448268" lon="99.412873">
<time>2014-08-04T22:57:55Z</time></trkpt>
<trkpt lat="25.448288" lon="99.412833">
<time>2014-08-04T22:57:56Z</time></trkpt>
<trkpt lat="25.448328" lon="99.412663">
<time>2014-08-04T22:57:57Z</time></trkpt>
<trkpt lat="25.448358" lon="99.412533">
<time>2014-08-04T22:57:58Z</time></trkpt>
<trkpt lat="25.448378" lon="99.412433">
<time>2014-08-04T22:57:59Z</time></trkpt>
<trkpt lat="25.448408" lon="99.412243">
<time>2014-08-04T22:58:00Z</time></trkpt>
<trkpt lat="25.448428" lon="99.412143">
<time>2014-08-04T22:58:01Z</time></trkpt>
<trkpt lat="25.448438" lon="99.412073">
<time>2014-08-04T22:58:02Z</time></trkpt>
<trkpt lat="25.448448" lon="99.411993">
<time>2014-08-04T22:58:03Z</time></trkpt>
<trkpt lat="25.448458" lon="99.411893">
<time>2014-08-04T22:58:04Z</time></trkpt>
<trkpt lat="25.448448" lon="99.411803">
<time>2014-08-04T22:58:05Z</time></trkpt>
<trkpt lat="25.448438" lon="99.411733">
<time>2014-08-04T22:58:06Z</time></trkpt>
<trkpt lat="25.448428" lon="99.411663">
<time>2014-08-04T22:58:07Z</time></trkpt>
<trkpt lat="25.448408" lon="99.411573">
<time>2014-08-04T22:58:08Z</time></trkpt>
<trkpt lat="25.448378" lon="99.411473">
<time>2014-08-04T22:58:09Z</time></trkpt>
<trkpt lat="25.448348" lon="99.411393">
<time>2014-08-04T22:58:10Z</time></trkpt>
<trkpt lat="25.448288" lon="99.411233">
<time>2014-08-04T22:58:11Z</time></trkpt>
<trkpt lat="25.448248" lon="99.411113">
<time>2014-08-04T22:58:12Z</time></trkpt>
<trkpt lat="25.448208" lon="99.410993">
<time>2014-08-04T22:58:13Z</time></trkpt>
<trkpt lat="25.448197" lon="99.410933">
<time>2014-08-04T22:58:14Z</time></trkpt>
<trkpt lat="25.448177" lon="99.410823">
<time>2014-08-04T22:58:15Z</time></trkpt>
<trkpt lat="25.448177" lon="99.410733">
<time>2014-08-04T22:58:16Z</time></trkpt>
<trkpt lat="25.448177" lon="99.410633">
<time>2014-08-04T22:58:17Z</time></trkpt>
<trkpt lat="25.448187" lon="99.410533">
<time>2014-08-04T22:58:18Z</time></trkpt>
<trkpt lat="25.448207" lon="99.410373">
<time>2014-08-04T22:58:19Z</time></trkpt>
<trkpt lat="25.448237" lon="99.410263">
<time>2014-08-04T22:58:20Z</time></trkpt>
<trkpt lat="25.448267" lon="99.410133">
<time>2014-08-04T22:58:21Z</time></trkpt>
<trkpt lat="25.448357" lon="99.409823">
<time>2014-08-04T22:58:22Z</time></trkpt>
<trkpt lat="25.448487" lon="99.409453">
<time>2014-08-04T22:58:23Z</time></trkpt>
<trkpt lat="25.448557" lon="99.409243">
<time>2014-08-04T22:58:24Z</time></trkpt>
<trkpt lat="25.448607" lon="99.409063">
<time>2014-08-04T22:58:25Z</time></trkpt>
<trkpt lat="25.448637" lon="99.408953">
<time>2014-08-04T22:58:26Z</time></trkpt>
<trkpt lat="25.448687" lon="99.408853">
<time>2014-08-04T22:58:27Z</time></trkpt>
<trkpt lat="25.448717" lon="99.408783">
<time>2014-08-04T22:58:28Z</time></trkpt>
<trkpt lat="25.448767" lon="99.408733">
<time>2014-08-04T22:58:29Z</time></trkpt>
<trkpt lat="25.448847" lon="99.408653">
<time>2014-08-04T22:58:30Z</time></trkpt>
<trkpt lat="25.448927" lon="99.408573">
<time>2014-08-04T22:58:31Z</time></trkpt>
<trkpt lat="25.449007" lon="99.408513">
<time>2014-08-04T22:58:32Z</time></trkpt>
<trkpt lat="25.449067" lon="99.408473">
<time>2014-08-04T22:58:33Z</time></trkpt>
<trkpt lat="25.449117" lon="99.408413">
<time>2014-08-04T22:58:34Z</time></trkpt>
<trkpt lat="25.449147" lon="99.408373">
<time>2014-08-04T22:58:35Z</time></trkpt>
<trkpt lat="25.449177" lon="99.408333">
<time>2014-08-04T22:58:36Z</time></trkpt>
<trkpt lat="25.449197" lon="99.408283">
<time>2014-08-04T22:58:37Z</time></trkpt>
<trkpt lat="25.449217" lon="99.408223">
<time>2014-08-04T22:58:38Z</time></trkpt>
<trkpt lat="25.449227" lon="99.408173">
<time>2014-08-04T22:58:39Z</time></trkpt>
<trkpt lat="25.449237" lon="99.408113">
<time>2014-08-04T22:58:40Z</time></trkpt>
<trkpt lat="25.449247" lon="99.408013">
<time>2014-08-04T22:58:41Z</time></trkpt>
<trkpt lat="25.449247" lon="99.407954">
<time>2014-08-04T22:58:42Z</time></trkpt>
<trkpt lat="25.449237" lon="99.407874">
<time>2014-08-04T22:58:43Z</time></trkpt>
<trkpt lat="25.449227" lon="99.407804">
<time>2014-08-04T22:58:44Z</time></trkpt>
<trkpt lat="25.449217" lon="99.407684">
<time>2014-08-04T22:58:45Z</time></trkpt>
<trkpt lat="25.449217" lon="99.407604">
<time>2014-08-04T22:58:46Z</time></trkpt>
<trkpt lat="25.449217" lon="99.407504">
<time>2014-08-04T22:58:47Z</time></trkpt>
<trkpt lat="25.449226" lon="99.407404">
<time>2014-08-04T22:58:48Z</time></trkpt>
<trkpt lat="25.449236" lon="99.407314">
<time>2014-08-04T22:58:49Z</time></trkpt>
<trkpt lat="25.449266" lon="99.407224">
<time>2014-08-04T22:58:50Z</time></trkpt>
<trkpt lat="25.449296" lon="99.407114">
<time>2014-08-04T22:58:51Z</time></trkpt>
<trkpt lat="25.449506" lon="99.406554">
<time>2014-08-04T22:58:52Z</time></trkpt>
<trkpt lat="25.449696" lon="99.406074">
<time>2014-08-04T22:58:53Z</time></trkpt>
<trkpt lat="25.449816" lon="99.405814">
<time>2014-08-04T22:58:54Z</time></trkpt>
<trkpt lat="25.449866" lon="99.405714">
<time>2014-08-04T22:58:55Z</time></trkpt>
<trkpt lat="25.449906" lon="99.405644">
<time>2014-08-04T22:58:56Z</time></trkpt>
<trkpt lat="25.449936" lon="99.405594">
<time>2014-08-04T22:58:57Z</time></trkpt>
<trkpt lat="25.449976" lon="99.405544">
<time>2014-08-04T22:58:58Z</time></trkpt>
<trkpt lat="25.450026" lon="99.405494">
<time>2014-08-04T22:58:59Z</time></trkpt>
<trkpt lat="25.450096" lon="99.405444">
<time>2014-08-04T22:59:00Z</time></trkpt>
<trkpt lat="25.450166" lon="99.405394">
<time>2014-08-04T22:59:01Z</time></trkpt>
<trkpt lat="25.450266" lon="99.405334">
<time>2014-08-04T22:59:02Z</time></trkpt>
<trkpt lat="25.450376" lon="99.405264">
<time>2014-08-04T22:59:03Z</time></trkpt>
<trkpt lat="25.450466" lon="99.405214">
<time>2014-08-04T22:59:04Z</time></trkpt>
<trkpt lat="25.450516" lon="99.405174">
<time>2014-08-04T22:59:05Z</time></trkpt>
<trkpt lat="25.450576" lon="99.405134">
<time>2014-08-04T22:59:06Z</time></trkpt>
<trkpt lat="25.450646" lon="99.405044">
<time>2014-08-04T22:59:07Z</time></trkpt>
<trkpt lat="25.450706" lon="99.404974">
<time>2014-08-04T22:59:08Z</time></trkpt>
<trkpt lat="25.450756" lon="99.404894">
<time>2014-08-04T22:59:09Z</time></trkpt>
<trkpt lat="25.450796" lon="99.404834">
<time>2014-08-04T22:59:10Z</time></trkpt>
<trkpt lat="25.450836" lon="99.404754">
<time>2014-08-04T22:59:11Z</time></trkpt>
<trkpt lat="25.450876" lon="99.404694">
<time>2014-08-04T22:59:12Z</time></trkpt>
<trkpt lat="25.450916" lon="99.404644">
<time>2014-08-04T22:59:13Z</time></trkpt>
<trkpt lat="25.450956" lon="99.404584">
<time>2014-08-04T22:59:14Z</time></trkpt>
<trkpt lat="25.451026" lon="99.404504">
<time>2014-08-04T22:59:15Z</time></trkpt>
<trkpt lat="25.451086" lon="99.404445">
<time>2014-08-04T22:59:16Z</time></trkpt>
<trkpt lat="25.451196" lon="99.404335">
<time>2014-08-04T22:59:17Z</time></trkpt>
<trkpt lat="25.451326" lon="99.404215">
<time>2014-08-04T22:59:18Z</time></trkpt>
<trkpt lat="25.451346" lon="99.404195">
<time>2014-08-04T22:59:19Z</time></trkpt>
<trkpt lat="25.451476" lon="99.404065">
<time>2014-08-04T22:59:20Z</time></trkpt>
<trkpt lat="25.451656" lon="99.403895">
<time>2014-08-04T22:59:21Z</time></trkpt>
<trkpt lat="25.451806" lon="99.403755">
<time>2014-08-04T22:59:22Z</time></trkpt>
<trkpt lat="25.451926" lon="99.403655">
<time>2014-08-04T22:59:23Z</time></trkpt>
<trkpt lat="25.452106" lon="99.403505">
<time>2014-08-04T22:59:24Z</time></trkpt>
<trkpt lat="25.452417" lon="99.403285">
<time>2014-08-04T22:59:25Z</time></trkpt>
<trkpt lat="25.452567" lon="99.403165">
<time>2014-08-04T22:59:26Z</time></trkpt>
<trkpt lat="25.452737" lon="99.403025">
<time>2014-08-04T22:59:27Z</time></trkpt>
<trkpt lat="25.452867" lon="99.402925">
<time>2014-08-04T22:59:28Z</time></trkpt>
<trkpt lat="25.452927" lon="99.402875">
<time>2014-08-04T22:59:29Z</time></trkpt>
<trkpt lat="25.453037" lon="99.402795">
<time>2014-08-04T22:59:30Z</time></trkpt>
<trkpt lat="25.453117" lon="99.402745">
<time>2014-08-04T22:59:31Z</time></trkpt>
<trkpt lat="25.453197" lon="99.402705">
<time>2014-08-04T22:59:32Z</time></trkpt>
<trkpt lat="25.453277" lon="99.402645">
<time>2014-08-04T22:59:33Z</time></trkpt>
<trkpt lat="25.453377" lon="99.402585">
<time>2014-08-04T22:59:34Z</time></trkpt>
<trkpt lat="25.453467" lon="99.402545">
<time>2014-08-04T22:59:35Z</time></trkpt>
<trkpt lat="25.453547" lon="99.402515">
<time>2014-08-04T22:59:36Z</time></trkpt>
<trkpt lat="25.453707" lon="99.402435">
<time>2014-08-04T22:59:37Z</time></trkpt>
<trkpt lat="25.453777" lon="99.402395">
<time>2014-08-04T22:59:38Z</time></trkpt>
<trkpt lat="25.453847" lon="99.402365">
<time>2014-08-04T22:59:39Z</time></trkpt>
<trkpt lat="25.453887" lon="99.402335">
<time>2014-08-04T22:59:40Z</time></trkpt>
<trkpt lat="25.453937" lon="99.402295">
<time>2014-08-04T22:59:41Z</time></trkpt>
<trkpt lat="25.453977" lon="99.402265">
<time>2014-08-04T22:59:42Z</time></trkpt>
<trkpt lat="25.454017" lon="99.402215">
<time>2014-08-04T22:59:43Z</time></trkpt>
<trkpt lat="25.454057" lon="99.402185">
<time>2014-08-04T22:59:44Z</time></trkpt>
<trkpt lat="25.454107" lon="99.402125">
<time>2014-08-04T22:59:45Z</time></trkpt>
<trkpt lat="25.454167" lon="99.402046">
<time>2014-08-04T22:59:46Z</time></trkpt>
<trkpt lat="25.454227" lon="99.401946">
<time>2014-08-04T22:59:47Z</time></trkpt>
<trkpt lat="25.454277" lon="99.401886">
<time>2014-08-04T22:59:48Z</time></trkpt>
<trkpt lat="25.454327" lon="99.401826">
<time>2014-08-04T22:59:49Z</time></trkpt>
<trkpt lat="25.454377" lon="99.401766">
<time>2014-08-04T22:59:50Z</time></trkpt>
<trkpt lat="25.454437" lon="99.401716">
<time>2014-08-04T22:59:51Z</time></trkpt>
<trkpt lat="25.454467" lon="99.401686">
<time>2014-08-04T22:59:52Z</time></trkpt>
<trkpt lat="25.454507" lon="99.401666">
<time>2014-08-04T22:59:53Z</time></trkpt>
<trkpt lat="25.454567" lon="99.401626">
<time>2014-08-04T22:59:54Z</time></trkpt>
<trkpt lat="25.454627" lon="99.401596">
<time>2014-08-04T22:59:55Z</time></trkpt>
<trkpt lat="25.454737" lon="99.401536">
<time>2014-08-04T22:59:56Z</time></trkpt>
<trkpt lat="25.454807" lon="99.401496">
<time>2014-08-04T22:59:57Z</time></trkpt>
<trkpt lat="25.454887" lon="99.401456">
<time>2014-08-04T22:59:58Z</time></trkpt>
<trkpt lat="25.454967" lon="99.401416">
<time>2014-08-04T22:59:59Z</time></trkpt>
<trkpt lat="25.455037" lon="99.401356">
<time>2014-08-04T23:00:00Z</time></trkpt>
<trkpt lat="25.455087" lon="99.401316">
<time>2014-08-04T23:00:01Z</time></trkpt>
<trkpt lat="25.455157" lon="99.401246">
<time>2014-08-04T23:00:02Z</time></trkpt>
<trkpt lat="25.455197" lon="99.401196">
<time>2014-08-04T23:00:03Z</time></trkpt>
<trkpt lat="25.455277" lon="99.401106">
<time>2014-08-04T23:00:04Z</time></trkpt>
<trkpt lat="25.455347" lon="99.401026">
<time>2014-08-04T23:00:05Z</time></trkpt>
<trkpt lat="25.455417" lon="99.400946">
<time>2014-08-04T23:00:06Z</time></trkpt>
<trkpt lat="25.455477" lon="99.400866">
<time>2014-08-04T23:00:07Z</time></trkpt>
<trkpt lat="25.455557" lon="99.400766">
<time>2014-08-04T23:00:08Z</time></trkpt>
<trkpt lat="25.455647" lon="99.400676">
<time>2014-08-04T23:00:09Z</time></trkpt>
<trkpt lat="25.455687" lon="99.400626">
<time>2014-08-04T23:00:10Z</time></trkpt>
<trkpt lat="25.455767" lon="99.400536">
<time>2014-08-04T23:00:11Z</time></trkpt>
<trkpt lat="25.455807" lon="99.400506">
<time>2014-08-04T23:00:12Z</time></trkpt>
<trkpt lat="25.455907" lon="99.400416">
<time>2014-08-04T23:00:13Z</time></trkpt>
<trkpt lat="25.456157" lon="99.400197">
<time>2014-08-04T23:00:14Z</time></trkpt>
<trkpt lat="25.456287" lon="99.400107">
<time>2014-08-04T23:00:15Z</time></trkpt>
<trkpt lat="25.456367" lon="99.400037">
<time>2014-08-04T23:00:16Z</time></trkpt>
<trkpt lat="25.456457" lon="99.399947">
<time>2014-08-04T23:00:17Z</time></trkpt>
<trkpt lat="25.456507" lon="99.399877">
<time>2014-08-04T23:00:18Z</time></trkpt>
<trkpt lat="25.456558" lon="99.399817">
<time>2014-08-04T23:00:19Z</time></trkpt>
<trkpt lat="25.456608" lon="99.399757">
<time>2014-08-04T23:00:20Z</time></trkpt>
<trkpt lat="25.456668" lon="99.399677">
<time>2014-08-04T23:00:21Z</time></trkpt>
<trkpt lat="25.456838" lon="99.399397">
<time>2014-08-04T23:00:22Z</time></trkpt>
<trkpt lat="25.456988" lon="99.399167">
<time>2014-08-04T23:00:23Z</time></trkpt>
<trkpt lat="25.457058" lon="99.399067">
<time>2014-08-04T23:00:24Z</time></trkpt>
<trkpt lat="25.457308" lon="99.398727">
<time>2014-08-04T23:00:25Z</time></trkpt>
<trkpt lat="25.457668" lon="99.398218">
<time>2014-08-04T23:00:26Z</time></trkpt>
<trkpt lat="25.457808" lon="99.398018">
<time>2014-08-04T23:00:27Z</time></trkpt>
<trkpt lat="25.457898" lon="99.397898">
<time>2014-08-04T23:00:28Z</time></trkpt>
<trkpt lat="25.457948" lon="99.397818">
<time>2014-08-04T23:00:29Z</time></trkpt>
<trkpt lat="25.457978" lon="99.397748">
<time>2014-08-04T23:00:30Z</time></trkpt>
<trkpt lat="25.458018" lon="99.397658">
<time>2014-08-04T23:00:31Z</time></trkpt>
<trkpt lat="25.458038" lon="99.397628">
<time>2014-08-04T23:00:32Z</time></trkpt>
<trkpt lat="25.458048" lon="99.397578">
<time>2014-08-04T23:00:33Z</time></trkpt>
<trkpt lat="25.458058" lon="99.397528">
<time>2014-08-04T23:00:34Z</time></trkpt>
<trkpt lat="25.458068" lon="99.397498">
<time>2014-08-04T23:00:35Z</time></trkpt>
<trkpt lat="25.458068" lon="99.397458">
<time>2014-08-04T23:00:36Z</time></trkpt>
<trkpt lat="25.458068" lon="99.397418">
<time>2014-08-04T23:00:37Z</time></trkpt>
<trkpt lat="25.458068" lon="99.397398">
<time>2014-08-04T23:00:38Z</time></trkpt>
<trkpt lat="25.458058" lon="99.397368">
<time>2014-08-04T23:00:39Z</time></trkpt>
<trkpt lat="25.458038" lon="99.397338">
<time>2014-08-04T23:00:40Z</time></trkpt>
<trkpt lat="25.458028" lon="99.397308">
<time>2014-08-04T23:00:41Z</time></trkpt>
<trkpt lat="25.457998" lon="99.397288">
<time>2014-08-04T23:00:42Z</time></trkpt>
<trkpt lat="25.457978" lon="99.397268">
<time>2014-08-04T23:00:43Z</time></trkpt>
<trkpt lat="25.457948" lon="99.397268">
<time>2014-08-04T23:00:44Z</time></trkpt>
<trkpt lat="25.457928" lon="99.397258">
<time>2014-08-04T23:00:45Z</time></trkpt>
<trkpt lat="25.457908" lon="99.397258">
<time>2014-08-04T23:00:46Z</time></trkpt>
<trkpt lat="25.457878" lon="99.397268">
<time>2014-08-04T23:00:47Z</time></trkpt>
<trkpt lat="25.457858" lon="99.397278">
<time>2014-08-04T23:00:48Z</time></trkpt>
<trkpt lat="25.457838" lon="99.397288">
<time>2014-08-04T23:00:49Z</time></trkpt>
<trkpt lat="25.457808" lon="99.397308">
<time>2014-08-04T23:00:50Z</time></trkpt>
<trkpt lat="25.457788" lon="99.397348">
<time>2014-08-04T23:00:51Z</time></trkpt>
<trkpt lat="25.457758" lon="99.397408">
<time>2014-08-04T23:00:52Z</time></trkpt>
<trkpt lat="25.457738" lon="99.397488">
<time>2014-08-04T23:00:53Z</time></trkpt>
<trkpt lat="25.457718" lon="99.397558">
<time>2014-08-04T23:00:54Z</time></trkpt>
<trkpt lat="25.457708" lon="99.397658">
<time>2014-08-04T23:00:55Z</time></trkpt>
<trkpt lat="25.457678" lon="99.397748">
<time>2014-08-04T23:00:56Z</time></trkpt>
<trkpt lat="25.457658" lon="99.397828">
<time>2014-08-04T23:00:57Z</time></trkpt>
<trkpt lat="25.457618" lon="99.397898">
<time>2014-08-04T23:00:58Z</time></trkpt>
<trkpt lat="25.457578" lon="99.397978">
<time>2014-08-04T23:00:59Z</time></trkpt>
<trkpt lat="25.457538" lon="99.398028">
<time>2014-08-04T23:01:00Z</time></trkpt>
<trkpt lat="25.457498" lon="99.398088">
<time>2014-08-04T23:01:01Z</time></trkpt>
<trkpt lat="25.457408" lon="99.398178">
<time>2014-08-04T23:01:02Z</time></trkpt>
<trkpt lat="25.457288" lon="99.398308">
<time>2014-08-04T23:01:03Z</time></trkpt>
<trkpt lat="25.456948" lon="99.398637">
<time>2014-08-04T23:01:04Z</time></trkpt>
<trkpt lat="25.456718" lon="99.398867">
<time>2014-08-04T23:01:05Z</time></trkpt>
<trkpt lat="25.456588" lon="99.399017">
<time>2014-08-04T23:01:06Z</time></trkpt>
<trkpt lat="25.456478" lon="99.399167">
<time>2014-08-04T23:01:07Z</time></trkpt>
<trkpt lat="25.456367" lon="99.399297">
<time>2014-08-04T23:01:08Z</time></trkpt>
<trkpt lat="25.456267" lon="99.399397">
<time>2014-08-04T23:01:09Z</time></trkpt>
<trkpt lat="25.456167" lon="99.399497">
<time>2014-08-04T23:01:10Z</time></trkpt>
<trkpt lat="25.455947" lon="99.399647">
<time>2014-08-04T23:01:11Z</time></trkpt>
<trkpt lat="25.455807" lon="99.399747">
<time>2014-08-04T23:01:12Z</time></trkpt>
<trkpt lat="25.455657" lon="99.399827">
<time>2014-08-04T23:01:13Z</time></trkpt>
<trkpt lat="25.455547" lon="99.399877">
<time>2014-08-04T23:01:14Z</time></trkpt>
<trkpt lat="25.455437" lon="99.399907">
<time>2014-08-04T23:01:15Z</time></trkpt>
<trkpt lat="25.455347" lon="99.399917">
<time>2014-08-04T23:01:16Z</time></trkpt>
<trkpt lat="25.455217" lon="99.399927">
<time>2014-08-04T23:01:17Z</time></trkpt>
<trkpt lat="25.455077" lon="99.399927">
<time>2014-08-04T23:01:18Z</time></trkpt>
<trkpt lat="25.454867" lon="99.399907">
<time>2014-08-04T23:01:19Z</time></trkpt>
<trkpt lat="25.454707" lon="99.399897">
<time>2014-08-04T23:01:20Z</time></trkpt>
<trkpt lat="25.454607" lon="99.399887">
<time>2014-08-04T23:01:21Z</time></trkpt>
<trkpt lat="25.454537" lon="99.399897">
<time>2014-08-04T23:01:22Z</time></trkpt>
<trkpt lat="25.454497" lon="99.399897">
<time>2014-08-04T23:01:23Z</time></trkpt>
<trkpt lat="25.454427" lon="99.399907">
<time>2014-08-04T23:01:24Z</time></trkpt>
<trkpt lat="25.454377" lon="99.399927">
<time>2014-08-04T23:01:25Z</time></trkpt>
<trkpt lat="25.454337" lon="99.399947">
<time>2014-08-04T23:01:26Z</time></trkpt>
<trkpt lat="25.454267" lon="99.399987">
<time>2014-08-04T23:01:27Z</time></trkpt>
<trkpt lat="25.454207" lon="99.400017">
<time>2014-08-04T23:01:28Z</time></trkpt>
<trkpt lat="25.454137" lon="99.400047">
<time>2014-08-04T23:01:29Z</time></trkpt>
<trkpt lat="25.454067" lon="99.400107">
<time>2014-08-04T23:01:30Z</time></trkpt>
<trkpt lat="25.453917" lon="99.400207">
<time>2014-08-04T23:01:31Z</time></trkpt>
<trkpt lat="25.453837" lon="99.400277">
<time>2014-08-04T23:01:32Z</time></trkpt>
<trkpt lat="25.453737" lon="99.400366">
<time>2014-08-04T23:01:33Z</time></trkpt>
<trkpt lat="25.453697" lon="99.400406">
<time>2014-08-04T23:01:34Z</time></trkpt>
<trkpt lat="25.453647" lon="99.400456">
<time>2014-08-04T23:01:35Z</time></trkpt>
<trkpt lat="25.453587" lon="99.400516">
<time>2014-08-04T23:01:36Z</time></trkpt>
<trkpt lat="25.453547" lon="99.400576">
<time>2014-08-04T23:01:37Z</time></trkpt>
<trkpt lat="25.453487" lon="99.400646">
<time>2014-08-04T23:01:38Z</time></trkpt>
<trkpt lat="25.453337" lon="99.400806">
<time>2014-08-04T23:01:39Z</time></trkpt>
<trkpt lat="25.453267" lon="99.400876">
<time>2014-08-04T23:01:40Z</time></trkpt>
<trkpt lat="25.453197" lon="99.400946">
<time>2014-08-04T23:01:41Z</time></trkpt>
<trkpt lat="25.453027" lon="99.401086">
<time>2014-08-04T23:01:42Z</time></trkpt>
<trkpt lat="25.452887" lon="99.401196">
<time>2014-08-04T23:01:43Z</time></trkpt>
<trkpt lat="25.452646" lon="99.401356">
<time>2014-08-04T23:01:44Z</time></trkpt>
<trkpt lat="25.452546" lon="99.401416">
<time>2014-08-04T23:01:45Z</time></trkpt>
<trkpt lat="25.452296" lon="99.401546">
<time>2014-08-04T23:01:46Z</time></trkpt>
<trkpt lat="25.452176" lon="99.401596">
<time>2014-08-04T23:01:47Z</time></trkpt>
<trkpt lat="25.452056" lon="99.401636">
<time>2014-08-04T23:01:48Z</time></trkpt>
<trkpt lat="25.451976" lon="99.401656">
<time>2014-08-04T23:01:49Z</time></trkpt>
<trkpt lat="25.451916" lon="99.401656">
<time>2014-08-04T23:01:50Z</time></trkpt>
<trkpt lat="25.451856" lon="99.401646">
<time>2014-08-04T23:01:51Z</time></trkpt>
<trkpt lat="25.451826" lon="99.401636">
<time>2014-08-04T23:01:52Z</time></trkpt>
<trkpt lat="25.451776" lon="99.401606">
<time>2014-08-04T23:01:53Z</time></trkpt>
<trkpt lat="25.451736" lon="99.401576">
<time>2014-08-04T23:01:54Z</time></trkpt>
<trkpt lat="25.451716" lon="99.401536">
<time>2014-08-04T23:01:55Z</time></trkpt>
<trkpt lat="25.451696" lon="99.401496">
<time>2014-08-04T23:01:56Z</time></trkpt>
<trkpt lat="25.451676" lon="99.401426">
<time>2014-08-04T23:01:57Z</time></trkpt>
<trkpt lat="25.451666" lon="99.401356">
<time>2014-08-04T23:01:58Z</time></trkpt>
<trkpt lat="25.451686" lon="99.401286">
<time>2014-08-04T23:01:59Z</time></trkpt>
<trkpt lat="25.451696" lon="99.401206">
<time>2014-08-04T23:02:00Z</time></trkpt>
<trkpt lat="25.451726" lon="99.401156">
<time>2014-08-04T23:02:01Z</time></trkpt>
<trkpt lat="25.451756" lon="99.401086">
<time>2014-08-04T23:02:02Z</time></trkpt>
<trkpt lat="25.451796" lon="99.401026">
<time>2014-08-04T23:02:03Z</time></trkpt>
<trkpt lat="25.451856" lon="99.400946">
<time>2014-08-04T23:02:04Z</time></trkpt>
<trkpt lat="25.451906" lon="99.400876">
<time>2014-08-04T23:02:05Z</time></trkpt>
<trkpt lat="25.451966" lon="99.400806">
<time>2014-08-04T23:02:06Z</time></trkpt>
<trkpt lat="25.452016" lon="99.400756">
<time>2014-08-04T23:02:07Z</time></trkpt>
<trkpt lat="25.452086" lon="99.400686">
<time>2014-08-04T23:02:08Z</time></trkpt>
<trkpt lat="25.452246" lon="99.400546">
<time>2014-08-04T23:02:09Z</time></trkpt>
<trkpt lat="25.452366" lon="99.400426">
<time>2014-08-04T23:02:10Z</time></trkpt>
<trkpt lat="25.452546" lon="99.400267">
<time>2014-08-04T23:02:11Z</time></trkpt>
<trkpt lat="25.452616" lon="99.400197">
<time>2014-08-04T23:02:12Z</time></trkpt>
<trkpt lat="25.452676" lon="99.400137">
<time>2014-08-04T23:02:13Z</time></trkpt>
<trkpt lat="25.452727" lon="99.400087">
<time>2014-08-04T23:02:14Z</time></trkpt>
<trkpt lat="25.452767" lon="99.400037">
<time>2014-08-04T23:02:15Z</time></trkpt>
<trkpt lat="25.452837" lon="99.399947">
<time>2014-08-04T23:02:16Z</time></trkpt>
<trkpt lat="25.452917" lon="99.399827">
<time>2014-08-04T23:02:17Z</time></trkpt>
<trkpt lat="25.452997" lon="99.399707">
<time>2014-08-04T23:02:18Z</time></trkpt>
<trkpt lat="25.453117" lon="99.399537">
<time>2014-08-04T23:02:19Z</time></trkpt>
<trkpt lat="25.453197" lon="99.399407">
<time>2014-08-04T23:02:20Z</time></trkpt>
<trkpt lat="25.453297" lon="99.399247">
<time>2014-08-04T23:02:21Z</time></trkpt>
<trkpt lat="25.453357" lon="99.399137">
<time>2014-08-04T23:02:22Z</time></trkpt>
<trkpt lat="25.453407" lon="99.399047">
<time>2014-08-04T23:02:23Z</time></trkpt>
<trkpt lat="25.453447" lon="99.398937">
<time>2014-08-04T23:02:24Z</time></trkpt>
<trkpt lat="25.453477" lon="99.398877">
<time>2014-08-04T23:02:25Z</time></trkpt>
<trkpt lat="25.453507" lon="99.398777">
<time>2014-08-04T23:02:26Z</time></trkpt>
<trkpt lat="25.453537" lon="99.398668">
<time>2014-08-04T23:02:27Z</time></trkpt>
<trkpt lat="25.453577" lon="99.398558">
<time>2014-08-04T23:02:28Z</time></trkpt>
<trkpt lat="25.453587" lon="99.398508">
<time>2014-08-04T23:02:29Z</time></trkpt>
<trkpt lat="25.453627" lon="99.398418">
<time>2014-08-04T23:02:30Z</time></trkpt>
<trkpt lat="25.453667" lon="99.398298">
<time>2014-08-04T23:02:31Z</time></trkpt>
<trkpt lat="25.453737" lon="99.398128">
<time>2014-08-04T23:02:32Z</time></trkpt>
<trkpt lat="25.453777" lon="99.398048">
<time>2014-08-04T23:02:33Z</time></trkpt>
<trkpt lat="25.453887" lon="99.397728">
<time>2014-08-04T23:02:34Z</time></trkpt>
<trkpt lat="25.453907" lon="99.397638">
<time>2014-08-04T23:02:35Z</time></trkpt>
<trkpt lat="25.453937" lon="99.397558">
<time>2014-08-04T23:02:36Z</time></trkpt>
<trkpt lat="25.453967" lon="99.397488">
<time>2014-08-04T23:02:37Z</time></trkpt>
<trkpt lat="25.453987" lon="99.397418">
<time>2014-08-04T23:02:38Z</time></trkpt>
<trkpt lat="25.454027" lon="99.397348">
<time>2014-08-04T23:02:39Z</time></trkpt>
<trkpt lat="25.454057" lon="99.397279">
<time>2014-08-04T23:02:40Z</time></trkpt>
<trkpt lat="25.454107" lon="99.397209">
<time>2014-08-04T23:02:41Z</time></trkpt>
<trkpt lat="25.454137" lon="99.397159">
<time>2014-08-04T23:02:42Z</time></trkpt>
<trkpt lat="25.454187" lon="99.397099">
<time>2014-08-04T23:02:43Z</time></trkpt>
<trkpt lat="25.454297" lon="99.396959">
<time>2014-08-04T23:02:44Z</time></trkpt>
<trkpt lat="25.454707" lon="99.396489">
<time>2014-08-04T23:02:45Z</time></trkpt>
<trkpt lat="25.454978" lon="99.396169">
<time>2014-08-04T23:02:46Z</time></trkpt>
<trkpt lat="25.455138" lon="99.39596">
<time>2014-08-04T23:02:47Z</time></trkpt>
<trkpt lat="25.455278" lon="99.39576">
<time>2014-08-04T23:02:48Z</time></trkpt>
<trkpt lat="25.455328" lon="99.39568">
<time>2014-08-04T23:02:49Z</time></trkpt>
<trkpt lat="25.455358" lon="99.39563">
<time>2014-08-04T23:02:50Z</time></trkpt>
<trkpt lat="25.455378" lon="99.39558">
<time>2014-08-04T23:02:51Z</time></trkpt>
<trkpt lat="25.455398" lon="99.39552">
<time>2014-08-04T23:02:52Z</time></trkpt>
<trkpt lat="25.455418" lon="99.39546">
<time>2014-08-04T23:02:53Z</time></trkpt>
<trkpt lat="25.455428" lon="99.3954">
<time>2014-08-04T23:02:54Z</time></trkpt>
<trkpt lat="25.455428" lon="99.39536">
<time>2014-08-04T23:02:55Z</time></trkpt>
<trkpt lat="25.455438" lon="99.39529">
<time>2014-08-04T23:02:56Z</time></trkpt>
<trkpt lat="25.455438" lon="99.39517">
<time>2014-08-04T23:02:57Z</time></trkpt>
<trkpt lat="25.455438" lon="99.3951">
<time>2014-08-04T23:02:58Z</time></trkpt>
<trkpt lat="25.455448" lon="99.39503">
<time>2014-08-04T23:02:59Z</time></trkpt>
<trkpt lat="25.455458" lon="99.39497">
<time>2014-08-04T23:03:00Z</time></trkpt>
<trkpt lat="25.455488" lon="99.39492">
<time>2014-08-04T23:03:01Z</time></trkpt>
<trkpt lat="25.455498" lon="99.39489">
<time>2014-08-04T23:03:02Z</time></trkpt>
<trkpt lat="25.455528" lon="99.39485">
<time>2014-08-04T23:03:03Z</time></trkpt>
<trkpt lat="25.455548" lon="99.39483">
<time>2014-08-04T23:03:04Z</time></trkpt>
<trkpt lat="25.455578" lon="99.394791">
<time>2014-08-04T23:03:05Z</time></trkpt>
<trkpt lat="25.455638" lon="99.394761">
<time>2014-08-04T23:03:06Z</time></trkpt>
<trkpt lat="25.455688" lon="99.394741">
<time>2014-08-04T23:03:07Z</time></trkpt>
<trkpt lat="25.455748" lon="99.394711">
<time>2014-08-04T23:03:08Z</time></trkpt>
<trkpt lat="25.455798" lon="99.394701">
<time>2014-08-04T23:03:09Z</time></trkpt>
<trkpt lat="25.455878" lon="99.394681">
<time>2014-08-04T23:03:10Z</time></trkpt>
<trkpt lat="25.455978" lon="99.394651">
<time>2014-08-04T23:03:11Z</time></trkpt>
<trkpt lat="25.456048" lon="99.394621">
<time>2014-08-04T23:03:12Z</time></trkpt>
<trkpt lat="25.456088" lon="99.394601">
<time>2014-08-04T23:03:13Z</time></trkpt>
<trkpt lat="25.456138" lon="99.394571">
<time>2014-08-04T23:03:14Z</time></trkpt>
<trkpt lat="25.456168" lon="99.394551">
<time>2014-08-04T23:03:15Z</time></trkpt>
<trkpt lat="25.456208" lon="99.394511">
<time>2014-08-04T23:03:16Z</time></trkpt>
<trkpt lat="25.456238" lon="99.394471">
<time>2014-08-04T23:03:17Z</time></trkpt>
<trkpt lat="25.456268" lon="99.394431">
<time>2014-08-04T23:03:18Z</time></trkpt>
<trkpt lat="25.456288" lon="99.394371">
<time>2014-08-04T23:03:19Z</time></trkpt>
<trkpt lat="25.456298" lon="99.394331">
<time>2014-08-04T23:03:20Z</time></trkpt>
<trkpt lat="25.456308" lon="99.394281">
<time>2014-08-04T23:03:21Z</time></trkpt>
<trkpt lat="25.456318" lon="99.394221">
<time>2014-08-04T23:03:22Z</time></trkpt>
<trkpt lat="25.456318" lon="99.394131">
<time>2014-08-04T23:03:23Z</time></trkpt>
<trkpt lat="25.456318" lon="99.394041">
<time>2014-08-04T23:03:24Z</time></trkpt>
<trkpt lat="25.456309" lon="99.393991">
<time>2014-08-04T23:03:25Z</time></trkpt>
<trkpt lat="25.456289" lon="99.393811">
<time>2014-08-04T23:03:26Z</time></trkpt>
<trkpt lat="25.456249" lon="99.393562">
<time>2014-08-04T23:03:27Z</time></trkpt>
<trkpt lat="25.456189" lon="99.393262">
<time>2014-08-04T23:03:28Z</time></trkpt>
<trkpt lat="25.456159" lon="99.393132">
<time>2014-08-04T23:03:29Z</time></trkpt>
<trkpt lat="25.456139" lon="99.392982">
<time>2014-08-04T23:03:30Z</time></trkpt>
<trkpt lat="25.456129" lon="99.392882">
<time>2014-08-04T23:03:31Z</time></trkpt>
<trkpt lat="25.456129" lon="99.392802">
<time>2014-08-04T23:03:32Z</time></trkpt>
<trkpt lat="25.456129" lon="99.392702">
<time>2014-08-04T23:03:33Z</time></trkpt>
<trkpt lat="25.456129" lon="99.392603">
<time>2014-08-04T23:03:34Z</time></trkpt>
<trkpt lat="25.456139" lon="99.392413">
<time>2014-08-04T23:03:35Z</time></trkpt>
<trkpt lat="25.456209" lon="99.391524">
<time>2014-08-04T23:03:36Z</time></trkpt>
<trkpt lat="25.45624" lon="99.391154">
<time>2014-08-04T23:03:37Z</time></trkpt>
<trkpt lat="25.45628" lon="99.390794">
<time>2014-08-04T23:03:38Z</time></trkpt>
<trkpt lat="25.45628" lon="99.390644">
<time>2014-08-04T23:03:39Z</time></trkpt>
<trkpt lat="25.4563" lon="99.390395">
<time>2014-08-04T23:03:40Z</time></trkpt>
<trkpt lat="25.45631" lon="99.390285">
<time>2014-08-04T23:03:41Z</time></trkpt>
<trkpt lat="25.45631" lon="99.390215">
<time>2014-08-04T23:03:42Z</time></trkpt>
<trkpt lat="25.45631" lon="99.390135">
<time>2014-08-04T23:03:43Z</time></trkpt>
<trkpt lat="25.4563" lon="99.390095">
<time>2014-08-04T23:03:44Z</time></trkpt>
<trkpt lat="25.45629" lon="99.390035">
<time>2014-08-04T23:03:45Z</time></trkpt>
<trkpt lat="25.45628" lon="99.389995">
<time>2014-08-04T23:03:46Z</time></trkpt>
<trkpt lat="25.45627" lon="99.389925">
<time>2014-08-04T23:03:47Z</time></trkpt>
<trkpt lat="25.45625" lon="99.389875">
<time>2014-08-04T23:03:48Z</time></trkpt>
<trkpt lat="25.45622" lon="99.389835">
<time>2014-08-04T23:03:49Z</time></trkpt>
<trkpt lat="25.4562" lon="99.389795">
<time>2014-08-04T23:03:50Z</time></trkpt>
<trkpt lat="25.45616" lon="99.389755">
<time>2014-08-04T23:03:51Z</time></trkpt>
<trkpt lat="25.45611" lon="99.389686">
<time>2014-08-04T23:03:52Z</time></trkpt>
<trkpt lat="25.45608" lon="99.389626">
<time>2014-08-04T23:03:53Z</time></trkpt>
<trkpt lat="25.45606" lon="99.389566">
<time>2014-08-04T23:03:54Z</time></trkpt>
<trkpt lat="25.45604" lon="99.389526">
<time>2014-08-04T23:03:55Z</time></trkpt>
<trkpt lat="25.45603" lon="99.389476">
<time>2014-08-04T23:03:56Z</time></trkpt>
<trkpt lat="25.45602" lon="99.389426">
<time>2014-08-04T23:03:57Z</time></trkpt>
<trkpt lat="25.45603" lon="99.389376">
<time>2014-08-04T23:03:58Z</time></trkpt>
<trkpt lat="25.45603" lon="99.389336">
<time>2014-08-04T23:03:59Z</time></trkpt>
<trkpt lat="25.45604" lon="99.389276">
<time>2014-08-04T23:04:00Z</time></trkpt>
<trkpt lat="25.45605" lon="99.389236">
<time>2014-08-04T23:04:01Z</time></trkpt>
<trkpt lat="25.45607" lon="99.389196">
<time>2014-08-04T23:04:02Z</time></trkpt>
<trkpt lat="25.45609" lon="99.389146">
<time>2014-08-04T23:04:03Z</time></trkpt>
<trkpt lat="25.45613" lon="99.389096">
<time>2014-08-04T23:04:04Z</time></trkpt>
<trkpt lat="25.45618" lon="99.389036">
<time>2014-08-04T23:04:05Z</time></trkpt>
<trkpt lat="25.456231" lon="99.388976">
<time>2014-08-04T23:04:06Z</time></trkpt>
<trkpt lat="25.456291" lon="99.388906">
<time>2014-08-04T23:04:07Z</time></trkpt>
<trkpt lat="25.456341" lon="99.388866">
<time>2014-08-04T23:04:08Z</time></trkpt>
<trkpt lat="25.456401" lon="99.388807">
<time>2014-08-04T23:04:09Z</time></trkpt>
<trkpt lat="25.456451" lon="99.388747">
<time>2014-08-04T23:04:10Z</time></trkpt>
<trkpt lat="25.456481" lon="99.388707">
<time>2014-08-04T23:04:11Z</time></trkpt>
<trkpt lat="25.456511" lon="99.388667">
<time>2014-08-04T23:04:12Z</time></trkpt>
<trkpt lat="25.456541" lon="99.388617">
<time>2014-08-04T23:04:13Z</time></trkpt>
<trkpt lat="25.456561" lon="99.388567">
<time>2014-08-04T23:04:14Z</time></trkpt>
<trkpt lat="25.456581" lon="99.388517">
<time>2014-08-04T23:04:15Z</time></trkpt>
<trkpt lat="25.456591" lon="99.388467">
<time>2014-08-04T23:04:16Z</time></trkpt>
<trkpt lat="25.456591" lon="99.388437">
<time>2014-08-04T23:04:17Z</time></trkpt>
<trkpt lat="25.456601" lon="99.388387">
<time>2014-08-04T23:04:18Z</time></trkpt>
<trkpt lat="25.456601" lon="99.388337">
<time>2014-08-04T23:04:19Z</time></trkpt>
<trkpt lat="25.456591" lon="99.388267">
<time>2014-08-04T23:04:20Z</time></trkpt>
<trkpt lat="25.456591" lon="99.388187">
<time>2014-08-04T23:04:21Z</time></trkpt>
<trkpt lat="25.456581" lon="99.387808">
<time>2014-08-04T23:04:22Z</time></trkpt>
<trkpt lat="25.456581" lon="99.387688">
<time>2014-08-04T23:04:23Z</time></trkpt>
<trkpt lat="25.456571" lon="99.387608">
<time>2014-08-04T23:04:24Z</time></trkpt>
<trkpt lat="25.456541" lon="99.387538">
<time>2014-08-04T23:04:25Z</time></trkpt>
<trkpt lat="25.456521" lon="99.387488">
<time>2014-08-04T23:04:26Z</time></trkpt>
<trkpt lat="25.456491" lon="99.387438">
<time>2014-08-04T23:04:27Z</time></trkpt>
<trkpt lat="25.456461" lon="99.387398">
<time>2014-08-04T23:04:28Z</time></trkpt>
<trkpt lat="25.456431" lon="99.387358">
<time>2014-08-04T23:04:29Z</time></trkpt>
<trkpt lat="25.456391" lon="99.387328">
<time>2014-08-04T23:04:30Z</time></trkpt>
<trkpt lat="25.456341" lon="99.387298">
<time>2014-08-04T23:04:31Z</time></trkpt>
<trkpt lat="25.456261" lon="99.387278">
<time>2014-08-04T23:04:32Z</time></trkpt>
<trkpt lat="25.456191" lon="99.387258">
<time>2014-08-04T23:04:33Z</time></trkpt>
<trkpt lat="25.456131" lon="99.387248">
<time>2014-08-04T23:04:34Z</time></trkpt>
<trkpt lat="25.456061" lon="99.387248">
<time>2014-08-04T23:04:35Z</time></trkpt>
<trkpt lat="25.456001" lon="99.387248">
<time>2014-08-04T23:04:36Z</time></trkpt>
<trkpt lat="25.455901" lon="99.387278">
<time>2014-08-04T23:04:37Z</time></trkpt>
<trkpt lat="25.455791" lon="99.387298">
<time>2014-08-04T23:04:38Z</time></trkpt>
<trkpt lat="25.455621" lon="99.387348">
<time>2014-08-04T23:04:39Z</time></trkpt>
<trkpt lat="25.455381" lon="99.387418">
<time>2014-08-04T23:04:40Z</time></trkpt>
<trkpt lat="25.455171" lon="99.387498">
<time>2014-08-04T23:04:41Z</time></trkpt>
<trkpt lat="25.455011" lon="99.387558">
<time>2014-08-04T23:04:42Z</time></trkpt>
<trkpt lat="25.454971" lon="99.387568">
<time>2014-08-04T23:04:43Z</time></trkpt>
<trkpt lat="25.454901" lon="99.387578">
<time>2014-08-04T23:04:44Z</time></trkpt>
<trkpt lat="25.454841" lon="99.387578">
<time>2014-08-04T23:04:45Z</time></trkpt>
<trkpt lat="25.454781" lon="99.387578">
<time>2014-08-04T23:04:46Z</time></trkpt>
<trkpt lat="25.454661" lon="99.387558">
<time>2014-08-04T23:04:47Z</time></trkpt>
<trkpt lat="25.454601" lon="99.387558">
<time>2014-08-04T23:04:48Z</time></trkpt>
<trkpt lat="25.454531" lon="99.387568">
<time>2014-08-04T23:04:49Z</time></trkpt>
<trkpt lat="25.454481" lon="99.387568">
<time>2014-08-04T23:04:50Z</time></trkpt>
<trkpt lat="25.454431" lon="99.387568">
<time>2014-08-04T23:04:51Z</time></trkpt>
<trkpt lat="25.454391" lon="99.387578">
<time>2014-08-04T23:04:52Z</time></trkpt>
<trkpt lat="25.454361" lon="99.387588">
<time>2014-08-04T23:04:53Z</time></trkpt>
<trkpt lat="25.454311" lon="99.387618">
<time>2014-08-04T23:04:54Z</time></trkpt>
<trkpt lat="25.454271" lon="99.387638">
<time>2014-08-04T23:04:55Z</time></trkpt>
<trkpt lat="25.454241" lon="99.387668">
<time>2014-08-04T23:04:56Z</time></trkpt>
<trkpt lat="25.454201" lon="99.387698">
<time>2014-08-04T23:04:57Z</time></trkpt>
<trkpt lat="25.454181" lon="99.387718">
<time>2014-08-04T23:04:58Z</time></trkpt>
<trkpt lat="25.454141" lon="99.387758">
<time>2014-08-04T23:04:59Z</time></trkpt>
<trkpt lat="25.454111" lon="99.387808">
<time>2014-08-04T23:05:00Z</time></trkpt>
<trkpt lat="25.454" lon="99.387978">
<time>2014-08-04T23:05:01Z</time></trkpt>
<trkpt lat="25.45394" lon="99.388057">
<time>2014-08-04T23:05:02Z</time></trkpt>
<trkpt lat="25.45392" lon="99.388087">
<time>2014-08-04T23:05:03Z</time></trkpt>
<trkpt lat="25.45388" lon="99.388117">
<time>2014-08-04T23:05:04Z</time></trkpt>
<trkpt lat="25.45385" lon="99.388147">
<time>2014-08-04T23:05:05Z</time></trkpt>
<trkpt lat="25.45377" lon="99.388197">
<time>2014-08-04T23:05:06Z</time></trkpt>
<trkpt lat="25.45368" lon="99.388227">
<time>2014-08-04T23:05:07Z</time></trkpt>
<trkpt lat="25.45348" lon="99.388287">
<time>2014-08-04T23:05:08Z</time></trkpt>
<trkpt lat="25.45303" lon="99.388447">
<time>2014-08-04T23:05:09Z</time></trkpt>
<trkpt lat="25.45244" lon="99.388607">
<time>2014-08-04T23:05:10Z</time></trkpt>
<trkpt lat="25.45206" lon="99.388707">
<time>2014-08-04T23:05:11Z</time></trkpt>
<trkpt lat="25.45182" lon="99.388767">
<time>2014-08-04T23:05:12Z</time></trkpt>
<trkpt lat="25.451419" lon="99.388807">
<time>2014-08-04T23:05:13Z</time></trkpt>
<trkpt lat="25.451289" lon="99.388817">
<time>2014-08-04T23:05:14Z</time></trkpt>
<trkpt lat="25.451239" lon="99.388817">
<time>2014-08-04T23:05:15Z</time></trkpt>
<trkpt lat="25.451189" lon="99.388817">
<time>2014-08-04T23:05:16Z</time></trkpt>
<trkpt lat="25.451149" lon="99.388797">
<time>2014-08-04T23:05:17Z</time></trkpt>
<trkpt lat="25.451109" lon="99.388777">
<time>2014-08-04T23:05:18Z</time></trkpt>
<trkpt lat="25.451049" lon="99.388737">
<time>2014-08-04T23:05:19Z</time></trkpt>
<trkpt lat="25.451009" lon="99.388697">
<time>2014-08-04T23:05:20Z</time></trkpt>
<trkpt lat="25.450989" lon="99.388667">
<time>2014-08-04T23:05:21Z</time></trkpt>
<trkpt lat="25.450959" lon="99.388627">
<time>2014-08-04T23:05:22Z</time></trkpt>
<trkpt lat="25.450939" lon="99.388587">
<time>2014-08-04T23:05:23Z</time></trkpt>
<trkpt lat="25.450929" lon="99.388537">
<time>2014-08-04T23:05:24Z</time></trkpt>
<trkpt lat="25.450939" lon="99.388497">
<time>2014-08-04T23:05:25Z</time></trkpt>
<trkpt lat="25.450939" lon="99.388437">
<time>2014-08-04T23:05:26Z</time></trkpt>
<trkpt lat="25.450959" lon="99.388397">
<time>2014-08-04T23:05:27Z</time></trkpt>
<trkpt lat="25.45099" lon="99.388347">
<time>2014-08-04T23:05:28Z</time></trkpt>
<trkpt lat="25.45101" lon="99.388317">
<time>2014-08-04T23:05:29Z</time></trkpt>
<trkpt lat="25.45105" lon="99.388287">
<time>2014-08-04T23:05:30Z</time></trkpt>
<trkpt lat="25.4511" lon="99.388257">
<time>2014-08-04T23:05:31Z</time></trkpt>
<trkpt lat="25.45114" lon="99.388237">
<time>2014-08-04T23:05:32Z</time></trkpt>
<trkpt lat="25.4512" lon="99.388217">
<time>2014-08-04T23:05:33Z</time></trkpt>
<trkpt lat="25.45129" lon="99.388197">
<time>2014-08-04T23:05:34Z</time></trkpt>
<trkpt lat="25.45137" lon="99.388167">
<time>2014-08-04T23:05:35Z</time></trkpt>
<trkpt lat="25.45157" lon="99.388117">
<time>2014-08-04T23:05:36Z</time></trkpt>
<trkpt lat="25.45172" lon="99.388077">
<time>2014-08-04T23:05:37Z</time></trkpt>
<trkpt lat="25.45189" lon="99.388028">
<time>2014-08-04T23:05:38Z</time></trkpt>
<trkpt lat="25.45198" lon="99.387988">
<time>2014-08-04T23:05:39Z</time></trkpt>
<trkpt lat="25.45207" lon="99.387948">
<time>2014-08-04T23:05:40Z</time></trkpt>
<trkpt lat="25.45214" lon="99.387908">
<time>2014-08-04T23:05:41Z</time></trkpt>
<trkpt lat="25.45221" lon="99.387848">
<time>2014-08-04T23:05:42Z</time></trkpt>
<trkpt lat="25.45227" lon="99.387798">
<time>2014-08-04T23:05:43Z</time></trkpt>
<trkpt lat="25.45231" lon="99.387748">
<time>2014-08-04T23:05:44Z</time></trkpt>
<trkpt lat="25.45234" lon="99.387708">
<time>2014-08-04T23:05:45Z</time></trkpt>
<trkpt lat="25.45237" lon="99.387668">
<time>2014-08-04T23:05:46Z</time></trkpt>
<trkpt lat="25.45239" lon="99.387618">
<time>2014-08-04T23:05:47Z</time></trkpt>
<trkpt lat="25.45243" lon="99.387558">
<time>2014-08-04T23:05:48Z</time></trkpt>
<trkpt lat="25.45246" lon="99.387508">
<time>2014-08-04T23:05:49Z</time></trkpt>
<trkpt lat="25.45251" lon="99.387418">
<time>2014-08-04T23:05:50Z</time></trkpt>
<trkpt lat="25.452561" lon="99.387308">
<time>2014-08-04T23:05:51Z</time></trkpt>
<trkpt lat="25.452631" lon="99.387139">
<time>2014-08-04T23:05:52Z</time></trkpt>
<trkpt lat="25.452751" lon="99.386859">
<time>2014-08-04T23:05:53Z</time></trkpt>
<trkpt lat="25.452871" lon="99.386609">
<time>2014-08-04T23:05:54Z</time></trkpt>
<trkpt lat="25.452971" lon="99.386419">
<time>2014-08-04T23:05:55Z</time></trkpt>
<trkpt lat="25.453021" lon="99.38632">
<time>2014-08-04T23:05:56Z</time></trkpt>
<trkpt lat="25.453081" lon="99.38622">
<time>2014-08-04T23:05:57Z</time></trkpt>
<trkpt lat="25.453131" lon="99.38614">
<time>2014-08-04T23:05:58Z</time></trkpt>
<trkpt lat="25.453181" lon="99.38608">
<time>2014-08-04T23:05:59Z</time></trkpt>
<trkpt lat="25.453231" lon="99.38602">
<time>2014-08-04T23:06:00Z</time></trkpt>
<trkpt lat="25.453292" lon="99.38597">
<time>2014-08-04T23:06:01Z</time></trkpt>
<trkpt lat="25.453342" lon="99.38593">
<time>2014-08-04T23:06:02Z</time></trkpt>
<trkpt lat="25.453402" lon="99.38588">
<time>2014-08-04T23:06:03Z</time></trkpt>
<trkpt lat="25.453492" lon="99.38582">
<time>2014-08-04T23:06:04Z</time></trkpt>
<trkpt lat="25.453722" lon="99.38566">
<time>2014-08-04T23:06:05Z</time></trkpt>
<trkpt lat="25.453822" lon="99.385591">
<time>2014-08-04T23:06:06Z</time></trkpt>
<trkpt lat="25.453882" lon="99.385541">
<time>2014-08-04T23:06:07Z</time></trkpt>
<trkpt lat="25.453942" lon="99.385491">
<time>2014-08-04T23:06:08Z</time></trkpt>
<trkpt lat="25.453992" lon="99.385431">
<time>2014-08-04T23:06:09Z</time></trkpt>
<trkpt lat="25.454042" lon="99.385381">
<time>2014-08-04T23:06:10Z</time></trkpt>
<trkpt lat="25.454092" lon="99.385311">
<time>2014-08-04T23:06:11Z</time></trkpt>
<trkpt lat="25.454262" lon="99.385081">
<time>2014-08-04T23:06:12Z</time></trkpt>
<trkpt lat="25.454402" lon="99.384891">
<time>2014-08-04T23:06:13Z</time></trkpt>
<trkpt lat="25.454503" lon="99.384752">
<time>2014-08-04T23:06:14Z</time></trkpt>
<trkpt lat="25.454563" lon="99.384662">
<time>2014-08-04T23:06:15Z</time></trkpt>
<trkpt lat="25.454623" lon="99.384582">
<time>2014-08-04T23:06:16Z</time></trkpt>
<trkpt lat="25.454673" lon="99.384512">
<time>2014-08-04T23:06:17Z</time></trkpt>
<trkpt lat="25.454723" lon="99.384462">
<time>2014-08-04T23:06:18Z</time></trkpt>
<trkpt lat="25.454763" lon="99.384422">
<time>2014-08-04T23:06:19Z</time></trkpt>
<trkpt lat="25.454813" lon="99.384382">
<time>2014-08-04T23:06:20Z</time></trkpt>
<trkpt lat="25.454873" lon="99.384322">
<time>2014-08-04T23:06:21Z</time></trkpt>
<trkpt lat="25.454933" lon="99.384292">
<time>2014-08-04T23:06:22Z</time></trkpt>
<trkpt lat="25.455003" lon="99.384242">
<time>2014-08-04T23:06:23Z</time></trkpt>
<trkpt lat="25.455073" lon="99.384202">
<time>2014-08-04T23:06:24Z</time></trkpt>
<trkpt lat="25.455183" lon="99.384142">
<time>2014-08-04T23:06:25Z</time></trkpt>
<trkpt lat="25.455844" lon="99.383823">
<time>2014-08-04T23:06:26Z</time></trkpt>
<trkpt lat="25.456304" lon="99.383613">
<time>2014-08-04T23:06:27Z</time></trkpt>
<trkpt lat="25.456444" lon="99.383533">
<time>2014-08-04T23:06:28Z</time></trkpt>
<trkpt lat="25.456484" lon="99.383513">
<time>2014-08-04T23:06:29Z</time></trkpt>
<trkpt lat="25.456534" lon="99.383473">
<time>2014-08-04T23:06:30Z</time></trkpt>
<trkpt lat="25.456574" lon="99.383433">
<time>2014-08-04T23:06:31Z</time></trkpt>
<trkpt lat="25.456624" lon="99.383373">
<time>2014-08-04T23:06:32Z</time></trkpt>
<trkpt lat="25.456694" lon="99.383274">
<time>2014-08-04T23:06:33Z</time></trkpt>
<trkpt lat="25.456774" lon="99.383124">
<time>2014-08-04T23:06:34Z</time></trkpt>
<trkpt lat="25.456865" lon="99.382944">
<time>2014-08-04T23:06:35Z</time></trkpt>
<trkpt lat="25.457265" lon="99.382185">
<time>2014-08-04T23:06:36Z</time></trkpt>
<trkpt lat="25.457425" lon="99.381906">
<time>2014-08-04T23:06:37Z</time></trkpt>
<trkpt lat="25.457506" lon="99.381786">
<time>2014-08-04T23:06:38Z</time></trkpt>
<trkpt lat="25.457556" lon="99.381716">
<time>2014-08-04T23:06:39Z</time></trkpt>
<trkpt lat="25.457616" lon="99.381656">
<time>2014-08-04T23:06:40Z</time></trkpt>
<trkpt lat="25.457676" lon="99.381596">
<time>2014-08-04T23:06:41Z</time></trkpt>
<trkpt lat="25.457716" lon="99.381556">
<time>2014-08-04T23:06:42Z</time></trkpt>
<trkpt lat="25.457776" lon="99.381496">
<time>2014-08-04T23:06:43Z</time></trkpt>
<trkpt lat="25.457876" lon="99.381376">
<time>2014-08-04T23:06:44Z</time></trkpt>
<trkpt lat="25.457946" lon="99.381296">
<time>2014-08-04T23:06:45Z</time></trkpt>
<trkpt lat="25.457996" lon="99.381236">
<time>2014-08-04T23:06:46Z</time></trkpt>
<trkpt lat="25.458036" lon="99.381167">
<time>2014-08-04T23:06:47Z</time></trkpt>
<trkpt lat="25.458066" lon="99.381107">
<time>2014-08-04T23:06:48Z</time></trkpt>
<trkpt lat="25.458106" lon="99.381007">
<time>2014-08-04T23:06:49Z</time></trkpt>
<trkpt lat="25.458136" lon="99.380897">
<time>2014-08-04T23:06:50Z</time></trkpt>
<trkpt lat="25.458187" lon="99.380687">
<time>2014-08-04T23:06:51Z</time></trkpt>
<trkpt lat="25.458207" lon="99.380488">
<time>2014-08-04T23:06:52Z</time></trkpt>
<trkpt lat="25.458217" lon="99.380398">
<time>2014-08-04T23:06:53Z</time></trkpt>
<trkpt lat="25.458227" lon="99.380278">
<time>2014-08-04T23:06:54Z</time></trkpt>
<trkpt lat="25.458227" lon="99.380118">
<time>2014-08-04T23:06:55Z</time></trkpt>
<trkpt lat="25.458227" lon="99.379928">
<time>2014-08-04T23:06:56Z</time></trkpt>
<trkpt lat="25.458228" lon="99.379729">
<time>2014-08-04T23:06:57Z</time></trkpt>
<trkpt lat="25.458228" lon="99.379459">
<time>2014-08-04T23:06:58Z</time></trkpt>
<trkpt lat="25.458228" lon="99.379279">
<time>2014-08-04T23:06:59Z</time></trkpt>
<trkpt lat="25.458258" lon="99.379">
<time>2014-08-04T23:07:00Z</time></trkpt>
<trkpt lat="25.458289" lon="99.378581">
<time>2014-08-04T23:07:01Z</time></trkpt>
<trkpt lat="25.458309" lon="99.378421">
<time>2014-08-04T23:07:02Z</time></trkpt>
<trkpt lat="25.458319" lon="99.378331">
<time>2014-08-04T23:07:03Z</time></trkpt>
<trkpt lat="25.458339" lon="99.378201">
<time>2014-08-04T23:07:04Z</time></trkpt>
<trkpt lat="25.458379" lon="99.378051">
<time>2014-08-04T23:07:05Z</time></trkpt>
<trkpt lat="25.458409" lon="99.377932">
<time>2014-08-04T23:07:06Z</time></trkpt>
<trkpt lat="25.458429" lon="99.377842">
<time>2014-08-04T23:07:07Z</time></trkpt>
<trkpt lat="25.458489" lon="99.377622">
<time>2014-08-04T23:07:08Z</time></trkpt>
<trkpt lat="25.4585" lon="99.377502">
<time>2014-08-04T23:07:09Z</time></trkpt>
<trkpt lat="25.45852" lon="99.377422">
<time>2014-08-04T23:07:10Z</time></trkpt>
<trkpt lat="25.45852" lon="99.377343">
<time>2014-08-04T23:07:11Z</time></trkpt>
<trkpt lat="25.45852" lon="99.377283">
<time>2014-08-04T23:07:12Z</time></trkpt>
<trkpt lat="25.45851" lon="99.377143">
<time>2014-08-04T23:07:13Z</time></trkpt>
<trkpt lat="25.45849" lon="99.376993">
<time>2014-08-04T23:07:14Z</time></trkpt>
<trkpt lat="25.45847" lon="99.376903">
<time>2014-08-04T23:07:15Z</time></trkpt>
<trkpt lat="25.45845" lon="99.376803">
<time>2014-08-04T23:07:16Z</time></trkpt>
<trkpt lat="25.45841" lon="99.376694">
<time>2014-08-04T23:07:17Z</time></trkpt>
<trkpt lat="25.458351" lon="99.376524">
<time>2014-08-04T23:07:18Z</time></trkpt>
<trkpt lat="25.458311" lon="99.376404">
<time>2014-08-04T23:07:19Z</time></trkpt>
<trkpt lat="25.458281" lon="99.376284">
<time>2014-08-04T23:07:20Z</time></trkpt>
<trkpt lat="25.458271" lon="99.376194">
<time>2014-08-04T23:07:21Z</time></trkpt>
<trkpt lat="25.458271" lon="99.376105">
<time>2014-08-04T23:07:22Z</time></trkpt>
<trkpt lat="25.458271" lon="99.375935">
<time>2014-08-04T23:07:23Z</time></trkpt>
<trkpt lat="25.458251" lon="99.375805">
<time>2014-08-04T23:07:24Z</time></trkpt>
<trkpt lat="25.458241" lon="99.375715">
<time>2014-08-04T23:07:25Z</time></trkpt>
<trkpt lat="25.458201" lon="99.375635">
<time>2014-08-04T23:07:26Z</time></trkpt>
<trkpt lat="25.458171" lon="99.375566">
<time>2014-08-04T23:07:27Z</time></trkpt>
<trkpt lat="25.458121" lon="99.375516">
<time>2014-08-04T23:07:28Z</time></trkpt>
<trkpt lat="25.458062" lon="99.375446">
<time>2014-08-04T23:07:29Z</time></trkpt>
<trkpt lat="25.457982" lon="99.375356">
<time>2014-08-04T23:07:30Z</time></trkpt>
<trkpt lat="25.457912" lon="99.375276">
<time>2014-08-04T23:07:31Z</time></trkpt>
<trkpt lat="25.457822" lon="99.375176">
<time>2014-08-04T23:07:32Z</time></trkpt>
<trkpt lat="25.457762" lon="99.375096">
<time>2014-08-04T23:07:33Z</time></trkpt>
<trkpt lat="25.457722" lon="99.375017">
<time>2014-08-04T23:07:34Z</time></trkpt>
<trkpt lat="25.457702" lon="99.374957">
<time>2014-08-04T23:07:35Z</time></trkpt>
<trkpt lat="25.457692" lon="99.374917">
<time>2014-08-04T23:07:36Z</time></trkpt>
<trkpt lat="25.457672" lon="99.374837">
<time>2014-08-04T23:07:37Z</time></trkpt>
<trkpt lat="25.457662" lon="99.374777">
<time>2014-08-04T23:07:38Z</time></trkpt>
<trkpt lat="25.457672" lon="99.374697">
<time>2014-08-04T23:07:39Z</time></trkpt>
<trkpt lat="25.457682" lon="99.374567">
<time>2014-08-04T23:07:40Z</time></trkpt>
<trkpt lat="25.457712" lon="99.374438">
<time>2014-08-04T23:07:41Z</time></trkpt>
<trkpt lat="25.457743" lon="99.374298">
<time>2014-08-04T23:07:42Z</time></trkpt>
<trkpt lat="25.457843" lon="99.373879">
<time>2014-08-04T23:07:43Z</time></trkpt>
<trkpt lat="25.457873" lon="99.373739">
<time>2014-08-04T23:07:44Z</time></trkpt>
<trkpt lat="25.457893" lon="99.373619">
<time>2014-08-04T23:07:45Z</time></trkpt>
<trkpt lat="25.457903" lon="99.373549">
<time>2014-08-04T23:07:46Z</time></trkpt>
<trkpt lat="25.457894" lon="99.373459">
<time>2014-08-04T23:07:47Z</time></trkpt>
<trkpt lat="25.457884" lon="99.373379">
<time>2014-08-04T23:07:48Z</time></trkpt>
<trkpt lat="25.457874" lon="99.37331">
<time>2014-08-04T23:07:49Z</time></trkpt>
<trkpt lat="25.457854" lon="99.37324">
<time>2014-08-04T23:07:50Z</time></trkpt>
<trkpt lat="25.457824" lon="99.37318">
<time>2014-08-04T23:07:51Z</time></trkpt>
<trkpt lat="25.457794" lon="99.37309">
<time>2014-08-04T23:07:52Z</time></trkpt>
<trkpt lat="25.457734" lon="99.37296">
<time>2014-08-04T23:07:53Z</time></trkpt>
<trkpt lat="25.457704" lon="99.37288">
<time>2014-08-04T23:07:54Z</time></trkpt>
<trkpt lat="25.457684" lon="99.3728">
<time>2014-08-04T23:07:55Z</time></trkpt>
<trkpt lat="25.457674" lon="99.372741">
<time>2014-08-04T23:07:56Z</time></trkpt>
<trkpt lat="25.457664" lon="99.372631">
<time>2014-08-04T23:07:57Z</time></trkpt>
<trkpt lat="25.457675" lon="99.372531">
<time>2014-08-04T23:07:58Z</time></trkpt>
<trkpt lat="25.457695" lon="99.372461">
<time>2014-08-04T23:07:59Z</time></trkpt>
<trkpt lat="25.457725" lon="99.372391">
<time>2014-08-04T23:08:00Z</time></trkpt>
<trkpt lat="25.457785" lon="99.372301">
<time>2014-08-04T23:08:01Z</time></trkpt>
<trkpt lat="25.457905" lon="99.372162">
<time>2014-08-04T23:08:02Z</time></trkpt>
<trkpt lat="25.458045" lon="99.372032">
<time>2014-08-04T23:08:03Z</time></trkpt>
<trkpt lat="25.458095" lon="99.371972">
<time>2014-08-04T23:08:04Z</time></trkpt>
<trkpt lat="25.458145" lon="99.371892">
<time>2014-08-04T23:08:05Z</time></trkpt>
<trkpt lat="25.458176" lon="99.371822">
<time>2014-08-04T23:08:06Z</time></trkpt>
<trkpt lat="25.458196" lon="99.371732">
<time>2014-08-04T23:08:07Z</time></trkpt>
<trkpt lat="25.458216" lon="99.371653">
<time>2014-08-04T23:08:08Z</time></trkpt>
<trkpt lat="25.458216" lon="99.371543">
<time>2014-08-04T23:08:09Z</time></trkpt>
<trkpt lat="25.458226" lon="99.371363">
<time>2014-08-04T23:08:10Z</time></trkpt>
<trkpt lat="25.458226" lon="99.371104">
<time>2014-08-04T23:08:11Z</time></trkpt>
<trkpt lat="25.458226" lon="99.371004">
<time>2014-08-04T23:08:12Z</time></trkpt>
<trkpt lat="25.458217" lon="99.370904">
<time>2014-08-04T23:08:13Z</time></trkpt>
<trkpt lat="25.458197" lon="99.370814">
<time>2014-08-04T23:08:14Z</time></trkpt>
<trkpt lat="25.458177" lon="99.370754">
<time>2014-08-04T23:08:15Z</time></trkpt>
<trkpt lat="25.458127" lon="99.370644">
<time>2014-08-04T23:08:16Z</time></trkpt>
<trkpt lat="25.458067" lon="99.370535">
<time>2014-08-04T23:08:17Z</time></trkpt>
<trkpt lat="25.457997" lon="99.370445">
<time>2014-08-04T23:08:18Z</time></trkpt>
<trkpt lat="25.457927" lon="99.370325">
<time>2014-08-04T23:08:19Z</time></trkpt>
<trkpt lat="25.457867" lon="99.370215">
<time>2014-08-04T23:08:20Z</time></trkpt>
<trkpt lat="25.457847" lon="99.370155">
<time>2014-08-04T23:08:21Z</time></trkpt>
<trkpt lat="25.457817" lon="99.370076">
<time>2014-08-04T23:08:22Z</time></trkpt>
<trkpt lat="25.457808" lon="99.370006">
<time>2014-08-04T23:08:23Z</time></trkpt>
<trkpt lat="25.457808" lon="99.369956">
<time>2014-08-04T23:08:24Z</time></trkpt>
<trkpt lat="25.457808" lon="99.369886">
<time>2014-08-04T23:08:25Z</time></trkpt>
<trkpt lat="25.457818" lon="99.369826">
<time>2014-08-04T23:08:26Z</time></trkpt>
<trkpt lat="25.457838" lon="99.369746">
<time>2014-08-04T23:08:27Z</time></trkpt>
<trkpt lat="25.457858" lon="99.369696">
<time>2014-08-04T23:08:28Z</time></trkpt>
<trkpt lat="25.457898" lon="99.369626">
<time>2014-08-04T23:08:29Z</time></trkpt>
<trkpt lat="25.457928" lon="99.369577">
<time>2014-08-04T23:08:30Z</time></trkpt>
<trkpt lat="25.458018" lon="99.369477">
<time>2014-08-04T23:08:31Z</time></trkpt>
<trkpt lat="25.458108" lon="99.369357">
<time>2014-08-04T23:08:32Z</time></trkpt>
<trkpt lat="25.458189" lon="99.369247">
<time>2014-08-04T23:08:33Z</time></trkpt>
<trkpt lat="25.458239" lon="99.369157">
<time>2014-08-04T23:08:34Z</time></trkpt>
<trkpt lat="25.458269" lon="99.369097">
<time>2014-08-04T23:08:35Z</time></trkpt>
<trkpt lat="25.458279" lon="99.369028">
<time>2014-08-04T23:08:36Z</time></trkpt>
<trkpt lat="25.458289" lon="99.368978">
<time>2014-08-04T23:08:37Z</time></trkpt>
<trkpt lat="25.458299" lon="99.368928">
<time>2014-08-04T23:08:38Z</time></trkpt>
<trkpt lat="25.458299" lon="99.368858">
<time>2014-08-04T23:08:39Z</time></trkpt>
<trkpt lat="25.458289" lon="99.368728">
<time>2014-08-04T23:08:40Z</time></trkpt>
<trkpt lat="25.458279" lon="99.368519">
<time>2014-08-04T23:08:41Z</time></trkpt>
<trkpt lat="25.45826" lon="99.368289">
<time>2014-08-04T23:08:42Z</time></trkpt>
<trkpt lat="25.45826" lon="99.36806">
<time>2014-08-04T23:08:43Z</time></trkpt>
<trkpt lat="25.45826" lon="99.36789">
<time>2014-08-04T23:08:44Z</time></trkpt>
<trkpt lat="25.458271" lon="99.36768">
<time>2014-08-04T23:08:45Z</time></trkpt>
<trkpt lat="25.458301" lon="99.367541">
<time>2014-08-04T23:08:46Z</time></trkpt>
<trkpt lat="25.458321" lon="99.367441">
<time>2014-08-04T23:08:47Z</time></trkpt>
<trkpt lat="25.458361" lon="99.367351">
<time>2014-08-04T23:08:48Z</time></trkpt>
<trkpt lat="25.458391" lon="99.367291">
<time>2014-08-04T23:08:49Z</time></trkpt>
<trkpt lat="25.458451" lon="99.367191">
<time>2014-08-04T23:08:50Z</time></trkpt>
<trkpt lat="25.458501" lon="99.367101">
<time>2014-08-04T23:08:51Z</time></trkpt>
<trkpt lat="25.458551" lon="99.367022">
<time>2014-08-04T23:08:52Z</time></trkpt>
<trkpt lat="25.458612" lon="99.366912">
<time>2014-08-04T23:08:53Z</time></trkpt>
<trkpt lat="25.458652" lon="99.366792">
<time>2014-08-04T23:08:54Z</time></trkpt>
<trkpt lat="25.458692" lon="99.366712">
<time>2014-08-04T23:08:55Z</time></trkpt>
<trkpt lat="25.458712" lon="99.366632">
<time>2014-08-04T23:08:56Z</time></trkpt>
<trkpt lat="25.458732" lon="99.366553">
<time>2014-08-04T23:08:57Z</time></trkpt>
<trkpt lat="25.458742" lon="99.366463">
<time>2014-08-04T23:08:58Z</time></trkpt>
<trkpt lat="25.458752" lon="99.366413">
<time>2014-08-04T23:08:59Z</time></trkpt>
<trkpt lat="25.458752" lon="99.366373">
<time>2014-08-04T23:09:00Z</time></trkpt>
<trkpt lat="25.458742" lon="99.366323">
<time>2014-08-04T23:09:01Z</time></trkpt>
<trkpt lat="25.458733" lon="99.366253">
<time>2014-08-04T23:09:02Z</time></trkpt>
<trkpt lat="25.458713" lon="99.366173">
<time>2014-08-04T23:09:03Z</time></trkpt>
<trkpt lat="25.458683" lon="99.366123">
<time>2014-08-04T23:09:04Z</time></trkpt>
<trkpt lat="25.458653" lon="99.366064">
<time>2014-08-04T23:09:05Z</time></trkpt>
<trkpt lat="25.458613" lon="99.366014">
<time>2014-08-04T23:09:06Z</time></trkpt>
<trkpt lat="25.458583" lon="99.365984">
<time>2014-08-04T23:09:07Z</time></trkpt>
<trkpt lat="25.458513" lon="99.365924">
<time>2014-08-04T23:09:08Z</time></trkpt>
<trkpt lat="25.458433" lon="99.365854">
<time>2014-08-04T23:09:09Z</time></trkpt>
<trkpt lat="25.458393" lon="99.365804">
<time>2014-08-04T23:09:10Z</time></trkpt>
<trkpt lat="25.458353" lon="99.365754">
<time>2014-08-04T23:09:11Z</time></trkpt>
<trkpt lat="25.458313" lon="99.365704">
<time>2014-08-04T23:09:12Z</time></trkpt>
<trkpt lat="25.458243" lon="99.365605">
<time>2014-08-04T23:09:13Z</time></trkpt>
<trkpt lat="25.458203" lon="99.365535">
<time>2014-08-04T23:09:14Z</time></trkpt>
<trkpt lat="25.458183" lon="99.365465">
<time>2014-08-04T23:09:15Z</time></trkpt>
<trkpt lat="25.458174" lon="99.365365">
<time>2014-08-04T23:09:16Z</time></trkpt>
<trkpt lat="25.458174" lon="99.365275">
<time>2014-08-04T23:09:17Z</time></trkpt>
<trkpt lat="25.458194" lon="99.365185">
<time>2014-08-04T23:09:18Z</time></trkpt>
<trkpt lat="25.458214" lon="99.365106">
<time>2014-08-04T23:09:19Z</time></trkpt>
<trkpt lat="25.458254" lon="99.365016">
<time>2014-08-04T23:09:20Z</time></trkpt>
<trkpt lat="25.458294" lon="99.364956">
<time>2014-08-04T23:09:21Z</time></trkpt>
<trkpt lat="25.458324" lon="99.364856">
<time>2014-08-04T23:09:22Z</time></trkpt>
<trkpt lat="25.458334" lon="99.364806">
<time>2014-08-04T23:09:23Z</time></trkpt>
<trkpt lat="25.458345" lon="99.364706">
<time>2014-08-04T23:09:24Z</time></trkpt>
<trkpt lat="25.458345" lon="99.364627">
<time>2014-08-04T23:09:25Z</time></trkpt>
<trkpt lat="25.458335" lon="99.364517">
<time>2014-08-04T23:09:26Z</time></trkpt>
<trkpt lat="25.458315" lon="99.364407">
<time>2014-08-04T23:09:27Z</time></trkpt>
<trkpt lat="25.458295" lon="99.364317">
<time>2014-08-04T23:09:28Z</time></trkpt>
<trkpt lat="25.458285" lon="99.364217">
<time>2014-08-04T23:09:29Z</time></trkpt>
<trkpt lat="25.458285" lon="99.364138">
<time>2014-08-04T23:09:30Z</time></trkpt>
<trkpt lat="25.458295" lon="99.364058">
<time>2014-08-04T23:09:31Z</time></trkpt>
<trkpt lat="25.458315" lon="99.363978">
<time>2014-08-04T23:09:32Z</time></trkpt>
<trkpt lat="25.458346" lon="99.363888">
<time>2014-08-04T23:09:33Z</time></trkpt>
<trkpt lat="25.458406" lon="99.363768">
<time>2014-08-04T23:09:34Z</time></trkpt>
<trkpt lat="25.458536" lon="99.363509">
<time>2014-08-04T23:09:35Z</time></trkpt>
<trkpt lat="25.458616" lon="99.363349">
<time>2014-08-04T23:09:36Z</time></trkpt>
<trkpt lat="25.458667" lon="99.36324">
<time>2014-08-04T23:09:37Z</time></trkpt>
<trkpt lat="25.458687" lon="99.36316">
<time>2014-08-04T23:09:38Z</time></trkpt>
<trkpt lat="25.458697" lon="99.36308">
<time>2014-08-04T23:09:39Z</time></trkpt>
<trkpt lat="25.458717" lon="99.36298">
<time>2014-08-04T23:09:40Z</time></trkpt>
<trkpt lat="25.458758" lon="99.362561">
<time>2014-08-04T23:09:41Z</time></trkpt>
<trkpt lat="25.458829" lon="99.361314">
<time>2014-08-04T23:09:42Z</time></trkpt>
<trkpt lat="25.45892" lon="99.360755">
<time>2014-08-04T23:09:43Z</time></trkpt>
<trkpt lat="25.458931" lon="99.360595">
<time>2014-08-04T23:09:44Z</time></trkpt>
<trkpt lat="25.458931" lon="99.360466">
<time>2014-08-04T23:09:45Z</time></trkpt>
<trkpt lat="25.458931" lon="99.360336">
<time>2014-08-04T23:09:46Z</time></trkpt>
<trkpt lat="25.458901" lon="99.360246">
<time>2014-08-04T23:09:47Z</time></trkpt>
<trkpt lat="25.458861" lon="99.360146">
<time>2014-08-04T23:09:48Z</time></trkpt>
<trkpt lat="25.458821" lon="99.360096">
<time>2014-08-04T23:09:49Z</time></trkpt>
<trkpt lat="25.458761" lon="99.360047">
<time>2014-08-04T23:09:50Z</time></trkpt>
<trkpt lat="25.458701" lon="99.359997">
<time>2014-08-04T23:09:51Z</time></trkpt>
<trkpt lat="25.458332" lon="99.359787">
<time>2014-08-04T23:09:52Z</time></trkpt>
<trkpt lat="25.458192" lon="99.359687">
<time>2014-08-04T23:09:53Z</time></trkpt>
<trkpt lat="25.458142" lon="99.359628">
<time>2014-08-04T23:09:54Z</time></trkpt>
<trkpt lat="25.458092" lon="99.359568">
<time>2014-08-04T23:09:55Z</time></trkpt>
<trkpt lat="25.458032" lon="99.359458">
<time>2014-08-04T23:09:56Z</time></trkpt>
<trkpt lat="25.458002" lon="99.359378">
<time>2014-08-04T23:09:57Z</time></trkpt>
<trkpt lat="25.457972" lon="99.359228">
<time>2014-08-04T23:09:58Z</time></trkpt>
<trkpt lat="25.457943" lon="99.359049">
<time>2014-08-04T23:09:59Z</time></trkpt>
<trkpt lat="25.457923" lon="99.358859">
<time>2014-08-04T23:10:00Z</time></trkpt>
<trkpt lat="25.457903" lon="99.35867">
<time>2014-08-04T23:10:01Z</time></trkpt>
<trkpt lat="25.457893" lon="99.35857">
<time>2014-08-04T23:10:02Z</time></trkpt>
<trkpt lat="25.457894" lon="99.35838">
<time>2014-08-04T23:10:03Z</time></trkpt>
<trkpt lat="25.457894" lon="99.358251">
<time>2014-08-04T23:10:04Z</time></trkpt>
<trkpt lat="25.457904" lon="99.358051">
<time>2014-08-04T23:10:05Z</time></trkpt>
<trkpt lat="25.457904" lon="99.357921">
<time>2014-08-04T23:10:06Z</time></trkpt>
<trkpt lat="25.457894" lon="99.357812">
<time>2014-08-04T23:10:07Z</time></trkpt>
<trkpt lat="25.457885" lon="99.357712">
<time>2014-08-04T23:10:08Z</time></trkpt>
<trkpt lat="25.457835" lon="99.357492">
<time>2014-08-04T23:10:09Z</time></trkpt>
<trkpt lat="25.457775" lon="99.357293">
<time>2014-08-04T23:10:10Z</time></trkpt>
<trkpt lat="25.457735" lon="99.357173">
<time>2014-08-04T23:10:11Z</time></trkpt>
<trkpt lat="25.457696" lon="99.357073">
<time>2014-08-04T23:10:12Z</time></trkpt>
<trkpt lat="25.457646" lon="99.357004">
<time>2014-08-04T23:10:13Z</time></trkpt>
<trkpt lat="25.457596" lon="99.356944">
<time>2014-08-04T23:10:14Z</time></trkpt>
<trkpt lat="25.457556" lon="99.356904">
<time>2014-08-04T23:10:15Z</time></trkpt>
<trkpt lat="25.457496" lon="99.356864">
<time>2014-08-04T23:10:16Z</time></trkpt>
<trkpt lat="25.457446" lon="99.356844">
<time>2014-08-04T23:10:17Z</time></trkpt>
<trkpt lat="25.457376" lon="99.356844">
<time>2014-08-04T23:10:18Z</time></trkpt>
<trkpt lat="25.457336" lon="99.356844">
<time>2014-08-04T23:10:19Z</time></trkpt>
<trkpt lat="25.457266" lon="99.356854">
<time>2014-08-04T23:10:20Z</time></trkpt>
<trkpt lat="25.457196" lon="99.356874">
<time>2014-08-04T23:10:21Z</time></trkpt>
<trkpt lat="25.457136" lon="99.356924">
<time>2014-08-04T23:10:22Z</time></trkpt>
<trkpt lat="25.457076" lon="99.356974">
<time>2014-08-04T23:10:23Z</time></trkpt>
<trkpt lat="25.457035" lon="99.357024">
<time>2014-08-04T23:10:24Z</time></trkpt>
<trkpt lat="25.456995" lon="99.357073">
<time>2014-08-04T23:10:25Z</time></trkpt>
<trkpt lat="25.456955" lon="99.357143">
<time>2014-08-04T23:10:26Z</time></trkpt>
<trkpt lat="25.456915" lon="99.357233">
<time>2014-08-04T23:10:27Z</time></trkpt>
<trkpt lat="25.456885" lon="99.357313">
<time>2014-08-04T23:10:28Z</time></trkpt>
<trkpt lat="25.456835" lon="99.357443">
<time>2014-08-04T23:10:29Z</time></trkpt>
<trkpt lat="25.456785" lon="99.357532">
<time>2014-08-04T23:10:30Z</time></trkpt>
<trkpt lat="25.456724" lon="99.357632">
<time>2014-08-04T23:10:31Z</time></trkpt>
<trkpt lat="25.456674" lon="99.357682">
<time>2014-08-04T23:10:32Z</time></trkpt>
<trkpt lat="25.456624" lon="99.357712">
<time>2014-08-04T23:10:33Z</time></trkpt>
<trkpt lat="25.456574" lon="99.357732">
<time>2014-08-04T23:10:34Z</time></trkpt>
<trkpt lat="25.456534" lon="99.357742">
<time>2014-08-04T23:10:35Z</time></trkpt>
<trkpt lat="25.456474" lon="99.357742">
<time>2014-08-04T23:10:36Z</time></trkpt>
<trkpt lat="25.456414" lon="99.357742">
<time>2014-08-04T23:10:37Z</time></trkpt>
<trkpt lat="25.456364" lon="99.357722">
<time>2014-08-04T23:10:38Z</time></trkpt>
<trkpt lat="25.456244" lon="99.357682">
<time>2014-08-04T23:10:39Z</time></trkpt>
<trkpt lat="25.456124" lon="99.357632">
<time>2014-08-04T23:10:40Z</time></trkpt>
<trkpt lat="25.456014" lon="99.357602">
<time>2014-08-04T23:10:41Z</time></trkpt>
<trkpt lat="25.455884" lon="99.357582">
<time>2014-08-04T23:10:42Z</time></trkpt>
<trkpt lat="25.455724" lon="99.357562">
<time>2014-08-04T23:10:43Z</time></trkpt>
<trkpt lat="25.455584" lon="99.357532">
<time>2014-08-04T23:10:44Z</time></trkpt>
<trkpt lat="25.455484" lon="99.357502">
<time>2014-08-04T23:10:45Z</time></trkpt>
<trkpt lat="25.455384" lon="99.357473">
<time>2014-08-04T23:10:46Z</time></trkpt>
<trkpt lat="25.455324" lon="99.357453">
<time>2014-08-04T23:10:47Z</time></trkpt>
<trkpt lat="25.455284" lon="99.357413">
<time>2014-08-04T23:10:48Z</time></trkpt>
<trkpt lat="25.455254" lon="99.357383">
<time>2014-08-04T23:10:49Z</time></trkpt>
<trkpt lat="25.455214" lon="99.357323">
<time>2014-08-04T23:10:50Z</time></trkpt>
<trkpt lat="25.455185" lon="99.357273">
<time>2014-08-04T23:10:51Z</time></trkpt>
<trkpt lat="25.455155" lon="99.357183">
<time>2014-08-04T23:10:52Z</time></trkpt>
<trkpt lat="25.455115" lon="99.357044">
<time>2014-08-04T23:10:53Z</time></trkpt>
<trkpt lat="25.455095" lon="99.356904">
<time>2014-08-04T23:10:54Z</time></trkpt>
<trkpt lat="25.455055" lon="99.356734">
<time>2014-08-04T23:10:55Z</time></trkpt>
<trkpt lat="25.455025" lon="99.356654">
<time>2014-08-04T23:10:56Z</time></trkpt>
<trkpt lat="25.455006" lon="99.356585">
<time>2014-08-04T23:10:57Z</time></trkpt>
<trkpt lat="25.454966" lon="99.356505">
<time>2014-08-04T23:10:58Z</time></trkpt>
<trkpt lat="25.454926" lon="99.356455">
<time>2014-08-04T23:10:59Z</time></trkpt>
<trkpt lat="25.454866" lon="99.356385">
<time>2014-08-04T23:11:00Z</time></trkpt>
<trkpt lat="25.454806" lon="99.356335">
<time>2014-08-04T23:11:01Z</time></trkpt>
<trkpt lat="25.454696" lon="99.356245">
<time>2014-08-04T23:11:02Z</time></trkpt>
<trkpt lat="25.454606" lon="99.356176">
<time>2014-08-04T23:11:03Z</time></trkpt>
<trkpt lat="25.454506" lon="99.356086">
<time>2014-08-04T23:11:04Z</time></trkpt>
<trkpt lat="25.454446" lon="99.356026">
<time>2014-08-04T23:11:05Z</time></trkpt>
<trkpt lat="25.454366" lon="99.355936">
<time>2014-08-04T23:11:06Z</time></trkpt>
<trkpt lat="25.454327" lon="99.355876">
<time>2014-08-04T23:11:07Z</time></trkpt>
<trkpt lat="25.454297" lon="99.355816">
<time>2014-08-04T23:11:08Z</time></trkpt>
<trkpt lat="25.454287" lon="99.355757">
<time>2014-08-04T23:11:09Z</time></trkpt>
<trkpt lat="25.454287" lon="99.355687">
<time>2014-08-04T23:11:10Z</time></trkpt>
<trkpt lat="25.454287" lon="99.355637">
<time>2014-08-04T23:11:11Z</time></trkpt>
<trkpt lat="25.454297" lon="99.355587">
<time>2014-08-04T23:11:12Z</time></trkpt>
<trkpt lat="25.454327" lon="99.355517">
<time>2014-08-04T23:11:13Z</time></trkpt>
<trkpt lat="25.454367" lon="99.355457">
<time>2014-08-04T23:11:14Z</time></trkpt>
<trkpt lat="25.454407" lon="99.355407">
<time>2014-08-04T23:11:15Z</time></trkpt>
<trkpt lat="25.454407" lon="99.355397">
<time>2014-08-04T23:11:16Z</time></trkpt>
<trkpt lat="25.454467" lon="99.355328">
<time>2014-08-04T23:11:17Z</time></trkpt>
<trkpt lat="25.454548" lon="99.355248">
<time>2014-08-04T23:11:18Z</time></trkpt>
<trkpt lat="25.454608" lon="99.355168">
<time>2014-08-04T23:11:19Z</time></trkpt>
<trkpt lat="25.454658" lon="99.355108">
<time>2014-08-04T23:11:20Z</time></trkpt>
<trkpt lat="25.454698" lon="99.355028">
<time>2014-08-04T23:11:21Z</time></trkpt>
<trkpt lat="25.454718" lon="99.354978">
<time>2014-08-04T23:11:22Z</time></trkpt>
<trkpt lat="25.454728" lon="99.354909">
<time>2014-08-04T23:11:23Z</time></trkpt>
<trkpt lat="25.454738" lon="99.354819">
<time>2014-08-04T23:11:24Z</time></trkpt>
<trkpt lat="25.454738" lon="99.354729">
<time>2014-08-04T23:11:25Z</time></trkpt>
<trkpt lat="25.454739" lon="99.354669">
<time>2014-08-04T23:11:26Z</time></trkpt>
<trkpt lat="25.454719" lon="99.354589">
<time>2014-08-04T23:11:27Z</time></trkpt>
<trkpt lat="25.454669" lon="99.35446">
<time>2014-08-04T23:11:28Z</time></trkpt>
<trkpt lat="25.454609" lon="99.35434">
<time>2014-08-04T23:11:29Z</time></trkpt>
<trkpt lat="25.454569" lon="99.35426">
<time>2014-08-04T23:11:30Z</time></trkpt>
<trkpt lat="25.454509" lon="99.35417">
<time>2014-08-04T23:11:31Z</time></trkpt>
<trkpt lat="25.454459" lon="99.354101">
<time>2014-08-04T23:11:32Z</time></trkpt>
<trkpt lat="25.4544" lon="99.354031">
<time>2014-08-04T23:11:33Z</time></trkpt>
<trkpt lat="25.45433" lon="99.353941">
<time>2014-08-04T23:11:34Z</time></trkpt>
<trkpt lat="25.45426" lon="99.353861">
<time>2014-08-04T23:11:35Z</time></trkpt>
<trkpt lat="25.45421" lon="99.353771">
<time>2014-08-04T23:11:36Z</time></trkpt>
<trkpt lat="25.45415" lon="99.353642">
<time>2014-08-04T23:11:37Z</time></trkpt>
<trkpt lat="25.45411" lon="99.353532">
<time>2014-08-04T23:11:38Z</time></trkpt>
<trkpt lat="25.45405" lon="99.353442">
<time>2014-08-04T23:11:39Z</time></trkpt>
<trkpt lat="25.454001" lon="99.353352">
<time>2014-08-04T23:11:40Z</time></trkpt>
<trkpt lat="25.453911" lon="99.353263">
<time>2014-08-04T23:11:41Z</time></trkpt>
<trkpt lat="25.453851" lon="99.353203">
<time>2014-08-04T23:11:42Z</time></trkpt>
<trkpt lat="25.453791" lon="99.353173">
<time>2014-08-04T23:11:43Z</time></trkpt>
<trkpt lat="25.453741" lon="99.353143">
<time>2014-08-04T23:11:44Z</time></trkpt>
<trkpt lat="25.453661" lon="99.353113">
<time>2014-08-04T23:11:45Z</time></trkpt>
<trkpt lat="25.453561" lon="99.353093">
<time>2014-08-04T23:11:46Z</time></trkpt>
<trkpt lat="25.453491" lon="99.353093">
<time>2014-08-04T23:11:47Z</time></trkpt>
<trkpt lat="25.453391" lon="99.353093">
<time>2014-08-04T23:11:48Z</time></trkpt>
<trkpt lat="25.453281" lon="99.353083">
<time>2014-08-04T23:11:49Z</time></trkpt>
<trkpt lat="25.453171" lon="99.353063">
<time>2014-08-04T23:11:50Z</time></trkpt>
<trkpt lat="25.453101" lon="99.353053">
<time>2014-08-04T23:11:51Z</time></trkpt>
<trkpt lat="25.453011" lon="99.353023">
<time>2014-08-04T23:11:52Z</time></trkpt>
<trkpt lat="25.452941" lon="99.352983">
<time>2014-08-04T23:11:53Z</time></trkpt>
<trkpt lat="25.452841" lon="99.352923">
<time>2014-08-04T23:11:54Z</time></trkpt>
<trkpt lat="25.452761" lon="99.352904">
<time>2014-08-04T23:11:55Z</time></trkpt>
<trkpt lat="25.452711" lon="99.352894">
<time>2014-08-04T23:11:56Z</time></trkpt>
<trkpt lat="25.452661" lon="99.352884">
<time>2014-08-04T23:11:57Z</time></trkpt>
<trkpt lat="25.452621" lon="99.352894">
<time>2014-08-04T23:11:58Z</time></trkpt>
<trkpt lat="25.452581" lon="99.352904">
<time>2014-08-04T23:11:59Z</time></trkpt>
<trkpt lat="25.452541" lon="99.352913">
<time>2014-08-04T23:12:00Z</time></trkpt>
<trkpt lat="25.452451" lon="99.352983">
<time>2014-08-04T23:12:01Z</time></trkpt>
<trkpt lat="25.452341" lon="99.353103">
<time>2014-08-04T23:12:02Z</time></trkpt>
<trkpt lat="25.45219" lon="99.353303">
<time>2014-08-04T23:12:03Z</time></trkpt>
<trkpt lat="25.45204" lon="99.353472">
<time>2014-08-04T23:12:04Z</time></trkpt>
<trkpt lat="25.451879" lon="99.353652">
<time>2014-08-04T23:12:05Z</time></trkpt>
<trkpt lat="25.451489" lon="99.354011">
<time>2014-08-04T23:12:06Z</time></trkpt>
<trkpt lat="25.451328" lon="99.3542">
<time>2014-08-04T23:12:07Z</time></trkpt>
<trkpt lat="25.451288" lon="99.35425">
<time>2014-08-04T23:12:08Z</time></trkpt>
<trkpt lat="25.451238" lon="99.35431">
<time>2014-08-04T23:12:09Z</time></trkpt>
<trkpt lat="25.451188" lon="99.35442">
<time>2014-08-04T23:12:10Z</time></trkpt>
<trkpt lat="25.451158" lon="99.35454">
<time>2014-08-04T23:12:11Z</time></trkpt>
<trkpt lat="25.451128" lon="99.354689">
<time>2014-08-04T23:12:12Z</time></trkpt>
<trkpt lat="25.451097" lon="99.354949">
<time>2014-08-04T23:12:13Z</time></trkpt>
<trkpt lat="25.451067" lon="99.355078">
<time>2014-08-04T23:12:14Z</time></trkpt>
<trkpt lat="25.451037" lon="99.355148">
<time>2014-08-04T23:12:15Z</time></trkpt>
<trkpt lat="25.451007" lon="99.355198">
<time>2014-08-04T23:12:16Z</time></trkpt>
<trkpt lat="25.450967" lon="99.355268">
<time>2014-08-04T23:12:17Z</time></trkpt>
<trkpt lat="25.450937" lon="99.355298">
<time>2014-08-04T23:12:18Z</time></trkpt>
<trkpt lat="25.450907" lon="99.355338">
<time>2014-08-04T23:12:19Z</time></trkpt>
<trkpt lat="25.450866" lon="99.355358">
<time>2014-08-04T23:12:20Z</time></trkpt>
<trkpt lat="25.450816" lon="99.355388">
<time>2014-08-04T23:12:21Z</time></trkpt>
<trkpt lat="25.450756" lon="99.355408">
<time>2014-08-04T23:12:22Z</time></trkpt>
<trkpt lat="25.450646" lon="99.355417">
<time>2014-08-04T23:12:23Z</time></trkpt>
<trkpt lat="25.450596" lon="99.355427">
<time>2014-08-04T23:12:24Z</time></trkpt>
<trkpt lat="25.450516" lon="99.355437">
<time>2014-08-04T23:12:25Z</time></trkpt>
<trkpt lat="25.450486" lon="99.355447">
<time>2014-08-04T23:12:26Z</time></trkpt>
<trkpt lat="25.450446" lon="99.355457">
<time>2014-08-04T23:12:27Z</time></trkpt>
<trkpt lat="25.450426" lon="99.355477">
<time>2014-08-04T23:12:28Z</time></trkpt>
<trkpt lat="25.450406" lon="99.355487">
<time>2014-08-04T23:12:29Z</time></trkpt>
<trkpt lat="25.450376" lon="99.355497">
<time>2014-08-04T23:12:30Z</time></trkpt>
<trkpt lat="25.450346" lon="99.355517">
<time>2014-08-04T23:12:31Z</time></trkpt>
<trkpt lat="25.450316" lon="99.355567">
<time>2014-08-04T23:12:32Z</time></trkpt>
<trkpt lat="25.449945" lon="99.356016">
<time>2014-08-04T23:12:33Z</time></trkpt>
<trkpt lat="25.449654" lon="99.356405">
<time>2014-08-04T23:12:34Z</time></trkpt>
<trkpt lat="25.449614" lon="99.356455">
<time>2014-08-04T23:12:35Z</time></trkpt>
<trkpt lat="25.449574" lon="99.356495">
<time>2014-08-04T23:12:36Z</time></trkpt>
<trkpt lat="25.449534" lon="99.356515">
<time>2014-08-04T23:12:37Z</time></trkpt>
<trkpt lat="25.449504" lon="99.356525">
<time>2014-08-04T23:12:38Z</time></trkpt>
<trkpt lat="25.449464" lon="99.356535">
<time>2014-08-04T23:12:39Z</time></trkpt>
<trkpt lat="25.449394" lon="99.356545">
<time>2014-08-04T23:12:40Z</time></trkpt>
<trkpt lat="25.449344" lon="99.356525">
<time>2014-08-04T23:12:41Z</time></trkpt>
<trkpt lat="25.449314" lon="99.356505">
<time>2014-08-04T23:12:42Z</time></trkpt>
<trkpt lat="25.449274" lon="99.356475">
<time>2014-08-04T23:12:43Z</time></trkpt>
<trkpt lat="25.449234" lon="99.356435">
<time>2014-08-04T23:12:44Z</time></trkpt>
<trkpt lat="25.449184" lon="99.356365">
<time>2014-08-04T23:12:45Z</time></trkpt>
<trkpt lat="25.449015" lon="99.356096">
<time>2014-08-04T23:12:46Z</time></trkpt>
<trkpt lat="25.448885" lon="99.355876">
<time>2014-08-04T23:12:47Z</time></trkpt>
<trkpt lat="25.448765" lon="99.355637">
<time>2014-08-04T23:12:48Z</time></trkpt>
<trkpt lat="25.448726" lon="99.355577">
<time>2014-08-04T23:12:49Z</time></trkpt>
<trkpt lat="25.448696" lon="99.355517">
<time>2014-08-04T23:12:50Z</time></trkpt>
<trkpt lat="25.448646" lon="99.355457">
<time>2014-08-04T23:12:51Z</time></trkpt>
<trkpt lat="25.448596" lon="99.355418">
<time>2014-08-04T23:12:52Z</time></trkpt>
<trkpt lat="25.448546" lon="99.355368">
<time>2014-08-04T23:12:53Z</time></trkpt>
<trkpt lat="25.448486" lon="99.355338">
<time>2014-08-04T23:12:54Z</time></trkpt>
<trkpt lat="25.448426" lon="99.355318">
<time>2014-08-04T23:12:55Z</time></trkpt>
<trkpt lat="25.448366" lon="99.355298">
<time>2014-08-04T23:12:56Z</time></trkpt>
<trkpt lat="25.448286" lon="99.355278">
<time>2014-08-04T23:12:57Z</time></trkpt>
<trkpt lat="25.448166" lon="99.355228">
<time>2014-08-04T23:12:58Z</time></trkpt>
<trkpt lat="25.448096" lon="99.355198">
<time>2014-08-04T23:12:59Z</time></trkpt>
<trkpt lat="25.448056" lon="99.355158">
<time>2014-08-04T23:13:00Z</time></trkpt>
<trkpt lat="25.448016" lon="99.355128">
<time>2014-08-04T23:13:01Z</time></trkpt>
<trkpt lat="25.447996" lon="99.355088">
<time>2014-08-04T23:13:02Z</time></trkpt>
<trkpt lat="25.447986" lon="99.355058">
<time>2014-08-04T23:13:03Z</time></trkpt>
<trkpt lat="25.447976" lon="99.355009">
<time>2014-08-04T23:13:04Z</time></trkpt>
<trkpt lat="25.447966" lon="99.354959">
<time>2014-08-04T23:13:05Z</time></trkpt>
<trkpt lat="25.447966" lon="99.354909">
<time>2014-08-04T23:13:06Z</time></trkpt>
<trkpt lat="25.447987" lon="99.354859">
<time>2014-08-04T23:13:07Z</time></trkpt>
<trkpt lat="25.448017" lon="99.354809">
<time>2014-08-04T23:13:08Z</time></trkpt>
<trkpt lat="25.448057" lon="99.354749">
<time>2014-08-04T23:13:09Z</time></trkpt>
<trkpt lat="25.448097" lon="99.354699">
<time>2014-08-04T23:13:10Z</time></trkpt>
<trkpt lat="25.448137" lon="99.354659">
<time>2014-08-04T23:13:11Z</time></trkpt>
<trkpt lat="25.448207" lon="99.354609">
<time>2014-08-04T23:13:12Z</time></trkpt>
<trkpt lat="25.448337" lon="99.35453">
<time>2014-08-04T23:13:13Z</time></trkpt>
<trkpt lat="25.448557" lon="99.35443">
<time>2014-08-04T23:13:14Z</time></trkpt>
<trkpt lat="25.448698" lon="99.35435">
<time>2014-08-04T23:13:15Z</time></trkpt>
<trkpt lat="25.448788" lon="99.3543">
<time>2014-08-04T23:13:16Z</time></trkpt>
<trkpt lat="25.448838" lon="99.35427">
<time>2014-08-04T23:13:17Z</time></trkpt>
<trkpt lat="25.448888" lon="99.35422">
<time>2014-08-04T23:13:18Z</time></trkpt>
<trkpt lat="25.448938" lon="99.354141">
<time>2014-08-04T23:13:19Z</time></trkpt>
<trkpt lat="25.448978" lon="99.354061">
<time>2014-08-04T23:13:20Z</time></trkpt>
<trkpt lat="25.449018" lon="99.353971">
<time>2014-08-04T23:13:21Z</time></trkpt>
<trkpt lat="25.449038" lon="99.353901">
<time>2014-08-04T23:13:22Z</time></trkpt>
<trkpt lat="25.449069" lon="99.353811">
<time>2014-08-04T23:13:23Z</time></trkpt>
<trkpt lat="25.449089" lon="99.353742">
<time>2014-08-04T23:13:24Z</time></trkpt>
<trkpt lat="25.449109" lon="99.353622">
<time>2014-08-04T23:13:25Z</time></trkpt>
<trkpt lat="25.449139" lon="99.353472">
<time>2014-08-04T23:13:26Z</time></trkpt>
<trkpt lat="25.44919" lon="99.353053">
<time>2014-08-04T23:13:27Z</time></trkpt>
<trkpt lat="25.449261" lon="99.352365">
<time>2014-08-04T23:13:28Z</time></trkpt>
<trkpt lat="25.449312" lon="99.351936">
<time>2014-08-04T23:13:29Z</time></trkpt>
<trkpt lat="25.449332" lon="99.351716">
<time>2014-08-04T23:13:30Z</time></trkpt>
<trkpt lat="25.449353" lon="99.351447">
<time>2014-08-04T23:13:31Z</time></trkpt>
<trkpt lat="25.449383" lon="99.351278">
<time>2014-08-04T23:13:32Z</time></trkpt>
<trkpt lat="25.449423" lon="99.351088">
<time>2014-08-04T23:13:33Z</time></trkpt>
<trkpt lat="25.449453" lon="99.350938">
<time>2014-08-04T23:13:34Z</time></trkpt>
<trkpt lat="25.449484" lon="99.350839">
<time>2014-08-04T23:13:35Z</time></trkpt>
<trkpt lat="25.449514" lon="99.350679">
<time>2014-08-04T23:13:36Z</time></trkpt>
<trkpt lat="25.449524" lon="99.350569">
<time>2014-08-04T23:13:37Z</time></trkpt>
<trkpt lat="25.449544" lon="99.35034">
<time>2014-08-04T23:13:38Z</time></trkpt>
<trkpt lat="25.449565" lon="99.350091">
<time>2014-08-04T23:13:39Z</time></trkpt>
<trkpt lat="25.449585" lon="99.349891">
<time>2014-08-04T23:13:40Z</time></trkpt>
<trkpt lat="25.449595" lon="99.349781">
<time>2014-08-04T23:13:41Z</time></trkpt>
<trkpt lat="25.449616" lon="99.349652">
<time>2014-08-04T23:13:42Z</time></trkpt>
<trkpt lat="25.449636" lon="99.349572">
<time>2014-08-04T23:13:43Z</time></trkpt>
<trkpt lat="25.449656" lon="99.349472">
<time>2014-08-04T23:13:44Z</time></trkpt>
<trkpt lat="25.449727" lon="99.349143">
<time>2014-08-04T23:13:45Z</time></trkpt>
<trkpt lat="25.449757" lon="99.348963">
<time>2014-08-04T23:13:46Z</time></trkpt>
<trkpt lat="25.449767" lon="99.348874">
<time>2014-08-04T23:13:47Z</time></trkpt>
<trkpt lat="25.449777" lon="99.348774">
<time>2014-08-04T23:13:48Z</time></trkpt>
<trkpt lat="25.449777" lon="99.348664">
<time>2014-08-04T23:13:49Z</time></trkpt>
<trkpt lat="25.449767" lon="99.348584">
<time>2014-08-04T23:13:50Z</time></trkpt>
<trkpt lat="25.449758" lon="99.348514">
<time>2014-08-04T23:13:51Z</time></trkpt>
<trkpt lat="25.449738" lon="99.348445">
<time>2014-08-04T23:13:52Z</time></trkpt>
<trkpt lat="25.449698" lon="99.348315">
<time>2014-08-04T23:13:53Z</time></trkpt>
<trkpt lat="25.449638" lon="99.348175">
<time>2014-08-04T23:13:54Z</time></trkpt>
<trkpt lat="25.449588" lon="99.348066">
<time>2014-08-04T23:13:55Z</time></trkpt>
<trkpt lat="25.449499" lon="99.347876">
<time>2014-08-04T23:13:56Z</time></trkpt>
<trkpt lat="25.449429" lon="99.347756">
<time>2014-08-04T23:13:57Z</time></trkpt>
<trkpt lat="25.449369" lon="99.347657">
<time>2014-08-04T23:13:58Z</time></trkpt>
<trkpt lat="25.449229" lon="99.347467">
<time>2014-08-04T23:13:59Z</time></trkpt>
<trkpt lat="25.449149" lon="99.347387">
<time>2014-08-04T23:14:00Z</time></trkpt>
<trkpt lat="25.44909" lon="99.347328">
<time>2014-08-04T23:14:01Z</time></trkpt>
<trkpt lat="25.44904" lon="99.347288">
<time>2014-08-04T23:14:02Z</time></trkpt>
<trkpt lat="25.44897" lon="99.347248">
<time>2014-08-04T23:14:03Z</time></trkpt>
<trkpt lat="25.44891" lon="99.347228">
<time>2014-08-04T23:14:04Z</time></trkpt>
<trkpt lat="25.44881" lon="99.347218">
<time>2014-08-04T23:14:05Z</time></trkpt>
<trkpt lat="25.44873" lon="99.347198">
<time>2014-08-04T23:14:06Z</time></trkpt>
<trkpt lat="25.44865" lon="99.347188">
<time>2014-08-04T23:14:07Z</time></trkpt>
<trkpt lat="25.44858" lon="99.347158">
<time>2014-08-04T23:14:08Z</time></trkpt>
<trkpt lat="25.44854" lon="99.347138">
<time>2014-08-04T23:14:09Z</time></trkpt>
<trkpt lat="25.4485" lon="99.347108">
<time>2014-08-04T23:14:10Z</time></trkpt>
<trkpt lat="25.44846" lon="99.347068">
<time>2014-08-04T23:14:11Z</time></trkpt>
<trkpt lat="25.44839" lon="99.346998">
<time>2014-08-04T23:14:12Z</time></trkpt>
<trkpt lat="25.44818" lon="99.346749">
<time>2014-08-04T23:14:13Z</time></trkpt>
<trkpt lat="25.44809" lon="99.346669">
<time>2014-08-04T23:14:14Z</time></trkpt>
<trkpt lat="25.448011" lon="99.346589">
<time>2014-08-04T23:14:15Z</time></trkpt>
<trkpt lat="25.447951" lon="99.34652">
<time>2014-08-04T23:14:16Z</time></trkpt>
<trkpt lat="25.447881" lon="99.34643">
<time>2014-08-04T23:14:17Z</time></trkpt>
<trkpt lat="25.447821" lon="99.34632">
<time>2014-08-04T23:14:18Z</time></trkpt>
<trkpt lat="25.447741" lon="99.346171">
<time>2014-08-04T23:14:19Z</time></trkpt>
<trkpt lat="25.447661" lon="99.346021">
<time>2014-08-04T23:14:20Z</time></trkpt>
<trkpt lat="25.447592" lon="99.345921">
<time>2014-08-04T23:14:21Z</time></trkpt>
<trkpt lat="25.447502" lon="99.345801">
<time>2014-08-04T23:14:22Z</time></trkpt>
<trkpt lat="25.447392" lon="99.345662">
<time>2014-08-04T23:14:23Z</time></trkpt>
<trkpt lat="25.447262" lon="99.345502">
<time>2014-08-04T23:14:24Z</time></trkpt>
<trkpt lat="25.447182" lon="99.345393">
<time>2014-08-04T23:14:25Z</time></trkpt>
<trkpt lat="25.447093" lon="99.345303">
<time>2014-08-04T23:14:26Z</time></trkpt>
<trkpt lat="25.446973" lon="99.345183">
<time>2014-08-04T23:14:27Z</time></trkpt>
<trkpt lat="25.446893" lon="99.345113">
<time>2014-08-04T23:14:28Z</time></trkpt>
<trkpt lat="25.446733" lon="99.344964">
<time>2014-08-04T23:14:29Z</time></trkpt>
<trkpt lat="25.446513" lon="99.344774">
<time>2014-08-04T23:14:30Z</time></trkpt>
<trkpt lat="25.446443" lon="99.344724">
<time>2014-08-04T23:14:31Z</time></trkpt>
<trkpt lat="25.446394" lon="99.344684">
<time>2014-08-04T23:14:32Z</time></trkpt>
<trkpt lat="25.446344" lon="99.344664">
<time>2014-08-04T23:14:33Z</time></trkpt>
<trkpt lat="25.446304" lon="99.344655">
<time>2014-08-04T23:14:34Z</time></trkpt>
<trkpt lat="25.446254" lon="99.344645">
<time>2014-08-04T23:14:35Z</time></trkpt>
<trkpt lat="25.446224" lon="99.344645">
<time>2014-08-04T23:14:36Z</time></trkpt>
<trkpt lat="25.446184" lon="99.344655">
<time>2014-08-04T23:14:37Z</time></trkpt>
<trkpt lat="25.446133" lon="99.344664">
<time>2014-08-04T23:14:38Z</time></trkpt>
<trkpt lat="25.446043" lon="99.344694">
<time>2014-08-04T23:14:39Z</time></trkpt>
<trkpt lat="25.445963" lon="99.344714">
<time>2014-08-04T23:14:40Z</time></trkpt>
<trkpt lat="25.445883" lon="99.344734">
<time>2014-08-04T23:14:41Z</time></trkpt>
<trkpt lat="25.445823" lon="99.344724">
<time>2014-08-04T23:14:42Z</time></trkpt>
<trkpt lat="25.445783" lon="99.344714">
<time>2014-08-04T23:14:43Z</time></trkpt>
<trkpt lat="25.445723" lon="99.344694">
<time>2014-08-04T23:14:44Z</time></trkpt>
<trkpt lat="25.445663" lon="99.344674">
<time>2014-08-04T23:14:45Z</time></trkpt>
<trkpt lat="25.445613" lon="99.344645">
<time>2014-08-04T23:14:46Z</time></trkpt>
<trkpt lat="25.445533" lon="99.344585">
<time>2014-08-04T23:14:47Z</time></trkpt>
<trkpt lat="25.445474" lon="99.344535">
<time>2014-08-04T23:14:48Z</time></trkpt>
<trkpt lat="25.445264" lon="99.344385">
<time>2014-08-04T23:14:49Z</time></trkpt>
<trkpt lat="25.445134" lon="99.344305">
<time>2014-08-04T23:14:50Z</time></trkpt>
<trkpt lat="25.445014" lon="99.344206">
<time>2014-08-04T23:14:51Z</time></trkpt>
<trkpt lat="25.444974" lon="99.344176">
<time>2014-08-04T23:14:52Z</time></trkpt>
<trkpt lat="25.444854" lon="99.344086">
<time>2014-08-04T23:14:53Z</time></trkpt>
<trkpt lat="25.444764" lon="99.344006">
<time>2014-08-04T23:14:54Z</time></trkpt>
<trkpt lat="25.444684" lon="99.343946">
<time>2014-08-04T23:14:55Z</time></trkpt>
<trkpt lat="25.444615" lon="99.343877">
<time>2014-08-04T23:14:56Z</time></trkpt>
<trkpt lat="25.444525" lon="99.343827">
<time>2014-08-04T23:14:57Z</time></trkpt>
<trkpt lat="25.444485" lon="99.343797">
<time>2014-08-04T23:14:58Z</time></trkpt>
<trkpt lat="25.444445" lon="99.343767">
<time>2014-08-04T23:14:59Z</time></trkpt>
<trkpt lat="25.444405" lon="99.343747">
<time>2014-08-04T23:15:00Z</time></trkpt>
<trkpt lat="25.444345" lon="99.343717">
<time>2014-08-04T23:15:01Z</time></trkpt>
<trkpt lat="25.444285" lon="99.343697">
<time>2014-08-04T23:15:02Z</time></trkpt>
<trkpt lat="25.444215" lon="99.343677">
<time>2014-08-04T23:15:03Z</time></trkpt>
<trkpt lat="25.444125" lon="99.343647">
<time>2014-08-04T23:15:04Z</time></trkpt>
<trkpt lat="25.443995" lon="99.343617">
<time>2014-08-04T23:15:05Z</time></trkpt>
<trkpt lat="25.443875" lon="99.343577">
<time>2014-08-04T23:15:06Z</time></trkpt>
<trkpt lat="25.443685" lon="99.343518">
<time>2014-08-04T23:15:07Z</time></trkpt>
<trkpt lat="25.443485" lon="99.343458">
<time>2014-08-04T23:15:08Z</time></trkpt>
<trkpt lat="25.443395" lon="99.343418">
<time>2014-08-04T23:15:09Z</time></trkpt>
<trkpt lat="25.443325" lon="99.343398">
<time>2014-08-04T23:15:10Z</time></trkpt>
<trkpt lat="25.443265" lon="99.343358">
<time>2014-08-04T23:15:11Z</time></trkpt>
<trkpt lat="25.443225" lon="99.343328">
<time>2014-08-04T23:15:12Z</time></trkpt>
<trkpt lat="25.443195" lon="99.343308">
<time>2014-08-04T23:15:13Z</time></trkpt>
<trkpt lat="25.443155" lon="99.343278">
<time>2014-08-04T23:15:14Z</time></trkpt>
<trkpt lat="25.443125" lon="99.343238">
<time>2014-08-04T23:15:15Z</time></trkpt>
<trkpt lat="25.443085" lon="99.343208">
<time>2014-08-04T23:15:16Z</time></trkpt>
<trkpt lat="25.443045" lon="99.343158">
<time>2014-08-04T23:15:17Z</time></trkpt>
<trkpt lat="25.443006" lon="99.343109">
<time>2014-08-04T23:15:18Z</time></trkpt>
<trkpt lat="25.442986" lon="99.343069">
<time>2014-08-04T23:15:19Z</time></trkpt>
<trkpt lat="25.442916" lon="99.342949">
<time>2014-08-04T23:15:20Z</time></trkpt>
<trkpt lat="25.442876" lon="99.342869">
<time>2014-08-04T23:15:21Z</time></trkpt>
<trkpt lat="25.442846" lon="99.342809">
<time>2014-08-04T23:15:22Z</time></trkpt>
<trkpt lat="25.442816" lon="99.342779">
<time>2014-08-04T23:15:23Z</time></trkpt>
<trkpt lat="25.442786" lon="99.34274">
<time>2014-08-04T23:15:24Z</time></trkpt>
<trkpt lat="25.442756" lon="99.34271">
<time>2014-08-04T23:15:25Z</time></trkpt>
<trkpt lat="25.442716" lon="99.34268">
<time>2014-08-04T23:15:26Z</time></trkpt>
<trkpt lat="25.442666" lon="99.34265">
<time>2014-08-04T23:15:27Z</time></trkpt>
<trkpt lat="25.442626" lon="99.34263">
<time>2014-08-04T23:15:28Z</time></trkpt>
<trkpt lat="25.442566" lon="99.3426">
<time>2014-08-04T23:15:29Z</time></trkpt>
<trkpt lat="25.442516" lon="99.34259">
<time>2014-08-04T23:15:30Z</time></trkpt>
<trkpt lat="25.442466" lon="99.34258">
<time>2014-08-04T23:15:31Z</time></trkpt>
<trkpt lat="25.442406" lon="99.34257">
<time>2014-08-04T23:15:32Z</time></trkpt>
<trkpt lat="25.442346" lon="99.34257">
<time>2014-08-04T23:15:33Z</time></trkpt>
<trkpt lat="25.442296" lon="99.34257">
<time>2014-08-04T23:15:34Z</time></trkpt>
<trkpt lat="25.442226" lon="99.34257">
<time>2014-08-04T23:15:35Z</time></trkpt>
<trkpt lat="25.442116" lon="99.34257">
<time>2014-08-04T23:15:36Z</time></trkpt>
<trkpt lat="25.442006" lon="99.34258">
<time>2014-08-04T23:15:37Z</time></trkpt>
<trkpt lat="25.441906" lon="99.34257">
<time>2014-08-04T23:15:38Z</time></trkpt>
<trkpt lat="25.441826" lon="99.34257">
<time>2014-08-04T23:15:39Z</time></trkpt>
<trkpt lat="25.441736" lon="99.34256">
<time>2014-08-04T23:15:40Z</time></trkpt>
<trkpt lat="25.441676" lon="99.34254">
<time>2014-08-04T23:15:41Z</time></trkpt>
<trkpt lat="25.441616" lon="99.34253">
<time>2014-08-04T23:15:42Z</time></trkpt>
<trkpt lat="25.441566" lon="99.34252">
<time>2014-08-04T23:15:43Z</time></trkpt>
<trkpt lat="25.441526" lon="99.34252">
<time>2014-08-04T23:15:44Z</time></trkpt>
<trkpt lat="25.441486" lon="99.34252">
<time>2014-08-04T23:15:45Z</time></trkpt>
<trkpt lat="25.441456" lon="99.34252">
<time>2014-08-04T23:15:46Z</time></trkpt>
<trkpt lat="25.441426" lon="99.34252">
<time>2014-08-04T23:15:47Z</time></trkpt>
<trkpt lat="25.441396" lon="99.34254">
<time>2014-08-04T23:15:48Z</time></trkpt>
<trkpt lat="25.441356" lon="99.34255">
<time>2014-08-04T23:15:49Z</time></trkpt>
<trkpt lat="25.441316" lon="99.34258">
<time>2014-08-04T23:15:50Z</time></trkpt>
<trkpt lat="25.441296" lon="99.34262">
<time>2014-08-04T23:15:51Z</time></trkpt>
<trkpt lat="25.441266" lon="99.34267">
<time>2014-08-04T23:15:52Z</time></trkpt>
<trkpt lat="25.441256" lon="99.34273">
<time>2014-08-04T23:15:53Z</time></trkpt>
<trkpt lat="25.441236" lon="99.342829">
<time>2014-08-04T23:15:54Z</time></trkpt>
<trkpt lat="25.441225" lon="99.342939">
<time>2014-08-04T23:15:55Z</time></trkpt>
<trkpt lat="25.441195" lon="99.343039">
<time>2014-08-04T23:15:56Z</time></trkpt>
<trkpt lat="25.441175" lon="99.343099">
<time>2014-08-04T23:15:57Z</time></trkpt>
<trkpt lat="25.441155" lon="99.343169">
<time>2014-08-04T23:15:58Z</time></trkpt>
<trkpt lat="25.441125" lon="99.343218">
<time>2014-08-04T23:15:59Z</time></trkpt>
<trkpt lat="25.441055" lon="99.343318">
<time>2014-08-04T23:16:00Z</time></trkpt>
<trkpt lat="25.440984" lon="99.343408">
<time>2014-08-04T23:16:01Z</time></trkpt>
<trkpt lat="25.440894" lon="99.343498">
<time>2014-08-04T23:16:02Z</time></trkpt>
<trkpt lat="25.440694" lon="99.343677">
<time>2014-08-04T23:16:03Z</time></trkpt>
<trkpt lat="25.440584" lon="99.343767">
<time>2014-08-04T23:16:04Z</time></trkpt>
<trkpt lat="25.440514" lon="99.343807">
<time>2014-08-04T23:16:05Z</time></trkpt>
<trkpt lat="25.440444" lon="99.343837">
<time>2014-08-04T23:16:06Z</time></trkpt>
<trkpt lat="25.440374" lon="99.343847">
<time>2014-08-04T23:16:07Z</time></trkpt>
<trkpt lat="25.440324" lon="99.343847">
<time>2014-08-04T23:16:08Z</time></trkpt>
<trkpt lat="25.440304" lon="99.343847">
<time>2014-08-04T23:16:09Z</time></trkpt>
<trkpt lat="25.440284" lon="99.343847">
<time>2014-08-04T23:16:10Z</time></trkpt>
<trkpt lat="25.440234" lon="99.343837">
<time>2014-08-04T23:16:11Z</time></trkpt>
<trkpt lat="25.440194" lon="99.343817">
<time>2014-08-04T23:16:12Z</time></trkpt>
<trkpt lat="25.440154" lon="99.343797">
<time>2014-08-04T23:16:13Z</time></trkpt>
<trkpt lat="25.440114" lon="99.343767">
<time>2014-08-04T23:16:14Z</time></trkpt>
<trkpt lat="25.440064" lon="99.343727">
<time>2014-08-04T23:16:15Z</time></trkpt>
<trkpt lat="25.440024" lon="99.343687">
<time>2014-08-04T23:16:16Z</time></trkpt>
<trkpt lat="25.440004" lon="99.343657">
<time>2014-08-04T23:16:17Z</time></trkpt>
<trkpt lat="25.439974" lon="99.343617">
<time>2014-08-04T23:16:18Z</time></trkpt>
<trkpt lat="25.439954" lon="99.343577">
<time>2014-08-04T23:16:19Z</time></trkpt>
<trkpt lat="25.439924" lon="99.343528">
<time>2014-08-04T23:16:20Z</time></trkpt>
<trkpt lat="25.439894" lon="99.343468">
<time>2014-08-04T23:16:21Z</time></trkpt>
<trkpt lat="25.439874" lon="99.343408">
<time>2014-08-04T23:16:22Z</time></trkpt>
<trkpt lat="25.439834" lon="99.343288">
<time>2014-08-04T23:16:23Z</time></trkpt>
<trkpt lat="25.439805" lon="99.343139">
<time>2014-08-04T23:16:24Z</time></trkpt>
<trkpt lat="25.439765" lon="99.343009">
<time>2014-08-04T23:16:25Z</time></trkpt>
<trkpt lat="25.439725" lon="99.342929">
<time>2014-08-04T23:16:26Z</time></trkpt>
<trkpt lat="25.439675" lon="99.342869">
<time>2014-08-04T23:16:27Z</time></trkpt>
<trkpt lat="25.439625" lon="99.3428">
<time>2014-08-04T23:16:28Z</time></trkpt>
<trkpt lat="25.439575" lon="99.34275">
<time>2014-08-04T23:16:29Z</time></trkpt>
<trkpt lat="25.439525" lon="99.34272">
<time>2014-08-04T23:16:30Z</time></trkpt>
<trkpt lat="25.439475" lon="99.34268">
<time>2014-08-04T23:16:31Z</time></trkpt>
<trkpt lat="25.439425" lon="99.34265">
<time>2014-08-04T23:16:32Z</time></trkpt>
<trkpt lat="25.439376" lon="99.34263">
<time>2014-08-04T23:16:33Z</time></trkpt>
<trkpt lat="25.439326" lon="99.34262">
<time>2014-08-04T23:16:34Z</time></trkpt>
<trkpt lat="25.439276" lon="99.34262">
<time>2014-08-04T23:16:35Z</time></trkpt>
<trkpt lat="25.439216" lon="99.34261">
<time>2014-08-04T23:16:36Z</time></trkpt>
<trkpt lat="25.439115" lon="99.34261">
<time>2014-08-04T23:16:37Z</time></trkpt>
<trkpt lat="25.439005" lon="99.34261">
<time>2014-08-04T23:16:38Z</time></trkpt>
<trkpt lat="25.438865" lon="99.34262">
<time>2014-08-04T23:16:39Z</time></trkpt>
<trkpt lat="25.438765" lon="99.34262">
<time>2014-08-04T23:16:40Z</time></trkpt>
<trkpt lat="25.438695" lon="99.34262">
<time>2014-08-04T23:16:41Z</time></trkpt>
<trkpt lat="25.438615" lon="99.34262">
<time>2014-08-04T23:16:42Z</time></trkpt>
<trkpt lat="25.438555" lon="99.34262">
<time>2014-08-04T23:16:43Z</time></trkpt>
<trkpt lat="25.438485" lon="99.3426">
<time>2014-08-04T23:16:44Z</time></trkpt>
<trkpt lat="25.438335" lon="99.34257">
<time>2014-08-04T23:16:45Z</time></trkpt>
<trkpt lat="25.437875" lon="99.34245">
<time>2014-08-04T23:16:46Z</time></trkpt>
<trkpt lat="25.437775" lon="99.342431">
<time>2014-08-04T23:16:47Z</time></trkpt>
<trkpt lat="25.437715" lon="99.342431">
<time>2014-08-04T23:16:48Z</time></trkpt>
<trkpt lat="25.437675" lon="99.342421">
<time>2014-08-04T23:16:49Z</time></trkpt>
<trkpt lat="25.437625" lon="99.342421">
<time>2014-08-04T23:16:50Z</time></trkpt>
<trkpt lat="25.437585" lon="99.342421">
<time>2014-08-04T23:16:51Z</time></trkpt>
<trkpt lat="25.437535" lon="99.342421">
<time>2014-08-04T23:16:52Z</time></trkpt>
<trkpt lat="25.437485" lon="99.342421">
<time>2014-08-04T23:16:53Z</time></trkpt>
<trkpt lat="25.437415" lon="99.342431">
<time>2014-08-04T23:16:54Z</time></trkpt>
<trkpt lat="25.437335" lon="99.34245">
<time>2014-08-04T23:16:55Z</time></trkpt>
<trkpt lat="25.437235" lon="99.34246">
<time>2014-08-04T23:16:56Z</time></trkpt>
<trkpt lat="25.437125" lon="99.34249">
<time>2014-08-04T23:16:57Z</time></trkpt>
<trkpt lat="25.437015" lon="99.34251">
<time>2014-08-04T23:16:58Z</time></trkpt>
<trkpt lat="25.436965" lon="99.34253">
<time>2014-08-04T23:16:59Z</time></trkpt>
<trkpt lat="25.436905" lon="99.34256">
<time>2014-08-04T23:17:00Z</time></trkpt>
<trkpt lat="25.436855" lon="99.34258">
<time>2014-08-04T23:17:01Z</time></trkpt>
<trkpt lat="25.436805" lon="99.34261">
<time>2014-08-04T23:17:02Z</time></trkpt>
<trkpt lat="25.436765" lon="99.34264">
<time>2014-08-04T23:17:03Z</time></trkpt>
<trkpt lat="25.436715" lon="99.3427">
<time>2014-08-04T23:17:04Z</time></trkpt>
<trkpt lat="25.436665" lon="99.34276">
<time>2014-08-04T23:17:05Z</time></trkpt>
<trkpt lat="25.436584" lon="99.342859">
<time>2014-08-04T23:17:06Z</time></trkpt>
<trkpt lat="25.436514" lon="99.342929">
<time>2014-08-04T23:17:07Z</time></trkpt>
<trkpt lat="25.436474" lon="99.342979">
<time>2014-08-04T23:17:08Z</time></trkpt>
<trkpt lat="25.436424" lon="99.343009">
<time>2014-08-04T23:17:09Z</time></trkpt>
<trkpt lat="25.436384" lon="99.343029">
<time>2014-08-04T23:17:10Z</time></trkpt>
<trkpt lat="25.436334" lon="99.343049">
<time>2014-08-04T23:17:11Z</time></trkpt>
<trkpt lat="25.436324" lon="99.343059">
<time>2014-08-04T23:17:12Z</time></trkpt>
<trkpt lat="25.436284" lon="99.343069">
<time>2014-08-04T23:17:13Z</time></trkpt>
<trkpt lat="25.436224" lon="99.343069">
<time>2014-08-04T23:17:14Z</time></trkpt>
<trkpt lat="25.436114" lon="99.343069">
<time>2014-08-04T23:17:15Z</time></trkpt>
<trkpt lat="25.435964" lon="99.343049">
<time>2014-08-04T23:17:16Z</time></trkpt>
<trkpt lat="25.435614" lon="99.342999">
<time>2014-08-04T23:17:17Z</time></trkpt>
<trkpt lat="25.435534" lon="99.342989">
<time>2014-08-04T23:17:18Z</time></trkpt>
<trkpt lat="25.435444" lon="99.342969">
<time>2014-08-04T23:17:19Z</time></trkpt>
<trkpt lat="25.435374" lon="99.342949">
<time>2014-08-04T23:17:20Z</time></trkpt>
<trkpt lat="25.435324" lon="99.342929">
<time>2014-08-04T23:17:21Z</time></trkpt>
<trkpt lat="25.435274" lon="99.342899">
<time>2014-08-04T23:17:22Z</time></trkpt>
<trkpt lat="25.435204" lon="99.342849">
<time>2014-08-04T23:17:23Z</time></trkpt>
<trkpt lat="25.435164" lon="99.34282">
<time>2014-08-04T23:17:24Z</time></trkpt>
<trkpt lat="25.435124" lon="99.34278">
<time>2014-08-04T23:17:25Z</time></trkpt>
<trkpt lat="25.435084" lon="99.34274">
<time>2014-08-04T23:17:26Z</time></trkpt>
<trkpt lat="25.435034" lon="99.34268">
<time>2014-08-04T23:17:27Z</time></trkpt>
<trkpt lat="25.434955" lon="99.3426">
<time>2014-08-04T23:17:28Z</time></trkpt>
<trkpt lat="25.434875" lon="99.34253">
<time>2014-08-04T23:17:29Z</time></trkpt>
<trkpt lat="25.434775" lon="99.342441">
<time>2014-08-04T23:17:30Z</time></trkpt>
<trkpt lat="25.434645" lon="99.342331">
<time>2014-08-04T23:17:31Z</time></trkpt>
<trkpt lat="25.434515" lon="99.342241">
<time>2014-08-04T23:17:32Z</time></trkpt>
<trkpt lat="25.434405" lon="99.342161">
<time>2014-08-04T23:17:33Z</time></trkpt>
<trkpt lat="25.434305" lon="99.342101">
<time>2014-08-04T23:17:34Z</time></trkpt>
<trkpt lat="25.434225" lon="99.342052">
<time>2014-08-04T23:17:35Z</time></trkpt>
<trkpt lat="25.434175" lon="99.342032">
<time>2014-08-04T23:17:36Z</time></trkpt>
<trkpt lat="25.434145" lon="99.342022">
<time>2014-08-04T23:17:37Z</time></trkpt>
<trkpt lat="25.434095" lon="99.342012">
<time>2014-08-04T23:17:38Z</time></trkpt>
<trkpt lat="25.434045" lon="99.342002">
<time>2014-08-04T23:17:39Z</time></trkpt>
<trkpt lat="25.433995" lon="99.341992">
<time>2014-08-04T23:17:40Z</time></trkpt>
<trkpt lat="25.433935" lon="99.341992">
<time>2014-08-04T23:17:41Z</time></trkpt>
<trkpt lat="25.433885" lon="99.342002">
<time>2014-08-04T23:17:42Z</time></trkpt>
<trkpt lat="25.433835" lon="99.342012">
<time>2014-08-04T23:17:43Z</time></trkpt>
<trkpt lat="25.433775" lon="99.342022">
<time>2014-08-04T23:17:44Z</time></trkpt>
<trkpt lat="25.432935" lon="99.342311">
<time>2014-08-04T23:17:45Z</time></trkpt>
<trkpt lat="25.432824" lon="99.342341">
<time>2014-08-04T23:17:46Z</time></trkpt>
<trkpt lat="25.432754" lon="99.342371">
<time>2014-08-04T23:17:47Z</time></trkpt>
<trkpt lat="25.432684" lon="99.342391">
<time>2014-08-04T23:17:48Z</time></trkpt>
<trkpt lat="25.432474" lon="99.342481">
<time>2014-08-04T23:17:49Z</time></trkpt>
<trkpt lat="25.432384" lon="99.3425">
<time>2014-08-04T23:17:50Z</time></trkpt>
<trkpt lat="25.432334" lon="99.34251">
<time>2014-08-04T23:17:51Z</time></trkpt>
<trkpt lat="25.432274" lon="99.34251">
<time>2014-08-04T23:17:52Z</time></trkpt>
<trkpt lat="25.432234" lon="99.34251">
<time>2014-08-04T23:17:53Z</time></trkpt>
<trkpt lat="25.432194" lon="99.3425">
<time>2014-08-04T23:17:54Z</time></trkpt>
<trkpt lat="25.432144" lon="99.342491">
<time>2014-08-04T23:17:55Z</time></trkpt>
<trkpt lat="25.432084" lon="99.342471">
<time>2014-08-04T23:17:56Z</time></trkpt>
<trkpt lat="25.431854" lon="99.342411">
<time>2014-08-04T23:17:57Z</time></trkpt>
<trkpt lat="25.431667" lon="99.341034">
<time>2014-08-04T23:17:58Z</time></trkpt>
<trkpt lat="25.431528" lon="99.340037">
<time>2014-08-04T23:17:59Z</time></trkpt>
<trkpt lat="25.43146" lon="99.339279">
<time>2014-08-04T23:18:00Z</time></trkpt>
<trkpt lat="25.43146" lon="99.339279">
<time>2014-08-04T23:18:01Z</time></trkpt>
<trkpt lat="25.43133" lon="99.339309">
<time>2014-08-04T23:18:02Z</time></trkpt>
<trkpt lat="25.43114" lon="99.339359">
<time>2014-08-04T23:18:03Z</time></trkpt>
<trkpt lat="25.430999" lon="99.339449">
<time>2014-08-04T23:18:04Z</time></trkpt>
<trkpt lat="25.430719" lon="99.339648">
<time>2014-08-04T23:18:05Z</time></trkpt>
<trkpt lat="25.430439" lon="99.339738">
<time>2014-08-04T23:18:06Z</time></trkpt>
<trkpt lat="25.430079" lon="99.339748">
<time>2014-08-04T23:18:07Z</time></trkpt>
<trkpt lat="25.429889" lon="99.339748">
<time>2014-08-04T23:18:08Z</time></trkpt>
<trkpt lat="25.429798" lon="99.339798">
<time>2014-08-04T23:18:09Z</time></trkpt>
<trkpt lat="25.429718" lon="99.339858">
<time>2014-08-04T23:18:10Z</time></trkpt>
<trkpt lat="25.429628" lon="99.340017">
<time>2014-08-04T23:18:11Z</time></trkpt>
<trkpt lat="25.429558" lon="99.340266">
<time>2014-08-04T23:18:12Z</time></trkpt>
<trkpt lat="25.429457" lon="99.340406">
<time>2014-08-04T23:18:13Z</time></trkpt>
<trkpt lat="25.429317" lon="99.340526">
<time>2014-08-04T23:18:14Z</time></trkpt>
<trkpt lat="25.429127" lon="99.340596">
<time>2014-08-04T23:18:15Z</time></trkpt>
<trkpt lat="25.428527" lon="99.340596">
<time>2014-08-04T23:18:16Z</time></trkpt>
<trkpt lat="25.427166" lon="99.340616">
<time>2014-08-04T23:18:17Z</time></trkpt>
<trkpt lat="25.425976" lon="99.340725">
<time>2014-08-04T23:18:18Z</time></trkpt>
<trkpt lat="25.425656" lon="99.340705">
<time>2014-08-04T23:18:19Z</time></trkpt>
<trkpt lat="25.425186" lon="99.340516">
<time>2014-08-04T23:18:20Z</time></trkpt>
<trkpt lat="25.424836" lon="99.340416">
<time>2014-08-04T23:18:21Z</time></trkpt>
<trkpt lat="25.424556" lon="99.340526">
<time>2014-08-04T23:18:22Z</time></trkpt>
<trkpt lat="25.424205" lon="99.340795">
<time>2014-08-04T23:18:23Z</time></trkpt>
<trkpt lat="25.423795" lon="99.340835">
<time>2014-08-04T23:18:24Z</time></trkpt>
<trkpt lat="25.422985" lon="99.340825">
<time>2014-08-04T23:18:25Z</time></trkpt>
<trkpt lat="25.422235" lon="99.340885">
<time>2014-08-04T23:18:26Z</time></trkpt>
<trkpt lat="25.421564" lon="99.341124">
<time>2014-08-04T23:18:27Z</time></trkpt>
<trkpt lat="25.421044" lon="99.341204">
<time>2014-08-04T23:18:28Z</time></trkpt>
<trkpt lat="25.420424" lon="99.341224">
<time>2014-08-04T23:18:29Z</time></trkpt>
<trkpt lat="25.419823" lon="99.341404">
<time>2014-08-04T23:18:30Z</time></trkpt>
<trkpt lat="25.418852" lon="99.341803">
<time>2014-08-04T23:18:31Z</time></trkpt>
<trkpt lat="25.418272" lon="99.342172">
<time>2014-08-04T23:18:32Z</time></trkpt>
<trkpt lat="25.417831" lon="99.342521">
<time>2014-08-04T23:18:33Z</time></trkpt>
<trkpt lat="25.41705" lon="99.34268">
<time>2014-08-04T23:18:34Z</time></trkpt>
<trkpt lat="25.41668" lon="99.34279">
<time>2014-08-04T23:18:35Z</time></trkpt>
<trkpt lat="25.41629" lon="99.34286">
<time>2014-08-04T23:18:36Z</time></trkpt>
<trkpt lat="25.41608" lon="99.34289">
<time>2014-08-04T23:18:37Z</time></trkpt>
<trkpt lat="25.41588" lon="99.34288">
<time>2014-08-04T23:18:38Z</time></trkpt>
<trkpt lat="25.41544" lon="99.34279">
<time>2014-08-04T23:18:39Z</time></trkpt>
<trkpt lat="25.41475" lon="99.342601">
<time>2014-08-04T23:18:40Z</time></trkpt>
<trkpt lat="25.41436" lon="99.342471">
<time>2014-08-04T23:18:41Z</time></trkpt>
<trkpt lat="25.413961" lon="99.342242">
<time>2014-08-04T23:18:42Z</time></trkpt>
<trkpt lat="25.413141" lon="99.341873">
<time>2014-08-04T23:18:43Z</time></trkpt>
<trkpt lat="25.412841" lon="99.341773">
<time>2014-08-04T23:18:44Z</time></trkpt>
<trkpt lat="25.412531" lon="99.341743">
<time>2014-08-04T23:18:45Z</time></trkpt>
<trkpt lat="25.412391" lon="99.341743">
<time>2014-08-04T23:18:46Z</time></trkpt>
<trkpt lat="25.412291" lon="99.341743">
<time>2014-08-04T23:18:47Z</time></trkpt>
<trkpt lat="25.412201" lon="99.341703">
<time>2014-08-04T23:18:48Z</time></trkpt>
<trkpt lat="25.412121" lon="99.341643">
<time>2014-08-04T23:18:49Z</time></trkpt>
<trkpt lat="25.412071" lon="99.341514">
<time>2014-08-04T23:18:50Z</time></trkpt>
<trkpt lat="25.412022" lon="99.341394">
<time>2014-08-04T23:18:51Z</time></trkpt>
<trkpt lat="25.412002" lon="99.341264">
<time>2014-08-04T23:18:52Z</time></trkpt>
<trkpt lat="25.411992" lon="99.341125">
<time>2014-08-04T23:18:53Z</time></trkpt>
<trkpt lat="25.412022" lon="99.340995">
<time>2014-08-04T23:18:54Z</time></trkpt>
<trkpt lat="25.412103" lon="99.340746">
<time>2014-08-04T23:18:55Z</time></trkpt>
<trkpt lat="25.412203" lon="99.340526">
<time>2014-08-04T23:18:56Z</time></trkpt>
<trkpt lat="25.412234" lon="99.340307">
<time>2014-08-04T23:18:57Z</time></trkpt>
<trkpt lat="25.412145" lon="99.339758">
<time>2014-08-04T23:18:58Z</time></trkpt>
<trkpt lat="25.411906" lon="99.338771">
<time>2014-08-04T23:18:59Z</time></trkpt>
<trkpt lat="25.411738" lon="99.338043">
<time>2014-08-04T23:19:00Z</time></trkpt>
<trkpt lat="25.411728" lon="99.337774">
<time>2014-08-04T23:19:01Z</time></trkpt>
<trkpt lat="25.411689" lon="99.337564">
<time>2014-08-04T23:19:02Z</time></trkpt>
<trkpt lat="25.41174" lon="99.337016">
<time>2014-08-04T23:19:03Z</time></trkpt>
<trkpt lat="25.41178" lon="99.336726">
<time>2014-08-04T23:19:04Z</time></trkpt>
<trkpt lat="25.411771" lon="99.336517">
<time>2014-08-04T23:19:05Z</time></trkpt>
<trkpt lat="25.411681" lon="99.336268">
<time>2014-08-04T23:19:06Z</time></trkpt>
<trkpt lat="25.411522" lon="99.336028">
<time>2014-08-04T23:19:07Z</time></trkpt>
<trkpt lat="25.411462" lon="99.335819">
<time>2014-08-04T23:19:08Z</time></trkpt>
<trkpt lat="25.411442" lon="99.335619">
<time>2014-08-04T23:19:09Z</time></trkpt>
<trkpt lat="25.411463" lon="99.33546">
<time>2014-08-04T23:19:10Z</time></trkpt>
<trkpt lat="25.411553" lon="99.33528">
<time>2014-08-04T23:19:11Z</time></trkpt>
<trkpt lat="25.411653" lon="99.335111">
<time>2014-08-04T23:19:12Z</time></trkpt>
<trkpt lat="25.412174" lon="99.334582">
<time>2014-08-04T23:19:13Z</time></trkpt>
<trkpt lat="25.412696" lon="99.334024">
<time>2014-08-04T23:19:14Z</time></trkpt>
<trkpt lat="25.412896" lon="99.333784">
<time>2014-08-04T23:19:15Z</time></trkpt>
<trkpt lat="25.413137" lon="99.333445">
<time>2014-08-04T23:19:16Z</time></trkpt>
<trkpt lat="25.413237" lon="99.333236">
<time>2014-08-04T23:19:17Z</time></trkpt>
<trkpt lat="25.413318" lon="99.333046">
<time>2014-08-04T23:19:18Z</time></trkpt>
<trkpt lat="25.413408" lon="99.332727">
<time>2014-08-04T23:19:19Z</time></trkpt>
<trkpt lat="25.413651" lon="99.331441">
<time>2014-08-04T23:19:20Z</time></trkpt>
<trkpt lat="25.413792" lon="99.330813">
<time>2014-08-04T23:19:21Z</time></trkpt>
<trkpt lat="25.413842" lon="99.330533">
<time>2014-08-04T23:19:22Z</time></trkpt>
<trkpt lat="25.413863" lon="99.330264">
<time>2014-08-04T23:19:23Z</time></trkpt>
<trkpt lat="25.413883" lon="99.330124">
<time>2014-08-04T23:19:24Z</time></trkpt>
<trkpt lat="25.413854" lon="99.329965">
<time>2014-08-04T23:19:25Z</time></trkpt>
<trkpt lat="25.413694" lon="99.329536">
<time>2014-08-04T23:19:26Z</time></trkpt>
<trkpt lat="25.413645" lon="99.329297">
<time>2014-08-04T23:19:27Z</time></trkpt>
<trkpt lat="25.413645" lon="99.329127">
<time>2014-08-04T23:19:28Z</time></trkpt>
<trkpt lat="25.413706" lon="99.328748">
<time>2014-08-04T23:19:29Z</time></trkpt>
<trkpt lat="25.413907" lon="99.328319">
<time>2014-08-04T23:19:30Z</time></trkpt>
<trkpt lat="25.413977" lon="99.32811">
<time>2014-08-04T23:19:31Z</time></trkpt>
<trkpt lat="25.414058" lon="99.327781">
<time>2014-08-04T23:19:32Z</time></trkpt>
<trkpt lat="25.414138" lon="99.327591">
<time>2014-08-04T23:19:33Z</time></trkpt>
<trkpt lat="25.414248" lon="99.327502">
<time>2014-08-04T23:19:34Z</time></trkpt>
<trkpt lat="25.414338" lon="99.327452">
<time>2014-08-04T23:19:35Z</time></trkpt>
<trkpt lat="25.414519" lon="99.327412">
<time>2014-08-04T23:19:36Z</time></trkpt>
<trkpt lat="25.414699" lon="99.327392">
<time>2014-08-04T23:19:37Z</time></trkpt>
<trkpt lat="25.414819" lon="99.327362">
<time>2014-08-04T23:19:38Z</time></trkpt>
<trkpt lat="25.414929" lon="99.327302">
<time>2014-08-04T23:19:39Z</time></trkpt>
<trkpt lat="25.414989" lon="99.327252">
<time>2014-08-04T23:19:40Z</time></trkpt>
<trkpt lat="25.415009" lon="99.327202">
<time>2014-08-04T23:19:41Z</time></trkpt>
<trkpt lat="25.415029" lon="99.327163">
<time>2014-08-04T23:19:42Z</time></trkpt>
<trkpt lat="25.415039" lon="99.327093">
<time>2014-08-04T23:19:43Z</time></trkpt>
<trkpt lat="25.415039" lon="99.327033">
<time>2014-08-04T23:19:44Z</time></trkpt>
<trkpt lat="25.415029" lon="99.326993">
<time>2014-08-04T23:19:45Z</time></trkpt>
<trkpt lat="25.415" lon="99.326943">
<time>2014-08-04T23:19:46Z</time></trkpt>
<trkpt lat="25.41495" lon="99.326873">
<time>2014-08-04T23:19:47Z</time></trkpt>
<trkpt lat="25.41487" lon="99.326804">
<time>2014-08-04T23:19:48Z</time></trkpt>
<trkpt lat="25.4148" lon="99.326724">
<time>2014-08-04T23:19:49Z</time></trkpt>
<trkpt lat="25.41476" lon="99.326634">
<time>2014-08-04T23:19:50Z</time></trkpt>
<trkpt lat="25.41474" lon="99.326504">
<time>2014-08-04T23:19:51Z</time></trkpt>
<trkpt lat="25.414791" lon="99.326235">
<time>2014-08-04T23:19:52Z</time></trkpt>
<trkpt lat="25.415123" lon="99.325268">
<time>2014-08-04T23:19:53Z</time></trkpt>
<trkpt lat="25.415213" lon="99.324929">
<time>2014-08-04T23:19:54Z</time></trkpt>
<trkpt lat="25.415395" lon="99.32435">
<time>2014-08-04T23:19:55Z</time></trkpt>
<trkpt lat="25.415425" lon="99.324261">
<time>2014-08-04T23:19:56Z</time></trkpt>
<trkpt lat="25.415455" lon="99.324141">
<time>2014-08-04T23:19:57Z</time></trkpt>
<trkpt lat="25.415475" lon="99.324031">
<time>2014-08-04T23:19:58Z</time></trkpt>
<trkpt lat="25.415537" lon="99.323303">
<time>2014-08-04T23:19:59Z</time></trkpt>
<trkpt lat="25.415537" lon="99.323233">
<time>2014-08-04T23:20:00Z</time></trkpt>
<trkpt lat="25.415547" lon="99.323144">
<time>2014-08-04T23:20:01Z</time></trkpt>
<trkpt lat="25.415568" lon="99.322854">
<time>2014-08-04T23:20:02Z</time></trkpt>
<trkpt lat="25.415578" lon="99.322735">
<time>2014-08-04T23:20:03Z</time></trkpt>
<trkpt lat="25.415608" lon="99.322655">
<time>2014-08-04T23:20:04Z</time></trkpt>
<trkpt lat="25.415889" lon="99.321887">
<time>2014-08-04T23:20:05Z</time></trkpt>
<trkpt lat="25.41593" lon="99.321787">
<time>2014-08-04T23:20:06Z</time></trkpt>
<trkpt lat="25.41595" lon="99.321708">
<time>2014-08-04T23:20:07Z</time></trkpt>
<trkpt lat="25.41597" lon="99.321588">
<time>2014-08-04T23:20:08Z</time></trkpt>
<trkpt lat="25.41601" lon="99.321438">
<time>2014-08-04T23:20:09Z</time></trkpt>
<trkpt lat="25.41603" lon="99.321378">
<time>2014-08-04T23:20:10Z</time></trkpt>
<trkpt lat="25.416051" lon="99.321309">
<time>2014-08-04T23:20:11Z</time></trkpt>
<trkpt lat="25.416091" lon="99.321229">
<time>2014-08-04T23:20:12Z</time></trkpt>
<trkpt lat="25.416221" lon="99.32093">
<time>2014-08-04T23:20:13Z</time></trkpt>
<trkpt lat="25.416251" lon="99.3209">
<time>2014-08-04T23:20:14Z</time></trkpt>
<trkpt lat="25.416281" lon="99.32087">
<time>2014-08-04T23:20:15Z</time></trkpt>
<trkpt lat="25.416311" lon="99.32085">
<time>2014-08-04T23:20:16Z</time></trkpt>
<trkpt lat="25.416342" lon="99.32082">
<time>2014-08-04T23:20:17Z</time></trkpt>
<trkpt lat="25.416392" lon="99.32081">
<time>2014-08-04T23:20:18Z</time></trkpt>
<trkpt lat="25.416462" lon="99.32079">
<time>2014-08-04T23:20:19Z</time></trkpt>
<trkpt lat="25.416512" lon="99.32078">
<time>2014-08-04T23:20:20Z</time></trkpt>
<trkpt lat="25.416572" lon="99.32079">
<time>2014-08-04T23:20:21Z</time></trkpt>
<trkpt lat="25.416622" lon="99.32079">
<time>2014-08-04T23:20:22Z</time></trkpt>
<trkpt lat="25.416682" lon="99.32081">
<time>2014-08-04T23:20:23Z</time></trkpt>
<trkpt lat="25.416782" lon="99.32085">
<time>2014-08-04T23:20:24Z</time></trkpt>
<trkpt lat="25.416812" lon="99.32086">
<time>2014-08-04T23:20:25Z</time></trkpt>
<trkpt lat="25.416902" lon="99.32088">
<time>2014-08-04T23:20:26Z</time></trkpt>
<trkpt lat="25.416982" lon="99.32089">
<time>2014-08-04T23:20:27Z</time></trkpt>
<trkpt lat="25.417092" lon="99.32085">
<time>2014-08-04T23:20:28Z</time></trkpt>
<trkpt lat="25.417132" lon="99.32082">
<time>2014-08-04T23:20:29Z</time></trkpt>
<trkpt lat="25.417172" lon="99.32077">
<time>2014-08-04T23:20:30Z</time></trkpt>
<trkpt lat="25.417202" lon="99.32073">
<time>2014-08-04T23:20:31Z</time></trkpt>
<trkpt lat="25.417232" lon="99.32065">
<time>2014-08-04T23:20:32Z</time></trkpt>
<trkpt lat="25.417242" lon="99.320511">
<time>2014-08-04T23:20:33Z</time></trkpt>
<trkpt lat="25.417193" lon="99.320301">
<time>2014-08-04T23:20:34Z</time></trkpt>
<trkpt lat="25.417133" lon="99.319982">
<time>2014-08-04T23:20:35Z</time></trkpt>
<trkpt lat="25.417094" lon="99.319623">
<time>2014-08-04T23:20:36Z</time></trkpt>
<trkpt lat="25.417125" lon="99.319324">
<time>2014-08-04T23:20:37Z</time></trkpt>
<trkpt lat="25.417245" lon="99.319125">
<time>2014-08-04T23:20:38Z</time></trkpt>
<trkpt lat="25.417395" lon="99.318975">
<time>2014-08-04T23:20:39Z</time></trkpt>
<trkpt lat="25.417726" lon="99.318726">
<time>2014-08-04T23:20:40Z</time></trkpt>
<trkpt lat="25.418057" lon="99.318387">
<time>2014-08-04T23:20:41Z</time></trkpt>
<trkpt lat="25.418317" lon="99.317938">
<time>2014-08-04T23:20:42Z</time></trkpt>
<trkpt lat="25.418478" lon="99.317489">
<time>2014-08-04T23:20:43Z</time></trkpt>
<trkpt lat="25.418599" lon="99.31714">
<time>2014-08-04T23:20:44Z</time></trkpt>
<trkpt lat="25.418749" lon="99.31699">
<time>2014-08-04T23:20:45Z</time></trkpt>
<trkpt lat="25.418909" lon="99.316911">
<time>2014-08-04T23:20:46Z</time></trkpt>
<trkpt lat="25.41908" lon="99.316851">
<time>2014-08-04T23:20:47Z</time></trkpt>
<trkpt lat="25.41921" lon="99.316881">
<time>2014-08-04T23:20:48Z</time></trkpt>
<trkpt lat="25.41937" lon="99.316921">
<time>2014-08-04T23:20:49Z</time></trkpt>
<trkpt lat="25.419549" lon="99.31698">
<time>2014-08-04T23:20:50Z</time></trkpt>
<trkpt lat="25.41977" lon="99.316931">
<time>2014-08-04T23:20:51Z</time></trkpt>
<trkpt lat="25.41988" lon="99.316841">
<time>2014-08-04T23:20:52Z</time></trkpt>
<trkpt lat="25.41995" lon="99.316661">
<time>2014-08-04T23:20:53Z</time></trkpt>
<trkpt lat="25.41996" lon="99.316522">
<time>2014-08-04T23:20:54Z</time></trkpt>
<trkpt lat="25.419941" lon="99.316412">
<time>2014-08-04T23:20:55Z</time></trkpt>
<trkpt lat="25.419791" lon="99.316203">
<time>2014-08-04T23:20:56Z</time></trkpt>
<trkpt lat="25.419601" lon="99.315963">
<time>2014-08-04T23:20:57Z</time></trkpt>
<trkpt lat="25.419302" lon="99.315664">
<time>2014-08-04T23:20:58Z</time></trkpt>
<trkpt lat="25.419182" lon="99.315425">
<time>2014-08-04T23:20:59Z</time></trkpt>
<trkpt lat="25.419143" lon="99.315245">
<time>2014-08-04T23:21:00Z</time></trkpt>
<trkpt lat="25.419173" lon="99.315106">
<time>2014-08-04T23:21:01Z</time></trkpt>
<trkpt lat="25.419213" lon="99.314826">
<time>2014-08-04T23:21:02Z</time></trkpt>
<trkpt lat="25.419374" lon="99.314417">
<time>2014-08-04T23:21:03Z</time></trkpt>
<trkpt lat="25.419585" lon="99.313999">
<time>2014-08-04T23:21:04Z</time></trkpt>
<trkpt lat="25.420036" lon="99.31348">
<time>2014-08-04T23:21:05Z</time></trkpt>
<trkpt lat="25.420497" lon="99.312921">
<time>2014-08-04T23:21:06Z</time></trkpt>
<trkpt lat="25.420718" lon="99.312702">
<time>2014-08-04T23:21:07Z</time></trkpt>
<trkpt lat="25.420878" lon="99.312662">
<time>2014-08-04T23:21:08Z</time></trkpt>
<trkpt lat="25.420978" lon="99.312682">
<time>2014-08-04T23:21:09Z</time></trkpt>
<trkpt lat="25.421038" lon="99.312742">
<time>2014-08-04T23:21:10Z</time></trkpt>
<trkpt lat="25.421118" lon="99.312822">
<time>2014-08-04T23:21:11Z</time></trkpt>
<trkpt lat="25.421247" lon="99.313011">
<time>2014-08-04T23:21:12Z</time></trkpt>
<trkpt lat="25.421327" lon="99.313111">
<time>2014-08-04T23:21:13Z</time></trkpt>
<trkpt lat="25.421447" lon="99.313191">
<time>2014-08-04T23:21:14Z</time></trkpt>
<trkpt lat="25.421517" lon="99.313231">
<time>2014-08-04T23:21:15Z</time></trkpt>
<trkpt lat="25.421677" lon="99.313171">
<time>2014-08-04T23:21:16Z</time></trkpt>
<trkpt lat="25.421757" lon="99.313051">
<time>2014-08-04T23:21:17Z</time></trkpt>
<trkpt lat="25.421798" lon="99.312882">
<time>2014-08-04T23:21:18Z</time></trkpt>
<trkpt lat="25.421808" lon="99.312612">
<time>2014-08-04T23:21:19Z</time></trkpt>
<trkpt lat="25.421809" lon="99.312253">
<time>2014-08-04T23:21:20Z</time></trkpt>
<trkpt lat="25.421789" lon="99.311924">
<time>2014-08-04T23:21:21Z</time></trkpt>
<trkpt lat="25.42183" lon="99.311655">
<time>2014-08-04T23:21:22Z</time></trkpt>
<trkpt lat="25.42189" lon="99.311555">
<time>2014-08-04T23:21:23Z</time></trkpt>
<trkpt lat="25.42197" lon="99.311495">
<time>2014-08-04T23:21:24Z</time></trkpt>
<trkpt lat="25.42209" lon="99.311465">
<time>2014-08-04T23:21:25Z</time></trkpt>
<trkpt lat="25.42217" lon="99.311475">
<time>2014-08-04T23:21:26Z</time></trkpt>
<trkpt lat="25.42228" lon="99.311535">
<time>2014-08-04T23:21:27Z</time></trkpt>
<trkpt lat="25.42238" lon="99.311605">
<time>2014-08-04T23:21:28Z</time></trkpt>
<trkpt lat="25.42249" lon="99.311705">
<time>2014-08-04T23:21:29Z</time></trkpt>
<trkpt lat="25.42258" lon="99.311735">
<time>2014-08-04T23:21:30Z</time></trkpt>
<trkpt lat="25.42268" lon="99.311745">
<time>2014-08-04T23:21:31Z</time></trkpt>
<trkpt lat="25.4228" lon="99.311695">
<time>2014-08-04T23:21:32Z</time></trkpt>
<trkpt lat="25.42287" lon="99.311625">
<time>2014-08-04T23:21:33Z</time></trkpt>
<trkpt lat="25.42291" lon="99.311505">
<time>2014-08-04T23:21:34Z</time></trkpt>
<trkpt lat="25.422921" lon="99.311326">
<time>2014-08-04T23:21:35Z</time></trkpt>
<trkpt lat="25.422961" lon="99.311176">
<time>2014-08-04T23:21:36Z</time></trkpt>
<trkpt lat="25.423001" lon="99.311066">
<time>2014-08-04T23:21:37Z</time></trkpt>
<trkpt lat="25.423091" lon="99.310977">
<time>2014-08-04T23:21:38Z</time></trkpt>
<trkpt lat="25.423201" lon="99.310927">
<time>2014-08-04T23:21:39Z</time></trkpt>
<trkpt lat="25.423311" lon="99.310917">
<time>2014-08-04T23:21:40Z</time></trkpt>
<trkpt lat="25.423421" lon="99.310957">
<time>2014-08-04T23:21:41Z</time></trkpt>
<trkpt lat="25.423591" lon="99.311046">
<time>2014-08-04T23:21:42Z</time></trkpt>
<trkpt lat="25.423671" lon="99.311076">
<time>2014-08-04T23:21:43Z</time></trkpt>
<trkpt lat="25.423761" lon="99.311086">
<time>2014-08-04T23:21:44Z</time></trkpt>
<trkpt lat="25.423841" lon="99.311076">
<time>2014-08-04T23:21:45Z</time></trkpt>
<trkpt lat="25.423992" lon="99.310947">
<time>2014-08-04T23:21:46Z</time></trkpt>
<trkpt lat="25.424012" lon="99.310727">
<time>2014-08-04T23:21:47Z</time></trkpt>
<trkpt lat="25.424012" lon="99.310498">
<time>2014-08-04T23:21:48Z</time></trkpt>
<trkpt lat="25.424073" lon="99.309989">
<time>2014-08-04T23:21:49Z</time></trkpt>
<trkpt lat="25.424204" lon="99.30972">
<time>2014-08-04T23:21:50Z</time></trkpt>
<trkpt lat="25.424484" lon="99.309451">
<time>2014-08-04T23:21:51Z</time></trkpt>
<trkpt lat="25.425196" lon="99.308812">
<time>2014-08-04T23:21:52Z</time></trkpt>
<trkpt lat="25.425426" lon="99.308653">
<time>2014-08-04T23:21:53Z</time></trkpt>
<trkpt lat="25.425576" lon="99.308603">
<time>2014-08-04T23:21:54Z</time></trkpt>
<trkpt lat="25.425746" lon="99.308593">
<time>2014-08-04T23:21:55Z</time></trkpt>
<trkpt lat="25.425916" lon="99.308623">
<time>2014-08-04T23:21:56Z</time></trkpt>
<trkpt lat="25.426166" lon="99.308643">
<time>2014-08-04T23:21:57Z</time></trkpt>
<trkpt lat="25.426416" lon="99.308623">
<time>2014-08-04T23:21:58Z</time></trkpt>
<trkpt lat="25.426707" lon="99.308503">
<time>2014-08-04T23:21:59Z</time></trkpt>
<trkpt lat="25.427027" lon="99.308373">
<time>2014-08-04T23:22:00Z</time></trkpt>
<trkpt lat="25.427377" lon="99.308254">
<time>2014-08-04T23:22:01Z</time></trkpt>
<trkpt lat="25.427647" lon="99.308144">
<time>2014-08-04T23:22:02Z</time></trkpt>
<trkpt lat="25.427808" lon="99.307994">
<time>2014-08-04T23:22:03Z</time></trkpt>
<trkpt lat="25.427888" lon="99.307845">
<time>2014-08-04T23:22:04Z</time></trkpt>
<trkpt lat="25.427938" lon="99.307695">
<time>2014-08-04T23:22:05Z</time></trkpt>
<trkpt lat="25.427929" lon="99.307575">
<time>2014-08-04T23:22:06Z</time></trkpt>
<trkpt lat="25.427889" lon="99.307356">
<time>2014-08-04T23:22:07Z</time></trkpt>
<trkpt lat="25.427749" lon="99.307226">
<time>2014-08-04T23:22:08Z</time></trkpt>
<trkpt lat="25.427649" lon="99.307107">
<time>2014-08-04T23:22:09Z</time></trkpt>
<trkpt lat="25.427429" lon="99.307017">
<time>2014-08-04T23:22:10Z</time></trkpt>
<trkpt lat="25.427129" lon="99.306987">
<time>2014-08-04T23:22:11Z</time></trkpt>
<trkpt lat="25.426749" lon="99.306997">
<time>2014-08-04T23:22:12Z</time></trkpt>
<trkpt lat="25.426539" lon="99.306967">
<time>2014-08-04T23:22:13Z</time></trkpt>
<trkpt lat="25.426409" lon="99.306887">
<time>2014-08-04T23:22:14Z</time></trkpt>
<trkpt lat="25.42637" lon="99.306658">
<time>2014-08-04T23:22:15Z</time></trkpt>
<trkpt lat="25.42646" lon="99.306369">
<time>2014-08-04T23:22:16Z</time></trkpt>
<trkpt lat="25.426641" lon="99.30576">
<time>2014-08-04T23:22:17Z</time></trkpt>
<trkpt lat="25.426752" lon="99.305361">
<time>2014-08-04T23:22:18Z</time></trkpt>
<trkpt lat="25.427083" lon="99.304823">
<time>2014-08-04T23:22:19Z</time></trkpt>
<trkpt lat="25.427113" lon="99.304643">
<time>2014-08-04T23:22:20Z</time></trkpt>
<trkpt lat="25.427094" lon="99.304454">
<time>2014-08-04T23:22:21Z</time></trkpt>
<trkpt lat="25.426984" lon="99.304294">
<time>2014-08-04T23:22:22Z</time></trkpt>
<trkpt lat="25.426794" lon="99.304065">
<time>2014-08-04T23:22:23Z</time></trkpt>
<trkpt lat="25.426655" lon="99.303865">
<time>2014-08-04T23:22:24Z</time></trkpt>
<trkpt lat="25.426555" lon="99.303546">
<time>2014-08-04T23:22:25Z</time></trkpt>
<trkpt lat="25.426516" lon="99.303277">
<time>2014-08-04T23:22:26Z</time></trkpt>
<trkpt lat="25.426516" lon="99.303017">
<time>2014-08-04T23:22:27Z</time></trkpt>
<trkpt lat="25.426526" lon="99.302838">
<time>2014-08-04T23:22:28Z</time></trkpt>
<trkpt lat="25.426607" lon="99.302459">
<time>2014-08-04T23:22:29Z</time></trkpt>
<trkpt lat="25.426657" lon="99.302279">
<time>2014-08-04T23:22:30Z</time></trkpt>
<trkpt lat="25.426698" lon="99.3021">
<time>2014-08-04T23:22:31Z</time></trkpt>
<trkpt lat="25.426728" lon="99.30195">
<time>2014-08-04T23:22:32Z</time></trkpt>
<trkpt lat="25.426718" lon="99.30181">
<time>2014-08-04T23:22:33Z</time></trkpt>
<trkpt lat="25.426648" lon="99.301661">
<time>2014-08-04T23:22:34Z</time></trkpt>
<trkpt lat="25.426489" lon="99.301541">
<time>2014-08-04T23:22:35Z</time></trkpt>
<trkpt lat="25.426259" lon="99.301441">
<time>2014-08-04T23:22:36Z</time></trkpt>
<trkpt lat="25.426039" lon="99.301381">
<time>2014-08-04T23:22:37Z</time></trkpt>
<trkpt lat="25.425799" lon="99.301282">
<time>2014-08-04T23:22:38Z</time></trkpt>
<trkpt lat="25.425569" lon="99.301142">
<time>2014-08-04T23:22:39Z</time></trkpt>
<trkpt lat="25.425399" lon="99.301002">
<time>2014-08-04T23:22:40Z</time></trkpt>
<trkpt lat="25.425209" lon="99.300833">
<time>2014-08-04T23:22:41Z</time></trkpt>
<trkpt lat="25.4251" lon="99.300673">
<time>2014-08-04T23:22:42Z</time></trkpt>
<trkpt lat="25.42499" lon="99.300424">
<time>2014-08-04T23:22:43Z</time></trkpt>
<trkpt lat="25.424891" lon="99.300045">
<time>2014-08-04T23:22:44Z</time></trkpt>
<trkpt lat="25.424761" lon="99.299586">
<time>2014-08-04T23:22:45Z</time></trkpt>
<trkpt lat="25.424752" lon="99.299337">
<time>2014-08-04T23:22:46Z</time></trkpt>
<trkpt lat="25.424872" lon="99.299037">
<time>2014-08-04T23:22:47Z</time></trkpt>
<trkpt lat="25.425113" lon="99.298369">
<time>2014-08-04T23:22:48Z</time></trkpt>
<trkpt lat="25.425274" lon="99.29793">
<time>2014-08-04T23:22:49Z</time></trkpt>
<trkpt lat="25.425345" lon="99.297681">
<time>2014-08-04T23:22:50Z</time></trkpt>
<trkpt lat="25.425575" lon="99.297391">
<time>2014-08-04T23:22:51Z</time></trkpt>
<trkpt lat="25.426196" lon="99.296643">
<time>2014-08-04T23:22:52Z</time></trkpt>
<trkpt lat="25.426347" lon="99.296523">
<time>2014-08-04T23:22:53Z</time></trkpt>
<trkpt lat="25.426417" lon="99.296483">
<time>2014-08-04T23:22:54Z</time></trkpt>
<trkpt lat="25.426547" lon="99.296453">
<time>2014-08-04T23:22:55Z</time></trkpt>
<trkpt lat="25.426827" lon="99.296394">
<time>2014-08-04T23:22:56Z</time></trkpt>
<trkpt lat="25.426917" lon="99.296314">
<time>2014-08-04T23:22:57Z</time></trkpt>
<trkpt lat="25.426967" lon="99.296234">
<time>2014-08-04T23:22:58Z</time></trkpt>
<trkpt lat="25.427007" lon="99.296094">
<time>2014-08-04T23:22:59Z</time></trkpt>
<trkpt lat="25.426998" lon="99.295915">
<time>2014-08-04T23:23:00Z</time></trkpt>
<trkpt lat="25.426998" lon="99.295715">
<time>2014-08-04T23:23:01Z</time></trkpt>
<trkpt lat="25.427038" lon="99.295556">
<time>2014-08-04T23:23:02Z</time></trkpt>
<trkpt lat="25.427118" lon="99.295446">
<time>2014-08-04T23:23:03Z</time></trkpt>
<trkpt lat="25.427369" lon="99.295186">
<time>2014-08-04T23:23:04Z</time></trkpt>
<trkpt lat="25.42782" lon="99.294658">
<time>2014-08-04T23:23:05Z</time></trkpt>
<trkpt lat="25.42811" lon="99.294249">
<time>2014-08-04T23:23:06Z</time></trkpt>
<trkpt lat="25.428201" lon="99.294019">
<time>2014-08-04T23:23:07Z</time></trkpt>
<trkpt lat="25.428362" lon="99.293391">
<time>2014-08-04T23:23:08Z</time></trkpt>
<trkpt lat="25.428583" lon="99.292662">
<time>2014-08-04T23:23:09Z</time></trkpt>
<trkpt lat="25.428814" lon="99.292193">
<time>2014-08-04T23:23:10Z</time></trkpt>
<trkpt lat="25.429155" lon="99.291615">
<time>2014-08-04T23:23:11Z</time></trkpt>
<trkpt lat="25.429376" lon="99.291016">
<time>2014-08-04T23:23:12Z</time></trkpt>
<trkpt lat="25.429396" lon="99.290697">
<time>2014-08-04T23:23:13Z</time></trkpt>
<trkpt lat="25.429396" lon="99.290417">
<time>2014-08-04T23:23:14Z</time></trkpt>
<trkpt lat="25.429287" lon="99.290048">
<time>2014-08-04T23:23:15Z</time></trkpt>
<trkpt lat="25.429197" lon="99.289589">
<time>2014-08-04T23:23:16Z</time></trkpt>
<trkpt lat="25.429197" lon="99.289589">
<time>2014-08-04T23:23:17Z</time></trkpt>
<trkpt lat="25.429578" lon="99.289589">
<time>2014-08-04T23:23:18Z</time></trkpt>
<trkpt lat="25.430238" lon="99.289739">
<time>2014-08-04T23:23:19Z</time></trkpt>
<trkpt lat="25.430608" lon="99.289739">
<time>2014-08-04T23:23:20Z</time></trkpt>
<trkpt lat="25.431618" lon="99.28946">
<time>2014-08-04T23:23:21Z</time></trkpt>
<trkpt lat="25.431908" lon="99.28933">
<time>2014-08-04T23:23:22Z</time></trkpt>
<trkpt lat="25.432459" lon="99.28903">
<time>2014-08-04T23:23:23Z</time></trkpt>
<trkpt lat="25.43323" lon="99.288781">
<time>2014-08-04T23:23:24Z</time></trkpt>
<trkpt lat="25.43368" lon="99.288532">
<time>2014-08-04T23:23:25Z</time></trkpt>
<trkpt lat="25.434" lon="99.288272">
<time>2014-08-04T23:23:26Z</time></trkpt>
<trkpt lat="25.434421" lon="99.287873">
<time>2014-08-04T23:23:27Z</time></trkpt>
<trkpt lat="25.434751" lon="99.287673">
<time>2014-08-04T23:23:28Z</time></trkpt>
<trkpt lat="25.435022" lon="99.287554">
<time>2014-08-04T23:23:29Z</time></trkpt>
<trkpt lat="25.436332" lon="99.287344">
<time>2014-08-04T23:23:30Z</time></trkpt>
<trkpt lat="25.436562" lon="99.287274">
<time>2014-08-04T23:23:31Z</time></trkpt>
<trkpt lat="25.436833" lon="99.287145">
<time>2014-08-04T23:23:32Z</time></trkpt>
<trkpt lat="25.437463" lon="99.286825">
<time>2014-08-04T23:23:33Z</time></trkpt>
<trkpt lat="25.437743" lon="99.286715">
<time>2014-08-04T23:23:34Z</time></trkpt>
<trkpt lat="25.437963" lon="99.286675">
<time>2014-08-04T23:23:35Z</time></trkpt>
<trkpt lat="25.438274" lon="99.286656">
<time>2014-08-04T23:23:36Z</time></trkpt>
<trkpt lat="25.439184" lon="99.286785">
<time>2014-08-04T23:23:37Z</time></trkpt>
<trkpt lat="25.440234" lon="99.287035">
<time>2014-08-04T23:23:38Z</time></trkpt>
<trkpt lat="25.440563" lon="99.287184">
<time>2014-08-04T23:23:39Z</time></trkpt>
<trkpt lat="25.440733" lon="99.287314">
<time>2014-08-04T23:23:40Z</time></trkpt>
<trkpt lat="25.441103" lon="99.287773">
<time>2014-08-04T23:23:41Z</time></trkpt>
<trkpt lat="25.441192" lon="99.288032">
<time>2014-08-04T23:23:42Z</time></trkpt>
<trkpt lat="25.441192" lon="99.288032">
<time>2014-08-04T23:23:43Z</time></trkpt>
<trkpt lat="25.441212" lon="99.288023">
<time>2014-08-04T23:23:44Z</time></trkpt>
<trkpt lat="25.441373" lon="99.287963">
<time>2014-08-04T23:23:45Z</time></trkpt>
<trkpt lat="25.441513" lon="99.287913">
<time>2014-08-04T23:23:46Z</time></trkpt>
<trkpt lat="25.441813" lon="99.287773">
<time>2014-08-04T23:23:47Z</time></trkpt>
<trkpt lat="25.442143" lon="99.287623">
<time>2014-08-04T23:23:48Z</time></trkpt>
<trkpt lat="25.442343" lon="99.287534">
<time>2014-08-04T23:23:49Z</time></trkpt>
<trkpt lat="25.442423" lon="99.287484">
<time>2014-08-04T23:23:50Z</time></trkpt>
<trkpt lat="25.442514" lon="99.287434">
<time>2014-08-04T23:23:51Z</time></trkpt>
<trkpt lat="25.442574" lon="99.287394">
<time>2014-08-04T23:23:52Z</time></trkpt>
<trkpt lat="25.442634" lon="99.287354">
<time>2014-08-04T23:23:53Z</time></trkpt>
<trkpt lat="25.442684" lon="99.287314">
<time>2014-08-04T23:23:54Z</time></trkpt>
<trkpt lat="25.442744" lon="99.287264">
<time>2014-08-04T23:23:55Z</time></trkpt>
<trkpt lat="25.442824" lon="99.287194">
<time>2014-08-04T23:23:56Z</time></trkpt>
<trkpt lat="25.442884" lon="99.287134">
<time>2014-08-04T23:23:57Z</time></trkpt>
<trkpt lat="25.442944" lon="99.287075">
<time>2014-08-04T23:23:58Z</time></trkpt>
<trkpt lat="25.443054" lon="99.286945">
<time>2014-08-04T23:23:59Z</time></trkpt>
<trkpt lat="25.443155" lon="99.286825">
<time>2014-08-04T23:24:00Z</time></trkpt>
<trkpt lat="25.443215" lon="99.286745">
<time>2014-08-04T23:24:01Z</time></trkpt>
<trkpt lat="25.443285" lon="99.286665">
<time>2014-08-04T23:24:02Z</time></trkpt>
<trkpt lat="25.443345" lon="99.286576">
<time>2014-08-04T23:24:03Z</time></trkpt>
<trkpt lat="25.443425" lon="99.286466">
<time>2014-08-04T23:24:04Z</time></trkpt>
<trkpt lat="25.443475" lon="99.286396">
<time>2014-08-04T23:24:05Z</time></trkpt>
<trkpt lat="25.443515" lon="99.286326">
<time>2014-08-04T23:24:06Z</time></trkpt>
<trkpt lat="25.443545" lon="99.286256">
<time>2014-08-04T23:24:07Z</time></trkpt>
<trkpt lat="25.443575" lon="99.286196">
<time>2014-08-04T23:24:08Z</time></trkpt>
<trkpt lat="25.443596" lon="99.286156">
<time>2014-08-04T23:24:09Z</time></trkpt>
<trkpt lat="25.443606" lon="99.286107">
<time>2014-08-04T23:24:10Z</time></trkpt>
<trkpt lat="25.443626" lon="99.286057">
<time>2014-08-04T23:24:11Z</time></trkpt>
<trkpt lat="25.443636" lon="99.286007">
<time>2014-08-04T23:24:12Z</time></trkpt>
<trkpt lat="25.443646" lon="99.285957">
<time>2014-08-04T23:24:13Z</time></trkpt>
<trkpt lat="25.443656" lon="99.285867">
<time>2014-08-04T23:24:14Z</time></trkpt>
<trkpt lat="25.443666" lon="99.285777">
<time>2014-08-04T23:24:15Z</time></trkpt>
<trkpt lat="25.443666" lon="99.285717">
<time>2014-08-04T23:24:16Z</time></trkpt>
<trkpt lat="25.443676" lon="99.285658">
<time>2014-08-04T23:24:17Z</time></trkpt>
<trkpt lat="25.443676" lon="99.285578">
<time>2014-08-04T23:24:18Z</time></trkpt>
<trkpt lat="25.443686" lon="99.285508">
<time>2014-08-04T23:24:19Z</time></trkpt>
<trkpt lat="25.443686" lon="99.285438">
<time>2014-08-04T23:24:20Z</time></trkpt>
<trkpt lat="25.443687" lon="99.285358">
<time>2014-08-04T23:24:21Z</time></trkpt>
<trkpt lat="25.443697" lon="99.285029">
<time>2014-08-04T23:24:22Z</time></trkpt>
<trkpt lat="25.443707" lon="99.284749">
<time>2014-08-04T23:24:23Z</time></trkpt>
<trkpt lat="25.443718" lon="99.284041">
<time>2014-08-04T23:24:24Z</time></trkpt>
<trkpt lat="25.443729" lon="99.283582">
<time>2014-08-04T23:24:25Z</time></trkpt>
<trkpt lat="25.443729" lon="99.283253">
<time>2014-08-04T23:24:26Z</time></trkpt>
<trkpt lat="25.443719" lon="99.283023">
<time>2014-08-04T23:24:27Z</time></trkpt>
<trkpt lat="25.44371" lon="99.282913">
<time>2014-08-04T23:24:28Z</time></trkpt>
<trkpt lat="25.44371" lon="99.282813">
<time>2014-08-04T23:24:29Z</time></trkpt>
<trkpt lat="25.4437" lon="99.282724">
<time>2014-08-04T23:24:30Z</time></trkpt>
<trkpt lat="25.44369" lon="99.282654">
<time>2014-08-04T23:24:31Z</time></trkpt>
<trkpt lat="25.44368" lon="99.282584">
<time>2014-08-04T23:24:32Z</time></trkpt>
<trkpt lat="25.44367" lon="99.282544">
<time>2014-08-04T23:24:33Z</time></trkpt>
<trkpt lat="25.44365" lon="99.282404">
<time>2014-08-04T23:24:34Z</time></trkpt>
<trkpt lat="25.443571" lon="99.282035">
<time>2014-08-04T23:24:35Z</time></trkpt>
<trkpt lat="25.443382" lon="99.281217">
<time>2014-08-04T23:24:36Z</time></trkpt>
<trkpt lat="25.443192" lon="99.280458">
<time>2014-08-04T23:24:37Z</time></trkpt>
<trkpt lat="25.443162" lon="99.280318">
<time>2014-08-04T23:24:38Z</time></trkpt>
<trkpt lat="25.443013" lon="99.27967">
<time>2014-08-04T23:24:39Z</time></trkpt>
<trkpt lat="25.442983" lon="99.27953">
<time>2014-08-04T23:24:40Z</time></trkpt>
<trkpt lat="25.442973" lon="99.27942">
<time>2014-08-04T23:24:41Z</time></trkpt>
<trkpt lat="25.442964" lon="99.27932">
<time>2014-08-04T23:24:42Z</time></trkpt>
<trkpt lat="25.442954" lon="99.27922">
<time>2014-08-04T23:24:43Z</time></trkpt>
<trkpt lat="25.442944" lon="99.279141">
<time>2014-08-04T23:24:44Z</time></trkpt>
<trkpt lat="25.442944" lon="99.279071">
<time>2014-08-04T23:24:45Z</time></trkpt>
<trkpt lat="25.442954" lon="99.279001">
<time>2014-08-04T23:24:46Z</time></trkpt>
<trkpt lat="25.442964" lon="99.278911">
<time>2014-08-04T23:24:47Z</time></trkpt>
<trkpt lat="25.442964" lon="99.278851">
<time>2014-08-04T23:24:48Z</time></trkpt>
<trkpt lat="25.442984" lon="99.278781">
<time>2014-08-04T23:24:49Z</time></trkpt>
<trkpt lat="25.443004" lon="99.278691">
<time>2014-08-04T23:24:50Z</time></trkpt>
<trkpt lat="25.443024" lon="99.278632">
<time>2014-08-04T23:24:51Z</time></trkpt>
<trkpt lat="25.443064" lon="99.278522">
<time>2014-08-04T23:24:52Z</time></trkpt>
<trkpt lat="25.443115" lon="99.278412">
<time>2014-08-04T23:24:53Z</time></trkpt>
<trkpt lat="25.443175" lon="99.278292">
<time>2014-08-04T23:24:54Z</time></trkpt>
<trkpt lat="25.443305" lon="99.278053">
<time>2014-08-04T23:24:55Z</time></trkpt>
<trkpt lat="25.443395" lon="99.277883">
<time>2014-08-04T23:24:56Z</time></trkpt>
<trkpt lat="25.443736" lon="99.277264">
<time>2014-08-04T23:24:57Z</time></trkpt>
<trkpt lat="25.444047" lon="99.276715">
<time>2014-08-04T23:24:58Z</time></trkpt>
<trkpt lat="25.444187" lon="99.276446">
<time>2014-08-04T23:24:59Z</time></trkpt>
<trkpt lat="25.444287" lon="99.276286">
<time>2014-08-04T23:25:00Z</time></trkpt>
<trkpt lat="25.444347" lon="99.276176">
<time>2014-08-04T23:25:01Z</time></trkpt>
<trkpt lat="25.444387" lon="99.276086">
<time>2014-08-04T23:25:02Z</time></trkpt>
<trkpt lat="25.444417" lon="99.276026">
<time>2014-08-04T23:25:03Z</time></trkpt>
<trkpt lat="25.444437" lon="99.275976">
<time>2014-08-04T23:25:04Z</time></trkpt>
<trkpt lat="25.444457" lon="99.275907">
<time>2014-08-04T23:25:05Z</time></trkpt>
<trkpt lat="25.444468" lon="99.275827">
<time>2014-08-04T23:25:06Z</time></trkpt>
<trkpt lat="25.444478" lon="99.275767">
<time>2014-08-04T23:25:07Z</time></trkpt>
<trkpt lat="25.444478" lon="99.275687">
<time>2014-08-04T23:25:08Z</time></trkpt>
<trkpt lat="25.444478" lon="99.275617">
<time>2014-08-04T23:25:09Z</time></trkpt>
<trkpt lat="25.444478" lon="99.275537">
<time>2014-08-04T23:25:10Z</time></trkpt>
<trkpt lat="25.444468" lon="99.275417">
<time>2014-08-04T23:25:11Z</time></trkpt>
<trkpt lat="25.444468" lon="99.275328">
<time>2014-08-04T23:25:12Z</time></trkpt>
<trkpt lat="25.444448" lon="99.275218">
<time>2014-08-04T23:25:13Z</time></trkpt>
<trkpt lat="25.444428" lon="99.274968">
<time>2014-08-04T23:25:14Z</time></trkpt>
<trkpt lat="25.444399" lon="99.274729">
<time>2014-08-04T23:25:15Z</time></trkpt>
<trkpt lat="25.444379" lon="99.274589">
<time>2014-08-04T23:25:16Z</time></trkpt>
<trkpt lat="25.444389" lon="99.274499">
<time>2014-08-04T23:25:17Z</time></trkpt>
<trkpt lat="25.444389" lon="99.274449">
<time>2014-08-04T23:25:18Z</time></trkpt>
<trkpt lat="25.444389" lon="99.274329">
<time>2014-08-04T23:25:19Z</time></trkpt>
<trkpt lat="25.444389" lon="99.27422">
<time>2014-08-04T23:25:20Z</time></trkpt>
<trkpt lat="25.444399" lon="99.27416">
<time>2014-08-04T23:25:21Z</time></trkpt>
<trkpt lat="25.444409" lon="99.27412">
<time>2014-08-04T23:25:22Z</time></trkpt>
<trkpt lat="25.444419" lon="99.27408">
<time>2014-08-04T23:25:23Z</time></trkpt>
<trkpt lat="25.444429" lon="99.27403">
<time>2014-08-04T23:25:24Z</time></trkpt>
<trkpt lat="25.444449" lon="99.27399">
<time>2014-08-04T23:25:25Z</time></trkpt>
<trkpt lat="25.444469" lon="99.27394">
<time>2014-08-04T23:25:26Z</time></trkpt>
<trkpt lat="25.444489" lon="99.27389">
<time>2014-08-04T23:25:27Z</time></trkpt>
<trkpt lat="25.444509" lon="99.27384">
<time>2014-08-04T23:25:28Z</time></trkpt>
<trkpt lat="25.444519" lon="99.27383">
<time>2014-08-04T23:25:29Z</time></trkpt>
<trkpt lat="25.44456" lon="99.27375">
<time>2014-08-04T23:25:30Z</time></trkpt>
<trkpt lat="25.44472" lon="99.273401">
<time>2014-08-04T23:25:31Z</time></trkpt>
<trkpt lat="25.44496" lon="99.272922">
<time>2014-08-04T23:25:32Z</time></trkpt>
<trkpt lat="25.445201" lon="99.272452">
<time>2014-08-04T23:25:33Z</time></trkpt>
<trkpt lat="25.445411" lon="99.272033">
<time>2014-08-04T23:25:34Z</time></trkpt>
<trkpt lat="25.445542" lon="99.271734">
<time>2014-08-04T23:25:35Z</time></trkpt>
<trkpt lat="25.445582" lon="99.271664">
<time>2014-08-04T23:25:36Z</time></trkpt>
<trkpt lat="25.445642" lon="99.271534">
<time>2014-08-04T23:25:37Z</time></trkpt>
<trkpt lat="25.445662" lon="99.271494">
<time>2014-08-04T23:25:38Z</time></trkpt>
<trkpt lat="25.445682" lon="99.271444">
<time>2014-08-04T23:25:39Z</time></trkpt>
<trkpt lat="25.445712" lon="99.271394">
<time>2014-08-04T23:25:40Z</time></trkpt>
<trkpt lat="25.445742" lon="99.271324">
<time>2014-08-04T23:25:41Z</time></trkpt>
<trkpt lat="25.445772" lon="99.271274">
<time>2014-08-04T23:25:42Z</time></trkpt>
<trkpt lat="25.445792" lon="99.271215">
<time>2014-08-04T23:25:43Z</time></trkpt>
<trkpt lat="25.445822" lon="99.271155">
<time>2014-08-04T23:25:44Z</time></trkpt>
<trkpt lat="25.445852" lon="99.271095">
<time>2014-08-04T23:25:45Z</time></trkpt>
<trkpt lat="25.445872" lon="99.271045">
<time>2014-08-04T23:25:46Z</time></trkpt>
<trkpt lat="25.445902" lon="99.270975">
<time>2014-08-04T23:25:47Z</time></trkpt>
<trkpt lat="25.445922" lon="99.270925">
<time>2014-08-04T23:25:48Z</time></trkpt>
<trkpt lat="25.445952" lon="99.270835">
<time>2014-08-04T23:25:49Z</time></trkpt>
<trkpt lat="25.445972" lon="99.270785">
<time>2014-08-04T23:25:50Z</time></trkpt>
<trkpt lat="25.445992" lon="99.270725">
<time>2014-08-04T23:25:51Z</time></trkpt>
<trkpt lat="25.446013" lon="99.270675">
<time>2014-08-04T23:25:52Z</time></trkpt>
<trkpt lat="25.446023" lon="99.270605">
<time>2014-08-04T23:25:53Z</time></trkpt>
<trkpt lat="25.446043" lon="99.270556">
<time>2014-08-04T23:25:54Z</time></trkpt>
<trkpt lat="25.446063" lon="99.270486">
<time>2014-08-04T23:25:55Z</time></trkpt>
<trkpt lat="25.446093" lon="99.270316">
<time>2014-08-04T23:25:56Z</time></trkpt>
<trkpt lat="25.446113" lon="99.270256">
<time>2014-08-04T23:25:57Z</time></trkpt>
<trkpt lat="25.446133" lon="99.270146">
<time>2014-08-04T23:25:58Z</time></trkpt>
<trkpt lat="25.446213" lon="99.269777">
<time>2014-08-04T23:25:59Z</time></trkpt>
<trkpt lat="25.446273" lon="99.269507">
<time>2014-08-04T23:26:00Z</time></trkpt>
<trkpt lat="25.446294" lon="99.269417">
<time>2014-08-04T23:26:01Z</time></trkpt>
<trkpt lat="25.446314" lon="99.269317">
<time>2014-08-04T23:26:02Z</time></trkpt>
<trkpt lat="25.446334" lon="99.269268">
<time>2014-08-04T23:26:03Z</time></trkpt>
<trkpt lat="25.446344" lon="99.269228">
<time>2014-08-04T23:26:04Z</time></trkpt>
<trkpt lat="25.446354" lon="99.269178">
<time>2014-08-04T23:26:05Z</time></trkpt>
<trkpt lat="25.446364" lon="99.269128">
<time>2014-08-04T23:26:06Z</time></trkpt>
<trkpt lat="25.446374" lon="99.269068">
<time>2014-08-04T23:26:07Z</time></trkpt>
<trkpt lat="25.446394" lon="99.269008">
<time>2014-08-04T23:26:08Z</time></trkpt>
<trkpt lat="25.446404" lon="99.268948">
<time>2014-08-04T23:26:09Z</time></trkpt>
<trkpt lat="25.446424" lon="99.268898">
<time>2014-08-04T23:26:10Z</time></trkpt>
<trkpt lat="25.446444" lon="99.268848">
<time>2014-08-04T23:26:11Z</time></trkpt>
<trkpt lat="25.446464" lon="99.268798">
<time>2014-08-04T23:26:12Z</time></trkpt>
<trkpt lat="25.446484" lon="99.268748">
<time>2014-08-04T23:26:13Z</time></trkpt>
<trkpt lat="25.446494" lon="99.268708">
<time>2014-08-04T23:26:14Z</time></trkpt>
<trkpt lat="25.446524" lon="99.268658">
<time>2014-08-04T23:26:15Z</time></trkpt>
<trkpt lat="25.446534" lon="99.268629">
<time>2014-08-04T23:26:16Z</time></trkpt>
<trkpt lat="25.446604" lon="99.268509">
<time>2014-08-04T23:26:17Z</time></trkpt>
<trkpt lat="25.446624" lon="99.268469">
<time>2014-08-04T23:26:18Z</time></trkpt>
<trkpt lat="25.446654" lon="99.268429">
<time>2014-08-04T23:26:19Z</time></trkpt>
<trkpt lat="25.446684" lon="99.268379">
<time>2014-08-04T23:26:20Z</time></trkpt>
<trkpt lat="25.446714" lon="99.268339">
<time>2014-08-04T23:26:21Z</time></trkpt>
<trkpt lat="25.446755" lon="99.268269">
<time>2014-08-04T23:26:22Z</time></trkpt>
<trkpt lat="25.447025" lon="99.26792">
<time>2014-08-04T23:26:23Z</time></trkpt>
<trkpt lat="25.447145" lon="99.26775">
<time>2014-08-04T23:26:24Z</time></trkpt>
<trkpt lat="25.447335" lon="99.2675">
<time>2014-08-04T23:26:25Z</time></trkpt>
<trkpt lat="25.447475" lon="99.26731">
<time>2014-08-04T23:26:26Z</time></trkpt>
<trkpt lat="25.447656" lon="99.267091">
<time>2014-08-04T23:26:27Z</time></trkpt>
<trkpt lat="25.447726" lon="99.267011">
<time>2014-08-04T23:26:28Z</time></trkpt>
<trkpt lat="25.447956" lon="99.266751">
<time>2014-08-04T23:26:29Z</time></trkpt>
<trkpt lat="25.448056" lon="99.266641">
<time>2014-08-04T23:26:30Z</time></trkpt>
<trkpt lat="25.448056" lon="99.266641">
<time>2014-08-04T23:26:31Z</time></trkpt>
<trkpt lat="25.448106" lon="99.266582">
<time>2014-08-04T23:26:32Z</time></trkpt>
<trkpt lat="25.448236" lon="99.266432">
<time>2014-08-04T23:26:33Z</time></trkpt>
<trkpt lat="25.448246" lon="99.266412">
<time>2014-08-04T23:26:34Z</time></trkpt>
<trkpt lat="25.448406" lon="99.266242">
<time>2014-08-04T23:26:35Z</time></trkpt>
<trkpt lat="25.448476" lon="99.266152">
<time>2014-08-04T23:26:36Z</time></trkpt>
<trkpt lat="25.448556" lon="99.266052">
<time>2014-08-04T23:26:37Z</time></trkpt>
<trkpt lat="25.448566" lon="99.266052">
<time>2014-08-04T23:26:38Z</time></trkpt>
<trkpt lat="25.448587" lon="99.266012">
<time>2014-08-04T23:26:39Z</time></trkpt>
<trkpt lat="25.448627" lon="99.265972">
<time>2014-08-04T23:26:40Z</time></trkpt>
<trkpt lat="25.448677" lon="99.265922">
<time>2014-08-04T23:26:41Z</time></trkpt>
<trkpt lat="25.448767" lon="99.265823">
<time>2014-08-04T23:26:42Z</time></trkpt>
<trkpt lat="25.448827" lon="99.265763">
<time>2014-08-04T23:26:43Z</time></trkpt>
<trkpt lat="25.448857" lon="99.265723">
<time>2014-08-04T23:26:44Z</time></trkpt>
<trkpt lat="25.448947" lon="99.265623">
<time>2014-08-04T23:26:45Z</time></trkpt>
<trkpt lat="25.449077" lon="99.265473">
<time>2014-08-04T23:26:46Z</time></trkpt>
<trkpt lat="25.449127" lon="99.265413">
<time>2014-08-04T23:26:47Z</time></trkpt>
<trkpt lat="25.449197" lon="99.265323">
<time>2014-08-04T23:26:48Z</time></trkpt>
<trkpt lat="25.449327" lon="99.265174">
<time>2014-08-04T23:26:49Z</time></trkpt>
<trkpt lat="25.449377" lon="99.265104">
<time>2014-08-04T23:26:50Z</time></trkpt>
<trkpt lat="25.449407" lon="99.265064">
<time>2014-08-04T23:26:51Z</time></trkpt>
<trkpt lat="25.449437" lon="99.265004">
<time>2014-08-04T23:26:52Z</time></trkpt>
<trkpt lat="25.449457" lon="99.264974">
<time>2014-08-04T23:26:53Z</time></trkpt>
<trkpt lat="25.449477" lon="99.264924">
<time>2014-08-04T23:26:54Z</time></trkpt>
<trkpt lat="25.449497" lon="99.264864">
<time>2014-08-04T23:26:55Z</time></trkpt>
<trkpt lat="25.449518" lon="99.264804">
<time>2014-08-04T23:26:56Z</time></trkpt>
<trkpt lat="25.449528" lon="99.264734">
<time>2014-08-04T23:26:57Z</time></trkpt>
<trkpt lat="25.449548" lon="99.264684">
<time>2014-08-04T23:26:58Z</time></trkpt>
<trkpt lat="25.449558" lon="99.264624">
<time>2014-08-04T23:26:59Z</time></trkpt>
<trkpt lat="25.449558" lon="99.264564">
<time>2014-08-04T23:27:00Z</time></trkpt>
<trkpt lat="25.449568" lon="99.264514">
<time>2014-08-04T23:27:01Z</time></trkpt>
<trkpt lat="25.449578" lon="99.264405">
<time>2014-08-04T23:27:02Z</time></trkpt>
<trkpt lat="25.449578" lon="99.264285">
<time>2014-08-04T23:27:03Z</time></trkpt>
<trkpt lat="25.449578" lon="99.264155">
<time>2014-08-04T23:27:04Z</time></trkpt>
<trkpt lat="25.449578" lon="99.263915">
<time>2014-08-04T23:27:05Z</time></trkpt>
<trkpt lat="25.449578" lon="99.263845">
<time>2014-08-04T23:27:06Z</time></trkpt>
<trkpt lat="25.449588" lon="99.263686">
<time>2014-08-04T23:27:07Z</time></trkpt>
<trkpt lat="25.449598" lon="99.263576">
<time>2014-08-04T23:27:08Z</time></trkpt>
<trkpt lat="25.449598" lon="99.263516">
<time>2014-08-04T23:27:09Z</time></trkpt>
<trkpt lat="25.449608" lon="99.263446">
<time>2014-08-04T23:27:10Z</time></trkpt>
<trkpt lat="25.449618" lon="99.263386">
<time>2014-08-04T23:27:11Z</time></trkpt>
<trkpt lat="25.449658" lon="99.263226">
<time>2014-08-04T23:27:12Z</time></trkpt>
<trkpt lat="25.449699" lon="99.263096">
<time>2014-08-04T23:27:13Z</time></trkpt>
<trkpt lat="25.449769" lon="99.262817">
<time>2014-08-04T23:27:14Z</time></trkpt>
<trkpt lat="25.449799" lon="99.262687">
<time>2014-08-04T23:27:15Z</time></trkpt>
<trkpt lat="25.449809" lon="99.262667">
<time>2014-08-04T23:27:16Z</time></trkpt>
<trkpt lat="25.449819" lon="99.262647">
<time>2014-08-04T23:27:17Z</time></trkpt>
<trkpt lat="25.449819" lon="99.262627">
<time>2014-08-04T23:27:18Z</time></trkpt>
<trkpt lat="25.449829" lon="99.262587">
<time>2014-08-04T23:27:19Z</time></trkpt>
<trkpt lat="25.449839" lon="99.262557">
<time>2014-08-04T23:27:20Z</time></trkpt>
<trkpt lat="25.449849" lon="99.262497">
<time>2014-08-04T23:27:21Z</time></trkpt>
<trkpt lat="25.449849" lon="99.262467">
<time>2014-08-04T23:27:22Z</time></trkpt>
<trkpt lat="25.449859" lon="99.262447">
<time>2014-08-04T23:27:23Z</time></trkpt>
<trkpt lat="25.449869" lon="99.262417">
<time>2014-08-04T23:27:24Z</time></trkpt>
<trkpt lat="25.449879" lon="99.262397">
<time>2014-08-04T23:27:25Z</time></trkpt>
<trkpt lat="25.449879" lon="99.262387">
<time>2014-08-04T23:27:26Z</time></trkpt>
<trkpt lat="25.449899" lon="99.262357">
<time>2014-08-04T23:27:27Z</time></trkpt>
<trkpt lat="25.449909" lon="99.262337">
<time>2014-08-04T23:27:28Z</time></trkpt>
<trkpt lat="25.449929" lon="99.262307">
<time>2014-08-04T23:27:29Z</time></trkpt>
<trkpt lat="25.449959" lon="99.262277">
<time>2014-08-04T23:27:30Z</time></trkpt>
<trkpt lat="25.450039" lon="99.262197">
<time>2014-08-04T23:27:31Z</time></trkpt>
<trkpt lat="25.450069" lon="99.262148">
<time>2014-08-04T23:27:32Z</time></trkpt>
<trkpt lat="25.450109" lon="99.262088">
<time>2014-08-04T23:27:33Z</time></trkpt>
<trkpt lat="25.450189" lon="99.261998">
<time>2014-08-04T23:27:34Z</time></trkpt>
<trkpt lat="25.450239" lon="99.261948">
<time>2014-08-04T23:27:35Z</time></trkpt>
<trkpt lat="25.450259" lon="99.261918">
<time>2014-08-04T23:27:36Z</time></trkpt>
<trkpt lat="25.450289" lon="99.261878">
<time>2014-08-04T23:27:37Z</time></trkpt>
<trkpt lat="25.450309" lon="99.261848">
<time>2014-08-04T23:27:38Z</time></trkpt>
<trkpt lat="25.450319" lon="99.261818">
<time>2014-08-04T23:27:39Z</time></trkpt>
<trkpt lat="25.450339" lon="99.261798">
<time>2014-08-04T23:27:40Z</time></trkpt>
<trkpt lat="25.450349" lon="99.261768">
<time>2014-08-04T23:27:41Z</time></trkpt>
<trkpt lat="25.450369" lon="99.261728">
<time>2014-08-04T23:27:42Z</time></trkpt>
<trkpt lat="25.450379" lon="99.261708">
<time>2014-08-04T23:27:43Z</time></trkpt>
<trkpt lat="25.450379" lon="99.261688">
<time>2014-08-04T23:27:44Z</time></trkpt>
<trkpt lat="25.450389" lon="99.261658">
<time>2014-08-04T23:27:45Z</time></trkpt>
<trkpt lat="25.450399" lon="99.261638">
<time>2014-08-04T23:27:46Z</time></trkpt>
<trkpt lat="25.450399" lon="99.261608">
<time>2014-08-04T23:27:47Z</time></trkpt>
<trkpt lat="25.450399" lon="99.261588">
<time>2014-08-04T23:27:48Z</time></trkpt>
<trkpt lat="25.450409" lon="99.261568">
<time>2014-08-04T23:27:49Z</time></trkpt>
<trkpt lat="25.450409" lon="99.261548">
<time>2014-08-04T23:27:50Z</time></trkpt>
<trkpt lat="25.450399" lon="99.261528">
<time>2014-08-04T23:27:51Z</time></trkpt>
<trkpt lat="25.4504" lon="99.261508">
<time>2014-08-04T23:27:52Z</time></trkpt>
<trkpt lat="25.4504" lon="99.261488">
<time>2014-08-04T23:27:53Z</time></trkpt>
<trkpt lat="25.45039" lon="99.261458">
<time>2014-08-04T23:27:54Z</time></trkpt>
<trkpt lat="25.45038" lon="99.261428">
<time>2014-08-04T23:27:55Z</time></trkpt>
<trkpt lat="25.45036" lon="99.261398">
<time>2014-08-04T23:27:56Z</time></trkpt>
<trkpt lat="25.45033" lon="99.261329">
<time>2014-08-04T23:27:57Z</time></trkpt>
<trkpt lat="25.45029" lon="99.261279">
<time>2014-08-04T23:27:58Z</time></trkpt>
<trkpt lat="25.45027" lon="99.261239">
<time>2014-08-04T23:27:59Z</time></trkpt>
<trkpt lat="25.45025" lon="99.261199">
<time>2014-08-04T23:28:00Z</time></trkpt>
<trkpt lat="25.45021" lon="99.261139">
<time>2014-08-04T23:28:01Z</time></trkpt>
<trkpt lat="25.45016" lon="99.261049">
<time>2014-08-04T23:28:02Z</time></trkpt>
<trkpt lat="25.45015" lon="99.261019">
<time>2014-08-04T23:28:03Z</time></trkpt>
<trkpt lat="25.45013" lon="99.260999">
<time>2014-08-04T23:28:04Z</time></trkpt>
<trkpt lat="25.45012" lon="99.260979">
<time>2014-08-04T23:28:05Z</time></trkpt>
<trkpt lat="25.45011" lon="99.260939">
<time>2014-08-04T23:28:06Z</time></trkpt>
<trkpt lat="25.4501" lon="99.260909">
<time>2014-08-04T23:28:07Z</time></trkpt>
<trkpt lat="25.4501" lon="99.260879">
<time>2014-08-04T23:28:08Z</time></trkpt>
<trkpt lat="25.45009" lon="99.260829">
<time>2014-08-04T23:28:09Z</time></trkpt>
<trkpt lat="25.45009" lon="99.260809">
<time>2014-08-04T23:28:10Z</time></trkpt>
<trkpt lat="25.45009" lon="99.260769">
<time>2014-08-04T23:28:11Z</time></trkpt>
<trkpt lat="25.45009" lon="99.260739">
<time>2014-08-04T23:28:12Z</time></trkpt>
<trkpt lat="25.4501" lon="99.260699">
<time>2014-08-04T23:28:13Z</time></trkpt>
<trkpt lat="25.4501" lon="99.260649">
<time>2014-08-04T23:28:14Z</time></trkpt>
<trkpt lat="25.45011" lon="99.260589">
<time>2014-08-04T23:28:15Z</time></trkpt>
<trkpt lat="25.45013" lon="99.260549">
<time>2014-08-04T23:28:16Z</time></trkpt>
<trkpt lat="25.45016" lon="99.26044">
<time>2014-08-04T23:28:17Z</time></trkpt>
<trkpt lat="25.45022" lon="99.26024">
<time>2014-08-04T23:28:18Z</time></trkpt>
<trkpt lat="25.45027" lon="99.2601">
<time>2014-08-04T23:28:19Z</time></trkpt>
<trkpt lat="25.45029" lon="99.26003">
<time>2014-08-04T23:28:20Z</time></trkpt>
<trkpt lat="25.45031" lon="99.25997">
<time>2014-08-04T23:28:21Z</time></trkpt>
<trkpt lat="25.45033" lon="99.25993">
<time>2014-08-04T23:28:22Z</time></trkpt>
<trkpt lat="25.45035" lon="99.25986">
<time>2014-08-04T23:28:23Z</time></trkpt>
<trkpt lat="25.45035" lon="99.25984">
<time>2014-08-04T23:28:24Z</time></trkpt>
<trkpt lat="25.45037" lon="99.2598">
<time>2014-08-04T23:28:25Z</time></trkpt>
<trkpt lat="25.45039" lon="99.25974">
<time>2014-08-04T23:28:26Z</time></trkpt>
<trkpt lat="25.4504" lon="99.2597">
<time>2014-08-04T23:28:27Z</time></trkpt>
<trkpt lat="25.45044" lon="99.259621">
<time>2014-08-04T23:28:28Z</time></trkpt>
<trkpt lat="25.45047" lon="99.259561">
<time>2014-08-04T23:28:29Z</time></trkpt>
<trkpt lat="25.45053" lon="99.259441">
<time>2014-08-04T23:28:30Z</time></trkpt>
<trkpt lat="25.45055" lon="99.259411">
<time>2014-08-04T23:28:31Z</time></trkpt>
<trkpt lat="25.45056" lon="99.259391">
<time>2014-08-04T23:28:32Z</time></trkpt>
<trkpt lat="25.45057" lon="99.259381">
<time>2014-08-04T23:28:33Z</time></trkpt>
<trkpt lat="25.45059" lon="99.259341">
<time>2014-08-04T23:28:34Z</time></trkpt>
<trkpt lat="25.450621" lon="99.259311">
<time>2014-08-04T23:28:35Z</time></trkpt>
<trkpt lat="25.450661" lon="99.259281">
<time>2014-08-04T23:28:36Z</time></trkpt>
<trkpt lat="25.450711" lon="99.259231">
<time>2014-08-04T23:28:37Z</time></trkpt>
<trkpt lat="25.450751" lon="99.259191">
<time>2014-08-04T23:28:38Z</time></trkpt>
<trkpt lat="25.450821" lon="99.259131">
<time>2014-08-04T23:28:39Z</time></trkpt>
<trkpt lat="25.450871" lon="99.259091">
<time>2014-08-04T23:28:40Z</time></trkpt>
<trkpt lat="25.450931" lon="99.259051">
<time>2014-08-04T23:28:41Z</time></trkpt>
<trkpt lat="25.450981" lon="99.259021">
<time>2014-08-04T23:28:42Z</time></trkpt>
<trkpt lat="25.451051" lon="99.258981">
<time>2014-08-04T23:28:43Z</time></trkpt>
<trkpt lat="25.451111" lon="99.258951">
<time>2014-08-04T23:28:44Z</time></trkpt>
<trkpt lat="25.451211" lon="99.258901">
<time>2014-08-04T23:28:45Z</time></trkpt>
<trkpt lat="25.451491" lon="99.258762">
<time>2014-08-04T23:28:46Z</time></trkpt>
<trkpt lat="25.451831" lon="99.258602">
<time>2014-08-04T23:28:47Z</time></trkpt>
<trkpt lat="25.451941" lon="99.258542">
<time>2014-08-04T23:28:48Z</time></trkpt>
<trkpt lat="25.452031" lon="99.258492">
<time>2014-08-04T23:28:49Z</time></trkpt>
<trkpt lat="25.452071" lon="99.258472">
<time>2014-08-04T23:28:50Z</time></trkpt>
<trkpt lat="25.452121" lon="99.258432">
<time>2014-08-04T23:28:51Z</time></trkpt>
<trkpt lat="25.452161" lon="99.258402">
<time>2014-08-04T23:28:52Z</time></trkpt>
<trkpt lat="25.452201" lon="99.258362">
<time>2014-08-04T23:28:53Z</time></trkpt>
<trkpt lat="25.452241" lon="99.258312">
<time>2014-08-04T23:28:54Z</time></trkpt>
<trkpt lat="25.452261" lon="99.258282">
<time>2014-08-04T23:28:55Z</time></trkpt>
<trkpt lat="25.452291" lon="99.258242">
<time>2014-08-04T23:28:56Z</time></trkpt>
<trkpt lat="25.452311" lon="99.258202">
<time>2014-08-04T23:28:57Z</time></trkpt>
<trkpt lat="25.452331" lon="99.258172">
<time>2014-08-04T23:28:58Z</time></trkpt>
<trkpt lat="25.452351" lon="99.258122">
<time>2014-08-04T23:28:59Z</time></trkpt>
<trkpt lat="25.452371" lon="99.258092">
<time>2014-08-04T23:29:00Z</time></trkpt>
<trkpt lat="25.452391" lon="99.258032">
<time>2014-08-04T23:29:01Z</time></trkpt>
<trkpt lat="25.452411" lon="99.257972">
<time>2014-08-04T23:29:02Z</time></trkpt>
<trkpt lat="25.452431" lon="99.257922">
<time>2014-08-04T23:29:03Z</time></trkpt>
<trkpt lat="25.452452" lon="99.257873">
<time>2014-08-04T23:29:04Z</time></trkpt>
<trkpt lat="25.452472" lon="99.257783">
<time>2014-08-04T23:29:05Z</time></trkpt>
<trkpt lat="25.452492" lon="99.257723">
<time>2014-08-04T23:29:06Z</time></trkpt>
<trkpt lat="25.452502" lon="99.257663">
<time>2014-08-04T23:29:07Z</time></trkpt>
<trkpt lat="25.452512" lon="99.257613">
<time>2014-08-04T23:29:08Z</time></trkpt>
<trkpt lat="25.452532" lon="99.257553">
<time>2014-08-04T23:29:09Z</time></trkpt>
<trkpt lat="25.452532" lon="99.257513">
<time>2014-08-04T23:29:10Z</time></trkpt>
<trkpt lat="25.452542" lon="99.257443">
<time>2014-08-04T23:29:11Z</time></trkpt>
<trkpt lat="25.452552" lon="99.257383">
<time>2014-08-04T23:29:12Z</time></trkpt>
<trkpt lat="25.452552" lon="99.257353">
<time>2014-08-04T23:29:13Z</time></trkpt>
<trkpt lat="25.452552" lon="99.257303">
<time>2014-08-04T23:29:14Z</time></trkpt>
<trkpt lat="25.452562" lon="99.257213">
<time>2014-08-04T23:29:15Z</time></trkpt>
<trkpt lat="25.452562" lon="99.257163">
<time>2014-08-04T23:29:16Z</time></trkpt>
<trkpt lat="25.452552" lon="99.257113">
<time>2014-08-04T23:29:17Z</time></trkpt>
<trkpt lat="25.452552" lon="99.257043">
<time>2014-08-04T23:29:18Z</time></trkpt>
<trkpt lat="25.452552" lon="99.257003">
<time>2014-08-04T23:29:19Z</time></trkpt>
<trkpt lat="25.452542" lon="99.256924">
<time>2014-08-04T23:29:20Z</time></trkpt>
<trkpt lat="25.452532" lon="99.256844">
<time>2014-08-04T23:29:21Z</time></trkpt>
<trkpt lat="25.452532" lon="99.256794">
<time>2014-08-04T23:29:22Z</time></trkpt>
<trkpt lat="25.452522" lon="99.256724">
<time>2014-08-04T23:29:23Z</time></trkpt>
<trkpt lat="25.452522" lon="99.256674">
<time>2014-08-04T23:29:24Z</time></trkpt>
<trkpt lat="25.452522" lon="99.256624">
<time>2014-08-04T23:29:25Z</time></trkpt>
<trkpt lat="25.452522" lon="99.256584">
<time>2014-08-04T23:29:26Z</time></trkpt>
<trkpt lat="25.452532" lon="99.256534">
<time>2014-08-04T23:29:27Z</time></trkpt>
<trkpt lat="25.452532" lon="99.256504">
<time>2014-08-04T23:29:28Z</time></trkpt>
<trkpt lat="25.452542" lon="99.256454">
<time>2014-08-04T23:29:29Z</time></trkpt>
<trkpt lat="25.452552" lon="99.256414">
<time>2014-08-04T23:29:30Z</time></trkpt>
<trkpt lat="25.452562" lon="99.256364">
<time>2014-08-04T23:29:31Z</time></trkpt>
<trkpt lat="25.452582" lon="99.256314">
<time>2014-08-04T23:29:32Z</time></trkpt>
<trkpt lat="25.452602" lon="99.256274">
<time>2014-08-04T23:29:33Z</time></trkpt>
<trkpt lat="25.452612" lon="99.256244">
<time>2014-08-04T23:29:34Z</time></trkpt>
<trkpt lat="25.452622" lon="99.256214">
<time>2014-08-04T23:29:35Z</time></trkpt>
<trkpt lat="25.452652" lon="99.256174">
<time>2014-08-04T23:29:36Z</time></trkpt>
<trkpt lat="25.452662" lon="99.256174">
<time>2014-08-04T23:29:37Z</time></trkpt>
<trkpt lat="25.452682" lon="99.256144">
<time>2014-08-04T23:29:38Z</time></trkpt>
<trkpt lat="25.452712" lon="99.256104">
<time>2014-08-04T23:29:39Z</time></trkpt>
<trkpt lat="25.452742" lon="99.256074">
<time>2014-08-04T23:29:40Z</time></trkpt>
<trkpt lat="25.452772" lon="99.256044">
<time>2014-08-04T23:29:41Z</time></trkpt>
<trkpt lat="25.452812" lon="99.256004">
<time>2014-08-04T23:29:42Z</time></trkpt>
<trkpt lat="25.452902" lon="99.255925">
<time>2014-08-04T23:29:43Z</time></trkpt>
<trkpt lat="25.452972" lon="99.255865">
<time>2014-08-04T23:29:44Z</time></trkpt>
<trkpt lat="25.453022" lon="99.255805">
<time>2014-08-04T23:29:45Z</time></trkpt>
<trkpt lat="25.453062" lon="99.255765">
<time>2014-08-04T23:29:46Z</time></trkpt>
<trkpt lat="25.453092" lon="99.255735">
<time>2014-08-04T23:29:47Z</time></trkpt>
<trkpt lat="25.453152" lon="99.255655">
<time>2014-08-04T23:29:48Z</time></trkpt>
<trkpt lat="25.453192" lon="99.255615">
<time>2014-08-04T23:29:49Z</time></trkpt>
<trkpt lat="25.453242" lon="99.255545">
<time>2014-08-04T23:29:50Z</time></trkpt>
<trkpt lat="25.453282" lon="99.255485">
<time>2014-08-04T23:29:51Z</time></trkpt>
<trkpt lat="25.453322" lon="99.255425">
<time>2014-08-04T23:29:52Z</time></trkpt>
<trkpt lat="25.453362" lon="99.255365">
<time>2014-08-04T23:29:53Z</time></trkpt>
<trkpt lat="25.453393" lon="99.255315">
<time>2014-08-04T23:29:54Z</time></trkpt>
<trkpt lat="25.453493" lon="99.255145">
<time>2014-08-04T23:29:55Z</time></trkpt>
<trkpt lat="25.453673" lon="99.254836">
<time>2014-08-04T23:29:56Z</time></trkpt>
<trkpt lat="25.453803" lon="99.254616">
<time>2014-08-04T23:29:57Z</time></trkpt>
<trkpt lat="25.453853" lon="99.254546">
<time>2014-08-04T23:29:58Z</time></trkpt>
<trkpt lat="25.453893" lon="99.254496">
<time>2014-08-04T23:29:59Z</time></trkpt>
<trkpt lat="25.453893" lon="99.254486">
<time>2014-08-04T23:30:00Z</time></trkpt>
<trkpt lat="25.453943" lon="99.254426">
<time>2014-08-04T23:30:01Z</time></trkpt>
<trkpt lat="25.454003" lon="99.254356">
<time>2014-08-04T23:30:02Z</time></trkpt>
<trkpt lat="25.454043" lon="99.254316">
<time>2014-08-04T23:30:03Z</time></trkpt>
<trkpt lat="25.454093" lon="99.254276">
<time>2014-08-04T23:30:04Z</time></trkpt>
<trkpt lat="25.454123" lon="99.254256">
<time>2014-08-04T23:30:05Z</time></trkpt>
<trkpt lat="25.454173" lon="99.254216">
<time>2014-08-04T23:30:06Z</time></trkpt>
<trkpt lat="25.454243" lon="99.254186">
<time>2014-08-04T23:30:07Z</time></trkpt>
<trkpt lat="25.454303" lon="99.254156">
<time>2014-08-04T23:30:08Z</time></trkpt>
<trkpt lat="25.454443" lon="99.254106">
<time>2014-08-04T23:30:09Z</time></trkpt>
<trkpt lat="25.454693" lon="99.254016">
<time>2014-08-04T23:30:10Z</time></trkpt>
<trkpt lat="25.454833" lon="99.253956">
<time>2014-08-04T23:30:11Z</time></trkpt>
<trkpt lat="25.455003" lon="99.253897">
<time>2014-08-04T23:30:12Z</time></trkpt>
<trkpt lat="25.455293" lon="99.253777">
<time>2014-08-04T23:30:13Z</time></trkpt>
<trkpt lat="25.455373" lon="99.253737">
<time>2014-08-04T23:30:14Z</time></trkpt>
<trkpt lat="25.455473" lon="99.253677">
<time>2014-08-04T23:30:15Z</time></trkpt>
<trkpt lat="25.455523" lon="99.253647">
<time>2014-08-04T23:30:16Z</time></trkpt>
<trkpt lat="25.455563" lon="99.253597">
<time>2014-08-04T23:30:17Z</time></trkpt>
<trkpt lat="25.455603" lon="99.253557">
<time>2014-08-04T23:30:18Z</time></trkpt>
<trkpt lat="25.455643" lon="99.253517">
<time>2014-08-04T23:30:19Z</time></trkpt>
<trkpt lat="25.455663" lon="99.253487">
<time>2014-08-04T23:30:20Z</time></trkpt>
<trkpt lat="25.455693" lon="99.253447">
<time>2014-08-04T23:30:21Z</time></trkpt>
<trkpt lat="25.455703" lon="99.253407">
<time>2014-08-04T23:30:22Z</time></trkpt>
<trkpt lat="25.455724" lon="99.253377">
<time>2014-08-04T23:30:23Z</time></trkpt>
<trkpt lat="25.455734" lon="99.253347">
<time>2014-08-04T23:30:24Z</time></trkpt>
<trkpt lat="25.455744" lon="99.253297">
<time>2014-08-04T23:30:25Z</time></trkpt>
<trkpt lat="25.455754" lon="99.253257">
<time>2014-08-04T23:30:26Z</time></trkpt>
<trkpt lat="25.455764" lon="99.253197">
<time>2014-08-04T23:30:27Z</time></trkpt>
<trkpt lat="25.455764" lon="99.253137">
<time>2014-08-04T23:30:28Z</time></trkpt>
<trkpt lat="25.455774" lon="99.253087">
<time>2014-08-04T23:30:29Z</time></trkpt>
<trkpt lat="25.455774" lon="99.253047">
<time>2014-08-04T23:30:30Z</time></trkpt>
<trkpt lat="25.455774" lon="99.252897">
<time>2014-08-04T23:30:31Z</time></trkpt>
<trkpt lat="25.455774" lon="99.252588">
<time>2014-08-04T23:30:32Z</time></trkpt>
<trkpt lat="25.455774" lon="99.252468">
<time>2014-08-04T23:30:33Z</time></trkpt>
<trkpt lat="25.455774" lon="99.252398">
<time>2014-08-04T23:30:34Z</time></trkpt>
<trkpt lat="25.455774" lon="99.252308">
<time>2014-08-04T23:30:35Z</time></trkpt>
<trkpt lat="25.455784" lon="99.252248">
<time>2014-08-04T23:30:36Z</time></trkpt>
<trkpt lat="25.455784" lon="99.252198">
<time>2014-08-04T23:30:37Z</time></trkpt>
<trkpt lat="25.455794" lon="99.252148">
<time>2014-08-04T23:30:38Z</time></trkpt>
<trkpt lat="25.455804" lon="99.252068">
<time>2014-08-04T23:30:39Z</time></trkpt>
<trkpt lat="25.455824" lon="99.251978">
<time>2014-08-04T23:30:40Z</time></trkpt>
<trkpt lat="25.455844" lon="99.251928">
<time>2014-08-04T23:30:41Z</time></trkpt>
<trkpt lat="25.455854" lon="99.251868">
<time>2014-08-04T23:30:42Z</time></trkpt>
<trkpt lat="25.455874" lon="99.251818">
<time>2014-08-04T23:30:43Z</time></trkpt>
<trkpt lat="25.455894" lon="99.251768">
<time>2014-08-04T23:30:44Z</time></trkpt>
<trkpt lat="25.455904" lon="99.251738">
<time>2014-08-04T23:30:45Z</time></trkpt>
<trkpt lat="25.455924" lon="99.251688">
<time>2014-08-04T23:30:46Z</time></trkpt>
<trkpt lat="25.455944" lon="99.251639">
<time>2014-08-04T23:30:47Z</time></trkpt>
<trkpt lat="25.455974" lon="99.251579">
<time>2014-08-04T23:30:48Z</time></trkpt>
<trkpt lat="25.455994" lon="99.251539">
<time>2014-08-04T23:30:49Z</time></trkpt>
<trkpt lat="25.456024" lon="99.251489">
<time>2014-08-04T23:30:50Z</time></trkpt>
<trkpt lat="25.456054" lon="99.251429">
<time>2014-08-04T23:30:51Z</time></trkpt>
<trkpt lat="25.456074" lon="99.251399">
<time>2014-08-04T23:30:52Z</time></trkpt>
<trkpt lat="25.456104" lon="99.251359">
<time>2014-08-04T23:30:53Z</time></trkpt>
<trkpt lat="25.456134" lon="99.251309">
<time>2014-08-04T23:30:54Z</time></trkpt>
<trkpt lat="25.456164" lon="99.251269">
<time>2014-08-04T23:30:55Z</time></trkpt>
<trkpt lat="25.456194" lon="99.251229">
<time>2014-08-04T23:30:56Z</time></trkpt>
<trkpt lat="25.456224" lon="99.251199">
<time>2014-08-04T23:30:57Z</time></trkpt>
<trkpt lat="25.456254" lon="99.251179">
<time>2014-08-04T23:30:58Z</time></trkpt>
<trkpt lat="25.456294" lon="99.251139">
<time>2014-08-04T23:30:59Z</time></trkpt>
<trkpt lat="25.456314" lon="99.251119">
<time>2014-08-04T23:31:00Z</time></trkpt>
<trkpt lat="25.456344" lon="99.251089">
<time>2014-08-04T23:31:01Z</time></trkpt>
<trkpt lat="25.456364" lon="99.251079">
<time>2014-08-04T23:31:02Z</time></trkpt>
<trkpt lat="25.456404" lon="99.251049">
<time>2014-08-04T23:31:03Z</time></trkpt>
<trkpt lat="25.456434" lon="99.251029">
<time>2014-08-04T23:31:04Z</time></trkpt>
<trkpt lat="25.456454" lon="99.251009">
<time>2014-08-04T23:31:05Z</time></trkpt>
<trkpt lat="25.456514" lon="99.250969">
<time>2014-08-04T23:31:06Z</time></trkpt>
<trkpt lat="25.456724" lon="99.250829">
<time>2014-08-04T23:31:07Z</time></trkpt>
<trkpt lat="25.456904" lon="99.250699">
<time>2014-08-04T23:31:08Z</time></trkpt>
<trkpt lat="25.457014" lon="99.250629">
<time>2014-08-04T23:31:09Z</time></trkpt>
<trkpt lat="25.457064" lon="99.250589">
<time>2014-08-04T23:31:10Z</time></trkpt>
<trkpt lat="25.457114" lon="99.250559">
<time>2014-08-04T23:31:11Z</time></trkpt>
<trkpt lat="25.457144" lon="99.250519">
<time>2014-08-04T23:31:12Z</time></trkpt>
<trkpt lat="25.457164" lon="99.250499">
<time>2014-08-04T23:31:13Z</time></trkpt>
<trkpt lat="25.457194" lon="99.250459">
<time>2014-08-04T23:31:14Z</time></trkpt>
<trkpt lat="25.457204" lon="99.250429">
<time>2014-08-04T23:31:15Z</time></trkpt>
<trkpt lat="25.457224" lon="99.250389">
<time>2014-08-04T23:31:16Z</time></trkpt>
<trkpt lat="25.457244" lon="99.25035">
<time>2014-08-04T23:31:17Z</time></trkpt>
<trkpt lat="25.457254" lon="99.25031">
<time>2014-08-04T23:31:18Z</time></trkpt>
<trkpt lat="25.457264" lon="99.25027">
<time>2014-08-04T23:31:19Z</time></trkpt>
<trkpt lat="25.457274" lon="99.25021">
<time>2014-08-04T23:31:20Z</time></trkpt>
<trkpt lat="25.457284" lon="99.25014">
<time>2014-08-04T23:31:21Z</time></trkpt>
<trkpt lat="25.457294" lon="99.25006">
<time>2014-08-04T23:31:22Z</time></trkpt>
<trkpt lat="25.457294" lon="99.25002">
<time>2014-08-04T23:31:23Z</time></trkpt>
<trkpt lat="25.457304" lon="99.24961">
<time>2014-08-04T23:31:24Z</time></trkpt>
<trkpt lat="25.457314" lon="99.248851">
<time>2014-08-04T23:31:25Z</time></trkpt>
<trkpt lat="25.457324" lon="99.248301">
<time>2014-08-04T23:31:26Z</time></trkpt>
<trkpt lat="25.457334" lon="99.248061">
<time>2014-08-04T23:31:27Z</time></trkpt>
<trkpt lat="25.457374" lon="99.247871">
<time>2014-08-04T23:31:28Z</time></trkpt>
<trkpt lat="25.457444" lon="99.247661">
<time>2014-08-04T23:31:29Z</time></trkpt>
<trkpt lat="25.457524" lon="99.247492">
<time>2014-08-04T23:31:30Z</time></trkpt>
<trkpt lat="25.457664" lon="99.247212">
<time>2014-08-04T23:31:31Z</time></trkpt>
<trkpt lat="25.457794" lon="99.246942">
<time>2014-08-04T23:31:32Z</time></trkpt>
<trkpt lat="25.457884" lon="99.246672">
<time>2014-08-04T23:31:33Z</time></trkpt>
<trkpt lat="25.458034" lon="99.246112">
<time>2014-08-04T23:31:34Z</time></trkpt>
<trkpt lat="25.458224" lon="99.244953">
<time>2014-08-04T23:31:35Z</time></trkpt>
<trkpt lat="25.458594" lon="99.242884">
<time>2014-08-04T23:31:36Z</time></trkpt>
<trkpt lat="25.458954" lon="99.242065">
<time>2014-08-04T23:31:37Z</time></trkpt>
<trkpt lat="25.459514" lon="99.241325">
<time>2014-08-04T23:31:38Z</time></trkpt>
<trkpt lat="25.460214" lon="99.240745">
<time>2014-08-04T23:31:39Z</time></trkpt>
<trkpt lat="25.461414" lon="99.240105">
<time>2014-08-04T23:31:40Z</time></trkpt>
<trkpt lat="25.461854" lon="99.239825">
<time>2014-08-04T23:31:41Z</time></trkpt>
<trkpt lat="25.462284" lon="99.239416">
<time>2014-08-04T23:31:42Z</time></trkpt>
<trkpt lat="25.462614" lon="99.239036">
<time>2014-08-04T23:31:43Z</time></trkpt>
<trkpt lat="25.462934" lon="99.238546">
<time>2014-08-04T23:31:44Z</time></trkpt>
<trkpt lat="25.463483" lon="99.237416">
<time>2014-08-04T23:31:45Z</time></trkpt>
<trkpt lat="25.463793" lon="99.236756">
<time>2014-08-04T23:31:46Z</time></trkpt>
<trkpt lat="25.464013" lon="99.236286">
<time>2014-08-04T23:31:47Z</time></trkpt>
<trkpt lat="25.464163" lon="99.235807">
<time>2014-08-04T23:31:48Z</time></trkpt>
<trkpt lat="25.464253" lon="99.235307">
<time>2014-08-04T23:31:49Z</time></trkpt>
<trkpt lat="25.464312" lon="99.233917">
<time>2014-08-04T23:31:50Z</time></trkpt>
<trkpt lat="25.464311" lon="99.231997">
<time>2014-08-04T23:31:51Z</time></trkpt>
<trkpt lat="25.46431" lon="99.231107">
<time>2014-08-04T23:31:52Z</time></trkpt>
<trkpt lat="25.46441" lon="99.230567">
<time>2014-08-04T23:31:53Z</time></trkpt>
<trkpt lat="25.46467" lon="99.230087">
<time>2014-08-04T23:31:54Z</time></trkpt>
<trkpt lat="25.465469" lon="99.228827">
<time>2014-08-04T23:31:55Z</time></trkpt>
<trkpt lat="25.465948" lon="99.228067">
<time>2014-08-04T23:31:56Z</time></trkpt>
<trkpt lat="25.466398" lon="99.227627">
<time>2014-08-04T23:31:57Z</time></trkpt>
<trkpt lat="25.466908" lon="99.227307">
<time>2014-08-04T23:31:58Z</time></trkpt>
<trkpt lat="25.468528" lon="99.226797">
<time>2014-08-04T23:31:59Z</time></trkpt>
<trkpt lat="25.469188" lon="99.226637">
<time>2014-08-04T23:32:00Z</time></trkpt>
<trkpt lat="25.469458" lon="99.226547">
<time>2014-08-04T23:32:01Z</time></trkpt>
<trkpt lat="25.469898" lon="99.226467">
<time>2014-08-04T23:32:02Z</time></trkpt>
<trkpt lat="25.470408" lon="99.226507">
<time>2014-08-04T23:32:03Z</time></trkpt>
<trkpt lat="25.470829" lon="99.226627">
<time>2014-08-04T23:32:04Z</time></trkpt>
<trkpt lat="25.471039" lon="99.226727">
<time>2014-08-04T23:32:05Z</time></trkpt>
<trkpt lat="25.47308" lon="99.227727">
<time>2014-08-04T23:32:06Z</time></trkpt>
<trkpt lat="25.47347" lon="99.227907">
<time>2014-08-04T23:32:07Z</time></trkpt>
<trkpt lat="25.473551" lon="99.227927">
<time>2014-08-04T23:32:08Z</time></trkpt>
<trkpt lat="25.473681" lon="99.227937">
<time>2014-08-04T23:32:09Z</time></trkpt>
<trkpt lat="25.473941" lon="99.227917">
<time>2014-08-04T23:32:10Z</time></trkpt>
<trkpt lat="25.474071" lon="99.227867">
<time>2014-08-04T23:32:11Z</time></trkpt>
<trkpt lat="25.474271" lon="99.227777">
<time>2014-08-04T23:32:12Z</time></trkpt>
<trkpt lat="25.474621" lon="99.227587">
<time>2014-08-04T23:32:13Z</time></trkpt>
<trkpt lat="25.474801" lon="99.227487">
<time>2014-08-04T23:32:14Z</time></trkpt>
<trkpt lat="25.47519" lon="99.227277">
<time>2014-08-04T23:32:15Z</time></trkpt>
<trkpt lat="25.47562" lon="99.227017">
<time>2014-08-04T23:32:16Z</time></trkpt>
<trkpt lat="25.47592" lon="99.226797">
<time>2014-08-04T23:32:17Z</time></trkpt>
<trkpt lat="25.47615" lon="99.226506">
<time>2014-08-04T23:32:18Z</time></trkpt>
<trkpt lat="25.47632" lon="99.226126">
<time>2014-08-04T23:32:19Z</time></trkpt>
<trkpt lat="25.47641" lon="99.225806">
<time>2014-08-04T23:32:20Z</time></trkpt>
<trkpt lat="25.476529" lon="99.225196">
<time>2014-08-04T23:32:21Z</time></trkpt>
<trkpt lat="25.476649" lon="99.224656">
<time>2014-08-04T23:32:22Z</time></trkpt>
<trkpt lat="25.476738" lon="99.224276">
<time>2014-08-04T23:32:23Z</time></trkpt>
<trkpt lat="25.476978" lon="99.223916">
<time>2014-08-04T23:32:24Z</time></trkpt>
<trkpt lat="25.478217" lon="99.222816">
<time>2014-08-04T23:32:25Z</time></trkpt>
<trkpt lat="25.478557" lon="99.222536">
<time>2014-08-04T23:32:26Z</time></trkpt>
<trkpt lat="25.478747" lon="99.222405">
<time>2014-08-04T23:32:27Z</time></trkpt>
<trkpt lat="25.478917" lon="99.222295">
<time>2014-08-04T23:32:28Z</time></trkpt>
<trkpt lat="25.479047" lon="99.222215">
<time>2014-08-04T23:32:29Z</time></trkpt>
<trkpt lat="25.479437" lon="99.222035">
<time>2014-08-04T23:32:30Z</time></trkpt>
<trkpt lat="25.479707" lon="99.221915">
<time>2014-08-04T23:32:31Z</time></trkpt>
<trkpt lat="25.479847" lon="99.221835">
<time>2014-08-04T23:32:32Z</time></trkpt>
<trkpt lat="25.479957" lon="99.221755">
<time>2014-08-04T23:32:33Z</time></trkpt>
<trkpt lat="25.480047" lon="99.221695">
<time>2014-08-04T23:32:34Z</time></trkpt>
<trkpt lat="25.480317" lon="99.221405">
<time>2014-08-04T23:32:35Z</time></trkpt>
<trkpt lat="25.480367" lon="99.221355">
<time>2014-08-04T23:32:36Z</time></trkpt>
<trkpt lat="25.480497" lon="99.221185">
<time>2014-08-04T23:32:37Z</time></trkpt>
<trkpt lat="25.480636" lon="99.221025">
<time>2014-08-04T23:32:38Z</time></trkpt>
<trkpt lat="25.480756" lon="99.220885">
<time>2014-08-04T23:32:39Z</time></trkpt>
<trkpt lat="25.480916" lon="99.220745">
<time>2014-08-04T23:32:40Z</time></trkpt>
<trkpt lat="25.481096" lon="99.220605">
<time>2014-08-04T23:32:41Z</time></trkpt>
<trkpt lat="25.481346" lon="99.220445">
<time>2014-08-04T23:32:42Z</time></trkpt>
<trkpt lat="25.482696" lon="99.219614">
<time>2014-08-04T23:32:43Z</time></trkpt>
<trkpt lat="25.482766" lon="99.219554">
<time>2014-08-04T23:32:44Z</time></trkpt>
<trkpt lat="25.482855" lon="99.219484">
<time>2014-08-04T23:32:45Z</time></trkpt>
<trkpt lat="25.482925" lon="99.219414">
<time>2014-08-04T23:32:46Z</time></trkpt>
<trkpt lat="25.482985" lon="99.219354">
<time>2014-08-04T23:32:47Z</time></trkpt>
<trkpt lat="25.483165" lon="99.219134">
<time>2014-08-04T23:32:48Z</time></trkpt>
<trkpt lat="25.483335" lon="99.218904">
<time>2014-08-04T23:32:49Z</time></trkpt>
<trkpt lat="25.483605" lon="99.218634">
<time>2014-08-04T23:32:50Z</time></trkpt>
<trkpt lat="25.483905" lon="99.218404">
<time>2014-08-04T23:32:51Z</time></trkpt>
<trkpt lat="25.484265" lon="99.218284">
<time>2014-08-04T23:32:52Z</time></trkpt>
<trkpt lat="25.485025" lon="99.218084">
<time>2014-08-04T23:32:53Z</time></trkpt>
<trkpt lat="25.485255" lon="99.217994">
<time>2014-08-04T23:32:54Z</time></trkpt>
<trkpt lat="25.485685" lon="99.217814">
<time>2014-08-04T23:32:55Z</time></trkpt>
<trkpt lat="25.486144" lon="99.217493">
<time>2014-08-04T23:32:56Z</time></trkpt>
<trkpt lat="25.486494" lon="99.217103">
<time>2014-08-04T23:32:57Z</time></trkpt>
<trkpt lat="25.486804" lon="99.216633">
<time>2014-08-04T23:32:58Z</time></trkpt>
<trkpt lat="25.486873" lon="99.216443">
<time>2014-08-04T23:32:59Z</time></trkpt>
<trkpt lat="25.487013" lon="99.215903">
<time>2014-08-04T23:33:00Z</time></trkpt>
<trkpt lat="25.487043" lon="99.215753">
<time>2014-08-04T23:33:01Z</time></trkpt>
<trkpt lat="25.487062" lon="99.215582">
<time>2014-08-04T23:33:02Z</time></trkpt>
<trkpt lat="25.487122" lon="99.214982">
<time>2014-08-04T23:33:03Z</time></trkpt>
<trkpt lat="25.487311" lon="99.214262">
<time>2014-08-04T23:33:04Z</time></trkpt>
<trkpt lat="25.487391" lon="99.214002">
<time>2014-08-04T23:33:05Z</time></trkpt>
<trkpt lat="25.48764" lon="99.213511">
<time>2014-08-04T23:33:06Z</time></trkpt>
<trkpt lat="25.48788" lon="99.213181">
<time>2014-08-04T23:33:07Z</time></trkpt>
<trkpt lat="25.488" lon="99.213051">
<time>2014-08-04T23:33:08Z</time></trkpt>
<trkpt lat="25.488119" lon="99.212871">
<time>2014-08-04T23:33:09Z</time></trkpt>
<trkpt lat="25.488319" lon="99.212601">
<time>2014-08-04T23:33:10Z</time></trkpt>
<trkpt lat="25.488539" lon="99.212341">
<time>2014-08-04T23:33:11Z</time></trkpt>
<trkpt lat="25.489308" lon="99.21143">
<time>2014-08-04T23:33:12Z</time></trkpt>
<trkpt lat="25.489777" lon="99.21085">
<time>2014-08-04T23:33:13Z</time></trkpt>
<trkpt lat="25.490187" lon="99.210359">
<time>2014-08-04T23:33:14Z</time></trkpt>
<trkpt lat="25.490696" lon="99.209749">
<time>2014-08-04T23:33:15Z</time></trkpt>
<trkpt lat="25.491046" lon="99.209328">
<time>2014-08-04T23:33:16Z</time></trkpt>
<trkpt lat="25.491265" lon="99.209058">
<time>2014-08-04T23:33:17Z</time></trkpt>
<trkpt lat="25.491355" lon="99.208958">
<time>2014-08-04T23:33:18Z</time></trkpt>
<trkpt lat="25.491425" lon="99.208848">
<time>2014-08-04T23:33:19Z</time></trkpt>
<trkpt lat="25.491475" lon="99.208728">
<time>2014-08-04T23:33:20Z</time></trkpt>
<trkpt lat="25.491515" lon="99.208618">
<time>2014-08-04T23:33:21Z</time></trkpt>
<trkpt lat="25.491545" lon="99.208488">
<time>2014-08-04T23:33:22Z</time></trkpt>
<trkpt lat="25.491555" lon="99.208388">
<time>2014-08-04T23:33:23Z</time></trkpt>
<trkpt lat="25.491564" lon="99.208188">
<time>2014-08-04T23:33:24Z</time></trkpt>
<trkpt lat="25.491573" lon="99.207197">
<time>2014-08-04T23:33:25Z</time></trkpt>
<trkpt lat="25.491592" lon="99.206897">
<time>2014-08-04T23:33:26Z</time></trkpt>
<trkpt lat="25.491612" lon="99.206736">
<time>2014-08-04T23:33:27Z</time></trkpt>
<trkpt lat="25.491642" lon="99.206616">
<time>2014-08-04T23:33:28Z</time></trkpt>
<trkpt lat="25.491682" lon="99.206526">
<time>2014-08-04T23:33:29Z</time></trkpt>
<trkpt lat="25.492171" lon="99.205806">
<time>2014-08-04T23:33:30Z</time></trkpt>
<trkpt lat="25.49295" lon="99.204675">
<time>2014-08-04T23:33:31Z</time></trkpt>
<trkpt lat="25.493768" lon="99.203504">
<time>2014-08-04T23:33:32Z</time></trkpt>
<trkpt lat="25.494048" lon="99.203073">
<time>2014-08-04T23:33:33Z</time></trkpt>
<trkpt lat="25.494237" lon="99.202753">
<time>2014-08-04T23:33:34Z</time></trkpt>
<trkpt lat="25.494327" lon="99.202493">
<time>2014-08-04T23:33:35Z</time></trkpt>
<trkpt lat="25.494377" lon="99.202303">
<time>2014-08-04T23:33:36Z</time></trkpt>
<trkpt lat="25.494406" lon="99.202072">
<time>2014-08-04T23:33:37Z</time></trkpt>
<trkpt lat="25.494386" lon="99.201852">
<time>2014-08-04T23:33:38Z</time></trkpt>
<trkpt lat="25.494366" lon="99.201612">
<time>2014-08-04T23:33:39Z</time></trkpt>
<trkpt lat="25.494295" lon="99.201352">
<time>2014-08-04T23:33:40Z</time></trkpt>
<trkpt lat="25.494205" lon="99.201071">
<time>2014-08-04T23:33:41Z</time></trkpt>
<trkpt lat="25.494154" lon="99.200921">
<time>2014-08-04T23:33:42Z</time></trkpt>
<trkpt lat="25.494114" lon="99.200601">
<time>2014-08-04T23:33:43Z</time></trkpt>
<trkpt lat="25.494113" lon="99.200131">
<time>2014-08-04T23:33:44Z</time></trkpt>
<trkpt lat="25.494193" lon="99.19973">
<time>2014-08-04T23:33:45Z</time></trkpt>
<trkpt lat="25.494422" lon="99.19924">
<time>2014-08-04T23:33:46Z</time></trkpt>
<trkpt lat="25.494691" lon="99.198889">
<time>2014-08-04T23:33:47Z</time></trkpt>
<trkpt lat="25.49548" lon="99.198129">
<time>2014-08-04T23:33:48Z</time></trkpt>
<trkpt lat="25.49595" lon="99.197628">
<time>2014-08-04T23:33:49Z</time></trkpt>
<trkpt lat="25.496509" lon="99.197098">
<time>2014-08-04T23:33:50Z</time></trkpt>
<trkpt lat="25.496839" lon="99.196827">
<time>2014-08-04T23:33:51Z</time></trkpt>
<trkpt lat="25.497079" lon="99.196677">
<time>2014-08-04T23:33:52Z</time></trkpt>
<trkpt lat="25.497289" lon="99.196617">
<time>2014-08-04T23:33:53Z</time></trkpt>
<trkpt lat="25.497489" lon="99.196577">
<time>2014-08-04T23:33:54Z</time></trkpt>
<trkpt lat="25.497759" lon="99.196587">
<time>2014-08-04T23:33:55Z</time></trkpt>
<trkpt lat="25.497979" lon="99.196617">
<time>2014-08-04T23:33:56Z</time></trkpt>
<trkpt lat="25.49883" lon="99.196987">
<time>2014-08-04T23:33:57Z</time></trkpt>
<trkpt lat="25.49909" lon="99.197097">
<time>2014-08-04T23:33:58Z</time></trkpt>
<trkpt lat="25.499631" lon="99.197418">
<time>2014-08-04T23:33:59Z</time></trkpt>
<trkpt lat="25.499921" lon="99.197578">
<time>2014-08-04T23:34:00Z</time></trkpt>
<trkpt lat="25.499981" lon="99.197608">
<time>2014-08-04T23:34:01Z</time></trkpt>
<trkpt lat="25.500021" lon="99.197618">
<time>2014-08-04T23:34:02Z</time></trkpt>
<trkpt lat="25.500071" lon="99.197628">
<time>2014-08-04T23:34:03Z</time></trkpt>
<trkpt lat="25.500141" lon="99.197638">
<time>2014-08-04T23:34:04Z</time></trkpt>
<trkpt lat="25.500191" lon="99.197638">
<time>2014-08-04T23:34:05Z</time></trkpt>
<trkpt lat="25.500231" lon="99.197638">
<time>2014-08-04T23:34:06Z</time></trkpt>
<trkpt lat="25.500271" lon="99.197638">
<time>2014-08-04T23:34:07Z</time></trkpt>
<trkpt lat="25.500391" lon="99.197608">
<time>2014-08-04T23:34:08Z</time></trkpt>
<trkpt lat="25.500481" lon="99.197578">
<time>2014-08-04T23:34:09Z</time></trkpt>
<trkpt lat="25.500591" lon="99.197538">
<time>2014-08-04T23:34:10Z</time></trkpt>
<trkpt lat="25.500671" lon="99.197488">
<time>2014-08-04T23:34:11Z</time></trkpt>
<trkpt lat="25.500851" lon="99.197368">
<time>2014-08-04T23:34:12Z</time></trkpt>
<trkpt lat="25.501101" lon="99.197208">
<time>2014-08-04T23:34:13Z</time></trkpt>
<trkpt lat="25.50132" lon="99.197047">
<time>2014-08-04T23:34:14Z</time></trkpt>
<trkpt lat="25.5015" lon="99.196897">
<time>2014-08-04T23:34:15Z</time></trkpt>
<trkpt lat="25.50168" lon="99.196727">
<time>2014-08-04T23:34:16Z</time></trkpt>
<trkpt lat="25.50191" lon="99.196467">
<time>2014-08-04T23:34:17Z</time></trkpt>
<trkpt lat="25.502359" lon="99.195826">
<time>2014-08-04T23:34:18Z</time></trkpt>
<trkpt lat="25.502648" lon="99.195386">
<time>2014-08-04T23:34:19Z</time></trkpt>
<trkpt lat="25.503287" lon="99.194395">
<time>2014-08-04T23:34:20Z</time></trkpt>
<trkpt lat="25.503486" lon="99.194134">
<time>2014-08-04T23:34:21Z</time></trkpt>
<trkpt lat="25.503676" lon="99.193974">
<time>2014-08-04T23:34:22Z</time></trkpt>
<trkpt lat="25.504076" lon="99.193654">
<time>2014-08-04T23:34:23Z</time></trkpt>
<trkpt lat="25.504385" lon="99.193423">
<time>2014-08-04T23:34:24Z</time></trkpt>
<trkpt lat="25.504755" lon="99.193023">
<time>2014-08-04T23:34:25Z</time></trkpt>
<trkpt lat="25.505204" lon="99.192562">
<time>2014-08-04T23:34:26Z</time></trkpt>
<trkpt lat="25.506063" lon="99.191712">
<time>2014-08-04T23:34:27Z</time></trkpt>
<trkpt lat="25.506782" lon="99.191041">
<time>2014-08-04T23:34:28Z</time></trkpt>
<trkpt lat="25.506962" lon="99.190881">
<time>2014-08-04T23:34:29Z</time></trkpt>
<trkpt lat="25.507092" lon="99.19081">
<time>2014-08-04T23:34:30Z</time></trkpt>
<trkpt lat="25.507252" lon="99.19073">
<time>2014-08-04T23:34:31Z</time></trkpt>
<trkpt lat="25.507572" lon="99.19059">
<time>2014-08-04T23:34:32Z</time></trkpt>
<trkpt lat="25.507821" lon="99.19044">
<time>2014-08-04T23:34:33Z</time></trkpt>
<trkpt lat="25.507981" lon="99.19028">
<time>2014-08-04T23:34:34Z</time></trkpt>
<trkpt lat="25.508141" lon="99.1901">
<time>2014-08-04T23:34:35Z</time></trkpt>
<trkpt lat="25.508361" lon="99.189839">
<time>2014-08-04T23:34:36Z</time></trkpt>
<trkpt lat="25.5085" lon="99.189659">
<time>2014-08-04T23:34:37Z</time></trkpt>
<trkpt lat="25.50862" lon="99.189529">
<time>2014-08-04T23:34:38Z</time></trkpt>
<trkpt lat="25.50876" lon="99.189429">
<time>2014-08-04T23:34:39Z</time></trkpt>
<trkpt lat="25.50891" lon="99.189359">
<time>2014-08-04T23:34:40Z</time></trkpt>
<trkpt lat="25.50906" lon="99.189289">
<time>2014-08-04T23:34:41Z</time></trkpt>
<trkpt lat="25.50916" lon="99.189239">
<time>2014-08-04T23:34:42Z</time></trkpt>
<trkpt lat="25.50926" lon="99.189179">
<time>2014-08-04T23:34:43Z</time></trkpt>
<trkpt lat="25.50939" lon="99.189088">
<time>2014-08-04T23:34:44Z</time></trkpt>
<trkpt lat="25.509749" lon="99.188748">
<time>2014-08-04T23:34:45Z</time></trkpt>
<trkpt lat="25.509949" lon="99.188518">
<time>2014-08-04T23:34:46Z</time></trkpt>
<trkpt lat="25.510108" lon="99.188318">
<time>2014-08-04T23:34:47Z</time></trkpt>
<trkpt lat="25.510218" lon="99.188117">
<time>2014-08-04T23:34:48Z</time></trkpt>
<trkpt lat="25.510218" lon="99.188107">
<time>2014-08-04T23:34:49Z</time></trkpt>
<trkpt lat="25.510437" lon="99.187617">
<time>2014-08-04T23:34:50Z</time></trkpt>
<trkpt lat="25.510875" lon="99.186455">
<time>2014-08-04T23:34:51Z</time></trkpt>
<trkpt lat="25.510945" lon="99.186255">
<time>2014-08-04T23:34:52Z</time></trkpt>
<trkpt lat="25.511005" lon="99.186155">
<time>2014-08-04T23:34:53Z</time></trkpt>
<trkpt lat="25.511045" lon="99.186085">
<time>2014-08-04T23:34:54Z</time></trkpt>
<trkpt lat="25.511075" lon="99.186065">
<time>2014-08-04T23:34:55Z</time></trkpt>
<trkpt lat="25.511095" lon="99.186035">
<time>2014-08-04T23:34:56Z</time></trkpt>
<trkpt lat="25.511155" lon="99.185985">
<time>2014-08-04T23:34:57Z</time></trkpt>
<trkpt lat="25.511255" lon="99.185915">
<time>2014-08-04T23:34:58Z</time></trkpt>
<trkpt lat="25.511414" lon="99.185825">
<time>2014-08-04T23:34:59Z</time></trkpt>
<trkpt lat="25.511694" lon="99.185694">
<time>2014-08-04T23:35:00Z</time></trkpt>
<trkpt lat="25.512034" lon="99.185524">
<time>2014-08-04T23:35:01Z</time></trkpt>
<trkpt lat="25.514033" lon="99.184753">
<time>2014-08-04T23:35:02Z</time></trkpt>
<trkpt lat="25.514173" lon="99.184733">
<time>2014-08-04T23:35:03Z</time></trkpt>
<trkpt lat="25.514343" lon="99.184743">
<time>2014-08-04T23:35:04Z</time></trkpt>
<trkpt lat="25.514554" lon="99.184763">
<time>2014-08-04T23:35:05Z</time></trkpt>
<trkpt lat="25.515324" lon="99.184833">
<time>2014-08-04T23:35:06Z</time></trkpt>
<trkpt lat="25.515744" lon="99.184823">
<time>2014-08-04T23:35:07Z</time></trkpt>
<trkpt lat="25.515984" lon="99.184823">
<time>2014-08-04T23:35:08Z</time></trkpt>
<trkpt lat="25.516334" lon="99.184853">
<time>2014-08-04T23:35:09Z</time></trkpt>
<trkpt lat="25.516625" lon="99.184913">
<time>2014-08-04T23:35:10Z</time></trkpt>
<trkpt lat="25.516695" lon="99.184923">
<time>2014-08-04T23:35:11Z</time></trkpt>
<trkpt lat="25.516755" lon="99.184923">
<time>2014-08-04T23:35:12Z</time></trkpt>
<trkpt lat="25.516815" lon="99.184913">
<time>2014-08-04T23:35:13Z</time></trkpt>
<trkpt lat="25.516875" lon="99.184893">
<time>2014-08-04T23:35:14Z</time></trkpt>
<trkpt lat="25.516945" lon="99.184853">
<time>2014-08-04T23:35:15Z</time></trkpt>
<trkpt lat="25.517024" lon="99.184803">
<time>2014-08-04T23:35:16Z</time></trkpt>
<trkpt lat="25.517104" lon="99.184703">
<time>2014-08-04T23:35:17Z</time></trkpt>
<trkpt lat="25.517374" lon="99.184333">
<time>2014-08-04T23:35:18Z</time></trkpt>
<trkpt lat="25.517892" lon="99.183542">
<time>2014-08-04T23:35:19Z</time></trkpt>
<trkpt lat="25.518072" lon="99.183291">
<time>2014-08-04T23:35:20Z</time></trkpt>
<trkpt lat="25.518132" lon="99.183191">
<time>2014-08-04T23:35:21Z</time></trkpt>
<trkpt lat="25.518182" lon="99.183081">
<time>2014-08-04T23:35:22Z</time></trkpt>
<trkpt lat="25.518212" lon="99.182971">
<time>2014-08-04T23:35:23Z</time></trkpt>
<trkpt lat="25.518241" lon="99.182851">
<time>2014-08-04T23:35:24Z</time></trkpt>
<trkpt lat="25.518291" lon="99.18246">
<time>2014-08-04T23:35:25Z</time></trkpt>
<trkpt lat="25.518418" lon="99.180818">
<time>2014-08-04T23:35:26Z</time></trkpt>
<trkpt lat="25.518437" lon="99.180588">
<time>2014-08-04T23:35:27Z</time></trkpt>
<trkpt lat="25.518447" lon="99.180348">
<time>2014-08-04T23:35:28Z</time></trkpt>
<trkpt lat="25.518496" lon="99.180107">
<time>2014-08-04T23:35:29Z</time></trkpt>
<trkpt lat="25.518546" lon="99.179937">
<time>2014-08-04T23:35:30Z</time></trkpt>
<trkpt lat="25.518646" lon="99.179717">
<time>2014-08-04T23:35:31Z</time></trkpt>
<trkpt lat="25.518845" lon="99.179376">
<time>2014-08-04T23:35:32Z</time></trkpt>
<trkpt lat="25.518965" lon="99.179166">
<time>2014-08-04T23:35:33Z</time></trkpt>
<trkpt lat="25.518995" lon="99.179076">
<time>2014-08-04T23:35:34Z</time></trkpt>
<trkpt lat="25.519024" lon="99.178996">
<time>2014-08-04T23:35:35Z</time></trkpt>
<trkpt lat="25.519034" lon="99.178906">
<time>2014-08-04T23:35:36Z</time></trkpt>
<trkpt lat="25.519044" lon="99.178776">
<time>2014-08-04T23:35:37Z</time></trkpt>
<trkpt lat="25.519044" lon="99.178635">
<time>2014-08-04T23:35:38Z</time></trkpt>
<trkpt lat="25.519033" lon="99.178475">
<time>2014-08-04T23:35:39Z</time></trkpt>
<trkpt lat="25.518963" lon="99.178035">
<time>2014-08-04T23:35:40Z</time></trkpt>
<trkpt lat="25.518952" lon="99.177894">
<time>2014-08-04T23:35:41Z</time></trkpt>
<trkpt lat="25.518942" lon="99.177754">
<time>2014-08-04T23:35:42Z</time></trkpt>
<trkpt lat="25.518942" lon="99.177604">
<time>2014-08-04T23:35:43Z</time></trkpt>
<trkpt lat="25.518952" lon="99.177454">
<time>2014-08-04T23:35:44Z</time></trkpt>
<trkpt lat="25.518981" lon="99.177304">
<time>2014-08-04T23:35:45Z</time></trkpt>
<trkpt lat="25.519031" lon="99.177164">
<time>2014-08-04T23:35:46Z</time></trkpt>
<trkpt lat="25.519091" lon="99.177023">
<time>2014-08-04T23:35:47Z</time></trkpt>
<trkpt lat="25.519171" lon="99.176883">
<time>2014-08-04T23:35:48Z</time></trkpt>
<trkpt lat="25.51922" lon="99.176823">
<time>2014-08-04T23:35:49Z</time></trkpt>
<trkpt lat="25.51929" lon="99.176753">
<time>2014-08-04T23:35:50Z</time></trkpt>
<trkpt lat="25.51939" lon="99.176653">
<time>2014-08-04T23:35:51Z</time></trkpt>
<trkpt lat="25.51947" lon="99.176603">
<time>2014-08-04T23:35:52Z</time></trkpt>
<trkpt lat="25.51954" lon="99.176563">
<time>2014-08-04T23:35:53Z</time></trkpt>
<trkpt lat="25.51962" lon="99.176523">
<time>2014-08-04T23:35:54Z</time></trkpt>
<trkpt lat="25.51971" lon="99.176493">
<time>2014-08-04T23:35:55Z</time></trkpt>
<trkpt lat="25.51979" lon="99.176473">
<time>2014-08-04T23:35:56Z</time></trkpt>
<trkpt lat="25.51988" lon="99.176453">
<time>2014-08-04T23:35:57Z</time></trkpt>
<trkpt lat="25.51999" lon="99.176433">
<time>2014-08-04T23:35:58Z</time></trkpt>
<trkpt lat="25.52013" lon="99.176423">
<time>2014-08-04T23:35:59Z</time></trkpt>
<trkpt lat="25.52064" lon="99.176403">
<time>2014-08-04T23:36:00Z</time></trkpt>
<trkpt lat="25.52066" lon="99.176393">
<time>2014-08-04T23:36:01Z</time></trkpt>
<trkpt lat="25.52088" lon="99.176383">
<time>2014-08-04T23:36:02Z</time></trkpt>
<trkpt lat="25.52111" lon="99.176342">
<time>2014-08-04T23:36:03Z</time></trkpt>
<trkpt lat="25.52144" lon="99.176232">
<time>2014-08-04T23:36:04Z</time></trkpt>
<trkpt lat="25.52173" lon="99.176132">
<time>2014-08-04T23:36:05Z</time></trkpt>
<trkpt lat="25.52194" lon="99.176082">
<time>2014-08-04T23:36:06Z</time></trkpt>
<trkpt lat="25.52216" lon="99.176062">
<time>2014-08-04T23:36:07Z</time></trkpt>
<trkpt lat="25.52242" lon="99.176062">
<time>2014-08-04T23:36:08Z</time></trkpt>
<trkpt lat="25.52274" lon="99.176072">
<time>2014-08-04T23:36:09Z</time></trkpt>
<trkpt lat="25.52301" lon="99.176102">
<time>2014-08-04T23:36:10Z</time></trkpt>
<trkpt lat="25.5232" lon="99.176092">
<time>2014-08-04T23:36:11Z</time></trkpt>
<trkpt lat="25.52341" lon="99.176042">
<time>2014-08-04T23:36:12Z</time></trkpt>
<trkpt lat="25.52358" lon="99.175982">
<time>2014-08-04T23:36:13Z</time></trkpt>
<trkpt lat="25.52374" lon="99.175882">
<time>2014-08-04T23:36:14Z</time></trkpt>
<trkpt lat="25.52389" lon="99.175752">
<time>2014-08-04T23:36:15Z</time></trkpt>
<trkpt lat="25.52405" lon="99.175611">
<time>2014-08-04T23:36:16Z</time></trkpt>
<trkpt lat="25.524369" lon="99.175151">
<time>2014-08-04T23:36:17Z</time></trkpt>
<trkpt lat="25.524718" lon="99.17446">
<time>2014-08-04T23:36:18Z</time></trkpt>
<trkpt lat="25.525037" lon="99.173809">
<time>2014-08-04T23:36:19Z</time></trkpt>
<trkpt lat="25.525236" lon="99.173359">
<time>2014-08-04T23:36:20Z</time></trkpt>
<trkpt lat="25.525425" lon="99.172768">
<time>2014-08-04T23:36:21Z</time></trkpt>
<trkpt lat="25.525544" lon="99.172367">
<time>2014-08-04T23:36:22Z</time></trkpt>
<trkpt lat="25.525703" lon="99.171807">
<time>2014-08-04T23:36:23Z</time></trkpt>
<trkpt lat="25.525802" lon="99.171256">
<time>2014-08-04T23:36:24Z</time></trkpt>
<trkpt lat="25.525801" lon="99.170835">
<time>2014-08-04T23:36:25Z</time></trkpt>
<trkpt lat="25.525771" lon="99.170415">
<time>2014-08-04T23:36:26Z</time></trkpt>
<trkpt lat="25.5257" lon="99.169984">
<time>2014-08-04T23:36:27Z</time></trkpt>
<trkpt lat="25.525609" lon="99.169704">
<time>2014-08-04T23:36:28Z</time></trkpt>
<trkpt lat="25.525519" lon="99.169453">
<time>2014-08-04T23:36:29Z</time></trkpt>
<trkpt lat="25.525066" lon="99.168252">
<time>2014-08-04T23:36:30Z</time></trkpt>
<trkpt lat="25.525006" lon="99.168072">
<time>2014-08-04T23:36:31Z</time></trkpt>
<trkpt lat="25.524945" lon="99.167841">
<time>2014-08-04T23:36:32Z</time></trkpt>
<trkpt lat="25.524905" lon="99.167601">
<time>2014-08-04T23:36:33Z</time></trkpt>
<trkpt lat="25.524884" lon="99.167301">
<time>2014-08-04T23:36:34Z</time></trkpt>
<trkpt lat="25.524873" lon="99.16675">
<time>2014-08-04T23:36:35Z</time></trkpt>
<trkpt lat="25.524863" lon="99.16644">
<time>2014-08-04T23:36:36Z</time></trkpt>
<trkpt lat="25.524812" lon="99.166219">
<time>2014-08-04T23:36:37Z</time></trkpt>
<trkpt lat="25.524762" lon="99.166079">
<time>2014-08-04T23:36:38Z</time></trkpt>
<trkpt lat="25.524672" lon="99.165909">
<time>2014-08-04T23:36:39Z</time></trkpt>
<trkpt lat="25.524511" lon="99.165679">
<time>2014-08-04T23:36:40Z</time></trkpt>
<trkpt lat="25.524441" lon="99.165518">
<time>2014-08-04T23:36:41Z</time></trkpt>
<trkpt lat="25.524381" lon="99.165338">
<time>2014-08-04T23:36:42Z</time></trkpt>
<trkpt lat="25.52435" lon="99.165158">
<time>2014-08-04T23:36:43Z</time></trkpt>
<trkpt lat="25.52434" lon="99.164958">
<time>2014-08-04T23:36:44Z</time></trkpt>
<trkpt lat="25.524369" lon="99.164707">
<time>2014-08-04T23:36:45Z</time></trkpt>
<trkpt lat="25.524459" lon="99.164277">
<time>2014-08-04T23:36:46Z</time></trkpt>
<trkpt lat="25.524578" lon="99.163686">
<time>2014-08-04T23:36:47Z</time></trkpt>
<trkpt lat="25.524647" lon="99.163316">
<time>2014-08-04T23:36:48Z</time></trkpt>
<trkpt lat="25.524666" lon="99.162975">
<time>2014-08-04T23:36:49Z</time></trkpt>
<trkpt lat="25.524645" lon="99.162565">
<time>2014-08-04T23:36:50Z</time></trkpt>
<trkpt lat="25.524574" lon="99.161593">
<time>2014-08-04T23:36:51Z</time></trkpt>
<trkpt lat="25.524533" lon="99.161253">
<time>2014-08-04T23:36:52Z</time></trkpt>
<trkpt lat="25.524503" lon="99.161123">
<time>2014-08-04T23:36:53Z</time></trkpt>
<trkpt lat="25.524472" lon="99.160983">
<time>2014-08-04T23:36:54Z</time></trkpt>
<trkpt lat="25.524372" lon="99.160722">
<time>2014-08-04T23:36:55Z</time></trkpt>
<trkpt lat="25.524191" lon="99.160362">
<time>2014-08-04T23:36:56Z</time></trkpt>
<trkpt lat="25.524101" lon="99.160172">
<time>2014-08-04T23:36:57Z</time></trkpt>
<trkpt lat="25.52401" lon="99.159891">
<time>2014-08-04T23:36:58Z</time></trkpt>
<trkpt lat="25.52401" lon="99.159881">
<time>2014-08-04T23:36:59Z</time></trkpt>
<trkpt lat="25.523819" lon="99.15907">
<time>2014-08-04T23:37:00Z</time></trkpt>
<trkpt lat="25.523637" lon="99.158309">
<time>2014-08-04T23:37:01Z</time></trkpt>
<trkpt lat="25.523526" lon="99.157859">
<time>2014-08-04T23:37:02Z</time></trkpt>
<trkpt lat="25.523425" lon="99.156958">
<time>2014-08-04T23:37:03Z</time></trkpt>
<trkpt lat="25.523242" lon="99.155356">
<time>2014-08-04T23:37:04Z</time></trkpt>
<trkpt lat="25.523161" lon="99.154715">
<time>2014-08-04T23:37:05Z</time></trkpt>
<trkpt lat="25.52313" lon="99.154425">
<time>2014-08-04T23:37:06Z</time></trkpt>
<trkpt lat="25.52311" lon="99.154305">
<time>2014-08-04T23:37:07Z</time></trkpt>
<trkpt lat="25.52305" lon="99.154145">
<time>2014-08-04T23:37:08Z</time></trkpt>
<trkpt lat="25.522939" lon="99.153984">
<time>2014-08-04T23:37:09Z</time></trkpt>
<trkpt lat="25.522448" lon="99.153384">
<time>2014-08-04T23:37:10Z</time></trkpt>
<trkpt lat="25.522298" lon="99.153173">
<time>2014-08-04T23:37:11Z</time></trkpt>
<trkpt lat="25.522197" lon="99.152963">
<time>2014-08-04T23:37:12Z</time></trkpt>
<trkpt lat="25.522157" lon="99.152843">
<time>2014-08-04T23:37:13Z</time></trkpt>
<trkpt lat="25.522137" lon="99.152743">
<time>2014-08-04T23:37:14Z</time></trkpt>
<trkpt lat="25.522127" lon="99.152623">
<time>2014-08-04T23:37:15Z</time></trkpt>
<trkpt lat="25.522126" lon="99.152523">
<time>2014-08-04T23:37:16Z</time></trkpt>
<trkpt lat="25.522136" lon="99.152393">
<time>2014-08-04T23:37:17Z</time></trkpt>
<trkpt lat="25.522136" lon="99.152373">
<time>2014-08-04T23:37:18Z</time></trkpt>
<trkpt lat="25.522156" lon="99.152282">
<time>2014-08-04T23:37:19Z</time></trkpt>
<trkpt lat="25.522186" lon="99.152142">
<time>2014-08-04T23:37:20Z</time></trkpt>
<trkpt lat="25.522235" lon="99.152002">
<time>2014-08-04T23:37:21Z</time></trkpt>
<trkpt lat="25.522415" lon="99.151652">
<time>2014-08-04T23:37:22Z</time></trkpt>
<trkpt lat="25.522624" lon="99.151271">
<time>2014-08-04T23:37:23Z</time></trkpt>
<trkpt lat="25.522804" lon="99.150921">
<time>2014-08-04T23:37:24Z</time></trkpt>
<trkpt lat="25.522883" lon="99.150691">
<time>2014-08-04T23:37:25Z</time></trkpt>
<trkpt lat="25.522913" lon="99.15053">
<time>2014-08-04T23:37:26Z</time></trkpt>
<trkpt lat="25.522923" lon="99.15033">
<time>2014-08-04T23:37:27Z</time></trkpt>
<trkpt lat="25.522952" lon="99.14989">
<time>2014-08-04T23:37:28Z</time></trkpt>
<trkpt lat="25.522972" lon="99.149659">
<time>2014-08-04T23:37:29Z</time></trkpt>
<trkpt lat="25.523031" lon="99.149389">
<time>2014-08-04T23:37:30Z</time></trkpt>
<trkpt lat="25.52322" lon="99.148708">
<time>2014-08-04T23:37:31Z</time></trkpt>
<trkpt lat="25.523558" lon="99.147347">
<time>2014-08-04T23:37:32Z</time></trkpt>
<trkpt lat="25.523697" lon="99.146636">
<time>2014-08-04T23:37:33Z</time></trkpt>
<trkpt lat="25.523836" lon="99.146276">
<time>2014-08-04T23:37:34Z</time></trkpt>
<trkpt lat="25.523956" lon="99.146026">
<time>2014-08-04T23:37:35Z</time></trkpt>
<trkpt lat="25.524146" lon="99.145725">
<time>2014-08-04T23:37:36Z</time></trkpt>
<trkpt lat="25.524285" lon="99.145495">
<time>2014-08-04T23:37:37Z</time></trkpt>
<trkpt lat="25.524375" lon="99.145275">
<time>2014-08-04T23:37:38Z</time></trkpt>
<trkpt lat="25.524504" lon="99.144925">
<time>2014-08-04T23:37:39Z</time></trkpt>
<trkpt lat="25.524594" lon="99.144634">
<time>2014-08-04T23:37:40Z</time></trkpt>
<trkpt lat="25.524604" lon="99.144574">
<time>2014-08-04T23:37:41Z</time></trkpt>
<trkpt lat="25.525092" lon="99.143513">
<time>2014-08-04T23:37:42Z</time></trkpt>
<trkpt lat="25.525212" lon="99.143253">
<time>2014-08-04T23:37:43Z</time></trkpt>
<trkpt lat="25.525262" lon="99.143073">
<time>2014-08-04T23:37:44Z</time></trkpt>
<trkpt lat="25.525291" lon="99.142893">
<time>2014-08-04T23:37:45Z</time></trkpt>
<trkpt lat="25.525281" lon="99.142712">
<time>2014-08-04T23:37:46Z</time></trkpt>
<trkpt lat="25.52524" lon="99.142362">
<time>2014-08-04T23:37:47Z</time></trkpt>
<trkpt lat="25.52516" lon="99.141922">
<time>2014-08-04T23:37:48Z</time></trkpt>
<trkpt lat="25.525109" lon="99.141491">
<time>2014-08-04T23:37:49Z</time></trkpt>
<trkpt lat="25.525109" lon="99.141221">
<time>2014-08-04T23:37:50Z</time></trkpt>
<trkpt lat="25.525148" lon="99.140921">
<time>2014-08-04T23:37:51Z</time></trkpt>
<trkpt lat="25.525248" lon="99.14057">
<time>2014-08-04T23:37:52Z</time></trkpt>
<trkpt lat="25.525447" lon="99.14011">
<time>2014-08-04T23:37:53Z</time></trkpt>
<trkpt lat="25.525597" lon="99.13981">
<time>2014-08-04T23:37:54Z</time></trkpt>
<trkpt lat="25.525666" lon="99.13966">
<time>2014-08-04T23:37:55Z</time></trkpt>
<trkpt lat="25.525856" lon="99.139299">
<time>2014-08-04T23:37:56Z</time></trkpt>
<trkpt lat="25.525985" lon="99.138879">
<time>2014-08-04T23:37:57Z</time></trkpt>
<trkpt lat="25.526075" lon="99.138379">
<time>2014-08-04T23:37:58Z</time></trkpt>
<trkpt lat="25.526164" lon="99.137928">
<time>2014-08-04T23:37:59Z</time></trkpt>
<trkpt lat="25.526254" lon="99.137658">
<time>2014-08-04T23:38:00Z</time></trkpt>
<trkpt lat="25.526393" lon="99.137348">
<time>2014-08-04T23:38:01Z</time></trkpt>
<trkpt lat="25.526543" lon="99.137128">
<time>2014-08-04T23:38:02Z</time></trkpt>
<trkpt lat="25.526733" lon="99.136917">
<time>2014-08-04T23:38:03Z</time></trkpt>
<trkpt lat="25.526963" lon="99.136747">
<time>2014-08-04T23:38:04Z</time></trkpt>
<trkpt lat="25.527272" lon="99.136527">
<time>2014-08-04T23:38:05Z</time></trkpt>
<trkpt lat="25.527472" lon="99.136337">
<time>2014-08-04T23:38:06Z</time></trkpt>
<trkpt lat="25.527672" lon="99.136097">
<time>2014-08-04T23:38:07Z</time></trkpt>
<trkpt lat="25.527712" lon="99.136037">
<time>2014-08-04T23:38:08Z</time></trkpt>
<trkpt lat="25.527822" lon="99.135877">
<time>2014-08-04T23:38:09Z</time></trkpt>
<trkpt lat="25.527911" lon="99.135686">
<time>2014-08-04T23:38:10Z</time></trkpt>
<trkpt lat="25.528001" lon="99.135426">
<time>2014-08-04T23:38:11Z</time></trkpt>
<trkpt lat="25.528031" lon="99.135206">
<time>2014-08-04T23:38:12Z</time></trkpt>
<trkpt lat="25.52805" lon="99.134946">
<time>2014-08-04T23:38:13Z</time></trkpt>
<trkpt lat="25.52803" lon="99.134636">
<time>2014-08-04T23:38:14Z</time></trkpt>
<trkpt lat="25.528009" lon="99.134205">
<time>2014-08-04T23:38:15Z</time></trkpt>
<trkpt lat="25.528039" lon="99.133905">
<time>2014-08-04T23:38:16Z</time></trkpt>
<trkpt lat="25.528079" lon="99.133675">
<time>2014-08-04T23:38:17Z</time></trkpt>
<trkpt lat="25.528178" lon="99.133435">
<time>2014-08-04T23:38:18Z</time></trkpt>
<trkpt lat="25.528258" lon="99.133235">
<time>2014-08-04T23:38:19Z</time></trkpt>
<trkpt lat="25.528328" lon="99.133005">
<time>2014-08-04T23:38:20Z</time></trkpt>
<trkpt lat="25.528348" lon="99.132794">
<time>2014-08-04T23:38:21Z</time></trkpt>
<trkpt lat="25.528317" lon="99.132594">
<time>2014-08-04T23:38:22Z</time></trkpt>
<trkpt lat="25.528277" lon="99.132404">
<time>2014-08-04T23:38:23Z</time></trkpt>
<trkpt lat="25.528126" lon="99.131974">
<time>2014-08-04T23:38:24Z</time></trkpt>
<trkpt lat="25.528086" lon="99.131714">
<time>2014-08-04T23:38:25Z</time></trkpt>
<trkpt lat="25.528076" lon="99.131484">
<time>2014-08-04T23:38:26Z</time></trkpt>
<trkpt lat="25.528106" lon="99.131263">
<time>2014-08-04T23:38:27Z</time></trkpt>
<trkpt lat="25.528165" lon="99.131003">
<time>2014-08-04T23:38:28Z</time></trkpt>
<trkpt lat="25.528225" lon="99.130823">
<time>2014-08-04T23:38:29Z</time></trkpt>
<trkpt lat="25.528275" lon="99.130523">
<time>2014-08-04T23:38:30Z</time></trkpt>
<trkpt lat="25.528294" lon="99.130093">
<time>2014-08-04T23:38:31Z</time></trkpt>
<trkpt lat="25.528324" lon="99.129723">
<time>2014-08-04T23:38:32Z</time></trkpt>
<trkpt lat="25.528383" lon="99.129452">
<time>2014-08-04T23:38:33Z</time></trkpt>
<trkpt lat="25.528513" lon="99.129162">
<time>2014-08-04T23:38:34Z</time></trkpt>
<trkpt lat="25.528923" lon="99.128612">
<time>2014-08-04T23:38:35Z</time></trkpt>
<trkpt lat="25.529252" lon="99.128162">
<time>2014-08-04T23:38:36Z</time></trkpt>
<trkpt lat="25.529422" lon="99.127882">
<time>2014-08-04T23:38:37Z</time></trkpt>
<trkpt lat="25.529871" lon="99.126971">
<time>2014-08-04T23:38:38Z</time></trkpt>
<trkpt lat="25.53017" lon="99.126461">
<time>2014-08-04T23:38:39Z</time></trkpt>
<trkpt lat="25.53062" lon="99.125871">
<time>2014-08-04T23:38:40Z</time></trkpt>
<trkpt lat="25.531239" lon="99.12502">
<time>2014-08-04T23:38:41Z</time></trkpt>
<trkpt lat="25.531539" lon="99.12457">
<time>2014-08-04T23:38:42Z</time></trkpt>
<trkpt lat="25.531809" lon="99.12417">
<time>2014-08-04T23:38:43Z</time></trkpt>
<trkpt lat="25.532058" lon="99.1238">
<time>2014-08-04T23:38:44Z</time></trkpt>
<trkpt lat="25.532208" lon="99.12362">
<time>2014-08-04T23:38:45Z</time></trkpt>
<trkpt lat="25.532368" lon="99.12347">
<time>2014-08-04T23:38:46Z</time></trkpt>
<trkpt lat="25.532518" lon="99.12334">
<time>2014-08-04T23:38:47Z</time></trkpt>
<trkpt lat="25.532818" lon="99.12317">
<time>2014-08-04T23:38:48Z</time></trkpt>
<trkpt lat="25.533038" lon="99.12306">
<time>2014-08-04T23:38:49Z</time></trkpt>
<trkpt lat="25.533308" lon="99.122929">
<time>2014-08-04T23:38:50Z</time></trkpt>
<trkpt lat="25.533568" lon="99.122799">
<time>2014-08-04T23:38:51Z</time></trkpt>
<trkpt lat="25.533738" lon="99.122709">
<time>2014-08-04T23:38:52Z</time></trkpt>
<trkpt lat="25.533908" lon="99.122599">
<time>2014-08-04T23:38:53Z</time></trkpt>
<trkpt lat="25.534078" lon="99.122469">
<time>2014-08-04T23:38:54Z</time></trkpt>
<trkpt lat="25.534197" lon="99.122359">
<time>2014-08-04T23:38:55Z</time></trkpt>
<trkpt lat="25.534387" lon="99.122159">
<time>2014-08-04T23:38:56Z</time></trkpt>
<trkpt lat="25.534657" lon="99.121829">
<time>2014-08-04T23:38:57Z</time></trkpt>
<trkpt lat="25.535097" lon="99.121299">
<time>2014-08-04T23:38:58Z</time></trkpt>
<trkpt lat="25.535496" lon="99.120799">
<time>2014-08-04T23:38:59Z</time></trkpt>
<trkpt lat="25.536036" lon="99.120159">
<time>2014-08-04T23:39:00Z</time></trkpt>
<trkpt lat="25.536256" lon="99.119899">
<time>2014-08-04T23:39:01Z</time></trkpt>
<trkpt lat="25.536476" lon="99.119699">
<time>2014-08-04T23:39:02Z</time></trkpt>
<trkpt lat="25.536676" lon="99.119539">
<time>2014-08-04T23:39:03Z</time></trkpt>
<trkpt lat="25.537555" lon="99.118908">
<time>2014-08-04T23:39:04Z</time></trkpt>
<trkpt lat="25.537945" lon="99.118688">
<time>2014-08-04T23:39:05Z</time></trkpt>
<trkpt lat="25.538155" lon="99.118618">
<time>2014-08-04T23:39:06Z</time></trkpt>
<trkpt lat="25.538275" lon="99.118598">
<time>2014-08-04T23:39:07Z</time></trkpt>
<trkpt lat="25.538405" lon="99.118588">
<time>2014-08-04T23:39:08Z</time></trkpt>
<trkpt lat="25.538506" lon="99.118588">
<time>2014-08-04T23:39:09Z</time></trkpt>
<trkpt lat="25.538666" lon="99.118608">
<time>2014-08-04T23:39:10Z</time></trkpt>
<trkpt lat="25.538896" lon="99.118658">
<time>2014-08-04T23:39:11Z</time></trkpt>
<trkpt lat="25.539136" lon="99.118658">
<time>2014-08-04T23:39:12Z</time></trkpt>
<trkpt lat="25.539246" lon="99.118648">
<time>2014-08-04T23:39:13Z</time></trkpt>
<trkpt lat="25.539366" lon="99.118618">
<time>2014-08-04T23:39:14Z</time></trkpt>
<trkpt lat="25.539466" lon="99.118578">
<time>2014-08-04T23:39:15Z</time></trkpt>
<trkpt lat="25.539516" lon="99.118558">
<time>2014-08-04T23:39:16Z</time></trkpt>
<trkpt lat="25.539616" lon="99.118488">
<time>2014-08-04T23:39:17Z</time></trkpt>
<trkpt lat="25.539706" lon="99.118418">
<time>2014-08-04T23:39:18Z</time></trkpt>
<trkpt lat="25.539816" lon="99.118298">
<time>2014-08-04T23:39:19Z</time></trkpt>
<trkpt lat="25.539896" lon="99.118188">
<time>2014-08-04T23:39:20Z</time></trkpt>
<trkpt lat="25.539996" lon="99.118018">
<time>2014-08-04T23:39:21Z</time></trkpt>
<trkpt lat="25.540095" lon="99.117838">
<time>2014-08-04T23:39:22Z</time></trkpt>
<trkpt lat="25.540215" lon="99.117688">
<time>2014-08-04T23:39:23Z</time></trkpt>
<trkpt lat="25.540325" lon="99.117578">
<time>2014-08-04T23:39:24Z</time></trkpt>
<trkpt lat="25.540465" lon="99.117488">
<time>2014-08-04T23:39:25Z</time></trkpt>
<trkpt lat="25.540565" lon="99.117458">
<time>2014-08-04T23:39:26Z</time></trkpt>
<trkpt lat="25.540685" lon="99.117438">
<time>2014-08-04T23:39:27Z</time></trkpt>
<trkpt lat="25.540825" lon="99.117438">
<time>2014-08-04T23:39:28Z</time></trkpt>
<trkpt lat="25.540955" lon="99.117478">
<time>2014-08-04T23:39:29Z</time></trkpt>
<trkpt lat="25.541116" lon="99.117528">
<time>2014-08-04T23:39:30Z</time></trkpt>
<trkpt lat="25.541406" lon="99.117638">
<time>2014-08-04T23:39:31Z</time></trkpt>
<trkpt lat="25.541666" lon="99.117738">
<time>2014-08-04T23:39:32Z</time></trkpt>
<trkpt lat="25.541906" lon="99.117808">
<time>2014-08-04T23:39:33Z</time></trkpt>
<trkpt lat="25.542066" lon="99.117858">
<time>2014-08-04T23:39:34Z</time></trkpt>
<trkpt lat="25.542256" lon="99.117888">
<time>2014-08-04T23:39:35Z</time></trkpt>
<trkpt lat="25.542386" lon="99.117888">
<time>2014-08-04T23:39:36Z</time></trkpt>
<trkpt lat="25.542546" lon="99.117878">
<time>2014-08-04T23:39:37Z</time></trkpt>
<trkpt lat="25.542676" lon="99.117848">
<time>2014-08-04T23:39:38Z</time></trkpt>
<trkpt lat="25.542796" lon="99.117818">
<time>2014-08-04T23:39:39Z</time></trkpt>
<trkpt lat="25.542826" lon="99.117818">
<time>2014-08-04T23:39:40Z</time></trkpt>
<trkpt lat="25.543137" lon="99.117738">
<time>2014-08-04T23:39:41Z</time></trkpt>
<trkpt lat="25.543617" lon="99.117618">
<time>2014-08-04T23:39:42Z</time></trkpt>
<trkpt lat="25.544167" lon="99.117478">
<time>2014-08-04T23:39:43Z</time></trkpt>
<trkpt lat="25.544327" lon="99.117398">
<time>2014-08-04T23:39:44Z</time></trkpt>
<trkpt lat="25.544487" lon="99.117318">
<time>2014-08-04T23:39:45Z</time></trkpt>
<trkpt lat="25.544567" lon="99.117268">
<time>2014-08-04T23:39:46Z</time></trkpt>
<trkpt lat="25.544707" lon="99.117168">
<time>2014-08-04T23:39:47Z</time></trkpt>
<trkpt lat="25.544797" lon="99.117088">
<time>2014-08-04T23:39:48Z</time></trkpt>
<trkpt lat="25.544977" lon="99.116908">
<time>2014-08-04T23:39:49Z</time></trkpt>
<trkpt lat="25.545186" lon="99.116698">
<time>2014-08-04T23:39:50Z</time></trkpt>
<trkpt lat="25.545376" lon="99.116518">
<time>2014-08-04T23:39:51Z</time></trkpt>
<trkpt lat="25.545576" lon="99.116388">
<time>2014-08-04T23:39:52Z</time></trkpt>
<trkpt lat="25.545736" lon="99.116318">
<time>2014-08-04T23:39:53Z</time></trkpt>
<trkpt lat="25.545866" lon="99.116278">
<time>2014-08-04T23:39:54Z</time></trkpt>
<trkpt lat="25.546036" lon="99.116248">
<time>2014-08-04T23:39:55Z</time></trkpt>
<trkpt lat="25.546186" lon="99.116238">
<time>2014-08-04T23:39:56Z</time></trkpt>
<trkpt lat="25.546397" lon="99.116238">
<time>2014-08-04T23:39:57Z</time></trkpt>
<trkpt lat="25.546817" lon="99.116238">
<time>2014-08-04T23:39:58Z</time></trkpt>
<trkpt lat="25.547077" lon="99.116218">
<time>2014-08-04T23:39:59Z</time></trkpt>
<trkpt lat="25.547307" lon="99.116188">
<time>2014-08-04T23:40:00Z</time></trkpt>
<trkpt lat="25.547517" lon="99.116168">
<time>2014-08-04T23:40:01Z</time></trkpt>
<trkpt lat="25.547737" lon="99.116108">
<time>2014-08-04T23:40:02Z</time></trkpt>
<trkpt lat="25.548077" lon="99.116038">
<time>2014-08-04T23:40:03Z</time></trkpt>
<trkpt lat="25.548327" lon="99.115988">
<time>2014-08-04T23:40:04Z</time></trkpt>
<trkpt lat="25.548757" lon="99.115938">
<time>2014-08-04T23:40:05Z</time></trkpt>
<trkpt lat="25.549037" lon="99.115908">
<time>2014-08-04T23:40:06Z</time></trkpt>
<trkpt lat="25.549287" lon="99.115908">
<time>2014-08-04T23:40:07Z</time></trkpt>
<trkpt lat="25.549687" lon="99.115878">
<time>2014-08-04T23:40:08Z</time></trkpt>
<trkpt lat="25.549998" lon="99.115878">
<time>2014-08-04T23:40:09Z</time></trkpt>
<trkpt lat="25.550198" lon="99.115848">
<time>2014-08-04T23:40:10Z</time></trkpt>
<trkpt lat="25.550358" lon="99.115818">
<time>2014-08-04T23:40:11Z</time></trkpt>
<trkpt lat="25.550618" lon="99.115758">
<time>2014-08-04T23:40:12Z</time></trkpt>
<trkpt lat="25.550848" lon="99.115688">
<time>2014-08-04T23:40:13Z</time></trkpt>
<trkpt lat="25.550888" lon="99.115678">
<time>2014-08-04T23:40:14Z</time></trkpt>
<trkpt lat="25.551268" lon="99.115568">
<time>2014-08-04T23:40:15Z</time></trkpt>
<trkpt lat="25.551748" lon="99.115438">
<time>2014-08-04T23:40:16Z</time></trkpt>
<trkpt lat="25.551958" lon="99.115378">
<time>2014-08-04T23:40:17Z</time></trkpt>
<trkpt lat="25.552088" lon="99.115348">
<time>2014-08-04T23:40:18Z</time></trkpt>
<trkpt lat="25.552288" lon="99.115318">
<time>2014-08-04T23:40:19Z</time></trkpt>
<trkpt lat="25.552508" lon="99.115308">
<time>2014-08-04T23:40:20Z</time></trkpt>
<trkpt lat="25.552678" lon="99.115318">
<time>2014-08-04T23:40:21Z</time></trkpt>
<trkpt lat="25.553048" lon="99.115368">
<time>2014-08-04T23:40:22Z</time></trkpt>
<trkpt lat="25.553308" lon="99.115388">
<time>2014-08-04T23:40:23Z</time></trkpt>
<trkpt lat="25.553739" lon="99.115428">
<time>2014-08-04T23:40:24Z</time></trkpt>
<trkpt lat="25.553899" lon="99.115418">
<time>2014-08-04T23:40:25Z</time></trkpt>
<trkpt lat="25.553989" lon="99.115408">
<time>2014-08-04T23:40:26Z</time></trkpt>
<trkpt lat="25.554119" lon="99.115398">
<time>2014-08-04T23:40:27Z</time></trkpt>
<trkpt lat="25.554289" lon="99.115348">
<time>2014-08-04T23:40:28Z</time></trkpt>
<trkpt lat="25.554469" lon="99.115288">
<time>2014-08-04T23:40:29Z</time></trkpt>
<trkpt lat="25.554769" lon="99.115188">
<time>2014-08-04T23:40:30Z</time></trkpt>
<trkpt lat="25.555089" lon="99.115068">
<time>2014-08-04T23:40:31Z</time></trkpt>
<trkpt lat="25.555529" lon="99.114918">
<time>2014-08-04T23:40:32Z</time></trkpt>
<trkpt lat="25.555759" lon="99.114828">
<time>2014-08-04T23:40:33Z</time></trkpt>
<trkpt lat="25.556009" lon="99.114698">
<time>2014-08-04T23:40:34Z</time></trkpt>
<trkpt lat="25.556219" lon="99.114608">
<time>2014-08-04T23:40:35Z</time></trkpt>
<trkpt lat="25.556449" lon="99.114478">
<time>2014-08-04T23:40:36Z</time></trkpt>
<trkpt lat="25.556739" lon="99.114318">
<time>2014-08-04T23:40:37Z</time></trkpt>
<trkpt lat="25.556999" lon="99.114168">
<time>2014-08-04T23:40:38Z</time></trkpt>
<trkpt lat="25.557229" lon="99.114058">
<time>2014-08-04T23:40:39Z</time></trkpt>
<trkpt lat="25.557589" lon="99.113898">
<time>2014-08-04T23:40:40Z</time></trkpt>
<trkpt lat="25.557969" lon="99.113768">
<time>2014-08-04T23:40:41Z</time></trkpt>
<trkpt lat="25.558409" lon="99.113598">
<time>2014-08-04T23:40:42Z</time></trkpt>
<trkpt lat="25.558759" lon="99.113458">
<time>2014-08-04T23:40:43Z</time></trkpt>
<trkpt lat="25.558999" lon="99.113338">
<time>2014-08-04T23:40:44Z</time></trkpt>
<trkpt lat="25.559199" lon="99.113238">
<time>2014-08-04T23:40:45Z</time></trkpt>
<trkpt lat="25.559499" lon="99.113078">
<time>2014-08-04T23:40:46Z</time></trkpt>
<trkpt lat="25.560279" lon="99.112678">
<time>2014-08-04T23:40:47Z</time></trkpt>
<trkpt lat="25.561019" lon="99.112288">
<time>2014-08-04T23:40:48Z</time></trkpt>
<trkpt lat="25.561649" lon="99.111958">
<time>2014-08-04T23:40:49Z</time></trkpt>
<trkpt lat="25.561969" lon="99.111798">
<time>2014-08-04T23:40:50Z</time></trkpt>
<trkpt lat="25.562179" lon="99.111708">
<time>2014-08-04T23:40:51Z</time></trkpt>
<trkpt lat="25.562459" lon="99.111618">
<time>2014-08-04T23:40:52Z</time></trkpt>
<trkpt lat="25.56267" lon="99.111568">
<time>2014-08-04T23:40:53Z</time></trkpt>
<trkpt lat="25.56287" lon="99.111538">
<time>2014-08-04T23:40:54Z</time></trkpt>
<trkpt lat="25.56308" lon="99.111518">
<time>2014-08-04T23:40:55Z</time></trkpt>
<trkpt lat="25.56327" lon="99.111488">
<time>2014-08-04T23:40:56Z</time></trkpt>
<trkpt lat="25.56365" lon="99.111458">
<time>2014-08-04T23:40:57Z</time></trkpt>
<trkpt lat="25.5642" lon="99.111418">
<time>2014-08-04T23:40:58Z</time></trkpt>
<trkpt lat="25.56447" lon="99.111388">
<time>2014-08-04T23:40:59Z</time></trkpt>
<trkpt lat="25.56469" lon="99.111388">
<time>2014-08-04T23:41:00Z</time></trkpt>
<trkpt lat="25.56485" lon="99.111398">
<time>2014-08-04T23:41:01Z</time></trkpt>
<trkpt lat="25.56503" lon="99.111418">
<time>2014-08-04T23:41:02Z</time></trkpt>
<trkpt lat="25.56523" lon="99.111458">
<time>2014-08-04T23:41:03Z</time></trkpt>
<trkpt lat="25.565421" lon="99.111518">
<time>2014-08-04T23:41:04Z</time></trkpt>
<trkpt lat="25.565661" lon="99.111598">
<time>2014-08-04T23:41:05Z</time></trkpt>
<trkpt lat="25.565891" lon="99.111668">
<time>2014-08-04T23:41:06Z</time></trkpt>
<trkpt lat="25.566221" lon="99.111778">
<time>2014-08-04T23:41:07Z</time></trkpt>
<trkpt lat="25.566401" lon="99.111828">
<time>2014-08-04T23:41:08Z</time></trkpt>
<trkpt lat="25.566711" lon="99.111888">
<time>2014-08-04T23:41:09Z</time></trkpt>
<trkpt lat="25.567152" lon="99.111928">
<time>2014-08-04T23:41:10Z</time></trkpt>
<trkpt lat="25.567702" lon="99.111988">
<time>2014-08-04T23:41:11Z</time></trkpt>
<trkpt lat="25.568022" lon="99.112028">
<time>2014-08-04T23:41:12Z</time></trkpt>
<trkpt lat="25.568492" lon="99.112088">
<time>2014-08-04T23:41:13Z</time></trkpt>
<trkpt lat="25.568702" lon="99.112128">
<time>2014-08-04T23:41:14Z</time></trkpt>
<trkpt lat="25.568822" lon="99.112158">
<time>2014-08-04T23:41:15Z</time></trkpt>
<trkpt lat="25.568942" lon="99.112218">
<time>2014-08-04T23:41:16Z</time></trkpt>
<trkpt lat="25.569183" lon="99.112338">
<time>2014-08-04T23:41:17Z</time></trkpt>
<trkpt lat="25.569953" lon="99.112828">
<time>2014-08-04T23:41:18Z</time></trkpt>
<trkpt lat="25.570293" lon="99.112998">
<time>2014-08-04T23:41:19Z</time></trkpt>
<trkpt lat="25.570464" lon="99.113068">
<time>2014-08-04T23:41:20Z</time></trkpt>
<trkpt lat="25.570774" lon="99.113158">
<time>2014-08-04T23:41:21Z</time></trkpt>
<trkpt lat="25.570984" lon="99.113208">
<time>2014-08-04T23:41:22Z</time></trkpt>
<trkpt lat="25.571444" lon="99.113348">
<time>2014-08-04T23:41:23Z</time></trkpt>
<trkpt lat="25.571714" lon="99.113428">
<time>2014-08-04T23:41:24Z</time></trkpt>
<trkpt lat="25.572095" lon="99.113488">
<time>2014-08-04T23:41:25Z</time></trkpt>
<trkpt lat="25.572305" lon="99.113517">
<time>2014-08-04T23:41:26Z</time></trkpt>
<trkpt lat="25.572405" lon="99.113527">
<time>2014-08-04T23:41:27Z</time></trkpt>
<trkpt lat="25.572665" lon="99.113537">
<time>2014-08-04T23:41:28Z</time></trkpt>
<trkpt lat="25.572995" lon="99.113527">
<time>2014-08-04T23:41:29Z</time></trkpt>
<trkpt lat="25.573265" lon="99.113507">
<time>2014-08-04T23:41:30Z</time></trkpt>
<trkpt lat="25.573375" lon="99.113497">
<time>2014-08-04T23:41:31Z</time></trkpt>
<trkpt lat="25.573465" lon="99.113467">
<time>2014-08-04T23:41:32Z</time></trkpt>
<trkpt lat="25.573625" lon="99.113407">
<time>2014-08-04T23:41:33Z</time></trkpt>
<trkpt lat="25.573855" lon="99.113327">
<time>2014-08-04T23:41:34Z</time></trkpt>
<trkpt lat="25.574025" lon="99.113247">
<time>2014-08-04T23:41:35Z</time></trkpt>
<trkpt lat="25.574295" lon="99.113107">
<time>2014-08-04T23:41:36Z</time></trkpt>
<trkpt lat="25.575035" lon="99.112678">
<time>2014-08-04T23:41:37Z</time></trkpt>
<trkpt lat="25.575395" lon="99.112488">
<time>2014-08-04T23:41:38Z</time></trkpt>
<trkpt lat="25.575725" lon="99.112328">
<time>2014-08-04T23:41:39Z</time></trkpt>
<trkpt lat="25.575985" lon="99.112228">
<time>2014-08-04T23:41:40Z</time></trkpt>
<trkpt lat="25.576365" lon="99.112148">
<time>2014-08-04T23:41:41Z</time></trkpt>
<trkpt lat="25.576716" lon="99.112078">
<time>2014-08-04T23:41:42Z</time></trkpt>
<trkpt lat="25.576936" lon="99.112048">
<time>2014-08-04T23:41:43Z</time></trkpt>
<trkpt lat="25.577116" lon="99.112018">
<time>2014-08-04T23:41:44Z</time></trkpt>
<trkpt lat="25.577466" lon="99.111938">
<time>2014-08-04T23:41:45Z</time></trkpt>
<trkpt lat="25.577666" lon="99.111868">
<time>2014-08-04T23:41:46Z</time></trkpt>
<trkpt lat="25.577806" lon="99.111808">
<time>2014-08-04T23:41:47Z</time></trkpt>
<trkpt lat="25.577926" lon="99.111738">
<time>2014-08-04T23:41:48Z</time></trkpt>
<trkpt lat="25.578136" lon="99.111598">
<time>2014-08-04T23:41:49Z</time></trkpt>
<trkpt lat="25.578246" lon="99.111508">
<time>2014-08-04T23:41:50Z</time></trkpt>
<trkpt lat="25.578366" lon="99.111388">
<time>2014-08-04T23:41:51Z</time></trkpt>
<trkpt lat="25.578616" lon="99.111128">
<time>2014-08-04T23:41:52Z</time></trkpt>
<trkpt lat="25.578726" lon="99.111018">
<time>2014-08-04T23:41:53Z</time></trkpt>
<trkpt lat="25.578866" lon="99.110928">
<time>2014-08-04T23:41:54Z</time></trkpt>
<trkpt lat="25.579006" lon="99.110858">
<time>2014-08-04T23:41:55Z</time></trkpt>
<trkpt lat="25.579196" lon="99.110808">
<time>2014-08-04T23:41:56Z</time></trkpt>
<trkpt lat="25.579306" lon="99.110788">
<time>2014-08-04T23:41:57Z</time></trkpt>
<trkpt lat="25.579436" lon="99.110788">
<time>2014-08-04T23:41:58Z</time></trkpt>
<trkpt lat="25.579536" lon="99.110788">
<time>2014-08-04T23:41:59Z</time></trkpt>
<trkpt lat="25.579626" lon="99.110798">
<time>2014-08-04T23:42:00Z</time></trkpt>
<trkpt lat="25.579826" lon="99.110848">
<time>2014-08-04T23:42:01Z</time></trkpt>
<trkpt lat="25.580246" lon="99.110978">
<time>2014-08-04T23:42:02Z</time></trkpt>
<trkpt lat="25.580446" lon="99.111028">
<time>2014-08-04T23:42:03Z</time></trkpt>
<trkpt lat="25.580566" lon="99.111048">
<time>2014-08-04T23:42:04Z</time></trkpt>
<trkpt lat="25.580677" lon="99.111038">
<time>2014-08-04T23:42:05Z</time></trkpt>
<trkpt lat="25.580727" lon="99.111038">
<time>2014-08-04T23:42:06Z</time></trkpt>
<trkpt lat="25.580847" lon="99.111018">
<time>2014-08-04T23:42:07Z</time></trkpt>
<trkpt lat="25.580947" lon="99.110988">
<time>2014-08-04T23:42:08Z</time></trkpt>
<trkpt lat="25.581117" lon="99.110928">
<time>2014-08-04T23:42:09Z</time></trkpt>
<trkpt lat="25.581267" lon="99.110828">
<time>2014-08-04T23:42:10Z</time></trkpt>
<trkpt lat="25.581407" lon="99.110708">
<time>2014-08-04T23:42:11Z</time></trkpt>
<trkpt lat="25.581517" lon="99.110568">
<time>2014-08-04T23:42:12Z</time></trkpt>
<trkpt lat="25.581587" lon="99.110468">
<time>2014-08-04T23:42:13Z</time></trkpt>
<trkpt lat="25.581667" lon="99.110338">
<time>2014-08-04T23:42:14Z</time></trkpt>
<trkpt lat="25.581776" lon="99.110078">
<time>2014-08-04T23:42:15Z</time></trkpt>
<trkpt lat="25.582006" lon="99.109578">
<time>2014-08-04T23:42:16Z</time></trkpt>
<trkpt lat="25.582176" lon="99.109258">
<time>2014-08-04T23:42:17Z</time></trkpt>
<trkpt lat="25.582296" lon="99.109068">
<time>2014-08-04T23:42:18Z</time></trkpt>
<trkpt lat="25.582466" lon="99.108878">
<time>2014-08-04T23:42:19Z</time></trkpt>
<trkpt lat="25.582576" lon="99.108788">
<time>2014-08-04T23:42:20Z</time></trkpt>
<trkpt lat="25.582766" lon="99.108648">
<time>2014-08-04T23:42:21Z</time></trkpt>
<trkpt lat="25.583016" lon="99.108518">
<time>2014-08-04T23:42:22Z</time></trkpt>
<trkpt lat="25.583246" lon="99.108448">
<time>2014-08-04T23:42:23Z</time></trkpt>
<trkpt lat="25.583346" lon="99.108428">
<time>2014-08-04T23:42:24Z</time></trkpt>
<trkpt lat="25.583406" lon="99.108408">
<time>2014-08-04T23:42:25Z</time></trkpt>
<trkpt lat="25.583686" lon="99.108378">
<time>2014-08-04T23:42:26Z</time></trkpt>
<trkpt lat="25.583886" lon="99.108388">
<time>2014-08-04T23:42:27Z</time></trkpt>
<trkpt lat="25.584147" lon="99.108408">
<time>2014-08-04T23:42:28Z</time></trkpt>
<trkpt lat="25.584307" lon="99.108408">
<time>2014-08-04T23:42:29Z</time></trkpt>
<trkpt lat="25.584517" lon="99.108408">
<time>2014-08-04T23:42:30Z</time></trkpt>
<trkpt lat="25.584747" lon="99.108368">
<time>2014-08-04T23:42:31Z</time></trkpt>
<trkpt lat="25.584897" lon="99.108328">
<time>2014-08-04T23:42:32Z</time></trkpt>
<trkpt lat="25.585037" lon="99.108258">
<time>2014-08-04T23:42:33Z</time></trkpt>
<trkpt lat="25.585167" lon="99.108158">
<time>2014-08-04T23:42:34Z</time></trkpt>
<trkpt lat="25.585307" lon="99.108018">
<time>2014-08-04T23:42:35Z</time></trkpt>
<trkpt lat="25.585407" lon="99.107888">
<time>2014-08-04T23:42:36Z</time></trkpt>
<trkpt lat="25.585487" lon="99.107748">
<time>2014-08-04T23:42:37Z</time></trkpt>
<trkpt lat="25.585557" lon="99.107598">
<time>2014-08-04T23:42:38Z</time></trkpt>
<trkpt lat="25.585617" lon="99.107418">
<time>2014-08-04T23:42:39Z</time></trkpt>
<trkpt lat="25.585777" lon="99.106939">
<time>2014-08-04T23:42:40Z</time></trkpt>
<trkpt lat="25.585897" lon="99.106639">
<time>2014-08-04T23:42:41Z</time></trkpt>
<trkpt lat="25.586046" lon="99.106359">
<time>2014-08-04T23:42:42Z</time></trkpt>
<trkpt lat="25.586186" lon="99.106169">
<time>2014-08-04T23:42:43Z</time></trkpt>
<trkpt lat="25.586316" lon="99.105989">
<time>2014-08-04T23:42:44Z</time></trkpt>
<trkpt lat="25.586596" lon="99.105739">
<time>2014-08-04T23:42:45Z</time></trkpt>
<trkpt lat="25.586857" lon="99.105559">
<time>2014-08-04T23:42:46Z</time></trkpt>
<trkpt lat="25.587167" lon="99.105419">
<time>2014-08-04T23:42:47Z</time></trkpt>
<trkpt lat="25.587397" lon="99.105349">
<time>2014-08-04T23:42:48Z</time></trkpt>
<trkpt lat="25.587707" lon="99.105299">
<time>2014-08-04T23:42:49Z</time></trkpt>
<trkpt lat="25.588047" lon="99.105299">
<time>2014-08-04T23:42:50Z</time></trkpt>
<trkpt lat="25.588277" lon="99.105279">
<time>2014-08-04T23:42:51Z</time></trkpt>
<trkpt lat="25.588477" lon="99.105249">
<time>2014-08-04T23:42:52Z</time></trkpt>
<trkpt lat="25.588637" lon="99.105189">
<time>2014-08-04T23:42:53Z</time></trkpt>
<trkpt lat="25.588737" lon="99.105159">
<time>2014-08-04T23:42:54Z</time></trkpt>
<trkpt lat="25.588847" lon="99.105079">
<time>2014-08-04T23:42:55Z</time></trkpt>
<trkpt lat="25.588977" lon="99.104939">
<time>2014-08-04T23:42:56Z</time></trkpt>
<trkpt lat="25.589097" lon="99.104749">
<time>2014-08-04T23:42:57Z</time></trkpt>
<trkpt lat="25.589477" lon="99.10408">
<time>2014-08-04T23:42:58Z</time></trkpt>
<trkpt lat="25.589647" lon="99.10382">
<time>2014-08-04T23:42:59Z</time></trkpt>
<trkpt lat="25.589737" lon="99.1037">
<time>2014-08-04T23:43:00Z</time></trkpt>
<trkpt lat="25.589807" lon="99.10361">
<time>2014-08-04T23:43:01Z</time></trkpt>
<trkpt lat="25.589917" lon="99.10351">
<time>2014-08-04T23:43:02Z</time></trkpt>
<trkpt lat="25.590017" lon="99.10342">
<time>2014-08-04T23:43:03Z</time></trkpt>
<trkpt lat="25.590217" lon="99.10329">
<time>2014-08-04T23:43:04Z</time></trkpt>
<trkpt lat="25.590437" lon="99.10319">
<time>2014-08-04T23:43:05Z</time></trkpt>
<trkpt lat="25.590737" lon="99.10311">
<time>2014-08-04T23:43:06Z</time></trkpt>
<trkpt lat="25.590938" lon="99.1031">
<time>2014-08-04T23:43:07Z</time></trkpt>
<trkpt lat="25.591048" lon="99.1031">
<time>2014-08-04T23:43:08Z</time></trkpt>
<trkpt lat="25.591188" lon="99.10312">
<time>2014-08-04T23:43:09Z</time></trkpt>
<trkpt lat="25.591288" lon="99.10313">
<time>2014-08-04T23:43:10Z</time></trkpt>
<trkpt lat="25.591428" lon="99.10317">
<time>2014-08-04T23:43:11Z</time></trkpt>
<trkpt lat="25.591548" lon="99.10321">
<time>2014-08-04T23:43:12Z</time></trkpt>
<trkpt lat="25.592138" lon="99.10344">
<time>2014-08-04T23:43:13Z</time></trkpt>
<trkpt lat="25.592448" lon="99.10354">
<time>2014-08-04T23:43:14Z</time></trkpt>
<trkpt lat="25.592628" lon="99.10358">
<time>2014-08-04T23:43:15Z</time></trkpt>
<trkpt lat="25.592868" lon="99.10363">
<time>2014-08-04T23:43:16Z</time></trkpt>
<trkpt lat="25.593009" lon="99.10365">
<time>2014-08-04T23:43:17Z</time></trkpt>
<trkpt lat="25.593099" lon="99.10365">
<time>2014-08-04T23:43:18Z</time></trkpt>
<trkpt lat="25.593179" lon="99.10364">
<time>2014-08-04T23:43:19Z</time></trkpt>
<trkpt lat="25.593279" lon="99.10363">
<time>2014-08-04T23:43:20Z</time></trkpt>
<trkpt lat="25.593349" lon="99.10362">
<time>2014-08-04T23:43:21Z</time></trkpt>
<trkpt lat="25.593499" lon="99.10357">
<time>2014-08-04T23:43:22Z</time></trkpt>
<trkpt lat="25.593569" lon="99.10356">
<time>2014-08-04T23:43:23Z</time></trkpt>
<trkpt lat="25.593689" lon="99.10352">
<time>2014-08-04T23:43:24Z</time></trkpt>
<trkpt lat="25.593839" lon="99.10345">
<time>2014-08-04T23:43:25Z</time></trkpt>
<trkpt lat="25.594309" lon="99.10325">
<time>2014-08-04T23:43:26Z</time></trkpt>
<trkpt lat="25.594459" lon="99.10321">
<time>2014-08-04T23:43:27Z</time></trkpt>
<trkpt lat="25.594609" lon="99.10317">
<time>2014-08-04T23:43:28Z</time></trkpt>
<trkpt lat="25.594829" lon="99.10313">
<time>2014-08-04T23:43:29Z</time></trkpt>
<trkpt lat="25.595329" lon="99.10309">
<time>2014-08-04T23:43:30Z</time></trkpt>
<trkpt lat="25.59574" lon="99.1031">
<time>2014-08-04T23:43:31Z</time></trkpt>
<trkpt lat="25.59609" lon="99.10312">
<time>2014-08-04T23:43:32Z</time></trkpt>
<trkpt lat="25.59618" lon="99.10312">
<time>2014-08-04T23:43:33Z</time></trkpt>
<trkpt lat="25.59671" lon="99.10313">
<time>2014-08-04T23:43:34Z</time></trkpt>
<trkpt lat="25.59716" lon="99.10314">
<time>2014-08-04T23:43:35Z</time></trkpt>
<trkpt lat="25.59744" lon="99.10314">
<time>2014-08-04T23:43:36Z</time></trkpt>
<trkpt lat="25.59766" lon="99.10312">
<time>2014-08-04T23:43:37Z</time></trkpt>
<trkpt lat="25.597881" lon="99.10309">
<time>2014-08-04T23:43:38Z</time></trkpt>
<trkpt lat="25.598091" lon="99.10305">
<time>2014-08-04T23:43:39Z</time></trkpt>
<trkpt lat="25.598371" lon="99.10297">
<time>2014-08-04T23:43:40Z</time></trkpt>
<trkpt lat="25.598611" lon="99.10289">
<time>2014-08-04T23:43:41Z</time></trkpt>
<trkpt lat="25.598791" lon="99.10282">
<time>2014-08-04T23:43:42Z</time></trkpt>
<trkpt lat="25.599511" lon="99.10251">
<time>2014-08-04T23:43:43Z</time></trkpt>
<trkpt lat="25.599751" lon="99.10242">
<time>2014-08-04T23:43:44Z</time></trkpt>
<trkpt lat="25.599921" lon="99.102361">
<time>2014-08-04T23:43:45Z</time></trkpt>
<trkpt lat="25.600021" lon="99.102331">
<time>2014-08-04T23:43:46Z</time></trkpt>
<trkpt lat="25.600281" lon="99.102271">
<time>2014-08-04T23:43:47Z</time></trkpt>
<trkpt lat="25.600652" lon="99.102221">
<time>2014-08-04T23:43:48Z</time></trkpt>
<trkpt lat="25.600842" lon="99.102181">
<time>2014-08-04T23:43:49Z</time></trkpt>
<trkpt lat="25.601032" lon="99.102111">
<time>2014-08-04T23:43:50Z</time></trkpt>
<trkpt lat="25.601292" lon="99.101971">
<time>2014-08-04T23:43:51Z</time></trkpt>
<trkpt lat="25.601842" lon="99.101501">
<time>2014-08-04T23:43:52Z</time></trkpt>
<trkpt lat="25.602372" lon="99.100991">
<time>2014-08-04T23:43:53Z</time></trkpt>
<trkpt lat="25.602612" lon="99.100771">
<time>2014-08-04T23:43:54Z</time></trkpt>
<trkpt lat="25.602752" lon="99.100671">
<time>2014-08-04T23:43:55Z</time></trkpt>
<trkpt lat="25.602852" lon="99.100602">
<time>2014-08-04T23:43:56Z</time></trkpt>
<trkpt lat="25.603002" lon="99.100512">
<time>2014-08-04T23:43:57Z</time></trkpt>
<trkpt lat="25.603112" lon="99.100472">
<time>2014-08-04T23:43:58Z</time></trkpt>
<trkpt lat="25.603242" lon="99.100432">
<time>2014-08-04T23:43:59Z</time></trkpt>
<trkpt lat="25.603382" lon="99.100422">
<time>2014-08-04T23:44:00Z</time></trkpt>
<trkpt lat="25.603613" lon="99.100422">
<time>2014-08-04T23:44:01Z</time></trkpt>
<trkpt lat="25.603783" lon="99.100422">
<time>2014-08-04T23:44:02Z</time></trkpt>
<trkpt lat="25.603963" lon="99.100422">
<time>2014-08-04T23:44:03Z</time></trkpt>
<trkpt lat="25.604113" lon="99.100392">
<time>2014-08-04T23:44:04Z</time></trkpt>
<trkpt lat="25.604273" lon="99.100352">
<time>2014-08-04T23:44:05Z</time></trkpt>
<trkpt lat="25.604563" lon="99.100242">
<time>2014-08-04T23:44:06Z</time></trkpt>
<trkpt lat="25.604863" lon="99.100092">
<time>2014-08-04T23:44:07Z</time></trkpt>
<trkpt lat="25.605373" lon="99.099872">
<time>2014-08-04T23:44:08Z</time></trkpt>
<trkpt lat="25.605713" lon="99.099702">
<time>2014-08-04T23:44:09Z</time></trkpt>
<trkpt lat="25.605943" lon="99.099642">
<time>2014-08-04T23:44:10Z</time></trkpt>
<trkpt lat="25.605953" lon="99.099642">
<time>2014-08-04T23:44:11Z</time></trkpt>
<trkpt lat="25.606864" lon="99.099442">
<time>2014-08-04T23:44:12Z</time></trkpt>
<trkpt lat="25.607084" lon="99.099392">
<time>2014-08-04T23:44:13Z</time></trkpt>
<trkpt lat="25.607404" lon="99.099282">
<time>2014-08-04T23:44:14Z</time></trkpt>
<trkpt lat="25.607654" lon="99.099192">
<time>2014-08-04T23:44:15Z</time></trkpt>
<trkpt lat="25.608194" lon="99.098973">
<time>2014-08-04T23:44:16Z</time></trkpt>
<trkpt lat="25.608334" lon="99.098913">
<time>2014-08-04T23:44:17Z</time></trkpt>
<trkpt lat="25.608445" lon="99.098863">
<time>2014-08-04T23:44:18Z</time></trkpt>
<trkpt lat="25.608555" lon="99.098833">
<time>2014-08-04T23:44:19Z</time></trkpt>
<trkpt lat="25.608635" lon="99.098813">
<time>2014-08-04T23:44:20Z</time></trkpt>
<trkpt lat="25.608775" lon="99.098813">
<time>2014-08-04T23:44:21Z</time></trkpt>
<trkpt lat="25.609585" lon="99.098863">
<time>2014-08-04T23:44:22Z</time></trkpt>
<trkpt lat="25.610716" lon="99.098963">
<time>2014-08-04T23:44:23Z</time></trkpt>
<trkpt lat="25.611136" lon="99.098973">
<time>2014-08-04T23:44:24Z</time></trkpt>
<trkpt lat="25.611506" lon="99.098953">
<time>2014-08-04T23:44:25Z</time></trkpt>
<trkpt lat="25.611826" lon="99.098913">
<time>2014-08-04T23:44:26Z</time></trkpt>
<trkpt lat="25.612296" lon="99.098843">
<time>2014-08-04T23:44:27Z</time></trkpt>
<trkpt lat="25.612486" lon="99.098803">
<time>2014-08-04T23:44:28Z</time></trkpt>
<trkpt lat="25.612907" lon="99.098743">
<time>2014-08-04T23:44:29Z</time></trkpt>
<trkpt lat="25.614187" lon="99.098573">
<time>2014-08-04T23:44:30Z</time></trkpt>
<trkpt lat="25.615508" lon="99.098423">
<time>2014-08-04T23:44:31Z</time></trkpt>
<trkpt lat="25.615858" lon="99.098393">
<time>2014-08-04T23:44:32Z</time></trkpt>
<trkpt lat="25.615978" lon="99.098393">
<time>2014-08-04T23:44:33Z</time></trkpt>
<trkpt lat="25.616178" lon="99.098403">
<time>2014-08-04T23:44:34Z</time></trkpt>
<trkpt lat="25.616498" lon="99.098433">
<time>2014-08-04T23:44:35Z</time></trkpt>
<trkpt lat="25.617138" lon="99.098533">
<time>2014-08-04T23:44:36Z</time></trkpt>
<trkpt lat="25.618309" lon="99.098782">
<time>2014-08-04T23:44:37Z</time></trkpt>
<trkpt lat="25.619309" lon="99.098972">
<time>2014-08-04T23:44:38Z</time></trkpt>
<trkpt lat="25.61956" lon="99.099032">
<time>2014-08-04T23:44:39Z</time></trkpt>
<trkpt lat="25.62" lon="99.099182">
<time>2014-08-04T23:44:40Z</time></trkpt>
<trkpt lat="25.62078" lon="99.099532">
<time>2014-08-04T23:44:41Z</time></trkpt>
<trkpt lat="25.621411" lon="99.099912">
<time>2014-08-04T23:44:42Z</time></trkpt>
<trkpt lat="25.621571" lon="99.100012">
<time>2014-08-04T23:44:43Z</time></trkpt>
<trkpt lat="25.623001" lon="99.100961">
<time>2014-08-04T23:44:44Z</time></trkpt>
<trkpt lat="25.623522" lon="99.101261">
<time>2014-08-04T23:44:45Z</time></trkpt>
<trkpt lat="25.623802" lon="99.101411">
<time>2014-08-04T23:44:46Z</time></trkpt>
<trkpt lat="25.624202" lon="99.10156">
<time>2014-08-04T23:44:47Z</time></trkpt>
<trkpt lat="25.624222" lon="99.10157">
<time>2014-08-04T23:44:48Z</time></trkpt>
<trkpt lat="25.626343" lon="99.10222">
<time>2014-08-04T23:44:49Z</time></trkpt>
<trkpt lat="25.627034" lon="99.10246">
<time>2014-08-04T23:44:50Z</time></trkpt>
<trkpt lat="25.627254" lon="99.10258">
<time>2014-08-04T23:44:51Z</time></trkpt>
<trkpt lat="25.627504" lon="99.10272">
<time>2014-08-04T23:44:52Z</time></trkpt>
<trkpt lat="25.627594" lon="99.1028">
<time>2014-08-04T23:44:53Z</time></trkpt>
<trkpt lat="25.627764" lon="99.10294">
<time>2014-08-04T23:44:54Z</time></trkpt>
<trkpt lat="25.627914" lon="99.103089">
<time>2014-08-04T23:44:55Z</time></trkpt>
<trkpt lat="25.628084" lon="99.103279">
<time>2014-08-04T23:44:56Z</time></trkpt>
<trkpt lat="25.628505" lon="99.103779">
<time>2014-08-04T23:44:57Z</time></trkpt>
<trkpt lat="25.628735" lon="99.104049">
<time>2014-08-04T23:44:58Z</time></trkpt>
<trkpt lat="25.628915" lon="99.104219">
<time>2014-08-04T23:44:59Z</time></trkpt>
<trkpt lat="25.629135" lon="99.104369">
<time>2014-08-04T23:45:00Z</time></trkpt>
<trkpt lat="25.629255" lon="99.104439">
<time>2014-08-04T23:45:01Z</time></trkpt>
<trkpt lat="25.629365" lon="99.104489">
<time>2014-08-04T23:45:02Z</time></trkpt>
<trkpt lat="25.629475" lon="99.104519">
<time>2014-08-04T23:45:03Z</time></trkpt>
<trkpt lat="25.629595" lon="99.104549">
<time>2014-08-04T23:45:04Z</time></trkpt>
<trkpt lat="25.629806" lon="99.104579">
<time>2014-08-04T23:45:05Z</time></trkpt>
<trkpt lat="25.630016" lon="99.104609">
<time>2014-08-04T23:45:06Z</time></trkpt>
<trkpt lat="25.630126" lon="99.104619">
<time>2014-08-04T23:45:07Z</time></trkpt>
<trkpt lat="25.630196" lon="99.104639">
<time>2014-08-04T23:45:08Z</time></trkpt>
<trkpt lat="25.630256" lon="99.104659">
<time>2014-08-04T23:45:09Z</time></trkpt>
<trkpt lat="25.630336" lon="99.104689">
<time>2014-08-04T23:45:10Z</time></trkpt>
<trkpt lat="25.630426" lon="99.104729">
<time>2014-08-04T23:45:11Z</time></trkpt>
<trkpt lat="25.630506" lon="99.104769">
<time>2014-08-04T23:45:12Z</time></trkpt>
<trkpt lat="25.630576" lon="99.104789">
<time>2014-08-04T23:45:13Z</time></trkpt>
<trkpt lat="25.630596" lon="99.104789">
<time>2014-08-04T23:45:14Z</time></trkpt>
<trkpt lat="25.630646" lon="99.104799">
<time>2014-08-04T23:45:15Z</time></trkpt>
<trkpt lat="25.630826" lon="99.104829">
<time>2014-08-04T23:45:16Z</time></trkpt>
<trkpt lat="25.631076" lon="99.104888">
<time>2014-08-04T23:45:17Z</time></trkpt>
<trkpt lat="25.631166" lon="99.104898">
<time>2014-08-04T23:45:18Z</time></trkpt>
<trkpt lat="25.631226" lon="99.104898">
<time>2014-08-04T23:45:19Z</time></trkpt>
<trkpt lat="25.631286" lon="99.104888">
<time>2014-08-04T23:45:20Z</time></trkpt>
<trkpt lat="25.631356" lon="99.104888">
<time>2014-08-04T23:45:21Z</time></trkpt>
<trkpt lat="25.631416" lon="99.104868">
<time>2014-08-04T23:45:22Z</time></trkpt>
<trkpt lat="25.631466" lon="99.104849">
<time>2014-08-04T23:45:23Z</time></trkpt>
<trkpt lat="25.631616" lon="99.104779">
<time>2014-08-04T23:45:24Z</time></trkpt>
<trkpt lat="25.631656" lon="99.104759">
<time>2014-08-04T23:45:25Z</time></trkpt>
<trkpt lat="25.631776" lon="99.104739">
<time>2014-08-04T23:45:26Z</time></trkpt>
<trkpt lat="25.632227" lon="99.104639">
<time>2014-08-04T23:45:27Z</time></trkpt>
<trkpt lat="25.632467" lon="99.104549">
<time>2014-08-04T23:45:28Z</time></trkpt>
<trkpt lat="25.632707" lon="99.104489">
<time>2014-08-04T23:45:29Z</time></trkpt>
<trkpt lat="25.632887" lon="99.104479">
<time>2014-08-04T23:45:30Z</time></trkpt>
<trkpt lat="25.633157" lon="99.104469">
<time>2014-08-04T23:45:31Z</time></trkpt>
<trkpt lat="25.633477" lon="99.104489">
<time>2014-08-04T23:45:32Z</time></trkpt>
<trkpt lat="25.633757" lon="99.104529">
<time>2014-08-04T23:45:33Z</time></trkpt>
<trkpt lat="25.634338" lon="99.104659">
<time>2014-08-04T23:45:34Z</time></trkpt>
<trkpt lat="25.635048" lon="99.104808">
<time>2014-08-04T23:45:35Z</time></trkpt>
<trkpt lat="25.635288" lon="99.104868">
<time>2014-08-04T23:45:36Z</time></trkpt>
<trkpt lat="25.635488" lon="99.104888">
<time>2014-08-04T23:45:37Z</time></trkpt>
<trkpt lat="25.635688" lon="99.104898">
<time>2014-08-04T23:45:38Z</time></trkpt>
<trkpt lat="25.635879" lon="99.104888">
<time>2014-08-04T23:45:39Z</time></trkpt>
<trkpt lat="25.636049" lon="99.104868">
<time>2014-08-04T23:45:40Z</time></trkpt>
<trkpt lat="25.636299" lon="99.104828">
<time>2014-08-04T23:45:41Z</time></trkpt>
<trkpt lat="25.636569" lon="99.104778">
<time>2014-08-04T23:45:42Z</time></trkpt>
<trkpt lat="25.636569" lon="99.104778">
<time>2014-08-04T23:45:43Z</time></trkpt>
<trkpt lat="25.641061" lon="99.104908">
<time>2014-08-04T23:45:44Z</time></trkpt>
<trkpt lat="25.641691" lon="99.104858">
<time>2014-08-04T23:45:45Z</time></trkpt>
<trkpt lat="25.642342" lon="99.104748">
<time>2014-08-04T23:45:46Z</time></trkpt>
<trkpt lat="25.642992" lon="99.104538">
<time>2014-08-04T23:45:47Z</time></trkpt>
<trkpt lat="25.643812" lon="99.104249">
<time>2014-08-04T23:45:48Z</time></trkpt>
<trkpt lat="25.643912" lon="99.104209">
<time>2014-08-04T23:45:49Z</time></trkpt>
<trkpt lat="25.644332" lon="99.104019">
<time>2014-08-04T23:45:50Z</time></trkpt>
<trkpt lat="25.645943" lon="99.103059">
<time>2014-08-04T23:45:51Z</time></trkpt>
<trkpt lat="25.645943" lon="99.103059">
<time>2014-08-04T23:45:52Z</time></trkpt>
<trkpt lat="25.646073" lon="99.103139">
<time>2014-08-04T23:45:53Z</time></trkpt>
<trkpt lat="25.646213" lon="99.103229">
<time>2014-08-04T23:45:54Z</time></trkpt>
<trkpt lat="25.646333" lon="99.103339">
<time>2014-08-04T23:45:55Z</time></trkpt>
<trkpt lat="25.646373" lon="99.103389">
<time>2014-08-04T23:45:56Z</time></trkpt>
<trkpt lat="25.646433" lon="99.103479">
<time>2014-08-04T23:45:57Z</time></trkpt>
<trkpt lat="25.646503" lon="99.103699">
<time>2014-08-04T23:45:58Z</time></trkpt>
<trkpt lat="25.646664" lon="99.104139">
<time>2014-08-04T23:45:59Z</time></trkpt>
<trkpt lat="25.646724" lon="99.104368">
<time>2014-08-04T23:46:00Z</time></trkpt>
<trkpt lat="25.646754" lon="99.104508">
<time>2014-08-04T23:46:01Z</time></trkpt>
<trkpt lat="25.646764" lon="99.104698">
<time>2014-08-04T23:46:02Z</time></trkpt>
<trkpt lat="25.646744" lon="99.105328">
<time>2014-08-04T23:46:03Z</time></trkpt>
<trkpt lat="25.646764" lon="99.105498">
<time>2014-08-04T23:46:04Z</time></trkpt>
<trkpt lat="25.646784" lon="99.105648">
<time>2014-08-04T23:46:05Z</time></trkpt>
<trkpt lat="25.646814" lon="99.105748">
<time>2014-08-04T23:46:06Z</time></trkpt>
<trkpt lat="25.646874" lon="99.105858">
<time>2014-08-04T23:46:07Z</time></trkpt>
<trkpt lat="25.646944" lon="99.105978">
<time>2014-08-04T23:46:08Z</time></trkpt>
<trkpt lat="25.647174" lon="99.106208">
<time>2014-08-04T23:46:09Z</time></trkpt>
<trkpt lat="25.647415" lon="99.106477">
<time>2014-08-04T23:46:10Z</time></trkpt>
<trkpt lat="25.647605" lon="99.106737">
<time>2014-08-04T23:46:11Z</time></trkpt>
<trkpt lat="25.648065" lon="99.107517">
<time>2014-08-04T23:46:12Z</time></trkpt>
<trkpt lat="25.648386" lon="99.108017">
<time>2014-08-04T23:46:13Z</time></trkpt>
<trkpt lat="25.648546" lon="99.108247">
<time>2014-08-04T23:46:14Z</time></trkpt>
<trkpt lat="25.648666" lon="99.108387">
<time>2014-08-04T23:46:15Z</time></trkpt>
<trkpt lat="25.648856" lon="99.108547">
<time>2014-08-04T23:46:16Z</time></trkpt>
<trkpt lat="25.649227" lon="99.108807">
<time>2014-08-04T23:46:17Z</time></trkpt>
<trkpt lat="25.649357" lon="99.108927">
<time>2014-08-04T23:46:18Z</time></trkpt>
<trkpt lat="25.649447" lon="99.109037">
<time>2014-08-04T23:46:19Z</time></trkpt>
<trkpt lat="25.649517" lon="99.109187">
<time>2014-08-04T23:46:20Z</time></trkpt>
<trkpt lat="25.649547" lon="99.109287">
<time>2014-08-04T23:46:21Z</time></trkpt>
<trkpt lat="25.649727" lon="99.109766">
<time>2014-08-04T23:46:22Z</time></trkpt>
<trkpt lat="25.649898" lon="99.110156">
<time>2014-08-04T23:46:23Z</time></trkpt>
<trkpt lat="25.649908" lon="99.110186">
<time>2014-08-04T23:46:24Z</time></trkpt>
<trkpt lat="25.650108" lon="99.110546">
<time>2014-08-04T23:46:25Z</time></trkpt>
<trkpt lat="25.650509" lon="99.111166">
<time>2014-08-04T23:46:26Z</time></trkpt>
<trkpt lat="25.650829" lon="99.111596">
<time>2014-08-04T23:46:27Z</time></trkpt>
<trkpt lat="25.65138" lon="99.112336">
<time>2014-08-04T23:46:28Z</time></trkpt>
<trkpt lat="25.65148" lon="99.112486">
<time>2014-08-04T23:46:29Z</time></trkpt>
<trkpt lat="25.652021" lon="99.113206">
<time>2014-08-04T23:46:30Z</time></trkpt>
<trkpt lat="25.652311" lon="99.113676">
<time>2014-08-04T23:46:31Z</time></trkpt>
<trkpt lat="25.652622" lon="99.114226">
<time>2014-08-04T23:46:32Z</time></trkpt>
<trkpt lat="25.652882" lon="99.114656">
<time>2014-08-04T23:46:33Z</time></trkpt>
<trkpt lat="25.652972" lon="99.114806">
<time>2014-08-04T23:46:34Z</time></trkpt>
<trkpt lat="25.653112" lon="99.114936">
<time>2014-08-04T23:46:35Z</time></trkpt>
<trkpt lat="25.653473" lon="99.115206">
<time>2014-08-04T23:46:36Z</time></trkpt>
<trkpt lat="25.654183" lon="99.115736">
<time>2014-08-04T23:46:37Z</time></trkpt>
<trkpt lat="25.654564" lon="99.116006">
<time>2014-08-04T23:46:38Z</time></trkpt>
<trkpt lat="25.654684" lon="99.116116">
<time>2014-08-04T23:46:39Z</time></trkpt>
<trkpt lat="25.654774" lon="99.116216">
<time>2014-08-04T23:46:40Z</time></trkpt>
<trkpt lat="25.654824" lon="99.116316">
<time>2014-08-04T23:46:41Z</time></trkpt>
<trkpt lat="25.654874" lon="99.116436">
<time>2014-08-04T23:46:42Z</time></trkpt>
<trkpt lat="25.654884" lon="99.116556">
<time>2014-08-04T23:46:43Z</time></trkpt>
<trkpt lat="25.654885" lon="99.116706">
<time>2014-08-04T23:46:44Z</time></trkpt>
<trkpt lat="25.654825" lon="99.117506">
<time>2014-08-04T23:46:45Z</time></trkpt>
<trkpt lat="25.654716" lon="99.118906">
<time>2014-08-04T23:46:46Z</time></trkpt>
<trkpt lat="25.654657" lon="99.119716">
<time>2014-08-04T23:46:47Z</time></trkpt>
<trkpt lat="25.654637" lon="99.119966">
<time>2014-08-04T23:46:48Z</time></trkpt>
<trkpt lat="25.654588" lon="99.120696">
<time>2014-08-04T23:46:49Z</time></trkpt>
<trkpt lat="25.654598" lon="99.120976">
<time>2014-08-04T23:46:50Z</time></trkpt>
<trkpt lat="25.654608" lon="99.121156">
<time>2014-08-04T23:46:51Z</time></trkpt>
<trkpt lat="25.654608" lon="99.121156">
<time>2014-08-04T23:46:52Z</time></trkpt>
<trkpt lat="25.6558" lon="99.122357">
<time>2014-08-04T23:46:53Z</time></trkpt>
<trkpt lat="25.656241" lon="99.122797">
<time>2014-08-04T23:46:54Z</time></trkpt>
<trkpt lat="25.656491" lon="99.123167">
<time>2014-08-04T23:46:55Z</time></trkpt>
<trkpt lat="25.656652" lon="99.123327">
<time>2014-08-04T23:46:56Z</time></trkpt>
<trkpt lat="25.656802" lon="99.123437">
<time>2014-08-04T23:46:57Z</time></trkpt>
<trkpt lat="25.657042" lon="99.123497">
<time>2014-08-04T23:46:58Z</time></trkpt>
<trkpt lat="25.657312" lon="99.123587">
<time>2014-08-04T23:46:59Z</time></trkpt>
<trkpt lat="25.657673" lon="99.123767">
<time>2014-08-04T23:47:00Z</time></trkpt>
<trkpt lat="25.658083" lon="99.123837">
<time>2014-08-04T23:47:01Z</time></trkpt>
<trkpt lat="25.658553" lon="99.123817">
<time>2014-08-04T23:47:02Z</time></trkpt>
<trkpt lat="25.659033" lon="99.123757">
<time>2014-08-04T23:47:03Z</time></trkpt>
<trkpt lat="25.659584" lon="99.123937">
<time>2014-08-04T23:47:04Z</time></trkpt>
<trkpt lat="25.661055" lon="99.124257">
<time>2014-08-04T23:47:05Z</time></trkpt>
<trkpt lat="25.661905" lon="99.124467">
<time>2014-08-04T23:47:06Z</time></trkpt>
<trkpt lat="25.662446" lon="99.124487">
<time>2014-08-04T23:47:07Z</time></trkpt>
<trkpt lat="25.663076" lon="99.124437">
<time>2014-08-04T23:47:08Z</time></trkpt>
<trkpt lat="25.664197" lon="99.124477">
<time>2014-08-04T23:47:09Z</time></trkpt>
<trkpt lat="25.665117" lon="99.124567">
<time>2014-08-04T23:47:10Z</time></trkpt>
<trkpt lat="25.665818" lon="99.124707">
<time>2014-08-04T23:47:11Z</time></trkpt>
<trkpt lat="25.666678" lon="99.125007">
<time>2014-08-04T23:47:12Z</time></trkpt>
<trkpt lat="25.666698" lon="99.125017">
<time>2014-08-04T23:47:13Z</time></trkpt>
<trkpt lat="25.666708" lon="99.125017">
<time>2014-08-04T23:47:14Z</time></trkpt>
<trkpt lat="25.667049" lon="99.125357">
<time>2014-08-04T23:47:15Z</time></trkpt>
<trkpt lat="25.667309" lon="99.125527">
<time>2014-08-04T23:47:16Z</time></trkpt>
<trkpt lat="25.66829" lon="99.125668">
<time>2014-08-04T23:47:17Z</time></trkpt>
<trkpt lat="25.66829" lon="99.125668">
<time>2014-08-04T23:47:18Z</time></trkpt>
<trkpt lat="25.66839" lon="99.125658">
<time>2014-08-04T23:47:19Z</time></trkpt>
<trkpt lat="25.66874" lon="99.125617">
<time>2014-08-04T23:47:20Z</time></trkpt>
<trkpt lat="25.66896" lon="99.125607">
<time>2014-08-04T23:47:21Z</time></trkpt>
<trkpt lat="25.66912" lon="99.125617">
<time>2014-08-04T23:47:22Z</time></trkpt>
<trkpt lat="25.669531" lon="99.125657">
<time>2014-08-04T23:47:23Z</time></trkpt>
<trkpt lat="25.669751" lon="99.125687">
<time>2014-08-04T23:47:24Z</time></trkpt>
<trkpt lat="25.669961" lon="99.125717">
<time>2014-08-04T23:47:25Z</time></trkpt>
<trkpt lat="25.670171" lon="99.125758">
<time>2014-08-04T23:47:26Z</time></trkpt>
<trkpt lat="25.670281" lon="99.125788">
<time>2014-08-04T23:47:27Z</time></trkpt>
<trkpt lat="25.670461" lon="99.125838">
<time>2014-08-04T23:47:28Z</time></trkpt>
<trkpt lat="25.670621" lon="99.125888">
<time>2014-08-04T23:47:29Z</time></trkpt>
<trkpt lat="25.670772" lon="99.125928">
<time>2014-08-04T23:47:30Z</time></trkpt>
<trkpt lat="25.670912" lon="99.125968">
<time>2014-08-04T23:47:31Z</time></trkpt>
<trkpt lat="25.671152" lon="99.126038">
<time>2014-08-04T23:47:32Z</time></trkpt>
<trkpt lat="25.671322" lon="99.126088">
<time>2014-08-04T23:47:33Z</time></trkpt>
<trkpt lat="25.671512" lon="99.126138">
<time>2014-08-04T23:47:34Z</time></trkpt>
<trkpt lat="25.671592" lon="99.126158">
<time>2014-08-04T23:47:35Z</time></trkpt>
<trkpt lat="25.671672" lon="99.126168">
<time>2014-08-04T23:47:36Z</time></trkpt>
<trkpt lat="25.671842" lon="99.126188">
<time>2014-08-04T23:47:37Z</time></trkpt>
<trkpt lat="25.671962" lon="99.126198">
<time>2014-08-04T23:47:38Z</time></trkpt>
<trkpt lat="25.672103" lon="99.126208">
<time>2014-08-04T23:47:39Z</time></trkpt>
<trkpt lat="25.672363" lon="99.126228">
<time>2014-08-04T23:47:40Z</time></trkpt>
<trkpt lat="25.672653" lon="99.126248">
<time>2014-08-04T23:47:41Z</time></trkpt>
<trkpt lat="25.673043" lon="99.126278">
<time>2014-08-04T23:47:42Z</time></trkpt>
<trkpt lat="25.673303" lon="99.126308">
<time>2014-08-04T23:47:43Z</time></trkpt>
<trkpt lat="25.673544" lon="99.126358">
<time>2014-08-04T23:47:44Z</time></trkpt>
<trkpt lat="25.673754" lon="99.126408">
<time>2014-08-04T23:47:45Z</time></trkpt>
<trkpt lat="25.674054" lon="99.126488">
<time>2014-08-04T23:47:46Z</time></trkpt>
<trkpt lat="25.674284" lon="99.126558">
<time>2014-08-04T23:47:47Z</time></trkpt>
<trkpt lat="25.674514" lon="99.126618">
<time>2014-08-04T23:47:48Z</time></trkpt>
<trkpt lat="25.674765" lon="99.126688">
<time>2014-08-04T23:47:49Z</time></trkpt>
<trkpt lat="25.674955" lon="99.126768">
<time>2014-08-04T23:47:50Z</time></trkpt>
<trkpt lat="25.675075" lon="99.126838">
<time>2014-08-04T23:47:51Z</time></trkpt>
<trkpt lat="25.675175" lon="99.126888">
<time>2014-08-04T23:47:52Z</time></trkpt>
<trkpt lat="25.675505" lon="99.127118">
<time>2014-08-04T23:47:53Z</time></trkpt>
<trkpt lat="25.675646" lon="99.127238">
<time>2014-08-04T23:47:54Z</time></trkpt>
<trkpt lat="25.675856" lon="99.127428">
<time>2014-08-04T23:47:55Z</time></trkpt>
<trkpt lat="25.675976" lon="99.127548">
<time>2014-08-04T23:47:56Z</time></trkpt>
<trkpt lat="25.676076" lon="99.127638">
<time>2014-08-04T23:47:57Z</time></trkpt>
<trkpt lat="25.676186" lon="99.127738">
<time>2014-08-04T23:47:58Z</time></trkpt>
<trkpt lat="25.676307" lon="99.127818">
<time>2014-08-04T23:47:59Z</time></trkpt>
<trkpt lat="25.676437" lon="99.127898">
<time>2014-08-04T23:48:00Z</time></trkpt>
<trkpt lat="25.676577" lon="99.127978">
<time>2014-08-04T23:48:01Z</time></trkpt>
<trkpt lat="25.676747" lon="99.128078">
<time>2014-08-04T23:48:02Z</time></trkpt>
<trkpt lat="25.676907" lon="99.128168">
<time>2014-08-04T23:48:03Z</time></trkpt>
<trkpt lat="25.676997" lon="99.128218">
<time>2014-08-04T23:48:04Z</time></trkpt>
<trkpt lat="25.677068" lon="99.128289">
<time>2014-08-04T23:48:05Z</time></trkpt>
<trkpt lat="25.677098" lon="99.128329">
<time>2014-08-04T23:48:06Z</time></trkpt>
<trkpt lat="25.677138" lon="99.128379">
<time>2014-08-04T23:48:07Z</time></trkpt>
<trkpt lat="25.677228" lon="99.128509">
<time>2014-08-04T23:48:08Z</time></trkpt>
<trkpt lat="25.677408" lon="99.128879">
<time>2014-08-04T23:48:09Z</time></trkpt>
<trkpt lat="25.677579" lon="99.129199">
<time>2014-08-04T23:48:10Z</time></trkpt>
<trkpt lat="25.677639" lon="99.129319">
<time>2014-08-04T23:48:11Z</time></trkpt>
<trkpt lat="25.677689" lon="99.129389">
<time>2014-08-04T23:48:12Z</time></trkpt>
<trkpt lat="25.677769" lon="99.129479">
<time>2014-08-04T23:48:13Z</time></trkpt>
<trkpt lat="25.67785" lon="99.129549">
<time>2014-08-04T23:48:14Z</time></trkpt>
<trkpt lat="25.67791" lon="99.129589">
<time>2014-08-04T23:48:15Z</time></trkpt>
<trkpt lat="25.67798" lon="99.129629">
<time>2014-08-04T23:48:16Z</time></trkpt>
<trkpt lat="25.67836" lon="99.129819">
<time>2014-08-04T23:48:17Z</time></trkpt>
<trkpt lat="25.67861" lon="99.129949">
<time>2014-08-04T23:48:18Z</time></trkpt>
<trkpt lat="25.678871" lon="99.130079">
<time>2014-08-04T23:48:19Z</time></trkpt>
<trkpt lat="25.679121" lon="99.13023">
<time>2014-08-04T23:48:20Z</time></trkpt>
<trkpt lat="25.679381" lon="99.13041">
<time>2014-08-04T23:48:21Z</time></trkpt>
<trkpt lat="25.679742" lon="99.13067">
<time>2014-08-04T23:48:22Z</time></trkpt>
<trkpt lat="25.680163" lon="99.13097">
<time>2014-08-04T23:48:23Z</time></trkpt>
<trkpt lat="25.680453" lon="99.13118">
<time>2014-08-04T23:48:24Z</time></trkpt>
<trkpt lat="25.680733" lon="99.13137">
<time>2014-08-04T23:48:25Z</time></trkpt>
<trkpt lat="25.680994" lon="99.13158">
<time>2014-08-04T23:48:26Z</time></trkpt>
<trkpt lat="25.681484" lon="99.13192">
<time>2014-08-04T23:48:27Z</time></trkpt>
<trkpt lat="25.681885" lon="99.132211">
<time>2014-08-04T23:48:28Z</time></trkpt>
<trkpt lat="25.682466" lon="99.132641">
<time>2014-08-04T23:48:29Z</time></trkpt>
<trkpt lat="25.683578" lon="99.133431">
<time>2014-08-04T23:48:30Z</time></trkpt>
<trkpt lat="25.683688" lon="99.133491">
<time>2014-08-04T23:48:31Z</time></trkpt>
<trkpt lat="25.683768" lon="99.133521">
<time>2014-08-04T23:48:32Z</time></trkpt>
<trkpt lat="25.683958" lon="99.133582">
<time>2014-08-04T23:48:33Z</time></trkpt>
<trkpt lat="25.684408" lon="99.133662">
<time>2014-08-04T23:48:34Z</time></trkpt>
<trkpt lat="25.685079" lon="99.133812">
<time>2014-08-04T23:48:35Z</time></trkpt>
<trkpt lat="25.685559" lon="99.133902">
<time>2014-08-04T23:48:36Z</time></trkpt>
<trkpt lat="25.685849" lon="99.133942">
<time>2014-08-04T23:48:37Z</time></trkpt>
<trkpt lat="25.68612" lon="99.133972">
<time>2014-08-04T23:48:38Z</time></trkpt>
<trkpt lat="25.68651" lon="99.133962">
<time>2014-08-04T23:48:39Z</time></trkpt>
<trkpt lat="25.68688" lon="99.133962">
<time>2014-08-04T23:48:40Z</time></trkpt>
<trkpt lat="25.68704" lon="99.133972">
<time>2014-08-04T23:48:41Z</time></trkpt>
<trkpt lat="25.68716" lon="99.133992">
<time>2014-08-04T23:48:42Z</time></trkpt>
<trkpt lat="25.68731" lon="99.134032">
<time>2014-08-04T23:48:43Z</time></trkpt>
<trkpt lat="25.687711" lon="99.134152">
<time>2014-08-04T23:48:44Z</time></trkpt>
<trkpt lat="25.688181" lon="99.134302">
<time>2014-08-04T23:48:45Z</time></trkpt>
<trkpt lat="25.688662" lon="99.134462">
<time>2014-08-04T23:48:46Z</time></trkpt>
<trkpt lat="25.689002" lon="99.134562">
<time>2014-08-04T23:48:47Z</time></trkpt>
<trkpt lat="25.689262" lon="99.134642">
<time>2014-08-04T23:48:48Z</time></trkpt>
<trkpt lat="25.689342" lon="99.134682">
<time>2014-08-04T23:48:49Z</time></trkpt>
<trkpt lat="25.689402" lon="99.134712">
<time>2014-08-04T23:48:50Z</time></trkpt>
<trkpt lat="25.689463" lon="99.134752">
<time>2014-08-04T23:48:51Z</time></trkpt>
<trkpt lat="25.689503" lon="99.134782">
<time>2014-08-04T23:48:52Z</time></trkpt>
<trkpt lat="25.689763" lon="99.135022">
<time>2014-08-04T23:48:53Z</time></trkpt>
<trkpt lat="25.690144" lon="99.135403">
<time>2014-08-04T23:48:54Z</time></trkpt>
<trkpt lat="25.690495" lon="99.135763">
<time>2014-08-04T23:48:55Z</time></trkpt>
<trkpt lat="25.690865" lon="99.136133">
<time>2014-08-04T23:48:56Z</time></trkpt>
<trkpt lat="25.690985" lon="99.136233">
<time>2014-08-04T23:48:57Z</time></trkpt>
<trkpt lat="25.691096" lon="99.136303">
<time>2014-08-04T23:48:58Z</time></trkpt>
<trkpt lat="25.691336" lon="99.136433">
<time>2014-08-04T23:48:59Z</time></trkpt>
<trkpt lat="25.691866" lon="99.136634">
<time>2014-08-04T23:49:00Z</time></trkpt>
<trkpt lat="25.692077" lon="99.136714">
<time>2014-08-04T23:49:01Z</time></trkpt>
<trkpt lat="25.692477" lon="99.136874">
<time>2014-08-04T23:49:02Z</time></trkpt>
<trkpt lat="25.692938" lon="99.137034">
<time>2014-08-04T23:49:03Z</time></trkpt>
<trkpt lat="25.693198" lon="99.137114">
<time>2014-08-04T23:49:04Z</time></trkpt>
<trkpt lat="25.693548" lon="99.137184">
<time>2014-08-04T23:49:05Z</time></trkpt>
<trkpt lat="25.693888" lon="99.137234">
<time>2014-08-04T23:49:06Z</time></trkpt>
<trkpt lat="25.694079" lon="99.137234">
<time>2014-08-04T23:49:07Z</time></trkpt>
<trkpt lat="25.694239" lon="99.137214">
<time>2014-08-04T23:49:08Z</time></trkpt>
<trkpt lat="25.694369" lon="99.137184">
<time>2014-08-04T23:49:09Z</time></trkpt>
<trkpt lat="25.694479" lon="99.137144">
<time>2014-08-04T23:49:10Z</time></trkpt>
<trkpt lat="25.694779" lon="99.137034">
<time>2014-08-04T23:49:11Z</time></trkpt>
<trkpt lat="25.695139" lon="99.136884">
<time>2014-08-04T23:49:12Z</time></trkpt>
<trkpt lat="25.695649" lon="99.136684">
<time>2014-08-04T23:49:13Z</time></trkpt>
<trkpt lat="25.695879" lon="99.136603">
<time>2014-08-04T23:49:14Z</time></trkpt>
<trkpt lat="25.695999" lon="99.136563">
<time>2014-08-04T23:49:15Z</time></trkpt>
<trkpt lat="25.696049" lon="99.136543">
<time>2014-08-04T23:49:16Z</time></trkpt>
<trkpt lat="25.696129" lon="99.136533">
<time>2014-08-04T23:49:17Z</time></trkpt>
<trkpt lat="25.696199" lon="99.136513">
<time>2014-08-04T23:49:18Z</time></trkpt>
<trkpt lat="25.696349" lon="99.136503">
<time>2014-08-04T23:49:19Z</time></trkpt>
<trkpt lat="25.696539" lon="99.136513">
<time>2014-08-04T23:49:20Z</time></trkpt>
<trkpt lat="25.697079" lon="99.136583">
<time>2014-08-04T23:49:21Z</time></trkpt>
<trkpt lat="25.69747" lon="99.136643">
<time>2014-08-04T23:49:22Z</time></trkpt>
<trkpt lat="25.6981" lon="99.136723">
<time>2014-08-04T23:49:23Z</time></trkpt>
<trkpt lat="25.69858" lon="99.136794">
<time>2014-08-04T23:49:24Z</time></trkpt>
<trkpt lat="25.698851" lon="99.136874">
<time>2014-08-04T23:49:25Z</time></trkpt>
<trkpt lat="25.699201" lon="99.137014">
<time>2014-08-04T23:49:26Z</time></trkpt>
<trkpt lat="25.699581" lon="99.137164">
<time>2014-08-04T23:49:27Z</time></trkpt>
<trkpt lat="25.699892" lon="99.137274">
<time>2014-08-04T23:49:28Z</time></trkpt>
<trkpt lat="25.700342" lon="99.137454">
<time>2014-08-04T23:49:29Z</time></trkpt>
<trkpt lat="25.700462" lon="99.137504">
<time>2014-08-04T23:49:30Z</time></trkpt>
<trkpt lat="25.700533" lon="99.137524">
<time>2014-08-04T23:49:31Z</time></trkpt>
<trkpt lat="25.700643" lon="99.137564">
<time>2014-08-04T23:49:32Z</time></trkpt>
<trkpt lat="25.700773" lon="99.137594">
<time>2014-08-04T23:49:33Z</time></trkpt>
<trkpt lat="25.701363" lon="99.137624">
<time>2014-08-04T23:49:34Z</time></trkpt>
<trkpt lat="25.701523" lon="99.137654">
<time>2014-08-04T23:49:35Z</time></trkpt>
<trkpt lat="25.701623" lon="99.137674">
<time>2014-08-04T23:49:36Z</time></trkpt>
<trkpt lat="25.701723" lon="99.137714">
<time>2014-08-04T23:49:37Z</time></trkpt>
<trkpt lat="25.701824" lon="99.137764">
<time>2014-08-04T23:49:38Z</time></trkpt>
<trkpt lat="25.701984" lon="99.137884">
<time>2014-08-04T23:49:39Z</time></trkpt>
<trkpt lat="25.702184" lon="99.138084">
<time>2014-08-04T23:49:40Z</time></trkpt>
<trkpt lat="25.702435" lon="99.138315">
<time>2014-08-04T23:49:41Z</time></trkpt>
<trkpt lat="25.702665" lon="99.138505">
<time>2014-08-04T23:49:42Z</time></trkpt>
<trkpt lat="25.702785" lon="99.138565">
<time>2014-08-04T23:49:43Z</time></trkpt>
<trkpt lat="25.702895" lon="99.138595">
<time>2014-08-04T23:49:44Z</time></trkpt>
<trkpt lat="25.702975" lon="99.138585">
<time>2014-08-04T23:49:45Z</time></trkpt>
<trkpt lat="25.703055" lon="99.138565">
<time>2014-08-04T23:49:46Z</time></trkpt>
<trkpt lat="25.703125" lon="99.138545">
<time>2014-08-04T23:49:47Z</time></trkpt>
<trkpt lat="25.703235" lon="99.138485">
<time>2014-08-04T23:49:48Z</time></trkpt>
<trkpt lat="25.703375" lon="99.138395">
<time>2014-08-04T23:49:49Z</time></trkpt>
<trkpt lat="25.703875" lon="99.138104">
<time>2014-08-04T23:49:50Z</time></trkpt>
<trkpt lat="25.704125" lon="99.137964">
<time>2014-08-04T23:49:51Z</time></trkpt>
<trkpt lat="25.704205" lon="99.137924">
<time>2014-08-04T23:49:52Z</time></trkpt>
<trkpt lat="25.704305" lon="99.137874">
<time>2014-08-04T23:49:53Z</time></trkpt>
<trkpt lat="25.704425" lon="99.137844">
<time>2014-08-04T23:49:54Z</time></trkpt>
<trkpt lat="25.704535" lon="99.137834">
<time>2014-08-04T23:49:55Z</time></trkpt>
<trkpt lat="25.704755" lon="99.137834">
<time>2014-08-04T23:49:56Z</time></trkpt>
<trkpt lat="25.704995" lon="99.137844">
<time>2014-08-04T23:49:57Z</time></trkpt>
<trkpt lat="25.705196" lon="99.137864">
<time>2014-08-04T23:49:58Z</time></trkpt>
<trkpt lat="25.705316" lon="99.137864">
<time>2014-08-04T23:49:59Z</time></trkpt>
<trkpt lat="25.705456" lon="99.137864">
<time>2014-08-04T23:50:00Z</time></trkpt>
<trkpt lat="25.705566" lon="99.137844">
<time>2014-08-04T23:50:01Z</time></trkpt>
<trkpt lat="25.705656" lon="99.137814">
<time>2014-08-04T23:50:02Z</time></trkpt>
<trkpt lat="25.705856" lon="99.137754">
<time>2014-08-04T23:50:03Z</time></trkpt>
<trkpt lat="25.706136" lon="99.137654">
<time>2014-08-04T23:50:04Z</time></trkpt>
<trkpt lat="25.706326" lon="99.137594">
<time>2014-08-04T23:50:05Z</time></trkpt>
<trkpt lat="25.706456" lon="99.137584">
<time>2014-08-04T23:50:06Z</time></trkpt>
<trkpt lat="25.706566" lon="99.137584">
<time>2014-08-04T23:50:07Z</time></trkpt>
<trkpt lat="25.706776" lon="99.137624">
<time>2014-08-04T23:50:08Z</time></trkpt>
<trkpt lat="25.706966" lon="99.137664">
<time>2014-08-04T23:50:09Z</time></trkpt>
<trkpt lat="25.707407" lon="99.137784">
<time>2014-08-04T23:50:10Z</time></trkpt>
<trkpt lat="25.707727" lon="99.137894">
<time>2014-08-04T23:50:11Z</time></trkpt>
<trkpt lat="25.708047" lon="99.138034">
<time>2014-08-04T23:50:12Z</time></trkpt>
<trkpt lat="25.708458" lon="99.138254">
<time>2014-08-04T23:50:13Z</time></trkpt>
<trkpt lat="25.708848" lon="99.138465">
<time>2014-08-04T23:50:14Z</time></trkpt>
<trkpt lat="25.709039" lon="99.138535">
<time>2014-08-04T23:50:15Z</time></trkpt>
<trkpt lat="25.709219" lon="99.138575">
<time>2014-08-04T23:50:16Z</time></trkpt>
<trkpt lat="25.709429" lon="99.138605">
<time>2014-08-04T23:50:17Z</time></trkpt>
<trkpt lat="25.709579" lon="99.138615">
<time>2014-08-04T23:50:18Z</time></trkpt>
<trkpt lat="25.709709" lon="99.138625">
<time>2014-08-04T23:50:19Z</time></trkpt>
<trkpt lat="25.709919" lon="99.138615">
<time>2014-08-04T23:50:20Z</time></trkpt>
<trkpt lat="25.710129" lon="99.138595">
<time>2014-08-04T23:50:21Z</time></trkpt>
<trkpt lat="25.71092" lon="99.138515">
<time>2014-08-04T23:50:22Z</time></trkpt>
<trkpt lat="25.71178" lon="99.138415">
<time>2014-08-04T23:50:23Z</time></trkpt>
<trkpt lat="25.71194" lon="99.138385">
<time>2014-08-04T23:50:24Z</time></trkpt>
<trkpt lat="25.71206" lon="99.138334">
<time>2014-08-04T23:50:25Z</time></trkpt>
<trkpt lat="25.71216" lon="99.138274">
<time>2014-08-04T23:50:26Z</time></trkpt>
<trkpt lat="25.71224" lon="99.138194">
<time>2014-08-04T23:50:27Z</time></trkpt>
<trkpt lat="25.71239" lon="99.138014">
<time>2014-08-04T23:50:28Z</time></trkpt>
<trkpt lat="25.712969" lon="99.137344">
<time>2014-08-04T23:50:29Z</time></trkpt>
<trkpt lat="25.713129" lon="99.137174">
<time>2014-08-04T23:50:30Z</time></trkpt>
<trkpt lat="25.713269" lon="99.137073">
<time>2014-08-04T23:50:31Z</time></trkpt>
<trkpt lat="25.713379" lon="99.137003">
<time>2014-08-04T23:50:32Z</time></trkpt>
<trkpt lat="25.713489" lon="99.136953">
<time>2014-08-04T23:50:33Z</time></trkpt>
<trkpt lat="25.713609" lon="99.136903">
<time>2014-08-04T23:50:34Z</time></trkpt>
<trkpt lat="25.713739" lon="99.136873">
<time>2014-08-04T23:50:35Z</time></trkpt>
<trkpt lat="25.713869" lon="99.136853">
<time>2014-08-04T23:50:36Z</time></trkpt>
<trkpt lat="25.714009" lon="99.136843">
<time>2014-08-04T23:50:37Z</time></trkpt>
<trkpt lat="25.714629" lon="99.136853">
<time>2014-08-04T23:50:38Z</time></trkpt>
<trkpt lat="25.71493" lon="99.136853">
<time>2014-08-04T23:50:39Z</time></trkpt>
<trkpt lat="25.71518" lon="99.136853">
<time>2014-08-04T23:50:40Z</time></trkpt>
<trkpt lat="25.71542" lon="99.136833">
<time>2014-08-04T23:50:41Z</time></trkpt>
<trkpt lat="25.71572" lon="99.136793">
<time>2014-08-04T23:50:42Z</time></trkpt>
<trkpt lat="25.7166" lon="99.136653">
<time>2014-08-04T23:50:43Z</time></trkpt>
<trkpt lat="25.71729" lon="99.136533">
<time>2014-08-04T23:50:44Z</time></trkpt>
<trkpt lat="25.717611" lon="99.136483">
<time>2014-08-04T23:50:45Z</time></trkpt>
<trkpt lat="25.717811" lon="99.136433">
<time>2014-08-04T23:50:46Z</time></trkpt>
<trkpt lat="25.717901" lon="99.136403">
<time>2014-08-04T23:50:47Z</time></trkpt>
<trkpt lat="25.718041" lon="99.136363">
<time>2014-08-04T23:50:48Z</time></trkpt>
<trkpt lat="25.718301" lon="99.136273">
<time>2014-08-04T23:50:49Z</time></trkpt>
<trkpt lat="25.718571" lon="99.136183">
<time>2014-08-04T23:50:50Z</time></trkpt>
<trkpt lat="25.718851" lon="99.136093">
<time>2014-08-04T23:50:51Z</time></trkpt>
<trkpt lat="25.719191" lon="99.135992">
<time>2014-08-04T23:50:52Z</time></trkpt>
<trkpt lat="25.719481" lon="99.135892">
<time>2014-08-04T23:50:53Z</time></trkpt>
<trkpt lat="25.719751" lon="99.135802">
<time>2014-08-04T23:50:54Z</time></trkpt>
<trkpt lat="25.720321" lon="99.135602">
<time>2014-08-04T23:50:55Z</time></trkpt>
<trkpt lat="25.720631" lon="99.135502">
<time>2014-08-04T23:50:56Z</time></trkpt>
<trkpt lat="25.720821" lon="99.135442">
<time>2014-08-04T23:50:57Z</time></trkpt>
<trkpt lat="25.720991" lon="99.135372">
<time>2014-08-04T23:50:58Z</time></trkpt>
<trkpt lat="25.721151" lon="99.135302">
<time>2014-08-04T23:50:59Z</time></trkpt>
<trkpt lat="25.721231" lon="99.135262">
<time>2014-08-04T23:51:00Z</time></trkpt>
<trkpt lat="25.721281" lon="99.135232">
<time>2014-08-04T23:51:01Z</time></trkpt>
<trkpt lat="25.721381" lon="99.135162">
<time>2014-08-04T23:51:02Z</time></trkpt>
<trkpt lat="25.721451" lon="99.135112">
<time>2014-08-04T23:51:03Z</time></trkpt>
<trkpt lat="25.721671" lon="99.134912">
<time>2014-08-04T23:51:04Z</time></trkpt>
<trkpt lat="25.721781" lon="99.134822">
<time>2014-08-04T23:51:05Z</time></trkpt>
<trkpt lat="25.721881" lon="99.134751">
<time>2014-08-04T23:51:06Z</time></trkpt>
<trkpt lat="25.72196" lon="99.134701">
<time>2014-08-04T23:51:07Z</time></trkpt>
<trkpt lat="25.72207" lon="99.134641">
<time>2014-08-04T23:51:08Z</time></trkpt>
<trkpt lat="25.72225" lon="99.134581">
<time>2014-08-04T23:51:09Z</time></trkpt>
<trkpt lat="25.722411" lon="99.134531">
<time>2014-08-04T23:51:10Z</time></trkpt>
<trkpt lat="25.722651" lon="99.134441">
<time>2014-08-04T23:51:11Z</time></trkpt>
<trkpt lat="25.72285" lon="99.134341">
<time>2014-08-04T23:51:12Z</time></trkpt>
<trkpt lat="25.72297" lon="99.134271">
<time>2014-08-04T23:51:13Z</time></trkpt>
<trkpt lat="25.72306" lon="99.134211">
<time>2014-08-04T23:51:14Z</time></trkpt>
<trkpt lat="25.72326" lon="99.134071">
<time>2014-08-04T23:51:15Z</time></trkpt>
<trkpt lat="25.72347" lon="99.133921">
<time>2014-08-04T23:51:16Z</time></trkpt>
<trkpt lat="25.72387" lon="99.133631">
<time>2014-08-04T23:51:17Z</time></trkpt>
<trkpt lat="25.7242" lon="99.13337">
<time>2014-08-04T23:51:18Z</time></trkpt>
<trkpt lat="25.72432" lon="99.13327">
<time>2014-08-04T23:51:19Z</time></trkpt>
<trkpt lat="25.72443" lon="99.13317">
<time>2014-08-04T23:51:20Z</time></trkpt>
<trkpt lat="25.724869" lon="99.13262">
<time>2014-08-04T23:51:21Z</time></trkpt>
<trkpt lat="25.724969" lon="99.13252">
<time>2014-08-04T23:51:22Z</time></trkpt>
<trkpt lat="25.725069" lon="99.13242">
<time>2014-08-04T23:51:23Z</time></trkpt>
<trkpt lat="25.725209" lon="99.13233">
<time>2014-08-04T23:51:24Z</time></trkpt>
<trkpt lat="25.725359" lon="99.13226">
<time>2014-08-04T23:51:25Z</time></trkpt>
<trkpt lat="25.725489" lon="99.1322">
<time>2014-08-04T23:51:26Z</time></trkpt>
<trkpt lat="25.725899" lon="99.13202">
<time>2014-08-04T23:51:27Z</time></trkpt>
<trkpt lat="25.726329" lon="99.131829">
<time>2014-08-04T23:51:28Z</time></trkpt>
<trkpt lat="25.726509" lon="99.131759">
<time>2014-08-04T23:51:29Z</time></trkpt>
<trkpt lat="25.726639" lon="99.131729">
<time>2014-08-04T23:51:30Z</time></trkpt>
<trkpt lat="25.726829" lon="99.131699">
<time>2014-08-04T23:51:31Z</time></trkpt>
<trkpt lat="25.727059" lon="99.131669">
<time>2014-08-04T23:51:32Z</time></trkpt>
<trkpt lat="25.727239" lon="99.131639">
<time>2014-08-04T23:51:33Z</time></trkpt>
<trkpt lat="25.727379" lon="99.131599">
<time>2014-08-04T23:51:34Z</time></trkpt>
<trkpt lat="25.727509" lon="99.131559">
<time>2014-08-04T23:51:35Z</time></trkpt>
<trkpt lat="25.727629" lon="99.131509">
<time>2014-08-04T23:51:36Z</time></trkpt>
<trkpt lat="25.727729" lon="99.131469">
<time>2014-08-04T23:51:37Z</time></trkpt>
<trkpt lat="25.727939" lon="99.131369">
<time>2014-08-04T23:51:38Z</time></trkpt>
<trkpt lat="25.728249" lon="99.131179">
<time>2014-08-04T23:51:39Z</time></trkpt>
<trkpt lat="25.728539" lon="99.130999">
<time>2014-08-04T23:51:40Z</time></trkpt>
<trkpt lat="25.728649" lon="99.130949">
<time>2014-08-04T23:51:41Z</time></trkpt>
<trkpt lat="25.728749" lon="99.130939">
<time>2014-08-04T23:51:42Z</time></trkpt>
<trkpt lat="25.728869" lon="99.130939">
<time>2014-08-04T23:51:43Z</time></trkpt>
<trkpt lat="25.72897" lon="99.130959">
<time>2014-08-04T23:51:44Z</time></trkpt>
<trkpt lat="25.72915" lon="99.131009">
<time>2014-08-04T23:51:45Z</time></trkpt>
<trkpt lat="25.72928" lon="99.131069">
<time>2014-08-04T23:51:46Z</time></trkpt>
<trkpt lat="25.72936" lon="99.131109">
<time>2014-08-04T23:51:47Z</time></trkpt>
<trkpt lat="25.72943" lon="99.131169">
<time>2014-08-04T23:51:48Z</time></trkpt>
<trkpt lat="25.72954" lon="99.131259">
<time>2014-08-04T23:51:49Z</time></trkpt>
<trkpt lat="25.729731" lon="99.131429">
<time>2014-08-04T23:51:50Z</time></trkpt>
<trkpt lat="25.729951" lon="99.131599">
<time>2014-08-04T23:51:51Z</time></trkpt>
<trkpt lat="25.730331" lon="99.131889">
<time>2014-08-04T23:51:52Z</time></trkpt>
<trkpt lat="25.730672" lon="99.13212">
<time>2014-08-04T23:51:53Z</time></trkpt>
<trkpt lat="25.730782" lon="99.13218">
<time>2014-08-04T23:51:54Z</time></trkpt>
<trkpt lat="25.730832" lon="99.13219">
<time>2014-08-04T23:51:55Z</time></trkpt>
<trkpt lat="25.730882" lon="99.1322">
<time>2014-08-04T23:51:56Z</time></trkpt>
<trkpt lat="25.730942" lon="99.13221">
<time>2014-08-04T23:51:57Z</time></trkpt>
<trkpt lat="25.730982" lon="99.1322">
<time>2014-08-04T23:51:58Z</time></trkpt>
<trkpt lat="25.731032" lon="99.13219">
<time>2014-08-04T23:51:59Z</time></trkpt>
<trkpt lat="25.731092" lon="99.13216">
<time>2014-08-04T23:52:00Z</time></trkpt>
<trkpt lat="25.731152" lon="99.13211">
<time>2014-08-04T23:52:01Z</time></trkpt>
<trkpt lat="25.731182" lon="99.132079">
<time>2014-08-04T23:52:02Z</time></trkpt>
<trkpt lat="25.731212" lon="99.132019">
<time>2014-08-04T23:52:03Z</time></trkpt>
<trkpt lat="25.731232" lon="99.131979">
<time>2014-08-04T23:52:04Z</time></trkpt>
<trkpt lat="25.731252" lon="99.131929">
<time>2014-08-04T23:52:05Z</time></trkpt>
<trkpt lat="25.731252" lon="99.131839">
<time>2014-08-04T23:52:06Z</time></trkpt>
<trkpt lat="25.731242" lon="99.131699">
<time>2014-08-04T23:52:07Z</time></trkpt>
<trkpt lat="25.731212" lon="99.131509">
<time>2014-08-04T23:52:08Z</time></trkpt>
<trkpt lat="25.731191" lon="99.131359">
<time>2014-08-04T23:52:09Z</time></trkpt>
<trkpt lat="25.731161" lon="99.131159">
<time>2014-08-04T23:52:10Z</time></trkpt>
<trkpt lat="25.731161" lon="99.131059">
<time>2014-08-04T23:52:11Z</time></trkpt>
<trkpt lat="25.731171" lon="99.130969">
<time>2014-08-04T23:52:12Z</time></trkpt>
<trkpt lat="25.731181" lon="99.130899">
<time>2014-08-04T23:52:13Z</time></trkpt>
<trkpt lat="25.731211" lon="99.130819">
<time>2014-08-04T23:52:14Z</time></trkpt>
<trkpt lat="25.731281" lon="99.130719">
<time>2014-08-04T23:52:15Z</time></trkpt>
<trkpt lat="25.731331" lon="99.130669">
<time>2014-08-04T23:52:16Z</time></trkpt>
<trkpt lat="25.73142" lon="99.130619">
<time>2014-08-04T23:52:17Z</time></trkpt>
<trkpt lat="25.731481" lon="99.130599">
<time>2014-08-04T23:52:18Z</time></trkpt>
<trkpt lat="25.731561" lon="99.130579">
<time>2014-08-04T23:52:19Z</time></trkpt>
<trkpt lat="25.731671" lon="99.130579">
<time>2014-08-04T23:52:20Z</time></trkpt>
<trkpt lat="25.731751" lon="99.130599">
<time>2014-08-04T23:52:21Z</time></trkpt>
<trkpt lat="25.731971" lon="99.130619">
<time>2014-08-04T23:52:22Z</time></trkpt>
<trkpt lat="25.732101" lon="99.130599">
<time>2014-08-04T23:52:23Z</time></trkpt>
<trkpt lat="25.732161" lon="99.130579">
<time>2014-08-04T23:52:24Z</time></trkpt>
<trkpt lat="25.732241" lon="99.130559">
<time>2014-08-04T23:52:25Z</time></trkpt>
<trkpt lat="25.732301" lon="99.130519">
<time>2014-08-04T23:52:26Z</time></trkpt>
<trkpt lat="25.732591" lon="99.130378">
<time>2014-08-04T23:52:27Z</time></trkpt>
<trkpt lat="25.732751" lon="99.130328">
<time>2014-08-04T23:52:28Z</time></trkpt>
<trkpt lat="25.732881" lon="99.130308">
<time>2014-08-04T23:52:29Z</time></trkpt>
<trkpt lat="25.732981" lon="99.130308">
<time>2014-08-04T23:52:30Z</time></trkpt>
<trkpt lat="25.733101" lon="99.130328">
<time>2014-08-04T23:52:31Z</time></trkpt>
<trkpt lat="25.733251" lon="99.130368">
<time>2014-08-04T23:52:32Z</time></trkpt>
<trkpt lat="25.733341" lon="99.130398">
<time>2014-08-04T23:52:33Z</time></trkpt>
<trkpt lat="25.733451" lon="99.130428">
<time>2014-08-04T23:52:34Z</time></trkpt>
<trkpt lat="25.733481" lon="99.130428">
<time>2014-08-04T23:52:35Z</time></trkpt>
<trkpt lat="25.733531" lon="99.130428">
<time>2014-08-04T23:52:36Z</time></trkpt>
<trkpt lat="25.733571" lon="99.130428">
<time>2014-08-04T23:52:37Z</time></trkpt>
<trkpt lat="25.733662" lon="99.130398">
<time>2014-08-04T23:52:38Z</time></trkpt>
<trkpt lat="25.733692" lon="99.130388">
<time>2014-08-04T23:52:39Z</time></trkpt>
<trkpt lat="25.733722" lon="99.130368">
<time>2014-08-04T23:52:40Z</time></trkpt>
<trkpt lat="25.733791" lon="99.130318">
<time>2014-08-04T23:52:41Z</time></trkpt>
<trkpt lat="25.733991" lon="99.130148">
<time>2014-08-04T23:52:42Z</time></trkpt>
<trkpt lat="25.734111" lon="99.130058">
<time>2014-08-04T23:52:43Z</time></trkpt>
<trkpt lat="25.734211" lon="99.129998">
<time>2014-08-04T23:52:44Z</time></trkpt>
<trkpt lat="25.734471" lon="99.129848">
<time>2014-08-04T23:52:45Z</time></trkpt>
<trkpt lat="25.734571" lon="99.129788">
<time>2014-08-04T23:52:46Z</time></trkpt>
<trkpt lat="25.734661" lon="99.129738">
<time>2014-08-04T23:52:47Z</time></trkpt>
<trkpt lat="25.734751" lon="99.129708">
<time>2014-08-04T23:52:48Z</time></trkpt>
<trkpt lat="25.734821" lon="99.129688">
<time>2014-08-04T23:52:49Z</time></trkpt>
<trkpt lat="25.734881" lon="99.129688">
<time>2014-08-04T23:52:50Z</time></trkpt>
<trkpt lat="25.734951" lon="99.129698">
<time>2014-08-04T23:52:51Z</time></trkpt>
<trkpt lat="25.735041" lon="99.129718">
<time>2014-08-04T23:52:52Z</time></trkpt>
<trkpt lat="25.735102" lon="99.129738">
<time>2014-08-04T23:52:53Z</time></trkpt>
<trkpt lat="25.735212" lon="99.129768">
<time>2014-08-04T23:52:54Z</time></trkpt>
<trkpt lat="25.735262" lon="99.129768">
<time>2014-08-04T23:52:55Z</time></trkpt>
<trkpt lat="25.735302" lon="99.129768">
<time>2014-08-04T23:52:56Z</time></trkpt>
<trkpt lat="25.735342" lon="99.129758">
<time>2014-08-04T23:52:57Z</time></trkpt>
<trkpt lat="25.735392" lon="99.129738">
<time>2014-08-04T23:52:58Z</time></trkpt>
<trkpt lat="25.735432" lon="99.129708">
<time>2014-08-04T23:52:59Z</time></trkpt>
<trkpt lat="25.735482" lon="99.129668">
<time>2014-08-04T23:53:00Z</time></trkpt>
<trkpt lat="25.735542" lon="99.129608">
<time>2014-08-04T23:53:01Z</time></trkpt>
<trkpt lat="25.735602" lon="99.129528">
<time>2014-08-04T23:53:02Z</time></trkpt>
<trkpt lat="25.735701" lon="99.129388">
<time>2014-08-04T23:53:03Z</time></trkpt>
<trkpt lat="25.735751" lon="99.129328">
<time>2014-08-04T23:53:04Z</time></trkpt>
<trkpt lat="25.735791" lon="99.129288">
<time>2014-08-04T23:53:05Z</time></trkpt>
<trkpt lat="25.735871" lon="99.129218">
<time>2014-08-04T23:53:06Z</time></trkpt>
<trkpt lat="25.735941" lon="99.129158">
<time>2014-08-04T23:53:07Z</time></trkpt>
<trkpt lat="25.736061" lon="99.129088">
<time>2014-08-04T23:53:08Z</time></trkpt>
<trkpt lat="25.736511" lon="99.128847">
<time>2014-08-04T23:53:09Z</time></trkpt>
<trkpt lat="25.736641" lon="99.128767">
<time>2014-08-04T23:53:10Z</time></trkpt>
<trkpt lat="25.736761" lon="99.128677">
<time>2014-08-04T23:53:11Z</time></trkpt>
<trkpt lat="25.736901" lon="99.128537">
<time>2014-08-04T23:53:12Z</time></trkpt>
<trkpt lat="25.736981" lon="99.128457">
<time>2014-08-04T23:53:13Z</time></trkpt>
<trkpt lat="25.737051" lon="99.128357">
<time>2014-08-04T23:53:14Z</time></trkpt>
<trkpt lat="25.737101" lon="99.128247">
<time>2014-08-04T23:53:15Z</time></trkpt>
<trkpt lat="25.737121" lon="99.128147">
<time>2014-08-04T23:53:16Z</time></trkpt>
<trkpt lat="25.737131" lon="99.128037">
<time>2014-08-04T23:53:17Z</time></trkpt>
<trkpt lat="25.737131" lon="99.127927">
<time>2014-08-04T23:53:18Z</time></trkpt>
<trkpt lat="25.73712" lon="99.127847">
<time>2014-08-04T23:53:19Z</time></trkpt>
<trkpt lat="25.73707" lon="99.127437">
<time>2014-08-04T23:53:20Z</time></trkpt>
<trkpt lat="25.73707" lon="99.127247">
<time>2014-08-04T23:53:21Z</time></trkpt>
<trkpt lat="25.73707" lon="99.127107">
<time>2014-08-04T23:53:22Z</time></trkpt>
<trkpt lat="25.737099" lon="99.126937">
<time>2014-08-04T23:53:23Z</time></trkpt>
<trkpt lat="25.737119" lon="99.126816">
<time>2014-08-04T23:53:24Z</time></trkpt>
<trkpt lat="25.737159" lon="99.126706">
<time>2014-08-04T23:53:25Z</time></trkpt>
<trkpt lat="25.737199" lon="99.126566">
<time>2014-08-04T23:53:26Z</time></trkpt>
<trkpt lat="25.737309" lon="99.126296">
<time>2014-08-04T23:53:27Z</time></trkpt>
<trkpt lat="25.737378" lon="99.126056">
<time>2014-08-04T23:53:28Z</time></trkpt>
<trkpt lat="25.737418" lon="99.125926">
<time>2014-08-04T23:53:29Z</time></trkpt>
<trkpt lat="25.737458" lon="99.125746">
<time>2014-08-04T23:53:30Z</time></trkpt>
<trkpt lat="25.737478" lon="99.125596">
<time>2014-08-04T23:53:31Z</time></trkpt>
<trkpt lat="25.737508" lon="99.125446">
<time>2014-08-04T23:53:32Z</time></trkpt>
<trkpt lat="25.737528" lon="99.125306">
<time>2014-08-04T23:53:33Z</time></trkpt>
<trkpt lat="25.737538" lon="99.125166">
<time>2014-08-04T23:53:34Z</time></trkpt>
<trkpt lat="25.737557" lon="99.125016">
<time>2014-08-04T23:53:35Z</time></trkpt>
<trkpt lat="25.737557" lon="99.124956">
<time>2014-08-04T23:53:36Z</time></trkpt>
<trkpt lat="25.737557" lon="99.124846">
<time>2014-08-04T23:53:37Z</time></trkpt>
<trkpt lat="25.737537" lon="99.124686">
<time>2014-08-04T23:53:38Z</time></trkpt>
<trkpt lat="25.737507" lon="99.124496">
<time>2014-08-04T23:53:39Z</time></trkpt>
<trkpt lat="25.737467" lon="99.124305">
<time>2014-08-04T23:53:40Z</time></trkpt>
<trkpt lat="25.737336" lon="99.123675">
<time>2014-08-04T23:53:41Z</time></trkpt>
<trkpt lat="25.737265" lon="99.123165">
<time>2014-08-04T23:53:42Z</time></trkpt>
<trkpt lat="25.737255" lon="99.122935">
<time>2014-08-04T23:53:43Z</time></trkpt>
<trkpt lat="25.737235" lon="99.122815">
<time>2014-08-04T23:53:44Z</time></trkpt>
<trkpt lat="25.737235" lon="99.122655">
<time>2014-08-04T23:53:45Z</time></trkpt>
<trkpt lat="25.737255" lon="99.122565">
<time>2014-08-04T23:53:46Z</time></trkpt>
<trkpt lat="25.737285" lon="99.122475">
<time>2014-08-04T23:53:47Z</time></trkpt>
<trkpt lat="25.737345" lon="99.122325">
<time>2014-08-04T23:53:48Z</time></trkpt>
<trkpt lat="25.737444" lon="99.122125">
<time>2014-08-04T23:53:49Z</time></trkpt>
<trkpt lat="25.737474" lon="99.121985">
<time>2014-08-04T23:53:50Z</time></trkpt>
<trkpt lat="25.737474" lon="99.121865">
<time>2014-08-04T23:53:51Z</time></trkpt>
<trkpt lat="25.737444" lon="99.121695">
<time>2014-08-04T23:53:52Z</time></trkpt>
<trkpt lat="25.737404" lon="99.121525">
<time>2014-08-04T23:53:53Z</time></trkpt>
<trkpt lat="25.737394" lon="99.121355">
<time>2014-08-04T23:53:54Z</time></trkpt>
<trkpt lat="25.737403" lon="99.121205">
<time>2014-08-04T23:53:55Z</time></trkpt>
<trkpt lat="25.737443" lon="99.121044">
<time>2014-08-04T23:53:56Z</time></trkpt>
<trkpt lat="25.737513" lon="99.120864">
<time>2014-08-04T23:53:57Z</time></trkpt>
<trkpt lat="25.737623" lon="99.120674">
<time>2014-08-04T23:53:58Z</time></trkpt>
<trkpt lat="25.737823" lon="99.120344">
<time>2014-08-04T23:53:59Z</time></trkpt>
<trkpt lat="25.738183" lon="99.119774">
<time>2014-08-04T23:54:00Z</time></trkpt>
<trkpt lat="25.738452" lon="99.119354">
<time>2014-08-04T23:54:01Z</time></trkpt>
<trkpt lat="25.738782" lon="99.118924">
<time>2014-08-04T23:54:02Z</time></trkpt>
<trkpt lat="25.739062" lon="99.118544">
<time>2014-08-04T23:54:03Z</time></trkpt>
<trkpt lat="25.739182" lon="99.118434">
<time>2014-08-04T23:54:04Z</time></trkpt>
<trkpt lat="25.739272" lon="99.118364">
<time>2014-08-04T23:54:05Z</time></trkpt>
<trkpt lat="25.739362" lon="99.118314">
<time>2014-08-04T23:54:06Z</time></trkpt>
<trkpt lat="25.739482" lon="99.118264">
<time>2014-08-04T23:54:07Z</time></trkpt>
<trkpt lat="25.739632" lon="99.118214">
<time>2014-08-04T23:54:08Z</time></trkpt>
<trkpt lat="25.739792" lon="99.118184">
<time>2014-08-04T23:54:09Z</time></trkpt>
<trkpt lat="25.739892" lon="99.118164">
<time>2014-08-04T23:54:10Z</time></trkpt>
<trkpt lat="25.740012" lon="99.118154">
<time>2014-08-04T23:54:11Z</time></trkpt>
<trkpt lat="25.740142" lon="99.118154">
<time>2014-08-04T23:54:12Z</time></trkpt>
<trkpt lat="25.740272" lon="99.118154">
<time>2014-08-04T23:54:13Z</time></trkpt>
<trkpt lat="25.740402" lon="99.118164">
<time>2014-08-04T23:54:14Z</time></trkpt>
<trkpt lat="25.740533" lon="99.118164">
<time>2014-08-04T23:54:15Z</time></trkpt>
<trkpt lat="25.740693" lon="99.118174">
<time>2014-08-04T23:54:16Z</time></trkpt>
<trkpt lat="25.740873" lon="99.118184">
<time>2014-08-04T23:54:17Z</time></trkpt>
<trkpt lat="25.741063" lon="99.118194">
<time>2014-08-04T23:54:18Z</time></trkpt>
<trkpt lat="25.741243" lon="99.118194">
<time>2014-08-04T23:54:19Z</time></trkpt>
<trkpt lat="25.741403" lon="99.118184">
<time>2014-08-04T23:54:20Z</time></trkpt>
<trkpt lat="25.741593" lon="99.118144">
<time>2014-08-04T23:54:21Z</time></trkpt>
<trkpt lat="25.742083" lon="99.118004">
<time>2014-08-04T23:54:22Z</time></trkpt>
<trkpt lat="25.742283" lon="99.117944">
<time>2014-08-04T23:54:23Z</time></trkpt>
<trkpt lat="25.742784" lon="99.117794">
<time>2014-08-04T23:54:24Z</time></trkpt>
<trkpt lat="25.743154" lon="99.117694">
<time>2014-08-04T23:54:25Z</time></trkpt>
<trkpt lat="25.743404" lon="99.117614">
<time>2014-08-04T23:54:26Z</time></trkpt>
<trkpt lat="25.743554" lon="99.117564">
<time>2014-08-04T23:54:27Z</time></trkpt>
<trkpt lat="25.743694" lon="99.117504">
<time>2014-08-04T23:54:28Z</time></trkpt>
<trkpt lat="25.743864" lon="99.117434">
<time>2014-08-04T23:54:29Z</time></trkpt>
<trkpt lat="25.743994" lon="99.117374">
<time>2014-08-04T23:54:30Z</time></trkpt>
<trkpt lat="25.744134" lon="99.117294">
<time>2014-08-04T23:54:31Z</time></trkpt>
<trkpt lat="25.744254" lon="99.117234">
<time>2014-08-04T23:54:32Z</time></trkpt>
<trkpt lat="25.744354" lon="99.117154">
<time>2014-08-04T23:54:33Z</time></trkpt>
<trkpt lat="25.744464" lon="99.117074">
<time>2014-08-04T23:54:34Z</time></trkpt>
<trkpt lat="25.744634" lon="99.116914">
<time>2014-08-04T23:54:35Z</time></trkpt>
<trkpt lat="25.744694" lon="99.116864">
<time>2014-08-04T23:54:36Z</time></trkpt>
<trkpt lat="25.744744" lon="99.116834">
<time>2014-08-04T23:54:37Z</time></trkpt>
<trkpt lat="25.744794" lon="99.116814">
<time>2014-08-04T23:54:38Z</time></trkpt>
<trkpt lat="25.744874" lon="99.116804">
<time>2014-08-04T23:54:39Z</time></trkpt>
<trkpt lat="25.744994" lon="99.116794">
<time>2014-08-04T23:54:40Z</time></trkpt>
<trkpt lat="25.745134" lon="99.116794">
<time>2014-08-04T23:54:41Z</time></trkpt>
<trkpt lat="25.745264" lon="99.116784">
<time>2014-08-04T23:54:42Z</time></trkpt>
<trkpt lat="25.745374" lon="99.116774">
<time>2014-08-04T23:54:43Z</time></trkpt>
<trkpt lat="25.745504" lon="99.116744">
<time>2014-08-04T23:54:44Z</time></trkpt>
<trkpt lat="25.745744" lon="99.116684">
<time>2014-08-04T23:54:45Z</time></trkpt>
<trkpt lat="25.746195" lon="99.116574">
<time>2014-08-04T23:54:46Z</time></trkpt>
<trkpt lat="25.746445" lon="99.116504">
<time>2014-08-04T23:54:47Z</time></trkpt>
<trkpt lat="25.746855" lon="99.116384">
<time>2014-08-04T23:54:48Z</time></trkpt>
<trkpt lat="25.747365" lon="99.116254">
<time>2014-08-04T23:54:49Z</time></trkpt>
<trkpt lat="25.747915" lon="99.116114">
<time>2014-08-04T23:54:50Z</time></trkpt>
<trkpt lat="25.748155" lon="99.116054">
<time>2014-08-04T23:54:51Z</time></trkpt>
<trkpt lat="25.748746" lon="99.115894">
<time>2014-08-04T23:54:52Z</time></trkpt>
<trkpt lat="25.749056" lon="99.115814">
<time>2014-08-04T23:54:53Z</time></trkpt>
<trkpt lat="25.749186" lon="99.115764">
<time>2014-08-04T23:54:54Z</time></trkpt>
<trkpt lat="25.749266" lon="99.115734">
<time>2014-08-04T23:54:55Z</time></trkpt>
<trkpt lat="25.749306" lon="99.115714">
<time>2014-08-04T23:54:56Z</time></trkpt>
<trkpt lat="25.749346" lon="99.115694">
<time>2014-08-04T23:54:57Z</time></trkpt>
<trkpt lat="25.749486" lon="99.115594">
<time>2014-08-04T23:54:58Z</time></trkpt>
<trkpt lat="25.749626" lon="99.115494">
<time>2014-08-04T23:54:59Z</time></trkpt>
<trkpt lat="25.750016" lon="99.115144">
<time>2014-08-04T23:55:00Z</time></trkpt>
<trkpt lat="25.750756" lon="99.114474">
<time>2014-08-04T23:55:01Z</time></trkpt>
<trkpt lat="25.751096" lon="99.114204">
<time>2014-08-04T23:55:02Z</time></trkpt>
<trkpt lat="25.751216" lon="99.114114">
<time>2014-08-04T23:55:03Z</time></trkpt>
<trkpt lat="25.751336" lon="99.114054">
<time>2014-08-04T23:55:04Z</time></trkpt>
<trkpt lat="25.751466" lon="99.114004">
<time>2014-08-04T23:55:05Z</time></trkpt>
<trkpt lat="25.751986" lon="99.113924">
<time>2014-08-04T23:55:06Z</time></trkpt>
<trkpt lat="25.752576" lon="99.113843">
<time>2014-08-04T23:55:07Z</time></trkpt>
<trkpt lat="25.752676" lon="99.113823">
<time>2014-08-04T23:55:08Z</time></trkpt>
<trkpt lat="25.752796" lon="99.113793">
<time>2014-08-04T23:55:09Z</time></trkpt>
<trkpt lat="25.752916" lon="99.113743">
<time>2014-08-04T23:55:10Z</time></trkpt>
<trkpt lat="25.753056" lon="99.113673">
<time>2014-08-04T23:55:11Z</time></trkpt>
<trkpt lat="25.753447" lon="99.113434">
<time>2014-08-04T23:55:12Z</time></trkpt>
<trkpt lat="25.753497" lon="99.113414">
<time>2014-08-04T23:55:13Z</time></trkpt>
<trkpt lat="25.753577" lon="99.113394">
<time>2014-08-04T23:55:14Z</time></trkpt>
<trkpt lat="25.753647" lon="99.113404">
<time>2014-08-04T23:55:15Z</time></trkpt>
<trkpt lat="25.753697" lon="99.113413">
<time>2014-08-04T23:55:16Z</time></trkpt>
<trkpt lat="25.753767" lon="99.113453">
<time>2014-08-04T23:55:17Z</time></trkpt>
<trkpt lat="25.753857" lon="99.113523">
<time>2014-08-04T23:55:18Z</time></trkpt>
<trkpt lat="25.754057" lon="99.113753">
<time>2014-08-04T23:55:19Z</time></trkpt>
<trkpt lat="25.754277" lon="99.113993">
<time>2014-08-04T23:55:20Z</time></trkpt>
<trkpt lat="25.754418" lon="99.114113">
<time>2014-08-04T23:55:21Z</time></trkpt>
<trkpt lat="25.754558" lon="99.114213">
<time>2014-08-04T23:55:22Z</time></trkpt>
<trkpt lat="25.754668" lon="99.114283">
<time>2014-08-04T23:55:23Z</time></trkpt>
<trkpt lat="25.754758" lon="99.114303">
<time>2014-08-04T23:55:24Z</time></trkpt>
<trkpt lat="25.754838" lon="99.114303">
<time>2014-08-04T23:55:25Z</time></trkpt>
<trkpt lat="25.754918" lon="99.114293">
<time>2014-08-04T23:55:26Z</time></trkpt>
<trkpt lat="25.754978" lon="99.114263">
<time>2014-08-04T23:55:27Z</time></trkpt>
<trkpt lat="25.755028" lon="99.114223">
<time>2014-08-04T23:55:28Z</time></trkpt>
<trkpt lat="25.755098" lon="99.114163">
<time>2014-08-04T23:55:29Z</time></trkpt>
<trkpt lat="25.755168" lon="99.114063">
<time>2014-08-04T23:55:30Z</time></trkpt>
<trkpt lat="25.755238" lon="99.113913">
<time>2014-08-04T23:55:31Z</time></trkpt>
<trkpt lat="25.755288" lon="99.113793">
<time>2014-08-04T23:55:32Z</time></trkpt>
<trkpt lat="25.755568" lon="99.113173">
<time>2014-08-04T23:55:33Z</time></trkpt>
<trkpt lat="25.755598" lon="99.113103">
<time>2014-08-04T23:55:34Z</time></trkpt>
<trkpt lat="25.755648" lon="99.113023">
<time>2014-08-04T23:55:35Z</time></trkpt>
<trkpt lat="25.755698" lon="99.112963">
<time>2014-08-04T23:55:36Z</time></trkpt>
<trkpt lat="25.755768" lon="99.112913">
<time>2014-08-04T23:55:37Z</time></trkpt>
<trkpt lat="25.755868" lon="99.112874">
<time>2014-08-04T23:55:38Z</time></trkpt>
<trkpt lat="25.756258" lon="99.112744">
<time>2014-08-04T23:55:39Z</time></trkpt>
<trkpt lat="25.756538" lon="99.112674">
<time>2014-08-04T23:55:40Z</time></trkpt>
<trkpt lat="25.756968" lon="99.112624">
<time>2014-08-04T23:55:41Z</time></trkpt>
<trkpt lat="25.757098" lon="99.112614">
<time>2014-08-04T23:55:42Z</time></trkpt>
<trkpt lat="25.757238" lon="99.112564">
<time>2014-08-04T23:55:43Z</time></trkpt>
<trkpt lat="25.757338" lon="99.112514">
<time>2014-08-04T23:55:44Z</time></trkpt>
<trkpt lat="25.757498" lon="99.112374">
<time>2014-08-04T23:55:45Z</time></trkpt>
<trkpt lat="25.757908" lon="99.111944">
<time>2014-08-04T23:55:46Z</time></trkpt>
<trkpt lat="25.758068" lon="99.111824">
<time>2014-08-04T23:55:47Z</time></trkpt>
<trkpt lat="25.758228" lon="99.111704">
<time>2014-08-04T23:55:48Z</time></trkpt>
<trkpt lat="25.758438" lon="99.111574">
<time>2014-08-04T23:55:49Z</time></trkpt>
<trkpt lat="25.758728" lon="99.111444">
<time>2014-08-04T23:55:50Z</time></trkpt>
<trkpt lat="25.758808" lon="99.111394">
<time>2014-08-04T23:55:51Z</time></trkpt>
<trkpt lat="25.758868" lon="99.111354">
<time>2014-08-04T23:55:52Z</time></trkpt>
<trkpt lat="25.758948" lon="99.111284">
<time>2014-08-04T23:55:53Z</time></trkpt>
<trkpt lat="25.758988" lon="99.111224">
<time>2014-08-04T23:55:54Z</time></trkpt>
<trkpt lat="25.759028" lon="99.111144">
<time>2014-08-04T23:55:55Z</time></trkpt>
<trkpt lat="25.759068" lon="99.111014">
<time>2014-08-04T23:55:56Z</time></trkpt>
<trkpt lat="25.759098" lon="99.110894">
<time>2014-08-04T23:55:57Z</time></trkpt>
<trkpt lat="25.759128" lon="99.110774">
<time>2014-08-04T23:55:58Z</time></trkpt>
<trkpt lat="25.759178" lon="99.110684">
<time>2014-08-04T23:55:59Z</time></trkpt>
<trkpt lat="25.759218" lon="99.110614">
<time>2014-08-04T23:56:00Z</time></trkpt>
<trkpt lat="25.759288" lon="99.110544">
<time>2014-08-04T23:56:01Z</time></trkpt>
<trkpt lat="25.759358" lon="99.110494">
<time>2014-08-04T23:56:02Z</time></trkpt>
<trkpt lat="25.759458" lon="99.110444">
<time>2014-08-04T23:56:03Z</time></trkpt>
<trkpt lat="25.759588" lon="99.110384">
<time>2014-08-04T23:56:04Z</time></trkpt>
<trkpt lat="25.759688" lon="99.110334">
<time>2014-08-04T23:56:05Z</time></trkpt>
<trkpt lat="25.759778" lon="99.110264">
<time>2014-08-04T23:56:06Z</time></trkpt>
<trkpt lat="25.759858" lon="99.110184">
<time>2014-08-04T23:56:07Z</time></trkpt>
<trkpt lat="25.759928" lon="99.110084">
<time>2014-08-04T23:56:08Z</time></trkpt>
<trkpt lat="25.760208" lon="99.109704">
<time>2014-08-04T23:56:09Z</time></trkpt>
<trkpt lat="25.760358" lon="99.109514">
<time>2014-08-04T23:56:10Z</time></trkpt>
<trkpt lat="25.760488" lon="99.109384">
<time>2014-08-04T23:56:11Z</time></trkpt>
<trkpt lat="25.760618" lon="99.109284">
<time>2014-08-04T23:56:12Z</time></trkpt>
<trkpt lat="25.760878" lon="99.109134">
<time>2014-08-04T23:56:13Z</time></trkpt>
<trkpt lat="25.761109" lon="99.109014">
<time>2014-08-04T23:56:14Z</time></trkpt>
<trkpt lat="25.761209" lon="99.108994">
<time>2014-08-04T23:56:15Z</time></trkpt>
<trkpt lat="25.761319" lon="99.108974">
<time>2014-08-04T23:56:16Z</time></trkpt>
<trkpt lat="25.761399" lon="99.108974">
<time>2014-08-04T23:56:17Z</time></trkpt>
<trkpt lat="25.761479" lon="99.108984">
<time>2014-08-04T23:56:18Z</time></trkpt>
<trkpt lat="25.761589" lon="99.109014">
<time>2014-08-04T23:56:19Z</time></trkpt>
<trkpt lat="25.761699" lon="99.109054">
<time>2014-08-04T23:56:20Z</time></trkpt>
<trkpt lat="25.761919" lon="99.109144">
<time>2014-08-04T23:56:21Z</time></trkpt>
<trkpt lat="25.762269" lon="99.109324">
<time>2014-08-04T23:56:22Z</time></trkpt>
<trkpt lat="25.76254" lon="99.109474">
<time>2014-08-04T23:56:23Z</time></trkpt>
<trkpt lat="25.7627" lon="99.109554">
<time>2014-08-04T23:56:24Z</time></trkpt>
<trkpt lat="25.76277" lon="99.109584">
<time>2014-08-04T23:56:25Z</time></trkpt>
<trkpt lat="25.76284" lon="99.109594">
<time>2014-08-04T23:56:26Z</time></trkpt>
<trkpt lat="25.7629" lon="99.109594">
<time>2014-08-04T23:56:27Z</time></trkpt>
<trkpt lat="25.76296" lon="99.109584">
<time>2014-08-04T23:56:28Z</time></trkpt>
<trkpt lat="25.76303" lon="99.109564">
<time>2014-08-04T23:56:29Z</time></trkpt>
<trkpt lat="25.76311" lon="99.109514">
<time>2014-08-04T23:56:30Z</time></trkpt>
<trkpt lat="25.7632" lon="99.109424">
<time>2014-08-04T23:56:31Z</time></trkpt>
<trkpt lat="25.76327" lon="99.109344">
<time>2014-08-04T23:56:32Z</time></trkpt>
<trkpt lat="25.76342" lon="99.109124">
<time>2014-08-04T23:56:33Z</time></trkpt>
<trkpt lat="25.76354" lon="99.108954">
<time>2014-08-04T23:56:34Z</time></trkpt>
<trkpt lat="25.76366" lon="99.108814">
<time>2014-08-04T23:56:35Z</time></trkpt>
<trkpt lat="25.76375" lon="99.108724">
<time>2014-08-04T23:56:36Z</time></trkpt>
<trkpt lat="25.76392" lon="99.108604">
<time>2014-08-04T23:56:37Z</time></trkpt>
<trkpt lat="25.76411" lon="99.108494">
<time>2014-08-04T23:56:38Z</time></trkpt>
<trkpt lat="25.76462" lon="99.108204">
<time>2014-08-04T23:56:39Z</time></trkpt>
<trkpt lat="25.76506" lon="99.107924">
<time>2014-08-04T23:56:40Z</time></trkpt>
<trkpt lat="25.765821" lon="99.107434">
<time>2014-08-04T23:56:41Z</time></trkpt>
<trkpt lat="25.766451" lon="99.107015">
<time>2014-08-04T23:56:42Z</time></trkpt>
<trkpt lat="25.767731" lon="99.106135">
<time>2014-08-04T23:56:43Z</time></trkpt>
<trkpt lat="25.767921" lon="99.106005">
<time>2014-08-04T23:56:44Z</time></trkpt>
<trkpt lat="25.768041" lon="99.105955">
<time>2014-08-04T23:56:45Z</time></trkpt>
<trkpt lat="25.768101" lon="99.105945">
<time>2014-08-04T23:56:46Z</time></trkpt>
<trkpt lat="25.768141" lon="99.105955">
<time>2014-08-04T23:56:47Z</time></trkpt>
<trkpt lat="25.768191" lon="99.105965">
<time>2014-08-04T23:56:48Z</time></trkpt>
<trkpt lat="25.768252" lon="99.105985">
<time>2014-08-04T23:56:49Z</time></trkpt>
<trkpt lat="25.768312" lon="99.106025">
<time>2014-08-04T23:56:50Z</time></trkpt>
<trkpt lat="25.768412" lon="99.106115">
<time>2014-08-04T23:56:51Z</time></trkpt>
<trkpt lat="25.768492" lon="99.106215">
<time>2014-08-04T23:56:52Z</time></trkpt>
<trkpt lat="25.768592" lon="99.106315">
<time>2014-08-04T23:56:53Z</time></trkpt>
<trkpt lat="25.768712" lon="99.106465">
<time>2014-08-04T23:56:54Z</time></trkpt>
<trkpt lat="25.768812" lon="99.106565">
<time>2014-08-04T23:56:55Z</time></trkpt>
<trkpt lat="25.768862" lon="99.106615">
<time>2014-08-04T23:56:56Z</time></trkpt>
<trkpt lat="25.768912" lon="99.106655">
<time>2014-08-04T23:56:57Z</time></trkpt>
<trkpt lat="25.768962" lon="99.106675">
<time>2014-08-04T23:56:58Z</time></trkpt>
<trkpt lat="25.769022" lon="99.106705">
<time>2014-08-04T23:56:59Z</time></trkpt>
<trkpt lat="25.769112" lon="99.106745">
<time>2014-08-04T23:57:00Z</time></trkpt>
<trkpt lat="25.769192" lon="99.106765">
<time>2014-08-04T23:57:01Z</time></trkpt>
<trkpt lat="25.769302" lon="99.106785">
<time>2014-08-04T23:57:02Z</time></trkpt>
<trkpt lat="25.769483" lon="99.106815">
<time>2014-08-04T23:57:03Z</time></trkpt>
<trkpt lat="25.769693" lon="99.106855">
<time>2014-08-04T23:57:04Z</time></trkpt>
<trkpt lat="25.769943" lon="99.106935">
<time>2014-08-04T23:57:05Z</time></trkpt>
<trkpt lat="25.770133" lon="99.107005">
<time>2014-08-04T23:57:06Z</time></trkpt>
<trkpt lat="25.770443" lon="99.107134">
<time>2014-08-04T23:57:07Z</time></trkpt>
<trkpt lat="25.770593" lon="99.107174">
<time>2014-08-04T23:57:08Z</time></trkpt>
<trkpt lat="25.770684" lon="99.107194">
<time>2014-08-04T23:57:09Z</time></trkpt>
<trkpt lat="25.770754" lon="99.107194">
<time>2014-08-04T23:57:10Z</time></trkpt>
<trkpt lat="25.770834" lon="99.107184">
<time>2014-08-04T23:57:11Z</time></trkpt>
<trkpt lat="25.770914" lon="99.107164">
<time>2014-08-04T23:57:12Z</time></trkpt>
<trkpt lat="25.771004" lon="99.107134">
<time>2014-08-04T23:57:13Z</time></trkpt>
<trkpt lat="25.771084" lon="99.107075">
<time>2014-08-04T23:57:14Z</time></trkpt>
<trkpt lat="25.771154" lon="99.107015">
<time>2014-08-04T23:57:15Z</time></trkpt>
<trkpt lat="25.771314" lon="99.106855">
<time>2014-08-04T23:57:16Z</time></trkpt>
<trkpt lat="25.771454" lon="99.106695">
<time>2014-08-04T23:57:17Z</time></trkpt>
<trkpt lat="25.771554" lon="99.106575">
<time>2014-08-04T23:57:18Z</time></trkpt>
<trkpt lat="25.771634" lon="99.106445">
<time>2014-08-04T23:57:19Z</time></trkpt>
<trkpt lat="25.771734" lon="99.106225">
<time>2014-08-04T23:57:20Z</time></trkpt>
<trkpt lat="25.771864" lon="99.105965">
<time>2014-08-04T23:57:21Z</time></trkpt>
<trkpt lat="25.771954" lon="99.105805">
<time>2014-08-04T23:57:22Z</time></trkpt>
<trkpt lat="25.772054" lon="99.105675">
<time>2014-08-04T23:57:23Z</time></trkpt>
<trkpt lat="25.772144" lon="99.105605">
<time>2014-08-04T23:57:24Z</time></trkpt>
<trkpt lat="25.772224" lon="99.105545">
<time>2014-08-04T23:57:25Z</time></trkpt>
<trkpt lat="25.772314" lon="99.105495">
<time>2014-08-04T23:57:26Z</time></trkpt>
<trkpt lat="25.772394" lon="99.105455">
<time>2014-08-04T23:57:27Z</time></trkpt>
<trkpt lat="25.772474" lon="99.105425">
<time>2014-08-04T23:57:28Z</time></trkpt>
<trkpt lat="25.772624" lon="99.105375">
<time>2014-08-04T23:57:29Z</time></trkpt>
<trkpt lat="25.773004" lon="99.105245">
<time>2014-08-04T23:57:30Z</time></trkpt>
<trkpt lat="25.773274" lon="99.105135">
<time>2014-08-04T23:57:31Z</time></trkpt>
<trkpt lat="25.773504" lon="99.105045">
<time>2014-08-04T23:57:32Z</time></trkpt>
<trkpt lat="25.773614" lon="99.104995">
<time>2014-08-04T23:57:33Z</time></trkpt>
<trkpt lat="25.773664" lon="99.104965">
<time>2014-08-04T23:57:34Z</time></trkpt>
<trkpt lat="25.773725" lon="99.104915">
<time>2014-08-04T23:57:35Z</time></trkpt>
<trkpt lat="25.773815" lon="99.104835">
<time>2014-08-04T23:57:36Z</time></trkpt>
<trkpt lat="25.773905" lon="99.104705">
<time>2014-08-04T23:57:37Z</time></trkpt>
<trkpt lat="25.773955" lon="99.104605">
<time>2014-08-04T23:57:38Z</time></trkpt>
<trkpt lat="25.773995" lon="99.104506">
<time>2014-08-04T23:57:39Z</time></trkpt>
<trkpt lat="25.774025" lon="99.104356">
<time>2014-08-04T23:57:40Z</time></trkpt>
<trkpt lat="25.774064" lon="99.104176">
<time>2014-08-04T23:57:41Z</time></trkpt>
<trkpt lat="25.774114" lon="99.103936">
<time>2014-08-04T23:57:42Z</time></trkpt>
<trkpt lat="25.774154" lon="99.103776">
<time>2014-08-04T23:57:43Z</time></trkpt>
<trkpt lat="25.774234" lon="99.103596">
<time>2014-08-04T23:57:44Z</time></trkpt>
<trkpt lat="25.774344" lon="99.103436">
<time>2014-08-04T23:57:45Z</time></trkpt>
<trkpt lat="25.774444" lon="99.103316">
<time>2014-08-04T23:57:46Z</time></trkpt>
<trkpt lat="25.774575" lon="99.103216">
<time>2014-08-04T23:57:47Z</time></trkpt>
<trkpt lat="25.774725" lon="99.103146">
<time>2014-08-04T23:57:48Z</time></trkpt>
<trkpt lat="25.774855" lon="99.103096">
<time>2014-08-04T23:57:49Z</time></trkpt>
<trkpt lat="25.774965" lon="99.103076">
<time>2014-08-04T23:57:50Z</time></trkpt>
<trkpt lat="25.775085" lon="99.103076">
<time>2014-08-04T23:57:51Z</time></trkpt>
<trkpt lat="25.775305" lon="99.103076">
<time>2014-08-04T23:57:52Z</time></trkpt>
<trkpt lat="25.775425" lon="99.103076">
<time>2014-08-04T23:57:53Z</time></trkpt>
<trkpt lat="25.775705" lon="99.103076">
<time>2014-08-04T23:57:54Z</time></trkpt>
<trkpt lat="25.775935" lon="99.103046">
<time>2014-08-04T23:57:55Z</time></trkpt>
<trkpt lat="25.776175" lon="99.103016">
<time>2014-08-04T23:57:56Z</time></trkpt>
<trkpt lat="25.776476" lon="99.103006">
<time>2014-08-04T23:57:57Z</time></trkpt>
<trkpt lat="25.776746" lon="99.102986">
<time>2014-08-04T23:57:58Z</time></trkpt>
<trkpt lat="25.776936" lon="99.102976">
<time>2014-08-04T23:57:59Z</time></trkpt>
<trkpt lat="25.777126" lon="99.102946">
<time>2014-08-04T23:58:00Z</time></trkpt>
<trkpt lat="25.777246" lon="99.102936">
<time>2014-08-04T23:58:01Z</time></trkpt>
<trkpt lat="25.777366" lon="99.102926">
<time>2014-08-04T23:58:02Z</time></trkpt>
<trkpt lat="25.777486" lon="99.102896">
<time>2014-08-04T23:58:03Z</time></trkpt>
<trkpt lat="25.777616" lon="99.102866">
<time>2014-08-04T23:58:04Z</time></trkpt>
<trkpt lat="25.777706" lon="99.102826">
<time>2014-08-04T23:58:05Z</time></trkpt>
<trkpt lat="25.777836" lon="99.102766">
<time>2014-08-04T23:58:06Z</time></trkpt>
<trkpt lat="25.778017" lon="99.102666">
<time>2014-08-04T23:58:07Z</time></trkpt>
<trkpt lat="25.778187" lon="99.102546">
<time>2014-08-04T23:58:08Z</time></trkpt>
<trkpt lat="25.778417" lon="99.102357">
<time>2014-08-04T23:58:09Z</time></trkpt>
<trkpt lat="25.778557" lon="99.102257">
<time>2014-08-04T23:58:10Z</time></trkpt>
<trkpt lat="25.778717" lon="99.102157">
<time>2014-08-04T23:58:11Z</time></trkpt>
<trkpt lat="25.778857" lon="99.102097">
<time>2014-08-04T23:58:12Z</time></trkpt>
<trkpt lat="25.779117" lon="99.101997">
<time>2014-08-04T23:58:13Z</time></trkpt>
<trkpt lat="25.779517" lon="99.101837">
<time>2014-08-04T23:58:14Z</time></trkpt>
<trkpt lat="25.779827" lon="99.101707">
<time>2014-08-04T23:58:15Z</time></trkpt>
<trkpt lat="25.780078" lon="99.101567">
<time>2014-08-04T23:58:16Z</time></trkpt>
<trkpt lat="25.780448" lon="99.101337">
<time>2014-08-04T23:58:17Z</time></trkpt>
<trkpt lat="25.780548" lon="99.101257">
<time>2014-08-04T23:58:18Z</time></trkpt>
<trkpt lat="25.780668" lon="99.101167">
<time>2014-08-04T23:58:19Z</time></trkpt>
<trkpt lat="25.780748" lon="99.101087">
<time>2014-08-04T23:58:20Z</time></trkpt>
<trkpt lat="25.780808" lon="99.101017">
<time>2014-08-04T23:58:21Z</time></trkpt>
<trkpt lat="25.780848" lon="99.100927">
<time>2014-08-04T23:58:22Z</time></trkpt>
<trkpt lat="25.780878" lon="99.100827">
<time>2014-08-04T23:58:23Z</time></trkpt>
<trkpt lat="25.780888" lon="99.100748">
<time>2014-08-04T23:58:24Z</time></trkpt>
<trkpt lat="25.780938" lon="99.100498">
<time>2014-08-04T23:58:25Z</time></trkpt>
<trkpt lat="25.780988" lon="99.100318">
<time>2014-08-04T23:58:26Z</time></trkpt>
<trkpt lat="25.781018" lon="99.100228">
<time>2014-08-04T23:58:27Z</time></trkpt>
<trkpt lat="25.781078" lon="99.100128">
<time>2014-08-04T23:58:28Z</time></trkpt>
<trkpt lat="25.781158" lon="99.100018">
<time>2014-08-04T23:58:29Z</time></trkpt>
<trkpt lat="25.781258" lon="99.099928">
<time>2014-08-04T23:58:30Z</time></trkpt>
<trkpt lat="25.781468" lon="99.099788">
<time>2014-08-04T23:58:31Z</time></trkpt>
<trkpt lat="25.781708" lon="99.099648">
<time>2014-08-04T23:58:32Z</time></trkpt>
<trkpt lat="25.781968" lon="99.099528">
<time>2014-08-04T23:58:33Z</time></trkpt>
<trkpt lat="25.782199" lon="99.099468">
<time>2014-08-04T23:58:34Z</time></trkpt>
<trkpt lat="25.782509" lon="99.099378">
<time>2014-08-04T23:58:35Z</time></trkpt>
<trkpt lat="25.782749" lon="99.099278">
<time>2014-08-04T23:58:36Z</time></trkpt>
<trkpt lat="25.782999" lon="99.099179">
<time>2014-08-04T23:58:37Z</time></trkpt>
<trkpt lat="25.783389" lon="99.099009">
<time>2014-08-04T23:58:38Z</time></trkpt>
<trkpt lat="25.783519" lon="99.098989">
<time>2014-08-04T23:58:39Z</time></trkpt>
<trkpt lat="25.783629" lon="99.098969">
<time>2014-08-04T23:58:40Z</time></trkpt>
<trkpt lat="25.783719" lon="99.098969">
<time>2014-08-04T23:58:41Z</time></trkpt>
<trkpt lat="25.78387" lon="99.098979">
<time>2014-08-04T23:58:42Z</time></trkpt>
<trkpt lat="25.78419" lon="99.099009">
<time>2014-08-04T23:58:43Z</time></trkpt>
<trkpt lat="25.78432" lon="99.098999">
<time>2014-08-04T23:58:44Z</time></trkpt>
<trkpt lat="25.78443" lon="99.098969">
<time>2014-08-04T23:58:45Z</time></trkpt>
<trkpt lat="25.78451" lon="99.098939">
<time>2014-08-04T23:58:46Z</time></trkpt>
<trkpt lat="25.7846" lon="99.098879">
<time>2014-08-04T23:58:47Z</time></trkpt>
<trkpt lat="25.78478" lon="99.098759">
<time>2014-08-04T23:58:48Z</time></trkpt>
<trkpt lat="25.78512" lon="99.098589">
<time>2014-08-04T23:58:49Z</time></trkpt>
<trkpt lat="25.785581" lon="99.098379">
<time>2014-08-04T23:58:50Z</time></trkpt>
<trkpt lat="25.786241" lon="99.098079">
<time>2014-08-04T23:58:51Z</time></trkpt>
<trkpt lat="25.786341" lon="99.098049">
<time>2014-08-04T23:58:52Z</time></trkpt>
<trkpt lat="25.786461" lon="99.098039">
<time>2014-08-04T23:58:53Z</time></trkpt>
<trkpt lat="25.786531" lon="99.098039">
<time>2014-08-04T23:58:54Z</time></trkpt>
<trkpt lat="25.786641" lon="99.098059">
<time>2014-08-04T23:58:55Z</time></trkpt>
<trkpt lat="25.786861" lon="99.098099">
<time>2014-08-04T23:58:56Z</time></trkpt>
<trkpt lat="25.787132" lon="99.098139">
<time>2014-08-04T23:58:57Z</time></trkpt>
<trkpt lat="25.787302" lon="99.098169">
<time>2014-08-04T23:58:58Z</time></trkpt>
<trkpt lat="25.787822" lon="99.098269">
<time>2014-08-04T23:58:59Z</time></trkpt>
<trkpt lat="25.788062" lon="99.098299">
<time>2014-08-04T23:59:00Z</time></trkpt>
<trkpt lat="25.788222" lon="99.098299">
<time>2014-08-04T23:59:01Z</time></trkpt>
<trkpt lat="25.788302" lon="99.098299">
<time>2014-08-04T23:59:02Z</time></trkpt>
<trkpt lat="25.788372" lon="99.098279">
<time>2014-08-04T23:59:03Z</time></trkpt>
<trkpt lat="25.788562" lon="99.098219">
<time>2014-08-04T23:59:04Z</time></trkpt>
<trkpt lat="25.788883" lon="99.098099">
<time>2014-08-04T23:59:05Z</time></trkpt>
<trkpt lat="25.789143" lon="99.098029">
<time>2014-08-04T23:59:06Z</time></trkpt>
<trkpt lat="25.789343" lon="99.097979">
<time>2014-08-04T23:59:07Z</time></trkpt>
<trkpt lat="25.789813" lon="99.097909">
<time>2014-08-04T23:59:08Z</time></trkpt>
<trkpt lat="25.789873" lon="99.097889">
<time>2014-08-04T23:59:09Z</time></trkpt>
<trkpt lat="25.789903" lon="99.097879">
<time>2014-08-04T23:59:10Z</time></trkpt>
<trkpt lat="25.790003" lon="99.097849">
<time>2014-08-04T23:59:11Z</time></trkpt>
<trkpt lat="25.790163" lon="99.097759">
<time>2014-08-04T23:59:12Z</time></trkpt>
<trkpt lat="25.790434" lon="99.09755">
<time>2014-08-04T23:59:13Z</time></trkpt>
<trkpt lat="25.790574" lon="99.09746">
<time>2014-08-04T23:59:14Z</time></trkpt>
<trkpt lat="25.790684" lon="99.09741">
<time>2014-08-04T23:59:15Z</time></trkpt>
<trkpt lat="25.790784" lon="99.09738">
<time>2014-08-04T23:59:16Z</time></trkpt>
<trkpt lat="25.790944" lon="99.09737">
<time>2014-08-04T23:59:17Z</time></trkpt>
<trkpt lat="25.791154" lon="99.09738">
<time>2014-08-04T23:59:18Z</time></trkpt>
<trkpt lat="25.791374" lon="99.09738">
<time>2014-08-04T23:59:19Z</time></trkpt>
<trkpt lat="25.791524" lon="99.09737">
<time>2014-08-04T23:59:20Z</time></trkpt>
<trkpt lat="25.791644" lon="99.09734">
<time>2014-08-04T23:59:21Z</time></trkpt>
<trkpt lat="25.791784" lon="99.09728">
<time>2014-08-04T23:59:22Z</time></trkpt>
<trkpt lat="25.792215" lon="99.097">
<time>2014-08-04T23:59:23Z</time></trkpt>
<trkpt lat="25.792365" lon="99.09691">
<time>2014-08-04T23:59:24Z</time></trkpt>
<trkpt lat="25.792395" lon="99.09689">
<time>2014-08-04T23:59:25Z</time></trkpt>
<trkpt lat="25.792605" lon="99.09676">
<time>2014-08-04T23:59:26Z</time></trkpt>
<trkpt lat="25.792775" lon="99.09667">
<time>2014-08-04T23:59:27Z</time></trkpt>
<trkpt lat="25.792895" lon="99.09663">
<time>2014-08-04T23:59:28Z</time></trkpt>
<trkpt lat="25.792955" lon="99.09663">
<time>2014-08-04T23:59:29Z</time></trkpt>
<trkpt lat="25.793075" lon="99.09665">
<time>2014-08-04T23:59:30Z</time></trkpt>
<trkpt lat="25.793255" lon="99.09668">
<time>2014-08-04T23:59:31Z</time></trkpt>
<trkpt lat="25.793415" lon="99.09672">
<time>2014-08-04T23:59:32Z</time></trkpt>
<trkpt lat="25.793636" lon="99.09675">
<time>2014-08-04T23:59:33Z</time></trkpt>
<trkpt lat="25.793756" lon="99.09676">
<time>2014-08-04T23:59:34Z</time></trkpt>
<trkpt lat="25.793866" lon="99.09676">
<time>2014-08-04T23:59:35Z</time></trkpt>
<trkpt lat="25.793946" lon="99.09674">
<time>2014-08-04T23:59:36Z</time></trkpt>
<trkpt lat="25.794036" lon="99.0967">
<time>2014-08-04T23:59:37Z</time></trkpt>
<trkpt lat="25.794126" lon="99.09663">
<time>2014-08-04T23:59:38Z</time></trkpt>
<trkpt lat="25.794256" lon="99.09651">
<time>2014-08-04T23:59:39Z</time></trkpt>
<trkpt lat="25.794366" lon="99.096421">
<time>2014-08-04T23:59:40Z</time></trkpt>
<trkpt lat="25.794496" lon="99.096331">
<time>2014-08-04T23:59:41Z</time></trkpt>
<trkpt lat="25.794626" lon="99.096261">
<time>2014-08-04T23:59:42Z</time></trkpt>
<trkpt lat="25.794746" lon="99.096231">
<time>2014-08-04T23:59:43Z</time></trkpt>
<trkpt lat="25.794856" lon="99.096221">
<time>2014-08-04T23:59:44Z</time></trkpt>
<trkpt lat="25.795107" lon="99.096201">
<time>2014-08-04T23:59:45Z</time></trkpt>
<trkpt lat="25.795347" lon="99.096191">
<time>2014-08-04T23:59:46Z</time></trkpt>
<trkpt lat="25.795587" lon="99.096171">
<time>2014-08-04T23:59:47Z</time></trkpt>
<trkpt lat="25.795717" lon="99.096141">
<time>2014-08-04T23:59:48Z</time></trkpt>
<trkpt lat="25.795847" lon="99.096101">
<time>2014-08-04T23:59:49Z</time></trkpt>
<trkpt lat="25.795957" lon="99.096061">
<time>2014-08-04T23:59:50Z</time></trkpt>
<trkpt lat="25.796067" lon="99.096051">
<time>2014-08-04T23:59:51Z</time></trkpt>
<trkpt lat="25.796137" lon="99.096051">
<time>2014-08-04T23:59:52Z</time></trkpt>
<trkpt lat="25.796197" lon="99.096061">
<time>2014-08-04T23:59:53Z</time></trkpt>
<trkpt lat="25.796247" lon="99.096071">
<time>2014-08-04T23:59:54Z</time></trkpt>
<trkpt lat="25.796337" lon="99.096111">
<time>2014-08-04T23:59:55Z</time></trkpt>
<trkpt lat="25.796427" lon="99.096151">
<time>2014-08-04T23:59:56Z</time></trkpt>
<trkpt lat="25.796557" lon="99.096211">
<time>2014-08-04T23:59:57Z</time></trkpt>
<trkpt lat="25.796948" lon="99.09643">
<time>2014-08-04T23:59:58Z</time></trkpt>
<trkpt lat="25.797068" lon="99.09649">
<time>2014-08-04T23:59:59Z</time></trkpt>
<trkpt lat="25.797118" lon="99.09652">
<time>2014-08-05T00:00:00Z</time></trkpt>
<trkpt lat="25.797198" lon="99.09658">
<time>2014-08-05T00:00:01Z</time></trkpt>
<trkpt lat="25.797288" lon="99.09665">
<time>2014-08-05T00:00:02Z</time></trkpt>
<trkpt lat="25.797368" lon="99.09673">
<time>2014-08-05T00:00:03Z</time></trkpt>
<trkpt lat="25.797448" lon="99.09685">
<time>2014-08-05T00:00:04Z</time></trkpt>
<trkpt lat="25.797538" lon="99.09696">
<time>2014-08-05T00:00:05Z</time></trkpt>
<trkpt lat="25.797648" lon="99.0971">
<time>2014-08-05T00:00:06Z</time></trkpt>
<trkpt lat="25.797738" lon="99.09718">
<time>2014-08-05T00:00:07Z</time></trkpt>
<trkpt lat="25.797818" lon="99.09724">
<time>2014-08-05T00:00:08Z</time></trkpt>
<trkpt lat="25.797908" lon="99.09729">
<time>2014-08-05T00:00:09Z</time></trkpt>
<trkpt lat="25.797998" lon="99.09731">
<time>2014-08-05T00:00:10Z</time></trkpt>
<trkpt lat="25.798118" lon="99.09732">
<time>2014-08-05T00:00:11Z</time></trkpt>
<trkpt lat="25.798269" lon="99.09731">
<time>2014-08-05T00:00:12Z</time></trkpt>
<trkpt lat="25.798429" lon="99.09727">
<time>2014-08-05T00:00:13Z</time></trkpt>
<trkpt lat="25.798609" lon="99.09722">
<time>2014-08-05T00:00:14Z</time></trkpt>
<trkpt lat="25.798779" lon="99.09712">
<time>2014-08-05T00:00:15Z</time></trkpt>
<trkpt lat="25.798909" lon="99.09703">
<time>2014-08-05T00:00:16Z</time></trkpt>
<trkpt lat="25.799229" lon="99.09688">
<time>2014-08-05T00:00:17Z</time></trkpt>
<trkpt lat="25.799579" lon="99.09676">
<time>2014-08-05T00:00:18Z</time></trkpt>
<trkpt lat="25.799719" lon="99.0967">
<time>2014-08-05T00:00:19Z</time></trkpt>
<trkpt lat="25.79987" lon="99.09661">
<time>2014-08-05T00:00:20Z</time></trkpt>
<trkpt lat="25.8001" lon="99.0964">
<time>2014-08-05T00:00:21Z</time></trkpt>
<trkpt lat="25.80036" lon="99.096111">
<time>2014-08-05T00:00:22Z</time></trkpt>
<trkpt lat="25.80062" lon="99.095881">
<time>2014-08-05T00:00:23Z</time></trkpt>
<trkpt lat="25.80066" lon="99.095851">
<time>2014-08-05T00:00:24Z</time></trkpt>
<trkpt lat="25.80095" lon="99.095661">
<time>2014-08-05T00:00:25Z</time></trkpt>
<trkpt lat="25.80108" lon="99.095551">
<time>2014-08-05T00:00:26Z</time></trkpt>
<trkpt lat="25.8012" lon="99.095441">
<time>2014-08-05T00:00:27Z</time></trkpt>
<trkpt lat="25.801301" lon="99.095321">
<time>2014-08-05T00:00:28Z</time></trkpt>
<trkpt lat="25.801371" lon="99.095191">
<time>2014-08-05T00:00:29Z</time></trkpt>
<trkpt lat="25.801421" lon="99.095022">
<time>2014-08-05T00:00:30Z</time></trkpt>
<trkpt lat="25.801441" lon="99.094852">
<time>2014-08-05T00:00:31Z</time></trkpt>
<trkpt lat="25.801441" lon="99.094652">
<time>2014-08-05T00:00:32Z</time></trkpt>
<trkpt lat="25.801451" lon="99.094452">
<time>2014-08-05T00:00:33Z</time></trkpt>
<trkpt lat="25.801511" lon="99.094292">
<time>2014-08-05T00:00:34Z</time></trkpt>
<trkpt lat="25.801621" lon="99.094122">
<time>2014-08-05T00:00:35Z</time></trkpt>
<trkpt lat="25.801861" lon="99.093813">
<time>2014-08-05T00:00:36Z</time></trkpt>
<trkpt lat="25.802191" lon="99.093403">
<time>2014-08-05T00:00:37Z</time></trkpt>
<trkpt lat="25.802662" lon="99.092924">
<time>2014-08-05T00:00:38Z</time></trkpt>
<trkpt lat="25.802902" lon="99.092684">
<time>2014-08-05T00:00:39Z</time></trkpt>
<trkpt lat="25.803022" lon="99.092534">
<time>2014-08-05T00:00:40Z</time></trkpt>
<trkpt lat="25.803122" lon="99.092414">
<time>2014-08-05T00:00:41Z</time></trkpt>
<trkpt lat="25.803242" lon="99.092224">
<time>2014-08-05T00:00:42Z</time></trkpt>
<trkpt lat="25.803322" lon="99.091965">
<time>2014-08-05T00:00:43Z</time></trkpt>
<trkpt lat="25.803422" lon="99.091585">
<time>2014-08-05T00:00:44Z</time></trkpt>
<trkpt lat="25.803503" lon="99.091395">
<time>2014-08-05T00:00:45Z</time></trkpt>
<trkpt lat="25.803543" lon="99.091325">
<time>2014-08-05T00:00:46Z</time></trkpt>
<trkpt lat="25.803633" lon="99.091235">
<time>2014-08-05T00:00:47Z</time></trkpt>
<trkpt lat="25.803743" lon="99.091156">
<time>2014-08-05T00:00:48Z</time></trkpt>
<trkpt lat="25.803923" lon="99.091046">
<time>2014-08-05T00:00:49Z</time></trkpt>
<trkpt lat="25.804203" lon="99.090836">
<time>2014-08-05T00:00:50Z</time></trkpt>
<trkpt lat="25.804493" lon="99.090586">
<time>2014-08-05T00:00:51Z</time></trkpt>
<trkpt lat="25.804704" lon="99.090426">
<time>2014-08-05T00:00:52Z</time></trkpt>
<trkpt lat="25.804864" lon="99.090317">
<time>2014-08-05T00:00:53Z</time></trkpt>
<trkpt lat="25.805094" lon="99.090247">
<time>2014-08-05T00:00:54Z</time></trkpt>
<trkpt lat="25.805404" lon="99.090197">
<time>2014-08-05T00:00:55Z</time></trkpt>
<trkpt lat="25.805594" lon="99.090127">
<time>2014-08-05T00:00:56Z</time></trkpt>
<trkpt lat="25.805744" lon="99.090057">
<time>2014-08-05T00:00:57Z</time></trkpt>
<trkpt lat="25.805995" lon="99.089887">
<time>2014-08-05T00:00:58Z</time></trkpt>
<trkpt lat="25.806105" lon="99.089837">
<time>2014-08-05T00:00:59Z</time></trkpt>
<trkpt lat="25.806155" lon="99.089827">
<time>2014-08-05T00:01:00Z</time></trkpt>
<trkpt lat="25.806225" lon="99.089827">
<time>2014-08-05T00:01:01Z</time></trkpt>
<trkpt lat="25.806295" lon="99.089837">
<time>2014-08-05T00:01:02Z</time></trkpt>
<trkpt lat="25.806355" lon="99.089857">
<time>2014-08-05T00:01:03Z</time></trkpt>
<trkpt lat="25.806415" lon="99.089867">
<time>2014-08-05T00:01:04Z</time></trkpt>
<trkpt lat="25.806475" lon="99.089877">
<time>2014-08-05T00:01:05Z</time></trkpt>
<trkpt lat="25.806545" lon="99.089877">
<time>2014-08-05T00:01:06Z</time></trkpt>
<trkpt lat="25.806615" lon="99.089877">
<time>2014-08-05T00:01:07Z</time></trkpt>
<trkpt lat="25.806685" lon="99.089867">
<time>2014-08-05T00:01:08Z</time></trkpt>
<trkpt lat="25.806755" lon="99.089837">
<time>2014-08-05T00:01:09Z</time></trkpt>
<trkpt lat="25.806865" lon="99.089767">
<time>2014-08-05T00:01:10Z</time></trkpt>
<trkpt lat="25.807005" lon="99.089647">
<time>2014-08-05T00:01:11Z</time></trkpt>
<trkpt lat="25.807186" lon="99.089487">
<time>2014-08-05T00:01:12Z</time></trkpt>
<trkpt lat="25.807456" lon="99.089298">
<time>2014-08-05T00:01:13Z</time></trkpt>
<trkpt lat="25.807696" lon="99.089188">
<time>2014-08-05T00:01:14Z</time></trkpt>
<trkpt lat="25.807896" lon="99.089138">
<time>2014-08-05T00:01:15Z</time></trkpt>
<trkpt lat="25.808046" lon="99.089128">
<time>2014-08-05T00:01:16Z</time></trkpt>
<trkpt lat="25.808246" lon="99.089148">
<time>2014-08-05T00:01:17Z</time></trkpt>
<trkpt lat="25.808396" lon="99.089178">
<time>2014-08-05T00:01:18Z</time></trkpt>
<trkpt lat="25.808486" lon="99.089198">
<time>2014-08-05T00:01:19Z</time></trkpt>
<trkpt lat="25.808576" lon="99.089228">
<time>2014-08-05T00:01:20Z</time></trkpt>
<trkpt lat="25.808647" lon="99.089258">
<time>2014-08-05T00:01:21Z</time></trkpt>
<trkpt lat="25.808727" lon="99.089298">
<time>2014-08-05T00:01:22Z</time></trkpt>
<trkpt lat="25.808837" lon="99.089368">
<time>2014-08-05T00:01:23Z</time></trkpt>
<trkpt lat="25.808947" lon="99.089427">
<time>2014-08-05T00:01:24Z</time></trkpt>
<trkpt lat="25.809037" lon="99.089487">
<time>2014-08-05T00:01:25Z</time></trkpt>
<trkpt lat="25.809227" lon="99.089577">
<time>2014-08-05T00:01:26Z</time></trkpt>
<trkpt lat="25.809407" lon="99.089647">
<time>2014-08-05T00:01:27Z</time></trkpt>
<trkpt lat="25.809587" lon="99.089677">
<time>2014-08-05T00:01:28Z</time></trkpt>
<trkpt lat="25.809807" lon="99.089647">
<time>2014-08-05T00:01:29Z</time></trkpt>
<trkpt lat="25.809987" lon="99.089567">
<time>2014-08-05T00:01:30Z</time></trkpt>
<trkpt lat="25.810247" lon="99.089397">
<time>2014-08-05T00:01:31Z</time></trkpt>
<trkpt lat="25.810448" lon="99.089218">
<time>2014-08-05T00:01:32Z</time></trkpt>
<trkpt lat="25.810608" lon="99.089058">
<time>2014-08-05T00:01:33Z</time></trkpt>
<trkpt lat="25.810748" lon="99.088908">
<time>2014-08-05T00:01:34Z</time></trkpt>
<trkpt lat="25.810828" lon="99.088788">
<time>2014-08-05T00:01:35Z</time></trkpt>
<trkpt lat="25.810948" lon="99.088569">
<time>2014-08-05T00:01:36Z</time></trkpt>
<trkpt lat="25.811088" lon="99.088269">
<time>2014-08-05T00:01:37Z</time></trkpt>
<trkpt lat="25.811199" lon="99.088059">
<time>2014-08-05T00:01:38Z</time></trkpt>
<trkpt lat="25.811309" lon="99.087929">
<time>2014-08-05T00:01:39Z</time></trkpt>
<trkpt lat="25.811439" lon="99.087819">
<time>2014-08-05T00:01:40Z</time></trkpt>
<trkpt lat="25.811689" lon="99.08768">
<time>2014-08-05T00:01:41Z</time></trkpt>
<trkpt lat="25.811849" lon="99.08756">
<time>2014-08-05T00:01:42Z</time></trkpt>
<trkpt lat="25.811949" lon="99.08745">
<time>2014-08-05T00:01:43Z</time></trkpt>
<trkpt lat="25.812039" lon="99.0873">
<time>2014-08-05T00:01:44Z</time></trkpt>
<trkpt lat="25.81211" lon="99.08709">
<time>2014-08-05T00:01:45Z</time></trkpt>
<trkpt lat="25.81219" lon="99.086721">
<time>2014-08-05T00:01:46Z</time></trkpt>
<trkpt lat="25.81226" lon="99.086381">
<time>2014-08-05T00:01:47Z</time></trkpt>
<trkpt lat="25.81231" lon="99.086242">
<time>2014-08-05T00:01:48Z</time></trkpt>
<trkpt lat="25.81237" lon="99.086182">
<time>2014-08-05T00:01:49Z</time></trkpt>
<trkpt lat="25.81245" lon="99.086152">
<time>2014-08-05T00:01:50Z</time></trkpt>
<trkpt lat="25.81254" lon="99.086142">
<time>2014-08-05T00:01:51Z</time></trkpt>
<trkpt lat="25.81261" lon="99.086162">
<time>2014-08-05T00:01:52Z</time></trkpt>
<trkpt lat="25.8127" lon="99.086182">
<time>2014-08-05T00:01:53Z</time></trkpt>
<trkpt lat="25.8128" lon="99.086212">
<time>2014-08-05T00:01:54Z</time></trkpt>
<trkpt lat="25.812871" lon="99.086232">
<time>2014-08-05T00:01:55Z</time></trkpt>
<trkpt lat="25.812951" lon="99.086232">
<time>2014-08-05T00:01:56Z</time></trkpt>
<trkpt lat="25.813021" lon="99.086222">
<time>2014-08-05T00:01:57Z</time></trkpt>
<trkpt lat="25.813131" lon="99.086182">
<time>2014-08-05T00:01:58Z</time></trkpt>
<trkpt lat="25.813201" lon="99.086142">
<time>2014-08-05T00:01:59Z</time></trkpt>
<trkpt lat="25.813281" lon="99.086072">
<time>2014-08-05T00:02:00Z</time></trkpt>
<trkpt lat="25.813361" lon="99.085962">
<time>2014-08-05T00:02:01Z</time></trkpt>
<trkpt lat="25.813421" lon="99.085862">
<time>2014-08-05T00:02:02Z</time></trkpt>
<trkpt lat="25.813501" lon="99.085702">
<time>2014-08-05T00:02:03Z</time></trkpt>
<trkpt lat="25.813571" lon="99.085602">
<time>2014-08-05T00:02:04Z</time></trkpt>
<trkpt lat="25.813681" lon="99.085503">
<time>2014-08-05T00:02:05Z</time></trkpt>
<trkpt lat="25.813832" lon="99.085423">
<time>2014-08-05T00:02:06Z</time></trkpt>
<trkpt lat="25.814002" lon="99.085353">
<time>2014-08-05T00:02:07Z</time></trkpt>
<trkpt lat="25.814272" lon="99.085263">
<time>2014-08-05T00:02:08Z</time></trkpt>
<trkpt lat="25.814412" lon="99.085193">
<time>2014-08-05T00:02:09Z</time></trkpt>
<trkpt lat="25.814522" lon="99.085123">
<time>2014-08-05T00:02:10Z</time></trkpt>
<trkpt lat="25.814622" lon="99.085023">
<time>2014-08-05T00:02:11Z</time></trkpt>
<trkpt lat="25.814792" lon="99.084823">
<time>2014-08-05T00:02:12Z</time></trkpt>
<trkpt lat="25.815003" lon="99.084544">
<time>2014-08-05T00:02:13Z</time></trkpt>
<trkpt lat="25.815173" lon="99.084334">
<time>2014-08-05T00:02:14Z</time></trkpt>
<trkpt lat="25.815413" lon="99.084035">
<time>2014-08-05T00:02:15Z</time></trkpt>
<trkpt lat="25.815543" lon="99.083905">
<time>2014-08-05T00:02:16Z</time></trkpt>
<trkpt lat="25.815724" lon="99.083795">
<time>2014-08-05T00:02:17Z</time></trkpt>
<trkpt lat="25.815944" lon="99.083665">
<time>2014-08-05T00:02:18Z</time></trkpt>
<trkpt lat="25.816064" lon="99.083575">
<time>2014-08-05T00:02:19Z</time></trkpt>
<trkpt lat="25.816304" lon="99.083356">
<time>2014-08-05T00:02:20Z</time></trkpt>
<trkpt lat="25.816444" lon="99.083246">
<time>2014-08-05T00:02:21Z</time></trkpt>
<trkpt lat="25.816575" lon="99.083166">
<time>2014-08-05T00:02:22Z</time></trkpt>
<trkpt lat="25.816675" lon="99.083136">
<time>2014-08-05T00:02:23Z</time></trkpt>
<trkpt lat="25.816745" lon="99.083136">
<time>2014-08-05T00:02:24Z</time></trkpt>
<trkpt lat="25.816815" lon="99.083136">
<time>2014-08-05T00:02:25Z</time></trkpt>
<trkpt lat="25.816875" lon="99.083156">
<time>2014-08-05T00:02:26Z</time></trkpt>
<trkpt lat="25.816955" lon="99.083176">
<time>2014-08-05T00:02:27Z</time></trkpt>
<trkpt lat="25.817035" lon="99.083196">
<time>2014-08-05T00:02:28Z</time></trkpt>
<trkpt lat="25.817135" lon="99.083226">
<time>2014-08-05T00:02:29Z</time></trkpt>
<trkpt lat="25.817195" lon="99.083236">
<time>2014-08-05T00:02:30Z</time></trkpt>
<trkpt lat="25.817275" lon="99.083236">
<time>2014-08-05T00:02:31Z</time></trkpt>
<trkpt lat="25.817365" lon="99.083216">
<time>2014-08-05T00:02:32Z</time></trkpt>
<trkpt lat="25.817445" lon="99.083186">
<time>2014-08-05T00:02:33Z</time></trkpt>
<trkpt lat="25.817715" lon="99.083096">
<time>2014-08-05T00:02:34Z</time></trkpt>
<trkpt lat="25.817976" lon="99.082986">
<time>2014-08-05T00:02:35Z</time></trkpt>
<trkpt lat="25.818216" lon="99.082896">
<time>2014-08-05T00:02:36Z</time></trkpt>
<trkpt lat="25.818336" lon="99.082886">
<time>2014-08-05T00:02:37Z</time></trkpt>
<trkpt lat="25.818386" lon="99.082886">
<time>2014-08-05T00:02:38Z</time></trkpt>
<trkpt lat="25.818436" lon="99.082886">
<time>2014-08-05T00:02:39Z</time></trkpt>
<trkpt lat="25.818496" lon="99.082916">
<time>2014-08-05T00:02:40Z</time></trkpt>
<trkpt lat="25.818566" lon="99.082956">
<time>2014-08-05T00:02:41Z</time></trkpt>
<trkpt lat="25.818656" lon="99.083006">
<time>2014-08-05T00:02:42Z</time></trkpt>
<trkpt lat="25.818736" lon="99.083056">
<time>2014-08-05T00:02:43Z</time></trkpt>
<trkpt lat="25.818816" lon="99.083106">
<time>2014-08-05T00:02:44Z</time></trkpt>
<trkpt lat="25.818906" lon="99.083146">
<time>2014-08-05T00:02:45Z</time></trkpt>
<trkpt lat="25.818976" lon="99.083166">
<time>2014-08-05T00:02:46Z</time></trkpt>
<trkpt lat="25.819076" lon="99.083176">
<time>2014-08-05T00:02:47Z</time></trkpt>
<trkpt lat="25.819186" lon="99.083176">
<time>2014-08-05T00:02:48Z</time></trkpt>
<trkpt lat="25.819346" lon="99.083156">
<time>2014-08-05T00:02:49Z</time></trkpt>
<trkpt lat="25.819497" lon="99.083136">
<time>2014-08-05T00:02:50Z</time></trkpt>
<trkpt lat="25.819797" lon="99.083126">
<time>2014-08-05T00:02:51Z</time></trkpt>
<trkpt lat="25.819897" lon="99.083126">
<time>2014-08-05T00:02:52Z</time></trkpt>
<trkpt lat="25.820027" lon="99.083146">
<time>2014-08-05T00:02:53Z</time></trkpt>
<trkpt lat="25.820127" lon="99.083176">
<time>2014-08-05T00:02:54Z</time></trkpt>
<trkpt lat="25.820287" lon="99.083236">
<time>2014-08-05T00:02:55Z</time></trkpt>
<trkpt lat="25.820377" lon="99.083276">
<time>2014-08-05T00:02:56Z</time></trkpt>
<trkpt lat="25.820457" lon="99.083316">
<time>2014-08-05T00:02:57Z</time></trkpt>
<trkpt lat="25.820517" lon="99.083356">
<time>2014-08-05T00:02:58Z</time></trkpt>
<trkpt lat="25.820587" lon="99.083405">
<time>2014-08-05T00:02:59Z</time></trkpt>
<trkpt lat="25.820727" lon="99.083545">
<time>2014-08-05T00:03:00Z</time></trkpt>
<trkpt lat="25.820787" lon="99.083585">
<time>2014-08-05T00:03:01Z</time></trkpt>
<trkpt lat="25.820867" lon="99.083615">
<time>2014-08-05T00:03:02Z</time></trkpt>
<trkpt lat="25.820927" lon="99.083625">
<time>2014-08-05T00:03:03Z</time></trkpt>
<trkpt lat="25.820997" lon="99.083625">
<time>2014-08-05T00:03:04Z</time></trkpt>
<trkpt lat="25.821087" lon="99.083605">
<time>2014-08-05T00:03:05Z</time></trkpt>
<trkpt lat="25.821167" lon="99.083545">
<time>2014-08-05T00:03:06Z</time></trkpt>
<trkpt lat="25.821277" lon="99.083455">
<time>2014-08-05T00:03:07Z</time></trkpt>
<trkpt lat="25.821498" lon="99.083236">
<time>2014-08-05T00:03:08Z</time></trkpt>
<trkpt lat="25.821718" lon="99.083006">
<time>2014-08-05T00:03:09Z</time></trkpt>
<trkpt lat="25.821798" lon="99.082906">
<time>2014-08-05T00:03:10Z</time></trkpt>
<trkpt lat="25.821858" lon="99.082826">
<time>2014-08-05T00:03:11Z</time></trkpt>
<trkpt lat="25.822129" lon="99.082477">
<time>2014-08-05T00:03:12Z</time></trkpt>
<trkpt lat="25.822299" lon="99.082237">
<time>2014-08-05T00:03:13Z</time></trkpt>
<trkpt lat="25.822469" lon="99.082028">
<time>2014-08-05T00:03:14Z</time></trkpt>
<trkpt lat="25.822569" lon="99.081918">
<time>2014-08-05T00:03:15Z</time></trkpt>
<trkpt lat="25.822659" lon="99.081848">
<time>2014-08-05T00:03:16Z</time></trkpt>
<trkpt lat="25.8228" lon="99.081758">
<time>2014-08-05T00:03:17Z</time></trkpt>
<trkpt lat="25.82308" lon="99.081598">
<time>2014-08-05T00:03:18Z</time></trkpt>
<trkpt lat="25.82335" lon="99.081448">
<time>2014-08-05T00:03:19Z</time></trkpt>
<trkpt lat="25.82352" lon="99.081369">
<time>2014-08-05T00:03:20Z</time></trkpt>
<trkpt lat="25.82368" lon="99.081299">
<time>2014-08-05T00:03:21Z</time></trkpt>
<trkpt lat="25.823901" lon="99.081219">
<time>2014-08-05T00:03:22Z</time></trkpt>
<trkpt lat="25.824151" lon="99.081159">
<time>2014-08-05T00:03:23Z</time></trkpt>
<trkpt lat="25.824481" lon="99.081109">
<time>2014-08-05T00:03:24Z</time></trkpt>
<trkpt lat="25.825072" lon="99.081059">
<time>2014-08-05T00:03:25Z</time></trkpt>
<trkpt lat="25.825292" lon="99.081049">
<time>2014-08-05T00:03:26Z</time></trkpt>
<trkpt lat="25.825492" lon="99.081059">
<time>2014-08-05T00:03:27Z</time></trkpt>
<trkpt lat="25.825622" lon="99.081079">
<time>2014-08-05T00:03:28Z</time></trkpt>
<trkpt lat="25.825832" lon="99.081099">
<time>2014-08-05T00:03:29Z</time></trkpt>
<trkpt lat="25.825932" lon="99.081099">
<time>2014-08-05T00:03:30Z</time></trkpt>
<trkpt lat="25.826032" lon="99.081079">
<time>2014-08-05T00:03:31Z</time></trkpt>
<trkpt lat="25.826142" lon="99.081049">
<time>2014-08-05T00:03:32Z</time></trkpt>
<trkpt lat="25.826252" lon="99.081009">
<time>2014-08-05T00:03:33Z</time></trkpt>
<trkpt lat="25.826392" lon="99.080939">
<time>2014-08-05T00:03:34Z</time></trkpt>
<trkpt lat="25.826523" lon="99.080869">
<time>2014-08-05T00:03:35Z</time></trkpt>
<trkpt lat="25.826663" lon="99.080799">
<time>2014-08-05T00:03:36Z</time></trkpt>
<trkpt lat="25.826813" lon="99.08072">
<time>2014-08-05T00:03:37Z</time></trkpt>
<trkpt lat="25.826943" lon="99.08065">
<time>2014-08-05T00:03:38Z</time></trkpt>
<trkpt lat="25.827103" lon="99.08057">
<time>2014-08-05T00:03:39Z</time></trkpt>
<trkpt lat="25.827263" lon="99.0805">
<time>2014-08-05T00:03:40Z</time></trkpt>
<trkpt lat="25.827424" lon="99.08042">
<time>2014-08-05T00:03:41Z</time></trkpt>
<trkpt lat="25.827724" lon="99.08026">
<time>2014-08-05T00:03:42Z</time></trkpt>
<trkpt lat="25.828044" lon="99.080041">
<time>2014-08-05T00:03:43Z</time></trkpt>
<trkpt lat="25.828655" lon="99.079522">
<time>2014-08-05T00:03:44Z</time></trkpt>
<trkpt lat="25.829026" lon="99.079232">
<time>2014-08-05T00:03:45Z</time></trkpt>
<trkpt lat="25.829236" lon="99.079042">
<time>2014-08-05T00:03:46Z</time></trkpt>
<trkpt lat="25.829356" lon="99.078893">
<time>2014-08-05T00:03:47Z</time></trkpt>
<trkpt lat="25.829456" lon="99.078723">
<time>2014-08-05T00:03:48Z</time></trkpt>
<trkpt lat="25.829556" lon="99.078493">
<time>2014-08-05T00:03:49Z</time></trkpt>
<trkpt lat="25.829617" lon="99.078324">
<time>2014-08-05T00:03:50Z</time></trkpt>
<trkpt lat="25.829637" lon="99.078154">
<time>2014-08-05T00:03:51Z</time></trkpt>
<trkpt lat="25.829617" lon="99.077954">
<time>2014-08-05T00:03:52Z</time></trkpt>
<trkpt lat="25.829577" lon="99.077745">
<time>2014-08-05T00:03:53Z</time></trkpt>
<trkpt lat="25.829477" lon="99.077276">
<time>2014-08-05T00:03:54Z</time></trkpt>
<trkpt lat="25.829448" lon="99.077076">
<time>2014-08-05T00:03:55Z</time></trkpt>
<trkpt lat="25.829428" lon="99.076896">
<time>2014-08-05T00:03:56Z</time></trkpt>
<trkpt lat="25.829438" lon="99.076747">
<time>2014-08-05T00:03:57Z</time></trkpt>
<trkpt lat="25.829478" lon="99.076557">
<time>2014-08-05T00:03:58Z</time></trkpt>
<trkpt lat="25.829528" lon="99.076397">
<time>2014-08-05T00:03:59Z</time></trkpt>
<trkpt lat="25.829629" lon="99.076218">
<time>2014-08-05T00:04:00Z</time></trkpt>
<trkpt lat="25.829719" lon="99.076088">
<time>2014-08-05T00:04:01Z</time></trkpt>
<trkpt lat="25.829799" lon="99.075978">
<time>2014-08-05T00:04:02Z</time></trkpt>
<trkpt lat="25.829919" lon="99.075868">
<time>2014-08-05T00:04:03Z</time></trkpt>
<trkpt lat="25.830129" lon="99.075748">
<time>2014-08-05T00:04:04Z</time></trkpt>
<trkpt lat="25.83037" lon="99.075599">
<time>2014-08-05T00:04:05Z</time></trkpt>
<trkpt lat="25.83057" lon="99.075509">
<time>2014-08-05T00:04:06Z</time></trkpt>
<trkpt lat="25.83076" lon="99.075419">
<time>2014-08-05T00:04:07Z</time></trkpt>
<trkpt lat="25.83093" lon="99.075319">
<time>2014-08-05T00:04:08Z</time></trkpt>
<trkpt lat="25.83111" lon="99.075209">
<time>2014-08-05T00:04:09Z</time></trkpt>
<trkpt lat="25.831231" lon="99.07512">
<time>2014-08-05T00:04:10Z</time></trkpt>
<trkpt lat="25.831341" lon="99.075">
<time>2014-08-05T00:04:11Z</time></trkpt>
<trkpt lat="25.831481" lon="99.0748">
<time>2014-08-05T00:04:12Z</time></trkpt>
<trkpt lat="25.831882" lon="99.074191">
<time>2014-08-05T00:04:13Z</time></trkpt>
<trkpt lat="25.832062" lon="99.073932">
<time>2014-08-05T00:04:14Z</time></trkpt>
<trkpt lat="25.832163" lon="99.073822">
<time>2014-08-05T00:04:15Z</time></trkpt>
<trkpt lat="25.832253" lon="99.073752">
<time>2014-08-05T00:04:16Z</time></trkpt>
<trkpt lat="25.832373" lon="99.073692">
<time>2014-08-05T00:04:17Z</time></trkpt>
<trkpt lat="25.832523" lon="99.073632">
<time>2014-08-05T00:04:18Z</time></trkpt>
<trkpt lat="25.832723" lon="99.073583">
<time>2014-08-05T00:04:19Z</time></trkpt>
<trkpt lat="25.832943" lon="99.073523">
<time>2014-08-05T00:04:20Z</time></trkpt>
<trkpt lat="25.833184" lon="99.073463">
<time>2014-08-05T00:04:21Z</time></trkpt>
<trkpt lat="25.833344" lon="99.073423">
<time>2014-08-05T00:04:22Z</time></trkpt>
<trkpt lat="25.833504" lon="99.073393">
<time>2014-08-05T00:04:23Z</time></trkpt>
<trkpt lat="25.833654" lon="99.073353">
<time>2014-08-05T00:04:24Z</time></trkpt>
<trkpt lat="25.833734" lon="99.073303">
<time>2014-08-05T00:04:25Z</time></trkpt>
<trkpt lat="25.833794" lon="99.073243">
<time>2014-08-05T00:04:26Z</time></trkpt>
<trkpt lat="25.833854" lon="99.073173">
<time>2014-08-05T00:04:27Z</time></trkpt>
<trkpt lat="25.833874" lon="99.073094">
<time>2014-08-05T00:04:28Z</time></trkpt>
<trkpt lat="25.833915" lon="99.072984">
<time>2014-08-05T00:04:29Z</time></trkpt>
<trkpt lat="25.834276" lon="99.071746">
<time>2014-08-05T00:04:30Z</time></trkpt>
<trkpt lat="25.834316" lon="99.071637">
<time>2014-08-05T00:04:31Z</time></trkpt>
<trkpt lat="25.834336" lon="99.071587">
<time>2014-08-05T00:04:32Z</time></trkpt>
<trkpt lat="25.834397" lon="99.071517">
<time>2014-08-05T00:04:33Z</time></trkpt>
<trkpt lat="25.834457" lon="99.071457">
<time>2014-08-05T00:04:34Z</time></trkpt>
<trkpt lat="25.834527" lon="99.071407">
<time>2014-08-05T00:04:35Z</time></trkpt>
<trkpt lat="25.834727" lon="99.071337">
<time>2014-08-05T00:04:36Z</time></trkpt>
<trkpt lat="25.834977" lon="99.071277">
<time>2014-08-05T00:04:37Z</time></trkpt>
<trkpt lat="25.835047" lon="99.071247">
<time>2014-08-05T00:04:38Z</time></trkpt>
<trkpt lat="25.835117" lon="99.071207">
<time>2014-08-05T00:04:39Z</time></trkpt>
<trkpt lat="25.835178" lon="99.071158">
<time>2014-08-05T00:04:40Z</time></trkpt>
<trkpt lat="25.835328" lon="99.071008">
<time>2014-08-05T00:04:41Z</time></trkpt>
<trkpt lat="25.835638" lon="99.070629">
<time>2014-08-05T00:04:42Z</time></trkpt>
<trkpt lat="25.835899" lon="99.070299">
<time>2014-08-05T00:04:43Z</time></trkpt>
<trkpt lat="25.836029" lon="99.07015">
<time>2014-08-05T00:04:44Z</time></trkpt>
<trkpt lat="25.83616" lon="99.07001">
<time>2014-08-05T00:04:45Z</time></trkpt>
<trkpt lat="25.8363" lon="99.06989">
<time>2014-08-05T00:04:46Z</time></trkpt>
<trkpt lat="25.83653" lon="99.069721">
<time>2014-08-05T00:04:47Z</time></trkpt>
<trkpt lat="25.837662" lon="99.069082">
<time>2014-08-05T00:04:48Z</time></trkpt>
<trkpt lat="25.838363" lon="99.068623">
<time>2014-08-05T00:04:49Z</time></trkpt>
<trkpt lat="25.838513" lon="99.068513">
<time>2014-08-05T00:04:50Z</time></trkpt>
<trkpt lat="25.838653" lon="99.068394">
<time>2014-08-05T00:04:51Z</time></trkpt>
<trkpt lat="25.838733" lon="99.068314">
<time>2014-08-05T00:04:52Z</time></trkpt>
<trkpt lat="25.838814" lon="99.068224">
<time>2014-08-05T00:04:53Z</time></trkpt>
<trkpt lat="25.838904" lon="99.068104">
<time>2014-08-05T00:04:54Z</time></trkpt>
<trkpt lat="25.838944" lon="99.068024">
<time>2014-08-05T00:04:55Z</time></trkpt>
<trkpt lat="25.838974" lon="99.067945">
<time>2014-08-05T00:04:56Z</time></trkpt>
<trkpt lat="25.839075" lon="99.067545">
<time>2014-08-05T00:04:57Z</time></trkpt>
<trkpt lat="25.839115" lon="99.067446">
<time>2014-08-05T00:04:58Z</time></trkpt>
<trkpt lat="25.839175" lon="99.067356">
<time>2014-08-05T00:04:59Z</time></trkpt>
<trkpt lat="25.839235" lon="99.067276">
<time>2014-08-05T00:05:00Z</time></trkpt>
<trkpt lat="25.839295" lon="99.067216">
<time>2014-08-05T00:05:01Z</time></trkpt>
<trkpt lat="25.839375" lon="99.067176">
<time>2014-08-05T00:05:02Z</time></trkpt>
<trkpt lat="25.839896" lon="99.067007">
<time>2014-08-05T00:05:03Z</time></trkpt>
<trkpt lat="25.840416" lon="99.066787">
<time>2014-08-05T00:05:04Z</time></trkpt>
<trkpt lat="25.840527" lon="99.066727">
<time>2014-08-05T00:05:05Z</time></trkpt>
<trkpt lat="25.840757" lon="99.066568">
<time>2014-08-05T00:05:06Z</time></trkpt>
<trkpt lat="25.840827" lon="99.066488">
<time>2014-08-05T00:05:07Z</time></trkpt>
<trkpt lat="25.840897" lon="99.066398">
<time>2014-08-05T00:05:08Z</time></trkpt>
<trkpt lat="25.841068" lon="99.065939">
<time>2014-08-05T00:05:09Z</time></trkpt>
<trkpt lat="25.841108" lon="99.06579">
<time>2014-08-05T00:05:10Z</time></trkpt>
<trkpt lat="25.841138" lon="99.06568">
<time>2014-08-05T00:05:11Z</time></trkpt>
<trkpt lat="25.841189" lon="99.0656">
<time>2014-08-05T00:05:12Z</time></trkpt>
<trkpt lat="25.841249" lon="99.06554">
<time>2014-08-05T00:05:13Z</time></trkpt>
<trkpt lat="25.841339" lon="99.06549">
<time>2014-08-05T00:05:14Z</time></trkpt>
<trkpt lat="25.841589" lon="99.065391">
<time>2014-08-05T00:05:15Z</time></trkpt>
<trkpt lat="25.841819" lon="99.065311">
<time>2014-08-05T00:05:16Z</time></trkpt>
<trkpt lat="25.8419" lon="99.065291">
<time>2014-08-05T00:05:17Z</time></trkpt>
<trkpt lat="25.84203" lon="99.065271">
<time>2014-08-05T00:05:18Z</time></trkpt>
<trkpt lat="25.84215" lon="99.065261">
<time>2014-08-05T00:05:19Z</time></trkpt>
<trkpt lat="25.8423" lon="99.065271">
<time>2014-08-05T00:05:20Z</time></trkpt>
<trkpt lat="25.84243" lon="99.065301">
<time>2014-08-05T00:05:21Z</time></trkpt>
<trkpt lat="25.84362" lon="99.06559">
<time>2014-08-05T00:05:22Z</time></trkpt>
<trkpt lat="25.84381" lon="99.06562">
<time>2014-08-05T00:05:23Z</time></trkpt>
<trkpt lat="25.844211" lon="99.06565">
<time>2014-08-05T00:05:24Z</time></trkpt>
<trkpt lat="25.844591" lon="99.06564">
<time>2014-08-05T00:05:25Z</time></trkpt>
<trkpt lat="25.844691" lon="99.06564">
<time>2014-08-05T00:05:26Z</time></trkpt>
<trkpt lat="25.844801" lon="99.06566">
<time>2014-08-05T00:05:27Z</time></trkpt>
<trkpt lat="25.844901" lon="99.06568">
<time>2014-08-05T00:05:28Z</time></trkpt>
<trkpt lat="25.845531" lon="99.065929">
<time>2014-08-05T00:05:29Z</time></trkpt>
<trkpt lat="25.845781" lon="99.065999">
<time>2014-08-05T00:05:30Z</time></trkpt>
<trkpt lat="25.846001" lon="99.066039">
<time>2014-08-05T00:05:31Z</time></trkpt>
<trkpt lat="25.846241" lon="99.066079">
<time>2014-08-05T00:05:32Z</time></trkpt>
<trkpt lat="25.846421" lon="99.066089">
<time>2014-08-05T00:05:33Z</time></trkpt>
<trkpt lat="25.846592" lon="99.066079">
<time>2014-08-05T00:05:34Z</time></trkpt>
<trkpt lat="25.846732" lon="99.066059">
<time>2014-08-05T00:05:35Z</time></trkpt>
<trkpt lat="25.846872" lon="99.066019">
<time>2014-08-05T00:05:36Z</time></trkpt>
<trkpt lat="25.847012" lon="99.065969">
<time>2014-08-05T00:05:37Z</time></trkpt>
<trkpt lat="25.847072" lon="99.065939">
<time>2014-08-05T00:05:38Z</time></trkpt>
<trkpt lat="25.847312" lon="99.065839">
<time>2014-08-05T00:05:39Z</time></trkpt>
<trkpt lat="25.847563" lon="99.06569">
<time>2014-08-05T00:05:40Z</time></trkpt>
<trkpt lat="25.847783" lon="99.06555">
<time>2014-08-05T00:05:41Z</time></trkpt>
<trkpt lat="25.848063" lon="99.06539">
<time>2014-08-05T00:05:42Z</time></trkpt>
<trkpt lat="25.848194" lon="99.065321">
<time>2014-08-05T00:05:43Z</time></trkpt>
<trkpt lat="25.848324" lon="99.065281">
<time>2014-08-05T00:05:44Z</time></trkpt>
<trkpt lat="25.848414" lon="99.065281">
<time>2014-08-05T00:05:45Z</time></trkpt>
<trkpt lat="25.848514" lon="99.065301">
<time>2014-08-05T00:05:46Z</time></trkpt>
<trkpt lat="25.848704" lon="99.06534">
<time>2014-08-05T00:05:47Z</time></trkpt>
<trkpt lat="25.849174" lon="99.06549">
<time>2014-08-05T00:05:48Z</time></trkpt>
<trkpt lat="25.849244" lon="99.06551">
<time>2014-08-05T00:05:49Z</time></trkpt>
<trkpt lat="25.849334" lon="99.06553">
<time>2014-08-05T00:05:50Z</time></trkpt>
<trkpt lat="25.849474" lon="99.06554">
<time>2014-08-05T00:05:51Z</time></trkpt>
<trkpt lat="25.849935" lon="99.06551">
<time>2014-08-05T00:05:52Z</time></trkpt>
<trkpt lat="25.850715" lon="99.06548">
<time>2014-08-05T00:05:53Z</time></trkpt>
<trkpt lat="25.850785" lon="99.06548">
<time>2014-08-05T00:05:54Z</time></trkpt>
<trkpt lat="25.850855" lon="99.06546">
<time>2014-08-05T00:05:55Z</time></trkpt>
<trkpt lat="25.850925" lon="99.06545">
<time>2014-08-05T00:05:56Z</time></trkpt>
<trkpt lat="25.850985" lon="99.06541">
<time>2014-08-05T00:05:57Z</time></trkpt>
<trkpt lat="25.851045" lon="99.06537">
<time>2014-08-05T00:05:58Z</time></trkpt>
<trkpt lat="25.851106" lon="99.06531">
<time>2014-08-05T00:05:59Z</time></trkpt>
<trkpt lat="25.851266" lon="99.065131">
<time>2014-08-05T00:06:00Z</time></trkpt>
<trkpt lat="25.851687" lon="99.064702">
<time>2014-08-05T00:06:01Z</time></trkpt>
<trkpt lat="25.851907" lon="99.064482">
<time>2014-08-05T00:06:02Z</time></trkpt>
<trkpt lat="25.852338" lon="99.064193">
<time>2014-08-05T00:06:03Z</time></trkpt>
<trkpt lat="25.852639" lon="99.064004">
<time>2014-08-05T00:06:04Z</time></trkpt>
<trkpt lat="25.852729" lon="99.063924">
<time>2014-08-05T00:06:05Z</time></trkpt>
<trkpt lat="25.852939" lon="99.063704">
<time>2014-08-05T00:06:06Z</time></trkpt>
<trkpt lat="25.85314" lon="99.063475">
<time>2014-08-05T00:06:07Z</time></trkpt>
<trkpt lat="25.85332" lon="99.063305">
<time>2014-08-05T00:06:08Z</time></trkpt>
<trkpt lat="25.85355" lon="99.063176">
<time>2014-08-05T00:06:09Z</time></trkpt>
<trkpt lat="25.854011" lon="99.062936">
<time>2014-08-05T00:06:10Z</time></trkpt>
<trkpt lat="25.854262" lon="99.062737">
<time>2014-08-05T00:06:11Z</time></trkpt>
<trkpt lat="25.854502" lon="99.062477">
<time>2014-08-05T00:06:12Z</time></trkpt>
<trkpt lat="25.854622" lon="99.062408">
<time>2014-08-05T00:06:13Z</time></trkpt>
<trkpt lat="25.854923" lon="99.062248">
<time>2014-08-05T00:06:14Z</time></trkpt>
<trkpt lat="25.855163" lon="99.062078">
<time>2014-08-05T00:06:15Z</time></trkpt>
<trkpt lat="25.855384" lon="99.061859">
<time>2014-08-05T00:06:16Z</time></trkpt>
<trkpt lat="25.855794" lon="99.06156">
<time>2014-08-05T00:06:17Z</time></trkpt>
<trkpt lat="25.856345" lon="99.061201">
<time>2014-08-05T00:06:18Z</time></trkpt>
<trkpt lat="25.856746" lon="99.061021">
<time>2014-08-05T00:06:19Z</time></trkpt>
<trkpt lat="25.857507" lon="99.060852">
<time>2014-08-05T00:06:20Z</time></trkpt>
<trkpt lat="25.857687" lon="99.060822">
<time>2014-08-05T00:06:21Z</time></trkpt>
<trkpt lat="25.857777" lon="99.060782">
<time>2014-08-05T00:06:22Z</time></trkpt>
<trkpt lat="25.858047" lon="99.060582">
<time>2014-08-05T00:06:23Z</time></trkpt>
<trkpt lat="25.858208" lon="99.060433">
<time>2014-08-05T00:06:24Z</time></trkpt>
<trkpt lat="25.858288" lon="99.060373">
<time>2014-08-05T00:06:25Z</time></trkpt>
<trkpt lat="25.858368" lon="99.060333">
<time>2014-08-05T00:06:26Z</time></trkpt>
<trkpt lat="25.858488" lon="99.060303">
<time>2014-08-05T00:06:27Z</time></trkpt>
<trkpt lat="25.858648" lon="99.060253">
<time>2014-08-05T00:06:28Z</time></trkpt>
<trkpt lat="25.858769" lon="99.060213">
<time>2014-08-05T00:06:29Z</time></trkpt>
<trkpt lat="25.858879" lon="99.060183">
<time>2014-08-05T00:06:30Z</time></trkpt>
<trkpt lat="25.858959" lon="99.060133">
<time>2014-08-05T00:06:31Z</time></trkpt>
<trkpt lat="25.859279" lon="99.059854">
<time>2014-08-05T00:06:32Z</time></trkpt>
<trkpt lat="25.859931" lon="99.059306">
<time>2014-08-05T00:06:33Z</time></trkpt>
<trkpt lat="25.860161" lon="99.059066">
<time>2014-08-05T00:06:34Z</time></trkpt>
<trkpt lat="25.860231" lon="99.059016">
<time>2014-08-05T00:06:35Z</time></trkpt>
<trkpt lat="25.860292" lon="99.058977">
<time>2014-08-05T00:06:36Z</time></trkpt>
<trkpt lat="25.860352" lon="99.058957">
<time>2014-08-05T00:06:37Z</time></trkpt>
<trkpt lat="25.860422" lon="99.058937">
<time>2014-08-05T00:06:38Z</time></trkpt>
<trkpt lat="25.860502" lon="99.058927">
<time>2014-08-05T00:06:39Z</time></trkpt>
<trkpt lat="25.860662" lon="99.058927">
<time>2014-08-05T00:06:40Z</time></trkpt>
<trkpt lat="25.860772" lon="99.058917">
<time>2014-08-05T00:06:41Z</time></trkpt>
<trkpt lat="25.860912" lon="99.058907">
<time>2014-08-05T00:06:42Z</time></trkpt>
<trkpt lat="25.861052" lon="99.058887">
<time>2014-08-05T00:06:43Z</time></trkpt>
<trkpt lat="25.861162" lon="99.058847">
<time>2014-08-05T00:06:44Z</time></trkpt>
<trkpt lat="25.861273" lon="99.058787">
<time>2014-08-05T00:06:45Z</time></trkpt>
<trkpt lat="25.862004" lon="99.058288">
<time>2014-08-05T00:06:46Z</time></trkpt>
<trkpt lat="25.862244" lon="99.058149">
<time>2014-08-05T00:06:47Z</time></trkpt>
<trkpt lat="25.862314" lon="99.058099">
<time>2014-08-05T00:06:48Z</time></trkpt>
<trkpt lat="25.862375" lon="99.058049">
<time>2014-08-05T00:06:49Z</time></trkpt>
<trkpt lat="25.862425" lon="99.057989">
<time>2014-08-05T00:06:50Z</time></trkpt>
<trkpt lat="25.862575" lon="99.05777">
<time>2014-08-05T00:06:51Z</time></trkpt>
<trkpt lat="25.862766" lon="99.05759">
<time>2014-08-05T00:06:52Z</time></trkpt>
<trkpt lat="25.862996" lon="99.057431">
<time>2014-08-05T00:06:53Z</time></trkpt>
<trkpt lat="25.863036" lon="99.057381">
<time>2014-08-05T00:06:54Z</time></trkpt>
<trkpt lat="25.863056" lon="99.057351">
<time>2014-08-05T00:06:55Z</time></trkpt>
<trkpt lat="25.863066" lon="99.057301">
<time>2014-08-05T00:06:56Z</time></trkpt>
<trkpt lat="25.863076" lon="99.057251">
<time>2014-08-05T00:06:57Z</time></trkpt>
<trkpt lat="25.863076" lon="99.057221">
<time>2014-08-05T00:06:58Z</time></trkpt>
<trkpt lat="25.863077" lon="99.057191">
<time>2014-08-05T00:06:59Z</time></trkpt>
<trkpt lat="25.863067" lon="99.057161">
<time>2014-08-05T00:07:00Z</time></trkpt>
<trkpt lat="25.863057" lon="99.057122">
<time>2014-08-05T00:07:01Z</time></trkpt>
<trkpt lat="25.863037" lon="99.057092">
<time>2014-08-05T00:07:02Z</time></trkpt>
<trkpt lat="25.863017" lon="99.057072">
<time>2014-08-05T00:07:03Z</time></trkpt>
<trkpt lat="25.862827" lon="99.056862">
<time>2014-08-05T00:07:04Z</time></trkpt>
<trkpt lat="25.862797" lon="99.056822">
<time>2014-08-05T00:07:05Z</time></trkpt>
<trkpt lat="25.862747" lon="99.056763">
<time>2014-08-05T00:07:06Z</time></trkpt>
<trkpt lat="25.862717" lon="99.056683">
<time>2014-08-05T00:07:07Z</time></trkpt>
<trkpt lat="25.862687" lon="99.056613">
<time>2014-08-05T00:07:08Z</time></trkpt>
<trkpt lat="25.862667" lon="99.056533">
<time>2014-08-05T00:07:09Z</time></trkpt>
<trkpt lat="25.862618" lon="99.056284">
<time>2014-08-05T00:07:10Z</time></trkpt>
<trkpt lat="25.862588" lon="99.056164">
<time>2014-08-05T00:07:11Z</time></trkpt>
<trkpt lat="25.862568" lon="99.056094">
<time>2014-08-05T00:07:12Z</time></trkpt>
<trkpt lat="25.862518" lon="99.056025">
<time>2014-08-05T00:07:13Z</time></trkpt>
<trkpt lat="25.862468" lon="99.055965">
<time>2014-08-05T00:07:14Z</time></trkpt>
<trkpt lat="25.862418" lon="99.055935">
<time>2014-08-05T00:07:15Z</time></trkpt>
<trkpt lat="25.862368" lon="99.055915">
<time>2014-08-05T00:07:16Z</time></trkpt>
<trkpt lat="25.862298" lon="99.055895">
<time>2014-08-05T00:07:17Z</time></trkpt>
<trkpt lat="25.862248" lon="99.055895">
<time>2014-08-05T00:07:18Z</time></trkpt>
<trkpt lat="25.862178" lon="99.055895">
<time>2014-08-05T00:07:19Z</time></trkpt>
<trkpt lat="25.862118" lon="99.055895">
<time>2014-08-05T00:07:20Z</time></trkpt>
<trkpt lat="25.861908" lon="99.055925">
<time>2014-08-05T00:07:21Z</time></trkpt>
<trkpt lat="25.861858" lon="99.055925">
<time>2014-08-05T00:07:22Z</time></trkpt>
<trkpt lat="25.861818" lon="99.055935">
<time>2014-08-05T00:07:23Z</time></trkpt>
<trkpt lat="25.861768" lon="99.055925">
<time>2014-08-05T00:07:24Z</time></trkpt>
<trkpt lat="25.861718" lon="99.055915">
<time>2014-08-05T00:07:25Z</time></trkpt>
<trkpt lat="25.861678" lon="99.055895">
<time>2014-08-05T00:07:26Z</time></trkpt>
<trkpt lat="25.861638" lon="99.055875">
<time>2014-08-05T00:07:27Z</time></trkpt>
<trkpt lat="25.861478" lon="99.055785">
<time>2014-08-05T00:07:28Z</time></trkpt>
<trkpt lat="25.861188" lon="99.055566">
<time>2014-08-05T00:07:29Z</time></trkpt>
<trkpt lat="25.861128" lon="99.055506">
<time>2014-08-05T00:07:30Z</time></trkpt>
<trkpt lat="25.861088" lon="99.055466">
<time>2014-08-05T00:07:31Z</time></trkpt>
<trkpt lat="25.861068" lon="99.055426">
<time>2014-08-05T00:07:32Z</time></trkpt>
<trkpt lat="25.861048" lon="99.055396">
<time>2014-08-05T00:07:33Z</time></trkpt>
<trkpt lat="25.861038" lon="99.055357">
<time>2014-08-05T00:07:34Z</time></trkpt>
<trkpt lat="25.861029" lon="99.055307">
<time>2014-08-05T00:07:35Z</time></trkpt>
<trkpt lat="25.861019" lon="99.055267">
<time>2014-08-05T00:07:36Z</time></trkpt>
<trkpt lat="25.861029" lon="99.055207">
<time>2014-08-05T00:07:37Z</time></trkpt>
<trkpt lat="25.861049" lon="99.054998">
<time>2014-08-05T00:07:38Z</time></trkpt>
<trkpt lat="25.86107" lon="99.054718">
<time>2014-08-05T00:07:39Z</time></trkpt>
<trkpt lat="25.86107" lon="99.054589">
<time>2014-08-05T00:07:40Z</time></trkpt>
<trkpt lat="25.86107" lon="99.054519">
<time>2014-08-05T00:07:41Z</time></trkpt>
<trkpt lat="25.86107" lon="99.054449">
<time>2014-08-05T00:07:42Z</time></trkpt>
<trkpt lat="25.86106" lon="99.054389">
<time>2014-08-05T00:07:43Z</time></trkpt>
<trkpt lat="25.86104" lon="99.05431">
<time>2014-08-05T00:07:44Z</time></trkpt>
<trkpt lat="25.86102" lon="99.05425">
<time>2014-08-05T00:07:45Z</time></trkpt>
<trkpt lat="25.860981" lon="99.05416">
<time>2014-08-05T00:07:46Z</time></trkpt>
<trkpt lat="25.860831" lon="99.053861">
<time>2014-08-05T00:07:47Z</time></trkpt>
<trkpt lat="25.860801" lon="99.053781">
<time>2014-08-05T00:07:48Z</time></trkpt>
<trkpt lat="25.860781" lon="99.053701">
<time>2014-08-05T00:07:49Z</time></trkpt>
<trkpt lat="25.860712" lon="99.053422">
<time>2014-08-05T00:07:50Z</time></trkpt>
<trkpt lat="25.860563" lon="99.052704">
<time>2014-08-05T00:07:51Z</time></trkpt>
<trkpt lat="25.860553" lon="99.052645">
<time>2014-08-05T00:07:52Z</time></trkpt>
<trkpt lat="25.860553" lon="99.052595">
<time>2014-08-05T00:07:53Z</time></trkpt>
<trkpt lat="25.860553" lon="99.052555">
<time>2014-08-05T00:07:54Z</time></trkpt>
<trkpt lat="25.860554" lon="99.052505">
<time>2014-08-05T00:07:55Z</time></trkpt>
<trkpt lat="25.860564" lon="99.052475">
<time>2014-08-05T00:07:56Z</time></trkpt>
<trkpt lat="25.860574" lon="99.052415">
<time>2014-08-05T00:07:57Z</time></trkpt>
<trkpt lat="25.860624" lon="99.052236">
<time>2014-08-05T00:07:58Z</time></trkpt>
<trkpt lat="25.860674" lon="99.052056">
<time>2014-08-05T00:07:59Z</time></trkpt>
<trkpt lat="25.860685" lon="99.051987">
<time>2014-08-05T00:08:00Z</time></trkpt>
<trkpt lat="25.860675" lon="99.051907">
<time>2014-08-05T00:08:01Z</time></trkpt>
<trkpt lat="25.860645" lon="99.051817">
<time>2014-08-05T00:08:02Z</time></trkpt>
<trkpt lat="25.860615" lon="99.051757">
<time>2014-08-05T00:08:03Z</time></trkpt>
<trkpt lat="25.860386" lon="99.051378">
<time>2014-08-05T00:08:04Z</time></trkpt>
<trkpt lat="25.860326" lon="99.051249">
<time>2014-08-05T00:08:05Z</time></trkpt>
<trkpt lat="25.860296" lon="99.051159">
<time>2014-08-05T00:08:06Z</time></trkpt>
<trkpt lat="25.860286" lon="99.051059">
<time>2014-08-05T00:08:07Z</time></trkpt>
<trkpt lat="25.860277" lon="99.05087">
<time>2014-08-05T00:08:08Z</time></trkpt>
<trkpt lat="25.860279" lon="99.049733">
<time>2014-08-05T00:08:09Z</time></trkpt>
<trkpt lat="25.860259" lon="99.049554">
<time>2014-08-05T00:08:10Z</time></trkpt>
<trkpt lat="25.8602" lon="99.049365">
<time>2014-08-05T00:08:11Z</time></trkpt>
<trkpt lat="25.86015" lon="99.049255">
<time>2014-08-05T00:08:12Z</time></trkpt>
<trkpt lat="25.86009" lon="99.049135">
<time>2014-08-05T00:08:13Z</time></trkpt>
<trkpt lat="25.85998" lon="99.048996">
<time>2014-08-05T00:08:14Z</time></trkpt>
<trkpt lat="25.85994" lon="99.048916">
<time>2014-08-05T00:08:15Z</time></trkpt>
<trkpt lat="25.8599" lon="99.048816">
<time>2014-08-05T00:08:16Z</time></trkpt>
<trkpt lat="25.859871" lon="99.048727">
<time>2014-08-05T00:08:17Z</time></trkpt>
<trkpt lat="25.859861" lon="99.048637">
<time>2014-08-05T00:08:18Z</time></trkpt>
<trkpt lat="25.859861" lon="99.048527">
<time>2014-08-05T00:08:19Z</time></trkpt>
<trkpt lat="25.859894" lon="99.047301">
<time>2014-08-05T00:08:20Z</time></trkpt>
<trkpt lat="25.859904" lon="99.047072">
<time>2014-08-05T00:08:21Z</time></trkpt>
<trkpt lat="25.859904" lon="99.046942">
<time>2014-08-05T00:08:22Z</time></trkpt>
<trkpt lat="25.859845" lon="99.046723">
<time>2014-08-05T00:08:23Z</time></trkpt>
<trkpt lat="25.859715" lon="99.046434">
<time>2014-08-05T00:08:24Z</time></trkpt>
<trkpt lat="25.859506" lon="99.046085">
<time>2014-08-05T00:08:25Z</time></trkpt>
<trkpt lat="25.859457" lon="99.045856">
<time>2014-08-05T00:08:26Z</time></trkpt>
<trkpt lat="25.859437" lon="99.045627">
<time>2014-08-05T00:08:27Z</time></trkpt>
<trkpt lat="25.859458" lon="99.045218">
<time>2014-08-05T00:08:28Z</time></trkpt>
<trkpt lat="25.859448" lon="99.045009">
<time>2014-08-05T00:08:29Z</time></trkpt>
<trkpt lat="25.859379" lon="99.044869">
<time>2014-08-05T00:08:30Z</time></trkpt>
<trkpt lat="25.859179" lon="99.04464">
<time>2014-08-05T00:08:31Z</time></trkpt>
<trkpt lat="25.859139" lon="99.04457">
<time>2014-08-05T00:08:32Z</time></trkpt>
<trkpt lat="25.859119" lon="99.04448">
<time>2014-08-05T00:08:33Z</time></trkpt>
<trkpt lat="25.85911" lon="99.044351">
<time>2014-08-05T00:08:34Z</time></trkpt>
<trkpt lat="25.85912" lon="99.044241">
<time>2014-08-05T00:08:35Z</time></trkpt>
<trkpt lat="25.85914" lon="99.044131">
<time>2014-08-05T00:08:36Z</time></trkpt>
<trkpt lat="25.85916" lon="99.044022">
<time>2014-08-05T00:08:37Z</time></trkpt>
<trkpt lat="25.859201" lon="99.043902">
<time>2014-08-05T00:08:38Z</time></trkpt>
<trkpt lat="25.859351" lon="99.043723">
<time>2014-08-05T00:08:39Z</time></trkpt>
<trkpt lat="25.859502" lon="99.043464">
<time>2014-08-05T00:08:40Z</time></trkpt>
<trkpt lat="25.859532" lon="99.043234">
<time>2014-08-05T00:08:41Z</time></trkpt>
<trkpt lat="25.859533" lon="99.042985">
<time>2014-08-05T00:08:42Z</time></trkpt>
<trkpt lat="25.859474" lon="99.042617">
<time>2014-08-05T00:08:43Z</time></trkpt>
<trkpt lat="25.859424" lon="99.042467">
<time>2014-08-05T00:08:44Z</time></trkpt>
<trkpt lat="25.859404" lon="99.042328">
<time>2014-08-05T00:08:45Z</time></trkpt>
<trkpt lat="25.859405" lon="99.042168">
<time>2014-08-05T00:08:46Z</time></trkpt>
<trkpt lat="25.859435" lon="99.041899">
<time>2014-08-05T00:08:47Z</time></trkpt>
<trkpt lat="25.859679" lon="99.040454">
<time>2014-08-05T00:08:48Z</time></trkpt>
<trkpt lat="25.859872" lon="99.039238">
<time>2014-08-05T00:08:49Z</time></trkpt>
<trkpt lat="25.859943" lon="99.038909">
<time>2014-08-05T00:08:50Z</time></trkpt>
<trkpt lat="25.860124" lon="99.038421">
<time>2014-08-05T00:08:51Z</time></trkpt>
<trkpt lat="25.860416" lon="99.037733">
<time>2014-08-05T00:08:52Z</time></trkpt>
<trkpt lat="25.860607" lon="99.037405">
<time>2014-08-05T00:08:53Z</time></trkpt>
<trkpt lat="25.860808" lon="99.037106">
<time>2014-08-05T00:08:54Z</time></trkpt>
<trkpt lat="25.860928" lon="99.036906">
<time>2014-08-05T00:08:55Z</time></trkpt>
<trkpt lat="25.861392" lon="99.035681">
<time>2014-08-05T00:08:56Z</time></trkpt>
<trkpt lat="25.861654" lon="99.035013">
<time>2014-08-05T00:08:57Z</time></trkpt>
<trkpt lat="25.861714" lon="99.034814">
<time>2014-08-05T00:08:58Z</time></trkpt>
<trkpt lat="25.861755" lon="99.034595">
<time>2014-08-05T00:08:59Z</time></trkpt>
<trkpt lat="25.861755" lon="99.034395">
<time>2014-08-05T00:09:00Z</time></trkpt>
<trkpt lat="25.861716" lon="99.034117">
<time>2014-08-05T00:09:01Z</time></trkpt>
<trkpt lat="25.861667" lon="99.033638">
<time>2014-08-05T00:09:02Z</time></trkpt>
<trkpt lat="25.861698" lon="99.033399">
<time>2014-08-05T00:09:03Z</time></trkpt>
<trkpt lat="25.861769" lon="99.033001">
<time>2014-08-05T00:09:04Z</time></trkpt>
<trkpt lat="25.861809" lon="99.032801">
<time>2014-08-05T00:09:05Z</time></trkpt>
<trkpt lat="25.86186" lon="99.032632">
<time>2014-08-05T00:09:06Z</time></trkpt>
<trkpt lat="25.86191" lon="99.032512">
<time>2014-08-05T00:09:07Z</time></trkpt>
<trkpt lat="25.86199" lon="99.032433">
<time>2014-08-05T00:09:08Z</time></trkpt>
<trkpt lat="25.862141" lon="99.032383">
<time>2014-08-05T00:09:09Z</time></trkpt>
<trkpt lat="25.863042" lon="99.032273">
<time>2014-08-05T00:09:10Z</time></trkpt>
<trkpt lat="25.863162" lon="99.032233">
<time>2014-08-05T00:09:11Z</time></trkpt>
<trkpt lat="25.863292" lon="99.032154">
<time>2014-08-05T00:09:12Z</time></trkpt>
<trkpt lat="25.863392" lon="99.032024">
<time>2014-08-05T00:09:13Z</time></trkpt>
<trkpt lat="25.863463" lon="99.031895">
<time>2014-08-05T00:09:14Z</time></trkpt>
<trkpt lat="25.863503" lon="99.031745">
<time>2014-08-05T00:09:15Z</time></trkpt>
<trkpt lat="25.863524" lon="99.031556">
<time>2014-08-05T00:09:16Z</time></trkpt>
<trkpt lat="25.863504" lon="99.031257">
<time>2014-08-05T00:09:17Z</time></trkpt>
<trkpt lat="25.863475" lon="99.030998">
<time>2014-08-05T00:09:18Z</time></trkpt>
<trkpt lat="25.863466" lon="99.030779">
<time>2014-08-05T00:09:19Z</time></trkpt>
<trkpt lat="25.863507" lon="99.03045">
<time>2014-08-05T00:09:20Z</time></trkpt>
<trkpt lat="25.86373" lon="99.029394">
<time>2014-08-05T00:09:21Z</time></trkpt>
<trkpt lat="25.863831" lon="99.028976">
<time>2014-08-05T00:09:22Z</time></trkpt>
<trkpt lat="25.863912" lon="99.028707">
<time>2014-08-05T00:09:23Z</time></trkpt>
<trkpt lat="25.864082" lon="99.028448">
<time>2014-08-05T00:09:24Z</time></trkpt>
<trkpt lat="25.864364" lon="99.028049">
<time>2014-08-05T00:09:25Z</time></trkpt>
<trkpt lat="25.864554" lon="99.0278">
<time>2014-08-05T00:09:26Z</time></trkpt>
<trkpt lat="25.864675" lon="99.027551">
<time>2014-08-05T00:09:27Z</time></trkpt>
<trkpt lat="25.864817" lon="99.026973">
<time>2014-08-05T00:09:28Z</time></trkpt>
<trkpt lat="25.864888" lon="99.026665">
<time>2014-08-05T00:09:29Z</time></trkpt>
<trkpt lat="25.864928" lon="99.026565">
<time>2014-08-05T00:09:30Z</time></trkpt>
<trkpt lat="25.865169" lon="99.026186">
<time>2014-08-05T00:09:31Z</time></trkpt>
<trkpt lat="25.86539" lon="99.025907">
<time>2014-08-05T00:09:32Z</time></trkpt>
<trkpt lat="25.865531" lon="99.025758">
<time>2014-08-05T00:09:33Z</time></trkpt>
<trkpt lat="25.865691" lon="99.025639">
<time>2014-08-05T00:09:34Z</time></trkpt>
<trkpt lat="25.866122" lon="99.025459">
<time>2014-08-05T00:09:35Z</time></trkpt>
<trkpt lat="25.866462" lon="99.02533">
<time>2014-08-05T00:09:36Z</time></trkpt>
<trkpt lat="25.866633" lon="99.02518">
<time>2014-08-05T00:09:37Z</time></trkpt>
<trkpt lat="25.866834" lon="99.024971">
<time>2014-08-05T00:09:38Z</time></trkpt>
<trkpt lat="25.867045" lon="99.024722">
<time>2014-08-05T00:09:39Z</time></trkpt>
<trkpt lat="25.867987" lon="99.023975">
<time>2014-08-05T00:09:40Z</time></trkpt>
<trkpt lat="25.868879" lon="99.023407">
<time>2014-08-05T00:09:41Z</time></trkpt>
<trkpt lat="25.86899" lon="99.023377">
<time>2014-08-05T00:09:42Z</time></trkpt>
<trkpt lat="25.86911" lon="99.023387">
<time>2014-08-05T00:09:43Z</time></trkpt>
<trkpt lat="25.869269" lon="99.023477">
<time>2014-08-05T00:09:44Z</time></trkpt>
<trkpt lat="25.869899" lon="99.023836">
<time>2014-08-05T00:09:45Z</time></trkpt>
<trkpt lat="25.870589" lon="99.024085">
<time>2014-08-05T00:09:46Z</time></trkpt>
<trkpt lat="25.870729" lon="99.024114">
<time>2014-08-05T00:09:47Z</time></trkpt>
<trkpt lat="25.870859" lon="99.024124">
<time>2014-08-05T00:09:48Z</time></trkpt>
<trkpt lat="25.870999" lon="99.024104">
<time>2014-08-05T00:09:49Z</time></trkpt>
<trkpt lat="25.871159" lon="99.024045">
<time>2014-08-05T00:09:50Z</time></trkpt>
<trkpt lat="25.87131" lon="99.023925">
<time>2014-08-05T00:09:51Z</time></trkpt>
<trkpt lat="25.87142" lon="99.023756">
<time>2014-08-05T00:09:52Z</time></trkpt>
<trkpt lat="25.871642" lon="99.023238">
<time>2014-08-05T00:09:53Z</time></trkpt>
<trkpt lat="25.871702" lon="99.023158">
<time>2014-08-05T00:09:54Z</time></trkpt>
<trkpt lat="25.871833" lon="99.023019">
<time>2014-08-05T00:09:55Z</time></trkpt>
<trkpt lat="25.871983" lon="99.022939">
<time>2014-08-05T00:09:56Z</time></trkpt>
<trkpt lat="25.872183" lon="99.022879">
<time>2014-08-05T00:09:57Z</time></trkpt>
<trkpt lat="25.873254" lon="99.02278">
<time>2014-08-05T00:09:58Z</time></trkpt>
<trkpt lat="25.873334" lon="99.02277">
<time>2014-08-05T00:09:59Z</time></trkpt>
<trkpt lat="25.873384" lon="99.02275">
<time>2014-08-05T00:10:00Z</time></trkpt>
<trkpt lat="25.873444" lon="99.02271">
<time>2014-08-05T00:10:01Z</time></trkpt>
<trkpt lat="25.873485" lon="99.02266">
<time>2014-08-05T00:10:02Z</time></trkpt>
<trkpt lat="25.873525" lon="99.0226">
<time>2014-08-05T00:10:03Z</time></trkpt>
<trkpt lat="25.873575" lon="99.022501">
<time>2014-08-05T00:10:04Z</time></trkpt>
<trkpt lat="25.873625" lon="99.022401">
<time>2014-08-05T00:10:05Z</time></trkpt>
<trkpt lat="25.873746" lon="99.022202">
<time>2014-08-05T00:10:06Z</time></trkpt>
<trkpt lat="25.873806" lon="99.022132">
<time>2014-08-05T00:10:07Z</time></trkpt>
<trkpt lat="25.873877" lon="99.022062">
<time>2014-08-05T00:10:08Z</time></trkpt>
<trkpt lat="25.874067" lon="99.021893">
<time>2014-08-05T00:10:09Z</time></trkpt>
<trkpt lat="25.874148" lon="99.021774">
<time>2014-08-05T00:10:10Z</time></trkpt>
<trkpt lat="25.874218" lon="99.021654">
<time>2014-08-05T00:10:11Z</time></trkpt>
<trkpt lat="25.874278" lon="99.021554">
<time>2014-08-05T00:10:12Z</time></trkpt>
<trkpt lat="25.874329" lon="99.021455">
<time>2014-08-05T00:10:13Z</time></trkpt>
<trkpt lat="25.874399" lon="99.021355">
<time>2014-08-05T00:10:14Z</time></trkpt>
<trkpt lat="25.87459" lon="99.021096">
<time>2014-08-05T00:10:15Z</time></trkpt>
<trkpt lat="25.875233" lon="99.02027">
<time>2014-08-05T00:10:16Z</time></trkpt>
<trkpt lat="25.875353" lon="99.02007">
<time>2014-08-05T00:10:17Z</time></trkpt>
<trkpt lat="25.875444" lon="99.019881">
<time>2014-08-05T00:10:18Z</time></trkpt>
<trkpt lat="25.876009" lon="99.018108">
<time>2014-08-05T00:10:19Z</time></trkpt>
<trkpt lat="25.87612" lon="99.017819">
<time>2014-08-05T00:10:20Z</time></trkpt>
<trkpt lat="25.876211" lon="99.01769">
<time>2014-08-05T00:10:21Z</time></trkpt>
<trkpt lat="25.876341" lon="99.01756">
<time>2014-08-05T00:10:22Z</time></trkpt>
<trkpt lat="25.877233" lon="99.016983">
<time>2014-08-05T00:10:23Z</time></trkpt>
<trkpt lat="25.877364" lon="99.016883">
<time>2014-08-05T00:10:24Z</time></trkpt>
<trkpt lat="25.877464" lon="99.016814">
<time>2014-08-05T00:10:25Z</time></trkpt>
<trkpt lat="25.877554" lon="99.016704">
<time>2014-08-05T00:10:26Z</time></trkpt>
<trkpt lat="25.877645" lon="99.016584">
<time>2014-08-05T00:10:27Z</time></trkpt>
<trkpt lat="25.877705" lon="99.016455">
<time>2014-08-05T00:10:28Z</time></trkpt>
<trkpt lat="25.878017" lon="99.015867">
<time>2014-08-05T00:10:29Z</time></trkpt>
<trkpt lat="25.878088" lon="99.015768">
<time>2014-08-05T00:10:30Z</time></trkpt>
<trkpt lat="25.878178" lon="99.015678">
<time>2014-08-05T00:10:31Z</time></trkpt>
<trkpt lat="25.878288" lon="99.015588">
<time>2014-08-05T00:10:32Z</time></trkpt>
<trkpt lat="25.878389" lon="99.015519">
<time>2014-08-05T00:10:33Z</time></trkpt>
<trkpt lat="25.878489" lon="99.015469">
<time>2014-08-05T00:10:34Z</time></trkpt>
<trkpt lat="25.878639" lon="99.015419">
<time>2014-08-05T00:10:35Z</time></trkpt>
<trkpt lat="25.878869" lon="99.015379">
<time>2014-08-05T00:10:36Z</time></trkpt>
<trkpt lat="25.879099" lon="99.015359">
<time>2014-08-05T00:10:37Z</time></trkpt>
<trkpt lat="25.87926" lon="99.01533">
<time>2014-08-05T00:10:38Z</time></trkpt>
<trkpt lat="25.87941" lon="99.01528">
<time>2014-08-05T00:10:39Z</time></trkpt>
<trkpt lat="25.87954" lon="99.0152">
<time>2014-08-05T00:10:40Z</time></trkpt>
<trkpt lat="25.879671" lon="99.01511">
<time>2014-08-05T00:10:41Z</time></trkpt>
<trkpt lat="25.879791" lon="99.015001">
<time>2014-08-05T00:10:42Z</time></trkpt>
<trkpt lat="25.879911" lon="99.014881">
<time>2014-08-05T00:10:43Z</time></trkpt>
<trkpt lat="25.880002" lon="99.014752">
<time>2014-08-05T00:10:44Z</time></trkpt>
<trkpt lat="25.880062" lon="99.014622">
<time>2014-08-05T00:10:45Z</time></trkpt>
<trkpt lat="25.880123" lon="99.014463">
<time>2014-08-05T00:10:46Z</time></trkpt>
<trkpt lat="25.880275" lon="99.013895">
<time>2014-08-05T00:10:47Z</time></trkpt>
<trkpt lat="25.880527" lon="99.013228">
<time>2014-08-05T00:10:48Z</time></trkpt>
<trkpt lat="25.8809" lon="99.012362">
<time>2014-08-05T00:10:49Z</time></trkpt>
<trkpt lat="25.881" lon="99.012103">
<time>2014-08-05T00:10:50Z</time></trkpt>
<trkpt lat="25.881051" lon="99.011794">
<time>2014-08-05T00:10:51Z</time></trkpt>
<trkpt lat="25.881082" lon="99.011455">
<time>2014-08-05T00:10:52Z</time></trkpt>
<trkpt lat="25.881247" lon="99.010051">
<time>2014-08-05T00:10:53Z</time></trkpt>
<trkpt lat="25.881398" lon="99.009514">
<time>2014-08-05T00:10:54Z</time></trkpt>
<trkpt lat="25.881439" lon="99.009324">
<time>2014-08-05T00:10:55Z</time></trkpt>
<trkpt lat="25.881439" lon="99.009165">
<time>2014-08-05T00:10:56Z</time></trkpt>
<trkpt lat="25.881342" lon="99.008448">
<time>2014-08-05T00:10:57Z</time></trkpt>
<trkpt lat="25.881313" lon="99.00804">
<time>2014-08-05T00:10:58Z</time></trkpt>
<trkpt lat="25.881273" lon="99.007841">
<time>2014-08-05T00:10:59Z</time></trkpt>
<trkpt lat="25.881214" lon="99.007671">
<time>2014-08-05T00:11:00Z</time></trkpt>
<trkpt lat="25.881025" lon="99.007343">
<time>2014-08-05T00:11:01Z</time></trkpt>
<trkpt lat="25.880906" lon="99.007034">
<time>2014-08-05T00:11:02Z</time></trkpt>
<trkpt lat="25.880856" lon="99.006785">
<time>2014-08-05T00:11:03Z</time></trkpt>
<trkpt lat="25.880847" lon="99.006506">
<time>2014-08-05T00:11:04Z</time></trkpt>
<trkpt lat="25.880848" lon="99.006257">
<time>2014-08-05T00:11:05Z</time></trkpt>
<trkpt lat="25.880909" lon="99.005919">
<time>2014-08-05T00:11:06Z</time></trkpt>
<trkpt lat="25.88103" lon="99.00561">
<time>2014-08-05T00:11:07Z</time></trkpt>
<trkpt lat="25.881242" lon="99.005042">
<time>2014-08-05T00:11:08Z</time></trkpt>
<trkpt lat="25.881424" lon="99.004315">
<time>2014-08-05T00:11:09Z</time></trkpt>
<trkpt lat="25.881545" lon="99.004027">
<time>2014-08-05T00:11:10Z</time></trkpt>
<trkpt lat="25.881696" lon="99.003708">
<time>2014-08-05T00:11:11Z</time></trkpt>
<trkpt lat="25.881978" lon="99.0032">
<time>2014-08-05T00:11:12Z</time></trkpt>
<trkpt lat="25.882159" lon="99.002911">
<time>2014-08-05T00:11:13Z</time></trkpt>
<trkpt lat="25.882912" lon="99.001965">
<time>2014-08-05T00:11:14Z</time></trkpt>
<trkpt lat="25.883133" lon="99.001617">
<time>2014-08-05T00:11:15Z</time></trkpt>
<trkpt lat="25.883285" lon="99.001218">
<time>2014-08-05T00:11:16Z</time></trkpt>
<trkpt lat="25.883527" lon="99.000481">
<time>2014-08-05T00:11:17Z</time></trkpt>
<trkpt lat="25.883649" lon="99.000013">
<time>2014-08-05T00:11:18Z</time></trkpt>
<trkpt lat="25.883709" lon="98.999794">
<time>2014-08-05T00:11:19Z</time></trkpt>
<trkpt lat="25.88373" lon="98.999635">
<time>2014-08-05T00:11:20Z</time></trkpt>
<trkpt lat="25.88372" lon="98.999446">
<time>2014-08-05T00:11:21Z</time></trkpt>
<trkpt lat="25.883701" lon="98.999316">
<time>2014-08-05T00:11:22Z</time></trkpt>
<trkpt lat="25.883671" lon="98.999157">
<time>2014-08-05T00:11:23Z</time></trkpt>
<trkpt lat="25.883632" lon="98.999018">
<time>2014-08-05T00:11:24Z</time></trkpt>
<trkpt lat="25.883592" lon="98.998898">
<time>2014-08-05T00:11:25Z</time></trkpt>
<trkpt lat="25.883542" lon="98.998789">
<time>2014-08-05T00:11:26Z</time></trkpt>
<trkpt lat="25.883483" lon="98.998689">
<time>2014-08-05T00:11:27Z</time></trkpt>
<trkpt lat="25.883423" lon="98.998589">
<time>2014-08-05T00:11:28Z</time></trkpt>
<trkpt lat="25.882895" lon="98.997862">
<time>2014-08-05T00:11:29Z</time></trkpt>
<trkpt lat="25.882725" lon="98.997574">
<time>2014-08-05T00:11:30Z</time></trkpt>
<trkpt lat="25.882666" lon="98.997464">
<time>2014-08-05T00:11:31Z</time></trkpt>
<trkpt lat="25.882626" lon="98.997365">
<time>2014-08-05T00:11:32Z</time></trkpt>
<trkpt lat="25.882586" lon="98.997255">
<time>2014-08-05T00:11:33Z</time></trkpt>
<trkpt lat="25.882567" lon="98.997126">
<time>2014-08-05T00:11:34Z</time></trkpt>
<trkpt lat="25.882557" lon="98.996956">
<time>2014-08-05T00:11:35Z</time></trkpt>
<trkpt lat="25.882578" lon="98.996797">
<time>2014-08-05T00:11:36Z</time></trkpt>
<trkpt lat="25.882619" lon="98.996349">
<time>2014-08-05T00:11:37Z</time></trkpt>
<trkpt lat="25.882681" lon="98.995841">
<time>2014-08-05T00:11:38Z</time></trkpt>
<trkpt lat="25.882701" lon="98.995731">
<time>2014-08-05T00:11:39Z</time></trkpt>
<trkpt lat="25.882721" lon="98.995632">
<time>2014-08-05T00:11:40Z</time></trkpt>
<trkpt lat="25.882752" lon="98.995542">
<time>2014-08-05T00:11:41Z</time></trkpt>
<trkpt lat="25.882792" lon="98.995453">
<time>2014-08-05T00:11:42Z</time></trkpt>
<trkpt lat="25.882852" lon="98.995323">
<time>2014-08-05T00:11:43Z</time></trkpt>
<trkpt lat="25.883154" lon="98.994795">
<time>2014-08-05T00:11:44Z</time></trkpt>
<trkpt lat="25.883235" lon="98.994656">
<time>2014-08-05T00:11:45Z</time></trkpt>
<trkpt lat="25.883295" lon="98.994497">
<time>2014-08-05T00:11:46Z</time></trkpt>
<trkpt lat="25.883346" lon="98.994317">
<time>2014-08-05T00:11:47Z</time></trkpt>
<trkpt lat="25.883397" lon="98.994098">
<time>2014-08-05T00:11:48Z</time></trkpt>
<trkpt lat="25.883417" lon="98.993879">
<time>2014-08-05T00:11:49Z</time></trkpt>
<trkpt lat="25.883438" lon="98.99364">
<time>2014-08-05T00:11:50Z</time></trkpt>
<trkpt lat="25.883459" lon="98.993421">
<time>2014-08-05T00:11:51Z</time></trkpt>
<trkpt lat="25.883459" lon="98.993182">
<time>2014-08-05T00:11:52Z</time></trkpt>
<trkpt lat="25.88345" lon="98.993013">
<time>2014-08-05T00:11:53Z</time></trkpt>
<trkpt lat="25.88344" lon="98.992893">
<time>2014-08-05T00:11:54Z</time></trkpt>
<trkpt lat="25.8834" lon="98.992784">
<time>2014-08-05T00:11:55Z</time></trkpt>
<trkpt lat="25.883351" lon="98.992694">
<time>2014-08-05T00:11:56Z</time></trkpt>
<trkpt lat="25.883291" lon="98.992615">
<time>2014-08-05T00:11:57Z</time></trkpt>
<trkpt lat="25.883231" lon="98.992545">
<time>2014-08-05T00:11:58Z</time></trkpt>
<trkpt lat="25.883231" lon="98.992545">
<time>2014-08-05T00:11:59Z</time></trkpt>
<trkpt lat="25.882812" lon="98.992266">
<time>2014-08-05T00:12:00Z</time></trkpt>
<trkpt lat="25.882033" lon="98.991728">
<time>2014-08-05T00:12:01Z</time></trkpt>
<trkpt lat="25.881294" lon="98.99122">
<time>2014-08-05T00:12:02Z</time></trkpt>
<trkpt lat="25.880834" lon="98.990902">
<time>2014-08-05T00:12:03Z</time></trkpt>
<trkpt lat="25.880345" lon="98.990623">
<time>2014-08-05T00:12:04Z</time></trkpt>
<trkpt lat="25.879835" lon="98.990334">
<time>2014-08-05T00:12:05Z</time></trkpt>
<trkpt lat="25.879746" lon="98.990264">
<time>2014-08-05T00:12:06Z</time></trkpt>
<trkpt lat="25.879606" lon="98.990145">
<time>2014-08-05T00:12:07Z</time></trkpt>
<trkpt lat="25.879466" lon="98.989966">
<time>2014-08-05T00:12:08Z</time></trkpt>
<trkpt lat="25.879327" lon="98.989727">
<time>2014-08-05T00:12:09Z</time></trkpt>
<trkpt lat="25.879108" lon="98.989279">
<time>2014-08-05T00:12:10Z</time></trkpt>
<trkpt lat="25.879059" lon="98.989119">
<time>2014-08-05T00:12:11Z</time></trkpt>
<trkpt lat="25.879049" lon="98.98895">
<time>2014-08-05T00:12:12Z</time></trkpt>
<trkpt lat="25.87905" lon="98.988781">
<time>2014-08-05T00:12:13Z</time></trkpt>
<trkpt lat="25.87907" lon="98.988572">
<time>2014-08-05T00:12:14Z</time></trkpt>
<trkpt lat="25.879101" lon="98.988193">
<time>2014-08-05T00:12:15Z</time></trkpt>
<trkpt lat="25.879102" lon="98.988004">
<time>2014-08-05T00:12:16Z</time></trkpt>
<trkpt lat="25.879082" lon="98.987845">
<time>2014-08-05T00:12:17Z</time></trkpt>
<trkpt lat="25.879073" lon="98.987725">
<time>2014-08-05T00:12:18Z</time></trkpt>
<trkpt lat="25.878974" lon="98.987446">
<time>2014-08-05T00:12:19Z</time></trkpt>
<trkpt lat="25.878894" lon="98.987237">
<time>2014-08-05T00:12:20Z</time></trkpt>
<trkpt lat="25.878815" lon="98.987068">
<time>2014-08-05T00:12:21Z</time></trkpt>
<trkpt lat="25.878695" lon="98.986839">
<time>2014-08-05T00:12:22Z</time></trkpt>
<trkpt lat="25.878327" lon="98.986221">
<time>2014-08-05T00:12:23Z</time></trkpt>
<trkpt lat="25.878267" lon="98.986102">
<time>2014-08-05T00:12:24Z</time></trkpt>
<trkpt lat="25.878217" lon="98.985972">
<time>2014-08-05T00:12:25Z</time></trkpt>
<trkpt lat="25.878148" lon="98.985743">
<time>2014-08-05T00:12:26Z</time></trkpt>
<trkpt lat="25.878089" lon="98.985504">
<time>2014-08-05T00:12:27Z</time></trkpt>
<trkpt lat="25.878019" lon="98.985335">
<time>2014-08-05T00:12:28Z</time></trkpt>
<trkpt lat="25.87795" lon="98.985186">
<time>2014-08-05T00:12:29Z</time></trkpt>
<trkpt lat="25.87785" lon="98.985016">
<time>2014-08-05T00:12:30Z</time></trkpt>
<trkpt lat="25.877631" lon="98.984727">
<time>2014-08-05T00:12:31Z</time></trkpt>
<trkpt lat="25.876973" lon="98.983871">
<time>2014-08-05T00:12:32Z</time></trkpt>
<trkpt lat="25.876853" lon="98.983751">
<time>2014-08-05T00:12:33Z</time></trkpt>
<trkpt lat="25.876753" lon="98.983652">
<time>2014-08-05T00:12:34Z</time></trkpt>
<trkpt lat="25.876653" lon="98.983572">
<time>2014-08-05T00:12:35Z</time></trkpt>
<trkpt lat="25.876524" lon="98.983502">
<time>2014-08-05T00:12:36Z</time></trkpt>
<trkpt lat="25.876394" lon="98.983453">
<time>2014-08-05T00:12:37Z</time></trkpt>
<trkpt lat="25.876264" lon="98.983413">
<time>2014-08-05T00:12:38Z</time></trkpt>
<trkpt lat="25.875964" lon="98.983353">
<time>2014-08-05T00:12:39Z</time></trkpt>
<trkpt lat="25.875864" lon="98.983323">
<time>2014-08-05T00:12:40Z</time></trkpt>
<trkpt lat="25.875774" lon="98.983293">
<time>2014-08-05T00:12:41Z</time></trkpt>
<trkpt lat="25.875644" lon="98.983234">
<time>2014-08-05T00:12:42Z</time></trkpt>
<trkpt lat="25.875244" lon="98.982995">
<time>2014-08-05T00:12:43Z</time></trkpt>
<trkpt lat="25.874226" lon="98.982307">
<time>2014-08-05T00:12:44Z</time></trkpt>
<trkpt lat="25.874066" lon="98.982218">
<time>2014-08-05T00:12:45Z</time></trkpt>
<trkpt lat="25.873926" lon="98.982128">
<time>2014-08-05T00:12:46Z</time></trkpt>
<trkpt lat="25.873836" lon="98.982078">
<time>2014-08-05T00:12:47Z</time></trkpt>
<trkpt lat="25.873736" lon="98.982048">
<time>2014-08-05T00:12:48Z</time></trkpt>
<trkpt lat="25.873586" lon="98.981999">
<time>2014-08-05T00:12:49Z</time></trkpt>
<trkpt lat="25.873246" lon="98.981899">
<time>2014-08-05T00:12:50Z</time></trkpt>
<trkpt lat="25.873056" lon="98.981829">
<time>2014-08-05T00:12:51Z</time></trkpt>
<trkpt lat="25.872986" lon="98.9818">
<time>2014-08-05T00:12:52Z</time></trkpt>
<trkpt lat="25.872916" lon="98.98177">
<time>2014-08-05T00:12:53Z</time></trkpt>
<trkpt lat="25.872846" lon="98.98173">
<time>2014-08-05T00:12:54Z</time></trkpt>
<trkpt lat="25.872796" lon="98.98168">
<time>2014-08-05T00:12:55Z</time></trkpt>
<trkpt lat="25.872737" lon="98.9816">
<time>2014-08-05T00:12:56Z</time></trkpt>
<trkpt lat="25.872677" lon="98.981511">
<time>2014-08-05T00:12:57Z</time></trkpt>
<trkpt lat="25.872607" lon="98.981381">
<time>2014-08-05T00:12:58Z</time></trkpt>
<trkpt lat="25.872498" lon="98.981132">
<time>2014-08-05T00:12:59Z</time></trkpt>
<trkpt lat="25.87209" lon="98.980365">
<time>2014-08-05T00:13:00Z</time></trkpt>
<trkpt lat="25.871881" lon="98.979837">
<time>2014-08-05T00:13:01Z</time></trkpt>
<trkpt lat="25.871831" lon="98.979728">
<time>2014-08-05T00:13:02Z</time></trkpt>
<trkpt lat="25.871792" lon="98.979638">
<time>2014-08-05T00:13:03Z</time></trkpt>
<trkpt lat="25.871762" lon="98.979569">
<time>2014-08-05T00:13:04Z</time></trkpt>
<trkpt lat="25.871722" lon="98.979499">
<time>2014-08-05T00:13:05Z</time></trkpt>
<trkpt lat="25.871682" lon="98.979439">
<time>2014-08-05T00:13:06Z</time></trkpt>
<trkpt lat="25.871652" lon="98.979409">
<time>2014-08-05T00:13:07Z</time></trkpt>
<trkpt lat="25.871622" lon="98.979369">
<time>2014-08-05T00:13:08Z</time></trkpt>
<trkpt lat="25.871572" lon="98.97933">
<time>2014-08-05T00:13:09Z</time></trkpt>
<trkpt lat="25.871532" lon="98.97929">
<time>2014-08-05T00:13:10Z</time></trkpt>
<trkpt lat="25.871433" lon="98.97923">
<time>2014-08-05T00:13:11Z</time></trkpt>
<trkpt lat="25.871053" lon="98.979031">
<time>2014-08-05T00:13:12Z</time></trkpt>
<trkpt lat="25.870953" lon="98.978981">
<time>2014-08-05T00:13:13Z</time></trkpt>
<trkpt lat="25.870843" lon="98.978941">
<time>2014-08-05T00:13:14Z</time></trkpt>
<trkpt lat="25.870723" lon="98.978911">
<time>2014-08-05T00:13:15Z</time></trkpt>
<trkpt lat="25.870613" lon="98.978881">
<time>2014-08-05T00:13:16Z</time></trkpt>
<trkpt lat="25.870503" lon="98.978861">
<time>2014-08-05T00:13:17Z</time></trkpt>
<trkpt lat="25.870073" lon="98.978762">
<time>2014-08-05T00:13:18Z</time></trkpt>
<trkpt lat="25.869973" lon="98.978742">
<time>2014-08-05T00:13:19Z</time></trkpt>
<trkpt lat="25.869883" lon="98.978712">
<time>2014-08-05T00:13:20Z</time></trkpt>
<trkpt lat="25.869803" lon="98.978682">
<time>2014-08-05T00:13:21Z</time></trkpt>
<trkpt lat="25.869733" lon="98.978652">
<time>2014-08-05T00:13:22Z</time></trkpt>
<trkpt lat="25.869663" lon="98.978612">
<time>2014-08-05T00:13:23Z</time></trkpt>
<trkpt lat="25.869593" lon="98.978563">
<time>2014-08-05T00:13:24Z</time></trkpt>
<trkpt lat="25.869533" lon="98.978513">
<time>2014-08-05T00:13:25Z</time></trkpt>
<trkpt lat="25.868675" lon="98.977706">
<time>2014-08-05T00:13:26Z</time></trkpt>
<trkpt lat="25.867936" lon="98.977109">
<time>2014-08-05T00:13:27Z</time></trkpt>
<trkpt lat="25.867757" lon="98.976969">
<time>2014-08-05T00:13:28Z</time></trkpt>
<trkpt lat="25.867647" lon="98.976869">
<time>2014-08-05T00:13:29Z</time></trkpt>
<trkpt lat="25.867537" lon="98.97675">
<time>2014-08-05T00:13:30Z</time></trkpt>
<trkpt lat="25.867447" lon="98.976601">
<time>2014-08-05T00:13:31Z</time></trkpt>
<trkpt lat="25.867338" lon="98.976391">
<time>2014-08-05T00:13:32Z</time></trkpt>
<trkpt lat="25.867149" lon="98.975953">
<time>2014-08-05T00:13:33Z</time></trkpt>
<trkpt lat="25.86696" lon="98.975455">
<time>2014-08-05T00:13:34Z</time></trkpt>
<trkpt lat="25.86694" lon="98.975405">
<time>2014-08-05T00:13:35Z</time></trkpt>
<trkpt lat="25.866911" lon="98.975355">
<time>2014-08-05T00:13:36Z</time></trkpt>
<trkpt lat="25.866881" lon="98.975296">
<time>2014-08-05T00:13:37Z</time></trkpt>
<trkpt lat="25.866831" lon="98.975256">
<time>2014-08-05T00:13:38Z</time></trkpt>
<trkpt lat="25.866781" lon="98.975206">
<time>2014-08-05T00:13:39Z</time></trkpt>
<trkpt lat="25.866681" lon="98.975146">
<time>2014-08-05T00:13:40Z</time></trkpt>
<trkpt lat="25.865772" lon="98.974598">
<time>2014-08-05T00:13:41Z</time></trkpt>
<trkpt lat="25.865372" lon="98.974419">
<time>2014-08-05T00:13:42Z</time></trkpt>
<trkpt lat="25.865212" lon="98.97434">
<time>2014-08-05T00:13:43Z</time></trkpt>
<trkpt lat="25.865112" lon="98.97428">
<time>2014-08-05T00:13:44Z</time></trkpt>
<trkpt lat="25.865022" lon="98.97421">
<time>2014-08-05T00:13:45Z</time></trkpt>
<trkpt lat="25.864953" lon="98.97412">
<time>2014-08-05T00:13:46Z</time></trkpt>
<trkpt lat="25.864883" lon="98.974021">
<time>2014-08-05T00:13:47Z</time></trkpt>
<trkpt lat="25.864803" lon="98.973891">
<time>2014-08-05T00:13:48Z</time></trkpt>
<trkpt lat="25.864704" lon="98.973682">
<time>2014-08-05T00:13:49Z</time></trkpt>
<trkpt lat="25.864366" lon="98.972925">
<time>2014-08-05T00:13:50Z</time></trkpt>
<trkpt lat="25.864316" lon="98.972825">
<time>2014-08-05T00:13:51Z</time></trkpt>
<trkpt lat="25.864266" lon="98.972736">
<time>2014-08-05T00:13:52Z</time></trkpt>
<trkpt lat="25.864206" lon="98.972656">
<time>2014-08-05T00:13:53Z</time></trkpt>
<trkpt lat="25.863518" lon="98.971869">
<time>2014-08-05T00:13:54Z</time></trkpt>
<trkpt lat="25.863448" lon="98.97178">
<time>2014-08-05T00:13:55Z</time></trkpt>
<trkpt lat="25.863388" lon="98.97169">
<time>2014-08-05T00:13:56Z</time></trkpt>
<trkpt lat="25.863339" lon="98.97159">
<time>2014-08-05T00:13:57Z</time></trkpt>
<trkpt lat="25.863289" lon="98.971491">
<time>2014-08-05T00:13:58Z</time></trkpt>
<trkpt lat="25.863249" lon="98.971371">
<time>2014-08-05T00:13:59Z</time></trkpt>
<trkpt lat="25.863229" lon="98.971242">
<time>2014-08-05T00:14:00Z</time></trkpt>
<trkpt lat="25.86321" lon="98.971092">
<time>2014-08-05T00:14:01Z</time></trkpt>
<trkpt lat="25.86321" lon="98.970913">
<time>2014-08-05T00:14:02Z</time></trkpt>
<trkpt lat="25.863221" lon="98.970724">
<time>2014-08-05T00:14:03Z</time></trkpt>
<trkpt lat="25.863272" lon="98.970395">
<time>2014-08-05T00:14:04Z</time></trkpt>
<trkpt lat="25.863343" lon="98.970006">
<time>2014-08-05T00:14:05Z</time></trkpt>
<trkpt lat="25.863353" lon="98.969907">
<time>2014-08-05T00:14:06Z</time></trkpt>
<trkpt lat="25.863363" lon="98.969817">
<time>2014-08-05T00:14:07Z</time></trkpt>
<trkpt lat="25.863354" lon="98.969737">
<time>2014-08-05T00:14:08Z</time></trkpt>
<trkpt lat="25.863334" lon="98.969638">
<time>2014-08-05T00:14:09Z</time></trkpt>
<trkpt lat="25.863294" lon="98.969528">
<time>2014-08-05T00:14:10Z</time></trkpt>
<trkpt lat="25.863195" lon="98.969259">
<time>2014-08-05T00:14:11Z</time></trkpt>
<trkpt lat="25.863036" lon="98.968861">
<time>2014-08-05T00:14:12Z</time></trkpt>
<trkpt lat="25.862986" lon="98.968751">
<time>2014-08-05T00:14:13Z</time></trkpt>
<trkpt lat="25.862956" lon="98.968691">
<time>2014-08-05T00:14:14Z</time></trkpt>
<trkpt lat="25.862916" lon="98.968642">
<time>2014-08-05T00:14:15Z</time></trkpt>
<trkpt lat="25.862767" lon="98.968402">
<time>2014-08-05T00:14:16Z</time></trkpt>
<trkpt lat="25.862637" lon="98.968203">
<time>2014-08-05T00:14:17Z</time></trkpt>
<trkpt lat="25.862597" lon="98.968143">
<time>2014-08-05T00:14:18Z</time></trkpt>
<trkpt lat="25.862577" lon="98.968094">
<time>2014-08-05T00:14:19Z</time></trkpt>
<trkpt lat="25.862568" lon="98.968044">
<time>2014-08-05T00:14:20Z</time></trkpt>
<trkpt lat="25.862548" lon="98.967984">
<time>2014-08-05T00:14:21Z</time></trkpt>
<trkpt lat="25.862538" lon="98.967864">
<time>2014-08-05T00:14:22Z</time></trkpt>
<trkpt lat="25.862528" lon="98.967755">
<time>2014-08-05T00:14:23Z</time></trkpt>
<trkpt lat="25.862529" lon="98.967625">
<time>2014-08-05T00:14:24Z</time></trkpt>
<trkpt lat="25.862529" lon="98.967356">
<time>2014-08-05T00:14:25Z</time></trkpt>
<trkpt lat="25.862541" lon="98.966669">
<time>2014-08-05T00:14:26Z</time></trkpt>
<trkpt lat="25.862503" lon="98.966031">
<time>2014-08-05T00:14:27Z</time></trkpt>
<trkpt lat="25.862493" lon="98.965922">
<time>2014-08-05T00:14:28Z</time></trkpt>
<trkpt lat="25.862483" lon="98.965822">
<time>2014-08-05T00:14:29Z</time></trkpt>
<trkpt lat="25.862464" lon="98.965722">
<time>2014-08-05T00:14:30Z</time></trkpt>
<trkpt lat="25.862444" lon="98.965643">
<time>2014-08-05T00:14:31Z</time></trkpt>
<trkpt lat="25.862414" lon="98.965573">
<time>2014-08-05T00:14:32Z</time></trkpt>
<trkpt lat="25.862394" lon="98.965493">
<time>2014-08-05T00:14:33Z</time></trkpt>
<trkpt lat="25.862016" lon="98.964656">
<time>2014-08-05T00:14:34Z</time></trkpt>
<trkpt lat="25.861976" lon="98.964567">
<time>2014-08-05T00:14:35Z</time></trkpt>
<trkpt lat="25.861946" lon="98.964487">
<time>2014-08-05T00:14:36Z</time></trkpt>
<trkpt lat="25.861927" lon="98.964387">
<time>2014-08-05T00:14:37Z</time></trkpt>
<trkpt lat="25.861798" lon="98.963929">
<time>2014-08-05T00:14:38Z</time></trkpt>
<trkpt lat="25.861738" lon="98.96375">
<time>2014-08-05T00:14:39Z</time></trkpt>
<trkpt lat="25.861718" lon="98.96368">
<time>2014-08-05T00:14:40Z</time></trkpt>
<trkpt lat="25.861688" lon="98.96361">
<time>2014-08-05T00:14:41Z</time></trkpt>
<trkpt lat="25.861659" lon="98.96354">
<time>2014-08-05T00:14:42Z</time></trkpt>
<trkpt lat="25.861619" lon="98.963451">
<time>2014-08-05T00:14:43Z</time></trkpt>
<trkpt lat="25.861479" lon="98.963202">
<time>2014-08-05T00:14:44Z</time></trkpt>
<trkpt lat="25.8614" lon="98.963062">
<time>2014-08-05T00:14:45Z</time></trkpt>
<trkpt lat="25.86132" lon="98.962923">
<time>2014-08-05T00:14:46Z</time></trkpt>
<trkpt lat="25.86126" lon="98.962843">
<time>2014-08-05T00:14:47Z</time></trkpt>
<trkpt lat="25.86119" lon="98.962753">
<time>2014-08-05T00:14:48Z</time></trkpt>
<trkpt lat="25.86113" lon="98.962684">
<time>2014-08-05T00:14:49Z</time></trkpt>
<trkpt lat="25.86108" lon="98.962624">
<time>2014-08-05T00:14:50Z</time></trkpt>
<trkpt lat="25.861031" lon="98.962574">
<time>2014-08-05T00:14:51Z</time></trkpt>
<trkpt lat="25.860991" lon="98.962534">
<time>2014-08-05T00:14:52Z</time></trkpt>
<trkpt lat="25.860941" lon="98.962494">
<time>2014-08-05T00:14:53Z</time></trkpt>
<trkpt lat="25.860881" lon="98.962444">
<time>2014-08-05T00:14:54Z</time></trkpt>
<trkpt lat="25.860801" lon="98.962395">
<time>2014-08-05T00:14:55Z</time></trkpt>
<trkpt lat="25.860681" lon="98.962335">
<time>2014-08-05T00:14:56Z</time></trkpt>
<trkpt lat="25.860581" lon="98.962285">
<time>2014-08-05T00:14:57Z</time></trkpt>
<trkpt lat="25.860521" lon="98.962255">
<time>2014-08-05T00:14:58Z</time></trkpt>
<trkpt lat="25.860451" lon="98.962235">
<time>2014-08-05T00:14:59Z</time></trkpt>
<trkpt lat="25.860391" lon="98.962215">
<time>2014-08-05T00:15:00Z</time></trkpt>
<trkpt lat="25.860331" lon="98.962205">
<time>2014-08-05T00:15:01Z</time></trkpt>
<trkpt lat="25.860271" lon="98.962195">
<time>2014-08-05T00:15:02Z</time></trkpt>
<trkpt lat="25.860171" lon="98.962195">
<time>2014-08-05T00:15:03Z</time></trkpt>
<trkpt lat="25.859941" lon="98.962205">
<time>2014-08-05T00:15:04Z</time></trkpt>
<trkpt lat="25.8594" lon="98.962265">
<time>2014-08-05T00:15:05Z</time></trkpt>
<trkpt lat="25.85932" lon="98.962275">
<time>2014-08-05T00:15:06Z</time></trkpt>
<trkpt lat="25.85922" lon="98.962275">
<time>2014-08-05T00:15:07Z</time></trkpt>
<trkpt lat="25.85915" lon="98.962265">
<time>2014-08-05T00:15:08Z</time></trkpt>
<trkpt lat="25.85908" lon="98.962255">
<time>2014-08-05T00:15:09Z</time></trkpt>
<trkpt lat="25.85901" lon="98.962245">
<time>2014-08-05T00:15:10Z</time></trkpt>
<trkpt lat="25.8586" lon="98.962146">
<time>2014-08-05T00:15:11Z</time></trkpt>
<trkpt lat="25.85763" lon="98.961857">
<time>2014-08-05T00:15:12Z</time></trkpt>
<trkpt lat="25.85751" lon="98.961817">
<time>2014-08-05T00:15:13Z</time></trkpt>
<trkpt lat="25.85741" lon="98.961797">
<time>2014-08-05T00:15:14Z</time></trkpt>
<trkpt lat="25.8573" lon="98.961787">
<time>2014-08-05T00:15:15Z</time></trkpt>
<trkpt lat="25.85705" lon="98.961757">
<time>2014-08-05T00:15:16Z</time></trkpt>
<trkpt lat="25.85696" lon="98.961737">
<time>2014-08-05T00:15:17Z</time></trkpt>
<trkpt lat="25.85689" lon="98.961727">
<time>2014-08-05T00:15:18Z</time></trkpt>
<trkpt lat="25.85682" lon="98.961707">
<time>2014-08-05T00:15:19Z</time></trkpt>
<trkpt lat="25.85675" lon="98.961687">
<time>2014-08-05T00:15:20Z</time></trkpt>
<trkpt lat="25.85668" lon="98.961657">
<time>2014-08-05T00:15:21Z</time></trkpt>
<trkpt lat="25.85647" lon="98.961558">
<time>2014-08-05T00:15:22Z</time></trkpt>
<trkpt lat="25.85641" lon="98.961528">
<time>2014-08-05T00:15:23Z</time></trkpt>
<trkpt lat="25.85635" lon="98.961498">
<time>2014-08-05T00:15:24Z</time></trkpt>
<trkpt lat="25.8563" lon="98.961448">
<time>2014-08-05T00:15:25Z</time></trkpt>
<trkpt lat="25.85625" lon="98.961408">
<time>2014-08-05T00:15:26Z</time></trkpt>
<trkpt lat="25.8562" lon="98.961348">
<time>2014-08-05T00:15:27Z</time></trkpt>
<trkpt lat="25.856151" lon="98.961269">
<time>2014-08-05T00:15:28Z</time></trkpt>
<trkpt lat="25.856071" lon="98.961129">
<time>2014-08-05T00:15:29Z</time></trkpt>
<trkpt lat="25.855812" lon="98.960611">
<time>2014-08-05T00:15:30Z</time></trkpt>
<trkpt lat="25.855782" lon="98.960571">
<time>2014-08-05T00:15:31Z</time></trkpt>
<trkpt lat="25.855762" lon="98.960531">
<time>2014-08-05T00:15:32Z</time></trkpt>
<trkpt lat="25.855742" lon="98.960491">
<time>2014-08-05T00:15:33Z</time></trkpt>
<trkpt lat="25.855722" lon="98.960462">
<time>2014-08-05T00:15:34Z</time></trkpt>
<trkpt lat="25.855692" lon="98.960432">
<time>2014-08-05T00:15:35Z</time></trkpt>
<trkpt lat="25.855662" lon="98.960392">
<time>2014-08-05T00:15:36Z</time></trkpt>
<trkpt lat="25.855413" lon="98.960083">
<time>2014-08-05T00:15:37Z</time></trkpt>
<trkpt lat="25.855363" lon="98.960033">
<time>2014-08-05T00:15:38Z</time></trkpt>
<trkpt lat="25.855323" lon="98.959983">
<time>2014-08-05T00:15:39Z</time></trkpt>
<trkpt lat="25.855273" lon="98.959943">
<time>2014-08-05T00:15:40Z</time></trkpt>
<trkpt lat="25.855213" lon="98.959904">
<time>2014-08-05T00:15:41Z</time></trkpt>
<trkpt lat="25.855153" lon="98.959854">
<time>2014-08-05T00:15:42Z</time></trkpt>
<trkpt lat="25.855083" lon="98.959834">
<time>2014-08-05T00:15:43Z</time></trkpt>
<trkpt lat="25.855023" lon="98.959814">
<time>2014-08-05T00:15:44Z</time></trkpt>
<trkpt lat="25.854953" lon="98.959794">
<time>2014-08-05T00:15:45Z</time></trkpt>
<trkpt lat="25.854873" lon="98.959784">
<time>2014-08-05T00:15:46Z</time></trkpt>
<trkpt lat="25.854783" lon="98.959784">
<time>2014-08-05T00:15:47Z</time></trkpt>
<trkpt lat="25.854703" lon="98.959784">
<time>2014-08-05T00:15:48Z</time></trkpt>
<trkpt lat="25.854623" lon="98.959804">
<time>2014-08-05T00:15:49Z</time></trkpt>
<trkpt lat="25.854553" lon="98.959814">
<time>2014-08-05T00:15:50Z</time></trkpt>
<trkpt lat="25.854433" lon="98.959854">
<time>2014-08-05T00:15:51Z</time></trkpt>
<trkpt lat="25.854092" lon="98.959953">
<time>2014-08-05T00:15:52Z</time></trkpt>
<trkpt lat="25.854022" lon="98.959963">
<time>2014-08-05T00:15:53Z</time></trkpt>
<trkpt lat="25.853942" lon="98.959983">
<time>2014-08-05T00:15:54Z</time></trkpt>
<trkpt lat="25.853872" lon="98.959993">
<time>2014-08-05T00:15:55Z</time></trkpt>
<trkpt lat="25.853792" lon="98.959993">
<time>2014-08-05T00:15:56Z</time></trkpt>
<trkpt lat="25.853712" lon="98.959993">
<time>2014-08-05T00:15:57Z</time></trkpt>
<trkpt lat="25.853642" lon="98.959983">
<time>2014-08-05T00:15:58Z</time></trkpt>
<trkpt lat="25.853582" lon="98.959963">
<time>2014-08-05T00:15:59Z</time></trkpt>
<trkpt lat="25.853522" lon="98.959943">
<time>2014-08-05T00:16:00Z</time></trkpt>
<trkpt lat="25.853462" lon="98.959914">
<time>2014-08-05T00:16:01Z</time></trkpt>
<trkpt lat="25.853412" lon="98.959884">
<time>2014-08-05T00:16:02Z</time></trkpt>
<trkpt lat="25.853372" lon="98.959854">
<time>2014-08-05T00:16:03Z</time></trkpt>
<trkpt lat="25.853332" lon="98.959814">
<time>2014-08-05T00:16:04Z</time></trkpt>
<trkpt lat="25.853073" lon="98.959545">
<time>2014-08-05T00:16:05Z</time></trkpt>
<trkpt lat="25.852454" lon="98.958847">
<time>2014-08-05T00:16:06Z</time></trkpt>
<trkpt lat="25.852394" lon="98.958788">
<time>2014-08-05T00:16:07Z</time></trkpt>
<trkpt lat="25.852354" lon="98.958748">
<time>2014-08-05T00:16:08Z</time></trkpt>
<trkpt lat="25.852304" lon="98.958708">
<time>2014-08-05T00:16:09Z</time></trkpt>
<trkpt lat="25.852264" lon="98.958678">
<time>2014-08-05T00:16:10Z</time></trkpt>
<trkpt lat="25.852234" lon="98.958658">
<time>2014-08-05T00:16:11Z</time></trkpt>
<trkpt lat="25.852194" lon="98.958628">
<time>2014-08-05T00:16:12Z</time></trkpt>
<trkpt lat="25.852154" lon="98.958608">
<time>2014-08-05T00:16:13Z</time></trkpt>
<trkpt lat="25.852104" lon="98.958588">
<time>2014-08-05T00:16:14Z</time></trkpt>
<trkpt lat="25.852054" lon="98.958568">
<time>2014-08-05T00:16:15Z</time></trkpt>
<trkpt lat="25.851984" lon="98.958538">
<time>2014-08-05T00:16:16Z</time></trkpt>
<trkpt lat="25.851894" lon="98.958518">
<time>2014-08-05T00:16:17Z</time></trkpt>
<trkpt lat="25.851834" lon="98.958499">
<time>2014-08-05T00:16:18Z</time></trkpt>
<trkpt lat="25.851774" lon="98.958489">
<time>2014-08-05T00:16:19Z</time></trkpt>
<trkpt lat="25.851724" lon="98.958479">
<time>2014-08-05T00:16:20Z</time></trkpt>
<trkpt lat="25.851674" lon="98.958479">
<time>2014-08-05T00:16:21Z</time></trkpt>
<trkpt lat="25.851624" lon="98.958479">
<time>2014-08-05T00:16:22Z</time></trkpt>
<trkpt lat="25.851564" lon="98.958479">
<time>2014-08-05T00:16:23Z</time></trkpt>
<trkpt lat="25.851494" lon="98.958499">
<time>2014-08-05T00:16:24Z</time></trkpt>
<trkpt lat="25.851384" lon="98.958518">
<time>2014-08-05T00:16:25Z</time></trkpt>
<trkpt lat="25.850473" lon="98.958698">
<time>2014-08-05T00:16:26Z</time></trkpt>
<trkpt lat="25.850383" lon="98.958708">
<time>2014-08-05T00:16:27Z</time></trkpt>
<trkpt lat="25.850293" lon="98.958718">
<time>2014-08-05T00:16:28Z</time></trkpt>
<trkpt lat="25.850193" lon="98.958728">
<time>2014-08-05T00:16:29Z</time></trkpt>
<trkpt lat="25.850123" lon="98.958728">
<time>2014-08-05T00:16:30Z</time></trkpt>
<trkpt lat="25.850073" lon="98.958728">
<time>2014-08-05T00:16:31Z</time></trkpt>
<trkpt lat="25.850023" lon="98.958718">
<time>2014-08-05T00:16:32Z</time></trkpt>
<trkpt lat="25.849983" lon="98.958708">
<time>2014-08-05T00:16:33Z</time></trkpt>
<trkpt lat="25.849933" lon="98.958688">
<time>2014-08-05T00:16:34Z</time></trkpt>
<trkpt lat="25.849883" lon="98.958668">
<time>2014-08-05T00:16:35Z</time></trkpt>
<trkpt lat="25.849823" lon="98.958638">
<time>2014-08-05T00:16:36Z</time></trkpt>
<trkpt lat="25.849743" lon="98.958588">
<time>2014-08-05T00:16:37Z</time></trkpt>
<trkpt lat="25.849673" lon="98.958538">
<time>2014-08-05T00:16:38Z</time></trkpt>
<trkpt lat="25.849593" lon="98.958479">
<time>2014-08-05T00:16:39Z</time></trkpt>
<trkpt lat="25.849543" lon="98.958449">
<time>2014-08-05T00:16:40Z</time></trkpt>
<trkpt lat="25.849513" lon="98.958419">
<time>2014-08-05T00:16:41Z</time></trkpt>
<trkpt lat="25.849473" lon="98.958399">
<time>2014-08-05T00:16:42Z</time></trkpt>
<trkpt lat="25.849433" lon="98.958389">
<time>2014-08-05T00:16:43Z</time></trkpt>
<trkpt lat="25.849403" lon="98.958369">
<time>2014-08-05T00:16:44Z</time></trkpt>
<trkpt lat="25.849353" lon="98.958359">
<time>2014-08-05T00:16:45Z</time></trkpt>
<trkpt lat="25.849313" lon="98.958349">
<time>2014-08-05T00:16:46Z</time></trkpt>
<trkpt lat="25.849263" lon="98.958349">
<time>2014-08-05T00:16:47Z</time></trkpt>
<trkpt lat="25.849213" lon="98.958339">
<time>2014-08-05T00:16:48Z</time></trkpt>
<trkpt lat="25.848783" lon="98.958329">
<time>2014-08-05T00:16:49Z</time></trkpt>
<trkpt lat="25.848713" lon="98.958319">
<time>2014-08-05T00:16:50Z</time></trkpt>
<trkpt lat="25.848643" lon="98.958309">
<time>2014-08-05T00:16:51Z</time></trkpt>
<trkpt lat="25.848583" lon="98.958299">
<time>2014-08-05T00:16:52Z</time></trkpt>
<trkpt lat="25.848533" lon="98.958279">
<time>2014-08-05T00:16:53Z</time></trkpt>
<trkpt lat="25.848473" lon="98.958259">
<time>2014-08-05T00:16:54Z</time></trkpt>
<trkpt lat="25.848423" lon="98.95823">
<time>2014-08-05T00:16:55Z</time></trkpt>
<trkpt lat="25.848373" lon="98.9582">
<time>2014-08-05T00:16:56Z</time></trkpt>
<trkpt lat="25.848313" lon="98.95816">
<time>2014-08-05T00:16:57Z</time></trkpt>
<trkpt lat="25.848233" lon="98.95809">
<time>2014-08-05T00:16:58Z</time></trkpt>
<trkpt lat="25.848133" lon="98.95799">
<time>2014-08-05T00:16:59Z</time></trkpt>
<trkpt lat="25.848043" lon="98.957891">
<time>2014-08-05T00:17:00Z</time></trkpt>
<trkpt lat="25.847934" lon="98.957761">
<time>2014-08-05T00:17:01Z</time></trkpt>
<trkpt lat="25.847854" lon="98.957622">
<time>2014-08-05T00:17:02Z</time></trkpt>
<trkpt lat="25.847585" lon="98.957163">
<time>2014-08-05T00:17:03Z</time></trkpt>
<trkpt lat="25.847365" lon="98.956775">
<time>2014-08-05T00:17:04Z</time></trkpt>
<trkpt lat="25.847306" lon="98.956665">
<time>2014-08-05T00:17:05Z</time></trkpt>
<trkpt lat="25.847276" lon="98.956625">
<time>2014-08-05T00:17:06Z</time></trkpt>
<trkpt lat="25.847246" lon="98.956575">
<time>2014-08-05T00:17:07Z</time></trkpt>
<trkpt lat="25.847206" lon="98.956535">
<time>2014-08-05T00:17:08Z</time></trkpt>
<trkpt lat="25.847176" lon="98.956505">
<time>2014-08-05T00:17:09Z</time></trkpt>
<trkpt lat="25.847136" lon="98.956466">
<time>2014-08-05T00:17:10Z</time></trkpt>
<trkpt lat="25.847096" lon="98.956436">
<time>2014-08-05T00:17:11Z</time></trkpt>
<trkpt lat="25.847046" lon="98.956416">
<time>2014-08-05T00:17:12Z</time></trkpt>
<trkpt lat="25.846996" lon="98.956386">
<time>2014-08-05T00:17:13Z</time></trkpt>
<trkpt lat="25.846896" lon="98.956336">
<time>2014-08-05T00:17:14Z</time></trkpt>
<trkpt lat="25.845946" lon="98.955907">
<time>2014-08-05T00:17:15Z</time></trkpt>
<trkpt lat="25.845927" lon="98.955898">
<time>2014-08-05T00:17:16Z</time></trkpt>
<trkpt lat="25.845907" lon="98.955888">
<time>2014-08-05T00:17:17Z</time></trkpt>
<trkpt lat="25.845887" lon="98.955868">
<time>2014-08-05T00:17:18Z</time></trkpt>
<trkpt lat="25.845867" lon="98.955858">
<time>2014-08-05T00:17:19Z</time></trkpt>
<trkpt lat="25.845847" lon="98.955828">
<time>2014-08-05T00:17:20Z</time></trkpt>
<trkpt lat="25.845827" lon="98.955808">
<time>2014-08-05T00:17:21Z</time></trkpt>
<trkpt lat="25.845807" lon="98.955778">
<time>2014-08-05T00:17:22Z</time></trkpt>
<trkpt lat="25.845787" lon="98.955748">
<time>2014-08-05T00:17:23Z</time></trkpt>
<trkpt lat="25.845767" lon="98.955718">
<time>2014-08-05T00:17:24Z</time></trkpt>
<trkpt lat="25.845747" lon="98.955658">
<time>2014-08-05T00:17:25Z</time></trkpt>
<trkpt lat="25.845707" lon="98.955569">
<time>2014-08-05T00:17:26Z</time></trkpt>
<trkpt lat="25.845647" lon="98.955439">
<time>2014-08-05T00:17:27Z</time></trkpt>
<trkpt lat="25.845628" lon="98.955369">
<time>2014-08-05T00:17:28Z</time></trkpt>
<trkpt lat="25.845608" lon="98.95529">
<time>2014-08-05T00:17:29Z</time></trkpt>
<trkpt lat="25.845588" lon="98.95522">
<time>2014-08-05T00:17:30Z</time></trkpt>
<trkpt lat="25.845568" lon="98.95514">
<time>2014-08-05T00:17:31Z</time></trkpt>
<trkpt lat="25.845558" lon="98.95506">
<time>2014-08-05T00:17:32Z</time></trkpt>
<trkpt lat="25.845558" lon="98.954981">
<time>2014-08-05T00:17:33Z</time></trkpt>
<trkpt lat="25.845559" lon="98.954911">
<time>2014-08-05T00:17:34Z</time></trkpt>
<trkpt lat="25.845579" lon="98.954821">
<time>2014-08-05T00:17:35Z</time></trkpt>
<trkpt lat="25.84573" lon="98.954173">
<time>2014-08-05T00:17:36Z</time></trkpt>
<trkpt lat="25.845751" lon="98.954054">
<time>2014-08-05T00:17:37Z</time></trkpt>
<trkpt lat="25.845761" lon="98.953914">
<time>2014-08-05T00:17:38Z</time></trkpt>
<trkpt lat="25.845771" lon="98.953785">
<time>2014-08-05T00:17:39Z</time></trkpt>
<trkpt lat="25.845771" lon="98.953645">
<time>2014-08-05T00:17:40Z</time></trkpt>
<trkpt lat="25.845752" lon="98.953505">
<time>2014-08-05T00:17:41Z</time></trkpt>
<trkpt lat="25.845732" lon="98.953386">
<time>2014-08-05T00:17:42Z</time></trkpt>
<trkpt lat="25.845712" lon="98.953286">
<time>2014-08-05T00:17:43Z</time></trkpt>
<trkpt lat="25.845672" lon="98.953177">
<time>2014-08-05T00:17:44Z</time></trkpt>
<trkpt lat="25.845613" lon="98.953047">
<time>2014-08-05T00:17:45Z</time></trkpt>
<trkpt lat="25.845553" lon="98.952947">
<time>2014-08-05T00:17:46Z</time></trkpt>
<trkpt lat="25.845483" lon="98.952828">
<time>2014-08-05T00:17:47Z</time></trkpt>
<trkpt lat="25.844994" lon="98.95222">
<time>2014-08-05T00:17:48Z</time></trkpt>
<trkpt lat="25.844944" lon="98.95216">
<time>2014-08-05T00:17:49Z</time></trkpt>
<trkpt lat="25.844904" lon="98.9521">
<time>2014-08-05T00:17:50Z</time></trkpt>
<trkpt lat="25.844864" lon="98.95204">
<time>2014-08-05T00:17:51Z</time></trkpt>
<trkpt lat="25.844825" lon="98.951961">
<time>2014-08-05T00:17:52Z</time></trkpt>
<trkpt lat="25.844585" lon="98.951532">
<time>2014-08-05T00:17:53Z</time></trkpt>
<trkpt lat="25.844555" lon="98.951472">
<time>2014-08-05T00:17:54Z</time></trkpt>
<trkpt lat="25.844525" lon="98.951432">
<time>2014-08-05T00:17:55Z</time></trkpt>
<trkpt lat="25.844496" lon="98.951382">
<time>2014-08-05T00:17:56Z</time></trkpt>
<trkpt lat="25.844466" lon="98.951342">
<time>2014-08-05T00:17:57Z</time></trkpt>
<trkpt lat="25.844436" lon="98.951313">
<time>2014-08-05T00:17:58Z</time></trkpt>
<trkpt lat="25.844396" lon="98.951273">
<time>2014-08-05T00:17:59Z</time></trkpt>
<trkpt lat="25.844346" lon="98.951243">
<time>2014-08-05T00:18:00Z</time></trkpt>
<trkpt lat="25.844296" lon="98.951213">
<time>2014-08-05T00:18:01Z</time></trkpt>
<trkpt lat="25.844246" lon="98.951183">
<time>2014-08-05T00:18:02Z</time></trkpt>
<trkpt lat="25.844176" lon="98.951153">
<time>2014-08-05T00:18:03Z</time></trkpt>
<trkpt lat="25.844086" lon="98.951113">
<time>2014-08-05T00:18:04Z</time></trkpt>
<trkpt lat="25.843776" lon="98.951004">
<time>2014-08-05T00:18:05Z</time></trkpt>
<trkpt lat="25.843736" lon="98.950984">
<time>2014-08-05T00:18:06Z</time></trkpt>
<trkpt lat="25.843706" lon="98.950974">
<time>2014-08-05T00:18:07Z</time></trkpt>
<trkpt lat="25.843676" lon="98.950954">
<time>2014-08-05T00:18:08Z</time></trkpt>
<trkpt lat="25.843646" lon="98.950944">
<time>2014-08-05T00:18:09Z</time></trkpt>
<trkpt lat="25.843626" lon="98.950924">
<time>2014-08-05T00:18:10Z</time></trkpt>
<trkpt lat="25.843596" lon="98.950914">
<time>2014-08-05T00:18:11Z</time></trkpt>
<trkpt lat="25.843576" lon="98.950894">
<time>2014-08-05T00:18:12Z</time></trkpt>
<trkpt lat="25.843566" lon="98.950874">
<time>2014-08-05T00:18:13Z</time></trkpt>
<trkpt lat="25.843546" lon="98.950854">
<time>2014-08-05T00:18:14Z</time></trkpt>
<trkpt lat="25.843526" lon="98.950824">
<time>2014-08-05T00:18:15Z</time></trkpt>
<trkpt lat="25.843506" lon="98.950794">
<time>2014-08-05T00:18:16Z</time></trkpt>
<trkpt lat="25.843496" lon="98.950754">
<time>2014-08-05T00:18:17Z</time></trkpt>
<trkpt lat="25.843476" lon="98.950715">
<time>2014-08-05T00:18:18Z</time></trkpt>
<trkpt lat="25.843466" lon="98.950675">
<time>2014-08-05T00:18:19Z</time></trkpt>
<trkpt lat="25.843437" lon="98.950595">
<time>2014-08-05T00:18:20Z</time></trkpt>
<trkpt lat="25.843367" lon="98.950356">
<time>2014-08-05T00:18:21Z</time></trkpt>
<trkpt lat="25.843337" lon="98.950256">
<time>2014-08-05T00:18:22Z</time></trkpt>
<trkpt lat="25.843307" lon="98.950176">
<time>2014-08-05T00:18:23Z</time></trkpt>
<trkpt lat="25.843277" lon="98.950116">
<time>2014-08-05T00:18:24Z</time></trkpt>
<trkpt lat="25.843258" lon="98.950067">
<time>2014-08-05T00:18:25Z</time></trkpt>
<trkpt lat="25.843238" lon="98.950037">
<time>2014-08-05T00:18:26Z</time></trkpt>
<trkpt lat="25.843208" lon="98.949997">
<time>2014-08-05T00:18:27Z</time></trkpt>
<trkpt lat="25.843188" lon="98.949967">
<time>2014-08-05T00:18:28Z</time></trkpt>
<trkpt lat="25.843158" lon="98.949937">
<time>2014-08-05T00:18:29Z</time></trkpt>
<trkpt lat="25.843128" lon="98.949897">
<time>2014-08-05T00:18:30Z</time></trkpt>
<trkpt lat="25.843098" lon="98.949877">
<time>2014-08-05T00:18:31Z</time></trkpt>
<trkpt lat="25.843058" lon="98.949847">
<time>2014-08-05T00:18:32Z</time></trkpt>
<trkpt lat="25.843008" lon="98.949817">
<time>2014-08-05T00:18:33Z</time></trkpt>
<trkpt lat="25.842928" lon="98.949768">
<time>2014-08-05T00:18:34Z</time></trkpt>
<trkpt lat="25.842838" lon="98.949718">
<time>2014-08-05T00:18:35Z</time></trkpt>
<trkpt lat="25.842738" lon="98.949678">
<time>2014-08-05T00:18:36Z</time></trkpt>
<trkpt lat="25.842708" lon="98.949658">
<time>2014-08-05T00:18:37Z</time></trkpt>
<trkpt lat="25.842668" lon="98.949648">
<time>2014-08-05T00:18:38Z</time></trkpt>
<trkpt lat="25.842628" lon="98.949638">
<time>2014-08-05T00:18:39Z</time></trkpt>
<trkpt lat="25.842588" lon="98.949628">
<time>2014-08-05T00:18:40Z</time></trkpt>
<trkpt lat="25.842548" lon="98.949618">
<time>2014-08-05T00:18:41Z</time></trkpt>
<trkpt lat="25.842508" lon="98.949608">
<time>2014-08-05T00:18:42Z</time></trkpt>
<trkpt lat="25.842458" lon="98.949608">
<time>2014-08-05T00:18:43Z</time></trkpt>
<trkpt lat="25.842428" lon="98.949608">
<time>2014-08-05T00:18:44Z</time></trkpt>
<trkpt lat="25.842388" lon="98.949618">
<time>2014-08-05T00:18:45Z</time></trkpt>
<trkpt lat="25.842268" lon="98.949638">
<time>2014-08-05T00:18:46Z</time></trkpt>
<trkpt lat="25.842078" lon="98.949658">
<time>2014-08-05T00:18:47Z</time></trkpt>
<trkpt lat="25.841877" lon="98.949678">
<time>2014-08-05T00:18:48Z</time></trkpt>
<trkpt lat="25.841827" lon="98.949678">
<time>2014-08-05T00:18:49Z</time></trkpt>
<trkpt lat="25.841777" lon="98.949678">
<time>2014-08-05T00:18:50Z</time></trkpt>
<trkpt lat="25.841717" lon="98.949678">
<time>2014-08-05T00:18:51Z</time></trkpt>
<trkpt lat="25.841677" lon="98.949668">
<time>2014-08-05T00:18:52Z</time></trkpt>
<trkpt lat="25.841627" lon="98.949668">
<time>2014-08-05T00:18:53Z</time></trkpt>
<trkpt lat="25.841587" lon="98.949648">
<time>2014-08-05T00:18:54Z</time></trkpt>
<trkpt lat="25.841537" lon="98.949638">
<time>2014-08-05T00:18:55Z</time></trkpt>
<trkpt lat="25.841487" lon="98.949618">
<time>2014-08-05T00:18:56Z</time></trkpt>
<trkpt lat="25.840977" lon="98.949399">
<time>2014-08-05T00:18:57Z</time></trkpt>
<trkpt lat="25.840827" lon="98.949319">
<time>2014-08-05T00:18:58Z</time></trkpt>
<trkpt lat="25.840777" lon="98.949299">
<time>2014-08-05T00:18:59Z</time></trkpt>
<trkpt lat="25.840737" lon="98.949269">
<time>2014-08-05T00:19:00Z</time></trkpt>
<trkpt lat="25.840708" lon="98.949249">
<time>2014-08-05T00:19:01Z</time></trkpt>
<trkpt lat="25.840688" lon="98.949229">
<time>2014-08-05T00:19:02Z</time></trkpt>
<trkpt lat="25.840658" lon="98.949209">
<time>2014-08-05T00:19:03Z</time></trkpt>
<trkpt lat="25.840628" lon="98.949179">
<time>2014-08-05T00:19:04Z</time></trkpt>
<trkpt lat="25.840608" lon="98.949149">
<time>2014-08-05T00:19:05Z</time></trkpt>
<trkpt lat="25.840588" lon="98.94911">
<time>2014-08-05T00:19:06Z</time></trkpt>
<trkpt lat="25.840568" lon="98.94907">
<time>2014-08-05T00:19:07Z</time></trkpt>
<trkpt lat="25.840538" lon="98.94903">
<time>2014-08-05T00:19:08Z</time></trkpt>
<trkpt lat="25.840518" lon="98.94899">
<time>2014-08-05T00:19:09Z</time></trkpt>
<trkpt lat="25.840428" lon="98.948761">
<time>2014-08-05T00:19:10Z</time></trkpt>
<trkpt lat="25.840369" lon="98.948621">
<time>2014-08-05T00:19:11Z</time></trkpt>
<trkpt lat="25.840349" lon="98.948571">
<time>2014-08-05T00:19:12Z</time></trkpt>
<trkpt lat="25.840329" lon="98.948541">
<time>2014-08-05T00:19:13Z</time></trkpt>
<trkpt lat="25.840319" lon="98.948511">
<time>2014-08-05T00:19:14Z</time></trkpt>
<trkpt lat="25.840309" lon="98.948482">
<time>2014-08-05T00:19:15Z</time></trkpt>
<trkpt lat="25.840289" lon="98.948452">
<time>2014-08-05T00:19:16Z</time></trkpt>
<trkpt lat="25.840259" lon="98.948412">
<time>2014-08-05T00:19:17Z</time></trkpt>
<trkpt lat="25.840189" lon="98.948282">
<time>2014-08-05T00:19:18Z</time></trkpt>
<trkpt lat="25.840149" lon="98.948212">
<time>2014-08-05T00:19:19Z</time></trkpt>
<trkpt lat="25.840119" lon="98.948172">
<time>2014-08-05T00:19:20Z</time></trkpt>
<trkpt lat="25.840099" lon="98.948123">
<time>2014-08-05T00:19:21Z</time></trkpt>
<trkpt lat="25.840089" lon="98.948083">
<time>2014-08-05T00:19:22Z</time></trkpt>
<trkpt lat="25.84007" lon="98.948033">
<time>2014-08-05T00:19:23Z</time></trkpt>
<trkpt lat="25.84006" lon="98.947993">
<time>2014-08-05T00:19:24Z</time></trkpt>
<trkpt lat="25.84005" lon="98.947943">
<time>2014-08-05T00:19:25Z</time></trkpt>
<trkpt lat="25.84004" lon="98.947893">
<time>2014-08-05T00:19:26Z</time></trkpt>
<trkpt lat="25.84003" lon="98.947834">
<time>2014-08-05T00:19:27Z</time></trkpt>
<trkpt lat="25.84003" lon="98.947774">
<time>2014-08-05T00:19:28Z</time></trkpt>
<trkpt lat="25.84002" lon="98.947634">
<time>2014-08-05T00:19:29Z</time></trkpt>
<trkpt lat="25.839981" lon="98.947136">
<time>2014-08-05T00:19:30Z</time></trkpt>
<trkpt lat="25.839982" lon="98.947026">
<time>2014-08-05T00:19:31Z</time></trkpt>
<trkpt lat="25.839972" lon="98.946936">
<time>2014-08-05T00:19:32Z</time></trkpt>
<trkpt lat="25.839962" lon="98.946837">
<time>2014-08-05T00:19:33Z</time></trkpt>
<trkpt lat="25.839952" lon="98.946747">
<time>2014-08-05T00:19:34Z</time></trkpt>
<trkpt lat="25.839863" lon="98.946228">
<time>2014-08-05T00:19:35Z</time></trkpt>
<trkpt lat="25.839823" lon="98.945979">
<time>2014-08-05T00:19:36Z</time></trkpt>
<trkpt lat="25.839804" lon="98.94577">
<time>2014-08-05T00:19:37Z</time></trkpt>
<trkpt lat="25.839784" lon="98.94556">
<time>2014-08-05T00:19:38Z</time></trkpt>
<trkpt lat="25.839785" lon="98.945361">
<time>2014-08-05T00:19:39Z</time></trkpt>
<trkpt lat="25.839805" lon="98.945172">
<time>2014-08-05T00:19:40Z</time></trkpt>
<trkpt lat="25.839825" lon="98.944992">
<time>2014-08-05T00:19:41Z</time></trkpt>
<trkpt lat="25.839846" lon="98.944842">
<time>2014-08-05T00:19:42Z</time></trkpt>
<trkpt lat="25.839886" lon="98.944673">
<time>2014-08-05T00:19:43Z</time></trkpt>
<trkpt lat="25.839926" lon="98.944513">
<time>2014-08-05T00:19:44Z</time></trkpt>
<trkpt lat="25.839997" lon="98.944294">
<time>2014-08-05T00:19:45Z</time></trkpt>
<trkpt lat="25.840741" lon="98.94228">
<time>2014-08-05T00:19:46Z</time></trkpt>
<trkpt lat="25.840841" lon="98.94206">
<time>2014-08-05T00:19:47Z</time></trkpt>
<trkpt lat="25.840882" lon="98.941961">
<time>2014-08-05T00:19:48Z</time></trkpt>
<trkpt lat="25.840922" lon="98.941881">
<time>2014-08-05T00:19:49Z</time></trkpt>
<trkpt lat="25.840952" lon="98.941831">
<time>2014-08-05T00:19:50Z</time></trkpt>
<trkpt lat="25.840972" lon="98.941791">
<time>2014-08-05T00:19:51Z</time></trkpt>
<trkpt lat="25.841002" lon="98.941751">
<time>2014-08-05T00:19:52Z</time></trkpt>
<trkpt lat="25.841062" lon="98.941681">
<time>2014-08-05T00:19:53Z</time></trkpt>
<trkpt lat="25.841102" lon="98.941622">
<time>2014-08-05T00:19:54Z</time></trkpt>
<trkpt lat="25.841173" lon="98.941552">
<time>2014-08-05T00:19:55Z</time></trkpt>
<trkpt lat="25.841243" lon="98.941492">
<time>2014-08-05T00:19:56Z</time></trkpt>
<trkpt lat="25.841303" lon="98.941452">
<time>2014-08-05T00:19:57Z</time></trkpt>
<trkpt lat="25.841353" lon="98.941412">
<time>2014-08-05T00:19:58Z</time></trkpt>
<trkpt lat="25.841423" lon="98.941372">
<time>2014-08-05T00:19:59Z</time></trkpt>
<trkpt lat="25.841844" lon="98.941133">
<time>2014-08-05T00:20:00Z</time></trkpt>
<trkpt lat="25.842024" lon="98.941003">
<time>2014-08-05T00:20:01Z</time></trkpt>
<trkpt lat="25.842134" lon="98.940894">
<time>2014-08-05T00:20:02Z</time></trkpt>
<trkpt lat="25.842225" lon="98.940764">
<time>2014-08-05T00:20:03Z</time></trkpt>
<trkpt lat="25.842687" lon="98.939807">
<time>2014-08-05T00:20:04Z</time></trkpt>
<trkpt lat="25.842887" lon="98.939358">
<time>2014-08-05T00:20:05Z</time></trkpt>
<trkpt lat="25.842968" lon="98.939228">
<time>2014-08-05T00:20:06Z</time></trkpt>
<trkpt lat="25.843218" lon="98.938949">
<time>2014-08-05T00:20:07Z</time></trkpt>
<trkpt lat="25.843399" lon="98.938739">
<time>2014-08-05T00:20:08Z</time></trkpt>
<trkpt lat="25.843459" lon="98.93866">
<time>2014-08-05T00:20:09Z</time></trkpt>
<trkpt lat="25.843509" lon="98.93859">
<time>2014-08-05T00:20:10Z</time></trkpt>
<trkpt lat="25.843549" lon="98.93851">
<time>2014-08-05T00:20:11Z</time></trkpt>
<trkpt lat="25.843569" lon="98.93845">
<time>2014-08-05T00:20:12Z</time></trkpt>
<trkpt lat="25.84359" lon="98.93839">
<time>2014-08-05T00:20:13Z</time></trkpt>
<trkpt lat="25.84362" lon="98.938321">
<time>2014-08-05T00:20:14Z</time></trkpt>
<trkpt lat="25.84364" lon="98.938251">
<time>2014-08-05T00:20:15Z</time></trkpt>
<trkpt lat="25.84366" lon="98.938161">
<time>2014-08-05T00:20:16Z</time></trkpt>
<trkpt lat="25.84368" lon="98.938051">
<time>2014-08-05T00:20:17Z</time></trkpt>
<trkpt lat="25.8437" lon="98.937932">
<time>2014-08-05T00:20:18Z</time></trkpt>
<trkpt lat="25.843721" lon="98.937812">
<time>2014-08-05T00:20:19Z</time></trkpt>
<trkpt lat="25.843731" lon="98.937662">
<time>2014-08-05T00:20:20Z</time></trkpt>
<trkpt lat="25.843751" lon="98.937453">
<time>2014-08-05T00:20:21Z</time></trkpt>
<trkpt lat="25.843803" lon="98.936425">
<time>2014-08-05T00:20:22Z</time></trkpt>
<trkpt lat="25.843813" lon="98.936246">
<time>2014-08-05T00:20:23Z</time></trkpt>
<trkpt lat="25.843813" lon="98.936156">
<time>2014-08-05T00:20:24Z</time></trkpt>
<trkpt lat="25.843813" lon="98.936056">
<time>2014-08-05T00:20:25Z</time></trkpt>
<trkpt lat="25.843804" lon="98.935957">
<time>2014-08-05T00:20:26Z</time></trkpt>
<trkpt lat="25.843784" lon="98.935847">
<time>2014-08-05T00:20:27Z</time></trkpt>
<trkpt lat="25.843545" lon="98.93453">
<time>2014-08-05T00:20:28Z</time></trkpt>
<trkpt lat="25.843526" lon="98.93442">
<time>2014-08-05T00:20:29Z</time></trkpt>
<trkpt lat="25.843506" lon="98.934331">
<time>2014-08-05T00:20:30Z</time></trkpt>
<trkpt lat="25.843486" lon="98.934251">
<time>2014-08-05T00:20:31Z</time></trkpt>
<trkpt lat="25.843456" lon="98.934171">
<time>2014-08-05T00:20:32Z</time></trkpt>
<trkpt lat="25.843426" lon="98.934091">
<time>2014-08-05T00:20:33Z</time></trkpt>
<trkpt lat="25.843386" lon="98.934012">
<time>2014-08-05T00:20:34Z</time></trkpt>
<trkpt lat="25.843336" lon="98.933902">
<time>2014-08-05T00:20:35Z</time></trkpt>
<trkpt lat="25.842997" lon="98.933253">
<time>2014-08-05T00:20:36Z</time></trkpt>
<trkpt lat="25.842767" lon="98.932824">
<time>2014-08-05T00:20:37Z</time></trkpt>
<trkpt lat="25.842718" lon="98.932735">
<time>2014-08-05T00:20:38Z</time></trkpt>
<trkpt lat="25.842678" lon="98.932665">
<time>2014-08-05T00:20:39Z</time></trkpt>
<trkpt lat="25.842638" lon="98.932595">
<time>2014-08-05T00:20:40Z</time></trkpt>
<trkpt lat="25.842608" lon="98.932565">
<time>2014-08-05T00:20:41Z</time></trkpt>
<trkpt lat="25.842578" lon="98.932525">
<time>2014-08-05T00:20:42Z</time></trkpt>
<trkpt lat="25.842548" lon="98.932495">
<time>2014-08-05T00:20:43Z</time></trkpt>
<trkpt lat="25.842528" lon="98.932465">
<time>2014-08-05T00:20:44Z</time></trkpt>
<trkpt lat="25.842498" lon="98.932425">
<time>2014-08-05T00:20:45Z</time></trkpt>
<trkpt lat="25.842458" lon="98.932395">
<time>2014-08-05T00:20:46Z</time></trkpt>
<trkpt lat="25.842418" lon="98.932355">
<time>2014-08-05T00:20:47Z</time></trkpt>
<trkpt lat="25.842018" lon="98.932056">
<time>2014-08-05T00:20:48Z</time></trkpt>
<trkpt lat="25.841998" lon="98.932036">
<time>2014-08-05T00:20:49Z</time></trkpt>
<trkpt lat="25.841978" lon="98.932016">
<time>2014-08-05T00:20:50Z</time></trkpt>
<trkpt lat="25.841958" lon="98.931996">
<time>2014-08-05T00:20:51Z</time></trkpt>
<trkpt lat="25.841928" lon="98.931966">
<time>2014-08-05T00:20:52Z</time></trkpt>
<trkpt lat="25.841908" lon="98.931946">
<time>2014-08-05T00:20:53Z</time></trkpt>
<trkpt lat="25.841888" lon="98.931927">
<time>2014-08-05T00:20:54Z</time></trkpt>
<trkpt lat="25.841878" lon="98.931907">
<time>2014-08-05T00:20:55Z</time></trkpt>
<trkpt lat="25.841858" lon="98.931887">
<time>2014-08-05T00:20:56Z</time></trkpt>
<trkpt lat="25.841848" lon="98.931857">
<time>2014-08-05T00:20:57Z</time></trkpt>
<trkpt lat="25.841838" lon="98.931837">
<time>2014-08-05T00:20:58Z</time></trkpt>
<trkpt lat="25.841828" lon="98.931817">
<time>2014-08-05T00:20:59Z</time></trkpt>
<trkpt lat="25.841818" lon="98.931787">
<time>2014-08-05T00:21:00Z</time></trkpt>
<trkpt lat="25.841808" lon="98.931747">
<time>2014-08-05T00:21:01Z</time></trkpt>
<trkpt lat="25.841808" lon="98.931717">
<time>2014-08-05T00:21:02Z</time></trkpt>
<trkpt lat="25.841798" lon="98.931657">
<time>2014-08-05T00:21:03Z</time></trkpt>
<trkpt lat="25.841788" lon="98.931587">
<time>2014-08-05T00:21:04Z</time></trkpt>
<trkpt lat="25.841779" lon="98.931488">
<time>2014-08-05T00:21:05Z</time></trkpt>
<trkpt lat="25.841759" lon="98.931328">
<time>2014-08-05T00:21:06Z</time></trkpt>
<trkpt lat="25.841739" lon="98.931218">
<time>2014-08-05T00:21:07Z</time></trkpt>
<trkpt lat="25.841659" lon="98.930789">
<time>2014-08-05T00:21:08Z</time></trkpt>
<trkpt lat="25.84165" lon="98.930699">
<time>2014-08-05T00:21:09Z</time></trkpt>
<trkpt lat="25.84164" lon="98.930629">
<time>2014-08-05T00:21:10Z</time></trkpt>
<trkpt lat="25.84163" lon="98.93057">
<time>2014-08-05T00:21:11Z</time></trkpt>
<trkpt lat="25.84164" lon="98.93053">
<time>2014-08-05T00:21:12Z</time></trkpt>
<trkpt lat="25.84164" lon="98.93046">
<time>2014-08-05T00:21:13Z</time></trkpt>
<trkpt lat="25.84166" lon="98.93038">
<time>2014-08-05T00:21:14Z</time></trkpt>
<trkpt lat="25.84167" lon="98.93029">
<time>2014-08-05T00:21:15Z</time></trkpt>
<trkpt lat="25.841861" lon="98.929392">
<time>2014-08-05T00:21:16Z</time></trkpt>
<trkpt lat="25.841871" lon="98.929322">
<time>2014-08-05T00:21:17Z</time></trkpt>
<trkpt lat="25.841892" lon="98.929253">
<time>2014-08-05T00:21:18Z</time></trkpt>
<trkpt lat="25.841902" lon="98.929203">
<time>2014-08-05T00:21:19Z</time></trkpt>
<trkpt lat="25.841902" lon="98.929143">
<time>2014-08-05T00:21:20Z</time></trkpt>
<trkpt lat="25.841912" lon="98.929083">
<time>2014-08-05T00:21:21Z</time></trkpt>
<trkpt lat="25.841912" lon="98.929013">
<time>2014-08-05T00:21:22Z</time></trkpt>
<trkpt lat="25.841902" lon="98.928794">
<time>2014-08-05T00:21:23Z</time></trkpt>
<trkpt lat="25.841902" lon="98.928664">
<time>2014-08-05T00:21:24Z</time></trkpt>
<trkpt lat="25.841902" lon="98.928594">
<time>2014-08-05T00:21:25Z</time></trkpt>
<trkpt lat="25.841902" lon="98.928524">
<time>2014-08-05T00:21:26Z</time></trkpt>
<trkpt lat="25.841913" lon="98.928474">
<time>2014-08-05T00:21:27Z</time></trkpt>
<trkpt lat="25.841923" lon="98.928394">
<time>2014-08-05T00:21:28Z</time></trkpt>
<trkpt lat="25.841933" lon="98.928325">
<time>2014-08-05T00:21:29Z</time></trkpt>
<trkpt lat="25.841953" lon="98.928245">
<time>2014-08-05T00:21:30Z</time></trkpt>
<trkpt lat="25.842104" lon="98.927676">
<time>2014-08-05T00:21:31Z</time></trkpt>
<trkpt lat="25.842124" lon="98.927576">
<time>2014-08-05T00:21:32Z</time></trkpt>
<trkpt lat="25.842144" lon="98.927466">
<time>2014-08-05T00:21:33Z</time></trkpt>
<trkpt lat="25.842154" lon="98.927377">
<time>2014-08-05T00:21:34Z</time></trkpt>
<trkpt lat="25.842164" lon="98.927287">
<time>2014-08-05T00:21:35Z</time></trkpt>
<trkpt lat="25.842174" lon="98.927177">
<time>2014-08-05T00:21:36Z</time></trkpt>
<trkpt lat="25.842235" lon="98.926469">
<time>2014-08-05T00:21:37Z</time></trkpt>
<trkpt lat="25.842245" lon="98.926339">
<time>2014-08-05T00:21:38Z</time></trkpt>
<trkpt lat="25.842245" lon="98.926239">
<time>2014-08-05T00:21:39Z</time></trkpt>
<trkpt lat="25.842255" lon="98.926149">
<time>2014-08-05T00:21:40Z</time></trkpt>
<trkpt lat="25.842246" lon="98.926079">
<time>2014-08-05T00:21:41Z</time></trkpt>
<trkpt lat="25.842236" lon="98.926009">
<time>2014-08-05T00:21:42Z</time></trkpt>
<trkpt lat="25.842226" lon="98.92594">
<time>2014-08-05T00:21:43Z</time></trkpt>
<trkpt lat="25.842206" lon="98.92586">
<time>2014-08-05T00:21:44Z</time></trkpt>
<trkpt lat="25.842186" lon="98.9258">
<time>2014-08-05T00:21:45Z</time></trkpt>
<trkpt lat="25.842166" lon="98.92573">
<time>2014-08-05T00:21:46Z</time></trkpt>
<trkpt lat="25.842146" lon="98.92568">
<time>2014-08-05T00:21:47Z</time></trkpt>
<trkpt lat="25.842116" lon="98.92562">
<time>2014-08-05T00:21:48Z</time></trkpt>
<trkpt lat="25.842096" lon="98.92556">
<time>2014-08-05T00:21:49Z</time></trkpt>
<trkpt lat="25.842066" lon="98.92551">
<time>2014-08-05T00:21:50Z</time></trkpt>
<trkpt lat="25.842036" lon="98.925471">
<time>2014-08-05T00:21:51Z</time></trkpt>
<trkpt lat="25.841896" lon="98.925291">
<time>2014-08-05T00:21:52Z</time></trkpt>
<trkpt lat="25.841876" lon="98.925261">
<time>2014-08-05T00:21:53Z</time></trkpt>
<trkpt lat="25.841856" lon="98.925231">
<time>2014-08-05T00:21:54Z</time></trkpt>
<trkpt lat="25.841836" lon="98.925201">
<time>2014-08-05T00:21:55Z</time></trkpt>
<trkpt lat="25.841816" lon="98.925161">
<time>2014-08-05T00:21:56Z</time></trkpt>
<trkpt lat="25.841796" lon="98.925131">
<time>2014-08-05T00:21:57Z</time></trkpt>
<trkpt lat="25.841786" lon="98.925091">
<time>2014-08-05T00:21:58Z</time></trkpt>
<trkpt lat="25.841776" lon="98.925051">
<time>2014-08-05T00:21:59Z</time></trkpt>
<trkpt lat="25.841776" lon="98.925011">
<time>2014-08-05T00:22:00Z</time></trkpt>
<trkpt lat="25.841766" lon="98.924962">
<time>2014-08-05T00:22:01Z</time></trkpt>
<trkpt lat="25.841766" lon="98.924912">
<time>2014-08-05T00:22:02Z</time></trkpt>
<trkpt lat="25.841777" lon="98.924862">
<time>2014-08-05T00:22:03Z</time></trkpt>
<trkpt lat="25.841787" lon="98.924812">
<time>2014-08-05T00:22:04Z</time></trkpt>
<trkpt lat="25.841797" lon="98.924742">
<time>2014-08-05T00:22:05Z</time></trkpt>
<trkpt lat="25.841837" lon="98.924473">
<time>2014-08-05T00:22:06Z</time></trkpt>
<trkpt lat="25.841857" lon="98.924323">
<time>2014-08-05T00:22:07Z</time></trkpt>
<trkpt lat="25.841928" lon="98.923714">
<time>2014-08-05T00:22:08Z</time></trkpt>
<trkpt lat="25.841938" lon="98.923524">
<time>2014-08-05T00:22:09Z</time></trkpt>
<trkpt lat="25.841948" lon="98.923435">
<time>2014-08-05T00:22:10Z</time></trkpt>
<trkpt lat="25.841958" lon="98.923365">
<time>2014-08-05T00:22:11Z</time></trkpt>
<trkpt lat="25.841958" lon="98.923295">
<time>2014-08-05T00:22:12Z</time></trkpt>
<trkpt lat="25.841958" lon="98.923225">
<time>2014-08-05T00:22:13Z</time></trkpt>
<trkpt lat="25.841958" lon="98.923165">
<time>2014-08-05T00:22:14Z</time></trkpt>
<trkpt lat="25.841948" lon="98.923095">
<time>2014-08-05T00:22:15Z</time></trkpt>
<trkpt lat="25.841938" lon="98.923035">
<time>2014-08-05T00:22:16Z</time></trkpt>
<trkpt lat="25.841929" lon="98.922975">
<time>2014-08-05T00:22:17Z</time></trkpt>
<trkpt lat="25.841909" lon="98.922916">
<time>2014-08-05T00:22:18Z</time></trkpt>
<trkpt lat="25.841879" lon="98.922796">
<time>2014-08-05T00:22:19Z</time></trkpt>
<trkpt lat="25.841809" lon="98.922566">
<time>2014-08-05T00:22:20Z</time></trkpt>
<trkpt lat="25.841619" lon="98.921897">
<time>2014-08-05T00:22:21Z</time></trkpt>
<trkpt lat="25.841589" lon="98.921788">
<time>2014-08-05T00:22:22Z</time></trkpt>
<trkpt lat="25.84156" lon="98.921658">
<time>2014-08-05T00:22:23Z</time></trkpt>
<trkpt lat="25.84154" lon="98.921518">
<time>2014-08-05T00:22:24Z</time></trkpt>
<trkpt lat="25.84152" lon="98.921378">
<time>2014-08-05T00:22:25Z</time></trkpt>
<trkpt lat="25.841341" lon="98.92026">
<time>2014-08-05T00:22:26Z</time></trkpt>
<trkpt lat="25.841331" lon="98.920151">
<time>2014-08-05T00:22:27Z</time></trkpt>
<trkpt lat="25.841331" lon="98.920091">
<time>2014-08-05T00:22:28Z</time></trkpt>
<trkpt lat="25.841321" lon="98.919951">
<time>2014-08-05T00:22:29Z</time></trkpt>
<trkpt lat="25.841361" lon="98.919851">
<time>2014-08-05T00:22:30Z</time></trkpt>
<trkpt lat="25.841381" lon="98.919791">
<time>2014-08-05T00:22:31Z</time></trkpt>
<trkpt lat="25.841411" lon="98.919741">
<time>2014-08-05T00:22:32Z</time></trkpt>
<trkpt lat="25.841441" lon="98.919681">
<time>2014-08-05T00:22:33Z</time></trkpt>
<trkpt lat="25.841551" lon="98.919452">
<time>2014-08-05T00:22:34Z</time></trkpt>
<trkpt lat="25.841602" lon="98.919362">
<time>2014-08-05T00:22:35Z</time></trkpt>
<trkpt lat="25.841642" lon="98.919262">
<time>2014-08-05T00:22:36Z</time></trkpt>
<trkpt lat="25.841672" lon="98.919182">
<time>2014-08-05T00:22:37Z</time></trkpt>
<trkpt lat="25.841692" lon="98.919112">
<time>2014-08-05T00:22:38Z</time></trkpt>
<trkpt lat="25.841702" lon="98.919043">
<time>2014-08-05T00:22:39Z</time></trkpt>
<trkpt lat="25.841722" lon="98.918973">
<time>2014-08-05T00:22:40Z</time></trkpt>
<trkpt lat="25.841732" lon="98.918893">
<time>2014-08-05T00:22:41Z</time></trkpt>
<trkpt lat="25.841732" lon="98.918813">
<time>2014-08-05T00:22:42Z</time></trkpt>
<trkpt lat="25.841732" lon="98.918693">
<time>2014-08-05T00:22:43Z</time></trkpt>
<trkpt lat="25.841732" lon="98.918573">
<time>2014-08-05T00:22:44Z</time></trkpt>
<trkpt lat="25.841722" lon="98.918473">
<time>2014-08-05T00:22:45Z</time></trkpt>
<trkpt lat="25.841712" lon="98.918414">
<time>2014-08-05T00:22:46Z</time></trkpt>
<trkpt lat="25.841702" lon="98.918364">
<time>2014-08-05T00:22:47Z</time></trkpt>
<trkpt lat="25.841682" lon="98.918304">
<time>2014-08-05T00:22:48Z</time></trkpt>
<trkpt lat="25.841672" lon="98.918254">
<time>2014-08-05T00:22:49Z</time></trkpt>
<trkpt lat="25.841642" lon="98.918184">
<time>2014-08-05T00:22:50Z</time></trkpt>
<trkpt lat="25.841623" lon="98.918124">
<time>2014-08-05T00:22:51Z</time></trkpt>
<trkpt lat="25.841593" lon="98.918054">
<time>2014-08-05T00:22:52Z</time></trkpt>
<trkpt lat="25.841443" lon="98.917745">
<time>2014-08-05T00:22:53Z</time></trkpt>
<trkpt lat="25.841423" lon="98.917705">
<time>2014-08-05T00:22:54Z</time></trkpt>
<trkpt lat="25.841403" lon="98.917665">
<time>2014-08-05T00:22:55Z</time></trkpt>
<trkpt lat="25.841383" lon="98.917625">
<time>2014-08-05T00:22:56Z</time></trkpt>
<trkpt lat="25.841373" lon="98.917575">
<time>2014-08-05T00:22:57Z</time></trkpt>
<trkpt lat="25.841363" lon="98.917535">
<time>2014-08-05T00:22:58Z</time></trkpt>
<trkpt lat="25.841343" lon="98.917505">
<time>2014-08-05T00:22:59Z</time></trkpt>
<trkpt lat="25.841343" lon="98.917465">
<time>2014-08-05T00:23:00Z</time></trkpt>
<trkpt lat="25.841333" lon="98.917435">
<time>2014-08-05T00:23:01Z</time></trkpt>
<trkpt lat="25.841333" lon="98.917395">
<time>2014-08-05T00:23:02Z</time></trkpt>
<trkpt lat="25.841323" lon="98.917355">
<time>2014-08-05T00:23:03Z</time></trkpt>
<trkpt lat="25.841323" lon="98.917285">
<time>2014-08-05T00:23:04Z</time></trkpt>
<trkpt lat="25.841313" lon="98.916946">
<time>2014-08-05T00:23:05Z</time></trkpt>
<trkpt lat="25.841313" lon="98.916776">
<time>2014-08-05T00:23:06Z</time></trkpt>
<trkpt lat="25.841313" lon="98.916706">
<time>2014-08-05T00:23:07Z</time></trkpt>
<trkpt lat="25.841323" lon="98.916656">
<time>2014-08-05T00:23:08Z</time></trkpt>
<trkpt lat="25.841333" lon="98.916587">
<time>2014-08-05T00:23:09Z</time></trkpt>
<trkpt lat="25.841343" lon="98.916537">
<time>2014-08-05T00:23:10Z</time></trkpt>
<trkpt lat="25.841364" lon="98.916467">
<time>2014-08-05T00:23:11Z</time></trkpt>
<trkpt lat="25.841384" lon="98.916397">
<time>2014-08-05T00:23:12Z</time></trkpt>
<trkpt lat="25.841424" lon="98.916287">
<time>2014-08-05T00:23:13Z</time></trkpt>
<trkpt lat="25.841514" lon="98.916027">
<time>2014-08-05T00:23:14Z</time></trkpt>
<trkpt lat="25.841704" lon="98.915508">
<time>2014-08-05T00:23:15Z</time></trkpt>
<trkpt lat="25.841734" lon="98.915428">
<time>2014-08-05T00:23:16Z</time></trkpt>
<trkpt lat="25.841754" lon="98.915358">
<time>2014-08-05T00:23:17Z</time></trkpt>
<trkpt lat="25.841775" lon="98.915289">
<time>2014-08-05T00:23:18Z</time></trkpt>
<trkpt lat="25.841795" lon="98.915219">
<time>2014-08-05T00:23:19Z</time></trkpt>
<trkpt lat="25.841805" lon="98.915169">
<time>2014-08-05T00:23:20Z</time></trkpt>
<trkpt lat="25.841815" lon="98.915099">
<time>2014-08-05T00:23:21Z</time></trkpt>
<trkpt lat="25.841825" lon="98.915049">
<time>2014-08-05T00:23:22Z</time></trkpt>
<trkpt lat="25.841835" lon="98.914999">
<time>2014-08-05T00:23:23Z</time></trkpt>
<trkpt lat="25.841835" lon="98.914969">
<time>2014-08-05T00:23:24Z</time></trkpt>
<trkpt lat="25.841835" lon="98.914939">
<time>2014-08-05T00:23:25Z</time></trkpt>
<trkpt lat="25.841835" lon="98.914909">
<time>2014-08-05T00:23:26Z</time></trkpt>
<trkpt lat="25.841825" lon="98.914879">
<time>2014-08-05T00:23:27Z</time></trkpt>
<trkpt lat="25.841815" lon="98.914849">
<time>2014-08-05T00:23:28Z</time></trkpt>
<trkpt lat="25.841815" lon="98.914819">
<time>2014-08-05T00:23:29Z</time></trkpt>
<trkpt lat="25.841805" lon="98.914789">
<time>2014-08-05T00:23:30Z</time></trkpt>
<trkpt lat="25.841785" lon="98.914759">
<time>2014-08-05T00:23:31Z</time></trkpt>
<trkpt lat="25.841775" lon="98.914729">
<time>2014-08-05T00:23:32Z</time></trkpt>
<trkpt lat="25.841765" lon="98.914709">
<time>2014-08-05T00:23:33Z</time></trkpt>
<trkpt lat="25.841755" lon="98.914679">
<time>2014-08-05T00:23:34Z</time></trkpt>
<trkpt lat="25.841735" lon="98.914659">
<time>2014-08-05T00:23:35Z</time></trkpt>
<trkpt lat="25.841715" lon="98.91464">
<time>2014-08-05T00:23:36Z</time></trkpt>
<trkpt lat="25.841705" lon="98.91461">
<time>2014-08-05T00:23:37Z</time></trkpt>
<trkpt lat="25.841605" lon="98.91448">
<time>2014-08-05T00:23:38Z</time></trkpt>
<trkpt lat="25.841535" lon="98.91439">
<time>2014-08-05T00:23:39Z</time></trkpt>
<trkpt lat="25.841515" lon="98.91435">
<time>2014-08-05T00:23:40Z</time></trkpt>
<trkpt lat="25.841495" lon="98.91433">
<time>2014-08-05T00:23:41Z</time></trkpt>
<trkpt lat="25.841485" lon="98.91431">
<time>2014-08-05T00:23:42Z</time></trkpt>
<trkpt lat="25.841475" lon="98.91429">
<time>2014-08-05T00:23:43Z</time></trkpt>
<trkpt lat="25.841465" lon="98.91426">
<time>2014-08-05T00:23:44Z</time></trkpt>
<trkpt lat="25.841465" lon="98.91424">
<time>2014-08-05T00:23:45Z</time></trkpt>
<trkpt lat="25.841455" lon="98.91421">
<time>2014-08-05T00:23:46Z</time></trkpt>
<trkpt lat="25.841455" lon="98.91418">
<time>2014-08-05T00:23:47Z</time></trkpt>
<trkpt lat="25.841455" lon="98.91414">
<time>2014-08-05T00:23:48Z</time></trkpt>
<trkpt lat="25.841455" lon="98.91411">
<time>2014-08-05T00:23:49Z</time></trkpt>
<trkpt lat="25.841455" lon="98.91407">
<time>2014-08-05T00:23:50Z</time></trkpt>
<trkpt lat="25.841465" lon="98.91404">
<time>2014-08-05T00:23:51Z</time></trkpt>
<trkpt lat="25.841465" lon="98.914">
<time>2014-08-05T00:23:52Z</time></trkpt>
<trkpt lat="25.841475" lon="98.913951">
<time>2014-08-05T00:23:53Z</time></trkpt>
<trkpt lat="25.841666" lon="98.913232">
<time>2014-08-05T00:23:54Z</time></trkpt>
<trkpt lat="25.841866" lon="98.912572">
<time>2014-08-05T00:23:55Z</time></trkpt>
<trkpt lat="25.841966" lon="98.912153">
<time>2014-08-05T00:23:56Z</time></trkpt>
<trkpt lat="25.842017" lon="98.911953">
<time>2014-08-05T00:23:57Z</time></trkpt>
<trkpt lat="25.842047" lon="98.911813">
<time>2014-08-05T00:23:58Z</time></trkpt>
<trkpt lat="25.842067" lon="98.911684">
<time>2014-08-05T00:23:59Z</time></trkpt>
<trkpt lat="25.842077" lon="98.911604">
<time>2014-08-05T00:24:00Z</time></trkpt>
<trkpt lat="25.842077" lon="98.911544">
<time>2014-08-05T00:24:01Z</time></trkpt>
<trkpt lat="25.842087" lon="98.911494">
<time>2014-08-05T00:24:02Z</time></trkpt>
<trkpt lat="25.842077" lon="98.911434">
<time>2014-08-05T00:24:03Z</time></trkpt>
<trkpt lat="25.842077" lon="98.911384">
<time>2014-08-05T00:24:04Z</time></trkpt>
<trkpt lat="25.842057" lon="98.911334">
<time>2014-08-05T00:24:05Z</time></trkpt>
<trkpt lat="25.842047" lon="98.911284">
<time>2014-08-05T00:24:06Z</time></trkpt>
<trkpt lat="25.842027" lon="98.911244">
<time>2014-08-05T00:24:07Z</time></trkpt>
<trkpt lat="25.841997" lon="98.911174">
<time>2014-08-05T00:24:08Z</time></trkpt>
<trkpt lat="25.841967" lon="98.911084">
<time>2014-08-05T00:24:09Z</time></trkpt>
<trkpt lat="25.841677" lon="98.910445">
<time>2014-08-05T00:24:10Z</time></trkpt>
<trkpt lat="25.841637" lon="98.910355">
<time>2014-08-05T00:24:11Z</time></trkpt>
<trkpt lat="25.841607" lon="98.910275">
<time>2014-08-05T00:24:12Z</time></trkpt>
<trkpt lat="25.841577" lon="98.910206">
<time>2014-08-05T00:24:13Z</time></trkpt>
<trkpt lat="25.841567" lon="98.910136">
<time>2014-08-05T00:24:14Z</time></trkpt>
<trkpt lat="25.841547" lon="98.910076">
<time>2014-08-05T00:24:15Z</time></trkpt>
<trkpt lat="25.841547" lon="98.910006">
<time>2014-08-05T00:24:16Z</time></trkpt>
<trkpt lat="25.841547" lon="98.909946">
<time>2014-08-05T00:24:17Z</time></trkpt>
<trkpt lat="25.841547" lon="98.909876">
<time>2014-08-05T00:24:18Z</time></trkpt>
<trkpt lat="25.841547" lon="98.909806">
<time>2014-08-05T00:24:19Z</time></trkpt>
<trkpt lat="25.841557" lon="98.909726">
<time>2014-08-05T00:24:20Z</time></trkpt>
<trkpt lat="25.841617" lon="98.909157">
<time>2014-08-05T00:24:21Z</time></trkpt>
<trkpt lat="25.841647" lon="98.909027">
<time>2014-08-05T00:24:22Z</time></trkpt>
<trkpt lat="25.841657" lon="98.908947">
<time>2014-08-05T00:24:23Z</time></trkpt>
<trkpt lat="25.841658" lon="98.908877">
<time>2014-08-05T00:24:24Z</time></trkpt>
<trkpt lat="25.841668" lon="98.908807">
<time>2014-08-05T00:24:25Z</time></trkpt>
<trkpt lat="25.841668" lon="98.908727">
<time>2014-08-05T00:24:26Z</time></trkpt>
<trkpt lat="25.841658" lon="98.908647">
<time>2014-08-05T00:24:27Z</time></trkpt>
<trkpt lat="25.841648" lon="98.908558">
<time>2014-08-05T00:24:28Z</time></trkpt>
<trkpt lat="25.841638" lon="98.908478">
<time>2014-08-05T00:24:29Z</time></trkpt>
<trkpt lat="25.841628" lon="98.908398">
<time>2014-08-05T00:24:30Z</time></trkpt>
<trkpt lat="25.841618" lon="98.908318">
<time>2014-08-05T00:24:31Z</time></trkpt>
<trkpt lat="25.841598" lon="98.908238">
<time>2014-08-05T00:24:32Z</time></trkpt>
<trkpt lat="25.841568" lon="98.908158">
<time>2014-08-05T00:24:33Z</time></trkpt>
<trkpt lat="25.841548" lon="98.908088">
<time>2014-08-05T00:24:34Z</time></trkpt>
<trkpt lat="25.841518" lon="98.908028">
<time>2014-08-05T00:24:35Z</time></trkpt>
<trkpt lat="25.841488" lon="98.907968">
<time>2014-08-05T00:24:36Z</time></trkpt>
<trkpt lat="25.841468" lon="98.907928">
<time>2014-08-05T00:24:37Z</time></trkpt>
<trkpt lat="25.841438" lon="98.907878">
<time>2014-08-05T00:24:38Z</time></trkpt>
<trkpt lat="25.841398" lon="98.907838">
<time>2014-08-05T00:24:39Z</time></trkpt>
<trkpt lat="25.841348" lon="98.907798">
<time>2014-08-05T00:24:40Z</time></trkpt>
<trkpt lat="25.841308" lon="98.907758">
<time>2014-08-05T00:24:41Z</time></trkpt>
<trkpt lat="25.841248" lon="98.907729">
<time>2014-08-05T00:24:42Z</time></trkpt>
<trkpt lat="25.840277" lon="98.907209">
<time>2014-08-05T00:24:43Z</time></trkpt>
<trkpt lat="25.839457" lon="98.90679">
<time>2014-08-05T00:24:44Z</time></trkpt>
<trkpt lat="25.839387" lon="98.90674">
<time>2014-08-05T00:24:45Z</time></trkpt>
<trkpt lat="25.839327" lon="98.90671">
<time>2014-08-05T00:24:46Z</time></trkpt>
<trkpt lat="25.839287" lon="98.90667">
<time>2014-08-05T00:24:47Z</time></trkpt>
<trkpt lat="25.839247" lon="98.90664">
<time>2014-08-05T00:24:48Z</time></trkpt>
<trkpt lat="25.839217" lon="98.9066">
<time>2014-08-05T00:24:49Z</time></trkpt>
<trkpt lat="25.839187" lon="98.90655">
<time>2014-08-05T00:24:50Z</time></trkpt>
<trkpt lat="25.839157" lon="98.9065">
<time>2014-08-05T00:24:51Z</time></trkpt>
<trkpt lat="25.839127" lon="98.90644">
<time>2014-08-05T00:24:52Z</time></trkpt>
<trkpt lat="25.839107" lon="98.90637">
<time>2014-08-05T00:24:53Z</time></trkpt>
<trkpt lat="25.839077" lon="98.90628">
<time>2014-08-05T00:24:54Z</time></trkpt>
<trkpt lat="25.839037" lon="98.90616">
<time>2014-08-05T00:24:55Z</time></trkpt>
<trkpt lat="25.838947" lon="98.905871">
<time>2014-08-05T00:24:56Z</time></trkpt>
<trkpt lat="25.838917" lon="98.905791">
<time>2014-08-05T00:24:57Z</time></trkpt>
<trkpt lat="25.838887" lon="98.905721">
<time>2014-08-05T00:24:58Z</time></trkpt>
<trkpt lat="25.838857" lon="98.905661">
<time>2014-08-05T00:24:59Z</time></trkpt>
<trkpt lat="25.838826" lon="98.905601">
<time>2014-08-05T00:25:00Z</time></trkpt>
<trkpt lat="25.838786" lon="98.905531">
<time>2014-08-05T00:25:01Z</time></trkpt>
<trkpt lat="25.838716" lon="98.905431">
<time>2014-08-05T00:25:02Z</time></trkpt>
<trkpt lat="25.838636" lon="98.905311">
<time>2014-08-05T00:25:03Z</time></trkpt>
<trkpt lat="25.838586" lon="98.905241">
<time>2014-08-05T00:25:04Z</time></trkpt>
<trkpt lat="25.838546" lon="98.905201">
<time>2014-08-05T00:25:05Z</time></trkpt>
<trkpt lat="25.838506" lon="98.905161">
<time>2014-08-05T00:25:06Z</time></trkpt>
<trkpt lat="25.838466" lon="98.905121">
<time>2014-08-05T00:25:07Z</time></trkpt>
<trkpt lat="25.838426" lon="98.905091">
<time>2014-08-05T00:25:08Z</time></trkpt>
<trkpt lat="25.838376" lon="98.905061">
<time>2014-08-05T00:25:09Z</time></trkpt>
<trkpt lat="25.838316" lon="98.905041">
<time>2014-08-05T00:25:10Z</time></trkpt>
<trkpt lat="25.838256" lon="98.905021">
<time>2014-08-05T00:25:11Z</time></trkpt>
<trkpt lat="25.837996" lon="98.904952">
<time>2014-08-05T00:25:12Z</time></trkpt>
<trkpt lat="25.837906" lon="98.904912">
<time>2014-08-05T00:25:13Z</time></trkpt>
<trkpt lat="25.837816" lon="98.904872">
<time>2014-08-05T00:25:14Z</time></trkpt>
<trkpt lat="25.837726" lon="98.904822">
<time>2014-08-05T00:25:15Z</time></trkpt>
<trkpt lat="25.837616" lon="98.904752">
<time>2014-08-05T00:25:16Z</time></trkpt>
<trkpt lat="25.837536" lon="98.904692">
<time>2014-08-05T00:25:17Z</time></trkpt>
<trkpt lat="25.837456" lon="98.904622">
<time>2014-08-05T00:25:18Z</time></trkpt>
<trkpt lat="25.837396" lon="98.904552">
<time>2014-08-05T00:25:19Z</time></trkpt>
<trkpt lat="25.837336" lon="98.904482">
<time>2014-08-05T00:25:20Z</time></trkpt>
<trkpt lat="25.837136" lon="98.904192">
<time>2014-08-05T00:25:21Z</time></trkpt>
<trkpt lat="25.837096" lon="98.904142">
<time>2014-08-05T00:25:22Z</time></trkpt>
<trkpt lat="25.837066" lon="98.904102">
<time>2014-08-05T00:25:23Z</time></trkpt>
<trkpt lat="25.837026" lon="98.904062">
<time>2014-08-05T00:25:24Z</time></trkpt>
<trkpt lat="25.836996" lon="98.904022">
<time>2014-08-05T00:25:25Z</time></trkpt>
<trkpt lat="25.836785" lon="98.903823">
<time>2014-08-05T00:25:26Z</time></trkpt>
<trkpt lat="25.836745" lon="98.903783">
<time>2014-08-05T00:25:27Z</time></trkpt>
<trkpt lat="25.836715" lon="98.903723">
<time>2014-08-05T00:25:28Z</time></trkpt>
<trkpt lat="25.836675" lon="98.903673">
<time>2014-08-05T00:25:29Z</time></trkpt>
<trkpt lat="25.836655" lon="98.903623">
<time>2014-08-05T00:25:30Z</time></trkpt>
<trkpt lat="25.836625" lon="98.903543">
<time>2014-08-05T00:25:31Z</time></trkpt>
<trkpt lat="25.836605" lon="98.903473">
<time>2014-08-05T00:25:32Z</time></trkpt>
<trkpt lat="25.836585" lon="98.903393">
<time>2014-08-05T00:25:33Z</time></trkpt>
<trkpt lat="25.836565" lon="98.903313">
<time>2014-08-05T00:25:34Z</time></trkpt>
<trkpt lat="25.836555" lon="98.903213">
<time>2014-08-05T00:25:35Z</time></trkpt>
<trkpt lat="25.836545" lon="98.903093">
<time>2014-08-05T00:25:36Z</time></trkpt>
<trkpt lat="25.836535" lon="98.902973">
<time>2014-08-05T00:25:37Z</time></trkpt>
<trkpt lat="25.836535" lon="98.902834">
<time>2014-08-05T00:25:38Z</time></trkpt>
<trkpt lat="25.836545" lon="98.902694">
<time>2014-08-05T00:25:39Z</time></trkpt>
<trkpt lat="25.836555" lon="98.902554">
<time>2014-08-05T00:25:40Z</time></trkpt>
<trkpt lat="25.836575" lon="98.902414">
<time>2014-08-05T00:25:41Z</time></trkpt>
<trkpt lat="25.836595" lon="98.902274">
<time>2014-08-05T00:25:42Z</time></trkpt>
<trkpt lat="25.836625" lon="98.902114">
<time>2014-08-05T00:25:43Z</time></trkpt>
<trkpt lat="25.836655" lon="98.901954">
<time>2014-08-05T00:25:44Z</time></trkpt>
<trkpt lat="25.836685" lon="98.901814">
<time>2014-08-05T00:25:45Z</time></trkpt>
<trkpt lat="25.836715" lon="98.901684">
<time>2014-08-05T00:25:46Z</time></trkpt>
<trkpt lat="25.836746" lon="98.901575">
<time>2014-08-05T00:25:47Z</time></trkpt>
<trkpt lat="25.836776" lon="98.901475">
<time>2014-08-05T00:25:48Z</time></trkpt>
<trkpt lat="25.836806" lon="98.901365">
<time>2014-08-05T00:25:49Z</time></trkpt>
<trkpt lat="25.836846" lon="98.901255">
<time>2014-08-05T00:25:50Z</time></trkpt>
<trkpt lat="25.836896" lon="98.901125">
<time>2014-08-05T00:25:51Z</time></trkpt>
<trkpt lat="25.836946" lon="98.900995">
<time>2014-08-05T00:25:52Z</time></trkpt>
<trkpt lat="25.837026" lon="98.900795">
<time>2014-08-05T00:25:53Z</time></trkpt>
<trkpt lat="25.837116" lon="98.900585">
<time>2014-08-05T00:25:54Z</time></trkpt>
<trkpt lat="25.837186" lon="98.900435">
<time>2014-08-05T00:25:55Z</time></trkpt>
<trkpt lat="25.837256" lon="98.900296">
<time>2014-08-05T00:25:56Z</time></trkpt>
<trkpt lat="25.837316" lon="98.900196">
<time>2014-08-05T00:25:57Z</time></trkpt>
<trkpt lat="25.837386" lon="98.900116">
<time>2014-08-05T00:25:58Z</time></trkpt>
<trkpt lat="25.837436" lon="98.900046">
<time>2014-08-05T00:25:59Z</time></trkpt>
<trkpt lat="25.837506" lon="98.899966">
<time>2014-08-05T00:26:00Z</time></trkpt>
<trkpt lat="25.837906" lon="98.899496">
<time>2014-08-05T00:26:01Z</time></trkpt>
<trkpt lat="25.838597" lon="98.898627">
<time>2014-08-05T00:26:02Z</time></trkpt>
<trkpt lat="25.838637" lon="98.898567">
<time>2014-08-05T00:26:03Z</time></trkpt>
<trkpt lat="25.838677" lon="98.898507">
<time>2014-08-05T00:26:04Z</time></trkpt>
<trkpt lat="25.838707" lon="98.898447">
<time>2014-08-05T00:26:05Z</time></trkpt>
<trkpt lat="25.838737" lon="98.898387">
<time>2014-08-05T00:26:06Z</time></trkpt>
<trkpt lat="25.838757" lon="98.898337">
<time>2014-08-05T00:26:07Z</time></trkpt>
<trkpt lat="25.838787" lon="98.898277">
<time>2014-08-05T00:26:08Z</time></trkpt>
<trkpt lat="25.838807" lon="98.898207">
<time>2014-08-05T00:26:09Z</time></trkpt>
<trkpt lat="25.838827" lon="98.898137">
<time>2014-08-05T00:26:10Z</time></trkpt>
<trkpt lat="25.838847" lon="98.898057">
<time>2014-08-05T00:26:11Z</time></trkpt>
<trkpt lat="25.838857" lon="98.897977">
<time>2014-08-05T00:26:12Z</time></trkpt>
<trkpt lat="25.838867" lon="98.897917">
<time>2014-08-05T00:26:13Z</time></trkpt>
<trkpt lat="25.838877" lon="98.897857">
<time>2014-08-05T00:26:14Z</time></trkpt>
<trkpt lat="25.838877" lon="98.897807">
<time>2014-08-05T00:26:15Z</time></trkpt>
<trkpt lat="25.838877" lon="98.897757">
<time>2014-08-05T00:26:16Z</time></trkpt>
<trkpt lat="25.838877" lon="98.897697">
<time>2014-08-05T00:26:17Z</time></trkpt>
<trkpt lat="25.838867" lon="98.897647">
<time>2014-08-05T00:26:18Z</time></trkpt>
<trkpt lat="25.838857" lon="98.897597">
<time>2014-08-05T00:26:19Z</time></trkpt>
<trkpt lat="25.838837" lon="98.897547">
<time>2014-08-05T00:26:20Z</time></trkpt>
<trkpt lat="25.838817" lon="98.897497">
<time>2014-08-05T00:26:21Z</time></trkpt>
<trkpt lat="25.838797" lon="98.897448">
<time>2014-08-05T00:26:22Z</time></trkpt>
<trkpt lat="25.838766" lon="98.897388">
<time>2014-08-05T00:26:23Z</time></trkpt>
<trkpt lat="25.838596" lon="98.897078">
<time>2014-08-05T00:26:24Z</time></trkpt>
<trkpt lat="25.838566" lon="98.897018">
<time>2014-08-05T00:26:25Z</time></trkpt>
<trkpt lat="25.838536" lon="98.896948">
<time>2014-08-05T00:26:26Z</time></trkpt>
<trkpt lat="25.838516" lon="98.896898">
<time>2014-08-05T00:26:27Z</time></trkpt>
<trkpt lat="25.838506" lon="98.896848">
<time>2014-08-05T00:26:28Z</time></trkpt>
<trkpt lat="25.838506" lon="98.896788">
<time>2014-08-05T00:26:29Z</time></trkpt>
<trkpt lat="25.838506" lon="98.896738">
<time>2014-08-05T00:26:30Z</time></trkpt>
<trkpt lat="25.838506" lon="98.896678">
<time>2014-08-05T00:26:31Z</time></trkpt>
<trkpt lat="25.838516" lon="98.896628">
<time>2014-08-05T00:26:32Z</time></trkpt>
<trkpt lat="25.838536" lon="98.896568">
<time>2014-08-05T00:26:33Z</time></trkpt>
<trkpt lat="25.838556" lon="98.896498">
<time>2014-08-05T00:26:34Z</time></trkpt>
<trkpt lat="25.838586" lon="98.896418">
<time>2014-08-05T00:26:35Z</time></trkpt>
<trkpt lat="25.838666" lon="98.896238">
<time>2014-08-05T00:26:36Z</time></trkpt>
<trkpt lat="25.838756" lon="98.896028">
<time>2014-08-05T00:26:37Z</time></trkpt>
<trkpt lat="25.838786" lon="98.895968">
<time>2014-08-05T00:26:38Z</time></trkpt>
<trkpt lat="25.838806" lon="98.895918">
<time>2014-08-05T00:26:39Z</time></trkpt>
<trkpt lat="25.838826" lon="98.895848">
<time>2014-08-05T00:26:40Z</time></trkpt>
<trkpt lat="25.838836" lon="98.895788">
<time>2014-08-05T00:26:41Z</time></trkpt>
<trkpt lat="25.838856" lon="98.895719">
<time>2014-08-05T00:26:42Z</time></trkpt>
<trkpt lat="25.838876" lon="98.895639">
<time>2014-08-05T00:26:43Z</time></trkpt>
<trkpt lat="25.839036" lon="98.894939">
<time>2014-08-05T00:26:44Z</time></trkpt>
<trkpt lat="25.839136" lon="98.894439">
<time>2014-08-05T00:26:45Z</time></trkpt>
<trkpt lat="25.839156" lon="98.894299">
<time>2014-08-05T00:26:46Z</time></trkpt>
<trkpt lat="25.839176" lon="98.894209">
<time>2014-08-05T00:26:47Z</time></trkpt>
<trkpt lat="25.839176" lon="98.894149">
<time>2014-08-05T00:26:48Z</time></trkpt>
<trkpt lat="25.839176" lon="98.894079">
<time>2014-08-05T00:26:49Z</time></trkpt>
<trkpt lat="25.839176" lon="98.894009">
<time>2014-08-05T00:26:50Z</time></trkpt>
<trkpt lat="25.839176" lon="98.893999">
<time>2014-08-05T00:26:51Z</time></trkpt>
<trkpt lat="25.839176" lon="98.893939">
<time>2014-08-05T00:26:52Z</time></trkpt>
<trkpt lat="25.839166" lon="98.893859">
<time>2014-08-05T00:26:53Z</time></trkpt>
<trkpt lat="25.839156" lon="98.893779">
<time>2014-08-05T00:26:54Z</time></trkpt>
<trkpt lat="25.839126" lon="98.89362">
<time>2014-08-05T00:26:55Z</time></trkpt>
<trkpt lat="25.839116" lon="98.89353">
<time>2014-08-05T00:26:56Z</time></trkpt>
<trkpt lat="25.839106" lon="98.89345">
<time>2014-08-05T00:26:57Z</time></trkpt>
<trkpt lat="25.839106" lon="98.89335">
<time>2014-08-05T00:26:58Z</time></trkpt>
<trkpt lat="25.839106" lon="98.89326">
<time>2014-08-05T00:26:59Z</time></trkpt>
<trkpt lat="25.839116" lon="98.89315">
<time>2014-08-05T00:27:00Z</time></trkpt>
<trkpt lat="25.839126" lon="98.89305">
<time>2014-08-05T00:27:01Z</time></trkpt>
<trkpt lat="25.839215" lon="98.89242">
<time>2014-08-05T00:27:02Z</time></trkpt>
<trkpt lat="25.839235" lon="98.89233">
<time>2014-08-05T00:27:03Z</time></trkpt>
<trkpt lat="25.839245" lon="98.89224">
<time>2014-08-05T00:27:04Z</time></trkpt>
<trkpt lat="25.839255" lon="98.89217">
<time>2014-08-05T00:27:05Z</time></trkpt>
<trkpt lat="25.839255" lon="98.89209">
<time>2014-08-05T00:27:06Z</time></trkpt>
<trkpt lat="25.839245" lon="98.892">
<time>2014-08-05T00:27:07Z</time></trkpt>
<trkpt lat="25.839235" lon="98.89192">
<time>2014-08-05T00:27:08Z</time></trkpt>
<trkpt lat="25.839215" lon="98.89185">
<time>2014-08-05T00:27:09Z</time></trkpt>
<trkpt lat="25.839175" lon="98.89168">
<time>2014-08-05T00:27:10Z</time></trkpt>
<trkpt lat="25.839165" lon="98.89158">
<time>2014-08-05T00:27:11Z</time></trkpt>
<trkpt lat="25.839155" lon="98.89151">
<time>2014-08-05T00:27:12Z</time></trkpt>
<trkpt lat="25.839145" lon="98.89144">
<time>2014-08-05T00:27:13Z</time></trkpt>
<trkpt lat="25.839145" lon="98.89135">
<time>2014-08-05T00:27:14Z</time></trkpt>
<trkpt lat="25.839145" lon="98.89125">
<time>2014-08-05T00:27:15Z</time></trkpt>
<trkpt lat="25.839234" lon="98.889531">
<time>2014-08-05T00:27:16Z</time></trkpt>
<trkpt lat="25.839244" lon="98.889341">
<time>2014-08-05T00:27:17Z</time></trkpt>
<trkpt lat="25.839264" lon="98.889181">
<time>2014-08-05T00:27:18Z</time></trkpt>
<trkpt lat="25.839284" lon="98.889041">
<time>2014-08-05T00:27:19Z</time></trkpt>
<trkpt lat="25.839304" lon="98.888951">
<time>2014-08-05T00:27:20Z</time></trkpt>
<trkpt lat="25.839324" lon="98.888861">
<time>2014-08-05T00:27:21Z</time></trkpt>
<trkpt lat="25.839354" lon="98.888771">
<time>2014-08-05T00:27:22Z</time></trkpt>
<trkpt lat="25.839394" lon="98.888671">
<time>2014-08-05T00:27:23Z</time></trkpt>
<trkpt lat="25.839454" lon="98.888541">
<time>2014-08-05T00:27:24Z</time></trkpt>
<trkpt lat="25.839604" lon="98.888251">
<time>2014-08-05T00:27:25Z</time></trkpt>
<trkpt lat="25.839634" lon="98.888191">
<time>2014-08-05T00:27:26Z</time></trkpt>
<trkpt lat="25.839974" lon="98.887591">
<time>2014-08-05T00:27:27Z</time></trkpt>
<trkpt lat="25.840633" lon="98.886341">
<time>2014-08-05T00:27:28Z</time></trkpt>
<trkpt lat="25.840753" lon="98.886102">
<time>2014-08-05T00:27:29Z</time></trkpt>
<trkpt lat="25.840883" lon="98.885872">
<time>2014-08-05T00:27:30Z</time></trkpt>
<trkpt lat="25.841023" lon="98.885562">
<time>2014-08-05T00:27:31Z</time></trkpt>
<trkpt lat="25.841692" lon="98.884132">
<time>2014-08-05T00:27:32Z</time></trkpt>
<trkpt lat="25.841742" lon="98.884022">
<time>2014-08-05T00:27:33Z</time></trkpt>
<trkpt lat="25.841802" lon="98.883922">
<time>2014-08-05T00:27:34Z</time></trkpt>
<trkpt lat="25.841872" lon="98.883822">
<time>2014-08-05T00:27:35Z</time></trkpt>
<trkpt lat="25.841962" lon="98.883692">
<time>2014-08-05T00:27:36Z</time></trkpt>
<trkpt lat="25.842032" lon="98.883602">
<time>2014-08-05T00:27:37Z</time></trkpt>
<trkpt lat="25.842292" lon="98.883272">
<time>2014-08-05T00:27:38Z</time></trkpt>
<trkpt lat="25.842562" lon="98.882962">
<time>2014-08-05T00:27:39Z</time></trkpt>
<trkpt lat="25.842652" lon="98.882842">
<time>2014-08-05T00:27:40Z</time></trkpt>
<trkpt lat="25.842732" lon="98.882742">
<time>2014-08-05T00:27:41Z</time></trkpt>
<trkpt lat="25.842812" lon="98.882612">
<time>2014-08-05T00:27:42Z</time></trkpt>
<trkpt lat="25.843641" lon="98.881251">
<time>2014-08-05T00:27:43Z</time></trkpt>
<trkpt lat="25.844121" lon="98.880561">
<time>2014-08-05T00:27:44Z</time></trkpt>
<trkpt lat="25.844491" lon="98.880031">
<time>2014-08-05T00:27:45Z</time></trkpt>
<trkpt lat="25.844971" lon="98.879341">
<time>2014-08-05T00:27:46Z</time></trkpt>
<trkpt lat="25.845051" lon="98.879211">
<time>2014-08-05T00:27:47Z</time></trkpt>
<trkpt lat="25.845131" lon="98.879091">
<time>2014-08-05T00:27:48Z</time></trkpt>
<trkpt lat="25.845211" lon="98.878951">
<time>2014-08-05T00:27:49Z</time></trkpt>
<trkpt lat="25.84528" lon="98.878831">
<time>2014-08-05T00:27:50Z</time></trkpt>
<trkpt lat="25.84536" lon="98.878681">
<time>2014-08-05T00:27:51Z</time></trkpt>
<trkpt lat="25.84542" lon="98.878561">
<time>2014-08-05T00:27:52Z</time></trkpt>
<trkpt lat="25.847128" lon="98.87502">
<time>2014-08-05T00:27:53Z</time></trkpt>
<trkpt lat="25.847218" lon="98.87482">
<time>2014-08-05T00:27:54Z</time></trkpt>
<trkpt lat="25.847278" lon="98.87467">
<time>2014-08-05T00:27:55Z</time></trkpt>
<trkpt lat="25.847318" lon="98.87456">
<time>2014-08-05T00:27:56Z</time></trkpt>
<trkpt lat="25.847347" lon="98.87443">
<time>2014-08-05T00:27:57Z</time></trkpt>
<trkpt lat="25.847367" lon="98.87432">
<time>2014-08-05T00:27:58Z</time></trkpt>
<trkpt lat="25.847377" lon="98.87422">
<time>2014-08-05T00:27:59Z</time></trkpt>
<trkpt lat="25.847387" lon="98.87412">
<time>2014-08-05T00:28:00Z</time></trkpt>
<trkpt lat="25.847387" lon="98.874">
<time>2014-08-05T00:28:01Z</time></trkpt>
<trkpt lat="25.847387" lon="98.873859">
<time>2014-08-05T00:28:02Z</time></trkpt>
<trkpt lat="25.847356" lon="98.873409">
<time>2014-08-05T00:28:03Z</time></trkpt>
<trkpt lat="25.847204" lon="98.871759">
<time>2014-08-05T00:28:04Z</time></trkpt>
<trkpt lat="25.847174" lon="98.871448">
<time>2014-08-05T00:28:05Z</time></trkpt>
<trkpt lat="25.847164" lon="98.871148">
<time>2014-08-05T00:28:06Z</time></trkpt>
<trkpt lat="25.847122" lon="98.869798">
<time>2014-08-05T00:28:07Z</time></trkpt>
<trkpt lat="25.847112" lon="98.869637">
<time>2014-08-05T00:28:08Z</time></trkpt>
<trkpt lat="25.847112" lon="98.869507">
<time>2014-08-05T00:28:09Z</time></trkpt>
<trkpt lat="25.847092" lon="98.869387">
<time>2014-08-05T00:28:10Z</time></trkpt>
<trkpt lat="25.847071" lon="98.869247">
<time>2014-08-05T00:28:11Z</time></trkpt>
<trkpt lat="25.847031" lon="98.869107">
<time>2014-08-05T00:28:12Z</time></trkpt>
<trkpt lat="25.846951" lon="98.868857">
<time>2014-08-05T00:28:13Z</time></trkpt>
<trkpt lat="25.846589" lon="98.867756">
<time>2014-08-05T00:28:14Z</time></trkpt>
<trkpt lat="25.846549" lon="98.867636">
<time>2014-08-05T00:28:15Z</time></trkpt>
<trkpt lat="25.846519" lon="98.867556">
<time>2014-08-05T00:28:16Z</time></trkpt>
<trkpt lat="25.846509" lon="98.867536">
<time>2014-08-05T00:28:17Z</time></trkpt>
<trkpt lat="25.846489" lon="98.867486">
<time>2014-08-05T00:28:18Z</time></trkpt>
<trkpt lat="25.846469" lon="98.867436">
<time>2014-08-05T00:28:19Z</time></trkpt>
<trkpt lat="25.846449" lon="98.867386">
<time>2014-08-05T00:28:20Z</time></trkpt>
<trkpt lat="25.846408" lon="98.867326">
<time>2014-08-05T00:28:21Z</time></trkpt>
<trkpt lat="25.846368" lon="98.867256">
<time>2014-08-05T00:28:22Z</time></trkpt>
<trkpt lat="25.846288" lon="98.867146">
<time>2014-08-05T00:28:23Z</time></trkpt>
<trkpt lat="25.845296" lon="98.865815">
<time>2014-08-05T00:28:24Z</time></trkpt>
<trkpt lat="25.845246" lon="98.865755">
<time>2014-08-05T00:28:25Z</time></trkpt>
<trkpt lat="25.845206" lon="98.865695">
<time>2014-08-05T00:28:26Z</time></trkpt>
<trkpt lat="25.845175" lon="98.865635">
<time>2014-08-05T00:28:27Z</time></trkpt>
<trkpt lat="25.845135" lon="98.865565">
<time>2014-08-05T00:28:28Z</time></trkpt>
<trkpt lat="25.845105" lon="98.865495">
<time>2014-08-05T00:28:29Z</time></trkpt>
<trkpt lat="25.845075" lon="98.865425">
<time>2014-08-05T00:28:30Z</time></trkpt>
<trkpt lat="25.845055" lon="98.865365">
<time>2014-08-05T00:28:31Z</time></trkpt>
<trkpt lat="25.845035" lon="98.865295">
<time>2014-08-05T00:28:32Z</time></trkpt>
<trkpt lat="25.845025" lon="98.865225">
<time>2014-08-05T00:28:33Z</time></trkpt>
<trkpt lat="25.845015" lon="98.865165">
<time>2014-08-05T00:28:34Z</time></trkpt>
<trkpt lat="25.845015" lon="98.865095">
<time>2014-08-05T00:28:35Z</time></trkpt>
<trkpt lat="25.845015" lon="98.865015">
<time>2014-08-05T00:28:36Z</time></trkpt>
<trkpt lat="25.845014" lon="98.864945">
<time>2014-08-05T00:28:37Z</time></trkpt>
<trkpt lat="25.845024" lon="98.864864">
<time>2014-08-05T00:28:38Z</time></trkpt>
<trkpt lat="25.845044" lon="98.864784">
<time>2014-08-05T00:28:39Z</time></trkpt>
<trkpt lat="25.845064" lon="98.864714">
<time>2014-08-05T00:28:40Z</time></trkpt>
<trkpt lat="25.845084" lon="98.864644">
<time>2014-08-05T00:28:41Z</time></trkpt>
<trkpt lat="25.845104" lon="98.864564">
<time>2014-08-05T00:28:42Z</time></trkpt>
<trkpt lat="25.845742" lon="98.862763">
<time>2014-08-05T00:28:43Z</time></trkpt>
<trkpt lat="25.845802" lon="98.862623">
<time>2014-08-05T00:28:44Z</time></trkpt>
<trkpt lat="25.845862" lon="98.862493">
<time>2014-08-05T00:28:45Z</time></trkpt>
<trkpt lat="25.845941" lon="98.862353">
<time>2014-08-05T00:28:46Z</time></trkpt>
<trkpt lat="25.846021" lon="98.862222">
<time>2014-08-05T00:28:47Z</time></trkpt>
<trkpt lat="25.846141" lon="98.862042">
<time>2014-08-05T00:28:48Z</time></trkpt>
<trkpt lat="25.846331" lon="98.861742">
<time>2014-08-05T00:28:49Z</time></trkpt>
<trkpt lat="25.84689" lon="98.860941">
<time>2014-08-05T00:28:50Z</time></trkpt>
<trkpt lat="25.84699" lon="98.860821">
<time>2014-08-05T00:28:51Z</time></trkpt>
<trkpt lat="25.8471" lon="98.860681">
<time>2014-08-05T00:28:52Z</time></trkpt>
<trkpt lat="25.84725" lon="98.860501">
<time>2014-08-05T00:28:53Z</time></trkpt>
<trkpt lat="25.847599" lon="98.860141">
<time>2014-08-05T00:28:54Z</time></trkpt>
<trkpt lat="25.847679" lon="98.860061">
<time>2014-08-05T00:28:55Z</time></trkpt>
<trkpt lat="25.847729" lon="98.860001">
<time>2014-08-05T00:28:56Z</time></trkpt>
<trkpt lat="25.847769" lon="98.859951">
<time>2014-08-05T00:28:57Z</time></trkpt>
<trkpt lat="25.847799" lon="98.859901">
<time>2014-08-05T00:28:58Z</time></trkpt>
<trkpt lat="25.847829" lon="98.85983">
<time>2014-08-05T00:28:59Z</time></trkpt>
<trkpt lat="25.847859" lon="98.85977">
<time>2014-08-05T00:29:00Z</time></trkpt>
<trkpt lat="25.848128" lon="98.85905">
<time>2014-08-05T00:29:01Z</time></trkpt>
<trkpt lat="25.848218" lon="98.85877">
<time>2014-08-05T00:29:02Z</time></trkpt>
<trkpt lat="25.848248" lon="98.858669">
<time>2014-08-05T00:29:03Z</time></trkpt>
<trkpt lat="25.848277" lon="98.858589">
<time>2014-08-05T00:29:04Z</time></trkpt>
<trkpt lat="25.848327" lon="98.858509">
<time>2014-08-05T00:29:05Z</time></trkpt>
<trkpt lat="25.848367" lon="98.858419">
<time>2014-08-05T00:29:06Z</time></trkpt>
<trkpt lat="25.848427" lon="98.858329">
<time>2014-08-05T00:29:07Z</time></trkpt>
<trkpt lat="25.848497" lon="98.858229">
<time>2014-08-05T00:29:08Z</time></trkpt>
<trkpt lat="25.848567" lon="98.858149">
<time>2014-08-05T00:29:09Z</time></trkpt>
<trkpt lat="25.848707" lon="98.857989">
<time>2014-08-05T00:29:10Z</time></trkpt>
<trkpt lat="25.849446" lon="98.857158">
<time>2014-08-05T00:29:11Z</time></trkpt>
<trkpt lat="25.849546" lon="98.857048">
<time>2014-08-05T00:29:12Z</time></trkpt>
<trkpt lat="25.849626" lon="98.856968">
<time>2014-08-05T00:29:13Z</time></trkpt>
<trkpt lat="25.849916" lon="98.856778">
<time>2014-08-05T00:29:14Z</time></trkpt>
<trkpt lat="25.850056" lon="98.856678">
<time>2014-08-05T00:29:15Z</time></trkpt>
<trkpt lat="25.850276" lon="98.856547">
<time>2014-08-05T00:29:16Z</time></trkpt>
<trkpt lat="25.850276" lon="98.856547">
<time>2014-08-05T00:29:17Z</time></trkpt>
<trkpt lat="25.850356" lon="98.856527">
<time>2014-08-05T00:29:18Z</time></trkpt>
<trkpt lat="25.850996" lon="98.856217">
<time>2014-08-05T00:29:19Z</time></trkpt>
<trkpt lat="25.851016" lon="98.856207">
<time>2014-08-05T00:29:20Z</time></trkpt>
<trkpt lat="25.851726" lon="98.855887">
<time>2014-08-05T00:29:21Z</time></trkpt>
<trkpt lat="25.852275" lon="98.855597">
<time>2014-08-05T00:29:22Z</time></trkpt>
<trkpt lat="25.852685" lon="98.855386">
<time>2014-08-05T00:29:23Z</time></trkpt>
<trkpt lat="25.853195" lon="98.855126">
<time>2014-08-05T00:29:24Z</time></trkpt>
<trkpt lat="25.853265" lon="98.855096">
<time>2014-08-05T00:29:25Z</time></trkpt>
<trkpt lat="25.853535" lon="98.854946">
<time>2014-08-05T00:29:26Z</time></trkpt>
<trkpt lat="25.854075" lon="98.854616">
<time>2014-08-05T00:29:27Z</time></trkpt>
<trkpt lat="25.854095" lon="98.854606">
<time>2014-08-05T00:29:28Z</time></trkpt>
<trkpt lat="25.855275" lon="98.853885">
<time>2014-08-05T00:29:29Z</time></trkpt>
<trkpt lat="25.855325" lon="98.853835">
<time>2014-08-05T00:29:30Z</time></trkpt>
<trkpt lat="25.855785" lon="98.853604">
<time>2014-08-05T00:29:31Z</time></trkpt>
<trkpt lat="25.857035" lon="98.853074">
<time>2014-08-05T00:29:32Z</time></trkpt>
<trkpt lat="25.857625" lon="98.852854">
<time>2014-08-05T00:29:33Z</time></trkpt>
<trkpt lat="25.858975" lon="98.852513">
<time>2014-08-05T00:29:34Z</time></trkpt>
<trkpt lat="25.859065" lon="98.852493">
<time>2014-08-05T00:29:35Z</time></trkpt>
<trkpt lat="25.859175" lon="98.852473">
<time>2014-08-05T00:29:36Z</time></trkpt>
<trkpt lat="25.859385" lon="98.852423">
<time>2014-08-05T00:29:37Z</time></trkpt>
<trkpt lat="25.859795" lon="98.852313">
<time>2014-08-05T00:29:38Z</time></trkpt>
<trkpt lat="25.860045" lon="98.852233">
<time>2014-08-05T00:29:39Z</time></trkpt>
<trkpt lat="25.860185" lon="98.852193">
<time>2014-08-05T00:29:40Z</time></trkpt>
<trkpt lat="25.860525" lon="98.852103">
<time>2014-08-05T00:29:41Z</time></trkpt>
<trkpt lat="25.860955" lon="98.852013">
<time>2014-08-05T00:29:42Z</time></trkpt>
<trkpt lat="25.861216" lon="98.851973">
<time>2014-08-05T00:29:43Z</time></trkpt>
<trkpt lat="25.861476" lon="98.851903">
<time>2014-08-05T00:29:44Z</time></trkpt>
<trkpt lat="25.861826" lon="98.851752">
<time>2014-08-05T00:29:45Z</time></trkpt>
<trkpt lat="25.862166" lon="98.851582">
<time>2014-08-05T00:29:46Z</time></trkpt>
<trkpt lat="25.862515" lon="98.851422">
<time>2014-08-05T00:29:47Z</time></trkpt>
<trkpt lat="25.862955" lon="98.851212">
<time>2014-08-05T00:29:48Z</time></trkpt>
<trkpt lat="25.863435" lon="98.850952">
<time>2014-08-05T00:29:49Z</time></trkpt>
<trkpt lat="25.863665" lon="98.850801">
<time>2014-08-05T00:29:50Z</time></trkpt>
<trkpt lat="25.863965" lon="98.850621">
<time>2014-08-05T00:29:51Z</time></trkpt>
<trkpt lat="25.864215" lon="98.850501">
<time>2014-08-05T00:29:52Z</time></trkpt>
<trkpt lat="25.864555" lon="98.850371">
<time>2014-08-05T00:29:53Z</time></trkpt>
<trkpt lat="25.864825" lon="98.850291">
<time>2014-08-05T00:29:54Z</time></trkpt>
<trkpt lat="25.865085" lon="98.850221">
<time>2014-08-05T00:29:55Z</time></trkpt>
<trkpt lat="25.865235" lon="98.850191">
<time>2014-08-05T00:29:56Z</time></trkpt>
<trkpt lat="25.865385" lon="98.850171">
<time>2014-08-05T00:29:57Z</time></trkpt>
<trkpt lat="25.865555" lon="98.850151">
<time>2014-08-05T00:29:58Z</time></trkpt>
<trkpt lat="25.865826" lon="98.850121">
<time>2014-08-05T00:29:59Z</time></trkpt>
<trkpt lat="25.866176" lon="98.850081">
<time>2014-08-05T00:30:00Z</time></trkpt>
<trkpt lat="25.866816" lon="98.850001">
<time>2014-08-05T00:30:01Z</time></trkpt>
<trkpt lat="25.867116" lon="98.84996">
<time>2014-08-05T00:30:02Z</time></trkpt>
<trkpt lat="25.867466" lon="98.84994">
<time>2014-08-05T00:30:03Z</time></trkpt>
<trkpt lat="25.867596" lon="98.84995">
<time>2014-08-05T00:30:04Z</time></trkpt>
<trkpt lat="25.867947" lon="98.85">
<time>2014-08-05T00:30:05Z</time></trkpt>
<trkpt lat="25.868798" lon="98.850191">
<time>2014-08-05T00:30:06Z</time></trkpt>
<trkpt lat="25.869118" lon="98.850261">
<time>2014-08-05T00:30:07Z</time></trkpt>
<trkpt lat="25.869448" lon="98.850331">
<time>2014-08-05T00:30:08Z</time></trkpt>
<trkpt lat="25.869678" lon="98.850341">
<time>2014-08-05T00:30:09Z</time></trkpt>
<trkpt lat="25.869839" lon="98.850311">
<time>2014-08-05T00:30:10Z</time></trkpt>
<trkpt lat="25.870919" lon="98.850191">
<time>2014-08-05T00:30:11Z</time></trkpt>
<trkpt lat="25.871649" lon="98.850111">
<time>2014-08-05T00:30:12Z</time></trkpt>
<trkpt lat="25.87196" lon="98.850081">
<time>2014-08-05T00:30:13Z</time></trkpt>
<trkpt lat="25.8722" lon="98.85005">
<time>2014-08-05T00:30:14Z</time></trkpt>
<trkpt lat="25.87252" lon="98.85002">
<time>2014-08-05T00:30:15Z</time></trkpt>
<trkpt lat="25.87285" lon="98.84996">
<time>2014-08-05T00:30:16Z</time></trkpt>
<trkpt lat="25.87316" lon="98.84989">
<time>2014-08-05T00:30:17Z</time></trkpt>
<trkpt lat="25.87324" lon="98.84986">
<time>2014-08-05T00:30:18Z</time></trkpt>
<trkpt lat="25.87359" lon="98.84976">
<time>2014-08-05T00:30:19Z</time></trkpt>
<trkpt lat="25.87408" lon="98.8496">
<time>2014-08-05T00:30:20Z</time></trkpt>
<trkpt lat="25.87436" lon="98.84951">
<time>2014-08-05T00:30:21Z</time></trkpt>
<trkpt lat="25.87461" lon="98.84941">
<time>2014-08-05T00:30:22Z</time></trkpt>
<trkpt lat="25.87476" lon="98.84934">
<time>2014-08-05T00:30:23Z</time></trkpt>
<trkpt lat="25.87493" lon="98.84924">
<time>2014-08-05T00:30:24Z</time></trkpt>
<trkpt lat="25.87523" lon="98.849049">
<time>2014-08-05T00:30:25Z</time></trkpt>
<trkpt lat="25.87535" lon="98.848969">
<time>2014-08-05T00:30:26Z</time></trkpt>
<trkpt lat="25.87546" lon="98.848889">
<time>2014-08-05T00:30:27Z</time></trkpt>
<trkpt lat="25.87558" lon="98.848809">
<time>2014-08-05T00:30:28Z</time></trkpt>
<trkpt lat="25.87566" lon="98.848739">
<time>2014-08-05T00:30:29Z</time></trkpt>
<trkpt lat="25.87573" lon="98.848669">
<time>2014-08-05T00:30:30Z</time></trkpt>
<trkpt lat="25.87584" lon="98.848559">
<time>2014-08-05T00:30:31Z</time></trkpt>
<trkpt lat="25.875929" lon="98.848429">
<time>2014-08-05T00:30:32Z</time></trkpt>
<trkpt lat="25.876019" lon="98.848278">
<time>2014-08-05T00:30:33Z</time></trkpt>
<trkpt lat="25.876199" lon="98.847908">
<time>2014-08-05T00:30:34Z</time></trkpt>
<trkpt lat="25.876368" lon="98.847578">
<time>2014-08-05T00:30:35Z</time></trkpt>
<trkpt lat="25.876428" lon="98.847458">
<time>2014-08-05T00:30:36Z</time></trkpt>
<trkpt lat="25.876548" lon="98.847297">
<time>2014-08-05T00:30:37Z</time></trkpt>
<trkpt lat="25.876688" lon="98.847197">
<time>2014-08-05T00:30:38Z</time></trkpt>
<trkpt lat="25.876818" lon="98.847127">
<time>2014-08-05T00:30:39Z</time></trkpt>
<trkpt lat="25.877048" lon="98.847037">
<time>2014-08-05T00:30:40Z</time></trkpt>
<trkpt lat="25.877228" lon="98.846957">
<time>2014-08-05T00:30:41Z</time></trkpt>
<trkpt lat="25.877338" lon="98.846877">
<time>2014-08-05T00:30:42Z</time></trkpt>
<trkpt lat="25.877408" lon="98.846787">
<time>2014-08-05T00:30:43Z</time></trkpt>
<trkpt lat="25.877457" lon="98.846707">
<time>2014-08-05T00:30:44Z</time></trkpt>
<trkpt lat="25.877477" lon="98.846687">
<time>2014-08-05T00:30:45Z</time></trkpt>
<trkpt lat="25.877527" lon="98.846586">
<time>2014-08-05T00:30:46Z</time></trkpt>
<trkpt lat="25.877587" lon="98.846406">
<time>2014-08-05T00:30:47Z</time></trkpt>
<trkpt lat="25.877647" lon="98.846206">
<time>2014-08-05T00:30:48Z</time></trkpt>
<trkpt lat="25.877696" lon="98.846016">
<time>2014-08-05T00:30:49Z</time></trkpt>
<trkpt lat="25.877736" lon="98.845926">
<time>2014-08-05T00:30:50Z</time></trkpt>
<trkpt lat="25.877796" lon="98.845786">
<time>2014-08-05T00:30:51Z</time></trkpt>
<trkpt lat="25.877846" lon="98.845715">
<time>2014-08-05T00:30:52Z</time></trkpt>
<trkpt lat="25.877876" lon="98.845685">
<time>2014-08-05T00:30:53Z</time></trkpt>
<trkpt lat="25.877936" lon="98.845605">
<time>2014-08-05T00:30:54Z</time></trkpt>
<trkpt lat="25.878126" lon="98.845405">
<time>2014-08-05T00:30:55Z</time></trkpt>
<trkpt lat="25.878655" lon="98.844894">
<time>2014-08-05T00:30:56Z</time></trkpt>
<trkpt lat="25.878875" lon="98.844674">
<time>2014-08-05T00:30:57Z</time></trkpt>
<trkpt lat="25.879165" lon="98.844374">
<time>2014-08-05T00:30:58Z</time></trkpt>
<trkpt lat="25.879284" lon="98.844254">
<time>2014-08-05T00:30:59Z</time></trkpt>
<trkpt lat="25.879384" lon="98.844174">
<time>2014-08-05T00:31:00Z</time></trkpt>
<trkpt lat="25.879504" lon="98.844094">
<time>2014-08-05T00:31:01Z</time></trkpt>
<trkpt lat="25.879644" lon="98.844013">
<time>2014-08-05T00:31:02Z</time></trkpt>
<trkpt lat="25.879964" lon="98.843853">
<time>2014-08-05T00:31:03Z</time></trkpt>
<trkpt lat="25.880494" lon="98.843593">
<time>2014-08-05T00:31:04Z</time></trkpt>
<trkpt lat="25.881334" lon="98.843182">
<time>2014-08-05T00:31:05Z</time></trkpt>
<trkpt lat="25.881984" lon="98.842872">
<time>2014-08-05T00:31:06Z</time></trkpt>
<trkpt lat="25.882284" lon="98.842732">
<time>2014-08-05T00:31:07Z</time></trkpt>
<trkpt lat="25.882344" lon="98.842702">
<time>2014-08-05T00:31:08Z</time></trkpt>
<trkpt lat="25.882344" lon="98.842702">
<time>2014-08-05T00:31:09Z</time></trkpt>
<trkpt lat="25.881347" lon="98.839137">
<time>2014-08-05T00:31:10Z</time></trkpt>
<trkpt lat="25.881347" lon="98.839137">
<time>2014-08-05T00:31:11Z</time></trkpt>
<trkpt lat="25.881357" lon="98.839127">
<time>2014-08-05T00:31:12Z</time></trkpt>
<trkpt lat="25.881386" lon="98.839107">
<time>2014-08-05T00:31:13Z</time></trkpt>
<trkpt lat="25.881396" lon="98.839087">
<time>2014-08-05T00:31:14Z</time></trkpt>
<trkpt lat="25.881406" lon="98.839067">
<time>2014-08-05T00:31:15Z</time></trkpt>
<trkpt lat="25.881406" lon="98.839037">
<time>2014-08-05T00:31:16Z</time></trkpt>
<trkpt lat="25.881406" lon="98.839007">
<time>2014-08-05T00:31:17Z</time></trkpt>
<trkpt lat="25.881406" lon="98.838977">
<time>2014-08-05T00:31:18Z</time></trkpt>
<trkpt lat="25.881396" lon="98.838957">
<time>2014-08-05T00:31:19Z</time></trkpt>
<trkpt lat="25.881376" lon="98.838937">
<time>2014-08-05T00:31:20Z</time></trkpt>
<trkpt lat="25.881446" lon="98.838867">
<time>2014-08-05T00:31:21Z</time></trkpt>
<trkpt lat="25.881606" lon="98.838687">
<time>2014-08-05T00:31:22Z</time></trkpt>
<trkpt lat="25.881806" lon="98.838507">
<time>2014-08-05T00:31:23Z</time></trkpt>
<trkpt lat="25.881846" lon="98.838477">
<time>2014-08-05T00:31:24Z</time></trkpt>
<trkpt lat="25.881876" lon="98.838457">
<time>2014-08-05T00:31:25Z</time></trkpt>
<trkpt lat="25.881906" lon="98.838437">
<time>2014-08-05T00:31:26Z</time></trkpt>
<trkpt lat="25.881936" lon="98.838426">
<time>2014-08-05T00:31:27Z</time></trkpt>
<trkpt lat="25.881976" lon="98.838406">
<time>2014-08-05T00:31:28Z</time></trkpt>
<trkpt lat="25.882006" lon="98.838396">
<time>2014-08-05T00:31:29Z</time></trkpt>
<trkpt lat="25.882056" lon="98.838386">
<time>2014-08-05T00:31:30Z</time></trkpt>
<trkpt lat="25.882096" lon="98.838376">
<time>2014-08-05T00:31:31Z</time></trkpt>
<trkpt lat="25.882146" lon="98.838376">
<time>2014-08-05T00:31:32Z</time></trkpt>
<trkpt lat="25.882216" lon="98.838366">
<time>2014-08-05T00:31:33Z</time></trkpt>
<trkpt lat="25.882286" lon="98.838376">
<time>2014-08-05T00:31:34Z</time></trkpt>
<trkpt lat="25.882366" lon="98.838376">
<time>2014-08-05T00:31:35Z</time></trkpt>
<trkpt lat="25.882476" lon="98.838396">
<time>2014-08-05T00:31:36Z</time></trkpt>
<trkpt lat="25.882666" lon="98.838416">
<time>2014-08-05T00:31:37Z</time></trkpt>
<trkpt lat="25.883237" lon="98.838497">
<time>2014-08-05T00:31:38Z</time></trkpt>
<trkpt lat="25.883577" lon="98.838547">
<time>2014-08-05T00:31:39Z</time></trkpt>
<trkpt lat="25.883697" lon="98.838547">
<time>2014-08-05T00:31:40Z</time></trkpt>
<trkpt lat="25.883817" lon="98.838547">
<time>2014-08-05T00:31:41Z</time></trkpt>
<trkpt lat="25.883907" lon="98.838537">
<time>2014-08-05T00:31:42Z</time></trkpt>
<trkpt lat="25.883997" lon="98.838527">
<time>2014-08-05T00:31:43Z</time></trkpt>
<trkpt lat="25.884107" lon="98.838507">
<time>2014-08-05T00:31:44Z</time></trkpt>
<trkpt lat="25.884207" lon="98.838487">
<time>2014-08-05T00:31:45Z</time></trkpt>
<trkpt lat="25.884287" lon="98.838467">
<time>2014-08-05T00:31:46Z</time></trkpt>
<trkpt lat="25.884377" lon="98.838446">
<time>2014-08-05T00:31:47Z</time></trkpt>
<trkpt lat="25.884517" lon="98.838406">
<time>2014-08-05T00:31:48Z</time></trkpt>
<trkpt lat="25.884807" lon="98.838326">
<time>2014-08-05T00:31:49Z</time></trkpt>
<trkpt lat="25.884997" lon="98.838266">
<time>2014-08-05T00:31:50Z</time></trkpt>
<trkpt lat="25.885167" lon="98.838236">
<time>2014-08-05T00:31:51Z</time></trkpt>
<trkpt lat="25.885368" lon="98.838196">
<time>2014-08-05T00:31:52Z</time></trkpt>
<trkpt lat="25.885608" lon="98.838166">
<time>2014-08-05T00:31:53Z</time></trkpt>
<trkpt lat="25.885878" lon="98.838126">
<time>2014-08-05T00:31:54Z</time></trkpt>
<trkpt lat="25.886118" lon="98.838086">
<time>2014-08-05T00:31:55Z</time></trkpt>
<trkpt lat="25.886268" lon="98.838066">
<time>2014-08-05T00:31:56Z</time></trkpt>
<trkpt lat="25.886408" lon="98.838056">
<time>2014-08-05T00:31:57Z</time></trkpt>
<trkpt lat="25.886578" lon="98.838066">
<time>2014-08-05T00:31:58Z</time></trkpt>
<trkpt lat="25.886758" lon="98.838086">
<time>2014-08-05T00:31:59Z</time></trkpt>
<trkpt lat="25.886958" lon="98.838106">
<time>2014-08-05T00:32:00Z</time></trkpt>
<trkpt lat="25.887179" lon="98.838146">
<time>2014-08-05T00:32:01Z</time></trkpt>
<trkpt lat="25.88824" lon="98.838316">
<time>2014-08-05T00:32:02Z</time></trkpt>
<trkpt lat="25.889261" lon="98.838506">
<time>2014-08-05T00:32:03Z</time></trkpt>
<trkpt lat="25.890132" lon="98.838667">
<time>2014-08-05T00:32:04Z</time></trkpt>
<trkpt lat="25.890512" lon="98.838747">
<time>2014-08-05T00:32:05Z</time></trkpt>
<trkpt lat="25.890712" lon="98.838797">
<time>2014-08-05T00:32:06Z</time></trkpt>
<trkpt lat="25.890893" lon="98.838857">
<time>2014-08-05T00:32:07Z</time></trkpt>
<trkpt lat="25.891083" lon="98.838927">
<time>2014-08-05T00:32:08Z</time></trkpt>
<trkpt lat="25.891303" lon="98.839027">
<time>2014-08-05T00:32:09Z</time></trkpt>
<trkpt lat="25.891543" lon="98.839157">
<time>2014-08-05T00:32:10Z</time></trkpt>
<trkpt lat="25.892405" lon="98.839688">
<time>2014-08-05T00:32:11Z</time></trkpt>
<trkpt lat="25.893537" lon="98.840379">
<time>2014-08-05T00:32:12Z</time></trkpt>
<trkpt lat="25.894449" lon="98.840909">
<time>2014-08-05T00:32:13Z</time></trkpt>
<trkpt lat="25.895661" lon="98.84169">
<time>2014-08-05T00:32:14Z</time></trkpt>
<trkpt lat="25.896212" lon="98.842041">
<time>2014-08-05T00:32:15Z</time></trkpt>
<trkpt lat="25.896673" lon="98.842261">
<time>2014-08-05T00:32:16Z</time></trkpt>
<trkpt lat="25.897634" lon="98.842671">
<time>2014-08-05T00:32:17Z</time></trkpt>
<trkpt lat="25.897985" lon="98.842802">
<time>2014-08-05T00:32:18Z</time></trkpt>
<trkpt lat="25.898315" lon="98.842902">
<time>2014-08-05T00:32:19Z</time></trkpt>
<trkpt lat="25.898755" lon="98.843002">
<time>2014-08-05T00:32:20Z</time></trkpt>
<trkpt lat="25.899226" lon="98.843092">
<time>2014-08-05T00:32:21Z</time></trkpt>
<trkpt lat="25.899666" lon="98.843182">
<time>2014-08-05T00:32:22Z</time></trkpt>
<trkpt lat="25.899967" lon="98.843252">
<time>2014-08-05T00:32:23Z</time></trkpt>
<trkpt lat="25.900728" lon="98.843432">
<time>2014-08-05T00:32:24Z</time></trkpt>
<trkpt lat="25.901228" lon="98.843492">
<time>2014-08-05T00:32:25Z</time></trkpt>
<trkpt lat="25.901778" lon="98.843492">
<time>2014-08-05T00:32:26Z</time></trkpt>
<trkpt lat="25.902339" lon="98.843462">
<time>2014-08-05T00:32:27Z</time></trkpt>
<trkpt lat="25.903099" lon="98.843322">
<time>2014-08-05T00:32:28Z</time></trkpt>
<trkpt lat="25.904829" lon="98.842932">
<time>2014-08-05T00:32:29Z</time></trkpt>
<trkpt lat="25.90601" lon="98.842771">
<time>2014-08-05T00:32:30Z</time></trkpt>
<trkpt lat="25.90611" lon="98.842751">
<time>2014-08-05T00:32:31Z</time></trkpt>
<trkpt lat="25.9062" lon="98.842721">
<time>2014-08-05T00:32:32Z</time></trkpt>
<trkpt lat="25.90628" lon="98.842691">
<time>2014-08-05T00:32:33Z</time></trkpt>
<trkpt lat="25.90636" lon="98.842651">
<time>2014-08-05T00:32:34Z</time></trkpt>
<trkpt lat="25.90644" lon="98.842601">
<time>2014-08-05T00:32:35Z</time></trkpt>
<trkpt lat="25.90652" lon="98.842541">
<time>2014-08-05T00:32:36Z</time></trkpt>
<trkpt lat="25.90661" lon="98.842461">
<time>2014-08-05T00:32:37Z</time></trkpt>
<trkpt lat="25.90668" lon="98.842391">
<time>2014-08-05T00:32:38Z</time></trkpt>
<trkpt lat="25.907089" lon="98.84197">
<time>2014-08-05T00:32:39Z</time></trkpt>
<trkpt lat="25.907279" lon="98.84176">
<time>2014-08-05T00:32:40Z</time></trkpt>
<trkpt lat="25.907369" lon="98.84165">
<time>2014-08-05T00:32:41Z</time></trkpt>
<trkpt lat="25.907419" lon="98.84158">
<time>2014-08-05T00:32:42Z</time></trkpt>
<trkpt lat="25.907459" lon="98.8415">
<time>2014-08-05T00:32:43Z</time></trkpt>
<trkpt lat="25.907479" lon="98.84143">
<time>2014-08-05T00:32:44Z</time></trkpt>
<trkpt lat="25.907508" lon="98.84134">
<time>2014-08-05T00:32:45Z</time></trkpt>
<trkpt lat="25.907558" lon="98.841019">
<time>2014-08-05T00:32:46Z</time></trkpt>
<trkpt lat="25.907588" lon="98.840809">
<time>2014-08-05T00:32:47Z</time></trkpt>
<trkpt lat="25.907587" lon="98.840679">
<time>2014-08-05T00:32:48Z</time></trkpt>
<trkpt lat="25.907587" lon="98.840559">
<time>2014-08-05T00:32:49Z</time></trkpt>
<trkpt lat="25.907567" lon="98.840439">
<time>2014-08-05T00:32:50Z</time></trkpt>
<trkpt lat="25.907547" lon="98.840328">
<time>2014-08-05T00:32:51Z</time></trkpt>
<trkpt lat="25.907516" lon="98.840208">
<time>2014-08-05T00:32:52Z</time></trkpt>
<trkpt lat="25.907476" lon="98.840078">
<time>2014-08-05T00:32:53Z</time></trkpt>
<trkpt lat="25.907406" lon="98.839918">
<time>2014-08-05T00:32:54Z</time></trkpt>
<trkpt lat="25.907315" lon="98.839738">
<time>2014-08-05T00:32:55Z</time></trkpt>
<trkpt lat="25.907084" lon="98.839337">
<time>2014-08-05T00:32:56Z</time></trkpt>
<trkpt lat="25.906884" lon="98.839047">
<time>2014-08-05T00:32:57Z</time></trkpt>
<trkpt lat="25.906372" lon="98.838326">
<time>2014-08-05T00:32:58Z</time></trkpt>
<trkpt lat="25.905028" lon="98.836704">
<time>2014-08-05T00:32:59Z</time></trkpt>
<trkpt lat="25.904958" lon="98.836594">
<time>2014-08-05T00:33:00Z</time></trkpt>
<trkpt lat="25.904908" lon="98.836534">
<time>2014-08-05T00:33:01Z</time></trkpt>
<trkpt lat="25.904878" lon="98.836484">
<time>2014-08-05T00:33:02Z</time></trkpt>
<trkpt lat="25.904848" lon="98.836424">
<time>2014-08-05T00:33:03Z</time></trkpt>
<trkpt lat="25.904807" lon="98.836343">
<time>2014-08-05T00:33:04Z</time></trkpt>
<trkpt lat="25.904767" lon="98.836223">
<time>2014-08-05T00:33:05Z</time></trkpt>
<trkpt lat="25.904717" lon="98.836063">
<time>2014-08-05T00:33:06Z</time></trkpt>
<trkpt lat="25.904656" lon="98.835863">
<time>2014-08-05T00:33:07Z</time></trkpt>
<trkpt lat="25.904475" lon="98.835282">
<time>2014-08-05T00:33:08Z</time></trkpt>
<trkpt lat="25.904405" lon="98.835092">
<time>2014-08-05T00:33:09Z</time></trkpt>
<trkpt lat="25.904375" lon="98.834972">
<time>2014-08-05T00:33:10Z</time></trkpt>
<trkpt lat="25.904344" lon="98.834832">
<time>2014-08-05T00:33:11Z</time></trkpt>
<trkpt lat="25.904324" lon="98.834691">
<time>2014-08-05T00:33:12Z</time></trkpt>
<trkpt lat="25.904314" lon="98.834541">
<time>2014-08-05T00:33:13Z</time></trkpt>
<trkpt lat="25.904323" lon="98.834421">
<time>2014-08-05T00:33:14Z</time></trkpt>
<trkpt lat="25.904333" lon="98.834301">
<time>2014-08-05T00:33:15Z</time></trkpt>
<trkpt lat="25.904353" lon="98.834201">
<time>2014-08-05T00:33:16Z</time></trkpt>
<trkpt lat="25.904383" lon="98.834111">
<time>2014-08-05T00:33:17Z</time></trkpt>
<trkpt lat="25.904413" lon="98.83402">
<time>2014-08-05T00:33:18Z</time></trkpt>
<trkpt lat="25.904453" lon="98.83393">
<time>2014-08-05T00:33:19Z</time></trkpt>
<trkpt lat="25.904503" lon="98.83385">
<time>2014-08-05T00:33:20Z</time></trkpt>
<trkpt lat="25.904582" lon="98.83374">
<time>2014-08-05T00:33:21Z</time></trkpt>
<trkpt lat="25.904662" lon="98.83364">
<time>2014-08-05T00:33:22Z</time></trkpt>
<trkpt lat="25.90596" lon="98.832178">
<time>2014-08-05T00:33:23Z</time></trkpt>
<trkpt lat="25.907288" lon="98.830656">
<time>2014-08-05T00:33:24Z</time></trkpt>
<trkpt lat="25.907898" lon="98.829985">
<time>2014-08-05T00:33:25Z</time></trkpt>
<trkpt lat="25.908077" lon="98.829775">
<time>2014-08-05T00:33:26Z</time></trkpt>
<trkpt lat="25.908287" lon="98.829555">
<time>2014-08-05T00:33:27Z</time></trkpt>
<trkpt lat="25.908487" lon="98.829364">
<time>2014-08-05T00:33:28Z</time></trkpt>
<trkpt lat="25.908627" lon="98.829254">
<time>2014-08-05T00:33:29Z</time></trkpt>
<trkpt lat="25.908787" lon="98.829124">
<time>2014-08-05T00:33:30Z</time></trkpt>
<trkpt lat="25.908976" lon="98.828994">
<time>2014-08-05T00:33:31Z</time></trkpt>
<trkpt lat="25.909446" lon="98.828683">
<time>2014-08-05T00:33:32Z</time></trkpt>
<trkpt lat="25.911075" lon="98.827602">
<time>2014-08-05T00:33:33Z</time></trkpt>
<trkpt lat="25.912015" lon="98.827001">
<time>2014-08-05T00:33:34Z</time></trkpt>
<trkpt lat="25.912135" lon="98.826931">
<time>2014-08-05T00:33:35Z</time></trkpt>
<trkpt lat="25.912425" lon="98.826741">
<time>2014-08-05T00:33:36Z</time></trkpt>
<trkpt lat="25.912624" lon="98.826621">
<time>2014-08-05T00:33:37Z</time></trkpt>
<trkpt lat="25.912864" lon="98.82651">
<time>2014-08-05T00:33:38Z</time></trkpt>
<trkpt lat="25.913365" lon="98.82636">
<time>2014-08-05T00:33:39Z</time></trkpt>
<trkpt lat="25.913935" lon="98.82621">
<time>2014-08-05T00:33:40Z</time></trkpt>
<trkpt lat="25.915425" lon="98.825819">
<time>2014-08-05T00:33:41Z</time></trkpt>
<trkpt lat="25.915655" lon="98.825769">
<time>2014-08-05T00:33:42Z</time></trkpt>
<trkpt lat="25.916005" lon="98.825709">
<time>2014-08-05T00:33:43Z</time></trkpt>
<trkpt lat="25.916415" lon="98.825669">
<time>2014-08-05T00:33:44Z</time></trkpt>
<trkpt lat="25.916685" lon="98.825649">
<time>2014-08-05T00:33:45Z</time></trkpt>
<trkpt lat="25.917416" lon="98.825599">
<time>2014-08-05T00:33:46Z</time></trkpt>
<trkpt lat="25.917756" lon="98.825579">
<time>2014-08-05T00:33:47Z</time></trkpt>
<trkpt lat="25.917956" lon="98.825579">
<time>2014-08-05T00:33:48Z</time></trkpt>
<trkpt lat="25.918256" lon="98.825589">
<time>2014-08-05T00:33:49Z</time></trkpt>
<trkpt lat="25.918587" lon="98.825609">
<time>2014-08-05T00:33:50Z</time></trkpt>
<trkpt lat="25.918887" lon="98.825629">
<time>2014-08-05T00:33:51Z</time></trkpt>
<trkpt lat="25.919097" lon="98.825639">
<time>2014-08-05T00:33:52Z</time></trkpt>
<trkpt lat="25.919417" lon="98.825649">
<time>2014-08-05T00:33:53Z</time></trkpt>
<trkpt lat="25.919678" lon="98.825659">
<time>2014-08-05T00:33:54Z</time></trkpt>
<trkpt lat="25.919908" lon="98.825679">
<time>2014-08-05T00:33:55Z</time></trkpt>
<trkpt lat="25.920068" lon="98.825699">
<time>2014-08-05T00:33:56Z</time></trkpt>
<trkpt lat="25.920158" lon="98.825709">
<time>2014-08-05T00:33:57Z</time></trkpt>
<trkpt lat="25.920248" lon="98.825729">
<time>2014-08-05T00:33:58Z</time></trkpt>
<trkpt lat="25.920348" lon="98.825749">
<time>2014-08-05T00:33:59Z</time></trkpt>
<trkpt lat="25.920438" lon="98.825779">
<time>2014-08-05T00:34:00Z</time></trkpt>
<trkpt lat="25.920498" lon="98.825799">
<time>2014-08-05T00:34:01Z</time></trkpt>
<trkpt lat="25.920659" lon="98.825869">
<time>2014-08-05T00:34:02Z</time></trkpt>
<trkpt lat="25.920819" lon="98.82595">
<time>2014-08-05T00:34:03Z</time></trkpt>
<trkpt lat="25.920979" lon="98.82605">
<time>2014-08-05T00:34:04Z</time></trkpt>
<trkpt lat="25.92116" lon="98.82616">
<time>2014-08-05T00:34:05Z</time></trkpt>
<trkpt lat="25.92133" lon="98.82628">
<time>2014-08-05T00:34:06Z</time></trkpt>
<trkpt lat="25.92151" lon="98.82641">
<time>2014-08-05T00:34:07Z</time></trkpt>
<trkpt lat="25.921801" lon="98.82662">
<time>2014-08-05T00:34:08Z</time></trkpt>
<trkpt lat="25.922773" lon="98.827301">
<time>2014-08-05T00:34:09Z</time></trkpt>
<trkpt lat="25.923785" lon="98.827992">
<time>2014-08-05T00:34:10Z</time></trkpt>
<trkpt lat="25.924196" lon="98.828283">
<time>2014-08-05T00:34:11Z</time></trkpt>
<trkpt lat="25.924376" lon="98.828403">
<time>2014-08-05T00:34:12Z</time></trkpt>
<trkpt lat="25.924546" lon="98.828503">
<time>2014-08-05T00:34:13Z</time></trkpt>
<trkpt lat="25.924687" lon="98.828573">
<time>2014-08-05T00:34:14Z</time></trkpt>
<trkpt lat="25.924867" lon="98.828653">
<time>2014-08-05T00:34:15Z</time></trkpt>
<trkpt lat="25.925057" lon="98.828703">
<time>2014-08-05T00:34:16Z</time></trkpt>
<trkpt lat="25.925217" lon="98.828743">
<time>2014-08-05T00:34:17Z</time></trkpt>
<trkpt lat="25.925347" lon="98.828763">
<time>2014-08-05T00:34:18Z</time></trkpt>
<trkpt lat="25.925618" lon="98.828813">
<time>2014-08-05T00:34:19Z</time></trkpt>
<trkpt lat="25.925808" lon="98.828853">
<time>2014-08-05T00:34:20Z</time></trkpt>
<trkpt lat="25.926008" lon="98.828893">
<time>2014-08-05T00:34:21Z</time></trkpt>
<trkpt lat="25.926148" lon="98.828913">
<time>2014-08-05T00:34:22Z</time></trkpt>
<trkpt lat="25.926338" lon="98.828963">
<time>2014-08-05T00:34:23Z</time></trkpt>
<trkpt lat="25.926569" lon="98.829023">
<time>2014-08-05T00:34:24Z</time></trkpt>
<trkpt lat="25.926729" lon="98.829064">
<time>2014-08-05T00:34:25Z</time></trkpt>
<trkpt lat="25.926929" lon="98.829104">
<time>2014-08-05T00:34:26Z</time></trkpt>
<trkpt lat="25.927069" lon="98.829134">
<time>2014-08-05T00:34:27Z</time></trkpt>
<trkpt lat="25.927139" lon="98.829154">
<time>2014-08-05T00:34:28Z</time></trkpt>
<trkpt lat="25.9274" lon="98.829204">
<time>2014-08-05T00:34:29Z</time></trkpt>
<trkpt lat="25.92765" lon="98.829274">
<time>2014-08-05T00:34:30Z</time></trkpt>
<trkpt lat="25.92779" lon="98.829324">
<time>2014-08-05T00:34:31Z</time></trkpt>
<trkpt lat="25.92789" lon="98.829384">
<time>2014-08-05T00:34:32Z</time></trkpt>
<trkpt lat="25.92796" lon="98.829434">
<time>2014-08-05T00:34:33Z</time></trkpt>
<trkpt lat="25.928041" lon="98.829494">
<time>2014-08-05T00:34:34Z</time></trkpt>
<trkpt lat="25.928081" lon="98.829544">
<time>2014-08-05T00:34:35Z</time></trkpt>
<trkpt lat="25.928261" lon="98.829754">
<time>2014-08-05T00:34:36Z</time></trkpt>
<trkpt lat="25.928392" lon="98.829895">
<time>2014-08-05T00:34:37Z</time></trkpt>
<trkpt lat="25.928522" lon="98.830015">
<time>2014-08-05T00:34:38Z</time></trkpt>
<trkpt lat="25.928602" lon="98.830065">
<time>2014-08-05T00:34:39Z</time></trkpt>
<trkpt lat="25.928662" lon="98.830085">
<time>2014-08-05T00:34:40Z</time></trkpt>
<trkpt lat="25.928712" lon="98.830095">
<time>2014-08-05T00:34:41Z</time></trkpt>
<trkpt lat="25.928782" lon="98.830105">
<time>2014-08-05T00:34:42Z</time></trkpt>
<trkpt lat="25.928892" lon="98.830115">
<time>2014-08-05T00:34:43Z</time></trkpt>
<trkpt lat="25.929002" lon="98.830115">
<time>2014-08-05T00:34:44Z</time></trkpt>
<trkpt lat="25.929072" lon="98.830105">
<time>2014-08-05T00:34:45Z</time></trkpt>
<trkpt lat="25.929593" lon="98.830065">
<time>2014-08-05T00:34:46Z</time></trkpt>
<trkpt lat="25.929863" lon="98.830045">
<time>2014-08-05T00:34:47Z</time></trkpt>
<trkpt lat="25.930073" lon="98.830035">
<time>2014-08-05T00:34:48Z</time></trkpt>
<trkpt lat="25.930253" lon="98.830035">
<time>2014-08-05T00:34:49Z</time></trkpt>
<trkpt lat="25.930373" lon="98.830045">
<time>2014-08-05T00:34:50Z</time></trkpt>
<trkpt lat="25.930463" lon="98.830065">
<time>2014-08-05T00:34:51Z</time></trkpt>
<trkpt lat="25.930533" lon="98.830085">
<time>2014-08-05T00:34:52Z</time></trkpt>
<trkpt lat="25.930654" lon="98.830115">
<time>2014-08-05T00:34:53Z</time></trkpt>
<trkpt lat="25.930764" lon="98.830145">
<time>2014-08-05T00:34:54Z</time></trkpt>
<trkpt lat="25.930904" lon="98.830185">
<time>2014-08-05T00:34:55Z</time></trkpt>
<trkpt lat="25.931314" lon="98.830325">
<time>2014-08-05T00:34:56Z</time></trkpt>
<trkpt lat="25.931435" lon="98.830365">
<time>2014-08-05T00:34:57Z</time></trkpt>
<trkpt lat="25.931685" lon="98.830445">
<time>2014-08-05T00:34:58Z</time></trkpt>
<trkpt lat="25.931825" lon="98.830485">
<time>2014-08-05T00:34:59Z</time></trkpt>
<trkpt lat="25.931925" lon="98.830535">
<time>2014-08-05T00:35:00Z</time></trkpt>
<trkpt lat="25.932055" lon="98.830616">
<time>2014-08-05T00:35:01Z</time></trkpt>
<trkpt lat="25.932176" lon="98.830696">
<time>2014-08-05T00:35:02Z</time></trkpt>
<trkpt lat="25.932376" lon="98.830846">
<time>2014-08-05T00:35:03Z</time></trkpt>
<trkpt lat="25.932527" lon="98.830986">
<time>2014-08-05T00:35:04Z</time></trkpt>
<trkpt lat="25.932677" lon="98.831096">
<time>2014-08-05T00:35:05Z</time></trkpt>
<trkpt lat="25.933248" lon="98.831587">
<time>2014-08-05T00:35:06Z</time></trkpt>
<trkpt lat="25.933689" lon="98.831917">
<time>2014-08-05T00:35:07Z</time></trkpt>
<trkpt lat="25.93428" lon="98.832278">
<time>2014-08-05T00:35:08Z</time></trkpt>
<trkpt lat="25.934951" lon="98.832668">
<time>2014-08-05T00:35:09Z</time></trkpt>
<trkpt lat="25.935302" lon="98.832908">
<time>2014-08-05T00:35:10Z</time></trkpt>
<trkpt lat="25.935613" lon="98.833199">
<time>2014-08-05T00:35:11Z</time></trkpt>
<trkpt lat="25.936104" lon="98.833709">
<time>2014-08-05T00:35:12Z</time></trkpt>
<trkpt lat="25.936555" lon="98.83416">
<time>2014-08-05T00:35:13Z</time></trkpt>
<trkpt lat="25.937006" lon="98.834551">
<time>2014-08-05T00:35:14Z</time></trkpt>
<trkpt lat="25.937137" lon="98.834621">
<time>2014-08-05T00:35:15Z</time></trkpt>
<trkpt lat="25.937447" lon="98.834711">
<time>2014-08-05T00:35:16Z</time></trkpt>
<trkpt lat="25.938148" lon="98.835091">
<time>2014-08-05T00:35:17Z</time></trkpt>
<trkpt lat="25.938278" lon="98.835151">
<time>2014-08-05T00:35:18Z</time></trkpt>
<trkpt lat="25.938439" lon="98.835211">
<time>2014-08-05T00:35:19Z</time></trkpt>
<trkpt lat="25.938499" lon="98.835231">
<time>2014-08-05T00:35:20Z</time></trkpt>
<trkpt lat="25.938569" lon="98.835231">
<time>2014-08-05T00:35:21Z</time></trkpt>
<trkpt lat="25.938629" lon="98.835241">
<time>2014-08-05T00:35:22Z</time></trkpt>
<trkpt lat="25.938919" lon="98.835221">
<time>2014-08-05T00:35:23Z</time></trkpt>
<trkpt lat="25.940009" lon="98.834961">
<time>2014-08-05T00:35:24Z</time></trkpt>
<trkpt lat="25.940349" lon="98.834911">
<time>2014-08-05T00:35:25Z</time></trkpt>
<trkpt lat="25.940419" lon="98.834891">
<time>2014-08-05T00:35:26Z</time></trkpt>
<trkpt lat="25.940619" lon="98.834861">
<time>2014-08-05T00:35:27Z</time></trkpt>
<trkpt lat="25.941" lon="98.834841">
<time>2014-08-05T00:35:28Z</time></trkpt>
<trkpt lat="25.94131" lon="98.834761">
<time>2014-08-05T00:35:29Z</time></trkpt>
<trkpt lat="25.94171" lon="98.834621">
<time>2014-08-05T00:35:30Z</time></trkpt>
<trkpt lat="25.94212" lon="98.83446">
<time>2014-08-05T00:35:31Z</time></trkpt>
<trkpt lat="25.94247" lon="98.83429">
<time>2014-08-05T00:35:32Z</time></trkpt>
<trkpt lat="25.94312" lon="98.83402">
<time>2014-08-05T00:35:33Z</time></trkpt>
<trkpt lat="25.94363" lon="98.833799">
<time>2014-08-05T00:35:34Z</time></trkpt>
<trkpt lat="25.943849" lon="98.833699">
<time>2014-08-05T00:35:35Z</time></trkpt>
<trkpt lat="25.944189" lon="98.833549">
<time>2014-08-05T00:35:36Z</time></trkpt>
<trkpt lat="25.944599" lon="98.833269">
<time>2014-08-05T00:35:37Z</time></trkpt>
<trkpt lat="25.945309" lon="98.832708">
<time>2014-08-05T00:35:38Z</time></trkpt>
<trkpt lat="25.945549" lon="98.832558">
<time>2014-08-05T00:35:39Z</time></trkpt>
<trkpt lat="25.945778" lon="98.832398">
<time>2014-08-05T00:35:40Z</time></trkpt>
<trkpt lat="25.945878" lon="98.832348">
<time>2014-08-05T00:35:41Z</time></trkpt>
<trkpt lat="25.945988" lon="98.832307">
<time>2014-08-05T00:35:42Z</time></trkpt>
<trkpt lat="25.946108" lon="98.832287">
<time>2014-08-05T00:35:43Z</time></trkpt>
<trkpt lat="25.946218" lon="98.832277">
<time>2014-08-05T00:35:44Z</time></trkpt>
<trkpt lat="25.946409" lon="98.832317">
<time>2014-08-05T00:35:45Z</time></trkpt>
<trkpt lat="25.946639" lon="98.832368">
<time>2014-08-05T00:35:46Z</time></trkpt>
<trkpt lat="25.946889" lon="98.832428">
<time>2014-08-05T00:35:47Z</time></trkpt>
<trkpt lat="25.947059" lon="98.832468">
<time>2014-08-05T00:35:48Z</time></trkpt>
<trkpt lat="25.94721" lon="98.832488">
<time>2014-08-05T00:35:49Z</time></trkpt>
<trkpt lat="25.9474" lon="98.832478">
<time>2014-08-05T00:35:50Z</time></trkpt>
<trkpt lat="25.94762" lon="98.832438">
<time>2014-08-05T00:35:51Z</time></trkpt>
<trkpt lat="25.94819" lon="98.832287">
<time>2014-08-05T00:35:52Z</time></trkpt>
<trkpt lat="25.94879" lon="98.832127">
<time>2014-08-05T00:35:53Z</time></trkpt>
<trkpt lat="25.94906" lon="98.832077">
<time>2014-08-05T00:35:54Z</time></trkpt>
<trkpt lat="25.94932" lon="98.832067">
<time>2014-08-05T00:35:55Z</time></trkpt>
<trkpt lat="25.94946" lon="98.832087">
<time>2014-08-05T00:35:56Z</time></trkpt>
<trkpt lat="25.94954" lon="98.832107">
<time>2014-08-05T00:35:57Z</time></trkpt>
<trkpt lat="25.949691" lon="98.832177">
<time>2014-08-05T00:35:58Z</time></trkpt>
<trkpt lat="25.949801" lon="98.832247">
<time>2014-08-05T00:35:59Z</time></trkpt>
<trkpt lat="25.950312" lon="98.832658">
<time>2014-08-05T00:36:00Z</time></trkpt>
<trkpt lat="25.950823" lon="98.833098">
<time>2014-08-05T00:36:01Z</time></trkpt>
<trkpt lat="25.951334" lon="98.833559">
<time>2014-08-05T00:36:02Z</time></trkpt>
<trkpt lat="25.951375" lon="98.833599">
<time>2014-08-05T00:36:03Z</time></trkpt>
<trkpt lat="25.951395" lon="98.833639">
<time>2014-08-05T00:36:04Z</time></trkpt>
<trkpt lat="25.951425" lon="98.833699">
<time>2014-08-05T00:36:05Z</time></trkpt>
<trkpt lat="25.951445" lon="98.833749">
<time>2014-08-05T00:36:06Z</time></trkpt>
<trkpt lat="25.951495" lon="98.833859">
<time>2014-08-05T00:36:07Z</time></trkpt>
<trkpt lat="25.951535" lon="98.83403">
<time>2014-08-05T00:36:08Z</time></trkpt>
<trkpt lat="25.951566" lon="98.83417">
<time>2014-08-05T00:36:09Z</time></trkpt>
<trkpt lat="25.951626" lon="98.83431">
<time>2014-08-05T00:36:10Z</time></trkpt>
<trkpt lat="25.951686" lon="98.83442">
<time>2014-08-05T00:36:11Z</time></trkpt>
<trkpt lat="25.951787" lon="98.83454">
<time>2014-08-05T00:36:12Z</time></trkpt>
<trkpt lat="25.952027" lon="98.834781">
<time>2014-08-05T00:36:13Z</time></trkpt>
<trkpt lat="25.952238" lon="98.834991">
<time>2014-08-05T00:36:14Z</time></trkpt>
<trkpt lat="25.952368" lon="98.835161">
<time>2014-08-05T00:36:15Z</time></trkpt>
<trkpt lat="25.952529" lon="98.835421">
<time>2014-08-05T00:36:16Z</time></trkpt>
<trkpt lat="25.952659" lon="98.835622">
<time>2014-08-05T00:36:17Z</time></trkpt>
<trkpt lat="25.95281" lon="98.835832">
<time>2014-08-05T00:36:18Z</time></trkpt>
<trkpt lat="25.953151" lon="98.836242">
<time>2014-08-05T00:36:19Z</time></trkpt>
<trkpt lat="25.953321" lon="98.836453">
<time>2014-08-05T00:36:20Z</time></trkpt>
<trkpt lat="25.953532" lon="98.836753">
<time>2014-08-05T00:36:21Z</time></trkpt>
<trkpt lat="25.953723" lon="98.836993">
<time>2014-08-05T00:36:22Z</time></trkpt>
<trkpt lat="25.953953" lon="98.837244">
<time>2014-08-05T00:36:23Z</time></trkpt>
<trkpt lat="25.954254" lon="98.837504">
<time>2014-08-05T00:36:24Z</time></trkpt>
<trkpt lat="25.954514" lon="98.837734">
<time>2014-08-05T00:36:25Z</time></trkpt>
<trkpt lat="25.954865" lon="98.838055">
<time>2014-08-05T00:36:26Z</time></trkpt>
<trkpt lat="25.955126" lon="98.838295">
<time>2014-08-05T00:36:27Z</time></trkpt>
<trkpt lat="25.955346" lon="98.838455">
<time>2014-08-05T00:36:28Z</time></trkpt>
<trkpt lat="25.955547" lon="98.838575">
<time>2014-08-05T00:36:29Z</time></trkpt>
<trkpt lat="25.956198" lon="98.838956">
<time>2014-08-05T00:36:30Z</time></trkpt>
<trkpt lat="25.956669" lon="98.839236">
<time>2014-08-05T00:36:31Z</time></trkpt>
<trkpt lat="25.956909" lon="98.839336">
<time>2014-08-05T00:36:32Z</time></trkpt>
<trkpt lat="25.957079" lon="98.839396">
<time>2014-08-05T00:36:33Z</time></trkpt>
<trkpt lat="25.957239" lon="98.839446">
<time>2014-08-05T00:36:34Z</time></trkpt>
<trkpt lat="25.95742" lon="98.839497">
<time>2014-08-05T00:36:35Z</time></trkpt>
<trkpt lat="25.95759" lon="98.839537">
<time>2014-08-05T00:36:36Z</time></trkpt>
<trkpt lat="25.95786" lon="98.839597">
<time>2014-08-05T00:36:37Z</time></trkpt>
<trkpt lat="25.95804" lon="98.839627">
<time>2014-08-05T00:36:38Z</time></trkpt>
<trkpt lat="25.958351" lon="98.839687">
<time>2014-08-05T00:36:39Z</time></trkpt>
<trkpt lat="25.958491" lon="98.839717">
<time>2014-08-05T00:36:40Z</time></trkpt>
<trkpt lat="25.958591" lon="98.839747">
<time>2014-08-05T00:36:41Z</time></trkpt>
<trkpt lat="25.958701" lon="98.839787">
<time>2014-08-05T00:36:42Z</time></trkpt>
<trkpt lat="25.958831" lon="98.839847">
<time>2014-08-05T00:36:43Z</time></trkpt>
<trkpt lat="25.958952" lon="98.839917">
<time>2014-08-05T00:36:44Z</time></trkpt>
<trkpt lat="25.959392" lon="98.840167">
<time>2014-08-05T00:36:45Z</time></trkpt>
<trkpt lat="25.959603" lon="98.840257">
<time>2014-08-05T00:36:46Z</time></trkpt>
<trkpt lat="25.959763" lon="98.840298">
<time>2014-08-05T00:36:47Z</time></trkpt>
<trkpt lat="25.960013" lon="98.840338">
<time>2014-08-05T00:36:48Z</time></trkpt>
<trkpt lat="25.960273" lon="98.840348">
<time>2014-08-05T00:36:49Z</time></trkpt>
<trkpt lat="25.960734" lon="98.840368">
<time>2014-08-05T00:36:50Z</time></trkpt>
<trkpt lat="25.961034" lon="98.840388">
<time>2014-08-05T00:36:51Z</time></trkpt>
<trkpt lat="25.961274" lon="98.840458">
<time>2014-08-05T00:36:52Z</time></trkpt>
<trkpt lat="25.961484" lon="98.840538">
<time>2014-08-05T00:36:53Z</time></trkpt>
<trkpt lat="25.961685" lon="98.840628">
<time>2014-08-05T00:36:54Z</time></trkpt>
<trkpt lat="25.961865" lon="98.840698">
<time>2014-08-05T00:36:55Z</time></trkpt>
<trkpt lat="25.962125" lon="98.840778">
<time>2014-08-05T00:36:56Z</time></trkpt>
<trkpt lat="25.962406" lon="98.840838">
<time>2014-08-05T00:36:57Z</time></trkpt>
<trkpt lat="25.962886" lon="98.840938">
<time>2014-08-05T00:36:58Z</time></trkpt>
<trkpt lat="25.963657" lon="98.841088">
<time>2014-08-05T00:36:59Z</time></trkpt>
<trkpt lat="25.963897" lon="98.841118">
<time>2014-08-05T00:37:00Z</time></trkpt>
<trkpt lat="25.964227" lon="98.841138">
<time>2014-08-05T00:37:01Z</time></trkpt>
<trkpt lat="25.964488" lon="98.841128">
<time>2014-08-05T00:37:02Z</time></trkpt>
<trkpt lat="25.964938" lon="98.841088">
<time>2014-08-05T00:37:03Z</time></trkpt>
<trkpt lat="25.965368" lon="98.841038">
<time>2014-08-05T00:37:04Z</time></trkpt>
<trkpt lat="25.966088" lon="98.840968">
<time>2014-08-05T00:37:05Z</time></trkpt>
<trkpt lat="25.966879" lon="98.840898">
<time>2014-08-05T00:37:06Z</time></trkpt>
<trkpt lat="25.967459" lon="98.840868">
<time>2014-08-05T00:37:07Z</time></trkpt>
<trkpt lat="25.96794" lon="98.840908">
<time>2014-08-05T00:37:08Z</time></trkpt>
<trkpt lat="25.96834" lon="98.840958">
<time>2014-08-05T00:37:09Z</time></trkpt>
<trkpt lat="25.96864" lon="98.840988">
<time>2014-08-05T00:37:10Z</time></trkpt>
<trkpt lat="25.969001" lon="98.841008">
<time>2014-08-05T00:37:11Z</time></trkpt>
<trkpt lat="25.969481" lon="98.840988">
<time>2014-08-05T00:37:12Z</time></trkpt>
<trkpt lat="25.969851" lon="98.840948">
<time>2014-08-05T00:37:13Z</time></trkpt>
<trkpt lat="25.970241" lon="98.840928">
<time>2014-08-05T00:37:14Z</time></trkpt>
<trkpt lat="25.970491" lon="98.840938">
<time>2014-08-05T00:37:15Z</time></trkpt>
<trkpt lat="25.970632" lon="98.840948">
<time>2014-08-05T00:37:16Z</time></trkpt>
<trkpt lat="25.970712" lon="98.840958">
<time>2014-08-05T00:37:17Z</time></trkpt>
<trkpt lat="25.970812" lon="98.840988">
<time>2014-08-05T00:37:18Z</time></trkpt>
<trkpt lat="25.970892" lon="98.841008">
<time>2014-08-05T00:37:19Z</time></trkpt>
<trkpt lat="25.971052" lon="98.841068">
<time>2014-08-05T00:37:20Z</time></trkpt>
<trkpt lat="25.971152" lon="98.841118">
<time>2014-08-05T00:37:21Z</time></trkpt>
<trkpt lat="25.971403" lon="98.841248">
<time>2014-08-05T00:37:22Z</time></trkpt>
<trkpt lat="25.971583" lon="98.841339">
<time>2014-08-05T00:37:23Z</time></trkpt>
<trkpt lat="25.971723" lon="98.841399">
<time>2014-08-05T00:37:24Z</time></trkpt>
<trkpt lat="25.971883" lon="98.841449">
<time>2014-08-05T00:37:25Z</time></trkpt>
<trkpt lat="25.972074" lon="98.841489">
<time>2014-08-05T00:37:26Z</time></trkpt>
<trkpt lat="25.972284" lon="98.841519">
<time>2014-08-05T00:37:27Z</time></trkpt>
<trkpt lat="25.972544" lon="98.841539">
<time>2014-08-05T00:37:28Z</time></trkpt>
<trkpt lat="25.973054" lon="98.841549">
<time>2014-08-05T00:37:29Z</time></trkpt>
<trkpt lat="25.973605" lon="98.841569">
<time>2014-08-05T00:37:30Z</time></trkpt>
<trkpt lat="25.974085" lon="98.841589">
<time>2014-08-05T00:37:31Z</time></trkpt>
<trkpt lat="25.974155" lon="98.841589">
<time>2014-08-05T00:37:32Z</time></trkpt>
<trkpt lat="25.974225" lon="98.841579">
<time>2014-08-05T00:37:33Z</time></trkpt>
<trkpt lat="25.974305" lon="98.841579">
<time>2014-08-05T00:37:34Z</time></trkpt>
<trkpt lat="25.974385" lon="98.841559">
<time>2014-08-05T00:37:35Z</time></trkpt>
<trkpt lat="25.974445" lon="98.841539">
<time>2014-08-05T00:37:36Z</time></trkpt>
<trkpt lat="25.974545" lon="98.841509">
<time>2014-08-05T00:37:37Z</time></trkpt>
<trkpt lat="25.974715" lon="98.841439">
<time>2014-08-05T00:37:38Z</time></trkpt>
<trkpt lat="25.975005" lon="98.841308">
<time>2014-08-05T00:37:39Z</time></trkpt>
<trkpt lat="25.975085" lon="98.841278">
<time>2014-08-05T00:37:40Z</time></trkpt>
<trkpt lat="25.975165" lon="98.841238">
<time>2014-08-05T00:37:41Z</time></trkpt>
<trkpt lat="25.975215" lon="98.841228">
<time>2014-08-05T00:37:42Z</time></trkpt>
<trkpt lat="25.975265" lon="98.841208">
<time>2014-08-05T00:37:43Z</time></trkpt>
<trkpt lat="25.975325" lon="98.841198">
<time>2014-08-05T00:37:44Z</time></trkpt>
<trkpt lat="25.975385" lon="98.841178">
<time>2014-08-05T00:37:45Z</time></trkpt>
<trkpt lat="25.975505" lon="98.841168">
<time>2014-08-05T00:37:46Z</time></trkpt>
<trkpt lat="25.975635" lon="98.841148">
<time>2014-08-05T00:37:47Z</time></trkpt>
<trkpt lat="25.976176" lon="98.841108">
<time>2014-08-05T00:37:48Z</time></trkpt>
<trkpt lat="25.976696" lon="98.841078">
<time>2014-08-05T00:37:49Z</time></trkpt>
<trkpt lat="25.977346" lon="98.841028">
<time>2014-08-05T00:37:50Z</time></trkpt>
<trkpt lat="25.977477" lon="98.841008">
<time>2014-08-05T00:37:51Z</time></trkpt>
<trkpt lat="25.977677" lon="98.840988">
<time>2014-08-05T00:37:52Z</time></trkpt>
<trkpt lat="25.977877" lon="98.840958">
<time>2014-08-05T00:37:53Z</time></trkpt>
<trkpt lat="25.978037" lon="98.840938">
<time>2014-08-05T00:37:54Z</time></trkpt>
<trkpt lat="25.978217" lon="98.840918">
<time>2014-08-05T00:37:55Z</time></trkpt>
<trkpt lat="25.978397" lon="98.840898">
<time>2014-08-05T00:37:56Z</time></trkpt>
<trkpt lat="25.978547" lon="98.840888">
<time>2014-08-05T00:37:57Z</time></trkpt>
<trkpt lat="25.978877" lon="98.840868">
<time>2014-08-05T00:37:58Z</time></trkpt>
<trkpt lat="25.979237" lon="98.840858">
<time>2014-08-05T00:37:59Z</time></trkpt>
<trkpt lat="25.979478" lon="98.840858">
<time>2014-08-05T00:38:00Z</time></trkpt>
<trkpt lat="25.979628" lon="98.840858">
<time>2014-08-05T00:38:01Z</time></trkpt>
<trkpt lat="25.979768" lon="98.840868">
<time>2014-08-05T00:38:02Z</time></trkpt>
<trkpt lat="25.979898" lon="98.840898">
<time>2014-08-05T00:38:03Z</time></trkpt>
<trkpt lat="25.980008" lon="98.840928">
<time>2014-08-05T00:38:04Z</time></trkpt>
<trkpt lat="25.980168" lon="98.840978">
<time>2014-08-05T00:38:05Z</time></trkpt>
<trkpt lat="25.980409" lon="98.841058">
<time>2014-08-05T00:38:06Z</time></trkpt>
<trkpt lat="25.980539" lon="98.841088">
<time>2014-08-05T00:38:07Z</time></trkpt>
<trkpt lat="25.980649" lon="98.841108">
<time>2014-08-05T00:38:08Z</time></trkpt>
<trkpt lat="25.980739" lon="98.841118">
<time>2014-08-05T00:38:09Z</time></trkpt>
<trkpt lat="25.980849" lon="98.841128">
<time>2014-08-05T00:38:10Z</time></trkpt>
<trkpt lat="25.981019" lon="98.841128">
<time>2014-08-05T00:38:11Z</time></trkpt>
<trkpt lat="25.981269" lon="98.841118">
<time>2014-08-05T00:38:12Z</time></trkpt>
<trkpt lat="25.98152" lon="98.841128">
<time>2014-08-05T00:38:13Z</time></trkpt>
<trkpt lat="25.98165" lon="98.841148">
<time>2014-08-05T00:38:14Z</time></trkpt>
<trkpt lat="25.98173" lon="98.841168">
<time>2014-08-05T00:38:15Z</time></trkpt>
<trkpt lat="25.98182" lon="98.841188">
<time>2014-08-05T00:38:16Z</time></trkpt>
<trkpt lat="25.98191" lon="98.841218">
<time>2014-08-05T00:38:17Z</time></trkpt>
<trkpt lat="25.98207" lon="98.841268">
<time>2014-08-05T00:38:18Z</time></trkpt>
<trkpt lat="25.98219" lon="98.841298">
<time>2014-08-05T00:38:19Z</time></trkpt>
<trkpt lat="25.98229" lon="98.841318">
<time>2014-08-05T00:38:20Z</time></trkpt>
<trkpt lat="25.98232" lon="98.841328">
<time>2014-08-05T00:38:21Z</time></trkpt>
<trkpt lat="25.982351" lon="98.841328">
<time>2014-08-05T00:38:22Z</time></trkpt>
<trkpt lat="25.982401" lon="98.841328">
<time>2014-08-05T00:38:23Z</time></trkpt>
<trkpt lat="25.982431" lon="98.841328">
<time>2014-08-05T00:38:24Z</time></trkpt>
<trkpt lat="25.982461" lon="98.841318">
<time>2014-08-05T00:38:25Z</time></trkpt>
<trkpt lat="25.982491" lon="98.841318">
<time>2014-08-05T00:38:26Z</time></trkpt>
<trkpt lat="25.982521" lon="98.841308">
<time>2014-08-05T00:38:27Z</time></trkpt>
<trkpt lat="25.982541" lon="98.841298">
<time>2014-08-05T00:38:28Z</time></trkpt>
<trkpt lat="25.982571" lon="98.841278">
<time>2014-08-05T00:38:29Z</time></trkpt>
<trkpt lat="25.982621" lon="98.841248">
<time>2014-08-05T00:38:30Z</time></trkpt>
<trkpt lat="25.98268" lon="98.841198">
<time>2014-08-05T00:38:31Z</time></trkpt>
<trkpt lat="25.98271" lon="98.841168">
<time>2014-08-05T00:38:32Z</time></trkpt>
<trkpt lat="25.98293" lon="98.840978">
<time>2014-08-05T00:38:33Z</time></trkpt>
<trkpt lat="25.98305" lon="98.840868">
<time>2014-08-05T00:38:34Z</time></trkpt>
<trkpt lat="25.98317" lon="98.840778">
<time>2014-08-05T00:38:35Z</time></trkpt>
<trkpt lat="25.98326" lon="98.840738">
<time>2014-08-05T00:38:36Z</time></trkpt>
<trkpt lat="25.98334" lon="98.840708">
<time>2014-08-05T00:38:37Z</time></trkpt>
<trkpt lat="25.98344" lon="98.840668">
<time>2014-08-05T00:38:38Z</time></trkpt>
<trkpt lat="25.98363" lon="98.840607">
<time>2014-08-05T00:38:39Z</time></trkpt>
<trkpt lat="25.98391" lon="98.840507">
<time>2014-08-05T00:38:40Z</time></trkpt>
<trkpt lat="25.98405" lon="98.840457">
<time>2014-08-05T00:38:41Z</time></trkpt>
<trkpt lat="25.98415" lon="98.840427">
<time>2014-08-05T00:38:42Z</time></trkpt>
<trkpt lat="25.98423" lon="98.840407">
<time>2014-08-05T00:38:43Z</time></trkpt>
<trkpt lat="25.98437" lon="98.840397">
<time>2014-08-05T00:38:44Z</time></trkpt>
<trkpt lat="25.98449" lon="98.840387">
<time>2014-08-05T00:38:45Z</time></trkpt>
<trkpt lat="25.98466" lon="98.840397">
<time>2014-08-05T00:38:46Z</time></trkpt>
<trkpt lat="25.984801" lon="98.840407">
<time>2014-08-05T00:38:47Z</time></trkpt>
<trkpt lat="25.985001" lon="98.840427">
<time>2014-08-05T00:38:48Z</time></trkpt>
<trkpt lat="25.985121" lon="98.840427">
<time>2014-08-05T00:38:49Z</time></trkpt>
<trkpt lat="25.985271" lon="98.840427">
<time>2014-08-05T00:38:50Z</time></trkpt>
<trkpt lat="25.985371" lon="98.840407">
<time>2014-08-05T00:38:51Z</time></trkpt>
<trkpt lat="25.985491" lon="98.840397">
<time>2014-08-05T00:38:52Z</time></trkpt>
<trkpt lat="25.985581" lon="98.840387">
<time>2014-08-05T00:38:53Z</time></trkpt>
<trkpt lat="25.985661" lon="98.840367">
<time>2014-08-05T00:38:54Z</time></trkpt>
<trkpt lat="25.985731" lon="98.840357">
<time>2014-08-05T00:38:55Z</time></trkpt>
<trkpt lat="25.985921" lon="98.840317">
<time>2014-08-05T00:38:56Z</time></trkpt>
<trkpt lat="25.986031" lon="98.840307">
<time>2014-08-05T00:38:57Z</time></trkpt>
<trkpt lat="25.986211" lon="98.840287">
<time>2014-08-05T00:38:58Z</time></trkpt>
<trkpt lat="25.986301" lon="98.840287">
<time>2014-08-05T00:38:59Z</time></trkpt>
<trkpt lat="25.986371" lon="98.840287">
<time>2014-08-05T00:39:00Z</time></trkpt>
<trkpt lat="25.986722" lon="98.840307">
<time>2014-08-05T00:39:01Z</time></trkpt>
<trkpt lat="25.987182" lon="98.840347">
<time>2014-08-05T00:39:02Z</time></trkpt>
<trkpt lat="25.987432" lon="98.840387">
<time>2014-08-05T00:39:03Z</time></trkpt>
<trkpt lat="25.987572" lon="98.840407">
<time>2014-08-05T00:39:04Z</time></trkpt>
<trkpt lat="25.987983" lon="98.840487">
<time>2014-08-05T00:39:05Z</time></trkpt>
<trkpt lat="25.988323" lon="98.840567">
<time>2014-08-05T00:39:06Z</time></trkpt>
<trkpt lat="25.988674" lon="98.840657">
<time>2014-08-05T00:39:07Z</time></trkpt>
<trkpt lat="25.989164" lon="98.840788">
<time>2014-08-05T00:39:08Z</time></trkpt>
<trkpt lat="25.989345" lon="98.840838">
<time>2014-08-05T00:39:09Z</time></trkpt>
<trkpt lat="25.989495" lon="98.840898">
<time>2014-08-05T00:39:10Z</time></trkpt>
<trkpt lat="25.989615" lon="98.840968">
<time>2014-08-05T00:39:11Z</time></trkpt>
<trkpt lat="25.989785" lon="98.841068">
<time>2014-08-05T00:39:12Z</time></trkpt>
<trkpt lat="25.989905" lon="98.841128">
<time>2014-08-05T00:39:13Z</time></trkpt>
<trkpt lat="25.989986" lon="98.841158">
<time>2014-08-05T00:39:14Z</time></trkpt>
<trkpt lat="25.990056" lon="98.841178">
<time>2014-08-05T00:39:15Z</time></trkpt>
<trkpt lat="25.990116" lon="98.841178">
<time>2014-08-05T00:39:16Z</time></trkpt>
<trkpt lat="25.990176" lon="98.841168">
<time>2014-08-05T00:39:17Z</time></trkpt>
<trkpt lat="25.990446" lon="98.841108">
<time>2014-08-05T00:39:18Z</time></trkpt>
<trkpt lat="25.990646" lon="98.841058">
<time>2014-08-05T00:39:19Z</time></trkpt>
<trkpt lat="25.990746" lon="98.841048">
<time>2014-08-05T00:39:20Z</time></trkpt>
<trkpt lat="25.990826" lon="98.841038">
<time>2014-08-05T00:39:21Z</time></trkpt>
<trkpt lat="25.990896" lon="98.841048">
<time>2014-08-05T00:39:22Z</time></trkpt>
<trkpt lat="25.990986" lon="98.841058">
<time>2014-08-05T00:39:23Z</time></trkpt>
<trkpt lat="25.991126" lon="98.841098">
<time>2014-08-05T00:39:24Z</time></trkpt>
<trkpt lat="25.991497" lon="98.841228">
<time>2014-08-05T00:39:25Z</time></trkpt>
<trkpt lat="25.991707" lon="98.841288">
<time>2014-08-05T00:39:26Z</time></trkpt>
<trkpt lat="25.992168" lon="98.841448">
<time>2014-08-05T00:39:27Z</time></trkpt>
<trkpt lat="25.993459" lon="98.841939">
<time>2014-08-05T00:39:28Z</time></trkpt>
<trkpt lat="25.99398" lon="98.842179">
<time>2014-08-05T00:39:29Z</time></trkpt>
<trkpt lat="25.994391" lon="98.842399">
<time>2014-08-05T00:39:30Z</time></trkpt>
<trkpt lat="25.994982" lon="98.84275">
<time>2014-08-05T00:39:31Z</time></trkpt>
<trkpt lat="25.995292" lon="98.84291">
<time>2014-08-05T00:39:32Z</time></trkpt>
<trkpt lat="25.995673" lon="98.84302">
<time>2014-08-05T00:39:33Z</time></trkpt>
<trkpt lat="25.996023" lon="98.84313">
<time>2014-08-05T00:39:34Z</time></trkpt>
<trkpt lat="25.996444" lon="98.843361">
<time>2014-08-05T00:39:35Z</time></trkpt>
<trkpt lat="25.997005" lon="98.843731">
<time>2014-08-05T00:39:36Z</time></trkpt>
<trkpt lat="25.997606" lon="98.843971">
<time>2014-08-05T00:39:37Z</time></trkpt>
<trkpt lat="25.998557" lon="98.844242">
<time>2014-08-05T00:39:38Z</time></trkpt>
<trkpt lat="25.999118" lon="98.844402">
<time>2014-08-05T00:39:39Z</time></trkpt>
<trkpt lat="25.999478" lon="98.844532">
<time>2014-08-05T00:39:40Z</time></trkpt>
<trkpt lat="25.999799" lon="98.844672">
<time>2014-08-05T00:39:41Z</time></trkpt>
<trkpt lat="25.999929" lon="98.844742">
<time>2014-08-05T00:39:42Z</time></trkpt>
<trkpt lat="26.000019" lon="98.844842">
<time>2014-08-05T00:39:43Z</time></trkpt>
<trkpt lat="26.001031" lon="98.845473">
<time>2014-08-05T00:39:44Z</time></trkpt>
<trkpt lat="26.001882" lon="98.845813">
<time>2014-08-05T00:39:45Z</time></trkpt>
<trkpt lat="26.002623" lon="98.846124">
<time>2014-08-05T00:39:46Z</time></trkpt>
<trkpt lat="26.003264" lon="98.846374">
<time>2014-08-05T00:39:47Z</time></trkpt>
<trkpt lat="26.004025" lon="98.846805">
<time>2014-08-05T00:39:48Z</time></trkpt>
<trkpt lat="26.004596" lon="98.847125">
<time>2014-08-05T00:39:49Z</time></trkpt>
<trkpt lat="26.005027" lon="98.847315">
<time>2014-08-05T00:39:50Z</time></trkpt>
<trkpt lat="26.005327" lon="98.847415">
<time>2014-08-05T00:39:51Z</time></trkpt>
<trkpt lat="26.005578" lon="98.847465">
<time>2014-08-05T00:39:52Z</time></trkpt>
<trkpt lat="26.005908" lon="98.847485">
<time>2014-08-05T00:39:53Z</time></trkpt>
<trkpt lat="26.006428" lon="98.847495">
<time>2014-08-05T00:39:54Z</time></trkpt>
<trkpt lat="26.006699" lon="98.847495">
<time>2014-08-05T00:39:55Z</time></trkpt>
<trkpt lat="26.006799" lon="98.847505">
<time>2014-08-05T00:39:56Z</time></trkpt>
<trkpt lat="26.006899" lon="98.847525">
<time>2014-08-05T00:39:57Z</time></trkpt>
<trkpt lat="26.006979" lon="98.847555">
<time>2014-08-05T00:39:58Z</time></trkpt>
<trkpt lat="26.007099" lon="98.847615">
<time>2014-08-05T00:39:59Z</time></trkpt>
<trkpt lat="26.007299" lon="98.847746">
<time>2014-08-05T00:40:00Z</time></trkpt>
<trkpt lat="26.00756" lon="98.847886">
<time>2014-08-05T00:40:01Z</time></trkpt>
<trkpt lat="26.00767" lon="98.847936">
<time>2014-08-05T00:40:02Z</time></trkpt>
<trkpt lat="26.00776" lon="98.847966">
<time>2014-08-05T00:40:03Z</time></trkpt>
<trkpt lat="26.00784" lon="98.847976">
<time>2014-08-05T00:40:04Z</time></trkpt>
<trkpt lat="26.00819" lon="98.847996">
<time>2014-08-05T00:40:05Z</time></trkpt>
<trkpt lat="26.008401" lon="98.847986">
<time>2014-08-05T00:40:06Z</time></trkpt>
<trkpt lat="26.008661" lon="98.847996">
<time>2014-08-05T00:40:07Z</time></trkpt>
<trkpt lat="26.008901" lon="98.848016">
<time>2014-08-05T00:40:08Z</time></trkpt>
<trkpt lat="26.009111" lon="98.848046">
<time>2014-08-05T00:40:09Z</time></trkpt>
<trkpt lat="26.009802" lon="98.848166">
<time>2014-08-05T00:40:10Z</time></trkpt>
<trkpt lat="26.010452" lon="98.848266">
<time>2014-08-05T00:40:11Z</time></trkpt>
<trkpt lat="26.010683" lon="98.848286">
<time>2014-08-05T00:40:12Z</time></trkpt>
<trkpt lat="26.011383" lon="98.848406">
<time>2014-08-05T00:40:13Z</time></trkpt>
<trkpt lat="26.011994" lon="98.848496">
<time>2014-08-05T00:40:14Z</time></trkpt>
<trkpt lat="26.012865" lon="98.848646">
<time>2014-08-05T00:40:15Z</time></trkpt>
<trkpt lat="26.013545" lon="98.848747">
<time>2014-08-05T00:40:16Z</time></trkpt>
<trkpt lat="26.013816" lon="98.848797">
<time>2014-08-05T00:40:17Z</time></trkpt>
<trkpt lat="26.014166" lon="98.848847">
<time>2014-08-05T00:40:18Z</time></trkpt>
<trkpt lat="26.014406" lon="98.848897">
<time>2014-08-05T00:40:19Z</time></trkpt>
<trkpt lat="26.014486" lon="98.848917">
<time>2014-08-05T00:40:20Z</time></trkpt>
<trkpt lat="26.014577" lon="98.848947">
<time>2014-08-05T00:40:21Z</time></trkpt>
<trkpt lat="26.014667" lon="98.848977">
<time>2014-08-05T00:40:22Z</time></trkpt>
<trkpt lat="26.014717" lon="98.849007">
<time>2014-08-05T00:40:23Z</time></trkpt>
<trkpt lat="26.014777" lon="98.849047">
<time>2014-08-05T00:40:24Z</time></trkpt>
<trkpt lat="26.014827" lon="98.849087">
<time>2014-08-05T00:40:25Z</time></trkpt>
<trkpt lat="26.014877" lon="98.849137">
<time>2014-08-05T00:40:26Z</time></trkpt>
<trkpt lat="26.014987" lon="98.849257">
<time>2014-08-05T00:40:27Z</time></trkpt>
<trkpt lat="26.015108" lon="98.849397">
<time>2014-08-05T00:40:28Z</time></trkpt>
<trkpt lat="26.015228" lon="98.849588">
<time>2014-08-05T00:40:29Z</time></trkpt>
<trkpt lat="26.015358" lon="98.849738">
<time>2014-08-05T00:40:30Z</time></trkpt>
<trkpt lat="26.015429" lon="98.849798">
<time>2014-08-05T00:40:31Z</time></trkpt>
<trkpt lat="26.015499" lon="98.849848">
<time>2014-08-05T00:40:32Z</time></trkpt>
<trkpt lat="26.015559" lon="98.849888">
<time>2014-08-05T00:40:33Z</time></trkpt>
<trkpt lat="26.015629" lon="98.849928">
<time>2014-08-05T00:40:34Z</time></trkpt>
<trkpt lat="26.015719" lon="98.849968">
<time>2014-08-05T00:40:35Z</time></trkpt>
<trkpt lat="26.015789" lon="98.849998">
<time>2014-08-05T00:40:36Z</time></trkpt>
<trkpt lat="26.015869" lon="98.850018">
<time>2014-08-05T00:40:37Z</time></trkpt>
<trkpt lat="26.015949" lon="98.850038">
<time>2014-08-05T00:40:38Z</time></trkpt>
<trkpt lat="26.016099" lon="98.850058">
<time>2014-08-05T00:40:39Z</time></trkpt>
<trkpt lat="26.01688" lon="98.850028">
<time>2014-08-05T00:40:40Z</time></trkpt>
<trkpt lat="26.01729" lon="98.850028">
<time>2014-08-05T00:40:41Z</time></trkpt>
<trkpt lat="26.017711" lon="98.850008">
<time>2014-08-05T00:40:42Z</time></trkpt>
<trkpt lat="26.018261" lon="98.849998">
<time>2014-08-05T00:40:43Z</time></trkpt>
<trkpt lat="26.018451" lon="98.849988">
<time>2014-08-05T00:40:44Z</time></trkpt>
<trkpt lat="26.018661" lon="98.849978">
<time>2014-08-05T00:40:45Z</time></trkpt>
<trkpt lat="26.018811" lon="98.849968">
<time>2014-08-05T00:40:46Z</time></trkpt>
<trkpt lat="26.018921" lon="98.849958">
<time>2014-08-05T00:40:47Z</time></trkpt>
<trkpt lat="26.019001" lon="98.849938">
<time>2014-08-05T00:40:48Z</time></trkpt>
<trkpt lat="26.019081" lon="98.849928">
<time>2014-08-05T00:40:49Z</time></trkpt>
<trkpt lat="26.019131" lon="98.849908">
<time>2014-08-05T00:40:50Z</time></trkpt>
<trkpt lat="26.019181" lon="98.849878">
<time>2014-08-05T00:40:51Z</time></trkpt>
<trkpt lat="26.019241" lon="98.849848">
<time>2014-08-05T00:40:52Z</time></trkpt>
<trkpt lat="26.019291" lon="98.849808">
<time>2014-08-05T00:40:53Z</time></trkpt>
<trkpt lat="26.019471" lon="98.849668">
<time>2014-08-05T00:40:54Z</time></trkpt>
<trkpt lat="26.019651" lon="98.849497">
<time>2014-08-05T00:40:55Z</time></trkpt>
<trkpt lat="26.019781" lon="98.849357">
<time>2014-08-05T00:40:56Z</time></trkpt>
<trkpt lat="26.020041" lon="98.849087">
<time>2014-08-05T00:40:57Z</time></trkpt>
<trkpt lat="26.02018" lon="98.848967">
<time>2014-08-05T00:40:58Z</time></trkpt>
<trkpt lat="26.02022" lon="98.848937">
<time>2014-08-05T00:40:59Z</time></trkpt>
<trkpt lat="26.02026" lon="98.848917">
<time>2014-08-05T00:41:00Z</time></trkpt>
<trkpt lat="26.0203" lon="98.848897">
<time>2014-08-05T00:41:01Z</time></trkpt>
<trkpt lat="26.02035" lon="98.848887">
<time>2014-08-05T00:41:02Z</time></trkpt>
<trkpt lat="26.02039" lon="98.848887">
<time>2014-08-05T00:41:03Z</time></trkpt>
<trkpt lat="26.020451" lon="98.848887">
<time>2014-08-05T00:41:04Z</time></trkpt>
<trkpt lat="26.020591" lon="98.848887">
<time>2014-08-05T00:41:05Z</time></trkpt>
<trkpt lat="26.020761" lon="98.848917">
<time>2014-08-05T00:41:06Z</time></trkpt>
<trkpt lat="26.020861" lon="98.848937">
<time>2014-08-05T00:41:07Z</time></trkpt>
<trkpt lat="26.021061" lon="98.848997">
<time>2014-08-05T00:41:08Z</time></trkpt>
<trkpt lat="26.021311" lon="98.849067">
<time>2014-08-05T00:41:09Z</time></trkpt>
<trkpt lat="26.021532" lon="98.849097">
<time>2014-08-05T00:41:10Z</time></trkpt>
<trkpt lat="26.021652" lon="98.849087">
<time>2014-08-05T00:41:11Z</time></trkpt>
<trkpt lat="26.021772" lon="98.849037">
<time>2014-08-05T00:41:12Z</time></trkpt>
<trkpt lat="26.021972" lon="98.848887">
<time>2014-08-05T00:41:13Z</time></trkpt>
<trkpt lat="26.022121" lon="98.848746">
<time>2014-08-05T00:41:14Z</time></trkpt>
<trkpt lat="26.022121" lon="98.848736">
<time>2014-08-05T00:41:15Z</time></trkpt>
<trkpt lat="26.022271" lon="98.848576">
<time>2014-08-05T00:41:16Z</time></trkpt>
<trkpt lat="26.022571" lon="98.848236">
<time>2014-08-05T00:41:17Z</time></trkpt>
<trkpt lat="26.022731" lon="98.848056">
<time>2014-08-05T00:41:18Z</time></trkpt>
<trkpt lat="26.02314" lon="98.847645">
<time>2014-08-05T00:41:19Z</time></trkpt>
<trkpt lat="26.02353" lon="98.847305">
<time>2014-08-05T00:41:20Z</time></trkpt>
<trkpt lat="26.024029" lon="98.846844">
<time>2014-08-05T00:41:21Z</time></trkpt>
<trkpt lat="26.024349" lon="98.846494">
<time>2014-08-05T00:41:22Z</time></trkpt>
<trkpt lat="26.024589" lon="98.846244">
<time>2014-08-05T00:41:23Z</time></trkpt>
<trkpt lat="26.024729" lon="98.846153">
<time>2014-08-05T00:41:24Z</time></trkpt>
<trkpt lat="26.024899" lon="98.846123">
<time>2014-08-05T00:41:25Z</time></trkpt>
<trkpt lat="26.025099" lon="98.846133">
<time>2014-08-05T00:41:26Z</time></trkpt>
<trkpt lat="26.025369" lon="98.846173">
<time>2014-08-05T00:41:27Z</time></trkpt>
<trkpt lat="26.025679" lon="98.846133">
<time>2014-08-05T00:41:28Z</time></trkpt>
<trkpt lat="26.025949" lon="98.846033">
<time>2014-08-05T00:41:29Z</time></trkpt>
<trkpt lat="26.026269" lon="98.845783">
<time>2014-08-05T00:41:30Z</time></trkpt>
<trkpt lat="26.026579" lon="98.845523">
<time>2014-08-05T00:41:31Z</time></trkpt>
<trkpt lat="26.027089" lon="98.845192">
<time>2014-08-05T00:41:32Z</time></trkpt>
<trkpt lat="26.027229" lon="98.845122">
<time>2014-08-05T00:41:33Z</time></trkpt>
<trkpt lat="26.027389" lon="98.845072">
<time>2014-08-05T00:41:34Z</time></trkpt>
<trkpt lat="26.027479" lon="98.845052">
<time>2014-08-05T00:41:35Z</time></trkpt>
<trkpt lat="26.027559" lon="98.845042">
<time>2014-08-05T00:41:36Z</time></trkpt>
<trkpt lat="26.027649" lon="98.845032">
<time>2014-08-05T00:41:37Z</time></trkpt>
<trkpt lat="26.027739" lon="98.845032">
<time>2014-08-05T00:41:38Z</time></trkpt>
<trkpt lat="26.028019" lon="98.845012">
<time>2014-08-05T00:41:39Z</time></trkpt>
<trkpt lat="26.028179" lon="98.845002">
<time>2014-08-05T00:41:40Z</time></trkpt>
<trkpt lat="26.028389" lon="98.844962">
<time>2014-08-05T00:41:41Z</time></trkpt>
<trkpt lat="26.028799" lon="98.844832">
<time>2014-08-05T00:41:42Z</time></trkpt>
<trkpt lat="26.029259" lon="98.844702">
<time>2014-08-05T00:41:43Z</time></trkpt>
<trkpt lat="26.029679" lon="98.844592">
<time>2014-08-05T00:41:44Z</time></trkpt>
<trkpt lat="26.02986" lon="98.844551">
<time>2014-08-05T00:41:45Z</time></trkpt>
<trkpt lat="26.03004" lon="98.844521">
<time>2014-08-05T00:41:46Z</time></trkpt>
<trkpt lat="26.03045" lon="98.844481">
<time>2014-08-05T00:41:47Z</time></trkpt>
<trkpt lat="26.03092" lon="98.844481">
<time>2014-08-05T00:41:48Z</time></trkpt>
<trkpt lat="26.03136" lon="98.844481">
<time>2014-08-05T00:41:49Z</time></trkpt>
<trkpt lat="26.031601" lon="98.844481">
<time>2014-08-05T00:41:50Z</time></trkpt>
<trkpt lat="26.031801" lon="98.844491">
<time>2014-08-05T00:41:51Z</time></trkpt>
<trkpt lat="26.032021" lon="98.844521">
<time>2014-08-05T00:41:52Z</time></trkpt>
<trkpt lat="26.032221" lon="98.844561">
<time>2014-08-05T00:41:53Z</time></trkpt>
<trkpt lat="26.032431" lon="98.844612">
<time>2014-08-05T00:41:54Z</time></trkpt>
<trkpt lat="26.032642" lon="98.844662">
<time>2014-08-05T00:41:55Z</time></trkpt>
<trkpt lat="26.032972" lon="98.844762">
<time>2014-08-05T00:41:56Z</time></trkpt>
<trkpt lat="26.033142" lon="98.844842">
<time>2014-08-05T00:41:57Z</time></trkpt>
<trkpt lat="26.033333" lon="98.844932">
<time>2014-08-05T00:41:58Z</time></trkpt>
<trkpt lat="26.033843" lon="98.845222">
<time>2014-08-05T00:41:59Z</time></trkpt>
<trkpt lat="26.034374" lon="98.845513">
<time>2014-08-05T00:42:00Z</time></trkpt>
<trkpt lat="26.035025" lon="98.845863">
<time>2014-08-05T00:42:01Z</time></trkpt>
<trkpt lat="26.035516" lon="98.846143">
<time>2014-08-05T00:42:02Z</time></trkpt>
<trkpt lat="26.036037" lon="98.846424">
<time>2014-08-05T00:42:03Z</time></trkpt>
<trkpt lat="26.036398" lon="98.846624">
<time>2014-08-05T00:42:04Z</time></trkpt>
<trkpt lat="26.036718" lon="98.846804">
<time>2014-08-05T00:42:05Z</time></trkpt>
<trkpt lat="26.036868" lon="98.846874">
<time>2014-08-05T00:42:06Z</time></trkpt>
<trkpt lat="26.036919" lon="98.846904">
<time>2014-08-05T00:42:07Z</time></trkpt>
<trkpt lat="26.037289" lon="98.847114">
<time>2014-08-05T00:42:08Z</time></trkpt>
<trkpt lat="26.03758" lon="98.847275">
<time>2014-08-05T00:42:09Z</time></trkpt>
<trkpt lat="26.03774" lon="98.847375">
<time>2014-08-05T00:42:10Z</time></trkpt>
<trkpt lat="26.03792" lon="98.847465">
<time>2014-08-05T00:42:11Z</time></trkpt>
<trkpt lat="26.038231" lon="98.847575">
<time>2014-08-05T00:42:12Z</time></trkpt>
<trkpt lat="26.038451" lon="98.847645">
<time>2014-08-05T00:42:13Z</time></trkpt>
<trkpt lat="26.038731" lon="98.847735">
<time>2014-08-05T00:42:14Z</time></trkpt>
<trkpt lat="26.038972" lon="98.847825">
<time>2014-08-05T00:42:15Z</time></trkpt>
<trkpt lat="26.039192" lon="98.847915">
<time>2014-08-05T00:42:16Z</time></trkpt>
<trkpt lat="26.039502" lon="98.848045">
<time>2014-08-05T00:42:17Z</time></trkpt>
<trkpt lat="26.039983" lon="98.848306">
<time>2014-08-05T00:42:18Z</time></trkpt>
<trkpt lat="26.040214" lon="98.848446">
<time>2014-08-05T00:42:19Z</time></trkpt>
<trkpt lat="26.040524" lon="98.848636">
<time>2014-08-05T00:42:20Z</time></trkpt>
<trkpt lat="26.041195" lon="98.849036">
<time>2014-08-05T00:42:21Z</time></trkpt>
<trkpt lat="26.041436" lon="98.849177">
<time>2014-08-05T00:42:22Z</time></trkpt>
<trkpt lat="26.041856" lon="98.849417">
<time>2014-08-05T00:42:23Z</time></trkpt>
<trkpt lat="26.042137" lon="98.849587">
<time>2014-08-05T00:42:24Z</time></trkpt>
<trkpt lat="26.042397" lon="98.849747">
<time>2014-08-05T00:42:25Z</time></trkpt>
<trkpt lat="26.042658" lon="98.849907">
<time>2014-08-05T00:42:26Z</time></trkpt>
<trkpt lat="26.042878" lon="98.850068">
<time>2014-08-05T00:42:27Z</time></trkpt>
<trkpt lat="26.043099" lon="98.850218">
<time>2014-08-05T00:42:28Z</time></trkpt>
<trkpt lat="26.043489" lon="98.850498">
<time>2014-08-05T00:42:29Z</time></trkpt>
<trkpt lat="26.04388" lon="98.850768">
<time>2014-08-05T00:42:30Z</time></trkpt>
<trkpt lat="26.04407" lon="98.850888">
<time>2014-08-05T00:42:31Z</time></trkpt>
<trkpt lat="26.044251" lon="98.850969">
<time>2014-08-05T00:42:32Z</time></trkpt>
<trkpt lat="26.044511" lon="98.851079">
<time>2014-08-05T00:42:33Z</time></trkpt>
<trkpt lat="26.044751" lon="98.851179">
<time>2014-08-05T00:42:34Z</time></trkpt>
<trkpt lat="26.044982" lon="98.851259">
<time>2014-08-05T00:42:35Z</time></trkpt>
<trkpt lat="26.045112" lon="98.851329">
<time>2014-08-05T00:42:36Z</time></trkpt>
<trkpt lat="26.045272" lon="98.851399">
<time>2014-08-05T00:42:37Z</time></trkpt>
<trkpt lat="26.045442" lon="98.851509">
<time>2014-08-05T00:42:38Z</time></trkpt>
<trkpt lat="26.045763" lon="98.851749">
<time>2014-08-05T00:42:39Z</time></trkpt>
<trkpt lat="26.046084" lon="98.85195">
<time>2014-08-05T00:42:40Z</time></trkpt>
<trkpt lat="26.046554" lon="98.85221">
<time>2014-08-05T00:42:41Z</time></trkpt>
<trkpt lat="26.047185" lon="98.85251">
<time>2014-08-05T00:42:42Z</time></trkpt>
<trkpt lat="26.047466" lon="98.85263">
<time>2014-08-05T00:42:43Z</time></trkpt>
<trkpt lat="26.047826" lon="98.8528">
<time>2014-08-05T00:42:44Z</time></trkpt>
<trkpt lat="26.048066" lon="98.85288">
<time>2014-08-05T00:42:45Z</time></trkpt>
<trkpt lat="26.048607" lon="98.853041">
<time>2014-08-05T00:42:46Z</time></trkpt>
<trkpt lat="26.048867" lon="98.853111">
<time>2014-08-05T00:42:47Z</time></trkpt>
<trkpt lat="26.049208" lon="98.853191">
<time>2014-08-05T00:42:48Z</time></trkpt>
<trkpt lat="26.049418" lon="98.853231">
<time>2014-08-05T00:42:49Z</time></trkpt>
<trkpt lat="26.049858" lon="98.853311">
<time>2014-08-05T00:42:50Z</time></trkpt>
<trkpt lat="26.049999" lon="98.853341">
<time>2014-08-05T00:42:51Z</time></trkpt>
<trkpt lat="26.050119" lon="98.853361">
<time>2014-08-05T00:42:52Z</time></trkpt>
<trkpt lat="26.050539" lon="98.853471">
<time>2014-08-05T00:42:53Z</time></trkpt>
<trkpt lat="26.050819" lon="98.853561">
<time>2014-08-05T00:42:54Z</time></trkpt>
<trkpt lat="26.05135" lon="98.853751">
<time>2014-08-05T00:42:55Z</time></trkpt>
<trkpt lat="26.051711" lon="98.853891">
<time>2014-08-05T00:42:56Z</time></trkpt>
<trkpt lat="26.051881" lon="98.853941">
<time>2014-08-05T00:42:57Z</time></trkpt>
<trkpt lat="26.052081" lon="98.854022">
<time>2014-08-05T00:42:58Z</time></trkpt>
<trkpt lat="26.052281" lon="98.854062">
<time>2014-08-05T00:42:59Z</time></trkpt>
<trkpt lat="26.052391" lon="98.854062">
<time>2014-08-05T00:43:00Z</time></trkpt>
<trkpt lat="26.052511" lon="98.854062">
<time>2014-08-05T00:43:01Z</time></trkpt>
<trkpt lat="26.052631" lon="98.854042">
<time>2014-08-05T00:43:02Z</time></trkpt>
<trkpt lat="26.052942" lon="98.853992">
<time>2014-08-05T00:43:03Z</time></trkpt>
<trkpt lat="26.053152" lon="98.853981">
<time>2014-08-05T00:43:04Z</time></trkpt>
<trkpt lat="26.053272" lon="98.854002">
<time>2014-08-05T00:43:05Z</time></trkpt>
<trkpt lat="26.053422" lon="98.854042">
<time>2014-08-05T00:43:06Z</time></trkpt>
<trkpt lat="26.053492" lon="98.854082">
<time>2014-08-05T00:43:07Z</time></trkpt>
<trkpt lat="26.053592" lon="98.854132">
<time>2014-08-05T00:43:08Z</time></trkpt>
<trkpt lat="26.053713" lon="98.854222">
<time>2014-08-05T00:43:09Z</time></trkpt>
<trkpt lat="26.053843" lon="98.854372">
<time>2014-08-05T00:43:10Z</time></trkpt>
<trkpt lat="26.053933" lon="98.854502">
<time>2014-08-05T00:43:11Z</time></trkpt>
<trkpt lat="26.054064" lon="98.854722">
<time>2014-08-05T00:43:12Z</time></trkpt>
<trkpt lat="26.054184" lon="98.854972">
<time>2014-08-05T00:43:13Z</time></trkpt>
<trkpt lat="26.054224" lon="98.855043">
<time>2014-08-05T00:43:14Z</time></trkpt>
<trkpt lat="26.054264" lon="98.855113">
<time>2014-08-05T00:43:15Z</time></trkpt>
<trkpt lat="26.054304" lon="98.855163">
<time>2014-08-05T00:43:16Z</time></trkpt>
<trkpt lat="26.054355" lon="98.855223">
<time>2014-08-05T00:43:17Z</time></trkpt>
<trkpt lat="26.054405" lon="98.855263">
<time>2014-08-05T00:43:18Z</time></trkpt>
<trkpt lat="26.054475" lon="98.855313">
<time>2014-08-05T00:43:19Z</time></trkpt>
<trkpt lat="26.054535" lon="98.855353">
<time>2014-08-05T00:43:20Z</time></trkpt>
<trkpt lat="26.055096" lon="98.855643">
<time>2014-08-05T00:43:21Z</time></trkpt>
<trkpt lat="26.055566" lon="98.855893">
<time>2014-08-05T00:43:22Z</time></trkpt>
<trkpt lat="26.055967" lon="98.856104">
<time>2014-08-05T00:43:23Z</time></trkpt>
<trkpt lat="26.056207" lon="98.856224">
<time>2014-08-05T00:43:24Z</time></trkpt>
<trkpt lat="26.056438" lon="98.856294">
<time>2014-08-05T00:43:25Z</time></trkpt>
<trkpt lat="26.056668" lon="98.856324">
<time>2014-08-05T00:43:26Z</time></trkpt>
<trkpt lat="26.056808" lon="98.856324">
<time>2014-08-05T00:43:27Z</time></trkpt>
<trkpt lat="26.056938" lon="98.856314">
<time>2014-08-05T00:43:28Z</time></trkpt>
<trkpt lat="26.057208" lon="98.856254">
<time>2014-08-05T00:43:29Z</time></trkpt>
<trkpt lat="26.057398" lon="98.856204">
<time>2014-08-05T00:43:30Z</time></trkpt>
<trkpt lat="26.057648" lon="98.856144">
<time>2014-08-05T00:43:31Z</time></trkpt>
<trkpt lat="26.057908" lon="98.856083">
<time>2014-08-05T00:43:32Z</time></trkpt>
<trkpt lat="26.058118" lon="98.856043">
<time>2014-08-05T00:43:33Z</time></trkpt>
<trkpt lat="26.058269" lon="98.856033">
<time>2014-08-05T00:43:34Z</time></trkpt>
<trkpt lat="26.058449" lon="98.856043">
<time>2014-08-05T00:43:35Z</time></trkpt>
<trkpt lat="26.058649" lon="98.856073">
<time>2014-08-05T00:43:36Z</time></trkpt>
<trkpt lat="26.058819" lon="98.856103">
<time>2014-08-05T00:43:37Z</time></trkpt>
<trkpt lat="26.059039" lon="98.856164">
<time>2014-08-05T00:43:38Z</time></trkpt>
<trkpt lat="26.05921" lon="98.856224">
<time>2014-08-05T00:43:39Z</time></trkpt>
<trkpt lat="26.0596" lon="98.856344">
<time>2014-08-05T00:43:40Z</time></trkpt>
<trkpt lat="26.05977" lon="98.856394">
<time>2014-08-05T00:43:41Z</time></trkpt>
<trkpt lat="26.0599" lon="98.856424">
<time>2014-08-05T00:43:42Z</time></trkpt>
<trkpt lat="26.060261" lon="98.856474">
<time>2014-08-05T00:43:43Z</time></trkpt>
<trkpt lat="26.060631" lon="98.856504">
<time>2014-08-05T00:43:44Z</time></trkpt>
<trkpt lat="26.060851" lon="98.856534">
<time>2014-08-05T00:43:45Z</time></trkpt>
<trkpt lat="26.061001" lon="98.856564">
<time>2014-08-05T00:43:46Z</time></trkpt>
<trkpt lat="26.061141" lon="98.856604">
<time>2014-08-05T00:43:47Z</time></trkpt>
<trkpt lat="26.061292" lon="98.856664">
<time>2014-08-05T00:43:48Z</time></trkpt>
<trkpt lat="26.061452" lon="98.856744">
<time>2014-08-05T00:43:49Z</time></trkpt>
<trkpt lat="26.061592" lon="98.856824">
<time>2014-08-05T00:43:50Z</time></trkpt>
<trkpt lat="26.061863" lon="98.857014">
<time>2014-08-05T00:43:51Z</time></trkpt>
<trkpt lat="26.062063" lon="98.857144">
<time>2014-08-05T00:43:52Z</time></trkpt>
<trkpt lat="26.062263" lon="98.857234">
<time>2014-08-05T00:43:53Z</time></trkpt>
<trkpt lat="26.062443" lon="98.857275">
<time>2014-08-05T00:43:54Z</time></trkpt>
<trkpt lat="26.062523" lon="98.857285">
<time>2014-08-05T00:43:55Z</time></trkpt>
<trkpt lat="26.062614" lon="98.857285">
<time>2014-08-05T00:43:56Z</time></trkpt>
<trkpt lat="26.062704" lon="98.857285">
<time>2014-08-05T00:43:57Z</time></trkpt>
<trkpt lat="26.062794" lon="98.857285">
<time>2014-08-05T00:43:58Z</time></trkpt>
<trkpt lat="26.062894" lon="98.857275">
<time>2014-08-05T00:43:59Z</time></trkpt>
<trkpt lat="26.062984" lon="98.857254">
<time>2014-08-05T00:44:00Z</time></trkpt>
<trkpt lat="26.063064" lon="98.857234">
<time>2014-08-05T00:44:01Z</time></trkpt>
<trkpt lat="26.063144" lon="98.857214">
<time>2014-08-05T00:44:02Z</time></trkpt>
<trkpt lat="26.063214" lon="98.857184">
<time>2014-08-05T00:44:03Z</time></trkpt>
<trkpt lat="26.063364" lon="98.857104">
<time>2014-08-05T00:44:04Z</time></trkpt>
<trkpt lat="26.063564" lon="98.857004">
<time>2014-08-05T00:44:05Z</time></trkpt>
<trkpt lat="26.063824" lon="98.856834">
<time>2014-08-05T00:44:06Z</time></trkpt>
<trkpt lat="26.063984" lon="98.856714">
<time>2014-08-05T00:44:07Z</time></trkpt>
<trkpt lat="26.064243" lon="98.856474">
<time>2014-08-05T00:44:08Z</time></trkpt>
<trkpt lat="26.064403" lon="98.856314">
<time>2014-08-05T00:44:09Z</time></trkpt>
<trkpt lat="26.064683" lon="98.855973">
<time>2014-08-05T00:44:10Z</time></trkpt>
<trkpt lat="26.064853" lon="98.855763">
<time>2014-08-05T00:44:11Z</time></trkpt>
<trkpt lat="26.064923" lon="98.855643">
<time>2014-08-05T00:44:12Z</time></trkpt>
<trkpt lat="26.065072" lon="98.855363">
<time>2014-08-05T00:44:13Z</time></trkpt>
<trkpt lat="26.065222" lon="98.855052">
<time>2014-08-05T00:44:14Z</time></trkpt>
<trkpt lat="26.065361" lon="98.854772">
<time>2014-08-05T00:44:15Z</time></trkpt>
<trkpt lat="26.065461" lon="98.854572">
<time>2014-08-05T00:44:16Z</time></trkpt>
<trkpt lat="26.065551" lon="98.854372">
<time>2014-08-05T00:44:17Z</time></trkpt>
<trkpt lat="26.065681" lon="98.854131">
<time>2014-08-05T00:44:18Z</time></trkpt>
<trkpt lat="26.06574" lon="98.854021">
<time>2014-08-05T00:44:19Z</time></trkpt>
<trkpt lat="26.06584" lon="98.853921">
<time>2014-08-05T00:44:20Z</time></trkpt>
<trkpt lat="26.06597" lon="98.853781">
<time>2014-08-05T00:44:21Z</time></trkpt>
<trkpt lat="26.06625" lon="98.853541">
<time>2014-08-05T00:44:22Z</time></trkpt>
<trkpt lat="26.06642" lon="98.853381">
<time>2014-08-05T00:44:23Z</time></trkpt>
<trkpt lat="26.06666" lon="98.85314">
<time>2014-08-05T00:44:24Z</time></trkpt>
<trkpt lat="26.06673" lon="98.85308">
<time>2014-08-05T00:44:25Z</time></trkpt>
<trkpt lat="26.06678" lon="98.85302">
<time>2014-08-05T00:44:26Z</time></trkpt>
<trkpt lat="26.066829" lon="98.85294">
<time>2014-08-05T00:44:27Z</time></trkpt>
<trkpt lat="26.066869" lon="98.85287">
<time>2014-08-05T00:44:28Z</time></trkpt>
<trkpt lat="26.066889" lon="98.85279">
<time>2014-08-05T00:44:29Z</time></trkpt>
<trkpt lat="26.066899" lon="98.85273">
<time>2014-08-05T00:44:30Z</time></trkpt>
<trkpt lat="26.066899" lon="98.85265">
<time>2014-08-05T00:44:31Z</time></trkpt>
<trkpt lat="26.066899" lon="98.85259">
<time>2014-08-05T00:44:32Z</time></trkpt>
<trkpt lat="26.066889" lon="98.85251">
<time>2014-08-05T00:44:33Z</time></trkpt>
<trkpt lat="26.066879" lon="98.85236">
<time>2014-08-05T00:44:34Z</time></trkpt>
<trkpt lat="26.066878" lon="98.852259">
<time>2014-08-05T00:44:35Z</time></trkpt>
<trkpt lat="26.066888" lon="98.852199">
<time>2014-08-05T00:44:36Z</time></trkpt>
<trkpt lat="26.066898" lon="98.852139">
<time>2014-08-05T00:44:37Z</time></trkpt>
<trkpt lat="26.066918" lon="98.852099">
<time>2014-08-05T00:44:38Z</time></trkpt>
<trkpt lat="26.066958" lon="98.852019">
<time>2014-08-05T00:44:39Z</time></trkpt>
<trkpt lat="26.066998" lon="98.851959">
<time>2014-08-05T00:44:40Z</time></trkpt>
<trkpt lat="26.067038" lon="98.851909">
<time>2014-08-05T00:44:41Z</time></trkpt>
<trkpt lat="26.067138" lon="98.851799">
<time>2014-08-05T00:44:42Z</time></trkpt>
<trkpt lat="26.067338" lon="98.851549">
<time>2014-08-05T00:44:43Z</time></trkpt>
<trkpt lat="26.067417" lon="98.851419">
<time>2014-08-05T00:44:44Z</time></trkpt>
<trkpt lat="26.067467" lon="98.851298">
<time>2014-08-05T00:44:45Z</time></trkpt>
<trkpt lat="26.067607" lon="98.850918">
<time>2014-08-05T00:44:46Z</time></trkpt>
<trkpt lat="26.067806" lon="98.850397">
<time>2014-08-05T00:44:47Z</time></trkpt>
<trkpt lat="26.067886" lon="98.850197">
<time>2014-08-05T00:44:48Z</time></trkpt>
<trkpt lat="26.068085" lon="98.849747">
<time>2014-08-05T00:44:49Z</time></trkpt>
<trkpt lat="26.068195" lon="98.849466">
<time>2014-08-05T00:44:50Z</time></trkpt>
<trkpt lat="26.068324" lon="98.849126">
<time>2014-08-05T00:44:51Z</time></trkpt>
<trkpt lat="26.068444" lon="98.848776">
<time>2014-08-05T00:44:52Z</time></trkpt>
<trkpt lat="26.068543" lon="98.848515">
<time>2014-08-05T00:44:53Z</time></trkpt>
<trkpt lat="26.068643" lon="98.848325">
<time>2014-08-05T00:44:54Z</time></trkpt>
<trkpt lat="26.068863" lon="98.848015">
<time>2014-08-05T00:44:55Z</time></trkpt>
<trkpt lat="26.068972" lon="98.847855">
<time>2014-08-05T00:44:56Z</time></trkpt>
<trkpt lat="26.069052" lon="98.847724">
<time>2014-08-05T00:44:57Z</time></trkpt>
<trkpt lat="26.069292" lon="98.847284">
<time>2014-08-05T00:44:58Z</time></trkpt>
<trkpt lat="26.069401" lon="98.847104">
<time>2014-08-05T00:44:59Z</time></trkpt>
<trkpt lat="26.069641" lon="98.846753">
<time>2014-08-05T00:45:00Z</time></trkpt>
<trkpt lat="26.069771" lon="98.846583">
<time>2014-08-05T00:45:01Z</time></trkpt>
<trkpt lat="26.069911" lon="98.846423">
<time>2014-08-05T00:45:02Z</time></trkpt>
<trkpt lat="26.07008" lon="98.846263">
<time>2014-08-05T00:45:03Z</time></trkpt>
<trkpt lat="26.07026" lon="98.846113">
<time>2014-08-05T00:45:04Z</time></trkpt>
<trkpt lat="26.07042" lon="98.845972">
<time>2014-08-05T00:45:05Z</time></trkpt>
<trkpt lat="26.07055" lon="98.845862">
<time>2014-08-05T00:45:06Z</time></trkpt>
<trkpt lat="26.07062" lon="98.845762">
<time>2014-08-05T00:45:07Z</time></trkpt>
<trkpt lat="26.0707" lon="98.845632">
<time>2014-08-05T00:45:08Z</time></trkpt>
<trkpt lat="26.070759" lon="98.845482">
<time>2014-08-05T00:45:09Z</time></trkpt>
<trkpt lat="26.070819" lon="98.845332">
<time>2014-08-05T00:45:10Z</time></trkpt>
<trkpt lat="26.070879" lon="98.845232">
<time>2014-08-05T00:45:11Z</time></trkpt>
<trkpt lat="26.070959" lon="98.845121">
<time>2014-08-05T00:45:12Z</time></trkpt>
<trkpt lat="26.071039" lon="98.845031">
<time>2014-08-05T00:45:13Z</time></trkpt>
<trkpt lat="26.071099" lon="98.844981">
<time>2014-08-05T00:45:14Z</time></trkpt>
<trkpt lat="26.071619" lon="98.844611">
<time>2014-08-05T00:45:15Z</time></trkpt>
<trkpt lat="26.071878" lon="98.844421">
<time>2014-08-05T00:45:16Z</time></trkpt>
<trkpt lat="26.072128" lon="98.84425">
<time>2014-08-05T00:45:17Z</time></trkpt>
<trkpt lat="26.072288" lon="98.84415">
<time>2014-08-05T00:45:18Z</time></trkpt>
<trkpt lat="26.072468" lon="98.84408">
<time>2014-08-05T00:45:19Z</time></trkpt>
<trkpt lat="26.072738" lon="98.84398">
<time>2014-08-05T00:45:20Z</time></trkpt>
<trkpt lat="26.073358" lon="98.84376">
<time>2014-08-05T00:45:21Z</time></trkpt>
<trkpt lat="26.073548" lon="98.84371">
<time>2014-08-05T00:45:22Z</time></trkpt>
<trkpt lat="26.073748" lon="98.84368">
<time>2014-08-05T00:45:23Z</time></trkpt>
<trkpt lat="26.074098" lon="98.84364">
<time>2014-08-05T00:45:24Z</time></trkpt>
<trkpt lat="26.074349" lon="98.84364">
<time>2014-08-05T00:45:25Z</time></trkpt>
<trkpt lat="26.074529" lon="98.84367">
<time>2014-08-05T00:45:26Z</time></trkpt>
<trkpt lat="26.074689" lon="98.84373">
<time>2014-08-05T00:45:27Z</time></trkpt>
<trkpt lat="26.074869" lon="98.84382">
<time>2014-08-05T00:45:28Z</time></trkpt>
<trkpt lat="26.07505" lon="98.84392">
<time>2014-08-05T00:45:29Z</time></trkpt>
<trkpt lat="26.07532" lon="98.8441">
<time>2014-08-05T00:45:30Z</time></trkpt>
<trkpt lat="26.075561" lon="98.84425">
<time>2014-08-05T00:45:31Z</time></trkpt>
<trkpt lat="26.076001" lon="98.844531">
<time>2014-08-05T00:45:32Z</time></trkpt>
<trkpt lat="26.076272" lon="98.844691">
<time>2014-08-05T00:45:33Z</time></trkpt>
<trkpt lat="26.076382" lon="98.844751">
<time>2014-08-05T00:45:34Z</time></trkpt>
<trkpt lat="26.076492" lon="98.844801">
<time>2014-08-05T00:45:35Z</time></trkpt>
<trkpt lat="26.076592" lon="98.844851">
<time>2014-08-05T00:45:36Z</time></trkpt>
<trkpt lat="26.076692" lon="98.844881">
<time>2014-08-05T00:45:37Z</time></trkpt>
<trkpt lat="26.076773" lon="98.844901">
<time>2014-08-05T00:45:38Z</time></trkpt>
<trkpt lat="26.076893" lon="98.844931">
<time>2014-08-05T00:45:39Z</time></trkpt>
<trkpt lat="26.077243" lon="98.845001">
<time>2014-08-05T00:45:40Z</time></trkpt>
<trkpt lat="26.077363" lon="98.845031">
<time>2014-08-05T00:45:41Z</time></trkpt>
<trkpt lat="26.077433" lon="98.845051">
<time>2014-08-05T00:45:42Z</time></trkpt>
<trkpt lat="26.077503" lon="98.845081">
<time>2014-08-05T00:45:43Z</time></trkpt>
<trkpt lat="26.077584" lon="98.845131">
<time>2014-08-05T00:45:44Z</time></trkpt>
<trkpt lat="26.077624" lon="98.845171">
<time>2014-08-05T00:45:45Z</time></trkpt>
<trkpt lat="26.077644" lon="98.845211">
<time>2014-08-05T00:45:46Z</time></trkpt>
<trkpt lat="26.077744" lon="98.845402">
<time>2014-08-05T00:45:47Z</time></trkpt>
<trkpt lat="26.077774" lon="98.845472">
<time>2014-08-05T00:45:48Z</time></trkpt>
<trkpt lat="26.077875" lon="98.845692">
<time>2014-08-05T00:45:49Z</time></trkpt>
<trkpt lat="26.078025" lon="98.846062">
<time>2014-08-05T00:45:50Z</time></trkpt>
<trkpt lat="26.078096" lon="98.846183">
<time>2014-08-05T00:45:51Z</time></trkpt>
<trkpt lat="26.078166" lon="98.846273">
<time>2014-08-05T00:45:52Z</time></trkpt>
<trkpt lat="26.078206" lon="98.846323">
<time>2014-08-05T00:45:53Z</time></trkpt>
<trkpt lat="26.078246" lon="98.846363">
<time>2014-08-05T00:45:54Z</time></trkpt>
<trkpt lat="26.078306" lon="98.846403">
<time>2014-08-05T00:45:55Z</time></trkpt>
<trkpt lat="26.078467" lon="98.846503">
<time>2014-08-05T00:45:56Z</time></trkpt>
<trkpt lat="26.078917" lon="98.846733">
<time>2014-08-05T00:45:57Z</time></trkpt>
<trkpt lat="26.079118" lon="98.846823">
<time>2014-08-05T00:45:58Z</time></trkpt>
<trkpt lat="26.079318" lon="98.846923">
<time>2014-08-05T00:45:59Z</time></trkpt>
<trkpt lat="26.079498" lon="98.847034">
<time>2014-08-05T00:46:00Z</time></trkpt>
<trkpt lat="26.079669" lon="98.847194">
<time>2014-08-05T00:46:01Z</time></trkpt>
<trkpt lat="26.079859" lon="98.847434">
<time>2014-08-05T00:46:02Z</time></trkpt>
<trkpt lat="26.08025" lon="98.847915">
<time>2014-08-05T00:46:03Z</time></trkpt>
<trkpt lat="26.080481" lon="98.848255">
<time>2014-08-05T00:46:04Z</time></trkpt>
<trkpt lat="26.080561" lon="98.848405">
<time>2014-08-05T00:46:05Z</time></trkpt>
<trkpt lat="26.080752" lon="98.848775">
<time>2014-08-05T00:46:06Z</time></trkpt>
<trkpt lat="26.080983" lon="98.849306">
<time>2014-08-05T00:46:07Z</time></trkpt>
<trkpt lat="26.081094" lon="98.849556">
<time>2014-08-05T00:46:08Z</time></trkpt>
<trkpt lat="26.081254" lon="98.849957">
<time>2014-08-05T00:46:09Z</time></trkpt>
<trkpt lat="26.081405" lon="98.850327">
<time>2014-08-05T00:46:10Z</time></trkpt>
<trkpt lat="26.081485" lon="98.850517">
<time>2014-08-05T00:46:11Z</time></trkpt>
<trkpt lat="26.081546" lon="98.850698">
<time>2014-08-05T00:46:12Z</time></trkpt>
<trkpt lat="26.081576" lon="98.850868">
<time>2014-08-05T00:46:13Z</time></trkpt>
<trkpt lat="26.081586" lon="98.851028">
<time>2014-08-05T00:46:14Z</time></trkpt>
<trkpt lat="26.081577" lon="98.851208">
<time>2014-08-05T00:46:15Z</time></trkpt>
<trkpt lat="26.081538" lon="98.851899">
<time>2014-08-05T00:46:16Z</time></trkpt>
<trkpt lat="26.081528" lon="98.852079">
<time>2014-08-05T00:46:17Z</time></trkpt>
<trkpt lat="26.081469" lon="98.85269">
<time>2014-08-05T00:46:18Z</time></trkpt>
<trkpt lat="26.081459" lon="98.85286">
<time>2014-08-05T00:46:19Z</time></trkpt>
<trkpt lat="26.08143" lon="98.85308">
<time>2014-08-05T00:46:20Z</time></trkpt>
<trkpt lat="26.08139" lon="98.85326">
<time>2014-08-05T00:46:21Z</time></trkpt>
<trkpt lat="26.0813" lon="98.853581">
<time>2014-08-05T00:46:22Z</time></trkpt>
<trkpt lat="26.081101" lon="98.854211">
<time>2014-08-05T00:46:23Z</time></trkpt>
<trkpt lat="26.080822" lon="98.854992">
<time>2014-08-05T00:46:24Z</time></trkpt>
<trkpt lat="26.080623" lon="98.855593">
<time>2014-08-05T00:46:25Z</time></trkpt>
<trkpt lat="26.080524" lon="98.855883">
<time>2014-08-05T00:46:26Z</time></trkpt>
<trkpt lat="26.080434" lon="98.856213">
<time>2014-08-05T00:46:27Z</time></trkpt>
<trkpt lat="26.080295" lon="98.856844">
<time>2014-08-05T00:46:28Z</time></trkpt>
<trkpt lat="26.080216" lon="98.857354">
<time>2014-08-05T00:46:29Z</time></trkpt>
<trkpt lat="26.080206" lon="98.857615">
<time>2014-08-05T00:46:30Z</time></trkpt>
<trkpt lat="26.080206" lon="98.857705">
<time>2014-08-05T00:46:31Z</time></trkpt>
<trkpt lat="26.080216" lon="98.857815">
<time>2014-08-05T00:46:32Z</time></trkpt>
<trkpt lat="26.080237" lon="98.857915">
<time>2014-08-05T00:46:33Z</time></trkpt>
<trkpt lat="26.080267" lon="98.858045">
<time>2014-08-05T00:46:34Z</time></trkpt>
<trkpt lat="26.080407" lon="98.858435">
<time>2014-08-05T00:46:35Z</time></trkpt>
<trkpt lat="26.080458" lon="98.858605">
<time>2014-08-05T00:46:36Z</time></trkpt>
<trkpt lat="26.080488" lon="98.858716">
<time>2014-08-05T00:46:37Z</time></trkpt>
<trkpt lat="26.080508" lon="98.858846">
<time>2014-08-05T00:46:38Z</time></trkpt>
<trkpt lat="26.080518" lon="98.859016">
<time>2014-08-05T00:46:39Z</time></trkpt>
<trkpt lat="26.080509" lon="98.859206">
<time>2014-08-05T00:46:40Z</time></trkpt>
<trkpt lat="26.080519" lon="98.859306">
<time>2014-08-05T00:46:41Z</time></trkpt>
<trkpt lat="26.080529" lon="98.859446">
<time>2014-08-05T00:46:42Z</time></trkpt>
<trkpt lat="26.080539" lon="98.859546">
<time>2014-08-05T00:46:43Z</time></trkpt>
<trkpt lat="26.080559" lon="98.859646">
<time>2014-08-05T00:46:44Z</time></trkpt>
<trkpt lat="26.08064" lon="98.859957">
<time>2014-08-05T00:46:45Z</time></trkpt>
<trkpt lat="26.080881" lon="98.860867">
<time>2014-08-05T00:46:46Z</time></trkpt>
<trkpt lat="26.081083" lon="98.861568">
<time>2014-08-05T00:46:47Z</time></trkpt>
<trkpt lat="26.081364" lon="98.862449">
<time>2014-08-05T00:46:48Z</time></trkpt>
<trkpt lat="26.081635" lon="98.863329">
<time>2014-08-05T00:46:49Z</time></trkpt>
<trkpt lat="26.081736" lon="98.86362">
<time>2014-08-05T00:46:50Z</time></trkpt>
<trkpt lat="26.081846" lon="98.8639">
<time>2014-08-05T00:46:51Z</time></trkpt>
<trkpt lat="26.081947" lon="98.86409">
<time>2014-08-05T00:46:52Z</time></trkpt>
<trkpt lat="26.082077" lon="98.86435">
<time>2014-08-05T00:46:53Z</time></trkpt>
<trkpt lat="26.082218" lon="98.86458">
<time>2014-08-05T00:46:54Z</time></trkpt>
<trkpt lat="26.082418" lon="98.86489">
<time>2014-08-05T00:46:55Z</time></trkpt>
<trkpt lat="26.082629" lon="98.865181">
<time>2014-08-05T00:46:56Z</time></trkpt>
<trkpt lat="26.082829" lon="98.865401">
<time>2014-08-05T00:46:57Z</time></trkpt>
<trkpt lat="26.082979" lon="98.865581">
<time>2014-08-05T00:46:58Z</time></trkpt>
<trkpt lat="26.08311" lon="98.865721">
<time>2014-08-05T00:46:59Z</time></trkpt>
<trkpt lat="26.08324" lon="98.865871">
<time>2014-08-05T00:47:00Z</time></trkpt>
<trkpt lat="26.08335" lon="98.865991">
<time>2014-08-05T00:47:01Z</time></trkpt>
<trkpt lat="26.083521" lon="98.866161">
<time>2014-08-05T00:47:02Z</time></trkpt>
<trkpt lat="26.083601" lon="98.866211">
<time>2014-08-05T00:47:03Z</time></trkpt>
<trkpt lat="26.083671" lon="98.866241">
<time>2014-08-05T00:47:04Z</time></trkpt>
<trkpt lat="26.083741" lon="98.866261">
<time>2014-08-05T00:47:05Z</time></trkpt>
<trkpt lat="26.083851" lon="98.866281">
<time>2014-08-05T00:47:06Z</time></trkpt>
<trkpt lat="26.084021" lon="98.866291">
<time>2014-08-05T00:47:07Z</time></trkpt>
<trkpt lat="26.084391" lon="98.866311">
<time>2014-08-05T00:47:08Z</time></trkpt>
<trkpt lat="26.084562" lon="98.866311">
<time>2014-08-05T00:47:09Z</time></trkpt>
<trkpt lat="26.084662" lon="98.866311">
<time>2014-08-05T00:47:10Z</time></trkpt>
<trkpt lat="26.084752" lon="98.866291">
<time>2014-08-05T00:47:11Z</time></trkpt>
<trkpt lat="26.084832" lon="98.866271">
<time>2014-08-05T00:47:12Z</time></trkpt>
<trkpt lat="26.084912" lon="98.866231">
<time>2014-08-05T00:47:13Z</time></trkpt>
<trkpt lat="26.085022" lon="98.866161">
<time>2014-08-05T00:47:14Z</time></trkpt>
<trkpt lat="26.085122" lon="98.866081">
<time>2014-08-05T00:47:15Z</time></trkpt>
<trkpt lat="26.085252" lon="98.865971">
<time>2014-08-05T00:47:16Z</time></trkpt>
<trkpt lat="26.085352" lon="98.865911">
<time>2014-08-05T00:47:17Z</time></trkpt>
<trkpt lat="26.085512" lon="98.865811">
<time>2014-08-05T00:47:18Z</time></trkpt>
<trkpt lat="26.085742" lon="98.865701">
<time>2014-08-05T00:47:19Z</time></trkpt>
<trkpt lat="26.086002" lon="98.865571">
<time>2014-08-05T00:47:20Z</time></trkpt>
<trkpt lat="26.086432" lon="98.865401">
<time>2014-08-05T00:47:21Z</time></trkpt>
<trkpt lat="26.086792" lon="98.865271">
<time>2014-08-05T00:47:22Z</time></trkpt>
<trkpt lat="26.086982" lon="98.865201">
<time>2014-08-05T00:47:23Z</time></trkpt>
<trkpt lat="26.087032" lon="98.865181">
<time>2014-08-05T00:47:24Z</time></trkpt>
<trkpt lat="26.087062" lon="98.865171">
<time>2014-08-05T00:47:25Z</time></trkpt>
<trkpt lat="26.087102" lon="98.865151">
<time>2014-08-05T00:47:26Z</time></trkpt>
<trkpt lat="26.087132" lon="98.865131">
<time>2014-08-05T00:47:27Z</time></trkpt>
<trkpt lat="26.087162" lon="98.865111">
<time>2014-08-05T00:47:28Z</time></trkpt>
<trkpt lat="26.087192" lon="98.86508">
<time>2014-08-05T00:47:29Z</time></trkpt>
<trkpt lat="26.087242" lon="98.86503">
<time>2014-08-05T00:47:30Z</time></trkpt>
<trkpt lat="26.087302" lon="98.86496">
<time>2014-08-05T00:47:31Z</time></trkpt>
<trkpt lat="26.087591" lon="98.8646">
<time>2014-08-05T00:47:32Z</time></trkpt>
<trkpt lat="26.087691" lon="98.86447">
<time>2014-08-05T00:47:33Z</time></trkpt>
<trkpt lat="26.087741" lon="98.8644">
<time>2014-08-05T00:47:34Z</time></trkpt>
<trkpt lat="26.087821" lon="98.86428">
<time>2014-08-05T00:47:35Z</time></trkpt>
<trkpt lat="26.087871" lon="98.86419">
<time>2014-08-05T00:47:36Z</time></trkpt>
<trkpt lat="26.087991" lon="98.86397">
<time>2014-08-05T00:47:37Z</time></trkpt>
<trkpt lat="26.08833" lon="98.863399">
<time>2014-08-05T00:47:38Z</time></trkpt>
<trkpt lat="26.08857" lon="98.862949">
<time>2014-08-05T00:47:39Z</time></trkpt>
<trkpt lat="26.08867" lon="98.862799">
<time>2014-08-05T00:47:40Z</time></trkpt>
<trkpt lat="26.088719" lon="98.862729">
<time>2014-08-05T00:47:41Z</time></trkpt>
<trkpt lat="26.088789" lon="98.862639">
<time>2014-08-05T00:47:42Z</time></trkpt>
<trkpt lat="26.088869" lon="98.862559">
<time>2014-08-05T00:47:43Z</time></trkpt>
<trkpt lat="26.088959" lon="98.862489">
<time>2014-08-05T00:47:44Z</time></trkpt>
<trkpt lat="26.089069" lon="98.862428">
<time>2014-08-05T00:47:45Z</time></trkpt>
<trkpt lat="26.089449" lon="98.862258">
<time>2014-08-05T00:47:46Z</time></trkpt>
<trkpt lat="26.090039" lon="98.861988">
<time>2014-08-05T00:47:47Z</time></trkpt>
<trkpt lat="26.090499" lon="98.861778">
<time>2014-08-05T00:47:48Z</time></trkpt>
<trkpt lat="26.090729" lon="98.861678">
<time>2014-08-05T00:47:49Z</time></trkpt>
<trkpt lat="26.090819" lon="98.861618">
<time>2014-08-05T00:47:50Z</time></trkpt>
<trkpt lat="26.090889" lon="98.861568">
<time>2014-08-05T00:47:51Z</time></trkpt>
<trkpt lat="26.090969" lon="98.861488">
<time>2014-08-05T00:47:52Z</time></trkpt>
<trkpt lat="26.091019" lon="98.861408">
<time>2014-08-05T00:47:53Z</time></trkpt>
<trkpt lat="26.091069" lon="98.861318">
<time>2014-08-05T00:47:54Z</time></trkpt>
<trkpt lat="26.091348" lon="98.860717">
<time>2014-08-05T00:47:55Z</time></trkpt>
<trkpt lat="26.091438" lon="98.860557">
<time>2014-08-05T00:47:56Z</time></trkpt>
<trkpt lat="26.091538" lon="98.860407">
<time>2014-08-05T00:47:57Z</time></trkpt>
<trkpt lat="26.091608" lon="98.860337">
<time>2014-08-05T00:47:58Z</time></trkpt>
<trkpt lat="26.091608" lon="98.860327">
<time>2014-08-05T00:47:59Z</time></trkpt>
<trkpt lat="26.091688" lon="98.860267">
<time>2014-08-05T00:48:00Z</time></trkpt>
<trkpt lat="26.091768" lon="98.860217">
<time>2014-08-05T00:48:01Z</time></trkpt>
<trkpt lat="26.091868" lon="98.860177">
<time>2014-08-05T00:48:02Z</time></trkpt>
<trkpt lat="26.091978" lon="98.860147">
<time>2014-08-05T00:48:03Z</time></trkpt>
<trkpt lat="26.092068" lon="98.860127">
<time>2014-08-05T00:48:04Z</time></trkpt>
<trkpt lat="26.092208" lon="98.860097">
<time>2014-08-05T00:48:05Z</time></trkpt>
<trkpt lat="26.092758" lon="98.859966">
<time>2014-08-05T00:48:06Z</time></trkpt>
<trkpt lat="26.092818" lon="98.859956">
<time>2014-08-05T00:48:07Z</time></trkpt>
<trkpt lat="26.092848" lon="98.859956">
<time>2014-08-05T00:48:08Z</time></trkpt>
<trkpt lat="26.092888" lon="98.859956">
<time>2014-08-05T00:48:09Z</time></trkpt>
<trkpt lat="26.092918" lon="98.859956">
<time>2014-08-05T00:48:10Z</time></trkpt>
<trkpt lat="26.092948" lon="98.859966">
<time>2014-08-05T00:48:11Z</time></trkpt>
<trkpt lat="26.092988" lon="98.859976">
<time>2014-08-05T00:48:12Z</time></trkpt>
<trkpt lat="26.093008" lon="98.859986">
<time>2014-08-05T00:48:13Z</time></trkpt>
<trkpt lat="26.093099" lon="98.860036">
<time>2014-08-05T00:48:14Z</time></trkpt>
<trkpt lat="26.093239" lon="98.860117">
<time>2014-08-05T00:48:15Z</time></trkpt>
<trkpt lat="26.093409" lon="98.860217">
<time>2014-08-05T00:48:16Z</time></trkpt>
<trkpt lat="26.093579" lon="98.860327">
<time>2014-08-05T00:48:17Z</time></trkpt>
<trkpt lat="26.093639" lon="98.860357">
<time>2014-08-05T00:48:18Z</time></trkpt>
<trkpt lat="26.093669" lon="98.860367">
<time>2014-08-05T00:48:19Z</time></trkpt>
<trkpt lat="26.093709" lon="98.860367">
<time>2014-08-05T00:48:20Z</time></trkpt>
<trkpt lat="26.093739" lon="98.860367">
<time>2014-08-05T00:48:21Z</time></trkpt>
<trkpt lat="26.093769" lon="98.860367">
<time>2014-08-05T00:48:22Z</time></trkpt>
<trkpt lat="26.093799" lon="98.860367">
<time>2014-08-05T00:48:23Z</time></trkpt>
<trkpt lat="26.093829" lon="98.860357">
<time>2014-08-05T00:48:24Z</time></trkpt>
<trkpt lat="26.09386" lon="98.860347">
<time>2014-08-05T00:48:25Z</time></trkpt>
<trkpt lat="26.0939" lon="98.860337">
<time>2014-08-05T00:48:26Z</time></trkpt>
<trkpt lat="26.09393" lon="98.860317">
<time>2014-08-05T00:48:27Z</time></trkpt>
<trkpt lat="26.09397" lon="98.860297">
<time>2014-08-05T00:48:28Z</time></trkpt>
<trkpt lat="26.094159" lon="98.860197">
<time>2014-08-05T00:48:29Z</time></trkpt>
<trkpt lat="26.094339" lon="98.860106">
<time>2014-08-05T00:48:30Z</time></trkpt>
<trkpt lat="26.094569" lon="98.859996">
<time>2014-08-05T00:48:31Z</time></trkpt>
<trkpt lat="26.094869" lon="98.859866">
<time>2014-08-05T00:48:32Z</time></trkpt>
<trkpt lat="26.095089" lon="98.859766">
<time>2014-08-05T00:48:33Z</time></trkpt>
<trkpt lat="26.095239" lon="98.859686">
<time>2014-08-05T00:48:34Z</time></trkpt>
<trkpt lat="26.095519" lon="98.859546">
<time>2014-08-05T00:48:35Z</time></trkpt>
<trkpt lat="26.095659" lon="98.859486">
<time>2014-08-05T00:48:36Z</time></trkpt>
<trkpt lat="26.095799" lon="98.859436">
<time>2014-08-05T00:48:37Z</time></trkpt>
<trkpt lat="26.09602" lon="98.859386">
<time>2014-08-05T00:48:38Z</time></trkpt>
<trkpt lat="26.0962" lon="98.859356">
<time>2014-08-05T00:48:39Z</time></trkpt>
<trkpt lat="26.09635" lon="98.859316">
<time>2014-08-05T00:48:40Z</time></trkpt>
<trkpt lat="26.09652" lon="98.859246">
<time>2014-08-05T00:48:41Z</time></trkpt>
<trkpt lat="26.0972" lon="98.858985">
<time>2014-08-05T00:48:42Z</time></trkpt>
<trkpt lat="26.09753" lon="98.858865">
<time>2014-08-05T00:48:43Z</time></trkpt>
<trkpt lat="26.09788" lon="98.858735">
<time>2014-08-05T00:48:44Z</time></trkpt>
<trkpt lat="26.09804" lon="98.858675">
<time>2014-08-05T00:48:45Z</time></trkpt>
<trkpt lat="26.09813" lon="98.858655">
<time>2014-08-05T00:48:46Z</time></trkpt>
<trkpt lat="26.09852" lon="98.858615">
<time>2014-08-05T00:48:47Z</time></trkpt>
<trkpt lat="26.099331" lon="98.858575">
<time>2014-08-05T00:48:48Z</time></trkpt>
<trkpt lat="26.100211" lon="98.858555">
<time>2014-08-05T00:48:49Z</time></trkpt>
<trkpt lat="26.100531" lon="98.858565">
<time>2014-08-05T00:48:50Z</time></trkpt>
<trkpt lat="26.101772" lon="98.858635">
<time>2014-08-05T00:48:51Z</time></trkpt>
<trkpt lat="26.102022" lon="98.858645">
<time>2014-08-05T00:48:52Z</time></trkpt>
<trkpt lat="26.102793" lon="98.858665">
<time>2014-08-05T00:48:53Z</time></trkpt>
<trkpt lat="26.103033" lon="98.858685">
<time>2014-08-05T00:48:54Z</time></trkpt>
<trkpt lat="26.104174" lon="98.858875">
<time>2014-08-05T00:48:55Z</time></trkpt>
<trkpt lat="26.104915" lon="98.859015">
<time>2014-08-05T00:48:56Z</time></trkpt>
<trkpt lat="26.105185" lon="98.859085">
<time>2014-08-05T00:48:57Z</time></trkpt>
<trkpt lat="26.105636" lon="98.859216">
<time>2014-08-05T00:48:58Z</time></trkpt>
<trkpt lat="26.105796" lon="98.859266">
<time>2014-08-05T00:48:59Z</time></trkpt>
<trkpt lat="26.105876" lon="98.859286">
<time>2014-08-05T00:49:00Z</time></trkpt>
<trkpt lat="26.105926" lon="98.859296">
<time>2014-08-05T00:49:01Z</time></trkpt>
<trkpt lat="26.106006" lon="98.859316">
<time>2014-08-05T00:49:02Z</time></trkpt>
<trkpt lat="26.106076" lon="98.859326">
<time>2014-08-05T00:49:03Z</time></trkpt>
<trkpt lat="26.106477" lon="98.859386">
<time>2014-08-05T00:49:04Z</time></trkpt>
<trkpt lat="26.106827" lon="98.859426">
<time>2014-08-05T00:49:05Z</time></trkpt>
<trkpt lat="26.106957" lon="98.859426">
<time>2014-08-05T00:49:06Z</time></trkpt>
<trkpt lat="26.107067" lon="98.859436">
<time>2014-08-05T00:49:07Z</time></trkpt>
<trkpt lat="26.107537" lon="98.859406">
<time>2014-08-05T00:49:08Z</time></trkpt>
<trkpt lat="26.108348" lon="98.859366">
<time>2014-08-05T00:49:09Z</time></trkpt>
<trkpt lat="26.108818" lon="98.859356">
<time>2014-08-05T00:49:10Z</time></trkpt>
<trkpt lat="26.109719" lon="98.859366">
<time>2014-08-05T00:49:11Z</time></trkpt>
<trkpt lat="26.109889" lon="98.859366">
<time>2014-08-05T00:49:12Z</time></trkpt>
<trkpt lat="26.110579" lon="98.859386">
<time>2014-08-05T00:49:13Z</time></trkpt>
<trkpt lat="26.11093" lon="98.859386">
<time>2014-08-05T00:49:14Z</time></trkpt>
<trkpt lat="26.11107" lon="98.859386">
<time>2014-08-05T00:49:15Z</time></trkpt>
<trkpt lat="26.11131" lon="98.859376">
<time>2014-08-05T00:49:16Z</time></trkpt>
<trkpt lat="26.11163" lon="98.859356">
<time>2014-08-05T00:49:17Z</time></trkpt>
<trkpt lat="26.1117" lon="98.859346">
<time>2014-08-05T00:49:18Z</time></trkpt>
<trkpt lat="26.11182" lon="98.859346">
<time>2014-08-05T00:49:19Z</time></trkpt>
<trkpt lat="26.11191" lon="98.859356">
<time>2014-08-05T00:49:20Z</time></trkpt>
<trkpt lat="26.11201" lon="98.859366">
<time>2014-08-05T00:49:21Z</time></trkpt>
<trkpt lat="26.11209" lon="98.859386">
<time>2014-08-05T00:49:22Z</time></trkpt>
<trkpt lat="26.112291" lon="98.859426">
<time>2014-08-05T00:49:23Z</time></trkpt>
<trkpt lat="26.112471" lon="98.859466">
<time>2014-08-05T00:49:24Z</time></trkpt>
<trkpt lat="26.112651" lon="98.859486">
<time>2014-08-05T00:49:25Z</time></trkpt>
<trkpt lat="26.112761" lon="98.859486">
<time>2014-08-05T00:49:26Z</time></trkpt>
<trkpt lat="26.112861" lon="98.859486">
<time>2014-08-05T00:49:27Z</time></trkpt>
<trkpt lat="26.112911" lon="98.859486">
<time>2014-08-05T00:49:28Z</time></trkpt>
<trkpt lat="26.112981" lon="98.859476">
<time>2014-08-05T00:49:29Z</time></trkpt>
<trkpt lat="26.113101" lon="98.859456">
<time>2014-08-05T00:49:30Z</time></trkpt>
<trkpt lat="26.113501" lon="98.859356">
<time>2014-08-05T00:49:31Z</time></trkpt>
<trkpt lat="26.113621" lon="98.859325">
<time>2014-08-05T00:49:32Z</time></trkpt>
<trkpt lat="26.113751" lon="98.859295">
<time>2014-08-05T00:49:33Z</time></trkpt>
<trkpt lat="26.113841" lon="98.859265">
<time>2014-08-05T00:49:34Z</time></trkpt>
<trkpt lat="26.113891" lon="98.859255">
<time>2014-08-05T00:49:35Z</time></trkpt>
<trkpt lat="26.113941" lon="98.859245">
<time>2014-08-05T00:49:36Z</time></trkpt>
<trkpt lat="26.114011" lon="98.859235">
<time>2014-08-05T00:49:37Z</time></trkpt>
<trkpt lat="26.114051" lon="98.859235">
<time>2014-08-05T00:49:38Z</time></trkpt>
<trkpt lat="26.114091" lon="98.859235">
<time>2014-08-05T00:49:39Z</time></trkpt>
<trkpt lat="26.114182" lon="98.859235">
<time>2014-08-05T00:49:40Z</time></trkpt>
<trkpt lat="26.114282" lon="98.859235">
<time>2014-08-05T00:49:41Z</time></trkpt>
<trkpt lat="26.114392" lon="98.859245">
<time>2014-08-05T00:49:42Z</time></trkpt>
<trkpt lat="26.114492" lon="98.859255">
<time>2014-08-05T00:49:43Z</time></trkpt>
<trkpt lat="26.114602" lon="98.859255">
<time>2014-08-05T00:49:44Z</time></trkpt>
<trkpt lat="26.114692" lon="98.859255">
<time>2014-08-05T00:49:45Z</time></trkpt>
<trkpt lat="26.114762" lon="98.859255">
<time>2014-08-05T00:49:46Z</time></trkpt>
<trkpt lat="26.114852" lon="98.859245">
<time>2014-08-05T00:49:47Z</time></trkpt>
<trkpt lat="26.114972" lon="98.859225">
<time>2014-08-05T00:49:48Z</time></trkpt>
<trkpt lat="26.115102" lon="98.859205">
<time>2014-08-05T00:49:49Z</time></trkpt>
<trkpt lat="26.115612" lon="98.859085">
<time>2014-08-05T00:49:50Z</time></trkpt>
<trkpt lat="26.115812" lon="98.859035">
<time>2014-08-05T00:49:51Z</time></trkpt>
<trkpt lat="26.116362" lon="98.858905">
<time>2014-08-05T00:49:52Z</time></trkpt>
<trkpt lat="26.116553" lon="98.858865">
<time>2014-08-05T00:49:53Z</time></trkpt>
<trkpt lat="26.116863" lon="98.858815">
<time>2014-08-05T00:49:54Z</time></trkpt>
<trkpt lat="26.116983" lon="98.858795">
<time>2014-08-05T00:49:55Z</time></trkpt>
<trkpt lat="26.117113" lon="98.858795">
<time>2014-08-05T00:49:56Z</time></trkpt>
<trkpt lat="26.117203" lon="98.858785">
<time>2014-08-05T00:49:57Z</time></trkpt>
<trkpt lat="26.117263" lon="98.858795">
<time>2014-08-05T00:49:58Z</time></trkpt>
<trkpt lat="26.117393" lon="98.858805">
<time>2014-08-05T00:49:59Z</time></trkpt>
<trkpt lat="26.117463" lon="98.858815">
<time>2014-08-05T00:50:00Z</time></trkpt>
<trkpt lat="26.117573" lon="98.858845">
<time>2014-08-05T00:50:01Z</time></trkpt>
<trkpt lat="26.117934" lon="98.858925">
<time>2014-08-05T00:50:02Z</time></trkpt>
<trkpt lat="26.118154" lon="98.858975">
<time>2014-08-05T00:50:03Z</time></trkpt>
<trkpt lat="26.118414" lon="98.859025">
<time>2014-08-05T00:50:04Z</time></trkpt>
<trkpt lat="26.118634" lon="98.859085">
<time>2014-08-05T00:50:05Z</time></trkpt>
<trkpt lat="26.118784" lon="98.859105">
<time>2014-08-05T00:50:06Z</time></trkpt>
<trkpt lat="26.118904" lon="98.859115">
<time>2014-08-05T00:50:07Z</time></trkpt>
<trkpt lat="26.119035" lon="98.859115">
<time>2014-08-05T00:50:08Z</time></trkpt>
<trkpt lat="26.119185" lon="98.859095">
<time>2014-08-05T00:50:09Z</time></trkpt>
<trkpt lat="26.119445" lon="98.859055">
<time>2014-08-05T00:50:10Z</time></trkpt>
<trkpt lat="26.119655" lon="98.859015">
<time>2014-08-05T00:50:11Z</time></trkpt>
<trkpt lat="26.119805" lon="98.858985">
<time>2014-08-05T00:50:12Z</time></trkpt>
<trkpt lat="26.119965" lon="98.858985">
<time>2014-08-05T00:50:13Z</time></trkpt>
<trkpt lat="26.120145" lon="98.859015">
<time>2014-08-05T00:50:14Z</time></trkpt>
<trkpt lat="26.120486" lon="98.859125">
<time>2014-08-05T00:50:15Z</time></trkpt>
<trkpt lat="26.120706" lon="98.859195">
<time>2014-08-05T00:50:16Z</time></trkpt>
<trkpt lat="26.120896" lon="98.859245">
<time>2014-08-05T00:50:17Z</time></trkpt>
<trkpt lat="26.121086" lon="98.859275">
<time>2014-08-05T00:50:18Z</time></trkpt>
<trkpt lat="26.121276" lon="98.859285">
<time>2014-08-05T00:50:19Z</time></trkpt>
<trkpt lat="26.121557" lon="98.859295">
<time>2014-08-05T00:50:20Z</time></trkpt>
<trkpt lat="26.121677" lon="98.859305">
<time>2014-08-05T00:50:21Z</time></trkpt>
<trkpt lat="26.121777" lon="98.859345">
<time>2014-08-05T00:50:22Z</time></trkpt>
<trkpt lat="26.121897" lon="98.859435">
<time>2014-08-05T00:50:23Z</time></trkpt>
<trkpt lat="26.122027" lon="98.859566">
<time>2014-08-05T00:50:24Z</time></trkpt>
<trkpt lat="26.122127" lon="98.859676">
<time>2014-08-05T00:50:25Z</time></trkpt>
<trkpt lat="26.122218" lon="98.859736">
<time>2014-08-05T00:50:26Z</time></trkpt>
<trkpt lat="26.122298" lon="98.859776">
<time>2014-08-05T00:50:27Z</time></trkpt>
<trkpt lat="26.122418" lon="98.859786">
<time>2014-08-05T00:50:28Z</time></trkpt>
<trkpt lat="26.122618" lon="98.859796">
<time>2014-08-05T00:50:29Z</time></trkpt>
<trkpt lat="26.122898" lon="98.859806">
<time>2014-08-05T00:50:30Z</time></trkpt>
<trkpt lat="26.123038" lon="98.859846">
<time>2014-08-05T00:50:31Z</time></trkpt>
<trkpt lat="26.123199" lon="98.859926">
<time>2014-08-05T00:50:32Z</time></trkpt>
<trkpt lat="26.123559" lon="98.860176">
<time>2014-08-05T00:50:33Z</time></trkpt>
<trkpt lat="26.12374" lon="98.860326">
<time>2014-08-05T00:50:34Z</time></trkpt>
<trkpt lat="26.1239" lon="98.860506">
<time>2014-08-05T00:50:35Z</time></trkpt>
<trkpt lat="26.124111" lon="98.860837">
<time>2014-08-05T00:50:36Z</time></trkpt>
<trkpt lat="26.124321" lon="98.861197">
<time>2014-08-05T00:50:37Z</time></trkpt>
<trkpt lat="26.124512" lon="98.861517">
<time>2014-08-05T00:50:38Z</time></trkpt>
<trkpt lat="26.124732" lon="98.861807">
<time>2014-08-05T00:50:39Z</time></trkpt>
<trkpt lat="26.125023" lon="98.862108">
<time>2014-08-05T00:50:40Z</time></trkpt>
<trkpt lat="26.125334" lon="98.862478">
<time>2014-08-05T00:50:41Z</time></trkpt>
<trkpt lat="26.125494" lon="98.862698">
<time>2014-08-05T00:50:42Z</time></trkpt>
<trkpt lat="26.125765" lon="98.863098">
<time>2014-08-05T00:50:43Z</time></trkpt>
<trkpt lat="26.125895" lon="98.863309">
<time>2014-08-05T00:50:44Z</time></trkpt>
<trkpt lat="26.125996" lon="98.863539">
<time>2014-08-05T00:50:45Z</time></trkpt>
<trkpt lat="26.126076" lon="98.863769">
<time>2014-08-05T00:50:46Z</time></trkpt>
<trkpt lat="26.126136" lon="98.863939">
<time>2014-08-05T00:50:47Z</time></trkpt>
<trkpt lat="26.126257" lon="98.864229">
<time>2014-08-05T00:50:48Z</time></trkpt>
<trkpt lat="26.126377" lon="98.864479">
<time>2014-08-05T00:50:49Z</time></trkpt>
<trkpt lat="26.126467" lon="98.864619">
<time>2014-08-05T00:50:50Z</time></trkpt>
<trkpt lat="26.126548" lon="98.86474">
<time>2014-08-05T00:50:51Z</time></trkpt>
<trkpt lat="26.126728" lon="98.86499">
<time>2014-08-05T00:50:52Z</time></trkpt>
<trkpt lat="26.126838" lon="98.86518">
<time>2014-08-05T00:50:53Z</time></trkpt>
<trkpt lat="26.126909" lon="98.8653">
<time>2014-08-05T00:50:54Z</time></trkpt>
<trkpt lat="26.126949" lon="98.86541">
<time>2014-08-05T00:50:55Z</time></trkpt>
<trkpt lat="26.127059" lon="98.86561">
<time>2014-08-05T00:50:56Z</time></trkpt>
<trkpt lat="26.12718" lon="98.86583">
<time>2014-08-05T00:50:57Z</time></trkpt>
<trkpt lat="26.12734" lon="98.86604">
<time>2014-08-05T00:50:58Z</time></trkpt>
<trkpt lat="26.1275" lon="98.866221">
<time>2014-08-05T00:50:59Z</time></trkpt>
<trkpt lat="26.127681" lon="98.866391">
<time>2014-08-05T00:51:00Z</time></trkpt>
<trkpt lat="26.127891" lon="98.866601">
<time>2014-08-05T00:51:01Z</time></trkpt>
<trkpt lat="26.128071" lon="98.866831">
<time>2014-08-05T00:51:02Z</time></trkpt>
<trkpt lat="26.128382" lon="98.867271">
<time>2014-08-05T00:51:03Z</time></trkpt>
<trkpt lat="26.128653" lon="98.867591">
<time>2014-08-05T00:51:04Z</time></trkpt>
<trkpt lat="26.128863" lon="98.867812">
<time>2014-08-05T00:51:05Z</time></trkpt>
<trkpt lat="26.129224" lon="98.868262">
<time>2014-08-05T00:51:06Z</time></trkpt>
<trkpt lat="26.129515" lon="98.868642">
<time>2014-08-05T00:51:07Z</time></trkpt>
<trkpt lat="26.129765" lon="98.868992">
<time>2014-08-05T00:51:08Z</time></trkpt>
<trkpt lat="26.130056" lon="98.869473">
<time>2014-08-05T00:51:09Z</time></trkpt>
<trkpt lat="26.130176" lon="98.869663">
<time>2014-08-05T00:51:10Z</time></trkpt>
<trkpt lat="26.130317" lon="98.869883">
<time>2014-08-05T00:51:11Z</time></trkpt>
<trkpt lat="26.130487" lon="98.870073">
<time>2014-08-05T00:51:12Z</time></trkpt>
<trkpt lat="26.130637" lon="98.870173">
<time>2014-08-05T00:51:13Z</time></trkpt>
<trkpt lat="26.130667" lon="98.870193">
<time>2014-08-05T00:51:14Z</time></trkpt>
<trkpt lat="26.130697" lon="98.870203">
<time>2014-08-05T00:51:15Z</time></trkpt>
<trkpt lat="26.130717" lon="98.870213">
<time>2014-08-05T00:51:16Z</time></trkpt>
<trkpt lat="26.130747" lon="98.870223">
<time>2014-08-05T00:51:17Z</time></trkpt>
<trkpt lat="26.130777" lon="98.870233">
<time>2014-08-05T00:51:18Z</time></trkpt>
<trkpt lat="26.130797" lon="98.870233">
<time>2014-08-05T00:51:19Z</time></trkpt>
<trkpt lat="26.130828" lon="98.870233">
<time>2014-08-05T00:51:20Z</time></trkpt>
<trkpt lat="26.130838" lon="98.870243">
<time>2014-08-05T00:51:21Z</time></trkpt>
<trkpt lat="26.130858" lon="98.870243">
<time>2014-08-05T00:51:22Z</time></trkpt>
<trkpt lat="26.130888" lon="98.870243">
<time>2014-08-05T00:51:23Z</time></trkpt>
<trkpt lat="26.130908" lon="98.870243">
<time>2014-08-05T00:51:24Z</time></trkpt>
<trkpt lat="26.130938" lon="98.870243">
<time>2014-08-05T00:51:25Z</time></trkpt>
<trkpt lat="26.130968" lon="98.870233">
<time>2014-08-05T00:51:26Z</time></trkpt>
<trkpt lat="26.130998" lon="98.870233">
<time>2014-08-05T00:51:27Z</time></trkpt>
<trkpt lat="26.131138" lon="98.870193">
<time>2014-08-05T00:51:28Z</time></trkpt>
<trkpt lat="26.131268" lon="98.870143">
<time>2014-08-05T00:51:29Z</time></trkpt>
<trkpt lat="26.131398" lon="98.870083">
<time>2014-08-05T00:51:30Z</time></trkpt>
<trkpt lat="26.131478" lon="98.870053">
<time>2014-08-05T00:51:31Z</time></trkpt>
<trkpt lat="26.131558" lon="98.870043">
<time>2014-08-05T00:51:32Z</time></trkpt>
<trkpt lat="26.131668" lon="98.870023">
<time>2014-08-05T00:51:33Z</time></trkpt>
<trkpt lat="26.131738" lon="98.870033">
<time>2014-08-05T00:51:34Z</time></trkpt>
<trkpt lat="26.131798" lon="98.870033">
<time>2014-08-05T00:51:35Z</time></trkpt>
<trkpt lat="26.132048" lon="98.870073">
<time>2014-08-05T00:51:36Z</time></trkpt>
<trkpt lat="26.132368" lon="98.870133">
<time>2014-08-05T00:51:37Z</time></trkpt>
<trkpt lat="26.132438" lon="98.870153">
<time>2014-08-05T00:51:38Z</time></trkpt>
<trkpt lat="26.132479" lon="98.870173">
<time>2014-08-05T00:51:39Z</time></trkpt>
<trkpt lat="26.132519" lon="98.870193">
<time>2014-08-05T00:51:40Z</time></trkpt>
<trkpt lat="26.132559" lon="98.870213">
<time>2014-08-05T00:51:41Z</time></trkpt>
<trkpt lat="26.132599" lon="98.870243">
<time>2014-08-05T00:51:42Z</time></trkpt>
<trkpt lat="26.132659" lon="98.870293">
<time>2014-08-05T00:51:43Z</time></trkpt>
<trkpt lat="26.132699" lon="98.870353">
<time>2014-08-05T00:51:44Z</time></trkpt>
<trkpt lat="26.132829" lon="98.870533">
<time>2014-08-05T00:51:45Z</time></trkpt>
<trkpt lat="26.132849" lon="98.870553">
<time>2014-08-05T00:51:46Z</time></trkpt>
<trkpt lat="26.13314" lon="98.870963">
<time>2014-08-05T00:51:47Z</time></trkpt>
<trkpt lat="26.13331" lon="98.871153">
<time>2014-08-05T00:51:48Z</time></trkpt>
<trkpt lat="26.13343" lon="98.871243">
<time>2014-08-05T00:51:49Z</time></trkpt>
<trkpt lat="26.133591" lon="98.871323">
<time>2014-08-05T00:51:50Z</time></trkpt>
<trkpt lat="26.134051" lon="98.871453">
<time>2014-08-05T00:51:51Z</time></trkpt>
<trkpt lat="26.134281" lon="98.871524">
<time>2014-08-05T00:51:52Z</time></trkpt>
<trkpt lat="26.134632" lon="98.871614">
<time>2014-08-05T00:51:53Z</time></trkpt>
<trkpt lat="26.134852" lon="98.871684">
<time>2014-08-05T00:51:54Z</time></trkpt>
<trkpt lat="26.135202" lon="98.871794">
<time>2014-08-05T00:51:55Z</time></trkpt>
<trkpt lat="26.135452" lon="98.871884">
<time>2014-08-05T00:51:56Z</time></trkpt>
<trkpt lat="26.135713" lon="98.871984">
<time>2014-08-05T00:51:57Z</time></trkpt>
<trkpt lat="26.135923" lon="98.872054">
<time>2014-08-05T00:51:58Z</time></trkpt>
<trkpt lat="26.136093" lon="98.872114">
<time>2014-08-05T00:51:59Z</time></trkpt>
<trkpt lat="26.136293" lon="98.872194">
<time>2014-08-05T00:52:00Z</time></trkpt>
<trkpt lat="26.136554" lon="98.872314">
<time>2014-08-05T00:52:01Z</time></trkpt>
<trkpt lat="26.136854" lon="98.872454">
<time>2014-08-05T00:52:02Z</time></trkpt>
<trkpt lat="26.137094" lon="98.872604">
<time>2014-08-05T00:52:03Z</time></trkpt>
<trkpt lat="26.137375" lon="98.872794">
<time>2014-08-05T00:52:04Z</time></trkpt>
<trkpt lat="26.137625" lon="98.872974">
<time>2014-08-05T00:52:05Z</time></trkpt>
<trkpt lat="26.137906" lon="98.873274">
<time>2014-08-05T00:52:06Z</time></trkpt>
<trkpt lat="26.138397" lon="98.873814">
<time>2014-08-05T00:52:07Z</time></trkpt>
<trkpt lat="26.138757" lon="98.874205">
<time>2014-08-05T00:52:08Z</time></trkpt>
<trkpt lat="26.139018" lon="98.874465">
<time>2014-08-05T00:52:09Z</time></trkpt>
<trkpt lat="26.139198" lon="98.874625">
<time>2014-08-05T00:52:10Z</time></trkpt>
<trkpt lat="26.139308" lon="98.874715">
<time>2014-08-05T00:52:11Z</time></trkpt>
<trkpt lat="26.139398" lon="98.874775">
<time>2014-08-05T00:52:12Z</time></trkpt>
<trkpt lat="26.139629" lon="98.874885">
<time>2014-08-05T00:52:13Z</time></trkpt>
<trkpt lat="26.139959" lon="98.875025">
<time>2014-08-05T00:52:14Z</time></trkpt>
<trkpt lat="26.140489" lon="98.875255">
<time>2014-08-05T00:52:15Z</time></trkpt>
<trkpt lat="26.14079" lon="98.875375">
<time>2014-08-05T00:52:16Z</time></trkpt>
<trkpt lat="26.14103" lon="98.875475">
<time>2014-08-05T00:52:17Z</time></trkpt>
<trkpt lat="26.14133" lon="98.875595">
<time>2014-08-05T00:52:18Z</time></trkpt>
<trkpt lat="26.141531" lon="98.875645">
<time>2014-08-05T00:52:19Z</time></trkpt>
<trkpt lat="26.141741" lon="98.875695">
<time>2014-08-05T00:52:20Z</time></trkpt>
<trkpt lat="26.142161" lon="98.875795">
<time>2014-08-05T00:52:21Z</time></trkpt>
<trkpt lat="26.142581" lon="98.875905">
<time>2014-08-05T00:52:22Z</time></trkpt>
<trkpt lat="26.142822" lon="98.875945">
<time>2014-08-05T00:52:23Z</time></trkpt>
<trkpt lat="26.143142" lon="98.875985">
<time>2014-08-05T00:52:24Z</time></trkpt>
<trkpt lat="26.143442" lon="98.876005">
<time>2014-08-05T00:52:25Z</time></trkpt>
<trkpt lat="26.143722" lon="98.876005">
<time>2014-08-05T00:52:26Z</time></trkpt>
<trkpt lat="26.143952" lon="98.876005">
<time>2014-08-05T00:52:27Z</time></trkpt>
<trkpt lat="26.144093" lon="98.876005">
<time>2014-08-05T00:52:28Z</time></trkpt>
<trkpt lat="26.144293" lon="98.875995">
<time>2014-08-05T00:52:29Z</time></trkpt>
<trkpt lat="26.144373" lon="98.875975">
<time>2014-08-05T00:52:30Z</time></trkpt>
<trkpt lat="26.144463" lon="98.875965">
<time>2014-08-05T00:52:31Z</time></trkpt>
<trkpt lat="26.144583" lon="98.875915">
<time>2014-08-05T00:52:32Z</time></trkpt>
<trkpt lat="26.144683" lon="98.875865">
<time>2014-08-05T00:52:33Z</time></trkpt>
<trkpt lat="26.144763" lon="98.875805">
<time>2014-08-05T00:52:34Z</time></trkpt>
<trkpt lat="26.144853" lon="98.875725">
<time>2014-08-05T00:52:35Z</time></trkpt>
<trkpt lat="26.144923" lon="98.875655">
<time>2014-08-05T00:52:36Z</time></trkpt>
<trkpt lat="26.144993" lon="98.875595">
<time>2014-08-05T00:52:37Z</time></trkpt>
<trkpt lat="26.145123" lon="98.875445">
<time>2014-08-05T00:52:38Z</time></trkpt>
<trkpt lat="26.145273" lon="98.875275">
<time>2014-08-05T00:52:39Z</time></trkpt>
<trkpt lat="26.145323" lon="98.875205">
<time>2014-08-05T00:52:40Z</time></trkpt>
<trkpt lat="26.145403" lon="98.875105">
<time>2014-08-05T00:52:41Z</time></trkpt>
<trkpt lat="26.145472" lon="98.875025">
<time>2014-08-05T00:52:42Z</time></trkpt>
<trkpt lat="26.145732" lon="98.874725">
<time>2014-08-05T00:52:43Z</time></trkpt>
<trkpt lat="26.145912" lon="98.874525">
<time>2014-08-05T00:52:44Z</time></trkpt>
<trkpt lat="26.146092" lon="98.874315">
<time>2014-08-05T00:52:45Z</time></trkpt>
<trkpt lat="26.146192" lon="98.874194">
<time>2014-08-05T00:52:46Z</time></trkpt>
<trkpt lat="26.146372" lon="98.873994">
<time>2014-08-05T00:52:47Z</time></trkpt>
<trkpt lat="26.146452" lon="98.873904">
<time>2014-08-05T00:52:48Z</time></trkpt>
<trkpt lat="26.146622" lon="98.873734">
<time>2014-08-05T00:52:49Z</time></trkpt>
<trkpt lat="26.146722" lon="98.873614">
<time>2014-08-05T00:52:50Z</time></trkpt>
<trkpt lat="26.146812" lon="98.873504">
<time>2014-08-05T00:52:51Z</time></trkpt>
<trkpt lat="26.146932" lon="98.873324">
<time>2014-08-05T00:52:52Z</time></trkpt>
<trkpt lat="26.147121" lon="98.873014">
<time>2014-08-05T00:52:53Z</time></trkpt>
<trkpt lat="26.147221" lon="98.872864">
<time>2014-08-05T00:52:54Z</time></trkpt>
<trkpt lat="26.147321" lon="98.872684">
<time>2014-08-05T00:52:55Z</time></trkpt>
<trkpt lat="26.147621" lon="98.872174">
<time>2014-08-05T00:52:56Z</time></trkpt>
<trkpt lat="26.147711" lon="98.872034">
<time>2014-08-05T00:52:57Z</time></trkpt>
<trkpt lat="26.14792" lon="98.871683">
<time>2014-08-05T00:52:58Z</time></trkpt>
<trkpt lat="26.148" lon="98.871553">
<time>2014-08-05T00:52:59Z</time></trkpt>
<trkpt lat="26.14809" lon="98.871453">
<time>2014-08-05T00:53:00Z</time></trkpt>
<trkpt lat="26.14819" lon="98.871333">
<time>2014-08-05T00:53:01Z</time></trkpt>
<trkpt lat="26.14837" lon="98.871163">
<time>2014-08-05T00:53:02Z</time></trkpt>
<trkpt lat="26.14848" lon="98.871063">
<time>2014-08-05T00:53:03Z</time></trkpt>
<trkpt lat="26.14859" lon="98.870983">
<time>2014-08-05T00:53:04Z</time></trkpt>
<trkpt lat="26.14872" lon="98.870893">
<time>2014-08-05T00:53:05Z</time></trkpt>
<trkpt lat="26.14887" lon="98.870763">
<time>2014-08-05T00:53:06Z</time></trkpt>
<trkpt lat="26.149" lon="98.870613">
<time>2014-08-05T00:53:07Z</time></trkpt>
<trkpt lat="26.14907" lon="98.870513">
<time>2014-08-05T00:53:08Z</time></trkpt>
<trkpt lat="26.14912" lon="98.870413">
<time>2014-08-05T00:53:09Z</time></trkpt>
<trkpt lat="26.14916" lon="98.870323">
<time>2014-08-05T00:53:10Z</time></trkpt>
<trkpt lat="26.149209" lon="98.870193">
<time>2014-08-05T00:53:11Z</time></trkpt>
<trkpt lat="26.149329" lon="98.869862">
<time>2014-08-05T00:53:12Z</time></trkpt>
<trkpt lat="26.149369" lon="98.869722">
<time>2014-08-05T00:53:13Z</time></trkpt>
<trkpt lat="26.149419" lon="98.869572">
<time>2014-08-05T00:53:14Z</time></trkpt>
<trkpt lat="26.149489" lon="98.869382">
<time>2014-08-05T00:53:15Z</time></trkpt>
<trkpt lat="26.149559" lon="98.869252">
<time>2014-08-05T00:53:16Z</time></trkpt>
<trkpt lat="26.149618" lon="98.869142">
<time>2014-08-05T00:53:17Z</time></trkpt>
<trkpt lat="26.149748" lon="98.868922">
<time>2014-08-05T00:53:18Z</time></trkpt>
<trkpt lat="26.149868" lon="98.868732">
<time>2014-08-05T00:53:19Z</time></trkpt>
<trkpt lat="26.149928" lon="98.868602">
<time>2014-08-05T00:53:20Z</time></trkpt>
<trkpt lat="26.149978" lon="98.868442">
<time>2014-08-05T00:53:21Z</time></trkpt>
<trkpt lat="26.150008" lon="98.868261">
<time>2014-08-05T00:53:22Z</time></trkpt>
<trkpt lat="26.150027" lon="98.868121">
<time>2014-08-05T00:53:23Z</time></trkpt>
<trkpt lat="26.150047" lon="98.867871">
<time>2014-08-05T00:53:24Z</time></trkpt>
<trkpt lat="26.150047" lon="98.867721">
<time>2014-08-05T00:53:25Z</time></trkpt>
<trkpt lat="26.150047" lon="98.867651">
<time>2014-08-05T00:53:26Z</time></trkpt>
<trkpt lat="26.150037" lon="98.867571">
<time>2014-08-05T00:53:27Z</time></trkpt>
<trkpt lat="26.150027" lon="98.867491">
<time>2014-08-05T00:53:28Z</time></trkpt>
<trkpt lat="26.150007" lon="98.867421">
<time>2014-08-05T00:53:29Z</time></trkpt>
<trkpt lat="26.149976" lon="98.867311">
<time>2014-08-05T00:53:30Z</time></trkpt>
<trkpt lat="26.149926" lon="98.867181">
<time>2014-08-05T00:53:31Z</time></trkpt>
<trkpt lat="26.149846" lon="98.867031">
<time>2014-08-05T00:53:32Z</time></trkpt>
<trkpt lat="26.149766" lon="98.866901">
<time>2014-08-05T00:53:33Z</time></trkpt>
<trkpt lat="26.149645" lon="98.866701">
<time>2014-08-05T00:53:34Z</time></trkpt>
<trkpt lat="26.149545" lon="98.86649">
<time>2014-08-05T00:53:35Z</time></trkpt>
<trkpt lat="26.149515" lon="98.86643">
<time>2014-08-05T00:53:36Z</time></trkpt>
<trkpt lat="26.149495" lon="98.86635">
<time>2014-08-05T00:53:37Z</time></trkpt>
<trkpt lat="26.149485" lon="98.86628">
<time>2014-08-05T00:53:38Z</time></trkpt>
<trkpt lat="26.149475" lon="98.86622">
<time>2014-08-05T00:53:39Z</time></trkpt>
<trkpt lat="26.149475" lon="98.86615">
<time>2014-08-05T00:53:40Z</time></trkpt>
<trkpt lat="26.149484" lon="98.86609">
<time>2014-08-05T00:53:41Z</time></trkpt>
<trkpt lat="26.149524" lon="98.86591">
<time>2014-08-05T00:53:42Z</time></trkpt>
<trkpt lat="26.149584" lon="98.8657">
<time>2014-08-05T00:53:43Z</time></trkpt>
<trkpt lat="26.149704" lon="98.86532">
<time>2014-08-05T00:53:44Z</time></trkpt>
<trkpt lat="26.149763" lon="98.865139">
<time>2014-08-05T00:53:45Z</time></trkpt>
<trkpt lat="26.149833" lon="98.865019">
<time>2014-08-05T00:53:46Z</time></trkpt>
<trkpt lat="26.149893" lon="98.864929">
<time>2014-08-05T00:53:47Z</time></trkpt>
<trkpt lat="26.150003" lon="98.864819">
<time>2014-08-05T00:53:48Z</time></trkpt>
<trkpt lat="26.150223" lon="98.864609">
<time>2014-08-05T00:53:49Z</time></trkpt>
<trkpt lat="26.150383" lon="98.864439">
<time>2014-08-05T00:53:50Z</time></trkpt>
<trkpt lat="26.150483" lon="98.864319">
<time>2014-08-05T00:53:51Z</time></trkpt>
<trkpt lat="26.150543" lon="98.864209">
<time>2014-08-05T00:53:52Z</time></trkpt>
<trkpt lat="26.150602" lon="98.864059">
<time>2014-08-05T00:53:53Z</time></trkpt>
<trkpt lat="26.150652" lon="98.863849">
<time>2014-08-05T00:53:54Z</time></trkpt>
<trkpt lat="26.150712" lon="98.863698">
<time>2014-08-05T00:53:55Z</time></trkpt>
<trkpt lat="26.150762" lon="98.863608">
<time>2014-08-05T00:53:56Z</time></trkpt>
<trkpt lat="26.150832" lon="98.863538">
<time>2014-08-05T00:53:57Z</time></trkpt>
<trkpt lat="26.150932" lon="98.863458">
<time>2014-08-05T00:53:58Z</time></trkpt>
<trkpt lat="26.151052" lon="98.863398">
<time>2014-08-05T00:53:59Z</time></trkpt>
<trkpt lat="26.151242" lon="98.863318">
<time>2014-08-05T00:54:00Z</time></trkpt>
<trkpt lat="26.151412" lon="98.863238">
<time>2014-08-05T00:54:01Z</time></trkpt>
<trkpt lat="26.151502" lon="98.863188">
<time>2014-08-05T00:54:02Z</time></trkpt>
<trkpt lat="26.151612" lon="98.863098">
<time>2014-08-05T00:54:03Z</time></trkpt>
<trkpt lat="26.152032" lon="98.862728">
<time>2014-08-05T00:54:04Z</time></trkpt>
<trkpt lat="26.152421" lon="98.862387">
<time>2014-08-05T00:54:05Z</time></trkpt>
<trkpt lat="26.152881" lon="98.861967">
<time>2014-08-05T00:54:06Z</time></trkpt>
<trkpt lat="26.153201" lon="98.861657">
<time>2014-08-05T00:54:07Z</time></trkpt>
<trkpt lat="26.15366" lon="98.861186">
<time>2014-08-05T00:54:08Z</time></trkpt>
<trkpt lat="26.15378" lon="98.861056">
<time>2014-08-05T00:54:09Z</time></trkpt>
<trkpt lat="26.15395" lon="98.860876">
<time>2014-08-05T00:54:10Z</time></trkpt>
<trkpt lat="26.15413" lon="98.860726">
<time>2014-08-05T00:54:11Z</time></trkpt>
<trkpt lat="26.15431" lon="98.860616">
<time>2014-08-05T00:54:12Z</time></trkpt>
<trkpt lat="26.15442" lon="98.860556">
<time>2014-08-05T00:54:13Z</time></trkpt>
<trkpt lat="26.15454" lon="98.860486">
<time>2014-08-05T00:54:14Z</time></trkpt>
<trkpt lat="26.15462" lon="98.860426">
<time>2014-08-05T00:54:15Z</time></trkpt>
<trkpt lat="26.1547" lon="98.860356">
<time>2014-08-05T00:54:16Z</time></trkpt>
<trkpt lat="26.15486" lon="98.860145">
<time>2014-08-05T00:54:17Z</time></trkpt>
<trkpt lat="26.155009" lon="98.859965">
<time>2014-08-05T00:54:18Z</time></trkpt>
<trkpt lat="26.155139" lon="98.859835">
<time>2014-08-05T00:54:19Z</time></trkpt>
<trkpt lat="26.155259" lon="98.859745">
<time>2014-08-05T00:54:20Z</time></trkpt>
<trkpt lat="26.155479" lon="98.859605">
<time>2014-08-05T00:54:21Z</time></trkpt>
<trkpt lat="26.155969" lon="98.859265">
<time>2014-08-05T00:54:22Z</time></trkpt>
<trkpt lat="26.156339" lon="98.859024">
<time>2014-08-05T00:54:23Z</time></trkpt>
<trkpt lat="26.156759" lon="98.858714">
<time>2014-08-05T00:54:24Z</time></trkpt>
<trkpt lat="26.157049" lon="98.858504">
<time>2014-08-05T00:54:25Z</time></trkpt>
<trkpt lat="26.157318" lon="98.858304">
<time>2014-08-05T00:54:26Z</time></trkpt>
<trkpt lat="26.157528" lon="98.858144">
<time>2014-08-05T00:54:27Z</time></trkpt>
<trkpt lat="26.157788" lon="98.857984">
<time>2014-08-05T00:54:28Z</time></trkpt>
<trkpt lat="26.157978" lon="98.857903">
<time>2014-08-05T00:54:29Z</time></trkpt>
<trkpt lat="26.158058" lon="98.857873">
<time>2014-08-05T00:54:30Z</time></trkpt>
<trkpt lat="26.158238" lon="98.857823">
<time>2014-08-05T00:54:31Z</time></trkpt>
<trkpt lat="26.158458" lon="98.857773">
<time>2014-08-05T00:54:32Z</time></trkpt>
<trkpt lat="26.158528" lon="98.857743">
<time>2014-08-05T00:54:33Z</time></trkpt>
<trkpt lat="26.158708" lon="98.857633">
<time>2014-08-05T00:54:34Z</time></trkpt>
<trkpt lat="26.159038" lon="98.857393">
<time>2014-08-05T00:54:35Z</time></trkpt>
<trkpt lat="26.159208" lon="98.857283">
<time>2014-08-05T00:54:36Z</time></trkpt>
<trkpt lat="26.159368" lon="98.857203">
<time>2014-08-05T00:54:37Z</time></trkpt>
<trkpt lat="26.159688" lon="98.857063">
<time>2014-08-05T00:54:38Z</time></trkpt>
<trkpt lat="26.160048" lon="98.856902">
<time>2014-08-05T00:54:39Z</time></trkpt>
<trkpt lat="26.160348" lon="98.856772">
<time>2014-08-05T00:54:40Z</time></trkpt>
<trkpt lat="26.160668" lon="98.856622">
<time>2014-08-05T00:54:41Z</time></trkpt>
<trkpt lat="26.160878" lon="98.856512">
<time>2014-08-05T00:54:42Z</time></trkpt>
<trkpt lat="26.161188" lon="98.856342">
<time>2014-08-05T00:54:43Z</time></trkpt>
<trkpt lat="26.161668" lon="98.856122">
<time>2014-08-05T00:54:44Z</time></trkpt>
<trkpt lat="26.161978" lon="98.855982">
<time>2014-08-05T00:54:45Z</time></trkpt>
<trkpt lat="26.162238" lon="98.855861">
<time>2014-08-05T00:54:46Z</time></trkpt>
<trkpt lat="26.162618" lon="98.855671">
<time>2014-08-05T00:54:47Z</time></trkpt>
<trkpt lat="26.162888" lon="98.855551">
<time>2014-08-05T00:54:48Z</time></trkpt>
<trkpt lat="26.163308" lon="98.855391">
<time>2014-08-05T00:54:49Z</time></trkpt>
<trkpt lat="26.163708" lon="98.855251">
<time>2014-08-05T00:54:50Z</time></trkpt>
<trkpt lat="26.163938" lon="98.855171">
<time>2014-08-05T00:54:51Z</time></trkpt>
<trkpt lat="26.164098" lon="98.855131">
<time>2014-08-05T00:54:52Z</time></trkpt>
<trkpt lat="26.164368" lon="98.855061">
<time>2014-08-05T00:54:53Z</time></trkpt>
<trkpt lat="26.164628" lon="98.855001">
<time>2014-08-05T00:54:54Z</time></trkpt>
<trkpt lat="26.164898" lon="98.85492">
<time>2014-08-05T00:54:55Z</time></trkpt>
<trkpt lat="26.165148" lon="98.85484">
<time>2014-08-05T00:54:56Z</time></trkpt>
<trkpt lat="26.165438" lon="98.85472">
<time>2014-08-05T00:54:57Z</time></trkpt>
<trkpt lat="26.165498" lon="98.85471">
<time>2014-08-05T00:54:58Z</time></trkpt>
<trkpt lat="26.165658" lon="98.85466">
<time>2014-08-05T00:54:59Z</time></trkpt>
<trkpt lat="26.165788" lon="98.85463">
<time>2014-08-05T00:55:00Z</time></trkpt>
<trkpt lat="26.165918" lon="98.85461">
<time>2014-08-05T00:55:01Z</time></trkpt>
<trkpt lat="26.166138" lon="98.85459">
<time>2014-08-05T00:55:02Z</time></trkpt>
<trkpt lat="26.166248" lon="98.8546">
<time>2014-08-05T00:55:03Z</time></trkpt>
<trkpt lat="26.166348" lon="98.85461">
<time>2014-08-05T00:55:04Z</time></trkpt>
<trkpt lat="26.166418" lon="98.85462">
<time>2014-08-05T00:55:05Z</time></trkpt>
<trkpt lat="26.166579" lon="98.85467">
<time>2014-08-05T00:55:06Z</time></trkpt>
<trkpt lat="26.166689" lon="98.85471">
<time>2014-08-05T00:55:07Z</time></trkpt>
<trkpt lat="26.166959" lon="98.85479">
<time>2014-08-05T00:55:08Z</time></trkpt>
<trkpt lat="26.167139" lon="98.85483">
<time>2014-08-05T00:55:09Z</time></trkpt>
<trkpt lat="26.167319" lon="98.85485">
<time>2014-08-05T00:55:10Z</time></trkpt>
<trkpt lat="26.16765" lon="98.85489">
<time>2014-08-05T00:55:11Z</time></trkpt>
<trkpt lat="26.16785" lon="98.85493">
<time>2014-08-05T00:55:12Z</time></trkpt>
<trkpt lat="26.16808" lon="98.854981">
<time>2014-08-05T00:55:13Z</time></trkpt>
<trkpt lat="26.168501" lon="98.855131">
<time>2014-08-05T00:55:14Z</time></trkpt>
<trkpt lat="26.169101" lon="98.855281">
<time>2014-08-05T00:55:15Z</time></trkpt>
<trkpt lat="26.169582" lon="98.855421">
<time>2014-08-05T00:55:16Z</time></trkpt>
<trkpt lat="26.170132" lon="98.855611">
<time>2014-08-05T00:55:17Z</time></trkpt>
<trkpt lat="26.170343" lon="98.855691">
<time>2014-08-05T00:55:18Z</time></trkpt>
<trkpt lat="26.170773" lon="98.855861">
<time>2014-08-05T00:55:19Z</time></trkpt>
<trkpt lat="26.171224" lon="98.856072">
<time>2014-08-05T00:55:20Z</time></trkpt>
<trkpt lat="26.171514" lon="98.856222">
<time>2014-08-05T00:55:21Z</time></trkpt>
<trkpt lat="26.172025" lon="98.856492">
<time>2014-08-05T00:55:22Z</time></trkpt>
<trkpt lat="26.172436" lon="98.856712">
<time>2014-08-05T00:55:23Z</time></trkpt>
<trkpt lat="26.172776" lon="98.856942">
<time>2014-08-05T00:55:24Z</time></trkpt>
<trkpt lat="26.173147" lon="98.857233">
<time>2014-08-05T00:55:25Z</time></trkpt>
<trkpt lat="26.173558" lon="98.857563">
<time>2014-08-05T00:55:26Z</time></trkpt>
<trkpt lat="26.174048" lon="98.857913">
<time>2014-08-05T00:55:27Z</time></trkpt>
<trkpt lat="26.174349" lon="98.858103">
<time>2014-08-05T00:55:28Z</time></trkpt>
<trkpt lat="26.174659" lon="98.858263">
<time>2014-08-05T00:55:29Z</time></trkpt>
<trkpt lat="26.17513" lon="98.858504">
<time>2014-08-05T00:55:30Z</time></trkpt>
<trkpt lat="26.175641" lon="98.858754">
<time>2014-08-05T00:55:31Z</time></trkpt>
<trkpt lat="26.176031" lon="98.858994">
<time>2014-08-05T00:55:32Z</time></trkpt>
<trkpt lat="26.176362" lon="98.859224">
<time>2014-08-05T00:55:33Z</time></trkpt>
<trkpt lat="26.176722" lon="98.859445">
<time>2014-08-05T00:55:34Z</time></trkpt>
<trkpt lat="26.176983" lon="98.859525">
<time>2014-08-05T00:55:35Z</time></trkpt>
<trkpt lat="26.177343" lon="98.859595">
<time>2014-08-05T00:55:36Z</time></trkpt>
<trkpt lat="26.177673" lon="98.859695">
<time>2014-08-05T00:55:37Z</time></trkpt>
<trkpt lat="26.178164" lon="98.859925">
<time>2014-08-05T00:55:38Z</time></trkpt>
<trkpt lat="26.178474" lon="98.860055">
<time>2014-08-05T00:55:39Z</time></trkpt>
<trkpt lat="26.178775" lon="98.860155">
<time>2014-08-05T00:55:40Z</time></trkpt>
<trkpt lat="26.179275" lon="98.860265">
<time>2014-08-05T00:55:41Z</time></trkpt>
<trkpt lat="26.179656" lon="98.860395">
<time>2014-08-05T00:55:42Z</time></trkpt>
<trkpt lat="26.180086" lon="98.860635">
<time>2014-08-05T00:55:43Z</time></trkpt>
<trkpt lat="26.180527" lon="98.860866">
<time>2014-08-05T00:55:44Z</time></trkpt>
<trkpt lat="26.180757" lon="98.860956">
<time>2014-08-05T00:55:45Z</time></trkpt>
<trkpt lat="26.180967" lon="98.861016">
<time>2014-08-05T00:55:46Z</time></trkpt>
<trkpt lat="26.181288" lon="98.861096">
<time>2014-08-05T00:55:47Z</time></trkpt>
<trkpt lat="26.181558" lon="98.861126">
<time>2014-08-05T00:55:48Z</time></trkpt>
<trkpt lat="26.181818" lon="98.861206">
<time>2014-08-05T00:55:49Z</time></trkpt>
<trkpt lat="26.181999" lon="98.861286">
<time>2014-08-05T00:55:50Z</time></trkpt>
<trkpt lat="26.182279" lon="98.861456">
<time>2014-08-05T00:55:51Z</time></trkpt>
<trkpt lat="26.182519" lon="98.861556">
<time>2014-08-05T00:55:52Z</time></trkpt>
<trkpt lat="26.18307" lon="98.861706">
<time>2014-08-05T00:55:53Z</time></trkpt>
<trkpt lat="26.18365" lon="98.861806">
<time>2014-08-05T00:55:54Z</time></trkpt>
<trkpt lat="26.183991" lon="98.861856">
<time>2014-08-05T00:55:55Z</time></trkpt>
<trkpt lat="26.184221" lon="98.861866">
<time>2014-08-05T00:55:56Z</time></trkpt>
<trkpt lat="26.184651" lon="98.861886">
<time>2014-08-05T00:55:57Z</time></trkpt>
<trkpt lat="26.185351" lon="98.861896">
<time>2014-08-05T00:55:58Z</time></trkpt>
<trkpt lat="26.185772" lon="98.861916">
<time>2014-08-05T00:55:59Z</time></trkpt>
<trkpt lat="26.186092" lon="98.861926">
<time>2014-08-05T00:56:00Z</time></trkpt>
<trkpt lat="26.186512" lon="98.861936">
<time>2014-08-05T00:56:01Z</time></trkpt>
<trkpt lat="26.187323" lon="98.861866">
<time>2014-08-05T00:56:02Z</time></trkpt>
<trkpt lat="26.187923" lon="98.861816">
<time>2014-08-05T00:56:03Z</time></trkpt>
<trkpt lat="26.188343" lon="98.861786">
<time>2014-08-05T00:56:04Z</time></trkpt>
<trkpt lat="26.188803" lon="98.861746">
<time>2014-08-05T00:56:05Z</time></trkpt>
<trkpt lat="26.189374" lon="98.861666">
<time>2014-08-05T00:56:06Z</time></trkpt>
<trkpt lat="26.189614" lon="98.861646">
<time>2014-08-05T00:56:07Z</time></trkpt>
<trkpt lat="26.190004" lon="98.861666">
<time>2014-08-05T00:56:08Z</time></trkpt>
<trkpt lat="26.190424" lon="98.861706">
<time>2014-08-05T00:56:09Z</time></trkpt>
<trkpt lat="26.190685" lon="98.861736">
<time>2014-08-05T00:56:10Z</time></trkpt>
<trkpt lat="26.190945" lon="98.861756">
<time>2014-08-05T00:56:11Z</time></trkpt>
<trkpt lat="26.191085" lon="98.861746">
<time>2014-08-05T00:56:12Z</time></trkpt>
<trkpt lat="26.191245" lon="98.861716">
<time>2014-08-05T00:56:13Z</time></trkpt>
<trkpt lat="26.191465" lon="98.861636">
<time>2014-08-05T00:56:14Z</time></trkpt>
<trkpt lat="26.191665" lon="98.861576">
<time>2014-08-05T00:56:15Z</time></trkpt>
<trkpt lat="26.191885" lon="98.861546">
<time>2014-08-05T00:56:16Z</time></trkpt>
<trkpt lat="26.192245" lon="98.861516">
<time>2014-08-05T00:56:17Z</time></trkpt>
<trkpt lat="26.192705" lon="98.861486">
<time>2014-08-05T00:56:18Z</time></trkpt>
<trkpt lat="26.193076" lon="98.861456">
<time>2014-08-05T00:56:19Z</time></trkpt>
<trkpt lat="26.193406" lon="98.861446">
<time>2014-08-05T00:56:20Z</time></trkpt>
<trkpt lat="26.193586" lon="98.861416">
<time>2014-08-05T00:56:21Z</time></trkpt>
<trkpt lat="26.193916" lon="98.861316">
<time>2014-08-05T00:56:22Z</time></trkpt>
<trkpt lat="26.194126" lon="98.861236">
<time>2014-08-05T00:56:23Z</time></trkpt>
<trkpt lat="26.194326" lon="98.861126">
<time>2014-08-05T00:56:24Z</time></trkpt>
<trkpt lat="26.194496" lon="98.860996">
<time>2014-08-05T00:56:25Z</time></trkpt>
<trkpt lat="26.194706" lon="98.860825">
<time>2014-08-05T00:56:26Z</time></trkpt>
<trkpt lat="26.195095" lon="98.860415">
<time>2014-08-05T00:56:27Z</time></trkpt>
<trkpt lat="26.195255" lon="98.860245">
<time>2014-08-05T00:56:28Z</time></trkpt>
<trkpt lat="26.195365" lon="98.860155">
<time>2014-08-05T00:56:29Z</time></trkpt>
<trkpt lat="26.195465" lon="98.860095">
<time>2014-08-05T00:56:30Z</time></trkpt>
<trkpt lat="26.195605" lon="98.860045">
<time>2014-08-05T00:56:31Z</time></trkpt>
<trkpt lat="26.195805" lon="98.860005">
<time>2014-08-05T00:56:32Z</time></trkpt>
<trkpt lat="26.196275" lon="98.859895">
<time>2014-08-05T00:56:33Z</time></trkpt>
<trkpt lat="26.196545" lon="98.859834">
<time>2014-08-05T00:56:34Z</time></trkpt>
<trkpt lat="26.196745" lon="98.859804">
<time>2014-08-05T00:56:35Z</time></trkpt>
<trkpt lat="26.197056" lon="98.859774">
<time>2014-08-05T00:56:36Z</time></trkpt>
<trkpt lat="26.197496" lon="98.859814">
<time>2014-08-05T00:56:37Z</time></trkpt>
<trkpt lat="26.197856" lon="98.859854">
<time>2014-08-05T00:56:38Z</time></trkpt>
<trkpt lat="26.198026" lon="98.859885">
<time>2014-08-05T00:56:39Z</time></trkpt>
<trkpt lat="26.198297" lon="98.859915">
<time>2014-08-05T00:56:40Z</time></trkpt>
<trkpt lat="26.198517" lon="98.859915">
<time>2014-08-05T00:56:41Z</time></trkpt>
<trkpt lat="26.198737" lon="98.859885">
<time>2014-08-05T00:56:42Z</time></trkpt>
<trkpt lat="26.198887" lon="98.859854">
<time>2014-08-05T00:56:43Z</time></trkpt>
<trkpt lat="26.199057" lon="98.859874">
<time>2014-08-05T00:56:44Z</time></trkpt>
<trkpt lat="26.199197" lon="98.859915">
<time>2014-08-05T00:56:45Z</time></trkpt>
<trkpt lat="26.199377" lon="98.859985">
<time>2014-08-05T00:56:46Z</time></trkpt>
<trkpt lat="26.199778" lon="98.860175">
<time>2014-08-05T00:56:47Z</time></trkpt>
<trkpt lat="26.200038" lon="98.860295">
<time>2014-08-05T00:56:48Z</time></trkpt>
<trkpt lat="26.200309" lon="98.860445">
<time>2014-08-05T00:56:49Z</time></trkpt>
<trkpt lat="26.200579" lon="98.860665">
<time>2014-08-05T00:56:50Z</time></trkpt>
<trkpt lat="26.200749" lon="98.860835">
<time>2014-08-05T00:56:51Z</time></trkpt>
<trkpt lat="26.20101" lon="98.861095">
<time>2014-08-05T00:56:52Z</time></trkpt>
<trkpt lat="26.201331" lon="98.861436">
<time>2014-08-05T00:56:53Z</time></trkpt>
<trkpt lat="26.201561" lon="98.861666">
<time>2014-08-05T00:56:54Z</time></trkpt>
<trkpt lat="26.201852" lon="98.861926">
<time>2014-08-05T00:56:55Z</time></trkpt>
<trkpt lat="26.202172" lon="98.862156">
<time>2014-08-05T00:56:56Z</time></trkpt>
<trkpt lat="26.202333" lon="98.862296">
<time>2014-08-05T00:56:57Z</time></trkpt>
<trkpt lat="26.202483" lon="98.862447">
<time>2014-08-05T00:56:58Z</time></trkpt>
<trkpt lat="26.202663" lon="98.862707">
<time>2014-08-05T00:56:59Z</time></trkpt>
<trkpt lat="26.202794" lon="98.862847">
<time>2014-08-05T00:57:00Z</time></trkpt>
<trkpt lat="26.203064" lon="98.863067">
<time>2014-08-05T00:57:01Z</time></trkpt>
<trkpt lat="26.203294" lon="98.863197">
<time>2014-08-05T00:57:02Z</time></trkpt>
<trkpt lat="26.203435" lon="98.863277">
<time>2014-08-05T00:57:03Z</time></trkpt>
<trkpt lat="26.203555" lon="98.863327">
<time>2014-08-05T00:57:04Z</time></trkpt>
<trkpt lat="26.203685" lon="98.863367">
<time>2014-08-05T00:57:05Z</time></trkpt>
<trkpt lat="26.203815" lon="98.863367">
<time>2014-08-05T00:57:06Z</time></trkpt>
<trkpt lat="26.204075" lon="98.863347">
<time>2014-08-05T00:57:07Z</time></trkpt>
<trkpt lat="26.204365" lon="98.863327">
<time>2014-08-05T00:57:08Z</time></trkpt>
<trkpt lat="26.204665" lon="98.863347">
<time>2014-08-05T00:57:09Z</time></trkpt>
<trkpt lat="26.204936" lon="98.863427">
<time>2014-08-05T00:57:10Z</time></trkpt>
<trkpt lat="26.205186" lon="98.863557">
<time>2014-08-05T00:57:11Z</time></trkpt>
<trkpt lat="26.205577" lon="98.863788">
<time>2014-08-05T00:57:12Z</time></trkpt>
<trkpt lat="26.205737" lon="98.863888">
<time>2014-08-05T00:57:13Z</time></trkpt>
<trkpt lat="26.205967" lon="98.864058">
<time>2014-08-05T00:57:14Z</time></trkpt>
<trkpt lat="26.206107" lon="98.864148">
<time>2014-08-05T00:57:15Z</time></trkpt>
<trkpt lat="26.206528" lon="98.864538">
<time>2014-08-05T00:57:16Z</time></trkpt>
<trkpt lat="26.206899" lon="98.864818">
<time>2014-08-05T00:57:17Z</time></trkpt>
<trkpt lat="26.207239" lon="98.865068">
<time>2014-08-05T00:57:18Z</time></trkpt>
<trkpt lat="26.2074" lon="98.865168">
<time>2014-08-05T00:57:19Z</time></trkpt>
<trkpt lat="26.2076" lon="98.865279">
<time>2014-08-05T00:57:20Z</time></trkpt>
<trkpt lat="26.20791" lon="98.865409">
<time>2014-08-05T00:57:21Z</time></trkpt>
<trkpt lat="26.2081" lon="98.865469">
<time>2014-08-05T00:57:22Z</time></trkpt>
<trkpt lat="26.208291" lon="98.865519">
<time>2014-08-05T00:57:23Z</time></trkpt>
<trkpt lat="26.208421" lon="98.865549">
<time>2014-08-05T00:57:24Z</time></trkpt>
<trkpt lat="26.208711" lon="98.865609">
<time>2014-08-05T00:57:25Z</time></trkpt>
<trkpt lat="26.208861" lon="98.865649">
<time>2014-08-05T00:57:26Z</time></trkpt>
<trkpt lat="26.209021" lon="98.865699">
<time>2014-08-05T00:57:27Z</time></trkpt>
<trkpt lat="26.209402" lon="98.865859">
<time>2014-08-05T00:57:28Z</time></trkpt>
<trkpt lat="26.209582" lon="98.865919">
<time>2014-08-05T00:57:29Z</time></trkpt>
<trkpt lat="26.209722" lon="98.865959">
<time>2014-08-05T00:57:30Z</time></trkpt>
<trkpt lat="26.209962" lon="98.865999">
<time>2014-08-05T00:57:31Z</time></trkpt>
<trkpt lat="26.210142" lon="98.866039">
<time>2014-08-05T00:57:32Z</time></trkpt>
<trkpt lat="26.210523" lon="98.866089">
<time>2014-08-05T00:57:33Z</time></trkpt>
<trkpt lat="26.210993" lon="98.866159">
<time>2014-08-05T00:57:34Z</time></trkpt>
<trkpt lat="26.211413" lon="98.866209">
<time>2014-08-05T00:57:35Z</time></trkpt>
<trkpt lat="26.211864" lon="98.866259">
<time>2014-08-05T00:57:36Z</time></trkpt>
<trkpt lat="26.212284" lon="98.866299">
<time>2014-08-05T00:57:37Z</time></trkpt>
<trkpt lat="26.212504" lon="98.866339">
<time>2014-08-05T00:57:38Z</time></trkpt>
<trkpt lat="26.212544" lon="98.866349">
<time>2014-08-05T00:57:39Z</time></trkpt>
<trkpt lat="26.212844" lon="98.866379">
<time>2014-08-05T00:57:40Z</time></trkpt>
<trkpt lat="26.213245" lon="98.866429">
<time>2014-08-05T00:57:41Z</time></trkpt>
<trkpt lat="26.213665" lon="98.866489">
<time>2014-08-05T00:57:42Z</time></trkpt>
<trkpt lat="26.213905" lon="98.866529">
<time>2014-08-05T00:57:43Z</time></trkpt>
<trkpt lat="26.214146" lon="98.866589">
<time>2014-08-05T00:57:44Z</time></trkpt>
<trkpt lat="26.214656" lon="98.866699">
<time>2014-08-05T00:57:45Z</time></trkpt>
<trkpt lat="26.215006" lon="98.866789">
<time>2014-08-05T00:57:46Z</time></trkpt>
<trkpt lat="26.215247" lon="98.866849">
<time>2014-08-05T00:57:47Z</time></trkpt>
<trkpt lat="26.215467" lon="98.86693">
<time>2014-08-05T00:57:48Z</time></trkpt>
<trkpt lat="26.215657" lon="98.867">
<time>2014-08-05T00:57:49Z</time></trkpt>
<trkpt lat="26.215907" lon="98.8671">
<time>2014-08-05T00:57:50Z</time></trkpt>
<trkpt lat="26.216128" lon="98.8672">
<time>2014-08-05T00:57:51Z</time></trkpt>
<trkpt lat="26.216288" lon="98.86729">
<time>2014-08-05T00:57:52Z</time></trkpt>
<trkpt lat="26.216438" lon="98.8674">
<time>2014-08-05T00:57:53Z</time></trkpt>
<trkpt lat="26.216748" lon="98.86763">
<time>2014-08-05T00:57:54Z</time></trkpt>
<trkpt lat="26.216839" lon="98.86769">
<time>2014-08-05T00:57:55Z</time></trkpt>
<trkpt lat="26.217149" lon="98.86788">
<time>2014-08-05T00:57:56Z</time></trkpt>
<trkpt lat="26.217319" lon="98.86797">
<time>2014-08-05T00:57:57Z</time></trkpt>
<trkpt lat="26.217529" lon="98.86808">
<time>2014-08-05T00:57:58Z</time></trkpt>
<trkpt lat="26.21778" lon="98.86822">
<time>2014-08-05T00:57:59Z</time></trkpt>
<trkpt lat="26.21811" lon="98.86846">
<time>2014-08-05T00:58:00Z</time></trkpt>
<trkpt lat="26.218461" lon="98.868721">
<time>2014-08-05T00:58:01Z</time></trkpt>
<trkpt lat="26.219042" lon="98.869161">
<time>2014-08-05T00:58:02Z</time></trkpt>
<trkpt lat="26.219212" lon="98.869301">
<time>2014-08-05T00:58:03Z</time></trkpt>
<trkpt lat="26.219332" lon="98.869391">
<time>2014-08-05T00:58:04Z</time></trkpt>
<trkpt lat="26.219462" lon="98.869471">
<time>2014-08-05T00:58:05Z</time></trkpt>
<trkpt lat="26.219663" lon="98.869581">
<time>2014-08-05T00:58:06Z</time></trkpt>
<trkpt lat="26.220013" lon="98.869741">
<time>2014-08-05T00:58:07Z</time></trkpt>
<trkpt lat="26.220153" lon="98.869801">
<time>2014-08-05T00:58:08Z</time></trkpt>
<trkpt lat="26.220273" lon="98.869841">
<time>2014-08-05T00:58:09Z</time></trkpt>
<trkpt lat="26.220383" lon="98.869861">
<time>2014-08-05T00:58:10Z</time></trkpt>
<trkpt lat="26.220473" lon="98.869881">
<time>2014-08-05T00:58:11Z</time></trkpt>
<trkpt lat="26.220604" lon="98.869891">
<time>2014-08-05T00:58:12Z</time></trkpt>
<trkpt lat="26.220914" lon="98.869881">
<time>2014-08-05T00:58:13Z</time></trkpt>
<trkpt lat="26.221334" lon="98.869821">
<time>2014-08-05T00:58:14Z</time></trkpt>
<trkpt lat="26.221664" lon="98.869791">
<time>2014-08-05T00:58:15Z</time></trkpt>
<trkpt lat="26.222104" lon="98.869751">
<time>2014-08-05T00:58:16Z</time></trkpt>
<trkpt lat="26.222514" lon="98.869701">
<time>2014-08-05T00:58:17Z</time></trkpt>
<trkpt lat="26.222945" lon="98.869631">
<time>2014-08-05T00:58:18Z</time></trkpt>
<trkpt lat="26.223295" lon="98.869571">
<time>2014-08-05T00:58:19Z</time></trkpt>
<trkpt lat="26.223495" lon="98.869521">
<time>2014-08-05T00:58:20Z</time></trkpt>
<trkpt lat="26.223655" lon="98.869471">
<time>2014-08-05T00:58:21Z</time></trkpt>
<trkpt lat="26.223745" lon="98.869441">
<time>2014-08-05T00:58:22Z</time></trkpt>
<trkpt lat="26.223815" lon="98.869411">
<time>2014-08-05T00:58:23Z</time></trkpt>
<trkpt lat="26.223905" lon="98.869371">
<time>2014-08-05T00:58:24Z</time></trkpt>
<trkpt lat="26.223935" lon="98.869361">
<time>2014-08-05T00:58:25Z</time></trkpt>
<trkpt lat="26.224145" lon="98.869261">
<time>2014-08-05T00:58:26Z</time></trkpt>
<trkpt lat="26.224285" lon="98.869201">
<time>2014-08-05T00:58:27Z</time></trkpt>
<trkpt lat="26.224505" lon="98.869111">
<time>2014-08-05T00:58:28Z</time></trkpt>
<trkpt lat="26.224615" lon="98.869071">
<time>2014-08-05T00:58:29Z</time></trkpt>
<trkpt lat="26.224685" lon="98.869061">
<time>2014-08-05T00:58:30Z</time></trkpt>
<trkpt lat="26.224745" lon="98.869041">
<time>2014-08-05T00:58:31Z</time></trkpt>
<trkpt lat="26.224865" lon="98.869021">
<time>2014-08-05T00:58:32Z</time></trkpt>
<trkpt lat="26.224995" lon="98.869011">
<time>2014-08-05T00:58:33Z</time></trkpt>
<trkpt lat="26.225255" lon="98.868981">
<time>2014-08-05T00:58:34Z</time></trkpt>
<trkpt lat="26.225345" lon="98.868971">
<time>2014-08-05T00:58:35Z</time></trkpt>
<trkpt lat="26.225425" lon="98.868951">
<time>2014-08-05T00:58:36Z</time></trkpt>
<trkpt lat="26.225595" lon="98.868921">
<time>2014-08-05T00:58:37Z</time></trkpt>
<trkpt lat="26.225805" lon="98.868861">
<time>2014-08-05T00:58:38Z</time></trkpt>
<trkpt lat="26.226185" lon="98.86875">
<time>2014-08-05T00:58:39Z</time></trkpt>
<trkpt lat="26.226365" lon="98.8687">
<time>2014-08-05T00:58:40Z</time></trkpt>
<trkpt lat="26.226446" lon="98.86867">
<time>2014-08-05T00:58:41Z</time></trkpt>
<trkpt lat="26.226556" lon="98.86865">
<time>2014-08-05T00:58:42Z</time></trkpt>
<trkpt lat="26.226666" lon="98.86862">
<time>2014-08-05T00:58:43Z</time></trkpt>
<trkpt lat="26.226766" lon="98.8686">
<time>2014-08-05T00:58:44Z</time></trkpt>
<trkpt lat="26.227086" lon="98.86856">
<time>2014-08-05T00:58:45Z</time></trkpt>
<trkpt lat="26.227476" lon="98.86851">
<time>2014-08-05T00:58:46Z</time></trkpt>
<trkpt lat="26.227576" lon="98.86849">
<time>2014-08-05T00:58:47Z</time></trkpt>
<trkpt lat="26.227666" lon="98.86847">
<time>2014-08-05T00:58:48Z</time></trkpt>
<trkpt lat="26.227756" lon="98.86845">
<time>2014-08-05T00:58:49Z</time></trkpt>
<trkpt lat="26.227876" lon="98.8684">
<time>2014-08-05T00:58:50Z</time></trkpt>
<trkpt lat="26.227966" lon="98.86835">
<time>2014-08-05T00:58:51Z</time></trkpt>
<trkpt lat="26.228316" lon="98.86817">
<time>2014-08-05T00:58:52Z</time></trkpt>
<trkpt lat="26.228766" lon="98.86795">
<time>2014-08-05T00:58:53Z</time></trkpt>
<trkpt lat="26.228946" lon="98.86787">
<time>2014-08-05T00:58:54Z</time></trkpt>
<trkpt lat="26.229146" lon="98.86781">
<time>2014-08-05T00:58:55Z</time></trkpt>
<trkpt lat="26.229606" lon="98.86772">
<time>2014-08-05T00:58:56Z</time></trkpt>
<trkpt lat="26.229836" lon="98.86768">
<time>2014-08-05T00:58:57Z</time></trkpt>
<trkpt lat="26.230116" lon="98.86766">
<time>2014-08-05T00:58:58Z</time></trkpt>
<trkpt lat="26.230256" lon="98.86765">
<time>2014-08-05T00:58:59Z</time></trkpt>
<trkpt lat="26.230687" lon="98.86763">
<time>2014-08-05T00:59:00Z</time></trkpt>
<trkpt lat="26.231117" lon="98.86762">
<time>2014-08-05T00:59:01Z</time></trkpt>
<trkpt lat="26.231737" lon="98.86759">
<time>2014-08-05T00:59:02Z</time></trkpt>
<trkpt lat="26.232207" lon="98.86757">
<time>2014-08-05T00:59:03Z</time></trkpt>
<trkpt lat="26.232558" lon="98.86756">
<time>2014-08-05T00:59:04Z</time></trkpt>
<trkpt lat="26.232778" lon="98.86755">
<time>2014-08-05T00:59:05Z</time></trkpt>
<trkpt lat="26.232958" lon="98.86756">
<time>2014-08-05T00:59:06Z</time></trkpt>
<trkpt lat="26.233138" lon="98.86756">
<time>2014-08-05T00:59:07Z</time></trkpt>
<trkpt lat="26.233388" lon="98.86758">
<time>2014-08-05T00:59:08Z</time></trkpt>
<trkpt lat="26.233778" lon="98.86763">
<time>2014-08-05T00:59:09Z</time></trkpt>
<trkpt lat="26.234179" lon="98.86767">
<time>2014-08-05T00:59:10Z</time></trkpt>
<trkpt lat="26.234219" lon="98.86767">
<time>2014-08-05T00:59:11Z</time></trkpt>
<trkpt lat="26.234429" lon="98.86769">
<time>2014-08-05T00:59:12Z</time></trkpt>
<trkpt lat="26.234589" lon="98.86771">
<time>2014-08-05T00:59:13Z</time></trkpt>
<trkpt lat="26.234989" lon="98.86772">
<time>2014-08-05T00:59:14Z</time></trkpt>
<trkpt lat="26.23541" lon="98.86771">
<time>2014-08-05T00:59:15Z</time></trkpt>
<trkpt lat="26.23583" lon="98.8677">
<time>2014-08-05T00:59:16Z</time></trkpt>
<trkpt lat="26.23622" lon="98.8677">
<time>2014-08-05T00:59:17Z</time></trkpt>
<trkpt lat="26.23662" lon="98.8677">
<time>2014-08-05T00:59:18Z</time></trkpt>
<trkpt lat="26.23683" lon="98.8677">
<time>2014-08-05T00:59:19Z</time></trkpt>
<trkpt lat="26.23708" lon="98.86768">
<time>2014-08-05T00:59:20Z</time></trkpt>
<trkpt lat="26.237251" lon="98.86767">
<time>2014-08-05T00:59:21Z</time></trkpt>
<trkpt lat="26.237461" lon="98.86764">
<time>2014-08-05T00:59:22Z</time></trkpt>
<trkpt lat="26.237731" lon="98.86761">
<time>2014-08-05T00:59:23Z</time></trkpt>
<trkpt lat="26.237901" lon="98.86761">
<time>2014-08-05T00:59:24Z</time></trkpt>
<trkpt lat="26.237991" lon="98.86761">
<time>2014-08-05T00:59:25Z</time></trkpt>
<trkpt lat="26.238111" lon="98.86762">
<time>2014-08-05T00:59:26Z</time></trkpt>
<trkpt lat="26.238171" lon="98.86763">
<time>2014-08-05T00:59:27Z</time></trkpt>
<trkpt lat="26.238281" lon="98.86766">
<time>2014-08-05T00:59:28Z</time></trkpt>
<trkpt lat="26.238511" lon="98.86771">
<time>2014-08-05T00:59:29Z</time></trkpt>
<trkpt lat="26.238641" lon="98.86773">
<time>2014-08-05T00:59:30Z</time></trkpt>
<trkpt lat="26.238731" lon="98.86773">
<time>2014-08-05T00:59:31Z</time></trkpt>
<trkpt lat="26.238802" lon="98.86773">
<time>2014-08-05T00:59:32Z</time></trkpt>
<trkpt lat="26.238882" lon="98.86771">
<time>2014-08-05T00:59:33Z</time></trkpt>
<trkpt lat="26.238952" lon="98.86769">
<time>2014-08-05T00:59:34Z</time></trkpt>
<trkpt lat="26.239102" lon="98.86762">
<time>2014-08-05T00:59:35Z</time></trkpt>
<trkpt lat="26.239302" lon="98.867509">
<time>2014-08-05T00:59:36Z</time></trkpt>
<trkpt lat="26.239502" lon="98.867419">
<time>2014-08-05T00:59:37Z</time></trkpt>
<trkpt lat="26.239622" lon="98.867379">
<time>2014-08-05T00:59:38Z</time></trkpt>
<trkpt lat="26.239702" lon="98.867369">
<time>2014-08-05T00:59:39Z</time></trkpt>
<trkpt lat="26.239922" lon="98.867349">
<time>2014-08-05T00:59:40Z</time></trkpt>
<trkpt lat="26.240022" lon="98.867359">
<time>2014-08-05T00:59:41Z</time></trkpt>
<trkpt lat="26.240132" lon="98.867389">
<time>2014-08-05T00:59:42Z</time></trkpt>
<trkpt lat="26.240232" lon="98.867419">
<time>2014-08-05T00:59:43Z</time></trkpt>
<trkpt lat="26.240332" lon="98.867459">
<time>2014-08-05T00:59:44Z</time></trkpt>
<trkpt lat="26.240562" lon="98.867549">
<time>2014-08-05T00:59:45Z</time></trkpt>
<trkpt lat="26.240712" lon="98.86761">
<time>2014-08-05T00:59:46Z</time></trkpt>
<trkpt lat="26.240853" lon="98.86765">
<time>2014-08-05T00:59:47Z</time></trkpt>
<trkpt lat="26.240923" lon="98.86766">
<time>2014-08-05T00:59:48Z</time></trkpt>
<trkpt lat="26.240973" lon="98.86766">
<time>2014-08-05T00:59:49Z</time></trkpt>
<trkpt lat="26.241073" lon="98.86764">
<time>2014-08-05T00:59:50Z</time></trkpt>
<trkpt lat="26.241153" lon="98.86763">
<time>2014-08-05T00:59:51Z</time></trkpt>
<trkpt lat="26.241253" lon="98.8676">
<time>2014-08-05T00:59:52Z</time></trkpt>
<trkpt lat="26.241513" lon="98.867519">
<time>2014-08-05T00:59:53Z</time></trkpt>
<trkpt lat="26.241673" lon="98.867469">
<time>2014-08-05T00:59:54Z</time></trkpt>
<trkpt lat="26.241803" lon="98.867439">
<time>2014-08-05T00:59:55Z</time></trkpt>
<trkpt lat="26.241933" lon="98.867429">
<time>2014-08-05T00:59:56Z</time></trkpt>
<trkpt lat="26.242113" lon="98.867449">
<time>2014-08-05T00:59:57Z</time></trkpt>
<trkpt lat="26.242193" lon="98.867459">
<time>2014-08-05T00:59:58Z</time></trkpt>
<trkpt lat="26.242413" lon="98.867499">
<time>2014-08-05T00:59:59Z</time></trkpt>
<trkpt lat="26.242603" lon="98.867529">
<time>2014-08-05T01:00:00Z</time></trkpt>
<trkpt lat="26.242704" lon="98.867529">
<time>2014-08-05T01:00:01Z</time></trkpt>
<trkpt lat="26.242834" lon="98.867519">
<time>2014-08-05T01:00:02Z</time></trkpt>
<trkpt lat="26.242994" lon="98.867489">
<time>2014-08-05T01:00:03Z</time></trkpt>
<trkpt lat="26.243194" lon="98.867449">
<time>2014-08-05T01:00:04Z</time></trkpt>
<trkpt lat="26.243394" lon="98.867409">
<time>2014-08-05T01:00:05Z</time></trkpt>
<trkpt lat="26.243594" lon="98.867409">
<time>2014-08-05T01:00:06Z</time></trkpt>
<trkpt lat="26.243704" lon="98.867419">
<time>2014-08-05T01:00:07Z</time></trkpt>
<trkpt lat="26.243824" lon="98.867439">
<time>2014-08-05T01:00:08Z</time></trkpt>
<trkpt lat="26.244074" lon="98.867469">
<time>2014-08-05T01:00:09Z</time></trkpt>
<trkpt lat="26.244184" lon="98.867489">
<time>2014-08-05T01:00:10Z</time></trkpt>
<trkpt lat="26.244314" lon="98.867519">
<time>2014-08-05T01:00:11Z</time></trkpt>
<trkpt lat="26.244415" lon="98.867549">
<time>2014-08-05T01:00:12Z</time></trkpt>
<trkpt lat="26.244525" lon="98.867589">
<time>2014-08-05T01:00:13Z</time></trkpt>
<trkpt lat="26.244755" lon="98.867669">
<time>2014-08-05T01:00:14Z</time></trkpt>
<trkpt lat="26.245025" lon="98.86778">
<time>2014-08-05T01:00:15Z</time></trkpt>
<trkpt lat="26.245155" lon="98.86782">
<time>2014-08-05T01:00:16Z</time></trkpt>
<trkpt lat="26.245315" lon="98.86788">
<time>2014-08-05T01:00:17Z</time></trkpt>
<trkpt lat="26.245486" lon="98.86796">
<time>2014-08-05T01:00:18Z</time></trkpt>
<trkpt lat="26.245606" lon="98.86803">
<time>2014-08-05T01:00:19Z</time></trkpt>
<trkpt lat="26.245696" lon="98.86809">
<time>2014-08-05T01:00:20Z</time></trkpt>
<trkpt lat="26.245766" lon="98.86813">
<time>2014-08-05T01:00:21Z</time></trkpt>
<trkpt lat="26.245846" lon="98.86817">
<time>2014-08-05T01:00:22Z</time></trkpt>
<trkpt lat="26.245916" lon="98.8682">
<time>2014-08-05T01:00:23Z</time></trkpt>
<trkpt lat="26.245986" lon="98.86822">
<time>2014-08-05T01:00:24Z</time></trkpt>
<trkpt lat="26.246136" lon="98.86825">
<time>2014-08-05T01:00:25Z</time></trkpt>
<trkpt lat="26.246407" lon="98.86831">
<time>2014-08-05T01:00:26Z</time></trkpt>
<trkpt lat="26.246907" lon="98.86848">
<time>2014-08-05T01:00:27Z</time></trkpt>
<trkpt lat="26.248609" lon="98.86919">
<time>2014-08-05T01:00:28Z</time></trkpt>
<trkpt lat="26.24939" lon="98.869511">
<time>2014-08-05T01:00:29Z</time></trkpt>
<trkpt lat="26.24959" lon="98.869571">
<time>2014-08-05T01:00:30Z</time></trkpt>
<trkpt lat="26.24971" lon="98.869611">
<time>2014-08-05T01:00:31Z</time></trkpt>
<trkpt lat="26.24983" lon="98.869651">
<time>2014-08-05T01:00:32Z</time></trkpt>
<trkpt lat="26.25003" lon="98.869711">
<time>2014-08-05T01:00:33Z</time></trkpt>
<trkpt lat="26.250461" lon="98.869831">
<time>2014-08-05T01:00:34Z</time></trkpt>
<trkpt lat="26.250821" lon="98.869931">
<time>2014-08-05T01:00:35Z</time></trkpt>
<trkpt lat="26.250961" lon="98.869971">
<time>2014-08-05T01:00:36Z</time></trkpt>
<trkpt lat="26.251081" lon="98.870021">
<time>2014-08-05T01:00:37Z</time></trkpt>
<trkpt lat="26.251161" lon="98.870051">
<time>2014-08-05T01:00:38Z</time></trkpt>
<trkpt lat="26.251242" lon="98.870091">
<time>2014-08-05T01:00:39Z</time></trkpt>
<trkpt lat="26.251592" lon="98.870241">
<time>2014-08-05T01:00:40Z</time></trkpt>
<trkpt lat="26.251722" lon="98.870301">
<time>2014-08-05T01:00:41Z</time></trkpt>
<trkpt lat="26.251952" lon="98.870431">
<time>2014-08-05T01:00:42Z</time></trkpt>
<trkpt lat="26.252063" lon="98.870551">
<time>2014-08-05T01:00:43Z</time></trkpt>
<trkpt lat="26.252063" lon="98.870551">
<time>2014-08-05T01:00:44Z</time></trkpt>
<trkpt lat="26.252203" lon="98.870501">
<time>2014-08-05T01:00:45Z</time></trkpt>
<trkpt lat="26.252233" lon="98.870501">
<time>2014-08-05T01:00:46Z</time></trkpt>
<trkpt lat="26.252263" lon="98.870511">
<time>2014-08-05T01:00:47Z</time></trkpt>
<trkpt lat="26.253344" lon="98.871061">
<time>2014-08-05T01:00:48Z</time></trkpt>
<trkpt lat="26.254035" lon="98.871521">
<time>2014-08-05T01:00:49Z</time></trkpt>
<trkpt lat="26.254786" lon="98.871812">
<time>2014-08-05T01:00:50Z</time></trkpt>
<trkpt lat="26.255546" lon="98.872102">
<time>2014-08-05T01:00:51Z</time></trkpt>
<trkpt lat="26.256617" lon="98.872062">
<time>2014-08-05T01:00:52Z</time></trkpt>
<trkpt lat="26.257558" lon="98.872422">
<time>2014-08-05T01:00:53Z</time></trkpt>
<trkpt lat="26.257548" lon="98.872552">
<time>2014-08-05T01:00:54Z</time></trkpt>
<trkpt lat="26.257548" lon="98.872552">
<time>2014-08-05T01:00:55Z</time></trkpt>
<trkpt lat="26.258969" lon="98.873032">
<time>2014-08-05T01:00:56Z</time></trkpt>
<trkpt lat="26.25945" lon="98.873182">
<time>2014-08-05T01:00:57Z</time></trkpt>
<trkpt lat="26.25965" lon="98.873222">
<time>2014-08-05T01:00:58Z</time></trkpt>
<trkpt lat="26.25979" lon="98.873242">
<time>2014-08-05T01:00:59Z</time></trkpt>
<trkpt lat="26.25985" lon="98.873232">
<time>2014-08-05T01:01:00Z</time></trkpt>
<trkpt lat="26.26002" lon="98.873212">
<time>2014-08-05T01:01:01Z</time></trkpt>
<trkpt lat="26.26018" lon="98.873192">
<time>2014-08-05T01:01:02Z</time></trkpt>
<trkpt lat="26.26053" lon="98.873112">
<time>2014-08-05T01:01:03Z</time></trkpt>
<trkpt lat="26.26092" lon="98.873012">
<time>2014-08-05T01:01:04Z</time></trkpt>
<trkpt lat="26.26115" lon="98.872962">
<time>2014-08-05T01:01:05Z</time></trkpt>
<trkpt lat="26.261311" lon="98.872922">
<time>2014-08-05T01:01:06Z</time></trkpt>
<trkpt lat="26.261441" lon="98.872882">
<time>2014-08-05T01:01:07Z</time></trkpt>
<trkpt lat="26.261531" lon="98.872852">
<time>2014-08-05T01:01:08Z</time></trkpt>
<trkpt lat="26.261631" lon="98.872802">
<time>2014-08-05T01:01:09Z</time></trkpt>
<trkpt lat="26.261711" lon="98.872752">
<time>2014-08-05T01:01:10Z</time></trkpt>
<trkpt lat="26.261781" lon="98.872712">
<time>2014-08-05T01:01:11Z</time></trkpt>
<trkpt lat="26.26189" lon="98.872632">
<time>2014-08-05T01:01:12Z</time></trkpt>
<trkpt lat="26.26201" lon="98.872522">
<time>2014-08-05T01:01:13Z</time></trkpt>
<trkpt lat="26.26209" lon="98.872432">
<time>2014-08-05T01:01:14Z</time></trkpt>
<trkpt lat="26.26264" lon="98.871791">
<time>2014-08-05T01:01:15Z</time></trkpt>
<trkpt lat="26.26272" lon="98.871701">
<time>2014-08-05T01:01:16Z</time></trkpt>
<trkpt lat="26.2628" lon="98.871621">
<time>2014-08-05T01:01:17Z</time></trkpt>
<trkpt lat="26.26288" lon="98.871551">
<time>2014-08-05T01:01:18Z</time></trkpt>
<trkpt lat="26.26297" lon="98.871491">
<time>2014-08-05T01:01:19Z</time></trkpt>
<trkpt lat="26.26303" lon="98.871461">
<time>2014-08-05T01:01:20Z</time></trkpt>
<trkpt lat="26.26317" lon="98.871401">
<time>2014-08-05T01:01:21Z</time></trkpt>
<trkpt lat="26.26331" lon="98.871361">
<time>2014-08-05T01:01:22Z</time></trkpt>
<trkpt lat="26.26343" lon="98.871341">
<time>2014-08-05T01:01:23Z</time></trkpt>
<trkpt lat="26.26369" lon="98.871311">
<time>2014-08-05T01:01:24Z</time></trkpt>
<trkpt lat="26.26421" lon="98.871251">
<time>2014-08-05T01:01:25Z</time></trkpt>
<trkpt lat="26.26469" lon="98.871141">
<time>2014-08-05T01:01:26Z</time></trkpt>
<trkpt lat="26.26501" lon="98.871071">
<time>2014-08-05T01:01:27Z</time></trkpt>
<trkpt lat="26.26516" lon="98.871041">
<time>2014-08-05T01:01:28Z</time></trkpt>
<trkpt lat="26.265331" lon="98.870991">
<time>2014-08-05T01:01:29Z</time></trkpt>
<trkpt lat="26.265411" lon="98.870961">
<time>2014-08-05T01:01:30Z</time></trkpt>
<trkpt lat="26.265531" lon="98.870901">
<time>2014-08-05T01:01:31Z</time></trkpt>
<trkpt lat="26.26572" lon="98.870781">
<time>2014-08-05T01:01:32Z</time></trkpt>
<trkpt lat="26.26619" lon="98.870491">
<time>2014-08-05T01:01:33Z</time></trkpt>
<trkpt lat="26.26644" lon="98.870291">
<time>2014-08-05T01:01:34Z</time></trkpt>
<trkpt lat="26.26659" lon="98.870151">
<time>2014-08-05T01:01:35Z</time></trkpt>
<trkpt lat="26.26671" lon="98.87002">
<time>2014-08-05T01:01:36Z</time></trkpt>
<trkpt lat="26.26683" lon="98.86983">
<time>2014-08-05T01:01:37Z</time></trkpt>
<trkpt lat="26.26702" lon="98.86952">
<time>2014-08-05T01:01:38Z</time></trkpt>
<trkpt lat="26.267239" lon="98.86912">
<time>2014-08-05T01:01:39Z</time></trkpt>
<trkpt lat="26.267419" lon="98.8688">
<time>2014-08-05T01:01:40Z</time></trkpt>
<trkpt lat="26.267619" lon="98.8685">
<time>2014-08-05T01:01:41Z</time></trkpt>
<trkpt lat="26.267709" lon="98.86838">
<time>2014-08-05T01:01:42Z</time></trkpt>
<trkpt lat="26.267789" lon="98.868299">
<time>2014-08-05T01:01:43Z</time></trkpt>
<trkpt lat="26.267909" lon="98.868199">
<time>2014-08-05T01:01:44Z</time></trkpt>
<trkpt lat="26.268178" lon="98.867989">
<time>2014-08-05T01:01:45Z</time></trkpt>
<trkpt lat="26.268808" lon="98.867509">
<time>2014-08-05T01:01:46Z</time></trkpt>
<trkpt lat="26.269098" lon="98.867299">
<time>2014-08-05T01:01:47Z</time></trkpt>
<trkpt lat="26.269178" lon="98.867249">
<time>2014-08-05T01:01:48Z</time></trkpt>
<trkpt lat="26.269218" lon="98.867229">
<time>2014-08-05T01:01:49Z</time></trkpt>
<trkpt lat="26.269258" lon="98.867209">
<time>2014-08-05T01:01:50Z</time></trkpt>
<trkpt lat="26.269288" lon="98.867199">
<time>2014-08-05T01:01:51Z</time></trkpt>
<trkpt lat="26.269328" lon="98.867189">
<time>2014-08-05T01:01:52Z</time></trkpt>
<trkpt lat="26.269368" lon="98.867179">
<time>2014-08-05T01:01:53Z</time></trkpt>
<trkpt lat="26.269428" lon="98.867169">
<time>2014-08-05T01:01:54Z</time></trkpt>
<trkpt lat="26.269528" lon="98.867169">
<time>2014-08-05T01:01:55Z</time></trkpt>
<trkpt lat="26.269588" lon="98.867169">
<time>2014-08-05T01:01:56Z</time></trkpt>
<trkpt lat="26.269698" lon="98.867179">
<time>2014-08-05T01:01:57Z</time></trkpt>
<trkpt lat="26.269818" lon="98.867199">
<time>2014-08-05T01:01:58Z</time></trkpt>
<trkpt lat="26.269968" lon="98.867229">
<time>2014-08-05T01:01:59Z</time></trkpt>
<trkpt lat="26.270529" lon="98.867309">
<time>2014-08-05T01:02:00Z</time></trkpt>
<trkpt lat="26.270729" lon="98.867339">
<time>2014-08-05T01:02:01Z</time></trkpt>
<trkpt lat="26.270859" lon="98.867369">
<time>2014-08-05T01:02:02Z</time></trkpt>
<trkpt lat="26.270919" lon="98.867389">
<time>2014-08-05T01:02:03Z</time></trkpt>
<trkpt lat="26.271029" lon="98.867419">
<time>2014-08-05T01:02:04Z</time></trkpt>
<trkpt lat="26.271179" lon="98.867469">
<time>2014-08-05T01:02:05Z</time></trkpt>
<trkpt lat="26.2714" lon="98.867549">
<time>2014-08-05T01:02:06Z</time></trkpt>
<trkpt lat="26.27149" lon="98.867579">
<time>2014-08-05T01:02:07Z</time></trkpt>
<trkpt lat="26.27155" lon="98.867589">
<time>2014-08-05T01:02:08Z</time></trkpt>
<trkpt lat="26.27174" lon="98.867629">
<time>2014-08-05T01:02:09Z</time></trkpt>
<trkpt lat="26.27197" lon="98.867659">
<time>2014-08-05T01:02:10Z</time></trkpt>
<trkpt lat="26.27209" lon="98.867679">
<time>2014-08-05T01:02:11Z</time></trkpt>
<trkpt lat="26.27224" lon="98.867719">
<time>2014-08-05T01:02:12Z</time></trkpt>
<trkpt lat="26.27234" lon="98.867749">
<time>2014-08-05T01:02:13Z</time></trkpt>
<trkpt lat="26.27243" lon="98.867779">
<time>2014-08-05T01:02:14Z</time></trkpt>
<trkpt lat="26.272611" lon="98.867879">
<time>2014-08-05T01:02:15Z</time></trkpt>
<trkpt lat="26.272741" lon="98.867949">
<time>2014-08-05T01:02:16Z</time></trkpt>
<trkpt lat="26.272861" lon="98.867989">
<time>2014-08-05T01:02:17Z</time></trkpt>
<trkpt lat="26.272961" lon="98.868029">
<time>2014-08-05T01:02:18Z</time></trkpt>
<trkpt lat="26.273041" lon="98.868049">
<time>2014-08-05T01:02:19Z</time></trkpt>
<trkpt lat="26.273492" lon="98.868169">
<time>2014-08-05T01:02:20Z</time></trkpt>
<trkpt lat="26.273662" lon="98.868239">
<time>2014-08-05T01:02:21Z</time></trkpt>
<trkpt lat="26.273792" lon="98.868299">
<time>2014-08-05T01:02:22Z</time></trkpt>
<trkpt lat="26.273922" lon="98.868369">
<time>2014-08-05T01:02:23Z</time></trkpt>
<trkpt lat="26.274042" lon="98.868449">
<time>2014-08-05T01:02:24Z</time></trkpt>
<trkpt lat="26.274303" lon="98.86863">
<time>2014-08-05T01:02:25Z</time></trkpt>
<trkpt lat="26.274413" lon="98.8687">
<time>2014-08-05T01:02:26Z</time></trkpt>
<trkpt lat="26.274503" lon="98.86875">
<time>2014-08-05T01:02:27Z</time></trkpt>
<trkpt lat="26.274633" lon="98.8688">
<time>2014-08-05T01:02:28Z</time></trkpt>
<trkpt lat="26.274803" lon="98.86885">
<time>2014-08-05T01:02:29Z</time></trkpt>
<trkpt lat="26.274943" lon="98.86889">
<time>2014-08-05T01:02:30Z</time></trkpt>
<trkpt lat="26.275073" lon="98.86895">
<time>2014-08-05T01:02:31Z</time></trkpt>
<trkpt lat="26.275163" lon="98.869">
<time>2014-08-05T01:02:32Z</time></trkpt>
<trkpt lat="26.275254" lon="98.86906">
<time>2014-08-05T01:02:33Z</time></trkpt>
<trkpt lat="26.275334" lon="98.86912">
<time>2014-08-05T01:02:34Z</time></trkpt>
<trkpt lat="26.275744" lon="98.86947">
<time>2014-08-05T01:02:35Z</time></trkpt>
<trkpt lat="26.276135" lon="98.86984">
<time>2014-08-05T01:02:36Z</time></trkpt>
<trkpt lat="26.276345" lon="98.87002">
<time>2014-08-05T01:02:37Z</time></trkpt>
<trkpt lat="26.276556" lon="98.87022">
<time>2014-08-05T01:02:38Z</time></trkpt>
<trkpt lat="26.276656" lon="98.87033">
<time>2014-08-05T01:02:39Z</time></trkpt>
<trkpt lat="26.276756" lon="98.870461">
<time>2014-08-05T01:02:40Z</time></trkpt>
<trkpt lat="26.276876" lon="98.870611">
<time>2014-08-05T01:02:41Z</time></trkpt>
<trkpt lat="26.276967" lon="98.870761">
<time>2014-08-05T01:02:42Z</time></trkpt>
<trkpt lat="26.277177" lon="98.871061">
<time>2014-08-05T01:02:43Z</time></trkpt>
<trkpt lat="26.277367" lon="98.871341">
<time>2014-08-05T01:02:44Z</time></trkpt>
<trkpt lat="26.277568" lon="98.871651">
<time>2014-08-05T01:02:45Z</time></trkpt>
<trkpt lat="26.277698" lon="98.871881">
<time>2014-08-05T01:02:46Z</time></trkpt>
<trkpt lat="26.277799" lon="98.872091">
<time>2014-08-05T01:02:47Z</time></trkpt>
<trkpt lat="26.278069" lon="98.872682">
<time>2014-08-05T01:02:48Z</time></trkpt>
<trkpt lat="26.27832" lon="98.873202">
<time>2014-08-05T01:02:49Z</time></trkpt>
<trkpt lat="26.27845" lon="98.873452">
<time>2014-08-05T01:02:50Z</time></trkpt>
<trkpt lat="26.278561" lon="98.873612">
<time>2014-08-05T01:02:51Z</time></trkpt>
<trkpt lat="26.278661" lon="98.873752">
<time>2014-08-05T01:02:52Z</time></trkpt>
<trkpt lat="26.278791" lon="98.873892">
<time>2014-08-05T01:02:53Z</time></trkpt>
<trkpt lat="26.278931" lon="98.874002">
<time>2014-08-05T01:02:54Z</time></trkpt>
<trkpt lat="26.279091" lon="98.874072">
<time>2014-08-05T01:02:55Z</time></trkpt>
<trkpt lat="26.279482" lon="98.874212">
<time>2014-08-05T01:02:56Z</time></trkpt>
<trkpt lat="26.279672" lon="98.874282">
<time>2014-08-05T01:02:57Z</time></trkpt>
<trkpt lat="26.279932" lon="98.874392">
<time>2014-08-05T01:02:58Z</time></trkpt>
<trkpt lat="26.280303" lon="98.874602">
<time>2014-08-05T01:02:59Z</time></trkpt>
<trkpt lat="26.280833" lon="98.874852">
<time>2014-08-05T01:03:00Z</time></trkpt>
<trkpt lat="26.281224" lon="98.875032">
<time>2014-08-05T01:03:01Z</time></trkpt>
<trkpt lat="26.281494" lon="98.875153">
<time>2014-08-05T01:03:02Z</time></trkpt>
<trkpt lat="26.281604" lon="98.875183">
<time>2014-08-05T01:03:03Z</time></trkpt>
<trkpt lat="26.281724" lon="98.875213">
<time>2014-08-05T01:03:04Z</time></trkpt>
<trkpt lat="26.282495" lon="98.875303">
<time>2014-08-05T01:03:05Z</time></trkpt>
<trkpt lat="26.283225" lon="98.875373">
<time>2014-08-05T01:03:06Z</time></trkpt>
<trkpt lat="26.283585" lon="98.875403">
<time>2014-08-05T01:03:07Z</time></trkpt>
<trkpt lat="26.283895" lon="98.875433">
<time>2014-08-05T01:03:08Z</time></trkpt>
<trkpt lat="26.283976" lon="98.875423">
<time>2014-08-05T01:03:09Z</time></trkpt>
<trkpt lat="26.284066" lon="98.875413">
<time>2014-08-05T01:03:10Z</time></trkpt>
<trkpt lat="26.284146" lon="98.875383">
<time>2014-08-05T01:03:11Z</time></trkpt>
<trkpt lat="26.284226" lon="98.875333">
<time>2014-08-05T01:03:12Z</time></trkpt>
<trkpt lat="26.284406" lon="98.875192">
<time>2014-08-05T01:03:13Z</time></trkpt>
<trkpt lat="26.284645" lon="98.875032">
<time>2014-08-05T01:03:14Z</time></trkpt>
<trkpt lat="26.284915" lon="98.874822">
<time>2014-08-05T01:03:15Z</time></trkpt>
<trkpt lat="26.285275" lon="98.874502">
<time>2014-08-05T01:03:16Z</time></trkpt>
<trkpt lat="26.285585" lon="98.874222">
<time>2014-08-05T01:03:17Z</time></trkpt>
<trkpt lat="26.285725" lon="98.874062">
<time>2014-08-05T01:03:18Z</time></trkpt>
<trkpt lat="26.285875" lon="98.873872">
<time>2014-08-05T01:03:19Z</time></trkpt>
<trkpt lat="26.286334" lon="98.873142">
<time>2014-08-05T01:03:20Z</time></trkpt>
<trkpt lat="26.286554" lon="98.872792">
<time>2014-08-05T01:03:21Z</time></trkpt>
<trkpt lat="26.286674" lon="98.872641">
<time>2014-08-05T01:03:22Z</time></trkpt>
<trkpt lat="26.286804" lon="98.872521">
<time>2014-08-05T01:03:23Z</time></trkpt>
<trkpt lat="26.286954" lon="98.872411">
<time>2014-08-05T01:03:24Z</time></trkpt>
<trkpt lat="26.287074" lon="98.872341">
<time>2014-08-05T01:03:25Z</time></trkpt>
<trkpt lat="26.287184" lon="98.872261">
<time>2014-08-05T01:03:26Z</time></trkpt>
<trkpt lat="26.287294" lon="98.872181">
<time>2014-08-05T01:03:27Z</time></trkpt>
<trkpt lat="26.287364" lon="98.872091">
<time>2014-08-05T01:03:28Z</time></trkpt>
<trkpt lat="26.287643" lon="98.871721">
<time>2014-08-05T01:03:29Z</time></trkpt>
<trkpt lat="26.288043" lon="98.871201">
<time>2014-08-05T01:03:30Z</time></trkpt>
<trkpt lat="26.288433" lon="98.87067">
<time>2014-08-05T01:03:31Z</time></trkpt>
<trkpt lat="26.288602" lon="98.87042">
<time>2014-08-05T01:03:32Z</time></trkpt>
<trkpt lat="26.288632" lon="98.87037">
<time>2014-08-05T01:03:33Z</time></trkpt>
<trkpt lat="26.288762" lon="98.87021">
<time>2014-08-05T01:03:34Z</time></trkpt>
<trkpt lat="26.288892" lon="98.87006">
<time>2014-08-05T01:03:35Z</time></trkpt>
<trkpt lat="26.289442" lon="98.86947">
<time>2014-08-05T01:03:36Z</time></trkpt>
<trkpt lat="26.289741" lon="98.86918">
<time>2014-08-05T01:03:37Z</time></trkpt>
<trkpt lat="26.290171" lon="98.868789">
<time>2014-08-05T01:03:38Z</time></trkpt>
<trkpt lat="26.290681" lon="98.868239">
<time>2014-08-05T01:03:39Z</time></trkpt>
<trkpt lat="26.290751" lon="98.868169">
<time>2014-08-05T01:03:40Z</time></trkpt>
<trkpt lat="26.290871" lon="98.868079">
<time>2014-08-05T01:03:41Z</time></trkpt>
<trkpt lat="26.291201" lon="98.867879">
<time>2014-08-05T01:03:42Z</time></trkpt>
<trkpt lat="26.291341" lon="98.867779">
<time>2014-08-05T01:03:43Z</time></trkpt>
<trkpt lat="26.291401" lon="98.867719">
<time>2014-08-05T01:03:44Z</time></trkpt>
<trkpt lat="26.29145" lon="98.867659">
<time>2014-08-05T01:03:45Z</time></trkpt>
<trkpt lat="26.29152" lon="98.867559">
<time>2014-08-05T01:03:46Z</time></trkpt>
<trkpt lat="26.29181" lon="98.867068">
<time>2014-08-05T01:03:47Z</time></trkpt>
<trkpt lat="26.29205" lon="98.866678">
<time>2014-08-05T01:03:48Z</time></trkpt>
<trkpt lat="26.292159" lon="98.866548">
<time>2014-08-05T01:03:49Z</time></trkpt>
<trkpt lat="26.292269" lon="98.866448">
<time>2014-08-05T01:03:50Z</time></trkpt>
<trkpt lat="26.292699" lon="98.866148">
<time>2014-08-05T01:03:51Z</time></trkpt>
<trkpt lat="26.292969" lon="98.865938">
<time>2014-08-05T01:03:52Z</time></trkpt>
<trkpt lat="26.293249" lon="98.865667">
<time>2014-08-05T01:03:53Z</time></trkpt>
<trkpt lat="26.293399" lon="98.865547">
<time>2014-08-05T01:03:54Z</time></trkpt>
<trkpt lat="26.293539" lon="98.865457">
<time>2014-08-05T01:03:55Z</time></trkpt>
<trkpt lat="26.293759" lon="98.865377">
<time>2014-08-05T01:03:56Z</time></trkpt>
<trkpt lat="26.293959" lon="98.865317">
<time>2014-08-05T01:03:57Z</time></trkpt>
<trkpt lat="26.294249" lon="98.865217">
<time>2014-08-05T01:03:58Z</time></trkpt>
<trkpt lat="26.294449" lon="98.865107">
<time>2014-08-05T01:03:59Z</time></trkpt>
<trkpt lat="26.294569" lon="98.865007">
<time>2014-08-05T01:04:00Z</time></trkpt>
<trkpt lat="26.294688" lon="98.864857">
<time>2014-08-05T01:04:01Z</time></trkpt>
<trkpt lat="26.294808" lon="98.864657">
<time>2014-08-05T01:04:02Z</time></trkpt>
<trkpt lat="26.295078" lon="98.864266">
<time>2014-08-05T01:04:03Z</time></trkpt>
<trkpt lat="26.295368" lon="98.863956">
<time>2014-08-05T01:04:04Z</time></trkpt>
<trkpt lat="26.295628" lon="98.863786">
<time>2014-08-05T01:04:05Z</time></trkpt>
<trkpt lat="26.295867" lon="98.863676">
<time>2014-08-05T01:04:06Z</time></trkpt>
<trkpt lat="26.296227" lon="98.863556">
<time>2014-08-05T01:04:07Z</time></trkpt>
<trkpt lat="26.296728" lon="98.863426">
<time>2014-08-05T01:04:08Z</time></trkpt>
<trkpt lat="26.297068" lon="98.863356">
<time>2014-08-05T01:04:09Z</time></trkpt>
<trkpt lat="26.297238" lon="98.863346">
<time>2014-08-05T01:04:10Z</time></trkpt>
<trkpt lat="26.297908" lon="98.863396">
<time>2014-08-05T01:04:11Z</time></trkpt>
<trkpt lat="26.297998" lon="98.863396">
<time>2014-08-05T01:04:12Z</time></trkpt>
<trkpt lat="26.298078" lon="98.863396">
<time>2014-08-05T01:04:13Z</time></trkpt>
<trkpt lat="26.298138" lon="98.863386">
<time>2014-08-05T01:04:14Z</time></trkpt>
<trkpt lat="26.298288" lon="98.863336">
<time>2014-08-05T01:04:15Z</time></trkpt>
<trkpt lat="26.298638" lon="98.863155">
<time>2014-08-05T01:04:16Z</time></trkpt>
<trkpt lat="26.298778" lon="98.863105">
<time>2014-08-05T01:04:17Z</time></trkpt>
<trkpt lat="26.298938" lon="98.863065">
<time>2014-08-05T01:04:18Z</time></trkpt>
<trkpt lat="26.299228" lon="98.862995">
<time>2014-08-05T01:04:19Z</time></trkpt>
<trkpt lat="26.299468" lon="98.862945">
<time>2014-08-05T01:04:20Z</time></trkpt>
<trkpt lat="26.299758" lon="98.862845">
<time>2014-08-05T01:04:21Z</time></trkpt>
<trkpt lat="26.300168" lon="98.862685">
<time>2014-08-05T01:04:22Z</time></trkpt>
<trkpt lat="26.300458" lon="98.862545">
<time>2014-08-05T01:04:23Z</time></trkpt>
<trkpt lat="26.300688" lon="98.862415">
<time>2014-08-05T01:04:24Z</time></trkpt>
<trkpt lat="26.300778" lon="98.862345">
<time>2014-08-05T01:04:25Z</time></trkpt>
<trkpt lat="26.301208" lon="98.861844">
<time>2014-08-05T01:04:26Z</time></trkpt>
<trkpt lat="26.301388" lon="98.861684">
<time>2014-08-05T01:04:27Z</time></trkpt>
<trkpt lat="26.301577" lon="98.861534">
<time>2014-08-05T01:04:28Z</time></trkpt>
<trkpt lat="26.301757" lon="98.861414">
<time>2014-08-05T01:04:29Z</time></trkpt>
<trkpt lat="26.301837" lon="98.861354">
<time>2014-08-05T01:04:30Z</time></trkpt>
<trkpt lat="26.301917" lon="98.861284">
<time>2014-08-05T01:04:31Z</time></trkpt>
<trkpt lat="26.301977" lon="98.861224">
<time>2014-08-05T01:04:32Z</time></trkpt>
<trkpt lat="26.302017" lon="98.861154">
<time>2014-08-05T01:04:33Z</time></trkpt>
<trkpt lat="26.302117" lon="98.860994">
<time>2014-08-05T01:04:34Z</time></trkpt>
<trkpt lat="26.302227" lon="98.860844">
<time>2014-08-05T01:04:35Z</time></trkpt>
<trkpt lat="26.302337" lon="98.860723">
<time>2014-08-05T01:04:36Z</time></trkpt>
<trkpt lat="26.302467" lon="98.860623">
<time>2014-08-05T01:04:37Z</time></trkpt>
<trkpt lat="26.302596" lon="98.860563">
<time>2014-08-05T01:04:38Z</time></trkpt>
<trkpt lat="26.302796" lon="98.860483">
<time>2014-08-05T01:04:39Z</time></trkpt>
<trkpt lat="26.302966" lon="98.860383">
<time>2014-08-05T01:04:40Z</time></trkpt>
<trkpt lat="26.303126" lon="98.860273">
<time>2014-08-05T01:04:41Z</time></trkpt>
<trkpt lat="26.303266" lon="98.860143">
<time>2014-08-05T01:04:42Z</time></trkpt>
<trkpt lat="26.303346" lon="98.860083">
<time>2014-08-05T01:04:43Z</time></trkpt>
<trkpt lat="26.303436" lon="98.860033">
<time>2014-08-05T01:04:44Z</time></trkpt>
<trkpt lat="26.303496" lon="98.860003">
<time>2014-08-05T01:04:45Z</time></trkpt>
<trkpt lat="26.303566" lon="98.859983">
<time>2014-08-05T01:04:46Z</time></trkpt>
<trkpt lat="26.303696" lon="98.859963">
<time>2014-08-05T01:04:47Z</time></trkpt>
<trkpt lat="26.303976" lon="98.859973">
<time>2014-08-05T01:04:48Z</time></trkpt>
<trkpt lat="26.304267" lon="98.860013">
<time>2014-08-05T01:04:49Z</time></trkpt>
<trkpt lat="26.304437" lon="98.860043">
<time>2014-08-05T01:04:50Z</time></trkpt>
<trkpt lat="26.304567" lon="98.860083">
<time>2014-08-05T01:04:51Z</time></trkpt>
<trkpt lat="26.304757" lon="98.860163">
<time>2014-08-05T01:04:52Z</time></trkpt>
<trkpt lat="26.304847" lon="98.860203">
<time>2014-08-05T01:04:53Z</time></trkpt>
<trkpt lat="26.304937" lon="98.860243">
<time>2014-08-05T01:04:54Z</time></trkpt>
<trkpt lat="26.305027" lon="98.860273">
<time>2014-08-05T01:04:55Z</time></trkpt>
<trkpt lat="26.305117" lon="98.860293">
<time>2014-08-05T01:04:56Z</time></trkpt>
<trkpt lat="26.305217" lon="98.860293">
<time>2014-08-05T01:04:57Z</time></trkpt>
<trkpt lat="26.305347" lon="98.860283">
<time>2014-08-05T01:04:58Z</time></trkpt>
<trkpt lat="26.305448" lon="98.860263">
<time>2014-08-05T01:04:59Z</time></trkpt>
<trkpt lat="26.305548" lon="98.860243">
<time>2014-08-05T01:05:00Z</time></trkpt>
<trkpt lat="26.305668" lon="98.860213">
<time>2014-08-05T01:05:01Z</time></trkpt>
<trkpt lat="26.306038" lon="98.860083">
<time>2014-08-05T01:05:02Z</time></trkpt>
<trkpt lat="26.306438" lon="98.859953">
<time>2014-08-05T01:05:03Z</time></trkpt>
<trkpt lat="26.306508" lon="98.859933">
<time>2014-08-05T01:05:04Z</time></trkpt>
<trkpt lat="26.306568" lon="98.859923">
<time>2014-08-05T01:05:05Z</time></trkpt>
<trkpt lat="26.306668" lon="98.859913">
<time>2014-08-05T01:05:06Z</time></trkpt>
<trkpt lat="26.306768" lon="98.859923">
<time>2014-08-05T01:05:07Z</time></trkpt>
<trkpt lat="26.306848" lon="98.859923">
<time>2014-08-05T01:05:08Z</time></trkpt>
<trkpt lat="26.306898" lon="98.859933">
<time>2014-08-05T01:05:09Z</time></trkpt>
<trkpt lat="26.307008" lon="98.859963">
<time>2014-08-05T01:05:10Z</time></trkpt>
<trkpt lat="26.307098" lon="98.859973">
<time>2014-08-05T01:05:11Z</time></trkpt>
<trkpt lat="26.307158" lon="98.859963">
<time>2014-08-05T01:05:12Z</time></trkpt>
<trkpt lat="26.307258" lon="98.859963">
<time>2014-08-05T01:05:13Z</time></trkpt>
<trkpt lat="26.307998" lon="98.859903">
<time>2014-08-05T01:05:14Z</time></trkpt>
<trkpt lat="26.308559" lon="98.859873">
<time>2014-08-05T01:05:15Z</time></trkpt>
<trkpt lat="26.308859" lon="98.859873">
<time>2014-08-05T01:05:16Z</time></trkpt>
<trkpt lat="26.309019" lon="98.859883">
<time>2014-08-05T01:05:17Z</time></trkpt>
<trkpt lat="26.309159" lon="98.859893">
<time>2014-08-05T01:05:18Z</time></trkpt>
<trkpt lat="26.31035" lon="98.860023">
<time>2014-08-05T01:05:19Z</time></trkpt>
<trkpt lat="26.31084" lon="98.860083">
<time>2014-08-05T01:05:20Z</time></trkpt>
<trkpt lat="26.31103" lon="98.860103">
<time>2014-08-05T01:05:21Z</time></trkpt>
<trkpt lat="26.31125" lon="98.860113">
<time>2014-08-05T01:05:22Z</time></trkpt>
<trkpt lat="26.312081" lon="98.860143">
<time>2014-08-05T01:05:23Z</time></trkpt>
<trkpt lat="26.312701" lon="98.860163">
<time>2014-08-05T01:05:24Z</time></trkpt>
<trkpt lat="26.312961" lon="98.860173">
<time>2014-08-05T01:05:25Z</time></trkpt>
<trkpt lat="26.313271" lon="98.860193">
<time>2014-08-05T01:05:26Z</time></trkpt>
<trkpt lat="26.313411" lon="98.860203">
<time>2014-08-05T01:05:27Z</time></trkpt>
<trkpt lat="26.313532" lon="98.860223">
<time>2014-08-05T01:05:28Z</time></trkpt>
<trkpt lat="26.313672" lon="98.860263">
<time>2014-08-05T01:05:29Z</time></trkpt>
<trkpt lat="26.313962" lon="98.860373">
<time>2014-08-05T01:05:30Z</time></trkpt>
<trkpt lat="26.314102" lon="98.860413">
<time>2014-08-05T01:05:31Z</time></trkpt>
<trkpt lat="26.314172" lon="98.860423">
<time>2014-08-05T01:05:32Z</time></trkpt>
<trkpt lat="26.314262" lon="98.860453">
<time>2014-08-05T01:05:33Z</time></trkpt>
<trkpt lat="26.314312" lon="98.860453">
<time>2014-08-05T01:05:34Z</time></trkpt>
<trkpt lat="26.314352" lon="98.860453">
<time>2014-08-05T01:05:35Z</time></trkpt>
<trkpt lat="26.314412" lon="98.860453">
<time>2014-08-05T01:05:36Z</time></trkpt>
<trkpt lat="26.314452" lon="98.860443">
<time>2014-08-05T01:05:37Z</time></trkpt>
<trkpt lat="26.314512" lon="98.860423">
<time>2014-08-05T01:05:38Z</time></trkpt>
<trkpt lat="26.314552" lon="98.860413">
<time>2014-08-05T01:05:39Z</time></trkpt>
<trkpt lat="26.314772" lon="98.860313">
<time>2014-08-05T01:05:40Z</time></trkpt>
<trkpt lat="26.314942" lon="98.860243">
<time>2014-08-05T01:05:41Z</time></trkpt>
<trkpt lat="26.315082" lon="98.860213">
<time>2014-08-05T01:05:42Z</time></trkpt>
<trkpt lat="26.315162" lon="98.860213">
<time>2014-08-05T01:05:43Z</time></trkpt>
<trkpt lat="26.315242" lon="98.860203">
<time>2014-08-05T01:05:44Z</time></trkpt>
<trkpt lat="26.315312" lon="98.860223">
<time>2014-08-05T01:05:45Z</time></trkpt>
<trkpt lat="26.315563" lon="98.860283">
<time>2014-08-05T01:05:46Z</time></trkpt>
<trkpt lat="26.315883" lon="98.860363">
<time>2014-08-05T01:05:47Z</time></trkpt>
<trkpt lat="26.316203" lon="98.860463">
<time>2014-08-05T01:05:48Z</time></trkpt>
<trkpt lat="26.316564" lon="98.860633">
<time>2014-08-05T01:05:49Z</time></trkpt>
<trkpt lat="26.317204" lon="98.860963">
<time>2014-08-05T01:05:50Z</time></trkpt>
<trkpt lat="26.317815" lon="98.861274">
<time>2014-08-05T01:05:51Z</time></trkpt>
<trkpt lat="26.318266" lon="98.861484">
<time>2014-08-05T01:05:52Z</time></trkpt>
<trkpt lat="26.318556" lon="98.861604">
<time>2014-08-05T01:05:53Z</time></trkpt>
<trkpt lat="26.318866" lon="98.861744">
<time>2014-08-05T01:05:54Z</time></trkpt>
<trkpt lat="26.319137" lon="98.861914">
<time>2014-08-05T01:05:55Z</time></trkpt>
<trkpt lat="26.319527" lon="98.862184">
<time>2014-08-05T01:05:56Z</time></trkpt>
<trkpt lat="26.319688" lon="98.862304">
<time>2014-08-05T01:05:57Z</time></trkpt>
<trkpt lat="26.319828" lon="98.862425">
<time>2014-08-05T01:05:58Z</time></trkpt>
<trkpt lat="26.320189" lon="98.862765">
<time>2014-08-05T01:05:59Z</time></trkpt>
<trkpt lat="26.320659" lon="98.863135">
<time>2014-08-05T01:06:00Z</time></trkpt>
<trkpt lat="26.320779" lon="98.863225">
<time>2014-08-05T01:06:01Z</time></trkpt>
<trkpt lat="26.32094" lon="98.863295">
<time>2014-08-05T01:06:02Z</time></trkpt>
<trkpt lat="26.32137" lon="98.863505">
<time>2014-08-05T01:06:03Z</time></trkpt>
<trkpt lat="26.32165" lon="98.863655">
<time>2014-08-05T01:06:04Z</time></trkpt>
<trkpt lat="26.321961" lon="98.863806">
<time>2014-08-05T01:06:05Z</time></trkpt>
<trkpt lat="26.322672" lon="98.864076">
<time>2014-08-05T01:06:06Z</time></trkpt>
<trkpt lat="26.322932" lon="98.864196">
<time>2014-08-05T01:06:07Z</time></trkpt>
<trkpt lat="26.323082" lon="98.864286">
<time>2014-08-05T01:06:08Z</time></trkpt>
<trkpt lat="26.323132" lon="98.864336">
<time>2014-08-05T01:06:09Z</time></trkpt>
<trkpt lat="26.323162" lon="98.864356">
<time>2014-08-05T01:06:10Z</time></trkpt>
<trkpt lat="26.323242" lon="98.864436">
<time>2014-08-05T01:06:11Z</time></trkpt>
<trkpt lat="26.323303" lon="98.864536">
<time>2014-08-05T01:06:12Z</time></trkpt>
<trkpt lat="26.323353" lon="98.864636">
<time>2014-08-05T01:06:13Z</time></trkpt>
<trkpt lat="26.323443" lon="98.864866">
<time>2014-08-05T01:06:14Z</time></trkpt>
<trkpt lat="26.323543" lon="98.865046">
<time>2014-08-05T01:06:15Z</time></trkpt>
<trkpt lat="26.323674" lon="98.865237">
<time>2014-08-05T01:06:16Z</time></trkpt>
<trkpt lat="26.323814" lon="98.865377">
<time>2014-08-05T01:06:17Z</time></trkpt>
<trkpt lat="26.323984" lon="98.865517">
<time>2014-08-05T01:06:18Z</time></trkpt>
<trkpt lat="26.324204" lon="98.865657">
<time>2014-08-05T01:06:19Z</time></trkpt>
<trkpt lat="26.324385" lon="98.865747">
<time>2014-08-05T01:06:20Z</time></trkpt>
<trkpt lat="26.324595" lon="98.865807">
<time>2014-08-05T01:06:21Z</time></trkpt>
<trkpt lat="26.324755" lon="98.865857">
<time>2014-08-05T01:06:22Z</time></trkpt>
<trkpt lat="26.324935" lon="98.865917">
<time>2014-08-05T01:06:23Z</time></trkpt>
<trkpt lat="26.325125" lon="98.866007">
<time>2014-08-05T01:06:24Z</time></trkpt>
<trkpt lat="26.325296" lon="98.866127">
<time>2014-08-05T01:06:25Z</time></trkpt>
<trkpt lat="26.325907" lon="98.866637">
<time>2014-08-05T01:06:26Z</time></trkpt>
<trkpt lat="26.326237" lon="98.866948">
<time>2014-08-05T01:06:27Z</time></trkpt>
<trkpt lat="26.326648" lon="98.867378">
<time>2014-08-05T01:06:28Z</time></trkpt>
<trkpt lat="26.326928" lon="98.867658">
<time>2014-08-05T01:06:29Z</time></trkpt>
<trkpt lat="26.327059" lon="98.867808">
<time>2014-08-05T01:06:30Z</time></trkpt>
<trkpt lat="26.327189" lon="98.867968">
<time>2014-08-05T01:06:31Z</time></trkpt>
<trkpt lat="26.327851" lon="98.869089">
<time>2014-08-05T01:06:32Z</time></trkpt>
<trkpt lat="26.327971" lon="98.869259">
<time>2014-08-05T01:06:33Z</time></trkpt>
<trkpt lat="26.328111" lon="98.869419">
<time>2014-08-05T01:06:34Z</time></trkpt>
<trkpt lat="26.328652" lon="98.869759">
<time>2014-08-05T01:06:35Z</time></trkpt>
<trkpt lat="26.328752" lon="98.869829">
<time>2014-08-05T01:06:36Z</time></trkpt>
<trkpt lat="26.328812" lon="98.869889">
<time>2014-08-05T01:06:37Z</time></trkpt>
<trkpt lat="26.328892" lon="98.869979">
<time>2014-08-05T01:06:38Z</time></trkpt>
<trkpt lat="26.328972" lon="98.870079">
<time>2014-08-05T01:06:39Z</time></trkpt>
<trkpt lat="26.329163" lon="98.87034">
<time>2014-08-05T01:06:40Z</time></trkpt>
<trkpt lat="26.329373" lon="98.87061">
<time>2014-08-05T01:06:41Z</time></trkpt>
<trkpt lat="26.329614" lon="98.87081">
<time>2014-08-05T01:06:42Z</time></trkpt>
<trkpt lat="26.329784" lon="98.87095">
<time>2014-08-05T01:06:43Z</time></trkpt>
<trkpt lat="26.330034" lon="98.8712">
<time>2014-08-05T01:06:44Z</time></trkpt>
<trkpt lat="26.330255" lon="98.87147">
<time>2014-08-05T01:06:45Z</time></trkpt>
<trkpt lat="26.330405" lon="98.87162">
<time>2014-08-05T01:06:46Z</time></trkpt>
<trkpt lat="26.330505" lon="98.8717">
<time>2014-08-05T01:06:47Z</time></trkpt>
<trkpt lat="26.330615" lon="98.87176">
<time>2014-08-05T01:06:48Z</time></trkpt>
<trkpt lat="26.330715" lon="98.87181">
<time>2014-08-05T01:06:49Z</time></trkpt>
<trkpt lat="26.330815" lon="98.87185">
<time>2014-08-05T01:06:50Z</time></trkpt>
<trkpt lat="26.331196" lon="98.87193">
<time>2014-08-05T01:06:51Z</time></trkpt>
<trkpt lat="26.331316" lon="98.87198">
<time>2014-08-05T01:06:52Z</time></trkpt>
<trkpt lat="26.331406" lon="98.87203">
<time>2014-08-05T01:06:53Z</time></trkpt>
<trkpt lat="26.331476" lon="98.87208">
<time>2014-08-05T01:06:54Z</time></trkpt>
<trkpt lat="26.331546" lon="98.87216">
<time>2014-08-05T01:06:55Z</time></trkpt>
<trkpt lat="26.331606" lon="98.87224">
<time>2014-08-05T01:06:56Z</time></trkpt>
<trkpt lat="26.331656" lon="98.872311">
<time>2014-08-05T01:06:57Z</time></trkpt>
<trkpt lat="26.332107" lon="98.873121">
<time>2014-08-05T01:06:58Z</time></trkpt>
<trkpt lat="26.332238" lon="98.873321">
<time>2014-08-05T01:06:59Z</time></trkpt>
<trkpt lat="26.332358" lon="98.873451">
<time>2014-08-05T01:07:00Z</time></trkpt>
<trkpt lat="26.332498" lon="98.873571">
<time>2014-08-05T01:07:01Z</time></trkpt>
<trkpt lat="26.332748" lon="98.873721">
<time>2014-08-05T01:07:02Z</time></trkpt>
<trkpt lat="26.332919" lon="98.873831">
<time>2014-08-05T01:07:03Z</time></trkpt>
<trkpt lat="26.333019" lon="98.873931">
<time>2014-08-05T01:07:04Z</time></trkpt>
<trkpt lat="26.333089" lon="98.874041">
<time>2014-08-05T01:07:05Z</time></trkpt>
<trkpt lat="26.33336" lon="98.874641">
<time>2014-08-05T01:07:06Z</time></trkpt>
<trkpt lat="26.33342" lon="98.874802">
<time>2014-08-05T01:07:07Z</time></trkpt>
<trkpt lat="26.33345" lon="98.874872">
<time>2014-08-05T01:07:08Z</time></trkpt>
<trkpt lat="26.33348" lon="98.874932">
<time>2014-08-05T01:07:09Z</time></trkpt>
<trkpt lat="26.33352" lon="98.874982">
<time>2014-08-05T01:07:10Z</time></trkpt>
<trkpt lat="26.33355" lon="98.875012">
<time>2014-08-05T01:07:11Z</time></trkpt>
<trkpt lat="26.33359" lon="98.875032">
<time>2014-08-05T01:07:12Z</time></trkpt>
<trkpt lat="26.333951" lon="98.875342">
<time>2014-08-05T01:07:13Z</time></trkpt>
<trkpt lat="26.334101" lon="98.875502">
<time>2014-08-05T01:07:14Z</time></trkpt>
<trkpt lat="26.334241" lon="98.875702">
<time>2014-08-05T01:07:15Z</time></trkpt>
<trkpt lat="26.334361" lon="98.875922">
<time>2014-08-05T01:07:16Z</time></trkpt>
<trkpt lat="26.334552" lon="98.876352">
<time>2014-08-05T01:07:17Z</time></trkpt>
<trkpt lat="26.334742" lon="98.876752">
<time>2014-08-05T01:07:18Z</time></trkpt>
<trkpt lat="26.334993" lon="98.877192">
<time>2014-08-05T01:07:19Z</time></trkpt>
<trkpt lat="26.335253" lon="98.877532">
<time>2014-08-05T01:07:20Z</time></trkpt>
<trkpt lat="26.335494" lon="98.877752">
<time>2014-08-05T01:07:21Z</time></trkpt>
<trkpt lat="26.335744" lon="98.877992">
<time>2014-08-05T01:07:22Z</time></trkpt>
<trkpt lat="26.336165" lon="98.878343">
<time>2014-08-05T01:07:23Z</time></trkpt>
<trkpt lat="26.336605" lon="98.878813">
<time>2014-08-05T01:07:24Z</time></trkpt>
<trkpt lat="26.337256" lon="98.879383">
<time>2014-08-05T01:07:25Z</time></trkpt>
<trkpt lat="26.337807" lon="98.879743">
<time>2014-08-05T01:07:26Z</time></trkpt>
<trkpt lat="26.338037" lon="98.879833">
<time>2014-08-05T01:07:27Z</time></trkpt>
<trkpt lat="26.338467" lon="98.879893">
<time>2014-08-05T01:07:28Z</time></trkpt>
<trkpt lat="26.338877" lon="98.879923">
<time>2014-08-05T01:07:29Z</time></trkpt>
<trkpt lat="26.339208" lon="98.879963">
<time>2014-08-05T01:07:30Z</time></trkpt>
<trkpt lat="26.339498" lon="98.880033">
<time>2014-08-05T01:07:31Z</time></trkpt>
<trkpt lat="26.339748" lon="98.880173">
<time>2014-08-05T01:07:32Z</time></trkpt>
<trkpt lat="26.340008" lon="98.880393">
<time>2014-08-05T01:07:33Z</time></trkpt>
<trkpt lat="26.340309" lon="98.880623">
<time>2014-08-05T01:07:34Z</time></trkpt>
<trkpt lat="26.340589" lon="98.880793">
<time>2014-08-05T01:07:35Z</time></trkpt>
<trkpt lat="26.340979" lon="98.880973">
<time>2014-08-05T01:07:36Z</time></trkpt>
<trkpt lat="26.345383" lon="98.882603">
<time>2014-08-05T01:07:37Z</time></trkpt>
<trkpt lat="26.345743" lon="98.882703">
<time>2014-08-05T01:07:38Z</time></trkpt>
<trkpt lat="26.345983" lon="98.882803">
<time>2014-08-05T01:07:39Z</time></trkpt>
<trkpt lat="26.346193" lon="98.882933">
<time>2014-08-05T01:07:40Z</time></trkpt>
<trkpt lat="26.346403" lon="98.883073">
<time>2014-08-05T01:07:41Z</time></trkpt>
<trkpt lat="26.346694" lon="98.883273">
<time>2014-08-05T01:07:42Z</time></trkpt>
<trkpt lat="26.346974" lon="98.883433">
<time>2014-08-05T01:07:43Z</time></trkpt>
<trkpt lat="26.347334" lon="98.883593">
<time>2014-08-05T01:07:44Z</time></trkpt>
<trkpt lat="26.347995" lon="98.883853">
<time>2014-08-05T01:07:45Z</time></trkpt>
<trkpt lat="26.348465" lon="98.884033">
<time>2014-08-05T01:07:46Z</time></trkpt>
<trkpt lat="26.348985" lon="98.884183">
<time>2014-08-05T01:07:47Z</time></trkpt>
<trkpt lat="26.349266" lon="98.884263">
<time>2014-08-05T01:07:48Z</time></trkpt>
<trkpt lat="26.349496" lon="98.884353">
<time>2014-08-05T01:07:49Z</time></trkpt>
<trkpt lat="26.349816" lon="98.884503">
<time>2014-08-05T01:07:50Z</time></trkpt>
<trkpt lat="26.350036" lon="98.884593">
<time>2014-08-05T01:07:51Z</time></trkpt>
<trkpt lat="26.350276" lon="98.884643">
<time>2014-08-05T01:07:52Z</time></trkpt>
<trkpt lat="26.350446" lon="98.884663">
<time>2014-08-05T01:07:53Z</time></trkpt>
<trkpt lat="26.350677" lon="98.884683">
<time>2014-08-05T01:07:54Z</time></trkpt>
<trkpt lat="26.350787" lon="98.884713">
<time>2014-08-05T01:07:55Z</time></trkpt>
<trkpt lat="26.350857" lon="98.884733">
<time>2014-08-05T01:07:56Z</time></trkpt>
<trkpt lat="26.350967" lon="98.884793">
<time>2014-08-05T01:07:57Z</time></trkpt>
<trkpt lat="26.351117" lon="98.884923">
<time>2014-08-05T01:07:58Z</time></trkpt>
<trkpt lat="26.351347" lon="98.885123">
<time>2014-08-05T01:07:59Z</time></trkpt>
<trkpt lat="26.351497" lon="98.885223">
<time>2014-08-05T01:08:00Z</time></trkpt>
<trkpt lat="26.351717" lon="98.885293">
<time>2014-08-05T01:08:01Z</time></trkpt>
<trkpt lat="26.352188" lon="98.885463">
<time>2014-08-05T01:08:02Z</time></trkpt>
<trkpt lat="26.352488" lon="98.885573">
<time>2014-08-05T01:08:03Z</time></trkpt>
<trkpt lat="26.352788" lon="98.885683">
<time>2014-08-05T01:08:04Z</time></trkpt>
<trkpt lat="26.352978" lon="98.885743">
<time>2014-08-05T01:08:05Z</time></trkpt>
<trkpt lat="26.353218" lon="98.885793">
<time>2014-08-05T01:08:06Z</time></trkpt>
<trkpt lat="26.353459" lon="98.885853">
<time>2014-08-05T01:08:07Z</time></trkpt>
<trkpt lat="26.353569" lon="98.885883">
<time>2014-08-05T01:08:08Z</time></trkpt>
<trkpt lat="26.353609" lon="98.885893">
<time>2014-08-05T01:08:09Z</time></trkpt>
<trkpt lat="26.353689" lon="98.885903">
<time>2014-08-05T01:08:10Z</time></trkpt>
<trkpt lat="26.353829" lon="98.885913">
<time>2014-08-05T01:08:11Z</time></trkpt>
<trkpt lat="26.354069" lon="98.885933">
<time>2014-08-05T01:08:12Z</time></trkpt>
<trkpt lat="26.354349" lon="98.885953">
<time>2014-08-05T01:08:13Z</time></trkpt>
<trkpt lat="26.354409" lon="98.885963">
<time>2014-08-05T01:08:14Z</time></trkpt>
<trkpt lat="26.354479" lon="98.885973">
<time>2014-08-05T01:08:15Z</time></trkpt>
<trkpt lat="26.354529" lon="98.885993">
<time>2014-08-05T01:08:16Z</time></trkpt>
<trkpt lat="26.354579" lon="98.886013">
<time>2014-08-05T01:08:17Z</time></trkpt>
<trkpt lat="26.354619" lon="98.886033">
<time>2014-08-05T01:08:18Z</time></trkpt>
<trkpt lat="26.354659" lon="98.886053">
<time>2014-08-05T01:08:19Z</time></trkpt>
<trkpt lat="26.354699" lon="98.886083">
<time>2014-08-05T01:08:20Z</time></trkpt>
<trkpt lat="26.354739" lon="98.886113">
<time>2014-08-05T01:08:21Z</time></trkpt>
<trkpt lat="26.354809" lon="98.886183">
<time>2014-08-05T01:08:22Z</time></trkpt>
<trkpt lat="26.35504" lon="98.886423">
<time>2014-08-05T01:08:23Z</time></trkpt>
<trkpt lat="26.35513" lon="98.886523">
<time>2014-08-05T01:08:24Z</time></trkpt>
<trkpt lat="26.35522" lon="98.886623">
<time>2014-08-05T01:08:25Z</time></trkpt>
<trkpt lat="26.35534" lon="98.886723">
<time>2014-08-05T01:08:26Z</time></trkpt>
<trkpt lat="26.35544" lon="98.886793">
<time>2014-08-05T01:08:27Z</time></trkpt>
<trkpt lat="26.35555" lon="98.886853">
<time>2014-08-05T01:08:28Z</time></trkpt>
<trkpt lat="26.35572" lon="98.886943">
<time>2014-08-05T01:08:29Z</time></trkpt>
<trkpt lat="26.35592" lon="98.887043">
<time>2014-08-05T01:08:30Z</time></trkpt>
<trkpt lat="26.356231" lon="98.887183">
<time>2014-08-05T01:08:31Z</time></trkpt>
<trkpt lat="26.356531" lon="98.887303">
<time>2014-08-05T01:08:32Z</time></trkpt>
<trkpt lat="26.356701" lon="98.887363">
<time>2014-08-05T01:08:33Z</time></trkpt>
<trkpt lat="26.356851" lon="98.887393">
<time>2014-08-05T01:08:34Z</time></trkpt>
<trkpt lat="26.357021" lon="98.887383">
<time>2014-08-05T01:08:35Z</time></trkpt>
<trkpt lat="26.357211" lon="98.887363">
<time>2014-08-05T01:08:36Z</time></trkpt>
<trkpt lat="26.357521" lon="98.887313">
<time>2014-08-05T01:08:37Z</time></trkpt>
<trkpt lat="26.357851" lon="98.887263">
<time>2014-08-05T01:08:38Z</time></trkpt>
<trkpt lat="26.358382" lon="98.887173">
<time>2014-08-05T01:08:39Z</time></trkpt>
<trkpt lat="26.358802" lon="98.887103">
<time>2014-08-05T01:08:40Z</time></trkpt>
<trkpt lat="26.358992" lon="98.887073">
<time>2014-08-05T01:08:41Z</time></trkpt>
<trkpt lat="26.359372" lon="98.887013">
<time>2014-08-05T01:08:42Z</time></trkpt>
<trkpt lat="26.360042" lon="98.886903">
<time>2014-08-05T01:08:43Z</time></trkpt>
<trkpt lat="26.360222" lon="98.886883">
<time>2014-08-05T01:08:44Z</time></trkpt>
<trkpt lat="26.360342" lon="98.886873">
<time>2014-08-05T01:08:45Z</time></trkpt>
<trkpt lat="26.361023" lon="98.886843">
<time>2014-08-05T01:08:46Z</time></trkpt>
<trkpt lat="26.361753" lon="98.886803">
<time>2014-08-05T01:08:47Z</time></trkpt>
<trkpt lat="26.362253" lon="98.886783">
<time>2014-08-05T01:08:48Z</time></trkpt>
<trkpt lat="26.362623" lon="98.886773">
<time>2014-08-05T01:08:49Z</time></trkpt>
<trkpt lat="26.363194" lon="98.886772">
<time>2014-08-05T01:08:50Z</time></trkpt>
<trkpt lat="26.364044" lon="98.886802">
<time>2014-08-05T01:08:51Z</time></trkpt>
<trkpt lat="26.364484" lon="98.886812">
<time>2014-08-05T01:08:52Z</time></trkpt>
<trkpt lat="26.364774" lon="98.886862">
<time>2014-08-05T01:08:53Z</time></trkpt>
<trkpt lat="26.365375" lon="98.886932">
<time>2014-08-05T01:08:54Z</time></trkpt>
<trkpt lat="26.365765" lon="98.886952">
<time>2014-08-05T01:08:55Z</time></trkpt>
<trkpt lat="26.366065" lon="98.886972">
<time>2014-08-05T01:08:56Z</time></trkpt>
<trkpt lat="26.366685" lon="98.887002">
<time>2014-08-05T01:08:57Z</time></trkpt>
<trkpt lat="26.367155" lon="98.887072">
<time>2014-08-05T01:08:58Z</time></trkpt>
<trkpt lat="26.367306" lon="98.887112">
<time>2014-08-05T01:08:59Z</time></trkpt>
<trkpt lat="26.367416" lon="98.887162">
<time>2014-08-05T01:09:00Z</time></trkpt>
<trkpt lat="26.367536" lon="98.887232">
<time>2014-08-05T01:09:01Z</time></trkpt>
<trkpt lat="26.367646" lon="98.887312">
<time>2014-08-05T01:09:02Z</time></trkpt>
<trkpt lat="26.367726" lon="98.887422">
<time>2014-08-05T01:09:03Z</time></trkpt>
<trkpt lat="26.367876" lon="98.887602">
<time>2014-08-05T01:09:04Z</time></trkpt>
<trkpt lat="26.368086" lon="98.887792">
<time>2014-08-05T01:09:05Z</time></trkpt>
<trkpt lat="26.368306" lon="98.887902">
<time>2014-08-05T01:09:06Z</time></trkpt>
<trkpt lat="26.368487" lon="98.887992">
<time>2014-08-05T01:09:07Z</time></trkpt>
<trkpt lat="26.368597" lon="98.888082">
<time>2014-08-05T01:09:08Z</time></trkpt>
<trkpt lat="26.368687" lon="98.888172">
<time>2014-08-05T01:09:09Z</time></trkpt>
<trkpt lat="26.368747" lon="98.888272">
<time>2014-08-05T01:09:10Z</time></trkpt>
<trkpt lat="26.368827" lon="98.888392">
<time>2014-08-05T01:09:11Z</time></trkpt>
<trkpt lat="26.368907" lon="98.888492">
<time>2014-08-05T01:09:12Z</time></trkpt>
<trkpt lat="26.368997" lon="98.888602">
<time>2014-08-05T01:09:13Z</time></trkpt>
<trkpt lat="26.369087" lon="98.888702">
<time>2014-08-05T01:09:14Z</time></trkpt>
<trkpt lat="26.369197" lon="98.888792">
<time>2014-08-05T01:09:15Z</time></trkpt>
<trkpt lat="26.369307" lon="98.888882">
<time>2014-08-05T01:09:16Z</time></trkpt>
<trkpt lat="26.369468" lon="98.889002">
<time>2014-08-05T01:09:17Z</time></trkpt>
<trkpt lat="26.369588" lon="98.889082">
<time>2014-08-05T01:09:18Z</time></trkpt>
<trkpt lat="26.369718" lon="98.889172">
<time>2014-08-05T01:09:19Z</time></trkpt>
<trkpt lat="26.369848" lon="98.889282">
<time>2014-08-05T01:09:20Z</time></trkpt>
<trkpt lat="26.369948" lon="98.889422">
<time>2014-08-05T01:09:21Z</time></trkpt>
<trkpt lat="26.370068" lon="98.889602">
<time>2014-08-05T01:09:22Z</time></trkpt>
<trkpt lat="26.370188" lon="98.889752">
<time>2014-08-05T01:09:23Z</time></trkpt>
<trkpt lat="26.370378" lon="98.889912">
<time>2014-08-05T01:09:24Z</time></trkpt>
<trkpt lat="26.370629" lon="98.890112">
<time>2014-08-05T01:09:25Z</time></trkpt>
<trkpt lat="26.370969" lon="98.890372">
<time>2014-08-05T01:09:26Z</time></trkpt>
<trkpt lat="26.371119" lon="98.890482">
<time>2014-08-05T01:09:27Z</time></trkpt>
<trkpt lat="26.371209" lon="98.890542">
<time>2014-08-05T01:09:28Z</time></trkpt>
<trkpt lat="26.371309" lon="98.890592">
<time>2014-08-05T01:09:29Z</time></trkpt>
<trkpt lat="26.371419" lon="98.890632">
<time>2014-08-05T01:09:30Z</time></trkpt>
<trkpt lat="26.371639" lon="98.890711">
<time>2014-08-05T01:09:31Z</time></trkpt>
<trkpt lat="26.371769" lon="98.890771">
<time>2014-08-05T01:09:32Z</time></trkpt>
<trkpt lat="26.37187" lon="98.890831">
<time>2014-08-05T01:09:33Z</time></trkpt>
<trkpt lat="26.37195" lon="98.890901">
<time>2014-08-05T01:09:34Z</time></trkpt>
<trkpt lat="26.37202" lon="98.890981">
<time>2014-08-05T01:09:35Z</time></trkpt>
<trkpt lat="26.37219" lon="98.891211">
<time>2014-08-05T01:09:36Z</time></trkpt>
<trkpt lat="26.37241" lon="98.891461">
<time>2014-08-05T01:09:37Z</time></trkpt>
<trkpt lat="26.37259" lon="98.891611">
<time>2014-08-05T01:09:38Z</time></trkpt>
<trkpt lat="26.3728" lon="98.891761">
<time>2014-08-05T01:09:39Z</time></trkpt>
<trkpt lat="26.37304" lon="98.891901">
<time>2014-08-05T01:09:40Z</time></trkpt>
<trkpt lat="26.373531" lon="98.892211">
<time>2014-08-05T01:09:41Z</time></trkpt>
<trkpt lat="26.375062" lon="98.893141">
<time>2014-08-05T01:09:42Z</time></trkpt>
<trkpt lat="26.375332" lon="98.8933">
<time>2014-08-05T01:09:43Z</time></trkpt>
<trkpt lat="26.375562" lon="98.89346">
<time>2014-08-05T01:09:44Z</time></trkpt>
<trkpt lat="26.375792" lon="98.89357">
<time>2014-08-05T01:09:45Z</time></trkpt>
<trkpt lat="26.375962" lon="98.89363">
<time>2014-08-05T01:09:46Z</time></trkpt>
<trkpt lat="26.376232" lon="98.8937">
<time>2014-08-05T01:09:47Z</time></trkpt>
<trkpt lat="26.376453" lon="98.89375">
<time>2014-08-05T01:09:48Z</time></trkpt>
<trkpt lat="26.376813" lon="98.89385">
<time>2014-08-05T01:09:49Z</time></trkpt>
<trkpt lat="26.377233" lon="98.89398">
<time>2014-08-05T01:09:50Z</time></trkpt>
<trkpt lat="26.377783" lon="98.89415">
<time>2014-08-05T01:09:51Z</time></trkpt>
<trkpt lat="26.377963" lon="98.8942">
<time>2014-08-05T01:09:52Z</time></trkpt>
<trkpt lat="26.378103" lon="98.89425">
<time>2014-08-05T01:09:53Z</time></trkpt>
<trkpt lat="26.378284" lon="98.89433">
<time>2014-08-05T01:09:54Z</time></trkpt>
<trkpt lat="26.378524" lon="98.89445">
<time>2014-08-05T01:09:55Z</time></trkpt>
<trkpt lat="26.378684" lon="98.89456">
<time>2014-08-05T01:09:56Z</time></trkpt>
<trkpt lat="26.378854" lon="98.89466">
<time>2014-08-05T01:09:57Z</time></trkpt>
<trkpt lat="26.379024" lon="98.89474">
<time>2014-08-05T01:09:58Z</time></trkpt>
<trkpt lat="26.379254" lon="98.89483">
<time>2014-08-05T01:09:59Z</time></trkpt>
<trkpt lat="26.379514" lon="98.89492">
<time>2014-08-05T01:10:00Z</time></trkpt>
<trkpt lat="26.379754" lon="98.89499">
<time>2014-08-05T01:10:01Z</time></trkpt>
<trkpt lat="26.380115" lon="98.89504">
<time>2014-08-05T01:10:02Z</time></trkpt>
<trkpt lat="26.380475" lon="98.89507">
<time>2014-08-05T01:10:03Z</time></trkpt>
<trkpt lat="26.380945" lon="98.89517">
<time>2014-08-05T01:10:04Z</time></trkpt>
<trkpt lat="26.381305" lon="98.895249">
<time>2014-08-05T01:10:05Z</time></trkpt>
<trkpt lat="26.381395" lon="98.895269">
<time>2014-08-05T01:10:06Z</time></trkpt>
<trkpt lat="26.381695" lon="98.895339">
<time>2014-08-05T01:10:07Z</time></trkpt>
<trkpt lat="26.381805" lon="98.895359">
<time>2014-08-05T01:10:08Z</time></trkpt>
<trkpt lat="26.381975" lon="98.895389">
<time>2014-08-05T01:10:09Z</time></trkpt>
<trkpt lat="26.382266" lon="98.895389">
<time>2014-08-05T01:10:10Z</time></trkpt>
<trkpt lat="26.382436" lon="98.895379">
<time>2014-08-05T01:10:11Z</time></trkpt>
<trkpt lat="26.382596" lon="98.895369">
<time>2014-08-05T01:10:12Z</time></trkpt>
<trkpt lat="26.382706" lon="98.895359">
<time>2014-08-05T01:10:13Z</time></trkpt>
<trkpt lat="26.382946" lon="98.895349">
<time>2014-08-05T01:10:14Z</time></trkpt>
<trkpt lat="26.383076" lon="98.895349">
<time>2014-08-05T01:10:15Z</time></trkpt>
<trkpt lat="26.383336" lon="98.895399">
<time>2014-08-05T01:10:16Z</time></trkpt>
<trkpt lat="26.383616" lon="98.895449">
<time>2014-08-05T01:10:17Z</time></trkpt>
<trkpt lat="26.383796" lon="98.895489">
<time>2014-08-05T01:10:18Z</time></trkpt>
<trkpt lat="26.384006" lon="98.895529">
<time>2014-08-05T01:10:19Z</time></trkpt>
<trkpt lat="26.384146" lon="98.895549">
<time>2014-08-05T01:10:20Z</time></trkpt>
<trkpt lat="26.384687" lon="98.895559">
<time>2014-08-05T01:10:21Z</time></trkpt>
<trkpt lat="26.384967" lon="98.895539">
<time>2014-08-05T01:10:22Z</time></trkpt>
<trkpt lat="26.385187" lon="98.895519">
<time>2014-08-05T01:10:23Z</time></trkpt>
<trkpt lat="26.385367" lon="98.895509">
<time>2014-08-05T01:10:24Z</time></trkpt>
<trkpt lat="26.385497" lon="98.895489">
<time>2014-08-05T01:10:25Z</time></trkpt>
<trkpt lat="26.385667" lon="98.895489">
<time>2014-08-05T01:10:26Z</time></trkpt>
<trkpt lat="26.385787" lon="98.895489">
<time>2014-08-05T01:10:27Z</time></trkpt>
<trkpt lat="26.385857" lon="98.895489">
<time>2014-08-05T01:10:28Z</time></trkpt>
<trkpt lat="26.385917" lon="98.895499">
<time>2014-08-05T01:10:29Z</time></trkpt>
<trkpt lat="26.385977" lon="98.895509">
<time>2014-08-05T01:10:30Z</time></trkpt>
<trkpt lat="26.386037" lon="98.895519">
<time>2014-08-05T01:10:31Z</time></trkpt>
<trkpt lat="26.386087" lon="98.895539">
<time>2014-08-05T01:10:32Z</time></trkpt>
<trkpt lat="26.386227" lon="98.895589">
<time>2014-08-05T01:10:33Z</time></trkpt>
<trkpt lat="26.387208" lon="98.895919">
<time>2014-08-05T01:10:34Z</time></trkpt>
<trkpt lat="26.387408" lon="98.895989">
<time>2014-08-05T01:10:35Z</time></trkpt>
<trkpt lat="26.387568" lon="98.896039">
<time>2014-08-05T01:10:36Z</time></trkpt>
<trkpt lat="26.387618" lon="98.896059">
<time>2014-08-05T01:10:37Z</time></trkpt>
<trkpt lat="26.388198" lon="98.896259">
<time>2014-08-05T01:10:38Z</time></trkpt>
<trkpt lat="26.388458" lon="98.896339">
<time>2014-08-05T01:10:39Z</time></trkpt>
<trkpt lat="26.388658" lon="98.896399">
<time>2014-08-05T01:10:40Z</time></trkpt>
<trkpt lat="26.388808" lon="98.896469">
<time>2014-08-05T01:10:41Z</time></trkpt>
<trkpt lat="26.389049" lon="98.896549">
<time>2014-08-05T01:10:42Z</time></trkpt>
<trkpt lat="26.390039" lon="98.896888">
<time>2014-08-05T01:10:43Z</time></trkpt>
<trkpt lat="26.390069" lon="98.896908">
<time>2014-08-05T01:10:44Z</time></trkpt>
<trkpt lat="26.390169" lon="98.896928">
<time>2014-08-05T01:10:45Z</time></trkpt>
<trkpt lat="26.390389" lon="98.896988">
<time>2014-08-05T01:10:46Z</time></trkpt>
<trkpt lat="26.390589" lon="98.897048">
<time>2014-08-05T01:10:47Z</time></trkpt>
<trkpt lat="26.390819" lon="98.897128">
<time>2014-08-05T01:10:48Z</time></trkpt>
<trkpt lat="26.390939" lon="98.897168">
<time>2014-08-05T01:10:49Z</time></trkpt>
<trkpt lat="26.39102" lon="98.897198">
<time>2014-08-05T01:10:50Z</time></trkpt>
<trkpt lat="26.39113" lon="98.897238">
<time>2014-08-05T01:10:51Z</time></trkpt>
<trkpt lat="26.39126" lon="98.897278">
<time>2014-08-05T01:10:52Z</time></trkpt>
<trkpt lat="26.39144" lon="98.897328">
<time>2014-08-05T01:10:53Z</time></trkpt>
<trkpt lat="26.39151" lon="98.897338">
<time>2014-08-05T01:10:54Z</time></trkpt>
<trkpt lat="26.39157" lon="98.897348">
<time>2014-08-05T01:10:55Z</time></trkpt>
<trkpt lat="26.39164" lon="98.897358">
<time>2014-08-05T01:10:56Z</time></trkpt>
<trkpt lat="26.39181" lon="98.897348">
<time>2014-08-05T01:10:57Z</time></trkpt>
<trkpt lat="26.39204" lon="98.897328">
<time>2014-08-05T01:10:58Z</time></trkpt>
<trkpt lat="26.39226" lon="98.897318">
<time>2014-08-05T01:10:59Z</time></trkpt>
<trkpt lat="26.39238" lon="98.897308">
<time>2014-08-05T01:11:00Z</time></trkpt>
<trkpt lat="26.3925" lon="98.897298">
<time>2014-08-05T01:11:01Z</time></trkpt>
<trkpt lat="26.3926" lon="98.897278">
<time>2014-08-05T01:11:02Z</time></trkpt>
<trkpt lat="26.3927" lon="98.897258">
<time>2014-08-05T01:11:03Z</time></trkpt>
<trkpt lat="26.39282" lon="98.897218">
<time>2014-08-05T01:11:04Z</time></trkpt>
<trkpt lat="26.393" lon="98.897148">
<time>2014-08-05T01:11:05Z</time></trkpt>
<trkpt lat="26.3931" lon="98.897108">
<time>2014-08-05T01:11:06Z</time></trkpt>
<trkpt lat="26.39331" lon="98.897028">
<time>2014-08-05T01:11:07Z</time></trkpt>
<trkpt lat="26.39344" lon="98.896978">
<time>2014-08-05T01:11:08Z</time></trkpt>
<trkpt lat="26.393521" lon="98.896958">
<time>2014-08-05T01:11:09Z</time></trkpt>
<trkpt lat="26.393631" lon="98.896928">
<time>2014-08-05T01:11:10Z</time></trkpt>
<trkpt lat="26.393741" lon="98.896908">
<time>2014-08-05T01:11:11Z</time></trkpt>
<trkpt lat="26.393871" lon="98.896888">
<time>2014-08-05T01:11:12Z</time></trkpt>
<trkpt lat="26.394101" lon="98.896828">
<time>2014-08-05T01:11:13Z</time></trkpt>
<trkpt lat="26.394211" lon="98.896798">
<time>2014-08-05T01:11:14Z</time></trkpt>
<trkpt lat="26.394321" lon="98.896758">
<time>2014-08-05T01:11:15Z</time></trkpt>
<trkpt lat="26.394431" lon="98.896728">
<time>2014-08-05T01:11:16Z</time></trkpt>
<trkpt lat="26.394681" lon="98.896638">
<time>2014-08-05T01:11:17Z</time></trkpt>
<trkpt lat="26.394891" lon="98.896549">
<time>2014-08-05T01:11:18Z</time></trkpt>
<trkpt lat="26.395011" lon="98.896499">
<time>2014-08-05T01:11:19Z</time></trkpt>
<trkpt lat="26.395141" lon="98.896459">
<time>2014-08-05T01:11:20Z</time></trkpt>
<trkpt lat="26.395231" lon="98.896429">
<time>2014-08-05T01:11:21Z</time></trkpt>
<trkpt lat="26.395341" lon="98.896399">
<time>2014-08-05T01:11:22Z</time></trkpt>
<trkpt lat="26.395471" lon="98.896379">
<time>2014-08-05T01:11:23Z</time></trkpt>
<trkpt lat="26.395611" lon="98.896349">
<time>2014-08-05T01:11:24Z</time></trkpt>
<trkpt lat="26.395731" lon="98.896319">
<time>2014-08-05T01:11:25Z</time></trkpt>
<trkpt lat="26.395841" lon="98.896289">
<time>2014-08-05T01:11:26Z</time></trkpt>
<trkpt lat="26.395931" lon="98.896269">
<time>2014-08-05T01:11:27Z</time></trkpt>
<trkpt lat="26.396041" lon="98.896249">
<time>2014-08-05T01:11:28Z</time></trkpt>
<trkpt lat="26.396101" lon="98.896229">
<time>2014-08-05T01:11:29Z</time></trkpt>
<trkpt lat="26.396171" lon="98.896209">
<time>2014-08-05T01:11:30Z</time></trkpt>
<trkpt lat="26.396271" lon="98.896179">
<time>2014-08-05T01:11:31Z</time></trkpt>
<trkpt lat="26.396381" lon="98.896149">
<time>2014-08-05T01:11:32Z</time></trkpt>
<trkpt lat="26.396411" lon="98.896139">
<time>2014-08-05T01:11:33Z</time></trkpt>
<trkpt lat="26.396441" lon="98.896129">
<time>2014-08-05T01:11:34Z</time></trkpt>
<trkpt lat="26.396522" lon="98.896099">
<time>2014-08-05T01:11:35Z</time></trkpt>
<trkpt lat="26.396572" lon="98.896079">
<time>2014-08-05T01:11:36Z</time></trkpt>
<trkpt lat="26.396702" lon="98.896039">
<time>2014-08-05T01:11:37Z</time></trkpt>
<trkpt lat="26.396762" lon="98.896019">
<time>2014-08-05T01:11:38Z</time></trkpt>
<trkpt lat="26.396842" lon="98.895989">
<time>2014-08-05T01:11:39Z</time></trkpt>
<trkpt lat="26.396962" lon="98.895949">
<time>2014-08-05T01:11:40Z</time></trkpt>
<trkpt lat="26.397122" lon="98.895889">
<time>2014-08-05T01:11:41Z</time></trkpt>
<trkpt lat="26.397202" lon="98.895869">
<time>2014-08-05T01:11:42Z</time></trkpt>
<trkpt lat="26.397262" lon="98.895849">
<time>2014-08-05T01:11:43Z</time></trkpt>
<trkpt lat="26.397472" lon="98.895789">
<time>2014-08-05T01:11:44Z</time></trkpt>
<trkpt lat="26.397832" lon="98.895689">
<time>2014-08-05T01:11:45Z</time></trkpt>
<trkpt lat="26.398052" lon="98.895629">
<time>2014-08-05T01:11:46Z</time></trkpt>
<trkpt lat="26.398242" lon="98.895579">
<time>2014-08-05T01:11:47Z</time></trkpt>
<trkpt lat="26.398472" lon="98.895539">
<time>2014-08-05T01:11:48Z</time></trkpt>
<trkpt lat="26.398592" lon="98.895519">
<time>2014-08-05T01:11:49Z</time></trkpt>
<trkpt lat="26.398902" lon="98.895469">
<time>2014-08-05T01:11:50Z</time></trkpt>
<trkpt lat="26.399132" lon="98.895449">
<time>2014-08-05T01:11:51Z</time></trkpt>
<trkpt lat="26.399382" lon="98.895429">
<time>2014-08-05T01:11:52Z</time></trkpt>
<trkpt lat="26.399823" lon="98.895399">
<time>2014-08-05T01:11:53Z</time></trkpt>
<trkpt lat="26.400253" lon="98.895379">
<time>2014-08-05T01:11:54Z</time></trkpt>
<trkpt lat="26.400483" lon="98.895379">
<time>2014-08-05T01:11:55Z</time></trkpt>
<trkpt lat="26.400643" lon="98.895399">
<time>2014-08-05T01:11:56Z</time></trkpt>
<trkpt lat="26.400873" lon="98.895419">
<time>2014-08-05T01:11:57Z</time></trkpt>
<trkpt lat="26.401003" lon="98.895429">
<time>2014-08-05T01:11:58Z</time></trkpt>
<trkpt lat="26.401143" lon="98.895409">
<time>2014-08-05T01:11:59Z</time></trkpt>
<trkpt lat="26.401363" lon="98.895379">
<time>2014-08-05T01:12:00Z</time></trkpt>
<trkpt lat="26.401613" lon="98.895319">
<time>2014-08-05T01:12:01Z</time></trkpt>
<trkpt lat="26.401753" lon="98.895289">
<time>2014-08-05T01:12:02Z</time></trkpt>
<trkpt lat="26.401963" lon="98.895279">
<time>2014-08-05T01:12:03Z</time></trkpt>
<trkpt lat="26.402494" lon="98.895299">
<time>2014-08-05T01:12:04Z</time></trkpt>
<trkpt lat="26.402834" lon="98.895319">
<time>2014-08-05T01:12:05Z</time></trkpt>
<trkpt lat="26.402964" lon="98.895329">
<time>2014-08-05T01:12:06Z</time></trkpt>
<trkpt lat="26.403124" lon="98.895349">
<time>2014-08-05T01:12:07Z</time></trkpt>
<trkpt lat="26.403354" lon="98.895409">
<time>2014-08-05T01:12:08Z</time></trkpt>
<trkpt lat="26.403514" lon="98.895469">
<time>2014-08-05T01:12:09Z</time></trkpt>
<trkpt lat="26.403814" lon="98.895549">
<time>2014-08-05T01:12:10Z</time></trkpt>
<trkpt lat="26.404064" lon="98.895619">
<time>2014-08-05T01:12:11Z</time></trkpt>
<trkpt lat="26.404274" lon="98.895679">
<time>2014-08-05T01:12:12Z</time></trkpt>
<trkpt lat="26.404535" lon="98.895749">
<time>2014-08-05T01:12:13Z</time></trkpt>
<trkpt lat="26.404625" lon="98.895779">
<time>2014-08-05T01:12:14Z</time></trkpt>
<trkpt lat="26.404955" lon="98.895879">
<time>2014-08-05T01:12:15Z</time></trkpt>
<trkpt lat="26.405195" lon="98.895949">
<time>2014-08-05T01:12:16Z</time></trkpt>
<trkpt lat="26.405425" lon="98.896019">
<time>2014-08-05T01:12:17Z</time></trkpt>
<trkpt lat="26.405625" lon="98.896079">
<time>2014-08-05T01:12:18Z</time></trkpt>
<trkpt lat="26.405885" lon="98.896149">
<time>2014-08-05T01:12:19Z</time></trkpt>
<trkpt lat="26.406095" lon="98.896209">
<time>2014-08-05T01:12:20Z</time></trkpt>
<trkpt lat="26.406295" lon="98.896268">
<time>2014-08-05T01:12:21Z</time></trkpt>
<trkpt lat="26.406505" lon="98.896328">
<time>2014-08-05T01:12:22Z</time></trkpt>
<trkpt lat="26.406746" lon="98.896398">
<time>2014-08-05T01:12:23Z</time></trkpt>
<trkpt lat="26.406976" lon="98.896468">
<time>2014-08-05T01:12:24Z</time></trkpt>
<trkpt lat="26.407226" lon="98.896538">
<time>2014-08-05T01:12:25Z</time></trkpt>
<trkpt lat="26.407316" lon="98.896558">
<time>2014-08-05T01:12:26Z</time></trkpt>
<trkpt lat="26.407416" lon="98.896568">
<time>2014-08-05T01:12:27Z</time></trkpt>
<trkpt lat="26.407506" lon="98.896568">
<time>2014-08-05T01:12:28Z</time></trkpt>
<trkpt lat="26.407596" lon="98.896558">
<time>2014-08-05T01:12:29Z</time></trkpt>
<trkpt lat="26.407666" lon="98.896538">
<time>2014-08-05T01:12:30Z</time></trkpt>
<trkpt lat="26.407726" lon="98.896518">
<time>2014-08-05T01:12:31Z</time></trkpt>
<trkpt lat="26.407796" lon="98.896488">
<time>2014-08-05T01:12:32Z</time></trkpt>
<trkpt lat="26.407926" lon="98.896418">
<time>2014-08-05T01:12:33Z</time></trkpt>
<trkpt lat="26.408096" lon="98.896298">
<time>2014-08-05T01:12:34Z</time></trkpt>
<trkpt lat="26.408106" lon="98.896288">
<time>2014-08-05T01:12:35Z</time></trkpt>
<trkpt lat="26.408176" lon="98.896238">
<time>2014-08-05T01:12:36Z</time></trkpt>
<trkpt lat="26.408276" lon="98.896188">
<time>2014-08-05T01:12:37Z</time></trkpt>
<trkpt lat="26.408336" lon="98.896149">
<time>2014-08-05T01:12:38Z</time></trkpt>
<trkpt lat="26.408366" lon="98.896139">
<time>2014-08-05T01:12:39Z</time></trkpt>
<trkpt lat="26.408416" lon="98.896139">
<time>2014-08-05T01:12:40Z</time></trkpt>
<trkpt lat="26.408446" lon="98.896139">
<time>2014-08-05T01:12:41Z</time></trkpt>
<trkpt lat="26.408516" lon="98.896139">
<time>2014-08-05T01:12:42Z</time></trkpt>
<trkpt lat="26.408566" lon="98.896148">
<time>2014-08-05T01:12:43Z</time></trkpt>
<trkpt lat="26.408636" lon="98.896168">
<time>2014-08-05T01:12:44Z</time></trkpt>
<trkpt lat="26.408766" lon="98.896208">
<time>2014-08-05T01:12:45Z</time></trkpt>
<trkpt lat="26.408906" lon="98.896268">
<time>2014-08-05T01:12:46Z</time></trkpt>
<trkpt lat="26.409046" lon="98.896318">
<time>2014-08-05T01:12:47Z</time></trkpt>
<trkpt lat="26.409197" lon="98.896378">
<time>2014-08-05T01:12:48Z</time></trkpt>
<trkpt lat="26.409317" lon="98.896428">
<time>2014-08-05T01:12:49Z</time></trkpt>
<trkpt lat="26.409487" lon="98.896478">
<time>2014-08-05T01:12:50Z</time></trkpt>
<trkpt lat="26.409697" lon="98.896488">
<time>2014-08-05T01:12:51Z</time></trkpt>
<trkpt lat="26.409837" lon="98.896488">
<time>2014-08-05T01:12:52Z</time></trkpt>
<trkpt lat="26.410047" lon="98.896458">
<time>2014-08-05T01:12:53Z</time></trkpt>
<trkpt lat="26.410487" lon="98.896408">
<time>2014-08-05T01:12:54Z</time></trkpt>
<trkpt lat="26.410617" lon="98.896408">
<time>2014-08-05T01:12:55Z</time></trkpt>
<trkpt lat="26.410737" lon="98.896408">
<time>2014-08-05T01:12:56Z</time></trkpt>
<trkpt lat="26.410857" lon="98.896428">
<time>2014-08-05T01:12:57Z</time></trkpt>
<trkpt lat="26.410997" lon="98.896468">
<time>2014-08-05T01:12:58Z</time></trkpt>
<trkpt lat="26.411107" lon="98.896518">
<time>2014-08-05T01:12:59Z</time></trkpt>
<trkpt lat="26.411257" lon="98.896598">
<time>2014-08-05T01:13:00Z</time></trkpt>
<trkpt lat="26.411708" lon="98.896918">
<time>2014-08-05T01:13:01Z</time></trkpt>
<trkpt lat="26.411918" lon="98.897028">
<time>2014-08-05T01:13:02Z</time></trkpt>
<trkpt lat="26.412178" lon="98.897128">
<time>2014-08-05T01:13:03Z</time></trkpt>
<trkpt lat="26.412318" lon="98.897178">
<time>2014-08-05T01:13:04Z</time></trkpt>
<trkpt lat="26.412378" lon="98.897208">
<time>2014-08-05T01:13:05Z</time></trkpt>
<trkpt lat="26.412448" lon="98.897228">
<time>2014-08-05T01:13:06Z</time></trkpt>
<trkpt lat="26.412528" lon="98.897278">
<time>2014-08-05T01:13:07Z</time></trkpt>
<trkpt lat="26.412628" lon="98.897318">
<time>2014-08-05T01:13:08Z</time></trkpt>
<trkpt lat="26.412808" lon="98.897378">
<time>2014-08-05T01:13:09Z</time></trkpt>
<trkpt lat="26.413068" lon="98.897498">
<time>2014-08-05T01:13:10Z</time></trkpt>
<trkpt lat="26.413258" lon="98.897568">
<time>2014-08-05T01:13:11Z</time></trkpt>
<trkpt lat="26.413498" lon="98.897668">
<time>2014-08-05T01:13:12Z</time></trkpt>
<trkpt lat="26.413678" lon="98.897727">
<time>2014-08-05T01:13:13Z</time></trkpt>
<trkpt lat="26.413829" lon="98.897787">
<time>2014-08-05T01:13:14Z</time></trkpt>
<trkpt lat="26.414049" lon="98.897887">
<time>2014-08-05T01:13:15Z</time></trkpt>
<trkpt lat="26.414159" lon="98.897957">
<time>2014-08-05T01:13:16Z</time></trkpt>
<trkpt lat="26.414509" lon="98.898207">
<time>2014-08-05T01:13:17Z</time></trkpt>
<trkpt lat="26.415009" lon="98.898497">
<time>2014-08-05T01:13:18Z</time></trkpt>
<trkpt lat="26.415309" lon="98.898667">
<time>2014-08-05T01:13:19Z</time></trkpt>
<trkpt lat="26.415589" lon="98.898787">
<time>2014-08-05T01:13:20Z</time></trkpt>
<trkpt lat="26.415919" lon="98.898927">
<time>2014-08-05T01:13:21Z</time></trkpt>
<trkpt lat="26.41648" lon="98.899116">
<time>2014-08-05T01:13:22Z</time></trkpt>
<trkpt lat="26.4167" lon="98.899206">
<time>2014-08-05T01:13:23Z</time></trkpt>
<trkpt lat="26.41687" lon="98.899266">
<time>2014-08-05T01:13:24Z</time></trkpt>
<trkpt lat="26.417" lon="98.899306">
<time>2014-08-05T01:13:25Z</time></trkpt>
<trkpt lat="26.41715" lon="98.899336">
<time>2014-08-05T01:13:26Z</time></trkpt>
<trkpt lat="26.41726" lon="98.899356">
<time>2014-08-05T01:13:27Z</time></trkpt>
<trkpt lat="26.41734" lon="98.899366">
<time>2014-08-05T01:13:28Z</time></trkpt>
<trkpt lat="26.41753" lon="98.899366">
<time>2014-08-05T01:13:29Z</time></trkpt>
<trkpt lat="26.41779" lon="98.899366">
<time>2014-08-05T01:13:30Z</time></trkpt>
<trkpt lat="26.41802" lon="98.899366">
<time>2014-08-05T01:13:31Z</time></trkpt>
<trkpt lat="26.41833" lon="98.899396">
<time>2014-08-05T01:13:32Z</time></trkpt>
<trkpt lat="26.418521" lon="98.899436">
<time>2014-08-05T01:13:33Z</time></trkpt>
<trkpt lat="26.418701" lon="98.899496">
<time>2014-08-05T01:13:34Z</time></trkpt>
<trkpt lat="26.418871" lon="98.899556">
<time>2014-08-05T01:13:35Z</time></trkpt>
<trkpt lat="26.418921" lon="98.899566">
<time>2014-08-05T01:13:36Z</time></trkpt>
<trkpt lat="26.418971" lon="98.899576">
<time>2014-08-05T01:13:37Z</time></trkpt>
<trkpt lat="26.419021" lon="98.899586">
<time>2014-08-05T01:13:38Z</time></trkpt>
<trkpt lat="26.419121" lon="98.899596">
<time>2014-08-05T01:13:39Z</time></trkpt>
<trkpt lat="26.419191" lon="98.899596">
<time>2014-08-05T01:13:40Z</time></trkpt>
<trkpt lat="26.419241" lon="98.899596">
<time>2014-08-05T01:13:41Z</time></trkpt>
<trkpt lat="26.419311" lon="98.899586">
<time>2014-08-05T01:13:42Z</time></trkpt>
<trkpt lat="26.419481" lon="98.899566">
<time>2014-08-05T01:13:43Z</time></trkpt>
<trkpt lat="26.419591" lon="98.899556">
<time>2014-08-05T01:13:44Z</time></trkpt>
<trkpt lat="26.419731" lon="98.899536">
<time>2014-08-05T01:13:45Z</time></trkpt>
<trkpt lat="26.419861" lon="98.899526">
<time>2014-08-05T01:13:46Z</time></trkpt>
<trkpt lat="26.419951" lon="98.899526">
<time>2014-08-05T01:13:47Z</time></trkpt>
<trkpt lat="26.420061" lon="98.899526">
<time>2014-08-05T01:13:48Z</time></trkpt>
<trkpt lat="26.420161" lon="98.899536">
<time>2014-08-05T01:13:49Z</time></trkpt>
<trkpt lat="26.420271" lon="98.899546">
<time>2014-08-05T01:13:50Z</time></trkpt>
<trkpt lat="26.420371" lon="98.899556">
<time>2014-08-05T01:13:51Z</time></trkpt>
<trkpt lat="26.420471" lon="98.899576">
<time>2014-08-05T01:13:52Z</time></trkpt>
<trkpt lat="26.420711" lon="98.899636">
<time>2014-08-05T01:13:53Z</time></trkpt>
<trkpt lat="26.420801" lon="98.899646">
<time>2014-08-05T01:13:54Z</time></trkpt>
<trkpt lat="26.420851" lon="98.899656">
<time>2014-08-05T01:13:55Z</time></trkpt>
<trkpt lat="26.420901" lon="98.899656">
<time>2014-08-05T01:13:56Z</time></trkpt>
<trkpt lat="26.420941" lon="98.899656">
<time>2014-08-05T01:13:57Z</time></trkpt>
<trkpt lat="26.421001" lon="98.899656">
<time>2014-08-05T01:13:58Z</time></trkpt>
<trkpt lat="26.421081" lon="98.899646">
<time>2014-08-05T01:13:59Z</time></trkpt>
<trkpt lat="26.421161" lon="98.899636">
<time>2014-08-05T01:14:00Z</time></trkpt>
<trkpt lat="26.421282" lon="98.899606">
<time>2014-08-05T01:14:01Z</time></trkpt>
<trkpt lat="26.421362" lon="98.899596">
<time>2014-08-05T01:14:02Z</time></trkpt>
<trkpt lat="26.421452" lon="98.899566">
<time>2014-08-05T01:14:03Z</time></trkpt>
<trkpt lat="26.421512" lon="98.899546">
<time>2014-08-05T01:14:04Z</time></trkpt>
<trkpt lat="26.421592" lon="98.899516">
<time>2014-08-05T01:14:05Z</time></trkpt>
<trkpt lat="26.421652" lon="98.899496">
<time>2014-08-05T01:14:06Z</time></trkpt>
<trkpt lat="26.421712" lon="98.899466">
<time>2014-08-05T01:14:07Z</time></trkpt>
<trkpt lat="26.421792" lon="98.899416">
<time>2014-08-05T01:14:08Z</time></trkpt>
<trkpt lat="26.421912" lon="98.899336">
<time>2014-08-05T01:14:09Z</time></trkpt>
<trkpt lat="26.422012" lon="98.899266">
<time>2014-08-05T01:14:10Z</time></trkpt>
<trkpt lat="26.422142" lon="98.899166">
<time>2014-08-05T01:14:11Z</time></trkpt>
<trkpt lat="26.422222" lon="98.899106">
<time>2014-08-05T01:14:12Z</time></trkpt>
<trkpt lat="26.422312" lon="98.899046">
<time>2014-08-05T01:14:13Z</time></trkpt>
<trkpt lat="26.422382" lon="98.899006">
<time>2014-08-05T01:14:14Z</time></trkpt>
<trkpt lat="26.422472" lon="98.898966">
<time>2014-08-05T01:14:15Z</time></trkpt>
<trkpt lat="26.422512" lon="98.898956">
<time>2014-08-05T01:14:16Z</time></trkpt>
<trkpt lat="26.422542" lon="98.898946">
<time>2014-08-05T01:14:17Z</time></trkpt>
<trkpt lat="26.422602" lon="98.898936">
<time>2014-08-05T01:14:18Z</time></trkpt>
<trkpt lat="26.422692" lon="98.898917">
<time>2014-08-05T01:14:19Z</time></trkpt>
<trkpt lat="26.422862" lon="98.898897">
<time>2014-08-05T01:14:20Z</time></trkpt>
<trkpt lat="26.422962" lon="98.898887">
<time>2014-08-05T01:14:21Z</time></trkpt>
<trkpt lat="26.423082" lon="98.898857">
<time>2014-08-05T01:14:22Z</time></trkpt>
<trkpt lat="26.423162" lon="98.898827">
<time>2014-08-05T01:14:23Z</time></trkpt>
<trkpt lat="26.423212" lon="98.898807">
<time>2014-08-05T01:14:24Z</time></trkpt>
<trkpt lat="26.423272" lon="98.898777">
<time>2014-08-05T01:14:25Z</time></trkpt>
<trkpt lat="26.423422" lon="98.898687">
<time>2014-08-05T01:14:26Z</time></trkpt>
<trkpt lat="26.423502" lon="98.898647">
<time>2014-08-05T01:14:27Z</time></trkpt>
<trkpt lat="26.423632" lon="98.898557">
<time>2014-08-05T01:14:28Z</time></trkpt>
<trkpt lat="26.423862" lon="98.898427">
<time>2014-08-05T01:14:29Z</time></trkpt>
<trkpt lat="26.423942" lon="98.898387">
<time>2014-08-05T01:14:30Z</time></trkpt>
<trkpt lat="26.424012" lon="98.898337">
<time>2014-08-05T01:14:31Z</time></trkpt>
<trkpt lat="26.424072" lon="98.898277">
<time>2014-08-05T01:14:32Z</time></trkpt>
<trkpt lat="26.424112" lon="98.898237">
<time>2014-08-05T01:14:33Z</time></trkpt>
<trkpt lat="26.424162" lon="98.898187">
<time>2014-08-05T01:14:34Z</time></trkpt>
<trkpt lat="26.424202" lon="98.898127">
<time>2014-08-05T01:14:35Z</time></trkpt>
<trkpt lat="26.424352" lon="98.897897">
<time>2014-08-05T01:14:36Z</time></trkpt>
<trkpt lat="26.424542" lon="98.897597">
<time>2014-08-05T01:14:37Z</time></trkpt>
<trkpt lat="26.424712" lon="98.897367">
<time>2014-08-05T01:14:38Z</time></trkpt>
<trkpt lat="26.424773" lon="98.897308">
<time>2014-08-05T01:14:39Z</time></trkpt>
<trkpt lat="26.424953" lon="98.897098">
<time>2014-08-05T01:14:40Z</time></trkpt>
<trkpt lat="26.425253" lon="98.896808">
<time>2014-08-05T01:14:41Z</time></trkpt>
<trkpt lat="26.425343" lon="98.896728">
<time>2014-08-05T01:14:42Z</time></trkpt>
<trkpt lat="26.425533" lon="98.896568">
<time>2014-08-05T01:14:43Z</time></trkpt>
<trkpt lat="26.425603" lon="98.896518">
<time>2014-08-05T01:14:44Z</time></trkpt>
<trkpt lat="26.425903" lon="98.896268">
<time>2014-08-05T01:14:45Z</time></trkpt>
<trkpt lat="26.425983" lon="98.896198">
<time>2014-08-05T01:14:46Z</time></trkpt>
<trkpt lat="26.426033" lon="98.896148">
<time>2014-08-05T01:14:47Z</time></trkpt>
<trkpt lat="26.426083" lon="98.896088">
<time>2014-08-05T01:14:48Z</time></trkpt>
<trkpt lat="26.426163" lon="98.895998">
<time>2014-08-05T01:14:49Z</time></trkpt>
<trkpt lat="26.426373" lon="98.895708">
<time>2014-08-05T01:14:50Z</time></trkpt>
<trkpt lat="26.426703" lon="98.895279">
<time>2014-08-05T01:14:51Z</time></trkpt>
<trkpt lat="26.426713" lon="98.895279">
<time>2014-08-05T01:14:52Z</time></trkpt>
<trkpt lat="26.426913" lon="98.895029">
<time>2014-08-05T01:14:53Z</time></trkpt>
<trkpt lat="26.426973" lon="98.894949">
<time>2014-08-05T01:14:54Z</time></trkpt>
<trkpt lat="26.427033" lon="98.894889">
<time>2014-08-05T01:14:55Z</time></trkpt>
<trkpt lat="26.427263" lon="98.894659">
<time>2014-08-05T01:14:56Z</time></trkpt>
<trkpt lat="26.427503" lon="98.894429">
<time>2014-08-05T01:14:57Z</time></trkpt>
<trkpt lat="26.427573" lon="98.894369">
<time>2014-08-05T01:14:58Z</time></trkpt>
<trkpt lat="26.427693" lon="98.894259">
<time>2014-08-05T01:14:59Z</time></trkpt>
<trkpt lat="26.427773" lon="98.894189">
<time>2014-08-05T01:15:00Z</time></trkpt>
<trkpt lat="26.427853" lon="98.894099">
<time>2014-08-05T01:15:01Z</time></trkpt>
<trkpt lat="26.428023" lon="98.893959">
<time>2014-08-05T01:15:02Z</time></trkpt>
<trkpt lat="26.428233" lon="98.893739">
<time>2014-08-05T01:15:03Z</time></trkpt>
<trkpt lat="26.428453" lon="98.893539">
<time>2014-08-05T01:15:04Z</time></trkpt>
<trkpt lat="26.428563" lon="98.89343">
<time>2014-08-05T01:15:05Z</time></trkpt>
<trkpt lat="26.428713" lon="98.89329">
<time>2014-08-05T01:15:06Z</time></trkpt>
<trkpt lat="26.428943" lon="98.89306">
<time>2014-08-05T01:15:07Z</time></trkpt>
<trkpt lat="26.429393" lon="98.89258">
<time>2014-08-05T01:15:08Z</time></trkpt>
<trkpt lat="26.429503" lon="98.89248">
<time>2014-08-05T01:15:09Z</time></trkpt>
<trkpt lat="26.429563" lon="98.89243">
<time>2014-08-05T01:15:10Z</time></trkpt>
<trkpt lat="26.429643" lon="98.89238">
<time>2014-08-05T01:15:11Z</time></trkpt>
<trkpt lat="26.429723" lon="98.89233">
<time>2014-08-05T01:15:12Z</time></trkpt>
<trkpt lat="26.429833" lon="98.89228">
<time>2014-08-05T01:15:13Z</time></trkpt>
<trkpt lat="26.430033" lon="98.89222">
<time>2014-08-05T01:15:14Z</time></trkpt>
<trkpt lat="26.430613" lon="98.89205">
<time>2014-08-05T01:15:15Z</time></trkpt>
<trkpt lat="26.430773" lon="98.89201">
<time>2014-08-05T01:15:16Z</time></trkpt>
<trkpt lat="26.430863" lon="98.892">
<time>2014-08-05T01:15:17Z</time></trkpt>
<trkpt lat="26.430963" lon="98.89199">
<time>2014-08-05T01:15:18Z</time></trkpt>
<trkpt lat="26.431003" lon="98.89199">
<time>2014-08-05T01:15:19Z</time></trkpt>
<trkpt lat="26.431053" lon="98.89199">
<time>2014-08-05T01:15:20Z</time></trkpt>
<trkpt lat="26.431103" lon="98.89201">
<time>2014-08-05T01:15:21Z</time></trkpt>
<trkpt lat="26.431203" lon="98.89203">
<time>2014-08-05T01:15:22Z</time></trkpt>
<trkpt lat="26.431383" lon="98.89207">
<time>2014-08-05T01:15:23Z</time></trkpt>
<trkpt lat="26.431483" lon="98.89208">
<time>2014-08-05T01:15:24Z</time></trkpt>
<trkpt lat="26.431573" lon="98.89208">
<time>2014-08-05T01:15:25Z</time></trkpt>
<trkpt lat="26.431643" lon="98.89207">
<time>2014-08-05T01:15:26Z</time></trkpt>
<trkpt lat="26.431713" lon="98.89205">
<time>2014-08-05T01:15:27Z</time></trkpt>
<trkpt lat="26.431773" lon="98.89202">
<time>2014-08-05T01:15:28Z</time></trkpt>
<trkpt lat="26.431823" lon="98.892">
<time>2014-08-05T01:15:29Z</time></trkpt>
<trkpt lat="26.431963" lon="98.89192">
<time>2014-08-05T01:15:30Z</time></trkpt>
<trkpt lat="26.432284" lon="98.89171">
<time>2014-08-05T01:15:31Z</time></trkpt>
<trkpt lat="26.432464" lon="98.89158">
<time>2014-08-05T01:15:32Z</time></trkpt>
<trkpt lat="26.432564" lon="98.89151">
<time>2014-08-05T01:15:33Z</time></trkpt>
<trkpt lat="26.432604" lon="98.89149">
<time>2014-08-05T01:15:34Z</time></trkpt>
<trkpt lat="26.432634" lon="98.89148">
<time>2014-08-05T01:15:35Z</time></trkpt>
<trkpt lat="26.432664" lon="98.89148">
<time>2014-08-05T01:15:36Z</time></trkpt>
<trkpt lat="26.432694" lon="98.89148">
<time>2014-08-05T01:15:37Z</time></trkpt>
<trkpt lat="26.432714" lon="98.89148">
<time>2014-08-05T01:15:38Z</time></trkpt>
<trkpt lat="26.432744" lon="98.89148">
<time>2014-08-05T01:15:39Z</time></trkpt>
<trkpt lat="26.432774" lon="98.89148">
<time>2014-08-05T01:15:40Z</time></trkpt>
<trkpt lat="26.432804" lon="98.89149">
<time>2014-08-05T01:15:41Z</time></trkpt>
<trkpt lat="26.432844" lon="98.8915">
<time>2014-08-05T01:15:42Z</time></trkpt>
<trkpt lat="26.432884" lon="98.89151">
<time>2014-08-05T01:15:43Z</time></trkpt>
<trkpt lat="26.433024" lon="98.89156">
<time>2014-08-05T01:15:44Z</time></trkpt>
<trkpt lat="26.433194" lon="98.89164">
<time>2014-08-05T01:15:45Z</time></trkpt>
<trkpt lat="26.433334" lon="98.89169">
<time>2014-08-05T01:15:46Z</time></trkpt>
<trkpt lat="26.433384" lon="98.8917">
<time>2014-08-05T01:15:47Z</time></trkpt>
<trkpt lat="26.433444" lon="98.89171">
<time>2014-08-05T01:15:48Z</time></trkpt>
<trkpt lat="26.433494" lon="98.89171">
<time>2014-08-05T01:15:49Z</time></trkpt>
<trkpt lat="26.433544" lon="98.89172">
<time>2014-08-05T01:15:50Z</time></trkpt>
<trkpt lat="26.433614" lon="98.89172">
<time>2014-08-05T01:15:51Z</time></trkpt>
<trkpt lat="26.433744" lon="98.8917">
<time>2014-08-05T01:15:52Z</time></trkpt>
<trkpt lat="26.433944" lon="98.89166">
<time>2014-08-05T01:15:53Z</time></trkpt>
<trkpt lat="26.434114" lon="98.89161">
<time>2014-08-05T01:15:54Z</time></trkpt>
<trkpt lat="26.434334" lon="98.89152">
<time>2014-08-05T01:15:55Z</time></trkpt>
<trkpt lat="26.434464" lon="98.89147">
<time>2014-08-05T01:15:56Z</time></trkpt>
<trkpt lat="26.434544" lon="98.89146">
<time>2014-08-05T01:15:57Z</time></trkpt>
<trkpt lat="26.434614" lon="98.89145">
<time>2014-08-05T01:15:58Z</time></trkpt>
<trkpt lat="26.434694" lon="98.89144">
<time>2014-08-05T01:15:59Z</time></trkpt>
<trkpt lat="26.434804" lon="98.89144">
<time>2014-08-05T01:16:00Z</time></trkpt>
<trkpt lat="26.435144" lon="98.89143">
<time>2014-08-05T01:16:01Z</time></trkpt>
<trkpt lat="26.435505" lon="98.89142">
<time>2014-08-05T01:16:02Z</time></trkpt>
<trkpt lat="26.436215" lon="98.89144">
<time>2014-08-05T01:16:03Z</time></trkpt>
<trkpt lat="26.436455" lon="98.89144">
<time>2014-08-05T01:16:04Z</time></trkpt>
<trkpt lat="26.436585" lon="98.89144">
<time>2014-08-05T01:16:05Z</time></trkpt>
<trkpt lat="26.436675" lon="98.89145">
<time>2014-08-05T01:16:06Z</time></trkpt>
<trkpt lat="26.436935" lon="98.8915">
<time>2014-08-05T01:16:07Z</time></trkpt>
<trkpt lat="26.437275" lon="98.89158">
<time>2014-08-05T01:16:08Z</time></trkpt>
<trkpt lat="26.437535" lon="98.89164">
<time>2014-08-05T01:16:09Z</time></trkpt>
<trkpt lat="26.437655" lon="98.89166">
<time>2014-08-05T01:16:10Z</time></trkpt>
<trkpt lat="26.437715" lon="98.89168">
<time>2014-08-05T01:16:11Z</time></trkpt>
<trkpt lat="26.437755" lon="98.89169">
<time>2014-08-05T01:16:12Z</time></trkpt>
<trkpt lat="26.437815" lon="98.89171">
<time>2014-08-05T01:16:13Z</time></trkpt>
<trkpt lat="26.437865" lon="98.89174">
<time>2014-08-05T01:16:14Z</time></trkpt>
<trkpt lat="26.437996" lon="98.89181">
<time>2014-08-05T01:16:15Z</time></trkpt>
<trkpt lat="26.438186" lon="98.89192">
<time>2014-08-05T01:16:16Z</time></trkpt>
<trkpt lat="26.438286" lon="98.89197">
<time>2014-08-05T01:16:17Z</time></trkpt>
<trkpt lat="26.438346" lon="98.89199">
<time>2014-08-05T01:16:18Z</time></trkpt>
<trkpt lat="26.438396" lon="98.89201">
<time>2014-08-05T01:16:19Z</time></trkpt>
<trkpt lat="26.438456" lon="98.89202">
<time>2014-08-05T01:16:20Z</time></trkpt>
<trkpt lat="26.438506" lon="98.89203">
<time>2014-08-05T01:16:21Z</time></trkpt>
<trkpt lat="26.438576" lon="98.89203">
<time>2014-08-05T01:16:22Z</time></trkpt>
<trkpt lat="26.438696" lon="98.89203">
<time>2014-08-05T01:16:23Z</time></trkpt>
<trkpt lat="26.439186" lon="98.89204">
<time>2014-08-05T01:16:24Z</time></trkpt>
<trkpt lat="26.439486" lon="98.89205">
<time>2014-08-05T01:16:25Z</time></trkpt>
<trkpt lat="26.439626" lon="98.89207">
<time>2014-08-05T01:16:26Z</time></trkpt>
<trkpt lat="26.439946" lon="98.89213">
<time>2014-08-05T01:16:27Z</time></trkpt>
<trkpt lat="26.440226" lon="98.89218">
<time>2014-08-05T01:16:28Z</time></trkpt>
<trkpt lat="26.440597" lon="98.89223">
<time>2014-08-05T01:16:29Z</time></trkpt>
<trkpt lat="26.440867" lon="98.89227">
<time>2014-08-05T01:16:30Z</time></trkpt>
<trkpt lat="26.441067" lon="98.8923">
<time>2014-08-05T01:16:31Z</time></trkpt>
<trkpt lat="26.441247" lon="98.89234">
<time>2014-08-05T01:16:32Z</time></trkpt>
<trkpt lat="26.441377" lon="98.89238">
<time>2014-08-05T01:16:33Z</time></trkpt>
<trkpt lat="26.441427" lon="98.8924">
<time>2014-08-05T01:16:34Z</time></trkpt>
<trkpt lat="26.441467" lon="98.89241">
<time>2014-08-05T01:16:35Z</time></trkpt>
<trkpt lat="26.441517" lon="98.89244">
<time>2014-08-05T01:16:36Z</time></trkpt>
<trkpt lat="26.441557" lon="98.89246">
<time>2014-08-05T01:16:37Z</time></trkpt>
<trkpt lat="26.441647" lon="98.89252">
<time>2014-08-05T01:16:38Z</time></trkpt>
<trkpt lat="26.441737" lon="98.89261">
<time>2014-08-05T01:16:39Z</time></trkpt>
<trkpt lat="26.441997" lon="98.89288">
<time>2014-08-05T01:16:40Z</time></trkpt>
<trkpt lat="26.442147" lon="98.893049">
<time>2014-08-05T01:16:41Z</time></trkpt>
<trkpt lat="26.442788" lon="98.893679">
<time>2014-08-05T01:16:42Z</time></trkpt>
<trkpt lat="26.443198" lon="98.894039">
<time>2014-08-05T01:16:43Z</time></trkpt>
<trkpt lat="26.443318" lon="98.894139">
<time>2014-08-05T01:16:44Z</time></trkpt>
<trkpt lat="26.443498" lon="98.894239">
<time>2014-08-05T01:16:45Z</time></trkpt>
<trkpt lat="26.443568" lon="98.894269">
<time>2014-08-05T01:16:46Z</time></trkpt>
<trkpt lat="26.443628" lon="98.894289">
<time>2014-08-05T01:16:47Z</time></trkpt>
<trkpt lat="26.443798" lon="98.894349">
<time>2014-08-05T01:16:48Z</time></trkpt>
<trkpt lat="26.444059" lon="98.894449">
<time>2014-08-05T01:16:49Z</time></trkpt>
<trkpt lat="26.444329" lon="98.894539">
<time>2014-08-05T01:16:50Z</time></trkpt>
<trkpt lat="26.444469" lon="98.894559">
<time>2014-08-05T01:16:51Z</time></trkpt>
<trkpt lat="26.444619" lon="98.894569">
<time>2014-08-05T01:16:52Z</time></trkpt>
<trkpt lat="26.445129" lon="98.894539">
<time>2014-08-05T01:16:53Z</time></trkpt>
<trkpt lat="26.445189" lon="98.894539">
<time>2014-08-05T01:16:54Z</time></trkpt>
<trkpt lat="26.445269" lon="98.894549">
<time>2014-08-05T01:16:55Z</time></trkpt>
<trkpt lat="26.445319" lon="98.894549">
<time>2014-08-05T01:16:56Z</time></trkpt>
<trkpt lat="26.445379" lon="98.894569">
<time>2014-08-05T01:16:57Z</time></trkpt>
<trkpt lat="26.445439" lon="98.894589">
<time>2014-08-05T01:16:58Z</time></trkpt>
<trkpt lat="26.445519" lon="98.894639">
<time>2014-08-05T01:16:59Z</time></trkpt>
<trkpt lat="26.445619" lon="98.894719">
<time>2014-08-05T01:17:00Z</time></trkpt>
<trkpt lat="26.445699" lon="98.894799">
<time>2014-08-05T01:17:01Z</time></trkpt>
<trkpt lat="26.446179" lon="98.895208">
<time>2014-08-05T01:17:02Z</time></trkpt>
<trkpt lat="26.44638" lon="98.895388">
<time>2014-08-05T01:17:03Z</time></trkpt>
<trkpt lat="26.44673" lon="98.895738">
<time>2014-08-05T01:17:04Z</time></trkpt>
<trkpt lat="26.44707" lon="98.896148">
<time>2014-08-05T01:17:05Z</time></trkpt>
<trkpt lat="26.4477" lon="98.896987">
<time>2014-08-05T01:17:06Z</time></trkpt>
<trkpt lat="26.44786" lon="98.897207">
<time>2014-08-05T01:17:07Z</time></trkpt>
<trkpt lat="26.447971" lon="98.897347">
<time>2014-08-05T01:17:08Z</time></trkpt>
<trkpt lat="26.448051" lon="98.897427">
<time>2014-08-05T01:17:09Z</time></trkpt>
<trkpt lat="26.448141" lon="98.897497">
<time>2014-08-05T01:17:10Z</time></trkpt>
<trkpt lat="26.448291" lon="98.897607">
<time>2014-08-05T01:17:11Z</time></trkpt>
<trkpt lat="26.448691" lon="98.897897">
<time>2014-08-05T01:17:12Z</time></trkpt>
<trkpt lat="26.449041" lon="98.898117">
<time>2014-08-05T01:17:13Z</time></trkpt>
<trkpt lat="26.449311" lon="98.898296">
<time>2014-08-05T01:17:14Z</time></trkpt>
<trkpt lat="26.449491" lon="98.898386">
<time>2014-08-05T01:17:15Z</time></trkpt>
<trkpt lat="26.449711" lon="98.898476">
<time>2014-08-05T01:17:16Z</time></trkpt>
<trkpt lat="26.450141" lon="98.898636">
<time>2014-08-05T01:17:17Z</time></trkpt>
<trkpt lat="26.450592" lon="98.898826">
<time>2014-08-05T01:17:18Z</time></trkpt>
<trkpt lat="26.450882" lon="98.898936">
<time>2014-08-05T01:17:19Z</time></trkpt>
<trkpt lat="26.451222" lon="98.899036">
<time>2014-08-05T01:17:20Z</time></trkpt>
<trkpt lat="26.451892" lon="98.899226">
<time>2014-08-05T01:17:21Z</time></trkpt>
<trkpt lat="26.452252" lon="98.899306">
<time>2014-08-05T01:17:22Z</time></trkpt>
<trkpt lat="26.452392" lon="98.899326">
<time>2014-08-05T01:17:23Z</time></trkpt>
<trkpt lat="26.452562" lon="98.899336">
<time>2014-08-05T01:17:24Z</time></trkpt>
<trkpt lat="26.452972" lon="98.899346">
<time>2014-08-05T01:17:25Z</time></trkpt>
<trkpt lat="26.453373" lon="98.899356">
<time>2014-08-05T01:17:26Z</time></trkpt>
<trkpt lat="26.453533" lon="98.899346">
<time>2014-08-05T01:17:27Z</time></trkpt>
<trkpt lat="26.453663" lon="98.899326">
<time>2014-08-05T01:17:28Z</time></trkpt>
<trkpt lat="26.453883" lon="98.899286">
<time>2014-08-05T01:17:29Z</time></trkpt>
<trkpt lat="26.454303" lon="98.899166">
<time>2014-08-05T01:17:30Z</time></trkpt>
<trkpt lat="26.454673" lon="98.899066">
<time>2014-08-05T01:17:31Z</time></trkpt>
<trkpt lat="26.455233" lon="98.898896">
<time>2014-08-05T01:17:32Z</time></trkpt>
<trkpt lat="26.455503" lon="98.898836">
<time>2014-08-05T01:17:33Z</time></trkpt>
<trkpt lat="26.455633" lon="98.898816">
<time>2014-08-05T01:17:34Z</time></trkpt>
<trkpt lat="26.455853" lon="98.898796">
<time>2014-08-05T01:17:35Z</time></trkpt>
<trkpt lat="26.456023" lon="98.898776">
<time>2014-08-05T01:17:36Z</time></trkpt>
<trkpt lat="26.456213" lon="98.898766">
<time>2014-08-05T01:17:37Z</time></trkpt>
<trkpt lat="26.456443" lon="98.898736">
<time>2014-08-05T01:17:38Z</time></trkpt>
<trkpt lat="26.456624" lon="98.898696">
<time>2014-08-05T01:17:39Z</time></trkpt>
<trkpt lat="26.456754" lon="98.898666">
<time>2014-08-05T01:17:40Z</time></trkpt>
<trkpt lat="26.456894" lon="98.898616">
<time>2014-08-05T01:17:41Z</time></trkpt>
<trkpt lat="26.457124" lon="98.898516">
<time>2014-08-05T01:17:42Z</time></trkpt>
<trkpt lat="26.457314" lon="98.898426">
<time>2014-08-05T01:17:43Z</time></trkpt>
<trkpt lat="26.457494" lon="98.898316">
<time>2014-08-05T01:17:44Z</time></trkpt>
<trkpt lat="26.457594" lon="98.898236">
<time>2014-08-05T01:17:45Z</time></trkpt>
<trkpt lat="26.457784" lon="98.898106">
<time>2014-08-05T01:17:46Z</time></trkpt>
<trkpt lat="26.457914" lon="98.898007">
<time>2014-08-05T01:17:47Z</time></trkpt>
<trkpt lat="26.458054" lon="98.897897">
<time>2014-08-05T01:17:48Z</time></trkpt>
<trkpt lat="26.458244" lon="98.897727">
<time>2014-08-05T01:17:49Z</time></trkpt>
<trkpt lat="26.458414" lon="98.897587">
<time>2014-08-05T01:17:50Z</time></trkpt>
<trkpt lat="26.458614" lon="98.897437">
<time>2014-08-05T01:17:51Z</time></trkpt>
<trkpt lat="26.458804" lon="98.897327">
<time>2014-08-05T01:17:52Z</time></trkpt>
<trkpt lat="26.459034" lon="98.897247">
<time>2014-08-05T01:17:53Z</time></trkpt>
<trkpt lat="26.459364" lon="98.897157">
<time>2014-08-05T01:17:54Z</time></trkpt>
<trkpt lat="26.459574" lon="98.897127">
<time>2014-08-05T01:17:55Z</time></trkpt>
<trkpt lat="26.459804" lon="98.897107">
<time>2014-08-05T01:17:56Z</time></trkpt>
<trkpt lat="26.460064" lon="98.897107">
<time>2014-08-05T01:17:57Z</time></trkpt>
<trkpt lat="26.460765" lon="98.897177">
<time>2014-08-05T01:17:58Z</time></trkpt>
<trkpt lat="26.461475" lon="98.897257">
<time>2014-08-05T01:17:59Z</time></trkpt>
<trkpt lat="26.462155" lon="98.897367">
<time>2014-08-05T01:18:00Z</time></trkpt>
<trkpt lat="26.462845" lon="98.897517">
<time>2014-08-05T01:18:01Z</time></trkpt>
<trkpt lat="26.463015" lon="98.897547">
<time>2014-08-05T01:18:02Z</time></trkpt>
<trkpt lat="26.463095" lon="98.897557">
<time>2014-08-05T01:18:03Z</time></trkpt>
<trkpt lat="26.463155" lon="98.897567">
<time>2014-08-05T01:18:04Z</time></trkpt>
<trkpt lat="26.463225" lon="98.897567">
<time>2014-08-05T01:18:05Z</time></trkpt>
<trkpt lat="26.463305" lon="98.897547">
<time>2014-08-05T01:18:06Z</time></trkpt>
<trkpt lat="26.463355" lon="98.897527">
<time>2014-08-05T01:18:07Z</time></trkpt>
<trkpt lat="26.463426" lon="98.897497">
<time>2014-08-05T01:18:08Z</time></trkpt>
<trkpt lat="26.463506" lon="98.897457">
<time>2014-08-05T01:18:09Z</time></trkpt>
<trkpt lat="26.463696" lon="98.897357">
<time>2014-08-05T01:18:10Z</time></trkpt>
<trkpt lat="26.463806" lon="98.897297">
<time>2014-08-05T01:18:11Z</time></trkpt>
<trkpt lat="26.463846" lon="98.897267">
<time>2014-08-05T01:18:12Z</time></trkpt>
<trkpt lat="26.463916" lon="98.897217">
<time>2014-08-05T01:18:13Z</time></trkpt>
<trkpt lat="26.463946" lon="98.897177">
<time>2014-08-05T01:18:14Z</time></trkpt>
<trkpt lat="26.463986" lon="98.897147">
<time>2014-08-05T01:18:15Z</time></trkpt>
<trkpt lat="26.464026" lon="98.897097">
<time>2014-08-05T01:18:16Z</time></trkpt>
<trkpt lat="26.464066" lon="98.897027">
<time>2014-08-05T01:18:17Z</time></trkpt>
<trkpt lat="26.464166" lon="98.896857">
<time>2014-08-05T01:18:18Z</time></trkpt>
<trkpt lat="26.464306" lon="98.896617">
<time>2014-08-05T01:18:19Z</time></trkpt>
<trkpt lat="26.464516" lon="98.896267">
<time>2014-08-05T01:18:20Z</time></trkpt>
<trkpt lat="26.464656" lon="98.895988">
<time>2014-08-05T01:18:21Z</time></trkpt>
<trkpt lat="26.464726" lon="98.895818">
<time>2014-08-05T01:18:22Z</time></trkpt>
<trkpt lat="26.464756" lon="98.895718">
<time>2014-08-05T01:18:23Z</time></trkpt>
<trkpt lat="26.464776" lon="98.895638">
<time>2014-08-05T01:18:24Z</time></trkpt>
<trkpt lat="26.464796" lon="98.895548">
<time>2014-08-05T01:18:25Z</time></trkpt>
<trkpt lat="26.464845" lon="98.895288">
<time>2014-08-05T01:18:26Z</time></trkpt>
<trkpt lat="26.464885" lon="98.895138">
<time>2014-08-05T01:18:27Z</time></trkpt>
<trkpt lat="26.464915" lon="98.895058">
<time>2014-08-05T01:18:28Z</time></trkpt>
<trkpt lat="26.464945" lon="98.894988">
<time>2014-08-05T01:18:29Z</time></trkpt>
<trkpt lat="26.464975" lon="98.894938">
<time>2014-08-05T01:18:30Z</time></trkpt>
<trkpt lat="26.464995" lon="98.894908">
<time>2014-08-05T01:18:31Z</time></trkpt>
<trkpt lat="26.465025" lon="98.894878">
<time>2014-08-05T01:18:32Z</time></trkpt>
<trkpt lat="26.465055" lon="98.894848">
<time>2014-08-05T01:18:33Z</time></trkpt>
<trkpt lat="26.465075" lon="98.894828">
<time>2014-08-05T01:18:34Z</time></trkpt>
<trkpt lat="26.465095" lon="98.894808">
<time>2014-08-05T01:18:35Z</time></trkpt>
<trkpt lat="26.465125" lon="98.894778">
<time>2014-08-05T01:18:36Z</time></trkpt>
<trkpt lat="26.465165" lon="98.894758">
<time>2014-08-05T01:18:37Z</time></trkpt>
<trkpt lat="26.465265" lon="98.894708">
<time>2014-08-05T01:18:38Z</time></trkpt>
<trkpt lat="26.465575" lon="98.894558">
<time>2014-08-05T01:18:39Z</time></trkpt>
<trkpt lat="26.465846" lon="98.894418">
<time>2014-08-05T01:18:40Z</time></trkpt>
<trkpt lat="26.466046" lon="98.894308">
<time>2014-08-05T01:18:41Z</time></trkpt>
<trkpt lat="26.466216" lon="98.894199">
<time>2014-08-05T01:18:42Z</time></trkpt>
<trkpt lat="26.466346" lon="98.894149">
<time>2014-08-05T01:18:43Z</time></trkpt>
<trkpt lat="26.466396" lon="98.894119">
<time>2014-08-05T01:18:44Z</time></trkpt>
<trkpt lat="26.466436" lon="98.894109">
<time>2014-08-05T01:18:45Z</time></trkpt>
<trkpt lat="26.466496" lon="98.894099">
<time>2014-08-05T01:18:46Z</time></trkpt>
<trkpt lat="26.466556" lon="98.894089">
<time>2014-08-05T01:18:47Z</time></trkpt>
<trkpt lat="26.466646" lon="98.894089">
<time>2014-08-05T01:18:48Z</time></trkpt>
<trkpt lat="26.466796" lon="98.894099">
<time>2014-08-05T01:18:49Z</time></trkpt>
<trkpt lat="26.466906" lon="98.894099">
<time>2014-08-05T01:18:50Z</time></trkpt>
<trkpt lat="26.466976" lon="98.894089">
<time>2014-08-05T01:18:51Z</time></trkpt>
<trkpt lat="26.467026" lon="98.894089">
<time>2014-08-05T01:18:52Z</time></trkpt>
<trkpt lat="26.467066" lon="98.894079">
<time>2014-08-05T01:18:53Z</time></trkpt>
<trkpt lat="26.467136" lon="98.894049">
<time>2014-08-05T01:18:54Z</time></trkpt>
<trkpt lat="26.467226" lon="98.893999">
<time>2014-08-05T01:18:55Z</time></trkpt>
<trkpt lat="26.467326" lon="98.893939">
<time>2014-08-05T01:18:56Z</time></trkpt>
<trkpt lat="26.467576" lon="98.893789">
<time>2014-08-05T01:18:57Z</time></trkpt>
<trkpt lat="26.467656" lon="98.893759">
<time>2014-08-05T01:18:58Z</time></trkpt>
<trkpt lat="26.467726" lon="98.893729">
<time>2014-08-05T01:18:59Z</time></trkpt>
<trkpt lat="26.467826" lon="98.893719">
<time>2014-08-05T01:19:00Z</time></trkpt>
<trkpt lat="26.467926" lon="98.893719">
<time>2014-08-05T01:19:01Z</time></trkpt>
<trkpt lat="26.468066" lon="98.893739">
<time>2014-08-05T01:19:02Z</time></trkpt>
<trkpt lat="26.468246" lon="98.893759">
<time>2014-08-05T01:19:03Z</time></trkpt>
<trkpt lat="26.468386" lon="98.893789">
<time>2014-08-05T01:19:04Z</time></trkpt>
<trkpt lat="26.468496" lon="98.893799">
<time>2014-08-05T01:19:05Z</time></trkpt>
<trkpt lat="26.468596" lon="98.893799">
<time>2014-08-05T01:19:06Z</time></trkpt>
<trkpt lat="26.468726" lon="98.893799">
<time>2014-08-05T01:19:07Z</time></trkpt>
<trkpt lat="26.468826" lon="98.893789">
<time>2014-08-05T01:19:08Z</time></trkpt>
<trkpt lat="26.469016" lon="98.893759">
<time>2014-08-05T01:19:09Z</time></trkpt>
<trkpt lat="26.469216" lon="98.893729">
<time>2014-08-05T01:19:10Z</time></trkpt>
<trkpt lat="26.469316" lon="98.893719">
<time>2014-08-05T01:19:11Z</time></trkpt>
<trkpt lat="26.469426" lon="98.893719">
<time>2014-08-05T01:19:12Z</time></trkpt>
<trkpt lat="26.469486" lon="98.893719">
<time>2014-08-05T01:19:13Z</time></trkpt>
<trkpt lat="26.469546" lon="98.893729">
<time>2014-08-05T01:19:14Z</time></trkpt>
<trkpt lat="26.469606" lon="98.893739">
<time>2014-08-05T01:19:15Z</time></trkpt>
<trkpt lat="26.469636" lon="98.893749">
<time>2014-08-05T01:19:16Z</time></trkpt>
<trkpt lat="26.469817" lon="98.893799">
<time>2014-08-05T01:19:17Z</time></trkpt>
<trkpt lat="26.469897" lon="98.893829">
<time>2014-08-05T01:19:18Z</time></trkpt>
<trkpt lat="26.470617" lon="98.894068">
<time>2014-08-05T01:19:19Z</time></trkpt>
<trkpt lat="26.471077" lon="98.894198">
<time>2014-08-05T01:19:20Z</time></trkpt>
<trkpt lat="26.471257" lon="98.894238">
<time>2014-08-05T01:19:21Z</time></trkpt>
<trkpt lat="26.471427" lon="98.894248">
<time>2014-08-05T01:19:22Z</time></trkpt>
<trkpt lat="26.471717" lon="98.894268">
<time>2014-08-05T01:19:23Z</time></trkpt>
<trkpt lat="26.472087" lon="98.894298">
<time>2014-08-05T01:19:24Z</time></trkpt>
<trkpt lat="26.472467" lon="98.894358">
<time>2014-08-05T01:19:25Z</time></trkpt>
<trkpt lat="26.472748" lon="98.894408">
<time>2014-08-05T01:19:26Z</time></trkpt>
<trkpt lat="26.472958" lon="98.894438">
<time>2014-08-05T01:19:27Z</time></trkpt>
<trkpt lat="26.473168" lon="98.894438">
<time>2014-08-05T01:19:28Z</time></trkpt>
<trkpt lat="26.473578" lon="98.894398">
<time>2014-08-05T01:19:29Z</time></trkpt>
<trkpt lat="26.473748" lon="98.894388">
<time>2014-08-05T01:19:30Z</time></trkpt>
<trkpt lat="26.473928" lon="98.894398">
<time>2014-08-05T01:19:31Z</time></trkpt>
<trkpt lat="26.474218" lon="98.894438">
<time>2014-08-05T01:19:32Z</time></trkpt>
<trkpt lat="26.474488" lon="98.894488">
<time>2014-08-05T01:19:33Z</time></trkpt>
<trkpt lat="26.474848" lon="98.894588">
<time>2014-08-05T01:19:34Z</time></trkpt>
<trkpt lat="26.475188" lon="98.894718">
<time>2014-08-05T01:19:35Z</time></trkpt>
<trkpt lat="26.475699" lon="98.894948">
<time>2014-08-05T01:19:36Z</time></trkpt>
<trkpt lat="26.475789" lon="98.894998">
<time>2014-08-05T01:19:37Z</time></trkpt>
<trkpt lat="26.475869" lon="98.895038">
<time>2014-08-05T01:19:38Z</time></trkpt>
<trkpt lat="26.475999" lon="98.895138">
<time>2014-08-05T01:19:39Z</time></trkpt>
<trkpt lat="26.476249" lon="98.895338">
<time>2014-08-05T01:19:40Z</time></trkpt>
<trkpt lat="26.476299" lon="98.895378">
<time>2014-08-05T01:19:41Z</time></trkpt>
<trkpt lat="26.476359" lon="98.895418">
<time>2014-08-05T01:19:42Z</time></trkpt>
<trkpt lat="26.476419" lon="98.895448">
<time>2014-08-05T01:19:43Z</time></trkpt>
<trkpt lat="26.476479" lon="98.895468">
<time>2014-08-05T01:19:44Z</time></trkpt>
<trkpt lat="26.476579" lon="98.895498">
<time>2014-08-05T01:19:45Z</time></trkpt>
<trkpt lat="26.476799" lon="98.895538">
<time>2014-08-05T01:19:46Z</time></trkpt>
<trkpt lat="26.476889" lon="98.895548">
<time>2014-08-05T01:19:47Z</time></trkpt>
<trkpt lat="26.476989" lon="98.895578">
<time>2014-08-05T01:19:48Z</time></trkpt>
<trkpt lat="26.477099" lon="98.895618">
<time>2014-08-05T01:19:49Z</time></trkpt>
<trkpt lat="26.477199" lon="98.895688">
<time>2014-08-05T01:19:50Z</time></trkpt>
<trkpt lat="26.477329" lon="98.895788">
<time>2014-08-05T01:19:51Z</time></trkpt>
<trkpt lat="26.477429" lon="98.895877">
<time>2014-08-05T01:19:52Z</time></trkpt>
<trkpt lat="26.477569" lon="98.895987">
<time>2014-08-05T01:19:53Z</time></trkpt>
<trkpt lat="26.47775" lon="98.896107">
<time>2014-08-05T01:19:54Z</time></trkpt>
<trkpt lat="26.47796" lon="98.896207">
<time>2014-08-05T01:19:55Z</time></trkpt>
<trkpt lat="26.47896" lon="98.896697">
<time>2014-08-05T01:19:56Z</time></trkpt>
<trkpt lat="26.47918" lon="98.896807">
<time>2014-08-05T01:19:57Z</time></trkpt>
<trkpt lat="26.47935" lon="98.896907">
<time>2014-08-05T01:19:58Z</time></trkpt>
<trkpt lat="26.4795" lon="98.897017">
<time>2014-08-05T01:19:59Z</time></trkpt>
<trkpt lat="26.4796" lon="98.897097">
<time>2014-08-05T01:20:00Z</time></trkpt>
<trkpt lat="26.47971" lon="98.897237">
<time>2014-08-05T01:20:01Z</time></trkpt>
<trkpt lat="26.4798" lon="98.897357">
<time>2014-08-05T01:20:02Z</time></trkpt>
<trkpt lat="26.47997" lon="98.897566">
<time>2014-08-05T01:20:03Z</time></trkpt>
<trkpt lat="26.480161" lon="98.897766">
<time>2014-08-05T01:20:04Z</time></trkpt>
<trkpt lat="26.480661" lon="98.898266">
<time>2014-08-05T01:20:05Z</time></trkpt>
<trkpt lat="26.481561" lon="98.899085">
<time>2014-08-05T01:20:06Z</time></trkpt>
<trkpt lat="26.481861" lon="98.899325">
<time>2014-08-05T01:20:07Z</time></trkpt>
<trkpt lat="26.482151" lon="98.899535">
<time>2014-08-05T01:20:08Z</time></trkpt>
<trkpt lat="26.482461" lon="98.899705">
<time>2014-08-05T01:20:09Z</time></trkpt>
<trkpt lat="26.482952" lon="98.899935">
<time>2014-08-05T01:20:10Z</time></trkpt>
<trkpt lat="26.483272" lon="98.900065">
<time>2014-08-05T01:20:11Z</time></trkpt>
<trkpt lat="26.483602" lon="98.900195">
<time>2014-08-05T01:20:12Z</time></trkpt>
<trkpt lat="26.483922" lon="98.900334">
<time>2014-08-05T01:20:13Z</time></trkpt>
<trkpt lat="26.484182" lon="98.900434">
<time>2014-08-05T01:20:14Z</time></trkpt>
<trkpt lat="26.484462" lon="98.900554">
<time>2014-08-05T01:20:15Z</time></trkpt>
<trkpt lat="26.484652" lon="98.900614">
<time>2014-08-05T01:20:16Z</time></trkpt>
<trkpt lat="26.485102" lon="98.900774">
<time>2014-08-05T01:20:17Z</time></trkpt>
<trkpt lat="26.485442" lon="98.900864">
<time>2014-08-05T01:20:18Z</time></trkpt>
<trkpt lat="26.485792" lon="98.900964">
<time>2014-08-05T01:20:19Z</time></trkpt>
<trkpt lat="26.486052" lon="98.901034">
<time>2014-08-05T01:20:20Z</time></trkpt>
<trkpt lat="26.486383" lon="98.901114">
<time>2014-08-05T01:20:21Z</time></trkpt>
<trkpt lat="26.486373" lon="98.901354">
<time>2014-08-05T01:20:22Z</time></trkpt>
<trkpt lat="26.486383" lon="98.901663">
<time>2014-08-05T01:20:23Z</time></trkpt>
<trkpt lat="26.486383" lon="98.901693">
<time>2014-08-05T01:20:24Z</time></trkpt>
<trkpt lat="26.486383" lon="98.902003">
<time>2014-08-05T01:20:25Z</time></trkpt>
<trkpt lat="26.486413" lon="98.902722">
<time>2014-08-05T01:20:26Z</time></trkpt>
<trkpt lat="26.486423" lon="98.902872">
<time>2014-08-05T01:20:27Z</time></trkpt>
<trkpt lat="26.486433" lon="98.902942">
<time>2014-08-05T01:20:28Z</time></trkpt>
<trkpt lat="26.486453" lon="98.903052">
<time>2014-08-05T01:20:29Z</time></trkpt>
<trkpt lat="26.486693" lon="98.903092">
<time>2014-08-05T01:20:30Z</time></trkpt>
<trkpt lat="26.486933" lon="98.903132">
<time>2014-08-05T01:20:31Z</time></trkpt>
<trkpt lat="26.487163" lon="98.903122">
<time>2014-08-05T01:20:32Z</time></trkpt>
<trkpt lat="26.487383" lon="98.903112">
<time>2014-08-05T01:20:33Z</time></trkpt>
<trkpt lat="26.487593" lon="98.903102">
<time>2014-08-05T01:20:34Z</time></trkpt>
<trkpt lat="26.487783" lon="98.903082">
<time>2014-08-05T01:20:35Z</time></trkpt>
<trkpt lat="26.488023" lon="98.903052">
<time>2014-08-05T01:20:36Z</time></trkpt>
<trkpt lat="26.488253" lon="98.903032">
<time>2014-08-05T01:20:37Z</time></trkpt>
<trkpt lat="26.488433" lon="98.902992">
<time>2014-08-05T01:20:38Z</time></trkpt>
<trkpt lat="26.488543" lon="98.902982">
<time>2014-08-05T01:20:39Z</time></trkpt>
<trkpt lat="26.488793" lon="98.902962">
<time>2014-08-05T01:20:40Z</time></trkpt>
<trkpt lat="26.489313" lon="98.902972">
<time>2014-08-05T01:20:41Z</time></trkpt>
<trkpt lat="26.489553" lon="98.902982">
<time>2014-08-05T01:20:42Z</time></trkpt>
<trkpt lat="26.489813" lon="98.902982">
<time>2014-08-05T01:20:43Z</time></trkpt>
<trkpt lat="26.489913" lon="98.902972">
<time>2014-08-05T01:20:44Z</time></trkpt>
<trkpt lat="26.490004" lon="98.902952">
<time>2014-08-05T01:20:45Z</time></trkpt>
<trkpt lat="26.490094" lon="98.902922">
<time>2014-08-05T01:20:46Z</time></trkpt>
<trkpt lat="26.490274" lon="98.902842">
<time>2014-08-05T01:20:47Z</time></trkpt>
<trkpt lat="26.490434" lon="98.902772">
<time>2014-08-05T01:20:48Z</time></trkpt>
<trkpt lat="26.490654" lon="98.902722">
<time>2014-08-05T01:20:49Z</time></trkpt>
<trkpt lat="26.490774" lon="98.902702">
<time>2014-08-05T01:20:50Z</time></trkpt>
<trkpt lat="26.490984" lon="98.902662">
<time>2014-08-05T01:20:51Z</time></trkpt>
<trkpt lat="26.491094" lon="98.902642">
<time>2014-08-05T01:20:52Z</time></trkpt>
<trkpt lat="26.491204" lon="98.902602">
<time>2014-08-05T01:20:53Z</time></trkpt>
<trkpt lat="26.491644" lon="98.902423">
<time>2014-08-05T01:20:54Z</time></trkpt>
<trkpt lat="26.491764" lon="98.902363">
<time>2014-08-05T01:20:55Z</time></trkpt>
<trkpt lat="26.491844" lon="98.902313">
<time>2014-08-05T01:20:56Z</time></trkpt>
<trkpt lat="26.491914" lon="98.902263">
<time>2014-08-05T01:20:57Z</time></trkpt>
<trkpt lat="26.492034" lon="98.902173">
<time>2014-08-05T01:20:58Z</time></trkpt>
<trkpt lat="26.492214" lon="98.901993">
<time>2014-08-05T01:20:59Z</time></trkpt>
<trkpt lat="26.492444" lon="98.901773">
<time>2014-08-05T01:21:00Z</time></trkpt>
<trkpt lat="26.492644" lon="98.901583">
<time>2014-08-05T01:21:01Z</time></trkpt>
<trkpt lat="26.492864" lon="98.901403">
<time>2014-08-05T01:21:02Z</time></trkpt>
<trkpt lat="26.493054" lon="98.901244">
<time>2014-08-05T01:21:03Z</time></trkpt>
<trkpt lat="26.493204" lon="98.901134">
<time>2014-08-05T01:21:04Z</time></trkpt>
<trkpt lat="26.493284" lon="98.901064">
<time>2014-08-05T01:21:05Z</time></trkpt>
<trkpt lat="26.493364" lon="98.900974">
<time>2014-08-05T01:21:06Z</time></trkpt>
<trkpt lat="26.493424" lon="98.900904">
<time>2014-08-05T01:21:07Z</time></trkpt>
<trkpt lat="26.493454" lon="98.900864">
<time>2014-08-05T01:21:08Z</time></trkpt>
<trkpt lat="26.493595" lon="98.900644">
<time>2014-08-05T01:21:09Z</time></trkpt>
<trkpt lat="26.493745" lon="98.900384">
<time>2014-08-05T01:21:10Z</time></trkpt>
<trkpt lat="26.493815" lon="98.900234">
<time>2014-08-05T01:21:11Z</time></trkpt>
<trkpt lat="26.493845" lon="98.900144">
<time>2014-08-05T01:21:12Z</time></trkpt>
<trkpt lat="26.493865" lon="98.900054">
<time>2014-08-05T01:21:13Z</time></trkpt>
<trkpt lat="26.493875" lon="98.900004">
<time>2014-08-05T01:21:14Z</time></trkpt>
<trkpt lat="26.493875" lon="98.899955">
<time>2014-08-05T01:21:15Z</time></trkpt>
<trkpt lat="26.493875" lon="98.899895">
<time>2014-08-05T01:21:16Z</time></trkpt>
<trkpt lat="26.493865" lon="98.899835">
<time>2014-08-05T01:21:17Z</time></trkpt>
<trkpt lat="26.493845" lon="98.899755">
<time>2014-08-05T01:21:18Z</time></trkpt>
<trkpt lat="26.493815" lon="98.899685">
<time>2014-08-05T01:21:19Z</time></trkpt>
<trkpt lat="26.493654" lon="98.899395">
<time>2014-08-05T01:21:20Z</time></trkpt>
<trkpt lat="26.493624" lon="98.899285">
<time>2014-08-05T01:21:21Z</time></trkpt>
<trkpt lat="26.493604" lon="98.899215">
<time>2014-08-05T01:21:22Z</time></trkpt>
<trkpt lat="26.493594" lon="98.899125">
<time>2014-08-05T01:21:23Z</time></trkpt>
<trkpt lat="26.493594" lon="98.899075">
<time>2014-08-05T01:21:24Z</time></trkpt>
<trkpt lat="26.493604" lon="98.899015">
<time>2014-08-05T01:21:25Z</time></trkpt>
<trkpt lat="26.493614" lon="98.898955">
<time>2014-08-05T01:21:26Z</time></trkpt>
<trkpt lat="26.493624" lon="98.898905">
<time>2014-08-05T01:21:27Z</time></trkpt>
<trkpt lat="26.493644" lon="98.898865">
<time>2014-08-05T01:21:28Z</time></trkpt>
<trkpt lat="26.493664" lon="98.898815">
<time>2014-08-05T01:21:29Z</time></trkpt>
<trkpt lat="26.493694" lon="98.898765">
<time>2014-08-05T01:21:30Z</time></trkpt>
<trkpt lat="26.493734" lon="98.898695">
<time>2014-08-05T01:21:31Z</time></trkpt>
<trkpt lat="26.493844" lon="98.898516">
<time>2014-08-05T01:21:32Z</time></trkpt>
<trkpt lat="26.494024" lon="98.898276">
<time>2014-08-05T01:21:33Z</time></trkpt>
<trkpt lat="26.494074" lon="98.898206">
<time>2014-08-05T01:21:34Z</time></trkpt>
<trkpt lat="26.494164" lon="98.898096">
<time>2014-08-05T01:21:35Z</time></trkpt>
<trkpt lat="26.494274" lon="98.897996">
<time>2014-08-05T01:21:36Z</time></trkpt>
<trkpt lat="26.494484" lon="98.897826">
<time>2014-08-05T01:21:37Z</time></trkpt>
<trkpt lat="26.494585" lon="98.897746">
<time>2014-08-05T01:21:38Z</time></trkpt>
<trkpt lat="26.494685" lon="98.897676">
<time>2014-08-05T01:21:39Z</time></trkpt>
<trkpt lat="26.494815" lon="98.897606">
<time>2014-08-05T01:21:40Z</time></trkpt>
<trkpt lat="26.495035" lon="98.897526">
<time>2014-08-05T01:21:41Z</time></trkpt>
<trkpt lat="26.495265" lon="98.897456">
<time>2014-08-05T01:21:42Z</time></trkpt>
<trkpt lat="26.495495" lon="98.897396">
<time>2014-08-05T01:21:43Z</time></trkpt>
<trkpt lat="26.495685" lon="98.897366">
<time>2014-08-05T01:21:44Z</time></trkpt>
<trkpt lat="26.495845" lon="98.897356">
<time>2014-08-05T01:21:45Z</time></trkpt>
<trkpt lat="26.496015" lon="98.897356">
<time>2014-08-05T01:21:46Z</time></trkpt>
<trkpt lat="26.496145" lon="98.897366">
<time>2014-08-05T01:21:47Z</time></trkpt>
<trkpt lat="26.496395" lon="98.897406">
<time>2014-08-05T01:21:48Z</time></trkpt>
<trkpt lat="26.496785" lon="98.897456">
<time>2014-08-05T01:21:49Z</time></trkpt>
<trkpt lat="26.496925" lon="98.897456">
<time>2014-08-05T01:21:50Z</time></trkpt>
<trkpt lat="26.497085" lon="98.897446">
<time>2014-08-05T01:21:51Z</time></trkpt>
<trkpt lat="26.497455" lon="98.897416">
<time>2014-08-05T01:21:52Z</time></trkpt>
<trkpt lat="26.497625" lon="98.897406">
<time>2014-08-05T01:21:53Z</time></trkpt>
<trkpt lat="26.497825" lon="98.897416">
<time>2014-08-05T01:21:54Z</time></trkpt>
<trkpt lat="26.497955" lon="98.897436">
<time>2014-08-05T01:21:55Z</time></trkpt>
<trkpt lat="26.498215" lon="98.897476">
<time>2014-08-05T01:21:56Z</time></trkpt>
<trkpt lat="26.498536" lon="98.897556">
<time>2014-08-05T01:21:57Z</time></trkpt>
<trkpt lat="26.498706" lon="98.897586">
<time>2014-08-05T01:21:58Z</time></trkpt>
<trkpt lat="26.499086" lon="98.897646">
<time>2014-08-05T01:21:59Z</time></trkpt>
<trkpt lat="26.499466" lon="98.897676">
<time>2014-08-05T01:22:00Z</time></trkpt>
<trkpt lat="26.499646" lon="98.897706">
<time>2014-08-05T01:22:01Z</time></trkpt>
<trkpt lat="26.499786" lon="98.897736">
<time>2014-08-05T01:22:02Z</time></trkpt>
<trkpt lat="26.500026" lon="98.897806">
<time>2014-08-05T01:22:03Z</time></trkpt>
<trkpt lat="26.500246" lon="98.897876">
<time>2014-08-05T01:22:04Z</time></trkpt>
<trkpt lat="26.500496" lon="98.897966">
<time>2014-08-05T01:22:05Z</time></trkpt>
<trkpt lat="26.500846" lon="98.898106">
<time>2014-08-05T01:22:06Z</time></trkpt>
<trkpt lat="26.501276" lon="98.898296">
<time>2014-08-05T01:22:07Z</time></trkpt>
<trkpt lat="26.501526" lon="98.898405">
<time>2014-08-05T01:22:08Z</time></trkpt>
<trkpt lat="26.501827" lon="98.898535">
<time>2014-08-05T01:22:09Z</time></trkpt>
<trkpt lat="26.502457" lon="98.898835">
<time>2014-08-05T01:22:10Z</time></trkpt>
<trkpt lat="26.502787" lon="98.898985">
<time>2014-08-05T01:22:11Z</time></trkpt>
<trkpt lat="26.503157" lon="98.899115">
<time>2014-08-05T01:22:12Z</time></trkpt>
<trkpt lat="26.503447" lon="98.899215">
<time>2014-08-05T01:22:13Z</time></trkpt>
<trkpt lat="26.503767" lon="98.899295">
<time>2014-08-05T01:22:14Z</time></trkpt>
<trkpt lat="26.504057" lon="98.899365">
<time>2014-08-05T01:22:15Z</time></trkpt>
<trkpt lat="26.504317" lon="98.899405">
<time>2014-08-05T01:22:16Z</time></trkpt>
<trkpt lat="26.504677" lon="98.899425">
<time>2014-08-05T01:22:17Z</time></trkpt>
<trkpt lat="26.504827" lon="98.899445">
<time>2014-08-05T01:22:18Z</time></trkpt>
<trkpt lat="26.504977" lon="98.899485">
<time>2014-08-05T01:22:19Z</time></trkpt>
<trkpt lat="26.505177" lon="98.899565">
<time>2014-08-05T01:22:20Z</time></trkpt>
<trkpt lat="26.505348" lon="98.899625">
<time>2014-08-05T01:22:21Z</time></trkpt>
<trkpt lat="26.505538" lon="98.899665">
<time>2014-08-05T01:22:22Z</time></trkpt>
<trkpt lat="26.505718" lon="98.899685">
<time>2014-08-05T01:22:23Z</time></trkpt>
<trkpt lat="26.506328" lon="98.899724">
<time>2014-08-05T01:22:24Z</time></trkpt>
<trkpt lat="26.506638" lon="98.899764">
<time>2014-08-05T01:22:25Z</time></trkpt>
<trkpt lat="26.506838" lon="98.899814">
<time>2014-08-05T01:22:26Z</time></trkpt>
<trkpt lat="26.507238" lon="98.899934">
<time>2014-08-05T01:22:27Z</time></trkpt>
<trkpt lat="26.507618" lon="98.900014">
<time>2014-08-05T01:22:28Z</time></trkpt>
<trkpt lat="26.507968" lon="98.900084">
<time>2014-08-05T01:22:29Z</time></trkpt>
<trkpt lat="26.508138" lon="98.900124">
<time>2014-08-05T01:22:30Z</time></trkpt>
<trkpt lat="26.508268" lon="98.900134">
<time>2014-08-05T01:22:31Z</time></trkpt>
<trkpt lat="26.508428" lon="98.900144">
<time>2014-08-05T01:22:32Z</time></trkpt>
<trkpt lat="26.508638" lon="98.900124">
<time>2014-08-05T01:22:33Z</time></trkpt>
<trkpt lat="26.508928" lon="98.900094">
<time>2014-08-05T01:22:34Z</time></trkpt>
<trkpt lat="26.509098" lon="98.900104">
<time>2014-08-05T01:22:35Z</time></trkpt>
<trkpt lat="26.509289" lon="98.900114">
<time>2014-08-05T01:22:36Z</time></trkpt>
<trkpt lat="26.509619" lon="98.900174">
<time>2014-08-05T01:22:37Z</time></trkpt>
<trkpt lat="26.510159" lon="98.900234">
<time>2014-08-05T01:22:38Z</time></trkpt>
<trkpt lat="26.510329" lon="98.900264">
<time>2014-08-05T01:22:39Z</time></trkpt>
<trkpt lat="26.510509" lon="98.900294">
<time>2014-08-05T01:22:40Z</time></trkpt>
<trkpt lat="26.510829" lon="98.900394">
<time>2014-08-05T01:22:41Z</time></trkpt>
<trkpt lat="26.511239" lon="98.900534">
<time>2014-08-05T01:22:42Z</time></trkpt>
<trkpt lat="26.511459" lon="98.900614">
<time>2014-08-05T01:22:43Z</time></trkpt>
<trkpt lat="26.511809" lon="98.900764">
<time>2014-08-05T01:22:44Z</time></trkpt>
<trkpt lat="26.512509" lon="98.901113">
<time>2014-08-05T01:22:45Z</time></trkpt>
<trkpt lat="26.512799" lon="98.901243">
<time>2014-08-05T01:22:46Z</time></trkpt>
<trkpt lat="26.5132" lon="98.901353">
<time>2014-08-05T01:22:47Z</time></trkpt>
<trkpt lat="26.5138" lon="98.901493">
<time>2014-08-05T01:22:48Z</time></trkpt>
<trkpt lat="26.51442" lon="98.901633">
<time>2014-08-05T01:22:49Z</time></trkpt>
<trkpt lat="26.51504" lon="98.901763">
<time>2014-08-05T01:22:50Z</time></trkpt>
<trkpt lat="26.51569" lon="98.901833">
<time>2014-08-05T01:22:51Z</time></trkpt>
<trkpt lat="26.51634" lon="98.901903">
<time>2014-08-05T01:22:52Z</time></trkpt>
<trkpt lat="26.51698" lon="98.901943">
<time>2014-08-05T01:22:53Z</time></trkpt>
<trkpt lat="26.51733" lon="98.901933">
<time>2014-08-05T01:22:54Z</time></trkpt>
<trkpt lat="26.517651" lon="98.901913">
<time>2014-08-05T01:22:55Z</time></trkpt>
<trkpt lat="26.518031" lon="98.901913">
<time>2014-08-05T01:22:56Z</time></trkpt>
<trkpt lat="26.518381" lon="98.901913">
<time>2014-08-05T01:22:57Z</time></trkpt>
<trkpt lat="26.518681" lon="98.901943">
<time>2014-08-05T01:22:58Z</time></trkpt>
<trkpt lat="26.518841" lon="98.901982">
<time>2014-08-05T01:22:59Z</time></trkpt>
<trkpt lat="26.518951" lon="98.901992">
<time>2014-08-05T01:23:00Z</time></trkpt>
<trkpt lat="26.519081" lon="98.902012">
<time>2014-08-05T01:23:01Z</time></trkpt>
<trkpt lat="26.519181" lon="98.902002">
<time>2014-08-05T01:23:02Z</time></trkpt>
<trkpt lat="26.519271" lon="98.901992">
<time>2014-08-05T01:23:03Z</time></trkpt>
<trkpt lat="26.519511" lon="98.901923">
<time>2014-08-05T01:23:04Z</time></trkpt>
<trkpt lat="26.519921" lon="98.901813">
<time>2014-08-05T01:23:05Z</time></trkpt>
<trkpt lat="26.520211" lon="98.901713">
<time>2014-08-05T01:23:06Z</time></trkpt>
<trkpt lat="26.520281" lon="98.901693">
<time>2014-08-05T01:23:07Z</time></trkpt>
<trkpt lat="26.520341" lon="98.901673">
<time>2014-08-05T01:23:08Z</time></trkpt>
<trkpt lat="26.520411" lon="98.901663">
<time>2014-08-05T01:23:09Z</time></trkpt>
<trkpt lat="26.520481" lon="98.901653">
<time>2014-08-05T01:23:10Z</time></trkpt>
<trkpt lat="26.520581" lon="98.901643">
<time>2014-08-05T01:23:11Z</time></trkpt>
<trkpt lat="26.520751" lon="98.901633">
<time>2014-08-05T01:23:12Z</time></trkpt>
<trkpt lat="26.520961" lon="98.901603">
<time>2014-08-05T01:23:13Z</time></trkpt>
<trkpt lat="26.521121" lon="98.901563">
<time>2014-08-05T01:23:14Z</time></trkpt>
<trkpt lat="26.521191" lon="98.901543">
<time>2014-08-05T01:23:15Z</time></trkpt>
<trkpt lat="26.521251" lon="98.901523">
<time>2014-08-05T01:23:16Z</time></trkpt>
<trkpt lat="26.521311" lon="98.901493">
<time>2014-08-05T01:23:17Z</time></trkpt>
<trkpt lat="26.521371" lon="98.901463">
<time>2014-08-05T01:23:18Z</time></trkpt>
<trkpt lat="26.521621" lon="98.901293">
<time>2014-08-05T01:23:19Z</time></trkpt>
<trkpt lat="26.521942" lon="98.901063">
<time>2014-08-05T01:23:20Z</time></trkpt>
<trkpt lat="26.522082" lon="98.900963">
<time>2014-08-05T01:23:21Z</time></trkpt>
<trkpt lat="26.522352" lon="98.900833">
<time>2014-08-05T01:23:22Z</time></trkpt>
<trkpt lat="26.522452" lon="98.900783">
<time>2014-08-05T01:23:23Z</time></trkpt>
<trkpt lat="26.522512" lon="98.900763">
<time>2014-08-05T01:23:24Z</time></trkpt>
<trkpt lat="26.522572" lon="98.900743">
<time>2014-08-05T01:23:25Z</time></trkpt>
<trkpt lat="26.522632" lon="98.900733">
<time>2014-08-05T01:23:26Z</time></trkpt>
<trkpt lat="26.522772" lon="98.900703">
<time>2014-08-05T01:23:27Z</time></trkpt>
<trkpt lat="26.522832" lon="98.900693">
<time>2014-08-05T01:23:28Z</time></trkpt>
<trkpt lat="26.522902" lon="98.900683">
<time>2014-08-05T01:23:29Z</time></trkpt>
<trkpt lat="26.522952" lon="98.900673">
<time>2014-08-05T01:23:30Z</time></trkpt>
<trkpt lat="26.523012" lon="98.900663">
<time>2014-08-05T01:23:31Z</time></trkpt>
<trkpt lat="26.523062" lon="98.900643">
<time>2014-08-05T01:23:32Z</time></trkpt>
<trkpt lat="26.523122" lon="98.900614">
<time>2014-08-05T01:23:33Z</time></trkpt>
<trkpt lat="26.523172" lon="98.900584">
<time>2014-08-05T01:23:34Z</time></trkpt>
<trkpt lat="26.523222" lon="98.900544">
<time>2014-08-05T01:23:35Z</time></trkpt>
<trkpt lat="26.523312" lon="98.900464">
<time>2014-08-05T01:23:36Z</time></trkpt>
<trkpt lat="26.523362" lon="98.900414">
<time>2014-08-05T01:23:37Z</time></trkpt>
<trkpt lat="26.523432" lon="98.900364">
<time>2014-08-05T01:23:38Z</time></trkpt>
<trkpt lat="26.523482" lon="98.900334">
<time>2014-08-05T01:23:39Z</time></trkpt>
<trkpt lat="26.523532" lon="98.900304">
<time>2014-08-05T01:23:40Z</time></trkpt>
<trkpt lat="26.523662" lon="98.900254">
<time>2014-08-05T01:23:41Z</time></trkpt>
<trkpt lat="26.523862" lon="98.900194">
<time>2014-08-05T01:23:42Z</time></trkpt>
<trkpt lat="26.524082" lon="98.900124">
<time>2014-08-05T01:23:43Z</time></trkpt>
<trkpt lat="26.524192" lon="98.900084">
<time>2014-08-05T01:23:44Z</time></trkpt>
<trkpt lat="26.524262" lon="98.900064">
<time>2014-08-05T01:23:45Z</time></trkpt>
<trkpt lat="26.524322" lon="98.900024">
<time>2014-08-05T01:23:46Z</time></trkpt>
<trkpt lat="26.524452" lon="98.899964">
<time>2014-08-05T01:23:47Z</time></trkpt>
<trkpt lat="26.524622" lon="98.899864">
<time>2014-08-05T01:23:48Z</time></trkpt>
<trkpt lat="26.524752" lon="98.899774">
<time>2014-08-05T01:23:49Z</time></trkpt>
<trkpt lat="26.524832" lon="98.899724">
<time>2014-08-05T01:23:50Z</time></trkpt>
<trkpt lat="26.524882" lon="98.899684">
<time>2014-08-05T01:23:51Z</time></trkpt>
<trkpt lat="26.525082" lon="98.899534">
<time>2014-08-05T01:23:52Z</time></trkpt>
<trkpt lat="26.525152" lon="98.899464">
<time>2014-08-05T01:23:53Z</time></trkpt>
<trkpt lat="26.525222" lon="98.899404">
<time>2014-08-05T01:23:54Z</time></trkpt>
<trkpt lat="26.525322" lon="98.899304">
<time>2014-08-05T01:23:55Z</time></trkpt>
<trkpt lat="26.525542" lon="98.899095">
<time>2014-08-05T01:23:56Z</time></trkpt>
<trkpt lat="26.525762" lon="98.898895">
<time>2014-08-05T01:23:57Z</time></trkpt>
<trkpt lat="26.525862" lon="98.898805">
<time>2014-08-05T01:23:58Z</time></trkpt>
<trkpt lat="26.525972" lon="98.898725">
<time>2014-08-05T01:23:59Z</time></trkpt>
<trkpt lat="26.526112" lon="98.898625">
<time>2014-08-05T01:24:00Z</time></trkpt>
<trkpt lat="26.526242" lon="98.898545">
<time>2014-08-05T01:24:01Z</time></trkpt>
<trkpt lat="26.526342" lon="98.898485">
<time>2014-08-05T01:24:02Z</time></trkpt>
<trkpt lat="26.526492" lon="98.898385">
<time>2014-08-05T01:24:03Z</time></trkpt>
<trkpt lat="26.526612" lon="98.898305">
<time>2014-08-05T01:24:04Z</time></trkpt>
<trkpt lat="26.526702" lon="98.898235">
<time>2014-08-05T01:24:05Z</time></trkpt>
<trkpt lat="26.526712" lon="98.898235">
<time>2014-08-05T01:24:06Z</time></trkpt>
<trkpt lat="26.526772" lon="98.898185">
<time>2014-08-05T01:24:07Z</time></trkpt>
<trkpt lat="26.527022" lon="98.897945">
<time>2014-08-05T01:24:08Z</time></trkpt>
<trkpt lat="26.527162" lon="98.897805">
<time>2014-08-05T01:24:09Z</time></trkpt>
<trkpt lat="26.527272" lon="98.897696">
<time>2014-08-05T01:24:10Z</time></trkpt>
<trkpt lat="26.527412" lon="98.897566">
<time>2014-08-05T01:24:11Z</time></trkpt>
<trkpt lat="26.527542" lon="98.897436">
<time>2014-08-05T01:24:12Z</time></trkpt>
<trkpt lat="26.527662" lon="98.897326">
<time>2014-08-05T01:24:13Z</time></trkpt>
<trkpt lat="26.527812" lon="98.897206">
<time>2014-08-05T01:24:14Z</time></trkpt>
<trkpt lat="26.527933" lon="98.897136">
<time>2014-08-05T01:24:15Z</time></trkpt>
<trkpt lat="26.528023" lon="98.897066">
<time>2014-08-05T01:24:16Z</time></trkpt>
<trkpt lat="26.528283" lon="98.896916">
<time>2014-08-05T01:24:17Z</time></trkpt>
<trkpt lat="26.528383" lon="98.896856">
<time>2014-08-05T01:24:18Z</time></trkpt>
<trkpt lat="26.528443" lon="98.896816">
<time>2014-08-05T01:24:19Z</time></trkpt>
<trkpt lat="26.528643" lon="98.896716">
<time>2014-08-05T01:24:20Z</time></trkpt>
<trkpt lat="26.528813" lon="98.896636">
<time>2014-08-05T01:24:21Z</time></trkpt>
<trkpt lat="26.529013" lon="98.896566">
<time>2014-08-05T01:24:22Z</time></trkpt>
<trkpt lat="26.529113" lon="98.896536">
<time>2014-08-05T01:24:23Z</time></trkpt>
<trkpt lat="26.529233" lon="98.896506">
<time>2014-08-05T01:24:24Z</time></trkpt>
<trkpt lat="26.529513" lon="98.896446">
<time>2014-08-05T01:24:25Z</time></trkpt>
<trkpt lat="26.529763" lon="98.896386">
<time>2014-08-05T01:24:26Z</time></trkpt>
<trkpt lat="26.529963" lon="98.896346">
<time>2014-08-05T01:24:27Z</time></trkpt>
<trkpt lat="26.530133" lon="98.896316">
<time>2014-08-05T01:24:28Z</time></trkpt>
<trkpt lat="26.530363" lon="98.896276">
<time>2014-08-05T01:24:29Z</time></trkpt>
<trkpt lat="26.530603" lon="98.896226">
<time>2014-08-05T01:24:30Z</time></trkpt>
<trkpt lat="26.530703" lon="98.896216">
<time>2014-08-05T01:24:31Z</time></trkpt>
<trkpt lat="26.530723" lon="98.896216">
<time>2014-08-05T01:24:32Z</time></trkpt>
<trkpt lat="26.530823" lon="98.896216">
<time>2014-08-05T01:24:33Z</time></trkpt>
<trkpt lat="26.530873" lon="98.896216">
<time>2014-08-05T01:24:34Z</time></trkpt>
<trkpt lat="26.530923" lon="98.896226">
<time>2014-08-05T01:24:35Z</time></trkpt>
<trkpt lat="26.531013" lon="98.896246">
<time>2014-08-05T01:24:36Z</time></trkpt>
<trkpt lat="26.531183" lon="98.896316">
<time>2014-08-05T01:24:37Z</time></trkpt>
<trkpt lat="26.531283" lon="98.896356">
<time>2014-08-05T01:24:38Z</time></trkpt>
<trkpt lat="26.531333" lon="98.896376">
<time>2014-08-05T01:24:39Z</time></trkpt>
<trkpt lat="26.531373" lon="98.896406">
<time>2014-08-05T01:24:40Z</time></trkpt>
<trkpt lat="26.531413" lon="98.896426">
<time>2014-08-05T01:24:41Z</time></trkpt>
<trkpt lat="26.531463" lon="98.896456">
<time>2014-08-05T01:24:42Z</time></trkpt>
<trkpt lat="26.531503" lon="98.896486">
<time>2014-08-05T01:24:43Z</time></trkpt>
<trkpt lat="26.531533" lon="98.896516">
<time>2014-08-05T01:24:44Z</time></trkpt>
<trkpt lat="26.531603" lon="98.896586">
<time>2014-08-05T01:24:45Z</time></trkpt>
<trkpt lat="26.531763" lon="98.896756">
<time>2014-08-05T01:24:46Z</time></trkpt>
<trkpt lat="26.531943" lon="98.896936">
<time>2014-08-05T01:24:47Z</time></trkpt>
<trkpt lat="26.532203" lon="98.897156">
<time>2014-08-05T01:24:48Z</time></trkpt>
<trkpt lat="26.532253" lon="98.897186">
<time>2014-08-05T01:24:49Z</time></trkpt>
<trkpt lat="26.532293" lon="98.897196">
<time>2014-08-05T01:24:50Z</time></trkpt>
<trkpt lat="26.532323" lon="98.897206">
<time>2014-08-05T01:24:51Z</time></trkpt>
<trkpt lat="26.532363" lon="98.897216">
<time>2014-08-05T01:24:52Z</time></trkpt>
<trkpt lat="26.532393" lon="98.897216">
<time>2014-08-05T01:24:53Z</time></trkpt>
<trkpt lat="26.532433" lon="98.897216">
<time>2014-08-05T01:24:54Z</time></trkpt>
<trkpt lat="26.532484" lon="98.897206">
<time>2014-08-05T01:24:55Z</time></trkpt>
<trkpt lat="26.532524" lon="98.897196">
<time>2014-08-05T01:24:56Z</time></trkpt>
<trkpt lat="26.532544" lon="98.897196">
<time>2014-08-05T01:24:57Z</time></trkpt>
<trkpt lat="26.532604" lon="98.897166">
<time>2014-08-05T01:24:58Z</time></trkpt>
<trkpt lat="26.532664" lon="98.897136">
<time>2014-08-05T01:24:59Z</time></trkpt>
<trkpt lat="26.532774" lon="98.897066">
<time>2014-08-05T01:25:00Z</time></trkpt>
<trkpt lat="26.532864" lon="98.896996">
<time>2014-08-05T01:25:01Z</time></trkpt>
<trkpt lat="26.532944" lon="98.896926">
<time>2014-08-05T01:25:02Z</time></trkpt>
<trkpt lat="26.533054" lon="98.896816">
<time>2014-08-05T01:25:03Z</time></trkpt>
<trkpt lat="26.533254" lon="98.896606">
<time>2014-08-05T01:25:04Z</time></trkpt>
<trkpt lat="26.533334" lon="98.896516">
<time>2014-08-05T01:25:05Z</time></trkpt>
<trkpt lat="26.533374" lon="98.896476">
<time>2014-08-05T01:25:06Z</time></trkpt>
<trkpt lat="26.533424" lon="98.896446">
<time>2014-08-05T01:25:07Z</time></trkpt>
<trkpt lat="26.533464" lon="98.896426">
<time>2014-08-05T01:25:08Z</time></trkpt>
<trkpt lat="26.533514" lon="98.896416">
<time>2014-08-05T01:25:09Z</time></trkpt>
<trkpt lat="26.533564" lon="98.896416">
<time>2014-08-05T01:25:10Z</time></trkpt>
<trkpt lat="26.533654" lon="98.896416">
<time>2014-08-05T01:25:11Z</time></trkpt>
<trkpt lat="26.533724" lon="98.896426">
<time>2014-08-05T01:25:12Z</time></trkpt>
<trkpt lat="26.534194" lon="98.896486">
<time>2014-08-05T01:25:13Z</time></trkpt>
<trkpt lat="26.534324" lon="98.896506">
<time>2014-08-05T01:25:14Z</time></trkpt>
<trkpt lat="26.534434" lon="98.896546">
<time>2014-08-05T01:25:15Z</time></trkpt>
<trkpt lat="26.534574" lon="98.896616">
<time>2014-08-05T01:25:16Z</time></trkpt>
<trkpt lat="26.534844" lon="98.896796">
<time>2014-08-05T01:25:17Z</time></trkpt>
<trkpt lat="26.535004" lon="98.896886">
<time>2014-08-05T01:25:18Z</time></trkpt>
<trkpt lat="26.535594" lon="98.897286">
<time>2014-08-05T01:25:19Z</time></trkpt>
<trkpt lat="26.536174" lon="98.897655">
<time>2014-08-05T01:25:20Z</time></trkpt>
<trkpt lat="26.536424" lon="98.897795">
<time>2014-08-05T01:25:21Z</time></trkpt>
<trkpt lat="26.536845" lon="98.898065">
<time>2014-08-05T01:25:22Z</time></trkpt>
<trkpt lat="26.537355" lon="98.898475">
<time>2014-08-05T01:25:23Z</time></trkpt>
<trkpt lat="26.537585" lon="98.898625">
<time>2014-08-05T01:25:24Z</time></trkpt>
<trkpt lat="26.537945" lon="98.898825">
<time>2014-08-05T01:25:25Z</time></trkpt>
<trkpt lat="26.538065" lon="98.898905">
<time>2014-08-05T01:25:26Z</time></trkpt>
<trkpt lat="26.538195" lon="98.899014">
<time>2014-08-05T01:25:27Z</time></trkpt>
<trkpt lat="26.538315" lon="98.899144">
<time>2014-08-05T01:25:28Z</time></trkpt>
<trkpt lat="26.538415" lon="98.899274">
<time>2014-08-05T01:25:29Z</time></trkpt>
<trkpt lat="26.538645" lon="98.899654">
<time>2014-08-05T01:25:30Z</time></trkpt>
<trkpt lat="26.538745" lon="98.899764">
<time>2014-08-05T01:25:31Z</time></trkpt>
<trkpt lat="26.538815" lon="98.899834">
<time>2014-08-05T01:25:32Z</time></trkpt>
<trkpt lat="26.538905" lon="98.899894">
<time>2014-08-05T01:25:33Z</time></trkpt>
<trkpt lat="26.539005" lon="98.899964">
<time>2014-08-05T01:25:34Z</time></trkpt>
<trkpt lat="26.539115" lon="98.900024">
<time>2014-08-05T01:25:35Z</time></trkpt>
<trkpt lat="26.539415" lon="98.900174">
<time>2014-08-05T01:25:36Z</time></trkpt>
<trkpt lat="26.540025" lon="98.900483">
<time>2014-08-05T01:25:37Z</time></trkpt>
<trkpt lat="26.540386" lon="98.900653">
<time>2014-08-05T01:25:38Z</time></trkpt>
<trkpt lat="26.540726" lon="98.900773">
<time>2014-08-05T01:25:39Z</time></trkpt>
<trkpt lat="26.540936" lon="98.900823">
<time>2014-08-05T01:25:40Z</time></trkpt>
<trkpt lat="26.541096" lon="98.900853">
<time>2014-08-05T01:25:41Z</time></trkpt>
<trkpt lat="26.541296" lon="98.900873">
<time>2014-08-05T01:25:42Z</time></trkpt>
<trkpt lat="26.541716" lon="98.900883">
<time>2014-08-05T01:25:43Z</time></trkpt>
<trkpt lat="26.542006" lon="98.900883">
<time>2014-08-05T01:25:44Z</time></trkpt>
<trkpt lat="26.542116" lon="98.900893">
<time>2014-08-05T01:25:45Z</time></trkpt>
<trkpt lat="26.542296" lon="98.900903">
<time>2014-08-05T01:25:46Z</time></trkpt>
<trkpt lat="26.542496" lon="98.900933">
<time>2014-08-05T01:25:47Z</time></trkpt>
<trkpt lat="26.542736" lon="98.900983">
<time>2014-08-05T01:25:48Z</time></trkpt>
<trkpt lat="26.543036" lon="98.901063">
<time>2014-08-05T01:25:49Z</time></trkpt>
<trkpt lat="26.543216" lon="98.901113">
<time>2014-08-05T01:25:50Z</time></trkpt>
<trkpt lat="26.543346" lon="98.901153">
<time>2014-08-05T01:25:51Z</time></trkpt>
<trkpt lat="26.543526" lon="98.901223">
<time>2014-08-05T01:25:52Z</time></trkpt>
<trkpt lat="26.543656" lon="98.901283">
<time>2014-08-05T01:25:53Z</time></trkpt>
<trkpt lat="26.543786" lon="98.901363">
<time>2014-08-05T01:25:54Z</time></trkpt>
<trkpt lat="26.543886" lon="98.901423">
<time>2014-08-05T01:25:55Z</time></trkpt>
<trkpt lat="26.543966" lon="98.901492">
<time>2014-08-05T01:25:56Z</time></trkpt>
<trkpt lat="26.544076" lon="98.901572">
<time>2014-08-05T01:25:57Z</time></trkpt>
<trkpt lat="26.544596" lon="98.902082">
<time>2014-08-05T01:25:58Z</time></trkpt>
<trkpt lat="26.544726" lon="98.902192">
<time>2014-08-05T01:25:59Z</time></trkpt>
<trkpt lat="26.544776" lon="98.902232">
<time>2014-08-05T01:26:00Z</time></trkpt>
<trkpt lat="26.544826" lon="98.902262">
<time>2014-08-05T01:26:01Z</time></trkpt>
<trkpt lat="26.544876" lon="98.902282">
<time>2014-08-05T01:26:02Z</time></trkpt>
<trkpt lat="26.544916" lon="98.902302">
<time>2014-08-05T01:26:03Z</time></trkpt>
<trkpt lat="26.544956" lon="98.902312">
<time>2014-08-05T01:26:04Z</time></trkpt>
<trkpt lat="26.545006" lon="98.902332">
<time>2014-08-05T01:26:05Z</time></trkpt>
<trkpt lat="26.545056" lon="98.902342">
<time>2014-08-05T01:26:06Z</time></trkpt>
<trkpt lat="26.545106" lon="98.902352">
<time>2014-08-05T01:26:07Z</time></trkpt>
<trkpt lat="26.545256" lon="98.902362">
<time>2014-08-05T01:26:08Z</time></trkpt>
<trkpt lat="26.545937" lon="98.902432">
<time>2014-08-05T01:26:09Z</time></trkpt>
<trkpt lat="26.546527" lon="98.902472">
<time>2014-08-05T01:26:10Z</time></trkpt>
<trkpt lat="26.546857" lon="98.902482">
<time>2014-08-05T01:26:11Z</time></trkpt>
<trkpt lat="26.546997" lon="98.902472">
<time>2014-08-05T01:26:12Z</time></trkpt>
<trkpt lat="26.547067" lon="98.902462">
<time>2014-08-05T01:26:13Z</time></trkpt>
<trkpt lat="26.547147" lon="98.902442">
<time>2014-08-05T01:26:14Z</time></trkpt>
<trkpt lat="26.547207" lon="98.902422">
<time>2014-08-05T01:26:15Z</time></trkpt>
<trkpt lat="26.547257" lon="98.902392">
<time>2014-08-05T01:26:16Z</time></trkpt>
<trkpt lat="26.547327" lon="98.902352">
<time>2014-08-05T01:26:17Z</time></trkpt>
<trkpt lat="26.547507" lon="98.902232">
<time>2014-08-05T01:26:18Z</time></trkpt>
<trkpt lat="26.547617" lon="98.902152">
<time>2014-08-05T01:26:19Z</time></trkpt>
<trkpt lat="26.547657" lon="98.902132">
<time>2014-08-05T01:26:20Z</time></trkpt>
<trkpt lat="26.547707" lon="98.902102">
<time>2014-08-05T01:26:21Z</time></trkpt>
<trkpt lat="26.547767" lon="98.902082">
<time>2014-08-05T01:26:22Z</time></trkpt>
<trkpt lat="26.547827" lon="98.902062">
<time>2014-08-05T01:26:23Z</time></trkpt>
<trkpt lat="26.547877" lon="98.902052">
<time>2014-08-05T01:26:24Z</time></trkpt>
<trkpt lat="26.547927" lon="98.902042">
<time>2014-08-05T01:26:25Z</time></trkpt>
<trkpt lat="26.547957" lon="98.902042">
<time>2014-08-05T01:26:26Z</time></trkpt>
<trkpt lat="26.548207" lon="98.902052">
<time>2014-08-05T01:26:27Z</time></trkpt>
<trkpt lat="26.548477" lon="98.902052">
<time>2014-08-05T01:26:28Z</time></trkpt>
<trkpt lat="26.548787" lon="98.902012">
<time>2014-08-05T01:26:29Z</time></trkpt>
<trkpt lat="26.549097" lon="98.901952">
<time>2014-08-05T01:26:30Z</time></trkpt>
<trkpt lat="26.549417" lon="98.901922">
<time>2014-08-05T01:26:31Z</time></trkpt>
<trkpt lat="26.549727" lon="98.901902">
<time>2014-08-05T01:26:32Z</time></trkpt>
<trkpt lat="26.549867" lon="98.901892">
<time>2014-08-05T01:26:33Z</time></trkpt>
<trkpt lat="26.550107" lon="98.901902">
<time>2014-08-05T01:26:34Z</time></trkpt>
<trkpt lat="26.550257" lon="98.901922">
<time>2014-08-05T01:26:35Z</time></trkpt>
<trkpt lat="26.550437" lon="98.902002">
<time>2014-08-05T01:26:36Z</time></trkpt>
<trkpt lat="26.550598" lon="98.902082">
<time>2014-08-05T01:26:37Z</time></trkpt>
<trkpt lat="26.550648" lon="98.902112">
<time>2014-08-05T01:26:38Z</time></trkpt>
<trkpt lat="26.550838" lon="98.902192">
<time>2014-08-05T01:26:39Z</time></trkpt>
<trkpt lat="26.550988" lon="98.902262">
<time>2014-08-05T01:26:40Z</time></trkpt>
<trkpt lat="26.551098" lon="98.902312">
<time>2014-08-05T01:26:41Z</time></trkpt>
<trkpt lat="26.551298" lon="98.902422">
<time>2014-08-05T01:26:42Z</time></trkpt>
<trkpt lat="26.551448" lon="98.902511">
<time>2014-08-05T01:26:43Z</time></trkpt>
<trkpt lat="26.551608" lon="98.902621">
<time>2014-08-05T01:26:44Z</time></trkpt>
<trkpt lat="26.551658" lon="98.902651">
<time>2014-08-05T01:26:45Z</time></trkpt>
<trkpt lat="26.551678" lon="98.902671">
<time>2014-08-05T01:26:46Z</time></trkpt>
<trkpt lat="26.551708" lon="98.902681">
<time>2014-08-05T01:26:47Z</time></trkpt>
<trkpt lat="26.551738" lon="98.902691">
<time>2014-08-05T01:26:48Z</time></trkpt>
<trkpt lat="26.551758" lon="98.902691">
<time>2014-08-05T01:26:49Z</time></trkpt>
<trkpt lat="26.551818" lon="98.902701">
<time>2014-08-05T01:26:50Z</time></trkpt>
<trkpt lat="26.551848" lon="98.902701">
<time>2014-08-05T01:26:51Z</time></trkpt>
<trkpt lat="26.551888" lon="98.902701">
<time>2014-08-05T01:26:52Z</time></trkpt>
<trkpt lat="26.551918" lon="98.902691">
<time>2014-08-05T01:26:53Z</time></trkpt>
<trkpt lat="26.551978" lon="98.902681">
<time>2014-08-05T01:26:54Z</time></trkpt>
<trkpt lat="26.552108" lon="98.902641">
<time>2014-08-05T01:26:55Z</time></trkpt>
<trkpt lat="26.552278" lon="98.902591">
<time>2014-08-05T01:26:56Z</time></trkpt>
<trkpt lat="26.552348" lon="98.902571">
<time>2014-08-05T01:26:57Z</time></trkpt>
<trkpt lat="26.552438" lon="98.902551">
<time>2014-08-05T01:26:58Z</time></trkpt>
<trkpt lat="26.552508" lon="98.902551">
<time>2014-08-05T01:26:59Z</time></trkpt>
<trkpt lat="26.552578" lon="98.902551">
<time>2014-08-05T01:27:00Z</time></trkpt>
<trkpt lat="26.552668" lon="98.902551">
<time>2014-08-05T01:27:01Z</time></trkpt>
<trkpt lat="26.552808" lon="98.902561">
<time>2014-08-05T01:27:02Z</time></trkpt>
<trkpt lat="26.552848" lon="98.902571">
<time>2014-08-05T01:27:03Z</time></trkpt>
<trkpt lat="26.552898" lon="98.902591">
<time>2014-08-05T01:27:04Z</time></trkpt>
<trkpt lat="26.552948" lon="98.902611">
<time>2014-08-05T01:27:05Z</time></trkpt>
<trkpt lat="26.552998" lon="98.902641">
<time>2014-08-05T01:27:06Z</time></trkpt>
<trkpt lat="26.553048" lon="98.902671">
<time>2014-08-05T01:27:07Z</time></trkpt>
<trkpt lat="26.553098" lon="98.902711">
<time>2014-08-05T01:27:08Z</time></trkpt>
<trkpt lat="26.553198" lon="98.902801">
<time>2014-08-05T01:27:09Z</time></trkpt>
<trkpt lat="26.553218" lon="98.902821">
<time>2014-08-05T01:27:10Z</time></trkpt>
<trkpt lat="26.553248" lon="98.902841">
<time>2014-08-05T01:27:11Z</time></trkpt>
<trkpt lat="26.553278" lon="98.902851">
<time>2014-08-05T01:27:12Z</time></trkpt>
<trkpt lat="26.553298" lon="98.902861">
<time>2014-08-05T01:27:13Z</time></trkpt>
<trkpt lat="26.553318" lon="98.902861">
<time>2014-08-05T01:27:14Z</time></trkpt>
<trkpt lat="26.553338" lon="98.902861">
<time>2014-08-05T01:27:15Z</time></trkpt>
<trkpt lat="26.553358" lon="98.902861">
<time>2014-08-05T01:27:16Z</time></trkpt>
<trkpt lat="26.553378" lon="98.902861">
<time>2014-08-05T01:27:17Z</time></trkpt>
<trkpt lat="26.553398" lon="98.902861">
<time>2014-08-05T01:27:18Z</time></trkpt>
<trkpt lat="26.553418" lon="98.902851">
<time>2014-08-05T01:27:19Z</time></trkpt>
<trkpt lat="26.553438" lon="98.902841">
<time>2014-08-05T01:27:20Z</time></trkpt>
<trkpt lat="26.553498" lon="98.902821">
<time>2014-08-05T01:27:21Z</time></trkpt>
<trkpt lat="26.553668" lon="98.902721">
<time>2014-08-05T01:27:22Z</time></trkpt>
<trkpt lat="26.553758" lon="98.902681">
<time>2014-08-05T01:27:23Z</time></trkpt>
<trkpt lat="26.553828" lon="98.902651">
<time>2014-08-05T01:27:24Z</time></trkpt>
<trkpt lat="26.553868" lon="98.902641">
<time>2014-08-05T01:27:25Z</time></trkpt>
<trkpt lat="26.553908" lon="98.902631">
<time>2014-08-05T01:27:26Z</time></trkpt>
<trkpt lat="26.553958" lon="98.902631">
<time>2014-08-05T01:27:27Z</time></trkpt>
<trkpt lat="26.554248" lon="98.902631">
<time>2014-08-05T01:27:28Z</time></trkpt>
<trkpt lat="26.554378" lon="98.902631">
<time>2014-08-05T01:27:29Z</time></trkpt>
<trkpt lat="26.554638" lon="98.902601">
<time>2014-08-05T01:27:30Z</time></trkpt>
<trkpt lat="26.554898" lon="98.902581">
<time>2014-08-05T01:27:31Z</time></trkpt>
<trkpt lat="26.555078" lon="98.902571">
<time>2014-08-05T01:27:32Z</time></trkpt>
<trkpt lat="26.555138" lon="98.902571">
<time>2014-08-05T01:27:33Z</time></trkpt>
<trkpt lat="26.555208" lon="98.902571">
<time>2014-08-05T01:27:34Z</time></trkpt>
<trkpt lat="26.555298" lon="98.902591">
<time>2014-08-05T01:27:35Z</time></trkpt>
<trkpt lat="26.555548" lon="98.902641">
<time>2014-08-05T01:27:36Z</time></trkpt>
<trkpt lat="26.555878" lon="98.902711">
<time>2014-08-05T01:27:37Z</time></trkpt>
<trkpt lat="26.556389" lon="98.902821">
<time>2014-08-05T01:27:38Z</time></trkpt>
<trkpt lat="26.556589" lon="98.902871">
<time>2014-08-05T01:27:39Z</time></trkpt>
<trkpt lat="26.557199" lon="98.903041">
<time>2014-08-05T01:27:40Z</time></trkpt>
<trkpt lat="26.557839" lon="98.903221">
<time>2014-08-05T01:27:41Z</time></trkpt>
<trkpt lat="26.558459" lon="98.903411">
<time>2014-08-05T01:27:42Z</time></trkpt>
<trkpt lat="26.558929" lon="98.90358">
<time>2014-08-05T01:27:43Z</time></trkpt>
<trkpt lat="26.559239" lon="98.9037">
<time>2014-08-05T01:27:44Z</time></trkpt>
<trkpt lat="26.559399" lon="98.90375">
<time>2014-08-05T01:27:45Z</time></trkpt>
<trkpt lat="26.559569" lon="98.90379">
<time>2014-08-05T01:27:46Z</time></trkpt>
<trkpt lat="26.559859" lon="98.90385">
<time>2014-08-05T01:27:47Z</time></trkpt>
<trkpt lat="26.560209" lon="98.90391">
<time>2014-08-05T01:27:48Z</time></trkpt>
<trkpt lat="26.560489" lon="98.90395">
<time>2014-08-05T01:27:49Z</time></trkpt>
<trkpt lat="26.560769" lon="98.90402">
<time>2014-08-05T01:27:50Z</time></trkpt>
<trkpt lat="26.560869" lon="98.90404">
<time>2014-08-05T01:27:51Z</time></trkpt>
<trkpt lat="26.560959" lon="98.90406">
<time>2014-08-05T01:27:52Z</time></trkpt>
<trkpt lat="26.561039" lon="98.90407">
<time>2014-08-05T01:27:53Z</time></trkpt>
<trkpt lat="26.561119" lon="98.90407">
<time>2014-08-05T01:27:54Z</time></trkpt>
<trkpt lat="26.561209" lon="98.90408">
<time>2014-08-05T01:27:55Z</time></trkpt>
<trkpt lat="26.561329" lon="98.90408">
<time>2014-08-05T01:27:56Z</time></trkpt>
<trkpt lat="26.561479" lon="98.90406">
<time>2014-08-05T01:27:57Z</time></trkpt>
<trkpt lat="26.561709" lon="98.90405">
<time>2014-08-05T01:27:58Z</time></trkpt>
<trkpt lat="26.562379" lon="98.90406">
<time>2014-08-05T01:27:59Z</time></trkpt>
<trkpt lat="26.56325" lon="98.90409">
<time>2014-08-05T01:28:00Z</time></trkpt>
<trkpt lat="26.56337" lon="98.90409">
<time>2014-08-05T01:28:01Z</time></trkpt>
<trkpt lat="26.56365" lon="98.90411">
<time>2014-08-05T01:28:02Z</time></trkpt>
<trkpt lat="26.56378" lon="98.90411">
<time>2014-08-05T01:28:03Z</time></trkpt>
<trkpt lat="26.56389" lon="98.9041">
<time>2014-08-05T01:28:04Z</time></trkpt>
<trkpt lat="26.56398" lon="98.90408">
<time>2014-08-05T01:28:05Z</time></trkpt>
<trkpt lat="26.56433" lon="98.904">
<time>2014-08-05T01:28:06Z</time></trkpt>
<trkpt lat="26.56469" lon="98.90393">
<time>2014-08-05T01:28:07Z</time></trkpt>
<trkpt lat="26.56528" lon="98.90381">
<time>2014-08-05T01:28:08Z</time></trkpt>
<trkpt lat="26.56565" lon="98.90375">
<time>2014-08-05T01:28:09Z</time></trkpt>
<trkpt lat="26.56593" lon="98.9037">
<time>2014-08-05T01:28:10Z</time></trkpt>
<trkpt lat="26.5661" lon="98.90367">
<time>2014-08-05T01:28:11Z</time></trkpt>
<trkpt lat="26.5663" lon="98.90361">
<time>2014-08-05T01:28:12Z</time></trkpt>
<trkpt lat="26.56667" lon="98.90352">
<time>2014-08-05T01:28:13Z</time></trkpt>
<trkpt lat="26.56704" lon="98.90341">
<time>2014-08-05T01:28:14Z</time></trkpt>
<trkpt lat="26.56734" lon="98.90332">
<time>2014-08-05T01:28:15Z</time></trkpt>
<trkpt lat="26.5674" lon="98.90331">
<time>2014-08-05T01:28:16Z</time></trkpt>
<trkpt lat="26.56748" lon="98.90329">
<time>2014-08-05T01:28:17Z</time></trkpt>
<trkpt lat="26.56753" lon="98.90328">
<time>2014-08-05T01:28:18Z</time></trkpt>
<trkpt lat="26.56759" lon="98.903261">
<time>2014-08-05T01:28:19Z</time></trkpt>
<trkpt lat="26.56764" lon="98.903261">
<time>2014-08-05T01:28:20Z</time></trkpt>
<trkpt lat="26.56768" lon="98.903251">
<time>2014-08-05T01:28:21Z</time></trkpt>
<trkpt lat="26.56773" lon="98.903241">
<time>2014-08-05T01:28:22Z</time></trkpt>
<trkpt lat="26.56778" lon="98.903241">
<time>2014-08-05T01:28:23Z</time></trkpt>
<trkpt lat="26.56791" lon="98.903231">
<time>2014-08-05T01:28:24Z</time></trkpt>
<trkpt lat="26.568041" lon="98.903241">
<time>2014-08-05T01:28:25Z</time></trkpt>
<trkpt lat="26.568511" lon="98.90331">
<time>2014-08-05T01:28:26Z</time></trkpt>
<trkpt lat="26.568831" lon="98.90336">
<time>2014-08-05T01:28:27Z</time></trkpt>
<trkpt lat="26.568981" lon="98.90337">
<time>2014-08-05T01:28:28Z</time></trkpt>
<trkpt lat="26.569061" lon="98.90338">
<time>2014-08-05T01:28:29Z</time></trkpt>
<trkpt lat="26.569121" lon="98.90338">
<time>2014-08-05T01:28:30Z</time></trkpt>
<trkpt lat="26.569191" lon="98.90338">
<time>2014-08-05T01:28:31Z</time></trkpt>
<trkpt lat="26.569251" lon="98.90338">
<time>2014-08-05T01:28:32Z</time></trkpt>
<trkpt lat="26.569301" lon="98.90338">
<time>2014-08-05T01:28:33Z</time></trkpt>
<trkpt lat="26.569351" lon="98.90337">
<time>2014-08-05T01:28:34Z</time></trkpt>
<trkpt lat="26.569541" lon="98.90334">
<time>2014-08-05T01:28:35Z</time></trkpt>
<trkpt lat="26.569851" lon="98.90328">
<time>2014-08-05T01:28:36Z</time></trkpt>
<trkpt lat="26.569971" lon="98.90327">
<time>2014-08-05T01:28:37Z</time></trkpt>
<trkpt lat="26.570031" lon="98.90327">
<time>2014-08-05T01:28:38Z</time></trkpt>
<trkpt lat="26.570091" lon="98.90327">
<time>2014-08-05T01:28:39Z</time></trkpt>
<trkpt lat="26.570171" lon="98.90327">
<time>2014-08-05T01:28:40Z</time></trkpt>
<trkpt lat="26.570251" lon="98.90328">
<time>2014-08-05T01:28:41Z</time></trkpt>
<trkpt lat="26.570331" lon="98.9033">
<time>2014-08-05T01:28:42Z</time></trkpt>
<trkpt lat="26.570581" lon="98.90335">
<time>2014-08-05T01:28:43Z</time></trkpt>
<trkpt lat="26.571111" lon="98.90346">
<time>2014-08-05T01:28:44Z</time></trkpt>
<trkpt lat="26.571461" lon="98.90352">
<time>2014-08-05T01:28:45Z</time></trkpt>
<trkpt lat="26.571861" lon="98.9036">
<time>2014-08-05T01:28:46Z</time></trkpt>
<trkpt lat="26.572301" lon="98.90363">
<time>2014-08-05T01:28:47Z</time></trkpt>
<trkpt lat="26.572681" lon="98.90363">
<time>2014-08-05T01:28:48Z</time></trkpt>
<trkpt lat="26.572711" lon="98.90363">
<time>2014-08-05T01:28:49Z</time></trkpt>
<trkpt lat="26.572731" lon="98.90363">
<time>2014-08-05T01:28:50Z</time></trkpt>
<trkpt lat="26.572761" lon="98.90364">
<time>2014-08-05T01:28:51Z</time></trkpt>
<trkpt lat="26.572781" lon="98.90365">
<time>2014-08-05T01:28:52Z</time></trkpt>
<trkpt lat="26.572801" lon="98.90365">
<time>2014-08-05T01:28:53Z</time></trkpt>
<trkpt lat="26.572821" lon="98.90366">
<time>2014-08-05T01:28:54Z</time></trkpt>
<trkpt lat="26.572841" lon="98.90367">
<time>2014-08-05T01:28:55Z</time></trkpt>
<trkpt lat="26.572861" lon="98.90369">
<time>2014-08-05T01:28:56Z</time></trkpt>
<trkpt lat="26.572881" lon="98.9037">
<time>2014-08-05T01:28:57Z</time></trkpt>
<trkpt lat="26.572901" lon="98.90372">
<time>2014-08-05T01:28:58Z</time></trkpt>
<trkpt lat="26.572921" lon="98.90374">
<time>2014-08-05T01:28:59Z</time></trkpt>
<trkpt lat="26.572941" lon="98.90376">
<time>2014-08-05T01:29:00Z</time></trkpt>
<trkpt lat="26.572981" lon="98.90382">
<time>2014-08-05T01:29:01Z</time></trkpt>
<trkpt lat="26.573011" lon="98.9039">
<time>2014-08-05T01:29:02Z</time></trkpt>
<trkpt lat="26.573051" lon="98.90398">
<time>2014-08-05T01:29:03Z</time></trkpt>
<trkpt lat="26.573081" lon="98.90408">
<time>2014-08-05T01:29:04Z</time></trkpt>
<trkpt lat="26.573151" lon="98.904419">
<time>2014-08-05T01:29:05Z</time></trkpt>
<trkpt lat="26.573191" lon="98.904639">
<time>2014-08-05T01:29:06Z</time></trkpt>
<trkpt lat="26.573201" lon="98.904659">
<time>2014-08-05T01:29:07Z</time></trkpt>
<trkpt lat="26.573211" lon="98.904689">
<time>2014-08-05T01:29:08Z</time></trkpt>
<trkpt lat="26.573221" lon="98.904729">
<time>2014-08-05T01:29:09Z</time></trkpt>
<trkpt lat="26.573241" lon="98.904749">
<time>2014-08-05T01:29:10Z</time></trkpt>
<trkpt lat="26.573251" lon="98.904769">
<time>2014-08-05T01:29:11Z</time></trkpt>
<trkpt lat="26.573271" lon="98.904789">
<time>2014-08-05T01:29:12Z</time></trkpt>
<trkpt lat="26.573281" lon="98.904799">
<time>2014-08-05T01:29:13Z</time></trkpt>
<trkpt lat="26.573301" lon="98.904819">
<time>2014-08-05T01:29:14Z</time></trkpt>
<trkpt lat="26.573321" lon="98.904829">
<time>2014-08-05T01:29:15Z</time></trkpt>
<trkpt lat="26.573361" lon="98.904849">
<time>2014-08-05T01:29:16Z</time></trkpt>
<trkpt lat="26.573411" lon="98.904869">
<time>2014-08-05T01:29:17Z</time></trkpt>
<trkpt lat="26.573461" lon="98.904889">
<time>2014-08-05T01:29:18Z</time></trkpt>
<trkpt lat="26.573511" lon="98.904899">
<time>2014-08-05T01:29:19Z</time></trkpt>
<trkpt lat="26.573541" lon="98.904909">
<time>2014-08-05T01:29:20Z</time></trkpt>
<trkpt lat="26.573591" lon="98.904909">
<time>2014-08-05T01:29:21Z</time></trkpt>
<trkpt lat="26.573611" lon="98.904909">
<time>2014-08-05T01:29:22Z</time></trkpt>
<trkpt lat="26.573631" lon="98.904899">
<time>2014-08-05T01:29:23Z</time></trkpt>
<trkpt lat="26.573651" lon="98.904899">
<time>2014-08-05T01:29:24Z</time></trkpt>
<trkpt lat="26.573661" lon="98.904889">
<time>2014-08-05T01:29:25Z</time></trkpt>
<trkpt lat="26.573691" lon="98.904879">
<time>2014-08-05T01:29:26Z</time></trkpt>
<trkpt lat="26.573721" lon="98.904859">
<time>2014-08-05T01:29:27Z</time></trkpt>
<trkpt lat="26.573751" lon="98.904839">
<time>2014-08-05T01:29:28Z</time></trkpt>
<trkpt lat="26.573771" lon="98.904819">
<time>2014-08-05T01:29:29Z</time></trkpt>
<trkpt lat="26.573801" lon="98.904789">
<time>2014-08-05T01:29:30Z</time></trkpt>
<trkpt lat="26.573831" lon="98.904739">
<time>2014-08-05T01:29:31Z</time></trkpt>
<trkpt lat="26.573961" lon="98.904549">
<time>2014-08-05T01:29:32Z</time></trkpt>
<trkpt lat="26.574021" lon="98.904459">
<time>2014-08-05T01:29:33Z</time></trkpt>
<trkpt lat="26.574081" lon="98.904399">
<time>2014-08-05T01:29:34Z</time></trkpt>
<trkpt lat="26.574141" lon="98.904359">
<time>2014-08-05T01:29:35Z</time></trkpt>
<trkpt lat="26.574211" lon="98.904329">
<time>2014-08-05T01:29:36Z</time></trkpt>
<trkpt lat="26.574281" lon="98.904309">
<time>2014-08-05T01:29:37Z</time></trkpt>
<trkpt lat="26.574391" lon="98.904279">
<time>2014-08-05T01:29:38Z</time></trkpt>
<trkpt lat="26.574461" lon="98.904279">
<time>2014-08-05T01:29:39Z</time></trkpt>
<trkpt lat="26.574551" lon="98.904279">
<time>2014-08-05T01:29:40Z</time></trkpt>
<trkpt lat="26.574631" lon="98.904289">
<time>2014-08-05T01:29:41Z</time></trkpt>
<trkpt lat="26.574751" lon="98.904329">
<time>2014-08-05T01:29:42Z</time></trkpt>
<trkpt lat="26.574861" lon="98.904369">
<time>2014-08-05T01:29:43Z</time></trkpt>
<trkpt lat="26.575012" lon="98.904389">
<time>2014-08-05T01:29:44Z</time></trkpt>
<trkpt lat="26.575212" lon="98.904389">
<time>2014-08-05T01:29:45Z</time></trkpt>
<trkpt lat="26.575352" lon="98.904369">
<time>2014-08-05T01:29:46Z</time></trkpt>
<trkpt lat="26.575462" lon="98.904359">
<time>2014-08-05T01:29:47Z</time></trkpt>
<trkpt lat="26.575602" lon="98.904359">
<time>2014-08-05T01:29:48Z</time></trkpt>
<trkpt lat="26.575682" lon="98.904349">
<time>2014-08-05T01:29:49Z</time></trkpt>
<trkpt lat="26.575752" lon="98.904359">
<time>2014-08-05T01:29:50Z</time></trkpt>
<trkpt lat="26.575832" lon="98.904369">
<time>2014-08-05T01:29:51Z</time></trkpt>
<trkpt lat="26.575942" lon="98.904409">
<time>2014-08-05T01:29:52Z</time></trkpt>
<trkpt lat="26.576072" lon="98.904469">
<time>2014-08-05T01:29:53Z</time></trkpt>
<trkpt lat="26.576302" lon="98.904589">
<time>2014-08-05T01:29:54Z</time></trkpt>
<trkpt lat="26.576472" lon="98.904659">
<time>2014-08-05T01:29:55Z</time></trkpt>
<trkpt lat="26.576572" lon="98.904689">
<time>2014-08-05T01:29:56Z</time></trkpt>
<trkpt lat="26.576702" lon="98.904709">
<time>2014-08-05T01:29:57Z</time></trkpt>
<trkpt lat="26.576802" lon="98.904719">
<time>2014-08-05T01:29:58Z</time></trkpt>
<trkpt lat="26.576962" lon="98.904719">
<time>2014-08-05T01:29:59Z</time></trkpt>
<trkpt lat="26.577092" lon="98.904729">
<time>2014-08-05T01:30:00Z</time></trkpt>
<trkpt lat="26.577372" lon="98.904739">
<time>2014-08-05T01:30:01Z</time></trkpt>
<trkpt lat="26.577672" lon="98.904769">
<time>2014-08-05T01:30:02Z</time></trkpt>
<trkpt lat="26.577812" lon="98.904779">
<time>2014-08-05T01:30:03Z</time></trkpt>
<trkpt lat="26.577942" lon="98.904799">
<time>2014-08-05T01:30:04Z</time></trkpt>
<trkpt lat="26.578252" lon="98.904849">
<time>2014-08-05T01:30:05Z</time></trkpt>
<trkpt lat="26.578442" lon="98.904889">
<time>2014-08-05T01:30:06Z</time></trkpt>
<trkpt lat="26.578662" lon="98.904919">
<time>2014-08-05T01:30:07Z</time></trkpt>
<trkpt lat="26.579162" lon="98.904989">
<time>2014-08-05T01:30:08Z</time></trkpt>
<trkpt lat="26.579512" lon="98.905029">
<time>2014-08-05T01:30:09Z</time></trkpt>
<trkpt lat="26.579932" lon="98.905079">
<time>2014-08-05T01:30:10Z</time></trkpt>
<trkpt lat="26.580112" lon="98.905109">
<time>2014-08-05T01:30:11Z</time></trkpt>
<trkpt lat="26.580412" lon="98.905198">
<time>2014-08-05T01:30:12Z</time></trkpt>
<trkpt lat="26.580652" lon="98.905258">
<time>2014-08-05T01:30:13Z</time></trkpt>
<trkpt lat="26.580802" lon="98.905278">
<time>2014-08-05T01:30:14Z</time></trkpt>
<trkpt lat="26.581102" lon="98.905328">
<time>2014-08-05T01:30:15Z</time></trkpt>
<trkpt lat="26.581442" lon="98.905368">
<time>2014-08-05T01:30:16Z</time></trkpt>
<trkpt lat="26.581792" lon="98.905408">
<time>2014-08-05T01:30:17Z</time></trkpt>
<trkpt lat="26.582142" lon="98.905468">
<time>2014-08-05T01:30:18Z</time></trkpt>
<trkpt lat="26.582282" lon="98.905518">
<time>2014-08-05T01:30:19Z</time></trkpt>
<trkpt lat="26.582412" lon="98.905558">
<time>2014-08-05T01:30:20Z</time></trkpt>
<trkpt lat="26.582712" lon="98.905688">
<time>2014-08-05T01:30:21Z</time></trkpt>
<trkpt lat="26.583022" lon="98.905798">
<time>2014-08-05T01:30:22Z</time></trkpt>
<trkpt lat="26.583242" lon="98.905848">
<time>2014-08-05T01:30:23Z</time></trkpt>
<trkpt lat="26.583363" lon="98.905878">
<time>2014-08-05T01:30:24Z</time></trkpt>
<trkpt lat="26.583513" lon="98.905918">
<time>2014-08-05T01:30:25Z</time></trkpt>
<trkpt lat="26.583893" lon="98.906008">
<time>2014-08-05T01:30:26Z</time></trkpt>
<trkpt lat="26.584213" lon="98.906067">
<time>2014-08-05T01:30:27Z</time></trkpt>
<trkpt lat="26.584513" lon="98.906097">
<time>2014-08-05T01:30:28Z</time></trkpt>
<trkpt lat="26.584733" lon="98.906147">
<time>2014-08-05T01:30:29Z</time></trkpt>
<trkpt lat="26.585063" lon="98.906227">
<time>2014-08-05T01:30:30Z</time></trkpt>
<trkpt lat="26.585343" lon="98.906307">
<time>2014-08-05T01:30:31Z</time></trkpt>
<trkpt lat="26.585683" lon="98.906397">
<time>2014-08-05T01:30:32Z</time></trkpt>
<trkpt lat="26.585863" lon="98.906457">
<time>2014-08-05T01:30:33Z</time></trkpt>
<trkpt lat="26.585973" lon="98.906487">
<time>2014-08-05T01:30:34Z</time></trkpt>
<trkpt lat="26.586073" lon="98.906517">
<time>2014-08-05T01:30:35Z</time></trkpt>
<trkpt lat="26.586213" lon="98.906557">
<time>2014-08-05T01:30:36Z</time></trkpt>
<trkpt lat="26.586313" lon="98.906597">
<time>2014-08-05T01:30:37Z</time></trkpt>
<trkpt lat="26.586413" lon="98.906647">
<time>2014-08-05T01:30:38Z</time></trkpt>
<trkpt lat="26.586503" lon="98.906687">
<time>2014-08-05T01:30:39Z</time></trkpt>
<trkpt lat="26.586793" lon="98.906827">
<time>2014-08-05T01:30:40Z</time></trkpt>
<trkpt lat="26.586923" lon="98.906857">
<time>2014-08-05T01:30:41Z</time></trkpt>
<trkpt lat="26.587323" lon="98.906926">
<time>2014-08-05T01:30:42Z</time></trkpt>
<trkpt lat="26.587373" lon="98.906936">
<time>2014-08-05T01:30:43Z</time></trkpt>
<trkpt lat="26.587403" lon="98.906956">
<time>2014-08-05T01:30:44Z</time></trkpt>
<trkpt lat="26.587433" lon="98.906976">
<time>2014-08-05T01:30:45Z</time></trkpt>
<trkpt lat="26.587453" lon="98.906986">
<time>2014-08-05T01:30:46Z</time></trkpt>
<trkpt lat="26.587483" lon="98.907016">
<time>2014-08-05T01:30:47Z</time></trkpt>
<trkpt lat="26.587493" lon="98.907036">
<time>2014-08-05T01:30:48Z</time></trkpt>
<trkpt lat="26.587513" lon="98.907056">
<time>2014-08-05T01:30:49Z</time></trkpt>
<trkpt lat="26.587533" lon="98.907096">
<time>2014-08-05T01:30:50Z</time></trkpt>
<trkpt lat="26.587543" lon="98.907126">
<time>2014-08-05T01:30:51Z</time></trkpt>
<trkpt lat="26.587543" lon="98.907136">
<time>2014-08-05T01:30:52Z</time></trkpt>
<trkpt lat="26.587543" lon="98.907176">
<time>2014-08-05T01:30:53Z</time></trkpt>
<trkpt lat="26.587543" lon="98.907236">
<time>2014-08-05T01:30:54Z</time></trkpt>
<trkpt lat="26.587513" lon="98.907676">
<time>2014-08-05T01:30:55Z</time></trkpt>
<trkpt lat="26.587493" lon="98.907865">
<time>2014-08-05T01:30:56Z</time></trkpt>
<trkpt lat="26.587503" lon="98.907925">
<time>2014-08-05T01:30:57Z</time></trkpt>
<trkpt lat="26.587503" lon="98.907985">
<time>2014-08-05T01:30:58Z</time></trkpt>
<trkpt lat="26.587523" lon="98.908075">
<time>2014-08-05T01:30:59Z</time></trkpt>
<trkpt lat="26.587533" lon="98.908115">
<time>2014-08-05T01:31:00Z</time></trkpt>
<trkpt lat="26.587543" lon="98.908145">
<time>2014-08-05T01:31:01Z</time></trkpt>
<trkpt lat="26.587563" lon="98.908185">
<time>2014-08-05T01:31:02Z</time></trkpt>
<trkpt lat="26.587593" lon="98.908235">
<time>2014-08-05T01:31:03Z</time></trkpt>
<trkpt lat="26.587872" lon="98.908585">
<time>2014-08-05T01:31:04Z</time></trkpt>
<trkpt lat="26.588172" lon="98.909104">
<time>2014-08-05T01:31:05Z</time></trkpt>
<trkpt lat="26.588232" lon="98.909194">
<time>2014-08-05T01:31:06Z</time></trkpt>
<trkpt lat="26.588242" lon="98.909214">
<time>2014-08-05T01:31:07Z</time></trkpt>
<trkpt lat="26.588262" lon="98.909234">
<time>2014-08-05T01:31:08Z</time></trkpt>
<trkpt lat="26.588382" lon="98.909334">
<time>2014-08-05T01:31:09Z</time></trkpt>
<trkpt lat="26.588552" lon="98.909474">
<time>2014-08-05T01:31:10Z</time></trkpt>
<trkpt lat="26.588712" lon="98.909613">
<time>2014-08-05T01:31:11Z</time></trkpt>
<trkpt lat="26.588812" lon="98.909733">
<time>2014-08-05T01:31:12Z</time></trkpt>
<trkpt lat="26.589152" lon="98.910083">
<time>2014-08-05T01:31:13Z</time></trkpt>
<trkpt lat="26.589522" lon="98.910432">
<time>2014-08-05T01:31:14Z</time></trkpt>
<trkpt lat="26.589712" lon="98.910602">
<time>2014-08-05T01:31:15Z</time></trkpt>
<trkpt lat="26.589992" lon="98.910822">
<time>2014-08-05T01:31:16Z</time></trkpt>
<trkpt lat="26.590092" lon="98.910932">
<time>2014-08-05T01:31:17Z</time></trkpt>
<trkpt lat="26.590282" lon="98.911151">
<time>2014-08-05T01:31:18Z</time></trkpt>
<trkpt lat="26.590372" lon="98.911271">
<time>2014-08-05T01:31:19Z</time></trkpt>
<trkpt lat="26.590462" lon="98.911411">
<time>2014-08-05T01:31:20Z</time></trkpt>
<trkpt lat="26.590622" lon="98.911701">
<time>2014-08-05T01:31:21Z</time></trkpt>
<trkpt lat="26.590662" lon="98.911751">
<time>2014-08-05T01:31:22Z</time></trkpt>
<trkpt lat="26.590692" lon="98.91179">
<time>2014-08-05T01:31:23Z</time></trkpt>
<trkpt lat="26.590702" lon="98.9118">
<time>2014-08-05T01:31:24Z</time></trkpt>
<trkpt lat="26.590921" lon="98.91198">
<time>2014-08-05T01:31:25Z</time></trkpt>
<trkpt lat="26.591121" lon="98.91211">
<time>2014-08-05T01:31:26Z</time></trkpt>
<trkpt lat="26.591191" lon="98.91216">
<time>2014-08-05T01:31:27Z</time></trkpt>
<trkpt lat="26.591281" lon="98.91221">
<time>2014-08-05T01:31:28Z</time></trkpt>
<trkpt lat="26.591351" lon="98.91223">
<time>2014-08-05T01:31:29Z</time></trkpt>
<trkpt lat="26.591431" lon="98.91224">
<time>2014-08-05T01:31:30Z</time></trkpt>
<trkpt lat="26.591531" lon="98.91225">
<time>2014-08-05T01:31:31Z</time></trkpt>
<trkpt lat="26.591891" lon="98.91226">
<time>2014-08-05T01:31:32Z</time></trkpt>
<trkpt lat="26.592332" lon="98.91227">
<time>2014-08-05T01:31:33Z</time></trkpt>
<trkpt lat="26.592762" lon="98.91228">
<time>2014-08-05T01:31:34Z</time></trkpt>
<trkpt lat="26.593042" lon="98.91228">
<time>2014-08-05T01:31:35Z</time></trkpt>
<trkpt lat="26.593302" lon="98.91225">
<time>2014-08-05T01:31:36Z</time></trkpt>
<trkpt lat="26.593542" lon="98.91223">
<time>2014-08-05T01:31:37Z</time></trkpt>
<trkpt lat="26.593752" lon="98.9122">
<time>2014-08-05T01:31:38Z</time></trkpt>
<trkpt lat="26.593802" lon="98.91219">
<time>2014-08-05T01:31:39Z</time></trkpt>
<trkpt lat="26.594062" lon="98.91211">
<time>2014-08-05T01:31:40Z</time></trkpt>
<trkpt lat="26.594322" lon="98.91203">
<time>2014-08-05T01:31:41Z</time></trkpt>
<trkpt lat="26.594822" lon="98.91188">
<time>2014-08-05T01:31:42Z</time></trkpt>
<trkpt lat="26.595102" lon="98.91182">
<time>2014-08-05T01:31:43Z</time></trkpt>
<trkpt lat="26.595372" lon="98.91176">
<time>2014-08-05T01:31:44Z</time></trkpt>
<trkpt lat="26.595652" lon="98.911681">
<time>2014-08-05T01:31:45Z</time></trkpt>
<trkpt lat="26.595902" lon="98.911581">
<time>2014-08-05T01:31:46Z</time></trkpt>
<trkpt lat="26.596202" lon="98.911451">
<time>2014-08-05T01:31:47Z</time></trkpt>
<trkpt lat="26.596493" lon="98.911331">
<time>2014-08-05T01:31:48Z</time></trkpt>
<trkpt lat="26.596623" lon="98.911281">
<time>2014-08-05T01:31:49Z</time></trkpt>
<trkpt lat="26.596763" lon="98.911241">
<time>2014-08-05T01:31:50Z</time></trkpt>
<trkpt lat="26.597073" lon="98.911171">
<time>2014-08-05T01:31:51Z</time></trkpt>
<trkpt lat="26.597353" lon="98.911111">
<time>2014-08-05T01:31:52Z</time></trkpt>
<trkpt lat="26.597663" lon="98.911041">
<time>2014-08-05T01:31:53Z</time></trkpt>
<trkpt lat="26.597943" lon="98.910971">
<time>2014-08-05T01:31:54Z</time></trkpt>
<trkpt lat="26.598173" lon="98.910892">
<time>2014-08-05T01:31:55Z</time></trkpt>
<trkpt lat="26.598213" lon="98.910882">
<time>2014-08-05T01:31:56Z</time></trkpt>
<trkpt lat="26.598263" lon="98.910862">
<time>2014-08-05T01:31:57Z</time></trkpt>
<trkpt lat="26.598543" lon="98.910792">
<time>2014-08-05T01:31:58Z</time></trkpt>
<trkpt lat="26.598793" lon="98.910742">
<time>2014-08-05T01:31:59Z</time></trkpt>
<trkpt lat="26.598913" lon="98.910712">
<time>2014-08-05T01:32:00Z</time></trkpt>
<trkpt lat="26.598963" lon="98.910702">
<time>2014-08-05T01:32:01Z</time></trkpt>
<trkpt lat="26.599203" lon="98.910642">
<time>2014-08-05T01:32:02Z</time></trkpt>
<trkpt lat="26.599393" lon="98.910572">
<time>2014-08-05T01:32:03Z</time></trkpt>
<trkpt lat="26.599613" lon="98.910492">
<time>2014-08-05T01:32:04Z</time></trkpt>
<trkpt lat="26.599843" lon="98.910412">
<time>2014-08-05T01:32:05Z</time></trkpt>
<trkpt lat="26.599933" lon="98.910382">
<time>2014-08-05T01:32:06Z</time></trkpt>
<trkpt lat="26.600053" lon="98.910352">
<time>2014-08-05T01:32:07Z</time></trkpt>
<trkpt lat="26.600293" lon="98.910282">
<time>2014-08-05T01:32:08Z</time></trkpt>
<trkpt lat="26.600593" lon="98.910212">
<time>2014-08-05T01:32:09Z</time></trkpt>
<trkpt lat="26.600704" lon="98.910182">
<time>2014-08-05T01:32:10Z</time></trkpt>
<trkpt lat="26.600944" lon="98.910093">
<time>2014-08-05T01:32:11Z</time></trkpt>
<trkpt lat="26.601234" lon="98.910003">
<time>2014-08-05T01:32:12Z</time></trkpt>
<trkpt lat="26.601524" lon="98.909933">
<time>2014-08-05T01:32:13Z</time></trkpt>
<trkpt lat="26.601764" lon="98.909863">
<time>2014-08-05T01:32:14Z</time></trkpt>
<trkpt lat="26.602064" lon="98.909763">
<time>2014-08-05T01:32:15Z</time></trkpt>
<trkpt lat="26.602214" lon="98.909713">
<time>2014-08-05T01:32:16Z</time></trkpt>
<trkpt lat="26.602314" lon="98.909683">
<time>2014-08-05T01:32:17Z</time></trkpt>
<trkpt lat="26.602474" lon="98.909643">
<time>2014-08-05T01:32:18Z</time></trkpt>
<trkpt lat="26.602584" lon="98.909633">
<time>2014-08-05T01:32:19Z</time></trkpt>
<trkpt lat="26.602764" lon="98.909613">
<time>2014-08-05T01:32:20Z</time></trkpt>
<trkpt lat="26.603204" lon="98.909563">
<time>2014-08-05T01:32:21Z</time></trkpt>
<trkpt lat="26.603524" lon="98.909503">
<time>2014-08-05T01:32:22Z</time></trkpt>
<trkpt lat="26.603664" lon="98.909473">
<time>2014-08-05T01:32:23Z</time></trkpt>
<trkpt lat="26.603964" lon="98.909403">
<time>2014-08-05T01:32:24Z</time></trkpt>
<trkpt lat="26.604514" lon="98.909273">
<time>2014-08-05T01:32:25Z</time></trkpt>
<trkpt lat="26.604914" lon="98.909174">
<time>2014-08-05T01:32:26Z</time></trkpt>
<trkpt lat="26.605384" lon="98.909094">
<time>2014-08-05T01:32:27Z</time></trkpt>
<trkpt lat="26.605684" lon="98.909064">
<time>2014-08-05T01:32:28Z</time></trkpt>
<trkpt lat="26.605965" lon="98.909034">
<time>2014-08-05T01:32:29Z</time></trkpt>
<trkpt lat="26.606155" lon="98.909014">
<time>2014-08-05T01:32:30Z</time></trkpt>
<trkpt lat="26.606245" lon="98.909004">
<time>2014-08-05T01:32:31Z</time></trkpt>
<trkpt lat="26.606455" lon="98.908954">
<time>2014-08-05T01:32:32Z</time></trkpt>
<trkpt lat="26.606665" lon="98.908884">
<time>2014-08-05T01:32:33Z</time></trkpt>
<trkpt lat="26.607085" lon="98.908744">
<time>2014-08-05T01:32:34Z</time></trkpt>
<trkpt lat="26.607655" lon="98.908544">
<time>2014-08-05T01:32:35Z</time></trkpt>
<trkpt lat="26.607955" lon="98.908434">
<time>2014-08-05T01:32:36Z</time></trkpt>
<trkpt lat="26.608135" lon="98.908364">
<time>2014-08-05T01:32:37Z</time></trkpt>
<trkpt lat="26.608405" lon="98.908245">
<time>2014-08-05T01:32:38Z</time></trkpt>
<trkpt lat="26.608485" lon="98.908215">
<time>2014-08-05T01:32:39Z</time></trkpt>
<trkpt lat="26.608565" lon="98.908195">
<time>2014-08-05T01:32:40Z</time></trkpt>
<trkpt lat="26.608715" lon="98.908155">
<time>2014-08-05T01:32:41Z</time></trkpt>
<trkpt lat="26.608955" lon="98.908115">
<time>2014-08-05T01:32:42Z</time></trkpt>
<trkpt lat="26.609085" lon="98.908095">
<time>2014-08-05T01:32:43Z</time></trkpt>
<trkpt lat="26.609115" lon="98.908085">
<time>2014-08-05T01:32:44Z</time></trkpt>
<trkpt lat="26.609155" lon="98.908075">
<time>2014-08-05T01:32:45Z</time></trkpt>
<trkpt lat="26.609175" lon="98.908065">
<time>2014-08-05T01:32:46Z</time></trkpt>
<trkpt lat="26.609205" lon="98.908045">
<time>2014-08-05T01:32:47Z</time></trkpt>
<trkpt lat="26.609225" lon="98.908025">
<time>2014-08-05T01:32:48Z</time></trkpt>
<trkpt lat="26.609275" lon="98.907995">
<time>2014-08-05T01:32:49Z</time></trkpt>
<trkpt lat="26.609315" lon="98.907965">
<time>2014-08-05T01:32:50Z</time></trkpt>
<trkpt lat="26.609345" lon="98.907935">
<time>2014-08-05T01:32:51Z</time></trkpt>
<trkpt lat="26.609415" lon="98.907865">
<time>2014-08-05T01:32:52Z</time></trkpt>
<trkpt lat="26.609525" lon="98.907755">
<time>2014-08-05T01:32:53Z</time></trkpt>
<trkpt lat="26.609575" lon="98.907705">
<time>2014-08-05T01:32:54Z</time></trkpt>
<trkpt lat="26.609625" lon="98.907665">
<time>2014-08-05T01:32:55Z</time></trkpt>
<trkpt lat="26.609665" lon="98.907645">
<time>2014-08-05T01:32:56Z</time></trkpt>
<trkpt lat="26.609725" lon="98.907605">
<time>2014-08-05T01:32:57Z</time></trkpt>
<trkpt lat="26.609795" lon="98.907575">
<time>2014-08-05T01:32:58Z</time></trkpt>
<trkpt lat="26.609935" lon="98.907525">
<time>2014-08-05T01:32:59Z</time></trkpt>
<trkpt lat="26.610165" lon="98.907475">
<time>2014-08-05T01:33:00Z</time></trkpt>
<trkpt lat="26.610325" lon="98.907436">
<time>2014-08-05T01:33:01Z</time></trkpt>
<trkpt lat="26.610806" lon="98.907386">
<time>2014-08-05T01:33:02Z</time></trkpt>
<trkpt lat="26.611116" lon="98.907356">
<time>2014-08-05T01:33:03Z</time></trkpt>
<trkpt lat="26.611276" lon="98.907326">
<time>2014-08-05T01:33:04Z</time></trkpt>
<trkpt lat="26.611516" lon="98.907266">
<time>2014-08-05T01:33:05Z</time></trkpt>
<trkpt lat="26.612066" lon="98.907116">
<time>2014-08-05T01:33:06Z</time></trkpt>
<trkpt lat="26.612356" lon="98.907036">
<time>2014-08-05T01:33:07Z</time></trkpt>
<trkpt lat="26.612656" lon="98.906956">
<time>2014-08-05T01:33:08Z</time></trkpt>
<trkpt lat="26.612756" lon="98.906936">
<time>2014-08-05T01:33:09Z</time></trkpt>
<trkpt lat="26.612846" lon="98.906926">
<time>2014-08-05T01:33:10Z</time></trkpt>
<trkpt lat="26.612946" lon="98.906916">
<time>2014-08-05T01:33:11Z</time></trkpt>
<trkpt lat="26.613216" lon="98.906916">
<time>2014-08-05T01:33:12Z</time></trkpt>
<trkpt lat="26.613536" lon="98.906936">
<time>2014-08-05T01:33:13Z</time></trkpt>
<trkpt lat="26.613816" lon="98.906956">
<time>2014-08-05T01:33:14Z</time></trkpt>
<trkpt lat="26.613936" lon="98.906976">
<time>2014-08-05T01:33:15Z</time></trkpt>
<trkpt lat="26.614106" lon="98.907016">
<time>2014-08-05T01:33:16Z</time></trkpt>
<trkpt lat="26.614416" lon="98.907096">
<time>2014-08-05T01:33:17Z</time></trkpt>
<trkpt lat="26.614696" lon="98.907176">
<time>2014-08-05T01:33:18Z</time></trkpt>
<trkpt lat="26.614946" lon="98.907256">
<time>2014-08-05T01:33:19Z</time></trkpt>
<trkpt lat="26.615156" lon="98.907316">
<time>2014-08-05T01:33:20Z</time></trkpt>
<trkpt lat="26.615416" lon="98.907405">
<time>2014-08-05T01:33:21Z</time></trkpt>
<trkpt lat="26.615816" lon="98.907555">
<time>2014-08-05T01:33:22Z</time></trkpt>
<trkpt lat="26.615956" lon="98.907585">
<time>2014-08-05T01:33:23Z</time></trkpt>
<trkpt lat="26.616136" lon="98.907625">
<time>2014-08-05T01:33:24Z</time></trkpt>
<trkpt lat="26.616496" lon="98.907665">
<time>2014-08-05T01:33:25Z</time></trkpt>
<trkpt lat="26.616726" lon="98.907675">
<time>2014-08-05T01:33:26Z</time></trkpt>
<trkpt lat="26.617046" lon="98.907695">
<time>2014-08-05T01:33:27Z</time></trkpt>
<trkpt lat="26.617196" lon="98.907695">
<time>2014-08-05T01:33:28Z</time></trkpt>
<trkpt lat="26.617316" lon="98.907685">
<time>2014-08-05T01:33:29Z</time></trkpt>
<trkpt lat="26.617406" lon="98.907675">
<time>2014-08-05T01:33:30Z</time></trkpt>
<trkpt lat="26.617576" lon="98.907625">
<time>2014-08-05T01:33:31Z</time></trkpt>
<trkpt lat="26.617816" lon="98.907535">
<time>2014-08-05T01:33:32Z</time></trkpt>
<trkpt lat="26.618196" lon="98.907385">
<time>2014-08-05T01:33:33Z</time></trkpt>
<trkpt lat="26.618306" lon="98.907345">
<time>2014-08-05T01:33:34Z</time></trkpt>
<trkpt lat="26.618466" lon="98.907296">
<time>2014-08-05T01:33:35Z</time></trkpt>
<trkpt lat="26.618556" lon="98.907276">
<time>2014-08-05T01:33:36Z</time></trkpt>
<trkpt lat="26.618686" lon="98.907256">
<time>2014-08-05T01:33:37Z</time></trkpt>
<trkpt lat="26.619116" lon="98.907236">
<time>2014-08-05T01:33:38Z</time></trkpt>
<trkpt lat="26.619146" lon="98.907236">
<time>2014-08-05T01:33:39Z</time></trkpt>
<trkpt lat="26.619216" lon="98.907236">
<time>2014-08-05T01:33:40Z</time></trkpt>
<trkpt lat="26.619256" lon="98.907226">
<time>2014-08-05T01:33:41Z</time></trkpt>
<trkpt lat="26.619296" lon="98.907226">
<time>2014-08-05T01:33:42Z</time></trkpt>
<trkpt lat="26.619326" lon="98.907216">
<time>2014-08-05T01:33:43Z</time></trkpt>
<trkpt lat="26.619356" lon="98.907206">
<time>2014-08-05T01:33:44Z</time></trkpt>
<trkpt lat="26.619386" lon="98.907196">
<time>2014-08-05T01:33:45Z</time></trkpt>
<trkpt lat="26.619406" lon="98.907186">
<time>2014-08-05T01:33:46Z</time></trkpt>
<trkpt lat="26.619456" lon="98.907166">
<time>2014-08-05T01:33:47Z</time></trkpt>
<trkpt lat="26.619516" lon="98.907126">
<time>2014-08-05T01:33:48Z</time></trkpt>
<trkpt lat="26.619767" lon="98.906966">
<time>2014-08-05T01:33:49Z</time></trkpt>
<trkpt lat="26.619977" lon="98.906856">
<time>2014-08-05T01:33:50Z</time></trkpt>
<trkpt lat="26.620017" lon="98.906846">
<time>2014-08-05T01:33:51Z</time></trkpt>
<trkpt lat="26.620067" lon="98.906836">
<time>2014-08-05T01:33:52Z</time></trkpt>
<trkpt lat="26.620247" lon="98.906806">
<time>2014-08-05T01:33:53Z</time></trkpt>
<trkpt lat="26.620327" lon="98.906796">
<time>2014-08-05T01:33:54Z</time></trkpt>
<trkpt lat="26.620377" lon="98.906796">
<time>2014-08-05T01:33:55Z</time></trkpt>
<trkpt lat="26.620447" lon="98.906796">
<time>2014-08-05T01:33:56Z</time></trkpt>
<trkpt lat="26.620517" lon="98.906816">
<time>2014-08-05T01:33:57Z</time></trkpt>
<trkpt lat="26.620577" lon="98.906826">
<time>2014-08-05T01:33:58Z</time></trkpt>
<trkpt lat="26.620717" lon="98.906866">
<time>2014-08-05T01:33:59Z</time></trkpt>
<trkpt lat="26.620887" lon="98.906906">
<time>2014-08-05T01:34:00Z</time></trkpt>
<trkpt lat="26.621007" lon="98.906936">
<time>2014-08-05T01:34:01Z</time></trkpt>
<trkpt lat="26.621227" lon="98.906946">
<time>2014-08-05T01:34:02Z</time></trkpt>
<trkpt lat="26.621237" lon="98.906946">
<time>2014-08-05T01:34:03Z</time></trkpt>
<trkpt lat="26.621257" lon="98.906946">
<time>2014-08-05T01:34:04Z</time></trkpt>
<trkpt lat="26.621307" lon="98.906946">
<time>2014-08-05T01:34:05Z</time></trkpt>
<trkpt lat="26.621437" lon="98.906916">
<time>2014-08-05T01:34:06Z</time></trkpt>
<trkpt lat="26.621547" lon="98.906886">
<time>2014-08-05T01:34:07Z</time></trkpt>
<trkpt lat="26.621837" lon="98.906786">
<time>2014-08-05T01:34:08Z</time></trkpt>
<trkpt lat="26.622127" lon="98.906686">
<time>2014-08-05T01:34:09Z</time></trkpt>
<trkpt lat="26.622607" lon="98.906496">
<time>2014-08-05T01:34:10Z</time></trkpt>
<trkpt lat="26.622867" lon="98.906376">
<time>2014-08-05T01:34:11Z</time></trkpt>
<trkpt lat="26.623007" lon="98.906327">
<time>2014-08-05T01:34:12Z</time></trkpt>
<trkpt lat="26.623087" lon="98.906307">
<time>2014-08-05T01:34:13Z</time></trkpt>
<trkpt lat="26.623147" lon="98.906307">
<time>2014-08-05T01:34:14Z</time></trkpt>
<trkpt lat="26.623187" lon="98.906307">
<time>2014-08-05T01:34:15Z</time></trkpt>
<trkpt lat="26.623317" lon="98.906326">
<time>2014-08-05T01:34:16Z</time></trkpt>
<trkpt lat="26.623557" lon="98.906396">
<time>2014-08-05T01:34:17Z</time></trkpt>
<trkpt lat="26.623697" lon="98.906446">
<time>2014-08-05T01:34:18Z</time></trkpt>
<trkpt lat="26.623977" lon="98.906516">
<time>2014-08-05T01:34:19Z</time></trkpt>
<trkpt lat="26.624407" lon="98.906586">
<time>2014-08-05T01:34:20Z</time></trkpt>
<trkpt lat="26.624687" lon="98.906616">
<time>2014-08-05T01:34:21Z</time></trkpt>
<trkpt lat="26.624967" lon="98.906626">
<time>2014-08-05T01:34:22Z</time></trkpt>
<trkpt lat="26.625417" lon="98.906626">
<time>2014-08-05T01:34:23Z</time></trkpt>
<trkpt lat="26.625587" lon="98.906626">
<time>2014-08-05T01:34:24Z</time></trkpt>
<trkpt lat="26.625667" lon="98.906626">
<time>2014-08-05T01:34:25Z</time></trkpt>
<trkpt lat="26.625767" lon="98.906646">
<time>2014-08-05T01:34:26Z</time></trkpt>
<trkpt lat="26.625877" lon="98.906676">
<time>2014-08-05T01:34:27Z</time></trkpt>
<trkpt lat="26.626007" lon="98.906706">
<time>2014-08-05T01:34:28Z</time></trkpt>
<trkpt lat="26.626277" lon="98.906796">
<time>2014-08-05T01:34:29Z</time></trkpt>
<trkpt lat="26.626577" lon="98.906866">
<time>2014-08-05T01:34:30Z</time></trkpt>
<trkpt lat="26.626877" lon="98.906916">
<time>2014-08-05T01:34:31Z</time></trkpt>
<trkpt lat="26.626957" lon="98.906926">
<time>2014-08-05T01:34:32Z</time></trkpt>
<trkpt lat="26.627037" lon="98.906916">
<time>2014-08-05T01:34:33Z</time></trkpt>
<trkpt lat="26.627127" lon="98.906906">
<time>2014-08-05T01:34:34Z</time></trkpt>
<trkpt lat="26.627177" lon="98.906886">
<time>2014-08-05T01:34:35Z</time></trkpt>
<trkpt lat="26.627227" lon="98.906866">
<time>2014-08-05T01:34:36Z</time></trkpt>
<trkpt lat="26.627297" lon="98.906816">
<time>2014-08-05T01:34:37Z</time></trkpt>
<trkpt lat="26.627547" lon="98.906636">
<time>2014-08-05T01:34:38Z</time></trkpt>
<trkpt lat="26.627617" lon="98.906596">
<time>2014-08-05T01:34:39Z</time></trkpt>
<trkpt lat="26.627687" lon="98.906566">
<time>2014-08-05T01:34:40Z</time></trkpt>
<trkpt lat="26.627767" lon="98.906556">
<time>2014-08-05T01:34:41Z</time></trkpt>
<trkpt lat="26.627837" lon="98.906546">
<time>2014-08-05T01:34:42Z</time></trkpt>
<trkpt lat="26.627917" lon="98.906566">
<time>2014-08-05T01:34:43Z</time></trkpt>
<trkpt lat="26.627967" lon="98.906596">
<time>2014-08-05T01:34:44Z</time></trkpt>
<trkpt lat="26.628027" lon="98.906626">
<time>2014-08-05T01:34:45Z</time></trkpt>
<trkpt lat="26.628097" lon="98.906676">
<time>2014-08-05T01:34:46Z</time></trkpt>
<trkpt lat="26.628277" lon="98.906836">
<time>2014-08-05T01:34:47Z</time></trkpt>
<trkpt lat="26.628407" lon="98.906946">
<time>2014-08-05T01:34:48Z</time></trkpt>
<trkpt lat="26.628467" lon="98.906996">
<time>2014-08-05T01:34:49Z</time></trkpt>
<trkpt lat="26.628537" lon="98.907026">
<time>2014-08-05T01:34:50Z</time></trkpt>
<trkpt lat="26.628607" lon="98.907056">
<time>2014-08-05T01:34:51Z</time></trkpt>
<trkpt lat="26.628717" lon="98.907086">
<time>2014-08-05T01:34:52Z</time></trkpt>
<trkpt lat="26.628897" lon="98.907116">
<time>2014-08-05T01:34:53Z</time></trkpt>
<trkpt lat="26.629007" lon="98.907116">
<time>2014-08-05T01:34:54Z</time></trkpt>
<trkpt lat="26.629087" lon="98.907126">
<time>2014-08-05T01:34:55Z</time></trkpt>
<trkpt lat="26.629167" lon="98.907116">
<time>2014-08-05T01:34:56Z</time></trkpt>
<trkpt lat="26.629327" lon="98.907086">
<time>2014-08-05T01:34:57Z</time></trkpt>
<trkpt lat="26.629497" lon="98.907066">
<time>2014-08-05T01:34:58Z</time></trkpt>
<trkpt lat="26.629587" lon="98.907046">
<time>2014-08-05T01:34:59Z</time></trkpt>
<trkpt lat="26.629717" lon="98.907036">
<time>2014-08-05T01:35:00Z</time></trkpt>
<trkpt lat="26.629787" lon="98.907046">
<time>2014-08-05T01:35:01Z</time></trkpt>
<trkpt lat="26.629867" lon="98.907056">
<time>2014-08-05T01:35:02Z</time></trkpt>
<trkpt lat="26.629947" lon="98.907076">
<time>2014-08-05T01:35:03Z</time></trkpt>
<trkpt lat="26.630017" lon="98.907106">
<time>2014-08-05T01:35:04Z</time></trkpt>
<trkpt lat="26.630197" lon="98.907175">
<time>2014-08-05T01:35:05Z</time></trkpt>
<trkpt lat="26.630307" lon="98.907215">
<time>2014-08-05T01:35:06Z</time></trkpt>
<trkpt lat="26.630457" lon="98.907245">
<time>2014-08-05T01:35:07Z</time></trkpt>
<trkpt lat="26.630727" lon="98.907275">
<time>2014-08-05T01:35:08Z</time></trkpt>
<trkpt lat="26.631017" lon="98.907315">
<time>2014-08-05T01:35:09Z</time></trkpt>
<trkpt lat="26.631247" lon="98.907325">
<time>2014-08-05T01:35:10Z</time></trkpt>
<trkpt lat="26.631307" lon="98.907325">
<time>2014-08-05T01:35:11Z</time></trkpt>
<trkpt lat="26.631377" lon="98.907315">
<time>2014-08-05T01:35:12Z</time></trkpt>
<trkpt lat="26.631447" lon="98.907305">
<time>2014-08-05T01:35:13Z</time></trkpt>
<trkpt lat="26.631497" lon="98.907285">
<time>2014-08-05T01:35:14Z</time></trkpt>
<trkpt lat="26.631557" lon="98.907265">
<time>2014-08-05T01:35:15Z</time></trkpt>
<trkpt lat="26.631718" lon="98.907215">
<time>2014-08-05T01:35:16Z</time></trkpt>
<trkpt lat="26.631888" lon="98.907135">
<time>2014-08-05T01:35:17Z</time></trkpt>
<trkpt lat="26.632028" lon="98.907076">
<time>2014-08-05T01:35:18Z</time></trkpt>
<trkpt lat="26.632148" lon="98.907026">
<time>2014-08-05T01:35:19Z</time></trkpt>
<trkpt lat="26.632248" lon="98.906986">
<time>2014-08-05T01:35:20Z</time></trkpt>
<trkpt lat="26.632408" lon="98.906916">
<time>2014-08-05T01:35:21Z</time></trkpt>
<trkpt lat="26.632478" lon="98.906886">
<time>2014-08-05T01:35:22Z</time></trkpt>
<trkpt lat="26.632578" lon="98.906836">
<time>2014-08-05T01:35:23Z</time></trkpt>
<trkpt lat="26.632648" lon="98.906806">
<time>2014-08-05T01:35:24Z</time></trkpt>
<trkpt lat="26.632728" lon="98.906746">
<time>2014-08-05T01:35:25Z</time></trkpt>
<trkpt lat="26.632788" lon="98.906716">
<time>2014-08-05T01:35:26Z</time></trkpt>
<trkpt lat="26.632918" lon="98.906596">
<time>2014-08-05T01:35:27Z</time></trkpt>
<trkpt lat="26.633158" lon="98.906406">
<time>2014-08-05T01:35:28Z</time></trkpt>
<trkpt lat="26.633288" lon="98.906306">
<time>2014-08-05T01:35:29Z</time></trkpt>
<trkpt lat="26.633408" lon="98.906236">
<time>2014-08-05T01:35:30Z</time></trkpt>
<trkpt lat="26.633588" lon="98.906157">
<time>2014-08-05T01:35:31Z</time></trkpt>
<trkpt lat="26.633868" lon="98.906007">
<time>2014-08-05T01:35:32Z</time></trkpt>
<trkpt lat="26.634138" lon="98.905877">
<time>2014-08-05T01:35:33Z</time></trkpt>
<trkpt lat="26.634278" lon="98.905807">
<time>2014-08-05T01:35:34Z</time></trkpt>
<trkpt lat="26.634388" lon="98.905757">
<time>2014-08-05T01:35:35Z</time></trkpt>
<trkpt lat="26.634578" lon="98.905667">
<time>2014-08-05T01:35:36Z</time></trkpt>
<trkpt lat="26.634708" lon="98.905617">
<time>2014-08-05T01:35:37Z</time></trkpt>
<trkpt lat="26.634808" lon="98.905567">
<time>2014-08-05T01:35:38Z</time></trkpt>
<trkpt lat="26.634978" lon="98.905477">
<time>2014-08-05T01:35:39Z</time></trkpt>
<trkpt lat="26.635278" lon="98.905307">
<time>2014-08-05T01:35:40Z</time></trkpt>
<trkpt lat="26.635438" lon="98.905217">
<time>2014-08-05T01:35:41Z</time></trkpt>
<trkpt lat="26.635578" lon="98.905128">
<time>2014-08-05T01:35:42Z</time></trkpt>
<trkpt lat="26.635768" lon="98.905008">
<time>2014-08-05T01:35:43Z</time></trkpt>
<trkpt lat="26.635988" lon="98.904848">
<time>2014-08-05T01:35:44Z</time></trkpt>
<trkpt lat="26.636108" lon="98.904748">
<time>2014-08-05T01:35:45Z</time></trkpt>
<trkpt lat="26.636178" lon="98.904688">
<time>2014-08-05T01:35:46Z</time></trkpt>
<trkpt lat="26.636278" lon="98.904588">
<time>2014-08-05T01:35:47Z</time></trkpt>
<trkpt lat="26.636408" lon="98.904438">
<time>2014-08-05T01:35:48Z</time></trkpt>
<trkpt lat="26.636498" lon="98.904358">
<time>2014-08-05T01:35:49Z</time></trkpt>
<trkpt lat="26.636548" lon="98.904308">
<time>2014-08-05T01:35:50Z</time></trkpt>
<trkpt lat="26.636588" lon="98.904278">
<time>2014-08-05T01:35:51Z</time></trkpt>
<trkpt lat="26.636678" lon="98.904228">
<time>2014-08-05T01:35:52Z</time></trkpt>
<trkpt lat="26.636808" lon="98.904168">
<time>2014-08-05T01:35:53Z</time></trkpt>
<trkpt lat="26.637048" lon="98.904059">
<time>2014-08-05T01:35:54Z</time></trkpt>
<trkpt lat="26.637329" lon="98.903949">
<time>2014-08-05T01:35:55Z</time></trkpt>
<trkpt lat="26.637389" lon="98.903929">
<time>2014-08-05T01:35:56Z</time></trkpt>
<trkpt lat="26.637439" lon="98.903919">
<time>2014-08-05T01:35:57Z</time></trkpt>
<trkpt lat="26.637489" lon="98.903909">
<time>2014-08-05T01:35:58Z</time></trkpt>
<trkpt lat="26.637519" lon="98.903909">
<time>2014-08-05T01:35:59Z</time></trkpt>
<trkpt lat="26.637559" lon="98.903899">
<time>2014-08-05T01:36:00Z</time></trkpt>
<trkpt lat="26.637659" lon="98.903899">
<time>2014-08-05T01:36:01Z</time></trkpt>
<trkpt lat="26.637759" lon="98.903889">
<time>2014-08-05T01:36:02Z</time></trkpt>
<trkpt lat="26.637959" lon="98.903879">
<time>2014-08-05T01:36:03Z</time></trkpt>
<trkpt lat="26.637989" lon="98.903879">
<time>2014-08-05T01:36:04Z</time></trkpt>
<trkpt lat="26.638039" lon="98.903859">
<time>2014-08-05T01:36:05Z</time></trkpt>
<trkpt lat="26.638079" lon="98.903849">
<time>2014-08-05T01:36:06Z</time></trkpt>
<trkpt lat="26.638109" lon="98.903839">
<time>2014-08-05T01:36:07Z</time></trkpt>
<trkpt lat="26.638149" lon="98.903819">
<time>2014-08-05T01:36:08Z</time></trkpt>
<trkpt lat="26.638169" lon="98.903809">
<time>2014-08-05T01:36:09Z</time></trkpt>
<trkpt lat="26.638219" lon="98.903779">
<time>2014-08-05T01:36:10Z</time></trkpt>
<trkpt lat="26.638249" lon="98.903759">
<time>2014-08-05T01:36:11Z</time></trkpt>
<trkpt lat="26.638309" lon="98.903699">
<time>2014-08-05T01:36:12Z</time></trkpt>
<trkpt lat="26.638429" lon="98.903589">
<time>2014-08-05T01:36:13Z</time></trkpt>
<trkpt lat="26.638529" lon="98.903489">
<time>2014-08-05T01:36:14Z</time></trkpt>
<trkpt lat="26.638639" lon="98.903399">
<time>2014-08-05T01:36:15Z</time></trkpt>
<trkpt lat="26.638679" lon="98.903369">
<time>2014-08-05T01:36:16Z</time></trkpt>
<trkpt lat="26.638739" lon="98.903329">
<time>2014-08-05T01:36:17Z</time></trkpt>
<trkpt lat="26.638799" lon="98.903299">
<time>2014-08-05T01:36:18Z</time></trkpt>
<trkpt lat="26.638859" lon="98.903279">
<time>2014-08-05T01:36:19Z</time></trkpt>
<trkpt lat="26.638939" lon="98.903269">
<time>2014-08-05T01:36:20Z</time></trkpt>
<trkpt lat="26.638989" lon="98.903259">
<time>2014-08-05T01:36:21Z</time></trkpt>
<trkpt lat="26.639049" lon="98.903269">
<time>2014-08-05T01:36:22Z</time></trkpt>
<trkpt lat="26.639099" lon="98.903269">
<time>2014-08-05T01:36:23Z</time></trkpt>
<trkpt lat="26.639189" lon="98.903289">
<time>2014-08-05T01:36:24Z</time></trkpt>
<trkpt lat="26.639329" lon="98.903329">
<time>2014-08-05T01:36:25Z</time></trkpt>
<trkpt lat="26.639419" lon="98.903349">
<time>2014-08-05T01:36:26Z</time></trkpt>
<trkpt lat="26.639559" lon="98.903349">
<time>2014-08-05T01:36:27Z</time></trkpt>
<trkpt lat="26.639659" lon="98.903329">
<time>2014-08-05T01:36:28Z</time></trkpt>
<trkpt lat="26.639879" lon="98.903289">
<time>2014-08-05T01:36:29Z</time></trkpt>
<trkpt lat="26.639959" lon="98.903279">
<time>2014-08-05T01:36:30Z</time></trkpt>
<trkpt lat="26.640039" lon="98.903249">
<time>2014-08-05T01:36:31Z</time></trkpt>
<trkpt lat="26.640139" lon="98.903209">
<time>2014-08-05T01:36:32Z</time></trkpt>
<trkpt lat="26.640209" lon="98.903179">
<time>2014-08-05T01:36:33Z</time></trkpt>
<trkpt lat="26.640309" lon="98.903119">
<time>2014-08-05T01:36:34Z</time></trkpt>
<trkpt lat="26.640439" lon="98.903019">
<time>2014-08-05T01:36:35Z</time></trkpt>
<trkpt lat="26.640529" lon="98.90296">
<time>2014-08-05T01:36:36Z</time></trkpt>
<trkpt lat="26.641009" lon="98.90253">
<time>2014-08-05T01:36:37Z</time></trkpt>
<trkpt lat="26.641429" lon="98.90214">
<time>2014-08-05T01:36:38Z</time></trkpt>
<trkpt lat="26.641499" lon="98.90209">
<time>2014-08-05T01:36:39Z</time></trkpt>
<trkpt lat="26.641629" lon="98.90201">
<time>2014-08-05T01:36:40Z</time></trkpt>
<trkpt lat="26.641779" lon="98.90195">
<time>2014-08-05T01:36:41Z</time></trkpt>
<trkpt lat="26.641949" lon="98.90189">
<time>2014-08-05T01:36:42Z</time></trkpt>
<trkpt lat="26.642109" lon="98.90185">
<time>2014-08-05T01:36:43Z</time></trkpt>
<trkpt lat="26.642359" lon="98.90179">
<time>2014-08-05T01:36:44Z</time></trkpt>
<trkpt lat="26.642849" lon="98.901691">
<time>2014-08-05T01:36:45Z</time></trkpt>
<trkpt lat="26.643089" lon="98.901641">
<time>2014-08-05T01:36:46Z</time></trkpt>
<trkpt lat="26.643249" lon="98.901611">
<time>2014-08-05T01:36:47Z</time></trkpt>
<trkpt lat="26.643309" lon="98.901611">
<time>2014-08-05T01:36:48Z</time></trkpt>
<trkpt lat="26.643359" lon="98.901611">
<time>2014-08-05T01:36:49Z</time></trkpt>
<trkpt lat="26.643409" lon="98.901621">
<time>2014-08-05T01:36:50Z</time></trkpt>
<trkpt lat="26.643439" lon="98.901631">
<time>2014-08-05T01:36:51Z</time></trkpt>
<trkpt lat="26.643479" lon="98.901651">
<time>2014-08-05T01:36:52Z</time></trkpt>
<trkpt lat="26.643519" lon="98.901701">
<time>2014-08-05T01:36:53Z</time></trkpt>
<trkpt lat="26.643609" lon="98.9018">
<time>2014-08-05T01:36:54Z</time></trkpt>
<trkpt lat="26.643679" lon="98.90188">
<time>2014-08-05T01:36:55Z</time></trkpt>
<trkpt lat="26.643729" lon="98.90192">
<time>2014-08-05T01:36:56Z</time></trkpt>
<trkpt lat="26.643769" lon="98.90195">
<time>2014-08-05T01:36:57Z</time></trkpt>
<trkpt lat="26.643839" lon="98.902">
<time>2014-08-05T01:36:58Z</time></trkpt>
<trkpt lat="26.643869" lon="98.90201">
<time>2014-08-05T01:36:59Z</time></trkpt>
<trkpt lat="26.643909" lon="98.90202">
<time>2014-08-05T01:37:00Z</time></trkpt>
<trkpt lat="26.643949" lon="98.90203">
<time>2014-08-05T01:37:01Z</time></trkpt>
<trkpt lat="26.643989" lon="98.90203">
<time>2014-08-05T01:37:02Z</time></trkpt>
<trkpt lat="26.644079" lon="98.90203">
<time>2014-08-05T01:37:03Z</time></trkpt>
<trkpt lat="26.644509" lon="98.902">
<time>2014-08-05T01:37:04Z</time></trkpt>
<trkpt lat="26.644819" lon="98.90198">
<time>2014-08-05T01:37:05Z</time></trkpt>
<trkpt lat="26.645079" lon="98.90194">
<time>2014-08-05T01:37:06Z</time></trkpt>
<trkpt lat="26.645359" lon="98.90189">
<time>2014-08-05T01:37:07Z</time></trkpt>
<trkpt lat="26.645459" lon="98.90189">
<time>2014-08-05T01:37:08Z</time></trkpt>
<trkpt lat="26.645569" lon="98.9019">
<time>2014-08-05T01:37:09Z</time></trkpt>
<trkpt lat="26.645619" lon="98.90192">
<time>2014-08-05T01:37:10Z</time></trkpt>
<trkpt lat="26.645689" lon="98.90195">
<time>2014-08-05T01:37:11Z</time></trkpt>
<trkpt lat="26.645929" lon="98.90213">
<time>2014-08-05T01:37:12Z</time></trkpt>
<trkpt lat="26.646029" lon="98.90219">
<time>2014-08-05T01:37:13Z</time></trkpt>
<trkpt lat="26.646129" lon="98.90223">
<time>2014-08-05T01:37:14Z</time></trkpt>
<trkpt lat="26.646229" lon="98.90225">
<time>2014-08-05T01:37:15Z</time></trkpt>
<trkpt lat="26.646289" lon="98.90226">
<time>2014-08-05T01:37:16Z</time></trkpt>
<trkpt lat="26.646309" lon="98.90227">
<time>2014-08-05T01:37:17Z</time></trkpt>
<trkpt lat="26.646329" lon="98.90226">
<time>2014-08-05T01:37:18Z</time></trkpt>
<trkpt lat="26.646369" lon="98.90226">
<time>2014-08-05T01:37:19Z</time></trkpt>
<trkpt lat="26.646419" lon="98.90226">
<time>2014-08-05T01:37:20Z</time></trkpt>
<trkpt lat="26.646509" lon="98.90224">
<time>2014-08-05T01:37:21Z</time></trkpt>
<trkpt lat="26.646559" lon="98.90222">
<time>2014-08-05T01:37:22Z</time></trkpt>
<trkpt lat="26.646619" lon="98.90219">
<time>2014-08-05T01:37:23Z</time></trkpt>
<trkpt lat="26.646679" lon="98.90216">
<time>2014-08-05T01:37:24Z</time></trkpt>
<trkpt lat="26.646749" lon="98.90212">
<time>2014-08-05T01:37:25Z</time></trkpt>
<trkpt lat="26.646799" lon="98.90207">
<time>2014-08-05T01:37:26Z</time></trkpt>
<trkpt lat="26.646839" lon="98.90202">
<time>2014-08-05T01:37:27Z</time></trkpt>
<trkpt lat="26.646889" lon="98.90196">
<time>2014-08-05T01:37:28Z</time></trkpt>
<trkpt lat="26.646939" lon="98.90188">
<time>2014-08-05T01:37:29Z</time></trkpt>
<trkpt lat="26.646999" lon="98.90176">
<time>2014-08-05T01:37:30Z</time></trkpt>
<trkpt lat="26.647159" lon="98.901431">
<time>2014-08-05T01:37:31Z</time></trkpt>
<trkpt lat="26.647229" lon="98.901341">
<time>2014-08-05T01:37:32Z</time></trkpt>
<trkpt lat="26.647289" lon="98.901261">
<time>2014-08-05T01:37:33Z</time></trkpt>
<trkpt lat="26.647389" lon="98.901181">
<time>2014-08-05T01:37:34Z</time></trkpt>
<trkpt lat="26.647639" lon="98.900971">
<time>2014-08-05T01:37:35Z</time></trkpt>
<trkpt lat="26.647889" lon="98.900801">
<time>2014-08-05T01:37:36Z</time></trkpt>
<trkpt lat="26.647999" lon="98.900751">
<time>2014-08-05T01:37:37Z</time></trkpt>
<trkpt lat="26.648109" lon="98.900711">
<time>2014-08-05T01:37:38Z</time></trkpt>
<trkpt lat="26.648169" lon="98.900701">
<time>2014-08-05T01:37:39Z</time></trkpt>
<trkpt lat="26.648359" lon="98.900681">
<time>2014-08-05T01:37:40Z</time></trkpt>
<trkpt lat="26.648719" lon="98.900651">
<time>2014-08-05T01:37:41Z</time></trkpt>
<trkpt lat="26.648999" lon="98.900631">
<time>2014-08-05T01:37:42Z</time></trkpt>
<trkpt lat="26.649219" lon="98.900641">
<time>2014-08-05T01:37:43Z</time></trkpt>
<trkpt lat="26.649279" lon="98.900641">
<time>2014-08-05T01:37:44Z</time></trkpt>
<trkpt lat="26.649329" lon="98.900651">
<time>2014-08-05T01:37:45Z</time></trkpt>
<trkpt lat="26.649369" lon="98.900671">
<time>2014-08-05T01:37:46Z</time></trkpt>
<trkpt lat="26.649409" lon="98.900681">
<time>2014-08-05T01:37:47Z</time></trkpt>
<trkpt lat="26.649449" lon="98.900711">
<time>2014-08-05T01:37:48Z</time></trkpt>
<trkpt lat="26.649479" lon="98.900731">
<time>2014-08-05T01:37:49Z</time></trkpt>
<trkpt lat="26.649509" lon="98.900761">
<time>2014-08-05T01:37:50Z</time></trkpt>
<trkpt lat="26.649539" lon="98.900791">
<time>2014-08-05T01:37:51Z</time></trkpt>
<trkpt lat="26.649589" lon="98.900861">
<time>2014-08-05T01:37:52Z</time></trkpt>
<trkpt lat="26.649709" lon="98.901061">
<time>2014-08-05T01:37:53Z</time></trkpt>
<trkpt lat="26.649899" lon="98.901341">
<time>2014-08-05T01:37:54Z</time></trkpt>
<trkpt lat="26.650029" lon="98.901521">
<time>2014-08-05T01:37:55Z</time></trkpt>
<trkpt lat="26.650159" lon="98.90169">
<time>2014-08-05T01:37:56Z</time></trkpt>
<trkpt lat="26.650219" lon="98.90174">
<time>2014-08-05T01:37:57Z</time></trkpt>
<trkpt lat="26.650259" lon="98.90178">
<time>2014-08-05T01:37:58Z</time></trkpt>
<trkpt lat="26.650319" lon="98.90182">
<time>2014-08-05T01:37:59Z</time></trkpt>
<trkpt lat="26.650349" lon="98.90184">
<time>2014-08-05T01:38:00Z</time></trkpt>
<trkpt lat="26.650389" lon="98.90186">
<time>2014-08-05T01:38:01Z</time></trkpt>
<trkpt lat="26.650439" lon="98.90188">
<time>2014-08-05T01:38:02Z</time></trkpt>
<trkpt lat="26.650479" lon="98.90189">
<time>2014-08-05T01:38:03Z</time></trkpt>
<trkpt lat="26.650529" lon="98.9019">
<time>2014-08-05T01:38:04Z</time></trkpt>
<trkpt lat="26.650789" lon="98.90196">
<time>2014-08-05T01:38:05Z</time></trkpt>
<trkpt lat="26.651059" lon="98.902">
<time>2014-08-05T01:38:06Z</time></trkpt>
<trkpt lat="26.65125" lon="98.90201">
<time>2014-08-05T01:38:07Z</time></trkpt>
<trkpt lat="26.65135" lon="98.902">
<time>2014-08-05T01:38:08Z</time></trkpt>
<trkpt lat="26.6514" lon="98.902">
<time>2014-08-05T01:38:09Z</time></trkpt>
<trkpt lat="26.65154" lon="98.90197">
<time>2014-08-05T01:38:10Z</time></trkpt>
<trkpt lat="26.65173" lon="98.90192">
<time>2014-08-05T01:38:11Z</time></trkpt>
<trkpt lat="26.65191" lon="98.90184">
<time>2014-08-05T01:38:12Z</time></trkpt>
<trkpt lat="26.65206" lon="98.90178">
<time>2014-08-05T01:38:13Z</time></trkpt>
<trkpt lat="26.65224" lon="98.9017">
<time>2014-08-05T01:38:14Z</time></trkpt>
<trkpt lat="26.65243" lon="98.90162">
<time>2014-08-05T01:38:15Z</time></trkpt>
<trkpt lat="26.65263" lon="98.90156">
<time>2014-08-05T01:38:16Z</time></trkpt>
<trkpt lat="26.65277" lon="98.901531">
<time>2014-08-05T01:38:17Z</time></trkpt>
<trkpt lat="26.65282" lon="98.901531">
<time>2014-08-05T01:38:18Z</time></trkpt>
<trkpt lat="26.65297" lon="98.901531">
<time>2014-08-05T01:38:19Z</time></trkpt>
<trkpt lat="26.65315" lon="98.90155">
<time>2014-08-05T01:38:20Z</time></trkpt>
<trkpt lat="26.65339" lon="98.9016">
<time>2014-08-05T01:38:21Z</time></trkpt>
<trkpt lat="26.65355" lon="98.90164">
<time>2014-08-05T01:38:22Z</time></trkpt>
<trkpt lat="26.65369" lon="98.90166">
<time>2014-08-05T01:38:23Z</time></trkpt>
<trkpt lat="26.65384" lon="98.90169">
<time>2014-08-05T01:38:24Z</time></trkpt>
<trkpt lat="26.65396" lon="98.90171">
<time>2014-08-05T01:38:25Z</time></trkpt>
<trkpt lat="26.65403" lon="98.90173">
<time>2014-08-05T01:38:26Z</time></trkpt>
<trkpt lat="26.65408" lon="98.90174">
<time>2014-08-05T01:38:27Z</time></trkpt>
<trkpt lat="26.65413" lon="98.90175">
<time>2014-08-05T01:38:28Z</time></trkpt>
<trkpt lat="26.65418" lon="98.90176">
<time>2014-08-05T01:38:29Z</time></trkpt>
<trkpt lat="26.65421" lon="98.90176">
<time>2014-08-05T01:38:30Z</time></trkpt>
<trkpt lat="26.65426" lon="98.90177">
<time>2014-08-05T01:38:31Z</time></trkpt>
<trkpt lat="26.6543" lon="98.90177">
<time>2014-08-05T01:38:32Z</time></trkpt>
<trkpt lat="26.65437" lon="98.90179">
<time>2014-08-05T01:38:33Z</time></trkpt>
<trkpt lat="26.65445" lon="98.9018">
<time>2014-08-05T01:38:34Z</time></trkpt>
<trkpt lat="26.6545" lon="98.9018">
<time>2014-08-05T01:38:35Z</time></trkpt>
<trkpt lat="26.65455" lon="98.9018">
<time>2014-08-05T01:38:36Z</time></trkpt>
<trkpt lat="26.65459" lon="98.9018">
<time>2014-08-05T01:38:37Z</time></trkpt>
<trkpt lat="26.65461" lon="98.9018">
<time>2014-08-05T01:38:38Z</time></trkpt>
<trkpt lat="26.65465" lon="98.9018">
<time>2014-08-05T01:38:39Z</time></trkpt>
<trkpt lat="26.65478" lon="98.90181">
<time>2014-08-05T01:38:40Z</time></trkpt>
<trkpt lat="26.65497" lon="98.90181">
<time>2014-08-05T01:38:41Z</time></trkpt>
<trkpt lat="26.65517" lon="98.90182">
<time>2014-08-05T01:38:42Z</time></trkpt>
<trkpt lat="26.65536" lon="98.90183">
<time>2014-08-05T01:38:43Z</time></trkpt>
<trkpt lat="26.65541" lon="98.90183">
<time>2014-08-05T01:38:44Z</time></trkpt>
<trkpt lat="26.65547" lon="98.90183">
<time>2014-08-05T01:38:45Z</time></trkpt>
<trkpt lat="26.65556" lon="98.90183">
<time>2014-08-05T01:38:46Z</time></trkpt>
<trkpt lat="26.65563" lon="98.90182">
<time>2014-08-05T01:38:47Z</time></trkpt>
<trkpt lat="26.65568" lon="98.9018">
<time>2014-08-05T01:38:48Z</time></trkpt>
<trkpt lat="26.65581" lon="98.90178">
<time>2014-08-05T01:38:49Z</time></trkpt>
<trkpt lat="26.65594" lon="98.90176">
<time>2014-08-05T01:38:50Z</time></trkpt>
<trkpt lat="26.65608" lon="98.90175">
<time>2014-08-05T01:38:51Z</time></trkpt>
<trkpt lat="26.65624" lon="98.90173">
<time>2014-08-05T01:38:52Z</time></trkpt>
<trkpt lat="26.65645" lon="98.90173">
<time>2014-08-05T01:38:53Z</time></trkpt>
<trkpt lat="26.65663" lon="98.90174">
<time>2014-08-05T01:38:54Z</time></trkpt>
<trkpt lat="26.65682" lon="98.90176">
<time>2014-08-05T01:38:55Z</time></trkpt>
<trkpt lat="26.65695" lon="98.90179">
<time>2014-08-05T01:38:56Z</time></trkpt>
<trkpt lat="26.65726" lon="98.90183">
<time>2014-08-05T01:38:57Z</time></trkpt>
<trkpt lat="26.65745" lon="98.90184">
<time>2014-08-05T01:38:58Z</time></trkpt>
<trkpt lat="26.6577" lon="98.90184">
<time>2014-08-05T01:38:59Z</time></trkpt>
<trkpt lat="26.6579" lon="98.90183">
<time>2014-08-05T01:39:00Z</time></trkpt>
<trkpt lat="26.65805" lon="98.90182">
<time>2014-08-05T01:39:01Z</time></trkpt>
<trkpt lat="26.65819" lon="98.90179">
<time>2014-08-05T01:39:02Z</time></trkpt>
<trkpt lat="26.65829" lon="98.90177">
<time>2014-08-05T01:39:03Z</time></trkpt>
<trkpt lat="26.65848" lon="98.9017">
<time>2014-08-05T01:39:04Z</time></trkpt>
<trkpt lat="26.65867" lon="98.90163">
<time>2014-08-05T01:39:05Z</time></trkpt>
<trkpt lat="26.6588" lon="98.90159">
<time>2014-08-05T01:39:06Z</time></trkpt>
<trkpt lat="26.65893" lon="98.90155">
<time>2014-08-05T01:39:07Z</time></trkpt>
<trkpt lat="26.65905" lon="98.90153">
<time>2014-08-05T01:39:08Z</time></trkpt>
<trkpt lat="26.65915" lon="98.90152">
<time>2014-08-05T01:39:09Z</time></trkpt>
<trkpt lat="26.6594" lon="98.90152">
<time>2014-08-05T01:39:10Z</time></trkpt>
<trkpt lat="26.65974" lon="98.90151">
<time>2014-08-05T01:39:11Z</time></trkpt>
<trkpt lat="26.66" lon="98.9015">
<time>2014-08-05T01:39:12Z</time></trkpt>
<trkpt lat="26.66008" lon="98.90149">
<time>2014-08-05T01:39:13Z</time></trkpt>
<trkpt lat="26.66013" lon="98.90149">
<time>2014-08-05T01:39:14Z</time></trkpt>
<trkpt lat="26.66015" lon="98.90149">
<time>2014-08-05T01:39:15Z</time></trkpt>
<trkpt lat="26.66018" lon="98.9015">
<time>2014-08-05T01:39:16Z</time></trkpt>
<trkpt lat="26.66026" lon="98.90151">
<time>2014-08-05T01:39:17Z</time></trkpt>
<trkpt lat="26.66035" lon="98.90152">
<time>2014-08-05T01:39:18Z</time></trkpt>
<trkpt lat="26.66047" lon="98.90155">
<time>2014-08-05T01:39:19Z</time></trkpt>
<trkpt lat="26.6606" lon="98.90158">
<time>2014-08-05T01:39:20Z</time></trkpt>
<trkpt lat="26.66072" lon="98.90162">
<time>2014-08-05T01:39:21Z</time></trkpt>
<trkpt lat="26.66081" lon="98.90164">
<time>2014-08-05T01:39:22Z</time></trkpt>
<trkpt lat="26.66093" lon="98.90165">
<time>2014-08-05T01:39:23Z</time></trkpt>
<trkpt lat="26.66105" lon="98.90166">
<time>2014-08-05T01:39:24Z</time></trkpt>
<trkpt lat="26.66123" lon="98.90165">
<time>2014-08-05T01:39:25Z</time></trkpt>
<trkpt lat="26.66131" lon="98.90164">
<time>2014-08-05T01:39:26Z</time></trkpt>
<trkpt lat="26.66143" lon="98.90162">
<time>2014-08-05T01:39:27Z</time></trkpt>
<trkpt lat="26.66152" lon="98.9016">
<time>2014-08-05T01:39:28Z</time></trkpt>
<trkpt lat="26.66161" lon="98.90158">
<time>2014-08-05T01:39:29Z</time></trkpt>
<trkpt lat="26.6617" lon="98.90155">
<time>2014-08-05T01:39:30Z</time></trkpt>
<trkpt lat="26.66175" lon="98.90153">
<time>2014-08-05T01:39:31Z</time></trkpt>
<trkpt lat="26.66185" lon="98.90149">
<time>2014-08-05T01:39:32Z</time></trkpt>
<trkpt lat="26.66188" lon="98.90147">
<time>2014-08-05T01:39:33Z</time></trkpt>
<trkpt lat="26.66198" lon="98.90142">
<time>2014-08-05T01:39:34Z</time></trkpt>
<trkpt lat="26.66212" lon="98.901341">
<time>2014-08-05T01:39:35Z</time></trkpt>
<trkpt lat="26.66222" lon="98.901281">
<time>2014-08-05T01:39:36Z</time></trkpt>
<trkpt lat="26.66236" lon="98.901211">
<time>2014-08-05T01:39:37Z</time></trkpt>
<trkpt lat="26.66242" lon="98.901181">
<time>2014-08-05T01:39:38Z</time></trkpt>
<trkpt lat="26.66246" lon="98.901161">
<time>2014-08-05T01:39:39Z</time></trkpt>
<trkpt lat="26.66251" lon="98.901151">
<time>2014-08-05T01:39:40Z</time></trkpt>
<trkpt lat="26.66256" lon="98.901141">
<time>2014-08-05T01:39:41Z</time></trkpt>
<trkpt lat="26.66262" lon="98.901131">
<time>2014-08-05T01:39:42Z</time></trkpt>
<trkpt lat="26.66269" lon="98.901121">
<time>2014-08-05T01:39:43Z</time></trkpt>
<trkpt lat="26.66276" lon="98.901121">
<time>2014-08-05T01:39:44Z</time></trkpt>
<trkpt lat="26.66297" lon="98.901121">
<time>2014-08-05T01:39:45Z</time></trkpt>
<trkpt lat="26.66315" lon="98.901111">
<time>2014-08-05T01:39:46Z</time></trkpt>
<trkpt lat="26.6632" lon="98.901111">
<time>2014-08-05T01:39:47Z</time></trkpt>
<trkpt lat="26.66326" lon="98.901101">
<time>2014-08-05T01:39:48Z</time></trkpt>
<trkpt lat="26.66343" lon="98.901061">
<time>2014-08-05T01:39:49Z</time></trkpt>
<trkpt lat="26.66349" lon="98.901051">
<time>2014-08-05T01:39:50Z</time></trkpt>
<trkpt lat="26.66361" lon="98.901031">
<time>2014-08-05T01:39:51Z</time></trkpt>
<trkpt lat="26.66368" lon="98.901031">
<time>2014-08-05T01:39:52Z</time></trkpt>
<trkpt lat="26.66377" lon="98.901031">
<time>2014-08-05T01:39:53Z</time></trkpt>
<trkpt lat="26.66386" lon="98.901031">
<time>2014-08-05T01:39:54Z</time></trkpt>
<trkpt lat="26.66404" lon="98.901041">
<time>2014-08-05T01:39:55Z</time></trkpt>
<trkpt lat="26.66407" lon="98.901041">
<time>2014-08-05T01:39:56Z</time></trkpt>
<trkpt lat="26.66411" lon="98.901041">
<time>2014-08-05T01:39:57Z</time></trkpt>
<trkpt lat="26.66414" lon="98.901041">
<time>2014-08-05T01:39:58Z</time></trkpt>
<trkpt lat="26.66418" lon="98.901031">
<time>2014-08-05T01:39:59Z</time></trkpt>
<trkpt lat="26.66421" lon="98.901031">
<time>2014-08-05T01:40:00Z</time></trkpt>
<trkpt lat="26.66423" lon="98.901021">
<time>2014-08-05T01:40:01Z</time></trkpt>
<trkpt lat="26.66428" lon="98.901001">
<time>2014-08-05T01:40:02Z</time></trkpt>
<trkpt lat="26.6643" lon="98.901001">
<time>2014-08-05T01:40:03Z</time></trkpt>
<trkpt lat="26.66431" lon="98.900991">
<time>2014-08-05T01:40:04Z</time></trkpt>
<trkpt lat="26.66433" lon="98.900981">
<time>2014-08-05T01:40:05Z</time></trkpt>
<trkpt lat="26.66435" lon="98.900971">
<time>2014-08-05T01:40:06Z</time></trkpt>
<trkpt lat="26.66436" lon="98.900961">
<time>2014-08-05T01:40:07Z</time></trkpt>
<trkpt lat="26.66439" lon="98.900951">
<time>2014-08-05T01:40:08Z</time></trkpt>
<trkpt lat="26.66443" lon="98.900911">
<time>2014-08-05T01:40:09Z</time></trkpt>
<trkpt lat="26.66454" lon="98.900811">
<time>2014-08-05T01:40:10Z</time></trkpt>
<trkpt lat="26.66482" lon="98.900521">
<time>2014-08-05T01:40:11Z</time></trkpt>
<trkpt lat="26.66487" lon="98.900471">
<time>2014-08-05T01:40:12Z</time></trkpt>
<trkpt lat="26.66496" lon="98.900411">
<time>2014-08-05T01:40:13Z</time></trkpt>
<trkpt lat="26.66502" lon="98.900371">
<time>2014-08-05T01:40:14Z</time></trkpt>
<trkpt lat="26.66509" lon="98.900341">
<time>2014-08-05T01:40:15Z</time></trkpt>
<trkpt lat="26.66516" lon="98.900311">
<time>2014-08-05T01:40:16Z</time></trkpt>
<trkpt lat="26.66523" lon="98.900301">
<time>2014-08-05T01:40:17Z</time></trkpt>
<trkpt lat="26.66533" lon="98.900281">
<time>2014-08-05T01:40:18Z</time></trkpt>
<trkpt lat="26.6655" lon="98.900251">
<time>2014-08-05T01:40:19Z</time></trkpt>
<trkpt lat="26.66569" lon="98.900231">
<time>2014-08-05T01:40:20Z</time></trkpt>
<trkpt lat="26.66582" lon="98.900231">
<time>2014-08-05T01:40:21Z</time></trkpt>
<trkpt lat="26.66601" lon="98.900241">
<time>2014-08-05T01:40:22Z</time></trkpt>
<trkpt lat="26.66615" lon="98.900251">
<time>2014-08-05T01:40:23Z</time></trkpt>
<trkpt lat="26.66623" lon="98.900261">
<time>2014-08-05T01:40:24Z</time></trkpt>
<trkpt lat="26.66629" lon="98.900251">
<time>2014-08-05T01:40:25Z</time></trkpt>
<trkpt lat="26.66634" lon="98.900251">
<time>2014-08-05T01:40:26Z</time></trkpt>
<trkpt lat="26.66643" lon="98.900231">
<time>2014-08-05T01:40:27Z</time></trkpt>
<trkpt lat="26.66648" lon="98.900221">
<time>2014-08-05T01:40:28Z</time></trkpt>
<trkpt lat="26.66651" lon="98.900211">
<time>2014-08-05T01:40:29Z</time></trkpt>
<trkpt lat="26.66653" lon="98.900201">
<time>2014-08-05T01:40:30Z</time></trkpt>
<trkpt lat="26.66656" lon="98.900191">
<time>2014-08-05T01:40:31Z</time></trkpt>
<trkpt lat="26.66659" lon="98.900181">
<time>2014-08-05T01:40:32Z</time></trkpt>
<trkpt lat="26.66664" lon="98.900161">
<time>2014-08-05T01:40:33Z</time></trkpt>
<trkpt lat="26.66669" lon="98.900141">
<time>2014-08-05T01:40:34Z</time></trkpt>
<trkpt lat="26.66679" lon="98.900101">
<time>2014-08-05T01:40:35Z</time></trkpt>
<trkpt lat="26.66684" lon="98.900091">
<time>2014-08-05T01:40:36Z</time></trkpt>
<trkpt lat="26.66693" lon="98.900071">
<time>2014-08-05T01:40:37Z</time></trkpt>
<trkpt lat="26.66704" lon="98.900061">
<time>2014-08-05T01:40:38Z</time></trkpt>
<trkpt lat="26.66711" lon="98.900061">
<time>2014-08-05T01:40:39Z</time></trkpt>
<trkpt lat="26.66717" lon="98.900061">
<time>2014-08-05T01:40:40Z</time></trkpt>
<trkpt lat="26.66736" lon="98.900071">
<time>2014-08-05T01:40:41Z</time></trkpt>
<trkpt lat="26.66766" lon="98.900091">
<time>2014-08-05T01:40:42Z</time></trkpt>
<trkpt lat="26.66784" lon="98.900091">
<time>2014-08-05T01:40:43Z</time></trkpt>
<trkpt lat="26.66809" lon="98.900071">
<time>2014-08-05T01:40:44Z</time></trkpt>
<trkpt lat="26.66832" lon="98.900041">
<time>2014-08-05T01:40:45Z</time></trkpt>
<trkpt lat="26.66847" lon="98.900021">
<time>2014-08-05T01:40:46Z</time></trkpt>
<trkpt lat="26.66855" lon="98.900011">
<time>2014-08-05T01:40:47Z</time></trkpt>
<trkpt lat="26.66864" lon="98.899981">
<time>2014-08-05T01:40:48Z</time></trkpt>
<trkpt lat="26.66872" lon="98.899951">
<time>2014-08-05T01:40:49Z</time></trkpt>
<trkpt lat="26.66876" lon="98.899931">
<time>2014-08-05T01:40:50Z</time></trkpt>
<trkpt lat="26.6688" lon="98.899922">
<time>2014-08-05T01:40:51Z</time></trkpt>
<trkpt lat="26.66892" lon="98.899852">
<time>2014-08-05T01:40:52Z</time></trkpt>
<trkpt lat="26.66904" lon="98.899792">
<time>2014-08-05T01:40:53Z</time></trkpt>
<trkpt lat="26.66927" lon="98.899672">
<time>2014-08-05T01:40:54Z</time></trkpt>
<trkpt lat="26.66939" lon="98.899622">
<time>2014-08-05T01:40:55Z</time></trkpt>
<trkpt lat="26.6695" lon="98.899582">
<time>2014-08-05T01:40:56Z</time></trkpt>
<trkpt lat="26.66955" lon="98.899572">
<time>2014-08-05T01:40:57Z</time></trkpt>
<trkpt lat="26.66972" lon="98.899562">
<time>2014-08-05T01:40:58Z</time></trkpt>
<trkpt lat="26.66986" lon="98.899562">
<time>2014-08-05T01:40:59Z</time></trkpt>
<trkpt lat="26.6701" lon="98.899572">
<time>2014-08-05T01:41:00Z</time></trkpt>
<trkpt lat="26.67034" lon="98.899582">
<time>2014-08-05T01:41:01Z</time></trkpt>
<trkpt lat="26.67058" lon="98.899622">
<time>2014-08-05T01:41:02Z</time></trkpt>
<trkpt lat="26.6708" lon="98.899642">
<time>2014-08-05T01:41:03Z</time></trkpt>
<trkpt lat="26.67093" lon="98.899632">
<time>2014-08-05T01:41:04Z</time></trkpt>
<trkpt lat="26.67101" lon="98.899622">
<time>2014-08-05T01:41:05Z</time></trkpt>
<trkpt lat="26.67108" lon="98.899602">
<time>2014-08-05T01:41:06Z</time></trkpt>
<trkpt lat="26.67117" lon="98.899552">
<time>2014-08-05T01:41:07Z</time></trkpt>
<trkpt lat="26.67142" lon="98.899392">
<time>2014-08-05T01:41:08Z</time></trkpt>
<trkpt lat="26.67162" lon="98.899272">
<time>2014-08-05T01:41:09Z</time></trkpt>
<trkpt lat="26.67188" lon="98.899172">
<time>2014-08-05T01:41:10Z</time></trkpt>
<trkpt lat="26.6721" lon="98.899092">
<time>2014-08-05T01:41:11Z</time></trkpt>
<trkpt lat="26.67236" lon="98.898982">
<time>2014-08-05T01:41:12Z</time></trkpt>
<trkpt lat="26.67267" lon="98.898862">
<time>2014-08-05T01:41:13Z</time></trkpt>
<trkpt lat="26.67279" lon="98.898822">
<time>2014-08-05T01:41:14Z</time></trkpt>
<trkpt lat="26.67297" lon="98.898772">
<time>2014-08-05T01:41:15Z</time></trkpt>
<trkpt lat="26.67332" lon="98.898712">
<time>2014-08-05T01:41:16Z</time></trkpt>
<trkpt lat="26.67354" lon="98.898672">
<time>2014-08-05T01:41:17Z</time></trkpt>
<trkpt lat="26.67363" lon="98.898662">
<time>2014-08-05T01:41:18Z</time></trkpt>
<trkpt lat="26.67387" lon="98.898612">
<time>2014-08-05T01:41:19Z</time></trkpt>
<trkpt lat="26.67425" lon="98.898532">
<time>2014-08-05T01:41:20Z</time></trkpt>
<trkpt lat="26.67448" lon="98.898492">
<time>2014-08-05T01:41:21Z</time></trkpt>
<trkpt lat="26.6747" lon="98.898432">
<time>2014-08-05T01:41:22Z</time></trkpt>
<trkpt lat="26.67484" lon="98.898392">
<time>2014-08-05T01:41:23Z</time></trkpt>
<trkpt lat="26.67491" lon="98.898372">
<time>2014-08-05T01:41:24Z</time></trkpt>
<trkpt lat="26.6751" lon="98.898283">
<time>2014-08-05T01:41:25Z</time></trkpt>
<trkpt lat="26.67536" lon="98.898143">
<time>2014-08-05T01:41:26Z</time></trkpt>
<trkpt lat="26.67558" lon="98.898053">
<time>2014-08-05T01:41:27Z</time></trkpt>
<trkpt lat="26.67574" lon="98.897993">
<time>2014-08-05T01:41:28Z</time></trkpt>
<trkpt lat="26.67582" lon="98.897983">
<time>2014-08-05T01:41:29Z</time></trkpt>
<trkpt lat="26.67594" lon="98.897963">
<time>2014-08-05T01:41:30Z</time></trkpt>
<trkpt lat="26.67616" lon="98.897943">
<time>2014-08-05T01:41:31Z</time></trkpt>
<trkpt lat="26.67631" lon="98.897933">
<time>2014-08-05T01:41:32Z</time></trkpt>
<trkpt lat="26.67637" lon="98.897933">
<time>2014-08-05T01:41:33Z</time></trkpt>
<trkpt lat="26.67654" lon="98.897933">
<time>2014-08-05T01:41:34Z</time></trkpt>
<trkpt lat="26.67676" lon="98.897943">
<time>2014-08-05T01:41:35Z</time></trkpt>
<trkpt lat="26.67703" lon="98.897953">
<time>2014-08-05T01:41:36Z</time></trkpt>
<trkpt lat="26.67724" lon="98.897953">
<time>2014-08-05T01:41:37Z</time></trkpt>
<trkpt lat="26.67748" lon="98.897933">
<time>2014-08-05T01:41:38Z</time></trkpt>
<trkpt lat="26.67758" lon="98.897913">
<time>2014-08-05T01:41:39Z</time></trkpt>
<trkpt lat="26.67763" lon="98.897913">
<time>2014-08-05T01:41:40Z</time></trkpt>
<trkpt lat="26.67772" lon="98.897883">
<time>2014-08-05T01:41:41Z</time></trkpt>
<trkpt lat="26.67778" lon="98.897863">
<time>2014-08-05T01:41:42Z</time></trkpt>
<trkpt lat="26.67783" lon="98.897843">
<time>2014-08-05T01:41:43Z</time></trkpt>
<trkpt lat="26.67792" lon="98.897783">
<time>2014-08-05T01:41:44Z</time></trkpt>
<trkpt lat="26.67809" lon="98.897663">
<time>2014-08-05T01:41:45Z</time></trkpt>
<trkpt lat="26.67842" lon="98.897443">
<time>2014-08-05T01:41:46Z</time></trkpt>
<trkpt lat="26.67859" lon="98.897313">
<time>2014-08-05T01:41:47Z</time></trkpt>
<trkpt lat="26.67884" lon="98.897143">
<time>2014-08-05T01:41:48Z</time></trkpt>
<trkpt lat="26.67892" lon="98.897093">
<time>2014-08-05T01:41:49Z</time></trkpt>
<trkpt lat="26.67899" lon="98.897063">
<time>2014-08-05T01:41:50Z</time></trkpt>
<trkpt lat="26.67906" lon="98.897043">
<time>2014-08-05T01:41:51Z</time></trkpt>
<trkpt lat="26.67912" lon="98.897033">
<time>2014-08-05T01:41:52Z</time></trkpt>
<trkpt lat="26.67918" lon="98.897033">
<time>2014-08-05T01:41:53Z</time></trkpt>
<trkpt lat="26.67927" lon="98.897033">
<time>2014-08-05T01:41:54Z</time></trkpt>
<trkpt lat="26.67934" lon="98.897033">
<time>2014-08-05T01:41:55Z</time></trkpt>
<trkpt lat="26.6795" lon="98.897053">
<time>2014-08-05T01:41:56Z</time></trkpt>
<trkpt lat="26.67975" lon="98.897083">
<time>2014-08-05T01:41:57Z</time></trkpt>
<trkpt lat="26.67993" lon="98.897133">
<time>2014-08-05T01:41:58Z</time></trkpt>
<trkpt lat="26.68013" lon="98.897183">
<time>2014-08-05T01:41:59Z</time></trkpt>
<trkpt lat="26.68035" lon="98.897273">
<time>2014-08-05T01:42:00Z</time></trkpt>
<trkpt lat="26.68041" lon="98.897303">
<time>2014-08-05T01:42:01Z</time></trkpt>
<trkpt lat="26.68053" lon="98.897383">
<time>2014-08-05T01:42:02Z</time></trkpt>
<trkpt lat="26.68071" lon="98.897533">
<time>2014-08-05T01:42:03Z</time></trkpt>
<trkpt lat="26.68084" lon="98.897663">
<time>2014-08-05T01:42:04Z</time></trkpt>
<trkpt lat="26.68102" lon="98.897823">
<time>2014-08-05T01:42:05Z</time></trkpt>
<trkpt lat="26.68111" lon="98.897893">
<time>2014-08-05T01:42:06Z</time></trkpt>
<trkpt lat="26.68118" lon="98.897943">
<time>2014-08-05T01:42:07Z</time></trkpt>
<trkpt lat="26.68122" lon="98.897963">
<time>2014-08-05T01:42:08Z</time></trkpt>
<trkpt lat="26.68127" lon="98.897973">
<time>2014-08-05T01:42:09Z</time></trkpt>
<trkpt lat="26.68134" lon="98.897983">
<time>2014-08-05T01:42:10Z</time></trkpt>
<trkpt lat="26.68142" lon="98.897993">
<time>2014-08-05T01:42:11Z</time></trkpt>
<trkpt lat="26.68154" lon="98.897993">
<time>2014-08-05T01:42:12Z</time></trkpt>
<trkpt lat="26.68179" lon="98.897993">
<time>2014-08-05T01:42:13Z</time></trkpt>
<trkpt lat="26.68198" lon="98.897983">
<time>2014-08-05T01:42:14Z</time></trkpt>
<trkpt lat="26.68212" lon="98.897973">
<time>2014-08-05T01:42:15Z</time></trkpt>
<trkpt lat="26.68221" lon="98.897963">
<time>2014-08-05T01:42:16Z</time></trkpt>
<trkpt lat="26.68228" lon="98.897953">
<time>2014-08-05T01:42:17Z</time></trkpt>
<trkpt lat="26.68234" lon="98.897943">
<time>2014-08-05T01:42:18Z</time></trkpt>
<trkpt lat="26.68237" lon="98.897943">
<time>2014-08-05T01:42:19Z</time></trkpt>
<trkpt lat="26.68244" lon="98.897923">
<time>2014-08-05T01:42:20Z</time></trkpt>
<trkpt lat="26.68259" lon="98.897883">
<time>2014-08-05T01:42:21Z</time></trkpt>
<trkpt lat="26.68276" lon="98.897823">
<time>2014-08-05T01:42:22Z</time></trkpt>
<trkpt lat="26.68285" lon="98.897793">
<time>2014-08-05T01:42:23Z</time></trkpt>
<trkpt lat="26.68293" lon="98.897773">
<time>2014-08-05T01:42:24Z</time></trkpt>
<trkpt lat="26.68301" lon="98.897743">
<time>2014-08-05T01:42:25Z</time></trkpt>
<trkpt lat="26.68309" lon="98.897723">
<time>2014-08-05T01:42:26Z</time></trkpt>
<trkpt lat="26.68317" lon="98.897703">
<time>2014-08-05T01:42:27Z</time></trkpt>
<trkpt lat="26.68321" lon="98.897683">
<time>2014-08-05T01:42:28Z</time></trkpt>
<trkpt lat="26.68331" lon="98.897653">
<time>2014-08-05T01:42:29Z</time></trkpt>
<trkpt lat="26.68338" lon="98.897633">
<time>2014-08-05T01:42:30Z</time></trkpt>
<trkpt lat="26.68344" lon="98.897613">
<time>2014-08-05T01:42:31Z</time></trkpt>
<trkpt lat="26.68353" lon="98.897583">
<time>2014-08-05T01:42:32Z</time></trkpt>
<trkpt lat="26.68372" lon="98.897523">
<time>2014-08-05T01:42:33Z</time></trkpt>
<trkpt lat="26.68382" lon="98.897503">
<time>2014-08-05T01:42:34Z</time></trkpt>
<trkpt lat="26.68389" lon="98.897493">
<time>2014-08-05T01:42:35Z</time></trkpt>
<trkpt lat="26.684" lon="98.897473">
<time>2014-08-05T01:42:36Z</time></trkpt>
<trkpt lat="26.68408" lon="98.897463">
<time>2014-08-05T01:42:37Z</time></trkpt>
<trkpt lat="26.68433" lon="98.897473">
<time>2014-08-05T01:42:38Z</time></trkpt>
<trkpt lat="26.68463" lon="98.897483">
<time>2014-08-05T01:42:39Z</time></trkpt>
<trkpt lat="26.68493" lon="98.897523">
<time>2014-08-05T01:42:40Z</time></trkpt>
<trkpt lat="26.68501" lon="98.897533">
<time>2014-08-05T01:42:41Z</time></trkpt>
<trkpt lat="26.6851" lon="98.897553">
<time>2014-08-05T01:42:42Z</time></trkpt>
<trkpt lat="26.68532" lon="98.897583">
<time>2014-08-05T01:42:43Z</time></trkpt>
<trkpt lat="26.68561" lon="98.897633">
<time>2014-08-05T01:42:44Z</time></trkpt>
<trkpt lat="26.6859" lon="98.897673">
<time>2014-08-05T01:42:45Z</time></trkpt>
<trkpt lat="26.68602" lon="98.897693">
<time>2014-08-05T01:42:46Z</time></trkpt>
<trkpt lat="26.68609" lon="98.897703">
<time>2014-08-05T01:42:47Z</time></trkpt>
<trkpt lat="26.68635" lon="98.897703">
<time>2014-08-05T01:42:48Z</time></trkpt>
<trkpt lat="26.68667" lon="98.897693">
<time>2014-08-05T01:42:49Z</time></trkpt>
<trkpt lat="26.68696" lon="98.897683">
<time>2014-08-05T01:42:50Z</time></trkpt>
<trkpt lat="26.68704" lon="98.897683">
<time>2014-08-05T01:42:51Z</time></trkpt>
<trkpt lat="26.68729" lon="98.897673">
<time>2014-08-05T01:42:52Z</time></trkpt>
<trkpt lat="26.68763" lon="98.897663">
<time>2014-08-05T01:42:53Z</time></trkpt>
<trkpt lat="26.68783" lon="98.897653">
<time>2014-08-05T01:42:54Z</time></trkpt>
<trkpt lat="26.68793" lon="98.897653">
<time>2014-08-05T01:42:55Z</time></trkpt>
<trkpt lat="26.68811" lon="98.897663">
<time>2014-08-05T01:42:56Z</time></trkpt>
<trkpt lat="26.68841" lon="98.897703">
<time>2014-08-05T01:42:57Z</time></trkpt>
<trkpt lat="26.68868" lon="98.897753">
<time>2014-08-05T01:42:58Z</time></trkpt>
<trkpt lat="26.68879" lon="98.897763">
<time>2014-08-05T01:42:59Z</time></trkpt>
<trkpt lat="26.68894" lon="98.897773">
<time>2014-08-05T01:43:00Z</time></trkpt>
<trkpt lat="26.68933" lon="98.897773">
<time>2014-08-05T01:43:01Z</time></trkpt>
<trkpt lat="26.68982" lon="98.897763">
<time>2014-08-05T01:43:02Z</time></trkpt>
<trkpt lat="26.69016" lon="98.897773">
<time>2014-08-05T01:43:03Z</time></trkpt>
<trkpt lat="26.69046" lon="98.897763">
<time>2014-08-05T01:43:04Z</time></trkpt>
<trkpt lat="26.69051" lon="98.897763">
<time>2014-08-05T01:43:05Z</time></trkpt>
<trkpt lat="26.69058" lon="98.897743">
<time>2014-08-05T01:43:06Z</time></trkpt>
<trkpt lat="26.69064" lon="98.897733">
<time>2014-08-05T01:43:07Z</time></trkpt>
<trkpt lat="26.69068" lon="98.897713">
<time>2014-08-05T01:43:08Z</time></trkpt>
<trkpt lat="26.69073" lon="98.897683">
<time>2014-08-05T01:43:09Z</time></trkpt>
<trkpt lat="26.69077" lon="98.897663">
<time>2014-08-05T01:43:10Z</time></trkpt>
<trkpt lat="26.69093" lon="98.897493">
<time>2014-08-05T01:43:11Z</time></trkpt>
<trkpt lat="26.69102" lon="98.897413">
<time>2014-08-05T01:43:12Z</time></trkpt>
<trkpt lat="26.6911" lon="98.897353">
<time>2014-08-05T01:43:13Z</time></trkpt>
<trkpt lat="26.69117" lon="98.897313">
<time>2014-08-05T01:43:14Z</time></trkpt>
<trkpt lat="26.69126" lon="98.897273">
<time>2014-08-05T01:43:15Z</time></trkpt>
<trkpt lat="26.69132" lon="98.897253">
<time>2014-08-05T01:43:16Z</time></trkpt>
<trkpt lat="26.69137" lon="98.897253">
<time>2014-08-05T01:43:17Z</time></trkpt>
<trkpt lat="26.69143" lon="98.897253">
<time>2014-08-05T01:43:18Z</time></trkpt>
<trkpt lat="26.69149" lon="98.897263">
<time>2014-08-05T01:43:19Z</time></trkpt>
<trkpt lat="26.69154" lon="98.897283">
<time>2014-08-05T01:43:20Z</time></trkpt>
<trkpt lat="26.6916" lon="98.897303">
<time>2014-08-05T01:43:21Z</time></trkpt>
<trkpt lat="26.69167" lon="98.897343">
<time>2014-08-05T01:43:22Z</time></trkpt>
<trkpt lat="26.69183" lon="98.897453">
<time>2014-08-05T01:43:23Z</time></trkpt>
<trkpt lat="26.69196" lon="98.897533">
<time>2014-08-05T01:43:24Z</time></trkpt>
<trkpt lat="26.69203" lon="98.897563">
<time>2014-08-05T01:43:25Z</time></trkpt>
<trkpt lat="26.69209" lon="98.897593">
<time>2014-08-05T01:43:26Z</time></trkpt>
<trkpt lat="26.69214" lon="98.897603">
<time>2014-08-05T01:43:27Z</time></trkpt>
<trkpt lat="26.69219" lon="98.897613">
<time>2014-08-05T01:43:28Z</time></trkpt>
<trkpt lat="26.69227" lon="98.897623">
<time>2014-08-05T01:43:29Z</time></trkpt>
<trkpt lat="26.69238" lon="98.897613">
<time>2014-08-05T01:43:30Z</time></trkpt>
<trkpt lat="26.69259" lon="98.897583">
<time>2014-08-05T01:43:31Z</time></trkpt>
<trkpt lat="26.6928" lon="98.897553">
<time>2014-08-05T01:43:32Z</time></trkpt>
<trkpt lat="26.69288" lon="98.897523">
<time>2014-08-05T01:43:33Z</time></trkpt>
<trkpt lat="26.69295" lon="98.897493">
<time>2014-08-05T01:43:34Z</time></trkpt>
<trkpt lat="26.69302" lon="98.897463">
<time>2014-08-05T01:43:35Z</time></trkpt>
<trkpt lat="26.69327" lon="98.897333">
<time>2014-08-05T01:43:36Z</time></trkpt>
<trkpt lat="26.69363" lon="98.897123">
<time>2014-08-05T01:43:37Z</time></trkpt>
<trkpt lat="26.69384" lon="98.897033">
<time>2014-08-05T01:43:38Z</time></trkpt>
<trkpt lat="26.69391" lon="98.897013">
<time>2014-08-05T01:43:39Z</time></trkpt>
<trkpt lat="26.69399" lon="98.896993">
<time>2014-08-05T01:43:40Z</time></trkpt>
<trkpt lat="26.69426" lon="98.896953">
<time>2014-08-05T01:43:41Z</time></trkpt>
<trkpt lat="26.69453" lon="98.896913">
<time>2014-08-05T01:43:42Z</time></trkpt>
<trkpt lat="26.69499" lon="98.896853">
<time>2014-08-05T01:43:43Z</time></trkpt>
<trkpt lat="26.69527" lon="98.896813">
<time>2014-08-05T01:43:44Z</time></trkpt>
<trkpt lat="26.69545" lon="98.896783">
<time>2014-08-05T01:43:45Z</time></trkpt>
<trkpt lat="26.69552" lon="98.896763">
<time>2014-08-05T01:43:46Z</time></trkpt>
<trkpt lat="26.69582" lon="98.896683">
<time>2014-08-05T01:43:47Z</time></trkpt>
<trkpt lat="26.69607" lon="98.896593">
<time>2014-08-05T01:43:48Z</time></trkpt>
<trkpt lat="26.69628" lon="98.896523">
<time>2014-08-05T01:43:49Z</time></trkpt>
<trkpt lat="26.69639" lon="98.896483">
<time>2014-08-05T01:43:50Z</time></trkpt>
<trkpt lat="26.69657" lon="98.896453">
<time>2014-08-05T01:43:51Z</time></trkpt>
<trkpt lat="26.69663" lon="98.896443">
<time>2014-08-05T01:43:52Z</time></trkpt>
<trkpt lat="26.69691" lon="98.896413">
<time>2014-08-05T01:43:53Z</time></trkpt>
<trkpt lat="26.69723" lon="98.896393">
<time>2014-08-05T01:43:54Z</time></trkpt>
<trkpt lat="26.69747" lon="98.896363">
<time>2014-08-05T01:43:55Z</time></trkpt>
<trkpt lat="26.69755" lon="98.896353">
<time>2014-08-05T01:43:56Z</time></trkpt>
<trkpt lat="26.69766" lon="98.896333">
<time>2014-08-05T01:43:57Z</time></trkpt>
<trkpt lat="26.69775" lon="98.896313">
<time>2014-08-05T01:43:58Z</time></trkpt>
<trkpt lat="26.69801" lon="98.896233">
<time>2014-08-05T01:43:59Z</time></trkpt>
<trkpt lat="26.69832" lon="98.896143">
<time>2014-08-05T01:44:00Z</time></trkpt>
<trkpt lat="26.69853" lon="98.896103">
<time>2014-08-05T01:44:01Z</time></trkpt>
<trkpt lat="26.6988" lon="98.896064">
<time>2014-08-05T01:44:02Z</time></trkpt>
<trkpt lat="26.69912" lon="98.896024">
<time>2014-08-05T01:44:03Z</time></trkpt>
<trkpt lat="26.69941" lon="98.895994">
<time>2014-08-05T01:44:04Z</time></trkpt>
<trkpt lat="26.69972" lon="98.895944">
<time>2014-08-05T01:44:05Z</time></trkpt>
<trkpt lat="26.69982" lon="98.895924">
<time>2014-08-05T01:44:06Z</time></trkpt>
<trkpt lat="26.69996" lon="98.895914">
<time>2014-08-05T01:44:07Z</time></trkpt>
<trkpt lat="26.70002" lon="98.895904">
<time>2014-08-05T01:44:08Z</time></trkpt>
<trkpt lat="26.70036" lon="98.895894">
<time>2014-08-05T01:44:09Z</time></trkpt>
<trkpt lat="26.70069" lon="98.895894">
<time>2014-08-05T01:44:10Z</time></trkpt>
<trkpt lat="26.70102" lon="98.895904">
<time>2014-08-05T01:44:11Z</time></trkpt>
<trkpt lat="26.70117" lon="98.895904">
<time>2014-08-05T01:44:12Z</time></trkpt>
<trkpt lat="26.70126" lon="98.895904">
<time>2014-08-05T01:44:13Z</time></trkpt>
<trkpt lat="26.70135" lon="98.895914">
<time>2014-08-05T01:44:14Z</time></trkpt>
<trkpt lat="26.70149" lon="98.895934">
<time>2014-08-05T01:44:15Z</time></trkpt>
<trkpt lat="26.70181" lon="98.895993">
<time>2014-08-05T01:44:16Z</time></trkpt>
<trkpt lat="26.70211" lon="98.896053">
<time>2014-08-05T01:44:17Z</time></trkpt>
<trkpt lat="26.70229" lon="98.896073">
<time>2014-08-05T01:44:18Z</time></trkpt>
<trkpt lat="26.70247" lon="98.896083">
<time>2014-08-05T01:44:19Z</time></trkpt>
<trkpt lat="26.70272" lon="98.896073">
<time>2014-08-05T01:44:20Z</time></trkpt>
<trkpt lat="26.70279" lon="98.896063">
<time>2014-08-05T01:44:21Z</time></trkpt>
<trkpt lat="26.70307" lon="98.896053">
<time>2014-08-05T01:44:22Z</time></trkpt>
<trkpt lat="26.70335" lon="98.896063">
<time>2014-08-05T01:44:23Z</time></trkpt>
<trkpt lat="26.70343" lon="98.896073">
<time>2014-08-05T01:44:24Z</time></trkpt>
<trkpt lat="26.70359" lon="98.896063">
<time>2014-08-05T01:44:25Z</time></trkpt>
<trkpt lat="26.70371" lon="98.896053">
<time>2014-08-05T01:44:26Z</time></trkpt>
<trkpt lat="26.70383" lon="98.896033">
<time>2014-08-05T01:44:27Z</time></trkpt>
<trkpt lat="26.70392" lon="98.896013">
<time>2014-08-05T01:44:28Z</time></trkpt>
<trkpt lat="26.70408" lon="98.895993">
<time>2014-08-05T01:44:29Z</time></trkpt>
<trkpt lat="26.70415" lon="98.895973">
<time>2014-08-05T01:44:30Z</time></trkpt>
<trkpt lat="26.70429" lon="98.895953">
<time>2014-08-05T01:44:31Z</time></trkpt>
<trkpt lat="26.70442" lon="98.895943">
<time>2014-08-05T01:44:32Z</time></trkpt>
<trkpt lat="26.70471" lon="98.895963">
<time>2014-08-05T01:44:33Z</time></trkpt>
<trkpt lat="26.70478" lon="98.895973">
<time>2014-08-05T01:44:34Z</time></trkpt>
<trkpt lat="26.70507" lon="98.895983">
<time>2014-08-05T01:44:35Z</time></trkpt>
<trkpt lat="26.70554" lon="98.895953">
<time>2014-08-05T01:44:36Z</time></trkpt>
<trkpt lat="26.70597" lon="98.895923">
<time>2014-08-05T01:44:37Z</time></trkpt>
<trkpt lat="26.70605" lon="98.895923">
<time>2014-08-05T01:44:38Z</time></trkpt>
<trkpt lat="26.70639" lon="98.895883">
<time>2014-08-05T01:44:39Z</time></trkpt>
<trkpt lat="26.70647" lon="98.895883">
<time>2014-08-05T01:44:40Z</time></trkpt>
<trkpt lat="26.70671" lon="98.895843">
<time>2014-08-05T01:44:41Z</time></trkpt>
<trkpt lat="26.70698" lon="98.895794">
<time>2014-08-05T01:44:42Z</time></trkpt>
<trkpt lat="26.70732" lon="98.895704">
<time>2014-08-05T01:44:43Z</time></trkpt>
<trkpt lat="26.70775" lon="98.895604">
<time>2014-08-05T01:44:44Z</time></trkpt>
<trkpt lat="26.70789" lon="98.895574">
<time>2014-08-05T01:44:45Z</time></trkpt>
<trkpt lat="26.70796" lon="98.895564">
<time>2014-08-05T01:44:46Z</time></trkpt>
<trkpt lat="26.7082" lon="98.895534">
<time>2014-08-05T01:44:47Z</time></trkpt>
<trkpt lat="26.70829" lon="98.895514">
<time>2014-08-05T01:44:48Z</time></trkpt>
<trkpt lat="26.70849" lon="98.895484">
<time>2014-08-05T01:44:49Z</time></trkpt>
<trkpt lat="26.70855" lon="98.895484">
<time>2014-08-05T01:44:50Z</time></trkpt>
<trkpt lat="26.70885" lon="98.895434">
<time>2014-08-05T01:44:51Z</time></trkpt>
<trkpt lat="26.70929" lon="98.895344">
<time>2014-08-05T01:44:52Z</time></trkpt>
<trkpt lat="26.70963" lon="98.895274">
<time>2014-08-05T01:44:53Z</time></trkpt>
<trkpt lat="26.70977" lon="98.895244">
<time>2014-08-05T01:44:54Z</time></trkpt>
<trkpt lat="26.7099" lon="98.895214">
<time>2014-08-05T01:44:55Z</time></trkpt>
<trkpt lat="26.70999" lon="98.895194">
<time>2014-08-05T01:44:56Z</time></trkpt>
<trkpt lat="26.71015" lon="98.895144">
<time>2014-08-05T01:44:57Z</time></trkpt>
<trkpt lat="26.710359" lon="98.895064">
<time>2014-08-05T01:44:58Z</time></trkpt>
<trkpt lat="26.710469" lon="98.895014">
<time>2014-08-05T01:44:59Z</time></trkpt>
<trkpt lat="26.710599" lon="98.894984">
<time>2014-08-05T01:45:00Z</time></trkpt>
<trkpt lat="26.710689" lon="98.894964">
<time>2014-08-05T01:45:01Z</time></trkpt>
<trkpt lat="26.710959" lon="98.894934">
<time>2014-08-05T01:45:02Z</time></trkpt>
<trkpt lat="26.711079" lon="98.894924">
<time>2014-08-05T01:45:03Z</time></trkpt>
<trkpt lat="26.711159" lon="98.894904">
<time>2014-08-05T01:45:04Z</time></trkpt>
<trkpt lat="26.711219" lon="98.894894">
<time>2014-08-05T01:45:05Z</time></trkpt>
<trkpt lat="26.711289" lon="98.894874">
<time>2014-08-05T01:45:06Z</time></trkpt>
<trkpt lat="26.711599" lon="98.894804">
<time>2014-08-05T01:45:07Z</time></trkpt>
<trkpt lat="26.711879" lon="98.894754">
<time>2014-08-05T01:45:08Z</time></trkpt>
<trkpt lat="26.712009" lon="98.894734">
<time>2014-08-05T01:45:09Z</time></trkpt>
<trkpt lat="26.712309" lon="98.894674">
<time>2014-08-05T01:45:10Z</time></trkpt>
<trkpt lat="26.713299" lon="98.894504">
<time>2014-08-05T01:45:11Z</time></trkpt>
<trkpt lat="26.713349" lon="98.894494">
<time>2014-08-05T01:45:12Z</time></trkpt>
<trkpt lat="26.713389" lon="98.894484">
<time>2014-08-05T01:45:13Z</time></trkpt>
<trkpt lat="26.713629" lon="98.894414">
<time>2014-08-05T01:45:14Z</time></trkpt>
<trkpt lat="26.713939" lon="98.894324">
<time>2014-08-05T01:45:15Z</time></trkpt>
<trkpt lat="26.714029" lon="98.894304">
<time>2014-08-05T01:45:16Z</time></trkpt>
<trkpt lat="26.714129" lon="98.894294">
<time>2014-08-05T01:45:17Z</time></trkpt>
<trkpt lat="26.714179" lon="98.894294">
<time>2014-08-05T01:45:18Z</time></trkpt>
<trkpt lat="26.714439" lon="98.894304">
<time>2014-08-05T01:45:19Z</time></trkpt>
<trkpt lat="26.714709" lon="98.894304">
<time>2014-08-05T01:45:20Z</time></trkpt>
<trkpt lat="26.714789" lon="98.894324">
<time>2014-08-05T01:45:21Z</time></trkpt>
<trkpt lat="26.714849" lon="98.894334">
<time>2014-08-05T01:45:22Z</time></trkpt>
<trkpt lat="26.714929" lon="98.894354">
<time>2014-08-05T01:45:23Z</time></trkpt>
<trkpt lat="26.714989" lon="98.894384">
<time>2014-08-05T01:45:24Z</time></trkpt>
<trkpt lat="26.715039" lon="98.894414">
<time>2014-08-05T01:45:25Z</time></trkpt>
<trkpt lat="26.715279" lon="98.894604">
<time>2014-08-05T01:45:26Z</time></trkpt>
<trkpt lat="26.715369" lon="98.894664">
<time>2014-08-05T01:45:27Z</time></trkpt>
<trkpt lat="26.715439" lon="98.894694">
<time>2014-08-05T01:45:28Z</time></trkpt>
<trkpt lat="26.715479" lon="98.894704">
<time>2014-08-05T01:45:29Z</time></trkpt>
<trkpt lat="26.715529" lon="98.894714">
<time>2014-08-05T01:45:30Z</time></trkpt>
<trkpt lat="26.715599" lon="98.894714">
<time>2014-08-05T01:45:31Z</time></trkpt>
<trkpt lat="26.715699" lon="98.894714">
<time>2014-08-05T01:45:32Z</time></trkpt>
<trkpt lat="26.717189" lon="98.894554">
<time>2014-08-05T01:45:33Z</time></trkpt>
<trkpt lat="26.717259" lon="98.894544">
<time>2014-08-05T01:45:34Z</time></trkpt>
<trkpt lat="26.717469" lon="98.894494">
<time>2014-08-05T01:45:35Z</time></trkpt>
<trkpt lat="26.717569" lon="98.894484">
<time>2014-08-05T01:45:36Z</time></trkpt>
<trkpt lat="26.717619" lon="98.894474">
<time>2014-08-05T01:45:37Z</time></trkpt>
<trkpt lat="26.717749" lon="98.894464">
<time>2014-08-05T01:45:38Z</time></trkpt>
<trkpt lat="26.718059" lon="98.894434">
<time>2014-08-05T01:45:39Z</time></trkpt>
<trkpt lat="26.718329" lon="98.894384">
<time>2014-08-05T01:45:40Z</time></trkpt>
<trkpt lat="26.718619" lon="98.894334">
<time>2014-08-05T01:45:41Z</time></trkpt>
<trkpt lat="26.718719" lon="98.894314">
<time>2014-08-05T01:45:42Z</time></trkpt>
<trkpt lat="26.718809" lon="98.894294">
<time>2014-08-05T01:45:43Z</time></trkpt>
<trkpt lat="26.718899" lon="98.894254">
<time>2014-08-05T01:45:44Z</time></trkpt>
<trkpt lat="26.718939" lon="98.894234">
<time>2014-08-05T01:45:45Z</time></trkpt>
<trkpt lat="26.719119" lon="98.894064">
<time>2014-08-05T01:45:46Z</time></trkpt>
<trkpt lat="26.719269" lon="98.893944">
<time>2014-08-05T01:45:47Z</time></trkpt>
<trkpt lat="26.719369" lon="98.893884">
<time>2014-08-05T01:45:48Z</time></trkpt>
<trkpt lat="26.719479" lon="98.893834">
<time>2014-08-05T01:45:49Z</time></trkpt>
<trkpt lat="26.719719" lon="98.893744">
<time>2014-08-05T01:45:50Z</time></trkpt>
<trkpt lat="26.719789" lon="98.893714">
<time>2014-08-05T01:45:51Z</time></trkpt>
<trkpt lat="26.719869" lon="98.893684">
<time>2014-08-05T01:45:52Z</time></trkpt>
<trkpt lat="26.720079" lon="98.893594">
<time>2014-08-05T01:45:53Z</time></trkpt>
<trkpt lat="26.720379" lon="98.893484">
<time>2014-08-05T01:45:54Z</time></trkpt>
<trkpt lat="26.720469" lon="98.893454">
<time>2014-08-05T01:45:55Z</time></trkpt>
<trkpt lat="26.720549" lon="98.893434">
<time>2014-08-05T01:45:56Z</time></trkpt>
<trkpt lat="26.720719" lon="98.893394">
<time>2014-08-05T01:45:57Z</time></trkpt>
<trkpt lat="26.720889" lon="98.893364">
<time>2014-08-05T01:45:58Z</time></trkpt>
<trkpt lat="26.720939" lon="98.893354">
<time>2014-08-05T01:45:59Z</time></trkpt>
<trkpt lat="26.721049" lon="98.893344">
<time>2014-08-05T01:46:00Z</time></trkpt>
<trkpt lat="26.721129" lon="98.893344">
<time>2014-08-05T01:46:01Z</time></trkpt>
<trkpt lat="26.721369" lon="98.893334">
<time>2014-08-05T01:46:02Z</time></trkpt>
<trkpt lat="26.721529" lon="98.893314">
<time>2014-08-05T01:46:03Z</time></trkpt>
<trkpt lat="26.721849" lon="98.893264">
<time>2014-08-05T01:46:04Z</time></trkpt>
<trkpt lat="26.722638" lon="98.893075">
<time>2014-08-05T01:46:05Z</time></trkpt>
<trkpt lat="26.722928" lon="98.893035">
<time>2014-08-05T01:46:06Z</time></trkpt>
<trkpt lat="26.723018" lon="98.893025">
<time>2014-08-05T01:46:07Z</time></trkpt>
<trkpt lat="26.723268" lon="98.893005">
<time>2014-08-05T01:46:08Z</time></trkpt>
<trkpt lat="26.723578" lon="98.892985">
<time>2014-08-05T01:46:09Z</time></trkpt>
<trkpt lat="26.723678" lon="98.892975">
<time>2014-08-05T01:46:10Z</time></trkpt>
<trkpt lat="26.723928" lon="98.892935">
<time>2014-08-05T01:46:11Z</time></trkpt>
<trkpt lat="26.724248" lon="98.892875">
<time>2014-08-05T01:46:12Z</time></trkpt>
<trkpt lat="26.724348" lon="98.892845">
<time>2014-08-05T01:46:13Z</time></trkpt>
<trkpt lat="26.724498" lon="98.892795">
<time>2014-08-05T01:46:14Z</time></trkpt>
<trkpt lat="26.724548" lon="98.892775">
<time>2014-08-05T01:46:15Z</time></trkpt>
<trkpt lat="26.724888" lon="98.892615">
<time>2014-08-05T01:46:16Z</time></trkpt>
<trkpt lat="26.725168" lon="98.892485">
<time>2014-08-05T01:46:17Z</time></trkpt>
<trkpt lat="26.725328" lon="98.892435">
<time>2014-08-05T01:46:18Z</time></trkpt>
<trkpt lat="26.725408" lon="98.892415">
<time>2014-08-05T01:46:19Z</time></trkpt>
<trkpt lat="26.725528" lon="98.892405">
<time>2014-08-05T01:46:20Z</time></trkpt>
<trkpt lat="26.725648" lon="98.892405">
<time>2014-08-05T01:46:21Z</time></trkpt>
<trkpt lat="26.725718" lon="98.892415">
<time>2014-08-05T01:46:22Z</time></trkpt>
<trkpt lat="26.725748" lon="98.892425">
<time>2014-08-05T01:46:23Z</time></trkpt>
<trkpt lat="26.725778" lon="98.892435">
<time>2014-08-05T01:46:24Z</time></trkpt>
<trkpt lat="26.725818" lon="98.892465">
<time>2014-08-05T01:46:25Z</time></trkpt>
<trkpt lat="26.726068" lon="98.892615">
<time>2014-08-05T01:46:26Z</time></trkpt>
<trkpt lat="26.726158" lon="98.892665">
<time>2014-08-05T01:46:27Z</time></trkpt>
<trkpt lat="26.726268" lon="98.892705">
<time>2014-08-05T01:46:28Z</time></trkpt>
<trkpt lat="26.726398" lon="98.892735">
<time>2014-08-05T01:46:29Z</time></trkpt>
<trkpt lat="26.726498" lon="98.892745">
<time>2014-08-05T01:46:30Z</time></trkpt>
<trkpt lat="26.727058" lon="98.892705">
<time>2014-08-05T01:46:31Z</time></trkpt>
<trkpt lat="26.727178" lon="98.892695">
<time>2014-08-05T01:46:32Z</time></trkpt>
<trkpt lat="26.727218" lon="98.892685">
<time>2014-08-05T01:46:33Z</time></trkpt>
<trkpt lat="26.727388" lon="98.892665">
<time>2014-08-05T01:46:34Z</time></trkpt>
<trkpt lat="26.727978" lon="98.892565">
<time>2014-08-05T01:46:35Z</time></trkpt>
<trkpt lat="26.728128" lon="98.892545">
<time>2014-08-05T01:46:36Z</time></trkpt>
<trkpt lat="26.728188" lon="98.892545">
<time>2014-08-05T01:46:37Z</time></trkpt>
<trkpt lat="26.728368" lon="98.892535">
<time>2014-08-05T01:46:38Z</time></trkpt>
<trkpt lat="26.728598" lon="98.892515">
<time>2014-08-05T01:46:39Z</time></trkpt>
<trkpt lat="26.728648" lon="98.892515">
<time>2014-08-05T01:46:40Z</time></trkpt>
<trkpt lat="26.729098" lon="98.892475">
<time>2014-08-05T01:46:41Z</time></trkpt>
<trkpt lat="26.729388" lon="98.892465">
<time>2014-08-05T01:46:42Z</time></trkpt>
<trkpt lat="26.729458" lon="98.892455">
<time>2014-08-05T01:46:43Z</time></trkpt>
<trkpt lat="26.729598" lon="98.892455">
<time>2014-08-05T01:46:44Z</time></trkpt>
<trkpt lat="26.729748" lon="98.892465">
<time>2014-08-05T01:46:45Z</time></trkpt>
<trkpt lat="26.729888" lon="98.892475">
<time>2014-08-05T01:46:46Z</time></trkpt>
<trkpt lat="26.729938" lon="98.892475">
<time>2014-08-05T01:46:47Z</time></trkpt>
<trkpt lat="26.730008" lon="98.892495">
<time>2014-08-05T01:46:48Z</time></trkpt>
<trkpt lat="26.730198" lon="98.892525">
<time>2014-08-05T01:46:49Z</time></trkpt>
<trkpt lat="26.730278" lon="98.892535">
<time>2014-08-05T01:46:50Z</time></trkpt>
<trkpt lat="26.730378" lon="98.892565">
<time>2014-08-05T01:46:51Z</time></trkpt>
<trkpt lat="26.730488" lon="98.892595">
<time>2014-08-05T01:46:52Z</time></trkpt>
<trkpt lat="26.730568" lon="98.892605">
<time>2014-08-05T01:46:53Z</time></trkpt>
<trkpt lat="26.730648" lon="98.892615">
<time>2014-08-05T01:46:54Z</time></trkpt>
<trkpt lat="26.730718" lon="98.892625">
<time>2014-08-05T01:46:55Z</time></trkpt>
<trkpt lat="26.730988" lon="98.892625">
<time>2014-08-05T01:46:56Z</time></trkpt>
<trkpt lat="26.731198" lon="98.892635">
<time>2014-08-05T01:46:57Z</time></trkpt>
<trkpt lat="26.731298" lon="98.892635">
<time>2014-08-05T01:46:58Z</time></trkpt>
<trkpt lat="26.731478" lon="98.892635">
<time>2014-08-05T01:46:59Z</time></trkpt>
<trkpt lat="26.731548" lon="98.892645">
<time>2014-08-05T01:47:00Z</time></trkpt>
<trkpt lat="26.731628" lon="98.892665">
<time>2014-08-05T01:47:01Z</time></trkpt>
<trkpt lat="26.731698" lon="98.892675">
<time>2014-08-05T01:47:02Z</time></trkpt>
<trkpt lat="26.731758" lon="98.892695">
<time>2014-08-05T01:47:03Z</time></trkpt>
<trkpt lat="26.731858" lon="98.892745">
<time>2014-08-05T01:47:04Z</time></trkpt>
<trkpt lat="26.731968" lon="98.892785">
<time>2014-08-05T01:47:05Z</time></trkpt>
<trkpt lat="26.732208" lon="98.892874">
<time>2014-08-05T01:47:06Z</time></trkpt>
<trkpt lat="26.732288" lon="98.892914">
<time>2014-08-05T01:47:07Z</time></trkpt>
<trkpt lat="26.732398" lon="98.892964">
<time>2014-08-05T01:47:08Z</time></trkpt>
<trkpt lat="26.732528" lon="98.893034">
<time>2014-08-05T01:47:09Z</time></trkpt>
<trkpt lat="26.732628" lon="98.893104">
<time>2014-08-05T01:47:10Z</time></trkpt>
<trkpt lat="26.732718" lon="98.893154">
<time>2014-08-05T01:47:11Z</time></trkpt>
<trkpt lat="26.732838" lon="98.893234">
<time>2014-08-05T01:47:12Z</time></trkpt>
<trkpt lat="26.732888" lon="98.893264">
<time>2014-08-05T01:47:13Z</time></trkpt>
<trkpt lat="26.732998" lon="98.893354">
<time>2014-08-05T01:47:14Z</time></trkpt>
<trkpt lat="26.733208" lon="98.893554">
<time>2014-08-05T01:47:15Z</time></trkpt>
<trkpt lat="26.733498" lon="98.893834">
<time>2014-08-05T01:47:16Z</time></trkpt>
<trkpt lat="26.733638" lon="98.893944">
<time>2014-08-05T01:47:17Z</time></trkpt>
<trkpt lat="26.733718" lon="98.893994">
<time>2014-08-05T01:47:18Z</time></trkpt>
<trkpt lat="26.733798" lon="98.894034">
<time>2014-08-05T01:47:19Z</time></trkpt>
<trkpt lat="26.733858" lon="98.894054">
<time>2014-08-05T01:47:20Z</time></trkpt>
<trkpt lat="26.734118" lon="98.894114">
<time>2014-08-05T01:47:21Z</time></trkpt>
<trkpt lat="26.734218" lon="98.894134">
<time>2014-08-05T01:47:22Z</time></trkpt>
<trkpt lat="26.734278" lon="98.894164">
<time>2014-08-05T01:47:23Z</time></trkpt>
<trkpt lat="26.734378" lon="98.894204">
<time>2014-08-05T01:47:24Z</time></trkpt>
<trkpt lat="26.734458" lon="98.894234">
<time>2014-08-05T01:47:25Z</time></trkpt>
<trkpt lat="26.734518" lon="98.894264">
<time>2014-08-05T01:47:26Z</time></trkpt>
<trkpt lat="26.734608" lon="98.894324">
<time>2014-08-05T01:47:27Z</time></trkpt>
<trkpt lat="26.734928" lon="98.894534">
<time>2014-08-05T01:47:28Z</time></trkpt>
<trkpt lat="26.735088" lon="98.894604">
<time>2014-08-05T01:47:29Z</time></trkpt>
<trkpt lat="26.735158" lon="98.894634">
<time>2014-08-05T01:47:30Z</time></trkpt>
<trkpt lat="26.735218" lon="98.894654">
<time>2014-08-05T01:47:31Z</time></trkpt>
<trkpt lat="26.735268" lon="98.894654">
<time>2014-08-05T01:47:32Z</time></trkpt>
<trkpt lat="26.735338" lon="98.894674">
<time>2014-08-05T01:47:33Z</time></trkpt>
<trkpt lat="26.735408" lon="98.894684">
<time>2014-08-05T01:47:34Z</time></trkpt>
<trkpt lat="26.735528" lon="98.894694">
<time>2014-08-05T01:47:35Z</time></trkpt>
<trkpt lat="26.735608" lon="98.894694">
<time>2014-08-05T01:47:36Z</time></trkpt>
<trkpt lat="26.735758" lon="98.894694">
<time>2014-08-05T01:47:37Z</time></trkpt>
<trkpt lat="26.735848" lon="98.894694">
<time>2014-08-05T01:47:38Z</time></trkpt>
<trkpt lat="26.735898" lon="98.894704">
<time>2014-08-05T01:47:39Z</time></trkpt>
<trkpt lat="26.735968" lon="98.894714">
<time>2014-08-05T01:47:40Z</time></trkpt>
<trkpt lat="26.736028" lon="98.894734">
<time>2014-08-05T01:47:41Z</time></trkpt>
<trkpt lat="26.736078" lon="98.894754">
<time>2014-08-05T01:47:42Z</time></trkpt>
<trkpt lat="26.736168" lon="98.894794">
<time>2014-08-05T01:47:43Z</time></trkpt>
<trkpt lat="26.736468" lon="98.894953">
<time>2014-08-05T01:47:44Z</time></trkpt>
<trkpt lat="26.736598" lon="98.895013">
<time>2014-08-05T01:47:45Z</time></trkpt>
<trkpt lat="26.736718" lon="98.895063">
<time>2014-08-05T01:47:46Z</time></trkpt>
<trkpt lat="26.736968" lon="98.895143">
<time>2014-08-05T01:47:47Z</time></trkpt>
<trkpt lat="26.737308" lon="98.895253">
<time>2014-08-05T01:47:48Z</time></trkpt>
<trkpt lat="26.737438" lon="98.895293">
<time>2014-08-05T01:47:49Z</time></trkpt>
<trkpt lat="26.737569" lon="98.895323">
<time>2014-08-05T01:47:50Z</time></trkpt>
<trkpt lat="26.737698" lon="98.895333">
<time>2014-08-05T01:47:51Z</time></trkpt>
<trkpt lat="26.737808" lon="98.895333">
<time>2014-08-05T01:47:52Z</time></trkpt>
<trkpt lat="26.738048" lon="98.895313">
<time>2014-08-05T01:47:53Z</time></trkpt>
<trkpt lat="26.738368" lon="98.895283">
<time>2014-08-05T01:47:54Z</time></trkpt>
<trkpt lat="26.738688" lon="98.895243">
<time>2014-08-05T01:47:55Z</time></trkpt>
<trkpt lat="26.738978" lon="98.895203">
<time>2014-08-05T01:47:56Z</time></trkpt>
<trkpt lat="26.739438" lon="98.895143">
<time>2014-08-05T01:47:57Z</time></trkpt>
<trkpt lat="26.739728" lon="98.895113">
<time>2014-08-05T01:47:58Z</time></trkpt>
<trkpt lat="26.739788" lon="98.895103">
<time>2014-08-05T01:47:59Z</time></trkpt>
<trkpt lat="26.739918" lon="98.895093">
<time>2014-08-05T01:48:00Z</time></trkpt>
<trkpt lat="26.740238" lon="98.895083">
<time>2014-08-05T01:48:01Z</time></trkpt>
<trkpt lat="26.740528" lon="98.895073">
<time>2014-08-05T01:48:02Z</time></trkpt>
<trkpt lat="26.740598" lon="98.895073">
<time>2014-08-05T01:48:03Z</time></trkpt>
<trkpt lat="26.740898" lon="98.895073">
<time>2014-08-05T01:48:04Z</time></trkpt>
<trkpt lat="26.740958" lon="98.895063">
<time>2014-08-05T01:48:05Z</time></trkpt>
<trkpt lat="26.741028" lon="98.895043">
<time>2014-08-05T01:48:06Z</time></trkpt>
<trkpt lat="26.741118" lon="98.895033">
<time>2014-08-05T01:48:07Z</time></trkpt>
<trkpt lat="26.741178" lon="98.895013">
<time>2014-08-05T01:48:08Z</time></trkpt>
<trkpt lat="26.741418" lon="98.894933">
<time>2014-08-05T01:48:09Z</time></trkpt>
<trkpt lat="26.741798" lon="98.894813">
<time>2014-08-05T01:48:10Z</time></trkpt>
<trkpt lat="26.741868" lon="98.894803">
<time>2014-08-05T01:48:11Z</time></trkpt>
<trkpt lat="26.741968" lon="98.894773">
<time>2014-08-05T01:48:12Z</time></trkpt>
<trkpt lat="26.742108" lon="98.894753">
<time>2014-08-05T01:48:13Z</time></trkpt>
<trkpt lat="26.742158" lon="98.894753">
<time>2014-08-05T01:48:14Z</time></trkpt>
<trkpt lat="26.742248" lon="98.894743">
<time>2014-08-05T01:48:15Z</time></trkpt>
<trkpt lat="26.742448" lon="98.894743">
<time>2014-08-05T01:48:16Z</time></trkpt>
<trkpt lat="26.742518" lon="98.894753">
<time>2014-08-05T01:48:17Z</time></trkpt>
<trkpt lat="26.742768" lon="98.894743">
<time>2014-08-05T01:48:18Z</time></trkpt>
<trkpt lat="26.742838" lon="98.894743">
<time>2014-08-05T01:48:19Z</time></trkpt>
<trkpt lat="26.743098" lon="98.894713">
<time>2014-08-05T01:48:20Z</time></trkpt>
<trkpt lat="26.743398" lon="98.894663">
<time>2014-08-05T01:48:21Z</time></trkpt>
<trkpt lat="26.743678" lon="98.894603">
<time>2014-08-05T01:48:22Z</time></trkpt>
<trkpt lat="26.743718" lon="98.894593">
<time>2014-08-05T01:48:23Z</time></trkpt>
<trkpt lat="26.743778" lon="98.894574">
<time>2014-08-05T01:48:24Z</time></trkpt>
<trkpt lat="26.744048" lon="98.894474">
<time>2014-08-05T01:48:25Z</time></trkpt>
<trkpt lat="26.744348" lon="98.894374">
<time>2014-08-05T01:48:26Z</time></trkpt>
<trkpt lat="26.744538" lon="98.894304">
<time>2014-08-05T01:48:27Z</time></trkpt>
<trkpt lat="26.744998" lon="98.894144">
<time>2014-08-05T01:48:28Z</time></trkpt>
<trkpt lat="26.745078" lon="98.894104">
<time>2014-08-05T01:48:29Z</time></trkpt>
<trkpt lat="26.745158" lon="98.894074">
<time>2014-08-05T01:48:30Z</time></trkpt>
<trkpt lat="26.745238" lon="98.894044">
<time>2014-08-05T01:48:31Z</time></trkpt>
<trkpt lat="26.745338" lon="98.893984">
<time>2014-08-05T01:48:32Z</time></trkpt>
<trkpt lat="26.745658" lon="98.893764">
<time>2014-08-05T01:48:33Z</time></trkpt>
<trkpt lat="26.745887" lon="98.893614">
<time>2014-08-05T01:48:34Z</time></trkpt>
<trkpt lat="26.745957" lon="98.893574">
<time>2014-08-05T01:48:35Z</time></trkpt>
<trkpt lat="26.746057" lon="98.893524">
<time>2014-08-05T01:48:36Z</time></trkpt>
<trkpt lat="26.746107" lon="98.893504">
<time>2014-08-05T01:48:37Z</time></trkpt>
<trkpt lat="26.746137" lon="98.893494">
<time>2014-08-05T01:48:38Z</time></trkpt>
<trkpt lat="26.746247" lon="98.893474">
<time>2014-08-05T01:48:39Z</time></trkpt>
<trkpt lat="26.746427" lon="98.893424">
<time>2014-08-05T01:48:40Z</time></trkpt>
<trkpt lat="26.746477" lon="98.893414">
<time>2014-08-05T01:48:41Z</time></trkpt>
<trkpt lat="26.746787" lon="98.893334">
<time>2014-08-05T01:48:42Z</time></trkpt>
<trkpt lat="26.747087" lon="98.893254">
<time>2014-08-05T01:48:43Z</time></trkpt>
<trkpt lat="26.747387" lon="98.893184">
<time>2014-08-05T01:48:44Z</time></trkpt>
<trkpt lat="26.747707" lon="98.893094">
<time>2014-08-05T01:48:45Z</time></trkpt>
<trkpt lat="26.748037" lon="98.893014">
<time>2014-08-05T01:48:46Z</time></trkpt>
<trkpt lat="26.748307" lon="98.892954">
<time>2014-08-05T01:48:47Z</time></trkpt>
<trkpt lat="26.748437" lon="98.892924">
<time>2014-08-05T01:48:48Z</time></trkpt>
<trkpt lat="26.748617" lon="98.892884">
<time>2014-08-05T01:48:49Z</time></trkpt>
<trkpt lat="26.748687" lon="98.892864">
<time>2014-08-05T01:48:50Z</time></trkpt>
<trkpt lat="26.748787" lon="98.892824">
<time>2014-08-05T01:48:51Z</time></trkpt>
<trkpt lat="26.748937" lon="98.892764">
<time>2014-08-05T01:48:52Z</time></trkpt>
<trkpt lat="26.748977" lon="98.892734">
<time>2014-08-05T01:48:53Z</time></trkpt>
<trkpt lat="26.749057" lon="98.892694">
<time>2014-08-05T01:48:54Z</time></trkpt>
<trkpt lat="26.749277" lon="98.892564">
<time>2014-08-05T01:48:55Z</time></trkpt>
<trkpt lat="26.749337" lon="98.892534">
<time>2014-08-05T01:48:56Z</time></trkpt>
<trkpt lat="26.749467" lon="98.892484">
<time>2014-08-05T01:48:57Z</time></trkpt>
<trkpt lat="26.749557" lon="98.892464">
<time>2014-08-05T01:48:58Z</time></trkpt>
<trkpt lat="26.749707" lon="98.892444">
<time>2014-08-05T01:48:59Z</time></trkpt>
<trkpt lat="26.749847" lon="98.892424">
<time>2014-08-05T01:49:00Z</time></trkpt>
<trkpt lat="26.749967" lon="98.892414">
<time>2014-08-05T01:49:01Z</time></trkpt>
<trkpt lat="26.750027" lon="98.892414">
<time>2014-08-05T01:49:02Z</time></trkpt>
<trkpt lat="26.750117" lon="98.892394">
<time>2014-08-05T01:49:03Z</time></trkpt>
<trkpt lat="26.750207" lon="98.892384">
<time>2014-08-05T01:49:04Z</time></trkpt>
<trkpt lat="26.750317" lon="98.892354">
<time>2014-08-05T01:49:05Z</time></trkpt>
<trkpt lat="26.750377" lon="98.892324">
<time>2014-08-05T01:49:06Z</time></trkpt>
<trkpt lat="26.750497" lon="98.892264">
<time>2014-08-05T01:49:07Z</time></trkpt>
<trkpt lat="26.750547" lon="98.892224">
<time>2014-08-05T01:49:08Z</time></trkpt>
<trkpt lat="26.750727" lon="98.892094">
<time>2014-08-05T01:49:09Z</time></trkpt>
<trkpt lat="26.751166" lon="98.891725">
<time>2014-08-05T01:49:10Z</time></trkpt>
<trkpt lat="26.751566" lon="98.891405">
<time>2014-08-05T01:49:11Z</time></trkpt>
<trkpt lat="26.751676" lon="98.891335">
<time>2014-08-05T01:49:12Z</time></trkpt>
<trkpt lat="26.751906" lon="98.891215">
<time>2014-08-05T01:49:13Z</time></trkpt>
<trkpt lat="26.752006" lon="98.891175">
<time>2014-08-05T01:49:14Z</time></trkpt>
<trkpt lat="26.752316" lon="98.891005">
<time>2014-08-05T01:49:15Z</time></trkpt>
<trkpt lat="26.752416" lon="98.890945">
<time>2014-08-05T01:49:16Z</time></trkpt>
<trkpt lat="26.752656" lon="98.890765">
<time>2014-08-05T01:49:17Z</time></trkpt>
<trkpt lat="26.753106" lon="98.890405">
<time>2014-08-05T01:49:18Z</time></trkpt>
<trkpt lat="26.753216" lon="98.890315">
<time>2014-08-05T01:49:19Z</time></trkpt>
<trkpt lat="26.753526" lon="98.890085">
<time>2014-08-05T01:49:20Z</time></trkpt>
<trkpt lat="26.753825" lon="98.889885">
<time>2014-08-05T01:49:21Z</time></trkpt>
<trkpt lat="26.753925" lon="98.889835">
<time>2014-08-05T01:49:22Z</time></trkpt>
<trkpt lat="26.754195" lon="98.889745">
<time>2014-08-05T01:49:23Z</time></trkpt>
<trkpt lat="26.754555" lon="98.889645">
<time>2014-08-05T01:49:24Z</time></trkpt>
<trkpt lat="26.754915" lon="98.889595">
<time>2014-08-05T01:49:25Z</time></trkpt>
<trkpt lat="26.755305" lon="98.889565">
<time>2014-08-05T01:49:26Z</time></trkpt>
<trkpt lat="26.755395" lon="98.889565">
<time>2014-08-05T01:49:27Z</time></trkpt>
<trkpt lat="26.755635" lon="98.889585">
<time>2014-08-05T01:49:28Z</time></trkpt>
<trkpt lat="26.756165" lon="98.889635">
<time>2014-08-05T01:49:29Z</time></trkpt>
<trkpt lat="26.756545" lon="98.889675">
<time>2014-08-05T01:49:30Z</time></trkpt>
<trkpt lat="26.756665" lon="98.889685">
<time>2014-08-05T01:49:31Z</time></trkpt>
<trkpt lat="26.756895" lon="98.889735">
<time>2014-08-05T01:49:32Z</time></trkpt>
<trkpt lat="26.757235" lon="98.889815">
<time>2014-08-05T01:49:33Z</time></trkpt>
<trkpt lat="26.757535" lon="98.889885">
<time>2014-08-05T01:49:34Z</time></trkpt>
<trkpt lat="26.757625" lon="98.889915">
<time>2014-08-05T01:49:35Z</time></trkpt>
<trkpt lat="26.757685" lon="98.889955">
<time>2014-08-05T01:49:36Z</time></trkpt>
<trkpt lat="26.758005" lon="98.890185">
<time>2014-08-05T01:49:37Z</time></trkpt>
<trkpt lat="26.758165" lon="98.890275">
<time>2014-08-05T01:49:38Z</time></trkpt>
<trkpt lat="26.758255" lon="98.890315">
<time>2014-08-05T01:49:39Z</time></trkpt>
<trkpt lat="26.758305" lon="98.890325">
<time>2014-08-05T01:49:40Z</time></trkpt>
<trkpt lat="26.758325" lon="98.890335">
<time>2014-08-05T01:49:41Z</time></trkpt>
<trkpt lat="26.758355" lon="98.890345">
<time>2014-08-05T01:49:42Z</time></trkpt>
<trkpt lat="26.758425" lon="98.890345">
<time>2014-08-05T01:49:43Z</time></trkpt>
<trkpt lat="26.758525" lon="98.890355">
<time>2014-08-05T01:49:44Z</time></trkpt>
<trkpt lat="26.758685" lon="98.890345">
<time>2014-08-05T01:49:45Z</time></trkpt>
<trkpt lat="26.758985" lon="98.890295">
<time>2014-08-05T01:49:46Z</time></trkpt>
<trkpt lat="26.759095" lon="98.890295">
<time>2014-08-05T01:49:47Z</time></trkpt>
<trkpt lat="26.759345" lon="98.890295">
<time>2014-08-05T01:49:48Z</time></trkpt>
<trkpt lat="26.759675" lon="98.890315">
<time>2014-08-05T01:49:49Z</time></trkpt>
<trkpt lat="26.760015" lon="98.890355">
<time>2014-08-05T01:49:50Z</time></trkpt>
<trkpt lat="26.760115" lon="98.890385">
<time>2014-08-05T01:49:51Z</time></trkpt>
<trkpt lat="26.760215" lon="98.890415">
<time>2014-08-05T01:49:52Z</time></trkpt>
<trkpt lat="26.760435" lon="98.890485">
<time>2014-08-05T01:49:53Z</time></trkpt>
<trkpt lat="26.760805" lon="98.890555">
<time>2014-08-05T01:49:54Z</time></trkpt>
<trkpt lat="26.760995" lon="98.890575">
<time>2014-08-05T01:49:55Z</time></trkpt>
<trkpt lat="26.761135" lon="98.890585">
<time>2014-08-05T01:49:56Z</time></trkpt>
<trkpt lat="26.761255" lon="98.890575">
<time>2014-08-05T01:49:57Z</time></trkpt>
<trkpt lat="26.761495" lon="98.890575">
<time>2014-08-05T01:49:58Z</time></trkpt>
<trkpt lat="26.761545" lon="98.890575">
<time>2014-08-05T01:49:59Z</time></trkpt>
<trkpt lat="26.761565" lon="98.890575">
<time>2014-08-05T01:50:00Z</time></trkpt>
<trkpt lat="26.761585" lon="98.890575">
<time>2014-08-05T01:50:01Z</time></trkpt>
<trkpt lat="26.761625" lon="98.890575">
<time>2014-08-05T01:50:02Z</time></trkpt>
<trkpt lat="26.761675" lon="98.890585">
<time>2014-08-05T01:50:03Z</time></trkpt>
<trkpt lat="26.761715" lon="98.890595">
<time>2014-08-05T01:50:04Z</time></trkpt>
<trkpt lat="26.761805" lon="98.890625">
<time>2014-08-05T01:50:05Z</time></trkpt>
<trkpt lat="26.762145" lon="98.890775">
<time>2014-08-05T01:50:06Z</time></trkpt>
<trkpt lat="26.762305" lon="98.890835">
<time>2014-08-05T01:50:07Z</time></trkpt>
<trkpt lat="26.762415" lon="98.890845">
<time>2014-08-05T01:50:08Z</time></trkpt>
<trkpt lat="26.762495" lon="98.890855">
<time>2014-08-05T01:50:09Z</time></trkpt>
<trkpt lat="26.762665" lon="98.890855">
<time>2014-08-05T01:50:10Z</time></trkpt>
<trkpt lat="26.762785" lon="98.890855">
<time>2014-08-05T01:50:11Z</time></trkpt>
<trkpt lat="26.762855" lon="98.890855">
<time>2014-08-05T01:50:12Z</time></trkpt>
<trkpt lat="26.762865" lon="98.890855">
<time>2014-08-05T01:50:13Z</time></trkpt>
<trkpt lat="26.762875" lon="98.890845">
<time>2014-08-05T01:50:14Z</time></trkpt>
<trkpt lat="26.762945" lon="98.890825">
<time>2014-08-05T01:50:15Z</time></trkpt>
<trkpt lat="26.763025" lon="98.890805">
<time>2014-08-05T01:50:16Z</time></trkpt>
<trkpt lat="26.763065" lon="98.890795">
<time>2014-08-05T01:50:17Z</time></trkpt>
<trkpt lat="26.763085" lon="98.890785">
<time>2014-08-05T01:50:18Z</time></trkpt>
<trkpt lat="26.763095" lon="98.890775">
<time>2014-08-05T01:50:19Z</time></trkpt>
<trkpt lat="26.763405" lon="98.890605">
<time>2014-08-05T01:50:20Z</time></trkpt>
<trkpt lat="26.763475" lon="98.890575">
<time>2014-08-05T01:50:21Z</time></trkpt>
<trkpt lat="26.763555" lon="98.890535">
<time>2014-08-05T01:50:22Z</time></trkpt>
<trkpt lat="26.763615" lon="98.890525">
<time>2014-08-05T01:50:23Z</time></trkpt>
<trkpt lat="26.763675" lon="98.890525">
<time>2014-08-05T01:50:24Z</time></trkpt>
<trkpt lat="26.763705" lon="98.890525">
<time>2014-08-05T01:50:25Z</time></trkpt>
<trkpt lat="26.763735" lon="98.890525">
<time>2014-08-05T01:50:26Z</time></trkpt>
<trkpt lat="26.764005" lon="98.890585">
<time>2014-08-05T01:50:27Z</time></trkpt>
<trkpt lat="26.764155" lon="98.890615">
<time>2014-08-05T01:50:28Z</time></trkpt>
<trkpt lat="26.764285" lon="98.890625">
<time>2014-08-05T01:50:29Z</time></trkpt>
<trkpt lat="26.764615" lon="98.890635">
<time>2014-08-05T01:50:30Z</time></trkpt>
<trkpt lat="26.764955" lon="98.890625">
<time>2014-08-05T01:50:31Z</time></trkpt>
<trkpt lat="26.765335" lon="98.890615">
<time>2014-08-05T01:50:32Z</time></trkpt>
<trkpt lat="26.765575" lon="98.890605">
<time>2014-08-05T01:50:33Z</time></trkpt>
<trkpt lat="26.765695" lon="98.890595">
<time>2014-08-05T01:50:34Z</time></trkpt>
<trkpt lat="26.765865" lon="98.890585">
<time>2014-08-05T01:50:35Z</time></trkpt>
<trkpt lat="26.766205" lon="98.890555">
<time>2014-08-05T01:50:36Z</time></trkpt>
<trkpt lat="26.766555" lon="98.890505">
<time>2014-08-05T01:50:37Z</time></trkpt>
<trkpt lat="26.766915" lon="98.890445">
<time>2014-08-05T01:50:38Z</time></trkpt>
<trkpt lat="26.767135" lon="98.890395">
<time>2014-08-05T01:50:39Z</time></trkpt>
<trkpt lat="26.767245" lon="98.890375">
<time>2014-08-05T01:50:40Z</time></trkpt>
<trkpt lat="26.767265" lon="98.890375">
<time>2014-08-05T01:50:41Z</time></trkpt>
<trkpt lat="26.767695" lon="98.890335">
<time>2014-08-05T01:50:42Z</time></trkpt>
<trkpt lat="26.767815" lon="98.890315">
<time>2014-08-05T01:50:43Z</time></trkpt>
<trkpt lat="26.768164" lon="98.890245">
<time>2014-08-05T01:50:44Z</time></trkpt>
<trkpt lat="26.768524" lon="98.890195">
<time>2014-08-05T01:50:45Z</time></trkpt>
<trkpt lat="26.769914" lon="98.890015">
<time>2014-08-05T01:50:46Z</time></trkpt>
<trkpt lat="26.770274" lon="98.889945">
<time>2014-08-05T01:50:47Z</time></trkpt>
<trkpt lat="26.770474" lon="98.889895">
<time>2014-08-05T01:50:48Z</time></trkpt>
<trkpt lat="26.770564" lon="98.889875">
<time>2014-08-05T01:50:49Z</time></trkpt>
<trkpt lat="26.770834" lon="98.889805">
<time>2014-08-05T01:50:50Z</time></trkpt>
<trkpt lat="26.771184" lon="98.889685">
<time>2014-08-05T01:50:51Z</time></trkpt>
<trkpt lat="26.771534" lon="98.889585">
<time>2014-08-05T01:50:52Z</time></trkpt>
<trkpt lat="26.771704" lon="98.889545">
<time>2014-08-05T01:50:53Z</time></trkpt>
<trkpt lat="26.771924" lon="98.889505">
<time>2014-08-05T01:50:54Z</time></trkpt>
<trkpt lat="26.772054" lon="98.889495">
<time>2014-08-05T01:50:55Z</time></trkpt>
<trkpt lat="26.772124" lon="98.889485">
<time>2014-08-05T01:50:56Z</time></trkpt>
<trkpt lat="26.772284" lon="98.889485">
<time>2014-08-05T01:50:57Z</time></trkpt>
<trkpt lat="26.772404" lon="98.889485">
<time>2014-08-05T01:50:58Z</time></trkpt>
<trkpt lat="26.772784" lon="98.889505">
<time>2014-08-05T01:50:59Z</time></trkpt>
<trkpt lat="26.773294" lon="98.889525">
<time>2014-08-05T01:51:00Z</time></trkpt>
<trkpt lat="26.773894" lon="98.889525">
<time>2014-08-05T01:51:01Z</time></trkpt>
<trkpt lat="26.774244" lon="98.889475">
<time>2014-08-05T01:51:02Z</time></trkpt>
<trkpt lat="26.774433" lon="98.889455">
<time>2014-08-05T01:51:03Z</time></trkpt>
<trkpt lat="26.774623" lon="98.889435">
<time>2014-08-05T01:51:04Z</time></trkpt>
<trkpt lat="26.774693" lon="98.889445">
<time>2014-08-05T01:51:05Z</time></trkpt>
<trkpt lat="26.774873" lon="98.889465">
<time>2014-08-05T01:51:06Z</time></trkpt>
<trkpt lat="26.775133" lon="98.889505">
<time>2014-08-05T01:51:07Z</time></trkpt>
<trkpt lat="26.775233" lon="98.889515">
<time>2014-08-05T01:51:08Z</time></trkpt>
<trkpt lat="26.775433" lon="98.889535">
<time>2014-08-05T01:51:09Z</time></trkpt>
<trkpt lat="26.775533" lon="98.889535">
<time>2014-08-05T01:51:10Z</time></trkpt>
<trkpt lat="26.775943" lon="98.889555">
<time>2014-08-05T01:51:11Z</time></trkpt>
<trkpt lat="26.776293" lon="98.889565">
<time>2014-08-05T01:51:12Z</time></trkpt>
<trkpt lat="26.776463" lon="98.889565">
<time>2014-08-05T01:51:13Z</time></trkpt>
<trkpt lat="26.776583" lon="98.889555">
<time>2014-08-05T01:51:14Z</time></trkpt>
<trkpt lat="26.776833" lon="98.889525">
<time>2014-08-05T01:51:15Z</time></trkpt>
<trkpt lat="26.777093" lon="98.889495">
<time>2014-08-05T01:51:16Z</time></trkpt>
<trkpt lat="26.777233" lon="98.889475">
<time>2014-08-05T01:51:17Z</time></trkpt>
<trkpt lat="26.777403" lon="98.889475">
<time>2014-08-05T01:51:18Z</time></trkpt>
<trkpt lat="26.777533" lon="98.889485">
<time>2014-08-05T01:51:19Z</time></trkpt>
<trkpt lat="26.777603" lon="98.889495">
<time>2014-08-05T01:51:20Z</time></trkpt>
<trkpt lat="26.777773" lon="98.889555">
<time>2014-08-05T01:51:21Z</time></trkpt>
<trkpt lat="26.778233" lon="98.889785">
<time>2014-08-05T01:51:22Z</time></trkpt>
<trkpt lat="26.778503" lon="98.889925">
<time>2014-08-05T01:51:23Z</time></trkpt>
<trkpt lat="26.778613" lon="98.889975">
<time>2014-08-05T01:51:24Z</time></trkpt>
<trkpt lat="26.778763" lon="98.890005">
<time>2014-08-05T01:51:25Z</time></trkpt>
<trkpt lat="26.778853" lon="98.890005">
<time>2014-08-05T01:51:26Z</time></trkpt>
<trkpt lat="26.778943" lon="98.890005">
<time>2014-08-05T01:51:27Z</time></trkpt>
<trkpt lat="26.779003" lon="98.889985">
<time>2014-08-05T01:51:28Z</time></trkpt>
<trkpt lat="26.779093" lon="98.889965">
<time>2014-08-05T01:51:29Z</time></trkpt>
<trkpt lat="26.779153" lon="98.889935">
<time>2014-08-05T01:51:30Z</time></trkpt>
<trkpt lat="26.779303" lon="98.889845">
<time>2014-08-05T01:51:31Z</time></trkpt>
<trkpt lat="26.779503" lon="98.889735">
<time>2014-08-05T01:51:32Z</time></trkpt>
<trkpt lat="26.779593" lon="98.889705">
<time>2014-08-05T01:51:33Z</time></trkpt>
<trkpt lat="26.779683" lon="98.889685">
<time>2014-08-05T01:51:34Z</time></trkpt>
<trkpt lat="26.779743" lon="98.889675">
<time>2014-08-05T01:51:35Z</time></trkpt>
<trkpt lat="26.779823" lon="98.889685">
<time>2014-08-05T01:51:36Z</time></trkpt>
<trkpt lat="26.780033" lon="98.889735">
<time>2014-08-05T01:51:37Z</time></trkpt>
<trkpt lat="26.780183" lon="98.889755">
<time>2014-08-05T01:51:38Z</time></trkpt>
<trkpt lat="26.780253" lon="98.889765">
<time>2014-08-05T01:51:39Z</time></trkpt>
<trkpt lat="26.780343" lon="98.889735">
<time>2014-08-05T01:51:40Z</time></trkpt>
<trkpt lat="26.780393" lon="98.889725">
<time>2014-08-05T01:51:41Z</time></trkpt>
<trkpt lat="26.780673" lon="98.889575">
<time>2014-08-05T01:51:42Z</time></trkpt>
<trkpt lat="26.780733" lon="98.889535">
<time>2014-08-05T01:51:43Z</time></trkpt>
<trkpt lat="26.780803" lon="98.889505">
<time>2014-08-05T01:51:44Z</time></trkpt>
<trkpt lat="26.780883" lon="98.889465">
<time>2014-08-05T01:51:45Z</time></trkpt>
<trkpt lat="26.780963" lon="98.889445">
<time>2014-08-05T01:51:46Z</time></trkpt>
<trkpt lat="26.781223" lon="98.889385">
<time>2014-08-05T01:51:47Z</time></trkpt>
<trkpt lat="26.781463" lon="98.889345">
<time>2014-08-05T01:51:48Z</time></trkpt>
<trkpt lat="26.781543" lon="98.889345">
<time>2014-08-05T01:51:49Z</time></trkpt>
<trkpt lat="26.781603" lon="98.889345">
<time>2014-08-05T01:51:50Z</time></trkpt>
<trkpt lat="26.781663" lon="98.889345">
<time>2014-08-05T01:51:51Z</time></trkpt>
<trkpt lat="26.781743" lon="98.889355">
<time>2014-08-05T01:51:52Z</time></trkpt>
<trkpt lat="26.781823" lon="98.889365">
<time>2014-08-05T01:51:53Z</time></trkpt>
<trkpt lat="26.781883" lon="98.889375">
<time>2014-08-05T01:51:54Z</time></trkpt>
<trkpt lat="26.782133" lon="98.889425">
<time>2014-08-05T01:51:55Z</time></trkpt>
<trkpt lat="26.782223" lon="98.889445">
<time>2014-08-05T01:51:56Z</time></trkpt>
<trkpt lat="26.782333" lon="98.889445">
<time>2014-08-05T01:51:57Z</time></trkpt>
<trkpt lat="26.782383" lon="98.889445">
<time>2014-08-05T01:51:58Z</time></trkpt>
<trkpt lat="26.782483" lon="98.889425">
<time>2014-08-05T01:51:59Z</time></trkpt>
<trkpt lat="26.782863" lon="98.889295">
<time>2014-08-05T01:52:00Z</time></trkpt>
<trkpt lat="26.782973" lon="98.889255">
<time>2014-08-05T01:52:01Z</time></trkpt>
<trkpt lat="26.783172" lon="98.889205">
<time>2014-08-05T01:52:02Z</time></trkpt>
<trkpt lat="26.783232" lon="98.889185">
<time>2014-08-05T01:52:03Z</time></trkpt>
<trkpt lat="26.783292" lon="98.889185">
<time>2014-08-05T01:52:04Z</time></trkpt>
<trkpt lat="26.783382" lon="98.889175">
<time>2014-08-05T01:52:05Z</time></trkpt>
<trkpt lat="26.783442" lon="98.889175">
<time>2014-08-05T01:52:06Z</time></trkpt>
<trkpt lat="26.783532" lon="98.889185">
<time>2014-08-05T01:52:07Z</time></trkpt>
<trkpt lat="26.783732" lon="98.889225">
<time>2014-08-05T01:52:08Z</time></trkpt>
<trkpt lat="26.784082" lon="98.889275">
<time>2014-08-05T01:52:09Z</time></trkpt>
<trkpt lat="26.784222" lon="98.889295">
<time>2014-08-05T01:52:10Z</time></trkpt>
<trkpt lat="26.784392" lon="98.889295">
<time>2014-08-05T01:52:11Z</time></trkpt>
<trkpt lat="26.784472" lon="98.889285">
<time>2014-08-05T01:52:12Z</time></trkpt>
<trkpt lat="26.784572" lon="98.889285">
<time>2014-08-05T01:52:13Z</time></trkpt>
<trkpt lat="26.784752" lon="98.889255">
<time>2014-08-05T01:52:14Z</time></trkpt>
<trkpt lat="26.784802" lon="98.889245">
<time>2014-08-05T01:52:15Z</time></trkpt>
<trkpt lat="26.785152" lon="98.889175">
<time>2014-08-05T01:52:16Z</time></trkpt>
<trkpt lat="26.785472" lon="98.889125">
<time>2014-08-05T01:52:17Z</time></trkpt>
<trkpt lat="26.785802" lon="98.889065">
<time>2014-08-05T01:52:18Z</time></trkpt>
<trkpt lat="26.785882" lon="98.889065">
<time>2014-08-05T01:52:19Z</time></trkpt>
<trkpt lat="26.786182" lon="98.889005">
<time>2014-08-05T01:52:20Z</time></trkpt>
<trkpt lat="26.786292" lon="98.888975">
<time>2014-08-05T01:52:21Z</time></trkpt>
<trkpt lat="26.786392" lon="98.888955">
<time>2014-08-05T01:52:22Z</time></trkpt>
<trkpt lat="26.786522" lon="98.888935">
<time>2014-08-05T01:52:23Z</time></trkpt>
<trkpt lat="26.786752" lon="98.888825">
<time>2014-08-05T01:52:24Z</time></trkpt>
<trkpt lat="26.786852" lon="98.888775">
<time>2014-08-05T01:52:25Z</time></trkpt>
<trkpt lat="26.787062" lon="98.888675">
<time>2014-08-05T01:52:26Z</time></trkpt>
<trkpt lat="26.787222" lon="98.888605">
<time>2014-08-05T01:52:27Z</time></trkpt>
<trkpt lat="26.787592" lon="98.888475">
<time>2014-08-05T01:52:28Z</time></trkpt>
<trkpt lat="26.788161" lon="98.888285">
<time>2014-08-05T01:52:29Z</time></trkpt>
<trkpt lat="26.788881" lon="98.888005">
<time>2014-08-05T01:52:30Z</time></trkpt>
<trkpt lat="26.789211" lon="98.887825">
<time>2014-08-05T01:52:31Z</time></trkpt>
<trkpt lat="26.789271" lon="98.887785">
<time>2014-08-05T01:52:32Z</time></trkpt>
<trkpt lat="26.789591" lon="98.887565">
<time>2014-08-05T01:52:33Z</time></trkpt>
<trkpt lat="26.790001" lon="98.887275">
<time>2014-08-05T01:52:34Z</time></trkpt>
<trkpt lat="26.79071" lon="98.886775">
<time>2014-08-05T01:52:35Z</time></trkpt>
<trkpt lat="26.79151" lon="98.886205">
<time>2014-08-05T01:52:36Z</time></trkpt>
<trkpt lat="26.792719" lon="98.885355">
<time>2014-08-05T01:52:37Z</time></trkpt>
<trkpt lat="26.792789" lon="98.885305">
<time>2014-08-05T01:52:38Z</time></trkpt>
<trkpt lat="26.793239" lon="98.884975">
<time>2014-08-05T01:52:39Z</time></trkpt>
<trkpt lat="26.793609" lon="98.884735">
<time>2014-08-05T01:52:40Z</time></trkpt>
<trkpt lat="26.793699" lon="98.884675">
<time>2014-08-05T01:52:41Z</time></trkpt>
<trkpt lat="26.793769" lon="98.884635">
<time>2014-08-05T01:52:42Z</time></trkpt>
<trkpt lat="26.793928" lon="98.884555">
<time>2014-08-05T01:52:43Z</time></trkpt>
<trkpt lat="26.794288" lon="98.884315">
<time>2014-08-05T01:52:44Z</time></trkpt>
<trkpt lat="26.794398" lon="98.884255">
<time>2014-08-05T01:52:45Z</time></trkpt>
<trkpt lat="26.794658" lon="98.884105">
<time>2014-08-05T01:52:46Z</time></trkpt>
<trkpt lat="26.795038" lon="98.883935">
<time>2014-08-05T01:52:47Z</time></trkpt>
<trkpt lat="26.795188" lon="98.883865">
<time>2014-08-05T01:52:48Z</time></trkpt>
<trkpt lat="26.795428" lon="98.883775">
<time>2014-08-05T01:52:49Z</time></trkpt>
<trkpt lat="26.796067" lon="98.883495">
<time>2014-08-05T01:52:50Z</time></trkpt>
<trkpt lat="26.796587" lon="98.883265">
<time>2014-08-05T01:52:51Z</time></trkpt>
<trkpt lat="26.796987" lon="98.883095">
<time>2014-08-05T01:52:52Z</time></trkpt>
<trkpt lat="26.797327" lon="98.882955">
<time>2014-08-05T01:52:53Z</time></trkpt>
<trkpt lat="26.797827" lon="98.882745">
<time>2014-08-05T01:52:54Z</time></trkpt>
<trkpt lat="26.798057" lon="98.882635">
<time>2014-08-05T01:52:55Z</time></trkpt>
<trkpt lat="26.798726" lon="98.882295">
<time>2014-08-05T01:52:56Z</time></trkpt>
<trkpt lat="26.799136" lon="98.882095">
<time>2014-08-05T01:52:57Z</time></trkpt>
<trkpt lat="26.799496" lon="98.881925">
<time>2014-08-05T01:52:58Z</time></trkpt>
<trkpt lat="26.799536" lon="98.881915">
<time>2014-08-05T01:52:59Z</time></trkpt>
<trkpt lat="26.799616" lon="98.881895">
<time>2014-08-05T01:53:00Z</time></trkpt>
<trkpt lat="26.799716" lon="98.881875">
<time>2014-08-05T01:53:01Z</time></trkpt>
<trkpt lat="26.799766" lon="98.881865">
<time>2014-08-05T01:53:02Z</time></trkpt>
<trkpt lat="26.799806" lon="98.881865">
<time>2014-08-05T01:53:03Z</time></trkpt>
<trkpt lat="26.799826" lon="98.881865">
<time>2014-08-05T01:53:04Z</time></trkpt>
<trkpt lat="26.800136" lon="98.881885">
<time>2014-08-05T01:53:05Z</time></trkpt>
<trkpt lat="26.800156" lon="98.881885">
<time>2014-08-05T01:53:06Z</time></trkpt>
<trkpt lat="26.800496" lon="98.881915">
<time>2014-08-05T01:53:07Z</time></trkpt>
<trkpt lat="26.800856" lon="98.881945">
<time>2014-08-05T01:53:08Z</time></trkpt>
<trkpt lat="26.800986" lon="98.881945">
<time>2014-08-05T01:53:09Z</time></trkpt>
<trkpt lat="26.801226" lon="98.881985">
<time>2014-08-05T01:53:10Z</time></trkpt>
<trkpt lat="26.801306" lon="98.882005">
<time>2014-08-05T01:53:11Z</time></trkpt>
<trkpt lat="26.801596" lon="98.882105">
<time>2014-08-05T01:53:12Z</time></trkpt>
<trkpt lat="26.801796" lon="98.882175">
<time>2014-08-05T01:53:13Z</time></trkpt>
<trkpt lat="26.801916" lon="98.882225">
<time>2014-08-05T01:53:14Z</time></trkpt>
<trkpt lat="26.802306" lon="98.882365">
<time>2014-08-05T01:53:15Z</time></trkpt>
<trkpt lat="26.802426" lon="98.882395">
<time>2014-08-05T01:53:16Z</time></trkpt>
<trkpt lat="26.802806" lon="98.882415">
<time>2014-08-05T01:53:17Z</time></trkpt>
<trkpt lat="26.803126" lon="98.882435">
<time>2014-08-05T01:53:18Z</time></trkpt>
<trkpt lat="26.803346" lon="98.882445">
<time>2014-08-05T01:53:19Z</time></trkpt>
<trkpt lat="26.803716" lon="98.882475">
<time>2014-08-05T01:53:20Z</time></trkpt>
<trkpt lat="26.804056" lon="98.882565">
<time>2014-08-05T01:53:21Z</time></trkpt>
<trkpt lat="26.804196" lon="98.882625">
<time>2014-08-05T01:53:22Z</time></trkpt>
<trkpt lat="26.804256" lon="98.882655">
<time>2014-08-05T01:53:23Z</time></trkpt>
<trkpt lat="26.804326" lon="98.882685">
<time>2014-08-05T01:53:24Z</time></trkpt>
<trkpt lat="26.804446" lon="98.882765">
<time>2014-08-05T01:53:25Z</time></trkpt>
<trkpt lat="26.804796" lon="98.882985">
<time>2014-08-05T01:53:26Z</time></trkpt>
<trkpt lat="26.805326" lon="98.883365">
<time>2014-08-05T01:53:27Z</time></trkpt>
<trkpt lat="26.806907" lon="98.884275">
<time>2014-08-05T01:53:28Z</time></trkpt>
<trkpt lat="26.807397" lon="98.884555">
<time>2014-08-05T01:53:29Z</time></trkpt>
<trkpt lat="26.807617" lon="98.884665">
<time>2014-08-05T01:53:30Z</time></trkpt>
<trkpt lat="26.807757" lon="98.884715">
<time>2014-08-05T01:53:31Z</time></trkpt>
<trkpt lat="26.807867" lon="98.884755">
<time>2014-08-05T01:53:32Z</time></trkpt>
<trkpt lat="26.808077" lon="98.884845">
<time>2014-08-05T01:53:33Z</time></trkpt>
<trkpt lat="26.808287" lon="98.884975">
<time>2014-08-05T01:53:34Z</time></trkpt>
<trkpt lat="26.808487" lon="98.885125">
<time>2014-08-05T01:53:35Z</time></trkpt>
<trkpt lat="26.808627" lon="98.885195">
<time>2014-08-05T01:53:36Z</time></trkpt>
<trkpt lat="26.808717" lon="98.885235">
<time>2014-08-05T01:53:37Z</time></trkpt>
<trkpt lat="26.808767" lon="98.885255">
<time>2014-08-05T01:53:38Z</time></trkpt>
<trkpt lat="26.808997" lon="98.885295">
<time>2014-08-05T01:53:39Z</time></trkpt>
<trkpt lat="26.809327" lon="98.885345">
<time>2014-08-05T01:53:40Z</time></trkpt>
<trkpt lat="26.809417" lon="98.885355">
<time>2014-08-05T01:53:41Z</time></trkpt>
<trkpt lat="26.809487" lon="98.885385">
<time>2014-08-05T01:53:42Z</time></trkpt>
<trkpt lat="26.809547" lon="98.885405">
<time>2014-08-05T01:53:43Z</time></trkpt>
<trkpt lat="26.809647" lon="98.885465">
<time>2014-08-05T01:53:44Z</time></trkpt>
<trkpt lat="26.809667" lon="98.885475">
<time>2014-08-05T01:53:45Z</time></trkpt>
<trkpt lat="26.809677" lon="98.885495">
<time>2014-08-05T01:53:46Z</time></trkpt>
<trkpt lat="26.809877" lon="98.885665">
<time>2014-08-05T01:53:47Z</time></trkpt>
<trkpt lat="26.809937" lon="98.885715">
<time>2014-08-05T01:53:48Z</time></trkpt>
<trkpt lat="26.809977" lon="98.885755">
<time>2014-08-05T01:53:49Z</time></trkpt>
<trkpt lat="26.810037" lon="98.885785">
<time>2014-08-05T01:53:50Z</time></trkpt>
<trkpt lat="26.810097" lon="98.885815">
<time>2014-08-05T01:53:51Z</time></trkpt>
<trkpt lat="26.810147" lon="98.885825">
<time>2014-08-05T01:53:52Z</time></trkpt>
<trkpt lat="26.810217" lon="98.885845">
<time>2014-08-05T01:53:53Z</time></trkpt>
<trkpt lat="26.810567" lon="98.885905">
<time>2014-08-05T01:53:54Z</time></trkpt>
<trkpt lat="26.810927" lon="98.885945">
<time>2014-08-05T01:53:55Z</time></trkpt>
<trkpt lat="26.811287" lon="98.885995">
<time>2014-08-05T01:53:56Z</time></trkpt>
<trkpt lat="26.811387" lon="98.886005">
<time>2014-08-05T01:53:57Z</time></trkpt>
<trkpt lat="26.811457" lon="98.886025">
<time>2014-08-05T01:53:58Z</time></trkpt>
<trkpt lat="26.811517" lon="98.886035">
<time>2014-08-05T01:53:59Z</time></trkpt>
<trkpt lat="26.811587" lon="98.886065">
<time>2014-08-05T01:54:00Z</time></trkpt>
<trkpt lat="26.811687" lon="98.886095">
<time>2014-08-05T01:54:01Z</time></trkpt>
<trkpt lat="26.811927" lon="98.886205">
<time>2014-08-05T01:54:02Z</time></trkpt>
<trkpt lat="26.812157" lon="98.886305">
<time>2014-08-05T01:54:03Z</time></trkpt>
<trkpt lat="26.812297" lon="98.886365">
<time>2014-08-05T01:54:04Z</time></trkpt>
<trkpt lat="26.812367" lon="98.886395">
<time>2014-08-05T01:54:05Z</time></trkpt>
<trkpt lat="26.812437" lon="98.886425">
<time>2014-08-05T01:54:06Z</time></trkpt>
<trkpt lat="26.812567" lon="98.886465">
<time>2014-08-05T01:54:07Z</time></trkpt>
<trkpt lat="26.812627" lon="98.886485">
<time>2014-08-05T01:54:08Z</time></trkpt>
<trkpt lat="26.812717" lon="98.886505">
<time>2014-08-05T01:54:09Z</time></trkpt>
<trkpt lat="26.813007" lon="98.886545">
<time>2014-08-05T01:54:10Z</time></trkpt>
<trkpt lat="26.813067" lon="98.886555">
<time>2014-08-05T01:54:11Z</time></trkpt>
<trkpt lat="26.813547" lon="98.886615">
<time>2014-08-05T01:54:12Z</time></trkpt>
<trkpt lat="26.813947" lon="98.886655">
<time>2014-08-05T01:54:13Z</time></trkpt>
<trkpt lat="26.814287" lon="98.886695">
<time>2014-08-05T01:54:14Z</time></trkpt>
<trkpt lat="26.814487" lon="98.886715">
<time>2014-08-05T01:54:15Z</time></trkpt>
<trkpt lat="26.814567" lon="98.886725">
<time>2014-08-05T01:54:16Z</time></trkpt>
<trkpt lat="26.814637" lon="98.886725">
<time>2014-08-05T01:54:17Z</time></trkpt>
<trkpt lat="26.814807" lon="98.886745">
<time>2014-08-05T01:54:18Z</time></trkpt>
<trkpt lat="26.815037" lon="98.886775">
<time>2014-08-05T01:54:19Z</time></trkpt>
<trkpt lat="26.815367" lon="98.886825">
<time>2014-08-05T01:54:20Z</time></trkpt>
<trkpt lat="26.815737" lon="98.886855">
<time>2014-08-05T01:54:21Z</time></trkpt>
<trkpt lat="26.816067" lon="98.886855">
<time>2014-08-05T01:54:22Z</time></trkpt>
<trkpt lat="26.816577" lon="98.886825">
<time>2014-08-05T01:54:23Z</time></trkpt>
<trkpt lat="26.816907" lon="98.886825">
<time>2014-08-05T01:54:24Z</time></trkpt>
<trkpt lat="26.816977" lon="98.886825">
<time>2014-08-05T01:54:25Z</time></trkpt>
<trkpt lat="26.817277" lon="98.886835">
<time>2014-08-05T01:54:26Z</time></trkpt>
<trkpt lat="26.817337" lon="98.886835">
<time>2014-08-05T01:54:27Z</time></trkpt>
<trkpt lat="26.817377" lon="98.886835">
<time>2014-08-05T01:54:28Z</time></trkpt>
<trkpt lat="26.817407" lon="98.886835">
<time>2014-08-05T01:54:29Z</time></trkpt>
<trkpt lat="26.817437" lon="98.886845">
<time>2014-08-05T01:54:30Z</time></trkpt>
<trkpt lat="26.817497" lon="98.886855">
<time>2014-08-05T01:54:31Z</time></trkpt>
<trkpt lat="26.817547" lon="98.886865">
<time>2014-08-05T01:54:32Z</time></trkpt>
<trkpt lat="26.817597" lon="98.886885">
<time>2014-08-05T01:54:33Z</time></trkpt>
<trkpt lat="26.817637" lon="98.886905">
<time>2014-08-05T01:54:34Z</time></trkpt>
<trkpt lat="26.817727" lon="98.886965">
<time>2014-08-05T01:54:35Z</time></trkpt>
<trkpt lat="26.818077" lon="98.887235">
<time>2014-08-05T01:54:36Z</time></trkpt>
<trkpt lat="26.818187" lon="98.887305">
<time>2014-08-05T01:54:37Z</time></trkpt>
<trkpt lat="26.818217" lon="98.887335">
<time>2014-08-05T01:54:38Z</time></trkpt>
<trkpt lat="26.818237" lon="98.887335">
<time>2014-08-05T01:54:39Z</time></trkpt>
<trkpt lat="26.818257" lon="98.887345">
<time>2014-08-05T01:54:40Z</time></trkpt>
<trkpt lat="26.818327" lon="98.887365">
<time>2014-08-05T01:54:41Z</time></trkpt>
<trkpt lat="26.818397" lon="98.887365">
<time>2014-08-05T01:54:42Z</time></trkpt>
<trkpt lat="26.818447" lon="98.887375">
<time>2014-08-05T01:54:43Z</time></trkpt>
<trkpt lat="26.818537" lon="98.887375">
<time>2014-08-05T01:54:44Z</time></trkpt>
<trkpt lat="26.818717" lon="98.887345">
<time>2014-08-05T01:54:45Z</time></trkpt>
<trkpt lat="26.818897" lon="98.887335">
<time>2014-08-05T01:54:46Z</time></trkpt>
<trkpt lat="26.818987" lon="98.887325">
<time>2014-08-05T01:54:47Z</time></trkpt>
<trkpt lat="26.819157" lon="98.887325">
<time>2014-08-05T01:54:48Z</time></trkpt>
<trkpt lat="26.819237" lon="98.887325">
<time>2014-08-05T01:54:49Z</time></trkpt>
<trkpt lat="26.819307" lon="98.887335">
<time>2014-08-05T01:54:50Z</time></trkpt>
<trkpt lat="26.819517" lon="98.887354">
<time>2014-08-05T01:54:51Z</time></trkpt>
<trkpt lat="26.819807" lon="98.887394">
<time>2014-08-05T01:54:52Z</time></trkpt>
<trkpt lat="26.819997" lon="98.887434">
<time>2014-08-05T01:54:53Z</time></trkpt>
<trkpt lat="26.820087" lon="98.887444">
<time>2014-08-05T01:54:54Z</time></trkpt>
<trkpt lat="26.820157" lon="98.887454">
<time>2014-08-05T01:54:55Z</time></trkpt>
<trkpt lat="26.820327" lon="98.887454">
<time>2014-08-05T01:54:56Z</time></trkpt>
<trkpt lat="26.820647" lon="98.887434">
<time>2014-08-05T01:54:57Z</time></trkpt>
<trkpt lat="26.820717" lon="98.887434">
<time>2014-08-05T01:54:58Z</time></trkpt>
<trkpt lat="26.820787" lon="98.887424">
<time>2014-08-05T01:54:59Z</time></trkpt>
<trkpt lat="26.820847" lon="98.887424">
<time>2014-08-05T01:55:00Z</time></trkpt>
<trkpt lat="26.820997" lon="98.887424">
<time>2014-08-05T01:55:01Z</time></trkpt>
<trkpt lat="26.821177" lon="98.887414">
<time>2014-08-05T01:55:02Z</time></trkpt>
<trkpt lat="26.821277" lon="98.887404">
<time>2014-08-05T01:55:03Z</time></trkpt>
<trkpt lat="26.821517" lon="98.887364">
<time>2014-08-05T01:55:04Z</time></trkpt>
<trkpt lat="26.821927" lon="98.887264">
<time>2014-08-05T01:55:05Z</time></trkpt>
<trkpt lat="26.822087" lon="98.887204">
<time>2014-08-05T01:55:06Z</time></trkpt>
<trkpt lat="26.822177" lon="98.887164">
<time>2014-08-05T01:55:07Z</time></trkpt>
<trkpt lat="26.822576" lon="98.886955">
<time>2014-08-05T01:55:08Z</time></trkpt>
<trkpt lat="26.823456" lon="98.886455">
<time>2014-08-05T01:55:09Z</time></trkpt>
<trkpt lat="26.823796" lon="98.886265">
<time>2014-08-05T01:55:10Z</time></trkpt>
<trkpt lat="26.824156" lon="98.886065">
<time>2014-08-05T01:55:11Z</time></trkpt>
<trkpt lat="26.824226" lon="98.886025">
<time>2014-08-05T01:55:12Z</time></trkpt>
<trkpt lat="26.824326" lon="98.885955">
<time>2014-08-05T01:55:13Z</time></trkpt>
<trkpt lat="26.824505" lon="98.885815">
<time>2014-08-05T01:55:14Z</time></trkpt>
<trkpt lat="26.824535" lon="98.885765">
<time>2014-08-05T01:55:15Z</time></trkpt>
<trkpt lat="26.824585" lon="98.885705">
<time>2014-08-05T01:55:16Z</time></trkpt>
<trkpt lat="26.824825" lon="98.885335">
<time>2014-08-05T01:55:17Z</time></trkpt>
<trkpt lat="26.825035" lon="98.885045">
<time>2014-08-05T01:55:18Z</time></trkpt>
<trkpt lat="26.825105" lon="98.884955">
<time>2014-08-05T01:55:19Z</time></trkpt>
<trkpt lat="26.825195" lon="98.884875">
<time>2014-08-05T01:55:20Z</time></trkpt>
<trkpt lat="26.825405" lon="98.884745">
<time>2014-08-05T01:55:21Z</time></trkpt>
<trkpt lat="26.825784" lon="98.884545">
<time>2014-08-05T01:55:22Z</time></trkpt>
<trkpt lat="26.826174" lon="98.884335">
<time>2014-08-05T01:55:23Z</time></trkpt>
<trkpt lat="26.826644" lon="98.884075">
<time>2014-08-05T01:55:24Z</time></trkpt>
<trkpt lat="26.826854" lon="98.883955">
<time>2014-08-05T01:55:25Z</time></trkpt>
<trkpt lat="26.826924" lon="98.883915">
<time>2014-08-05T01:55:26Z</time></trkpt>
<trkpt lat="26.826944" lon="98.883895">
<time>2014-08-05T01:55:27Z</time></trkpt>
<trkpt lat="26.826994" lon="98.883855">
<time>2014-08-05T01:55:28Z</time></trkpt>
<trkpt lat="26.827054" lon="98.883805">
<time>2014-08-05T01:55:29Z</time></trkpt>
<trkpt lat="26.827094" lon="98.883755">
<time>2014-08-05T01:55:30Z</time></trkpt>
<trkpt lat="26.827124" lon="98.883715">
<time>2014-08-05T01:55:31Z</time></trkpt>
<trkpt lat="26.827163" lon="98.883645">
<time>2014-08-05T01:55:32Z</time></trkpt>
<trkpt lat="26.827213" lon="98.883545">
<time>2014-08-05T01:55:33Z</time></trkpt>
<trkpt lat="26.827293" lon="98.883325">
<time>2014-08-05T01:55:34Z</time></trkpt>
<trkpt lat="26.827483" lon="98.882725">
<time>2014-08-05T01:55:35Z</time></trkpt>
<trkpt lat="26.827593" lon="98.882495">
<time>2014-08-05T01:55:36Z</time></trkpt>
<trkpt lat="26.827652" lon="98.882415">
<time>2014-08-05T01:55:37Z</time></trkpt>
<trkpt lat="26.827712" lon="98.882365">
<time>2014-08-05T01:55:38Z</time></trkpt>
<trkpt lat="26.827802" lon="98.882305">
<time>2014-08-05T01:55:39Z</time></trkpt>
<trkpt lat="26.827802" lon="98.882295">
<time>2014-08-05T01:55:40Z</time></trkpt>
<trkpt lat="26.827962" lon="98.882275">
<time>2014-08-05T01:55:41Z</time></trkpt>
<trkpt lat="26.827972" lon="98.882275">
<time>2014-08-05T01:55:42Z</time></trkpt>
<trkpt lat="26.828172" lon="98.882285">
<time>2014-08-05T01:55:43Z</time></trkpt>
<trkpt lat="26.828272" lon="98.882285">
<time>2014-08-05T01:55:44Z</time></trkpt>
<trkpt lat="26.828312" lon="98.882285">
<time>2014-08-05T01:55:45Z</time></trkpt>
<trkpt lat="26.828352" lon="98.882275">
<time>2014-08-05T01:55:46Z</time></trkpt>
<trkpt lat="26.828382" lon="98.882265">
<time>2014-08-05T01:55:47Z</time></trkpt>
<trkpt lat="26.828412" lon="98.882245">
<time>2014-08-05T01:55:48Z</time></trkpt>
<trkpt lat="26.828432" lon="98.882235">
<time>2014-08-05T01:55:49Z</time></trkpt>
<trkpt lat="26.828462" lon="98.882215">
<time>2014-08-05T01:55:50Z</time></trkpt>
<trkpt lat="26.828492" lon="98.882195">
<time>2014-08-05T01:55:51Z</time></trkpt>
<trkpt lat="26.828522" lon="98.882165">
<time>2014-08-05T01:55:52Z</time></trkpt>
<trkpt lat="26.828742" lon="98.881895">
<time>2014-08-05T01:55:53Z</time></trkpt>
<trkpt lat="26.828922" lon="98.881685">
<time>2014-08-05T01:55:54Z</time></trkpt>
<trkpt lat="26.828992" lon="98.881625">
<time>2014-08-05T01:55:55Z</time></trkpt>
<trkpt lat="26.829022" lon="98.881605">
<time>2014-08-05T01:55:56Z</time></trkpt>
<trkpt lat="26.829062" lon="98.881584">
<time>2014-08-05T01:55:57Z</time></trkpt>
<trkpt lat="26.829102" lon="98.881574">
<time>2014-08-05T01:55:58Z</time></trkpt>
<trkpt lat="26.829162" lon="98.881564">
<time>2014-08-05T01:55:59Z</time></trkpt>
<trkpt lat="26.829202" lon="98.881564">
<time>2014-08-05T01:56:00Z</time></trkpt>
<trkpt lat="26.829232" lon="98.881564">
<time>2014-08-05T01:56:01Z</time></trkpt>
<trkpt lat="26.829282" lon="98.881574">
<time>2014-08-05T01:56:02Z</time></trkpt>
<trkpt lat="26.829322" lon="98.881584">
<time>2014-08-05T01:56:03Z</time></trkpt>
<trkpt lat="26.829572" lon="98.881705">
<time>2014-08-05T01:56:04Z</time></trkpt>
<trkpt lat="26.829802" lon="98.881785">
<time>2014-08-05T01:56:05Z</time></trkpt>
<trkpt lat="26.829882" lon="98.881805">
<time>2014-08-05T01:56:06Z</time></trkpt>
<trkpt lat="26.829892" lon="98.881805">
<time>2014-08-05T01:56:07Z</time></trkpt>
<trkpt lat="26.829902" lon="98.881805">
<time>2014-08-05T01:56:08Z</time></trkpt>
<trkpt lat="26.830032" lon="98.881784">
<time>2014-08-05T01:56:09Z</time></trkpt>
<trkpt lat="26.830352" lon="98.881724">
<time>2014-08-05T01:56:10Z</time></trkpt>
<trkpt lat="26.830422" lon="98.881714">
<time>2014-08-05T01:56:11Z</time></trkpt>
<trkpt lat="26.830531" lon="98.881654">
<time>2014-08-05T01:56:12Z</time></trkpt>
<trkpt lat="26.830571" lon="98.881614">
<time>2014-08-05T01:56:13Z</time></trkpt>
<trkpt lat="26.830761" lon="98.881394">
<time>2014-08-05T01:56:14Z</time></trkpt>
<trkpt lat="26.830971" lon="98.881154">
<time>2014-08-05T01:56:15Z</time></trkpt>
<trkpt lat="26.831031" lon="98.881094">
<time>2014-08-05T01:56:16Z</time></trkpt>
<trkpt lat="26.831031" lon="98.881084">
<time>2014-08-05T01:56:17Z</time></trkpt>
<trkpt lat="26.831101" lon="98.881044">
<time>2014-08-05T01:56:18Z</time></trkpt>
<trkpt lat="26.831111" lon="98.881044">
<time>2014-08-05T01:56:19Z</time></trkpt>
<trkpt lat="26.831221" lon="98.881004">
<time>2014-08-05T01:56:20Z</time></trkpt>
<trkpt lat="26.831261" lon="98.880994">
<time>2014-08-05T01:56:21Z</time></trkpt>
<trkpt lat="26.831291" lon="98.880994">
<time>2014-08-05T01:56:22Z</time></trkpt>
<trkpt lat="26.831311" lon="98.880984">
<time>2014-08-05T01:56:23Z</time></trkpt>
<trkpt lat="26.831371" lon="98.880984">
<time>2014-08-05T01:56:24Z</time></trkpt>
<trkpt lat="26.831381" lon="98.880984">
<time>2014-08-05T01:56:25Z</time></trkpt>
<trkpt lat="26.831601" lon="98.881004">
<time>2014-08-05T01:56:26Z</time></trkpt>
<trkpt lat="26.831811" lon="98.881004">
<time>2014-08-05T01:56:27Z</time></trkpt>
<trkpt lat="26.832021" lon="98.880984">
<time>2014-08-05T01:56:28Z</time></trkpt>
<trkpt lat="26.832141" lon="98.880974">
<time>2014-08-05T01:56:29Z</time></trkpt>
<trkpt lat="26.832321" lon="98.880944">
<time>2014-08-05T01:56:30Z</time></trkpt>
<trkpt lat="26.832521" lon="98.880904">
<time>2014-08-05T01:56:31Z</time></trkpt>
<trkpt lat="26.83272" lon="98.880854">
<time>2014-08-05T01:56:32Z</time></trkpt>
<trkpt lat="26.83291" lon="98.880814">
<time>2014-08-05T01:56:33Z</time></trkpt>
<trkpt lat="26.83306" lon="98.880764">
<time>2014-08-05T01:56:34Z</time></trkpt>
<trkpt lat="26.83313" lon="98.880744">
<time>2014-08-05T01:56:35Z</time></trkpt>
<trkpt lat="26.83336" lon="98.880654">
<time>2014-08-05T01:56:36Z</time></trkpt>
<trkpt lat="26.83355" lon="98.880564">
<time>2014-08-05T01:56:37Z</time></trkpt>
<trkpt lat="26.8336" lon="98.880554">
<time>2014-08-05T01:56:38Z</time></trkpt>
<trkpt lat="26.83365" lon="98.880534">
<time>2014-08-05T01:56:39Z</time></trkpt>
<trkpt lat="26.8337" lon="98.880524">
<time>2014-08-05T01:56:40Z</time></trkpt>
<trkpt lat="26.83375" lon="98.880524">
<time>2014-08-05T01:56:41Z</time></trkpt>
<trkpt lat="26.83379" lon="98.880514">
<time>2014-08-05T01:56:42Z</time></trkpt>
<trkpt lat="26.83384" lon="98.880514">
<time>2014-08-05T01:56:43Z</time></trkpt>
<trkpt lat="26.83408" lon="98.880534">
<time>2014-08-05T01:56:44Z</time></trkpt>
<trkpt lat="26.83444" lon="98.880584">
<time>2014-08-05T01:56:45Z</time></trkpt>
<trkpt lat="26.83463" lon="98.880614">
<time>2014-08-05T01:56:46Z</time></trkpt>
<trkpt lat="26.83469" lon="98.880624">
<time>2014-08-05T01:56:47Z</time></trkpt>
<trkpt lat="26.83473" lon="98.880624">
<time>2014-08-05T01:56:48Z</time></trkpt>
<trkpt lat="26.8348" lon="98.880624">
<time>2014-08-05T01:56:49Z</time></trkpt>
<trkpt lat="26.83486" lon="98.880624">
<time>2014-08-05T01:56:50Z</time></trkpt>
<trkpt lat="26.83493" lon="98.880624">
<time>2014-08-05T01:56:51Z</time></trkpt>
<trkpt lat="26.83512" lon="98.880604">
<time>2014-08-05T01:56:52Z</time></trkpt>
<trkpt lat="26.83526" lon="98.880584">
<time>2014-08-05T01:56:53Z</time></trkpt>
<trkpt lat="26.83534" lon="98.880574">
<time>2014-08-05T01:56:54Z</time></trkpt>
<trkpt lat="26.83538" lon="98.880574">
<time>2014-08-05T01:56:55Z</time></trkpt>
<trkpt lat="26.83541" lon="98.880574">
<time>2014-08-05T01:56:56Z</time></trkpt>
<trkpt lat="26.83547" lon="98.880584">
<time>2014-08-05T01:56:57Z</time></trkpt>
<trkpt lat="26.83549" lon="98.880594">
<time>2014-08-05T01:56:58Z</time></trkpt>
<trkpt lat="26.83552" lon="98.880594">
<time>2014-08-05T01:56:59Z</time></trkpt>
<trkpt lat="26.83554" lon="98.880594">
<time>2014-08-05T01:57:00Z</time></trkpt>
<trkpt lat="26.83557" lon="98.880584">
<time>2014-08-05T01:57:01Z</time></trkpt>
<trkpt lat="26.83562" lon="98.880574">
<time>2014-08-05T01:57:02Z</time></trkpt>
<trkpt lat="26.83575" lon="98.880554">
<time>2014-08-05T01:57:03Z</time></trkpt>
<trkpt lat="26.83581" lon="98.880544">
<time>2014-08-05T01:57:04Z</time></trkpt>
<trkpt lat="26.8359" lon="98.880544">
<time>2014-08-05T01:57:05Z</time></trkpt>
<trkpt lat="26.83595" lon="98.880554">
<time>2014-08-05T01:57:06Z</time></trkpt>
<trkpt lat="26.83602" lon="98.880554">
<time>2014-08-05T01:57:07Z</time></trkpt>
<trkpt lat="26.83605" lon="98.880554">
<time>2014-08-05T01:57:08Z</time></trkpt>
<trkpt lat="26.83609" lon="98.880544">
<time>2014-08-05T01:57:09Z</time></trkpt>
<trkpt lat="26.83612" lon="98.880544">
<time>2014-08-05T01:57:10Z</time></trkpt>
<trkpt lat="26.83616" lon="98.880534">
<time>2014-08-05T01:57:11Z</time></trkpt>
<trkpt lat="26.83622" lon="98.880534">
<time>2014-08-05T01:57:12Z</time></trkpt>
<trkpt lat="26.83626" lon="98.880534">
<time>2014-08-05T01:57:13Z</time></trkpt>
<trkpt lat="26.83629" lon="98.880524">
<time>2014-08-05T01:57:14Z</time></trkpt>
<trkpt lat="26.83637" lon="98.880504">
<time>2014-08-05T01:57:15Z</time></trkpt>
<trkpt lat="26.8364" lon="98.880494">
<time>2014-08-05T01:57:16Z</time></trkpt>
<trkpt lat="26.83643" lon="98.880484">
<time>2014-08-05T01:57:17Z</time></trkpt>
<trkpt lat="26.83646" lon="98.880484">
<time>2014-08-05T01:57:18Z</time></trkpt>
<trkpt lat="26.83649" lon="98.880484">
<time>2014-08-05T01:57:19Z</time></trkpt>
<trkpt lat="26.83651" lon="98.880484">
<time>2014-08-05T01:57:20Z</time></trkpt>
<trkpt lat="26.83654" lon="98.880484">
<time>2014-08-05T01:57:21Z</time></trkpt>
<trkpt lat="26.83664" lon="98.880494">
<time>2014-08-05T01:57:22Z</time></trkpt>
<trkpt lat="26.83667" lon="98.880494">
<time>2014-08-05T01:57:23Z</time></trkpt>
<trkpt lat="26.83668" lon="98.880494">
<time>2014-08-05T01:57:24Z</time></trkpt>
<trkpt lat="26.83669" lon="98.880494">
<time>2014-08-05T01:57:25Z</time></trkpt>
<trkpt lat="26.8367" lon="98.880484">
<time>2014-08-05T01:57:26Z</time></trkpt>
<trkpt lat="26.83671" lon="98.880484">
<time>2014-08-05T01:57:27Z</time></trkpt>
<trkpt lat="26.836939" lon="98.880384">
<time>2014-08-05T01:57:28Z</time></trkpt>
<trkpt lat="26.837099" lon="98.880334">
<time>2014-08-05T01:57:29Z</time></trkpt>
<trkpt lat="26.837339" lon="98.880264">
<time>2014-08-05T01:57:30Z</time></trkpt>
<trkpt lat="26.837809" lon="98.880154">
<time>2014-08-05T01:57:31Z</time></trkpt>
<trkpt lat="26.837929" lon="98.880124">
<time>2014-08-05T01:57:32Z</time></trkpt>
<trkpt lat="26.837959" lon="98.880124">
<time>2014-08-05T01:57:33Z</time></trkpt>
<trkpt lat="26.837999" lon="98.880104">
<time>2014-08-05T01:57:34Z</time></trkpt>
<trkpt lat="26.838119" lon="98.880034">
<time>2014-08-05T01:57:35Z</time></trkpt>
<trkpt lat="26.838489" lon="98.879784">
<time>2014-08-05T01:57:36Z</time></trkpt>
<trkpt lat="26.839558" lon="98.879044">
<time>2014-08-05T01:57:37Z</time></trkpt>
<trkpt lat="26.839798" lon="98.878894">
<time>2014-08-05T01:57:38Z</time></trkpt>
<trkpt lat="26.839938" lon="98.878824">
<time>2014-08-05T01:57:39Z</time></trkpt>
<trkpt lat="26.840038" lon="98.878774">
<time>2014-08-05T01:57:40Z</time></trkpt>
<trkpt lat="26.840207" lon="98.878704">
<time>2014-08-05T01:57:41Z</time></trkpt>
<trkpt lat="26.840247" lon="98.878694">
<time>2014-08-05T01:57:42Z</time></trkpt>
<trkpt lat="26.840537" lon="98.878614">
<time>2014-08-05T01:57:43Z</time></trkpt>
<trkpt lat="26.840857" lon="98.878524">
<time>2014-08-05T01:57:44Z</time></trkpt>
<trkpt lat="26.840897" lon="98.878514">
<time>2014-08-05T01:57:45Z</time></trkpt>
<trkpt lat="26.840937" lon="98.878504">
<time>2014-08-05T01:57:46Z</time></trkpt>
<trkpt lat="26.841057" lon="98.878444">
<time>2014-08-05T01:57:47Z</time></trkpt>
<trkpt lat="26.841127" lon="98.878414">
<time>2014-08-05T01:57:48Z</time></trkpt>
<trkpt lat="26.841177" lon="98.878384">
<time>2014-08-05T01:57:49Z</time></trkpt>
<trkpt lat="26.841457" lon="98.878184">
<time>2014-08-05T01:57:50Z</time></trkpt>
<trkpt lat="26.841537" lon="98.878144">
<time>2014-08-05T01:57:51Z</time></trkpt>
<trkpt lat="26.841607" lon="98.878114">
<time>2014-08-05T01:57:52Z</time></trkpt>
<trkpt lat="26.841657" lon="98.878104">
<time>2014-08-05T01:57:53Z</time></trkpt>
<trkpt lat="26.841697" lon="98.878094">
<time>2014-08-05T01:57:54Z</time></trkpt>
<trkpt lat="26.841787" lon="98.878084">
<time>2014-08-05T01:57:55Z</time></trkpt>
<trkpt lat="26.841867" lon="98.878094">
<time>2014-08-05T01:57:56Z</time></trkpt>
<trkpt lat="26.842067" lon="98.878114">
<time>2014-08-05T01:57:57Z</time></trkpt>
<trkpt lat="26.842137" lon="98.878124">
<time>2014-08-05T01:57:58Z</time></trkpt>
<trkpt lat="26.842207" lon="98.878134">
<time>2014-08-05T01:57:59Z</time></trkpt>
<trkpt lat="26.842307" lon="98.878134">
<time>2014-08-05T01:58:00Z</time></trkpt>
<trkpt lat="26.842387" lon="98.878124">
<time>2014-08-05T01:58:01Z</time></trkpt>
<trkpt lat="26.842547" lon="98.878104">
<time>2014-08-05T01:58:02Z</time></trkpt>
<trkpt lat="26.842786" lon="98.878054">
<time>2014-08-05T01:58:03Z</time></trkpt>
<trkpt lat="26.843106" lon="98.877974">
<time>2014-08-05T01:58:04Z</time></trkpt>
<trkpt lat="26.843286" lon="98.877944">
<time>2014-08-05T01:58:05Z</time></trkpt>
<trkpt lat="26.843386" lon="98.877924">
<time>2014-08-05T01:58:06Z</time></trkpt>
<trkpt lat="26.843436" lon="98.877914">
<time>2014-08-05T01:58:07Z</time></trkpt>
<trkpt lat="26.843496" lon="98.877904">
<time>2014-08-05T01:58:08Z</time></trkpt>
<trkpt lat="26.843636" lon="98.877904">
<time>2014-08-05T01:58:09Z</time></trkpt>
<trkpt lat="26.843906" lon="98.877914">
<time>2014-08-05T01:58:10Z</time></trkpt>
<trkpt lat="26.844336" lon="98.877954">
<time>2014-08-05T01:58:11Z</time></trkpt>
<trkpt lat="26.844596" lon="98.877974">
<time>2014-08-05T01:58:12Z</time></trkpt>
<trkpt lat="26.844836" lon="98.878004">
<time>2014-08-05T01:58:13Z</time></trkpt>
<trkpt lat="26.845186" lon="98.878044">
<time>2014-08-05T01:58:14Z</time></trkpt>
<trkpt lat="26.845376" lon="98.878064">
<time>2014-08-05T01:58:15Z</time></trkpt>
<trkpt lat="26.846386" lon="98.878064">
<time>2014-08-05T01:58:16Z</time></trkpt>
<trkpt lat="26.847146" lon="98.878084">
<time>2014-08-05T01:58:17Z</time></trkpt>
<trkpt lat="26.847766" lon="98.878134">
<time>2014-08-05T01:58:18Z</time></trkpt>
<trkpt lat="26.848626" lon="98.878184">
<time>2014-08-05T01:58:19Z</time></trkpt>
<trkpt lat="26.849006" lon="98.878224">
<time>2014-08-05T01:58:20Z</time></trkpt>
<trkpt lat="26.849326" lon="98.878244">
<time>2014-08-05T01:58:21Z</time></trkpt>
<trkpt lat="26.849476" lon="98.878254">
<time>2014-08-05T01:58:22Z</time></trkpt>
<trkpt lat="26.849565" lon="98.878244">
<time>2014-08-05T01:58:23Z</time></trkpt>
<trkpt lat="26.849615" lon="98.878244">
<time>2014-08-05T01:58:24Z</time></trkpt>
<trkpt lat="26.849665" lon="98.878234">
<time>2014-08-05T01:58:25Z</time></trkpt>
<trkpt lat="26.849715" lon="98.878224">
<time>2014-08-05T01:58:26Z</time></trkpt>
<trkpt lat="26.849745" lon="98.878214">
<time>2014-08-05T01:58:27Z</time></trkpt>
<trkpt lat="26.849905" lon="98.878164">
<time>2014-08-05T01:58:28Z</time></trkpt>
<trkpt lat="26.850125" lon="98.878084">
<time>2014-08-05T01:58:29Z</time></trkpt>
<trkpt lat="26.850385" lon="98.877994">
<time>2014-08-05T01:58:30Z</time></trkpt>
<trkpt lat="26.850515" lon="98.877944">
<time>2014-08-05T01:58:31Z</time></trkpt>
<trkpt lat="26.850595" lon="98.877923">
<time>2014-08-05T01:58:32Z</time></trkpt>
<trkpt lat="26.850655" lon="98.877913">
<time>2014-08-05T01:58:33Z</time></trkpt>
<trkpt lat="26.850745" lon="98.877903">
<time>2014-08-05T01:58:34Z</time></trkpt>
<trkpt lat="26.850825" lon="98.877913">
<time>2014-08-05T01:58:35Z</time></trkpt>
<trkpt lat="26.850895" lon="98.877923">
<time>2014-08-05T01:58:36Z</time></trkpt>
<trkpt lat="26.850965" lon="98.877933">
<time>2014-08-05T01:58:37Z</time></trkpt>
<trkpt lat="26.851205" lon="98.878004">
<time>2014-08-05T01:58:38Z</time></trkpt>
<trkpt lat="26.851325" lon="98.878024">
<time>2014-08-05T01:58:39Z</time></trkpt>
<trkpt lat="26.851385" lon="98.878034">
<time>2014-08-05T01:58:40Z</time></trkpt>
<trkpt lat="26.851455" lon="98.878044">
<time>2014-08-05T01:58:41Z</time></trkpt>
<trkpt lat="26.851515" lon="98.878044">
<time>2014-08-05T01:58:42Z</time></trkpt>
<trkpt lat="26.851605" lon="98.878054">
<time>2014-08-05T01:58:43Z</time></trkpt>
<trkpt lat="26.851635" lon="98.878044">
<time>2014-08-05T01:58:44Z</time></trkpt>
<trkpt lat="26.851685" lon="98.878044">
<time>2014-08-05T01:58:45Z</time></trkpt>
<trkpt lat="26.851755" lon="98.878034">
<time>2014-08-05T01:58:46Z</time></trkpt>
<trkpt lat="26.851845" lon="98.878024">
<time>2014-08-05T01:58:47Z</time></trkpt>
<trkpt lat="26.851975" lon="98.878003">
<time>2014-08-05T01:58:48Z</time></trkpt>
<trkpt lat="26.852335" lon="98.877913">
<time>2014-08-05T01:58:49Z</time></trkpt>
<trkpt lat="26.852515" lon="98.877873">
<time>2014-08-05T01:58:50Z</time></trkpt>
<trkpt lat="26.852615" lon="98.877863">
<time>2014-08-05T01:58:51Z</time></trkpt>
<trkpt lat="26.852685" lon="98.877853">
<time>2014-08-05T01:58:52Z</time></trkpt>
<trkpt lat="26.852935" lon="98.877833">
<time>2014-08-05T01:58:53Z</time></trkpt>
<trkpt lat="26.853404" lon="98.877813">
<time>2014-08-05T01:58:54Z</time></trkpt>
<trkpt lat="26.853754" lon="98.877803">
<time>2014-08-05T01:58:55Z</time></trkpt>
<trkpt lat="26.853904" lon="98.877793">
<time>2014-08-05T01:58:56Z</time></trkpt>
<trkpt lat="26.853974" lon="98.877783">
<time>2014-08-05T01:58:57Z</time></trkpt>
<trkpt lat="26.854034" lon="98.877773">
<time>2014-08-05T01:58:58Z</time></trkpt>
<trkpt lat="26.854154" lon="98.877753">
<time>2014-08-05T01:58:59Z</time></trkpt>
<trkpt lat="26.854254" lon="98.877733">
<time>2014-08-05T01:59:00Z</time></trkpt>
<trkpt lat="26.854564" lon="98.877643">
<time>2014-08-05T01:59:01Z</time></trkpt>
<trkpt lat="26.854724" lon="98.877593">
<time>2014-08-05T01:59:02Z</time></trkpt>
<trkpt lat="26.854924" lon="98.877513">
<time>2014-08-05T01:59:03Z</time></trkpt>
<trkpt lat="26.855014" lon="98.877483">
<time>2014-08-05T01:59:04Z</time></trkpt>
<trkpt lat="26.855094" lon="98.877463">
<time>2014-08-05T01:59:05Z</time></trkpt>
<trkpt lat="26.855214" lon="98.877433">
<time>2014-08-05T01:59:06Z</time></trkpt>
<trkpt lat="26.855314" lon="98.877403">
<time>2014-08-05T01:59:07Z</time></trkpt>
<trkpt lat="26.856103" lon="98.877103">
<time>2014-08-05T01:59:08Z</time></trkpt>
<trkpt lat="26.856353" lon="98.877023">
<time>2014-08-05T01:59:09Z</time></trkpt>
<trkpt lat="26.856763" lon="98.876923">
<time>2014-08-05T01:59:10Z</time></trkpt>
<trkpt lat="26.857003" lon="98.876873">
<time>2014-08-05T01:59:11Z</time></trkpt>
<trkpt lat="26.857083" lon="98.876843">
<time>2014-08-05T01:59:12Z</time></trkpt>
<trkpt lat="26.857173" lon="98.876823">
<time>2014-08-05T01:59:13Z</time></trkpt>
<trkpt lat="26.857253" lon="98.876783">
<time>2014-08-05T01:59:14Z</time></trkpt>
<trkpt lat="26.857323" lon="98.876733">
<time>2014-08-05T01:59:15Z</time></trkpt>
<trkpt lat="26.857533" lon="98.876583">
<time>2014-08-05T01:59:16Z</time></trkpt>
<trkpt lat="26.857872" lon="98.876333">
<time>2014-08-05T01:59:17Z</time></trkpt>
<trkpt lat="26.857922" lon="98.876293">
<time>2014-08-05T01:59:18Z</time></trkpt>
<trkpt lat="26.857982" lon="98.876263">
<time>2014-08-05T01:59:19Z</time></trkpt>
<trkpt lat="26.858042" lon="98.876233">
<time>2014-08-05T01:59:20Z</time></trkpt>
<trkpt lat="26.858092" lon="98.876213">
<time>2014-08-05T01:59:21Z</time></trkpt>
<trkpt lat="26.858202" lon="98.876163">
<time>2014-08-05T01:59:22Z</time></trkpt>
<trkpt lat="26.858342" lon="98.876123">
<time>2014-08-05T01:59:23Z</time></trkpt>
<trkpt lat="26.858642" lon="98.876053">
<time>2014-08-05T01:59:24Z</time></trkpt>
<trkpt lat="26.858812" lon="98.876023">
<time>2014-08-05T01:59:25Z</time></trkpt>
<trkpt lat="26.859012" lon="98.875993">
<time>2014-08-05T01:59:26Z</time></trkpt>
<trkpt lat="26.859132" lon="98.875973">
<time>2014-08-05T01:59:27Z</time></trkpt>
<trkpt lat="26.859432" lon="98.875943">
<time>2014-08-05T01:59:28Z</time></trkpt>
<trkpt lat="26.859512" lon="98.875933">
<time>2014-08-05T01:59:29Z</time></trkpt>
<trkpt lat="26.859552" lon="98.875923">
<time>2014-08-05T01:59:30Z</time></trkpt>
<trkpt lat="26.859672" lon="98.875903">
<time>2014-08-05T01:59:31Z</time></trkpt>
<trkpt lat="26.860061" lon="98.875813">
<time>2014-08-05T01:59:32Z</time></trkpt>
<trkpt lat="26.860471" lon="98.875733">
<time>2014-08-05T01:59:33Z</time></trkpt>
<trkpt lat="26.860551" lon="98.875713">
<time>2014-08-05T01:59:34Z</time></trkpt>
<trkpt lat="26.860581" lon="98.875703">
<time>2014-08-05T01:59:35Z</time></trkpt>
<trkpt lat="26.860621" lon="98.875683">
<time>2014-08-05T01:59:36Z</time></trkpt>
<trkpt lat="26.860671" lon="98.875663">
<time>2014-08-05T01:59:37Z</time></trkpt>
<trkpt lat="26.860711" lon="98.875653">
<time>2014-08-05T01:59:38Z</time></trkpt>
<trkpt lat="26.860741" lon="98.875633">
<time>2014-08-05T01:59:39Z</time></trkpt>
<trkpt lat="26.860901" lon="98.875493">
<time>2014-08-05T01:59:40Z</time></trkpt>
<trkpt lat="26.861071" lon="98.875333">
<time>2014-08-05T01:59:41Z</time></trkpt>
<trkpt lat="26.86124" lon="98.875182">
<time>2014-08-05T01:59:42Z</time></trkpt>
<trkpt lat="26.8613" lon="98.875132">
<time>2014-08-05T01:59:43Z</time></trkpt>
<trkpt lat="26.86135" lon="98.875092">
<time>2014-08-05T01:59:44Z</time></trkpt>
<trkpt lat="26.86147" lon="98.875032">
<time>2014-08-05T01:59:45Z</time></trkpt>
<trkpt lat="26.86161" lon="98.874972">
<time>2014-08-05T01:59:46Z</time></trkpt>
<trkpt lat="26.86179" lon="98.874922">
<time>2014-08-05T01:59:47Z</time></trkpt>
<trkpt lat="26.86197" lon="98.874872">
<time>2014-08-05T01:59:48Z</time></trkpt>
<trkpt lat="26.86207" lon="98.874832">
<time>2014-08-05T01:59:49Z</time></trkpt>
<trkpt lat="26.86219" lon="98.874792">
<time>2014-08-05T01:59:50Z</time></trkpt>
<trkpt lat="26.86224" lon="98.874762">
<time>2014-08-05T01:59:51Z</time></trkpt>
<trkpt lat="26.86235" lon="98.874692">
<time>2014-08-05T01:59:52Z</time></trkpt>
<trkpt lat="26.86239" lon="98.874662">
<time>2014-08-05T01:59:53Z</time></trkpt>
<trkpt lat="26.86249" lon="98.874562">
<time>2014-08-05T01:59:54Z</time></trkpt>
<trkpt lat="26.862729" lon="98.874312">
<time>2014-08-05T01:59:55Z</time></trkpt>
<trkpt lat="26.863139" lon="98.873822">
<time>2014-08-05T01:59:56Z</time></trkpt>
<trkpt lat="26.863378" lon="98.873512">
<time>2014-08-05T01:59:57Z</time></trkpt>
<trkpt lat="26.863578" lon="98.873232">
<time>2014-08-05T01:59:58Z</time></trkpt>
<trkpt lat="26.863698" lon="98.873082">
<time>2014-08-05T01:59:59Z</time></trkpt>
<trkpt lat="26.863768" lon="98.873002">
<time>2014-08-05T02:00:00Z</time></trkpt>
<trkpt lat="26.863898" lon="98.872872">
<time>2014-08-05T02:00:01Z</time></trkpt>
<trkpt lat="26.864087" lon="98.872701">
<time>2014-08-05T02:00:02Z</time></trkpt>
<trkpt lat="26.864187" lon="98.872611">
<time>2014-08-05T02:00:03Z</time></trkpt>
<trkpt lat="26.864357" lon="98.872441">
<time>2014-08-05T02:00:04Z</time></trkpt>
<trkpt lat="26.864627" lon="98.872131">
<time>2014-08-05T02:00:05Z</time></trkpt>
<trkpt lat="26.864926" lon="98.871781">
<time>2014-08-05T02:00:06Z</time></trkpt>
<trkpt lat="26.865186" lon="98.871481">
<time>2014-08-05T02:00:07Z</time></trkpt>
<trkpt lat="26.865256" lon="98.871401">
<time>2014-08-05T02:00:08Z</time></trkpt>
<trkpt lat="26.865276" lon="98.871381">
<time>2014-08-05T02:00:09Z</time></trkpt>
<trkpt lat="26.865316" lon="98.871351">
<time>2014-08-05T02:00:10Z</time></trkpt>
<trkpt lat="26.865365" lon="98.871311">
<time>2014-08-05T02:00:11Z</time></trkpt>
<trkpt lat="26.865415" lon="98.871281">
<time>2014-08-05T02:00:12Z</time></trkpt>
<trkpt lat="26.865455" lon="98.871261">
<time>2014-08-05T02:00:13Z</time></trkpt>
<trkpt lat="26.865515" lon="98.871241">
<time>2014-08-05T02:00:14Z</time></trkpt>
<trkpt lat="26.865605" lon="98.871211">
<time>2014-08-05T02:00:15Z</time></trkpt>
<trkpt lat="26.865725" lon="98.871181">
<time>2014-08-05T02:00:16Z</time></trkpt>
<trkpt lat="26.865995" lon="98.871131">
<time>2014-08-05T02:00:17Z</time></trkpt>
<trkpt lat="26.866095" lon="98.871111">
<time>2014-08-05T02:00:18Z</time></trkpt>
<trkpt lat="26.866165" lon="98.871091">
<time>2014-08-05T02:00:19Z</time></trkpt>
<trkpt lat="26.866205" lon="98.871071">
<time>2014-08-05T02:00:20Z</time></trkpt>
<trkpt lat="26.866245" lon="98.871061">
<time>2014-08-05T02:00:21Z</time></trkpt>
<trkpt lat="26.866275" lon="98.871041">
<time>2014-08-05T02:00:22Z</time></trkpt>
<trkpt lat="26.866305" lon="98.871011">
<time>2014-08-05T02:00:23Z</time></trkpt>
<trkpt lat="26.866325" lon="98.870991">
<time>2014-08-05T02:00:24Z</time></trkpt>
<trkpt lat="26.866365" lon="98.870951">
<time>2014-08-05T02:00:25Z</time></trkpt>
<trkpt lat="26.866395" lon="98.870931">
<time>2014-08-05T02:00:26Z</time></trkpt>
<trkpt lat="26.866465" lon="98.870831">
<time>2014-08-05T02:00:27Z</time></trkpt>
<trkpt lat="26.866614" lon="98.87065">
<time>2014-08-05T02:00:28Z</time></trkpt>
<trkpt lat="26.866664" lon="98.8706">
<time>2014-08-05T02:00:29Z</time></trkpt>
<trkpt lat="26.866714" lon="98.87055">
<time>2014-08-05T02:00:30Z</time></trkpt>
<trkpt lat="26.866744" lon="98.87053">
<time>2014-08-05T02:00:31Z</time></trkpt>
<trkpt lat="26.866774" lon="98.87051">
<time>2014-08-05T02:00:32Z</time></trkpt>
<trkpt lat="26.866804" lon="98.87049">
<time>2014-08-05T02:00:33Z</time></trkpt>
<trkpt lat="26.866854" lon="98.87048">
<time>2014-08-05T02:00:34Z</time></trkpt>
<trkpt lat="26.866894" lon="98.87047">
<time>2014-08-05T02:00:35Z</time></trkpt>
<trkpt lat="26.866944" lon="98.87046">
<time>2014-08-05T02:00:36Z</time></trkpt>
<trkpt lat="26.866984" lon="98.87046">
<time>2014-08-05T02:00:37Z</time></trkpt>
<trkpt lat="26.867024" lon="98.87046">
<time>2014-08-05T02:00:38Z</time></trkpt>
<trkpt lat="26.867064" lon="98.87046">
<time>2014-08-05T02:00:39Z</time></trkpt>
<trkpt lat="26.867114" lon="98.87046">
<time>2014-08-05T02:00:40Z</time></trkpt>
<trkpt lat="26.867234" lon="98.87048">
<time>2014-08-05T02:00:41Z</time></trkpt>
<trkpt lat="26.867764" lon="98.87054">
<time>2014-08-05T02:00:42Z</time></trkpt>
<trkpt lat="26.868014" lon="98.87057">
<time>2014-08-05T02:00:43Z</time></trkpt>
<trkpt lat="26.868374" lon="98.87061">
<time>2014-08-05T02:00:44Z</time></trkpt>
<trkpt lat="26.868594" lon="98.87064">
<time>2014-08-05T02:00:45Z</time></trkpt>
<trkpt lat="26.868924" lon="98.87067">
<time>2014-08-05T02:00:46Z</time></trkpt>
<trkpt lat="26.869294" lon="98.87071">
<time>2014-08-05T02:00:47Z</time></trkpt>
<trkpt lat="26.869524" lon="98.87074">
<time>2014-08-05T02:00:48Z</time></trkpt>
<trkpt lat="26.869674" lon="98.87075">
<time>2014-08-05T02:00:49Z</time></trkpt>
<trkpt lat="26.869764" lon="98.87076">
<time>2014-08-05T02:00:50Z</time></trkpt>
<trkpt lat="26.869904" lon="98.8708">
<time>2014-08-05T02:00:51Z</time></trkpt>
<trkpt lat="26.870054" lon="98.87086">
<time>2014-08-05T02:00:52Z</time></trkpt>
<trkpt lat="26.870154" lon="98.87091">
<time>2014-08-05T02:00:53Z</time></trkpt>
<trkpt lat="26.870224" lon="98.870951">
<time>2014-08-05T02:00:54Z</time></trkpt>
<trkpt lat="26.870344" lon="98.871021">
<time>2014-08-05T02:00:55Z</time></trkpt>
<trkpt lat="26.870444" lon="98.871081">
<time>2014-08-05T02:00:56Z</time></trkpt>
<trkpt lat="26.870504" lon="98.871121">
<time>2014-08-05T02:00:57Z</time></trkpt>
<trkpt lat="26.870614" lon="98.871181">
<time>2014-08-05T02:00:58Z</time></trkpt>
<trkpt lat="26.870684" lon="98.871221">
<time>2014-08-05T02:00:59Z</time></trkpt>
<trkpt lat="26.870754" lon="98.871241">
<time>2014-08-05T02:01:00Z</time></trkpt>
<trkpt lat="26.870884" lon="98.871291">
<time>2014-08-05T02:01:01Z</time></trkpt>
<trkpt lat="26.870944" lon="98.871321">
<time>2014-08-05T02:01:02Z</time></trkpt>
<trkpt lat="26.871045" lon="98.871371">
<time>2014-08-05T02:01:03Z</time></trkpt>
<trkpt lat="26.871135" lon="98.871411">
<time>2014-08-05T02:01:04Z</time></trkpt>
<trkpt lat="26.871235" lon="98.871441">
<time>2014-08-05T02:01:05Z</time></trkpt>
<trkpt lat="26.871375" lon="98.871501">
<time>2014-08-05T02:01:06Z</time></trkpt>
<trkpt lat="26.871465" lon="98.871551">
<time>2014-08-05T02:01:07Z</time></trkpt>
<trkpt lat="26.871545" lon="98.871611">
<time>2014-08-05T02:01:08Z</time></trkpt>
<trkpt lat="26.871595" lon="98.871661">
<time>2014-08-05T02:01:09Z</time></trkpt>
<trkpt lat="26.871625" lon="98.871681">
<time>2014-08-05T02:01:10Z</time></trkpt>
<trkpt lat="26.871655" lon="98.871721">
<time>2014-08-05T02:01:11Z</time></trkpt>
<trkpt lat="26.871695" lon="98.871771">
<time>2014-08-05T02:01:12Z</time></trkpt>
<trkpt lat="26.871755" lon="98.871871">
<time>2014-08-05T02:01:13Z</time></trkpt>
<trkpt lat="26.871805" lon="98.871971">
<time>2014-08-05T02:01:14Z</time></trkpt>
<trkpt lat="26.871935" lon="98.872231">
<time>2014-08-05T02:01:15Z</time></trkpt>
<trkpt lat="26.872036" lon="98.872441">
<time>2014-08-05T02:01:16Z</time></trkpt>
<trkpt lat="26.872146" lon="98.872621">
<time>2014-08-05T02:01:17Z</time></trkpt>
<trkpt lat="26.872186" lon="98.872691">
<time>2014-08-05T02:01:18Z</time></trkpt>
<trkpt lat="26.872256" lon="98.872821">
<time>2014-08-05T02:01:19Z</time></trkpt>
<trkpt lat="26.872316" lon="98.872961">
<time>2014-08-05T02:01:20Z</time></trkpt>
<trkpt lat="26.872346" lon="98.873001">
<time>2014-08-05T02:01:21Z</time></trkpt>
<trkpt lat="26.872356" lon="98.873031">
<time>2014-08-05T02:01:22Z</time></trkpt>
<trkpt lat="26.872376" lon="98.873051">
<time>2014-08-05T02:01:23Z</time></trkpt>
<trkpt lat="26.872396" lon="98.873081">
<time>2014-08-05T02:01:24Z</time></trkpt>
<trkpt lat="26.872416" lon="98.873091">
<time>2014-08-05T02:01:25Z</time></trkpt>
<trkpt lat="26.872436" lon="98.873111">
<time>2014-08-05T02:01:26Z</time></trkpt>
<trkpt lat="26.872496" lon="98.873152">
<time>2014-08-05T02:01:27Z</time></trkpt>
<trkpt lat="26.872526" lon="98.873172">
<time>2014-08-05T02:01:28Z</time></trkpt>
<trkpt lat="26.872596" lon="98.873202">
<time>2014-08-05T02:01:29Z</time></trkpt>
<trkpt lat="26.872696" lon="98.873252">
<time>2014-08-05T02:01:30Z</time></trkpt>
<trkpt lat="26.872966" lon="98.873352">
<time>2014-08-05T02:01:31Z</time></trkpt>
<trkpt lat="26.873136" lon="98.873422">
<time>2014-08-05T02:01:32Z</time></trkpt>
<trkpt lat="26.873297" lon="98.873492">
<time>2014-08-05T02:01:33Z</time></trkpt>
<trkpt lat="26.873427" lon="98.873552">
<time>2014-08-05T02:01:34Z</time></trkpt>
<trkpt lat="26.873557" lon="98.873622">
<time>2014-08-05T02:01:35Z</time></trkpt>
<trkpt lat="26.873617" lon="98.873662">
<time>2014-08-05T02:01:36Z</time></trkpt>
<trkpt lat="26.873707" lon="98.873722">
<time>2014-08-05T02:01:37Z</time></trkpt>
<trkpt lat="26.873847" lon="98.873812">
<time>2014-08-05T02:01:38Z</time></trkpt>
<trkpt lat="26.874017" lon="98.873932">
<time>2014-08-05T02:01:39Z</time></trkpt>
<trkpt lat="26.874177" lon="98.874042">
<time>2014-08-05T02:01:40Z</time></trkpt>
<trkpt lat="26.874297" lon="98.874122">
<time>2014-08-05T02:01:41Z</time></trkpt>
<trkpt lat="26.874377" lon="98.874182">
<time>2014-08-05T02:01:42Z</time></trkpt>
<trkpt lat="26.874537" lon="98.874292">
<time>2014-08-05T02:01:43Z</time></trkpt>
<trkpt lat="26.874657" lon="98.874382">
<time>2014-08-05T02:01:44Z</time></trkpt>
<trkpt lat="26.874907" lon="98.874562">
<time>2014-08-05T02:01:45Z</time></trkpt>
<trkpt lat="26.875077" lon="98.874682">
<time>2014-08-05T02:01:46Z</time></trkpt>
<trkpt lat="26.875258" lon="98.874812">
<time>2014-08-05T02:01:47Z</time></trkpt>
<trkpt lat="26.875388" lon="98.874912">
<time>2014-08-05T02:01:48Z</time></trkpt>
<trkpt lat="26.875468" lon="98.874962">
<time>2014-08-05T02:01:49Z</time></trkpt>
<trkpt lat="26.875498" lon="98.874982">
<time>2014-08-05T02:01:50Z</time></trkpt>
<trkpt lat="26.875558" lon="98.875032">
<time>2014-08-05T02:01:51Z</time></trkpt>
<trkpt lat="26.875708" lon="98.875132">
<time>2014-08-05T02:01:52Z</time></trkpt>
<trkpt lat="26.875978" lon="98.875292">
<time>2014-08-05T02:01:53Z</time></trkpt>
<trkpt lat="26.876098" lon="98.875352">
<time>2014-08-05T02:01:54Z</time></trkpt>
<trkpt lat="26.876148" lon="98.875382">
<time>2014-08-05T02:01:55Z</time></trkpt>
<trkpt lat="26.876288" lon="98.875452">
<time>2014-08-05T02:01:56Z</time></trkpt>
<trkpt lat="26.876458" lon="98.875512">
<time>2014-08-05T02:01:57Z</time></trkpt>
<trkpt lat="26.876568" lon="98.875562">
<time>2014-08-05T02:01:58Z</time></trkpt>
<trkpt lat="26.876648" lon="98.875602">
<time>2014-08-05T02:01:59Z</time></trkpt>
<trkpt lat="26.876698" lon="98.875632">
<time>2014-08-05T02:02:00Z</time></trkpt>
<trkpt lat="26.876768" lon="98.875672">
<time>2014-08-05T02:02:01Z</time></trkpt>
<trkpt lat="26.876908" lon="98.875772">
<time>2014-08-05T02:02:02Z</time></trkpt>
<trkpt lat="26.877118" lon="98.875912">
<time>2014-08-05T02:02:03Z</time></trkpt>
<trkpt lat="26.877749" lon="98.876363">
<time>2014-08-05T02:02:04Z</time></trkpt>
<trkpt lat="26.877879" lon="98.876453">
<time>2014-08-05T02:02:05Z</time></trkpt>
<trkpt lat="26.877909" lon="98.876473">
<time>2014-08-05T02:02:06Z</time></trkpt>
<trkpt lat="26.877949" lon="98.876493">
<time>2014-08-05T02:02:07Z</time></trkpt>
<trkpt lat="26.877999" lon="98.876513">
<time>2014-08-05T02:02:08Z</time></trkpt>
<trkpt lat="26.878029" lon="98.876523">
<time>2014-08-05T02:02:09Z</time></trkpt>
<trkpt lat="26.878059" lon="98.876523">
<time>2014-08-05T02:02:10Z</time></trkpt>
<trkpt lat="26.878089" lon="98.876533">
<time>2014-08-05T02:02:11Z</time></trkpt>
<trkpt lat="26.878129" lon="98.876543">
<time>2014-08-05T02:02:12Z</time></trkpt>
<trkpt lat="26.878219" lon="98.876543">
<time>2014-08-05T02:02:13Z</time></trkpt>
<trkpt lat="26.878279" lon="98.876543">
<time>2014-08-05T02:02:14Z</time></trkpt>
<trkpt lat="26.878349" lon="98.876543">
<time>2014-08-05T02:02:15Z</time></trkpt>
<trkpt lat="26.878459" lon="98.876533">
<time>2014-08-05T02:02:16Z</time></trkpt>
<trkpt lat="26.878619" lon="98.876513">
<time>2014-08-05T02:02:17Z</time></trkpt>
<trkpt lat="26.878709" lon="98.876493">
<time>2014-08-05T02:02:18Z</time></trkpt>
<trkpt lat="26.878799" lon="98.876483">
<time>2014-08-05T02:02:19Z</time></trkpt>
<trkpt lat="26.878909" lon="98.876473">
<time>2014-08-05T02:02:20Z</time></trkpt>
<trkpt lat="26.879019" lon="98.876453">
<time>2014-08-05T02:02:21Z</time></trkpt>
<trkpt lat="26.879208" lon="98.876433">
<time>2014-08-05T02:02:22Z</time></trkpt>
<trkpt lat="26.879318" lon="98.876413">
<time>2014-08-05T02:02:23Z</time></trkpt>
<trkpt lat="26.879518" lon="98.876393">
<time>2014-08-05T02:02:24Z</time></trkpt>
<trkpt lat="26.881398" lon="98.876172">
<time>2014-08-05T02:02:25Z</time></trkpt>
<trkpt lat="26.881498" lon="98.876162">
<time>2014-08-05T02:02:26Z</time></trkpt>
<trkpt lat="26.881588" lon="98.876142">
<time>2014-08-05T02:02:27Z</time></trkpt>
<trkpt lat="26.881848" lon="98.876062">
<time>2014-08-05T02:02:28Z</time></trkpt>
<trkpt lat="26.882127" lon="98.875972">
<time>2014-08-05T02:02:29Z</time></trkpt>
<trkpt lat="26.882257" lon="98.875942">
<time>2014-08-05T02:02:30Z</time></trkpt>
<trkpt lat="26.882427" lon="98.875882">
<time>2014-08-05T02:02:31Z</time></trkpt>
<trkpt lat="26.882657" lon="98.875812">
<time>2014-08-05T02:02:32Z</time></trkpt>
<trkpt lat="26.882767" lon="98.875762">
<time>2014-08-05T02:02:33Z</time></trkpt>
<trkpt lat="26.882817" lon="98.875732">
<time>2014-08-05T02:02:34Z</time></trkpt>
<trkpt lat="26.882877" lon="98.875702">
<time>2014-08-05T02:02:35Z</time></trkpt>
<trkpt lat="26.882907" lon="98.875672">
<time>2014-08-05T02:02:36Z</time></trkpt>
<trkpt lat="26.883007" lon="98.875592">
<time>2014-08-05T02:02:37Z</time></trkpt>
<trkpt lat="26.883127" lon="98.875492">
<time>2014-08-05T02:02:38Z</time></trkpt>
<trkpt lat="26.883267" lon="98.875372">
<time>2014-08-05T02:02:39Z</time></trkpt>
<trkpt lat="26.883456" lon="98.875212">
<time>2014-08-05T02:02:40Z</time></trkpt>
<trkpt lat="26.883616" lon="98.875072">
<time>2014-08-05T02:02:41Z</time></trkpt>
<trkpt lat="26.883676" lon="98.875032">
<time>2014-08-05T02:02:42Z</time></trkpt>
<trkpt lat="26.883736" lon="98.874962">
<time>2014-08-05T02:02:43Z</time></trkpt>
<trkpt lat="26.883756" lon="98.874932">
<time>2014-08-05T02:02:44Z</time></trkpt>
<trkpt lat="26.883776" lon="98.874892">
<time>2014-08-05T02:02:45Z</time></trkpt>
<trkpt lat="26.883806" lon="98.874852">
<time>2014-08-05T02:02:46Z</time></trkpt>
<trkpt lat="26.883826" lon="98.874812">
<time>2014-08-05T02:02:47Z</time></trkpt>
<trkpt lat="26.883886" lon="98.874692">
<time>2014-08-05T02:02:48Z</time></trkpt>
<trkpt lat="26.883936" lon="98.874532">
<time>2014-08-05T02:02:49Z</time></trkpt>
<trkpt lat="26.883966" lon="98.874452">
<time>2014-08-05T02:02:50Z</time></trkpt>
<trkpt lat="26.883985" lon="98.874402">
<time>2014-08-05T02:02:51Z</time></trkpt>
<trkpt lat="26.884005" lon="98.874332">
<time>2014-08-05T02:02:52Z</time></trkpt>
<trkpt lat="26.884035" lon="98.874292">
<time>2014-08-05T02:02:53Z</time></trkpt>
<trkpt lat="26.884055" lon="98.874252">
<time>2014-08-05T02:02:54Z</time></trkpt>
<trkpt lat="26.884105" lon="98.874192">
<time>2014-08-05T02:02:55Z</time></trkpt>
<trkpt lat="26.884145" lon="98.874142">
<time>2014-08-05T02:02:56Z</time></trkpt>
<trkpt lat="26.884195" lon="98.874102">
<time>2014-08-05T02:02:57Z</time></trkpt>
<trkpt lat="26.884225" lon="98.874082">
<time>2014-08-05T02:02:58Z</time></trkpt>
<trkpt lat="26.884425" lon="98.873932">
<time>2014-08-05T02:02:59Z</time></trkpt>
<trkpt lat="26.884485" lon="98.873882">
<time>2014-08-05T02:03:00Z</time></trkpt>
<trkpt lat="26.884535" lon="98.873832">
<time>2014-08-05T02:03:01Z</time></trkpt>
<trkpt lat="26.884575" lon="98.873762">
<time>2014-08-05T02:03:02Z</time></trkpt>
<trkpt lat="26.884615" lon="98.873702">
<time>2014-08-05T02:03:03Z</time></trkpt>
<trkpt lat="26.884854" lon="98.873231">
<time>2014-08-05T02:03:04Z</time></trkpt>
<trkpt lat="26.884994" lon="98.872971">
<time>2014-08-05T02:03:05Z</time></trkpt>
<trkpt lat="26.885104" lon="98.872801">
<time>2014-08-05T02:03:06Z</time></trkpt>
<trkpt lat="26.885183" lon="98.872691">
<time>2014-08-05T02:03:07Z</time></trkpt>
<trkpt lat="26.885283" lon="98.872581">
<time>2014-08-05T02:03:08Z</time></trkpt>
<trkpt lat="26.885403" lon="98.872461">
<time>2014-08-05T02:03:09Z</time></trkpt>
<trkpt lat="26.885463" lon="98.872391">
<time>2014-08-05T02:03:10Z</time></trkpt>
<trkpt lat="26.885523" lon="98.872331">
<time>2014-08-05T02:03:11Z</time></trkpt>
<trkpt lat="26.885563" lon="98.872271">
<time>2014-08-05T02:03:12Z</time></trkpt>
<trkpt lat="26.885613" lon="98.872201">
<time>2014-08-05T02:03:13Z</time></trkpt>
<trkpt lat="26.885633" lon="98.872151">
<time>2014-08-05T02:03:14Z</time></trkpt>
<trkpt lat="26.885663" lon="98.872091">
<time>2014-08-05T02:03:15Z</time></trkpt>
<trkpt lat="26.885812" lon="98.871801">
<time>2014-08-05T02:03:16Z</time></trkpt>
<trkpt lat="26.885872" lon="98.871711">
<time>2014-08-05T02:03:17Z</time></trkpt>
<trkpt lat="26.885962" lon="98.871601">
<time>2014-08-05T02:03:18Z</time></trkpt>
<trkpt lat="26.886112" lon="98.87146">
<time>2014-08-05T02:03:19Z</time></trkpt>
<trkpt lat="26.886192" lon="98.87137">
<time>2014-08-05T02:03:20Z</time></trkpt>
<trkpt lat="26.886301" lon="98.87123">
<time>2014-08-05T02:03:21Z</time></trkpt>
<trkpt lat="26.886391" lon="98.87108">
<time>2014-08-05T02:03:22Z</time></trkpt>
<trkpt lat="26.886461" lon="98.87093">
<time>2014-08-05T02:03:23Z</time></trkpt>
<trkpt lat="26.886521" lon="98.87077">
<time>2014-08-05T02:03:24Z</time></trkpt>
<trkpt lat="26.886541" lon="98.8707">
<time>2014-08-05T02:03:25Z</time></trkpt>
<trkpt lat="26.886561" lon="98.87062">
<time>2014-08-05T02:03:26Z</time></trkpt>
<trkpt lat="26.886571" lon="98.87056">
<time>2014-08-05T02:03:27Z</time></trkpt>
<trkpt lat="26.886571" lon="98.87052">
<time>2014-08-05T02:03:28Z</time></trkpt>
<trkpt lat="26.886581" lon="98.87046">
<time>2014-08-05T02:03:29Z</time></trkpt>
<trkpt lat="26.88658" lon="98.8704">
<time>2014-08-05T02:03:30Z</time></trkpt>
<trkpt lat="26.88658" lon="98.87017">
<time>2014-08-05T02:03:31Z</time></trkpt>
<trkpt lat="26.8866" lon="98.87008">
<time>2014-08-05T02:03:32Z</time></trkpt>
<trkpt lat="26.8866" lon="98.87004">
<time>2014-08-05T02:03:33Z</time></trkpt>
<trkpt lat="26.88661" lon="98.87002">
<time>2014-08-05T02:03:34Z</time></trkpt>
<trkpt lat="26.88662" lon="98.86999">
<time>2014-08-05T02:03:35Z</time></trkpt>
<trkpt lat="26.88664" lon="98.86995">
<time>2014-08-05T02:03:36Z</time></trkpt>
<trkpt lat="26.88666" lon="98.86993">
<time>2014-08-05T02:03:37Z</time></trkpt>
<trkpt lat="26.88667" lon="98.86991">
<time>2014-08-05T02:03:38Z</time></trkpt>
<trkpt lat="26.88669" lon="98.86989">
<time>2014-08-05T02:03:39Z</time></trkpt>
<trkpt lat="26.88671" lon="98.86987">
<time>2014-08-05T02:03:40Z</time></trkpt>
<trkpt lat="26.88673" lon="98.86985">
<time>2014-08-05T02:03:41Z</time></trkpt>
<trkpt lat="26.88678" lon="98.86982">
<time>2014-08-05T02:03:42Z</time></trkpt>
<trkpt lat="26.88684" lon="98.86979">
<time>2014-08-05T02:03:43Z</time></trkpt>
<trkpt lat="26.887229" lon="98.86963">
<time>2014-08-05T02:03:44Z</time></trkpt>
<trkpt lat="26.887389" lon="98.869549">
<time>2014-08-05T02:03:45Z</time></trkpt>
<trkpt lat="26.887459" lon="98.869509">
<time>2014-08-05T02:03:46Z</time></trkpt>
<trkpt lat="26.887529" lon="98.869449">
<time>2014-08-05T02:03:47Z</time></trkpt>
<trkpt lat="26.887589" lon="98.869369">
<time>2014-08-05T02:03:48Z</time></trkpt>
<trkpt lat="26.887639" lon="98.869319">
<time>2014-08-05T02:03:49Z</time></trkpt>
<trkpt lat="26.887729" lon="98.869179">
<time>2014-08-05T02:03:50Z</time></trkpt>
<trkpt lat="26.887849" lon="98.868999">
<time>2014-08-05T02:03:51Z</time></trkpt>
<trkpt lat="26.887898" lon="98.868959">
<time>2014-08-05T02:03:52Z</time></trkpt>
<trkpt lat="26.887998" lon="98.868879">
<time>2014-08-05T02:03:53Z</time></trkpt>
<trkpt lat="26.888098" lon="98.868809">
<time>2014-08-05T02:03:54Z</time></trkpt>
<trkpt lat="26.888618" lon="98.868509">
<time>2014-08-05T02:03:55Z</time></trkpt>
<trkpt lat="26.888768" lon="98.868429">
<time>2014-08-05T02:03:56Z</time></trkpt>
<trkpt lat="26.888938" lon="98.868379">
<time>2014-08-05T02:03:57Z</time></trkpt>
<trkpt lat="26.889117" lon="98.868329">
<time>2014-08-05T02:03:58Z</time></trkpt>
<trkpt lat="26.889297" lon="98.868289">
<time>2014-08-05T02:03:59Z</time></trkpt>
<trkpt lat="26.889407" lon="98.868269">
<time>2014-08-05T02:04:00Z</time></trkpt>
<trkpt lat="26.889507" lon="98.868259">
<time>2014-08-05T02:04:01Z</time></trkpt>
<trkpt lat="26.889627" lon="98.868239">
<time>2014-08-05T02:04:02Z</time></trkpt>
<trkpt lat="26.889987" lon="98.868219">
<time>2014-08-05T02:04:03Z</time></trkpt>
<trkpt lat="26.890217" lon="98.868209">
<time>2014-08-05T02:04:04Z</time></trkpt>
<trkpt lat="26.890757" lon="98.868179">
<time>2014-08-05T02:04:05Z</time></trkpt>
<trkpt lat="26.891637" lon="98.868189">
<time>2014-08-05T02:04:06Z</time></trkpt>
<trkpt lat="26.892277" lon="98.868189">
<time>2014-08-05T02:04:07Z</time></trkpt>
<trkpt lat="26.892967" lon="98.868209">
<time>2014-08-05T02:04:08Z</time></trkpt>
<trkpt lat="26.893556" lon="98.868229">
<time>2014-08-05T02:04:09Z</time></trkpt>
<trkpt lat="26.893786" lon="98.868219">
<time>2014-08-05T02:04:10Z</time></trkpt>
<trkpt lat="26.893896" lon="98.868209">
<time>2014-08-05T02:04:11Z</time></trkpt>
<trkpt lat="26.894066" lon="98.868179">
<time>2014-08-05T02:04:12Z</time></trkpt>
<trkpt lat="26.894296" lon="98.868119">
<time>2014-08-05T02:04:13Z</time></trkpt>
<trkpt lat="26.894646" lon="98.868018">
<time>2014-08-05T02:04:14Z</time></trkpt>
<trkpt lat="26.894956" lon="98.867958">
<time>2014-08-05T02:04:15Z</time></trkpt>
<trkpt lat="26.895066" lon="98.867938">
<time>2014-08-05T02:04:16Z</time></trkpt>
<trkpt lat="26.895166" lon="98.867938">
<time>2014-08-05T02:04:17Z</time></trkpt>
<trkpt lat="26.895256" lon="98.867938">
<time>2014-08-05T02:04:18Z</time></trkpt>
<trkpt lat="26.895556" lon="98.867958">
<time>2014-08-05T02:04:19Z</time></trkpt>
<trkpt lat="26.896296" lon="98.868068">
<time>2014-08-05T02:04:20Z</time></trkpt>
<trkpt lat="26.897106" lon="98.868199">
<time>2014-08-05T02:04:21Z</time></trkpt>
<trkpt lat="26.897616" lon="98.868259">
<time>2014-08-05T02:04:22Z</time></trkpt>
<trkpt lat="26.898376" lon="98.868379">
<time>2014-08-05T02:04:23Z</time></trkpt>
<trkpt lat="26.898536" lon="98.868379">
<time>2014-08-05T02:04:24Z</time></trkpt>
<trkpt lat="26.898636" lon="98.868399">
<time>2014-08-05T02:04:25Z</time></trkpt>
<trkpt lat="26.898916" lon="98.868449">
<time>2014-08-05T02:04:26Z</time></trkpt>
<trkpt lat="26.899416" lon="98.868519">
<time>2014-08-05T02:04:27Z</time></trkpt>
<trkpt lat="26.899436" lon="98.868519">
<time>2014-08-05T02:04:28Z</time></trkpt>
<trkpt lat="26.899686" lon="98.868559">
<time>2014-08-05T02:04:29Z</time></trkpt>
<trkpt lat="26.899826" lon="98.868579">
<time>2014-08-05T02:04:30Z</time></trkpt>
<trkpt lat="26.899846" lon="98.868579">
<time>2014-08-05T02:04:31Z</time></trkpt>
<trkpt lat="26.899926" lon="98.868579">
<time>2014-08-05T02:04:32Z</time></trkpt>
<trkpt lat="26.899986" lon="98.868569">
<time>2014-08-05T02:04:33Z</time></trkpt>
<trkpt lat="26.900036" lon="98.868559">
<time>2014-08-05T02:04:34Z</time></trkpt>
<trkpt lat="26.900086" lon="98.868549">
<time>2014-08-05T02:04:35Z</time></trkpt>
<trkpt lat="26.900135" lon="98.868529">
<time>2014-08-05T02:04:36Z</time></trkpt>
<trkpt lat="26.900175" lon="98.868509">
<time>2014-08-05T02:04:37Z</time></trkpt>
<trkpt lat="26.900265" lon="98.868449">
<time>2014-08-05T02:04:38Z</time></trkpt>
<trkpt lat="26.900385" lon="98.868359">
<time>2014-08-05T02:04:39Z</time></trkpt>
<trkpt lat="26.900555" lon="98.868238">
<time>2014-08-05T02:04:40Z</time></trkpt>
<trkpt lat="26.900665" lon="98.868148">
<time>2014-08-05T02:04:41Z</time></trkpt>
<trkpt lat="26.900745" lon="98.868068">
<time>2014-08-05T02:04:42Z</time></trkpt>
<trkpt lat="26.900925" lon="98.867908">
<time>2014-08-05T02:04:43Z</time></trkpt>
<trkpt lat="26.901094" lon="98.867718">
<time>2014-08-05T02:04:44Z</time></trkpt>
<trkpt lat="26.901224" lon="98.867578">
<time>2014-08-05T02:04:45Z</time></trkpt>
<trkpt lat="26.901264" lon="98.867538">
<time>2014-08-05T02:04:46Z</time></trkpt>
<trkpt lat="26.901334" lon="98.867438">
<time>2014-08-05T02:04:47Z</time></trkpt>
<trkpt lat="26.901553" lon="98.867188">
<time>2014-08-05T02:04:48Z</time></trkpt>
<trkpt lat="26.901713" lon="98.867028">
<time>2014-08-05T02:04:49Z</time></trkpt>
<trkpt lat="26.901813" lon="98.866938">
<time>2014-08-05T02:04:50Z</time></trkpt>
<trkpt lat="26.901863" lon="98.866908">
<time>2014-08-05T02:04:51Z</time></trkpt>
<trkpt lat="26.901903" lon="98.866878">
<time>2014-08-05T02:04:52Z</time></trkpt>
<trkpt lat="26.901943" lon="98.866858">
<time>2014-08-05T02:04:53Z</time></trkpt>
<trkpt lat="26.902003" lon="98.866838">
<time>2014-08-05T02:04:54Z</time></trkpt>
<trkpt lat="26.902173" lon="98.866798">
<time>2014-08-05T02:04:55Z</time></trkpt>
<trkpt lat="26.902583" lon="98.866677">
<time>2014-08-05T02:04:56Z</time></trkpt>
<trkpt lat="26.902733" lon="98.866657">
<time>2014-08-05T02:04:57Z</time></trkpt>
<trkpt lat="26.902803" lon="98.866637">
<time>2014-08-05T02:04:58Z</time></trkpt>
<trkpt lat="26.902842" lon="98.866617">
<time>2014-08-05T02:04:59Z</time></trkpt>
<trkpt lat="26.902882" lon="98.866617">
<time>2014-08-05T02:05:00Z</time></trkpt>
<trkpt lat="26.902902" lon="98.866607">
<time>2014-08-05T02:05:01Z</time></trkpt>
<trkpt lat="26.902932" lon="98.866607">
<time>2014-08-05T02:05:02Z</time></trkpt>
<trkpt lat="26.902962" lon="98.866607">
<time>2014-08-05T02:05:03Z</time></trkpt>
<trkpt lat="26.903012" lon="98.866607">
<time>2014-08-05T02:05:04Z</time></trkpt>
<trkpt lat="26.903052" lon="98.866607">
<time>2014-08-05T02:05:05Z</time></trkpt>
<trkpt lat="26.903082" lon="98.866607">
<time>2014-08-05T02:05:06Z</time></trkpt>
<trkpt lat="26.903102" lon="98.866617">
<time>2014-08-05T02:05:07Z</time></trkpt>
<trkpt lat="26.903142" lon="98.866627">
<time>2014-08-05T02:05:08Z</time></trkpt>
<trkpt lat="26.903192" lon="98.866637">
<time>2014-08-05T02:05:09Z</time></trkpt>
<trkpt lat="26.903262" lon="98.866657">
<time>2014-08-05T02:05:10Z</time></trkpt>
<trkpt lat="26.903292" lon="98.866667">
<time>2014-08-05T02:05:11Z</time></trkpt>
<trkpt lat="26.903322" lon="98.866687">
<time>2014-08-05T02:05:12Z</time></trkpt>
<trkpt lat="26.903372" lon="98.866717">
<time>2014-08-05T02:05:13Z</time></trkpt>
<trkpt lat="26.903483" lon="98.866767">
<time>2014-08-05T02:05:14Z</time></trkpt>
<trkpt lat="26.903633" lon="98.866868">
<time>2014-08-05T02:05:15Z</time></trkpt>
<trkpt lat="26.903883" lon="98.867058">
<time>2014-08-05T02:05:16Z</time></trkpt>
<trkpt lat="26.904333" lon="98.867368">
<time>2014-08-05T02:05:17Z</time></trkpt>
<trkpt lat="26.904623" lon="98.867558">
<time>2014-08-05T02:05:18Z</time></trkpt>
<trkpt lat="26.904723" lon="98.867588">
<time>2014-08-05T02:05:19Z</time></trkpt>
<trkpt lat="26.904803" lon="98.867618">
<time>2014-08-05T02:05:20Z</time></trkpt>
<trkpt lat="26.905003" lon="98.867668">
<time>2014-08-05T02:05:21Z</time></trkpt>
<trkpt lat="26.905213" lon="98.867688">
<time>2014-08-05T02:05:22Z</time></trkpt>
<trkpt lat="26.905533" lon="98.867698">
<time>2014-08-05T02:05:23Z</time></trkpt>
<trkpt lat="26.905753" lon="98.867708">
<time>2014-08-05T02:05:24Z</time></trkpt>
<trkpt lat="26.905873" lon="98.867698">
<time>2014-08-05T02:05:25Z</time></trkpt>
<trkpt lat="26.906453" lon="98.867708">
<time>2014-08-05T02:05:26Z</time></trkpt>
<trkpt lat="26.906613" lon="98.867708">
<time>2014-08-05T02:05:27Z</time></trkpt>
<trkpt lat="26.908373" lon="98.867728">
<time>2014-08-05T02:05:28Z</time></trkpt>
<trkpt lat="26.909623" lon="98.867758">
<time>2014-08-05T02:05:29Z</time></trkpt>
<trkpt lat="26.909713" lon="98.867758">
<time>2014-08-05T02:05:30Z</time></trkpt>
<trkpt lat="26.909863" lon="98.867778">
<time>2014-08-05T02:05:31Z</time></trkpt>
<trkpt lat="26.909983" lon="98.867798">
<time>2014-08-05T02:05:32Z</time></trkpt>
<trkpt lat="26.910053" lon="98.867818">
<time>2014-08-05T02:05:33Z</time></trkpt>
<trkpt lat="26.910133" lon="98.867848">
<time>2014-08-05T02:05:34Z</time></trkpt>
<trkpt lat="26.910273" lon="98.867938">
<time>2014-08-05T02:05:35Z</time></trkpt>
<trkpt lat="26.910343" lon="98.867988">
<time>2014-08-05T02:05:36Z</time></trkpt>
<trkpt lat="26.910503" lon="98.868208">
<time>2014-08-05T02:05:37Z</time></trkpt>
<trkpt lat="26.910803" lon="98.868438">
<time>2014-08-05T02:05:38Z</time></trkpt>
<trkpt lat="26.911254" lon="98.868919">
<time>2014-08-05T02:05:39Z</time></trkpt>
<trkpt lat="26.911534" lon="98.869239">
<time>2014-08-05T02:05:40Z</time></trkpt>
<trkpt lat="26.911604" lon="98.869309">
<time>2014-08-05T02:05:41Z</time></trkpt>
<trkpt lat="26.911634" lon="98.869389">
<time>2014-08-05T02:05:42Z</time></trkpt>
<trkpt lat="26.911664" lon="98.869489">
<time>2014-08-05T02:05:43Z</time></trkpt>
<trkpt lat="26.911684" lon="98.869569">
<time>2014-08-05T02:05:44Z</time></trkpt>
<trkpt lat="26.911714" lon="98.869639">
<time>2014-08-05T02:05:45Z</time></trkpt>
<trkpt lat="26.911745" lon="98.869699">
<time>2014-08-05T02:05:46Z</time></trkpt>
<trkpt lat="26.911795" lon="98.869759">
<time>2014-08-05T02:05:47Z</time></trkpt>
<trkpt lat="26.911865" lon="98.869819">
<time>2014-08-05T02:05:48Z</time></trkpt>
<trkpt lat="26.911935" lon="98.869869">
<time>2014-08-05T02:05:49Z</time></trkpt>
<trkpt lat="26.912025" lon="98.869919">
<time>2014-08-05T02:05:50Z</time></trkpt>
<trkpt lat="26.912095" lon="98.869949">
<time>2014-08-05T02:05:51Z</time></trkpt>
<trkpt lat="26.912185" lon="98.869979">
<time>2014-08-05T02:05:52Z</time></trkpt>
<trkpt lat="26.912285" lon="98.869999">
<time>2014-08-05T02:05:53Z</time></trkpt>
<trkpt lat="26.912525" lon="98.870029">
<time>2014-08-05T02:05:54Z</time></trkpt>
<trkpt lat="26.912605" lon="98.870049">
<time>2014-08-05T02:05:55Z</time></trkpt>
<trkpt lat="26.912705" lon="98.870059">
<time>2014-08-05T02:05:56Z</time></trkpt>
<trkpt lat="26.912905" lon="98.870089">
<time>2014-08-05T02:05:57Z</time></trkpt>
<trkpt lat="26.913125" lon="98.870119">
<time>2014-08-05T02:05:58Z</time></trkpt>
<trkpt lat="26.913195" lon="98.870119">
<time>2014-08-05T02:05:59Z</time></trkpt>
<trkpt lat="26.913275" lon="98.870129">
<time>2014-08-05T02:06:00Z</time></trkpt>
<trkpt lat="26.913365" lon="98.870149">
<time>2014-08-05T02:06:01Z</time></trkpt>
<trkpt lat="26.913465" lon="98.870179">
<time>2014-08-05T02:06:02Z</time></trkpt>
<trkpt lat="26.913755" lon="98.870259">
<time>2014-08-05T02:06:03Z</time></trkpt>
<trkpt lat="26.913915" lon="98.870299">
<time>2014-08-05T02:06:04Z</time></trkpt>
<trkpt lat="26.913995" lon="98.870309">
<time>2014-08-05T02:06:05Z</time></trkpt>
<trkpt lat="26.914065" lon="98.870319">
<time>2014-08-05T02:06:06Z</time></trkpt>
<trkpt lat="26.914135" lon="98.870319">
<time>2014-08-05T02:06:07Z</time></trkpt>
<trkpt lat="26.914305" lon="98.870319">
<time>2014-08-05T02:06:08Z</time></trkpt>
<trkpt lat="26.914645" lon="98.870309">
<time>2014-08-05T02:06:09Z</time></trkpt>
<trkpt lat="26.914995" lon="98.870299">
<time>2014-08-05T02:06:10Z</time></trkpt>
<trkpt lat="26.915125" lon="98.870289">
<time>2014-08-05T02:06:11Z</time></trkpt>
<trkpt lat="26.915145" lon="98.870289">
<time>2014-08-05T02:06:12Z</time></trkpt>
<trkpt lat="26.915234" lon="98.870299">
<time>2014-08-05T02:06:13Z</time></trkpt>
<trkpt lat="26.915324" lon="98.870299">
<time>2014-08-05T02:06:14Z</time></trkpt>
<trkpt lat="26.915354" lon="98.870299">
<time>2014-08-05T02:06:15Z</time></trkpt>
<trkpt lat="26.915374" lon="98.870299">
<time>2014-08-05T02:06:16Z</time></trkpt>
<trkpt lat="26.915384" lon="98.870299">
<time>2014-08-05T02:06:17Z</time></trkpt>
<trkpt lat="26.915434" lon="98.870299">
<time>2014-08-05T02:06:18Z</time></trkpt>
<trkpt lat="26.915464" lon="98.870299">
<time>2014-08-05T02:06:19Z</time></trkpt>
<trkpt lat="26.915474" lon="98.870299">
<time>2014-08-05T02:06:20Z</time></trkpt>
<trkpt lat="26.915514" lon="98.870299">
<time>2014-08-05T02:06:21Z</time></trkpt>
<trkpt lat="26.915604" lon="98.870299">
<time>2014-08-05T02:06:22Z</time></trkpt>
<trkpt lat="26.915724" lon="98.870319">
<time>2014-08-05T02:06:23Z</time></trkpt>
<trkpt lat="26.915894" lon="98.870339">
<time>2014-08-05T02:06:24Z</time></trkpt>
<trkpt lat="26.916014" lon="98.870359">
<time>2014-08-05T02:06:25Z</time></trkpt>
<trkpt lat="26.916124" lon="98.870369">
<time>2014-08-05T02:06:26Z</time></trkpt>
<trkpt lat="26.916154" lon="98.870369">
<time>2014-08-05T02:06:27Z</time></trkpt>
<trkpt lat="26.916194" lon="98.870379">
<time>2014-08-05T02:06:28Z</time></trkpt>
<trkpt lat="26.916214" lon="98.870379">
<time>2014-08-05T02:06:29Z</time></trkpt>
<trkpt lat="26.916234" lon="98.870379">
<time>2014-08-05T02:06:30Z</time></trkpt>
<trkpt lat="26.916274" lon="98.870379">
<time>2014-08-05T02:06:31Z</time></trkpt>
<trkpt lat="26.916314" lon="98.870379">
<time>2014-08-05T02:06:32Z</time></trkpt>
<trkpt lat="26.916354" lon="98.870379">
<time>2014-08-05T02:06:33Z</time></trkpt>
<trkpt lat="26.916374" lon="98.870369">
<time>2014-08-05T02:06:34Z</time></trkpt>
<trkpt lat="26.916414" lon="98.870369">
<time>2014-08-05T02:06:35Z</time></trkpt>
<trkpt lat="26.916474" lon="98.870369">
<time>2014-08-05T02:06:36Z</time></trkpt>
<trkpt lat="26.916544" lon="98.870369">
<time>2014-08-05T02:06:37Z</time></trkpt>
<trkpt lat="26.916694" lon="98.870369">
<time>2014-08-05T02:06:38Z</time></trkpt>
<trkpt lat="26.916824" lon="98.870359">
<time>2014-08-05T02:06:39Z</time></trkpt>
<trkpt lat="26.917014" lon="98.870339">
<time>2014-08-05T02:06:40Z</time></trkpt>
<trkpt lat="26.917134" lon="98.870329">
<time>2014-08-05T02:06:41Z</time></trkpt>
<trkpt lat="26.917204" lon="98.870329">
<time>2014-08-05T02:06:42Z</time></trkpt>
<trkpt lat="26.917294" lon="98.870309">
<time>2014-08-05T02:06:43Z</time></trkpt>
<trkpt lat="26.917374" lon="98.870299">
<time>2014-08-05T02:06:44Z</time></trkpt>
<trkpt lat="26.917524" lon="98.870259">
<time>2014-08-05T02:06:45Z</time></trkpt>
<trkpt lat="26.917624" lon="98.870239">
<time>2014-08-05T02:06:46Z</time></trkpt>
<trkpt lat="26.917734" lon="98.870219">
<time>2014-08-05T02:06:47Z</time></trkpt>
<trkpt lat="26.917894" lon="98.870189">
<time>2014-08-05T02:06:48Z</time></trkpt>
<trkpt lat="26.917944" lon="98.870179">
<time>2014-08-05T02:06:49Z</time></trkpt>
<trkpt lat="26.917994" lon="98.870169">
<time>2014-08-05T02:06:50Z</time></trkpt>
<trkpt lat="26.918044" lon="98.870159">
<time>2014-08-05T02:06:51Z</time></trkpt>
<trkpt lat="26.918054" lon="98.870149">
<time>2014-08-05T02:06:52Z</time></trkpt>
<trkpt lat="26.918084" lon="98.870149">
<time>2014-08-05T02:06:53Z</time></trkpt>
<trkpt lat="26.918104" lon="98.870139">
<time>2014-08-05T02:06:54Z</time></trkpt>
<trkpt lat="26.918124" lon="98.870129">
<time>2014-08-05T02:06:55Z</time></trkpt>
<trkpt lat="26.918174" lon="98.870109">
<time>2014-08-05T02:06:56Z</time></trkpt>
<trkpt lat="26.918234" lon="98.870079">
<time>2014-08-05T02:06:57Z</time></trkpt>
<trkpt lat="26.918284" lon="98.870049">
<time>2014-08-05T02:06:58Z</time></trkpt>
<trkpt lat="26.918363" lon="98.869989">
<time>2014-08-05T02:06:59Z</time></trkpt>
<trkpt lat="26.918513" lon="98.869879">
<time>2014-08-05T02:07:00Z</time></trkpt>
<trkpt lat="26.918693" lon="98.869739">
<time>2014-08-05T02:07:01Z</time></trkpt>
<trkpt lat="26.918883" lon="98.869589">
<time>2014-08-05T02:07:02Z</time></trkpt>
<trkpt lat="26.919043" lon="98.869469">
<time>2014-08-05T02:07:03Z</time></trkpt>
<trkpt lat="26.919153" lon="98.869369">
<time>2014-08-05T02:07:04Z</time></trkpt>
<trkpt lat="26.919292" lon="98.869249">
<time>2014-08-05T02:07:05Z</time></trkpt>
<trkpt lat="26.919312" lon="98.869229">
<time>2014-08-05T02:07:06Z</time></trkpt>
<trkpt lat="26.919332" lon="98.869219">
<time>2014-08-05T02:07:07Z</time></trkpt>
<trkpt lat="26.919342" lon="98.869209">
<time>2014-08-05T02:07:08Z</time></trkpt>
<trkpt lat="26.919372" lon="98.869189">
<time>2014-08-05T02:07:09Z</time></trkpt>
<trkpt lat="26.919402" lon="98.869179">
<time>2014-08-05T02:07:10Z</time></trkpt>
<trkpt lat="26.919432" lon="98.869169">
<time>2014-08-05T02:07:11Z</time></trkpt>
<trkpt lat="26.919472" lon="98.869149">
<time>2014-08-05T02:07:12Z</time></trkpt>
<trkpt lat="26.919512" lon="98.869139">
<time>2014-08-05T02:07:13Z</time></trkpt>
<trkpt lat="26.919552" lon="98.869129">
<time>2014-08-05T02:07:14Z</time></trkpt>
<trkpt lat="26.919622" lon="98.869109">
<time>2014-08-05T02:07:15Z</time></trkpt>
<trkpt lat="26.919712" lon="98.869109">
<time>2014-08-05T02:07:16Z</time></trkpt>
<trkpt lat="26.919962" lon="98.869089">
<time>2014-08-05T02:07:17Z</time></trkpt>
<trkpt lat="26.920032" lon="98.869089">
<time>2014-08-05T02:07:18Z</time></trkpt>
<trkpt lat="26.920102" lon="98.869079">
<time>2014-08-05T02:07:19Z</time></trkpt>
<trkpt lat="26.920152" lon="98.869079">
<time>2014-08-05T02:07:20Z</time></trkpt>
<trkpt lat="26.920252" lon="98.869069">
<time>2014-08-05T02:07:21Z</time></trkpt>
<trkpt lat="26.920292" lon="98.869069">
<time>2014-08-05T02:07:22Z</time></trkpt>
<trkpt lat="26.920382" lon="98.869059">
<time>2014-08-05T02:07:23Z</time></trkpt>
<trkpt lat="26.920512" lon="98.869059">
<time>2014-08-05T02:07:24Z</time></trkpt>
<trkpt lat="26.921901" lon="98.868969">
<time>2014-08-05T02:07:25Z</time></trkpt>
<trkpt lat="26.922231" lon="98.868949">
<time>2014-08-05T02:07:26Z</time></trkpt>
<trkpt lat="26.922501" lon="98.868928">
<time>2014-08-05T02:07:27Z</time></trkpt>
<trkpt lat="26.922561" lon="98.868918">
<time>2014-08-05T02:07:28Z</time></trkpt>
<trkpt lat="26.922871" lon="98.868918">
<time>2014-08-05T02:07:29Z</time></trkpt>
<trkpt lat="26.923001" lon="98.868918">
<time>2014-08-05T02:07:30Z</time></trkpt>
<trkpt lat="26.923251" lon="98.868928">
<time>2014-08-05T02:07:31Z</time></trkpt>
<trkpt lat="26.923461" lon="98.868938">
<time>2014-08-05T02:07:32Z</time></trkpt>
<trkpt lat="26.923571" lon="98.868928">
<time>2014-08-05T02:07:33Z</time></trkpt>
<trkpt lat="26.923651" lon="98.868928">
<time>2014-08-05T02:07:34Z</time></trkpt>
<trkpt lat="26.923771" lon="98.868908">
<time>2014-08-05T02:07:35Z</time></trkpt>
<trkpt lat="26.923871" lon="98.868898">
<time>2014-08-05T02:07:36Z</time></trkpt>
<trkpt lat="26.924021" lon="98.868878">
<time>2014-08-05T02:07:37Z</time></trkpt>
<trkpt lat="26.924161" lon="98.868858">
<time>2014-08-05T02:07:38Z</time></trkpt>
<trkpt lat="26.924171" lon="98.868858">
<time>2014-08-05T02:07:39Z</time></trkpt>
<trkpt lat="26.924181" lon="98.868858">
<time>2014-08-05T02:07:40Z</time></trkpt>
<trkpt lat="26.924241" lon="98.868848">
<time>2014-08-05T02:07:41Z</time></trkpt>
<trkpt lat="26.924671" lon="98.868838">
<time>2014-08-05T02:07:42Z</time></trkpt>
<trkpt lat="26.92584" lon="98.868798">
<time>2014-08-05T02:07:43Z</time></trkpt>
<trkpt lat="26.92605" lon="98.868788">
<time>2014-08-05T02:07:44Z</time></trkpt>
<trkpt lat="26.92617" lon="98.868778">
<time>2014-08-05T02:07:45Z</time></trkpt>
<trkpt lat="26.92628" lon="98.868758">
<time>2014-08-05T02:07:46Z</time></trkpt>
<trkpt lat="26.92642" lon="98.868718">
<time>2014-08-05T02:07:47Z</time></trkpt>
<trkpt lat="26.92656" lon="98.868678">
<time>2014-08-05T02:07:48Z</time></trkpt>
<trkpt lat="26.92672" lon="98.868628">
<time>2014-08-05T02:07:49Z</time></trkpt>
<trkpt lat="26.92677" lon="98.868618">
<time>2014-08-05T02:07:50Z</time></trkpt>
<trkpt lat="26.92681" lon="98.868608">
<time>2014-08-05T02:07:51Z</time></trkpt>
<trkpt lat="26.92686" lon="98.868598">
<time>2014-08-05T02:07:52Z</time></trkpt>
<trkpt lat="26.92692" lon="98.868588">
<time>2014-08-05T02:07:53Z</time></trkpt>
<trkpt lat="26.92698" lon="98.868578">
<time>2014-08-05T02:07:54Z</time></trkpt>
<trkpt lat="26.92711" lon="98.868578">
<time>2014-08-05T02:07:55Z</time></trkpt>
<trkpt lat="26.92737" lon="98.868578">
<time>2014-08-05T02:07:56Z</time></trkpt>
<trkpt lat="26.92751" lon="98.868588">
<time>2014-08-05T02:07:57Z</time></trkpt>
<trkpt lat="26.92765" lon="98.868588">
<time>2014-08-05T02:07:58Z</time></trkpt>
<trkpt lat="26.92773" lon="98.868578">
<time>2014-08-05T02:07:59Z</time></trkpt>
<trkpt lat="26.92783" lon="98.868568">
<time>2014-08-05T02:08:00Z</time></trkpt>
<trkpt lat="26.92794" lon="98.868548">
<time>2014-08-05T02:08:01Z</time></trkpt>
<trkpt lat="26.92801" lon="98.868528">
<time>2014-08-05T02:08:02Z</time></trkpt>
<trkpt lat="26.92809" lon="98.868518">
<time>2014-08-05T02:08:03Z</time></trkpt>
<trkpt lat="26.928189" lon="98.868488">
<time>2014-08-05T02:08:04Z</time></trkpt>
<trkpt lat="26.928209" lon="98.868488">
<time>2014-08-05T02:08:05Z</time></trkpt>
<trkpt lat="26.928239" lon="98.868478">
<time>2014-08-05T02:08:06Z</time></trkpt>
<trkpt lat="26.928249" lon="98.868478">
<time>2014-08-05T02:08:07Z</time></trkpt>
<trkpt lat="26.928269" lon="98.868468">
<time>2014-08-05T02:08:08Z</time></trkpt>
<trkpt lat="26.928409" lon="98.868438">
<time>2014-08-05T02:08:09Z</time></trkpt>
<trkpt lat="26.928659" lon="98.868378">
<time>2014-08-05T02:08:10Z</time></trkpt>
<trkpt lat="26.928799" lon="98.868338">
<time>2014-08-05T02:08:11Z</time></trkpt>
<trkpt lat="26.928979" lon="98.868298">
<time>2014-08-05T02:08:12Z</time></trkpt>
<trkpt lat="26.929069" lon="98.868278">
<time>2014-08-05T02:08:13Z</time></trkpt>
<trkpt lat="26.929109" lon="98.868268">
<time>2014-08-05T02:08:14Z</time></trkpt>
<trkpt lat="26.929139" lon="98.868268">
<time>2014-08-05T02:08:15Z</time></trkpt>
<trkpt lat="26.929239" lon="98.868248">
<time>2014-08-05T02:08:16Z</time></trkpt>
<trkpt lat="26.929359" lon="98.868238">
<time>2014-08-05T02:08:17Z</time></trkpt>
<trkpt lat="26.929489" lon="98.868228">
<time>2014-08-05T02:08:18Z</time></trkpt>
<trkpt lat="26.929619" lon="98.868208">
<time>2014-08-05T02:08:19Z</time></trkpt>
<trkpt lat="26.929699" lon="98.868198">
<time>2014-08-05T02:08:20Z</time></trkpt>
<trkpt lat="26.929779" lon="98.868168">
<time>2014-08-05T02:08:21Z</time></trkpt>
<trkpt lat="26.929939" lon="98.868118">
<time>2014-08-05T02:08:22Z</time></trkpt>
<trkpt lat="26.930168" lon="98.868028">
<time>2014-08-05T02:08:23Z</time></trkpt>
<trkpt lat="26.930508" lon="98.867918">
<time>2014-08-05T02:08:24Z</time></trkpt>
<trkpt lat="26.930658" lon="98.867868">
<time>2014-08-05T02:08:25Z</time></trkpt>
<trkpt lat="26.930768" lon="98.867838">
<time>2014-08-05T02:08:26Z</time></trkpt>
<trkpt lat="26.930848" lon="98.867828">
<time>2014-08-05T02:08:27Z</time></trkpt>
<trkpt lat="26.931098" lon="98.867798">
<time>2014-08-05T02:08:28Z</time></trkpt>
<trkpt lat="26.931248" lon="98.867788">
<time>2014-08-05T02:08:29Z</time></trkpt>
<trkpt lat="26.931488" lon="98.867778">
<time>2014-08-05T02:08:30Z</time></trkpt>
<trkpt lat="26.931808" lon="98.867768">
<time>2014-08-05T02:08:31Z</time></trkpt>
<trkpt lat="26.931938" lon="98.867758">
<time>2014-08-05T02:08:32Z</time></trkpt>
<trkpt lat="26.932068" lon="98.867748">
<time>2014-08-05T02:08:33Z</time></trkpt>
<trkpt lat="26.932208" lon="98.867728">
<time>2014-08-05T02:08:34Z</time></trkpt>
<trkpt lat="26.932527" lon="98.867678">
<time>2014-08-05T02:08:35Z</time></trkpt>
<trkpt lat="26.932717" lon="98.867638">
<time>2014-08-05T02:08:36Z</time></trkpt>
<trkpt lat="26.932917" lon="98.867598">
<time>2014-08-05T02:08:37Z</time></trkpt>
<trkpt lat="26.933097" lon="98.867537">
<time>2014-08-05T02:08:38Z</time></trkpt>
<trkpt lat="26.933287" lon="98.867487">
<time>2014-08-05T02:08:39Z</time></trkpt>
<trkpt lat="26.933607" lon="98.867407">
<time>2014-08-05T02:08:40Z</time></trkpt>
<trkpt lat="26.933737" lon="98.867367">
<time>2014-08-05T02:08:41Z</time></trkpt>
<trkpt lat="26.933827" lon="98.867347">
<time>2014-08-05T02:08:42Z</time></trkpt>
<trkpt lat="26.933937" lon="98.867317">
<time>2014-08-05T02:08:43Z</time></trkpt>
<trkpt lat="26.934027" lon="98.867307">
<time>2014-08-05T02:08:44Z</time></trkpt>
<trkpt lat="26.934107" lon="98.867287">
<time>2014-08-05T02:08:45Z</time></trkpt>
<trkpt lat="26.934137" lon="98.867287">
<time>2014-08-05T02:08:46Z</time></trkpt>
<trkpt lat="26.934187" lon="98.867277">
<time>2014-08-05T02:08:47Z</time></trkpt>
<trkpt lat="26.934207" lon="98.867277">
<time>2014-08-05T02:08:48Z</time></trkpt>
<trkpt lat="26.934217" lon="98.867277">
<time>2014-08-05T02:08:49Z</time></trkpt>
<trkpt lat="26.934227" lon="98.867277">
<time>2014-08-05T02:08:50Z</time></trkpt>
<trkpt lat="26.934237" lon="98.867277">
<time>2014-08-05T02:08:51Z</time></trkpt>
<trkpt lat="26.934247" lon="98.867277">
<time>2014-08-05T02:08:52Z</time></trkpt>
<trkpt lat="26.934257" lon="98.867277">
<time>2014-08-05T02:08:53Z</time></trkpt>
<trkpt lat="26.934267" lon="98.867277">
<time>2014-08-05T02:08:54Z</time></trkpt>
<trkpt lat="26.934277" lon="98.867277">
<time>2014-08-05T02:08:55Z</time></trkpt>
<trkpt lat="26.934287" lon="98.867267">
<time>2014-08-05T02:08:56Z</time></trkpt>
<trkpt lat="26.934297" lon="98.867267">
<time>2014-08-05T02:08:57Z</time></trkpt>
<trkpt lat="26.934307" lon="98.867267">
<time>2014-08-05T02:08:58Z</time></trkpt>
<trkpt lat="26.934317" lon="98.867267">
<time>2014-08-05T02:08:59Z</time></trkpt>
<trkpt lat="26.934327" lon="98.867267">
<time>2014-08-05T02:09:00Z</time></trkpt>
<trkpt lat="26.934347" lon="98.867267">
<time>2014-08-05T02:09:01Z</time></trkpt>
<trkpt lat="26.934447" lon="98.867267">
<time>2014-08-05T02:09:02Z</time></trkpt>
<trkpt lat="26.934517" lon="98.867267">
<time>2014-08-05T02:09:03Z</time></trkpt>
<trkpt lat="26.934586" lon="98.867257">
<time>2014-08-05T02:09:04Z</time></trkpt>
<trkpt lat="26.934636" lon="98.867247">
<time>2014-08-05T02:09:05Z</time></trkpt>
<trkpt lat="26.934646" lon="98.867247">
<time>2014-08-05T02:09:06Z</time></trkpt>
<trkpt lat="26.934666" lon="98.867247">
<time>2014-08-05T02:09:07Z</time></trkpt>
<trkpt lat="26.934686" lon="98.867237">
<time>2014-08-05T02:09:08Z</time></trkpt>
<trkpt lat="26.934696" lon="98.867237">
<time>2014-08-05T02:09:09Z</time></trkpt>
<trkpt lat="26.934706" lon="98.867237">
<time>2014-08-05T02:09:10Z</time></trkpt>
<trkpt lat="26.934716" lon="98.867227">
<time>2014-08-05T02:09:11Z</time></trkpt>
<trkpt lat="26.934746" lon="98.867217">
<time>2014-08-05T02:09:12Z</time></trkpt>
<trkpt lat="26.934796" lon="98.867197">
<time>2014-08-05T02:09:13Z</time></trkpt>
<trkpt lat="26.934826" lon="98.867187">
<time>2014-08-05T02:09:14Z</time></trkpt>
<trkpt lat="26.934876" lon="98.867157">
<time>2014-08-05T02:09:15Z</time></trkpt>
<trkpt lat="26.934886" lon="98.867157">
<time>2014-08-05T02:09:16Z</time></trkpt>
<trkpt lat="26.934906" lon="98.867147">
<time>2014-08-05T02:09:17Z</time></trkpt>
<trkpt lat="26.934916" lon="98.867147">
<time>2014-08-05T02:09:18Z</time></trkpt>
<trkpt lat="26.934926" lon="98.867137">
<time>2014-08-05T02:09:19Z</time></trkpt>
<trkpt lat="26.934936" lon="98.867137">
<time>2014-08-05T02:09:20Z</time></trkpt>
<trkpt lat="26.934956" lon="98.867127">
<time>2014-08-05T02:09:21Z</time></trkpt>
<trkpt lat="26.934986" lon="98.867127">
<time>2014-08-05T02:09:22Z</time></trkpt>
<trkpt lat="26.935006" lon="98.867117">
<time>2014-08-05T02:09:23Z</time></trkpt>
<trkpt lat="26.935036" lon="98.867107">
<time>2014-08-05T02:09:24Z</time></trkpt>
<trkpt lat="26.935096" lon="98.867087">
<time>2014-08-05T02:09:25Z</time></trkpt>
<trkpt lat="26.935236" lon="98.867037">
<time>2014-08-05T02:09:26Z</time></trkpt>
<trkpt lat="26.935326" lon="98.866997">
<time>2014-08-05T02:09:27Z</time></trkpt>
<trkpt lat="26.935436" lon="98.866957">
<time>2014-08-05T02:09:28Z</time></trkpt>
<trkpt lat="26.935576" lon="98.866907">
<time>2014-08-05T02:09:29Z</time></trkpt>
<trkpt lat="26.935706" lon="98.866857">
<time>2014-08-05T02:09:30Z</time></trkpt>
<trkpt lat="26.935736" lon="98.866847">
<time>2014-08-05T02:09:31Z</time></trkpt>
<trkpt lat="26.935746" lon="98.866847">
<time>2014-08-05T02:09:32Z</time></trkpt>
<trkpt lat="26.935776" lon="98.866827">
<time>2014-08-05T02:09:33Z</time></trkpt>
<trkpt lat="26.935816" lon="98.866807">
<time>2014-08-05T02:09:34Z</time></trkpt>
<trkpt lat="26.936005" lon="98.866707">
<time>2014-08-05T02:09:35Z</time></trkpt>
<trkpt lat="26.936075" lon="98.866657">
<time>2014-08-05T02:09:36Z</time></trkpt>
<trkpt lat="26.936095" lon="98.866647">
<time>2014-08-05T02:09:37Z</time></trkpt>
<trkpt lat="26.936135" lon="98.866617">
<time>2014-08-05T02:09:38Z</time></trkpt>
<trkpt lat="26.936235" lon="98.866537">
<time>2014-08-05T02:09:39Z</time></trkpt>
<trkpt lat="26.936295" lon="98.866507">
<time>2014-08-05T02:09:40Z</time></trkpt>
<trkpt lat="26.936305" lon="98.866497">
<time>2014-08-05T02:09:41Z</time></trkpt>
<trkpt lat="26.936315" lon="98.866497">
<time>2014-08-05T02:09:42Z</time></trkpt>
<trkpt lat="26.936335" lon="98.866487">
<time>2014-08-05T02:09:43Z</time></trkpt>
<trkpt lat="26.936345" lon="98.866477">
<time>2014-08-05T02:09:44Z</time></trkpt>
<trkpt lat="26.936355" lon="98.866477">
<time>2014-08-05T02:09:45Z</time></trkpt>
<trkpt lat="26.936365" lon="98.866467">
<time>2014-08-05T02:09:46Z</time></trkpt>
<trkpt lat="26.936375" lon="98.866467">
<time>2014-08-05T02:09:47Z</time></trkpt>
<trkpt lat="26.936385" lon="98.866467">
<time>2014-08-05T02:09:48Z</time></trkpt>
<trkpt lat="26.936405" lon="98.866457">
<time>2014-08-05T02:09:49Z</time></trkpt>
<trkpt lat="26.936415" lon="98.866457">
<time>2014-08-05T02:09:50Z</time></trkpt>
<trkpt lat="26.936425" lon="98.866447">
<time>2014-08-05T02:09:51Z</time></trkpt>
<trkpt lat="26.936445" lon="98.866437">
<time>2014-08-05T02:09:52Z</time></trkpt>
<trkpt lat="26.936475" lon="98.866427">
<time>2014-08-05T02:09:53Z</time></trkpt>
<trkpt lat="26.936485" lon="98.866427">
<time>2014-08-05T02:09:54Z</time></trkpt>
<trkpt lat="26.936505" lon="98.866417">
<time>2014-08-05T02:09:55Z</time></trkpt>
<trkpt lat="26.936555" lon="98.866407">
<time>2014-08-05T02:09:56Z</time></trkpt>
<trkpt lat="26.936645" lon="98.866377">
<time>2014-08-05T02:09:57Z</time></trkpt>
<trkpt lat="26.936815" lon="98.866327">
<time>2014-08-05T02:09:58Z</time></trkpt>
<trkpt lat="26.936835" lon="98.866317">
<time>2014-08-05T02:09:59Z</time></trkpt>
<trkpt lat="26.936855" lon="98.866317">
<time>2014-08-05T02:10:00Z</time></trkpt>
<trkpt lat="26.936875" lon="98.866307">
<time>2014-08-05T02:10:01Z</time></trkpt>
<trkpt lat="26.936925" lon="98.866297">
<time>2014-08-05T02:10:02Z</time></trkpt>
<trkpt lat="26.936965" lon="98.866277">
<time>2014-08-05T02:10:03Z</time></trkpt>
<trkpt lat="26.937005" lon="98.866267">
<time>2014-08-05T02:10:04Z</time></trkpt>
<trkpt lat="26.937045" lon="98.866247">
<time>2014-08-05T02:10:05Z</time></trkpt>
<trkpt lat="26.937115" lon="98.866227">
<time>2014-08-05T02:10:06Z</time></trkpt>
<trkpt lat="26.937145" lon="98.866207">
<time>2014-08-05T02:10:07Z</time></trkpt>
<trkpt lat="26.937194" lon="98.866187">
<time>2014-08-05T02:10:08Z</time></trkpt>
<trkpt lat="26.937214" lon="98.866177">
<time>2014-08-05T02:10:09Z</time></trkpt>
<trkpt lat="26.937224" lon="98.866167">
<time>2014-08-05T02:10:10Z</time></trkpt>
<trkpt lat="26.937234" lon="98.866167">
<time>2014-08-05T02:10:11Z</time></trkpt>
<trkpt lat="26.937244" lon="98.866156">
<time>2014-08-05T02:10:12Z</time></trkpt>
<trkpt lat="26.937314" lon="98.866116">
<time>2014-08-05T02:10:13Z</time></trkpt>
<trkpt lat="26.937394" lon="98.866056">
<time>2014-08-05T02:10:14Z</time></trkpt>
<trkpt lat="26.937464" lon="98.866006">
<time>2014-08-05T02:10:15Z</time></trkpt>
<trkpt lat="26.937664" lon="98.865876">
<time>2014-08-05T02:10:16Z</time></trkpt>
<trkpt lat="26.937924" lon="98.865686">
<time>2014-08-05T02:10:17Z</time></trkpt>
<trkpt lat="26.938073" lon="98.865576">
<time>2014-08-05T02:10:18Z</time></trkpt>
<trkpt lat="26.938123" lon="98.865536">
<time>2014-08-05T02:10:19Z</time></trkpt>
<trkpt lat="26.938163" lon="98.865496">
<time>2014-08-05T02:10:20Z</time></trkpt>
<trkpt lat="26.938203" lon="98.865466">
<time>2014-08-05T02:10:21Z</time></trkpt>
<trkpt lat="26.938233" lon="98.865436">
<time>2014-08-05T02:10:22Z</time></trkpt>
<trkpt lat="26.938253" lon="98.865406">
<time>2014-08-05T02:10:23Z</time></trkpt>
<trkpt lat="26.938273" lon="98.865386">
<time>2014-08-05T02:10:24Z</time></trkpt>
<trkpt lat="26.938293" lon="98.865356">
<time>2014-08-05T02:10:25Z</time></trkpt>
<trkpt lat="26.938303" lon="98.865336">
<time>2014-08-05T02:10:26Z</time></trkpt>
<trkpt lat="26.938323" lon="98.865306">
<time>2014-08-05T02:10:27Z</time></trkpt>
<trkpt lat="26.938353" lon="98.865246">
<time>2014-08-05T02:10:28Z</time></trkpt>
<trkpt lat="26.938393" lon="98.865166">
<time>2014-08-05T02:10:29Z</time></trkpt>
<trkpt lat="26.938542" lon="98.864806">
<time>2014-08-05T02:10:30Z</time></trkpt>
<trkpt lat="26.938572" lon="98.864756">
<time>2014-08-05T02:10:31Z</time></trkpt>
<trkpt lat="26.938612" lon="98.864675">
<time>2014-08-05T02:10:32Z</time></trkpt>
<trkpt lat="26.938642" lon="98.864615">
<time>2014-08-05T02:10:33Z</time></trkpt>
<trkpt lat="26.938682" lon="98.864565">
<time>2014-08-05T02:10:34Z</time></trkpt>
<trkpt lat="26.938722" lon="98.864515">
<time>2014-08-05T02:10:35Z</time></trkpt>
<trkpt lat="26.938772" lon="98.864455">
<time>2014-08-05T02:10:36Z</time></trkpt>
<trkpt lat="26.938962" lon="98.864275">
<time>2014-08-05T02:10:37Z</time></trkpt>
<trkpt lat="26.939141" lon="98.864125">
<time>2014-08-05T02:10:38Z</time></trkpt>
<trkpt lat="26.939271" lon="98.864025">
<time>2014-08-05T02:10:39Z</time></trkpt>
<trkpt lat="26.939471" lon="98.863905">
<time>2014-08-05T02:10:40Z</time></trkpt>
<trkpt lat="26.93992" lon="98.863625">
<time>2014-08-05T02:10:41Z</time></trkpt>
<trkpt lat="26.9404" lon="98.863334">
<time>2014-08-05T02:10:42Z</time></trkpt>
<trkpt lat="26.94055" lon="98.863224">
<time>2014-08-05T02:10:43Z</time></trkpt>
<trkpt lat="26.940749" lon="98.863084">
<time>2014-08-05T02:10:44Z</time></trkpt>
<trkpt lat="26.941029" lon="98.862844">
<time>2014-08-05T02:10:45Z</time></trkpt>
<trkpt lat="26.941289" lon="98.862614">
<time>2014-08-05T02:10:46Z</time></trkpt>
<trkpt lat="26.941389" lon="98.862544">
<time>2014-08-05T02:10:47Z</time></trkpt>
<trkpt lat="26.941488" lon="98.862474">
<time>2014-08-05T02:10:48Z</time></trkpt>
<trkpt lat="26.941528" lon="98.862444">
<time>2014-08-05T02:10:49Z</time></trkpt>
<trkpt lat="26.941568" lon="98.862424">
<time>2014-08-05T02:10:50Z</time></trkpt>
<trkpt lat="26.941688" lon="98.862364">
<time>2014-08-05T02:10:51Z</time></trkpt>
<trkpt lat="26.941848" lon="98.862284">
<time>2014-08-05T02:10:52Z</time></trkpt>
<trkpt lat="26.942048" lon="98.862183">
<time>2014-08-05T02:10:53Z</time></trkpt>
<trkpt lat="26.942238" lon="98.862113">
<time>2014-08-05T02:10:54Z</time></trkpt>
<trkpt lat="26.942338" lon="98.862073">
<time>2014-08-05T02:10:55Z</time></trkpt>
<trkpt lat="26.942438" lon="98.862043">
<time>2014-08-05T02:10:56Z</time></trkpt>
<trkpt lat="26.942747" lon="98.861973">
<time>2014-08-05T02:10:57Z</time></trkpt>
<trkpt lat="26.943077" lon="98.861893">
<time>2014-08-05T02:10:58Z</time></trkpt>
<trkpt lat="26.943327" lon="98.861833">
<time>2014-08-05T02:10:59Z</time></trkpt>
<trkpt lat="26.943427" lon="98.861813">
<time>2014-08-05T02:11:00Z</time></trkpt>
<trkpt lat="26.943467" lon="98.861803">
<time>2014-08-05T02:11:01Z</time></trkpt>
<trkpt lat="26.943497" lon="98.861793">
<time>2014-08-05T02:11:02Z</time></trkpt>
<trkpt lat="26.943647" lon="98.861753">
<time>2014-08-05T02:11:03Z</time></trkpt>
<trkpt lat="26.943777" lon="98.861723">
<time>2014-08-05T02:11:04Z</time></trkpt>
<trkpt lat="26.943857" lon="98.861713">
<time>2014-08-05T02:11:05Z</time></trkpt>
<trkpt lat="26.943907" lon="98.861693">
<time>2014-08-05T02:11:06Z</time></trkpt>
<trkpt lat="26.943977" lon="98.861683">
<time>2014-08-05T02:11:07Z</time></trkpt>
<trkpt lat="26.944067" lon="98.861663">
<time>2014-08-05T02:11:08Z</time></trkpt>
<trkpt lat="26.944167" lon="98.861633">
<time>2014-08-05T02:11:09Z</time></trkpt>
<trkpt lat="26.944207" lon="98.861623">
<time>2014-08-05T02:11:10Z</time></trkpt>
<trkpt lat="26.944227" lon="98.861613">
<time>2014-08-05T02:11:11Z</time></trkpt>
<trkpt lat="26.944247" lon="98.861603">
<time>2014-08-05T02:11:12Z</time></trkpt>
<trkpt lat="26.944297" lon="98.861593">
<time>2014-08-05T02:11:13Z</time></trkpt>
<trkpt lat="26.944496" lon="98.861523">
<time>2014-08-05T02:11:14Z</time></trkpt>
<trkpt lat="26.944626" lon="98.861483">
<time>2014-08-05T02:11:15Z</time></trkpt>
<trkpt lat="26.944696" lon="98.861453">
<time>2014-08-05T02:11:16Z</time></trkpt>
<trkpt lat="26.944756" lon="98.861443">
<time>2014-08-05T02:11:17Z</time></trkpt>
<trkpt lat="26.944826" lon="98.861433">
<time>2014-08-05T02:11:18Z</time></trkpt>
<trkpt lat="26.944866" lon="98.861433">
<time>2014-08-05T02:11:19Z</time></trkpt>
<trkpt lat="26.944906" lon="98.861433">
<time>2014-08-05T02:11:20Z</time></trkpt>
<trkpt lat="26.944946" lon="98.861443">
<time>2014-08-05T02:11:21Z</time></trkpt>
<trkpt lat="26.944976" lon="98.861443">
<time>2014-08-05T02:11:22Z</time></trkpt>
<trkpt lat="26.945006" lon="98.861453">
<time>2014-08-05T02:11:23Z</time></trkpt>
<trkpt lat="26.945026" lon="98.861453">
<time>2014-08-05T02:11:24Z</time></trkpt>
<trkpt lat="26.945046" lon="98.861463">
<time>2014-08-05T02:11:25Z</time></trkpt>
<trkpt lat="26.945066" lon="98.861473">
<time>2014-08-05T02:11:26Z</time></trkpt>
<trkpt lat="26.945096" lon="98.861483">
<time>2014-08-05T02:11:27Z</time></trkpt>
<trkpt lat="26.945116" lon="98.861503">
<time>2014-08-05T02:11:28Z</time></trkpt>
<trkpt lat="26.945166" lon="98.861523">
<time>2014-08-05T02:11:29Z</time></trkpt>
<trkpt lat="26.945226" lon="98.861563">
<time>2014-08-05T02:11:30Z</time></trkpt>
<trkpt lat="26.945316" lon="98.861643">
<time>2014-08-05T02:11:31Z</time></trkpt>
<trkpt lat="26.945547" lon="98.861863">
<time>2014-08-05T02:11:32Z</time></trkpt>
<trkpt lat="26.945667" lon="98.861973">
<time>2014-08-05T02:11:33Z</time></trkpt>
<trkpt lat="26.945677" lon="98.861983">
<time>2014-08-05T02:11:34Z</time></trkpt>
<trkpt lat="26.945727" lon="98.862033">
<time>2014-08-05T02:11:35Z</time></trkpt>
<trkpt lat="26.945737" lon="98.862033">
<time>2014-08-05T02:11:36Z</time></trkpt>
<trkpt lat="26.945737" lon="98.862043">
<time>2014-08-05T02:11:37Z</time></trkpt>
<trkpt lat="26.945747" lon="98.862043">
<time>2014-08-05T02:11:38Z</time></trkpt>
<trkpt lat="26.945757" lon="98.862053">
<time>2014-08-05T02:11:39Z</time></trkpt>
<trkpt lat="26.945767" lon="98.862063">
<time>2014-08-05T02:11:40Z</time></trkpt>
<trkpt lat="26.945777" lon="98.862073">
<time>2014-08-05T02:11:41Z</time></trkpt>
<trkpt lat="26.945797" lon="98.862093">
<time>2014-08-05T02:11:42Z</time></trkpt>
<trkpt lat="26.945867" lon="98.862163">
<time>2014-08-05T02:11:43Z</time></trkpt>
<trkpt lat="26.945927" lon="98.862213">
<time>2014-08-05T02:11:44Z</time></trkpt>
<trkpt lat="26.945987" lon="98.862253">
<time>2014-08-05T02:11:45Z</time></trkpt>
<trkpt lat="26.946027" lon="98.862284">
<time>2014-08-05T02:11:46Z</time></trkpt>
<trkpt lat="26.946067" lon="98.862304">
<time>2014-08-05T02:11:47Z</time></trkpt>
<trkpt lat="26.946127" lon="98.862334">
<time>2014-08-05T02:11:48Z</time></trkpt>
<trkpt lat="26.946167" lon="98.862344">
<time>2014-08-05T02:11:49Z</time></trkpt>
<trkpt lat="26.946207" lon="98.862364">
<time>2014-08-05T02:11:50Z</time></trkpt>
<trkpt lat="26.946247" lon="98.862374">
<time>2014-08-05T02:11:51Z</time></trkpt>
<trkpt lat="26.946457" lon="98.862434">
<time>2014-08-05T02:11:52Z</time></trkpt>
<trkpt lat="26.946807" lon="98.862524">
<time>2014-08-05T02:11:53Z</time></trkpt>
<trkpt lat="26.946947" lon="98.862564">
<time>2014-08-05T02:11:54Z</time></trkpt>
<trkpt lat="26.947067" lon="98.862604">
<time>2014-08-05T02:11:55Z</time></trkpt>
<trkpt lat="26.947167" lon="98.862634">
<time>2014-08-05T02:11:56Z</time></trkpt>
<trkpt lat="26.947417" lon="98.862734">
<time>2014-08-05T02:11:57Z</time></trkpt>
<trkpt lat="26.947688" lon="98.862834">
<time>2014-08-05T02:11:58Z</time></trkpt>
<trkpt lat="26.947858" lon="98.862894">
<time>2014-08-05T02:11:59Z</time></trkpt>
<trkpt lat="26.948128" lon="98.863004">
<time>2014-08-05T02:12:00Z</time></trkpt>
<trkpt lat="26.948198" lon="98.863024">
<time>2014-08-05T02:12:01Z</time></trkpt>
<trkpt lat="26.948298" lon="98.863074">
<time>2014-08-05T02:12:02Z</time></trkpt>
<trkpt lat="26.948418" lon="98.863134">
<time>2014-08-05T02:12:03Z</time></trkpt>
<trkpt lat="26.948538" lon="98.863224">
<time>2014-08-05T02:12:04Z</time></trkpt>
<trkpt lat="26.948618" lon="98.863284">
<time>2014-08-05T02:12:05Z</time></trkpt>
<trkpt lat="26.948728" lon="98.863374">
<time>2014-08-05T02:12:06Z</time></trkpt>
<trkpt lat="26.948928" lon="98.863574">
<time>2014-08-05T02:12:07Z</time></trkpt>
<trkpt lat="26.949199" lon="98.863835">
<time>2014-08-05T02:12:08Z</time></trkpt>
<trkpt lat="26.949289" lon="98.863915">
<time>2014-08-05T02:12:09Z</time></trkpt>
<trkpt lat="26.949349" lon="98.863965">
<time>2014-08-05T02:12:10Z</time></trkpt>
<trkpt lat="26.949369" lon="98.863975">
<time>2014-08-05T02:12:11Z</time></trkpt>
<trkpt lat="26.949399" lon="98.863995">
<time>2014-08-05T02:12:12Z</time></trkpt>
<trkpt lat="26.949429" lon="98.864005">
<time>2014-08-05T02:12:13Z</time></trkpt>
<trkpt lat="26.949459" lon="98.864015">
<time>2014-08-05T02:12:14Z</time></trkpt>
<trkpt lat="26.949649" lon="98.864085">
<time>2014-08-05T02:12:15Z</time></trkpt>
<trkpt lat="26.949919" lon="98.864175">
<time>2014-08-05T02:12:16Z</time></trkpt>
<trkpt lat="26.950179" lon="98.864285">
<time>2014-08-05T02:12:17Z</time></trkpt>
<trkpt lat="26.950619" lon="98.864495">
<time>2014-08-05T02:12:18Z</time></trkpt>
<trkpt lat="26.950809" lon="98.864595">
<time>2014-08-05T02:12:19Z</time></trkpt>
<trkpt lat="26.950889" lon="98.864635">
<time>2014-08-05T02:12:20Z</time></trkpt>
<trkpt lat="26.951009" lon="98.864685">
<time>2014-08-05T02:12:21Z</time></trkpt>
<trkpt lat="26.951269" lon="98.864775">
<time>2014-08-05T02:12:22Z</time></trkpt>
<trkpt lat="26.951399" lon="98.864805">
<time>2014-08-05T02:12:23Z</time></trkpt>
<trkpt lat="26.951539" lon="98.864845">
<time>2014-08-05T02:12:24Z</time></trkpt>
<trkpt lat="26.951659" lon="98.864885">
<time>2014-08-05T02:12:25Z</time></trkpt>
<trkpt lat="26.951699" lon="98.864895">
<time>2014-08-05T02:12:26Z</time></trkpt>
<trkpt lat="26.951739" lon="98.864915">
<time>2014-08-05T02:12:27Z</time></trkpt>
<trkpt lat="26.951779" lon="98.864935">
<time>2014-08-05T02:12:28Z</time></trkpt>
<trkpt lat="26.95193" lon="98.865015">
<time>2014-08-05T02:12:29Z</time></trkpt>
<trkpt lat="26.95225" lon="98.865206">
<time>2014-08-05T02:12:30Z</time></trkpt>
<trkpt lat="26.95257" lon="98.865406">
<time>2014-08-05T02:12:31Z</time></trkpt>
<trkpt lat="26.95289" lon="98.865596">
<time>2014-08-05T02:12:32Z</time></trkpt>
<trkpt lat="26.95335" lon="98.865876">
<time>2014-08-05T02:12:33Z</time></trkpt>
<trkpt lat="26.95358" lon="98.866016">
<time>2014-08-05T02:12:34Z</time></trkpt>
<trkpt lat="26.953721" lon="98.866116">
<time>2014-08-05T02:12:35Z</time></trkpt>
<trkpt lat="26.953861" lon="98.866226">
<time>2014-08-05T02:12:36Z</time></trkpt>
<trkpt lat="26.954041" lon="98.866366">
<time>2014-08-05T02:12:37Z</time></trkpt>
<trkpt lat="26.954091" lon="98.866406">
<time>2014-08-05T02:12:38Z</time></trkpt>
<trkpt lat="26.954131" lon="98.866426">
<time>2014-08-05T02:12:39Z</time></trkpt>
<trkpt lat="26.954171" lon="98.866446">
<time>2014-08-05T02:12:40Z</time></trkpt>
<trkpt lat="26.954241" lon="98.866486">
<time>2014-08-05T02:12:41Z</time></trkpt>
<trkpt lat="26.954361" lon="98.866536">
<time>2014-08-05T02:12:42Z</time></trkpt>
<trkpt lat="26.954561" lon="98.866596">
<time>2014-08-05T02:12:43Z</time></trkpt>
<trkpt lat="26.954781" lon="98.866677">
<time>2014-08-05T02:12:44Z</time></trkpt>
<trkpt lat="26.955001" lon="98.866777">
<time>2014-08-05T02:12:45Z</time></trkpt>
<trkpt lat="26.955421" lon="98.866967">
<time>2014-08-05T02:12:46Z</time></trkpt>
<trkpt lat="26.955491" lon="98.866997">
<time>2014-08-05T02:12:47Z</time></trkpt>
<trkpt lat="26.955531" lon="98.867017">
<time>2014-08-05T02:12:48Z</time></trkpt>
<trkpt lat="26.955581" lon="98.867037">
<time>2014-08-05T02:12:49Z</time></trkpt>
<trkpt lat="26.955621" lon="98.867067">
<time>2014-08-05T02:12:50Z</time></trkpt>
<trkpt lat="26.955641" lon="98.867087">
<time>2014-08-05T02:12:51Z</time></trkpt>
<trkpt lat="26.955671" lon="98.867117">
<time>2014-08-05T02:12:52Z</time></trkpt>
<trkpt lat="26.955732" lon="98.867197">
<time>2014-08-05T02:12:53Z</time></trkpt>
<trkpt lat="26.955962" lon="98.867487">
<time>2014-08-05T02:12:54Z</time></trkpt>
<trkpt lat="26.956022" lon="98.867547">
<time>2014-08-05T02:12:55Z</time></trkpt>
<trkpt lat="26.956092" lon="98.867617">
<time>2014-08-05T02:12:56Z</time></trkpt>
<trkpt lat="26.956142" lon="98.867657">
<time>2014-08-05T02:12:57Z</time></trkpt>
<trkpt lat="26.956192" lon="98.867687">
<time>2014-08-05T02:12:58Z</time></trkpt>
<trkpt lat="26.956282" lon="98.867737">
<time>2014-08-05T02:12:59Z</time></trkpt>
<trkpt lat="26.956422" lon="98.867807">
<time>2014-08-05T02:13:00Z</time></trkpt>
<trkpt lat="26.956462" lon="98.867837">
<time>2014-08-05T02:13:01Z</time></trkpt>
<trkpt lat="26.956502" lon="98.867857">
<time>2014-08-05T02:13:02Z</time></trkpt>
<trkpt lat="26.956532" lon="98.867877">
<time>2014-08-05T02:13:03Z</time></trkpt>
<trkpt lat="26.956562" lon="98.867907">
<time>2014-08-05T02:13:04Z</time></trkpt>
<trkpt lat="26.956602" lon="98.867957">
<time>2014-08-05T02:13:05Z</time></trkpt>
<trkpt lat="26.956652" lon="98.868007">
<time>2014-08-05T02:13:06Z</time></trkpt>
<trkpt lat="26.956813" lon="98.868227">
<time>2014-08-05T02:13:07Z</time></trkpt>
<trkpt lat="26.956953" lon="98.868408">
<time>2014-08-05T02:13:08Z</time></trkpt>
<trkpt lat="26.957043" lon="98.868538">
<time>2014-08-05T02:13:09Z</time></trkpt>
<trkpt lat="26.957123" lon="98.868658">
<time>2014-08-05T02:13:10Z</time></trkpt>
<trkpt lat="26.957313" lon="98.868948">
<time>2014-08-05T02:13:11Z</time></trkpt>
<trkpt lat="26.957444" lon="98.869148">
<time>2014-08-05T02:13:12Z</time></trkpt>
<trkpt lat="26.957524" lon="98.869238">
<time>2014-08-05T02:13:13Z</time></trkpt>
<trkpt lat="26.957564" lon="98.869278">
<time>2014-08-05T02:13:14Z</time></trkpt>
<trkpt lat="26.957624" lon="98.869328">
<time>2014-08-05T02:13:15Z</time></trkpt>
<trkpt lat="26.957764" lon="98.869448">
<time>2014-08-05T02:13:16Z</time></trkpt>
<trkpt lat="26.957824" lon="98.869498">
<time>2014-08-05T02:13:17Z</time></trkpt>
<trkpt lat="26.957954" lon="98.869628">
<time>2014-08-05T02:13:18Z</time></trkpt>
<trkpt lat="26.958064" lon="98.869728">
<time>2014-08-05T02:13:19Z</time></trkpt>
<trkpt lat="26.958114" lon="98.869768">
<time>2014-08-05T02:13:20Z</time></trkpt>
<trkpt lat="26.958134" lon="98.869778">
<time>2014-08-05T02:13:21Z</time></trkpt>
<trkpt lat="26.958154" lon="98.869798">
<time>2014-08-05T02:13:22Z</time></trkpt>
<trkpt lat="26.958184" lon="98.869818">
<time>2014-08-05T02:13:23Z</time></trkpt>
<trkpt lat="26.958214" lon="98.869838">
<time>2014-08-05T02:13:24Z</time></trkpt>
<trkpt lat="26.958234" lon="98.869848">
<time>2014-08-05T02:13:25Z</time></trkpt>
<trkpt lat="26.958244" lon="98.869858">
<time>2014-08-05T02:13:26Z</time></trkpt>
<trkpt lat="26.958264" lon="98.869868">
<time>2014-08-05T02:13:27Z</time></trkpt>
<trkpt lat="26.958284" lon="98.869878">
<time>2014-08-05T02:13:28Z</time></trkpt>
<trkpt lat="26.958314" lon="98.869888">
<time>2014-08-05T02:13:29Z</time></trkpt>
<trkpt lat="26.958354" lon="98.869898">
<time>2014-08-05T02:13:30Z</time></trkpt>
<trkpt lat="26.958394" lon="98.869908">
<time>2014-08-05T02:13:31Z</time></trkpt>
<trkpt lat="26.958434" lon="98.869918">
<time>2014-08-05T02:13:32Z</time></trkpt>
<trkpt lat="26.958464" lon="98.869928">
<time>2014-08-05T02:13:33Z</time></trkpt>
<trkpt lat="26.958544" lon="98.869928">
<time>2014-08-05T02:13:34Z</time></trkpt>
<trkpt lat="26.958584" lon="98.869928">
<time>2014-08-05T02:13:35Z</time></trkpt>
<trkpt lat="26.958634" lon="98.869928">
<time>2014-08-05T02:13:36Z</time></trkpt>
<trkpt lat="26.958674" lon="98.869918">
<time>2014-08-05T02:13:37Z</time></trkpt>
<trkpt lat="26.958724" lon="98.869908">
<time>2014-08-05T02:13:38Z</time></trkpt>
<trkpt lat="26.958874" lon="98.869888">
<time>2014-08-05T02:13:39Z</time></trkpt>
<trkpt lat="26.958944" lon="98.869868">
<time>2014-08-05T02:13:40Z</time></trkpt>
<trkpt lat="26.958984" lon="98.869858">
<time>2014-08-05T02:13:41Z</time></trkpt>
<trkpt lat="26.959014" lon="98.869848">
<time>2014-08-05T02:13:42Z</time></trkpt>
<trkpt lat="26.959044" lon="98.869838">
<time>2014-08-05T02:13:43Z</time></trkpt>
<trkpt lat="26.959074" lon="98.869828">
<time>2014-08-05T02:13:44Z</time></trkpt>
<trkpt lat="26.959104" lon="98.869808">
<time>2014-08-05T02:13:45Z</time></trkpt>
<trkpt lat="26.959124" lon="98.869788">
<time>2014-08-05T02:13:46Z</time></trkpt>
<trkpt lat="26.959154" lon="98.869768">
<time>2014-08-05T02:13:47Z</time></trkpt>
<trkpt lat="26.959184" lon="98.869738">
<time>2014-08-05T02:13:48Z</time></trkpt>
<trkpt lat="26.959204" lon="98.869718">
<time>2014-08-05T02:13:49Z</time></trkpt>
<trkpt lat="26.959334" lon="98.869558">
<time>2014-08-05T02:13:50Z</time></trkpt>
<trkpt lat="26.959384" lon="98.869508">
<time>2014-08-05T02:13:51Z</time></trkpt>
<trkpt lat="26.959424" lon="98.869468">
<time>2014-08-05T02:13:52Z</time></trkpt>
<trkpt lat="26.959463" lon="98.869428">
<time>2014-08-05T02:13:53Z</time></trkpt>
<trkpt lat="26.959513" lon="98.869388">
<time>2014-08-05T02:13:54Z</time></trkpt>
<trkpt lat="26.959573" lon="98.869338">
<time>2014-08-05T02:13:55Z</time></trkpt>
<trkpt lat="26.959623" lon="98.869308">
<time>2014-08-05T02:13:56Z</time></trkpt>
<trkpt lat="26.959673" lon="98.869278">
<time>2014-08-05T02:13:57Z</time></trkpt>
<trkpt lat="26.959743" lon="98.869248">
<time>2014-08-05T02:13:58Z</time></trkpt>
<trkpt lat="26.959823" lon="98.869218">
<time>2014-08-05T02:13:59Z</time></trkpt>
<trkpt lat="26.959883" lon="98.869188">
<time>2014-08-05T02:14:00Z</time></trkpt>
<trkpt lat="26.960213" lon="98.869078">
<time>2014-08-05T02:14:01Z</time></trkpt>
<trkpt lat="26.960293" lon="98.869048">
<time>2014-08-05T02:14:02Z</time></trkpt>
<trkpt lat="26.960313" lon="98.869038">
<time>2014-08-05T02:14:03Z</time></trkpt>
<trkpt lat="26.960333" lon="98.869028">
<time>2014-08-05T02:14:04Z</time></trkpt>
<trkpt lat="26.960353" lon="98.869018">
<time>2014-08-05T02:14:05Z</time></trkpt>
<trkpt lat="26.960383" lon="98.868998">
<time>2014-08-05T02:14:06Z</time></trkpt>
<trkpt lat="26.960393" lon="98.868988">
<time>2014-08-05T02:14:07Z</time></trkpt>
<trkpt lat="26.960423" lon="98.868968">
<time>2014-08-05T02:14:08Z</time></trkpt>
<trkpt lat="26.960483" lon="98.868918">
<time>2014-08-05T02:14:09Z</time></trkpt>
<trkpt lat="26.960682" lon="98.868718">
<time>2014-08-05T02:14:10Z</time></trkpt>
<trkpt lat="26.960842" lon="98.868548">
<time>2014-08-05T02:14:11Z</time></trkpt>
<trkpt lat="26.960932" lon="98.868468">
<time>2014-08-05T02:14:12Z</time></trkpt>
<trkpt lat="26.961072" lon="98.868357">
<time>2014-08-05T02:14:13Z</time></trkpt>
<trkpt lat="26.961212" lon="98.868247">
<time>2014-08-05T02:14:14Z</time></trkpt>
<trkpt lat="26.961301" lon="98.868167">
<time>2014-08-05T02:14:15Z</time></trkpt>
<trkpt lat="26.961411" lon="98.868047">
<time>2014-08-05T02:14:16Z</time></trkpt>
<trkpt lat="26.961571" lon="98.867867">
<time>2014-08-05T02:14:17Z</time></trkpt>
<trkpt lat="26.961661" lon="98.867757">
<time>2014-08-05T02:14:18Z</time></trkpt>
<trkpt lat="26.961731" lon="98.867687">
<time>2014-08-05T02:14:19Z</time></trkpt>
<trkpt lat="26.96191" lon="98.867477">
<time>2014-08-05T02:14:20Z</time></trkpt>
<trkpt lat="26.96201" lon="98.867377">
<time>2014-08-05T02:14:21Z</time></trkpt>
<trkpt lat="26.96214" lon="98.867267">
<time>2014-08-05T02:14:22Z</time></trkpt>
<trkpt lat="26.96232" lon="98.867117">
<time>2014-08-05T02:14:23Z</time></trkpt>
<trkpt lat="26.96239" lon="98.867057">
<time>2014-08-05T02:14:24Z</time></trkpt>
<trkpt lat="26.96245" lon="98.867017">
<time>2014-08-05T02:14:25Z</time></trkpt>
<trkpt lat="26.9625" lon="98.866967">
<time>2014-08-05T02:14:26Z</time></trkpt>
<trkpt lat="26.96253" lon="98.866927">
<time>2014-08-05T02:14:27Z</time></trkpt>
<trkpt lat="26.96257" lon="98.866887">
<time>2014-08-05T02:14:28Z</time></trkpt>
<trkpt lat="26.962619" lon="98.866806">
<time>2014-08-05T02:14:29Z</time></trkpt>
<trkpt lat="26.962699" lon="98.866686">
<time>2014-08-05T02:14:30Z</time></trkpt>
<trkpt lat="26.962829" lon="98.866486">
<time>2014-08-05T02:14:31Z</time></trkpt>
<trkpt lat="26.962899" lon="98.866386">
<time>2014-08-05T02:14:32Z</time></trkpt>
<trkpt lat="26.962969" lon="98.866306">
<time>2014-08-05T02:14:33Z</time></trkpt>
<trkpt lat="26.963108" lon="98.866166">
<time>2014-08-05T02:14:34Z</time></trkpt>
<trkpt lat="26.963258" lon="98.866016">
<time>2014-08-05T02:14:35Z</time></trkpt>
<trkpt lat="26.963408" lon="98.865866">
<time>2014-08-05T02:14:36Z</time></trkpt>
<trkpt lat="26.963877" lon="98.865406">
<time>2014-08-05T02:14:37Z</time></trkpt>
<trkpt lat="26.964017" lon="98.865285">
<time>2014-08-05T02:14:38Z</time></trkpt>
<trkpt lat="26.964117" lon="98.865205">
<time>2014-08-05T02:14:39Z</time></trkpt>
<trkpt lat="26.964187" lon="98.865155">
<time>2014-08-05T02:14:40Z</time></trkpt>
<trkpt lat="26.964277" lon="98.865095">
<time>2014-08-05T02:14:41Z</time></trkpt>
<trkpt lat="26.964377" lon="98.865035">
<time>2014-08-05T02:14:42Z</time></trkpt>
<trkpt lat="26.964467" lon="98.864985">
<time>2014-08-05T02:14:43Z</time></trkpt>
<trkpt lat="26.964586" lon="98.864935">
<time>2014-08-05T02:14:44Z</time></trkpt>
<trkpt lat="26.964696" lon="98.864895">
<time>2014-08-05T02:14:45Z</time></trkpt>
<trkpt lat="26.965206" lon="98.864715">
<time>2014-08-05T02:14:46Z</time></trkpt>
<trkpt lat="26.965716" lon="98.864535">
<time>2014-08-05T02:14:47Z</time></trkpt>
<trkpt lat="26.965985" lon="98.864455">
<time>2014-08-05T02:14:48Z</time></trkpt>
<trkpt lat="26.966235" lon="98.864375">
<time>2014-08-05T02:14:49Z</time></trkpt>
<trkpt lat="26.966575" lon="98.864275">
<time>2014-08-05T02:14:50Z</time></trkpt>
<trkpt lat="26.966835" lon="98.864205">
<time>2014-08-05T02:14:51Z</time></trkpt>
<trkpt lat="26.967115" lon="98.864125">
<time>2014-08-05T02:14:52Z</time></trkpt>
<trkpt lat="26.967245" lon="98.864085">
<time>2014-08-05T02:14:53Z</time></trkpt>
<trkpt lat="26.967325" lon="98.864054">
<time>2014-08-05T02:14:54Z</time></trkpt>
<trkpt lat="26.967544" lon="98.863974">
<time>2014-08-05T02:14:55Z</time></trkpt>
<trkpt lat="26.967694" lon="98.863914">
<time>2014-08-05T02:14:56Z</time></trkpt>
<trkpt lat="26.967844" lon="98.863854">
<time>2014-08-05T02:14:57Z</time></trkpt>
<trkpt lat="26.967974" lon="98.863814">
<time>2014-08-05T02:14:58Z</time></trkpt>
<trkpt lat="26.968184" lon="98.863774">
<time>2014-08-05T02:14:59Z</time></trkpt>
<trkpt lat="26.968494" lon="98.863704">
<time>2014-08-05T02:15:00Z</time></trkpt>
<trkpt lat="26.968604" lon="98.863684">
<time>2014-08-05T02:15:01Z</time></trkpt>
<trkpt lat="26.968724" lon="98.863674">
<time>2014-08-05T02:15:02Z</time></trkpt>
<trkpt lat="26.968874" lon="98.863654">
<time>2014-08-05T02:15:03Z</time></trkpt>
<trkpt lat="26.969783" lon="98.863544">
<time>2014-08-05T02:15:04Z</time></trkpt>
<trkpt lat="26.970143" lon="98.863514">
<time>2014-08-05T02:15:05Z</time></trkpt>
<trkpt lat="26.970423" lon="98.863464">
<time>2014-08-05T02:15:06Z</time></trkpt>
<trkpt lat="26.970783" lon="98.863384">
<time>2014-08-05T02:15:07Z</time></trkpt>
<trkpt lat="26.970833" lon="98.863384">
<time>2014-08-05T02:15:08Z</time></trkpt>
<trkpt lat="26.970963" lon="98.863364">
<time>2014-08-05T02:15:09Z</time></trkpt>
<trkpt lat="26.971073" lon="98.863354">
<time>2014-08-05T02:15:10Z</time></trkpt>
<trkpt lat="26.971143" lon="98.863344">
<time>2014-08-05T02:15:11Z</time></trkpt>
<trkpt lat="26.971253" lon="98.863354">
<time>2014-08-05T02:15:12Z</time></trkpt>
<trkpt lat="26.971383" lon="98.863354">
<time>2014-08-05T02:15:13Z</time></trkpt>
<trkpt lat="26.971513" lon="98.863354">
<time>2014-08-05T02:15:14Z</time></trkpt>
<trkpt lat="26.971703" lon="98.863364">
<time>2014-08-05T02:15:15Z</time></trkpt>
<trkpt lat="26.971803" lon="98.863364">
<time>2014-08-05T02:15:16Z</time></trkpt>
<trkpt lat="26.971903" lon="98.863364">
<time>2014-08-05T02:15:17Z</time></trkpt>
<trkpt lat="26.972722" lon="98.863374">
<time>2014-08-05T02:15:18Z</time></trkpt>
<trkpt lat="26.973462" lon="98.863394">
<time>2014-08-05T02:15:19Z</time></trkpt>
<trkpt lat="26.973842" lon="98.863414">
<time>2014-08-05T02:15:20Z</time></trkpt>
<trkpt lat="26.974042" lon="98.863424">
<time>2014-08-05T02:15:21Z</time></trkpt>
<trkpt lat="26.974152" lon="98.863424">
<time>2014-08-05T02:15:22Z</time></trkpt>
<trkpt lat="26.974282" lon="98.863414">
<time>2014-08-05T02:15:23Z</time></trkpt>
<trkpt lat="26.974462" lon="98.863384">
<time>2014-08-05T02:15:24Z</time></trkpt>
<trkpt lat="26.974562" lon="98.863374">
<time>2014-08-05T02:15:25Z</time></trkpt>
<trkpt lat="26.974612" lon="98.863374">
<time>2014-08-05T02:15:26Z</time></trkpt>
<trkpt lat="26.974672" lon="98.863374">
<time>2014-08-05T02:15:27Z</time></trkpt>
<trkpt lat="26.974732" lon="98.863384">
<time>2014-08-05T02:15:28Z</time></trkpt>
<trkpt lat="26.974792" lon="98.863394">
<time>2014-08-05T02:15:29Z</time></trkpt>
<trkpt lat="26.975052" lon="98.863454">
<time>2014-08-05T02:15:30Z</time></trkpt>
<trkpt lat="26.975382" lon="98.863544">
<time>2014-08-05T02:15:31Z</time></trkpt>
<trkpt lat="26.975862" lon="98.863684">
<time>2014-08-05T02:15:32Z</time></trkpt>
<trkpt lat="26.976092" lon="98.863744">
<time>2014-08-05T02:15:33Z</time></trkpt>
<trkpt lat="26.976242" lon="98.863784">
<time>2014-08-05T02:15:34Z</time></trkpt>
<trkpt lat="26.976282" lon="98.863794">
<time>2014-08-05T02:15:35Z</time></trkpt>
<trkpt lat="26.976332" lon="98.863814">
<time>2014-08-05T02:15:36Z</time></trkpt>
<trkpt lat="26.976412" lon="98.863834">
<time>2014-08-05T02:15:37Z</time></trkpt>
<trkpt lat="26.976622" lon="98.863934">
<time>2014-08-05T02:15:38Z</time></trkpt>
<trkpt lat="26.976962" lon="98.864084">
<time>2014-08-05T02:15:39Z</time></trkpt>
<trkpt lat="26.977252" lon="98.864214">
<time>2014-08-05T02:15:40Z</time></trkpt>
<trkpt lat="26.977352" lon="98.864254">
<time>2014-08-05T02:15:41Z</time></trkpt>
<trkpt lat="26.977472" lon="98.864294">
<time>2014-08-05T02:15:42Z</time></trkpt>
<trkpt lat="26.977572" lon="98.864325">
<time>2014-08-05T02:15:43Z</time></trkpt>
<trkpt lat="26.977642" lon="98.864335">
<time>2014-08-05T02:15:44Z</time></trkpt>
<trkpt lat="26.977832" lon="98.864375">
<time>2014-08-05T02:15:45Z</time></trkpt>
<trkpt lat="26.978082" lon="98.864425">
<time>2014-08-05T02:15:46Z</time></trkpt>
<trkpt lat="26.978332" lon="98.864485">
<time>2014-08-05T02:15:47Z</time></trkpt>
<trkpt lat="26.978403" lon="98.864515">
<time>2014-08-05T02:15:48Z</time></trkpt>
<trkpt lat="26.978433" lon="98.864515">
<time>2014-08-05T02:15:49Z</time></trkpt>
<trkpt lat="26.978453" lon="98.864525">
<time>2014-08-05T02:15:50Z</time></trkpt>
<trkpt lat="26.978463" lon="98.864535">
<time>2014-08-05T02:15:51Z</time></trkpt>
<trkpt lat="26.978543" lon="98.864555">
<time>2014-08-05T02:15:52Z</time></trkpt>
<trkpt lat="26.978703" lon="98.864615">
<time>2014-08-05T02:15:53Z</time></trkpt>
<trkpt lat="26.978793" lon="98.864645">
<time>2014-08-05T02:15:54Z</time></trkpt>
<trkpt lat="26.978893" lon="98.864665">
<time>2014-08-05T02:15:55Z</time></trkpt>
<trkpt lat="26.978973" lon="98.864685">
<time>2014-08-05T02:15:56Z</time></trkpt>
<trkpt lat="26.979043" lon="98.864705">
<time>2014-08-05T02:15:57Z</time></trkpt>
<trkpt lat="26.979173" lon="98.864725">
<time>2014-08-05T02:15:58Z</time></trkpt>
<trkpt lat="26.979183" lon="98.864725">
<time>2014-08-05T02:15:59Z</time></trkpt>
<trkpt lat="26.979193" lon="98.864725">
<time>2014-08-05T02:16:00Z</time></trkpt>
<trkpt lat="26.979263" lon="98.864745">
<time>2014-08-05T02:16:01Z</time></trkpt>
<trkpt lat="26.979373" lon="98.864765">
<time>2014-08-05T02:16:02Z</time></trkpt>
<trkpt lat="26.979453" lon="98.864785">
<time>2014-08-05T02:16:03Z</time></trkpt>
<trkpt lat="26.979523" lon="98.864805">
<time>2014-08-05T02:16:04Z</time></trkpt>
<trkpt lat="26.979583" lon="98.864825">
<time>2014-08-05T02:16:05Z</time></trkpt>
<trkpt lat="26.979643" lon="98.864845">
<time>2014-08-05T02:16:06Z</time></trkpt>
<trkpt lat="26.979653" lon="98.864855">
<time>2014-08-05T02:16:07Z</time></trkpt>
<trkpt lat="26.979663" lon="98.864855">
<time>2014-08-05T02:16:08Z</time></trkpt>
<trkpt lat="26.979683" lon="98.864865">
<time>2014-08-05T02:16:09Z</time></trkpt>
<trkpt lat="26.979763" lon="98.864895">
<time>2014-08-05T02:16:10Z</time></trkpt>
<trkpt lat="26.979823" lon="98.864915">
<time>2014-08-05T02:16:11Z</time></trkpt>
<trkpt lat="26.979853" lon="98.864925">
<time>2014-08-05T02:16:12Z</time></trkpt>
<trkpt lat="26.979933" lon="98.864955">
<time>2014-08-05T02:16:13Z</time></trkpt>
<trkpt lat="26.979953" lon="98.864955">
<time>2014-08-05T02:16:14Z</time></trkpt>
<trkpt lat="26.979993" lon="98.864975">
<time>2014-08-05T02:16:15Z</time></trkpt>
<trkpt lat="26.980263" lon="98.865075">
<time>2014-08-05T02:16:16Z</time></trkpt>
<trkpt lat="26.980483" lon="98.865145">
<time>2014-08-05T02:16:17Z</time></trkpt>
<trkpt lat="26.980523" lon="98.865165">
<time>2014-08-05T02:16:18Z</time></trkpt>
<trkpt lat="26.980603" lon="98.865185">
<time>2014-08-05T02:16:19Z</time></trkpt>
<trkpt lat="26.980633" lon="98.865195">
<time>2014-08-05T02:16:20Z</time></trkpt>
<trkpt lat="26.980713" lon="98.865215">
<time>2014-08-05T02:16:21Z</time></trkpt>
<trkpt lat="26.980793" lon="98.865225">
<time>2014-08-05T02:16:22Z</time></trkpt>
<trkpt lat="26.980913" lon="98.865235">
<time>2014-08-05T02:16:23Z</time></trkpt>
<trkpt lat="26.981243" lon="98.865235">
<time>2014-08-05T02:16:24Z</time></trkpt>
<trkpt lat="26.981323" lon="98.865245">
<time>2014-08-05T02:16:25Z</time></trkpt>
<trkpt lat="26.981353" lon="98.865255">
<time>2014-08-05T02:16:26Z</time></trkpt>
<trkpt lat="26.981383" lon="98.865255">
<time>2014-08-05T02:16:27Z</time></trkpt>
<trkpt lat="26.981443" lon="98.865275">
<time>2014-08-05T02:16:28Z</time></trkpt>
<trkpt lat="26.981453" lon="98.865275">
<time>2014-08-05T02:16:29Z</time></trkpt>
<trkpt lat="26.981473" lon="98.865275">
<time>2014-08-05T02:16:30Z</time></trkpt>
<trkpt lat="26.981483" lon="98.865285">
<time>2014-08-05T02:16:31Z</time></trkpt>
<trkpt lat="26.981493" lon="98.865285">
<time>2014-08-05T02:16:32Z</time></trkpt>
<trkpt lat="26.981503" lon="98.865285">
<time>2014-08-05T02:16:33Z</time></trkpt>
<trkpt lat="26.981613" lon="98.865325">
<time>2014-08-05T02:16:34Z</time></trkpt>
<trkpt lat="26.981803" lon="98.865385">
<time>2014-08-05T02:16:35Z</time></trkpt>
<trkpt lat="26.981873" lon="98.865405">
<time>2014-08-05T02:16:36Z</time></trkpt>
<trkpt lat="26.981943" lon="98.865425">
<time>2014-08-05T02:16:37Z</time></trkpt>
<trkpt lat="26.982023" lon="98.865435">
<time>2014-08-05T02:16:38Z</time></trkpt>
<trkpt lat="26.982153" lon="98.865455">
<time>2014-08-05T02:16:39Z</time></trkpt>
<trkpt lat="26.982333" lon="98.865465">
<time>2014-08-05T02:16:40Z</time></trkpt>
<trkpt lat="26.982543" lon="98.865485">
<time>2014-08-05T02:16:41Z</time></trkpt>
<trkpt lat="26.982743" lon="98.865515">
<time>2014-08-05T02:16:42Z</time></trkpt>
<trkpt lat="26.983033" lon="98.865575">
<time>2014-08-05T02:16:43Z</time></trkpt>
<trkpt lat="26.983313" lon="98.865615">
<time>2014-08-05T02:16:44Z</time></trkpt>
<trkpt lat="26.983433" lon="98.865635">
<time>2014-08-05T02:16:45Z</time></trkpt>
<trkpt lat="26.983583" lon="98.865665">
<time>2014-08-05T02:16:46Z</time></trkpt>
<trkpt lat="26.983663" lon="98.865665">
<time>2014-08-05T02:16:47Z</time></trkpt>
<trkpt lat="26.983703" lon="98.865675">
<time>2014-08-05T02:16:48Z</time></trkpt>
<trkpt lat="26.983743" lon="98.865675">
<time>2014-08-05T02:16:49Z</time></trkpt>
<trkpt lat="26.983773" lon="98.865675">
<time>2014-08-05T02:16:50Z</time></trkpt>
<trkpt lat="26.983803" lon="98.865675">
<time>2014-08-05T02:16:51Z</time></trkpt>
<trkpt lat="26.983863" lon="98.865675">
<time>2014-08-05T02:16:52Z</time></trkpt>
<trkpt lat="26.983933" lon="98.865675">
<time>2014-08-05T02:16:53Z</time></trkpt>
<trkpt lat="26.984043" lon="98.865675">
<time>2014-08-05T02:16:54Z</time></trkpt>
<trkpt lat="26.984103" lon="98.865675">
<time>2014-08-05T02:16:55Z</time></trkpt>
<trkpt lat="26.984193" lon="98.865675">
<time>2014-08-05T02:16:56Z</time></trkpt>
<trkpt lat="26.984203" lon="98.865675">
<time>2014-08-05T02:16:57Z</time></trkpt>
<trkpt lat="26.984253" lon="98.865675">
<time>2014-08-05T02:16:58Z</time></trkpt>
<trkpt lat="26.984263" lon="98.865675">
<time>2014-08-05T02:16:59Z</time></trkpt>
<trkpt lat="26.984303" lon="98.865675">
<time>2014-08-05T02:17:00Z</time></trkpt>
<trkpt lat="26.984453" lon="98.865675">
<time>2014-08-05T02:17:01Z</time></trkpt>
<trkpt lat="26.984553" lon="98.865675">
<time>2014-08-05T02:17:02Z</time></trkpt>
<trkpt lat="26.984762" lon="98.865665">
<time>2014-08-05T02:17:03Z</time></trkpt>
<trkpt lat="26.984842" lon="98.865665">
<time>2014-08-05T02:17:04Z</time></trkpt>
<trkpt lat="26.984922" lon="98.865675">
<time>2014-08-05T02:17:05Z</time></trkpt>
<trkpt lat="26.984992" lon="98.865675">
<time>2014-08-05T02:17:06Z</time></trkpt>
<trkpt lat="26.985052" lon="98.865685">
<time>2014-08-05T02:17:07Z</time></trkpt>
<trkpt lat="26.985112" lon="98.865695">
<time>2014-08-05T02:17:08Z</time></trkpt>
<trkpt lat="26.985162" lon="98.865695">
<time>2014-08-05T02:17:09Z</time></trkpt>
<trkpt lat="26.985222" lon="98.865705">
<time>2014-08-05T02:17:10Z</time></trkpt>
<trkpt lat="26.985352" lon="98.865735">
<time>2014-08-05T02:17:11Z</time></trkpt>
<trkpt lat="26.985422" lon="98.865745">
<time>2014-08-05T02:17:12Z</time></trkpt>
<trkpt lat="26.985432" lon="98.865745">
<time>2014-08-05T02:17:13Z</time></trkpt>
<trkpt lat="26.985442" lon="98.865745">
<time>2014-08-05T02:17:14Z</time></trkpt>
<trkpt lat="26.985452" lon="98.865745">
<time>2014-08-05T02:17:15Z</time></trkpt>
<trkpt lat="26.985462" lon="98.865755">
<time>2014-08-05T02:17:16Z</time></trkpt>
<trkpt lat="26.985472" lon="98.865755">
<time>2014-08-05T02:17:17Z</time></trkpt>
<trkpt lat="26.985482" lon="98.865755">
<time>2014-08-05T02:17:18Z</time></trkpt>
<trkpt lat="26.985512" lon="98.865755">
<time>2014-08-05T02:17:19Z</time></trkpt>
<trkpt lat="26.985532" lon="98.865755">
<time>2014-08-05T02:17:20Z</time></trkpt>
<trkpt lat="26.985572" lon="98.865755">
<time>2014-08-05T02:17:21Z</time></trkpt>
<trkpt lat="26.985612" lon="98.865755">
<time>2014-08-05T02:17:22Z</time></trkpt>
<trkpt lat="26.985642" lon="98.865755">
<time>2014-08-05T02:17:23Z</time></trkpt>
<trkpt lat="26.985672" lon="98.865755">
<time>2014-08-05T02:17:24Z</time></trkpt>
<trkpt lat="26.985692" lon="98.865755">
<time>2014-08-05T02:17:25Z</time></trkpt>
<trkpt lat="26.985712" lon="98.865745">
<time>2014-08-05T02:17:26Z</time></trkpt>
<trkpt lat="26.985752" lon="98.865735">
<time>2014-08-05T02:17:27Z</time></trkpt>
<trkpt lat="26.985802" lon="98.865725">
<time>2014-08-05T02:17:28Z</time></trkpt>
<trkpt lat="26.985952" lon="98.865695">
<time>2014-08-05T02:17:29Z</time></trkpt>
<trkpt lat="26.986032" lon="98.865675">
<time>2014-08-05T02:17:30Z</time></trkpt>
<trkpt lat="26.986092" lon="98.865665">
<time>2014-08-05T02:17:31Z</time></trkpt>
<trkpt lat="26.986142" lon="98.865665">
<time>2014-08-05T02:17:32Z</time></trkpt>
<trkpt lat="26.986192" lon="98.865665">
<time>2014-08-05T02:17:33Z</time></trkpt>
<trkpt lat="26.986232" lon="98.865665">
<time>2014-08-05T02:17:34Z</time></trkpt>
<trkpt lat="26.986272" lon="98.865665">
<time>2014-08-05T02:17:35Z</time></trkpt>
<trkpt lat="26.986302" lon="98.865675">
<time>2014-08-05T02:17:36Z</time></trkpt>
<trkpt lat="26.986332" lon="98.865675">
<time>2014-08-05T02:17:37Z</time></trkpt>
<trkpt lat="26.986362" lon="98.865685">
<time>2014-08-05T02:17:38Z</time></trkpt>
<trkpt lat="26.986402" lon="98.865695">
<time>2014-08-05T02:17:39Z</time></trkpt>
<trkpt lat="26.986492" lon="98.865735">
<time>2014-08-05T02:17:40Z</time></trkpt>
<trkpt lat="26.986552" lon="98.865765">
<time>2014-08-05T02:17:41Z</time></trkpt>
<trkpt lat="26.986662" lon="98.865825">
<time>2014-08-05T02:17:42Z</time></trkpt>
<trkpt lat="26.987082" lon="98.866086">
<time>2014-08-05T02:17:43Z</time></trkpt>
<trkpt lat="26.987383" lon="98.866256">
<time>2014-08-05T02:17:44Z</time></trkpt>
<trkpt lat="26.987493" lon="98.866316">
<time>2014-08-05T02:17:45Z</time></trkpt>
<trkpt lat="26.987633" lon="98.866366">
<time>2014-08-05T02:17:46Z</time></trkpt>
<trkpt lat="26.987843" lon="98.866436">
<time>2014-08-05T02:17:47Z</time></trkpt>
<trkpt lat="26.988013" lon="98.866496">
<time>2014-08-05T02:17:48Z</time></trkpt>
<trkpt lat="26.988183" lon="98.866566">
<time>2014-08-05T02:17:49Z</time></trkpt>
<trkpt lat="26.988343" lon="98.866636">
<time>2014-08-05T02:17:50Z</time></trkpt>
<trkpt lat="26.988513" lon="98.866706">
<time>2014-08-05T02:17:51Z</time></trkpt>
<trkpt lat="26.988673" lon="98.866746">
<time>2014-08-05T02:17:52Z</time></trkpt>
<trkpt lat="26.988853" lon="98.866796">
<time>2014-08-05T02:17:53Z</time></trkpt>
<trkpt lat="26.989033" lon="98.866846">
<time>2014-08-05T02:17:54Z</time></trkpt>
<trkpt lat="26.989043" lon="98.866846">
<time>2014-08-05T02:17:55Z</time></trkpt>
<trkpt lat="26.989073" lon="98.866856">
<time>2014-08-05T02:17:56Z</time></trkpt>
<trkpt lat="26.989113" lon="98.866876">
<time>2014-08-05T02:17:57Z</time></trkpt>
<trkpt lat="26.989163" lon="98.866896">
<time>2014-08-05T02:17:58Z</time></trkpt>
<trkpt lat="26.989203" lon="98.866916">
<time>2014-08-05T02:17:59Z</time></trkpt>
<trkpt lat="26.989243" lon="98.866946">
<time>2014-08-05T02:18:00Z</time></trkpt>
<trkpt lat="26.989283" lon="98.866976">
<time>2014-08-05T02:18:01Z</time></trkpt>
<trkpt lat="26.989313" lon="98.867006">
<time>2014-08-05T02:18:02Z</time></trkpt>
<trkpt lat="26.989333" lon="98.867036">
<time>2014-08-05T02:18:03Z</time></trkpt>
<trkpt lat="26.989363" lon="98.867066">
<time>2014-08-05T02:18:04Z</time></trkpt>
<trkpt lat="26.989383" lon="98.867106">
<time>2014-08-05T02:18:05Z</time></trkpt>
<trkpt lat="26.989554" lon="98.867406">
<time>2014-08-05T02:18:06Z</time></trkpt>
<trkpt lat="26.989584" lon="98.867446">
<time>2014-08-05T02:18:07Z</time></trkpt>
<trkpt lat="26.989614" lon="98.867496">
<time>2014-08-05T02:18:08Z</time></trkpt>
<trkpt lat="26.989664" lon="98.867546">
<time>2014-08-05T02:18:09Z</time></trkpt>
<trkpt lat="26.989694" lon="98.867577">
<time>2014-08-05T02:18:10Z</time></trkpt>
<trkpt lat="26.989834" lon="98.867687">
<time>2014-08-05T02:18:11Z</time></trkpt>
<trkpt lat="26.989974" lon="98.867797">
<time>2014-08-05T02:18:12Z</time></trkpt>
<trkpt lat="26.990034" lon="98.867847">
<time>2014-08-05T02:18:13Z</time></trkpt>
<trkpt lat="26.990084" lon="98.867897">
<time>2014-08-05T02:18:14Z</time></trkpt>
<trkpt lat="26.990134" lon="98.867957">
<time>2014-08-05T02:18:15Z</time></trkpt>
<trkpt lat="26.990174" lon="98.867997">
<time>2014-08-05T02:18:16Z</time></trkpt>
<trkpt lat="26.990455" lon="98.868307">
<time>2014-08-05T02:18:17Z</time></trkpt>
<trkpt lat="26.990635" lon="98.868507">
<time>2014-08-05T02:18:18Z</time></trkpt>
<trkpt lat="26.990695" lon="98.868567">
<time>2014-08-05T02:18:19Z</time></trkpt>
<trkpt lat="26.990765" lon="98.868627">
<time>2014-08-05T02:18:20Z</time></trkpt>
<trkpt lat="26.990845" lon="98.868687">
<time>2014-08-05T02:18:21Z</time></trkpt>
<trkpt lat="26.990915" lon="98.868727">
<time>2014-08-05T02:18:22Z</time></trkpt>
<trkpt lat="26.991095" lon="98.868817">
<time>2014-08-05T02:18:23Z</time></trkpt>
<trkpt lat="26.991425" lon="98.868987">
<time>2014-08-05T02:18:24Z</time></trkpt>
<trkpt lat="26.991525" lon="98.869027">
<time>2014-08-05T02:18:25Z</time></trkpt>
<trkpt lat="26.991575" lon="98.869057">
<time>2014-08-05T02:18:26Z</time></trkpt>
<trkpt lat="26.991605" lon="98.869067">
<time>2014-08-05T02:18:27Z</time></trkpt>
<trkpt lat="26.991625" lon="98.869077">
<time>2014-08-05T02:18:28Z</time></trkpt>
<trkpt lat="26.991665" lon="98.869087">
<time>2014-08-05T02:18:29Z</time></trkpt>
<trkpt lat="26.991735" lon="98.869107">
<time>2014-08-05T02:18:30Z</time></trkpt>
<trkpt lat="26.991815" lon="98.869127">
<time>2014-08-05T02:18:31Z</time></trkpt>
<trkpt lat="26.992115" lon="98.869187">
<time>2014-08-05T02:18:32Z</time></trkpt>
<trkpt lat="26.992485" lon="98.869257">
<time>2014-08-05T02:18:33Z</time></trkpt>
<trkpt lat="26.992585" lon="98.869277">
<time>2014-08-05T02:18:34Z</time></trkpt>
<trkpt lat="26.992615" lon="98.869277">
<time>2014-08-05T02:18:35Z</time></trkpt>
<trkpt lat="26.992725" lon="98.869297">
<time>2014-08-05T02:18:36Z</time></trkpt>
<trkpt lat="26.992755" lon="98.869297">
<time>2014-08-05T02:18:37Z</time></trkpt>
<trkpt lat="26.992795" lon="98.869307">
<time>2014-08-05T02:18:38Z</time></trkpt>
<trkpt lat="26.992845" lon="98.869317">
<time>2014-08-05T02:18:39Z</time></trkpt>
<trkpt lat="26.993075" lon="98.869368">
<time>2014-08-05T02:18:40Z</time></trkpt>
<trkpt lat="26.993335" lon="98.869418">
<time>2014-08-05T02:18:41Z</time></trkpt>
<trkpt lat="26.993735" lon="98.869498">
<time>2014-08-05T02:18:42Z</time></trkpt>
<trkpt lat="26.994035" lon="98.869548">
<time>2014-08-05T02:18:43Z</time></trkpt>
<trkpt lat="26.994115" lon="98.869568">
<time>2014-08-05T02:18:44Z</time></trkpt>
<trkpt lat="26.994235" lon="98.869588">
<time>2014-08-05T02:18:45Z</time></trkpt>
<trkpt lat="26.994355" lon="98.869618">
<time>2014-08-05T02:18:46Z</time></trkpt>
<trkpt lat="26.994525" lon="98.869658">
<time>2014-08-05T02:18:47Z</time></trkpt>
<trkpt lat="26.994705" lon="98.869718">
<time>2014-08-05T02:18:48Z</time></trkpt>
<trkpt lat="26.994885" lon="98.869768">
<time>2014-08-05T02:18:49Z</time></trkpt>
<trkpt lat="26.995155" lon="98.869858">
<time>2014-08-05T02:18:50Z</time></trkpt>
<trkpt lat="26.995295" lon="98.869908">
<time>2014-08-05T02:18:51Z</time></trkpt>
<trkpt lat="26.995455" lon="98.869948">
<time>2014-08-05T02:18:52Z</time></trkpt>
<trkpt lat="26.995715" lon="98.869998">
<time>2014-08-05T02:18:53Z</time></trkpt>
<trkpt lat="26.995785" lon="98.870008">
<time>2014-08-05T02:18:54Z</time></trkpt>
<trkpt lat="26.995965" lon="98.870048">
<time>2014-08-05T02:18:55Z</time></trkpt>
<trkpt lat="26.996045" lon="98.870068">
<time>2014-08-05T02:18:56Z</time></trkpt>
<trkpt lat="26.996065" lon="98.870068">
<time>2014-08-05T02:18:57Z</time></trkpt>
<trkpt lat="26.996085" lon="98.870068">
<time>2014-08-05T02:18:58Z</time></trkpt>
<trkpt lat="26.996115" lon="98.870078">
<time>2014-08-05T02:18:59Z</time></trkpt>
<trkpt lat="26.996145" lon="98.870078">
<time>2014-08-05T02:19:00Z</time></trkpt>
<trkpt lat="26.996155" lon="98.870078">
<time>2014-08-05T02:19:01Z</time></trkpt>
<trkpt lat="26.996245" lon="98.870078">
<time>2014-08-05T02:19:02Z</time></trkpt>
<trkpt lat="26.996255" lon="98.870078">
<time>2014-08-05T02:19:03Z</time></trkpt>
<trkpt lat="26.996265" lon="98.870078">
<time>2014-08-05T02:19:04Z</time></trkpt>
<trkpt lat="26.996355" lon="98.870078">
<time>2014-08-05T02:19:05Z</time></trkpt>
<trkpt lat="26.996555" lon="98.870058">
<time>2014-08-05T02:19:06Z</time></trkpt>
<trkpt lat="26.996635" lon="98.870058">
<time>2014-08-05T02:19:07Z</time></trkpt>
<trkpt lat="26.996775" lon="98.870048">
<time>2014-08-05T02:19:08Z</time></trkpt>
<trkpt lat="26.996935" lon="98.870058">
<time>2014-08-05T02:19:09Z</time></trkpt>
<trkpt lat="26.997175" lon="98.870078">
<time>2014-08-05T02:19:10Z</time></trkpt>
<trkpt lat="26.997255" lon="98.870088">
<time>2014-08-05T02:19:11Z</time></trkpt>
<trkpt lat="26.997335" lon="98.870098">
<time>2014-08-05T02:19:12Z</time></trkpt>
<trkpt lat="26.997475" lon="98.870118">
<time>2014-08-05T02:19:13Z</time></trkpt>
<trkpt lat="26.997745" lon="98.870188">
<time>2014-08-05T02:19:14Z</time></trkpt>
<trkpt lat="26.997945" lon="98.870238">
<time>2014-08-05T02:19:15Z</time></trkpt>
<trkpt lat="26.998035" lon="98.870258">
<time>2014-08-05T02:19:16Z</time></trkpt>
<trkpt lat="26.998175" lon="98.870278">
<time>2014-08-05T02:19:17Z</time></trkpt>
<trkpt lat="26.998235" lon="98.870288">
<time>2014-08-05T02:19:18Z</time></trkpt>
<trkpt lat="26.998315" lon="98.870298">
<time>2014-08-05T02:19:19Z</time></trkpt>
<trkpt lat="26.998435" lon="98.870308">
<time>2014-08-05T02:19:20Z</time></trkpt>
<trkpt lat="26.998755" lon="98.870328">
<time>2014-08-05T02:19:21Z</time></trkpt>
<trkpt lat="26.999025" lon="98.870348">
<time>2014-08-05T02:19:22Z</time></trkpt>
<trkpt lat="26.999345" lon="98.870358">
<time>2014-08-05T02:19:23Z</time></trkpt>
<trkpt lat="26.999585" lon="98.870368">
<time>2014-08-05T02:19:24Z</time></trkpt>
<trkpt lat="26.999655" lon="98.870368">
<time>2014-08-05T02:19:25Z</time></trkpt>
<trkpt lat="26.999855" lon="98.870368">
<time>2014-08-05T02:19:26Z</time></trkpt>
<trkpt lat="27.000025" lon="98.870368">
<time>2014-08-05T02:19:27Z</time></trkpt>
<trkpt lat="27.000185" lon="98.870358">
<time>2014-08-05T02:19:28Z</time></trkpt>
<trkpt lat="27.000345" lon="98.870358">
<time>2014-08-05T02:19:29Z</time></trkpt>
<trkpt lat="27.000514" lon="98.870358">
<time>2014-08-05T02:19:30Z</time></trkpt>
<trkpt lat="27.000584" lon="98.870348">
<time>2014-08-05T02:19:31Z</time></trkpt>
<trkpt lat="27.000634" lon="98.870348">
<time>2014-08-05T02:19:32Z</time></trkpt>
<trkpt lat="27.000684" lon="98.870338">
<time>2014-08-05T02:19:33Z</time></trkpt>
<trkpt lat="27.000744" lon="98.870328">
<time>2014-08-05T02:19:34Z</time></trkpt>
<trkpt lat="27.000824" lon="98.870318">
<time>2014-08-05T02:19:35Z</time></trkpt>
<trkpt lat="27.000964" lon="98.870278">
<time>2014-08-05T02:19:36Z</time></trkpt>
<trkpt lat="27.001204" lon="98.870218">
<time>2014-08-05T02:19:37Z</time></trkpt>
<trkpt lat="27.001274" lon="98.870208">
<time>2014-08-05T02:19:38Z</time></trkpt>
<trkpt lat="27.001344" lon="98.870188">
<time>2014-08-05T02:19:39Z</time></trkpt>
<trkpt lat="27.001394" lon="98.870178">
<time>2014-08-05T02:19:40Z</time></trkpt>
<trkpt lat="27.001504" lon="98.870158">
<time>2014-08-05T02:19:41Z</time></trkpt>
<trkpt lat="27.001874" lon="98.870108">
<time>2014-08-05T02:19:42Z</time></trkpt>
<trkpt lat="27.001974" lon="98.870088">
<time>2014-08-05T02:19:43Z</time></trkpt>
<trkpt lat="27.002044" lon="98.870078">
<time>2014-08-05T02:19:44Z</time></trkpt>
<trkpt lat="27.002424" lon="98.869988">
<time>2014-08-05T02:19:45Z</time></trkpt>
<trkpt lat="27.002553" lon="98.869958">
<time>2014-08-05T02:19:46Z</time></trkpt>
<trkpt lat="27.002613" lon="98.869948">
<time>2014-08-05T02:19:47Z</time></trkpt>
<trkpt lat="27.002643" lon="98.869938">
<time>2014-08-05T02:19:48Z</time></trkpt>
<trkpt lat="27.002653" lon="98.869938">
<time>2014-08-05T02:19:49Z</time></trkpt>
<trkpt lat="27.002683" lon="98.869928">
<time>2014-08-05T02:19:50Z</time></trkpt>
<trkpt lat="27.002693" lon="98.869928">
<time>2014-08-05T02:19:51Z</time></trkpt>
<trkpt lat="27.002733" lon="98.869918">
<time>2014-08-05T02:19:52Z</time></trkpt>
<trkpt lat="27.002743" lon="98.869918">
<time>2014-08-05T02:19:53Z</time></trkpt>
<trkpt lat="27.002753" lon="98.869918">
<time>2014-08-05T02:19:54Z</time></trkpt>
<trkpt lat="27.002763" lon="98.869918">
<time>2014-08-05T02:19:55Z</time></trkpt>
<trkpt lat="27.002773" lon="98.869918">
<time>2014-08-05T02:19:56Z</time></trkpt>
<trkpt lat="27.002843" lon="98.869918">
<time>2014-08-05T02:19:57Z</time></trkpt>
<trkpt lat="27.002873" lon="98.869918">
<time>2014-08-05T02:19:58Z</time></trkpt>
<trkpt lat="27.002963" lon="98.869918">
<time>2014-08-05T02:19:59Z</time></trkpt>
<trkpt lat="27.002973" lon="98.869918">
<time>2014-08-05T02:20:00Z</time></trkpt>
<trkpt lat="27.002983" lon="98.869918">
<time>2014-08-05T02:20:01Z</time></trkpt>
<trkpt lat="27.003023" lon="98.869918">
<time>2014-08-05T02:20:02Z</time></trkpt>
<trkpt lat="27.003103" lon="98.869928">
<time>2014-08-05T02:20:03Z</time></trkpt>
<trkpt lat="27.003233" lon="98.869938">
<time>2014-08-05T02:20:04Z</time></trkpt>
<trkpt lat="27.003333" lon="98.869938">
<time>2014-08-05T02:20:05Z</time></trkpt>
<trkpt lat="27.003363" lon="98.869948">
<time>2014-08-05T02:20:06Z</time></trkpt>
<trkpt lat="27.003443" lon="98.869948">
<time>2014-08-05T02:20:07Z</time></trkpt>
<trkpt lat="27.003503" lon="98.869958">
<time>2014-08-05T02:20:08Z</time></trkpt>
<trkpt lat="27.003543" lon="98.869958">
<time>2014-08-05T02:20:09Z</time></trkpt>
<trkpt lat="27.003583" lon="98.869958">
<time>2014-08-05T02:20:10Z</time></trkpt>
<trkpt lat="27.003633" lon="98.869958">
<time>2014-08-05T02:20:11Z</time></trkpt>
<trkpt lat="27.003713" lon="98.869958">
<time>2014-08-05T02:20:12Z</time></trkpt>
<trkpt lat="27.003773" lon="98.869958">
<time>2014-08-05T02:20:13Z</time></trkpt>
<trkpt lat="27.003923" lon="98.869948">
<time>2014-08-05T02:20:14Z</time></trkpt>
<trkpt lat="27.004593" lon="98.869888">
<time>2014-08-05T02:20:15Z</time></trkpt>
<trkpt lat="27.004753" lon="98.869868">
<time>2014-08-05T02:20:16Z</time></trkpt>
<trkpt lat="27.004893" lon="98.869858">
<time>2014-08-05T02:20:17Z</time></trkpt>
<trkpt lat="27.005053" lon="98.869838">
<time>2014-08-05T02:20:18Z</time></trkpt>
<trkpt lat="27.005133" lon="98.869828">
<time>2014-08-05T02:20:19Z</time></trkpt>
<trkpt lat="27.005163" lon="98.869818">
<time>2014-08-05T02:20:20Z</time></trkpt>
<trkpt lat="27.005193" lon="98.869818">
<time>2014-08-05T02:20:21Z</time></trkpt>
<trkpt lat="27.005223" lon="98.869808">
<time>2014-08-05T02:20:22Z</time></trkpt>
<trkpt lat="27.005293" lon="98.869788">
<time>2014-08-05T02:20:23Z</time></trkpt>
<trkpt lat="27.005313" lon="98.869788">
<time>2014-08-05T02:20:24Z</time></trkpt>
<trkpt lat="27.005333" lon="98.869778">
<time>2014-08-05T02:20:25Z</time></trkpt>
<trkpt lat="27.005393" lon="98.869758">
<time>2014-08-05T02:20:26Z</time></trkpt>
<trkpt lat="27.005423" lon="98.869748">
<time>2014-08-05T02:20:27Z</time></trkpt>
<trkpt lat="27.005512" lon="98.869707">
<time>2014-08-05T02:20:28Z</time></trkpt>
<trkpt lat="27.005652" lon="98.869647">
<time>2014-08-05T02:20:29Z</time></trkpt>
<trkpt lat="27.005732" lon="98.869617">
<time>2014-08-05T02:20:30Z</time></trkpt>
<trkpt lat="27.005772" lon="98.869597">
<time>2014-08-05T02:20:31Z</time></trkpt>
<trkpt lat="27.005792" lon="98.869587">
<time>2014-08-05T02:20:32Z</time></trkpt>
<trkpt lat="27.005922" lon="98.869537">
<time>2014-08-05T02:20:33Z</time></trkpt>
<trkpt lat="27.006542" lon="98.869277">
<time>2014-08-05T02:20:34Z</time></trkpt>
<trkpt lat="27.006612" lon="98.869247">
<time>2014-08-05T02:20:35Z</time></trkpt>
<trkpt lat="27.006642" lon="98.869247">
<time>2014-08-05T02:20:36Z</time></trkpt>
<trkpt lat="27.006702" lon="98.869227">
<time>2014-08-05T02:20:37Z</time></trkpt>
<trkpt lat="27.006722" lon="98.869227">
<time>2014-08-05T02:20:38Z</time></trkpt>
<trkpt lat="27.006732" lon="98.869217">
<time>2014-08-05T02:20:39Z</time></trkpt>
<trkpt lat="27.006782" lon="98.869217">
<time>2014-08-05T02:20:40Z</time></trkpt>
<trkpt lat="27.006812" lon="98.869217">
<time>2014-08-05T02:20:41Z</time></trkpt>
<trkpt lat="27.006831" lon="98.869207">
<time>2014-08-05T02:20:42Z</time></trkpt>
<trkpt lat="27.006861" lon="98.869207">
<time>2014-08-05T02:20:43Z</time></trkpt>
<trkpt lat="27.006901" lon="98.869217">
<time>2014-08-05T02:20:44Z</time></trkpt>
<trkpt lat="27.006931" lon="98.869217">
<time>2014-08-05T02:20:45Z</time></trkpt>
<trkpt lat="27.006991" lon="98.869217">
<time>2014-08-05T02:20:46Z</time></trkpt>
<trkpt lat="27.007051" lon="98.869217">
<time>2014-08-05T02:20:47Z</time></trkpt>
<trkpt lat="27.007131" lon="98.869227">
<time>2014-08-05T02:20:48Z</time></trkpt>
<trkpt lat="27.007181" lon="98.869227">
<time>2014-08-05T02:20:49Z</time></trkpt>
<trkpt lat="27.007271" lon="98.869237">
<time>2014-08-05T02:20:50Z</time></trkpt>
<trkpt lat="27.007411" lon="98.869247">
<time>2014-08-05T02:20:51Z</time></trkpt>
<trkpt lat="27.007571" lon="98.869267">
<time>2014-08-05T02:20:52Z</time></trkpt>
<trkpt lat="27.007801" lon="98.869287">
<time>2014-08-05T02:20:53Z</time></trkpt>
<trkpt lat="27.007941" lon="98.869287">
<time>2014-08-05T02:20:54Z</time></trkpt>
<trkpt lat="27.008091" lon="98.869297">
<time>2014-08-05T02:20:55Z</time></trkpt>
<trkpt lat="27.008231" lon="98.869317">
<time>2014-08-05T02:20:56Z</time></trkpt>
<trkpt lat="27.008301" lon="98.869327">
<time>2014-08-05T02:20:57Z</time></trkpt>
<trkpt lat="27.008331" lon="98.869327">
<time>2014-08-05T02:20:58Z</time></trkpt>
<trkpt lat="27.008391" lon="98.869337">
<time>2014-08-05T02:20:59Z</time></trkpt>
<trkpt lat="27.008411" lon="98.869347">
<time>2014-08-05T02:21:00Z</time></trkpt>
<trkpt lat="27.008451" lon="98.869357">
<time>2014-08-05T02:21:01Z</time></trkpt>
<trkpt lat="27.008521" lon="98.869367">
<time>2014-08-05T02:21:02Z</time></trkpt>
<trkpt lat="27.008571" lon="98.869387">
<time>2014-08-05T02:21:03Z</time></trkpt>
<trkpt lat="27.008601" lon="98.869397">
<time>2014-08-05T02:21:04Z</time></trkpt>
<trkpt lat="27.008611" lon="98.869397">
<time>2014-08-05T02:21:05Z</time></trkpt>
<trkpt lat="27.008661" lon="98.869417">
<time>2014-08-05T02:21:06Z</time></trkpt>
<trkpt lat="27.008671" lon="98.869417">
<time>2014-08-05T02:21:07Z</time></trkpt>
<trkpt lat="27.008681" lon="98.869427">
<time>2014-08-05T02:21:08Z</time></trkpt>
<trkpt lat="27.008701" lon="98.869427">
<time>2014-08-05T02:21:09Z</time></trkpt>
<trkpt lat="27.008711" lon="98.869427">
<time>2014-08-05T02:21:10Z</time></trkpt>
<trkpt lat="27.008721" lon="98.869437">
<time>2014-08-05T02:21:11Z</time></trkpt>
<trkpt lat="27.008731" lon="98.869437">
<time>2014-08-05T02:21:12Z</time></trkpt>
<trkpt lat="27.008761" lon="98.869447">
<time>2014-08-05T02:21:13Z</time></trkpt>
<trkpt lat="27.008791" lon="98.869457">
<time>2014-08-05T02:21:14Z</time></trkpt>
<trkpt lat="27.008861" lon="98.869477">
<time>2014-08-05T02:21:15Z</time></trkpt>
<trkpt lat="27.008921" lon="98.869497">
<time>2014-08-05T02:21:16Z</time></trkpt>
<trkpt lat="27.009001" lon="98.869527">
<time>2014-08-05T02:21:17Z</time></trkpt>
<trkpt lat="27.009161" lon="98.869577">
<time>2014-08-05T02:21:18Z</time></trkpt>
<trkpt lat="27.009301" lon="98.869607">
<time>2014-08-05T02:21:19Z</time></trkpt>
<trkpt lat="27.009431" lon="98.869627">
<time>2014-08-05T02:21:20Z</time></trkpt>
<trkpt lat="27.009571" lon="98.869647">
<time>2014-08-05T02:21:21Z</time></trkpt>
<trkpt lat="27.009711" lon="98.869657">
<time>2014-08-05T02:21:22Z</time></trkpt>
<trkpt lat="27.009851" lon="98.869667">
<time>2014-08-05T02:21:23Z</time></trkpt>
<trkpt lat="27.010001" lon="98.869677">
<time>2014-08-05T02:21:24Z</time></trkpt>
<trkpt lat="27.010141" lon="98.869687">
<time>2014-08-05T02:21:25Z</time></trkpt>
<trkpt lat="27.010231" lon="98.869687">
<time>2014-08-05T02:21:26Z</time></trkpt>
<trkpt lat="27.010301" lon="98.869687">
<time>2014-08-05T02:21:27Z</time></trkpt>
<trkpt lat="27.010401" lon="98.869677">
<time>2014-08-05T02:21:28Z</time></trkpt>
<trkpt lat="27.010471" lon="98.869667">
<time>2014-08-05T02:21:29Z</time></trkpt>
<trkpt lat="27.010541" lon="98.869657">
<time>2014-08-05T02:21:30Z</time></trkpt>
<trkpt lat="27.010611" lon="98.869637">
<time>2014-08-05T02:21:31Z</time></trkpt>
<trkpt lat="27.010901" lon="98.869537">
<time>2014-08-05T02:21:32Z</time></trkpt>
<trkpt lat="27.0124" lon="98.869027">
<time>2014-08-05T02:21:33Z</time></trkpt>
<trkpt lat="27.01261" lon="98.868957">
<time>2014-08-05T02:21:34Z</time></trkpt>
<trkpt lat="27.01269" lon="98.868927">
<time>2014-08-05T02:21:35Z</time></trkpt>
<trkpt lat="27.01275" lon="98.868917">
<time>2014-08-05T02:21:36Z</time></trkpt>
<trkpt lat="27.01284" lon="98.868907">
<time>2014-08-05T02:21:37Z</time></trkpt>
<trkpt lat="27.01294" lon="98.868887">
<time>2014-08-05T02:21:38Z</time></trkpt>
<trkpt lat="27.013099" lon="98.868877">
<time>2014-08-05T02:21:39Z</time></trkpt>
<trkpt lat="27.013249" lon="98.868857">
<time>2014-08-05T02:21:40Z</time></trkpt>
<trkpt lat="27.013399" lon="98.868847">
<time>2014-08-05T02:21:41Z</time></trkpt>
<trkpt lat="27.013539" lon="98.868837">
<time>2014-08-05T02:21:42Z</time></trkpt>
<trkpt lat="27.013579" lon="98.868827">
<time>2014-08-05T02:21:43Z</time></trkpt>
<trkpt lat="27.013669" lon="98.868807">
<time>2014-08-05T02:21:44Z</time></trkpt>
<trkpt lat="27.013899" lon="98.868727">
<time>2014-08-05T02:21:45Z</time></trkpt>
<trkpt lat="27.014279" lon="98.868567">
<time>2014-08-05T02:21:46Z</time></trkpt>
<trkpt lat="27.014369" lon="98.868527">
<time>2014-08-05T02:21:47Z</time></trkpt>
<trkpt lat="27.014409" lon="98.868517">
<time>2014-08-05T02:21:48Z</time></trkpt>
<trkpt lat="27.014439" lon="98.868507">
<time>2014-08-05T02:21:49Z</time></trkpt>
<trkpt lat="27.014489" lon="98.868507">
<time>2014-08-05T02:21:50Z</time></trkpt>
<trkpt lat="27.014519" lon="98.868497">
<time>2014-08-05T02:21:51Z</time></trkpt>
<trkpt lat="27.014549" lon="98.868497">
<time>2014-08-05T02:21:52Z</time></trkpt>
<trkpt lat="27.014579" lon="98.868487">
<time>2014-08-05T02:21:53Z</time></trkpt>
<trkpt lat="27.014729" lon="98.868487">
<time>2014-08-05T02:21:54Z</time></trkpt>
<trkpt lat="27.014879" lon="98.868487">
<time>2014-08-05T02:21:55Z</time></trkpt>
<trkpt lat="27.015049" lon="98.868497">
<time>2014-08-05T02:21:56Z</time></trkpt>
<trkpt lat="27.015228" lon="98.868517">
<time>2014-08-05T02:21:57Z</time></trkpt>
<trkpt lat="27.015378" lon="98.868517">
<time>2014-08-05T02:21:58Z</time></trkpt>
<trkpt lat="27.015628" lon="98.868507">
<time>2014-08-05T02:21:59Z</time></trkpt>
<trkpt lat="27.015908" lon="98.868507">
<time>2014-08-05T02:22:00Z</time></trkpt>
<trkpt lat="27.016168" lon="98.868507">
<time>2014-08-05T02:22:01Z</time></trkpt>
<trkpt lat="27.016308" lon="98.868517">
<time>2014-08-05T02:22:02Z</time></trkpt>
<trkpt lat="27.016448" lon="98.868527">
<time>2014-08-05T02:22:03Z</time></trkpt>
<trkpt lat="27.016588" lon="98.868547">
<time>2014-08-05T02:22:04Z</time></trkpt>
<trkpt lat="27.016848" lon="98.868577">
<time>2014-08-05T02:22:05Z</time></trkpt>
<trkpt lat="27.016998" lon="98.868597">
<time>2014-08-05T02:22:06Z</time></trkpt>
<trkpt lat="27.017158" lon="98.868617">
<time>2014-08-05T02:22:07Z</time></trkpt>
<trkpt lat="27.017268" lon="98.868627">
<time>2014-08-05T02:22:08Z</time></trkpt>
<trkpt lat="27.017398" lon="98.868627">
<time>2014-08-05T02:22:09Z</time></trkpt>
<trkpt lat="27.017478" lon="98.868617">
<time>2014-08-05T02:22:10Z</time></trkpt>
<trkpt lat="27.017538" lon="98.868607">
<time>2014-08-05T02:22:11Z</time></trkpt>
<trkpt lat="27.017598" lon="98.868597">
<time>2014-08-05T02:22:12Z</time></trkpt>
<trkpt lat="27.017718" lon="98.868567">
<time>2014-08-05T02:22:13Z</time></trkpt>
<trkpt lat="27.017748" lon="98.868567">
<time>2014-08-05T02:22:14Z</time></trkpt>
<trkpt lat="27.017778" lon="98.868557">
<time>2014-08-05T02:22:15Z</time></trkpt>
<trkpt lat="27.017798" lon="98.868547">
<time>2014-08-05T02:22:16Z</time></trkpt>
<trkpt lat="27.017818" lon="98.868547">
<time>2014-08-05T02:22:17Z</time></trkpt>
<trkpt lat="27.017838" lon="98.868537">
<time>2014-08-05T02:22:18Z</time></trkpt>
<trkpt lat="27.017868" lon="98.868527">
<time>2014-08-05T02:22:19Z</time></trkpt>
<trkpt lat="27.017948" lon="98.868487">
<time>2014-08-05T02:22:20Z</time></trkpt>
<trkpt lat="27.018347" lon="98.868286">
<time>2014-08-05T02:22:21Z</time></trkpt>
<trkpt lat="27.018447" lon="98.868246">
<time>2014-08-05T02:22:22Z</time></trkpt>
<trkpt lat="27.018507" lon="98.868226">
<time>2014-08-05T02:22:23Z</time></trkpt>
<trkpt lat="27.018567" lon="98.868206">
<time>2014-08-05T02:22:24Z</time></trkpt>
<trkpt lat="27.018607" lon="98.868196">
<time>2014-08-05T02:22:25Z</time></trkpt>
<trkpt lat="27.018647" lon="98.868186">
<time>2014-08-05T02:22:26Z</time></trkpt>
<trkpt lat="27.018747" lon="98.868166">
<time>2014-08-05T02:22:27Z</time></trkpt>
<trkpt lat="27.018907" lon="98.868146">
<time>2014-08-05T02:22:28Z</time></trkpt>
<trkpt lat="27.019107" lon="98.868126">
<time>2014-08-05T02:22:29Z</time></trkpt>
<trkpt lat="27.019207" lon="98.868116">
<time>2014-08-05T02:22:30Z</time></trkpt>
<trkpt lat="27.019277" lon="98.868106">
<time>2014-08-05T02:22:31Z</time></trkpt>
<trkpt lat="27.019347" lon="98.868096">
<time>2014-08-05T02:22:32Z</time></trkpt>
<trkpt lat="27.019417" lon="98.868076">
<time>2014-08-05T02:22:33Z</time></trkpt>
<trkpt lat="27.019497" lon="98.868056">
<time>2014-08-05T02:22:34Z</time></trkpt>
<trkpt lat="27.019577" lon="98.868036">
<time>2014-08-05T02:22:35Z</time></trkpt>
<trkpt lat="27.019627" lon="98.868016">
<time>2014-08-05T02:22:36Z</time></trkpt>
<trkpt lat="27.019687" lon="98.867996">
<time>2014-08-05T02:22:37Z</time></trkpt>
<trkpt lat="27.019837" lon="98.867936">
<time>2014-08-05T02:22:38Z</time></trkpt>
<trkpt lat="27.019877" lon="98.867926">
<time>2014-08-05T02:22:39Z</time></trkpt>
<trkpt lat="27.019976" lon="98.867876">
<time>2014-08-05T02:22:40Z</time></trkpt>
<trkpt lat="27.020086" lon="98.867826">
<time>2014-08-05T02:22:41Z</time></trkpt>
<trkpt lat="27.020306" lon="98.867736">
<time>2014-08-05T02:22:42Z</time></trkpt>
<trkpt lat="27.020386" lon="98.867706">
<time>2014-08-05T02:22:43Z</time></trkpt>
<trkpt lat="27.020446" lon="98.867676">
<time>2014-08-05T02:22:44Z</time></trkpt>
<trkpt lat="27.020486" lon="98.867656">
<time>2014-08-05T02:22:45Z</time></trkpt>
<trkpt lat="27.020686" lon="98.867576">
<time>2014-08-05T02:22:46Z</time></trkpt>
<trkpt lat="27.021715" lon="98.867136">
<time>2014-08-05T02:22:47Z</time></trkpt>
<trkpt lat="27.021885" lon="98.867076">
<time>2014-08-05T02:22:48Z</time></trkpt>
<trkpt lat="27.022095" lon="98.866996">
<time>2014-08-05T02:22:49Z</time></trkpt>
<trkpt lat="27.022235" lon="98.866946">
<time>2014-08-05T02:22:50Z</time></trkpt>
<trkpt lat="27.022285" lon="98.866936">
<time>2014-08-05T02:22:51Z</time></trkpt>
<trkpt lat="27.022365" lon="98.866906">
<time>2014-08-05T02:22:52Z</time></trkpt>
<trkpt lat="27.022465" lon="98.866875">
<time>2014-08-05T02:22:53Z</time></trkpt>
<trkpt lat="27.022504" lon="98.866855">
<time>2014-08-05T02:22:54Z</time></trkpt>
<trkpt lat="27.022584" lon="98.866835">
<time>2014-08-05T02:22:55Z</time></trkpt>
<trkpt lat="27.022654" lon="98.866805">
<time>2014-08-05T02:22:56Z</time></trkpt>
<trkpt lat="27.022734" lon="98.866785">
<time>2014-08-05T02:22:57Z</time></trkpt>
<trkpt lat="27.022744" lon="98.866775">
<time>2014-08-05T02:22:58Z</time></trkpt>
<trkpt lat="27.022754" lon="98.866775">
<time>2014-08-05T02:22:59Z</time></trkpt>
<trkpt lat="27.022764" lon="98.866775">
<time>2014-08-05T02:23:00Z</time></trkpt>
<trkpt lat="27.022784" lon="98.866765">
<time>2014-08-05T02:23:01Z</time></trkpt>
<trkpt lat="27.022794" lon="98.866755">
<time>2014-08-05T02:23:02Z</time></trkpt>
<trkpt lat="27.022804" lon="98.866755">
<time>2014-08-05T02:23:03Z</time></trkpt>
<trkpt lat="27.022834" lon="98.866745">
<time>2014-08-05T02:23:04Z</time></trkpt>
<trkpt lat="27.022864" lon="98.866735">
<time>2014-08-05T02:23:05Z</time></trkpt>
<trkpt lat="27.022874" lon="98.866725">
<time>2014-08-05T02:23:06Z</time></trkpt>
<trkpt lat="27.022894" lon="98.866725">
<time>2014-08-05T02:23:07Z</time></trkpt>
<trkpt lat="27.022944" lon="98.866705">
<time>2014-08-05T02:23:08Z</time></trkpt>
<trkpt lat="27.022974" lon="98.866685">
<time>2014-08-05T02:23:09Z</time></trkpt>
<trkpt lat="27.022994" lon="98.866675">
<time>2014-08-05T02:23:10Z</time></trkpt>
<trkpt lat="27.023074" lon="98.866635">
<time>2014-08-05T02:23:11Z</time></trkpt>
<trkpt lat="27.023124" lon="98.866605">
<time>2014-08-05T02:23:12Z</time></trkpt>
<trkpt lat="27.023324" lon="98.866445">
<time>2014-08-05T02:23:13Z</time></trkpt>
<trkpt lat="27.023484" lon="98.866305">
<time>2014-08-05T02:23:14Z</time></trkpt>
<trkpt lat="27.023563" lon="98.866245">
<time>2014-08-05T02:23:15Z</time></trkpt>
<trkpt lat="27.023583" lon="98.866225">
<time>2014-08-05T02:23:16Z</time></trkpt>
<trkpt lat="27.023773" lon="98.866075">
<time>2014-08-05T02:23:17Z</time></trkpt>
<trkpt lat="27.023873" lon="98.865995">
<time>2014-08-05T02:23:18Z</time></trkpt>
<trkpt lat="27.023933" lon="98.865945">
<time>2014-08-05T02:23:19Z</time></trkpt>
<trkpt lat="27.023973" lon="98.865915">
<time>2014-08-05T02:23:20Z</time></trkpt>
<trkpt lat="27.024003" lon="98.865895">
<time>2014-08-05T02:23:21Z</time></trkpt>
<trkpt lat="27.024033" lon="98.865875">
<time>2014-08-05T02:23:22Z</time></trkpt>
<trkpt lat="27.024043" lon="98.865875">
<time>2014-08-05T02:23:23Z</time></trkpt>
<trkpt lat="27.024053" lon="98.865865">
<time>2014-08-05T02:23:24Z</time></trkpt>
<trkpt lat="27.024083" lon="98.865855">
<time>2014-08-05T02:23:25Z</time></trkpt>
<trkpt lat="27.024093" lon="98.865845">
<time>2014-08-05T02:23:26Z</time></trkpt>
<trkpt lat="27.024123" lon="98.865825">
<time>2014-08-05T02:23:27Z</time></trkpt>
<trkpt lat="27.024153" lon="98.865815">
<time>2014-08-05T02:23:28Z</time></trkpt>
<trkpt lat="27.024193" lon="98.865805">
<time>2014-08-05T02:23:29Z</time></trkpt>
<trkpt lat="27.024213" lon="98.865795">
<time>2014-08-05T02:23:30Z</time></trkpt>
<trkpt lat="27.024243" lon="98.865795">
<time>2014-08-05T02:23:31Z</time></trkpt>
<trkpt lat="27.024263" lon="98.865785">
<time>2014-08-05T02:23:32Z</time></trkpt>
<trkpt lat="27.024293" lon="98.865785">
<time>2014-08-05T02:23:33Z</time></trkpt>
<trkpt lat="27.024343" lon="98.865785">
<time>2014-08-05T02:23:34Z</time></trkpt>
<trkpt lat="27.024423" lon="98.865785">
<time>2014-08-05T02:23:35Z</time></trkpt>
<trkpt lat="27.024672" lon="98.865775">
<time>2014-08-05T02:23:36Z</time></trkpt>
<trkpt lat="27.024802" lon="98.865765">
<time>2014-08-05T02:23:37Z</time></trkpt>
<trkpt lat="27.024862" lon="98.865765">
<time>2014-08-05T02:23:38Z</time></trkpt>
<trkpt lat="27.025202" lon="98.865765">
<time>2014-08-05T02:23:39Z</time></trkpt>
<trkpt lat="27.027272" lon="98.865785">
<time>2014-08-05T02:23:40Z</time></trkpt>
<trkpt lat="27.027432" lon="98.865785">
<time>2014-08-05T02:23:41Z</time></trkpt>
<trkpt lat="27.027632" lon="98.865785">
<time>2014-08-05T02:23:42Z</time></trkpt>
<trkpt lat="27.028052" lon="98.865785">
<time>2014-08-05T02:23:43Z</time></trkpt>
<trkpt lat="27.028192" lon="98.865785">
<time>2014-08-05T02:23:44Z</time></trkpt>
<trkpt lat="27.028342" lon="98.865785">
<time>2014-08-05T02:23:45Z</time></trkpt>
<trkpt lat="27.028482" lon="98.865785">
<time>2014-08-05T02:23:46Z</time></trkpt>
<trkpt lat="27.028631" lon="98.865785">
<time>2014-08-05T02:23:47Z</time></trkpt>
<trkpt lat="27.028731" lon="98.865795">
<time>2014-08-05T02:23:48Z</time></trkpt>
<trkpt lat="27.028791" lon="98.865795">
<time>2014-08-05T02:23:49Z</time></trkpt>
<trkpt lat="27.028871" lon="98.865805">
<time>2014-08-05T02:23:50Z</time></trkpt>
<trkpt lat="27.028941" lon="98.865815">
<time>2014-08-05T02:23:51Z</time></trkpt>
<trkpt lat="27.029021" lon="98.865835">
<time>2014-08-05T02:23:52Z</time></trkpt>
<trkpt lat="27.029071" lon="98.865855">
<time>2014-08-05T02:23:53Z</time></trkpt>
<trkpt lat="27.029131" lon="98.865875">
<time>2014-08-05T02:23:54Z</time></trkpt>
<trkpt lat="27.029171" lon="98.865895">
<time>2014-08-05T02:23:55Z</time></trkpt>
<trkpt lat="27.029252" lon="98.865935">
<time>2014-08-05T02:23:56Z</time></trkpt>
<trkpt lat="27.029442" lon="98.866075">
<time>2014-08-05T02:23:57Z</time></trkpt>
<trkpt lat="27.029492" lon="98.866115">
<time>2014-08-05T02:23:58Z</time></trkpt>
<trkpt lat="27.029542" lon="98.866145">
<time>2014-08-05T02:23:59Z</time></trkpt>
<trkpt lat="27.029662" lon="98.866215">
<time>2014-08-05T02:24:00Z</time></trkpt>
<trkpt lat="27.029702" lon="98.866245">
<time>2014-08-05T02:24:01Z</time></trkpt>
<trkpt lat="27.029822" lon="98.866325">
<time>2014-08-05T02:24:02Z</time></trkpt>
<trkpt lat="27.030973" lon="98.867146">
<time>2014-08-05T02:24:03Z</time></trkpt>
<trkpt lat="27.030983" lon="98.867156">
<time>2014-08-05T02:24:04Z</time></trkpt>
<trkpt lat="27.031253" lon="98.867336">
<time>2014-08-05T02:24:05Z</time></trkpt>
<trkpt lat="27.031353" lon="98.867396">
<time>2014-08-05T02:24:06Z</time></trkpt>
<trkpt lat="27.031413" lon="98.867446">
<time>2014-08-05T02:24:07Z</time></trkpt>
<trkpt lat="27.031473" lon="98.867486">
<time>2014-08-05T02:24:08Z</time></trkpt>
<trkpt lat="27.031583" lon="98.867576">
<time>2014-08-05T02:24:09Z</time></trkpt>
<trkpt lat="27.031973" lon="98.867966">
<time>2014-08-05T02:24:10Z</time></trkpt>
<trkpt lat="27.034176" lon="98.870167">
<time>2014-08-05T02:24:11Z</time></trkpt>
<trkpt lat="27.034296" lon="98.870277">
<time>2014-08-05T02:24:12Z</time></trkpt>
<trkpt lat="27.034406" lon="98.870397">
<time>2014-08-05T02:24:13Z</time></trkpt>
<trkpt lat="27.034446" lon="98.870447">
<time>2014-08-05T02:24:14Z</time></trkpt>
<trkpt lat="27.034476" lon="98.870487">
<time>2014-08-05T02:24:15Z</time></trkpt>
<trkpt lat="27.034516" lon="98.870577">
<time>2014-08-05T02:24:16Z</time></trkpt>
<trkpt lat="27.034556" lon="98.870657">
<time>2014-08-05T02:24:17Z</time></trkpt>
<trkpt lat="27.034576" lon="98.870738">
<time>2014-08-05T02:24:18Z</time></trkpt>
<trkpt lat="27.034606" lon="98.870868">
<time>2014-08-05T02:24:19Z</time></trkpt>
<trkpt lat="27.034647" lon="98.871108">
<time>2014-08-05T02:24:20Z</time></trkpt>
<trkpt lat="27.034707" lon="98.871408">
<time>2014-08-05T02:24:21Z</time></trkpt>
<trkpt lat="27.034818" lon="98.872038">
<time>2014-08-05T02:24:22Z</time></trkpt>
<trkpt lat="27.034938" lon="98.872548">
<time>2014-08-05T02:24:23Z</time></trkpt>
<trkpt lat="27.034958" lon="98.872668">
<time>2014-08-05T02:24:24Z</time></trkpt>
<trkpt lat="27.034968" lon="98.872738">
<time>2014-08-05T02:24:25Z</time></trkpt>
<trkpt lat="27.034998" lon="98.872819">
<time>2014-08-05T02:24:26Z</time></trkpt>
<trkpt lat="27.035029" lon="98.872899">
<time>2014-08-05T02:24:27Z</time></trkpt>
<trkpt lat="27.035039" lon="98.872939">
<time>2014-08-05T02:24:28Z</time></trkpt>
<trkpt lat="27.035089" lon="98.873019">
<time>2014-08-05T02:24:29Z</time></trkpt>
<trkpt lat="27.035159" lon="98.873149">
<time>2014-08-05T02:24:30Z</time></trkpt>
<trkpt lat="27.035439" lon="98.873689">
<time>2014-08-05T02:24:31Z</time></trkpt>
<trkpt lat="27.035479" lon="98.873779">
<time>2014-08-05T02:24:32Z</time></trkpt>
<trkpt lat="27.035499" lon="98.873829">
<time>2014-08-05T02:24:33Z</time></trkpt>
<trkpt lat="27.035519" lon="98.873869">
<time>2014-08-05T02:24:34Z</time></trkpt>
<trkpt lat="27.03553" lon="98.873909">
<time>2014-08-05T02:24:35Z</time></trkpt>
<trkpt lat="27.03554" lon="98.873959">
<time>2014-08-05T02:24:36Z</time></trkpt>
<trkpt lat="27.03555" lon="98.873999">
<time>2014-08-05T02:24:37Z</time></trkpt>
<trkpt lat="27.03555" lon="98.874039">
<time>2014-08-05T02:24:38Z</time></trkpt>
<trkpt lat="27.03555" lon="98.874079">
<time>2014-08-05T02:24:39Z</time></trkpt>
<trkpt lat="27.03556" lon="98.874359">
<time>2014-08-05T02:24:40Z</time></trkpt>
<trkpt lat="27.03556" lon="98.874379">
<time>2014-08-05T02:24:41Z</time></trkpt>
<trkpt lat="27.03556" lon="98.874449">
<time>2014-08-05T02:24:42Z</time></trkpt>
<trkpt lat="27.03557" lon="98.874549">
<time>2014-08-05T02:24:43Z</time></trkpt>
<trkpt lat="27.03559" lon="98.874639">
<time>2014-08-05T02:24:44Z</time></trkpt>
<trkpt lat="27.03563" lon="98.874729">
<time>2014-08-05T02:24:45Z</time></trkpt>
<trkpt lat="27.03567" lon="98.874789">
<time>2014-08-05T02:24:46Z</time></trkpt>
<trkpt lat="27.03572" lon="98.874859">
<time>2014-08-05T02:24:47Z</time></trkpt>
<trkpt lat="27.035871" lon="98.874959">
<time>2014-08-05T02:24:48Z</time></trkpt>
<trkpt lat="27.035961" lon="98.875029">
<time>2014-08-05T02:24:49Z</time></trkpt>
<trkpt lat="27.036411" lon="98.875289">
<time>2014-08-05T02:24:50Z</time></trkpt>
<trkpt lat="27.036591" lon="98.87541">
<time>2014-08-05T02:24:51Z</time></trkpt>
<trkpt lat="27.036781" lon="98.87555">
<time>2014-08-05T02:24:52Z</time></trkpt>
<trkpt lat="27.037121" lon="98.87587">
<time>2014-08-05T02:24:53Z</time></trkpt>
<trkpt lat="27.037822" lon="98.87653">
<time>2014-08-05T02:24:54Z</time></trkpt>
<trkpt lat="27.038052" lon="98.87678">
<time>2014-08-05T02:24:55Z</time></trkpt>
<trkpt lat="27.038632" lon="98.87747">
<time>2014-08-05T02:24:56Z</time></trkpt>
<trkpt lat="27.038722" lon="98.87756">
<time>2014-08-05T02:24:57Z</time></trkpt>
<trkpt lat="27.038782" lon="98.87761">
<time>2014-08-05T02:24:58Z</time></trkpt>
<trkpt lat="27.038842" lon="98.87766">
<time>2014-08-05T02:24:59Z</time></trkpt>
<trkpt lat="27.038892" lon="98.87769">
<time>2014-08-05T02:25:00Z</time></trkpt>
<trkpt lat="27.038942" lon="98.87772">
<time>2014-08-05T02:25:01Z</time></trkpt>
<trkpt lat="27.038992" lon="98.87774">
<time>2014-08-05T02:25:02Z</time></trkpt>
<trkpt lat="27.039133" lon="98.87779">
<time>2014-08-05T02:25:03Z</time></trkpt>
<trkpt lat="27.039203" lon="98.87782">
<time>2014-08-05T02:25:04Z</time></trkpt>
<trkpt lat="27.039303" lon="98.87786">
<time>2014-08-05T02:25:05Z</time></trkpt>
<trkpt lat="27.039383" lon="98.87791">
<time>2014-08-05T02:25:06Z</time></trkpt>
<trkpt lat="27.039673" lon="98.87813">
<time>2014-08-05T02:25:07Z</time></trkpt>
<trkpt lat="27.039873" lon="98.87824">
<time>2014-08-05T02:25:08Z</time></trkpt>
<trkpt lat="27.040343" lon="98.87849">
<time>2014-08-05T02:25:09Z</time></trkpt>
<trkpt lat="27.040883" lon="98.87877">
<time>2014-08-05T02:25:10Z</time></trkpt>
<trkpt lat="27.041583" lon="98.8791">
<time>2014-08-05T02:25:11Z</time></trkpt>
<trkpt lat="27.042113" lon="98.87933">
<time>2014-08-05T02:25:12Z</time></trkpt>
<trkpt lat="27.042293" lon="98.8794">
<time>2014-08-05T02:25:13Z</time></trkpt>
<trkpt lat="27.042403" lon="98.87944">
<time>2014-08-05T02:25:14Z</time></trkpt>
<trkpt lat="27.042523" lon="98.87948">
<time>2014-08-05T02:25:15Z</time></trkpt>
<trkpt lat="27.042653" lon="98.87951">
<time>2014-08-05T02:25:16Z</time></trkpt>
<trkpt lat="27.042783" lon="98.87952">
<time>2014-08-05T02:25:17Z</time></trkpt>
<trkpt lat="27.043873" lon="98.87952">
<time>2014-08-05T02:25:18Z</time></trkpt>
<trkpt lat="27.044353" lon="98.87952">
<time>2014-08-05T02:25:19Z</time></trkpt>
<trkpt lat="27.044603" lon="98.87951">
<time>2014-08-05T02:25:20Z</time></trkpt>
<trkpt lat="27.044683" lon="98.87951">
<time>2014-08-05T02:25:21Z</time></trkpt>
<trkpt lat="27.044763" lon="98.8795">
<time>2014-08-05T02:25:22Z</time></trkpt>
<trkpt lat="27.044813" lon="98.87949">
<time>2014-08-05T02:25:23Z</time></trkpt>
<trkpt lat="27.044883" lon="98.87947">
<time>2014-08-05T02:25:24Z</time></trkpt>
<trkpt lat="27.044933" lon="98.87946">
<time>2014-08-05T02:25:25Z</time></trkpt>
<trkpt lat="27.044992" lon="98.87943">
<time>2014-08-05T02:25:26Z</time></trkpt>
<trkpt lat="27.045052" lon="98.8794">
<time>2014-08-05T02:25:27Z</time></trkpt>
<trkpt lat="27.045112" lon="98.87936">
<time>2014-08-05T02:25:28Z</time></trkpt>
<trkpt lat="27.045152" lon="98.87933">
<time>2014-08-05T02:25:29Z</time></trkpt>
<trkpt lat="27.045202" lon="98.87929">
<time>2014-08-05T02:25:30Z</time></trkpt>
<trkpt lat="27.045232" lon="98.87925">
<time>2014-08-05T02:25:31Z</time></trkpt>
<trkpt lat="27.045272" lon="98.8792">
<time>2014-08-05T02:25:32Z</time></trkpt>
<trkpt lat="27.045282" lon="98.87917">
<time>2014-08-05T02:25:33Z</time></trkpt>
<trkpt lat="27.045302" lon="98.87913">
<time>2014-08-05T02:25:34Z</time></trkpt>
<trkpt lat="27.045382" lon="98.87893">
<time>2014-08-05T02:25:35Z</time></trkpt>
<trkpt lat="27.045402" lon="98.87887">
<time>2014-08-05T02:25:36Z</time></trkpt>
<trkpt lat="27.045432" lon="98.87882">
<time>2014-08-05T02:25:37Z</time></trkpt>
<trkpt lat="27.045462" lon="98.87879">
<time>2014-08-05T02:25:38Z</time></trkpt>
<trkpt lat="27.045482" lon="98.87877">
<time>2014-08-05T02:25:39Z</time></trkpt>
<trkpt lat="27.045502" lon="98.87875">
<time>2014-08-05T02:25:40Z</time></trkpt>
<trkpt lat="27.045542" lon="98.87873">
<time>2014-08-05T02:25:41Z</time></trkpt>
<trkpt lat="27.045582" lon="98.87871">
<time>2014-08-05T02:25:42Z</time></trkpt>
<trkpt lat="27.045622" lon="98.87869">
<time>2014-08-05T02:25:43Z</time></trkpt>
<trkpt lat="27.045662" lon="98.87868">
<time>2014-08-05T02:25:44Z</time></trkpt>
<trkpt lat="27.045941" lon="98.87861">
<time>2014-08-05T02:25:45Z</time></trkpt>
<trkpt lat="27.046581" lon="98.87847">
<time>2014-08-05T02:25:46Z</time></trkpt>
<trkpt lat="27.046811" lon="98.87842">
<time>2014-08-05T02:25:47Z</time></trkpt>
<trkpt lat="27.046971" lon="98.8784">
<time>2014-08-05T02:25:48Z</time></trkpt>
<trkpt lat="27.047101" lon="98.87838">
<time>2014-08-05T02:25:49Z</time></trkpt>
<trkpt lat="27.047411" lon="98.87835">
<time>2014-08-05T02:25:50Z</time></trkpt>
<trkpt lat="27.047901" lon="98.87832">
<time>2014-08-05T02:25:51Z</time></trkpt>
<trkpt lat="27.048031" lon="98.87832">
<time>2014-08-05T02:25:52Z</time></trkpt>
<trkpt lat="27.048141" lon="98.87831">
<time>2014-08-05T02:25:53Z</time></trkpt>
<trkpt lat="27.048311" lon="98.87829">
<time>2014-08-05T02:25:54Z</time></trkpt>
<trkpt lat="27.04861" lon="98.87827">
<time>2014-08-05T02:25:55Z</time></trkpt>
<trkpt lat="27.04936" lon="98.87821">
<time>2014-08-05T02:25:56Z</time></trkpt>
<trkpt lat="27.04951" lon="98.87818">
<time>2014-08-05T02:25:57Z</time></trkpt>
<trkpt lat="27.04966" lon="98.87815">
<time>2014-08-05T02:25:58Z</time></trkpt>
<trkpt lat="27.04975" lon="98.87813">
<time>2014-08-05T02:25:59Z</time></trkpt>
<trkpt lat="27.04983" lon="98.8781">
<time>2014-08-05T02:26:00Z</time></trkpt>
<trkpt lat="27.04991" lon="98.87806">
<time>2014-08-05T02:26:01Z</time></trkpt>
<trkpt lat="27.05002" lon="98.878">
<time>2014-08-05T02:26:02Z</time></trkpt>
<trkpt lat="27.05011" lon="98.87795">
<time>2014-08-05T02:26:03Z</time></trkpt>
<trkpt lat="27.05021" lon="98.87787">
<time>2014-08-05T02:26:04Z</time></trkpt>
<trkpt lat="27.05033" lon="98.87777">
<time>2014-08-05T02:26:05Z</time></trkpt>
<trkpt lat="27.050389" lon="98.87769">
<time>2014-08-05T02:26:06Z</time></trkpt>
<trkpt lat="27.050449" lon="98.87757">
<time>2014-08-05T02:26:07Z</time></trkpt>
<trkpt lat="27.050539" lon="98.87741">
<time>2014-08-05T02:26:08Z</time></trkpt>
<trkpt lat="27.050619" lon="98.87728">
<time>2014-08-05T02:26:09Z</time></trkpt>
<trkpt lat="27.050659" lon="98.87722">
<time>2014-08-05T02:26:10Z</time></trkpt>
<trkpt lat="27.050709" lon="98.87716">
<time>2014-08-05T02:26:11Z</time></trkpt>
<trkpt lat="27.050769" lon="98.87711">
<time>2014-08-05T02:26:12Z</time></trkpt>
<trkpt lat="27.050809" lon="98.87707">
<time>2014-08-05T02:26:13Z</time></trkpt>
<trkpt lat="27.050869" lon="98.87703">
<time>2014-08-05T02:26:14Z</time></trkpt>
<trkpt lat="27.051039" lon="98.87694">
<time>2014-08-05T02:26:15Z</time></trkpt>
<trkpt lat="27.051188" lon="98.87686">
<time>2014-08-05T02:26:16Z</time></trkpt>
<trkpt lat="27.051498" lon="98.87673">
<time>2014-08-05T02:26:17Z</time></trkpt>
<trkpt lat="27.051708" lon="98.87664">
<time>2014-08-05T02:26:18Z</time></trkpt>
<trkpt lat="27.051868" lon="98.87657">
<time>2014-08-05T02:26:19Z</time></trkpt>
<trkpt lat="27.051968" lon="98.87651">
<time>2014-08-05T02:26:20Z</time></trkpt>
<trkpt lat="27.052078" lon="98.87644">
<time>2014-08-05T02:26:21Z</time></trkpt>
<trkpt lat="27.052158" lon="98.87637">
<time>2014-08-05T02:26:22Z</time></trkpt>
<trkpt lat="27.052248" lon="98.8763">
<time>2014-08-05T02:26:23Z</time></trkpt>
<trkpt lat="27.052298" lon="98.87624">
<time>2014-08-05T02:26:24Z</time></trkpt>
<trkpt lat="27.052347" lon="98.876179">
<time>2014-08-05T02:26:25Z</time></trkpt>
<trkpt lat="27.053126" lon="98.875249">
<time>2014-08-05T02:26:26Z</time></trkpt>
<trkpt lat="27.053346" lon="98.875029">
<time>2014-08-05T02:26:27Z</time></trkpt>
<trkpt lat="27.053536" lon="98.874869">
<time>2014-08-05T02:26:28Z</time></trkpt>
<trkpt lat="27.053586" lon="98.874839">
<time>2014-08-05T02:26:29Z</time></trkpt>
<trkpt lat="27.053676" lon="98.874789">
<time>2014-08-05T02:26:30Z</time></trkpt>
<trkpt lat="27.053746" lon="98.874749">
<time>2014-08-05T02:26:31Z</time></trkpt>
<trkpt lat="27.054005" lon="98.874599">
<time>2014-08-05T02:26:32Z</time></trkpt>
<trkpt lat="27.054135" lon="98.874509">
<time>2014-08-05T02:26:33Z</time></trkpt>
<trkpt lat="27.054305" lon="98.874389">
<time>2014-08-05T02:26:34Z</time></trkpt>
<trkpt lat="27.054465" lon="98.874269">
<time>2014-08-05T02:26:35Z</time></trkpt>
<trkpt lat="27.054595" lon="98.874169">
<time>2014-08-05T02:26:36Z</time></trkpt>
<trkpt lat="27.054675" lon="98.874109">
<time>2014-08-05T02:26:37Z</time></trkpt>
<trkpt lat="27.054765" lon="98.874019">
<time>2014-08-05T02:26:38Z</time></trkpt>
<trkpt lat="27.055014" lon="98.873729">
<time>2014-08-05T02:26:39Z</time></trkpt>
<trkpt lat="27.055124" lon="98.873619">
<time>2014-08-05T02:26:40Z</time></trkpt>
<trkpt lat="27.055234" lon="98.873538">
<time>2014-08-05T02:26:41Z</time></trkpt>
<trkpt lat="27.055633" lon="98.873228">
<time>2014-08-05T02:26:42Z</time></trkpt>
<trkpt lat="27.055693" lon="98.873198">
<time>2014-08-05T02:26:43Z</time></trkpt>
<trkpt lat="27.055743" lon="98.873168">
<time>2014-08-05T02:26:44Z</time></trkpt>
<trkpt lat="27.055783" lon="98.873158">
<time>2014-08-05T02:26:45Z</time></trkpt>
<trkpt lat="27.055833" lon="98.873148">
<time>2014-08-05T02:26:46Z</time></trkpt>
<trkpt lat="27.055883" lon="98.873138">
<time>2014-08-05T02:26:47Z</time></trkpt>
<trkpt lat="27.055943" lon="98.873138">
<time>2014-08-05T02:26:48Z</time></trkpt>
<trkpt lat="27.056033" lon="98.873138">
<time>2014-08-05T02:26:49Z</time></trkpt>
<trkpt lat="27.056893" lon="98.873218">
<time>2014-08-05T02:26:50Z</time></trkpt>
<trkpt lat="27.056993" lon="98.873228">
<time>2014-08-05T02:26:51Z</time></trkpt>
<trkpt lat="27.057123" lon="98.873228">
<time>2014-08-05T02:26:52Z</time></trkpt>
<trkpt lat="27.057223" lon="98.873228">
<time>2014-08-05T02:26:53Z</time></trkpt>
<trkpt lat="27.057323" lon="98.873228">
<time>2014-08-05T02:26:54Z</time></trkpt>
<trkpt lat="27.057413" lon="98.873218">
<time>2014-08-05T02:26:55Z</time></trkpt>
<trkpt lat="27.057523" lon="98.873198">
<time>2014-08-05T02:26:56Z</time></trkpt>
<trkpt lat="27.057623" lon="98.873178">
<time>2014-08-05T02:26:57Z</time></trkpt>
<trkpt lat="27.057753" lon="98.873148">
<time>2014-08-05T02:26:58Z</time></trkpt>
<trkpt lat="27.058462" lon="98.872938">
<time>2014-08-05T02:26:59Z</time></trkpt>
<trkpt lat="27.058532" lon="98.872918">
<time>2014-08-05T02:27:00Z</time></trkpt>
<trkpt lat="27.058622" lon="98.872898">
<time>2014-08-05T02:27:01Z</time></trkpt>
<trkpt lat="27.058662" lon="98.872898">
<time>2014-08-05T02:27:02Z</time></trkpt>
<trkpt lat="27.058702" lon="98.872888">
<time>2014-08-05T02:27:03Z</time></trkpt>
<trkpt lat="27.058762" lon="98.872888">
<time>2014-08-05T02:27:04Z</time></trkpt>
<trkpt lat="27.058822" lon="98.872878">
<time>2014-08-05T02:27:05Z</time></trkpt>
<trkpt lat="27.059112" lon="98.872898">
<time>2014-08-05T02:27:06Z</time></trkpt>
<trkpt lat="27.059372" lon="98.872918">
<time>2014-08-05T02:27:07Z</time></trkpt>
<trkpt lat="27.059502" lon="98.872918">
<time>2014-08-05T02:27:08Z</time></trkpt>
<trkpt lat="27.059682" lon="98.872908">
<time>2014-08-05T02:27:09Z</time></trkpt>
<trkpt lat="27.059912" lon="98.872888">
<time>2014-08-05T02:27:10Z</time></trkpt>
<trkpt lat="27.060062" lon="98.872868">
<time>2014-08-05T02:27:11Z</time></trkpt>
<trkpt lat="27.060152" lon="98.872868">
<time>2014-08-05T02:27:12Z</time></trkpt>
<trkpt lat="27.060242" lon="98.872868">
<time>2014-08-05T02:27:13Z</time></trkpt>
<trkpt lat="27.060342" lon="98.872868">
<time>2014-08-05T02:27:14Z</time></trkpt>
<trkpt lat="27.060432" lon="98.872878">
<time>2014-08-05T02:27:15Z</time></trkpt>
<trkpt lat="27.060522" lon="98.872888">
<time>2014-08-05T02:27:16Z</time></trkpt>
<trkpt lat="27.060882" lon="98.872938">
<time>2014-08-05T02:27:17Z</time></trkpt>
<trkpt lat="27.061452" lon="98.873008">
<time>2014-08-05T02:27:18Z</time></trkpt>
<trkpt lat="27.061882" lon="98.873048">
<time>2014-08-05T02:27:19Z</time></trkpt>
<trkpt lat="27.062072" lon="98.873078">
<time>2014-08-05T02:27:20Z</time></trkpt>
<trkpt lat="27.062182" lon="98.873098">
<time>2014-08-05T02:27:21Z</time></trkpt>
<trkpt lat="27.062302" lon="98.873128">
<time>2014-08-05T02:27:22Z</time></trkpt>
<trkpt lat="27.062472" lon="98.873168">
<time>2014-08-05T02:27:23Z</time></trkpt>
<trkpt lat="27.062542" lon="98.873178">
<time>2014-08-05T02:27:24Z</time></trkpt>
<trkpt lat="27.062612" lon="98.873188">
<time>2014-08-05T02:27:25Z</time></trkpt>
<trkpt lat="27.062682" lon="98.873198">
<time>2014-08-05T02:27:26Z</time></trkpt>
<trkpt lat="27.062782" lon="98.873198">
<time>2014-08-05T02:27:27Z</time></trkpt>
<trkpt lat="27.062872" lon="98.873198">
<time>2014-08-05T02:27:28Z</time></trkpt>
<trkpt lat="27.062981" lon="98.873178">
<time>2014-08-05T02:27:29Z</time></trkpt>
<trkpt lat="27.063281" lon="98.873128">
<time>2014-08-05T02:27:30Z</time></trkpt>
<trkpt lat="27.063451" lon="98.873098">
<time>2014-08-05T02:27:31Z</time></trkpt>
<trkpt lat="27.063561" lon="98.873098">
<time>2014-08-05T02:27:32Z</time></trkpt>
<trkpt lat="27.063681" lon="98.873098">
<time>2014-08-05T02:27:33Z</time></trkpt>
<trkpt lat="27.063801" lon="98.873098">
<time>2014-08-05T02:27:34Z</time></trkpt>
<trkpt lat="27.063921" lon="98.873108">
<time>2014-08-05T02:27:35Z</time></trkpt>
<trkpt lat="27.064401" lon="98.873168">
<time>2014-08-05T02:27:36Z</time></trkpt>
<trkpt lat="27.064531" lon="98.873178">
<time>2014-08-05T02:27:37Z</time></trkpt>
<trkpt lat="27.065011" lon="98.873238">
<time>2014-08-05T02:27:38Z</time></trkpt>
<trkpt lat="27.065411" lon="98.873288">
<time>2014-08-05T02:27:39Z</time></trkpt>
<trkpt lat="27.065601" lon="98.873318">
<time>2014-08-05T02:27:40Z</time></trkpt>
<trkpt lat="27.065751" lon="98.873348">
<time>2014-08-05T02:27:41Z</time></trkpt>
<trkpt lat="27.066141" lon="98.873418">
<time>2014-08-05T02:27:42Z</time></trkpt>
<trkpt lat="27.066661" lon="98.873508">
<time>2014-08-05T02:27:43Z</time></trkpt>
<trkpt lat="27.067071" lon="98.873588">
<time>2014-08-05T02:27:44Z</time></trkpt>
<trkpt lat="27.067221" lon="98.873608">
<time>2014-08-05T02:27:45Z</time></trkpt>
<trkpt lat="27.067351" lon="98.873608">
<time>2014-08-05T02:27:46Z</time></trkpt>
<trkpt lat="27.067491" lon="98.873608">
<time>2014-08-05T02:27:47Z</time></trkpt>
<trkpt lat="27.06838" lon="98.873578">
<time>2014-08-05T02:27:48Z</time></trkpt>
<trkpt lat="27.06851" lon="98.873578">
<time>2014-08-05T02:27:49Z</time></trkpt>
<trkpt lat="27.06891" lon="98.873558">
<time>2014-08-05T02:27:50Z</time></trkpt>
<trkpt lat="27.06905" lon="98.873558">
<time>2014-08-05T02:27:51Z</time></trkpt>
<trkpt lat="27.0693" lon="98.873538">
<time>2014-08-05T02:27:52Z</time></trkpt>
<trkpt lat="27.0698" lon="98.873498">
<time>2014-08-05T02:27:53Z</time></trkpt>
<trkpt lat="27.07" lon="98.873478">
<time>2014-08-05T02:27:54Z</time></trkpt>
<trkpt lat="27.07011" lon="98.873478">
<time>2014-08-05T02:27:55Z</time></trkpt>
<trkpt lat="27.07026" lon="98.873478">
<time>2014-08-05T02:27:56Z</time></trkpt>
<trkpt lat="27.07087" lon="98.873488">
<time>2014-08-05T02:27:57Z</time></trkpt>
<trkpt lat="27.07136" lon="98.873508">
<time>2014-08-05T02:27:58Z</time></trkpt>
<trkpt lat="27.07145" lon="98.873508">
<time>2014-08-05T02:27:59Z</time></trkpt>
<trkpt lat="27.07153" lon="98.873498">
<time>2014-08-05T02:28:00Z</time></trkpt>
<trkpt lat="27.0716" lon="98.873488">
<time>2014-08-05T02:28:01Z</time></trkpt>
<trkpt lat="27.071699" lon="98.873468">
<time>2014-08-05T02:28:02Z</time></trkpt>
<trkpt lat="27.071819" lon="98.873438">
<time>2014-08-05T02:28:03Z</time></trkpt>
<trkpt lat="27.071869" lon="98.873428">
<time>2014-08-05T02:28:04Z</time></trkpt>
<trkpt lat="27.071899" lon="98.873428">
<time>2014-08-05T02:28:05Z</time></trkpt>
<trkpt lat="27.071929" lon="98.873428">
<time>2014-08-05T02:28:06Z</time></trkpt>
<trkpt lat="27.071949" lon="98.873428">
<time>2014-08-05T02:28:07Z</time></trkpt>
<trkpt lat="27.071979" lon="98.873428">
<time>2014-08-05T02:28:08Z</time></trkpt>
<trkpt lat="27.071999" lon="98.873428">
<time>2014-08-05T02:28:09Z</time></trkpt>
<trkpt lat="27.072029" lon="98.873438">
<time>2014-08-05T02:28:10Z</time></trkpt>
<trkpt lat="27.072059" lon="98.873438">
<time>2014-08-05T02:28:11Z</time></trkpt>
<trkpt lat="27.072099" lon="98.873458">
<time>2014-08-05T02:28:12Z</time></trkpt>
<trkpt lat="27.072289" lon="98.873508">
<time>2014-08-05T02:28:13Z</time></trkpt>
<trkpt lat="27.072339" lon="98.873518">
<time>2014-08-05T02:28:14Z</time></trkpt>
<trkpt lat="27.072399" lon="98.873528">
<time>2014-08-05T02:28:15Z</time></trkpt>
<trkpt lat="27.072449" lon="98.873538">
<time>2014-08-05T02:28:16Z</time></trkpt>
<trkpt lat="27.072499" lon="98.873548">
<time>2014-08-05T02:28:17Z</time></trkpt>
<trkpt lat="27.072539" lon="98.873548">
<time>2014-08-05T02:28:18Z</time></trkpt>
<trkpt lat="27.072599" lon="98.873538">
<time>2014-08-05T02:28:19Z</time></trkpt>
<trkpt lat="27.072659" lon="98.873538">
<time>2014-08-05T02:28:20Z</time></trkpt>
<trkpt lat="27.072709" lon="98.873528">
<time>2014-08-05T02:28:21Z</time></trkpt>
<trkpt lat="27.072759" lon="98.873518">
<time>2014-08-05T02:28:22Z</time></trkpt>
<trkpt lat="27.072809" lon="98.873508">
<time>2014-08-05T02:28:23Z</time></trkpt>
<trkpt lat="27.072859" lon="98.873488">
<time>2014-08-05T02:28:24Z</time></trkpt>
<trkpt lat="27.072919" lon="98.873468">
<time>2014-08-05T02:28:25Z</time></trkpt>
<trkpt lat="27.072969" lon="98.873448">
<time>2014-08-05T02:28:26Z</time></trkpt>
<trkpt lat="27.073019" lon="98.873428">
<time>2014-08-05T02:28:27Z</time></trkpt>
<trkpt lat="27.073119" lon="98.873378">
<time>2014-08-05T02:28:28Z</time></trkpt>
<trkpt lat="27.073309" lon="98.873268">
<time>2014-08-05T02:28:29Z</time></trkpt>
<trkpt lat="27.073359" lon="98.873248">
<time>2014-08-05T02:28:30Z</time></trkpt>
<trkpt lat="27.073419" lon="98.873228">
<time>2014-08-05T02:28:31Z</time></trkpt>
<trkpt lat="27.073459" lon="98.873218">
<time>2014-08-05T02:28:32Z</time></trkpt>
<trkpt lat="27.073489" lon="98.873208">
<time>2014-08-05T02:28:33Z</time></trkpt>
<trkpt lat="27.073519" lon="98.873208">
<time>2014-08-05T02:28:34Z</time></trkpt>
<trkpt lat="27.073549" lon="98.873198">
<time>2014-08-05T02:28:35Z</time></trkpt>
<trkpt lat="27.073579" lon="98.873198">
<time>2014-08-05T02:28:36Z</time></trkpt>
<trkpt lat="27.073689" lon="98.873198">
<time>2014-08-05T02:28:37Z</time></trkpt>
<trkpt lat="27.073909" lon="98.873218">
<time>2014-08-05T02:28:38Z</time></trkpt>
<trkpt lat="27.074149" lon="98.873228">
<time>2014-08-05T02:28:39Z</time></trkpt>
<trkpt lat="27.074269" lon="98.873238">
<time>2014-08-05T02:28:40Z</time></trkpt>
<trkpt lat="27.074418" lon="98.873238">
<time>2014-08-05T02:28:41Z</time></trkpt>
<trkpt lat="27.074628" lon="98.873228">
<time>2014-08-05T02:28:42Z</time></trkpt>
<trkpt lat="27.074698" lon="98.873228">
<time>2014-08-05T02:28:43Z</time></trkpt>
<trkpt lat="27.074778" lon="98.873228">
<time>2014-08-05T02:28:44Z</time></trkpt>
<trkpt lat="27.074818" lon="98.873228">
<time>2014-08-05T02:28:45Z</time></trkpt>
<trkpt lat="27.074858" lon="98.873228">
<time>2014-08-05T02:28:46Z</time></trkpt>
<trkpt lat="27.074888" lon="98.873238">
<time>2014-08-05T02:28:47Z</time></trkpt>
<trkpt lat="27.074928" lon="98.873248">
<time>2014-08-05T02:28:48Z</time></trkpt>
<trkpt lat="27.075078" lon="98.873288">
<time>2014-08-05T02:28:49Z</time></trkpt>
<trkpt lat="27.075238" lon="98.873318">
<time>2014-08-05T02:28:50Z</time></trkpt>
<trkpt lat="27.075318" lon="98.873328">
<time>2014-08-05T02:28:51Z</time></trkpt>
<trkpt lat="27.075368" lon="98.873338">
<time>2014-08-05T02:28:52Z</time></trkpt>
<trkpt lat="27.075388" lon="98.873338">
<time>2014-08-05T02:28:53Z</time></trkpt>
<trkpt lat="27.075408" lon="98.873348">
<time>2014-08-05T02:28:54Z</time></trkpt>
<trkpt lat="27.075448" lon="98.873348">
<time>2014-08-05T02:28:55Z</time></trkpt>
<trkpt lat="27.075458" lon="98.873348">
<time>2014-08-05T02:28:56Z</time></trkpt>
<trkpt lat="27.075468" lon="98.873348">
<time>2014-08-05T02:28:57Z</time></trkpt>
<trkpt lat="27.075488" lon="98.873348">
<time>2014-08-05T02:28:58Z</time></trkpt>
<trkpt lat="27.075508" lon="98.873348">
<time>2014-08-05T02:28:59Z</time></trkpt>
<trkpt lat="27.075568" lon="98.873348">
<time>2014-08-05T02:29:00Z</time></trkpt>
<trkpt lat="27.075638" lon="98.873348">
<time>2014-08-05T02:29:01Z</time></trkpt>
<trkpt lat="27.075688" lon="98.873358">
<time>2014-08-05T02:29:02Z</time></trkpt>
<trkpt lat="27.075728" lon="98.873358">
<time>2014-08-05T02:29:03Z</time></trkpt>
<trkpt lat="27.075808" lon="98.873368">
<time>2014-08-05T02:29:04Z</time></trkpt>
<trkpt lat="27.075858" lon="98.873378">
<time>2014-08-05T02:29:05Z</time></trkpt>
<trkpt lat="27.075898" lon="98.873388">
<time>2014-08-05T02:29:06Z</time></trkpt>
<trkpt lat="27.075968" lon="98.873408">
<time>2014-08-05T02:29:07Z</time></trkpt>
<trkpt lat="27.076008" lon="98.873418">
<time>2014-08-05T02:29:08Z</time></trkpt>
<trkpt lat="27.076128" lon="98.873448">
<time>2014-08-05T02:29:09Z</time></trkpt>
<trkpt lat="27.076268" lon="98.873488">
<time>2014-08-05T02:29:10Z</time></trkpt>
<trkpt lat="27.076398" lon="98.873528">
<time>2014-08-05T02:29:11Z</time></trkpt>
<trkpt lat="27.076568" lon="98.873578">
<time>2014-08-05T02:29:12Z</time></trkpt>
<trkpt lat="27.076708" lon="98.873628">
<time>2014-08-05T02:29:13Z</time></trkpt>
<trkpt lat="27.077018" lon="98.873768">
<time>2014-08-05T02:29:14Z</time></trkpt>
<trkpt lat="27.077098" lon="98.873808">
<time>2014-08-05T02:29:15Z</time></trkpt>
<trkpt lat="27.077128" lon="98.873818">
<time>2014-08-05T02:29:16Z</time></trkpt>
<trkpt lat="27.077158" lon="98.873828">
<time>2014-08-05T02:29:17Z</time></trkpt>
<trkpt lat="27.077188" lon="98.873838">
<time>2014-08-05T02:29:18Z</time></trkpt>
<trkpt lat="27.077208" lon="98.873838">
<time>2014-08-05T02:29:19Z</time></trkpt>
<trkpt lat="27.077238" lon="98.873848">
<time>2014-08-05T02:29:20Z</time></trkpt>
<trkpt lat="27.077268" lon="98.873848">
<time>2014-08-05T02:29:21Z</time></trkpt>
<trkpt lat="27.077288" lon="98.873848">
<time>2014-08-05T02:29:22Z</time></trkpt>
<trkpt lat="27.077308" lon="98.873848">
<time>2014-08-05T02:29:23Z</time></trkpt>
<trkpt lat="27.077328" lon="98.873838">
<time>2014-08-05T02:29:24Z</time></trkpt>
<trkpt lat="27.077348" lon="98.873838">
<time>2014-08-05T02:29:25Z</time></trkpt>
<trkpt lat="27.077378" lon="98.873828">
<time>2014-08-05T02:29:26Z</time></trkpt>
<trkpt lat="27.077418" lon="98.873818">
<time>2014-08-05T02:29:27Z</time></trkpt>
<trkpt lat="27.077458" lon="98.873788">
<time>2014-08-05T02:29:28Z</time></trkpt>
<trkpt lat="27.077888" lon="98.873548">
<time>2014-08-05T02:29:29Z</time></trkpt>
<trkpt lat="27.077978" lon="98.873498">
<time>2014-08-05T02:29:30Z</time></trkpt>
<trkpt lat="27.078088" lon="98.873448">
<time>2014-08-05T02:29:31Z</time></trkpt>
<trkpt lat="27.078178" lon="98.873418">
<time>2014-08-05T02:29:32Z</time></trkpt>
<trkpt lat="27.078268" lon="98.873398">
<time>2014-08-05T02:29:33Z</time></trkpt>
<trkpt lat="27.078358" lon="98.873358">
<time>2014-08-05T02:29:34Z</time></trkpt>
<trkpt lat="27.078458" lon="98.873348">
<time>2014-08-05T02:29:35Z</time></trkpt>
<trkpt lat="27.078597" lon="98.873358">
<time>2014-08-05T02:29:36Z</time></trkpt>
<trkpt lat="27.078767" lon="98.873368">
<time>2014-08-05T02:29:37Z</time></trkpt>
<trkpt lat="27.079087" lon="98.873388">
<time>2014-08-05T02:29:38Z</time></trkpt>
<trkpt lat="27.079217" lon="98.873398">
<time>2014-08-05T02:29:39Z</time></trkpt>
<trkpt lat="27.079347" lon="98.873428">
<time>2014-08-05T02:29:40Z</time></trkpt>
<trkpt lat="27.079477" lon="98.873468">
<time>2014-08-05T02:29:41Z</time></trkpt>
<trkpt lat="27.079607" lon="98.873498">
<time>2014-08-05T02:29:42Z</time></trkpt>
<trkpt lat="27.079687" lon="98.873518">
<time>2014-08-05T02:29:43Z</time></trkpt>
<trkpt lat="27.079737" lon="98.873528">
<time>2014-08-05T02:29:44Z</time></trkpt>
<trkpt lat="27.079817" lon="98.873518">
<time>2014-08-05T02:29:45Z</time></trkpt>
<trkpt lat="27.079917" lon="98.873508">
<time>2014-08-05T02:29:46Z</time></trkpt>
<trkpt lat="27.080127" lon="98.873448">
<time>2014-08-05T02:29:47Z</time></trkpt>
<trkpt lat="27.080257" lon="98.873428">
<time>2014-08-05T02:29:48Z</time></trkpt>
<trkpt lat="27.080377" lon="98.873408">
<time>2014-08-05T02:29:49Z</time></trkpt>
<trkpt lat="27.080527" lon="98.873398">
<time>2014-08-05T02:29:50Z</time></trkpt>
<trkpt lat="27.082357" lon="98.873388">
<time>2014-08-05T02:29:51Z</time></trkpt>
<trkpt lat="27.082766" lon="98.873368">
<time>2014-08-05T02:29:52Z</time></trkpt>
<trkpt lat="27.082896" lon="98.873348">
<time>2014-08-05T02:29:53Z</time></trkpt>
<trkpt lat="27.083026" lon="98.873328">
<time>2014-08-05T02:29:54Z</time></trkpt>
<trkpt lat="27.083346" lon="98.873288">
<time>2014-08-05T02:29:55Z</time></trkpt>
<trkpt lat="27.083526" lon="98.873278">
<time>2014-08-05T02:29:56Z</time></trkpt>
<trkpt lat="27.083936" lon="98.873288">
<time>2014-08-05T02:29:57Z</time></trkpt>
<trkpt lat="27.084246" lon="98.873278">
<time>2014-08-05T02:29:58Z</time></trkpt>
<trkpt lat="27.084416" lon="98.873268">
<time>2014-08-05T02:29:59Z</time></trkpt>
<trkpt lat="27.084686" lon="98.873258">
<time>2014-08-05T02:30:00Z</time></trkpt>
<trkpt lat="27.084926" lon="98.873268">
<time>2014-08-05T02:30:01Z</time></trkpt>
<trkpt lat="27.085566" lon="98.873258">
<time>2014-08-05T02:30:02Z</time></trkpt>
<trkpt lat="27.085795" lon="98.873238">
<time>2014-08-05T02:30:03Z</time></trkpt>
<trkpt lat="27.086195" lon="98.873168">
<time>2014-08-05T02:30:04Z</time></trkpt>
<trkpt lat="27.086435" lon="98.873108">
<time>2014-08-05T02:30:05Z</time></trkpt>
<trkpt lat="27.086595" lon="98.873068">
<time>2014-08-05T02:30:06Z</time></trkpt>
<trkpt lat="27.086885" lon="98.872958">
<time>2014-08-05T02:30:07Z</time></trkpt>
<trkpt lat="27.086935" lon="98.872948">
<time>2014-08-05T02:30:08Z</time></trkpt>
<trkpt lat="27.086985" lon="98.872928">
<time>2014-08-05T02:30:09Z</time></trkpt>
<trkpt lat="27.087035" lon="98.872918">
<time>2014-08-05T02:30:10Z</time></trkpt>
<trkpt lat="27.087085" lon="98.872918">
<time>2014-08-05T02:30:11Z</time></trkpt>
<trkpt lat="27.087125" lon="98.872918">
<time>2014-08-05T02:30:12Z</time></trkpt>
<trkpt lat="27.087165" lon="98.872928">
<time>2014-08-05T02:30:13Z</time></trkpt>
<trkpt lat="27.087275" lon="98.872958">
<time>2014-08-05T02:30:14Z</time></trkpt>
<trkpt lat="27.087605" lon="98.873068">
<time>2014-08-05T02:30:15Z</time></trkpt>
<trkpt lat="27.087885" lon="98.873158">
<time>2014-08-05T02:30:16Z</time></trkpt>
<trkpt lat="27.088055" lon="98.873198">
<time>2014-08-05T02:30:17Z</time></trkpt>
<trkpt lat="27.088205" lon="98.873238">
<time>2014-08-05T02:30:18Z</time></trkpt>
<trkpt lat="27.088305" lon="98.873268">
<time>2014-08-05T02:30:19Z</time></trkpt>
<trkpt lat="27.088495" lon="98.873338">
<time>2014-08-05T02:30:20Z</time></trkpt>
<trkpt lat="27.088725" lon="98.873418">
<time>2014-08-05T02:30:21Z</time></trkpt>
<trkpt lat="27.088895" lon="98.873468">
<time>2014-08-05T02:30:22Z</time></trkpt>
<trkpt lat="27.089085" lon="98.873518">
<time>2014-08-05T02:30:23Z</time></trkpt>
<trkpt lat="27.089285" lon="98.873568">
<time>2014-08-05T02:30:24Z</time></trkpt>
<trkpt lat="27.089435" lon="98.873598">
<time>2014-08-05T02:30:25Z</time></trkpt>
<trkpt lat="27.089585" lon="98.873608">
<time>2014-08-05T02:30:26Z</time></trkpt>
<trkpt lat="27.089735" lon="98.873608">
<time>2014-08-05T02:30:27Z</time></trkpt>
<trkpt lat="27.089885" lon="98.873598">
<time>2014-08-05T02:30:28Z</time></trkpt>
<trkpt lat="27.090055" lon="98.873578">
<time>2014-08-05T02:30:29Z</time></trkpt>
<trkpt lat="27.090195" lon="98.873578">
<time>2014-08-05T02:30:30Z</time></trkpt>
<trkpt lat="27.090295" lon="98.873578">
<time>2014-08-05T02:30:31Z</time></trkpt>
<trkpt lat="27.090405" lon="98.873588">
<time>2014-08-05T02:30:32Z</time></trkpt>
<trkpt lat="27.090535" lon="98.873598">
<time>2014-08-05T02:30:33Z</time></trkpt>
<trkpt lat="27.090695" lon="98.873628">
<time>2014-08-05T02:30:34Z</time></trkpt>
<trkpt lat="27.090855" lon="98.873638">
<time>2014-08-05T02:30:35Z</time></trkpt>
<trkpt lat="27.091014" lon="98.873638">
<time>2014-08-05T02:30:36Z</time></trkpt>
<trkpt lat="27.091374" lon="98.873598">
<time>2014-08-05T02:30:37Z</time></trkpt>
<trkpt lat="27.091664" lon="98.873588">
<time>2014-08-05T02:30:38Z</time></trkpt>
<trkpt lat="27.092064" lon="98.873628">
<time>2014-08-05T02:30:39Z</time></trkpt>
<trkpt lat="27.092234" lon="98.873638">
<time>2014-08-05T02:30:40Z</time></trkpt>
<trkpt lat="27.092394" lon="98.873638">
<time>2014-08-05T02:30:41Z</time></trkpt>
<trkpt lat="27.092494" lon="98.873658">
<time>2014-08-05T02:30:42Z</time></trkpt>
<trkpt lat="27.092554" lon="98.873668">
<time>2014-08-05T02:30:43Z</time></trkpt>
<trkpt lat="27.092624" lon="98.873688">
<time>2014-08-05T02:30:44Z</time></trkpt>
<trkpt lat="27.092684" lon="98.873718">
<time>2014-08-05T02:30:45Z</time></trkpt>
<trkpt lat="27.092754" lon="98.873748">
<time>2014-08-05T02:30:46Z</time></trkpt>
<trkpt lat="27.092854" lon="98.873798">
<time>2014-08-05T02:30:47Z</time></trkpt>
<trkpt lat="27.092904" lon="98.873818">
<time>2014-08-05T02:30:48Z</time></trkpt>
<trkpt lat="27.092954" lon="98.873838">
<time>2014-08-05T02:30:49Z</time></trkpt>
<trkpt lat="27.093014" lon="98.873848">
<time>2014-08-05T02:30:50Z</time></trkpt>
<trkpt lat="27.093074" lon="98.873858">
<time>2014-08-05T02:30:51Z</time></trkpt>
<trkpt lat="27.093164" lon="98.873858">
<time>2014-08-05T02:30:52Z</time></trkpt>
<trkpt lat="27.093214" lon="98.873858">
<time>2014-08-05T02:30:53Z</time></trkpt>
<trkpt lat="27.093284" lon="98.873848">
<time>2014-08-05T02:30:54Z</time></trkpt>
<trkpt lat="27.093394" lon="98.873838">
<time>2014-08-05T02:30:55Z</time></trkpt>
<trkpt lat="27.093724" lon="98.873798">
<time>2014-08-05T02:30:56Z</time></trkpt>
<trkpt lat="27.094134" lon="98.873758">
<time>2014-08-05T02:30:57Z</time></trkpt>
<trkpt lat="27.094254" lon="98.873748">
<time>2014-08-05T02:30:58Z</time></trkpt>
<trkpt lat="27.094534" lon="98.873758">
<time>2014-08-05T02:30:59Z</time></trkpt>
<trkpt lat="27.094664" lon="98.873778">
<time>2014-08-05T02:31:00Z</time></trkpt>
<trkpt lat="27.094774" lon="98.873798">
<time>2014-08-05T02:31:01Z</time></trkpt>
<trkpt lat="27.094974" lon="98.873848">
<time>2014-08-05T02:31:02Z</time></trkpt>
<trkpt lat="27.095194" lon="98.873908">
<time>2014-08-05T02:31:03Z</time></trkpt>
<trkpt lat="27.095454" lon="98.873998">
<time>2014-08-05T02:31:04Z</time></trkpt>
<trkpt lat="27.095724" lon="98.874088">
<time>2014-08-05T02:31:05Z</time></trkpt>
<trkpt lat="27.095884" lon="98.874128">
<time>2014-08-05T02:31:06Z</time></trkpt>
<trkpt lat="27.096094" lon="98.874178">
<time>2014-08-05T02:31:07Z</time></trkpt>
<trkpt lat="27.096304" lon="98.874208">
<time>2014-08-05T02:31:08Z</time></trkpt>
<trkpt lat="27.096514" lon="98.874208">
<time>2014-08-05T02:31:09Z</time></trkpt>
<trkpt lat="27.096784" lon="98.874218">
<time>2014-08-05T02:31:10Z</time></trkpt>
<trkpt lat="27.097074" lon="98.874268">
<time>2014-08-05T02:31:11Z</time></trkpt>
<trkpt lat="27.097284" lon="98.874308">
<time>2014-08-05T02:31:12Z</time></trkpt>
<trkpt lat="27.097434" lon="98.874328">
<time>2014-08-05T02:31:13Z</time></trkpt>
<trkpt lat="27.097593" lon="98.874328">
<time>2014-08-05T02:31:14Z</time></trkpt>
<trkpt lat="27.097723" lon="98.874318">
<time>2014-08-05T02:31:15Z</time></trkpt>
<trkpt lat="27.097833" lon="98.874298">
<time>2014-08-05T02:31:16Z</time></trkpt>
<trkpt lat="27.097933" lon="98.874278">
<time>2014-08-05T02:31:17Z</time></trkpt>
<trkpt lat="27.098123" lon="98.874258">
<time>2014-08-05T02:31:18Z</time></trkpt>
<trkpt lat="27.098213" lon="98.874248">
<time>2014-08-05T02:31:19Z</time></trkpt>
<trkpt lat="27.098313" lon="98.874248">
<time>2014-08-05T02:31:20Z</time></trkpt>
<trkpt lat="27.098613" lon="98.874248">
<time>2014-08-05T02:31:21Z</time></trkpt>
<trkpt lat="27.098733" lon="98.874248">
<time>2014-08-05T02:31:22Z</time></trkpt>
<trkpt lat="27.098893" lon="98.874248">
<time>2014-08-05T02:31:23Z</time></trkpt>
<trkpt lat="27.098973" lon="98.874248">
<time>2014-08-05T02:31:24Z</time></trkpt>
<trkpt lat="27.099083" lon="98.874248">
<time>2014-08-05T02:31:25Z</time></trkpt>
<trkpt lat="27.099093" lon="98.874238">
<time>2014-08-05T02:31:26Z</time></trkpt>
<trkpt lat="27.099103" lon="98.874238">
<time>2014-08-05T02:31:27Z</time></trkpt>
<trkpt lat="27.099173" lon="98.874228">
<time>2014-08-05T02:31:28Z</time></trkpt>
<trkpt lat="27.099183" lon="98.874218">
<time>2014-08-05T02:31:29Z</time></trkpt>
<trkpt lat="27.099193" lon="98.874218">
<time>2014-08-05T02:31:30Z</time></trkpt>
<trkpt lat="27.099243" lon="98.874208">
<time>2014-08-05T02:31:31Z</time></trkpt>
<trkpt lat="27.099293" lon="98.874188">
<time>2014-08-05T02:31:32Z</time></trkpt>
<trkpt lat="27.099333" lon="98.874168">
<time>2014-08-05T02:31:33Z</time></trkpt>
<trkpt lat="27.099533" lon="98.874078">
<time>2014-08-05T02:31:34Z</time></trkpt>
<trkpt lat="27.099693" lon="98.873988">
<time>2014-08-05T02:31:35Z</time></trkpt>
<trkpt lat="27.099832" lon="98.873898">
<time>2014-08-05T02:31:36Z</time></trkpt>
<trkpt lat="27.099972" lon="98.873828">
<time>2014-08-05T02:31:37Z</time></trkpt>
<trkpt lat="27.100092" lon="98.873758">
<time>2014-08-05T02:31:38Z</time></trkpt>
<trkpt lat="27.100182" lon="98.873718">
<time>2014-08-05T02:31:39Z</time></trkpt>
<trkpt lat="27.100222" lon="98.873708">
<time>2014-08-05T02:31:40Z</time></trkpt>
<trkpt lat="27.100272" lon="98.873688">
<time>2014-08-05T02:31:41Z</time></trkpt>
<trkpt lat="27.100312" lon="98.873678">
<time>2014-08-05T02:31:42Z</time></trkpt>
<trkpt lat="27.100352" lon="98.873668">
<time>2014-08-05T02:31:43Z</time></trkpt>
<trkpt lat="27.100372" lon="98.873668">
<time>2014-08-05T02:31:44Z</time></trkpt>
<trkpt lat="27.100422" lon="98.873658">
<time>2014-08-05T02:31:45Z</time></trkpt>
<trkpt lat="27.100492" lon="98.873648">
<time>2014-08-05T02:31:46Z</time></trkpt>
<trkpt lat="27.100792" lon="98.873628">
<time>2014-08-05T02:31:47Z</time></trkpt>
<trkpt lat="27.101172" lon="98.873608">
<time>2014-08-05T02:31:48Z</time></trkpt>
<trkpt lat="27.101782" lon="98.873578">
<time>2014-08-05T02:31:49Z</time></trkpt>
<trkpt lat="27.102401" lon="98.873548">
<time>2014-08-05T02:31:50Z</time></trkpt>
<trkpt lat="27.102691" lon="98.873528">
<time>2014-08-05T02:31:51Z</time></trkpt>
<trkpt lat="27.103191" lon="98.873508">
<time>2014-08-05T02:31:52Z</time></trkpt>
<trkpt lat="27.103751" lon="98.873478">
<time>2014-08-05T02:31:53Z</time></trkpt>
<trkpt lat="27.104001" lon="98.873478">
<time>2014-08-05T02:31:54Z</time></trkpt>
<trkpt lat="27.104201" lon="98.873488">
<time>2014-08-05T02:31:55Z</time></trkpt>
<trkpt lat="27.104391" lon="98.873508">
<time>2014-08-05T02:31:56Z</time></trkpt>
<trkpt lat="27.104451" lon="98.873518">
<time>2014-08-05T02:31:57Z</time></trkpt>
<trkpt lat="27.104491" lon="98.873528">
<time>2014-08-05T02:31:58Z</time></trkpt>
<trkpt lat="27.104541" lon="98.873538">
<time>2014-08-05T02:31:59Z</time></trkpt>
<trkpt lat="27.104601" lon="98.873558">
<time>2014-08-05T02:32:00Z</time></trkpt>
<trkpt lat="27.104731" lon="98.873608">
<time>2014-08-05T02:32:01Z</time></trkpt>
<trkpt lat="27.104971" lon="98.873698">
<time>2014-08-05T02:32:02Z</time></trkpt>
<trkpt lat="27.105181" lon="98.873768">
<time>2014-08-05T02:32:03Z</time></trkpt>
<trkpt lat="27.105311" lon="98.873798">
<time>2014-08-05T02:32:04Z</time></trkpt>
<trkpt lat="27.105621" lon="98.873888">
<time>2014-08-05T02:32:05Z</time></trkpt>
<trkpt lat="27.105951" lon="98.873998">
<time>2014-08-05T02:32:06Z</time></trkpt>
<trkpt lat="27.106131" lon="98.874058">
<time>2014-08-05T02:32:07Z</time></trkpt>
<trkpt lat="27.106381" lon="98.874148">
<time>2014-08-05T02:32:08Z</time></trkpt>
<trkpt lat="27.106811" lon="98.874298">
<time>2014-08-05T02:32:09Z</time></trkpt>
<trkpt lat="27.107081" lon="98.874398">
<time>2014-08-05T02:32:10Z</time></trkpt>
<trkpt lat="27.107391" lon="98.874508">
<time>2014-08-05T02:32:11Z</time></trkpt>
<trkpt lat="27.107561" lon="98.874568">
<time>2014-08-05T02:32:12Z</time></trkpt>
<trkpt lat="27.107741" lon="98.874628">
<time>2014-08-05T02:32:13Z</time></trkpt>
<trkpt lat="27.108041" lon="98.874728">
<time>2014-08-05T02:32:14Z</time></trkpt>
<trkpt lat="27.108111" lon="98.874748">
<time>2014-08-05T02:32:15Z</time></trkpt>
<trkpt lat="27.108221" lon="98.874778">
<time>2014-08-05T02:32:16Z</time></trkpt>
<trkpt lat="27.108361" lon="98.874828">
<time>2014-08-05T02:32:17Z</time></trkpt>
<trkpt lat="27.108571" lon="98.874878">
<time>2014-08-05T02:32:18Z</time></trkpt>
<trkpt lat="27.108651" lon="98.874908">
<time>2014-08-05T02:32:19Z</time></trkpt>
<trkpt lat="27.108741" lon="98.874938">
<time>2014-08-05T02:32:20Z</time></trkpt>
<trkpt lat="27.108911" lon="98.875008">
<time>2014-08-05T02:32:21Z</time></trkpt>
<trkpt lat="27.110001" lon="98.875398">
<time>2014-08-05T02:32:22Z</time></trkpt>
<trkpt lat="27.110271" lon="98.875498">
<time>2014-08-05T02:32:23Z</time></trkpt>
<trkpt lat="27.110491" lon="98.875568">
<time>2014-08-05T02:32:24Z</time></trkpt>
<trkpt lat="27.110691" lon="98.875658">
<time>2014-08-05T02:32:25Z</time></trkpt>
<trkpt lat="27.110961" lon="98.875808">
<time>2014-08-05T02:32:26Z</time></trkpt>
<trkpt lat="27.111392" lon="98.876078">
<time>2014-08-05T02:32:27Z</time></trkpt>
<trkpt lat="27.111722" lon="98.876308">
<time>2014-08-05T02:32:28Z</time></trkpt>
<trkpt lat="27.112002" lon="98.876509">
<time>2014-08-05T02:32:29Z</time></trkpt>
<trkpt lat="27.112202" lon="98.876659">
<time>2014-08-05T02:32:30Z</time></trkpt>
<trkpt lat="27.112322" lon="98.876769">
<time>2014-08-05T02:32:31Z</time></trkpt>
<trkpt lat="27.112422" lon="98.876879">
<time>2014-08-05T02:32:32Z</time></trkpt>
<trkpt lat="27.112502" lon="98.876979">
<time>2014-08-05T02:32:33Z</time></trkpt>
<trkpt lat="27.112652" lon="98.877209">
<time>2014-08-05T02:32:34Z</time></trkpt>
<trkpt lat="27.112692" lon="98.877249">
<time>2014-08-05T02:32:35Z</time></trkpt>
<trkpt lat="27.112752" lon="98.877319">
<time>2014-08-05T02:32:36Z</time></trkpt>
<trkpt lat="27.112803" lon="98.877369">
<time>2014-08-05T02:32:37Z</time></trkpt>
<trkpt lat="27.112873" lon="98.877429">
<time>2014-08-05T02:32:38Z</time></trkpt>
<trkpt lat="27.112953" lon="98.877469">
<time>2014-08-05T02:32:39Z</time></trkpt>
<trkpt lat="27.113283" lon="98.877609">
<time>2014-08-05T02:32:40Z</time></trkpt>
<trkpt lat="27.113373" lon="98.877669">
<time>2014-08-05T02:32:41Z</time></trkpt>
<trkpt lat="27.113453" lon="98.877719">
<time>2014-08-05T02:32:42Z</time></trkpt>
<trkpt lat="27.113523" lon="98.877769">
<time>2014-08-05T02:32:43Z</time></trkpt>
<trkpt lat="27.113723" lon="98.877979">
<time>2014-08-05T02:32:44Z</time></trkpt>
<trkpt lat="27.113853" lon="98.878079">
<time>2014-08-05T02:32:45Z</time></trkpt>
<trkpt lat="27.114293" lon="98.878359">
<time>2014-08-05T02:32:46Z</time></trkpt>
<trkpt lat="27.114583" lon="98.878579">
<time>2014-08-05T02:32:47Z</time></trkpt>
<trkpt lat="27.115053" lon="98.878969">
<time>2014-08-05T02:32:48Z</time></trkpt>
<trkpt lat="27.115554" lon="98.879319">
<time>2014-08-05T02:32:49Z</time></trkpt>
<trkpt lat="27.115954" lon="98.879569">
<time>2014-08-05T02:32:50Z</time></trkpt>
<trkpt lat="27.116084" lon="98.879669">
<time>2014-08-05T02:32:51Z</time></trkpt>
<trkpt lat="27.116194" lon="98.879749">
<time>2014-08-05T02:32:52Z</time></trkpt>
<trkpt lat="27.116304" lon="98.879849">
<time>2014-08-05T02:32:53Z</time></trkpt>
<trkpt lat="27.116414" lon="98.879949">
<time>2014-08-05T02:32:54Z</time></trkpt>
<trkpt lat="27.116494" lon="98.880009">
<time>2014-08-05T02:32:55Z</time></trkpt>
<trkpt lat="27.116554" lon="98.880049">
<time>2014-08-05T02:32:56Z</time></trkpt>
<trkpt lat="27.116624" lon="98.880089">
<time>2014-08-05T02:32:57Z</time></trkpt>
<trkpt lat="27.116714" lon="98.880139">
<time>2014-08-05T02:32:58Z</time></trkpt>
<trkpt lat="27.116824" lon="98.880179">
<time>2014-08-05T02:32:59Z</time></trkpt>
<trkpt lat="27.117034" lon="98.880259">
<time>2014-08-05T02:33:00Z</time></trkpt>
<trkpt lat="27.117154" lon="98.880289">
<time>2014-08-05T02:33:01Z</time></trkpt>
<trkpt lat="27.117254" lon="98.880319">
<time>2014-08-05T02:33:02Z</time></trkpt>
<trkpt lat="27.117294" lon="98.880329">
<time>2014-08-05T02:33:03Z</time></trkpt>
<trkpt lat="27.117334" lon="98.880329">
<time>2014-08-05T02:33:04Z</time></trkpt>
<trkpt lat="27.117344" lon="98.880329">
<time>2014-08-05T02:33:05Z</time></trkpt>
<trkpt lat="27.117494" lon="98.880329">
<time>2014-08-05T02:33:06Z</time></trkpt>
<trkpt lat="27.117674" lon="98.880319">
<time>2014-08-05T02:33:07Z</time></trkpt>
<trkpt lat="27.117814" lon="98.880309">
<time>2014-08-05T02:33:08Z</time></trkpt>
<trkpt lat="27.117954" lon="98.880319">
<time>2014-08-05T02:33:09Z</time></trkpt>
<trkpt lat="27.118124" lon="98.880349">
<time>2014-08-05T02:33:10Z</time></trkpt>
<trkpt lat="27.118304" lon="98.880389">
<time>2014-08-05T02:33:11Z</time></trkpt>
<trkpt lat="27.118344" lon="98.880409">
<time>2014-08-05T02:33:12Z</time></trkpt>
<trkpt lat="27.118384" lon="98.880419">
<time>2014-08-05T02:33:13Z</time></trkpt>
<trkpt lat="27.118444" lon="98.880449">
<time>2014-08-05T02:33:14Z</time></trkpt>
<trkpt lat="27.118474" lon="98.880459">
<time>2014-08-05T02:33:15Z</time></trkpt>
<trkpt lat="27.118504" lon="98.880479">
<time>2014-08-05T02:33:16Z</time></trkpt>
<trkpt lat="27.118534" lon="98.880499">
<time>2014-08-05T02:33:17Z</time></trkpt>
<trkpt lat="27.118554" lon="98.880519">
<time>2014-08-05T02:33:18Z</time></trkpt>
<trkpt lat="27.118574" lon="98.880549">
<time>2014-08-05T02:33:19Z</time></trkpt>
<trkpt lat="27.118594" lon="98.880569">
<time>2014-08-05T02:33:20Z</time></trkpt>
<trkpt lat="27.118644" lon="98.880639">
<time>2014-08-05T02:33:21Z</time></trkpt>
<trkpt lat="27.118734" lon="98.880809">
<time>2014-08-05T02:33:22Z</time></trkpt>
<trkpt lat="27.118744" lon="98.880829">
<time>2014-08-05T02:33:23Z</time></trkpt>
<trkpt lat="27.118764" lon="98.880849">
<time>2014-08-05T02:33:24Z</time></trkpt>
<trkpt lat="27.118774" lon="98.880869">
<time>2014-08-05T02:33:25Z</time></trkpt>
<trkpt lat="27.118794" lon="98.880879">
<time>2014-08-05T02:33:26Z</time></trkpt>
<trkpt lat="27.118804" lon="98.880899">
<time>2014-08-05T02:33:27Z</time></trkpt>
<trkpt lat="27.118854" lon="98.880919">
<time>2014-08-05T02:33:28Z</time></trkpt>
<trkpt lat="27.118924" lon="98.880949">
<time>2014-08-05T02:33:29Z</time></trkpt>
<trkpt lat="27.119134" lon="98.881009">
<time>2014-08-05T02:33:30Z</time></trkpt>
<trkpt lat="27.119534" lon="98.881089">
<time>2014-08-05T02:33:31Z</time></trkpt>
<trkpt lat="27.119804" lon="98.881129">
<time>2014-08-05T02:33:32Z</time></trkpt>
<trkpt lat="27.119994" lon="98.881139">
<time>2014-08-05T02:33:33Z</time></trkpt>
<trkpt lat="27.120284" lon="98.881159">
<time>2014-08-05T02:33:34Z</time></trkpt>
<trkpt lat="27.120414" lon="98.881179">
<time>2014-08-05T02:33:35Z</time></trkpt>
<trkpt lat="27.120564" lon="98.881209">
<time>2014-08-05T02:33:36Z</time></trkpt>
<trkpt lat="27.120844" lon="98.881279">
<time>2014-08-05T02:33:37Z</time></trkpt>
<trkpt lat="27.121024" lon="98.881309">
<time>2014-08-05T02:33:38Z</time></trkpt>
<trkpt lat="27.121204" lon="98.881329">
<time>2014-08-05T02:33:39Z</time></trkpt>
<trkpt lat="27.121334" lon="98.881339">
<time>2014-08-05T02:33:40Z</time></trkpt>
<trkpt lat="27.121494" lon="98.881349">
<time>2014-08-05T02:33:41Z</time></trkpt>
<trkpt lat="27.121724" lon="98.881369">
<time>2014-08-05T02:33:42Z</time></trkpt>
<trkpt lat="27.121794" lon="98.881379">
<time>2014-08-05T02:33:43Z</time></trkpt>
<trkpt lat="27.121904" lon="98.881369">
<time>2014-08-05T02:33:44Z</time></trkpt>
<trkpt lat="27.122054" lon="98.881349">
<time>2014-08-05T02:33:45Z</time></trkpt>
<trkpt lat="27.122254" lon="98.881329">
<time>2014-08-05T02:33:46Z</time></trkpt>
<trkpt lat="27.122343" lon="98.881319">
<time>2014-08-05T02:33:47Z</time></trkpt>
<trkpt lat="27.122453" lon="98.881319">
<time>2014-08-05T02:33:48Z</time></trkpt>
<trkpt lat="27.122623" lon="98.881329">
<time>2014-08-05T02:33:49Z</time></trkpt>
<trkpt lat="27.122823" lon="98.881359">
<time>2014-08-05T02:33:50Z</time></trkpt>
<trkpt lat="27.122923" lon="98.881379">
<time>2014-08-05T02:33:51Z</time></trkpt>
<trkpt lat="27.123233" lon="98.881409">
<time>2014-08-05T02:33:52Z</time></trkpt>
<trkpt lat="27.123703" lon="98.881419">
<time>2014-08-05T02:33:53Z</time></trkpt>
<trkpt lat="27.124043" lon="98.881419">
<time>2014-08-05T02:33:54Z</time></trkpt>
<trkpt lat="27.124223" lon="98.881399">
<time>2014-08-05T02:33:55Z</time></trkpt>
<trkpt lat="27.124733" lon="98.881309">
<time>2014-08-05T02:33:56Z</time></trkpt>
<trkpt lat="27.124943" lon="98.881279">
<time>2014-08-05T02:33:57Z</time></trkpt>
<trkpt lat="27.125333" lon="98.881259">
<time>2014-08-05T02:33:58Z</time></trkpt>
<trkpt lat="27.125443" lon="98.881239">
<time>2014-08-05T02:33:59Z</time></trkpt>
<trkpt lat="27.125613" lon="98.881199">
<time>2014-08-05T02:34:00Z</time></trkpt>
<trkpt lat="27.125912" lon="98.881109">
<time>2014-08-05T02:34:01Z</time></trkpt>
<trkpt lat="27.126082" lon="98.881049">
<time>2014-08-05T02:34:02Z</time></trkpt>
<trkpt lat="27.126242" lon="98.880969">
<time>2014-08-05T02:34:03Z</time></trkpt>
<trkpt lat="27.126392" lon="98.880889">
<time>2014-08-05T02:34:04Z</time></trkpt>
<trkpt lat="27.126462" lon="98.880859">
<time>2014-08-05T02:34:05Z</time></trkpt>
<trkpt lat="27.126562" lon="98.880819">
<time>2014-08-05T02:34:06Z</time></trkpt>
<trkpt lat="27.126702" lon="98.880779">
<time>2014-08-05T02:34:07Z</time></trkpt>
<trkpt lat="27.126792" lon="98.880759">
<time>2014-08-05T02:34:08Z</time></trkpt>
<trkpt lat="27.126892" lon="98.880749">
<time>2014-08-05T02:34:09Z</time></trkpt>
<trkpt lat="27.126982" lon="98.880739">
<time>2014-08-05T02:34:10Z</time></trkpt>
<trkpt lat="27.127102" lon="98.880729">
<time>2014-08-05T02:34:11Z</time></trkpt>
<trkpt lat="27.127192" lon="98.880739">
<time>2014-08-05T02:34:12Z</time></trkpt>
<trkpt lat="27.127262" lon="98.880749">
<time>2014-08-05T02:34:13Z</time></trkpt>
<trkpt lat="27.127342" lon="98.880759">
<time>2014-08-05T02:34:14Z</time></trkpt>
<trkpt lat="27.127452" lon="98.880779">
<time>2014-08-05T02:34:15Z</time></trkpt>
<trkpt lat="27.127532" lon="98.880799">
<time>2014-08-05T02:34:16Z</time></trkpt>
<trkpt lat="27.127612" lon="98.880809">
<time>2014-08-05T02:34:17Z</time></trkpt>
<trkpt lat="27.127672" lon="98.880809">
<time>2014-08-05T02:34:18Z</time></trkpt>
<trkpt lat="27.127832" lon="98.880809">
<time>2014-08-05T02:34:19Z</time></trkpt>
<trkpt lat="27.127922" lon="98.880799">
<time>2014-08-05T02:34:20Z</time></trkpt>
<trkpt lat="27.128032" lon="98.880769">
<time>2014-08-05T02:34:21Z</time></trkpt>
<trkpt lat="27.128391" lon="98.880629">
<time>2014-08-05T02:34:22Z</time></trkpt>
<trkpt lat="27.128591" lon="98.880569">
<time>2014-08-05T02:34:23Z</time></trkpt>
<trkpt lat="27.128671" lon="98.880549">
<time>2014-08-05T02:34:24Z</time></trkpt>
<trkpt lat="27.128761" lon="98.880539">
<time>2014-08-05T02:34:25Z</time></trkpt>
<trkpt lat="27.128931" lon="98.880529">
<time>2014-08-05T02:34:26Z</time></trkpt>
<trkpt lat="27.129031" lon="98.880519">
<time>2014-08-05T02:34:27Z</time></trkpt>
<trkpt lat="27.129081" lon="98.880509">
<time>2014-08-05T02:34:28Z</time></trkpt>
<trkpt lat="27.129121" lon="98.880499">
<time>2014-08-05T02:34:29Z</time></trkpt>
<trkpt lat="27.129211" lon="98.880459">
<time>2014-08-05T02:34:30Z</time></trkpt>
<trkpt lat="27.129261" lon="98.880419">
<time>2014-08-05T02:34:31Z</time></trkpt>
<trkpt lat="27.129481" lon="98.880209">
<time>2014-08-05T02:34:32Z</time></trkpt>
<trkpt lat="27.129651" lon="98.880079">
<time>2014-08-05T02:34:33Z</time></trkpt>
<trkpt lat="27.12986" lon="98.879919">
<time>2014-08-05T02:34:34Z</time></trkpt>
<trkpt lat="27.12998" lon="98.879839">
<time>2014-08-05T02:34:35Z</time></trkpt>
<trkpt lat="27.13006" lon="98.879789">
<time>2014-08-05T02:34:36Z</time></trkpt>
<trkpt lat="27.13033" lon="98.879649">
<time>2014-08-05T02:34:37Z</time></trkpt>
<trkpt lat="27.13038" lon="98.879609">
<time>2014-08-05T02:34:38Z</time></trkpt>
<trkpt lat="27.13042" lon="98.879569">
<time>2014-08-05T02:34:39Z</time></trkpt>
<trkpt lat="27.13052" lon="98.879469">
<time>2014-08-05T02:34:40Z</time></trkpt>
<trkpt lat="27.13056" lon="98.879399">
<time>2014-08-05T02:34:41Z</time></trkpt>
<trkpt lat="27.13059" lon="98.879369">
<time>2014-08-05T02:34:42Z</time></trkpt>
<trkpt lat="27.13062" lon="98.879299">
<time>2014-08-05T02:34:43Z</time></trkpt>
<trkpt lat="27.130719" lon="98.879089">
<time>2014-08-05T02:34:44Z</time></trkpt>
<trkpt lat="27.130819" lon="98.878909">
<time>2014-08-05T02:34:45Z</time></trkpt>
<trkpt lat="27.130959" lon="98.878719">
<time>2014-08-05T02:34:46Z</time></trkpt>
<trkpt lat="27.131498" lon="98.878029">
<time>2014-08-05T02:34:47Z</time></trkpt>
<trkpt lat="27.131648" lon="98.877829">
<time>2014-08-05T02:34:48Z</time></trkpt>
<trkpt lat="27.131758" lon="98.877689">
<time>2014-08-05T02:34:49Z</time></trkpt>
<trkpt lat="27.131828" lon="98.877598">
<time>2014-08-05T02:34:50Z</time></trkpt>
<trkpt lat="27.131888" lon="98.877538">
<time>2014-08-05T02:34:51Z</time></trkpt>
<trkpt lat="27.131908" lon="98.877508">
<time>2014-08-05T02:34:52Z</time></trkpt>
<trkpt lat="27.131948" lon="98.877468">
<time>2014-08-05T02:34:53Z</time></trkpt>
<trkpt lat="27.131967" lon="98.877448">
<time>2014-08-05T02:34:54Z</time></trkpt>
<trkpt lat="27.132047" lon="98.877378">
<time>2014-08-05T02:34:55Z</time></trkpt>
<trkpt lat="27.132117" lon="98.877328">
<time>2014-08-05T02:34:56Z</time></trkpt>
<trkpt lat="27.132297" lon="98.877208">
<time>2014-08-05T02:34:57Z</time></trkpt>
<trkpt lat="27.132657" lon="98.876968">
<time>2014-08-05T02:34:58Z</time></trkpt>
<trkpt lat="27.133206" lon="98.876598">
<time>2014-08-05T02:34:59Z</time></trkpt>
<trkpt lat="27.133416" lon="98.876448">
<time>2014-08-05T02:35:00Z</time></trkpt>
<trkpt lat="27.133636" lon="98.876268">
<time>2014-08-05T02:35:01Z</time></trkpt>
<trkpt lat="27.134095" lon="98.875858">
<time>2014-08-05T02:35:02Z</time></trkpt>
<trkpt lat="27.134255" lon="98.875718">
<time>2014-08-05T02:35:03Z</time></trkpt>
<trkpt lat="27.134575" lon="98.875488">
<time>2014-08-05T02:35:04Z</time></trkpt>
<trkpt lat="27.134715" lon="98.875398">
<time>2014-08-05T02:35:05Z</time></trkpt>
<trkpt lat="27.134825" lon="98.875328">
<time>2014-08-05T02:35:06Z</time></trkpt>
<trkpt lat="27.134895" lon="98.875298">
<time>2014-08-05T02:35:07Z</time></trkpt>
<trkpt lat="27.134945" lon="98.875278">
<time>2014-08-05T02:35:08Z</time></trkpt>
<trkpt lat="27.135015" lon="98.875258">
<time>2014-08-05T02:35:09Z</time></trkpt>
<trkpt lat="27.135274" lon="98.875208">
<time>2014-08-05T02:35:10Z</time></trkpt>
<trkpt lat="27.135594" lon="98.875138">
<time>2014-08-05T02:35:11Z</time></trkpt>
<trkpt lat="27.135704" lon="98.875128">
<time>2014-08-05T02:35:12Z</time></trkpt>
<trkpt lat="27.135814" lon="98.875118">
<time>2014-08-05T02:35:13Z</time></trkpt>
<trkpt lat="27.135924" lon="98.875088">
<time>2014-08-05T02:35:14Z</time></trkpt>
<trkpt lat="27.136034" lon="98.875078">
<time>2014-08-05T02:35:15Z</time></trkpt>
<trkpt lat="27.136124" lon="98.875068">
<time>2014-08-05T02:35:16Z</time></trkpt>
<trkpt lat="27.136654" lon="98.875038">
<time>2014-08-05T02:35:17Z</time></trkpt>
<trkpt lat="27.137054" lon="98.875028">
<time>2014-08-05T02:35:18Z</time></trkpt>
<trkpt lat="27.137164" lon="98.875028">
<time>2014-08-05T02:35:19Z</time></trkpt>
<trkpt lat="27.137214" lon="98.875038">
<time>2014-08-05T02:35:20Z</time></trkpt>
<trkpt lat="27.137304" lon="98.875068">
<time>2014-08-05T02:35:21Z</time></trkpt>
<trkpt lat="27.137454" lon="98.875108">
<time>2014-08-05T02:35:22Z</time></trkpt>
<trkpt lat="27.137564" lon="98.875128">
<time>2014-08-05T02:35:23Z</time></trkpt>
<trkpt lat="27.137634" lon="98.875128">
<time>2014-08-05T02:35:24Z</time></trkpt>
<trkpt lat="27.137724" lon="98.875118">
<time>2014-08-05T02:35:25Z</time></trkpt>
<trkpt lat="27.137934" lon="98.875078">
<time>2014-08-05T02:35:26Z</time></trkpt>
<trkpt lat="27.138053" lon="98.875058">
<time>2014-08-05T02:35:27Z</time></trkpt>
<trkpt lat="27.138183" lon="98.875058">
<time>2014-08-05T02:35:28Z</time></trkpt>
<trkpt lat="27.138813" lon="98.875068">
<time>2014-08-05T02:35:29Z</time></trkpt>
<trkpt lat="27.139113" lon="98.875078">
<time>2014-08-05T02:35:30Z</time></trkpt>
<trkpt lat="27.139683" lon="98.875078">
<time>2014-08-05T02:35:31Z</time></trkpt>
<trkpt lat="27.140143" lon="98.875078">
<time>2014-08-05T02:35:32Z</time></trkpt>
<trkpt lat="27.140203" lon="98.875078">
<time>2014-08-05T02:35:33Z</time></trkpt>
<trkpt lat="27.140263" lon="98.875088">
<time>2014-08-05T02:35:34Z</time></trkpt>
<trkpt lat="27.140313" lon="98.875088">
<time>2014-08-05T02:35:35Z</time></trkpt>
<trkpt lat="27.140383" lon="98.875108">
<time>2014-08-05T02:35:36Z</time></trkpt>
<trkpt lat="27.140843" lon="98.875178">
<time>2014-08-05T02:35:37Z</time></trkpt>
<trkpt lat="27.140983" lon="98.875208">
<time>2014-08-05T02:35:38Z</time></trkpt>
<trkpt lat="27.141153" lon="98.875238">
<time>2014-08-05T02:35:39Z</time></trkpt>
<trkpt lat="27.141313" lon="98.875268">
<time>2014-08-05T02:35:40Z</time></trkpt>
<trkpt lat="27.141573" lon="98.875298">
<time>2014-08-05T02:35:41Z</time></trkpt>
<trkpt lat="27.141693" lon="98.875318">
<time>2014-08-05T02:35:42Z</time></trkpt>
<trkpt lat="27.141783" lon="98.875338">
<time>2014-08-05T02:35:43Z</time></trkpt>
<trkpt lat="27.141963" lon="98.875418">
<time>2014-08-05T02:35:44Z</time></trkpt>
<trkpt lat="27.142273" lon="98.875558">
<time>2014-08-05T02:35:45Z</time></trkpt>
<trkpt lat="27.142463" lon="98.875648">
<time>2014-08-05T02:35:46Z</time></trkpt>
<trkpt lat="27.142693" lon="98.875728">
<time>2014-08-05T02:35:47Z</time></trkpt>
<trkpt lat="27.143093" lon="98.875838">
<time>2014-08-05T02:35:48Z</time></trkpt>
<trkpt lat="27.143663" lon="98.876008">
<time>2014-08-05T02:35:49Z</time></trkpt>
<trkpt lat="27.143943" lon="98.876088">
<time>2014-08-05T02:35:50Z</time></trkpt>
<trkpt lat="27.144033" lon="98.876128">
<time>2014-08-05T02:35:51Z</time></trkpt>
<trkpt lat="27.144123" lon="98.876178">
<time>2014-08-05T02:35:52Z</time></trkpt>
<trkpt lat="27.144213" lon="98.876238">
<time>2014-08-05T02:35:53Z</time></trkpt>
<trkpt lat="27.144293" lon="98.876308">
<time>2014-08-05T02:35:54Z</time></trkpt>
<trkpt lat="27.144523" lon="98.876508">
<time>2014-08-05T02:35:55Z</time></trkpt>
<trkpt lat="27.144683" lon="98.876638">
<time>2014-08-05T02:35:56Z</time></trkpt>
<trkpt lat="27.144994" lon="98.876868">
<time>2014-08-05T02:35:57Z</time></trkpt>
<trkpt lat="27.145124" lon="98.876968">
<time>2014-08-05T02:35:58Z</time></trkpt>
<trkpt lat="27.145334" lon="98.877088">
<time>2014-08-05T02:35:59Z</time></trkpt>
<trkpt lat="27.145484" lon="98.877138">
<time>2014-08-05T02:36:00Z</time></trkpt>
<trkpt lat="27.145684" lon="98.877178">
<time>2014-08-05T02:36:01Z</time></trkpt>
<trkpt lat="27.146204" lon="98.877278">
<time>2014-08-05T02:36:02Z</time></trkpt>
<trkpt lat="27.146544" lon="98.877318">
<time>2014-08-05T02:36:03Z</time></trkpt>
<trkpt lat="27.146853" lon="98.877338">
<time>2014-08-05T02:36:04Z</time></trkpt>
<trkpt lat="27.146993" lon="98.877338">
<time>2014-08-05T02:36:05Z</time></trkpt>
<trkpt lat="27.147143" lon="98.877328">
<time>2014-08-05T02:36:06Z</time></trkpt>
<trkpt lat="27.147323" lon="98.877288">
<time>2014-08-05T02:36:07Z</time></trkpt>
<trkpt lat="27.147703" lon="98.877208">
<time>2014-08-05T02:36:08Z</time></trkpt>
<trkpt lat="27.148223" lon="98.877118">
<time>2014-08-05T02:36:09Z</time></trkpt>
<trkpt lat="27.148773" lon="98.877048">
<time>2014-08-05T02:36:10Z</time></trkpt>
<trkpt lat="27.149113" lon="98.876998">
<time>2014-08-05T02:36:11Z</time></trkpt>
<trkpt lat="27.149332" lon="98.876978">
<time>2014-08-05T02:36:12Z</time></trkpt>
<trkpt lat="27.149552" lon="98.876978">
<time>2014-08-05T02:36:13Z</time></trkpt>
<trkpt lat="27.149782" lon="98.876998">
<time>2014-08-05T02:36:14Z</time></trkpt>
<trkpt lat="27.150212" lon="98.877058">
<time>2014-08-05T02:36:15Z</time></trkpt>
<trkpt lat="27.150532" lon="98.877098">
<time>2014-08-05T02:36:16Z</time></trkpt>
<trkpt lat="27.150762" lon="98.877128">
<time>2014-08-05T02:36:17Z</time></trkpt>
<trkpt lat="27.150912" lon="98.877128">
<time>2014-08-05T02:36:18Z</time></trkpt>
<trkpt lat="27.151032" lon="98.877128">
<time>2014-08-05T02:36:19Z</time></trkpt>
<trkpt lat="27.151222" lon="98.877108">
<time>2014-08-05T02:36:20Z</time></trkpt>
<trkpt lat="27.151732" lon="98.877038">
<time>2014-08-05T02:36:21Z</time></trkpt>
<trkpt lat="27.151932" lon="98.877018">
<time>2014-08-05T02:36:22Z</time></trkpt>
<trkpt lat="27.152422" lon="98.876988">
<time>2014-08-05T02:36:23Z</time></trkpt>
<trkpt lat="27.152682" lon="98.876968">
<time>2014-08-05T02:36:24Z</time></trkpt>
<trkpt lat="27.152891" lon="98.876928">
<time>2014-08-05T02:36:25Z</time></trkpt>
<trkpt lat="27.153241" lon="98.876848">
<time>2014-08-05T02:36:26Z</time></trkpt>
<trkpt lat="27.153331" lon="98.876838">
<time>2014-08-05T02:36:27Z</time></trkpt>
<trkpt lat="27.153411" lon="98.876828">
<time>2014-08-05T02:36:28Z</time></trkpt>
<trkpt lat="27.153731" lon="98.876828">
<time>2014-08-05T02:36:29Z</time></trkpt>
<trkpt lat="27.153831" lon="98.876828">
<time>2014-08-05T02:36:30Z</time></trkpt>
<trkpt lat="27.153931" lon="98.876828">
<time>2014-08-05T02:36:31Z</time></trkpt>
<trkpt lat="27.154001" lon="98.876818">
<time>2014-08-05T02:36:32Z</time></trkpt>
<trkpt lat="27.154071" lon="98.876798">
<time>2014-08-05T02:36:33Z</time></trkpt>
<trkpt lat="27.154171" lon="98.876778">
<time>2014-08-05T02:36:34Z</time></trkpt>
<trkpt lat="27.154271" lon="98.876738">
<time>2014-08-05T02:36:35Z</time></trkpt>
<trkpt lat="27.154461" lon="98.876648">
<time>2014-08-05T02:36:36Z</time></trkpt>
<trkpt lat="27.154831" lon="98.876468">
<time>2014-08-05T02:36:37Z</time></trkpt>
<trkpt lat="27.15525" lon="98.876218">
<time>2014-08-05T02:36:38Z</time></trkpt>
<trkpt lat="27.15568" lon="98.875848">
<time>2014-08-05T02:36:39Z</time></trkpt>
<trkpt lat="27.15574" lon="98.875808">
<time>2014-08-05T02:36:40Z</time></trkpt>
<trkpt lat="27.15582" lon="98.875768">
<time>2014-08-05T02:36:41Z</time></trkpt>
<trkpt lat="27.15589" lon="98.875738">
<time>2014-08-05T02:36:42Z</time></trkpt>
<trkpt lat="27.1559" lon="98.875738">
<time>2014-08-05T02:36:43Z</time></trkpt>
<trkpt lat="27.15591" lon="98.875738">
<time>2014-08-05T02:36:44Z</time></trkpt>
<trkpt lat="27.156009" lon="98.875718">
<time>2014-08-05T02:36:45Z</time></trkpt>
<trkpt lat="27.156909" lon="98.875627">
<time>2014-08-05T02:36:46Z</time></trkpt>
<trkpt lat="27.157629" lon="98.875567">
<time>2014-08-05T02:36:47Z</time></trkpt>
<trkpt lat="27.157729" lon="98.875557">
<time>2014-08-05T02:36:48Z</time></trkpt>
<trkpt lat="27.157819" lon="98.875537">
<time>2014-08-05T02:36:49Z</time></trkpt>
<trkpt lat="27.157909" lon="98.875517">
<time>2014-08-05T02:36:50Z</time></trkpt>
<trkpt lat="27.158059" lon="98.875467">
<time>2014-08-05T02:36:51Z</time></trkpt>
<trkpt lat="27.158329" lon="98.875357">
<time>2014-08-05T02:36:52Z</time></trkpt>
<trkpt lat="27.158528" lon="98.875257">
<time>2014-08-05T02:36:53Z</time></trkpt>
<trkpt lat="27.158588" lon="98.875237">
<time>2014-08-05T02:36:54Z</time></trkpt>
<trkpt lat="27.158658" lon="98.875217">
<time>2014-08-05T02:36:55Z</time></trkpt>
<trkpt lat="27.158708" lon="98.875207">
<time>2014-08-05T02:36:56Z</time></trkpt>
<trkpt lat="27.158748" lon="98.875207">
<time>2014-08-05T02:36:57Z</time></trkpt>
<trkpt lat="27.158778" lon="98.875197">
<time>2014-08-05T02:36:58Z</time></trkpt>
<trkpt lat="27.158788" lon="98.875197">
<time>2014-08-05T02:36:59Z</time></trkpt>
<trkpt lat="27.158828" lon="98.875207">
<time>2014-08-05T02:37:00Z</time></trkpt>
<trkpt lat="27.158908" lon="98.875217">
<time>2014-08-05T02:37:01Z</time></trkpt>
<trkpt lat="27.158998" lon="98.875237">
<time>2014-08-05T02:37:02Z</time></trkpt>
<trkpt lat="27.159048" lon="98.875247">
<time>2014-08-05T02:37:03Z</time></trkpt>
<trkpt lat="27.159108" lon="98.875257">
<time>2014-08-05T02:37:04Z</time></trkpt>
<trkpt lat="27.159168" lon="98.875267">
<time>2014-08-05T02:37:05Z</time></trkpt>
<trkpt lat="27.159228" lon="98.875267">
<time>2014-08-05T02:37:06Z</time></trkpt>
<trkpt lat="27.159328" lon="98.875267">
<time>2014-08-05T02:37:07Z</time></trkpt>
<trkpt lat="27.159448" lon="98.875257">
<time>2014-08-05T02:37:08Z</time></trkpt>
<trkpt lat="27.159498" lon="98.875257">
<time>2014-08-05T02:37:09Z</time></trkpt>
<trkpt lat="27.159528" lon="98.875247">
<time>2014-08-05T02:37:10Z</time></trkpt>
<trkpt lat="27.159558" lon="98.875247">
<time>2014-08-05T02:37:11Z</time></trkpt>
<trkpt lat="27.159628" lon="98.875227">
<time>2014-08-05T02:37:12Z</time></trkpt>
<trkpt lat="27.159728" lon="98.875197">
<time>2014-08-05T02:37:13Z</time></trkpt>
<trkpt lat="27.160018" lon="98.875097">
<time>2014-08-05T02:37:14Z</time></trkpt>
<trkpt lat="27.160108" lon="98.875077">
<time>2014-08-05T02:37:15Z</time></trkpt>
<trkpt lat="27.160238" lon="98.875067">
<time>2014-08-05T02:37:16Z</time></trkpt>
<trkpt lat="27.160318" lon="98.875067">
<time>2014-08-05T02:37:17Z</time></trkpt>
<trkpt lat="27.160328" lon="98.875067">
<time>2014-08-05T02:37:18Z</time></trkpt>
<trkpt lat="27.160348" lon="98.875067">
<time>2014-08-05T02:37:19Z</time></trkpt>
<trkpt lat="27.160758" lon="98.875107">
<time>2014-08-05T02:37:20Z</time></trkpt>
<trkpt lat="27.161248" lon="98.875157">
<time>2014-08-05T02:37:21Z</time></trkpt>
<trkpt lat="27.161657" lon="98.875177">
<time>2014-08-05T02:37:22Z</time></trkpt>
<trkpt lat="27.162187" lon="98.875217">
<time>2014-08-05T02:37:23Z</time></trkpt>
<trkpt lat="27.162297" lon="98.875227">
<time>2014-08-05T02:37:24Z</time></trkpt>
<trkpt lat="27.162377" lon="98.875217">
<time>2014-08-05T02:37:25Z</time></trkpt>
<trkpt lat="27.162457" lon="98.875207">
<time>2014-08-05T02:37:26Z</time></trkpt>
<trkpt lat="27.162517" lon="98.875187">
<time>2014-08-05T02:37:27Z</time></trkpt>
<trkpt lat="27.162677" lon="98.875137">
<time>2014-08-05T02:37:28Z</time></trkpt>
<trkpt lat="27.162987" lon="98.875037">
<time>2014-08-05T02:37:29Z</time></trkpt>
<trkpt lat="27.163097" lon="98.875007">
<time>2014-08-05T02:37:30Z</time></trkpt>
<trkpt lat="27.163187" lon="98.874997">
<time>2014-08-05T02:37:31Z</time></trkpt>
<trkpt lat="27.163237" lon="98.874987">
<time>2014-08-05T02:37:32Z</time></trkpt>
<trkpt lat="27.163257" lon="98.874987">
<time>2014-08-05T02:37:33Z</time></trkpt>
<trkpt lat="27.163307" lon="98.874977">
<time>2014-08-05T02:37:34Z</time></trkpt>
<trkpt lat="27.163357" lon="98.874977">
<time>2014-08-05T02:37:35Z</time></trkpt>
<trkpt lat="27.163437" lon="98.874977">
<time>2014-08-05T02:37:36Z</time></trkpt>
<trkpt lat="27.163537" lon="98.874987">
<time>2014-08-05T02:37:37Z</time></trkpt>
<trkpt lat="27.163677" lon="98.874997">
<time>2014-08-05T02:37:38Z</time></trkpt>
<trkpt lat="27.163867" lon="98.875007">
<time>2014-08-05T02:37:39Z</time></trkpt>
<trkpt lat="27.164037" lon="98.875027">
<time>2014-08-05T02:37:40Z</time></trkpt>
<trkpt lat="27.164247" lon="98.875047">
<time>2014-08-05T02:37:41Z</time></trkpt>
<trkpt lat="27.164337" lon="98.875057">
<time>2014-08-05T02:37:42Z</time></trkpt>
<trkpt lat="27.164437" lon="98.875057">
<time>2014-08-05T02:37:43Z</time></trkpt>
<trkpt lat="27.164567" lon="98.875057">
<time>2014-08-05T02:37:44Z</time></trkpt>
<trkpt lat="27.164667" lon="98.875047">
<time>2014-08-05T02:37:45Z</time></trkpt>
<trkpt lat="27.164816" lon="98.875027">
<time>2014-08-05T02:37:46Z</time></trkpt>
<trkpt lat="27.164926" lon="98.875007">
<time>2014-08-05T02:37:47Z</time></trkpt>
<trkpt lat="27.165216" lon="98.874957">
<time>2014-08-05T02:37:48Z</time></trkpt>
<trkpt lat="27.165436" lon="98.874917">
<time>2014-08-05T02:37:49Z</time></trkpt>
<trkpt lat="27.165616" lon="98.874877">
<time>2014-08-05T02:37:50Z</time></trkpt>
<trkpt lat="27.165756" lon="98.874857">
<time>2014-08-05T02:37:51Z</time></trkpt>
<trkpt lat="27.165796" lon="98.874847">
<time>2014-08-05T02:37:52Z</time></trkpt>
<trkpt lat="27.165806" lon="98.874847">
<time>2014-08-05T02:37:53Z</time></trkpt>
<trkpt lat="27.165826" lon="98.874837">
<time>2014-08-05T02:37:54Z</time></trkpt>
<trkpt lat="27.165846" lon="98.874837">
<time>2014-08-05T02:37:55Z</time></trkpt>
<trkpt lat="27.165866" lon="98.874837">
<time>2014-08-05T02:37:56Z</time></trkpt>
<trkpt lat="27.165896" lon="98.874827">
<time>2014-08-05T02:37:57Z</time></trkpt>
<trkpt lat="27.165906" lon="98.874827">
<time>2014-08-05T02:37:58Z</time></trkpt>
<trkpt lat="27.165936" lon="98.874817">
<time>2014-08-05T02:37:59Z</time></trkpt>
<trkpt lat="27.165986" lon="98.874817">
<time>2014-08-05T02:38:00Z</time></trkpt>
<trkpt lat="27.166046" lon="98.874807">
<time>2014-08-05T02:38:01Z</time></trkpt>
<trkpt lat="27.166096" lon="98.874817">
<time>2014-08-05T02:38:02Z</time></trkpt>
<trkpt lat="27.166126" lon="98.874817">
<time>2014-08-05T02:38:03Z</time></trkpt>
<trkpt lat="27.166156" lon="98.874827">
<time>2014-08-05T02:38:04Z</time></trkpt>
<trkpt lat="27.166186" lon="98.874847">
<time>2014-08-05T02:38:05Z</time></trkpt>
<trkpt lat="27.166226" lon="98.874877">
<time>2014-08-05T02:38:06Z</time></trkpt>
<trkpt lat="27.166316" lon="98.874967">
<time>2014-08-05T02:38:07Z</time></trkpt>
<trkpt lat="27.166356" lon="98.874997">
<time>2014-08-05T02:38:08Z</time></trkpt>
<trkpt lat="27.166376" lon="98.875007">
<time>2014-08-05T02:38:09Z</time></trkpt>
<trkpt lat="27.166396" lon="98.875027">
<time>2014-08-05T02:38:10Z</time></trkpt>
<trkpt lat="27.166416" lon="98.875037">
<time>2014-08-05T02:38:11Z</time></trkpt>
<trkpt lat="27.166436" lon="98.875047">
<time>2014-08-05T02:38:12Z</time></trkpt>
<trkpt lat="27.166456" lon="98.875047">
<time>2014-08-05T02:38:13Z</time></trkpt>
<trkpt lat="27.166466" lon="98.875057">
<time>2014-08-05T02:38:14Z</time></trkpt>
<trkpt lat="27.166486" lon="98.875057">
<time>2014-08-05T02:38:15Z</time></trkpt>
<trkpt lat="27.166506" lon="98.875067">
<time>2014-08-05T02:38:16Z</time></trkpt>
<trkpt lat="27.166526" lon="98.875067">
<time>2014-08-05T02:38:17Z</time></trkpt>
<trkpt lat="27.166556" lon="98.875077">
<time>2014-08-05T02:38:18Z</time></trkpt>
<trkpt lat="27.166576" lon="98.875077">
<time>2014-08-05T02:38:19Z</time></trkpt>
<trkpt lat="27.166676" lon="98.875087">
<time>2014-08-05T02:38:20Z</time></trkpt>
<trkpt lat="27.166736" lon="98.875097">
<time>2014-08-05T02:38:21Z</time></trkpt>
<trkpt lat="27.166756" lon="98.875097">
<time>2014-08-05T02:38:22Z</time></trkpt>
<trkpt lat="27.166776" lon="98.875107">
<time>2014-08-05T02:38:23Z</time></trkpt>
<trkpt lat="27.166836" lon="98.875117">
<time>2014-08-05T02:38:24Z</time></trkpt>
<trkpt lat="27.166886" lon="98.875127">
<time>2014-08-05T02:38:25Z</time></trkpt>
<trkpt lat="27.166916" lon="98.875147">
<time>2014-08-05T02:38:26Z</time></trkpt>
<trkpt lat="27.166976" lon="98.875177">
<time>2014-08-05T02:38:27Z</time></trkpt>
<trkpt lat="27.166996" lon="98.875197">
<time>2014-08-05T02:38:28Z</time></trkpt>
<trkpt lat="27.167016" lon="98.875207">
<time>2014-08-05T02:38:29Z</time></trkpt>
<trkpt lat="27.167056" lon="98.875247">
<time>2014-08-05T02:38:30Z</time></trkpt>
<trkpt lat="27.167136" lon="98.875317">
<time>2014-08-05T02:38:31Z</time></trkpt>
<trkpt lat="27.167226" lon="98.875407">
<time>2014-08-05T02:38:32Z</time></trkpt>
<trkpt lat="27.167306" lon="98.875487">
<time>2014-08-05T02:38:33Z</time></trkpt>
<trkpt lat="27.167396" lon="98.875597">
<time>2014-08-05T02:38:34Z</time></trkpt>
<trkpt lat="27.167767" lon="98.876007">
<time>2014-08-05T02:38:35Z</time></trkpt>
<trkpt lat="27.168187" lon="98.876468">
<time>2014-08-05T02:38:36Z</time></trkpt>
<trkpt lat="27.168507" lon="98.876808">
<time>2014-08-05T02:38:37Z</time></trkpt>
<trkpt lat="27.168637" lon="98.876948">
<time>2014-08-05T02:38:38Z</time></trkpt>
<trkpt lat="27.168707" lon="98.877008">
<time>2014-08-05T02:38:39Z</time></trkpt>
<trkpt lat="27.168768" lon="98.877058">
<time>2014-08-05T02:38:40Z</time></trkpt>
<trkpt lat="27.168848" lon="98.877118">
<time>2014-08-05T02:38:41Z</time></trkpt>
<trkpt lat="27.168918" lon="98.877158">
<time>2014-08-05T02:38:42Z</time></trkpt>
<trkpt lat="27.169048" lon="98.877218">
<time>2014-08-05T02:38:43Z</time></trkpt>
<trkpt lat="27.169198" lon="98.877298">
<time>2014-08-05T02:38:44Z</time></trkpt>
<trkpt lat="27.169338" lon="98.877368">
<time>2014-08-05T02:38:45Z</time></trkpt>
<trkpt lat="27.169478" lon="98.877448">
<time>2014-08-05T02:38:46Z</time></trkpt>
<trkpt lat="27.169568" lon="98.877498">
<time>2014-08-05T02:38:47Z</time></trkpt>
<trkpt lat="27.169658" lon="98.877548">
<time>2014-08-05T02:38:48Z</time></trkpt>
<trkpt lat="27.169778" lon="98.877598">
<time>2014-08-05T02:38:49Z</time></trkpt>
<trkpt lat="27.169838" lon="98.877618">
<time>2014-08-05T02:38:50Z</time></trkpt>
<trkpt lat="27.169958" lon="98.877648">
<time>2014-08-05T02:38:51Z</time></trkpt>
<trkpt lat="27.170068" lon="98.877698">
<time>2014-08-05T02:38:52Z</time></trkpt>
<trkpt lat="27.170168" lon="98.877738">
<time>2014-08-05T02:38:53Z</time></trkpt>
<trkpt lat="27.170288" lon="98.877808">
<time>2014-08-05T02:38:54Z</time></trkpt>
<trkpt lat="27.170418" lon="98.877898">
<time>2014-08-05T02:38:55Z</time></trkpt>
<trkpt lat="27.170468" lon="98.877938">
<time>2014-08-05T02:38:56Z</time></trkpt>
<trkpt lat="27.170488" lon="98.877958">
<time>2014-08-05T02:38:57Z</time></trkpt>
<trkpt lat="27.170498" lon="98.877978">
<time>2014-08-05T02:38:58Z</time></trkpt>
<trkpt lat="27.170518" lon="98.878008">
<time>2014-08-05T02:38:59Z</time></trkpt>
<trkpt lat="27.170538" lon="98.878028">
<time>2014-08-05T02:39:00Z</time></trkpt>
<trkpt lat="27.170548" lon="98.878068">
<time>2014-08-05T02:39:01Z</time></trkpt>
<trkpt lat="27.170558" lon="98.878098">
<time>2014-08-05T02:39:02Z</time></trkpt>
<trkpt lat="27.170568" lon="98.878128">
<time>2014-08-05T02:39:03Z</time></trkpt>
<trkpt lat="27.170578" lon="98.878158">
<time>2014-08-05T02:39:04Z</time></trkpt>
<trkpt lat="27.170578" lon="98.878178">
<time>2014-08-05T02:39:05Z</time></trkpt>
<trkpt lat="27.170578" lon="98.878208">
<time>2014-08-05T02:39:06Z</time></trkpt>
<trkpt lat="27.170578" lon="98.878218">
<time>2014-08-05T02:39:07Z</time></trkpt>
<trkpt lat="27.170578" lon="98.878228">
<time>2014-08-05T02:39:08Z</time></trkpt>
<trkpt lat="27.170578" lon="98.878268">
<time>2014-08-05T02:39:09Z</time></trkpt>
<trkpt lat="27.170578" lon="98.878318">
<time>2014-08-05T02:39:10Z</time></trkpt>
<trkpt lat="27.170578" lon="98.878338">
<time>2014-08-05T02:39:11Z</time></trkpt>
<trkpt lat="27.170578" lon="98.878348">
<time>2014-08-05T02:39:12Z</time></trkpt>
<trkpt lat="27.170578" lon="98.878358">
<time>2014-08-05T02:39:13Z</time></trkpt>
<trkpt lat="27.170578" lon="98.878368">
<time>2014-08-05T02:39:14Z</time></trkpt>
<trkpt lat="27.170578" lon="98.878388">
<time>2014-08-05T02:39:15Z</time></trkpt>
<trkpt lat="27.170578" lon="98.878408">
<time>2014-08-05T02:39:16Z</time></trkpt>
<trkpt lat="27.170568" lon="98.878428">
<time>2014-08-05T02:39:17Z</time></trkpt>
<trkpt lat="27.170568" lon="98.878448">
<time>2014-08-05T02:39:18Z</time></trkpt>
<trkpt lat="27.170568" lon="98.878468">
<time>2014-08-05T02:39:19Z</time></trkpt>
<trkpt lat="27.170568" lon="98.878478">
<time>2014-08-05T02:39:20Z</time></trkpt>
<trkpt lat="27.170568" lon="98.878488">
<time>2014-08-05T02:39:21Z</time></trkpt>
<trkpt lat="27.170568" lon="98.878508">
<time>2014-08-05T02:39:22Z</time></trkpt>
<trkpt lat="27.170568" lon="98.878518">
<time>2014-08-05T02:39:23Z</time></trkpt>
<trkpt lat="27.170568" lon="98.878528">
<time>2014-08-05T02:39:24Z</time></trkpt>
<trkpt lat="27.170578" lon="98.878548">
<time>2014-08-05T02:39:25Z</time></trkpt>
<trkpt lat="27.170579" lon="98.878588">
<time>2014-08-05T02:39:26Z</time></trkpt>
<trkpt lat="27.170589" lon="98.878628">
<time>2014-08-05T02:39:27Z</time></trkpt>
<trkpt lat="27.170589" lon="98.878648">
<time>2014-08-05T02:39:28Z</time></trkpt>
<trkpt lat="27.170589" lon="98.878668">
<time>2014-08-05T02:39:29Z</time></trkpt>
<trkpt lat="27.170599" lon="98.878688">
<time>2014-08-05T02:39:30Z</time></trkpt>
<trkpt lat="27.170609" lon="98.878728">
<time>2014-08-05T02:39:31Z</time></trkpt>
<trkpt lat="27.170609" lon="98.878748">
<time>2014-08-05T02:39:32Z</time></trkpt>
<trkpt lat="27.170609" lon="98.878758">
<time>2014-08-05T02:39:33Z</time></trkpt>
<trkpt lat="27.170619" lon="98.878778">
<time>2014-08-05T02:39:34Z</time></trkpt>
<trkpt lat="27.170629" lon="98.878808">
<time>2014-08-05T02:39:35Z</time></trkpt>
<trkpt lat="27.170639" lon="98.878828">
<time>2014-08-05T02:39:36Z</time></trkpt>
<trkpt lat="27.170649" lon="98.878858">
<time>2014-08-05T02:39:37Z</time></trkpt>
<trkpt lat="27.170659" lon="98.878868">
<time>2014-08-05T02:39:38Z</time></trkpt>
<trkpt lat="27.170659" lon="98.878888">
<time>2014-08-05T02:39:39Z</time></trkpt>
<trkpt lat="27.170669" lon="98.878898">
<time>2014-08-05T02:39:40Z</time></trkpt>
<trkpt lat="27.170679" lon="98.878928">
<time>2014-08-05T02:39:41Z</time></trkpt>
<trkpt lat="27.170689" lon="98.878948">
<time>2014-08-05T02:39:42Z</time></trkpt>
<trkpt lat="27.170699" lon="98.878958">
<time>2014-08-05T02:39:43Z</time></trkpt>
<trkpt lat="27.170699" lon="98.878968">
<time>2014-08-05T02:39:44Z</time></trkpt>
<trkpt lat="27.170709" lon="98.878978">
<time>2014-08-05T02:39:45Z</time></trkpt>
<trkpt lat="27.170719" lon="98.878998">
<time>2014-08-05T02:39:46Z</time></trkpt>
<trkpt lat="27.170749" lon="98.879038">
<time>2014-08-05T02:39:47Z</time></trkpt>
<trkpt lat="27.170769" lon="98.879068">
<time>2014-08-05T02:39:48Z</time></trkpt>
<trkpt lat="27.170789" lon="98.879098">
<time>2014-08-05T02:39:49Z</time></trkpt>
<trkpt lat="27.170839" lon="98.879158">
<time>2014-08-05T02:39:50Z</time></trkpt>
<trkpt lat="27.170849" lon="98.879168">
<time>2014-08-05T02:39:51Z</time></trkpt>
<trkpt lat="27.170869" lon="98.879188">
<time>2014-08-05T02:39:52Z</time></trkpt>
<trkpt lat="27.170889" lon="98.879228">
<time>2014-08-05T02:39:53Z</time></trkpt>
<trkpt lat="27.170959" lon="98.879308">
<time>2014-08-05T02:39:54Z</time></trkpt>
<trkpt lat="27.170999" lon="98.879358">
<time>2014-08-05T02:39:55Z</time></trkpt>
<trkpt lat="27.171029" lon="98.879408">
<time>2014-08-05T02:39:56Z</time></trkpt>
<trkpt lat="27.171059" lon="98.879438">
<time>2014-08-05T02:39:57Z</time></trkpt>
<trkpt lat="27.171079" lon="98.879488">
<time>2014-08-05T02:39:58Z</time></trkpt>
<trkpt lat="27.171089" lon="98.879518">
<time>2014-08-05T02:39:59Z</time></trkpt>
<trkpt lat="27.171099" lon="98.879538">
<time>2014-08-05T02:40:00Z</time></trkpt>
<trkpt lat="27.171109" lon="98.879558">
<time>2014-08-05T02:40:01Z</time></trkpt>
<trkpt lat="27.171109" lon="98.879568">
<time>2014-08-05T02:40:02Z</time></trkpt>
<trkpt lat="27.171109" lon="98.879588">
<time>2014-08-05T02:40:03Z</time></trkpt>
<trkpt lat="27.171119" lon="98.879598">
<time>2014-08-05T02:40:04Z</time></trkpt>
<trkpt lat="27.171119" lon="98.879618">
<time>2014-08-05T02:40:05Z</time></trkpt>
<trkpt lat="27.171119" lon="98.879638">
<time>2014-08-05T02:40:06Z</time></trkpt>
<trkpt lat="27.171119" lon="98.879658">
<time>2014-08-05T02:40:07Z</time></trkpt>
<trkpt lat="27.171119" lon="98.879678">
<time>2014-08-05T02:40:08Z</time></trkpt>
<trkpt lat="27.171109" lon="98.879718">
<time>2014-08-05T02:40:09Z</time></trkpt>
<trkpt lat="27.171099" lon="98.879788">
<time>2014-08-05T02:40:10Z</time></trkpt>
<trkpt lat="27.17104" lon="98.879958">
<time>2014-08-05T02:40:11Z</time></trkpt>
<trkpt lat="27.17102" lon="98.880038">
<time>2014-08-05T02:40:12Z</time></trkpt>
<trkpt lat="27.17101" lon="98.880088">
<time>2014-08-05T02:40:13Z</time></trkpt>
<trkpt lat="27.17101" lon="98.880128">
<time>2014-08-05T02:40:14Z</time></trkpt>
<trkpt lat="27.17101" lon="98.880138">
<time>2014-08-05T02:40:15Z</time></trkpt>
<trkpt lat="27.17101" lon="98.880148">
<time>2014-08-05T02:40:16Z</time></trkpt>
<trkpt lat="27.17101" lon="98.880158">
<time>2014-08-05T02:40:17Z</time></trkpt>
<trkpt lat="27.17101" lon="98.880178">
<time>2014-08-05T02:40:18Z</time></trkpt>
<trkpt lat="27.17101" lon="98.880188">
<time>2014-08-05T02:40:19Z</time></trkpt>
<trkpt lat="27.17102" lon="98.880208">
<time>2014-08-05T02:40:20Z</time></trkpt>
<trkpt lat="27.17103" lon="98.880238">
<time>2014-08-05T02:40:21Z</time></trkpt>
<trkpt lat="27.17103" lon="98.880258">
<time>2014-08-05T02:40:22Z</time></trkpt>
<trkpt lat="27.17104" lon="98.880278">
<time>2014-08-05T02:40:23Z</time></trkpt>
<trkpt lat="27.17105" lon="98.880308">
<time>2014-08-05T02:40:24Z</time></trkpt>
<trkpt lat="27.17113" lon="98.880488">
<time>2014-08-05T02:40:25Z</time></trkpt>
<trkpt lat="27.17114" lon="98.880518">
<time>2014-08-05T02:40:26Z</time></trkpt>
<trkpt lat="27.17115" lon="98.880548">
<time>2014-08-05T02:40:27Z</time></trkpt>
<trkpt lat="27.17116" lon="98.880578">
<time>2014-08-05T02:40:28Z</time></trkpt>
<trkpt lat="27.17116" lon="98.880598">
<time>2014-08-05T02:40:29Z</time></trkpt>
<trkpt lat="27.17116" lon="98.880618">
<time>2014-08-05T02:40:30Z</time></trkpt>
<trkpt lat="27.17116" lon="98.880638">
<time>2014-08-05T02:40:31Z</time></trkpt>
<trkpt lat="27.17117" lon="98.880658">
<time>2014-08-05T02:40:32Z</time></trkpt>
<trkpt lat="27.17117" lon="98.880678">
<time>2014-08-05T02:40:33Z</time></trkpt>
<trkpt lat="27.17117" lon="98.880698">
<time>2014-08-05T02:40:34Z</time></trkpt>
<trkpt lat="27.17116" lon="98.880748">
<time>2014-08-05T02:40:35Z</time></trkpt>
<trkpt lat="27.17114" lon="98.880888">
<time>2014-08-05T02:40:36Z</time></trkpt>
<trkpt lat="27.17114" lon="98.880918">
<time>2014-08-05T02:40:37Z</time></trkpt>
<trkpt lat="27.17113" lon="98.880938">
<time>2014-08-05T02:40:38Z</time></trkpt>
<trkpt lat="27.17113" lon="98.880958">
<time>2014-08-05T02:40:39Z</time></trkpt>
<trkpt lat="27.17113" lon="98.880978">
<time>2014-08-05T02:40:40Z</time></trkpt>
<trkpt lat="27.17114" lon="98.880988">
<time>2014-08-05T02:40:41Z</time></trkpt>
<trkpt lat="27.17114" lon="98.881008">
<time>2014-08-05T02:40:42Z</time></trkpt>
<trkpt lat="27.17114" lon="98.881018">
<time>2014-08-05T02:40:43Z</time></trkpt>
<trkpt lat="27.171151" lon="98.881048">
<time>2014-08-05T02:40:44Z</time></trkpt>
<trkpt lat="27.171161" lon="98.881068">
<time>2014-08-05T02:40:45Z</time></trkpt>
<trkpt lat="27.171171" lon="98.881088">
<time>2014-08-05T02:40:46Z</time></trkpt>
<trkpt lat="27.171181" lon="98.881098">
<time>2014-08-05T02:40:47Z</time></trkpt>
<trkpt lat="27.171191" lon="98.881128">
<time>2014-08-05T02:40:48Z</time></trkpt>
<trkpt lat="27.171201" lon="98.881138">
<time>2014-08-05T02:40:49Z</time></trkpt>
<trkpt lat="27.171211" lon="98.881158">
<time>2014-08-05T02:40:50Z</time></trkpt>
<trkpt lat="27.171261" lon="98.881208">
<time>2014-08-05T02:40:51Z</time></trkpt>
<trkpt lat="27.171341" lon="98.881298">
<time>2014-08-05T02:40:52Z</time></trkpt>
<trkpt lat="27.171411" lon="98.881368">
<time>2014-08-05T02:40:53Z</time></trkpt>
<trkpt lat="27.171461" lon="98.881428">
<time>2014-08-05T02:40:54Z</time></trkpt>
<trkpt lat="27.171521" lon="98.881518">
<time>2014-08-05T02:40:55Z</time></trkpt>
<trkpt lat="27.171571" lon="98.881589">
<time>2014-08-05T02:40:56Z</time></trkpt>
<trkpt lat="27.171741" lon="98.881859">
<time>2014-08-05T02:40:57Z</time></trkpt>
<trkpt lat="27.171831" lon="98.882009">
<time>2014-08-05T02:40:58Z</time></trkpt>
<trkpt lat="27.171911" lon="98.882149">
<time>2014-08-05T02:40:59Z</time></trkpt>
<trkpt lat="27.171931" lon="98.882209">
<time>2014-08-05T02:41:00Z</time></trkpt>
<trkpt lat="27.171951" lon="98.882239">
<time>2014-08-05T02:41:01Z</time></trkpt>
<trkpt lat="27.171951" lon="98.882259">
<time>2014-08-05T02:41:02Z</time></trkpt>
<trkpt lat="27.171961" lon="98.882279">
<time>2014-08-05T02:41:03Z</time></trkpt>
<trkpt lat="27.171971" lon="98.882329">
<time>2014-08-05T02:41:04Z</time></trkpt>
<trkpt lat="27.171981" lon="98.882379">
<time>2014-08-05T02:41:05Z</time></trkpt>
<trkpt lat="27.171981" lon="98.882429">
<time>2014-08-05T02:41:06Z</time></trkpt>
<trkpt lat="27.171981" lon="98.882479">
<time>2014-08-05T02:41:07Z</time></trkpt>
<trkpt lat="27.171982" lon="98.882539">
<time>2014-08-05T02:41:08Z</time></trkpt>
<trkpt lat="27.171972" lon="98.882589">
<time>2014-08-05T02:41:09Z</time></trkpt>
<trkpt lat="27.171952" lon="98.882699">
<time>2014-08-05T02:41:10Z</time></trkpt>
<trkpt lat="27.171932" lon="98.882819">
<time>2014-08-05T02:41:11Z</time></trkpt>
<trkpt lat="27.171892" lon="98.882999">
<time>2014-08-05T02:41:12Z</time></trkpt>
<trkpt lat="27.171892" lon="98.883059">
<time>2014-08-05T02:41:13Z</time></trkpt>
<trkpt lat="27.171882" lon="98.883149">
<time>2014-08-05T02:41:14Z</time></trkpt>
<trkpt lat="27.171882" lon="98.883199">
<time>2014-08-05T02:41:15Z</time></trkpt>
<trkpt lat="27.171892" lon="98.883249">
<time>2014-08-05T02:41:16Z</time></trkpt>
<trkpt lat="27.171902" lon="98.883329">
<time>2014-08-05T02:41:17Z</time></trkpt>
<trkpt lat="27.171912" lon="98.883379">
<time>2014-08-05T02:41:18Z</time></trkpt>
<trkpt lat="27.171932" lon="98.883439">
<time>2014-08-05T02:41:19Z</time></trkpt>
<trkpt lat="27.171992" lon="98.883589">
<time>2014-08-05T02:41:20Z</time></trkpt>
<trkpt lat="27.172052" lon="98.883739">
<time>2014-08-05T02:41:21Z</time></trkpt>
<trkpt lat="27.172203" lon="98.884029">
<time>2014-08-05T02:41:22Z</time></trkpt>
<trkpt lat="27.172323" lon="98.884269">
<time>2014-08-05T02:41:23Z</time></trkpt>
<trkpt lat="27.172353" lon="98.884309">
<time>2014-08-05T02:41:24Z</time></trkpt>
<trkpt lat="27.172363" lon="98.884349">
<time>2014-08-05T02:41:25Z</time></trkpt>
<trkpt lat="27.172393" lon="98.884419">
<time>2014-08-05T02:41:26Z</time></trkpt>
<trkpt lat="27.172413" lon="98.884489">
<time>2014-08-05T02:41:27Z</time></trkpt>
<trkpt lat="27.172453" lon="98.884579">
<time>2014-08-05T02:41:28Z</time></trkpt>
<trkpt lat="27.172483" lon="98.884659">
<time>2014-08-05T02:41:29Z</time></trkpt>
<trkpt lat="27.172503" lon="98.884749">
<time>2014-08-05T02:41:30Z</time></trkpt>
<trkpt lat="27.172523" lon="98.884809">
<time>2014-08-05T02:41:31Z</time></trkpt>
<trkpt lat="27.172523" lon="98.884859">
<time>2014-08-05T02:41:32Z</time></trkpt>
<trkpt lat="27.172533" lon="98.884909">
<time>2014-08-05T02:41:33Z</time></trkpt>
<trkpt lat="27.172553" lon="98.884999">
<time>2014-08-05T02:41:34Z</time></trkpt>
<trkpt lat="27.172573" lon="98.885229">
<time>2014-08-05T02:41:35Z</time></trkpt>
<trkpt lat="27.172583" lon="98.885259">
<time>2014-08-05T02:41:36Z</time></trkpt>
<trkpt lat="27.172583" lon="98.885279">
<time>2014-08-05T02:41:37Z</time></trkpt>
<trkpt lat="27.172593" lon="98.885329">
<time>2014-08-05T02:41:38Z</time></trkpt>
<trkpt lat="27.172603" lon="98.885359">
<time>2014-08-05T02:41:39Z</time></trkpt>
<trkpt lat="27.172613" lon="98.885389">
<time>2014-08-05T02:41:40Z</time></trkpt>
<trkpt lat="27.172633" lon="98.885419">
<time>2014-08-05T02:41:41Z</time></trkpt>
<trkpt lat="27.172643" lon="98.885439">
<time>2014-08-05T02:41:42Z</time></trkpt>
<trkpt lat="27.172653" lon="98.885469">
<time>2014-08-05T02:41:43Z</time></trkpt>
<trkpt lat="27.172673" lon="98.885489">
<time>2014-08-05T02:41:44Z</time></trkpt>
<trkpt lat="27.172693" lon="98.885519">
<time>2014-08-05T02:41:45Z</time></trkpt>
<trkpt lat="27.172713" lon="98.885539">
<time>2014-08-05T02:41:46Z</time></trkpt>
<trkpt lat="27.172803" lon="98.885619">
<time>2014-08-05T02:41:47Z</time></trkpt>
<trkpt lat="27.172924" lon="98.885719">
<time>2014-08-05T02:41:48Z</time></trkpt>
<trkpt lat="27.173014" lon="98.885798">
<time>2014-08-05T02:41:49Z</time></trkpt>
<trkpt lat="27.173044" lon="98.885838">
<time>2014-08-05T02:41:50Z</time></trkpt>
<trkpt lat="27.173074" lon="98.885888">
<time>2014-08-05T02:41:51Z</time></trkpt>
<trkpt lat="27.173094" lon="98.885928">
<time>2014-08-05T02:41:52Z</time></trkpt>
<trkpt lat="27.173104" lon="98.885968">
<time>2014-08-05T02:41:53Z</time></trkpt>
<trkpt lat="27.173114" lon="98.886028">
<time>2014-08-05T02:41:54Z</time></trkpt>
<trkpt lat="27.173114" lon="98.886088">
<time>2014-08-05T02:41:55Z</time></trkpt>
<trkpt lat="27.173104" lon="98.886208">
<time>2014-08-05T02:41:56Z</time></trkpt>
<trkpt lat="27.173084" lon="98.886318">
<time>2014-08-05T02:41:57Z</time></trkpt>
<trkpt lat="27.173074" lon="98.886388">
<time>2014-08-05T02:41:58Z</time></trkpt>
<trkpt lat="27.173064" lon="98.886458">
<time>2014-08-05T02:41:59Z</time></trkpt>
<trkpt lat="27.173044" lon="98.886628">
<time>2014-08-05T02:42:00Z</time></trkpt>
<trkpt lat="27.173044" lon="98.886658">
<time>2014-08-05T02:42:01Z</time></trkpt>
<trkpt lat="27.173044" lon="98.886678">
<time>2014-08-05T02:42:02Z</time></trkpt>
<trkpt lat="27.173044" lon="98.886698">
<time>2014-08-05T02:42:03Z</time></trkpt>
<trkpt lat="27.173044" lon="98.886728">
<time>2014-08-05T02:42:04Z</time></trkpt>
<trkpt lat="27.173054" lon="98.886748">
<time>2014-08-05T02:42:05Z</time></trkpt>
<trkpt lat="27.173054" lon="98.886758">
<time>2014-08-05T02:42:06Z</time></trkpt>
<trkpt lat="27.173064" lon="98.886778">
<time>2014-08-05T02:42:07Z</time></trkpt>
<trkpt lat="27.173074" lon="98.886798">
<time>2014-08-05T02:42:08Z</time></trkpt>
<trkpt lat="27.173084" lon="98.886818">
<time>2014-08-05T02:42:09Z</time></trkpt>
<trkpt lat="27.173104" lon="98.886848">
<time>2014-08-05T02:42:10Z</time></trkpt>
<trkpt lat="27.173124" lon="98.886878">
<time>2014-08-05T02:42:11Z</time></trkpt>
<trkpt lat="27.173164" lon="98.886918">
<time>2014-08-05T02:42:12Z</time></trkpt>
<trkpt lat="27.173204" lon="98.886948">
<time>2014-08-05T02:42:13Z</time></trkpt>
<trkpt lat="27.173264" lon="98.886998">
<time>2014-08-05T02:42:14Z</time></trkpt>
<trkpt lat="27.173304" lon="98.887018">
<time>2014-08-05T02:42:15Z</time></trkpt>
<trkpt lat="27.173364" lon="98.887038">
<time>2014-08-05T02:42:16Z</time></trkpt>
<trkpt lat="27.173404" lon="98.887058">
<time>2014-08-05T02:42:17Z</time></trkpt>
<trkpt lat="27.173474" lon="98.887078">
<time>2014-08-05T02:42:18Z</time></trkpt>
<trkpt lat="27.173554" lon="98.887108">
<time>2014-08-05T02:42:19Z</time></trkpt>
<trkpt lat="27.173664" lon="98.887138">
<time>2014-08-05T02:42:20Z</time></trkpt>
<trkpt lat="27.173674" lon="98.887138">
<time>2014-08-05T02:42:21Z</time></trkpt>
<trkpt lat="27.173684" lon="98.887138">
<time>2014-08-05T02:42:22Z</time></trkpt>
<trkpt lat="27.173694" lon="98.887148">
<time>2014-08-05T02:42:23Z</time></trkpt>
<trkpt lat="27.173754" lon="98.887158">
<time>2014-08-05T02:42:24Z</time></trkpt>
<trkpt lat="27.173834" lon="98.887188">
<time>2014-08-05T02:42:25Z</time></trkpt>
<trkpt lat="27.173914" lon="98.887218">
<time>2014-08-05T02:42:26Z</time></trkpt>
<trkpt lat="27.173964" lon="98.887238">
<time>2014-08-05T02:42:27Z</time></trkpt>
<trkpt lat="27.174054" lon="98.887278">
<time>2014-08-05T02:42:28Z</time></trkpt>
<trkpt lat="27.174144" lon="98.887338">
<time>2014-08-05T02:42:29Z</time></trkpt>
<trkpt lat="27.174244" lon="98.887418">
<time>2014-08-05T02:42:30Z</time></trkpt>
<trkpt lat="27.174354" lon="98.887498">
<time>2014-08-05T02:42:31Z</time></trkpt>
<trkpt lat="27.174564" lon="98.887648">
<time>2014-08-05T02:42:32Z</time></trkpt>
<trkpt lat="27.174724" lon="98.887738">
<time>2014-08-05T02:42:33Z</time></trkpt>
<trkpt lat="27.175044" lon="98.887888">
<time>2014-08-05T02:42:34Z</time></trkpt>
<trkpt lat="27.175294" lon="98.887988">
<time>2014-08-05T02:42:35Z</time></trkpt>
<trkpt lat="27.175444" lon="98.888058">
<time>2014-08-05T02:42:36Z</time></trkpt>
<trkpt lat="27.175534" lon="98.888108">
<time>2014-08-05T02:42:37Z</time></trkpt>
<trkpt lat="27.175614" lon="98.888168">
<time>2014-08-05T02:42:38Z</time></trkpt>
<trkpt lat="27.175674" lon="98.888228">
<time>2014-08-05T02:42:39Z</time></trkpt>
<trkpt lat="27.175794" lon="98.888348">
<time>2014-08-05T02:42:40Z</time></trkpt>
<trkpt lat="27.175904" lon="98.888468">
<time>2014-08-05T02:42:41Z</time></trkpt>
<trkpt lat="27.176114" lon="98.888648">
<time>2014-08-05T02:42:42Z</time></trkpt>
<trkpt lat="27.176325" lon="98.888838">
<time>2014-08-05T02:42:43Z</time></trkpt>
<trkpt lat="27.176445" lon="98.888928">
<time>2014-08-05T02:42:44Z</time></trkpt>
<trkpt lat="27.176525" lon="98.889008">
<time>2014-08-05T02:42:45Z</time></trkpt>
<trkpt lat="27.176625" lon="98.889078">
<time>2014-08-05T02:42:46Z</time></trkpt>
<trkpt lat="27.176765" lon="98.889188">
<time>2014-08-05T02:42:47Z</time></trkpt>
<trkpt lat="27.176875" lon="98.889268">
<time>2014-08-05T02:42:48Z</time></trkpt>
<trkpt lat="27.176965" lon="98.889318">
<time>2014-08-05T02:42:49Z</time></trkpt>
<trkpt lat="27.177055" lon="98.889378">
<time>2014-08-05T02:42:50Z</time></trkpt>
<trkpt lat="27.177175" lon="98.889448">
<time>2014-08-05T02:42:51Z</time></trkpt>
<trkpt lat="27.177265" lon="98.889498">
<time>2014-08-05T02:42:52Z</time></trkpt>
<trkpt lat="27.177305" lon="98.889528">
<time>2014-08-05T02:42:53Z</time></trkpt>
<trkpt lat="27.177355" lon="98.889548">
<time>2014-08-05T02:42:54Z</time></trkpt>
<trkpt lat="27.177405" lon="98.889568">
<time>2014-08-05T02:42:55Z</time></trkpt>
<trkpt lat="27.177455" lon="98.889588">
<time>2014-08-05T02:42:56Z</time></trkpt>
<trkpt lat="27.177545" lon="98.889608">
<time>2014-08-05T02:42:57Z</time></trkpt>
<trkpt lat="27.177605" lon="98.889628">
<time>2014-08-05T02:42:58Z</time></trkpt>
<trkpt lat="27.177805" lon="98.889688">
<time>2014-08-05T02:42:59Z</time></trkpt>
<trkpt lat="27.177985" lon="98.889748">
<time>2014-08-05T02:43:00Z</time></trkpt>
<trkpt lat="27.178035" lon="98.889768">
<time>2014-08-05T02:43:01Z</time></trkpt>
<trkpt lat="27.178085" lon="98.889778">
<time>2014-08-05T02:43:02Z</time></trkpt>
<trkpt lat="27.178095" lon="98.889778">
<time>2014-08-05T02:43:03Z</time></trkpt>
<trkpt lat="27.178105" lon="98.889778">
<time>2014-08-05T02:43:04Z</time></trkpt>
<trkpt lat="27.178125" lon="98.889778">
<time>2014-08-05T02:43:05Z</time></trkpt>
<trkpt lat="27.178155" lon="98.889768">
<time>2014-08-05T02:43:06Z</time></trkpt>
<trkpt lat="27.178175" lon="98.889768">
<time>2014-08-05T02:43:07Z</time></trkpt>
<trkpt lat="27.178195" lon="98.889768">
<time>2014-08-05T02:43:08Z</time></trkpt>
<trkpt lat="27.178215" lon="98.889758">
<time>2014-08-05T02:43:09Z</time></trkpt>
<trkpt lat="27.178264" lon="98.889738">
<time>2014-08-05T02:43:10Z</time></trkpt>
<trkpt lat="27.178314" lon="98.889718">
<time>2014-08-05T02:43:11Z</time></trkpt>
<trkpt lat="27.178394" lon="98.889678">
<time>2014-08-05T02:43:12Z</time></trkpt>
<trkpt lat="27.178464" lon="98.889658">
<time>2014-08-05T02:43:13Z</time></trkpt>
<trkpt lat="27.178704" lon="98.889548">
<time>2014-08-05T02:43:14Z</time></trkpt>
<trkpt lat="27.178864" lon="98.889488">
<time>2014-08-05T02:43:15Z</time></trkpt>
<trkpt lat="27.179014" lon="98.889438">
<time>2014-08-05T02:43:16Z</time></trkpt>
<trkpt lat="27.179084" lon="98.889428">
<time>2014-08-05T02:43:17Z</time></trkpt>
<trkpt lat="27.179154" lon="98.889418">
<time>2014-08-05T02:43:18Z</time></trkpt>
<trkpt lat="27.179214" lon="98.889418">
<time>2014-08-05T02:43:19Z</time></trkpt>
<trkpt lat="27.179254" lon="98.889418">
<time>2014-08-05T02:43:20Z</time></trkpt>
<trkpt lat="27.179294" lon="98.889428">
<time>2014-08-05T02:43:21Z</time></trkpt>
<trkpt lat="27.179324" lon="98.889438">
<time>2014-08-05T02:43:22Z</time></trkpt>
<trkpt lat="27.179354" lon="98.889448">
<time>2014-08-05T02:43:23Z</time></trkpt>
<trkpt lat="27.179384" lon="98.889468">
<time>2014-08-05T02:43:24Z</time></trkpt>
<trkpt lat="27.179414" lon="98.889488">
<time>2014-08-05T02:43:25Z</time></trkpt>
<trkpt lat="27.179444" lon="98.889508">
<time>2014-08-05T02:43:26Z</time></trkpt>
<trkpt lat="27.179474" lon="98.889548">
<time>2014-08-05T02:43:27Z</time></trkpt>
<trkpt lat="27.179564" lon="98.889648">
<time>2014-08-05T02:43:28Z</time></trkpt>
<trkpt lat="27.179594" lon="98.889668">
<time>2014-08-05T02:43:29Z</time></trkpt>
<trkpt lat="27.179624" lon="98.889688">
<time>2014-08-05T02:43:30Z</time></trkpt>
<trkpt lat="27.179634" lon="98.889698">
<time>2014-08-05T02:43:31Z</time></trkpt>
<trkpt lat="27.179654" lon="98.889698">
<time>2014-08-05T02:43:32Z</time></trkpt>
<trkpt lat="27.179664" lon="98.889708">
<time>2014-08-05T02:43:33Z</time></trkpt>
<trkpt lat="27.179684" lon="98.889708">
<time>2014-08-05T02:43:34Z</time></trkpt>
<trkpt lat="27.179704" lon="98.889708">
<time>2014-08-05T02:43:35Z</time></trkpt>
<trkpt lat="27.179724" lon="98.889708">
<time>2014-08-05T02:43:36Z</time></trkpt>
<trkpt lat="27.179744" lon="98.889698">
<time>2014-08-05T02:43:37Z</time></trkpt>
<trkpt lat="27.179764" lon="98.889698">
<time>2014-08-05T02:43:38Z</time></trkpt>
<trkpt lat="27.179784" lon="98.889688">
<time>2014-08-05T02:43:39Z</time></trkpt>
<trkpt lat="27.179824" lon="98.889678">
<time>2014-08-05T02:43:40Z</time></trkpt>
<trkpt lat="27.179844" lon="98.889668">
<time>2014-08-05T02:43:41Z</time></trkpt>
<trkpt lat="27.179914" lon="98.889628">
<time>2014-08-05T02:43:42Z</time></trkpt>
<trkpt lat="27.180034" lon="98.889568">
<time>2014-08-05T02:43:43Z</time></trkpt>
<trkpt lat="27.180174" lon="98.889508">
<time>2014-08-05T02:43:44Z</time></trkpt>
<trkpt lat="27.180264" lon="98.889488">
<time>2014-08-05T02:43:45Z</time></trkpt>
<trkpt lat="27.180394" lon="98.889458">
<time>2014-08-05T02:43:46Z</time></trkpt>
<trkpt lat="27.180594" lon="98.889418">
<time>2014-08-05T02:43:47Z</time></trkpt>
<trkpt lat="27.180814" lon="98.889358">
<time>2014-08-05T02:43:48Z</time></trkpt>
<trkpt lat="27.180994" lon="98.889318">
<time>2014-08-05T02:43:49Z</time></trkpt>
<trkpt lat="27.181104" lon="98.889288">
<time>2014-08-05T02:43:50Z</time></trkpt>
<trkpt lat="27.181213" lon="98.889248">
<time>2014-08-05T02:43:51Z</time></trkpt>
<trkpt lat="27.181283" lon="98.889218">
<time>2014-08-05T02:43:52Z</time></trkpt>
<trkpt lat="27.181383" lon="98.889168">
<time>2014-08-05T02:43:53Z</time></trkpt>
<trkpt lat="27.181533" lon="98.889088">
<time>2014-08-05T02:43:54Z</time></trkpt>
<trkpt lat="27.181613" lon="98.889058">
<time>2014-08-05T02:43:55Z</time></trkpt>
<trkpt lat="27.181713" lon="98.889038">
<time>2014-08-05T02:43:56Z</time></trkpt>
<trkpt lat="27.181803" lon="98.889018">
<time>2014-08-05T02:43:57Z</time></trkpt>
<trkpt lat="27.182023" lon="98.888968">
<time>2014-08-05T02:43:58Z</time></trkpt>
<trkpt lat="27.182203" lon="98.888928">
<time>2014-08-05T02:43:59Z</time></trkpt>
<trkpt lat="27.182353" lon="98.888888">
<time>2014-08-05T02:44:00Z</time></trkpt>
<trkpt lat="27.182503" lon="98.888838">
<time>2014-08-05T02:44:01Z</time></trkpt>
<trkpt lat="27.182703" lon="98.888758">
<time>2014-08-05T02:44:02Z</time></trkpt>
<trkpt lat="27.182893" lon="98.888688">
<time>2014-08-05T02:44:03Z</time></trkpt>
<trkpt lat="27.182993" lon="98.888658">
<time>2014-08-05T02:44:04Z</time></trkpt>
<trkpt lat="27.183023" lon="98.888658">
<time>2014-08-05T02:44:05Z</time></trkpt>
<trkpt lat="27.183073" lon="98.888648">
<time>2014-08-05T02:44:06Z</time></trkpt>
<trkpt lat="27.183113" lon="98.888648">
<time>2014-08-05T02:44:07Z</time></trkpt>
<trkpt lat="27.183153" lon="98.888648">
<time>2014-08-05T02:44:08Z</time></trkpt>
<trkpt lat="27.183183" lon="98.888648">
<time>2014-08-05T02:44:09Z</time></trkpt>
<trkpt lat="27.183253" lon="98.888658">
<time>2014-08-05T02:44:10Z</time></trkpt>
<trkpt lat="27.183303" lon="98.888668">
<time>2014-08-05T02:44:11Z</time></trkpt>
<trkpt lat="27.183353" lon="98.888678">
<time>2014-08-05T02:44:12Z</time></trkpt>
<trkpt lat="27.183413" lon="98.888708">
<time>2014-08-05T02:44:13Z</time></trkpt>
<trkpt lat="27.183463" lon="98.888728">
<time>2014-08-05T02:44:14Z</time></trkpt>
<trkpt lat="27.183593" lon="98.888788">
<time>2014-08-05T02:44:15Z</time></trkpt>
<trkpt lat="27.183703" lon="98.888838">
<time>2014-08-05T02:44:16Z</time></trkpt>
<trkpt lat="27.183763" lon="98.888858">
<time>2014-08-05T02:44:17Z</time></trkpt>
<trkpt lat="27.183823" lon="98.888878">
<time>2014-08-05T02:44:18Z</time></trkpt>
<trkpt lat="27.183913" lon="98.888898">
<time>2014-08-05T02:44:19Z</time></trkpt>
<trkpt lat="27.183973" lon="98.888908">
<time>2014-08-05T02:44:20Z</time></trkpt>
<trkpt lat="27.184023" lon="98.888918">
<time>2014-08-05T02:44:21Z</time></trkpt>
<trkpt lat="27.184103" lon="98.888928">
<time>2014-08-05T02:44:22Z</time></trkpt>
<trkpt lat="27.184153" lon="98.888928">
<time>2014-08-05T02:44:23Z</time></trkpt>
<trkpt lat="27.184223" lon="98.888918">
<time>2014-08-05T02:44:24Z</time></trkpt>
<trkpt lat="27.184283" lon="98.888908">
<time>2014-08-05T02:44:25Z</time></trkpt>
<trkpt lat="27.184353" lon="98.888898">
<time>2014-08-05T02:44:26Z</time></trkpt>
<trkpt lat="27.184412" lon="98.888878">
<time>2014-08-05T02:44:27Z</time></trkpt>
<trkpt lat="27.184472" lon="98.888848">
<time>2014-08-05T02:44:28Z</time></trkpt>
<trkpt lat="27.184652" lon="98.888748">
<time>2014-08-05T02:44:29Z</time></trkpt>
<trkpt lat="27.184732" lon="98.888718">
<time>2014-08-05T02:44:30Z</time></trkpt>
<trkpt lat="27.184802" lon="98.888688">
<time>2014-08-05T02:44:31Z</time></trkpt>
<trkpt lat="27.184822" lon="98.888678">
<time>2014-08-05T02:44:32Z</time></trkpt>
<trkpt lat="27.184862" lon="98.888668">
<time>2014-08-05T02:44:33Z</time></trkpt>
<trkpt lat="27.184932" lon="98.888648">
<time>2014-08-05T02:44:34Z</time></trkpt>
<trkpt lat="27.185012" lon="98.888638">
<time>2014-08-05T02:44:35Z</time></trkpt>
<trkpt lat="27.185102" lon="98.888618">
<time>2014-08-05T02:44:36Z</time></trkpt>
<trkpt lat="27.185212" lon="98.888588">
<time>2014-08-05T02:44:37Z</time></trkpt>
<trkpt lat="27.185302" lon="98.888558">
<time>2014-08-05T02:44:38Z</time></trkpt>
<trkpt lat="27.185372" lon="98.888528">
<time>2014-08-05T02:44:39Z</time></trkpt>
<trkpt lat="27.185502" lon="98.888478">
<time>2014-08-05T02:44:40Z</time></trkpt>
<trkpt lat="27.185592" lon="98.888448">
<time>2014-08-05T02:44:41Z</time></trkpt>
<trkpt lat="27.185712" lon="98.888408">
<time>2014-08-05T02:44:42Z</time></trkpt>
<trkpt lat="27.185902" lon="98.888348">
<time>2014-08-05T02:44:43Z</time></trkpt>
<trkpt lat="27.186062" lon="98.888298">
<time>2014-08-05T02:44:44Z</time></trkpt>
<trkpt lat="27.186202" lon="98.888238">
<time>2014-08-05T02:44:45Z</time></trkpt>
<trkpt lat="27.186362" lon="98.888158">
<time>2014-08-05T02:44:46Z</time></trkpt>
<trkpt lat="27.186502" lon="98.888088">
<time>2014-08-05T02:44:47Z</time></trkpt>
<trkpt lat="27.186621" lon="98.888058">
<time>2014-08-05T02:44:48Z</time></trkpt>
<trkpt lat="27.186771" lon="98.888018">
<time>2014-08-05T02:44:49Z</time></trkpt>
<trkpt lat="27.186901" lon="98.887988">
<time>2014-08-05T02:44:50Z</time></trkpt>
<trkpt lat="27.186961" lon="98.887958">
<time>2014-08-05T02:44:51Z</time></trkpt>
<trkpt lat="27.187041" lon="98.887918">
<time>2014-08-05T02:44:52Z</time></trkpt>
<trkpt lat="27.187131" lon="98.887858">
<time>2014-08-05T02:44:53Z</time></trkpt>
<trkpt lat="27.187191" lon="98.887798">
<time>2014-08-05T02:44:54Z</time></trkpt>
<trkpt lat="27.187351" lon="98.887658">
<time>2014-08-05T02:44:55Z</time></trkpt>
<trkpt lat="27.187421" lon="98.887598">
<time>2014-08-05T02:44:56Z</time></trkpt>
<trkpt lat="27.187491" lon="98.887548">
<time>2014-08-05T02:44:57Z</time></trkpt>
<trkpt lat="27.187551" lon="98.887508">
<time>2014-08-05T02:44:58Z</time></trkpt>
<trkpt lat="27.187611" lon="98.887478">
<time>2014-08-05T02:44:59Z</time></trkpt>
<trkpt lat="27.187641" lon="98.887468">
<time>2014-08-05T02:45:00Z</time></trkpt>
<trkpt lat="27.187671" lon="98.887448">
<time>2014-08-05T02:45:01Z</time></trkpt>
<trkpt lat="27.187711" lon="98.887438">
<time>2014-08-05T02:45:02Z</time></trkpt>
<trkpt lat="27.187761" lon="98.887428">
<time>2014-08-05T02:45:03Z</time></trkpt>
<trkpt lat="27.187821" lon="98.887418">
<time>2014-08-05T02:45:04Z</time></trkpt>
<trkpt lat="27.187911" lon="98.887408">
<time>2014-08-05T02:45:05Z</time></trkpt>
<trkpt lat="27.188151" lon="98.887398">
<time>2014-08-05T02:45:06Z</time></trkpt>
<trkpt lat="27.188331" lon="98.887388">
<time>2014-08-05T02:45:07Z</time></trkpt>
<trkpt lat="27.188441" lon="98.887368">
<time>2014-08-05T02:45:08Z</time></trkpt>
<trkpt lat="27.188641" lon="98.887328">
<time>2014-08-05T02:45:09Z</time></trkpt>
<trkpt lat="27.188751" lon="98.887288">
<time>2014-08-05T02:45:10Z</time></trkpt>
<trkpt lat="27.18883" lon="98.887258">
<time>2014-08-05T02:45:11Z</time></trkpt>
<trkpt lat="27.18893" lon="98.887208">
<time>2014-08-05T02:45:12Z</time></trkpt>
<trkpt lat="27.18899" lon="98.887168">
<time>2014-08-05T02:45:13Z</time></trkpt>
<trkpt lat="27.18915" lon="98.887068">
<time>2014-08-05T02:45:14Z</time></trkpt>
<trkpt lat="27.18924" lon="98.887008">
<time>2014-08-05T02:45:15Z</time></trkpt>
<trkpt lat="27.18932" lon="98.886968">
<time>2014-08-05T02:45:16Z</time></trkpt>
<trkpt lat="27.1894" lon="98.886938">
<time>2014-08-05T02:45:17Z</time></trkpt>
<trkpt lat="27.18966" lon="98.886828">
<time>2014-08-05T02:45:18Z</time></trkpt>
<trkpt lat="27.18986" lon="98.886748">
<time>2014-08-05T02:45:19Z</time></trkpt>
<trkpt lat="27.18996" lon="98.886698">
<time>2014-08-05T02:45:20Z</time></trkpt>
<trkpt lat="27.19004" lon="98.886658">
<time>2014-08-05T02:45:21Z</time></trkpt>
<trkpt lat="27.19011" lon="98.886618">
<time>2014-08-05T02:45:22Z</time></trkpt>
<trkpt lat="27.1902" lon="98.886538">
<time>2014-08-05T02:45:23Z</time></trkpt>
<trkpt lat="27.19041" lon="98.886358">
<time>2014-08-05T02:45:24Z</time></trkpt>
<trkpt lat="27.190669" lon="98.886128">
<time>2014-08-05T02:45:25Z</time></trkpt>
<trkpt lat="27.190989" lon="98.885838">
<time>2014-08-05T02:45:26Z</time></trkpt>
<trkpt lat="27.191159" lon="98.885698">
<time>2014-08-05T02:45:27Z</time></trkpt>
<trkpt lat="27.191369" lon="98.885528">
<time>2014-08-05T02:45:28Z</time></trkpt>
<trkpt lat="27.191449" lon="98.885488">
<time>2014-08-05T02:45:29Z</time></trkpt>
<trkpt lat="27.191539" lon="98.885438">
<time>2014-08-05T02:45:30Z</time></trkpt>
<trkpt lat="27.191569" lon="98.885418">
<time>2014-08-05T02:45:31Z</time></trkpt>
<trkpt lat="27.191609" lon="98.885398">
<time>2014-08-05T02:45:32Z</time></trkpt>
<trkpt lat="27.191679" lon="98.885378">
<time>2014-08-05T02:45:33Z</time></trkpt>
<trkpt lat="27.191749" lon="98.885358">
<time>2014-08-05T02:45:34Z</time></trkpt>
<trkpt lat="27.191809" lon="98.885338">
<time>2014-08-05T02:45:35Z</time></trkpt>
<trkpt lat="27.191968" lon="98.885318">
<time>2014-08-05T02:45:36Z</time></trkpt>
<trkpt lat="27.192128" lon="98.885298">
<time>2014-08-05T02:45:37Z</time></trkpt>
<trkpt lat="27.192358" lon="98.885258">
<time>2014-08-05T02:45:38Z</time></trkpt>
<trkpt lat="27.192488" lon="98.885228">
<time>2014-08-05T02:45:39Z</time></trkpt>
<trkpt lat="27.192798" lon="98.885138">
<time>2014-08-05T02:45:40Z</time></trkpt>
<trkpt lat="27.193008" lon="98.885078">
<time>2014-08-05T02:45:41Z</time></trkpt>
<trkpt lat="27.193098" lon="98.885048">
<time>2014-08-05T02:45:42Z</time></trkpt>
<trkpt lat="27.193168" lon="98.885038">
<time>2014-08-05T02:45:43Z</time></trkpt>
<trkpt lat="27.193238" lon="98.885028">
<time>2014-08-05T02:45:44Z</time></trkpt>
<trkpt lat="27.193308" lon="98.885018">
<time>2014-08-05T02:45:45Z</time></trkpt>
<trkpt lat="27.193368" lon="98.885008">
<time>2014-08-05T02:45:46Z</time></trkpt>
<trkpt lat="27.193478" lon="98.884998">
<time>2014-08-05T02:45:47Z</time></trkpt>
<trkpt lat="27.193638" lon="98.884998">
<time>2014-08-05T02:45:48Z</time></trkpt>
<trkpt lat="27.193788" lon="98.884998">
<time>2014-08-05T02:45:49Z</time></trkpt>
<trkpt lat="27.193918" lon="98.884998">
<time>2014-08-05T02:45:50Z</time></trkpt>
<trkpt lat="27.194048" lon="98.885008">
<time>2014-08-05T02:45:51Z</time></trkpt>
<trkpt lat="27.194248" lon="98.885008">
<time>2014-08-05T02:45:52Z</time></trkpt>
<trkpt lat="27.194398" lon="98.885028">
<time>2014-08-05T02:45:53Z</time></trkpt>
<trkpt lat="27.194538" lon="98.885048">
<time>2014-08-05T02:45:54Z</time></trkpt>
<trkpt lat="27.194708" lon="98.885068">
<time>2014-08-05T02:45:55Z</time></trkpt>
<trkpt lat="27.194858" lon="98.885088">
<time>2014-08-05T02:45:56Z</time></trkpt>
<trkpt lat="27.195008" lon="98.885098">
<time>2014-08-05T02:45:57Z</time></trkpt>
<trkpt lat="27.195088" lon="98.885098">
<time>2014-08-05T02:45:58Z</time></trkpt>
<trkpt lat="27.195158" lon="98.885098">
<time>2014-08-05T02:45:59Z</time></trkpt>
<trkpt lat="27.195227" lon="98.885088">
<time>2014-08-05T02:46:00Z</time></trkpt>
<trkpt lat="27.195317" lon="98.885078">
<time>2014-08-05T02:46:01Z</time></trkpt>
<trkpt lat="27.195537" lon="98.885028">
<time>2014-08-05T02:46:02Z</time></trkpt>
<trkpt lat="27.195767" lon="98.884968">
<time>2014-08-05T02:46:03Z</time></trkpt>
<trkpt lat="27.196057" lon="98.884898">
<time>2014-08-05T02:46:04Z</time></trkpt>
<trkpt lat="27.196297" lon="98.884848">
<time>2014-08-05T02:46:05Z</time></trkpt>
<trkpt lat="27.196457" lon="98.884838">
<time>2014-08-05T02:46:06Z</time></trkpt>
<trkpt lat="27.196627" lon="98.884838">
<time>2014-08-05T02:46:07Z</time></trkpt>
<trkpt lat="27.196827" lon="98.884848">
<time>2014-08-05T02:46:08Z</time></trkpt>
<trkpt lat="27.196977" lon="98.884868">
<time>2014-08-05T02:46:09Z</time></trkpt>
<trkpt lat="27.197197" lon="98.884908">
<time>2014-08-05T02:46:10Z</time></trkpt>
<trkpt lat="27.197317" lon="98.884928">
<time>2014-08-05T02:46:11Z</time></trkpt>
<trkpt lat="27.197387" lon="98.884938">
<time>2014-08-05T02:46:12Z</time></trkpt>
<trkpt lat="27.197547" lon="98.884938">
<time>2014-08-05T02:46:13Z</time></trkpt>
<trkpt lat="27.197797" lon="98.884938">
<time>2014-08-05T02:46:14Z</time></trkpt>
<trkpt lat="27.198107" lon="98.884928">
<time>2014-08-05T02:46:15Z</time></trkpt>
<trkpt lat="27.198377" lon="98.884918">
<time>2014-08-05T02:46:16Z</time></trkpt>
<trkpt lat="27.198567" lon="98.884928">
<time>2014-08-05T02:46:17Z</time></trkpt>
<trkpt lat="27.198677" lon="98.884948">
<time>2014-08-05T02:46:18Z</time></trkpt>
<trkpt lat="27.198777" lon="98.884968">
<time>2014-08-05T02:46:19Z</time></trkpt>
<trkpt lat="27.198907" lon="98.884988">
<time>2014-08-05T02:46:20Z</time></trkpt>
<trkpt lat="27.199057" lon="98.885038">
<time>2014-08-05T02:46:21Z</time></trkpt>
<trkpt lat="27.199256" lon="98.885088">
<time>2014-08-05T02:46:22Z</time></trkpt>
<trkpt lat="27.199426" lon="98.885148">
<time>2014-08-05T02:46:23Z</time></trkpt>
<trkpt lat="27.199616" lon="98.885208">
<time>2014-08-05T02:46:24Z</time></trkpt>
<trkpt lat="27.199786" lon="98.885268">
<time>2014-08-05T02:46:25Z</time></trkpt>
<trkpt lat="27.199896" lon="98.885298">
<time>2014-08-05T02:46:26Z</time></trkpt>
<trkpt lat="27.200016" lon="98.885358">
<time>2014-08-05T02:46:27Z</time></trkpt>
<trkpt lat="27.200126" lon="98.885418">
<time>2014-08-05T02:46:28Z</time></trkpt>
<trkpt lat="27.200317" lon="98.885518">
<time>2014-08-05T02:46:29Z</time></trkpt>
<trkpt lat="27.200507" lon="98.885618">
<time>2014-08-05T02:46:30Z</time></trkpt>
<trkpt lat="27.200607" lon="98.885678">
<time>2014-08-05T02:46:31Z</time></trkpt>
<trkpt lat="27.200707" lon="98.885718">
<time>2014-08-05T02:46:32Z</time></trkpt>
<trkpt lat="27.200797" lon="98.885778">
<time>2014-08-05T02:46:33Z</time></trkpt>
<trkpt lat="27.200897" lon="98.885818">
<time>2014-08-05T02:46:34Z</time></trkpt>
<trkpt lat="27.201007" lon="98.885848">
<time>2014-08-05T02:46:35Z</time></trkpt>
<trkpt lat="27.201167" lon="98.885878">
<time>2014-08-05T02:46:36Z</time></trkpt>
<trkpt lat="27.201567" lon="98.885968">
<time>2014-08-05T02:46:37Z</time></trkpt>
<trkpt lat="27.201806" lon="98.886008">
<time>2014-08-05T02:46:38Z</time></trkpt>
<trkpt lat="27.201926" lon="98.886018">
<time>2014-08-05T02:46:39Z</time></trkpt>
<trkpt lat="27.202046" lon="98.886018">
<time>2014-08-05T02:46:40Z</time></trkpt>
<trkpt lat="27.202216" lon="98.885998">
<time>2014-08-05T02:46:41Z</time></trkpt>
<trkpt lat="27.202286" lon="98.885998">
<time>2014-08-05T02:46:42Z</time></trkpt>
<trkpt lat="27.202366" lon="98.885998">
<time>2014-08-05T02:46:43Z</time></trkpt>
<trkpt lat="27.202426" lon="98.885998">
<time>2014-08-05T02:46:44Z</time></trkpt>
<trkpt lat="27.202476" lon="98.886008">
<time>2014-08-05T02:46:45Z</time></trkpt>
<trkpt lat="27.202526" lon="98.886028">
<time>2014-08-05T02:46:46Z</time></trkpt>
<trkpt lat="27.202556" lon="98.886038">
<time>2014-08-05T02:46:47Z</time></trkpt>
<trkpt lat="27.202606" lon="98.886058">
<time>2014-08-05T02:46:48Z</time></trkpt>
<trkpt lat="27.202656" lon="98.886078">
<time>2014-08-05T02:46:49Z</time></trkpt>
<trkpt lat="27.202786" lon="98.886148">
<time>2014-08-05T02:46:50Z</time></trkpt>
<trkpt lat="27.202956" lon="98.886248">
<time>2014-08-05T02:46:51Z</time></trkpt>
<trkpt lat="27.203126" lon="98.886328">
<time>2014-08-05T02:46:52Z</time></trkpt>
<trkpt lat="27.203266" lon="98.886378">
<time>2014-08-05T02:46:53Z</time></trkpt>
<trkpt lat="27.203466" lon="98.886438">
<time>2014-08-05T02:46:54Z</time></trkpt>
<trkpt lat="27.203666" lon="98.886488">
<time>2014-08-05T02:46:55Z</time></trkpt>
<trkpt lat="27.203806" lon="98.886508">
<time>2014-08-05T02:46:56Z</time></trkpt>
<trkpt lat="27.203876" lon="98.886528">
<time>2014-08-05T02:46:57Z</time></trkpt>
<trkpt lat="27.203936" lon="98.886538">
<time>2014-08-05T02:46:58Z</time></trkpt>
<trkpt lat="27.204006" lon="98.886568">
<time>2014-08-05T02:46:59Z</time></trkpt>
<trkpt lat="27.204096" lon="98.886598">
<time>2014-08-05T02:47:00Z</time></trkpt>
<trkpt lat="27.204156" lon="98.886618">
<time>2014-08-05T02:47:01Z</time></trkpt>
<trkpt lat="27.204196" lon="98.886638">
<time>2014-08-05T02:47:02Z</time></trkpt>
<trkpt lat="27.204266" lon="98.886668">
<time>2014-08-05T02:47:03Z</time></trkpt>
<trkpt lat="27.204326" lon="98.886698">
<time>2014-08-05T02:47:04Z</time></trkpt>
<trkpt lat="27.204406" lon="98.886738">
<time>2014-08-05T02:47:05Z</time></trkpt>
<trkpt lat="27.204476" lon="98.886778">
<time>2014-08-05T02:47:06Z</time></trkpt>
<trkpt lat="27.204656" lon="98.886878">
<time>2014-08-05T02:47:07Z</time></trkpt>
<trkpt lat="27.204766" lon="98.886928">
<time>2014-08-05T02:47:08Z</time></trkpt>
<trkpt lat="27.204896" lon="98.886988">
<time>2014-08-05T02:47:09Z</time></trkpt>
<trkpt lat="27.205056" lon="98.887048">
<time>2014-08-05T02:47:10Z</time></trkpt>
<trkpt lat="27.205106" lon="98.887068">
<time>2014-08-05T02:47:11Z</time></trkpt>
<trkpt lat="27.205156" lon="98.887098">
<time>2014-08-05T02:47:12Z</time></trkpt>
<trkpt lat="27.205206" lon="98.887128">
<time>2014-08-05T02:47:13Z</time></trkpt>
<trkpt lat="27.205256" lon="98.887168">
<time>2014-08-05T02:47:14Z</time></trkpt>
<trkpt lat="27.205356" lon="98.887278">
<time>2014-08-05T02:47:15Z</time></trkpt>
<trkpt lat="27.205416" lon="98.887358">
<time>2014-08-05T02:47:16Z</time></trkpt>
<trkpt lat="27.205456" lon="98.887408">
<time>2014-08-05T02:47:17Z</time></trkpt>
<trkpt lat="27.205566" lon="98.887548">
<time>2014-08-05T02:47:18Z</time></trkpt>
<trkpt lat="27.205787" lon="98.887788">
<time>2014-08-05T02:47:19Z</time></trkpt>
<trkpt lat="27.206077" lon="98.888028">
<time>2014-08-05T02:47:20Z</time></trkpt>
<trkpt lat="27.206217" lon="98.888158">
<time>2014-08-05T02:47:21Z</time></trkpt>
<trkpt lat="27.206387" lon="98.888328">
<time>2014-08-05T02:47:22Z</time></trkpt>
<trkpt lat="27.206507" lon="98.888448">
<time>2014-08-05T02:47:23Z</time></trkpt>
<trkpt lat="27.206607" lon="98.888587">
<time>2014-08-05T02:47:24Z</time></trkpt>
<trkpt lat="27.206717" lon="98.888737">
<time>2014-08-05T02:47:25Z</time></trkpt>
<trkpt lat="27.206827" lon="98.888897">
<time>2014-08-05T02:47:26Z</time></trkpt>
<trkpt lat="27.206877" lon="98.888977">
<time>2014-08-05T02:47:27Z</time></trkpt>
<trkpt lat="27.206927" lon="98.889067">
<time>2014-08-05T02:47:28Z</time></trkpt>
<trkpt lat="27.206977" lon="98.889167">
<time>2014-08-05T02:47:29Z</time></trkpt>
<trkpt lat="27.207017" lon="98.889257">
<time>2014-08-05T02:47:30Z</time></trkpt>
<trkpt lat="27.207047" lon="98.889307">
<time>2014-08-05T02:47:31Z</time></trkpt>
<trkpt lat="27.207067" lon="98.889357">
<time>2014-08-05T02:47:32Z</time></trkpt>
<trkpt lat="27.207097" lon="98.889397">
<time>2014-08-05T02:47:33Z</time></trkpt>
<trkpt lat="27.207117" lon="98.889427">
<time>2014-08-05T02:47:34Z</time></trkpt>
<trkpt lat="27.207147" lon="98.889447">
<time>2014-08-05T02:47:35Z</time></trkpt>
<trkpt lat="27.207167" lon="98.889467">
<time>2014-08-05T02:47:36Z</time></trkpt>
<trkpt lat="27.207187" lon="98.889477">
<time>2014-08-05T02:47:37Z</time></trkpt>
<trkpt lat="27.207197" lon="98.889487">
<time>2014-08-05T02:47:38Z</time></trkpt>
<trkpt lat="27.207217" lon="98.889487">
<time>2014-08-05T02:47:39Z</time></trkpt>
<trkpt lat="27.207237" lon="98.889497">
<time>2014-08-05T02:47:40Z</time></trkpt>
<trkpt lat="27.207267" lon="98.889497">
<time>2014-08-05T02:47:41Z</time></trkpt>
<trkpt lat="27.207397" lon="98.889507">
<time>2014-08-05T02:47:42Z</time></trkpt>
<trkpt lat="27.207557" lon="98.889507">
<time>2014-08-05T02:47:43Z</time></trkpt>
<trkpt lat="27.207747" lon="98.889527">
<time>2014-08-05T02:47:44Z</time></trkpt>
<trkpt lat="27.207957" lon="98.889557">
<time>2014-08-05T02:47:45Z</time></trkpt>
<trkpt lat="27.208477" lon="98.889657">
<time>2014-08-05T02:47:46Z</time></trkpt>
<trkpt lat="27.208677" lon="98.889677">
<time>2014-08-05T02:47:47Z</time></trkpt>
<trkpt lat="27.209027" lon="98.889687">
<time>2014-08-05T02:47:48Z</time></trkpt>
<trkpt lat="27.209267" lon="98.889707">
<time>2014-08-05T02:47:49Z</time></trkpt>
<trkpt lat="27.209507" lon="98.889737">
<time>2014-08-05T02:47:50Z</time></trkpt>
<trkpt lat="27.209767" lon="98.889767">
<time>2014-08-05T02:47:51Z</time></trkpt>
<trkpt lat="27.209867" lon="98.889767">
<time>2014-08-05T02:47:52Z</time></trkpt>
<trkpt lat="27.209947" lon="98.889767">
<time>2014-08-05T02:47:53Z</time></trkpt>
<trkpt lat="27.210007" lon="98.889757">
<time>2014-08-05T02:47:54Z</time></trkpt>
<trkpt lat="27.210077" lon="98.889747">
<time>2014-08-05T02:47:55Z</time></trkpt>
<trkpt lat="27.210396" lon="98.889687">
<time>2014-08-05T02:47:56Z</time></trkpt>
<trkpt lat="27.210566" lon="98.889647">
<time>2014-08-05T02:47:57Z</time></trkpt>
<trkpt lat="27.210736" lon="98.889627">
<time>2014-08-05T02:47:58Z</time></trkpt>
<trkpt lat="27.210906" lon="98.889607">
<time>2014-08-05T02:47:59Z</time></trkpt>
<trkpt lat="27.211126" lon="98.889607">
<time>2014-08-05T02:48:00Z</time></trkpt>
<trkpt lat="27.211326" lon="98.889597">
<time>2014-08-05T02:48:01Z</time></trkpt>
<trkpt lat="27.211426" lon="98.889587">
<time>2014-08-05T02:48:02Z</time></trkpt>
<trkpt lat="27.211526" lon="98.889567">
<time>2014-08-05T02:48:03Z</time></trkpt>
<trkpt lat="27.211586" lon="98.889557">
<time>2014-08-05T02:48:04Z</time></trkpt>
<trkpt lat="27.211646" lon="98.889537">
<time>2014-08-05T02:48:05Z</time></trkpt>
<trkpt lat="27.211726" lon="98.889507">
<time>2014-08-05T02:48:06Z</time></trkpt>
<trkpt lat="27.211796" lon="98.889487">
<time>2014-08-05T02:48:07Z</time></trkpt>
<trkpt lat="27.211916" lon="98.889427">
<time>2014-08-05T02:48:08Z</time></trkpt>
<trkpt lat="27.212056" lon="98.889347">
<time>2014-08-05T02:48:09Z</time></trkpt>
<trkpt lat="27.212346" lon="98.889177">
<time>2014-08-05T02:48:10Z</time></trkpt>
<trkpt lat="27.212396" lon="98.889137">
<time>2014-08-05T02:48:11Z</time></trkpt>
<trkpt lat="27.212466" lon="98.889107">
<time>2014-08-05T02:48:12Z</time></trkpt>
<trkpt lat="27.212536" lon="98.889077">
<time>2014-08-05T02:48:13Z</time></trkpt>
<trkpt lat="27.212606" lon="98.889047">
<time>2014-08-05T02:48:14Z</time></trkpt>
<trkpt lat="27.212686" lon="98.889027">
<time>2014-08-05T02:48:15Z</time></trkpt>
<trkpt lat="27.212756" lon="98.889017">
<time>2014-08-05T02:48:16Z</time></trkpt>
<trkpt lat="27.213105" lon="98.888957">
<time>2014-08-05T02:48:17Z</time></trkpt>
<trkpt lat="27.213235" lon="98.888937">
<time>2014-08-05T02:48:18Z</time></trkpt>
<trkpt lat="27.213375" lon="98.888927">
<time>2014-08-05T02:48:19Z</time></trkpt>
<trkpt lat="27.213505" lon="98.888917">
<time>2014-08-05T02:48:20Z</time></trkpt>
<trkpt lat="27.213635" lon="98.888917">
<time>2014-08-05T02:48:21Z</time></trkpt>
<trkpt lat="27.213965" lon="98.888937">
<time>2014-08-05T02:48:22Z</time></trkpt>
<trkpt lat="27.214155" lon="98.888927">
<time>2014-08-05T02:48:23Z</time></trkpt>
<trkpt lat="27.214495" lon="98.888867">
<time>2014-08-05T02:48:24Z</time></trkpt>
<trkpt lat="27.214605" lon="98.888857">
<time>2014-08-05T02:48:25Z</time></trkpt>
<trkpt lat="27.214745" lon="98.888837">
<time>2014-08-05T02:48:26Z</time></trkpt>
<trkpt lat="27.214855" lon="98.888827">
<time>2014-08-05T02:48:27Z</time></trkpt>
<trkpt lat="27.215015" lon="98.888827">
<time>2014-08-05T02:48:28Z</time></trkpt>
<trkpt lat="27.215195" lon="98.888847">
<time>2014-08-05T02:48:29Z</time></trkpt>
<trkpt lat="27.215325" lon="98.888867">
<time>2014-08-05T02:48:30Z</time></trkpt>
<trkpt lat="27.215545" lon="98.888907">
<time>2014-08-05T02:48:31Z</time></trkpt>
<trkpt lat="27.215715" lon="98.888957">
<time>2014-08-05T02:48:32Z</time></trkpt>
<trkpt lat="27.215855" lon="98.888997">
<time>2014-08-05T02:48:33Z</time></trkpt>
<trkpt lat="27.215965" lon="98.889037">
<time>2014-08-05T02:48:34Z</time></trkpt>
<trkpt lat="27.216065" lon="98.889077">
<time>2014-08-05T02:48:35Z</time></trkpt>
<trkpt lat="27.216245" lon="98.889177">
<time>2014-08-05T02:48:36Z</time></trkpt>
<trkpt lat="27.216365" lon="98.889227">
<time>2014-08-05T02:48:37Z</time></trkpt>
<trkpt lat="27.216505" lon="98.889287">
<time>2014-08-05T02:48:38Z</time></trkpt>
<trkpt lat="27.216595" lon="98.889327">
<time>2014-08-05T02:48:39Z</time></trkpt>
<trkpt lat="27.216685" lon="98.889367">
<time>2014-08-05T02:48:40Z</time></trkpt>
<trkpt lat="27.216725" lon="98.889397">
<time>2014-08-05T02:48:41Z</time></trkpt>
<trkpt lat="27.216775" lon="98.889427">
<time>2014-08-05T02:48:42Z</time></trkpt>
<trkpt lat="27.216835" lon="98.889457">
<time>2014-08-05T02:48:43Z</time></trkpt>
<trkpt lat="27.216895" lon="98.889497">
<time>2014-08-05T02:48:44Z</time></trkpt>
<trkpt lat="27.217015" lon="98.889587">
<time>2014-08-05T02:48:45Z</time></trkpt>
<trkpt lat="27.217125" lon="98.889657">
<time>2014-08-05T02:48:46Z</time></trkpt>
<trkpt lat="27.217225" lon="98.889707">
<time>2014-08-05T02:48:47Z</time></trkpt>
<trkpt lat="27.217295" lon="98.889737">
<time>2014-08-05T02:48:48Z</time></trkpt>
<trkpt lat="27.217365" lon="98.889757">
<time>2014-08-05T02:48:49Z</time></trkpt>
<trkpt lat="27.217415" lon="98.889767">
<time>2014-08-05T02:48:50Z</time></trkpt>
<trkpt lat="27.217485" lon="98.889787">
<time>2014-08-05T02:48:51Z</time></trkpt>
<trkpt lat="27.217595" lon="98.889797">
<time>2014-08-05T02:48:52Z</time></trkpt>
<trkpt lat="27.217735" lon="98.889797">
<time>2014-08-05T02:48:53Z</time></trkpt>
<trkpt lat="27.218035" lon="98.889817">
<time>2014-08-05T02:48:54Z</time></trkpt>
<trkpt lat="27.218315" lon="98.889847">
<time>2014-08-05T02:48:55Z</time></trkpt>
<trkpt lat="27.218635" lon="98.889877">
<time>2014-08-05T02:48:56Z</time></trkpt>
<trkpt lat="27.219144" lon="98.889917">
<time>2014-08-05T02:48:57Z</time></trkpt>
<trkpt lat="27.219674" lon="98.889987">
<time>2014-08-05T02:48:58Z</time></trkpt>
<trkpt lat="27.220064" lon="98.890047">
<time>2014-08-05T02:48:59Z</time></trkpt>
<trkpt lat="27.220514" lon="98.890117">
<time>2014-08-05T02:49:00Z</time></trkpt>
<trkpt lat="27.220724" lon="98.890137">
<time>2014-08-05T02:49:01Z</time></trkpt>
<trkpt lat="27.220894" lon="98.890177">
<time>2014-08-05T02:49:02Z</time></trkpt>
<trkpt lat="27.221104" lon="98.890227">
<time>2014-08-05T02:49:03Z</time></trkpt>
<trkpt lat="27.221404" lon="98.890317">
<time>2014-08-05T02:49:04Z</time></trkpt>
<trkpt lat="27.221964" lon="98.890497">
<time>2014-08-05T02:49:05Z</time></trkpt>
<trkpt lat="27.222284" lon="98.890597">
<time>2014-08-05T02:49:06Z</time></trkpt>
<trkpt lat="27.222644" lon="98.890717">
<time>2014-08-05T02:49:07Z</time></trkpt>
<trkpt lat="27.222994" lon="98.890837">
<time>2014-08-05T02:49:08Z</time></trkpt>
<trkpt lat="27.223834" lon="98.891106">
<time>2014-08-05T02:49:09Z</time></trkpt>
<trkpt lat="27.224184" lon="98.891216">
<time>2014-08-05T02:49:10Z</time></trkpt>
<trkpt lat="27.224354" lon="98.891236">
<time>2014-08-05T02:49:11Z</time></trkpt>
<trkpt lat="27.224484" lon="98.891246">
<time>2014-08-05T02:49:12Z</time></trkpt>
<trkpt lat="27.224754" lon="98.891246">
<time>2014-08-05T02:49:13Z</time></trkpt>
<trkpt lat="27.224834" lon="98.891256">
<time>2014-08-05T02:49:14Z</time></trkpt>
<trkpt lat="27.224914" lon="98.891256">
<time>2014-08-05T02:49:15Z</time></trkpt>
<trkpt lat="27.225024" lon="98.891276">
<time>2014-08-05T02:49:16Z</time></trkpt>
<trkpt lat="27.225204" lon="98.891326">
<time>2014-08-05T02:49:17Z</time></trkpt>
<trkpt lat="27.225404" lon="98.891386">
<time>2014-08-05T02:49:18Z</time></trkpt>
<trkpt lat="27.225544" lon="98.891446">
<time>2014-08-05T02:49:19Z</time></trkpt>
<trkpt lat="27.225704" lon="98.891536">
<time>2014-08-05T02:49:20Z</time></trkpt>
<trkpt lat="27.225834" lon="98.891626">
<time>2014-08-05T02:49:21Z</time></trkpt>
<trkpt lat="27.225974" lon="98.891706">
<time>2014-08-05T02:49:22Z</time></trkpt>
<trkpt lat="27.226064" lon="98.891756">
<time>2014-08-05T02:49:23Z</time></trkpt>
<trkpt lat="27.226164" lon="98.891796">
<time>2014-08-05T02:49:24Z</time></trkpt>
<trkpt lat="27.226374" lon="98.891876">
<time>2014-08-05T02:49:25Z</time></trkpt>
<trkpt lat="27.226614" lon="98.891976">
<time>2014-08-05T02:49:26Z</time></trkpt>
<trkpt lat="27.226724" lon="98.892026">
<time>2014-08-05T02:49:27Z</time></trkpt>
<trkpt lat="27.226844" lon="98.892076">
<time>2014-08-05T02:49:28Z</time></trkpt>
<trkpt lat="27.226984" lon="98.892126">
<time>2014-08-05T02:49:29Z</time></trkpt>
<trkpt lat="27.227264" lon="98.892206">
<time>2014-08-05T02:49:30Z</time></trkpt>
<trkpt lat="27.227424" lon="98.892266">
<time>2014-08-05T02:49:31Z</time></trkpt>
<trkpt lat="27.227574" lon="98.892326">
<time>2014-08-05T02:49:32Z</time></trkpt>
<trkpt lat="27.227644" lon="98.892346">
<time>2014-08-05T02:49:33Z</time></trkpt>
<trkpt lat="27.227694" lon="98.892366">
<time>2014-08-05T02:49:34Z</time></trkpt>
<trkpt lat="27.227754" lon="98.892386">
<time>2014-08-05T02:49:35Z</time></trkpt>
<trkpt lat="27.227813" lon="98.892406">
<time>2014-08-05T02:49:36Z</time></trkpt>
<trkpt lat="27.227853" lon="98.892416">
<time>2014-08-05T02:49:37Z</time></trkpt>
<trkpt lat="27.227893" lon="98.892426">
<time>2014-08-05T02:49:38Z</time></trkpt>
<trkpt lat="27.227983" lon="98.892436">
<time>2014-08-05T02:49:39Z</time></trkpt>
<trkpt lat="27.228223" lon="98.892486">
<time>2014-08-05T02:49:40Z</time></trkpt>
<trkpt lat="27.228783" lon="98.892616">
<time>2014-08-05T02:49:41Z</time></trkpt>
<trkpt lat="27.229393" lon="98.892796">
<time>2014-08-05T02:49:42Z</time></trkpt>
<trkpt lat="27.229643" lon="98.892876">
<time>2014-08-05T02:49:43Z</time></trkpt>
<trkpt lat="27.229883" lon="98.892966">
<time>2014-08-05T02:49:44Z</time></trkpt>
<trkpt lat="27.230013" lon="98.893016">
<time>2014-08-05T02:49:45Z</time></trkpt>
<trkpt lat="27.230143" lon="98.893096">
<time>2014-08-05T02:49:46Z</time></trkpt>
<trkpt lat="27.230363" lon="98.893236">
<time>2014-08-05T02:49:47Z</time></trkpt>
<trkpt lat="27.230453" lon="98.893286">
<time>2014-08-05T02:49:48Z</time></trkpt>
<trkpt lat="27.230573" lon="98.893336">
<time>2014-08-05T02:49:49Z</time></trkpt>
<trkpt lat="27.230663" lon="98.893366">
<time>2014-08-05T02:49:50Z</time></trkpt>
<trkpt lat="27.230743" lon="98.893386">
<time>2014-08-05T02:49:51Z</time></trkpt>
<trkpt lat="27.230953" lon="98.893425">
<time>2014-08-05T02:49:52Z</time></trkpt>
<trkpt lat="27.231143" lon="98.893445">
<time>2014-08-05T02:49:53Z</time></trkpt>
<trkpt lat="27.231333" lon="98.893445">
<time>2014-08-05T02:49:54Z</time></trkpt>
<trkpt lat="27.231593" lon="98.893455">
<time>2014-08-05T02:49:55Z</time></trkpt>
<trkpt lat="27.231663" lon="98.893465">
<time>2014-08-05T02:49:56Z</time></trkpt>
<trkpt lat="27.231733" lon="98.893485">
<time>2014-08-05T02:49:57Z</time></trkpt>
<trkpt lat="27.231843" lon="98.893515">
<time>2014-08-05T02:49:58Z</time></trkpt>
<trkpt lat="27.231943" lon="98.893555">
<time>2014-08-05T02:49:59Z</time></trkpt>
<trkpt lat="27.232113" lon="98.893625">
<time>2014-08-05T02:50:00Z</time></trkpt>
<trkpt lat="27.232173" lon="98.893645">
<time>2014-08-05T02:50:01Z</time></trkpt>
<trkpt lat="27.232233" lon="98.893655">
<time>2014-08-05T02:50:02Z</time></trkpt>
<trkpt lat="27.232303" lon="98.893665">
<time>2014-08-05T02:50:03Z</time></trkpt>
<trkpt lat="27.232383" lon="98.893675">
<time>2014-08-05T02:50:04Z</time></trkpt>
<trkpt lat="27.232433" lon="98.893685">
<time>2014-08-05T02:50:05Z</time></trkpt>
<trkpt lat="27.232473" lon="98.893695">
<time>2014-08-05T02:50:06Z</time></trkpt>
<trkpt lat="27.232583" lon="98.893725">
<time>2014-08-05T02:50:07Z</time></trkpt>
<trkpt lat="27.232703" lon="98.893775">
<time>2014-08-05T02:50:08Z</time></trkpt>
<trkpt lat="27.232843" lon="98.893825">
<time>2014-08-05T02:50:09Z</time></trkpt>
<trkpt lat="27.232933" lon="98.893845">
<time>2014-08-05T02:50:10Z</time></trkpt>
<trkpt lat="27.233353" lon="98.893885">
<time>2014-08-05T02:50:11Z</time></trkpt>
<trkpt lat="27.233573" lon="98.893905">
<time>2014-08-05T02:50:12Z</time></trkpt>
<trkpt lat="27.233883" lon="98.893905">
<time>2014-08-05T02:50:13Z</time></trkpt>
<trkpt lat="27.234133" lon="98.893895">
<time>2014-08-05T02:50:14Z</time></trkpt>
<trkpt lat="27.234882" lon="98.893805">
<time>2014-08-05T02:50:15Z</time></trkpt>
<trkpt lat="27.235042" lon="98.893795">
<time>2014-08-05T02:50:16Z</time></trkpt>
<trkpt lat="27.235112" lon="98.893795">
<time>2014-08-05T02:50:17Z</time></trkpt>
<trkpt lat="27.235162" lon="98.893805">
<time>2014-08-05T02:50:18Z</time></trkpt>
<trkpt lat="27.235232" lon="98.893815">
<time>2014-08-05T02:50:19Z</time></trkpt>
<trkpt lat="27.235292" lon="98.893825">
<time>2014-08-05T02:50:20Z</time></trkpt>
<trkpt lat="27.235452" lon="98.893875">
<time>2014-08-05T02:50:21Z</time></trkpt>
<trkpt lat="27.235772" lon="98.893975">
<time>2014-08-05T02:50:22Z</time></trkpt>
<trkpt lat="27.235962" lon="98.894045">
<time>2014-08-05T02:50:23Z</time></trkpt>
<trkpt lat="27.236052" lon="98.894095">
<time>2014-08-05T02:50:24Z</time></trkpt>
<trkpt lat="27.236082" lon="98.894105">
<time>2014-08-05T02:50:25Z</time></trkpt>
<trkpt lat="27.236112" lon="98.894135">
<time>2014-08-05T02:50:26Z</time></trkpt>
<trkpt lat="27.236142" lon="98.894155">
<time>2014-08-05T02:50:27Z</time></trkpt>
<trkpt lat="27.236162" lon="98.894175">
<time>2014-08-05T02:50:28Z</time></trkpt>
<trkpt lat="27.236232" lon="98.894235">
<time>2014-08-05T02:50:29Z</time></trkpt>
<trkpt lat="27.236352" lon="98.894345">
<time>2014-08-05T02:50:30Z</time></trkpt>
<trkpt lat="27.236572" lon="98.894525">
<time>2014-08-05T02:50:31Z</time></trkpt>
<trkpt lat="27.236642" lon="98.894585">
<time>2014-08-05T02:50:32Z</time></trkpt>
<trkpt lat="27.236672" lon="98.894605">
<time>2014-08-05T02:50:33Z</time></trkpt>
<trkpt lat="27.236702" lon="98.894625">
<time>2014-08-05T02:50:34Z</time></trkpt>
<trkpt lat="27.236732" lon="98.894635">
<time>2014-08-05T02:50:35Z</time></trkpt>
<trkpt lat="27.236752" lon="98.894645">
<time>2014-08-05T02:50:36Z</time></trkpt>
<trkpt lat="27.236782" lon="98.894655">
<time>2014-08-05T02:50:37Z</time></trkpt>
<trkpt lat="27.236812" lon="98.894655">
<time>2014-08-05T02:50:38Z</time></trkpt>
<trkpt lat="27.236862" lon="98.894665">
<time>2014-08-05T02:50:39Z</time></trkpt>
<trkpt lat="27.237252" lon="98.894685">
<time>2014-08-05T02:50:40Z</time></trkpt>
<trkpt lat="27.237932" lon="98.894725">
<time>2014-08-05T02:50:41Z</time></trkpt>
<trkpt lat="27.238052" lon="98.894745">
<time>2014-08-05T02:50:42Z</time></trkpt>
<trkpt lat="27.238172" lon="98.894765">
<time>2014-08-05T02:50:43Z</time></trkpt>
<trkpt lat="27.238242" lon="98.894775">
<time>2014-08-05T02:50:44Z</time></trkpt>
<trkpt lat="27.238312" lon="98.894795">
<time>2014-08-05T02:50:45Z</time></trkpt>
<trkpt lat="27.238392" lon="98.894815">
<time>2014-08-05T02:50:46Z</time></trkpt>
<trkpt lat="27.238512" lon="98.894855">
<time>2014-08-05T02:50:47Z</time></trkpt>
<trkpt lat="27.238562" lon="98.894875">
<time>2014-08-05T02:50:48Z</time></trkpt>
<trkpt lat="27.238702" lon="98.894935">
<time>2014-08-05T02:50:49Z</time></trkpt>
<trkpt lat="27.238832" lon="98.895005">
<time>2014-08-05T02:50:50Z</time></trkpt>
<trkpt lat="27.239142" lon="98.895214">
<time>2014-08-05T02:50:51Z</time></trkpt>
<trkpt lat="27.239592" lon="98.895504">
<time>2014-08-05T02:50:52Z</time></trkpt>
<trkpt lat="27.239692" lon="98.895564">
<time>2014-08-05T02:50:53Z</time></trkpt>
<trkpt lat="27.239792" lon="98.895624">
<time>2014-08-05T02:50:54Z</time></trkpt>
<trkpt lat="27.239922" lon="98.895694">
<time>2014-08-05T02:50:55Z</time></trkpt>
<trkpt lat="27.240032" lon="98.895724">
<time>2014-08-05T02:50:56Z</time></trkpt>
<trkpt lat="27.240132" lon="98.895764">
<time>2014-08-05T02:50:57Z</time></trkpt>
<trkpt lat="27.240262" lon="98.895794">
<time>2014-08-05T02:50:58Z</time></trkpt>
<trkpt lat="27.240372" lon="98.895814">
<time>2014-08-05T02:50:59Z</time></trkpt>
<trkpt lat="27.240792" lon="98.895894">
<time>2014-08-05T02:51:00Z</time></trkpt>
<trkpt lat="27.241421" lon="98.896034">
<time>2014-08-05T02:51:01Z</time></trkpt>
<trkpt lat="27.241941" lon="98.896184">
<time>2014-08-05T02:51:02Z</time></trkpt>
<trkpt lat="27.242141" lon="98.896264">
<time>2014-08-05T02:51:03Z</time></trkpt>
<trkpt lat="27.242251" lon="98.896304">
<time>2014-08-05T02:51:04Z</time></trkpt>
<trkpt lat="27.242321" lon="98.896334">
<time>2014-08-05T02:51:05Z</time></trkpt>
<trkpt lat="27.242391" lon="98.896364">
<time>2014-08-05T02:51:06Z</time></trkpt>
<trkpt lat="27.242431" lon="98.896384">
<time>2014-08-05T02:51:07Z</time></trkpt>
<trkpt lat="27.242471" lon="98.896394">
<time>2014-08-05T02:51:08Z</time></trkpt>
<trkpt lat="27.242491" lon="98.896394">
<time>2014-08-05T02:51:09Z</time></trkpt>
<trkpt lat="27.242511" lon="98.896404">
<time>2014-08-05T02:51:10Z</time></trkpt>
<trkpt lat="27.242531" lon="98.896404">
<time>2014-08-05T02:51:11Z</time></trkpt>
<trkpt lat="27.242561" lon="98.896404">
<time>2014-08-05T02:51:12Z</time></trkpt>
<trkpt lat="27.242591" lon="98.896404">
<time>2014-08-05T02:51:13Z</time></trkpt>
<trkpt lat="27.242611" lon="98.896404">
<time>2014-08-05T02:51:14Z</time></trkpt>
<trkpt lat="27.242631" lon="98.896404">
<time>2014-08-05T02:51:15Z</time></trkpt>
<trkpt lat="27.242721" lon="98.896384">
<time>2014-08-05T02:51:16Z</time></trkpt>
<trkpt lat="27.242941" lon="98.896344">
<time>2014-08-05T02:51:17Z</time></trkpt>
<trkpt lat="27.243041" lon="98.896334">
<time>2014-08-05T02:51:18Z</time></trkpt>
<trkpt lat="27.243111" lon="98.896324">
<time>2014-08-05T02:51:19Z</time></trkpt>
<trkpt lat="27.243171" lon="98.896314">
<time>2014-08-05T02:51:20Z</time></trkpt>
<trkpt lat="27.243201" lon="98.896314">
<time>2014-08-05T02:51:21Z</time></trkpt>
<trkpt lat="27.243241" lon="98.896314">
<time>2014-08-05T02:51:22Z</time></trkpt>
<trkpt lat="27.243251" lon="98.896314">
<time>2014-08-05T02:51:23Z</time></trkpt>
<trkpt lat="27.243311" lon="98.896314">
<time>2014-08-05T02:51:24Z</time></trkpt>
<trkpt lat="27.243411" lon="98.896304">
<time>2014-08-05T02:51:25Z</time></trkpt>
<trkpt lat="27.243761" lon="98.896284">
<time>2014-08-05T02:51:26Z</time></trkpt>
<trkpt lat="27.243991" lon="98.896264">
<time>2014-08-05T02:51:27Z</time></trkpt>
<trkpt lat="27.244071" lon="98.896254">
<time>2014-08-05T02:51:28Z</time></trkpt>
<trkpt lat="27.244111" lon="98.896254">
<time>2014-08-05T02:51:29Z</time></trkpt>
<trkpt lat="27.244131" lon="98.896254">
<time>2014-08-05T02:51:30Z</time></trkpt>
<trkpt lat="27.244161" lon="98.896244">
<time>2014-08-05T02:51:31Z</time></trkpt>
<trkpt lat="27.244221" lon="98.896234">
<time>2014-08-05T02:51:32Z</time></trkpt>
<trkpt lat="27.244241" lon="98.896234">
<time>2014-08-05T02:51:33Z</time></trkpt>
<trkpt lat="27.244301" lon="98.896224">
<time>2014-08-05T02:51:34Z</time></trkpt>
<trkpt lat="27.244361" lon="98.896204">
<time>2014-08-05T02:51:35Z</time></trkpt>
<trkpt lat="27.244391" lon="98.896204">
<time>2014-08-05T02:51:36Z</time></trkpt>
<trkpt lat="27.244401" lon="98.896194">
<time>2014-08-05T02:51:37Z</time></trkpt>
<trkpt lat="27.244441" lon="98.896184">
<time>2014-08-05T02:51:38Z</time></trkpt>
<trkpt lat="27.244471" lon="98.896174">
<time>2014-08-05T02:51:39Z</time></trkpt>
<trkpt lat="27.244531" lon="98.896164">
<time>2014-08-05T02:51:40Z</time></trkpt>
<trkpt lat="27.244651" lon="98.896124">
<time>2014-08-05T02:51:41Z</time></trkpt>
<trkpt lat="27.245181" lon="98.895944">
<time>2014-08-05T02:51:42Z</time></trkpt>
<trkpt lat="27.245241" lon="98.895914">
<time>2014-08-05T02:51:43Z</time></trkpt>
<trkpt lat="27.245291" lon="98.895894">
<time>2014-08-05T02:51:44Z</time></trkpt>
<trkpt lat="27.245331" lon="98.895864">
<time>2014-08-05T02:51:45Z</time></trkpt>
<trkpt lat="27.245361" lon="98.895854">
<time>2014-08-05T02:51:46Z</time></trkpt>
<trkpt lat="27.2454" lon="98.895824">
<time>2014-08-05T02:51:47Z</time></trkpt>
<trkpt lat="27.24542" lon="98.895794">
<time>2014-08-05T02:51:48Z</time></trkpt>
<trkpt lat="27.24544" lon="98.895784">
<time>2014-08-05T02:51:49Z</time></trkpt>
<trkpt lat="27.24547" lon="98.895744">
<time>2014-08-05T02:51:50Z</time></trkpt>
<trkpt lat="27.24549" lon="98.895714">
<time>2014-08-05T02:51:51Z</time></trkpt>
<trkpt lat="27.2455" lon="98.895704">
<time>2014-08-05T02:51:52Z</time></trkpt>
<trkpt lat="27.24553" lon="98.895664">
<time>2014-08-05T02:51:53Z</time></trkpt>
<trkpt lat="27.24557" lon="98.895604">
<time>2014-08-05T02:51:54Z</time></trkpt>
<trkpt lat="27.24562" lon="98.895524">
<time>2014-08-05T02:51:55Z</time></trkpt>
<trkpt lat="27.24566" lon="98.895444">
<time>2014-08-05T02:51:56Z</time></trkpt>
<trkpt lat="27.24569" lon="98.895404">
<time>2014-08-05T02:51:57Z</time></trkpt>
<trkpt lat="27.24573" lon="98.895374">
<time>2014-08-05T02:51:58Z</time></trkpt>
<trkpt lat="27.24578" lon="98.895324">
<time>2014-08-05T02:51:59Z</time></trkpt>
<trkpt lat="27.24583" lon="98.895294">
<time>2014-08-05T02:52:00Z</time></trkpt>
<trkpt lat="27.2459" lon="98.895264">
<time>2014-08-05T02:52:01Z</time></trkpt>
<trkpt lat="27.24597" lon="98.895234">
<time>2014-08-05T02:52:02Z</time></trkpt>
<trkpt lat="27.24605" lon="98.895214">
<time>2014-08-05T02:52:03Z</time></trkpt>
<trkpt lat="27.24614" lon="98.895194">
<time>2014-08-05T02:52:04Z</time></trkpt>
<trkpt lat="27.24625" lon="98.895184">
<time>2014-08-05T02:52:05Z</time></trkpt>
<trkpt lat="27.24632" lon="98.895184">
<time>2014-08-05T02:52:06Z</time></trkpt>
<trkpt lat="27.24642" lon="98.895174">
<time>2014-08-05T02:52:07Z</time></trkpt>
<trkpt lat="27.24646" lon="98.895164">
<time>2014-08-05T02:52:08Z</time></trkpt>
<trkpt lat="27.24648" lon="98.895154">
<time>2014-08-05T02:52:09Z</time></trkpt>
<trkpt lat="27.2465" lon="98.895154">
<time>2014-08-05T02:52:10Z</time></trkpt>
<trkpt lat="27.24652" lon="98.895134">
<time>2014-08-05T02:52:11Z</time></trkpt>
<trkpt lat="27.24654" lon="98.895124">
<time>2014-08-05T02:52:12Z</time></trkpt>
<trkpt lat="27.24657" lon="98.895094">
<time>2014-08-05T02:52:13Z</time></trkpt>
<trkpt lat="27.24662" lon="98.895044">
<time>2014-08-05T02:52:14Z</time></trkpt>
<trkpt lat="27.24693" lon="98.894595">
<time>2014-08-05T02:52:15Z</time></trkpt>
<trkpt lat="27.24704" lon="98.894465">
<time>2014-08-05T02:52:16Z</time></trkpt>
<trkpt lat="27.24711" lon="98.894385">
<time>2014-08-05T02:52:17Z</time></trkpt>
<trkpt lat="27.24721" lon="98.894305">
<time>2014-08-05T02:52:18Z</time></trkpt>
<trkpt lat="27.24733" lon="98.894225">
<time>2014-08-05T02:52:19Z</time></trkpt>
<trkpt lat="27.24757" lon="98.894065">
<time>2014-08-05T02:52:20Z</time></trkpt>
<trkpt lat="27.247639" lon="98.894015">
<time>2014-08-05T02:52:21Z</time></trkpt>
<trkpt lat="27.247729" lon="98.893965">
<time>2014-08-05T02:52:22Z</time></trkpt>
<trkpt lat="27.247829" lon="98.893915">
<time>2014-08-05T02:52:23Z</time></trkpt>
<trkpt lat="27.247889" lon="98.893885">
<time>2014-08-05T02:52:24Z</time></trkpt>
<trkpt lat="27.247939" lon="98.893875">
<time>2014-08-05T02:52:25Z</time></trkpt>
<trkpt lat="27.247979" lon="98.893855">
<time>2014-08-05T02:52:26Z</time></trkpt>
<trkpt lat="27.248009" lon="98.893845">
<time>2014-08-05T02:52:27Z</time></trkpt>
<trkpt lat="27.248039" lon="98.893845">
<time>2014-08-05T02:52:28Z</time></trkpt>
<trkpt lat="27.248089" lon="98.893825">
<time>2014-08-05T02:52:29Z</time></trkpt>
<trkpt lat="27.248129" lon="98.893825">
<time>2014-08-05T02:52:30Z</time></trkpt>
<trkpt lat="27.248169" lon="98.893815">
<time>2014-08-05T02:52:31Z</time></trkpt>
<trkpt lat="27.248229" lon="98.893815">
<time>2014-08-05T02:52:32Z</time></trkpt>
<trkpt lat="27.248279" lon="98.893815">
<time>2014-08-05T02:52:33Z</time></trkpt>
<trkpt lat="27.248319" lon="98.893815">
<time>2014-08-05T02:52:34Z</time></trkpt>
<trkpt lat="27.248409" lon="98.893825">
<time>2014-08-05T02:52:35Z</time></trkpt>
<trkpt lat="27.248449" lon="98.893835">
<time>2014-08-05T02:52:36Z</time></trkpt>
<trkpt lat="27.248489" lon="98.893835">
<time>2014-08-05T02:52:37Z</time></trkpt>
<trkpt lat="27.248529" lon="98.893835">
<time>2014-08-05T02:52:38Z</time></trkpt>
<trkpt lat="27.248569" lon="98.893835">
<time>2014-08-05T02:52:39Z</time></trkpt>
<trkpt lat="27.248609" lon="98.893825">
<time>2014-08-05T02:52:40Z</time></trkpt>
<trkpt lat="27.248649" lon="98.893815">
<time>2014-08-05T02:52:41Z</time></trkpt>
<trkpt lat="27.248699" lon="98.893795">
<time>2014-08-05T02:52:42Z</time></trkpt>
<trkpt lat="27.248989" lon="98.893595">
<time>2014-08-05T02:52:43Z</time></trkpt>
<trkpt lat="27.249129" lon="98.893505">
<time>2014-08-05T02:52:44Z</time></trkpt>
<trkpt lat="27.249179" lon="98.893475">
<time>2014-08-05T02:52:45Z</time></trkpt>
<trkpt lat="27.249229" lon="98.893455">
<time>2014-08-05T02:52:46Z</time></trkpt>
<trkpt lat="27.249349" lon="98.893415">
<time>2014-08-05T02:52:47Z</time></trkpt>
<trkpt lat="27.249479" lon="98.893365">
<time>2014-08-05T02:52:48Z</time></trkpt>
<trkpt lat="27.249509" lon="98.893355">
<time>2014-08-05T02:52:49Z</time></trkpt>
<trkpt lat="27.249609" lon="98.893285">
<time>2014-08-05T02:52:50Z</time></trkpt>
<trkpt lat="27.249769" lon="98.893185">
<time>2014-08-05T02:52:51Z</time></trkpt>
<trkpt lat="27.249779" lon="98.893175">
<time>2014-08-05T02:52:52Z</time></trkpt>
<trkpt lat="27.249879" lon="98.893135">
<time>2014-08-05T02:52:53Z</time></trkpt>
<trkpt lat="27.249939" lon="98.893115">
<time>2014-08-05T02:52:54Z</time></trkpt>
<trkpt lat="27.250009" lon="98.893105">
<time>2014-08-05T02:52:55Z</time></trkpt>
<trkpt lat="27.250528" lon="98.892995">
<time>2014-08-05T02:52:56Z</time></trkpt>
<trkpt lat="27.250928" lon="98.892945">
<time>2014-08-05T02:52:57Z</time></trkpt>
<trkpt lat="27.250968" lon="98.892945">
<time>2014-08-05T02:52:58Z</time></trkpt>
<trkpt lat="27.251018" lon="98.892955">
<time>2014-08-05T02:52:59Z</time></trkpt>
<trkpt lat="27.251058" lon="98.892965">
<time>2014-08-05T02:53:00Z</time></trkpt>
<trkpt lat="27.251098" lon="98.892985">
<time>2014-08-05T02:53:01Z</time></trkpt>
<trkpt lat="27.251138" lon="98.893005">
<time>2014-08-05T02:53:02Z</time></trkpt>
<trkpt lat="27.251158" lon="98.893035">
<time>2014-08-05T02:53:03Z</time></trkpt>
<trkpt lat="27.251178" lon="98.893045">
<time>2014-08-05T02:53:04Z</time></trkpt>
<trkpt lat="27.251208" lon="98.893085">
<time>2014-08-05T02:53:05Z</time></trkpt>
<trkpt lat="27.251238" lon="98.893145">
<time>2014-08-05T02:53:06Z</time></trkpt>
<trkpt lat="27.251328" lon="98.893295">
<time>2014-08-05T02:53:07Z</time></trkpt>
<trkpt lat="27.251378" lon="98.893405">
<time>2014-08-05T02:53:08Z</time></trkpt>
<trkpt lat="27.251428" lon="98.893485">
<time>2014-08-05T02:53:09Z</time></trkpt>
<trkpt lat="27.251488" lon="98.893545">
<time>2014-08-05T02:53:10Z</time></trkpt>
<trkpt lat="27.251568" lon="98.893625">
<time>2014-08-05T02:53:11Z</time></trkpt>
<trkpt lat="27.251628" lon="98.893675">
<time>2014-08-05T02:53:12Z</time></trkpt>
<trkpt lat="27.251688" lon="98.893715">
<time>2014-08-05T02:53:13Z</time></trkpt>
<trkpt lat="27.251868" lon="98.893825">
<time>2014-08-05T02:53:14Z</time></trkpt>
<trkpt lat="27.251968" lon="98.893885">
<time>2014-08-05T02:53:15Z</time></trkpt>
<trkpt lat="27.252048" lon="98.893915">
<time>2014-08-05T02:53:16Z</time></trkpt>
<trkpt lat="27.252098" lon="98.893925">
<time>2014-08-05T02:53:17Z</time></trkpt>
<trkpt lat="27.252198" lon="98.893945">
<time>2014-08-05T02:53:18Z</time></trkpt>
<trkpt lat="27.252268" lon="98.893955">
<time>2014-08-05T02:53:19Z</time></trkpt>
<trkpt lat="27.252378" lon="98.893965">
<time>2014-08-05T02:53:20Z</time></trkpt>
<trkpt lat="27.252478" lon="98.893985">
<time>2014-08-05T02:53:21Z</time></trkpt>
<trkpt lat="27.252538" lon="98.893995">
<time>2014-08-05T02:53:22Z</time></trkpt>
<trkpt lat="27.252598" lon="98.894015">
<time>2014-08-05T02:53:23Z</time></trkpt>
<trkpt lat="27.252648" lon="98.894035">
<time>2014-08-05T02:53:24Z</time></trkpt>
<trkpt lat="27.252758" lon="98.894085">
<time>2014-08-05T02:53:25Z</time></trkpt>
<trkpt lat="27.252828" lon="98.894115">
<time>2014-08-05T02:53:26Z</time></trkpt>
<trkpt lat="27.252878" lon="98.894135">
<time>2014-08-05T02:53:27Z</time></trkpt>
<trkpt lat="27.252938" lon="98.894145">
<time>2014-08-05T02:53:28Z</time></trkpt>
<trkpt lat="27.252978" lon="98.894155">
<time>2014-08-05T02:53:29Z</time></trkpt>
<trkpt lat="27.253038" lon="98.894155">
<time>2014-08-05T02:53:30Z</time></trkpt>
<trkpt lat="27.253088" lon="98.894145">
<time>2014-08-05T02:53:31Z</time></trkpt>
<trkpt lat="27.253118" lon="98.894135">
<time>2014-08-05T02:53:32Z</time></trkpt>
<trkpt lat="27.253148" lon="98.894125">
<time>2014-08-05T02:53:33Z</time></trkpt>
<trkpt lat="27.253588" lon="98.893895">
<time>2014-08-05T02:53:34Z</time></trkpt>
<trkpt lat="27.253608" lon="98.893885">
<time>2014-08-05T02:53:35Z</time></trkpt>
<trkpt lat="27.253638" lon="98.893865">
<time>2014-08-05T02:53:36Z</time></trkpt>
<trkpt lat="27.253658" lon="98.893845">
<time>2014-08-05T02:53:37Z</time></trkpt>
<trkpt lat="27.253688" lon="98.893825">
<time>2014-08-05T02:53:38Z</time></trkpt>
<trkpt lat="27.253698" lon="98.893805">
<time>2014-08-05T02:53:39Z</time></trkpt>
<trkpt lat="27.253708" lon="98.893785">
<time>2014-08-05T02:53:40Z</time></trkpt>
<trkpt lat="27.253708" lon="98.893775">
<time>2014-08-05T02:53:41Z</time></trkpt>
<trkpt lat="27.253718" lon="98.893745">
<time>2014-08-05T02:53:42Z</time></trkpt>
<trkpt lat="27.253728" lon="98.893695">
<time>2014-08-05T02:53:43Z</time></trkpt>
<trkpt lat="27.253738" lon="98.893655">
<time>2014-08-05T02:53:44Z</time></trkpt>
<trkpt lat="27.253738" lon="98.893605">
<time>2014-08-05T02:53:45Z</time></trkpt>
<trkpt lat="27.253738" lon="98.893575">
<time>2014-08-05T02:53:46Z</time></trkpt>
<trkpt lat="27.253738" lon="98.893525">
<time>2014-08-05T02:53:47Z</time></trkpt>
<trkpt lat="27.253728" lon="98.893425">
<time>2014-08-05T02:53:48Z</time></trkpt>
<trkpt lat="27.253708" lon="98.893325">
<time>2014-08-05T02:53:49Z</time></trkpt>
<trkpt lat="27.253658" lon="98.893155">
<time>2014-08-05T02:53:50Z</time></trkpt>
<trkpt lat="27.253608" lon="98.893045">
<time>2014-08-05T02:53:51Z</time></trkpt>
<trkpt lat="27.253588" lon="98.893005">
<time>2014-08-05T02:53:52Z</time></trkpt>
<trkpt lat="27.253568" lon="98.892975">
<time>2014-08-05T02:53:53Z</time></trkpt>
<trkpt lat="27.253558" lon="98.892975">
<time>2014-08-05T02:53:54Z</time></trkpt>
<trkpt lat="27.253538" lon="98.892945">
<time>2014-08-05T02:53:55Z</time></trkpt>
<trkpt lat="27.253518" lon="98.892915">
<time>2014-08-05T02:53:56Z</time></trkpt>
<trkpt lat="27.253478" lon="98.892885">
<time>2014-08-05T02:53:57Z</time></trkpt>
<trkpt lat="27.253438" lon="98.892855">
<time>2014-08-05T02:53:58Z</time></trkpt>
<trkpt lat="27.253348" lon="98.892815">
<time>2014-08-05T02:53:59Z</time></trkpt>
<trkpt lat="27.253208" lon="98.892765">
<time>2014-08-05T02:54:00Z</time></trkpt>
<trkpt lat="27.253098" lon="98.892715">
<time>2014-08-05T02:54:01Z</time></trkpt>
<trkpt lat="27.253008" lon="98.892655">
<time>2014-08-05T02:54:02Z</time></trkpt>
<trkpt lat="27.252968" lon="98.892615">
<time>2014-08-05T02:54:03Z</time></trkpt>
<trkpt lat="27.252938" lon="98.892585">
<time>2014-08-05T02:54:04Z</time></trkpt>
<trkpt lat="27.252928" lon="98.892575">
<time>2014-08-05T02:54:05Z</time></trkpt>
<trkpt lat="27.252908" lon="98.892555">
<time>2014-08-05T02:54:06Z</time></trkpt>
<trkpt lat="27.252898" lon="98.892525">
<time>2014-08-05T02:54:07Z</time></trkpt>
<trkpt lat="27.252868" lon="98.892465">
<time>2014-08-05T02:54:08Z</time></trkpt>
<trkpt lat="27.252848" lon="98.892416">
<time>2014-08-05T02:54:09Z</time></trkpt>
<trkpt lat="27.252808" lon="98.892276">
<time>2014-08-05T02:54:10Z</time></trkpt>
<trkpt lat="27.252778" lon="98.892166">
<time>2014-08-05T02:54:11Z</time></trkpt>
<trkpt lat="27.252768" lon="98.892086">
<time>2014-08-05T02:54:12Z</time></trkpt>
<trkpt lat="27.252768" lon="98.892056">
<time>2014-08-05T02:54:13Z</time></trkpt>
<trkpt lat="27.252768" lon="98.892016">
<time>2014-08-05T02:54:14Z</time></trkpt>
<trkpt lat="27.252768" lon="98.891986">
<time>2014-08-05T02:54:15Z</time></trkpt>
<trkpt lat="27.252778" lon="98.891956">
<time>2014-08-05T02:54:16Z</time></trkpt>
<trkpt lat="27.252807" lon="98.891786">
<time>2014-08-05T02:54:17Z</time></trkpt>
<trkpt lat="27.252847" lon="98.891646">
<time>2014-08-05T02:54:18Z</time></trkpt>
<trkpt lat="27.252857" lon="98.891636">
<time>2014-08-05T02:54:19Z</time></trkpt>
<trkpt lat="27.252857" lon="98.891626">
<time>2014-08-05T02:54:20Z</time></trkpt>
<trkpt lat="27.252877" lon="98.891586">
<time>2014-08-05T02:54:21Z</time></trkpt>
<trkpt lat="27.252887" lon="98.891566">
<time>2014-08-05T02:54:22Z</time></trkpt>
<trkpt lat="27.252907" lon="98.891546">
<time>2014-08-05T02:54:23Z</time></trkpt>
<trkpt lat="27.252927" lon="98.891516">
<time>2014-08-05T02:54:24Z</time></trkpt>
<trkpt lat="27.252937" lon="98.891506">
<time>2014-08-05T02:54:25Z</time></trkpt>
<trkpt lat="27.252957" lon="98.891486">
<time>2014-08-05T02:54:26Z</time></trkpt>
<trkpt lat="27.252977" lon="98.891476">
<time>2014-08-05T02:54:27Z</time></trkpt>
<trkpt lat="27.253037" lon="98.891446">
<time>2014-08-05T02:54:28Z</time></trkpt>
<trkpt lat="27.253407" lon="98.891226">
<time>2014-08-05T02:54:29Z</time></trkpt>
<trkpt lat="27.253507" lon="98.891166">
<time>2014-08-05T02:54:30Z</time></trkpt>
<trkpt lat="27.253597" lon="98.891116">
<time>2014-08-05T02:54:31Z</time></trkpt>
<trkpt lat="27.253697" lon="98.891076">
<time>2014-08-05T02:54:32Z</time></trkpt>
<trkpt lat="27.253777" lon="98.891056">
<time>2014-08-05T02:54:33Z</time></trkpt>
<trkpt lat="27.253887" lon="98.891036">
<time>2014-08-05T02:54:34Z</time></trkpt>
<trkpt lat="27.253937" lon="98.891026">
<time>2014-08-05T02:54:35Z</time></trkpt>
<trkpt lat="27.254017" lon="98.891016">
<time>2014-08-05T02:54:36Z</time></trkpt>
<trkpt lat="27.254187" lon="98.890996">
<time>2014-08-05T02:54:37Z</time></trkpt>
<trkpt lat="27.254707" lon="98.890966">
<time>2014-08-05T02:54:38Z</time></trkpt>
<trkpt lat="27.255457" lon="98.890926">
<time>2014-08-05T02:54:39Z</time></trkpt>
<trkpt lat="27.255537" lon="98.890926">
<time>2014-08-05T02:54:40Z</time></trkpt>
<trkpt lat="27.255606" lon="98.890906">
<time>2014-08-05T02:54:41Z</time></trkpt>
<trkpt lat="27.255656" lon="98.890886">
<time>2014-08-05T02:54:42Z</time></trkpt>
<trkpt lat="27.255686" lon="98.890866">
<time>2014-08-05T02:54:43Z</time></trkpt>
<trkpt lat="27.255746" lon="98.890846">
<time>2014-08-05T02:54:44Z</time></trkpt>
<trkpt lat="27.255786" lon="98.890816">
<time>2014-08-05T02:54:45Z</time></trkpt>
<trkpt lat="27.255826" lon="98.890786">
<time>2014-08-05T02:54:46Z</time></trkpt>
<trkpt lat="27.255876" lon="98.890736">
<time>2014-08-05T02:54:47Z</time></trkpt>
<trkpt lat="27.255936" lon="98.890656">
<time>2014-08-05T02:54:48Z</time></trkpt>
<trkpt lat="27.255986" lon="98.890586">
<time>2014-08-05T02:54:49Z</time></trkpt>
<trkpt lat="27.256136" lon="98.890346">
<time>2014-08-05T02:54:50Z</time></trkpt>
<trkpt lat="27.256326" lon="98.890106">
<time>2014-08-05T02:54:51Z</time></trkpt>
<trkpt lat="27.256446" lon="98.889976">
<time>2014-08-05T02:54:52Z</time></trkpt>
<trkpt lat="27.257065" lon="98.889426">
<time>2014-08-05T02:54:53Z</time></trkpt>
<trkpt lat="27.257175" lon="98.889346">
<time>2014-08-05T02:54:54Z</time></trkpt>
<trkpt lat="27.257195" lon="98.889336">
<time>2014-08-05T02:54:55Z</time></trkpt>
<trkpt lat="27.257215" lon="98.889316">
<time>2014-08-05T02:54:56Z</time></trkpt>
<trkpt lat="27.257245" lon="98.889306">
<time>2014-08-05T02:54:57Z</time></trkpt>
<trkpt lat="27.257305" lon="98.889296">
<time>2014-08-05T02:54:58Z</time></trkpt>
<trkpt lat="27.257615" lon="98.889286">
<time>2014-08-05T02:54:59Z</time></trkpt>
<trkpt lat="27.257655" lon="98.889286">
<time>2014-08-05T02:55:00Z</time></trkpt>
<trkpt lat="27.257705" lon="98.889266">
<time>2014-08-05T02:55:01Z</time></trkpt>
<trkpt lat="27.257805" lon="98.889226">
<time>2014-08-05T02:55:02Z</time></trkpt>
<trkpt lat="27.257925" lon="98.889156">
<time>2014-08-05T02:55:03Z</time></trkpt>
<trkpt lat="27.258085" lon="98.889056">
<time>2014-08-05T02:55:04Z</time></trkpt>
<trkpt lat="27.258215" lon="98.889006">
<time>2014-08-05T02:55:05Z</time></trkpt>
<trkpt lat="27.258355" lon="98.888956">
<time>2014-08-05T02:55:06Z</time></trkpt>
<trkpt lat="27.258505" lon="98.888916">
<time>2014-08-05T02:55:07Z</time></trkpt>
<trkpt lat="27.258615" lon="98.888877">
<time>2014-08-05T02:55:08Z</time></trkpt>
<trkpt lat="27.258715" lon="98.888827">
<time>2014-08-05T02:55:09Z</time></trkpt>
<trkpt lat="27.258855" lon="98.888757">
<time>2014-08-05T02:55:10Z</time></trkpt>
<trkpt lat="27.259005" lon="98.888667">
<time>2014-08-05T02:55:11Z</time></trkpt>
<trkpt lat="27.259145" lon="98.888567">
<time>2014-08-05T02:55:12Z</time></trkpt>
<trkpt lat="27.259205" lon="98.888507">
<time>2014-08-05T02:55:13Z</time></trkpt>
<trkpt lat="27.259264" lon="98.888437">
<time>2014-08-05T02:55:14Z</time></trkpt>
<trkpt lat="27.259314" lon="98.888377">
<time>2014-08-05T02:55:15Z</time></trkpt>
<trkpt lat="27.259354" lon="98.888317">
<time>2014-08-05T02:55:16Z</time></trkpt>
<trkpt lat="27.259424" lon="98.888177">
<time>2014-08-05T02:55:17Z</time></trkpt>
<trkpt lat="27.259484" lon="98.887977">
<time>2014-08-05T02:55:18Z</time></trkpt>
<trkpt lat="27.259534" lon="98.887867">
<time>2014-08-05T02:55:19Z</time></trkpt>
<trkpt lat="27.259584" lon="98.887767">
<time>2014-08-05T02:55:20Z</time></trkpt>
<trkpt lat="27.259624" lon="98.887687">
<time>2014-08-05T02:55:21Z</time></trkpt>
<trkpt lat="27.259684" lon="98.887607">
<time>2014-08-05T02:55:22Z</time></trkpt>
<trkpt lat="27.259754" lon="98.887517">
<time>2014-08-05T02:55:23Z</time></trkpt>
<trkpt lat="27.259844" lon="98.887417">
<time>2014-08-05T02:55:24Z</time></trkpt>
<trkpt lat="27.260074" lon="98.887207">
<time>2014-08-05T02:55:25Z</time></trkpt>
<trkpt lat="27.260134" lon="98.887147">
<time>2014-08-05T02:55:26Z</time></trkpt>
<trkpt lat="27.260154" lon="98.887127">
<time>2014-08-05T02:55:27Z</time></trkpt>
<trkpt lat="27.260164" lon="98.887107">
<time>2014-08-05T02:55:28Z</time></trkpt>
<trkpt lat="27.260183" lon="98.887077">
<time>2014-08-05T02:55:29Z</time></trkpt>
<trkpt lat="27.260203" lon="98.887047">
<time>2014-08-05T02:55:30Z</time></trkpt>
<trkpt lat="27.260213" lon="98.887017">
<time>2014-08-05T02:55:31Z</time></trkpt>
<trkpt lat="27.260223" lon="98.886987">
<time>2014-08-05T02:55:32Z</time></trkpt>
<trkpt lat="27.260223" lon="98.886957">
<time>2014-08-05T02:55:33Z</time></trkpt>
<trkpt lat="27.260233" lon="98.886927">
<time>2014-08-05T02:55:34Z</time></trkpt>
<trkpt lat="27.260233" lon="98.886887">
<time>2014-08-05T02:55:35Z</time></trkpt>
<trkpt lat="27.260233" lon="98.886847">
<time>2014-08-05T02:55:36Z</time></trkpt>
<trkpt lat="27.260213" lon="98.886797">
<time>2014-08-05T02:55:37Z</time></trkpt>
<trkpt lat="27.260203" lon="98.886767">
<time>2014-08-05T02:55:38Z</time></trkpt>
<trkpt lat="27.260193" lon="98.886737">
<time>2014-08-05T02:55:39Z</time></trkpt>
<trkpt lat="27.260183" lon="98.886717">
<time>2014-08-05T02:55:40Z</time></trkpt>
<trkpt lat="27.260173" lon="98.886697">
<time>2014-08-05T02:55:41Z</time></trkpt>
<trkpt lat="27.260143" lon="98.886667">
<time>2014-08-05T02:55:42Z</time></trkpt>
<trkpt lat="27.260083" lon="98.886627">
<time>2014-08-05T02:55:43Z</time></trkpt>
<trkpt lat="27.260033" lon="98.886597">
<time>2014-08-05T02:55:44Z</time></trkpt>
<trkpt lat="27.259583" lon="98.886397">
<time>2014-08-05T02:55:45Z</time></trkpt>
<trkpt lat="27.259543" lon="98.886367">
<time>2014-08-05T02:55:46Z</time></trkpt>
<trkpt lat="27.259513" lon="98.886347">
<time>2014-08-05T02:55:47Z</time></trkpt>
<trkpt lat="27.259493" lon="98.886337">
<time>2014-08-05T02:55:48Z</time></trkpt>
<trkpt lat="27.259473" lon="98.886307">
<time>2014-08-05T02:55:49Z</time></trkpt>
<trkpt lat="27.259453" lon="98.886297">
<time>2014-08-05T02:55:50Z</time></trkpt>
<trkpt lat="27.259443" lon="98.886277">
<time>2014-08-05T02:55:51Z</time></trkpt>
<trkpt lat="27.259443" lon="98.886267">
<time>2014-08-05T02:55:52Z</time></trkpt>
<trkpt lat="27.259433" lon="98.886257">
<time>2014-08-05T02:55:53Z</time></trkpt>
<trkpt lat="27.259423" lon="98.886227">
<time>2014-08-05T02:55:54Z</time></trkpt>
<trkpt lat="27.259423" lon="98.886207">
<time>2014-08-05T02:55:55Z</time></trkpt>
<trkpt lat="27.259423" lon="98.886197">
<time>2014-08-05T02:55:56Z</time></trkpt>
<trkpt lat="27.259423" lon="98.886177">
<time>2014-08-05T02:55:57Z</time></trkpt>
<trkpt lat="27.259433" lon="98.886157">
<time>2014-08-05T02:55:58Z</time></trkpt>
<trkpt lat="27.259443" lon="98.886127">
<time>2014-08-05T02:55:59Z</time></trkpt>
<trkpt lat="27.259493" lon="98.886007">
<time>2014-08-05T02:56:00Z</time></trkpt>
<trkpt lat="27.259593" lon="98.885827">
<time>2014-08-05T02:56:01Z</time></trkpt>
<trkpt lat="27.259633" lon="98.885757">
<time>2014-08-05T02:56:02Z</time></trkpt>
<trkpt lat="27.259663" lon="98.885717">
<time>2014-08-05T02:56:03Z</time></trkpt>
<trkpt lat="27.259693" lon="98.885687">
<time>2014-08-05T02:56:04Z</time></trkpt>
<trkpt lat="27.259723" lon="98.885667">
<time>2014-08-05T02:56:05Z</time></trkpt>
<trkpt lat="27.259743" lon="98.885647">
<time>2014-08-05T02:56:06Z</time></trkpt>
<trkpt lat="27.259773" lon="98.885637">
<time>2014-08-05T02:56:07Z</time></trkpt>
<trkpt lat="27.259803" lon="98.885627">
<time>2014-08-05T02:56:08Z</time></trkpt>
<trkpt lat="27.259823" lon="98.885617">
<time>2014-08-05T02:56:09Z</time></trkpt>
<trkpt lat="27.259843" lon="98.885617">
<time>2014-08-05T02:56:10Z</time></trkpt>
<trkpt lat="27.259863" lon="98.885617">
<time>2014-08-05T02:56:11Z</time></trkpt>
<trkpt lat="27.259893" lon="98.885617">
<time>2014-08-05T02:56:12Z</time></trkpt>
<trkpt lat="27.260163" lon="98.885637">
<time>2014-08-05T02:56:13Z</time></trkpt>
<trkpt lat="27.260233" lon="98.885627">
<time>2014-08-05T02:56:14Z</time></trkpt>
<trkpt lat="27.260283" lon="98.885607">
<time>2014-08-05T02:56:15Z</time></trkpt>
<trkpt lat="27.260333" lon="98.885587">
<time>2014-08-05T02:56:16Z</time></trkpt>
<trkpt lat="27.260392" lon="98.885547">
<time>2014-08-05T02:56:17Z</time></trkpt>
<trkpt lat="27.260592" lon="98.885377">
<time>2014-08-05T02:56:18Z</time></trkpt>
<trkpt lat="27.260652" lon="98.885317">
<time>2014-08-05T02:56:19Z</time></trkpt>
<trkpt lat="27.260682" lon="98.885267">
<time>2014-08-05T02:56:20Z</time></trkpt>
<trkpt lat="27.260702" lon="98.885227">
<time>2014-08-05T02:56:21Z</time></trkpt>
<trkpt lat="27.260722" lon="98.885177">
<time>2014-08-05T02:56:22Z</time></trkpt>
<trkpt lat="27.260732" lon="98.885137">
<time>2014-08-05T02:56:23Z</time></trkpt>
<trkpt lat="27.260772" lon="98.884877">
<time>2014-08-05T02:56:24Z</time></trkpt>
<trkpt lat="27.260812" lon="98.884757">
<time>2014-08-05T02:56:25Z</time></trkpt>
<trkpt lat="27.260832" lon="98.884657">
<time>2014-08-05T02:56:26Z</time></trkpt>
<trkpt lat="27.260902" lon="98.884457">
<time>2014-08-05T02:56:27Z</time></trkpt>
<trkpt lat="27.260922" lon="98.884407">
<time>2014-08-05T02:56:28Z</time></trkpt>
<trkpt lat="27.260932" lon="98.884337">
<time>2014-08-05T02:56:29Z</time></trkpt>
<trkpt lat="27.260941" lon="98.884287">
<time>2014-08-05T02:56:30Z</time></trkpt>
<trkpt lat="27.260961" lon="98.884077">
<time>2014-08-05T02:56:31Z</time></trkpt>
<trkpt lat="27.260971" lon="98.884037">
<time>2014-08-05T02:56:32Z</time></trkpt>
<trkpt lat="27.260971" lon="98.884017">
<time>2014-08-05T02:56:33Z</time></trkpt>
<trkpt lat="27.260971" lon="98.883997">
<time>2014-08-05T02:56:34Z</time></trkpt>
<trkpt lat="27.260981" lon="98.883977">
<time>2014-08-05T02:56:35Z</time></trkpt>
<trkpt lat="27.260991" lon="98.883957">
<time>2014-08-05T02:56:36Z</time></trkpt>
<trkpt lat="27.261011" lon="98.883937">
<time>2014-08-05T02:56:37Z</time></trkpt>
<trkpt lat="27.261041" lon="98.883907">
<time>2014-08-05T02:56:38Z</time></trkpt>
<trkpt lat="27.261071" lon="98.883877">
<time>2014-08-05T02:56:39Z</time></trkpt>
<trkpt lat="27.261111" lon="98.883857">
<time>2014-08-05T02:56:40Z</time></trkpt>
<trkpt lat="27.261171" lon="98.883837">
<time>2014-08-05T02:56:41Z</time></trkpt>
<trkpt lat="27.261261" lon="98.883797">
<time>2014-08-05T02:56:42Z</time></trkpt>
<trkpt lat="27.261361" lon="98.883747">
<time>2014-08-05T02:56:43Z</time></trkpt>
<trkpt lat="27.261441" lon="98.883677">
<time>2014-08-05T02:56:44Z</time></trkpt>
<trkpt lat="27.261491" lon="98.883627">
<time>2014-08-05T02:56:45Z</time></trkpt>
<trkpt lat="27.261541" lon="98.883567">
<time>2014-08-05T02:56:46Z</time></trkpt>
<trkpt lat="27.261591" lon="98.883487">
<time>2014-08-05T02:56:47Z</time></trkpt>
<trkpt lat="27.261611" lon="98.883437">
<time>2014-08-05T02:56:48Z</time></trkpt>
<trkpt lat="27.261651" lon="98.883357">
<time>2014-08-05T02:56:49Z</time></trkpt>
<trkpt lat="27.261681" lon="98.883257">
<time>2014-08-05T02:56:50Z</time></trkpt>
<trkpt lat="27.26173" lon="98.883127">
<time>2014-08-05T02:56:51Z</time></trkpt>
<trkpt lat="27.26179" lon="98.882967">
<time>2014-08-05T02:56:52Z</time></trkpt>
<trkpt lat="27.26189" lon="98.882767">
<time>2014-08-05T02:56:53Z</time></trkpt>
<trkpt lat="27.26194" lon="98.882677">
<time>2014-08-05T02:56:54Z</time></trkpt>
<trkpt lat="27.26198" lon="98.882577">
<time>2014-08-05T02:56:55Z</time></trkpt>
<trkpt lat="27.26207" lon="98.882327">
<time>2014-08-05T02:56:56Z</time></trkpt>
<trkpt lat="27.26214" lon="98.882127">
<time>2014-08-05T02:56:57Z</time></trkpt>
<trkpt lat="27.26217" lon="98.882027">
<time>2014-08-05T02:56:58Z</time></trkpt>
<trkpt lat="27.262189" lon="98.881927">
<time>2014-08-05T02:56:59Z</time></trkpt>
<trkpt lat="27.262279" lon="98.881527">
<time>2014-08-05T02:57:00Z</time></trkpt>
<trkpt lat="27.262339" lon="98.881267">
<time>2014-08-05T02:57:01Z</time></trkpt>
<trkpt lat="27.262508" lon="98.880237">
<time>2014-08-05T02:57:02Z</time></trkpt>
<trkpt lat="27.262518" lon="98.880107">
<time>2014-08-05T02:57:03Z</time></trkpt>
<trkpt lat="27.262518" lon="98.879977">
<time>2014-08-05T02:57:04Z</time></trkpt>
<trkpt lat="27.262518" lon="98.879927">
<time>2014-08-05T02:57:05Z</time></trkpt>
<trkpt lat="27.262508" lon="98.879887">
<time>2014-08-05T02:57:06Z</time></trkpt>
<trkpt lat="27.262478" lon="98.879787">
<time>2014-08-05T02:57:07Z</time></trkpt>
<trkpt lat="27.262417" lon="98.879637">
<time>2014-08-05T02:57:08Z</time></trkpt>
<trkpt lat="27.262357" lon="98.879517">
<time>2014-08-05T02:57:09Z</time></trkpt>
<trkpt lat="27.262337" lon="98.879477">
<time>2014-08-05T02:57:10Z</time></trkpt>
<trkpt lat="27.262197" lon="98.879227">
<time>2014-08-05T02:57:11Z</time></trkpt>
<trkpt lat="27.262047" lon="98.878957">
<time>2014-08-05T02:57:12Z</time></trkpt>
<trkpt lat="27.261857" lon="98.878606">
<time>2014-08-05T02:57:13Z</time></trkpt>
<trkpt lat="27.261686" lon="98.878326">
<time>2014-08-05T02:57:14Z</time></trkpt>
<trkpt lat="27.261646" lon="98.878256">
<time>2014-08-05T02:57:15Z</time></trkpt>
<trkpt lat="27.261626" lon="98.878206">
<time>2014-08-05T02:57:16Z</time></trkpt>
<trkpt lat="27.261616" lon="98.878116">
<time>2014-08-05T02:57:17Z</time></trkpt>
<trkpt lat="27.261606" lon="98.878056">
<time>2014-08-05T02:57:18Z</time></trkpt>
<trkpt lat="27.261596" lon="98.877976">
<time>2014-08-05T02:57:19Z</time></trkpt>
<trkpt lat="27.261596" lon="98.877966">
<time>2014-08-05T02:57:20Z</time></trkpt>
<trkpt lat="27.261606" lon="98.877956">
<time>2014-08-05T02:57:21Z</time></trkpt>
<trkpt lat="27.261606" lon="98.877916">
<time>2014-08-05T02:57:22Z</time></trkpt>
<trkpt lat="27.261616" lon="98.877866">
<time>2014-08-05T02:57:23Z</time></trkpt>
<trkpt lat="27.261646" lon="98.877776">
<time>2014-08-05T02:57:24Z</time></trkpt>
<trkpt lat="27.261696" lon="98.877636">
<time>2014-08-05T02:57:25Z</time></trkpt>
<trkpt lat="27.261736" lon="98.877556">
<time>2014-08-05T02:57:26Z</time></trkpt>
<trkpt lat="27.261736" lon="98.877546">
<time>2014-08-05T02:57:27Z</time></trkpt>
<trkpt lat="27.261746" lon="98.877536">
<time>2014-08-05T02:57:28Z</time></trkpt>
<trkpt lat="27.261746" lon="98.877516">
<time>2014-08-05T02:57:29Z</time></trkpt>
<trkpt lat="27.261746" lon="98.877496">
<time>2014-08-05T02:57:30Z</time></trkpt>
<trkpt lat="27.261756" lon="98.877466">
<time>2014-08-05T02:57:31Z</time></trkpt>
<trkpt lat="27.261756" lon="98.877426">
<time>2014-08-05T02:57:32Z</time></trkpt>
<trkpt lat="27.261756" lon="98.877406">
<time>2014-08-05T02:57:33Z</time></trkpt>
<trkpt lat="27.261756" lon="98.877396">
<time>2014-08-05T02:57:34Z</time></trkpt>
<trkpt lat="27.261756" lon="98.877376">
<time>2014-08-05T02:57:35Z</time></trkpt>
<trkpt lat="27.261755" lon="98.877356">
<time>2014-08-05T02:57:36Z</time></trkpt>
<trkpt lat="27.261745" lon="98.877326">
<time>2014-08-05T02:57:37Z</time></trkpt>
<trkpt lat="27.261735" lon="98.877296">
<time>2014-08-05T02:57:38Z</time></trkpt>
<trkpt lat="27.261655" lon="98.877116">
<time>2014-08-05T02:57:39Z</time></trkpt>
<trkpt lat="27.261635" lon="98.877076">
<time>2014-08-05T02:57:40Z</time></trkpt>
<trkpt lat="27.261625" lon="98.877066">
<time>2014-08-05T02:57:41Z</time></trkpt>
<trkpt lat="27.261625" lon="98.877046">
<time>2014-08-05T02:57:42Z</time></trkpt>
<trkpt lat="27.261615" lon="98.877036">
<time>2014-08-05T02:57:43Z</time></trkpt>
<trkpt lat="27.261615" lon="98.877016">
<time>2014-08-05T02:57:44Z</time></trkpt>
<trkpt lat="27.261605" lon="98.876986">
<time>2014-08-05T02:57:45Z</time></trkpt>
<trkpt lat="27.261605" lon="98.876936">
<time>2014-08-05T02:57:46Z</time></trkpt>
<trkpt lat="27.261605" lon="98.876876">
<time>2014-08-05T02:57:47Z</time></trkpt>
<trkpt lat="27.261644" lon="98.876286">
<time>2014-08-05T02:57:48Z</time></trkpt>
<trkpt lat="27.261654" lon="98.876226">
<time>2014-08-05T02:57:49Z</time></trkpt>
<trkpt lat="27.261674" lon="98.876166">
<time>2014-08-05T02:57:50Z</time></trkpt>
<trkpt lat="27.261694" lon="98.876126">
<time>2014-08-05T02:57:51Z</time></trkpt>
<trkpt lat="27.261714" lon="98.876086">
<time>2014-08-05T02:57:52Z</time></trkpt>
<trkpt lat="27.261954" lon="98.875726">
<time>2014-08-05T02:57:53Z</time></trkpt>
<trkpt lat="27.262004" lon="98.875656">
<time>2014-08-05T02:57:54Z</time></trkpt>
<trkpt lat="27.262054" lon="98.875606">
<time>2014-08-05T02:57:55Z</time></trkpt>
<trkpt lat="27.262393" lon="98.875326">
<time>2014-08-05T02:57:56Z</time></trkpt>
<trkpt lat="27.262423" lon="98.875285">
<time>2014-08-05T02:57:57Z</time></trkpt>
<trkpt lat="27.262453" lon="98.875255">
<time>2014-08-05T02:57:58Z</time></trkpt>
<trkpt lat="27.262483" lon="98.875215">
<time>2014-08-05T02:57:59Z</time></trkpt>
<trkpt lat="27.262593" lon="98.875015">
<time>2014-08-05T02:58:00Z</time></trkpt>
<trkpt lat="27.262673" lon="98.874875">
<time>2014-08-05T02:58:01Z</time></trkpt>
<trkpt lat="27.262723" lon="98.874795">
<time>2014-08-05T02:58:02Z</time></trkpt>
<trkpt lat="27.262743" lon="98.874775">
<time>2014-08-05T02:58:03Z</time></trkpt>
<trkpt lat="27.262763" lon="98.874755">
<time>2014-08-05T02:58:04Z</time></trkpt>
<trkpt lat="27.262783" lon="98.874735">
<time>2014-08-05T02:58:05Z</time></trkpt>
<trkpt lat="27.262813" lon="98.874715">
<time>2014-08-05T02:58:06Z</time></trkpt>
<trkpt lat="27.262853" lon="98.874695">
<time>2014-08-05T02:58:07Z</time></trkpt>
<trkpt lat="27.262873" lon="98.874685">
<time>2014-08-05T02:58:08Z</time></trkpt>
<trkpt lat="27.263052" lon="98.874625">
<time>2014-08-05T02:58:09Z</time></trkpt>
<trkpt lat="27.263122" lon="98.874595">
<time>2014-08-05T02:58:10Z</time></trkpt>
<trkpt lat="27.263162" lon="98.874575">
<time>2014-08-05T02:58:11Z</time></trkpt>
<trkpt lat="27.263232" lon="98.874535">
<time>2014-08-05T02:58:12Z</time></trkpt>
<trkpt lat="27.263332" lon="98.874465">
<time>2014-08-05T02:58:13Z</time></trkpt>
<trkpt lat="27.263402" lon="98.874425">
<time>2014-08-05T02:58:14Z</time></trkpt>
<trkpt lat="27.263572" lon="98.874325">
<time>2014-08-05T02:58:15Z</time></trkpt>
<trkpt lat="27.263682" lon="98.874275">
<time>2014-08-05T02:58:16Z</time></trkpt>
<trkpt lat="27.263802" lon="98.874225">
<time>2014-08-05T02:58:17Z</time></trkpt>
<trkpt lat="27.263932" lon="98.874175">
<time>2014-08-05T02:58:18Z</time></trkpt>
<trkpt lat="27.264162" lon="98.874095">
<time>2014-08-05T02:58:19Z</time></trkpt>
<trkpt lat="27.264332" lon="98.874015">
<time>2014-08-05T02:58:20Z</time></trkpt>
<trkpt lat="27.264491" lon="98.873905">
<time>2014-08-05T02:58:21Z</time></trkpt>
<trkpt lat="27.264571" lon="98.873865">
<time>2014-08-05T02:58:22Z</time></trkpt>
<trkpt lat="27.264661" lon="98.873825">
<time>2014-08-05T02:58:23Z</time></trkpt>
<trkpt lat="27.264721" lon="98.873805">
<time>2014-08-05T02:58:24Z</time></trkpt>
<trkpt lat="27.264771" lon="98.873795">
<time>2014-08-05T02:58:25Z</time></trkpt>
<trkpt lat="27.264861" lon="98.873785">
<time>2014-08-05T02:58:26Z</time></trkpt>
<trkpt lat="27.264971" lon="98.873775">
<time>2014-08-05T02:58:27Z</time></trkpt>
<trkpt lat="27.265061" lon="98.873765">
<time>2014-08-05T02:58:28Z</time></trkpt>
<trkpt lat="27.265141" lon="98.873765">
<time>2014-08-05T02:58:29Z</time></trkpt>
<trkpt lat="27.265251" lon="98.873755">
<time>2014-08-05T02:58:30Z</time></trkpt>
<trkpt lat="27.265721" lon="98.873735">
<time>2014-08-05T02:58:31Z</time></trkpt>
<trkpt lat="27.265791" lon="98.873735">
<time>2014-08-05T02:58:32Z</time></trkpt>
<trkpt lat="27.265891" lon="98.873735">
<time>2014-08-05T02:58:33Z</time></trkpt>
<trkpt lat="27.266031" lon="98.873755">
<time>2014-08-05T02:58:34Z</time></trkpt>
<trkpt lat="27.266201" lon="98.873785">
<time>2014-08-05T02:58:35Z</time></trkpt>
<trkpt lat="27.266261" lon="98.873785">
<time>2014-08-05T02:58:36Z</time></trkpt>
<trkpt lat="27.266311" lon="98.873785">
<time>2014-08-05T02:58:37Z</time></trkpt>
<trkpt lat="27.266431" lon="98.873775">
<time>2014-08-05T02:58:38Z</time></trkpt>
<trkpt lat="27.266851" lon="98.873705">
<time>2014-08-05T02:58:39Z</time></trkpt>
<trkpt lat="27.267121" lon="98.873655">
<time>2014-08-05T02:58:40Z</time></trkpt>
<trkpt lat="27.26737" lon="98.873615">
<time>2014-08-05T02:58:41Z</time></trkpt>
<trkpt lat="27.26782" lon="98.873535">
<time>2014-08-05T02:58:42Z</time></trkpt>
<trkpt lat="27.26796" lon="98.873505">
<time>2014-08-05T02:58:43Z</time></trkpt>
<trkpt lat="27.26804" lon="98.873475">
<time>2014-08-05T02:58:44Z</time></trkpt>
<trkpt lat="27.26814" lon="98.873445">
<time>2014-08-05T02:58:45Z</time></trkpt>
<trkpt lat="27.26835" lon="98.873365">
<time>2014-08-05T02:58:46Z</time></trkpt>
<trkpt lat="27.269119" lon="98.873085">
<time>2014-08-05T02:58:47Z</time></trkpt>
<trkpt lat="27.269279" lon="98.873024">
<time>2014-08-05T02:58:48Z</time></trkpt>
<trkpt lat="27.269879" lon="98.872794">
<time>2014-08-05T02:58:49Z</time></trkpt>
<trkpt lat="27.270079" lon="98.872714">
<time>2014-08-05T02:58:50Z</time></trkpt>
<trkpt lat="27.270369" lon="98.872594">
<time>2014-08-05T02:58:51Z</time></trkpt>
<trkpt lat="27.270589" lon="98.872514">
<time>2014-08-05T02:58:52Z</time></trkpt>
<trkpt lat="27.270748" lon="98.872454">
<time>2014-08-05T02:58:53Z</time></trkpt>
<trkpt lat="27.270838" lon="98.872414">
<time>2014-08-05T02:58:54Z</time></trkpt>
<trkpt lat="27.270958" lon="98.872364">
<time>2014-08-05T02:58:55Z</time></trkpt>
<trkpt lat="27.271348" lon="98.872214">
<time>2014-08-05T02:58:56Z</time></trkpt>
<trkpt lat="27.271708" lon="98.872074">
<time>2014-08-05T02:58:57Z</time></trkpt>
<trkpt lat="27.272008" lon="98.871964">
<time>2014-08-05T02:58:58Z</time></trkpt>
<trkpt lat="27.272237" lon="98.871874">
<time>2014-08-05T02:58:59Z</time></trkpt>
<trkpt lat="27.272347" lon="98.871834">
<time>2014-08-05T02:59:00Z</time></trkpt>
<trkpt lat="27.272507" lon="98.871774">
<time>2014-08-05T02:59:01Z</time></trkpt>
<trkpt lat="27.272807" lon="98.871664">
<time>2014-08-05T02:59:02Z</time></trkpt>
<trkpt lat="27.273247" lon="98.871494">
<time>2014-08-05T02:59:03Z</time></trkpt>
<trkpt lat="27.273567" lon="98.871364">
<time>2014-08-05T02:59:04Z</time></trkpt>
<trkpt lat="27.273696" lon="98.871324">
<time>2014-08-05T02:59:05Z</time></trkpt>
<trkpt lat="27.273856" lon="98.871264">
<time>2014-08-05T02:59:06Z</time></trkpt>
<trkpt lat="27.273996" lon="98.871214">
<time>2014-08-05T02:59:07Z</time></trkpt>
<trkpt lat="27.274226" lon="98.871124">
<time>2014-08-05T02:59:08Z</time></trkpt>
<trkpt lat="27.274406" lon="98.871053">
<time>2014-08-05T02:59:09Z</time></trkpt>
<trkpt lat="27.274616" lon="98.870973">
<time>2014-08-05T02:59:10Z</time></trkpt>
<trkpt lat="27.274736" lon="98.870933">
<time>2014-08-05T02:59:11Z</time></trkpt>
<trkpt lat="27.275126" lon="98.870783">
<time>2014-08-05T02:59:12Z</time></trkpt>
<trkpt lat="27.275186" lon="98.870763">
<time>2014-08-05T02:59:13Z</time></trkpt>
<trkpt lat="27.275315" lon="98.870713">
<time>2014-08-05T02:59:14Z</time></trkpt>
<trkpt lat="27.275415" lon="98.870683">
<time>2014-08-05T02:59:15Z</time></trkpt>
<trkpt lat="27.275485" lon="98.870653">
<time>2014-08-05T02:59:16Z</time></trkpt>
<trkpt lat="27.275545" lon="98.870643">
<time>2014-08-05T02:59:17Z</time></trkpt>
<trkpt lat="27.275585" lon="98.870633">
<time>2014-08-05T02:59:18Z</time></trkpt>
<trkpt lat="27.275625" lon="98.870633">
<time>2014-08-05T02:59:19Z</time></trkpt>
<trkpt lat="27.275645" lon="98.870633">
<time>2014-08-05T02:59:20Z</time></trkpt>
<trkpt lat="27.275665" lon="98.870633">
<time>2014-08-05T02:59:21Z</time></trkpt>
<trkpt lat="27.275685" lon="98.870643">
<time>2014-08-05T02:59:22Z</time></trkpt>
<trkpt lat="27.275715" lon="98.870653">
<time>2014-08-05T02:59:23Z</time></trkpt>
<trkpt lat="27.275745" lon="98.870653">
<time>2014-08-05T02:59:24Z</time></trkpt>
<trkpt lat="27.275765" lon="98.870663">
<time>2014-08-05T02:59:25Z</time></trkpt>
<trkpt lat="27.275785" lon="98.870683">
<time>2014-08-05T02:59:26Z</time></trkpt>
<trkpt lat="27.275795" lon="98.870693">
<time>2014-08-05T02:59:27Z</time></trkpt>
<trkpt lat="27.275815" lon="98.870703">
<time>2014-08-05T02:59:28Z</time></trkpt>
<trkpt lat="27.275835" lon="98.870713">
<time>2014-08-05T02:59:29Z</time></trkpt>
<trkpt lat="27.275845" lon="98.870723">
<time>2014-08-05T02:59:30Z</time></trkpt>
<trkpt lat="27.275865" lon="98.870753">
<time>2014-08-05T02:59:31Z</time></trkpt>
<trkpt lat="27.276046" lon="98.870943">
<time>2014-08-05T02:59:32Z</time></trkpt>
<trkpt lat="27.276076" lon="98.870973">
<time>2014-08-05T02:59:33Z</time></trkpt>
<trkpt lat="27.276116" lon="98.871003">
<time>2014-08-05T02:59:34Z</time></trkpt>
<trkpt lat="27.276176" lon="98.871033">
<time>2014-08-05T02:59:35Z</time></trkpt>
<trkpt lat="27.276216" lon="98.871053">
<time>2014-08-05T02:59:36Z</time></trkpt>
<trkpt lat="27.276226" lon="98.871063">
<time>2014-08-05T02:59:37Z</time></trkpt>
<trkpt lat="27.276266" lon="98.871073">
<time>2014-08-05T02:59:38Z</time></trkpt>
<trkpt lat="27.276306" lon="98.871083">
<time>2014-08-05T02:59:39Z</time></trkpt>
<trkpt lat="27.276386" lon="98.871093">
<time>2014-08-05T02:59:40Z</time></trkpt>
<trkpt lat="27.276696" lon="98.871123">
<time>2014-08-05T02:59:41Z</time></trkpt>
<trkpt lat="27.277226" lon="98.871163">
<time>2014-08-05T02:59:42Z</time></trkpt>
<trkpt lat="27.277436" lon="98.871163">
<time>2014-08-05T02:59:43Z</time></trkpt>
<trkpt lat="27.277535" lon="98.871153">
<time>2014-08-05T02:59:44Z</time></trkpt>
<trkpt lat="27.277585" lon="98.871143">
<time>2014-08-05T02:59:45Z</time></trkpt>
<trkpt lat="27.277635" lon="98.871123">
<time>2014-08-05T02:59:46Z</time></trkpt>
<trkpt lat="27.277665" lon="98.871103">
<time>2014-08-05T02:59:47Z</time></trkpt>
<trkpt lat="27.277695" lon="98.871083">
<time>2014-08-05T02:59:48Z</time></trkpt>
<trkpt lat="27.277715" lon="98.871073">
<time>2014-08-05T02:59:49Z</time></trkpt>
<trkpt lat="27.277735" lon="98.871053">
<time>2014-08-05T02:59:50Z</time></trkpt>
<trkpt lat="27.277775" lon="98.871013">
<time>2014-08-05T02:59:51Z</time></trkpt>
<trkpt lat="27.277825" lon="98.870963">
<time>2014-08-05T02:59:52Z</time></trkpt>
<trkpt lat="27.277855" lon="98.870913">
<time>2014-08-05T02:59:53Z</time></trkpt>
<trkpt lat="27.277875" lon="98.870863">
<time>2014-08-05T02:59:54Z</time></trkpt>
<trkpt lat="27.277935" lon="98.870733">
<time>2014-08-05T02:59:55Z</time></trkpt>
<trkpt lat="27.277955" lon="98.870613">
<time>2014-08-05T02:59:56Z</time></trkpt>
<trkpt lat="27.278054" lon="98.870083">
<time>2014-08-05T02:59:57Z</time></trkpt>
<trkpt lat="27.278074" lon="98.869963">
<time>2014-08-05T02:59:58Z</time></trkpt>
<trkpt lat="27.278114" lon="98.869863">
<time>2014-08-05T02:59:59Z</time></trkpt>
<trkpt lat="27.278144" lon="98.869793">
<time>2014-08-05T03:00:00Z</time></trkpt>
<trkpt lat="27.278174" lon="98.869753">
<time>2014-08-05T03:00:01Z</time></trkpt>
<trkpt lat="27.278194" lon="98.869723">
<time>2014-08-05T03:00:02Z</time></trkpt>
<trkpt lat="27.278224" lon="98.869693">
<time>2014-08-05T03:00:03Z</time></trkpt>
<trkpt lat="27.278254" lon="98.869663">
<time>2014-08-05T03:00:04Z</time></trkpt>
<trkpt lat="27.278283" lon="98.869633">
<time>2014-08-05T03:00:05Z</time></trkpt>
<trkpt lat="27.278313" lon="98.869613">
<time>2014-08-05T03:00:06Z</time></trkpt>
<trkpt lat="27.278363" lon="98.869573">
<time>2014-08-05T03:00:07Z</time></trkpt>
<trkpt lat="27.279163" lon="98.869112">
<time>2014-08-05T03:00:08Z</time></trkpt>
<trkpt lat="27.279372" lon="98.868992">
<time>2014-08-05T03:00:09Z</time></trkpt>
<trkpt lat="27.279582" lon="98.868902">
<time>2014-08-05T03:00:10Z</time></trkpt>
<trkpt lat="27.279702" lon="98.868862">
<time>2014-08-05T03:00:11Z</time></trkpt>
<trkpt lat="27.279882" lon="98.868812">
<time>2014-08-05T03:00:12Z</time></trkpt>
<trkpt lat="27.279932" lon="98.868792">
<time>2014-08-05T03:00:13Z</time></trkpt>
<trkpt lat="27.279982" lon="98.868792">
<time>2014-08-05T03:00:14Z</time></trkpt>
<trkpt lat="27.281012" lon="98.868682">
<time>2014-08-05T03:00:15Z</time></trkpt>
<trkpt lat="27.281192" lon="98.868682">
<time>2014-08-05T03:00:16Z</time></trkpt>
<trkpt lat="27.281332" lon="98.868682">
<time>2014-08-05T03:00:17Z</time></trkpt>
<trkpt lat="27.281442" lon="98.868692">
<time>2014-08-05T03:00:18Z</time></trkpt>
<trkpt lat="27.281552" lon="98.868722">
<time>2014-08-05T03:00:19Z</time></trkpt>
<trkpt lat="27.282072" lon="98.868852">
<time>2014-08-05T03:00:20Z</time></trkpt>
<trkpt lat="27.282302" lon="98.868922">
<time>2014-08-05T03:00:21Z</time></trkpt>
<trkpt lat="27.282582" lon="98.869022">
<time>2014-08-05T03:00:22Z</time></trkpt>
<trkpt lat="27.282702" lon="98.869072">
<time>2014-08-05T03:00:23Z</time></trkpt>
<trkpt lat="27.282912" lon="98.869182">
<time>2014-08-05T03:00:24Z</time></trkpt>
<trkpt lat="27.283532" lon="98.869532">
<time>2014-08-05T03:00:25Z</time></trkpt>
<trkpt lat="27.283952" lon="98.869763">
<time>2014-08-05T03:00:26Z</time></trkpt>
<trkpt lat="27.284393" lon="98.869963">
<time>2014-08-05T03:00:27Z</time></trkpt>
<trkpt lat="27.284863" lon="98.870253">
<time>2014-08-05T03:00:28Z</time></trkpt>
<trkpt lat="27.284993" lon="98.870313">
<time>2014-08-05T03:00:29Z</time></trkpt>
<trkpt lat="27.285033" lon="98.870343">
<time>2014-08-05T03:00:30Z</time></trkpt>
<trkpt lat="27.285063" lon="98.870353">
<time>2014-08-05T03:00:31Z</time></trkpt>
<trkpt lat="27.285093" lon="98.870363">
<time>2014-08-05T03:00:32Z</time></trkpt>
<trkpt lat="27.285123" lon="98.870373">
<time>2014-08-05T03:00:33Z</time></trkpt>
<trkpt lat="27.285163" lon="98.870373">
<time>2014-08-05T03:00:34Z</time></trkpt>
<trkpt lat="27.285313" lon="98.870393">
<time>2014-08-05T03:00:35Z</time></trkpt>
<trkpt lat="27.285433" lon="98.870393">
<time>2014-08-05T03:00:36Z</time></trkpt>
<trkpt lat="27.285513" lon="98.870413">
<time>2014-08-05T03:00:37Z</time></trkpt>
<trkpt lat="27.285573" lon="98.870423">
<time>2014-08-05T03:00:38Z</time></trkpt>
<trkpt lat="27.285623" lon="98.870453">
<time>2014-08-05T03:00:39Z</time></trkpt>
<trkpt lat="27.285683" lon="98.870483">
<time>2014-08-05T03:00:40Z</time></trkpt>
<trkpt lat="27.285803" lon="98.870553">
<time>2014-08-05T03:00:41Z</time></trkpt>
<trkpt lat="27.285863" lon="98.870583">
<time>2014-08-05T03:00:42Z</time></trkpt>
<trkpt lat="27.285983" lon="98.870623">
<time>2014-08-05T03:00:43Z</time></trkpt>
<trkpt lat="27.286103" lon="98.870653">
<time>2014-08-05T03:00:44Z</time></trkpt>
<trkpt lat="27.286253" lon="98.870673">
<time>2014-08-05T03:00:45Z</time></trkpt>
<trkpt lat="27.286463" lon="98.870713">
<time>2014-08-05T03:00:46Z</time></trkpt>
<trkpt lat="27.286753" lon="98.870783">
<time>2014-08-05T03:00:47Z</time></trkpt>
<trkpt lat="27.286943" lon="98.870863">
<time>2014-08-05T03:00:48Z</time></trkpt>
<trkpt lat="27.287233" lon="98.871033">
<time>2014-08-05T03:00:49Z</time></trkpt>
<trkpt lat="27.287483" lon="98.871183">
<time>2014-08-05T03:00:50Z</time></trkpt>
<trkpt lat="27.287643" lon="98.871263">
<time>2014-08-05T03:00:51Z</time></trkpt>
<trkpt lat="27.287714" lon="98.871293">
<time>2014-08-05T03:00:52Z</time></trkpt>
<trkpt lat="27.287734" lon="98.871293">
<time>2014-08-05T03:00:53Z</time></trkpt>
<trkpt lat="27.287794" lon="98.871293">
<time>2014-08-05T03:00:54Z</time></trkpt>
<trkpt lat="27.288083" lon="98.871283">
<time>2014-08-05T03:00:55Z</time></trkpt>
<trkpt lat="27.288123" lon="98.871293">
<time>2014-08-05T03:00:56Z</time></trkpt>
<trkpt lat="27.288153" lon="98.871293">
<time>2014-08-05T03:00:57Z</time></trkpt>
<trkpt lat="27.288253" lon="98.871303">
<time>2014-08-05T03:00:58Z</time></trkpt>
<trkpt lat="27.288363" lon="98.871313">
<time>2014-08-05T03:00:59Z</time></trkpt>
<trkpt lat="27.288463" lon="98.871313">
<time>2014-08-05T03:01:00Z</time></trkpt>
<trkpt lat="27.288533" lon="98.871303">
<time>2014-08-05T03:01:01Z</time></trkpt>
<trkpt lat="27.288663" lon="98.871293">
<time>2014-08-05T03:01:02Z</time></trkpt>
<trkpt lat="27.288743" lon="98.871293">
<time>2014-08-05T03:01:03Z</time></trkpt>
<trkpt lat="27.288883" lon="98.871293">
<time>2014-08-05T03:01:04Z</time></trkpt>
<trkpt lat="27.288903" lon="98.871303">
<time>2014-08-05T03:01:05Z</time></trkpt>
<trkpt lat="27.288913" lon="98.871303">
<time>2014-08-05T03:01:06Z</time></trkpt>
<trkpt lat="27.289033" lon="98.871333">
<time>2014-08-05T03:01:07Z</time></trkpt>
<trkpt lat="27.289213" lon="98.871383">
<time>2014-08-05T03:01:08Z</time></trkpt>
<trkpt lat="27.289373" lon="98.871453">
<time>2014-08-05T03:01:09Z</time></trkpt>
<trkpt lat="27.289583" lon="98.871593">
<time>2014-08-05T03:01:10Z</time></trkpt>
<trkpt lat="27.289754" lon="98.871714">
<time>2014-08-05T03:01:11Z</time></trkpt>
<trkpt lat="27.289904" lon="98.871784">
<time>2014-08-05T03:01:12Z</time></trkpt>
<trkpt lat="27.290044" lon="98.871834">
<time>2014-08-05T03:01:13Z</time></trkpt>
<trkpt lat="27.290334" lon="98.871924">
<time>2014-08-05T03:01:14Z</time></trkpt>
<trkpt lat="27.290484" lon="98.871974">
<time>2014-08-05T03:01:15Z</time></trkpt>
<trkpt lat="27.290754" lon="98.872094">
<time>2014-08-05T03:01:16Z</time></trkpt>
<trkpt lat="27.291104" lon="98.872264">
<time>2014-08-05T03:01:17Z</time></trkpt>
<trkpt lat="27.291134" lon="98.872274">
<time>2014-08-05T03:01:18Z</time></trkpt>
<trkpt lat="27.291264" lon="98.872294">
<time>2014-08-05T03:01:19Z</time></trkpt>
<trkpt lat="27.291374" lon="98.872304">
<time>2014-08-05T03:01:20Z</time></trkpt>
<trkpt lat="27.291594" lon="98.872334">
<time>2014-08-05T03:01:21Z</time></trkpt>
<trkpt lat="27.291824" lon="98.872394">
<time>2014-08-05T03:01:22Z</time></trkpt>
<trkpt lat="27.291914" lon="98.872414">
<time>2014-08-05T03:01:23Z</time></trkpt>
<trkpt lat="27.292394" lon="98.872504">
<time>2014-08-05T03:01:24Z</time></trkpt>
<trkpt lat="27.292834" lon="98.872584">
<time>2014-08-05T03:01:25Z</time></trkpt>
<trkpt lat="27.293234" lon="98.872704">
<time>2014-08-05T03:01:26Z</time></trkpt>
<trkpt lat="27.293454" lon="98.872774">
<time>2014-08-05T03:01:27Z</time></trkpt>
<trkpt lat="27.293694" lon="98.872854">
<time>2014-08-05T03:01:28Z</time></trkpt>
<trkpt lat="27.293754" lon="98.872874">
<time>2014-08-05T03:01:29Z</time></trkpt>
<trkpt lat="27.293774" lon="98.872894">
<time>2014-08-05T03:01:30Z</time></trkpt>
<trkpt lat="27.293794" lon="98.872904">
<time>2014-08-05T03:01:31Z</time></trkpt>
<trkpt lat="27.293824" lon="98.872924">
<time>2014-08-05T03:01:32Z</time></trkpt>
<trkpt lat="27.293844" lon="98.872944">
<time>2014-08-05T03:01:33Z</time></trkpt>
<trkpt lat="27.293864" lon="98.872964">
<time>2014-08-05T03:01:34Z</time></trkpt>
<trkpt lat="27.293884" lon="98.872994">
<time>2014-08-05T03:01:35Z</time></trkpt>
<trkpt lat="27.293894" lon="98.873014">
<time>2014-08-05T03:01:36Z</time></trkpt>
<trkpt lat="27.293914" lon="98.873054">
<time>2014-08-05T03:01:37Z</time></trkpt>
<trkpt lat="27.294075" lon="98.873594">
<time>2014-08-05T03:01:38Z</time></trkpt>
<trkpt lat="27.294115" lon="98.873684">
<time>2014-08-05T03:01:39Z</time></trkpt>
<trkpt lat="27.294135" lon="98.873734">
<time>2014-08-05T03:01:40Z</time></trkpt>
<trkpt lat="27.294195" lon="98.873804">
<time>2014-08-05T03:01:41Z</time></trkpt>
<trkpt lat="27.294245" lon="98.873884">
<time>2014-08-05T03:01:42Z</time></trkpt>
<trkpt lat="27.294265" lon="98.873904">
<time>2014-08-05T03:01:43Z</time></trkpt>
<trkpt lat="27.294345" lon="98.873974">
<time>2014-08-05T03:01:44Z</time></trkpt>
<trkpt lat="27.294385" lon="98.874014">
<time>2014-08-05T03:01:45Z</time></trkpt>
<trkpt lat="27.294435" lon="98.874044">
<time>2014-08-05T03:01:46Z</time></trkpt>
<trkpt lat="27.294495" lon="98.874084">
<time>2014-08-05T03:01:47Z</time></trkpt>
<trkpt lat="27.294515" lon="98.874094">
<time>2014-08-05T03:01:48Z</time></trkpt>
<trkpt lat="27.294525" lon="98.874104">
<time>2014-08-05T03:01:49Z</time></trkpt>
<trkpt lat="27.294545" lon="98.874114">
<time>2014-08-05T03:01:50Z</time></trkpt>
<trkpt lat="27.294595" lon="98.874134">
<time>2014-08-05T03:01:51Z</time></trkpt>
<trkpt lat="27.294665" lon="98.874175">
<time>2014-08-05T03:01:52Z</time></trkpt>
<trkpt lat="27.294765" lon="98.874215">
<time>2014-08-05T03:01:53Z</time></trkpt>
<trkpt lat="27.294895" lon="98.874285">
<time>2014-08-05T03:01:54Z</time></trkpt>
<trkpt lat="27.295005" lon="98.874335">
<time>2014-08-05T03:01:55Z</time></trkpt>
<trkpt lat="27.295196" lon="98.874435">
<time>2014-08-05T03:01:56Z</time></trkpt>
<trkpt lat="27.295436" lon="98.874575">
<time>2014-08-05T03:01:57Z</time></trkpt>
<trkpt lat="27.295706" lon="98.874735">
<time>2014-08-05T03:01:58Z</time></trkpt>
<trkpt lat="27.295836" lon="98.874785">
<time>2014-08-05T03:01:59Z</time></trkpt>
<trkpt lat="27.295966" lon="98.874825">
<time>2014-08-05T03:02:00Z</time></trkpt>
<trkpt lat="27.296016" lon="98.874845">
<time>2014-08-05T03:02:01Z</time></trkpt>
<trkpt lat="27.296236" lon="98.874895">
<time>2014-08-05T03:02:02Z</time></trkpt>
<trkpt lat="27.296426" lon="98.874925">
<time>2014-08-05T03:02:03Z</time></trkpt>
<trkpt lat="27.296486" lon="98.874935">
<time>2014-08-05T03:02:04Z</time></trkpt>
<trkpt lat="27.296566" lon="98.874945">
<time>2014-08-05T03:02:05Z</time></trkpt>
<trkpt lat="27.296656" lon="98.874955">
<time>2014-08-05T03:02:06Z</time></trkpt>
<trkpt lat="27.296716" lon="98.874945">
<time>2014-08-05T03:02:07Z</time></trkpt>
<trkpt lat="27.296806" lon="98.874935">
<time>2014-08-05T03:02:08Z</time></trkpt>
<trkpt lat="27.297046" lon="98.874885">
<time>2014-08-05T03:02:09Z</time></trkpt>
<trkpt lat="27.297216" lon="98.874855">
<time>2014-08-05T03:02:10Z</time></trkpt>
<trkpt lat="27.297336" lon="98.874835">
<time>2014-08-05T03:02:11Z</time></trkpt>
<trkpt lat="27.297465" lon="98.874825">
<time>2014-08-05T03:02:12Z</time></trkpt>
<trkpt lat="27.297715" lon="98.874845">
<time>2014-08-05T03:02:13Z</time></trkpt>
<trkpt lat="27.297915" lon="98.874865">
<time>2014-08-05T03:02:14Z</time></trkpt>
<trkpt lat="27.297995" lon="98.874875">
<time>2014-08-05T03:02:15Z</time></trkpt>
<trkpt lat="27.298345" lon="98.874875">
<time>2014-08-05T03:02:16Z</time></trkpt>
<trkpt lat="27.298745" lon="98.874865">
<time>2014-08-05T03:02:17Z</time></trkpt>
<trkpt lat="27.298825" lon="98.874865">
<time>2014-08-05T03:02:18Z</time></trkpt>
<trkpt lat="27.298895" lon="98.874875">
<time>2014-08-05T03:02:19Z</time></trkpt>
<trkpt lat="27.298955" lon="98.874895">
<time>2014-08-05T03:02:20Z</time></trkpt>
<trkpt lat="27.299015" lon="98.874915">
<time>2014-08-05T03:02:21Z</time></trkpt>
<trkpt lat="27.299085" lon="98.874945">
<time>2014-08-05T03:02:22Z</time></trkpt>
<trkpt lat="27.299205" lon="98.875015">
<time>2014-08-05T03:02:23Z</time></trkpt>
<trkpt lat="27.299225" lon="98.875035">
<time>2014-08-05T03:02:24Z</time></trkpt>
<trkpt lat="27.299255" lon="98.875045">
<time>2014-08-05T03:02:25Z</time></trkpt>
<trkpt lat="27.299285" lon="98.875065">
<time>2014-08-05T03:02:26Z</time></trkpt>
<trkpt lat="27.299305" lon="98.875075">
<time>2014-08-05T03:02:27Z</time></trkpt>
<trkpt lat="27.299335" lon="98.875085">
<time>2014-08-05T03:02:28Z</time></trkpt>
<trkpt lat="27.299355" lon="98.875085">
<time>2014-08-05T03:02:29Z</time></trkpt>
<trkpt lat="27.299365" lon="98.875095">
<time>2014-08-05T03:02:30Z</time></trkpt>
<trkpt lat="27.299375" lon="98.875095">
<time>2014-08-05T03:02:31Z</time></trkpt>
<trkpt lat="27.299385" lon="98.875095">
<time>2014-08-05T03:02:32Z</time></trkpt>
<trkpt lat="27.299405" lon="98.875095">
<time>2014-08-05T03:02:33Z</time></trkpt>
<trkpt lat="27.299415" lon="98.875095">
<time>2014-08-05T03:02:34Z</time></trkpt>
<trkpt lat="27.299425" lon="98.875095">
<time>2014-08-05T03:02:35Z</time></trkpt>
<trkpt lat="27.299445" lon="98.875095">
<time>2014-08-05T03:02:36Z</time></trkpt>
<trkpt lat="27.299455" lon="98.875095">
<time>2014-08-05T03:02:37Z</time></trkpt>
<trkpt lat="27.299465" lon="98.875085">
<time>2014-08-05T03:02:38Z</time></trkpt>
<trkpt lat="27.299475" lon="98.875085">
<time>2014-08-05T03:02:39Z</time></trkpt>
<trkpt lat="27.299485" lon="98.875085">
<time>2014-08-05T03:02:40Z</time></trkpt>
<trkpt lat="27.299495" lon="98.875075">
<time>2014-08-05T03:02:41Z</time></trkpt>
<trkpt lat="27.299505" lon="98.875065">
<time>2014-08-05T03:02:42Z</time></trkpt>
<trkpt lat="27.299525" lon="98.875055">
<time>2014-08-05T03:02:43Z</time></trkpt>
<trkpt lat="27.299535" lon="98.875055">
<time>2014-08-05T03:02:44Z</time></trkpt>
<trkpt lat="27.299545" lon="98.875045">
<time>2014-08-05T03:02:45Z</time></trkpt>
<trkpt lat="27.299555" lon="98.875035">
<time>2014-08-05T03:02:46Z</time></trkpt>
<trkpt lat="27.299575" lon="98.875015">
<time>2014-08-05T03:02:47Z</time></trkpt>
<trkpt lat="27.299725" lon="98.874875">
<time>2014-08-05T03:02:48Z</time></trkpt>
<trkpt lat="27.299755" lon="98.874845">
<time>2014-08-05T03:02:49Z</time></trkpt>
<trkpt lat="27.299795" lon="98.874815">
<time>2014-08-05T03:02:50Z</time></trkpt>
<trkpt lat="27.299845" lon="98.874775">
<time>2014-08-05T03:02:51Z</time></trkpt>
<trkpt lat="27.299905" lon="98.874735">
<time>2014-08-05T03:02:52Z</time></trkpt>
<trkpt lat="27.299945" lon="98.874715">
<time>2014-08-05T03:02:53Z</time></trkpt>
<trkpt lat="27.300035" lon="98.874685">
<time>2014-08-05T03:02:54Z</time></trkpt>
<trkpt lat="27.300185" lon="98.874635">
<time>2014-08-05T03:02:55Z</time></trkpt>
<trkpt lat="27.300295" lon="98.874615">
<time>2014-08-05T03:02:56Z</time></trkpt>
<trkpt lat="27.300395" lon="98.874605">
<time>2014-08-05T03:02:57Z</time></trkpt>
<trkpt lat="27.300495" lon="98.874605">
<time>2014-08-05T03:02:58Z</time></trkpt>
<trkpt lat="27.300545" lon="98.874605">
<time>2014-08-05T03:02:59Z</time></trkpt>
<trkpt lat="27.300635" lon="98.874625">
<time>2014-08-05T03:03:00Z</time></trkpt>
<trkpt lat="27.300685" lon="98.874645">
<time>2014-08-05T03:03:01Z</time></trkpt>
<trkpt lat="27.300765" lon="98.874685">
<time>2014-08-05T03:03:02Z</time></trkpt>
<trkpt lat="27.301055" lon="98.874835">
<time>2014-08-05T03:03:03Z</time></trkpt>
<trkpt lat="27.301125" lon="98.874875">
<time>2014-08-05T03:03:04Z</time></trkpt>
<trkpt lat="27.301215" lon="98.874905">
<time>2014-08-05T03:03:05Z</time></trkpt>
<trkpt lat="27.301315" lon="98.874935">
<time>2014-08-05T03:03:06Z</time></trkpt>
<trkpt lat="27.301355" lon="98.874945">
<time>2014-08-05T03:03:07Z</time></trkpt>
<trkpt lat="27.301435" lon="98.874955">
<time>2014-08-05T03:03:08Z</time></trkpt>
<trkpt lat="27.301495" lon="98.874955">
<time>2014-08-05T03:03:09Z</time></trkpt>
<trkpt lat="27.301565" lon="98.874955">
<time>2014-08-05T03:03:10Z</time></trkpt>
<trkpt lat="27.301635" lon="98.874955">
<time>2014-08-05T03:03:11Z</time></trkpt>
<trkpt lat="27.301705" lon="98.874935">
<time>2014-08-05T03:03:12Z</time></trkpt>
<trkpt lat="27.301855" lon="98.874905">
<time>2014-08-05T03:03:13Z</time></trkpt>
<trkpt lat="27.302005" lon="98.874855">
<time>2014-08-05T03:03:14Z</time></trkpt>
<trkpt lat="27.302135" lon="98.874835">
<time>2014-08-05T03:03:15Z</time></trkpt>
<trkpt lat="27.302185" lon="98.874835">
<time>2014-08-05T03:03:16Z</time></trkpt>
<trkpt lat="27.302235" lon="98.874835">
<time>2014-08-05T03:03:17Z</time></trkpt>
<trkpt lat="27.302305" lon="98.874845">
<time>2014-08-05T03:03:18Z</time></trkpt>
<trkpt lat="27.302385" lon="98.874865">
<time>2014-08-05T03:03:19Z</time></trkpt>
<trkpt lat="27.302655" lon="98.874925">
<time>2014-08-05T03:03:20Z</time></trkpt>
<trkpt lat="27.302735" lon="98.874935">
<time>2014-08-05T03:03:21Z</time></trkpt>
<trkpt lat="27.302825" lon="98.874945">
<time>2014-08-05T03:03:22Z</time></trkpt>
<trkpt lat="27.302994" lon="98.874935">
<time>2014-08-05T03:03:23Z</time></trkpt>
<trkpt lat="27.303194" lon="98.874925">
<time>2014-08-05T03:03:24Z</time></trkpt>
<trkpt lat="27.303304" lon="98.874915">
<time>2014-08-05T03:03:25Z</time></trkpt>
<trkpt lat="27.303394" lon="98.874905">
<time>2014-08-05T03:03:26Z</time></trkpt>
<trkpt lat="27.303494" lon="98.874885">
<time>2014-08-05T03:03:27Z</time></trkpt>
<trkpt lat="27.303584" lon="98.874865">
<time>2014-08-05T03:03:28Z</time></trkpt>
<trkpt lat="27.303734" lon="98.874805">
<time>2014-08-05T03:03:29Z</time></trkpt>
<trkpt lat="27.304034" lon="98.874695">
<time>2014-08-05T03:03:30Z</time></trkpt>
<trkpt lat="27.304084" lon="98.874685">
<time>2014-08-05T03:03:31Z</time></trkpt>
<trkpt lat="27.304124" lon="98.874665">
<time>2014-08-05T03:03:32Z</time></trkpt>
<trkpt lat="27.304154" lon="98.874665">
<time>2014-08-05T03:03:33Z</time></trkpt>
<trkpt lat="27.304184" lon="98.874655">
<time>2014-08-05T03:03:34Z</time></trkpt>
<trkpt lat="27.304224" lon="98.874655">
<time>2014-08-05T03:03:35Z</time></trkpt>
<trkpt lat="27.304244" lon="98.874655">
<time>2014-08-05T03:03:36Z</time></trkpt>
<trkpt lat="27.304274" lon="98.874655">
<time>2014-08-05T03:03:37Z</time></trkpt>
<trkpt lat="27.304284" lon="98.874655">
<time>2014-08-05T03:03:38Z</time></trkpt>
<trkpt lat="27.304304" lon="98.874665">
<time>2014-08-05T03:03:39Z</time></trkpt>
<trkpt lat="27.304334" lon="98.874665">
<time>2014-08-05T03:03:40Z</time></trkpt>
<trkpt lat="27.304364" lon="98.874675">
<time>2014-08-05T03:03:41Z</time></trkpt>
<trkpt lat="27.304424" lon="98.874695">
<time>2014-08-05T03:03:42Z</time></trkpt>
<trkpt lat="27.304884" lon="98.874915">
<time>2014-08-05T03:03:43Z</time></trkpt>
<trkpt lat="27.304944" lon="98.874935">
<time>2014-08-05T03:03:44Z</time></trkpt>
<trkpt lat="27.304984" lon="98.874945">
<time>2014-08-05T03:03:45Z</time></trkpt>
<trkpt lat="27.305034" lon="98.874955">
<time>2014-08-05T03:03:46Z</time></trkpt>
<trkpt lat="27.305084" lon="98.874955">
<time>2014-08-05T03:03:47Z</time></trkpt>
<trkpt lat="27.305124" lon="98.874945">
<time>2014-08-05T03:03:48Z</time></trkpt>
<trkpt lat="27.305154" lon="98.874945">
<time>2014-08-05T03:03:49Z</time></trkpt>
<trkpt lat="27.305184" lon="98.874935">
<time>2014-08-05T03:03:50Z</time></trkpt>
<trkpt lat="27.305214" lon="98.874915">
<time>2014-08-05T03:03:51Z</time></trkpt>
<trkpt lat="27.305284" lon="98.874875">
<time>2014-08-05T03:03:52Z</time></trkpt>
<trkpt lat="27.305364" lon="98.874805">
<time>2014-08-05T03:03:53Z</time></trkpt>
<trkpt lat="27.305534" lon="98.874594">
<time>2014-08-05T03:03:54Z</time></trkpt>
<trkpt lat="27.305624" lon="98.874484">
<time>2014-08-05T03:03:55Z</time></trkpt>
<trkpt lat="27.305693" lon="98.874434">
<time>2014-08-05T03:03:56Z</time></trkpt>
<trkpt lat="27.305733" lon="98.874394">
<time>2014-08-05T03:03:57Z</time></trkpt>
<trkpt lat="27.305773" lon="98.874374">
<time>2014-08-05T03:03:58Z</time></trkpt>
<trkpt lat="27.305823" lon="98.874344">
<time>2014-08-05T03:03:59Z</time></trkpt>
<trkpt lat="27.305863" lon="98.874334">
<time>2014-08-05T03:04:00Z</time></trkpt>
<trkpt lat="27.305993" lon="98.874284">
<time>2014-08-05T03:04:01Z</time></trkpt>
<trkpt lat="27.306063" lon="98.874264">
<time>2014-08-05T03:04:02Z</time></trkpt>
<trkpt lat="27.306293" lon="98.874204">
<time>2014-08-05T03:04:03Z</time></trkpt>
<trkpt lat="27.306603" lon="98.874134">
<time>2014-08-05T03:04:04Z</time></trkpt>
<trkpt lat="27.306763" lon="98.874094">
<time>2014-08-05T03:04:05Z</time></trkpt>
<trkpt lat="27.306913" lon="98.874044">
<time>2014-08-05T03:04:06Z</time></trkpt>
<trkpt lat="27.307063" lon="98.873964">
<time>2014-08-05T03:04:07Z</time></trkpt>
<trkpt lat="27.307292" lon="98.873814">
<time>2014-08-05T03:04:08Z</time></trkpt>
<trkpt lat="27.307352" lon="98.873764">
<time>2014-08-05T03:04:09Z</time></trkpt>
<trkpt lat="27.307522" lon="98.873604">
<time>2014-08-05T03:04:10Z</time></trkpt>
<trkpt lat="27.307702" lon="98.873414">
<time>2014-08-05T03:04:11Z</time></trkpt>
<trkpt lat="27.307822" lon="98.873304">
<time>2014-08-05T03:04:12Z</time></trkpt>
<trkpt lat="27.307892" lon="98.873244">
<time>2014-08-05T03:04:13Z</time></trkpt>
<trkpt lat="27.308281" lon="98.872994">
<time>2014-08-05T03:04:14Z</time></trkpt>
<trkpt lat="27.309201" lon="98.872404">
<time>2014-08-05T03:04:15Z</time></trkpt>
<trkpt lat="27.30924" lon="98.872373">
<time>2014-08-05T03:04:16Z</time></trkpt>
<trkpt lat="27.3093" lon="98.872323">
<time>2014-08-05T03:04:17Z</time></trkpt>
<trkpt lat="27.30963" lon="98.872103">
<time>2014-08-05T03:04:18Z</time></trkpt>
<trkpt lat="27.30979" lon="98.872003">
<time>2014-08-05T03:04:19Z</time></trkpt>
<trkpt lat="27.30989" lon="98.871943">
<time>2014-08-05T03:04:20Z</time></trkpt>
<trkpt lat="27.30992" lon="98.871933">
<time>2014-08-05T03:04:21Z</time></trkpt>
<trkpt lat="27.30995" lon="98.871923">
<time>2014-08-05T03:04:22Z</time></trkpt>
<trkpt lat="27.30997" lon="98.871913">
<time>2014-08-05T03:04:23Z</time></trkpt>
<trkpt lat="27.31" lon="98.871913">
<time>2014-08-05T03:04:24Z</time></trkpt>
<trkpt lat="27.31002" lon="98.871913">
<time>2014-08-05T03:04:25Z</time></trkpt>
<trkpt lat="27.31005" lon="98.871913">
<time>2014-08-05T03:04:26Z</time></trkpt>
<trkpt lat="27.31012" lon="98.871923">
<time>2014-08-05T03:04:27Z</time></trkpt>
<trkpt lat="27.31019" lon="98.871943">
<time>2014-08-05T03:04:28Z</time></trkpt>
<trkpt lat="27.31035" lon="98.871983">
<time>2014-08-05T03:04:29Z</time></trkpt>
<trkpt lat="27.31046" lon="98.872033">
<time>2014-08-05T03:04:30Z</time></trkpt>
<trkpt lat="27.31055" lon="98.872053">
<time>2014-08-05T03:04:31Z</time></trkpt>
<trkpt lat="27.31057" lon="98.872053">
<time>2014-08-05T03:04:32Z</time></trkpt>
<trkpt lat="27.31059" lon="98.872053">
<time>2014-08-05T03:04:33Z</time></trkpt>
<trkpt lat="27.31061" lon="98.872053">
<time>2014-08-05T03:04:34Z</time></trkpt>
<trkpt lat="27.31063" lon="98.872043">
<time>2014-08-05T03:04:35Z</time></trkpt>
<trkpt lat="27.31066" lon="98.872033">
<time>2014-08-05T03:04:36Z</time></trkpt>
<trkpt lat="27.31069" lon="98.872013">
<time>2014-08-05T03:04:37Z</time></trkpt>
<trkpt lat="27.31071" lon="98.871993">
<time>2014-08-05T03:04:38Z</time></trkpt>
<trkpt lat="27.31076" lon="98.871953">
<time>2014-08-05T03:04:39Z</time></trkpt>
<trkpt lat="27.3108" lon="98.871923">
<time>2014-08-05T03:04:40Z</time></trkpt>
<trkpt lat="27.31084" lon="98.871883">
<time>2014-08-05T03:04:41Z</time></trkpt>
<trkpt lat="27.31085" lon="98.871853">
<time>2014-08-05T03:04:42Z</time></trkpt>
<trkpt lat="27.31087" lon="98.871823">
<time>2014-08-05T03:04:43Z</time></trkpt>
<trkpt lat="27.31087" lon="98.871783">
<time>2014-08-05T03:04:44Z</time></trkpt>
<trkpt lat="27.310869" lon="98.871733">
<time>2014-08-05T03:04:45Z</time></trkpt>
<trkpt lat="27.310859" lon="98.871703">
<time>2014-08-05T03:04:46Z</time></trkpt>
<trkpt lat="27.310839" lon="98.871653">
<time>2014-08-05T03:04:47Z</time></trkpt>
<trkpt lat="27.310779" lon="98.871553">
<time>2014-08-05T03:04:48Z</time></trkpt>
<trkpt lat="27.310739" lon="98.871453">
<time>2014-08-05T03:04:49Z</time></trkpt>
<trkpt lat="27.310719" lon="98.871403">
<time>2014-08-05T03:04:50Z</time></trkpt>
<trkpt lat="27.310699" lon="98.871283">
<time>2014-08-05T03:04:51Z</time></trkpt>
<trkpt lat="27.310689" lon="98.871173">
<time>2014-08-05T03:04:52Z</time></trkpt>
<trkpt lat="27.310638" lon="98.870843">
<time>2014-08-05T03:04:53Z</time></trkpt>
<trkpt lat="27.310638" lon="98.870793">
<time>2014-08-05T03:04:54Z</time></trkpt>
<trkpt lat="27.310618" lon="98.870673">
<time>2014-08-05T03:04:55Z</time></trkpt>
<trkpt lat="27.310578" lon="98.870382">
<time>2014-08-05T03:04:56Z</time></trkpt>
<trkpt lat="27.310527" lon="98.870012">
<time>2014-08-05T03:04:57Z</time></trkpt>
<trkpt lat="27.310427" lon="98.869582">
<time>2014-08-05T03:04:58Z</time></trkpt>
<trkpt lat="27.310417" lon="98.869512">
<time>2014-08-05T03:04:59Z</time></trkpt>
<trkpt lat="27.310407" lon="98.869372">
<time>2014-08-05T03:05:00Z</time></trkpt>
<trkpt lat="27.310417" lon="98.869242">
<time>2014-08-05T03:05:01Z</time></trkpt>
<trkpt lat="27.310416" lon="98.869162">
<time>2014-08-05T03:05:02Z</time></trkpt>
<trkpt lat="27.310446" lon="98.869062">
<time>2014-08-05T03:05:03Z</time></trkpt>
<trkpt lat="27.310466" lon="98.869002">
<time>2014-08-05T03:05:04Z</time></trkpt>
<trkpt lat="27.310496" lon="98.868922">
<time>2014-08-05T03:05:05Z</time></trkpt>
<trkpt lat="27.310526" lon="98.868872">
<time>2014-08-05T03:05:06Z</time></trkpt>
<trkpt lat="27.310995" lon="98.868291">
<time>2014-08-05T03:05:07Z</time></trkpt>
<trkpt lat="27.312123" lon="98.86656">
<time>2014-08-05T03:05:08Z</time></trkpt>
<trkpt lat="27.312193" lon="98.86648">
<time>2014-08-05T03:05:09Z</time></trkpt>
<trkpt lat="27.312293" lon="98.86639">
<time>2014-08-05T03:05:10Z</time></trkpt>
<trkpt lat="27.312732" lon="98.86605">
<time>2014-08-05T03:05:11Z</time></trkpt>
<trkpt lat="27.312862" lon="98.86594">
<time>2014-08-05T03:05:12Z</time></trkpt>
<trkpt lat="27.312902" lon="98.86589">
<time>2014-08-05T03:05:13Z</time></trkpt>
<trkpt lat="27.312942" lon="98.86582">
<time>2014-08-05T03:05:14Z</time></trkpt>
<trkpt lat="27.312972" lon="98.86577">
<time>2014-08-05T03:05:15Z</time></trkpt>
<trkpt lat="27.312992" lon="98.8657">
<time>2014-08-05T03:05:16Z</time></trkpt>
<trkpt lat="27.313021" lon="98.86561">
<time>2014-08-05T03:05:17Z</time></trkpt>
<trkpt lat="27.313041" lon="98.865459">
<time>2014-08-05T03:05:18Z</time></trkpt>
<trkpt lat="27.313051" lon="98.865369">
<time>2014-08-05T03:05:19Z</time></trkpt>
<trkpt lat="27.313071" lon="98.865279">
<time>2014-08-05T03:05:20Z</time></trkpt>
<trkpt lat="27.313081" lon="98.865209">
<time>2014-08-05T03:05:21Z</time></trkpt>
<trkpt lat="27.313091" lon="98.865139">
<time>2014-08-05T03:05:22Z</time></trkpt>
<trkpt lat="27.313111" lon="98.865089">
<time>2014-08-05T03:05:23Z</time></trkpt>
<trkpt lat="27.313131" lon="98.865049">
<time>2014-08-05T03:05:24Z</time></trkpt>
<trkpt lat="27.313171" lon="98.864979">
<time>2014-08-05T03:05:25Z</time></trkpt>
<trkpt lat="27.31327" lon="98.864849">
<time>2014-08-05T03:05:26Z</time></trkpt>
<trkpt lat="27.31337" lon="98.864729">
<time>2014-08-05T03:05:27Z</time></trkpt>
<trkpt lat="27.31345" lon="98.864659">
<time>2014-08-05T03:05:28Z</time></trkpt>
<trkpt lat="27.31348" lon="98.864639">
<time>2014-08-05T03:05:29Z</time></trkpt>
<trkpt lat="27.3135" lon="98.864629">
<time>2014-08-05T03:05:30Z</time></trkpt>
<trkpt lat="27.31356" lon="98.864599">
<time>2014-08-05T03:05:31Z</time></trkpt>
<trkpt lat="27.31379" lon="98.864529">
<time>2014-08-05T03:05:32Z</time></trkpt>
<trkpt lat="27.31392" lon="98.864469">
<time>2014-08-05T03:05:33Z</time></trkpt>
<trkpt lat="27.31405" lon="98.864379">
<time>2014-08-05T03:05:34Z</time></trkpt>
<trkpt lat="27.314289" lon="98.864198">
<time>2014-08-05T03:05:35Z</time></trkpt>
<trkpt lat="27.314459" lon="98.864048">
<time>2014-08-05T03:05:36Z</time></trkpt>
<trkpt lat="27.314529" lon="98.863978">
<time>2014-08-05T03:05:37Z</time></trkpt>
<trkpt lat="27.314569" lon="98.863928">
<time>2014-08-05T03:05:38Z</time></trkpt>
<trkpt lat="27.314599" lon="98.863888">
<time>2014-08-05T03:05:39Z</time></trkpt>
<trkpt lat="27.314709" lon="98.863718">
<time>2014-08-05T03:05:40Z</time></trkpt>
<trkpt lat="27.314888" lon="98.863428">
<time>2014-08-05T03:05:41Z</time></trkpt>
<trkpt lat="27.314978" lon="98.863298">
<time>2014-08-05T03:05:42Z</time></trkpt>
<trkpt lat="27.315078" lon="98.863148">
<time>2014-08-05T03:05:43Z</time></trkpt>
<trkpt lat="27.315167" lon="98.863048">
<time>2014-08-05T03:05:44Z</time></trkpt>
<trkpt lat="27.315227" lon="98.862988">
<time>2014-08-05T03:05:45Z</time></trkpt>
<trkpt lat="27.315307" lon="98.862928">
<time>2014-08-05T03:05:46Z</time></trkpt>
<trkpt lat="27.315347" lon="98.862907">
<time>2014-08-05T03:05:47Z</time></trkpt>
<trkpt lat="27.315387" lon="98.862887">
<time>2014-08-05T03:05:48Z</time></trkpt>
<trkpt lat="27.315417" lon="98.862877">
<time>2014-08-05T03:05:49Z</time></trkpt>
<trkpt lat="27.315437" lon="98.862877">
<time>2014-08-05T03:05:50Z</time></trkpt>
<trkpt lat="27.315467" lon="98.862867">
<time>2014-08-05T03:05:51Z</time></trkpt>
<trkpt lat="27.315487" lon="98.862867">
<time>2014-08-05T03:05:52Z</time></trkpt>
<trkpt lat="27.315587" lon="98.862857">
<time>2014-08-05T03:05:53Z</time></trkpt>
<trkpt lat="27.315687" lon="98.862857">
<time>2014-08-05T03:05:54Z</time></trkpt>
<trkpt lat="27.315757" lon="98.862857">
<time>2014-08-05T03:05:55Z</time></trkpt>
<trkpt lat="27.315797" lon="98.862847">
<time>2014-08-05T03:05:56Z</time></trkpt>
<trkpt lat="27.315857" lon="98.862837">
<time>2014-08-05T03:05:57Z</time></trkpt>
<trkpt lat="27.315877" lon="98.862827">
<time>2014-08-05T03:05:58Z</time></trkpt>
<trkpt lat="27.315897" lon="98.862817">
<time>2014-08-05T03:05:59Z</time></trkpt>
<trkpt lat="27.315907" lon="98.862797">
<time>2014-08-05T03:06:00Z</time></trkpt>
<trkpt lat="27.315937" lon="98.862777">
<time>2014-08-05T03:06:01Z</time></trkpt>
<trkpt lat="27.315977" lon="98.862737">
<time>2014-08-05T03:06:02Z</time></trkpt>
<trkpt lat="27.316037" lon="98.862637">
<time>2014-08-05T03:06:03Z</time></trkpt>
<trkpt lat="27.316136" lon="98.862417">
<time>2014-08-05T03:06:04Z</time></trkpt>
<trkpt lat="27.316216" lon="98.862277">
<time>2014-08-05T03:06:05Z</time></trkpt>
<trkpt lat="27.316276" lon="98.862187">
<time>2014-08-05T03:06:06Z</time></trkpt>
<trkpt lat="27.316326" lon="98.862147">
<time>2014-08-05T03:06:07Z</time></trkpt>
<trkpt lat="27.316366" lon="98.862107">
<time>2014-08-05T03:06:08Z</time></trkpt>
<trkpt lat="27.316386" lon="98.862087">
<time>2014-08-05T03:06:09Z</time></trkpt>
<trkpt lat="27.316426" lon="98.862067">
<time>2014-08-05T03:06:10Z</time></trkpt>
<trkpt lat="27.316506" lon="98.862027">
<time>2014-08-05T03:06:11Z</time></trkpt>
<trkpt lat="27.316646" lon="98.861977">
<time>2014-08-05T03:06:12Z</time></trkpt>
<trkpt lat="27.316726" lon="98.861947">
<time>2014-08-05T03:06:13Z</time></trkpt>
<trkpt lat="27.316756" lon="98.861937">
<time>2014-08-05T03:06:14Z</time></trkpt>
<trkpt lat="27.316786" lon="98.861917">
<time>2014-08-05T03:06:15Z</time></trkpt>
<trkpt lat="27.316816" lon="98.861907">
<time>2014-08-05T03:06:16Z</time></trkpt>
<trkpt lat="27.316836" lon="98.861877">
<time>2014-08-05T03:06:17Z</time></trkpt>
<trkpt lat="27.316865" lon="98.861857">
<time>2014-08-05T03:06:18Z</time></trkpt>
<trkpt lat="27.316885" lon="98.861827">
<time>2014-08-05T03:06:19Z</time></trkpt>
<trkpt lat="27.316905" lon="98.861787">
<time>2014-08-05T03:06:20Z</time></trkpt>
<trkpt lat="27.316915" lon="98.861757">
<time>2014-08-05T03:06:21Z</time></trkpt>
<trkpt lat="27.316925" lon="98.861737">
<time>2014-08-05T03:06:22Z</time></trkpt>
<trkpt lat="27.316935" lon="98.861707">
<time>2014-08-05T03:06:23Z</time></trkpt>
<trkpt lat="27.316935" lon="98.861686">
<time>2014-08-05T03:06:24Z</time></trkpt>
<trkpt lat="27.316935" lon="98.861666">
<time>2014-08-05T03:06:25Z</time></trkpt>
<trkpt lat="27.316955" lon="98.861486">
<time>2014-08-05T03:06:26Z</time></trkpt>
<trkpt lat="27.316965" lon="98.861436">
<time>2014-08-05T03:06:27Z</time></trkpt>
<trkpt lat="27.316985" lon="98.861366">
<time>2014-08-05T03:06:28Z</time></trkpt>
<trkpt lat="27.317045" lon="98.861216">
<time>2014-08-05T03:06:29Z</time></trkpt>
<trkpt lat="27.317144" lon="98.860996">
<time>2014-08-05T03:06:30Z</time></trkpt>
<trkpt lat="27.317214" lon="98.860856">
<time>2014-08-05T03:06:31Z</time></trkpt>
<trkpt lat="27.317284" lon="98.860756">
<time>2014-08-05T03:06:32Z</time></trkpt>
<trkpt lat="27.317384" lon="98.860636">
<time>2014-08-05T03:06:33Z</time></trkpt>
<trkpt lat="27.317473" lon="98.860526">
<time>2014-08-05T03:06:34Z</time></trkpt>
<trkpt lat="27.317563" lon="98.860415">
<time>2014-08-05T03:06:35Z</time></trkpt>
<trkpt lat="27.317643" lon="98.860285">
<time>2014-08-05T03:06:36Z</time></trkpt>
<trkpt lat="27.317743" lon="98.860055">
<time>2014-08-05T03:06:37Z</time></trkpt>
<trkpt lat="27.317902" lon="98.859725">
<time>2014-08-05T03:06:38Z</time></trkpt>
<trkpt lat="27.317992" lon="98.859575">
<time>2014-08-05T03:06:39Z</time></trkpt>
<trkpt lat="27.318112" lon="98.859405">
<time>2014-08-05T03:06:40Z</time></trkpt>
<trkpt lat="27.318211" lon="98.859264">
<time>2014-08-05T03:06:41Z</time></trkpt>
<trkpt lat="27.318251" lon="98.859164">
<time>2014-08-05T03:06:42Z</time></trkpt>
<trkpt lat="27.318271" lon="98.859114">
<time>2014-08-05T03:06:43Z</time></trkpt>
<trkpt lat="27.318291" lon="98.859054">
<time>2014-08-05T03:06:44Z</time></trkpt>
<trkpt lat="27.318311" lon="98.858974">
<time>2014-08-05T03:06:45Z</time></trkpt>
<trkpt lat="27.318311" lon="98.858944">
<time>2014-08-05T03:06:46Z</time></trkpt>
<trkpt lat="27.318311" lon="98.858904">
<time>2014-08-05T03:06:47Z</time></trkpt>
<trkpt lat="27.318311" lon="98.858874">
<time>2014-08-05T03:06:48Z</time></trkpt>
<trkpt lat="27.31829" lon="98.858454">
<time>2014-08-05T03:06:49Z</time></trkpt>
<trkpt lat="27.31829" lon="98.858394">
<time>2014-08-05T03:06:50Z</time></trkpt>
<trkpt lat="27.3183" lon="98.858314">
<time>2014-08-05T03:06:51Z</time></trkpt>
<trkpt lat="27.31832" lon="98.858264">
<time>2014-08-05T03:06:52Z</time></trkpt>
<trkpt lat="27.31833" lon="98.858233">
<time>2014-08-05T03:06:53Z</time></trkpt>
<trkpt lat="27.31836" lon="98.858173">
<time>2014-08-05T03:06:54Z</time></trkpt>
<trkpt lat="27.31838" lon="98.858143">
<time>2014-08-05T03:06:55Z</time></trkpt>
<trkpt lat="27.31841" lon="98.858103">
<time>2014-08-05T03:06:56Z</time></trkpt>
<trkpt lat="27.31843" lon="98.858083">
<time>2014-08-05T03:06:57Z</time></trkpt>
<trkpt lat="27.31846" lon="98.858043">
<time>2014-08-05T03:06:58Z</time></trkpt>
<trkpt lat="27.318499" lon="98.858013">
<time>2014-08-05T03:06:59Z</time></trkpt>
<trkpt lat="27.318599" lon="98.857943">
<time>2014-08-05T03:07:00Z</time></trkpt>
<trkpt lat="27.318759" lon="98.857843">
<time>2014-08-05T03:07:01Z</time></trkpt>
<trkpt lat="27.319548" lon="98.857373">
<time>2014-08-05T03:07:02Z</time></trkpt>
<trkpt lat="27.320437" lon="98.856842">
<time>2014-08-05T03:07:03Z</time></trkpt>
<trkpt lat="27.320507" lon="98.856802">
<time>2014-08-05T03:07:04Z</time></trkpt>
<trkpt lat="27.320577" lon="98.856772">
<time>2014-08-05T03:07:05Z</time></trkpt>
<trkpt lat="27.320647" lon="98.856752">
<time>2014-08-05T03:07:06Z</time></trkpt>
<trkpt lat="27.320697" lon="98.856732">
<time>2014-08-05T03:07:07Z</time></trkpt>
<trkpt lat="27.320787" lon="98.856712">
<time>2014-08-05T03:07:08Z</time></trkpt>
<trkpt lat="27.321017" lon="98.856692">
<time>2014-08-05T03:07:09Z</time></trkpt>
<trkpt lat="27.321397" lon="98.856632">
<time>2014-08-05T03:07:10Z</time></trkpt>
<trkpt lat="27.321747" lon="98.856592">
<time>2014-08-05T03:07:11Z</time></trkpt>
<trkpt lat="27.322247" lon="98.856542">
<time>2014-08-05T03:07:12Z</time></trkpt>
<trkpt lat="27.322516" lon="98.856502">
<time>2014-08-05T03:07:13Z</time></trkpt>
<trkpt lat="27.322856" lon="98.856462">
<time>2014-08-05T03:07:14Z</time></trkpt>
<trkpt lat="27.323076" lon="98.856432">
<time>2014-08-05T03:07:15Z</time></trkpt>
<trkpt lat="27.323306" lon="98.856412">
<time>2014-08-05T03:07:16Z</time></trkpt>
<trkpt lat="27.323606" lon="98.856392">
<time>2014-08-05T03:07:17Z</time></trkpt>
<trkpt lat="27.323716" lon="98.856372">
<time>2014-08-05T03:07:18Z</time></trkpt>
<trkpt lat="27.323816" lon="98.856352">
<time>2014-08-05T03:07:19Z</time></trkpt>
<trkpt lat="27.323966" lon="98.856322">
<time>2014-08-05T03:07:20Z</time></trkpt>
<trkpt lat="27.324226" lon="98.856252">
<time>2014-08-05T03:07:21Z</time></trkpt>
<trkpt lat="27.324506" lon="98.856201">
<time>2014-08-05T03:07:22Z</time></trkpt>
<trkpt lat="27.324965" lon="98.856111">
<time>2014-08-05T03:07:23Z</time></trkpt>
<trkpt lat="27.325115" lon="98.856071">
<time>2014-08-05T03:07:24Z</time></trkpt>
<trkpt lat="27.325255" lon="98.856031">
<time>2014-08-05T03:07:25Z</time></trkpt>
<trkpt lat="27.325375" lon="98.855981">
<time>2014-08-05T03:07:26Z</time></trkpt>
<trkpt lat="27.325815" lon="98.855791">
<time>2014-08-05T03:07:27Z</time></trkpt>
<trkpt lat="27.326134" lon="98.855631">
<time>2014-08-05T03:07:28Z</time></trkpt>
<trkpt lat="27.326504" lon="98.855421">
<time>2014-08-05T03:07:29Z</time></trkpt>
<trkpt lat="27.326594" lon="98.855391">
<time>2014-08-05T03:07:30Z</time></trkpt>
<trkpt lat="27.326884" lon="98.85523">
<time>2014-08-05T03:07:31Z</time></trkpt>
<trkpt lat="27.327263" lon="98.85509">
<time>2014-08-05T03:07:32Z</time></trkpt>
<trkpt lat="27.328113" lon="98.85488">
<time>2014-08-05T03:07:33Z</time></trkpt>
<trkpt lat="27.328613" lon="98.85476">
<time>2014-08-05T03:07:34Z</time></trkpt>
<trkpt lat="27.328962" lon="98.85468">
<time>2014-08-05T03:07:35Z</time></trkpt>
<trkpt lat="27.329682" lon="98.85451">
<time>2014-08-05T03:07:36Z</time></trkpt>
<trkpt lat="27.329752" lon="98.85449">
<time>2014-08-05T03:07:37Z</time></trkpt>
<trkpt lat="27.329862" lon="98.85444">
<time>2014-08-05T03:07:38Z</time></trkpt>
<trkpt lat="27.329932" lon="98.8544">
<time>2014-08-05T03:07:39Z</time></trkpt>
<trkpt lat="27.329952" lon="98.85439">
<time>2014-08-05T03:07:40Z</time></trkpt>
<trkpt lat="27.330131" lon="98.854229">
<time>2014-08-05T03:07:41Z</time></trkpt>
<trkpt lat="27.330261" lon="98.854129">
<time>2014-08-05T03:07:42Z</time></trkpt>
<trkpt lat="27.330581" lon="98.853849">
<time>2014-08-05T03:07:43Z</time></trkpt>
<trkpt lat="27.33094" lon="98.853559">
<time>2014-08-05T03:07:44Z</time></trkpt>
<trkpt lat="27.3311" lon="98.853439">
<time>2014-08-05T03:07:45Z</time></trkpt>
<trkpt lat="27.33114" lon="98.853409">
<time>2014-08-05T03:07:46Z</time></trkpt>
<trkpt lat="27.3312" lon="98.853369">
<time>2014-08-05T03:07:47Z</time></trkpt>
<trkpt lat="27.33128" lon="98.853318">
<time>2014-08-05T03:07:48Z</time></trkpt>
<trkpt lat="27.33137" lon="98.853278">
<time>2014-08-05T03:07:49Z</time></trkpt>
<trkpt lat="27.332009" lon="98.852998">
<time>2014-08-05T03:07:50Z</time></trkpt>
<trkpt lat="27.332319" lon="98.852858">
<time>2014-08-05T03:07:51Z</time></trkpt>
<trkpt lat="27.332409" lon="98.852808">
<time>2014-08-05T03:07:52Z</time></trkpt>
<trkpt lat="27.332549" lon="98.852718">
<time>2014-08-05T03:07:53Z</time></trkpt>
<trkpt lat="27.332788" lon="98.852538">
<time>2014-08-05T03:07:54Z</time></trkpt>
<trkpt lat="27.333098" lon="98.852327">
<time>2014-08-05T03:07:55Z</time></trkpt>
<trkpt lat="27.333218" lon="98.852257">
<time>2014-08-05T03:07:56Z</time></trkpt>
<trkpt lat="27.333347" lon="98.852177">
<time>2014-08-05T03:07:57Z</time></trkpt>
<trkpt lat="27.333917" lon="98.851817">
<time>2014-08-05T03:07:58Z</time></trkpt>
<trkpt lat="27.334166" lon="98.851637">
<time>2014-08-05T03:07:59Z</time></trkpt>
<trkpt lat="27.334526" lon="98.851326">
<time>2014-08-05T03:08:00Z</time></trkpt>
<trkpt lat="27.334686" lon="98.851216">
<time>2014-08-05T03:08:01Z</time></trkpt>
<trkpt lat="27.334825" lon="98.851136">
<time>2014-08-05T03:08:02Z</time></trkpt>
<trkpt lat="27.335335" lon="98.850926">
<time>2014-08-05T03:08:03Z</time></trkpt>
<trkpt lat="27.335795" lon="98.850726">
<time>2014-08-05T03:08:04Z</time></trkpt>
<trkpt lat="27.335955" lon="98.850676">
<time>2014-08-05T03:08:05Z</time></trkpt>
<trkpt lat="27.336074" lon="98.850636">
<time>2014-08-05T03:08:06Z</time></trkpt>
<trkpt lat="27.336254" lon="98.850606">
<time>2014-08-05T03:08:07Z</time></trkpt>
<trkpt lat="27.336574" lon="98.850565">
<time>2014-08-05T03:08:08Z</time></trkpt>
<trkpt lat="27.336924" lon="98.850535">
<time>2014-08-05T03:08:09Z</time></trkpt>
<trkpt lat="27.337084" lon="98.850515">
<time>2014-08-05T03:08:10Z</time></trkpt>
<trkpt lat="27.337184" lon="98.850505">
<time>2014-08-05T03:08:11Z</time></trkpt>
<trkpt lat="27.337374" lon="98.850495">
<time>2014-08-05T03:08:12Z</time></trkpt>
<trkpt lat="27.337464" lon="98.850495">
<time>2014-08-05T03:08:13Z</time></trkpt>
<trkpt lat="27.337544" lon="98.850505">
<time>2014-08-05T03:08:14Z</time></trkpt>
<trkpt lat="27.337634" lon="98.850515">
<time>2014-08-05T03:08:15Z</time></trkpt>
<trkpt lat="27.337844" lon="98.850585">
<time>2014-08-05T03:08:16Z</time></trkpt>
<trkpt lat="27.337934" lon="98.850615">
<time>2014-08-05T03:08:17Z</time></trkpt>
<trkpt lat="27.338054" lon="98.850666">
<time>2014-08-05T03:08:18Z</time></trkpt>
<trkpt lat="27.338194" lon="98.850696">
<time>2014-08-05T03:08:19Z</time></trkpt>
<trkpt lat="27.338664" lon="98.850756">
<time>2014-08-05T03:08:20Z</time></trkpt>
<trkpt lat="27.338844" lon="98.850786">
<time>2014-08-05T03:08:21Z</time></trkpt>
<trkpt lat="27.338974" lon="98.850806">
<time>2014-08-05T03:08:22Z</time></trkpt>
<trkpt lat="27.339114" lon="98.850836">
<time>2014-08-05T03:08:23Z</time></trkpt>
<trkpt lat="27.339244" lon="98.850886">
<time>2014-08-05T03:08:24Z</time></trkpt>
<trkpt lat="27.339444" lon="98.850976">
<time>2014-08-05T03:08:25Z</time></trkpt>
<trkpt lat="27.339605" lon="98.851056">
<time>2014-08-05T03:08:26Z</time></trkpt>
<trkpt lat="27.339825" lon="98.851166">
<time>2014-08-05T03:08:27Z</time></trkpt>
<trkpt lat="27.340315" lon="98.851416">
<time>2014-08-05T03:08:28Z</time></trkpt>
<trkpt lat="27.340715" lon="98.851607">
<time>2014-08-05T03:08:29Z</time></trkpt>
<trkpt lat="27.340815" lon="98.851657">
<time>2014-08-05T03:08:30Z</time></trkpt>
<trkpt lat="27.340895" lon="98.851707">
<time>2014-08-05T03:08:31Z</time></trkpt>
<trkpt lat="27.341176" lon="98.851907">
<time>2014-08-05T03:08:32Z</time></trkpt>
<trkpt lat="27.341256" lon="98.851957">
<time>2014-08-05T03:08:33Z</time></trkpt>
<trkpt lat="27.341306" lon="98.851987">
<time>2014-08-05T03:08:34Z</time></trkpt>
<trkpt lat="27.341356" lon="98.852007">
<time>2014-08-05T03:08:35Z</time></trkpt>
<trkpt lat="27.341406" lon="98.852017">
<time>2014-08-05T03:08:36Z</time></trkpt>
<trkpt lat="27.341466" lon="98.852037">
<time>2014-08-05T03:08:37Z</time></trkpt>
<trkpt lat="27.341536" lon="98.852037">
<time>2014-08-05T03:08:38Z</time></trkpt>
<trkpt lat="27.341616" lon="98.852047">
<time>2014-08-05T03:08:39Z</time></trkpt>
<trkpt lat="27.341686" lon="98.852057">
<time>2014-08-05T03:08:40Z</time></trkpt>
<trkpt lat="27.341746" lon="98.852077">
<time>2014-08-05T03:08:41Z</time></trkpt>
<trkpt lat="27.341806" lon="98.852097">
<time>2014-08-05T03:08:42Z</time></trkpt>
<trkpt lat="27.341876" lon="98.852127">
<time>2014-08-05T03:08:43Z</time></trkpt>
<trkpt lat="27.341936" lon="98.852157">
<time>2014-08-05T03:08:44Z</time></trkpt>
<trkpt lat="27.341986" lon="98.852197">
<time>2014-08-05T03:08:45Z</time></trkpt>
<trkpt lat="27.342026" lon="98.852237">
<time>2014-08-05T03:08:46Z</time></trkpt>
<trkpt lat="27.342256" lon="98.852487">
<time>2014-08-05T03:08:47Z</time></trkpt>
<trkpt lat="27.342347" lon="98.852567">
<time>2014-08-05T03:08:48Z</time></trkpt>
<trkpt lat="27.342427" lon="98.852638">
<time>2014-08-05T03:08:49Z</time></trkpt>
<trkpt lat="27.342547" lon="98.852728">
<time>2014-08-05T03:08:50Z</time></trkpt>
<trkpt lat="27.342827" lon="98.852918">
<time>2014-08-05T03:08:51Z</time></trkpt>
<trkpt lat="27.343227" lon="98.853158">
<time>2014-08-05T03:08:52Z</time></trkpt>
<trkpt lat="27.343377" lon="98.853218">
<time>2014-08-05T03:08:53Z</time></trkpt>
<trkpt lat="27.343468" lon="98.853248">
<time>2014-08-05T03:08:54Z</time></trkpt>
<trkpt lat="27.343708" lon="98.853308">
<time>2014-08-05T03:08:55Z</time></trkpt>
<trkpt lat="27.343898" lon="98.853358">
<time>2014-08-05T03:08:56Z</time></trkpt>
<trkpt lat="27.343958" lon="98.853358">
<time>2014-08-05T03:08:57Z</time></trkpt>
<trkpt lat="27.344018" lon="98.853368">
<time>2014-08-05T03:08:58Z</time></trkpt>
<trkpt lat="27.344208" lon="98.853358">
<time>2014-08-05T03:08:59Z</time></trkpt>
<trkpt lat="27.344368" lon="98.853348">
<time>2014-08-05T03:09:00Z</time></trkpt>
<trkpt lat="27.344458" lon="98.853348">
<time>2014-08-05T03:09:01Z</time></trkpt>
<trkpt lat="27.344577" lon="98.853358">
<time>2014-08-05T03:09:02Z</time></trkpt>
<trkpt lat="27.344738" lon="98.853378">
<time>2014-08-05T03:09:03Z</time></trkpt>
<trkpt lat="27.344988" lon="98.853418">
<time>2014-08-05T03:09:04Z</time></trkpt>
<trkpt lat="27.345218" lon="98.853468">
<time>2014-08-05T03:09:05Z</time></trkpt>
<trkpt lat="27.345338" lon="98.853498">
<time>2014-08-05T03:09:06Z</time></trkpt>
<trkpt lat="27.345468" lon="98.853518">
<time>2014-08-05T03:09:07Z</time></trkpt>
<trkpt lat="27.345538" lon="98.853538">
<time>2014-08-05T03:09:08Z</time></trkpt>
<trkpt lat="27.345658" lon="98.853548">
<time>2014-08-05T03:09:09Z</time></trkpt>
<trkpt lat="27.345698" lon="98.853548">
<time>2014-08-05T03:09:10Z</time></trkpt>
<trkpt lat="27.345798" lon="98.853538">
<time>2014-08-05T03:09:11Z</time></trkpt>
<trkpt lat="27.345948" lon="98.853538">
<time>2014-08-05T03:09:12Z</time></trkpt>
<trkpt lat="27.346058" lon="98.853538">
<time>2014-08-05T03:09:13Z</time></trkpt>
<trkpt lat="27.346138" lon="98.853548">
<time>2014-08-05T03:09:14Z</time></trkpt>
<trkpt lat="27.346548" lon="98.853608">
<time>2014-08-05T03:09:15Z</time></trkpt>
<trkpt lat="27.346698" lon="98.853619">
<time>2014-08-05T03:09:16Z</time></trkpt>
<trkpt lat="27.346808" lon="98.853608">
<time>2014-08-05T03:09:17Z</time></trkpt>
<trkpt lat="27.346848" lon="98.853608">
<time>2014-08-05T03:09:18Z</time></trkpt>
<trkpt lat="27.346927" lon="98.853598">
<time>2014-08-05T03:09:19Z</time></trkpt>
<trkpt lat="27.347057" lon="98.853568">
<time>2014-08-05T03:09:20Z</time></trkpt>
<trkpt lat="27.347277" lon="98.853518">
<time>2014-08-05T03:09:21Z</time></trkpt>
<trkpt lat="27.347367" lon="98.853498">
<time>2014-08-05T03:09:22Z</time></trkpt>
<trkpt lat="27.347417" lon="98.853498">
<time>2014-08-05T03:09:23Z</time></trkpt>
<trkpt lat="27.347587" lon="98.853488">
<time>2014-08-05T03:09:24Z</time></trkpt>
<trkpt lat="27.347717" lon="98.853498">
<time>2014-08-05T03:09:25Z</time></trkpt>
<trkpt lat="27.347827" lon="98.853488">
<time>2014-08-05T03:09:26Z</time></trkpt>
<trkpt lat="27.347877" lon="98.853478">
<time>2014-08-05T03:09:27Z</time></trkpt>
<trkpt lat="27.347947" lon="98.853458">
<time>2014-08-05T03:09:28Z</time></trkpt>
<trkpt lat="27.348027" lon="98.853428">
<time>2014-08-05T03:09:29Z</time></trkpt>
<trkpt lat="27.348267" lon="98.853338">
<time>2014-08-05T03:09:30Z</time></trkpt>
<trkpt lat="27.348387" lon="98.853298">
<time>2014-08-05T03:09:31Z</time></trkpt>
<trkpt lat="27.348477" lon="98.853278">
<time>2014-08-05T03:09:32Z</time></trkpt>
<trkpt lat="27.348567" lon="98.853258">
<time>2014-08-05T03:09:33Z</time></trkpt>
<trkpt lat="27.348657" lon="98.853238">
<time>2014-08-05T03:09:34Z</time></trkpt>
<trkpt lat="27.348777" lon="98.853228">
<time>2014-08-05T03:09:35Z</time></trkpt>
<trkpt lat="27.348897" lon="98.853218">
<time>2014-08-05T03:09:36Z</time></trkpt>
<trkpt lat="27.349036" lon="98.853188">
<time>2014-08-05T03:09:37Z</time></trkpt>
<trkpt lat="27.349136" lon="98.853148">
<time>2014-08-05T03:09:38Z</time></trkpt>
<trkpt lat="27.349236" lon="98.853078">
<time>2014-08-05T03:09:39Z</time></trkpt>
<trkpt lat="27.349386" lon="98.852978">
<time>2014-08-05T03:09:40Z</time></trkpt>
<trkpt lat="27.349486" lon="98.852918">
<time>2014-08-05T03:09:41Z</time></trkpt>
<trkpt lat="27.349736" lon="98.852838">
<time>2014-08-05T03:09:42Z</time></trkpt>
<trkpt lat="27.349926" lon="98.852768">
<time>2014-08-05T03:09:43Z</time></trkpt>
<trkpt lat="27.350145" lon="98.852677">
<time>2014-08-05T03:09:44Z</time></trkpt>
<trkpt lat="27.350525" lon="98.852517">
<time>2014-08-05T03:09:45Z</time></trkpt>
<trkpt lat="27.350755" lon="98.852447">
<time>2014-08-05T03:09:46Z</time></trkpt>
<trkpt lat="27.350985" lon="98.852377">
<time>2014-08-05T03:09:47Z</time></trkpt>
<trkpt lat="27.351135" lon="98.852317">
<time>2014-08-05T03:09:48Z</time></trkpt>
<trkpt lat="27.351195" lon="98.852287">
<time>2014-08-05T03:09:49Z</time></trkpt>
<trkpt lat="27.351325" lon="98.852217">
<time>2014-08-05T03:09:50Z</time></trkpt>
<trkpt lat="27.351384" lon="98.852187">
<time>2014-08-05T03:09:51Z</time></trkpt>
<trkpt lat="27.351424" lon="98.852167">
<time>2014-08-05T03:09:52Z</time></trkpt>
<trkpt lat="27.351464" lon="98.852147">
<time>2014-08-05T03:09:53Z</time></trkpt>
<trkpt lat="27.351574" lon="98.852107">
<time>2014-08-05T03:09:54Z</time></trkpt>
<trkpt lat="27.351734" lon="98.852047">
<time>2014-08-05T03:09:55Z</time></trkpt>
<trkpt lat="27.351814" lon="98.852007">
<time>2014-08-05T03:09:56Z</time></trkpt>
<trkpt lat="27.351844" lon="98.851997">
<time>2014-08-05T03:09:57Z</time></trkpt>
<trkpt lat="27.351864" lon="98.851977">
<time>2014-08-05T03:09:58Z</time></trkpt>
<trkpt lat="27.351894" lon="98.851957">
<time>2014-08-05T03:09:59Z</time></trkpt>
<trkpt lat="27.352004" lon="98.851897">
<time>2014-08-05T03:10:00Z</time></trkpt>
<trkpt lat="27.352124" lon="98.851847">
<time>2014-08-05T03:10:01Z</time></trkpt>
<trkpt lat="27.352234" lon="98.851807">
<time>2014-08-05T03:10:02Z</time></trkpt>
<trkpt lat="27.352344" lon="98.851766">
<time>2014-08-05T03:10:03Z</time></trkpt>
<trkpt lat="27.352443" lon="98.851716">
<time>2014-08-05T03:10:04Z</time></trkpt>
<trkpt lat="27.352513" lon="98.851686">
<time>2014-08-05T03:10:05Z</time></trkpt>
<trkpt lat="27.352543" lon="98.851676">
<time>2014-08-05T03:10:06Z</time></trkpt>
<trkpt lat="27.352653" lon="98.851606">
<time>2014-08-05T03:10:07Z</time></trkpt>
<trkpt lat="27.352823" lon="98.851506">
<time>2014-08-05T03:10:08Z</time></trkpt>
<trkpt lat="27.352973" lon="98.851436">
<time>2014-08-05T03:10:09Z</time></trkpt>
<trkpt lat="27.353013" lon="98.851406">
<time>2014-08-05T03:10:10Z</time></trkpt>
<trkpt lat="27.353053" lon="98.851396">
<time>2014-08-05T03:10:11Z</time></trkpt>
<trkpt lat="27.353083" lon="98.851376">
<time>2014-08-05T03:10:12Z</time></trkpt>
<trkpt lat="27.353133" lon="98.851356">
<time>2014-08-05T03:10:13Z</time></trkpt>
<trkpt lat="27.353213" lon="98.851316">
<time>2014-08-05T03:10:14Z</time></trkpt>
<trkpt lat="27.353243" lon="98.851296">
<time>2014-08-05T03:10:15Z</time></trkpt>
<trkpt lat="27.353293" lon="98.851266">
<time>2014-08-05T03:10:16Z</time></trkpt>
<trkpt lat="27.353313" lon="98.851256">
<time>2014-08-05T03:10:17Z</time></trkpt>
<trkpt lat="27.353353" lon="98.851226">
<time>2014-08-05T03:10:18Z</time></trkpt>
<trkpt lat="27.353412" lon="98.851186">
<time>2014-08-05T03:10:19Z</time></trkpt>
<trkpt lat="27.353452" lon="98.851156">
<time>2014-08-05T03:10:20Z</time></trkpt>
<trkpt lat="27.353502" lon="98.851116">
<time>2014-08-05T03:10:21Z</time></trkpt>
<trkpt lat="27.353552" lon="98.851076">
<time>2014-08-05T03:10:22Z</time></trkpt>
<trkpt lat="27.353632" lon="98.851026">
<time>2014-08-05T03:10:23Z</time></trkpt>
<trkpt lat="27.353682" lon="98.851006">
<time>2014-08-05T03:10:24Z</time></trkpt>
<trkpt lat="27.353722" lon="98.850986">
<time>2014-08-05T03:10:25Z</time></trkpt>
<trkpt lat="27.353762" lon="98.850976">
<time>2014-08-05T03:10:26Z</time></trkpt>
<trkpt lat="27.353792" lon="98.850966">
<time>2014-08-05T03:10:27Z</time></trkpt>
<trkpt lat="27.353862" lon="98.850966">
<time>2014-08-05T03:10:28Z</time></trkpt>
<trkpt lat="27.353902" lon="98.850966">
<time>2014-08-05T03:10:29Z</time></trkpt>
<trkpt lat="27.353932" lon="98.850976">
<time>2014-08-05T03:10:30Z</time></trkpt>
<trkpt lat="27.354192" lon="98.851016">
<time>2014-08-05T03:10:31Z</time></trkpt>
<trkpt lat="27.354222" lon="98.851026">
<time>2014-08-05T03:10:32Z</time></trkpt>
<trkpt lat="27.354262" lon="98.851026">
<time>2014-08-05T03:10:33Z</time></trkpt>
<trkpt lat="27.354292" lon="98.851026">
<time>2014-08-05T03:10:34Z</time></trkpt>
<trkpt lat="27.354322" lon="98.851026">
<time>2014-08-05T03:10:35Z</time></trkpt>
<trkpt lat="27.354352" lon="98.851016">
<time>2014-08-05T03:10:36Z</time></trkpt>
<trkpt lat="27.354382" lon="98.851016">
<time>2014-08-05T03:10:37Z</time></trkpt>
<trkpt lat="27.354402" lon="98.851006">
<time>2014-08-05T03:10:38Z</time></trkpt>
<trkpt lat="27.354432" lon="98.850986">
<time>2014-08-05T03:10:39Z</time></trkpt>
<trkpt lat="27.354452" lon="98.850976">
<time>2014-08-05T03:10:40Z</time></trkpt>
<trkpt lat="27.354472" lon="98.850956">
<time>2014-08-05T03:10:41Z</time></trkpt>
<trkpt lat="27.354492" lon="98.850936">
<time>2014-08-05T03:10:42Z</time></trkpt>
<trkpt lat="27.354512" lon="98.850926">
<time>2014-08-05T03:10:43Z</time></trkpt>
<trkpt lat="27.354532" lon="98.850895">
<time>2014-08-05T03:10:44Z</time></trkpt>
<trkpt lat="27.354552" lon="98.850875">
<time>2014-08-05T03:10:45Z</time></trkpt>
<trkpt lat="27.354572" lon="98.850845">
<time>2014-08-05T03:10:46Z</time></trkpt>
<trkpt lat="27.354572" lon="98.850835">
<time>2014-08-05T03:10:47Z</time></trkpt>
<trkpt lat="27.354592" lon="98.850795">
<time>2014-08-05T03:10:48Z</time></trkpt>
<trkpt lat="27.354621" lon="98.850725">
<time>2014-08-05T03:10:49Z</time></trkpt>
<trkpt lat="27.354661" lon="98.850575">
<time>2014-08-05T03:10:50Z</time></trkpt>
<trkpt lat="27.354671" lon="98.850565">
<time>2014-08-05T03:10:51Z</time></trkpt>
<trkpt lat="27.354671" lon="98.850555">
<time>2014-08-05T03:10:52Z</time></trkpt>
<trkpt lat="27.354711" lon="98.850485">
<time>2014-08-05T03:10:53Z</time></trkpt>
<trkpt lat="27.354711" lon="98.850475">
<time>2014-08-05T03:10:54Z</time></trkpt>
<trkpt lat="27.354711" lon="98.850465">
<time>2014-08-05T03:10:55Z</time></trkpt>
<trkpt lat="27.354761" lon="98.850405">
<time>2014-08-05T03:10:56Z</time></trkpt>
<trkpt lat="27.354771" lon="98.850395">
<time>2014-08-05T03:10:57Z</time></trkpt>
<trkpt lat="27.354841" lon="98.850335">
<time>2014-08-05T03:10:58Z</time></trkpt>
<trkpt lat="27.354851" lon="98.850325">
<time>2014-08-05T03:10:59Z</time></trkpt>
<trkpt lat="27.354911" lon="98.850295">
<time>2014-08-05T03:11:00Z</time></trkpt>
<trkpt lat="27.354931" lon="98.850285">
<time>2014-08-05T03:11:01Z</time></trkpt>
<trkpt lat="27.35524" lon="98.850175">
<time>2014-08-05T03:11:02Z</time></trkpt>
<trkpt lat="27.35535" lon="98.850135">
<time>2014-08-05T03:11:03Z</time></trkpt>
<trkpt lat="27.35547" lon="98.850085">
<time>2014-08-05T03:11:04Z</time></trkpt>
<trkpt lat="27.35561" lon="98.850015">
<time>2014-08-05T03:11:05Z</time></trkpt>
<trkpt lat="27.35577" lon="98.849934">
<time>2014-08-05T03:11:06Z</time></trkpt>
<trkpt lat="27.35587" lon="98.849874">
<time>2014-08-05T03:11:07Z</time></trkpt>
<trkpt lat="27.35598" lon="98.849834">
<time>2014-08-05T03:11:08Z</time></trkpt>
<trkpt lat="27.35621" lon="98.849764">
<time>2014-08-05T03:11:09Z</time></trkpt>
<trkpt lat="27.35634" lon="98.849734">
<time>2014-08-05T03:11:10Z</time></trkpt>
<trkpt lat="27.356449" lon="98.849704">
<time>2014-08-05T03:11:11Z</time></trkpt>
<trkpt lat="27.356609" lon="98.849634">
<time>2014-08-05T03:11:12Z</time></trkpt>
<trkpt lat="27.356789" lon="98.849534">
<time>2014-08-05T03:11:13Z</time></trkpt>
<trkpt lat="27.357049" lon="98.849414">
<time>2014-08-05T03:11:14Z</time></trkpt>
<trkpt lat="27.357239" lon="98.849334">
<time>2014-08-05T03:11:15Z</time></trkpt>
<trkpt lat="27.357488" lon="98.849214">
<time>2014-08-05T03:11:16Z</time></trkpt>
<trkpt lat="27.357748" lon="98.849073">
<time>2014-08-05T03:11:17Z</time></trkpt>
<trkpt lat="27.357908" lon="98.848983">
<time>2014-08-05T03:11:18Z</time></trkpt>
<trkpt lat="27.358058" lon="98.848913">
<time>2014-08-05T03:11:19Z</time></trkpt>
<trkpt lat="27.358158" lon="98.848883">
<time>2014-08-05T03:11:20Z</time></trkpt>
<trkpt lat="27.358318" lon="98.848853">
<time>2014-08-05T03:11:21Z</time></trkpt>
<trkpt lat="27.358538" lon="98.848833">
<time>2014-08-05T03:11:22Z</time></trkpt>
<trkpt lat="27.358638" lon="98.848813">
<time>2014-08-05T03:11:23Z</time></trkpt>
<trkpt lat="27.358748" lon="98.848773">
<time>2014-08-05T03:11:24Z</time></trkpt>
<trkpt lat="27.358857" lon="98.848703">
<time>2014-08-05T03:11:25Z</time></trkpt>
<trkpt lat="27.359177" lon="98.848473">
<time>2014-08-05T03:11:26Z</time></trkpt>
<trkpt lat="27.359337" lon="98.848363">
<time>2014-08-05T03:11:27Z</time></trkpt>
<trkpt lat="27.359586" lon="98.848222">
<time>2014-08-05T03:11:28Z</time></trkpt>
<trkpt lat="27.359676" lon="98.848182">
<time>2014-08-05T03:11:29Z</time></trkpt>
<trkpt lat="27.359786" lon="98.848142">
<time>2014-08-05T03:11:30Z</time></trkpt>
<trkpt lat="27.360116" lon="98.848022">
<time>2014-08-05T03:11:31Z</time></trkpt>
<trkpt lat="27.360666" lon="98.847822">
<time>2014-08-05T03:11:32Z</time></trkpt>
<trkpt lat="27.360845" lon="98.847792">
<time>2014-08-05T03:11:33Z</time></trkpt>
<trkpt lat="27.361355" lon="98.847732">
<time>2014-08-05T03:11:34Z</time></trkpt>
<trkpt lat="27.361675" lon="98.847682">
<time>2014-08-05T03:11:35Z</time></trkpt>
<trkpt lat="27.361935" lon="98.847632">
<time>2014-08-05T03:11:36Z</time></trkpt>
<trkpt lat="27.362165" lon="98.847602">
<time>2014-08-05T03:11:37Z</time></trkpt>
<trkpt lat="27.362345" lon="98.847582">
<time>2014-08-05T03:11:38Z</time></trkpt>
<trkpt lat="27.362465" lon="98.847582">
<time>2014-08-05T03:11:39Z</time></trkpt>
<trkpt lat="27.362665" lon="98.847602">
<time>2014-08-05T03:11:40Z</time></trkpt>
<trkpt lat="27.362835" lon="98.847612">
<time>2014-08-05T03:11:41Z</time></trkpt>
<trkpt lat="27.363065" lon="98.847592">
<time>2014-08-05T03:11:42Z</time></trkpt>
<trkpt lat="27.363325" lon="98.847562">
<time>2014-08-05T03:11:43Z</time></trkpt>
<trkpt lat="27.363495" lon="98.847562">
<time>2014-08-05T03:11:44Z</time></trkpt>
<trkpt lat="27.363715" lon="98.847562">
<time>2014-08-05T03:11:45Z</time></trkpt>
<trkpt lat="27.363825" lon="98.847552">
<time>2014-08-05T03:11:46Z</time></trkpt>
<trkpt lat="27.364174" lon="98.847471">
<time>2014-08-05T03:11:47Z</time></trkpt>
<trkpt lat="27.364404" lon="98.847441">
<time>2014-08-05T03:11:48Z</time></trkpt>
<trkpt lat="27.364554" lon="98.847441">
<time>2014-08-05T03:11:49Z</time></trkpt>
<trkpt lat="27.364754" lon="98.847451">
<time>2014-08-05T03:11:50Z</time></trkpt>
<trkpt lat="27.365194" lon="98.847512">
<time>2014-08-05T03:11:51Z</time></trkpt>
<trkpt lat="27.365304" lon="98.847522">
<time>2014-08-05T03:11:52Z</time></trkpt>
<trkpt lat="27.365404" lon="98.847522">
<time>2014-08-05T03:11:53Z</time></trkpt>
<trkpt lat="27.365534" lon="98.847501">
<time>2014-08-05T03:11:54Z</time></trkpt>
<trkpt lat="27.365784" lon="98.847451">
<time>2014-08-05T03:11:55Z</time></trkpt>
<trkpt lat="27.366044" lon="98.847421">
<time>2014-08-05T03:11:56Z</time></trkpt>
<trkpt lat="27.366304" lon="98.847391">
<time>2014-08-05T03:11:57Z</time></trkpt>
<trkpt lat="27.366384" lon="98.847391">
<time>2014-08-05T03:11:58Z</time></trkpt>
<trkpt lat="27.366444" lon="98.847401">
<time>2014-08-05T03:11:59Z</time></trkpt>
<trkpt lat="27.366554" lon="98.847421">
<time>2014-08-05T03:12:00Z</time></trkpt>
<trkpt lat="27.366864" lon="98.847501">
<time>2014-08-05T03:12:01Z</time></trkpt>
<trkpt lat="27.367064" lon="98.847552">
<time>2014-08-05T03:12:02Z</time></trkpt>
<trkpt lat="27.367314" lon="98.847592">
<time>2014-08-05T03:12:03Z</time></trkpt>
<trkpt lat="27.367634" lon="98.847602">
<time>2014-08-05T03:12:04Z</time></trkpt>
<trkpt lat="27.367994" lon="98.847652">
<time>2014-08-05T03:12:05Z</time></trkpt>
<trkpt lat="27.368174" lon="98.847682">
<time>2014-08-05T03:12:06Z</time></trkpt>
<trkpt lat="27.368304" lon="98.847702">
<time>2014-08-05T03:12:07Z</time></trkpt>
<trkpt lat="27.368414" lon="98.847722">
<time>2014-08-05T03:12:08Z</time></trkpt>
<trkpt lat="27.368454" lon="98.847712">
<time>2014-08-05T03:12:09Z</time></trkpt>
<trkpt lat="27.368504" lon="98.847712">
<time>2014-08-05T03:12:10Z</time></trkpt>
<trkpt lat="27.368534" lon="98.847702">
<time>2014-08-05T03:12:11Z</time></trkpt>
<trkpt lat="27.368564" lon="98.847692">
<time>2014-08-05T03:12:12Z</time></trkpt>
<trkpt lat="27.368684" lon="98.847642">
<time>2014-08-05T03:12:13Z</time></trkpt>
<trkpt lat="27.368784" lon="98.847582">
<time>2014-08-05T03:12:14Z</time></trkpt>
<trkpt lat="27.369004" lon="98.847441">
<time>2014-08-05T03:12:15Z</time></trkpt>
<trkpt lat="27.369173" lon="98.847341">
<time>2014-08-05T03:12:16Z</time></trkpt>
<trkpt lat="27.369303" lon="98.847291">
<time>2014-08-05T03:12:17Z</time></trkpt>
<trkpt lat="27.369443" lon="98.847261">
<time>2014-08-05T03:12:18Z</time></trkpt>
<trkpt lat="27.369593" lon="98.847241">
<time>2014-08-05T03:12:19Z</time></trkpt>
<trkpt lat="27.369853" lon="98.847231">
<time>2014-08-05T03:12:20Z</time></trkpt>
<trkpt lat="27.369913" lon="98.847221">
<time>2014-08-05T03:12:21Z</time></trkpt>
<trkpt lat="27.369963" lon="98.847211">
<time>2014-08-05T03:12:22Z</time></trkpt>
<trkpt lat="27.370023" lon="98.847181">
<time>2014-08-05T03:12:23Z</time></trkpt>
<trkpt lat="27.370063" lon="98.847141">
<time>2014-08-05T03:12:24Z</time></trkpt>
<trkpt lat="27.370143" lon="98.847081">
<time>2014-08-05T03:12:25Z</time></trkpt>
<trkpt lat="27.370283" lon="98.846981">
<time>2014-08-05T03:12:26Z</time></trkpt>
<trkpt lat="27.370383" lon="98.846941">
<time>2014-08-05T03:12:27Z</time></trkpt>
<trkpt lat="27.370502" lon="98.846911">
<time>2014-08-05T03:12:28Z</time></trkpt>
<trkpt lat="27.370692" lon="98.846871">
<time>2014-08-05T03:12:29Z</time></trkpt>
<trkpt lat="27.370762" lon="98.846851">
<time>2014-08-05T03:12:30Z</time></trkpt>
<trkpt lat="27.370832" lon="98.846821">
<time>2014-08-05T03:12:31Z</time></trkpt>
<trkpt lat="27.371002" lon="98.846731">
<time>2014-08-05T03:12:32Z</time></trkpt>
<trkpt lat="27.371072" lon="98.8467">
<time>2014-08-05T03:12:33Z</time></trkpt>
<trkpt lat="27.371172" lon="98.84667">
<time>2014-08-05T03:12:34Z</time></trkpt>
<trkpt lat="27.371292" lon="98.84664">
<time>2014-08-05T03:12:35Z</time></trkpt>
<trkpt lat="27.371772" lon="98.84656">
<time>2014-08-05T03:12:36Z</time></trkpt>
<trkpt lat="27.371932" lon="98.84652">
<time>2014-08-05T03:12:37Z</time></trkpt>
<trkpt lat="27.372151" lon="98.84642">
<time>2014-08-05T03:12:38Z</time></trkpt>
<trkpt lat="27.372351" lon="98.84627">
<time>2014-08-05T03:12:39Z</time></trkpt>
<trkpt lat="27.372461" lon="98.84617">
<time>2014-08-05T03:12:40Z</time></trkpt>
<trkpt lat="27.372671" lon="98.84597">
<time>2014-08-05T03:12:41Z</time></trkpt>
<trkpt lat="27.37278" lon="98.845849">
<time>2014-08-05T03:12:42Z</time></trkpt>
<trkpt lat="27.37287" lon="98.845749">
<time>2014-08-05T03:12:43Z</time></trkpt>
<trkpt lat="27.37295" lon="98.845699">
<time>2014-08-05T03:12:44Z</time></trkpt>
<trkpt lat="27.37306" lon="98.845649">
<time>2014-08-05T03:12:45Z</time></trkpt>
<trkpt lat="27.3733" lon="98.845579">
<time>2014-08-05T03:12:46Z</time></trkpt>
<trkpt lat="27.37347" lon="98.845499">
<time>2014-08-05T03:12:47Z</time></trkpt>
<trkpt lat="27.373559" lon="98.845459">
<time>2014-08-05T03:12:48Z</time></trkpt>
<trkpt lat="27.373649" lon="98.845389">
<time>2014-08-05T03:12:49Z</time></trkpt>
<trkpt lat="27.373769" lon="98.845259">
<time>2014-08-05T03:12:50Z</time></trkpt>
<trkpt lat="27.373879" lon="98.845119">
<time>2014-08-05T03:12:51Z</time></trkpt>
<trkpt lat="27.373989" lon="98.844968">
<time>2014-08-05T03:12:52Z</time></trkpt>
<trkpt lat="27.374088" lon="98.844878">
<time>2014-08-05T03:12:53Z</time></trkpt>
<trkpt lat="27.374128" lon="98.844848">
<time>2014-08-05T03:12:54Z</time></trkpt>
<trkpt lat="27.374168" lon="98.844828">
<time>2014-08-05T03:12:55Z</time></trkpt>
<trkpt lat="27.374228" lon="98.844798">
<time>2014-08-05T03:12:56Z</time></trkpt>
<trkpt lat="27.374478" lon="98.844728">
<time>2014-08-05T03:12:57Z</time></trkpt>
<trkpt lat="27.374708" lon="98.844648">
<time>2014-08-05T03:12:58Z</time></trkpt>
<trkpt lat="27.374998" lon="98.844468">
<time>2014-08-05T03:12:59Z</time></trkpt>
<trkpt lat="27.375157" lon="98.844358">
<time>2014-08-05T03:13:00Z</time></trkpt>
<trkpt lat="27.375477" lon="98.844127">
<time>2014-08-05T03:13:01Z</time></trkpt>
<trkpt lat="27.375647" lon="98.843987">
<time>2014-08-05T03:13:02Z</time></trkpt>
<trkpt lat="27.375776" lon="98.843867">
<time>2014-08-05T03:13:03Z</time></trkpt>
<trkpt lat="27.375846" lon="98.843767">
<time>2014-08-05T03:13:04Z</time></trkpt>
<trkpt lat="27.376016" lon="98.843517">
<time>2014-08-05T03:13:05Z</time></trkpt>
<trkpt lat="27.376215" lon="98.843146">
<time>2014-08-05T03:13:06Z</time></trkpt>
<trkpt lat="27.376474" lon="98.842696">
<time>2014-08-05T03:13:07Z</time></trkpt>
<trkpt lat="27.376992" lon="98.841784">
<time>2014-08-05T03:13:08Z</time></trkpt>
<trkpt lat="27.377132" lon="98.841604">
<time>2014-08-05T03:13:09Z</time></trkpt>
<trkpt lat="27.377402" lon="98.841324">
<time>2014-08-05T03:13:10Z</time></trkpt>
<trkpt lat="27.377671" lon="98.841054">
<time>2014-08-05T03:13:11Z</time></trkpt>
<trkpt lat="27.377901" lon="98.840833">
<time>2014-08-05T03:13:12Z</time></trkpt>
<trkpt lat="27.37806" lon="98.840673">
<time>2014-08-05T03:13:13Z</time></trkpt>
<trkpt lat="27.37829" lon="98.840463">
<time>2014-08-05T03:13:14Z</time></trkpt>
<trkpt lat="27.378619" lon="98.840192">
<time>2014-08-05T03:13:15Z</time></trkpt>
<trkpt lat="27.378729" lon="98.840052">
<time>2014-08-05T03:13:16Z</time></trkpt>
<trkpt lat="27.378839" lon="98.839862">
<time>2014-08-05T03:13:17Z</time></trkpt>
<trkpt lat="27.378918" lon="98.839752">
<time>2014-08-05T03:13:18Z</time></trkpt>
<trkpt lat="27.379018" lon="98.839622">
<time>2014-08-05T03:13:19Z</time></trkpt>
<trkpt lat="27.379198" lon="98.839461">
<time>2014-08-05T03:13:20Z</time></trkpt>
<trkpt lat="27.379388" lon="98.839331">
<time>2014-08-05T03:13:21Z</time></trkpt>
<trkpt lat="27.379477" lon="98.839251">
<time>2014-08-05T03:13:22Z</time></trkpt>
<trkpt lat="27.379747" lon="98.838961">
<time>2014-08-05T03:13:23Z</time></trkpt>
<trkpt lat="27.379917" lon="98.838801">
<time>2014-08-05T03:13:24Z</time></trkpt>
<trkpt lat="27.380266" lon="98.83855">
<time>2014-08-05T03:13:25Z</time></trkpt>
<trkpt lat="27.380366" lon="98.83846">
<time>2014-08-05T03:13:26Z</time></trkpt>
<trkpt lat="27.380446" lon="98.83838">
<time>2014-08-05T03:13:27Z</time></trkpt>
<trkpt lat="27.380725" lon="98.83801">
<time>2014-08-05T03:13:28Z</time></trkpt>
<trkpt lat="27.380745" lon="98.83799">
<time>2014-08-05T03:13:29Z</time></trkpt>
<trkpt lat="27.380775" lon="98.83797">
<time>2014-08-05T03:13:30Z</time></trkpt>
<trkpt lat="27.380815" lon="98.83795">
<time>2014-08-05T03:13:31Z</time></trkpt>
<trkpt lat="27.380895" lon="98.837919">
<time>2014-08-05T03:13:32Z</time></trkpt>
<trkpt lat="27.381145" lon="98.837859">
<time>2014-08-05T03:13:33Z</time></trkpt>
<trkpt lat="27.381235" lon="98.837829">
<time>2014-08-05T03:13:34Z</time></trkpt>
<trkpt lat="27.381305" lon="98.837799">
<time>2014-08-05T03:13:35Z</time></trkpt>
<trkpt lat="27.381704" lon="98.837539">
<time>2014-08-05T03:13:36Z</time></trkpt>
<trkpt lat="27.382054" lon="98.837319">
<time>2014-08-05T03:13:37Z</time></trkpt>
<trkpt lat="27.382173" lon="98.837259">
<time>2014-08-05T03:13:38Z</time></trkpt>
<trkpt lat="27.382313" lon="98.837199">
<time>2014-08-05T03:13:39Z</time></trkpt>
<trkpt lat="27.382483" lon="98.837128">
<time>2014-08-05T03:13:40Z</time></trkpt>
<trkpt lat="27.382613" lon="98.837058">
<time>2014-08-05T03:13:41Z</time></trkpt>
<trkpt lat="27.383122" lon="98.836698">
<time>2014-08-05T03:13:42Z</time></trkpt>
<trkpt lat="27.383352" lon="98.836578">
<time>2014-08-05T03:13:43Z</time></trkpt>
<trkpt lat="27.383592" lon="98.836478">
<time>2014-08-05T03:13:44Z</time></trkpt>
<trkpt lat="27.383991" lon="98.836257">
<time>2014-08-05T03:13:45Z</time></trkpt>
<trkpt lat="27.384231" lon="98.836097">
<time>2014-08-05T03:13:46Z</time></trkpt>
<trkpt lat="27.384401" lon="98.835977">
<time>2014-08-05T03:13:47Z</time></trkpt>
<trkpt lat="27.384501" lon="98.835927">
<time>2014-08-05T03:13:48Z</time></trkpt>
<trkpt lat="27.38462" lon="98.835867">
<time>2014-08-05T03:13:49Z</time></trkpt>
<trkpt lat="27.38593" lon="98.835446">
<time>2014-08-05T03:13:50Z</time></trkpt>
<trkpt lat="27.386439" lon="98.835266">
<time>2014-08-05T03:13:51Z</time></trkpt>
<trkpt lat="27.386459" lon="98.835266">
<time>2014-08-05T03:13:52Z</time></trkpt>
<trkpt lat="27.386479" lon="98.835246">
<time>2014-08-05T03:13:53Z</time></trkpt>
<trkpt lat="27.386509" lon="98.835226">
<time>2014-08-05T03:13:54Z</time></trkpt>
<trkpt lat="27.386549" lon="98.835206">
<time>2014-08-05T03:13:55Z</time></trkpt>
<trkpt lat="27.386559" lon="98.835186">
<time>2014-08-05T03:13:56Z</time></trkpt>
<trkpt lat="27.386569" lon="98.835176">
<time>2014-08-05T03:13:57Z</time></trkpt>
<trkpt lat="27.386579" lon="98.835166">
<time>2014-08-05T03:13:58Z</time></trkpt>
<trkpt lat="27.386599" lon="98.835126">
<time>2014-08-05T03:13:59Z</time></trkpt>
<trkpt lat="27.386619" lon="98.835086">
<time>2014-08-05T03:14:00Z</time></trkpt>
<trkpt lat="27.386678" lon="98.834825">
<time>2014-08-05T03:14:01Z</time></trkpt>
<trkpt lat="27.386698" lon="98.834745">
<time>2014-08-05T03:14:02Z</time></trkpt>
<trkpt lat="27.386698" lon="98.834725">
<time>2014-08-05T03:14:03Z</time></trkpt>
<trkpt lat="27.386718" lon="98.834695">
<time>2014-08-05T03:14:04Z</time></trkpt>
<trkpt lat="27.386728" lon="98.834665">
<time>2014-08-05T03:14:05Z</time></trkpt>
<trkpt lat="27.386758" lon="98.834625">
<time>2014-08-05T03:14:06Z</time></trkpt>
<trkpt lat="27.386788" lon="98.834585">
<time>2014-08-05T03:14:07Z</time></trkpt>
<trkpt lat="27.386818" lon="98.834565">
<time>2014-08-05T03:14:08Z</time></trkpt>
<trkpt lat="27.386838" lon="98.834545">
<time>2014-08-05T03:14:09Z</time></trkpt>
<trkpt lat="27.386938" lon="98.834475">
<time>2014-08-05T03:14:10Z</time></trkpt>
<trkpt lat="27.387307" lon="98.834265">
<time>2014-08-05T03:14:11Z</time></trkpt>
<trkpt lat="27.387946" lon="98.833924">
<time>2014-08-05T03:14:12Z</time></trkpt>
<trkpt lat="27.388586" lon="98.833624">
<time>2014-08-05T03:14:13Z</time></trkpt>
<trkpt lat="27.388985" lon="98.833433">
<time>2014-08-05T03:14:14Z</time></trkpt>
<trkpt lat="27.389425" lon="98.833283">
<time>2014-08-05T03:14:15Z</time></trkpt>
<trkpt lat="27.389625" lon="98.833203">
<time>2014-08-05T03:14:16Z</time></trkpt>
<trkpt lat="27.389775" lon="98.833113">
<time>2014-08-05T03:14:17Z</time></trkpt>
<trkpt lat="27.390144" lon="98.832853">
<time>2014-08-05T03:14:18Z</time></trkpt>
<trkpt lat="27.390314" lon="98.832743">
<time>2014-08-05T03:14:19Z</time></trkpt>
<trkpt lat="27.390494" lon="98.832652">
<time>2014-08-05T03:14:20Z</time></trkpt>
<trkpt lat="27.390963" lon="98.832492">
<time>2014-08-05T03:14:21Z</time></trkpt>
<trkpt lat="27.391383" lon="98.832332">
<time>2014-08-05T03:14:22Z</time></trkpt>
<trkpt lat="27.391503" lon="98.832282">
<time>2014-08-05T03:14:23Z</time></trkpt>
<trkpt lat="27.391583" lon="98.832242">
<time>2014-08-05T03:14:24Z</time></trkpt>
<trkpt lat="27.391683" lon="98.832182">
<time>2014-08-05T03:14:25Z</time></trkpt>
<trkpt lat="27.391812" lon="98.832102">
<time>2014-08-05T03:14:26Z</time></trkpt>
<trkpt lat="27.392002" lon="98.831992">
<time>2014-08-05T03:14:27Z</time></trkpt>
<trkpt lat="27.392132" lon="98.831941">
<time>2014-08-05T03:14:28Z</time></trkpt>
<trkpt lat="27.392322" lon="98.831901">
<time>2014-08-05T03:14:29Z</time></trkpt>
<trkpt lat="27.392492" lon="98.831861">
<time>2014-08-05T03:14:30Z</time></trkpt>
<trkpt lat="27.392642" lon="98.831781">
<time>2014-08-05T03:14:31Z</time></trkpt>
<trkpt lat="27.392822" lon="98.831671">
<time>2014-08-05T03:14:32Z</time></trkpt>
<trkpt lat="27.392961" lon="98.831591">
<time>2014-08-05T03:14:33Z</time></trkpt>
<trkpt lat="27.393131" lon="98.831501">
<time>2014-08-05T03:14:34Z</time></trkpt>
<trkpt lat="27.393321" lon="98.831421">
<time>2014-08-05T03:14:35Z</time></trkpt>
<trkpt lat="27.393501" lon="98.831331">
<time>2014-08-05T03:14:36Z</time></trkpt>
<trkpt lat="27.39382" lon="98.83111">
<time>2014-08-05T03:14:37Z</time></trkpt>
<trkpt lat="27.394899" lon="98.830429">
<time>2014-08-05T03:14:38Z</time></trkpt>
<trkpt lat="27.395139" lon="98.830289">
<time>2014-08-05T03:14:39Z</time></trkpt>
<trkpt lat="27.395159" lon="98.830279">
<time>2014-08-05T03:14:40Z</time></trkpt>
<trkpt lat="27.395258" lon="98.830229">
<time>2014-08-05T03:14:41Z</time></trkpt>
<trkpt lat="27.395418" lon="98.830149">
<time>2014-08-05T03:14:42Z</time></trkpt>
<trkpt lat="27.395448" lon="98.830139">
<time>2014-08-05T03:14:43Z</time></trkpt>
<trkpt lat="27.395458" lon="98.830129">
<time>2014-08-05T03:14:44Z</time></trkpt>
<trkpt lat="27.395478" lon="98.830129">
<time>2014-08-05T03:14:45Z</time></trkpt>
<trkpt lat="27.395498" lon="98.830119">
<time>2014-08-05T03:14:46Z</time></trkpt>
<trkpt lat="27.395528" lon="98.830119">
<time>2014-08-05T03:14:47Z</time></trkpt>
<trkpt lat="27.395568" lon="98.830129">
<time>2014-08-05T03:14:48Z</time></trkpt>
<trkpt lat="27.395608" lon="98.830129">
<time>2014-08-05T03:14:49Z</time></trkpt>
<trkpt lat="27.395628" lon="98.830139">
<time>2014-08-05T03:14:50Z</time></trkpt>
<trkpt lat="27.395638" lon="98.830149">
<time>2014-08-05T03:14:51Z</time></trkpt>
<trkpt lat="27.395668" lon="98.830159">
<time>2014-08-05T03:14:52Z</time></trkpt>
<trkpt lat="27.395668" lon="98.830169">
<time>2014-08-05T03:14:53Z</time></trkpt>
<trkpt lat="27.395688" lon="98.830189">
<time>2014-08-05T03:14:54Z</time></trkpt>
<trkpt lat="27.395738" lon="98.830249">
<time>2014-08-05T03:14:55Z</time></trkpt>
<trkpt lat="27.395819" lon="98.830339">
<time>2014-08-05T03:14:56Z</time></trkpt>
<trkpt lat="27.395899" lon="98.830419">
<time>2014-08-05T03:14:57Z</time></trkpt>
<trkpt lat="27.395919" lon="98.830439">
<time>2014-08-05T03:14:58Z</time></trkpt>
<trkpt lat="27.395949" lon="98.830459">
<time>2014-08-05T03:14:59Z</time></trkpt>
<trkpt lat="27.395969" lon="98.830459">
<time>2014-08-05T03:15:00Z</time></trkpt>
<trkpt lat="27.395989" lon="98.830469">
<time>2014-08-05T03:15:01Z</time></trkpt>
<trkpt lat="27.396019" lon="98.830469">
<time>2014-08-05T03:15:02Z</time></trkpt>
<trkpt lat="27.396029" lon="98.830469">
<time>2014-08-05T03:15:03Z</time></trkpt>
<trkpt lat="27.396049" lon="98.830469">
<time>2014-08-05T03:15:04Z</time></trkpt>
<trkpt lat="27.396079" lon="98.830459">
<time>2014-08-05T03:15:05Z</time></trkpt>
<trkpt lat="27.396109" lon="98.830449">
<time>2014-08-05T03:15:06Z</time></trkpt>
<trkpt lat="27.396139" lon="98.830439">
<time>2014-08-05T03:15:07Z</time></trkpt>
<trkpt lat="27.396159" lon="98.830419">
<time>2014-08-05T03:15:08Z</time></trkpt>
<trkpt lat="27.396179" lon="98.830399">
<time>2014-08-05T03:15:09Z</time></trkpt>
<trkpt lat="27.396209" lon="98.830359">
<time>2014-08-05T03:15:10Z</time></trkpt>
<trkpt lat="27.396239" lon="98.830329">
<time>2014-08-05T03:15:11Z</time></trkpt>
<trkpt lat="27.396248" lon="98.830299">
<time>2014-08-05T03:15:12Z</time></trkpt>
<trkpt lat="27.396258" lon="98.830289">
<time>2014-08-05T03:15:13Z</time></trkpt>
<trkpt lat="27.396268" lon="98.830269">
<time>2014-08-05T03:15:14Z</time></trkpt>
<trkpt lat="27.396268" lon="98.830259">
<time>2014-08-05T03:15:15Z</time></trkpt>
<trkpt lat="27.396268" lon="98.830239">
<time>2014-08-05T03:15:16Z</time></trkpt>
<trkpt lat="27.396268" lon="98.830179">
<time>2014-08-05T03:15:17Z</time></trkpt>
<trkpt lat="27.396268" lon="98.829949">
<time>2014-08-05T03:15:18Z</time></trkpt>
<trkpt lat="27.396268" lon="98.829899">
<time>2014-08-05T03:15:19Z</time></trkpt>
<trkpt lat="27.396288" lon="98.829849">
<time>2014-08-05T03:15:20Z</time></trkpt>
<trkpt lat="27.396308" lon="98.829809">
<time>2014-08-05T03:15:21Z</time></trkpt>
<trkpt lat="27.396357" lon="98.829708">
<time>2014-08-05T03:15:22Z</time></trkpt>
<trkpt lat="27.396417" lon="98.829618">
<time>2014-08-05T03:15:23Z</time></trkpt>
<trkpt lat="27.396447" lon="98.829568">
<time>2014-08-05T03:15:24Z</time></trkpt>
<trkpt lat="27.396477" lon="98.829538">
<time>2014-08-05T03:15:25Z</time></trkpt>
<trkpt lat="27.396507" lon="98.829518">
<time>2014-08-05T03:15:26Z</time></trkpt>
<trkpt lat="27.396547" lon="98.829488">
<time>2014-08-05T03:15:27Z</time></trkpt>
<trkpt lat="27.396567" lon="98.829478">
<time>2014-08-05T03:15:28Z</time></trkpt>
<trkpt lat="27.396607" lon="98.829468">
<time>2014-08-05T03:15:29Z</time></trkpt>
<trkpt lat="27.396647" lon="98.829458">
<time>2014-08-05T03:15:30Z</time></trkpt>
<trkpt lat="27.396687" lon="98.829458">
<time>2014-08-05T03:15:31Z</time></trkpt>
<trkpt lat="27.396957" lon="98.829458">
<time>2014-08-05T03:15:32Z</time></trkpt>
<trkpt lat="27.397107" lon="98.829448">
<time>2014-08-05T03:15:33Z</time></trkpt>
<trkpt lat="27.397227" lon="98.829428">
<time>2014-08-05T03:15:34Z</time></trkpt>
<trkpt lat="27.397537" lon="98.829368">
<time>2014-08-05T03:15:35Z</time></trkpt>
<trkpt lat="27.398136" lon="98.829238">
<time>2014-08-05T03:15:36Z</time></trkpt>
<trkpt lat="27.398326" lon="98.829208">
<time>2014-08-05T03:15:37Z</time></trkpt>
<trkpt lat="27.398466" lon="98.829198">
<time>2014-08-05T03:15:38Z</time></trkpt>
<trkpt lat="27.398576" lon="98.829208">
<time>2014-08-05T03:15:39Z</time></trkpt>
<trkpt lat="27.398726" lon="98.829218">
<time>2014-08-05T03:15:40Z</time></trkpt>
<trkpt lat="27.398916" lon="98.829228">
<time>2014-08-05T03:15:41Z</time></trkpt>
<trkpt lat="27.399006" lon="98.829228">
<time>2014-08-05T03:15:42Z</time></trkpt>
<trkpt lat="27.399096" lon="98.829218">
<time>2014-08-05T03:15:43Z</time></trkpt>
<trkpt lat="27.399156" lon="98.829208">
<time>2014-08-05T03:15:44Z</time></trkpt>
<trkpt lat="27.399196" lon="98.829198">
<time>2014-08-05T03:15:45Z</time></trkpt>
<trkpt lat="27.399286" lon="98.829168">
<time>2014-08-05T03:15:46Z</time></trkpt>
<trkpt lat="27.399366" lon="98.829138">
<time>2014-08-05T03:15:47Z</time></trkpt>
<trkpt lat="27.399446" lon="98.829108">
<time>2014-08-05T03:15:48Z</time></trkpt>
<trkpt lat="27.399516" lon="98.829078">
<time>2014-08-05T03:15:49Z</time></trkpt>
<trkpt lat="27.399606" lon="98.829057">
<time>2014-08-05T03:15:50Z</time></trkpt>
<trkpt lat="27.399666" lon="98.829037">
<time>2014-08-05T03:15:51Z</time></trkpt>
<trkpt lat="27.399736" lon="98.829037">
<time>2014-08-05T03:15:52Z</time></trkpt>
<trkpt lat="27.400586" lon="98.829017">
<time>2014-08-05T03:15:53Z</time></trkpt>
<trkpt lat="27.400875" lon="98.828977">
<time>2014-08-05T03:15:54Z</time></trkpt>
<trkpt lat="27.401135" lon="98.828907">
<time>2014-08-05T03:15:55Z</time></trkpt>
<trkpt lat="27.401305" lon="98.828847">
<time>2014-08-05T03:15:56Z</time></trkpt>
<trkpt lat="27.401485" lon="98.828777">
<time>2014-08-05T03:15:57Z</time></trkpt>
<trkpt lat="27.401645" lon="98.828737">
<time>2014-08-05T03:15:58Z</time></trkpt>
<trkpt lat="27.401865" lon="98.828707">
<time>2014-08-05T03:15:59Z</time></trkpt>
<trkpt lat="27.402135" lon="98.828647">
<time>2014-08-05T03:16:00Z</time></trkpt>
<trkpt lat="27.402344" lon="98.828587">
<time>2014-08-05T03:16:01Z</time></trkpt>
<trkpt lat="27.402794" lon="98.828437">
<time>2014-08-05T03:16:02Z</time></trkpt>
<trkpt lat="27.403654" lon="98.828156">
<time>2014-08-05T03:16:03Z</time></trkpt>
<trkpt lat="27.404393" lon="98.827886">
<time>2014-08-05T03:16:04Z</time></trkpt>
<trkpt lat="27.404932" lon="98.827645">
<time>2014-08-05T03:16:05Z</time></trkpt>
<trkpt lat="27.405652" lon="98.827325">
<time>2014-08-05T03:16:06Z</time></trkpt>
<trkpt lat="27.406191" lon="98.827125">
<time>2014-08-05T03:16:07Z</time></trkpt>
<trkpt lat="27.406321" lon="98.827095">
<time>2014-08-05T03:16:08Z</time></trkpt>
<trkpt lat="27.406491" lon="98.827075">
<time>2014-08-05T03:16:09Z</time></trkpt>
<trkpt lat="27.407121" lon="98.827075">
<time>2014-08-05T03:16:10Z</time></trkpt>
<trkpt lat="27.407611" lon="98.827095">
<time>2014-08-05T03:16:11Z</time></trkpt>
<trkpt lat="27.407701" lon="98.827085">
<time>2014-08-05T03:16:12Z</time></trkpt>
<trkpt lat="27.407791" lon="98.827065">
<time>2014-08-05T03:16:13Z</time></trkpt>
<trkpt lat="27.407881" lon="98.827055">
<time>2014-08-05T03:16:14Z</time></trkpt>
<trkpt lat="27.407901" lon="98.827055">
<time>2014-08-05T03:16:15Z</time></trkpt>
<trkpt lat="27.407941" lon="98.827045">
<time>2014-08-05T03:16:16Z</time></trkpt>
<trkpt lat="27.408061" lon="98.827005">
<time>2014-08-05T03:16:17Z</time></trkpt>
<trkpt lat="27.408341" lon="98.826914">
<time>2014-08-05T03:16:18Z</time></trkpt>
<trkpt lat="27.408351" lon="98.826914">
<time>2014-08-05T03:16:19Z</time></trkpt>
<trkpt lat="27.408621" lon="98.826904">
<time>2014-08-05T03:16:20Z</time></trkpt>
<trkpt lat="27.408911" lon="98.826924">
<time>2014-08-05T03:16:21Z</time></trkpt>
<trkpt lat="27.408921" lon="98.826924">
<time>2014-08-05T03:16:22Z</time></trkpt>
<trkpt lat="27.408941" lon="98.826924">
<time>2014-08-05T03:16:23Z</time></trkpt>
<trkpt lat="27.40908" lon="98.826904">
<time>2014-08-05T03:16:24Z</time></trkpt>
<trkpt lat="27.40918" lon="98.826884">
<time>2014-08-05T03:16:25Z</time></trkpt>
<trkpt lat="27.40921" lon="98.826874">
<time>2014-08-05T03:16:26Z</time></trkpt>
<trkpt lat="27.40924" lon="98.826864">
<time>2014-08-05T03:16:27Z</time></trkpt>
<trkpt lat="27.40934" lon="98.826814">
<time>2014-08-05T03:16:28Z</time></trkpt>
<trkpt lat="27.40977" lon="98.826574">
<time>2014-08-05T03:16:29Z</time></trkpt>
<trkpt lat="27.410329" lon="98.826264">
<time>2014-08-05T03:16:30Z</time></trkpt>
<trkpt lat="27.410689" lon="98.826053">
<time>2014-08-05T03:16:31Z</time></trkpt>
<trkpt lat="27.411458" lon="98.825683">
<time>2014-08-05T03:16:32Z</time></trkpt>
<trkpt lat="27.411578" lon="98.825613">
<time>2014-08-05T03:16:33Z</time></trkpt>
<trkpt lat="27.411698" lon="98.825533">
<time>2014-08-05T03:16:34Z</time></trkpt>
<trkpt lat="27.411937" lon="98.825392">
<time>2014-08-05T03:16:35Z</time></trkpt>
<trkpt lat="27.411967" lon="98.825382">
<time>2014-08-05T03:16:36Z</time></trkpt>
<trkpt lat="27.412057" lon="98.825352">
<time>2014-08-05T03:16:37Z</time></trkpt>
<trkpt lat="27.412137" lon="98.825332">
<time>2014-08-05T03:16:38Z</time></trkpt>
<trkpt lat="27.412227" lon="98.825312">
<time>2014-08-05T03:16:39Z</time></trkpt>
<trkpt lat="27.412377" lon="98.825292">
<time>2014-08-05T03:16:40Z</time></trkpt>
<trkpt lat="27.412707" lon="98.825262">
<time>2014-08-05T03:16:41Z</time></trkpt>
<trkpt lat="27.413127" lon="98.825202">
<time>2014-08-05T03:16:42Z</time></trkpt>
<trkpt lat="27.413447" lon="98.825152">
<time>2014-08-05T03:16:43Z</time></trkpt>
<trkpt lat="27.413667" lon="98.825122">
<time>2014-08-05T03:16:44Z</time></trkpt>
<trkpt lat="27.413717" lon="98.825112">
<time>2014-08-05T03:16:45Z</time></trkpt>
<trkpt lat="27.413757" lon="98.825092">
<time>2014-08-05T03:16:46Z</time></trkpt>
<trkpt lat="27.413816" lon="98.825072">
<time>2014-08-05T03:16:47Z</time></trkpt>
<trkpt lat="27.413866" lon="98.825052">
<time>2014-08-05T03:16:48Z</time></trkpt>
<trkpt lat="27.413876" lon="98.825042">
<time>2014-08-05T03:16:49Z</time></trkpt>
<trkpt lat="27.414286" lon="98.824802">
<time>2014-08-05T03:16:50Z</time></trkpt>
<trkpt lat="27.414895" lon="98.824501">
<time>2014-08-05T03:16:51Z</time></trkpt>
<trkpt lat="27.415515" lon="98.824171">
<time>2014-08-05T03:16:52Z</time></trkpt>
<trkpt lat="27.416104" lon="98.82386">
<time>2014-08-05T03:16:53Z</time></trkpt>
<trkpt lat="27.416434" lon="98.82369">
<time>2014-08-05T03:16:54Z</time></trkpt>
<trkpt lat="27.416683" lon="98.82356">
<time>2014-08-05T03:16:55Z</time></trkpt>
<trkpt lat="27.417133" lon="98.823339">
<time>2014-08-05T03:16:56Z</time></trkpt>
<trkpt lat="27.417502" lon="98.823129">
<time>2014-08-05T03:16:57Z</time></trkpt>
<trkpt lat="27.417822" lon="98.822909">
<time>2014-08-05T03:16:58Z</time></trkpt>
<trkpt lat="27.418032" lon="98.822739">
<time>2014-08-05T03:16:59Z</time></trkpt>
<trkpt lat="27.418121" lon="98.822679">
<time>2014-08-05T03:17:00Z</time></trkpt>
<trkpt lat="27.418241" lon="98.822629">
<time>2014-08-05T03:17:01Z</time></trkpt>
<trkpt lat="27.418911" lon="98.822488">
<time>2014-08-05T03:17:02Z</time></trkpt>
<trkpt lat="27.419111" lon="98.822468">
<time>2014-08-05T03:17:03Z</time></trkpt>
<trkpt lat="27.419221" lon="98.822448">
<time>2014-08-05T03:17:04Z</time></trkpt>
<trkpt lat="27.419331" lon="98.822418">
<time>2014-08-05T03:17:05Z</time></trkpt>
<trkpt lat="27.419501" lon="98.822338">
<time>2014-08-05T03:17:06Z</time></trkpt>
<trkpt lat="27.419571" lon="98.822318">
<time>2014-08-05T03:17:07Z</time></trkpt>
<trkpt lat="27.419671" lon="98.822298">
<time>2014-08-05T03:17:08Z</time></trkpt>
<trkpt lat="27.419831" lon="98.822288">
<time>2014-08-05T03:17:09Z</time></trkpt>
<trkpt lat="27.419991" lon="98.822278">
<time>2014-08-05T03:17:10Z</time></trkpt>
<trkpt lat="27.42014" lon="98.822258">
<time>2014-08-05T03:17:11Z</time></trkpt>
<trkpt lat="27.42025" lon="98.822238">
<time>2014-08-05T03:17:12Z</time></trkpt>
<trkpt lat="27.4206" lon="98.822168">
<time>2014-08-05T03:17:13Z</time></trkpt>
<trkpt lat="27.42069" lon="98.822178">
<time>2014-08-05T03:17:14Z</time></trkpt>
<trkpt lat="27.42086" lon="98.822198">
<time>2014-08-05T03:17:15Z</time></trkpt>
<trkpt lat="27.42098" lon="98.822228">
<time>2014-08-05T03:17:16Z</time></trkpt>
<trkpt lat="27.42109" lon="98.822238">
<time>2014-08-05T03:17:17Z</time></trkpt>
<trkpt lat="27.42122" lon="98.822238">
<time>2014-08-05T03:17:18Z</time></trkpt>
<trkpt lat="27.42151" lon="98.822228">
<time>2014-08-05T03:17:19Z</time></trkpt>
<trkpt lat="27.42195" lon="98.822178">
<time>2014-08-05T03:17:20Z</time></trkpt>
<trkpt lat="27.42198" lon="98.822168">
<time>2014-08-05T03:17:21Z</time></trkpt>
<trkpt lat="27.422" lon="98.822158">
<time>2014-08-05T03:17:22Z</time></trkpt>
<trkpt lat="27.42202" lon="98.822148">
<time>2014-08-05T03:17:23Z</time></trkpt>
<trkpt lat="27.42205" lon="98.822128">
<time>2014-08-05T03:17:24Z</time></trkpt>
<trkpt lat="27.42216" lon="98.822008">
<time>2014-08-05T03:17:25Z</time></trkpt>
<trkpt lat="27.42223" lon="98.821948">
<time>2014-08-05T03:17:26Z</time></trkpt>
<trkpt lat="27.42231" lon="98.821897">
<time>2014-08-05T03:17:27Z</time></trkpt>
<trkpt lat="27.422389" lon="98.821867">
<time>2014-08-05T03:17:28Z</time></trkpt>
<trkpt lat="27.422509" lon="98.821837">
<time>2014-08-05T03:17:29Z</time></trkpt>
<trkpt lat="27.422669" lon="98.821797">
<time>2014-08-05T03:17:30Z</time></trkpt>
<trkpt lat="27.422969" lon="98.821757">
<time>2014-08-05T03:17:31Z</time></trkpt>
<trkpt lat="27.423119" lon="98.821717">
<time>2014-08-05T03:17:32Z</time></trkpt>
<trkpt lat="27.423349" lon="98.821647">
<time>2014-08-05T03:17:33Z</time></trkpt>
<trkpt lat="27.423559" lon="98.821597">
<time>2014-08-05T03:17:34Z</time></trkpt>
<trkpt lat="27.423729" lon="98.821537">
<time>2014-08-05T03:17:35Z</time></trkpt>
<trkpt lat="27.423859" lon="98.821477">
<time>2014-08-05T03:17:36Z</time></trkpt>
<trkpt lat="27.423978" lon="98.821377">
<time>2014-08-05T03:17:37Z</time></trkpt>
<trkpt lat="27.424108" lon="98.821297">
<time>2014-08-05T03:17:38Z</time></trkpt>
<trkpt lat="27.424238" lon="98.821237">
<time>2014-08-05T03:17:39Z</time></trkpt>
<trkpt lat="27.424378" lon="98.821187">
<time>2014-08-05T03:17:40Z</time></trkpt>
<trkpt lat="27.424538" lon="98.821116">
<time>2014-08-05T03:17:41Z</time></trkpt>
<trkpt lat="27.424997" lon="98.820906">
<time>2014-08-05T03:17:42Z</time></trkpt>
<trkpt lat="27.425227" lon="98.820826">
<time>2014-08-05T03:17:43Z</time></trkpt>
<trkpt lat="27.425607" lon="98.820706">
<time>2014-08-05T03:17:44Z</time></trkpt>
<trkpt lat="27.425887" lon="98.820596">
<time>2014-08-05T03:17:45Z</time></trkpt>
<trkpt lat="27.426166" lon="98.820456">
<time>2014-08-05T03:17:46Z</time></trkpt>
<trkpt lat="27.426416" lon="98.820335">
<time>2014-08-05T03:17:47Z</time></trkpt>
<trkpt lat="27.426696" lon="98.820185">
<time>2014-08-05T03:17:48Z</time></trkpt>
<trkpt lat="27.426856" lon="98.820095">
<time>2014-08-05T03:17:49Z</time></trkpt>
<trkpt lat="27.427015" lon="98.819965">
<time>2014-08-05T03:17:50Z</time></trkpt>
<trkpt lat="27.427325" lon="98.819704">
<time>2014-08-05T03:17:51Z</time></trkpt>
<trkpt lat="27.427525" lon="98.819554">
<time>2014-08-05T03:17:52Z</time></trkpt>
<trkpt lat="27.427704" lon="98.819424">
<time>2014-08-05T03:17:53Z</time></trkpt>
<trkpt lat="27.427934" lon="98.819284">
<time>2014-08-05T03:17:54Z</time></trkpt>
<trkpt lat="27.428044" lon="98.819224">
<time>2014-08-05T03:17:55Z</time></trkpt>
<trkpt lat="27.428244" lon="98.819134">
<time>2014-08-05T03:17:56Z</time></trkpt>
<trkpt lat="27.428554" lon="98.819034">
<time>2014-08-05T03:17:57Z</time></trkpt>
<trkpt lat="27.428873" lon="98.818893">
<time>2014-08-05T03:17:58Z</time></trkpt>
<trkpt lat="27.429213" lon="98.818713">
<time>2014-08-05T03:17:59Z</time></trkpt>
<trkpt lat="27.429702" lon="98.818443">
<time>2014-08-05T03:18:00Z</time></trkpt>
<trkpt lat="27.430002" lon="98.818273">
<time>2014-08-05T03:18:01Z</time></trkpt>
<trkpt lat="27.430252" lon="98.818132">
<time>2014-08-05T03:18:02Z</time></trkpt>
<trkpt lat="27.430561" lon="98.818002">
<time>2014-08-05T03:18:03Z</time></trkpt>
<trkpt lat="27.430901" lon="98.817872">
<time>2014-08-05T03:18:04Z</time></trkpt>
<trkpt lat="27.431261" lon="98.817742">
<time>2014-08-05T03:18:05Z</time></trkpt>
<trkpt lat="27.431541" lon="98.817622">
<time>2014-08-05T03:18:06Z</time></trkpt>
<trkpt lat="27.4318" lon="98.817532">
<time>2014-08-05T03:18:07Z</time></trkpt>
<trkpt lat="27.43195" lon="98.817492">
<time>2014-08-05T03:18:08Z</time></trkpt>
<trkpt lat="27.43207" lon="98.817471">
<time>2014-08-05T03:18:09Z</time></trkpt>
<trkpt lat="27.43241" lon="98.817431">
<time>2014-08-05T03:18:10Z</time></trkpt>
<trkpt lat="27.43285" lon="98.817391">
<time>2014-08-05T03:18:11Z</time></trkpt>
<trkpt lat="27.4333" lon="98.817351">
<time>2014-08-05T03:18:12Z</time></trkpt>
<trkpt lat="27.43365" lon="98.817361">
<time>2014-08-05T03:18:13Z</time></trkpt>
<trkpt lat="27.43376" lon="98.817371">
<time>2014-08-05T03:18:14Z</time></trkpt>
<trkpt lat="27.43396" lon="98.817361">
<time>2014-08-05T03:18:15Z</time></trkpt>
<trkpt lat="27.4341" lon="98.817341">
<time>2014-08-05T03:18:16Z</time></trkpt>
<trkpt lat="27.43416" lon="98.817331">
<time>2014-08-05T03:18:17Z</time></trkpt>
<trkpt lat="27.43421" lon="98.817311">
<time>2014-08-05T03:18:18Z</time></trkpt>
<trkpt lat="27.43433" lon="98.817271">
<time>2014-08-05T03:18:19Z</time></trkpt>
<trkpt lat="27.4345" lon="98.817191">
<time>2014-08-05T03:18:20Z</time></trkpt>
<trkpt lat="27.434639" lon="98.817131">
<time>2014-08-05T03:18:21Z</time></trkpt>
<trkpt lat="27.434729" lon="98.817101">
<time>2014-08-05T03:18:22Z</time></trkpt>
<trkpt lat="27.434809" lon="98.817081">
<time>2014-08-05T03:18:23Z</time></trkpt>
<trkpt lat="27.434959" lon="98.817071">
<time>2014-08-05T03:18:24Z</time></trkpt>
<trkpt lat="27.435369" lon="98.817091">
<time>2014-08-05T03:18:25Z</time></trkpt>
<trkpt lat="27.436039" lon="98.817131">
<time>2014-08-05T03:18:26Z</time></trkpt>
<trkpt lat="27.436509" lon="98.817161">
<time>2014-08-05T03:18:27Z</time></trkpt>
<trkpt lat="27.436669" lon="98.817151">
<time>2014-08-05T03:18:28Z</time></trkpt>
<trkpt lat="27.436809" lon="98.817121">
<time>2014-08-05T03:18:29Z</time></trkpt>
<trkpt lat="27.436899" lon="98.817091">
<time>2014-08-05T03:18:30Z</time></trkpt>
<trkpt lat="27.436989" lon="98.817071">
<time>2014-08-05T03:18:31Z</time></trkpt>
<trkpt lat="27.437099" lon="98.817051">
<time>2014-08-05T03:18:32Z</time></trkpt>
<trkpt lat="27.437209" lon="98.817041">
<time>2014-08-05T03:18:33Z</time></trkpt>
<trkpt lat="27.437969" lon="98.817041">
<time>2014-08-05T03:18:34Z</time></trkpt>
<trkpt lat="27.438099" lon="98.817021">
<time>2014-08-05T03:18:35Z</time></trkpt>
<trkpt lat="27.438189" lon="98.816991">
<time>2014-08-05T03:18:36Z</time></trkpt>
<trkpt lat="27.438259" lon="98.816951">
<time>2014-08-05T03:18:37Z</time></trkpt>
<trkpt lat="27.438349" lon="98.816891">
<time>2014-08-05T03:18:38Z</time></trkpt>
<trkpt lat="27.438638" lon="98.81662">
<time>2014-08-05T03:18:39Z</time></trkpt>
<trkpt lat="27.438768" lon="98.81651">
<time>2014-08-05T03:18:40Z</time></trkpt>
<trkpt lat="27.438778" lon="98.8165">
<time>2014-08-05T03:18:41Z</time></trkpt>
<trkpt lat="27.438798" lon="98.8165">
<time>2014-08-05T03:18:42Z</time></trkpt>
<trkpt lat="27.438868" lon="98.81647">
<time>2014-08-05T03:18:43Z</time></trkpt>
<trkpt lat="27.438948" lon="98.81644">
<time>2014-08-05T03:18:44Z</time></trkpt>
<trkpt lat="27.439028" lon="98.81644">
<time>2014-08-05T03:18:45Z</time></trkpt>
<trkpt lat="27.439068" lon="98.81644">
<time>2014-08-05T03:18:46Z</time></trkpt>
<trkpt lat="27.439108" lon="98.81644">
<time>2014-08-05T03:18:47Z</time></trkpt>
<trkpt lat="27.439118" lon="98.81644">
<time>2014-08-05T03:18:48Z</time></trkpt>
<trkpt lat="27.439148" lon="98.81645">
<time>2014-08-05T03:18:49Z</time></trkpt>
<trkpt lat="27.439178" lon="98.81646">
<time>2014-08-05T03:18:50Z</time></trkpt>
<trkpt lat="27.439588" lon="98.81663">
<time>2014-08-05T03:18:51Z</time></trkpt>
<trkpt lat="27.439798" lon="98.81672">
<time>2014-08-05T03:18:52Z</time></trkpt>
<trkpt lat="27.439988" lon="98.816841">
<time>2014-08-05T03:18:53Z</time></trkpt>
<trkpt lat="27.440159" lon="98.817001">
<time>2014-08-05T03:18:54Z</time></trkpt>
<trkpt lat="27.440289" lon="98.817141">
<time>2014-08-05T03:18:55Z</time></trkpt>
<trkpt lat="27.440339" lon="98.817231">
<time>2014-08-05T03:18:56Z</time></trkpt>
<trkpt lat="27.440399" lon="98.817351">
<time>2014-08-05T03:18:57Z</time></trkpt>
<trkpt lat="27.4405" lon="98.817591">
<time>2014-08-05T03:18:58Z</time></trkpt>
<trkpt lat="27.44063" lon="98.817832">
<time>2014-08-05T03:18:59Z</time></trkpt>
<trkpt lat="27.44077" lon="98.818012">
<time>2014-08-05T03:19:00Z</time></trkpt>
<trkpt lat="27.440881" lon="98.818112">
<time>2014-08-05T03:19:01Z</time></trkpt>
<trkpt lat="27.441061" lon="98.818252">
<time>2014-08-05T03:19:02Z</time></trkpt>
<trkpt lat="27.441201" lon="98.818372">
<time>2014-08-05T03:19:03Z</time></trkpt>
<trkpt lat="27.441331" lon="98.818493">
<time>2014-08-05T03:19:04Z</time></trkpt>
<trkpt lat="27.441612" lon="98.818853">
<time>2014-08-05T03:19:05Z</time></trkpt>
<trkpt lat="27.441662" lon="98.818903">
<time>2014-08-05T03:19:06Z</time></trkpt>
<trkpt lat="27.441682" lon="98.818923">
<time>2014-08-05T03:19:07Z</time></trkpt>
<trkpt lat="27.441702" lon="98.818933">
<time>2014-08-05T03:19:08Z</time></trkpt>
<trkpt lat="27.441712" lon="98.818943">
<time>2014-08-05T03:19:09Z</time></trkpt>
<trkpt lat="27.441732" lon="98.818963">
<time>2014-08-05T03:19:10Z</time></trkpt>
<trkpt lat="27.441842" lon="98.819013">
<time>2014-08-05T03:19:11Z</time></trkpt>
<trkpt lat="27.441962" lon="98.819083">
<time>2014-08-05T03:19:12Z</time></trkpt>
<trkpt lat="27.442072" lon="98.819143">
<time>2014-08-05T03:19:13Z</time></trkpt>
<trkpt lat="27.442082" lon="98.819153">
<time>2014-08-05T03:19:14Z</time></trkpt>
<trkpt lat="27.442082" lon="98.819164">
<time>2014-08-05T03:19:15Z</time></trkpt>
<trkpt lat="27.442133" lon="98.819204">
<time>2014-08-05T03:19:16Z</time></trkpt>
<trkpt lat="27.442163" lon="98.819224">
<time>2014-08-05T03:19:17Z</time></trkpt>
<trkpt lat="27.442173" lon="98.819244">
<time>2014-08-05T03:19:18Z</time></trkpt>
<trkpt lat="27.442193" lon="98.819264">
<time>2014-08-05T03:19:19Z</time></trkpt>
<trkpt lat="27.442253" lon="98.819384">
<time>2014-08-05T03:19:20Z</time></trkpt>
<trkpt lat="27.442273" lon="98.819444">
<time>2014-08-05T03:19:21Z</time></trkpt>
<trkpt lat="27.442293" lon="98.819534">
<time>2014-08-05T03:19:22Z</time></trkpt>
<trkpt lat="27.442304" lon="98.819774">
<time>2014-08-05T03:19:23Z</time></trkpt>
<trkpt lat="27.442314" lon="98.819844">
<time>2014-08-05T03:19:24Z</time></trkpt>
<trkpt lat="27.442324" lon="98.819914">
<time>2014-08-05T03:19:25Z</time></trkpt>
<trkpt lat="27.442334" lon="98.819914">
<time>2014-08-05T03:19:26Z</time></trkpt>
<trkpt lat="27.442364" lon="98.819985">
<time>2014-08-05T03:19:27Z</time></trkpt>
<trkpt lat="27.442414" lon="98.820085">
<time>2014-08-05T03:19:28Z</time></trkpt>
<trkpt lat="27.442585" lon="98.820385">
<time>2014-08-05T03:19:29Z</time></trkpt>
<trkpt lat="27.442675" lon="98.820625">
<time>2014-08-05T03:19:30Z</time></trkpt>
<trkpt lat="27.442695" lon="98.820746">
<time>2014-08-05T03:19:31Z</time></trkpt>
<trkpt lat="27.442736" lon="98.821246">
<time>2014-08-05T03:19:32Z</time></trkpt>
<trkpt lat="27.442736" lon="98.821256">
<time>2014-08-05T03:19:33Z</time></trkpt>
<trkpt lat="27.442736" lon="98.821276">
<time>2014-08-05T03:19:34Z</time></trkpt>
<trkpt lat="27.442736" lon="98.821306">
<time>2014-08-05T03:19:35Z</time></trkpt>
<trkpt lat="27.442726" lon="98.821336">
<time>2014-08-05T03:19:36Z</time></trkpt>
<trkpt lat="27.442727" lon="98.821366">
<time>2014-08-05T03:19:37Z</time></trkpt>
<trkpt lat="27.442647" lon="98.821587">
<time>2014-08-05T03:19:38Z</time></trkpt>
<trkpt lat="27.442637" lon="98.821637">
<time>2014-08-05T03:19:39Z</time></trkpt>
<trkpt lat="27.442627" lon="98.821667">
<time>2014-08-05T03:19:40Z</time></trkpt>
<trkpt lat="27.442627" lon="98.821677">
<time>2014-08-05T03:19:41Z</time></trkpt>
<trkpt lat="27.442627" lon="98.821687">
<time>2014-08-05T03:19:42Z</time></trkpt>
<trkpt lat="27.442617" lon="98.821707">
<time>2014-08-05T03:19:43Z</time></trkpt>
<trkpt lat="27.442617" lon="98.821717">
<time>2014-08-05T03:19:44Z</time></trkpt>
<trkpt lat="27.442627" lon="98.821737">
<time>2014-08-05T03:19:45Z</time></trkpt>
<trkpt lat="27.442627" lon="98.821757">
<time>2014-08-05T03:19:46Z</time></trkpt>
<trkpt lat="27.442637" lon="98.821787">
<time>2014-08-05T03:19:47Z</time></trkpt>
<trkpt lat="27.442647" lon="98.821827">
<time>2014-08-05T03:19:48Z</time></trkpt>
<trkpt lat="27.442667" lon="98.821867">
<time>2014-08-05T03:19:49Z</time></trkpt>
<trkpt lat="27.442768" lon="98.822037">
<time>2014-08-05T03:19:50Z</time></trkpt>
<trkpt lat="27.442868" lon="98.822208">
<time>2014-08-05T03:19:51Z</time></trkpt>
<trkpt lat="27.442868" lon="98.822218">
<time>2014-08-05T03:19:52Z</time></trkpt>
<trkpt lat="27.442898" lon="98.822318">
<time>2014-08-05T03:19:53Z</time></trkpt>
<trkpt lat="27.442908" lon="98.822388">
<time>2014-08-05T03:19:54Z</time></trkpt>
<trkpt lat="27.442908" lon="98.822398">
<time>2014-08-05T03:19:55Z</time></trkpt>
<trkpt lat="27.442908" lon="98.822408">
<time>2014-08-05T03:19:56Z</time></trkpt>
<trkpt lat="27.442909" lon="98.822458">
<time>2014-08-05T03:19:57Z</time></trkpt>
<trkpt lat="27.442909" lon="98.822508">
<time>2014-08-05T03:19:58Z</time></trkpt>
<trkpt lat="27.442839" lon="98.822788">
<time>2014-08-05T03:19:59Z</time></trkpt>
<trkpt lat="27.4428" lon="98.823039">
<time>2014-08-05T03:20:00Z</time></trkpt>
<trkpt lat="27.44277" lon="98.823309">
<time>2014-08-05T03:20:01Z</time></trkpt>
<trkpt lat="27.44276" lon="98.823469">
<time>2014-08-05T03:20:02Z</time></trkpt>
<trkpt lat="27.442771" lon="98.82369">
<time>2014-08-05T03:20:03Z</time></trkpt>
<trkpt lat="27.442771" lon="98.82381">
<time>2014-08-05T03:20:04Z</time></trkpt>
<trkpt lat="27.442822" lon="98.82405">
<time>2014-08-05T03:20:05Z</time></trkpt>
<trkpt lat="27.442882" lon="98.82436">
<time>2014-08-05T03:20:06Z</time></trkpt>
<trkpt lat="27.442892" lon="98.82443">
<time>2014-08-05T03:20:07Z</time></trkpt>
<trkpt lat="27.442892" lon="98.824451">
<time>2014-08-05T03:20:08Z</time></trkpt>
<trkpt lat="27.442882" lon="98.824471">
<time>2014-08-05T03:20:09Z</time></trkpt>
<trkpt lat="27.442872" lon="98.824551">
<time>2014-08-05T03:20:10Z</time></trkpt>
<trkpt lat="27.442843" lon="98.824631">
<time>2014-08-05T03:20:11Z</time></trkpt>
<trkpt lat="27.442783" lon="98.824851">
<time>2014-08-05T03:20:12Z</time></trkpt>
<trkpt lat="27.442783" lon="98.824911">
<time>2014-08-05T03:20:13Z</time></trkpt>
<trkpt lat="27.442783" lon="98.824971">
<time>2014-08-05T03:20:14Z</time></trkpt>
<trkpt lat="27.442793" lon="98.825021">
<time>2014-08-05T03:20:15Z</time></trkpt>
<trkpt lat="27.442803" lon="98.825061">
<time>2014-08-05T03:20:16Z</time></trkpt>
<trkpt lat="27.442824" lon="98.825151">
<time>2014-08-05T03:20:17Z</time></trkpt>
<trkpt lat="27.442934" lon="98.825452">
<time>2014-08-05T03:20:18Z</time></trkpt>
<trkpt lat="27.442985" lon="98.825682">
<time>2014-08-05T03:20:19Z</time></trkpt>
<trkpt lat="27.443045" lon="98.825922">
<time>2014-08-05T03:20:20Z</time></trkpt>
<trkpt lat="27.443105" lon="98.826063">
<time>2014-08-05T03:20:21Z</time></trkpt>
<trkpt lat="27.443186" lon="98.826223">
<time>2014-08-05T03:20:22Z</time></trkpt>
<trkpt lat="27.443276" lon="98.826353">
<time>2014-08-05T03:20:23Z</time></trkpt>
<trkpt lat="27.443516" lon="98.826683">
<time>2014-08-05T03:20:24Z</time></trkpt>
<trkpt lat="27.443577" lon="98.826794">
<time>2014-08-05T03:20:25Z</time></trkpt>
<trkpt lat="27.443587" lon="98.826814">
<time>2014-08-05T03:20:26Z</time></trkpt>
<trkpt lat="27.443607" lon="98.826844">
<time>2014-08-05T03:20:27Z</time></trkpt>
<trkpt lat="27.443617" lon="98.826884">
<time>2014-08-05T03:20:28Z</time></trkpt>
<trkpt lat="27.443627" lon="98.826914">
<time>2014-08-05T03:20:29Z</time></trkpt>
<trkpt lat="27.443627" lon="98.826944">
<time>2014-08-05T03:20:30Z</time></trkpt>
<trkpt lat="27.443627" lon="98.826954">
<time>2014-08-05T03:20:31Z</time></trkpt>
<trkpt lat="27.443637" lon="98.827204">
<time>2014-08-05T03:20:32Z</time></trkpt>
<trkpt lat="27.443678" lon="98.827455">
<time>2014-08-05T03:20:33Z</time></trkpt>
<trkpt lat="27.443799" lon="98.827885">
<time>2014-08-05T03:20:34Z</time></trkpt>
<trkpt lat="27.444" lon="98.828516">
<time>2014-08-05T03:20:35Z</time></trkpt>
<trkpt lat="27.44405" lon="98.828666">
<time>2014-08-05T03:20:36Z</time></trkpt>
<trkpt lat="27.44413" lon="98.828846">
<time>2014-08-05T03:20:37Z</time></trkpt>
<trkpt lat="27.444201" lon="98.828977">
<time>2014-08-05T03:20:38Z</time></trkpt>
<trkpt lat="27.444361" lon="98.829237">
<time>2014-08-05T03:20:39Z</time></trkpt>
<trkpt lat="27.444722" lon="98.829858">
<time>2014-08-05T03:20:40Z</time></trkpt>
<trkpt lat="27.445104" lon="98.830529">
<time>2014-08-05T03:20:41Z</time></trkpt>
<trkpt lat="27.445204" lon="98.830709">
<time>2014-08-05T03:20:42Z</time></trkpt>
<trkpt lat="27.445324" lon="98.830879">
<time>2014-08-05T03:20:43Z</time></trkpt>
<trkpt lat="27.445555" lon="98.831179">
<time>2014-08-05T03:20:44Z</time></trkpt>
<trkpt lat="27.445695" lon="98.83136">
<time>2014-08-05T03:20:45Z</time></trkpt>
<trkpt lat="27.445785" lon="98.83152">
<time>2014-08-05T03:20:46Z</time></trkpt>
<trkpt lat="27.445886" lon="98.83174">
<time>2014-08-05T03:20:47Z</time></trkpt>
<trkpt lat="27.445986" lon="98.83191">
<time>2014-08-05T03:20:48Z</time></trkpt>
<trkpt lat="27.446156" lon="98.832121">
<time>2014-08-05T03:20:49Z</time></trkpt>
<trkpt lat="27.446287" lon="98.832321">
<time>2014-08-05T03:20:50Z</time></trkpt>
<trkpt lat="27.446578" lon="98.832842">
<time>2014-08-05T03:20:51Z</time></trkpt>
<trkpt lat="27.446889" lon="98.833272">
<time>2014-08-05T03:20:52Z</time></trkpt>
<trkpt lat="27.447039" lon="98.833462">
<time>2014-08-05T03:20:53Z</time></trkpt>
<trkpt lat="27.447189" lon="98.833593">
<time>2014-08-05T03:20:54Z</time></trkpt>
<trkpt lat="27.447459" lon="98.833803">
<time>2014-08-05T03:20:55Z</time></trkpt>
<trkpt lat="27.44793" lon="98.834113">
<time>2014-08-05T03:20:56Z</time></trkpt>
<trkpt lat="27.44826" lon="98.834364">
<time>2014-08-05T03:20:57Z</time></trkpt>
<trkpt lat="27.448481" lon="98.834564">
<time>2014-08-05T03:20:58Z</time></trkpt>
<trkpt lat="27.448551" lon="98.834614">
<time>2014-08-05T03:20:59Z</time></trkpt>
<trkpt lat="27.448601" lon="98.834654">
<time>2014-08-05T03:21:00Z</time></trkpt>
<trkpt lat="27.448661" lon="98.834694">
<time>2014-08-05T03:21:01Z</time></trkpt>
<trkpt lat="27.448741" lon="98.834734">
<time>2014-08-05T03:21:02Z</time></trkpt>
<trkpt lat="27.449111" lon="98.834904">
<time>2014-08-05T03:21:03Z</time></trkpt>
<trkpt lat="27.449312" lon="98.834994">
<time>2014-08-05T03:21:04Z</time></trkpt>
<trkpt lat="27.449362" lon="98.835014">
<time>2014-08-05T03:21:05Z</time></trkpt>
<trkpt lat="27.449412" lon="98.835024">
<time>2014-08-05T03:21:06Z</time></trkpt>
<trkpt lat="27.449452" lon="98.835035">
<time>2014-08-05T03:21:07Z</time></trkpt>
<trkpt lat="27.449502" lon="98.835045">
<time>2014-08-05T03:21:08Z</time></trkpt>
<trkpt lat="27.449562" lon="98.835055">
<time>2014-08-05T03:21:09Z</time></trkpt>
<trkpt lat="27.449792" lon="98.835075">
<time>2014-08-05T03:21:10Z</time></trkpt>
<trkpt lat="27.449852" lon="98.835085">
<time>2014-08-05T03:21:11Z</time></trkpt>
<trkpt lat="27.449902" lon="98.835095">
<time>2014-08-05T03:21:12Z</time></trkpt>
<trkpt lat="27.449952" lon="98.835105">
<time>2014-08-05T03:21:13Z</time></trkpt>
<trkpt lat="27.450012" lon="98.835125">
<time>2014-08-05T03:21:14Z</time></trkpt>
<trkpt lat="27.450062" lon="98.835135">
<time>2014-08-05T03:21:15Z</time></trkpt>
<trkpt lat="27.450092" lon="98.835145">
<time>2014-08-05T03:21:16Z</time></trkpt>
<trkpt lat="27.450122" lon="98.835145">
<time>2014-08-05T03:21:17Z</time></trkpt>
<trkpt lat="27.450182" lon="98.835145">
<time>2014-08-05T03:21:18Z</time></trkpt>
<trkpt lat="27.450222" lon="98.835145">
<time>2014-08-05T03:21:19Z</time></trkpt>
<trkpt lat="27.450272" lon="98.835145">
<time>2014-08-05T03:21:20Z</time></trkpt>
<trkpt lat="27.450332" lon="98.835165">
<time>2014-08-05T03:21:21Z</time></trkpt>
<trkpt lat="27.450872" lon="98.835435">
<time>2014-08-05T03:21:22Z</time></trkpt>
<trkpt lat="27.450932" lon="98.835455">
<time>2014-08-05T03:21:23Z</time></trkpt>
<trkpt lat="27.451002" lon="98.835465">
<time>2014-08-05T03:21:24Z</time></trkpt>
<trkpt lat="27.451092" lon="98.835465">
<time>2014-08-05T03:21:25Z</time></trkpt>
<trkpt lat="27.451172" lon="98.835455">
<time>2014-08-05T03:21:26Z</time></trkpt>
<trkpt lat="27.451492" lon="98.835415">
<time>2014-08-05T03:21:27Z</time></trkpt>
<trkpt lat="27.452112" lon="98.835345">
<time>2014-08-05T03:21:28Z</time></trkpt>
<trkpt lat="27.452282" lon="98.835335">
<time>2014-08-05T03:21:29Z</time></trkpt>
<trkpt lat="27.452422" lon="98.835345">
<time>2014-08-05T03:21:30Z</time></trkpt>
<trkpt lat="27.452472" lon="98.835355">
<time>2014-08-05T03:21:31Z</time></trkpt>
<trkpt lat="27.452512" lon="98.835375">
<time>2014-08-05T03:21:32Z</time></trkpt>
<trkpt lat="27.452622" lon="98.835415">
<time>2014-08-05T03:21:33Z</time></trkpt>
<trkpt lat="27.452782" lon="98.835475">
<time>2014-08-05T03:21:34Z</time></trkpt>
<trkpt lat="27.453262" lon="98.835655">
<time>2014-08-05T03:21:35Z</time></trkpt>
<trkpt lat="27.453483" lon="98.835725">
<time>2014-08-05T03:21:36Z</time></trkpt>
<trkpt lat="27.453623" lon="98.835765">
<time>2014-08-05T03:21:37Z</time></trkpt>
<trkpt lat="27.453733" lon="98.835785">
<time>2014-08-05T03:21:38Z</time></trkpt>
<trkpt lat="27.453923" lon="98.835805">
<time>2014-08-05T03:21:39Z</time></trkpt>
<trkpt lat="27.454113" lon="98.835825">
<time>2014-08-05T03:21:40Z</time></trkpt>
<trkpt lat="27.454483" lon="98.835825">
<time>2014-08-05T03:21:41Z</time></trkpt>
<trkpt lat="27.455223" lon="98.835845">
<time>2014-08-05T03:21:42Z</time></trkpt>
<trkpt lat="27.455443" lon="98.835835">
<time>2014-08-05T03:21:43Z</time></trkpt>
<trkpt lat="27.455553" lon="98.835815">
<time>2014-08-05T03:21:44Z</time></trkpt>
<trkpt lat="27.455662" lon="98.835785">
<time>2014-08-05T03:21:45Z</time></trkpt>
<trkpt lat="27.455842" lon="98.835705">
<time>2014-08-05T03:21:46Z</time></trkpt>
<trkpt lat="27.456132" lon="98.835585">
<time>2014-08-05T03:21:47Z</time></trkpt>
<trkpt lat="27.456392" lon="98.835485">
<time>2014-08-05T03:21:48Z</time></trkpt>
<trkpt lat="27.456672" lon="98.835415">
<time>2014-08-05T03:21:49Z</time></trkpt>
<trkpt lat="27.457142" lon="98.835345">
<time>2014-08-05T03:21:50Z</time></trkpt>
<trkpt lat="27.457311" lon="98.835315">
<time>2014-08-05T03:21:51Z</time></trkpt>
<trkpt lat="27.457491" lon="98.835295">
<time>2014-08-05T03:21:52Z</time></trkpt>
<trkpt lat="27.457671" lon="98.835245">
<time>2014-08-05T03:21:53Z</time></trkpt>
<trkpt lat="27.457831" lon="98.835195">
<time>2014-08-05T03:21:54Z</time></trkpt>
<trkpt lat="27.457981" lon="98.835134">
<time>2014-08-05T03:21:55Z</time></trkpt>
<trkpt lat="27.458141" lon="98.835074">
<time>2014-08-05T03:21:56Z</time></trkpt>
<trkpt lat="27.458321" lon="98.835034">
<time>2014-08-05T03:21:57Z</time></trkpt>
<trkpt lat="27.458391" lon="98.835024">
<time>2014-08-05T03:21:58Z</time></trkpt>
<trkpt lat="27.458441" lon="98.835024">
<time>2014-08-05T03:21:59Z</time></trkpt>
<trkpt lat="27.458481" lon="98.835034">
<time>2014-08-05T03:22:00Z</time></trkpt>
<trkpt lat="27.458521" lon="98.835034">
<time>2014-08-05T03:22:01Z</time></trkpt>
<trkpt lat="27.458591" lon="98.835054">
<time>2014-08-05T03:22:02Z</time></trkpt>
<trkpt lat="27.458951" lon="98.835185">
<time>2014-08-05T03:22:03Z</time></trkpt>
<trkpt lat="27.459281" lon="98.835295">
<time>2014-08-05T03:22:04Z</time></trkpt>
<trkpt lat="27.459401" lon="98.835325">
<time>2014-08-05T03:22:05Z</time></trkpt>
<trkpt lat="27.459541" lon="98.835345">
<time>2014-08-05T03:22:06Z</time></trkpt>
<trkpt lat="27.459671" lon="98.835335">
<time>2014-08-05T03:22:07Z</time></trkpt>
<trkpt lat="27.459831" lon="98.835315">
<time>2014-08-05T03:22:08Z</time></trkpt>
<trkpt lat="27.460071" lon="98.835295">
<time>2014-08-05T03:22:09Z</time></trkpt>
<trkpt lat="27.460251" lon="98.835315">
<time>2014-08-05T03:22:10Z</time></trkpt>
<trkpt lat="27.460631" lon="98.835375">
<time>2014-08-05T03:22:11Z</time></trkpt>
<trkpt lat="27.461061" lon="98.835455">
<time>2014-08-05T03:22:12Z</time></trkpt>
<trkpt lat="27.461191" lon="98.835465">
<time>2014-08-05T03:22:13Z</time></trkpt>
<trkpt lat="27.461311" lon="98.835455">
<time>2014-08-05T03:22:14Z</time></trkpt>
<trkpt lat="27.461641" lon="98.835415">
<time>2014-08-05T03:22:15Z</time></trkpt>
<trkpt lat="27.461981" lon="98.835375">
<time>2014-08-05T03:22:16Z</time></trkpt>
<trkpt lat="27.462091" lon="98.835365">
<time>2014-08-05T03:22:17Z</time></trkpt>
<trkpt lat="27.462191" lon="98.835375">
<time>2014-08-05T03:22:18Z</time></trkpt>
<trkpt lat="27.462281" lon="98.835405">
<time>2014-08-05T03:22:19Z</time></trkpt>
<trkpt lat="27.462511" lon="98.835485">
<time>2014-08-05T03:22:20Z</time></trkpt>
<trkpt lat="27.463032" lon="98.835625">
<time>2014-08-05T03:22:21Z</time></trkpt>
<trkpt lat="27.463322" lon="98.835675">
<time>2014-08-05T03:22:22Z</time></trkpt>
<trkpt lat="27.463642" lon="98.835715">
<time>2014-08-05T03:22:23Z</time></trkpt>
<trkpt lat="27.463702" lon="98.835725">
<time>2014-08-05T03:22:24Z</time></trkpt>
<trkpt lat="27.463772" lon="98.835745">
<time>2014-08-05T03:22:25Z</time></trkpt>
<trkpt lat="27.463812" lon="98.835755">
<time>2014-08-05T03:22:26Z</time></trkpt>
<trkpt lat="27.464042" lon="98.835815">
<time>2014-08-05T03:22:27Z</time></trkpt>
<trkpt lat="27.464152" lon="98.835835">
<time>2014-08-05T03:22:28Z</time></trkpt>
<trkpt lat="27.464262" lon="98.835855">
<time>2014-08-05T03:22:29Z</time></trkpt>
<trkpt lat="27.464412" lon="98.835875">
<time>2014-08-05T03:22:30Z</time></trkpt>
<trkpt lat="27.464522" lon="98.835895">
<time>2014-08-05T03:22:31Z</time></trkpt>
<trkpt lat="27.464642" lon="98.835915">
<time>2014-08-05T03:22:32Z</time></trkpt>
<trkpt lat="27.464712" lon="98.835915">
<time>2014-08-05T03:22:33Z</time></trkpt>
<trkpt lat="27.464772" lon="98.835915">
<time>2014-08-05T03:22:34Z</time></trkpt>
<trkpt lat="27.464832" lon="98.835905">
<time>2014-08-05T03:22:35Z</time></trkpt>
<trkpt lat="27.464882" lon="98.835895">
<time>2014-08-05T03:22:36Z</time></trkpt>
<trkpt lat="27.464932" lon="98.835885">
<time>2014-08-05T03:22:37Z</time></trkpt>
<trkpt lat="27.464982" lon="98.835865">
<time>2014-08-05T03:22:38Z</time></trkpt>
<trkpt lat="27.465212" lon="98.835775">
<time>2014-08-05T03:22:39Z</time></trkpt>
<trkpt lat="27.465462" lon="98.835685">
<time>2014-08-05T03:22:40Z</time></trkpt>
<trkpt lat="27.465731" lon="98.835605">
<time>2014-08-05T03:22:41Z</time></trkpt>
<trkpt lat="27.466251" lon="98.835515">
<time>2014-08-05T03:22:42Z</time></trkpt>
<trkpt lat="27.466471" lon="98.835455">
<time>2014-08-05T03:22:43Z</time></trkpt>
<trkpt lat="27.466731" lon="98.835365">
<time>2014-08-05T03:22:44Z</time></trkpt>
<trkpt lat="27.466941" lon="98.835244">
<time>2014-08-05T03:22:45Z</time></trkpt>
<trkpt lat="27.46708" lon="98.835174">
<time>2014-08-05T03:22:46Z</time></trkpt>
<trkpt lat="27.46724" lon="98.835114">
<time>2014-08-05T03:22:47Z</time></trkpt>
<trkpt lat="27.46745" lon="98.835064">
<time>2014-08-05T03:22:48Z</time></trkpt>
<trkpt lat="27.46765" lon="98.835024">
<time>2014-08-05T03:22:49Z</time></trkpt>
<trkpt lat="27.46783" lon="98.834984">
<time>2014-08-05T03:22:50Z</time></trkpt>
<trkpt lat="27.46803" lon="98.834894">
<time>2014-08-05T03:22:51Z</time></trkpt>
<trkpt lat="27.46827" lon="98.834784">
<time>2014-08-05T03:22:52Z</time></trkpt>
<trkpt lat="27.468769" lon="98.834493">
<time>2014-08-05T03:22:53Z</time></trkpt>
<trkpt lat="27.468859" lon="98.834463">
<time>2014-08-05T03:22:54Z</time></trkpt>
<trkpt lat="27.468929" lon="98.834443">
<time>2014-08-05T03:22:55Z</time></trkpt>
<trkpt lat="27.468999" lon="98.834443">
<time>2014-08-05T03:22:56Z</time></trkpt>
<trkpt lat="27.469049" lon="98.834453">
<time>2014-08-05T03:22:57Z</time></trkpt>
<trkpt lat="27.469409" lon="98.834554">
<time>2014-08-05T03:22:58Z</time></trkpt>
<trkpt lat="27.469479" lon="98.834574">
<time>2014-08-05T03:22:59Z</time></trkpt>
<trkpt lat="27.469509" lon="98.834574">
<time>2014-08-05T03:23:00Z</time></trkpt>
<trkpt lat="27.469529" lon="98.834574">
<time>2014-08-05T03:23:01Z</time></trkpt>
<trkpt lat="27.469549" lon="98.834574">
<time>2014-08-05T03:23:02Z</time></trkpt>
<trkpt lat="27.469559" lon="98.834564">
<time>2014-08-05T03:23:03Z</time></trkpt>
<trkpt lat="27.469569" lon="98.834564">
<time>2014-08-05T03:23:04Z</time></trkpt>
<trkpt lat="27.469579" lon="98.834564">
<time>2014-08-05T03:23:05Z</time></trkpt>
<trkpt lat="27.469609" lon="98.834543">
<time>2014-08-05T03:23:06Z</time></trkpt>
<trkpt lat="27.469619" lon="98.834543">
<time>2014-08-05T03:23:07Z</time></trkpt>
<trkpt lat="27.469849" lon="98.834343">
<time>2014-08-05T03:23:08Z</time></trkpt>
<trkpt lat="27.470098" lon="98.834163">
<time>2014-08-05T03:23:09Z</time></trkpt>
<trkpt lat="27.470378" lon="98.833993">
<time>2014-08-05T03:23:10Z</time></trkpt>
<trkpt lat="27.470728" lon="98.833813">
<time>2014-08-05T03:23:11Z</time></trkpt>
<trkpt lat="27.471037" lon="98.833702">
<time>2014-08-05T03:23:12Z</time></trkpt>
<trkpt lat="27.471167" lon="98.833652">
<time>2014-08-05T03:23:13Z</time></trkpt>
<trkpt lat="27.471317" lon="98.833562">
<time>2014-08-05T03:23:14Z</time></trkpt>
<trkpt lat="27.471457" lon="98.833472">
<time>2014-08-05T03:23:15Z</time></trkpt>
<trkpt lat="27.471597" lon="98.833412">
<time>2014-08-05T03:23:16Z</time></trkpt>
<trkpt lat="27.471757" lon="98.833362">
<time>2014-08-05T03:23:17Z</time></trkpt>
<trkpt lat="27.471857" lon="98.833322">
<time>2014-08-05T03:23:18Z</time></trkpt>
<trkpt lat="27.472036" lon="98.833202">
<time>2014-08-05T03:23:19Z</time></trkpt>
<trkpt lat="27.472406" lon="98.832931">
<time>2014-08-05T03:23:20Z</time></trkpt>
<trkpt lat="27.472715" lon="98.832651">
<time>2014-08-05T03:23:21Z</time></trkpt>
<trkpt lat="27.472755" lon="98.832611">
<time>2014-08-05T03:23:22Z</time></trkpt>
<trkpt lat="27.472815" lon="98.832571">
<time>2014-08-05T03:23:23Z</time></trkpt>
<trkpt lat="27.472865" lon="98.832531">
<time>2014-08-05T03:23:24Z</time></trkpt>
<trkpt lat="27.472935" lon="98.832501">
<time>2014-08-05T03:23:25Z</time></trkpt>
<trkpt lat="27.473015" lon="98.832471">
<time>2014-08-05T03:23:26Z</time></trkpt>
<trkpt lat="27.473475" lon="98.832341">
<time>2014-08-05T03:23:27Z</time></trkpt>
<trkpt lat="27.473715" lon="98.83228">
<time>2014-08-05T03:23:28Z</time></trkpt>
<trkpt lat="27.473855" lon="98.83224">
<time>2014-08-05T03:23:29Z</time></trkpt>
<trkpt lat="27.473904" lon="98.83222">
<time>2014-08-05T03:23:30Z</time></trkpt>
<trkpt lat="27.473964" lon="98.83219">
<time>2014-08-05T03:23:31Z</time></trkpt>
<trkpt lat="27.474014" lon="98.83216">
<time>2014-08-05T03:23:32Z</time></trkpt>
<trkpt lat="27.474084" lon="98.83211">
<time>2014-08-05T03:23:33Z</time></trkpt>
<trkpt lat="27.474324" lon="98.83193">
<time>2014-08-05T03:23:34Z</time></trkpt>
<trkpt lat="27.474564" lon="98.83175">
<time>2014-08-05T03:23:35Z</time></trkpt>
<trkpt lat="27.474703" lon="98.83167">
<time>2014-08-05T03:23:36Z</time></trkpt>
<trkpt lat="27.474803" lon="98.83163">
<time>2014-08-05T03:23:37Z</time></trkpt>
<trkpt lat="27.475223" lon="98.831469">
<time>2014-08-05T03:23:38Z</time></trkpt>
<trkpt lat="27.475463" lon="98.831359">
<time>2014-08-05T03:23:39Z</time></trkpt>
<trkpt lat="27.475543" lon="98.831329">
<time>2014-08-05T03:23:40Z</time></trkpt>
<trkpt lat="27.475633" lon="98.831289">
<time>2014-08-05T03:23:41Z</time></trkpt>
<trkpt lat="27.475723" lon="98.831279">
<time>2014-08-05T03:23:42Z</time></trkpt>
<trkpt lat="27.475913" lon="98.831259">
<time>2014-08-05T03:23:43Z</time></trkpt>
<trkpt lat="27.476093" lon="98.831249">
<time>2014-08-05T03:23:44Z</time></trkpt>
<trkpt lat="27.476232" lon="98.831209">
<time>2014-08-05T03:23:45Z</time></trkpt>
<trkpt lat="27.476432" lon="98.831159">
<time>2014-08-05T03:23:46Z</time></trkpt>
<trkpt lat="27.476582" lon="98.831139">
<time>2014-08-05T03:23:47Z</time></trkpt>
<trkpt lat="27.476862" lon="98.831119">
<time>2014-08-05T03:23:48Z</time></trkpt>
<trkpt lat="27.476952" lon="98.831099">
<time>2014-08-05T03:23:49Z</time></trkpt>
<trkpt lat="27.477042" lon="98.831069">
<time>2014-08-05T03:23:50Z</time></trkpt>
<trkpt lat="27.477172" lon="98.830999">
<time>2014-08-05T03:23:51Z</time></trkpt>
<trkpt lat="27.477282" lon="98.830949">
<time>2014-08-05T03:23:52Z</time></trkpt>
<trkpt lat="27.477362" lon="98.830909">
<time>2014-08-05T03:23:53Z</time></trkpt>
<trkpt lat="27.477442" lon="98.830879">
<time>2014-08-05T03:23:54Z</time></trkpt>
<trkpt lat="27.477502" lon="98.830858">
<time>2014-08-05T03:23:55Z</time></trkpt>
<trkpt lat="27.477562" lon="98.830848">
<time>2014-08-05T03:23:56Z</time></trkpt>
<trkpt lat="27.477652" lon="98.830838">
<time>2014-08-05T03:23:57Z</time></trkpt>
<trkpt lat="27.477802" lon="98.830848">
<time>2014-08-05T03:23:58Z</time></trkpt>
<trkpt lat="27.477952" lon="98.830858">
<time>2014-08-05T03:23:59Z</time></trkpt>
<trkpt lat="27.478052" lon="98.830878">
<time>2014-08-05T03:24:00Z</time></trkpt>
<trkpt lat="27.478102" lon="98.830878">
<time>2014-08-05T03:24:01Z</time></trkpt>
<trkpt lat="27.478152" lon="98.830878">
<time>2014-08-05T03:24:02Z</time></trkpt>
<trkpt lat="27.478192" lon="98.830868">
<time>2014-08-05T03:24:03Z</time></trkpt>
<trkpt lat="27.478222" lon="98.830858">
<time>2014-08-05T03:24:04Z</time></trkpt>
<trkpt lat="27.478262" lon="98.830848">
<time>2014-08-05T03:24:05Z</time></trkpt>
<trkpt lat="27.478312" lon="98.830828">
<time>2014-08-05T03:24:06Z</time></trkpt>
<trkpt lat="27.478411" lon="98.830778">
<time>2014-08-05T03:24:07Z</time></trkpt>
<trkpt lat="27.478971" lon="98.830468">
<time>2014-08-05T03:24:08Z</time></trkpt>
<trkpt lat="27.479111" lon="98.830378">
<time>2014-08-05T03:24:09Z</time></trkpt>
<trkpt lat="27.479251" lon="98.830308">
<time>2014-08-05T03:24:10Z</time></trkpt>
<trkpt lat="27.47933" lon="98.830278">
<time>2014-08-05T03:24:11Z</time></trkpt>
<trkpt lat="27.47941" lon="98.830258">
<time>2014-08-05T03:24:12Z</time></trkpt>
<trkpt lat="27.47997" lon="98.830097">
<time>2014-08-05T03:24:13Z</time></trkpt>
<trkpt lat="27.48061" lon="98.829877">
<time>2014-08-05T03:24:14Z</time></trkpt>
<trkpt lat="27.48075" lon="98.829837">
<time>2014-08-05T03:24:15Z</time></trkpt>
<trkpt lat="27.48081" lon="98.829837">
<time>2014-08-05T03:24:16Z</time></trkpt>
<trkpt lat="27.48084" lon="98.829837">
<time>2014-08-05T03:24:17Z</time></trkpt>
<trkpt lat="27.48086" lon="98.829837">
<time>2014-08-05T03:24:18Z</time></trkpt>
<trkpt lat="27.4809" lon="98.829847">
<time>2014-08-05T03:24:19Z</time></trkpt>
<trkpt lat="27.48096" lon="98.829867">
<time>2014-08-05T03:24:20Z</time></trkpt>
<trkpt lat="27.48121" lon="98.829967">
<time>2014-08-05T03:24:21Z</time></trkpt>
<trkpt lat="27.48136" lon="98.830007">
<time>2014-08-05T03:24:22Z</time></trkpt>
<trkpt lat="27.48157" lon="98.830047">
<time>2014-08-05T03:24:23Z</time></trkpt>
<trkpt lat="27.48172" lon="98.830077">
<time>2014-08-05T03:24:24Z</time></trkpt>
<trkpt lat="27.48241" lon="98.830218">
<time>2014-08-05T03:24:25Z</time></trkpt>
<trkpt lat="27.483" lon="98.830398">
<time>2014-08-05T03:24:26Z</time></trkpt>
<trkpt lat="27.483271" lon="98.830468">
<time>2014-08-05T03:24:27Z</time></trkpt>
<trkpt lat="27.483451" lon="98.830518">
<time>2014-08-05T03:24:28Z</time></trkpt>
<trkpt lat="27.483661" lon="98.830578">
<time>2014-08-05T03:24:29Z</time></trkpt>
<trkpt lat="27.483851" lon="98.830638">
<time>2014-08-05T03:24:30Z</time></trkpt>
<trkpt lat="27.483911" lon="98.830668">
<time>2014-08-05T03:24:31Z</time></trkpt>
<trkpt lat="27.484001" lon="98.830728">
<time>2014-08-05T03:24:32Z</time></trkpt>
<trkpt lat="27.484101" lon="98.830818">
<time>2014-08-05T03:24:33Z</time></trkpt>
<trkpt lat="27.484342" lon="98.831129">
<time>2014-08-05T03:24:34Z</time></trkpt>
<trkpt lat="27.484382" lon="98.831169">
<time>2014-08-05T03:24:35Z</time></trkpt>
<trkpt lat="27.484432" lon="98.831209">
<time>2014-08-05T03:24:36Z</time></trkpt>
<trkpt lat="27.484652" lon="98.831359">
<time>2014-08-05T03:24:37Z</time></trkpt>
<trkpt lat="27.485013" lon="98.831579">
<time>2014-08-05T03:24:38Z</time></trkpt>
<trkpt lat="27.485123" lon="98.831629">
<time>2014-08-05T03:24:39Z</time></trkpt>
<trkpt lat="27.485293" lon="98.831689">
<time>2014-08-05T03:24:40Z</time></trkpt>
<trkpt lat="27.485473" lon="98.83174">
<time>2014-08-05T03:24:41Z</time></trkpt>
<trkpt lat="27.485613" lon="98.83178">
<time>2014-08-05T03:24:42Z</time></trkpt>
<trkpt lat="27.485743" lon="98.83183">
<time>2014-08-05T03:24:43Z</time></trkpt>
<trkpt lat="27.485903" lon="98.83191">
<time>2014-08-05T03:24:44Z</time></trkpt>
<trkpt lat="27.486314" lon="98.83215">
<time>2014-08-05T03:24:45Z</time></trkpt>
<trkpt lat="27.486434" lon="98.83222">
<time>2014-08-05T03:24:46Z</time></trkpt>
<trkpt lat="27.486544" lon="98.83227">
<time>2014-08-05T03:24:47Z</time></trkpt>
<trkpt lat="27.487885" lon="98.832761">
<time>2014-08-05T03:24:48Z</time></trkpt>
<trkpt lat="27.488065" lon="98.832811">
<time>2014-08-05T03:24:49Z</time></trkpt>
<trkpt lat="27.488205" lon="98.832831">
<time>2014-08-05T03:24:50Z</time></trkpt>
<trkpt lat="27.488335" lon="98.832851">
<time>2014-08-05T03:24:51Z</time></trkpt>
<trkpt lat="27.489045" lon="98.832851">
<time>2014-08-05T03:24:52Z</time></trkpt>
<trkpt lat="27.489225" lon="98.832841">
<time>2014-08-05T03:24:53Z</time></trkpt>
<trkpt lat="27.489265" lon="98.832841">
<time>2014-08-05T03:24:54Z</time></trkpt>
<trkpt lat="27.489315" lon="98.832831">
<time>2014-08-05T03:24:55Z</time></trkpt>
<trkpt lat="27.489395" lon="98.832791">
<time>2014-08-05T03:24:56Z</time></trkpt>
<trkpt lat="27.489624" lon="98.832651">
<time>2014-08-05T03:24:57Z</time></trkpt>
<trkpt lat="27.489694" lon="98.832621">
<time>2014-08-05T03:24:58Z</time></trkpt>
<trkpt lat="27.489764" lon="98.832611">
<time>2014-08-05T03:24:59Z</time></trkpt>
<trkpt lat="27.490034" lon="98.832601">
<time>2014-08-05T03:25:00Z</time></trkpt>
<trkpt lat="27.490394" lon="98.832591">
<time>2014-08-05T03:25:01Z</time></trkpt>
<trkpt lat="27.490834" lon="98.83253">
<time>2014-08-05T03:25:02Z</time></trkpt>
<trkpt lat="27.490904" lon="98.83251">
<time>2014-08-05T03:25:03Z</time></trkpt>
<trkpt lat="27.490954" lon="98.83249">
<time>2014-08-05T03:25:04Z</time></trkpt>
<trkpt lat="27.491254" lon="98.83233">
<time>2014-08-05T03:25:05Z</time></trkpt>
<trkpt lat="27.491493" lon="98.83222">
<time>2014-08-05T03:25:06Z</time></trkpt>
<trkpt lat="27.491613" lon="98.83219">
<time>2014-08-05T03:25:07Z</time></trkpt>
<trkpt lat="27.491643" lon="98.83219">
<time>2014-08-05T03:25:08Z</time></trkpt>
<trkpt lat="27.491663" lon="98.83219">
<time>2014-08-05T03:25:09Z</time></trkpt>
<trkpt lat="27.491713" lon="98.83219">
<time>2014-08-05T03:25:10Z</time></trkpt>
<trkpt lat="27.492193" lon="98.83225">
<time>2014-08-05T03:25:11Z</time></trkpt>
<trkpt lat="27.492544" lon="98.83229">
<time>2014-08-05T03:25:12Z</time></trkpt>
<trkpt lat="27.492804" lon="98.8323">
<time>2014-08-05T03:25:13Z</time></trkpt>
<trkpt lat="27.493174" lon="98.8323">
<time>2014-08-05T03:25:14Z</time></trkpt>
<trkpt lat="27.493223" lon="98.83229">
<time>2014-08-05T03:25:15Z</time></trkpt>
<trkpt lat="27.493273" lon="98.83228">
<time>2014-08-05T03:25:16Z</time></trkpt>
<trkpt lat="27.493393" lon="98.83223">
<time>2014-08-05T03:25:17Z</time></trkpt>
<trkpt lat="27.493453" lon="98.83221">
<time>2014-08-05T03:25:18Z</time></trkpt>
<trkpt lat="27.493523" lon="98.83218">
<time>2014-08-05T03:25:19Z</time></trkpt>
<trkpt lat="27.493603" lon="98.83216">
<time>2014-08-05T03:25:20Z</time></trkpt>
<trkpt lat="27.493793" lon="98.83213">
<time>2014-08-05T03:25:21Z</time></trkpt>
<trkpt lat="27.494013" lon="98.83209">
<time>2014-08-05T03:25:22Z</time></trkpt>
<trkpt lat="27.494143" lon="98.83206">
<time>2014-08-05T03:25:23Z</time></trkpt>
<trkpt lat="27.494233" lon="98.83202">
<time>2014-08-05T03:25:24Z</time></trkpt>
<trkpt lat="27.494603" lon="98.831809">
<time>2014-08-05T03:25:25Z</time></trkpt>
<trkpt lat="27.494882" lon="98.831619">
<time>2014-08-05T03:25:26Z</time></trkpt>
<trkpt lat="27.495032" lon="98.831529">
<time>2014-08-05T03:25:27Z</time></trkpt>
<trkpt lat="27.495112" lon="98.831479">
<time>2014-08-05T03:25:28Z</time></trkpt>
<trkpt lat="27.495282" lon="98.831419">
<time>2014-08-05T03:25:29Z</time></trkpt>
<trkpt lat="27.495582" lon="98.831359">
<time>2014-08-05T03:25:30Z</time></trkpt>
<trkpt lat="27.495742" lon="98.831309">
<time>2014-08-05T03:25:31Z</time></trkpt>
<trkpt lat="27.496061" lon="98.831169">
<time>2014-08-05T03:25:32Z</time></trkpt>
<trkpt lat="27.496211" lon="98.831108">
<time>2014-08-05T03:25:33Z</time></trkpt>
<trkpt lat="27.496361" lon="98.831068">
<time>2014-08-05T03:25:34Z</time></trkpt>
<trkpt lat="27.496581" lon="98.830998">
<time>2014-08-05T03:25:35Z</time></trkpt>
<trkpt lat="27.496771" lon="98.830938">
<time>2014-08-05T03:25:36Z</time></trkpt>
<trkpt lat="27.49711" lon="98.830778">
<time>2014-08-05T03:25:37Z</time></trkpt>
<trkpt lat="27.49786" lon="98.830387">
<time>2014-08-05T03:25:38Z</time></trkpt>
<trkpt lat="27.49804" lon="98.830307">
<time>2014-08-05T03:25:39Z</time></trkpt>
<trkpt lat="27.498139" lon="98.830277">
<time>2014-08-05T03:25:40Z</time></trkpt>
<trkpt lat="27.498219" lon="98.830257">
<time>2014-08-05T03:25:41Z</time></trkpt>
<trkpt lat="27.498369" lon="98.830247">
<time>2014-08-05T03:25:42Z</time></trkpt>
<trkpt lat="27.498829" lon="98.830237">
<time>2014-08-05T03:25:43Z</time></trkpt>
<trkpt lat="27.498919" lon="98.830227">
<time>2014-08-05T03:25:44Z</time></trkpt>
<trkpt lat="27.498999" lon="98.830207">
<time>2014-08-05T03:25:45Z</time></trkpt>
<trkpt lat="27.499169" lon="98.830127">
<time>2014-08-05T03:25:46Z</time></trkpt>
<trkpt lat="27.499849" lon="98.829817">
<time>2014-08-05T03:25:47Z</time></trkpt>
<trkpt lat="27.500018" lon="98.829717">
<time>2014-08-05T03:25:48Z</time></trkpt>
<trkpt lat="27.500248" lon="98.829566">
<time>2014-08-05T03:25:49Z</time></trkpt>
<trkpt lat="27.500318" lon="98.829496">
<time>2014-08-05T03:25:50Z</time></trkpt>
<trkpt lat="27.500398" lon="98.829416">
<time>2014-08-05T03:25:51Z</time></trkpt>
<trkpt lat="27.500507" lon="98.829286">
<time>2014-08-05T03:25:52Z</time></trkpt>
<trkpt lat="27.500617" lon="98.829126">
<time>2014-08-05T03:25:53Z</time></trkpt>
<trkpt lat="27.500757" lon="98.828915">
<time>2014-08-05T03:25:54Z</time></trkpt>
<trkpt lat="27.500857" lon="98.828785">
<time>2014-08-05T03:25:55Z</time></trkpt>
<trkpt lat="27.500926" lon="98.828715">
<time>2014-08-05T03:25:56Z</time></trkpt>
<trkpt lat="27.500996" lon="98.828665">
<time>2014-08-05T03:25:57Z</time></trkpt>
<trkpt lat="27.501056" lon="98.828625">
<time>2014-08-05T03:25:58Z</time></trkpt>
<trkpt lat="27.501156" lon="98.828585">
<time>2014-08-05T03:25:59Z</time></trkpt>
<trkpt lat="27.501296" lon="98.828535">
<time>2014-08-05T03:26:00Z</time></trkpt>
<trkpt lat="27.501406" lon="98.828505">
<time>2014-08-05T03:26:01Z</time></trkpt>
<trkpt lat="27.501506" lon="98.828485">
<time>2014-08-05T03:26:02Z</time></trkpt>
<trkpt lat="27.501676" lon="98.828465">
<time>2014-08-05T03:26:03Z</time></trkpt>
<trkpt lat="27.502026" lon="98.828435">
<time>2014-08-05T03:26:04Z</time></trkpt>
<trkpt lat="27.502176" lon="98.828415">
<time>2014-08-05T03:26:05Z</time></trkpt>
<trkpt lat="27.502356" lon="98.828365">
<time>2014-08-05T03:26:06Z</time></trkpt>
<trkpt lat="27.502486" lon="98.828315">
<time>2014-08-05T03:26:07Z</time></trkpt>
<trkpt lat="27.502575" lon="98.828265">
<time>2014-08-05T03:26:08Z</time></trkpt>
<trkpt lat="27.502635" lon="98.828235">
<time>2014-08-05T03:26:09Z</time></trkpt>
<trkpt lat="27.502695" lon="98.828194">
<time>2014-08-05T03:26:10Z</time></trkpt>
<trkpt lat="27.502855" lon="98.828064">
<time>2014-08-05T03:26:11Z</time></trkpt>
<trkpt lat="27.503315" lon="98.827784">
<time>2014-08-05T03:26:12Z</time></trkpt>
<trkpt lat="27.503854" lon="98.827463">
<time>2014-08-05T03:26:13Z</time></trkpt>
<trkpt lat="27.504024" lon="98.827353">
<time>2014-08-05T03:26:14Z</time></trkpt>
<trkpt lat="27.504223" lon="98.827243">
<time>2014-08-05T03:26:15Z</time></trkpt>
<trkpt lat="27.504303" lon="98.827213">
<time>2014-08-05T03:26:16Z</time></trkpt>
<trkpt lat="27.504423" lon="98.827183">
<time>2014-08-05T03:26:17Z</time></trkpt>
<trkpt lat="27.504573" lon="98.827153">
<time>2014-08-05T03:26:18Z</time></trkpt>
<trkpt lat="27.504883" lon="98.827133">
<time>2014-08-05T03:26:19Z</time></trkpt>
<trkpt lat="27.505023" lon="98.827143">
<time>2014-08-05T03:26:20Z</time></trkpt>
<trkpt lat="27.505183" lon="98.827153">
<time>2014-08-05T03:26:21Z</time></trkpt>
<trkpt lat="27.505313" lon="98.827173">
<time>2014-08-05T03:26:22Z</time></trkpt>
<trkpt lat="27.505363" lon="98.827193">
<time>2014-08-05T03:26:23Z</time></trkpt>
<trkpt lat="27.505383" lon="98.827203">
<time>2014-08-05T03:26:24Z</time></trkpt>
<trkpt lat="27.505423" lon="98.827223">
<time>2014-08-05T03:26:25Z</time></trkpt>
<trkpt lat="27.505453" lon="98.827243">
<time>2014-08-05T03:26:26Z</time></trkpt>
<trkpt lat="27.505744" lon="98.827493">
<time>2014-08-05T03:26:27Z</time></trkpt>
<trkpt lat="27.505954" lon="98.827674">
<time>2014-08-05T03:26:28Z</time></trkpt>
<trkpt lat="27.506054" lon="98.827754">
<time>2014-08-05T03:26:29Z</time></trkpt>
<trkpt lat="27.506144" lon="98.827814">
<time>2014-08-05T03:26:30Z</time></trkpt>
<trkpt lat="27.506235" lon="98.827854">
<time>2014-08-05T03:26:31Z</time></trkpt>
<trkpt lat="27.506335" lon="98.827874">
<time>2014-08-05T03:26:32Z</time></trkpt>
<trkpt lat="27.506415" lon="98.827884">
<time>2014-08-05T03:26:33Z</time></trkpt>
<trkpt lat="27.506535" lon="98.827904">
<time>2014-08-05T03:26:34Z</time></trkpt>
<trkpt lat="27.507425" lon="98.827924">
<time>2014-08-05T03:26:35Z</time></trkpt>
<trkpt lat="27.507525" lon="98.827944">
<time>2014-08-05T03:26:36Z</time></trkpt>
<trkpt lat="27.507625" lon="98.827974">
<time>2014-08-05T03:26:37Z</time></trkpt>
<trkpt lat="27.507745" lon="98.828054">
<time>2014-08-05T03:26:38Z</time></trkpt>
<trkpt lat="27.507865" lon="98.828124">
<time>2014-08-05T03:26:39Z</time></trkpt>
<trkpt lat="27.507945" lon="98.828144">
<time>2014-08-05T03:26:40Z</time></trkpt>
<trkpt lat="27.508005" lon="98.828154">
<time>2014-08-05T03:26:41Z</time></trkpt>
<trkpt lat="27.508155" lon="98.828164">
<time>2014-08-05T03:26:42Z</time></trkpt>
<trkpt lat="27.509005" lon="98.828134">
<time>2014-08-05T03:26:43Z</time></trkpt>
<trkpt lat="27.509865" lon="98.828034">
<time>2014-08-05T03:26:44Z</time></trkpt>
<trkpt lat="27.510045" lon="98.828024">
<time>2014-08-05T03:26:45Z</time></trkpt>
<trkpt lat="27.510185" lon="98.828034">
<time>2014-08-05T03:26:46Z</time></trkpt>
<trkpt lat="27.510295" lon="98.828044">
<time>2014-08-05T03:26:47Z</time></trkpt>
<trkpt lat="27.510385" lon="98.828064">
<time>2014-08-05T03:26:48Z</time></trkpt>
<trkpt lat="27.510695" lon="98.828194">
<time>2014-08-05T03:26:49Z</time></trkpt>
<trkpt lat="27.510935" lon="98.828284">
<time>2014-08-05T03:26:50Z</time></trkpt>
<trkpt lat="27.511065" lon="98.828314">
<time>2014-08-05T03:26:51Z</time></trkpt>
<trkpt lat="27.511205" lon="98.828324">
<time>2014-08-05T03:26:52Z</time></trkpt>
<trkpt lat="27.511755" lon="98.828334">
<time>2014-08-05T03:26:53Z</time></trkpt>
<trkpt lat="27.512065" lon="98.828355">
<time>2014-08-05T03:26:54Z</time></trkpt>
<trkpt lat="27.512315" lon="98.828405">
<time>2014-08-05T03:26:55Z</time></trkpt>
<trkpt lat="27.512586" lon="98.828485">
<time>2014-08-05T03:26:56Z</time></trkpt>
<trkpt lat="27.512866" lon="98.828615">
<time>2014-08-05T03:26:57Z</time></trkpt>
<trkpt lat="27.513036" lon="98.828705">
<time>2014-08-05T03:26:58Z</time></trkpt>
<trkpt lat="27.513196" lon="98.828735">
<time>2014-08-05T03:26:59Z</time></trkpt>
<trkpt lat="27.513416" lon="98.828765">
<time>2014-08-05T03:27:00Z</time></trkpt>
<trkpt lat="27.513496" lon="98.828765">
<time>2014-08-05T03:27:01Z</time></trkpt>
<trkpt lat="27.513716" lon="98.828785">
<time>2014-08-05T03:27:02Z</time></trkpt>
<trkpt lat="27.514156" lon="98.828805">
<time>2014-08-05T03:27:03Z</time></trkpt>
<trkpt lat="27.514846" lon="98.828835">
<time>2014-08-05T03:27:04Z</time></trkpt>
<trkpt lat="27.515036" lon="98.828865">
<time>2014-08-05T03:27:05Z</time></trkpt>
<trkpt lat="27.515236" lon="98.828925">
<time>2014-08-05T03:27:06Z</time></trkpt>
<trkpt lat="27.515627" lon="98.829125">
<time>2014-08-05T03:27:07Z</time></trkpt>
<trkpt lat="27.515997" lon="98.829326">
<time>2014-08-05T03:27:08Z</time></trkpt>
<trkpt lat="27.516187" lon="98.829416">
<time>2014-08-05T03:27:09Z</time></trkpt>
<trkpt lat="27.516387" lon="98.829486">
<time>2014-08-05T03:27:10Z</time></trkpt>
<trkpt lat="27.516527" lon="98.829516">
<time>2014-08-05T03:27:11Z</time></trkpt>
<trkpt lat="27.517268" lon="98.829666">
<time>2014-08-05T03:27:12Z</time></trkpt>
<trkpt lat="27.517568" lon="98.829686">
<time>2014-08-05T03:27:13Z</time></trkpt>
<trkpt lat="27.517838" lon="98.829686">
<time>2014-08-05T03:27:14Z</time></trkpt>
<trkpt lat="27.518118" lon="98.829696">
<time>2014-08-05T03:27:15Z</time></trkpt>
<trkpt lat="27.518288" lon="98.829716">
<time>2014-08-05T03:27:16Z</time></trkpt>
<trkpt lat="27.518468" lon="98.829726">
<time>2014-08-05T03:27:17Z</time></trkpt>
<trkpt lat="27.518598" lon="98.829736">
<time>2014-08-05T03:27:18Z</time></trkpt>
<trkpt lat="27.518678" lon="98.829726">
<time>2014-08-05T03:27:19Z</time></trkpt>
<trkpt lat="27.518768" lon="98.829706">
<time>2014-08-05T03:27:20Z</time></trkpt>
<trkpt lat="27.518958" lon="98.829676">
<time>2014-08-05T03:27:21Z</time></trkpt>
<trkpt lat="27.519098" lon="98.829666">
<time>2014-08-05T03:27:22Z</time></trkpt>
<trkpt lat="27.519248" lon="98.829686">
<time>2014-08-05T03:27:23Z</time></trkpt>
<trkpt lat="27.519438" lon="98.829726">
<time>2014-08-05T03:27:24Z</time></trkpt>
<trkpt lat="27.519548" lon="98.829746">
<time>2014-08-05T03:27:25Z</time></trkpt>
<trkpt lat="27.519648" lon="98.829766">
<time>2014-08-05T03:27:26Z</time></trkpt>
<trkpt lat="27.519778" lon="98.829786">
<time>2014-08-05T03:27:27Z</time></trkpt>
<trkpt lat="27.520048" lon="98.829796">
<time>2014-08-05T03:27:28Z</time></trkpt>
<trkpt lat="27.520208" lon="98.829806">
<time>2014-08-05T03:27:29Z</time></trkpt>
<trkpt lat="27.520558" lon="98.829856">
<time>2014-08-05T03:27:30Z</time></trkpt>
<trkpt lat="27.520808" lon="98.829896">
<time>2014-08-05T03:27:31Z</time></trkpt>
<trkpt lat="27.520958" lon="98.829936">
<time>2014-08-05T03:27:32Z</time></trkpt>
<trkpt lat="27.521098" lon="98.829987">
<time>2014-08-05T03:27:33Z</time></trkpt>
<trkpt lat="27.521418" lon="98.830127">
<time>2014-08-05T03:27:34Z</time></trkpt>
<trkpt lat="27.521598" lon="98.830187">
<time>2014-08-05T03:27:35Z</time></trkpt>
<trkpt lat="27.521759" lon="98.830217">
<time>2014-08-05T03:27:36Z</time></trkpt>
<trkpt lat="27.521899" lon="98.830237">
<time>2014-08-05T03:27:37Z</time></trkpt>
<trkpt lat="27.521999" lon="98.830237">
<time>2014-08-05T03:27:38Z</time></trkpt>
<trkpt lat="27.522069" lon="98.830237">
<time>2014-08-05T03:27:39Z</time></trkpt>
<trkpt lat="27.522129" lon="98.830217">
<time>2014-08-05T03:27:40Z</time></trkpt>
<trkpt lat="27.522218" lon="98.830187">
<time>2014-08-05T03:27:41Z</time></trkpt>
<trkpt lat="27.522298" lon="98.830157">
<time>2014-08-05T03:27:42Z</time></trkpt>
<trkpt lat="27.522428" lon="98.830087">
<time>2014-08-05T03:27:43Z</time></trkpt>
<trkpt lat="27.522508" lon="98.830047">
<time>2014-08-05T03:27:44Z</time></trkpt>
<trkpt lat="27.522588" lon="98.830017">
<time>2014-08-05T03:27:45Z</time></trkpt>
<trkpt lat="27.522748" lon="98.829976">
<time>2014-08-05T03:27:46Z</time></trkpt>
<trkpt lat="27.522868" lon="98.829966">
<time>2014-08-05T03:27:47Z</time></trkpt>
<trkpt lat="27.522948" lon="98.829976">
<time>2014-08-05T03:27:48Z</time></trkpt>
<trkpt lat="27.523048" lon="98.829986">
<time>2014-08-05T03:27:49Z</time></trkpt>
<trkpt lat="27.523268" lon="98.830087">
<time>2014-08-05T03:27:50Z</time></trkpt>
<trkpt lat="27.523378" lon="98.830117">
<time>2014-08-05T03:27:51Z</time></trkpt>
<trkpt lat="27.523448" lon="98.830127">
<time>2014-08-05T03:27:52Z</time></trkpt>
<trkpt lat="27.523848" lon="98.830147">
<time>2014-08-05T03:27:53Z</time></trkpt>
<trkpt lat="27.523918" lon="98.830157">
<time>2014-08-05T03:27:54Z</time></trkpt>
<trkpt lat="27.523978" lon="98.830167">
<time>2014-08-05T03:27:55Z</time></trkpt>
<trkpt lat="27.524048" lon="98.830187">
<time>2014-08-05T03:27:56Z</time></trkpt>
<trkpt lat="27.524088" lon="98.830207">
<time>2014-08-05T03:27:57Z</time></trkpt>
<trkpt lat="27.524239" lon="98.830277">
<time>2014-08-05T03:27:58Z</time></trkpt>
<trkpt lat="27.524339" lon="98.830327">
<time>2014-08-05T03:27:59Z</time></trkpt>
<trkpt lat="27.524409" lon="98.830347">
<time>2014-08-05T03:28:00Z</time></trkpt>
<trkpt lat="27.524449" lon="98.830357">
<time>2014-08-05T03:28:01Z</time></trkpt>
<trkpt lat="27.524519" lon="98.830367">
<time>2014-08-05T03:28:02Z</time></trkpt>
<trkpt lat="27.524839" lon="98.830347">
<time>2014-08-05T03:28:03Z</time></trkpt>
<trkpt lat="27.524909" lon="98.830357">
<time>2014-08-05T03:28:04Z</time></trkpt>
<trkpt lat="27.524999" lon="98.830367">
<time>2014-08-05T03:28:05Z</time></trkpt>
<trkpt lat="27.525109" lon="98.830407">
<time>2014-08-05T03:28:06Z</time></trkpt>
<trkpt lat="27.525179" lon="98.830447">
<time>2014-08-05T03:28:07Z</time></trkpt>
<trkpt lat="27.525259" lon="98.830517">
<time>2014-08-05T03:28:08Z</time></trkpt>
<trkpt lat="27.525349" lon="98.830607">
<time>2014-08-05T03:28:09Z</time></trkpt>
<trkpt lat="27.525399" lon="98.830647">
<time>2014-08-05T03:28:10Z</time></trkpt>
<trkpt lat="27.525439" lon="98.830667">
<time>2014-08-05T03:28:11Z</time></trkpt>
<trkpt lat="27.525479" lon="98.830677">
<time>2014-08-05T03:28:12Z</time></trkpt>
<trkpt lat="27.525519" lon="98.830697">
<time>2014-08-05T03:28:13Z</time></trkpt>
<trkpt lat="27.525559" lon="98.830697">
<time>2014-08-05T03:28:14Z</time></trkpt>
<trkpt lat="27.525589" lon="98.830707">
<time>2014-08-05T03:28:15Z</time></trkpt>
<trkpt lat="27.525709" lon="98.830707">
<time>2014-08-05T03:28:16Z</time></trkpt>
<trkpt lat="27.526019" lon="98.830727">
<time>2014-08-05T03:28:17Z</time></trkpt>
<trkpt lat="27.526079" lon="98.830727">
<time>2014-08-05T03:28:18Z</time></trkpt>
<trkpt lat="27.526109" lon="98.830737">
<time>2014-08-05T03:28:19Z</time></trkpt>
<trkpt lat="27.526139" lon="98.830747">
<time>2014-08-05T03:28:20Z</time></trkpt>
<trkpt lat="27.526169" lon="98.830767">
<time>2014-08-05T03:28:21Z</time></trkpt>
<trkpt lat="27.526199" lon="98.830777">
<time>2014-08-05T03:28:22Z</time></trkpt>
<trkpt lat="27.52629" lon="98.830818">
<time>2014-08-05T03:28:23Z</time></trkpt>
<trkpt lat="27.52642" lon="98.830898">
<time>2014-08-05T03:28:24Z</time></trkpt>
<trkpt lat="27.52652" lon="98.830948">
<time>2014-08-05T03:28:25Z</time></trkpt>
<trkpt lat="27.52658" lon="98.831008">
<time>2014-08-05T03:28:26Z</time></trkpt>
<trkpt lat="27.5267" lon="98.831118">
<time>2014-08-05T03:28:27Z</time></trkpt>
<trkpt lat="27.52683" lon="98.831228">
<time>2014-08-05T03:28:28Z</time></trkpt>
<trkpt lat="27.52688" lon="98.831268">
<time>2014-08-05T03:28:29Z</time></trkpt>
<trkpt lat="27.52696" lon="98.831298">
<time>2014-08-05T03:28:30Z</time></trkpt>
<trkpt lat="27.52704" lon="98.831318">
<time>2014-08-05T03:28:31Z</time></trkpt>
<trkpt lat="27.527131" lon="98.831338">
<time>2014-08-05T03:28:32Z</time></trkpt>
<trkpt lat="27.527611" lon="98.831378">
<time>2014-08-05T03:28:33Z</time></trkpt>
<trkpt lat="27.527681" lon="98.831398">
<time>2014-08-05T03:28:34Z</time></trkpt>
<trkpt lat="27.527741" lon="98.831418">
<time>2014-08-05T03:28:35Z</time></trkpt>
<trkpt lat="27.527811" lon="98.831448">
<time>2014-08-05T03:28:36Z</time></trkpt>
<trkpt lat="27.527891" lon="98.831488">
<time>2014-08-05T03:28:37Z</time></trkpt>
<trkpt lat="27.527961" lon="98.831528">
<time>2014-08-05T03:28:38Z</time></trkpt>
<trkpt lat="27.528041" lon="98.831589">
<time>2014-08-05T03:28:39Z</time></trkpt>
<trkpt lat="27.528311" lon="98.831799">
<time>2014-08-05T03:28:40Z</time></trkpt>
<trkpt lat="27.528431" lon="98.831869">
<time>2014-08-05T03:28:41Z</time></trkpt>
<trkpt lat="27.528542" lon="98.831939">
<time>2014-08-05T03:28:42Z</time></trkpt>
<trkpt lat="27.528752" lon="98.832049">
<time>2014-08-05T03:28:43Z</time></trkpt>
<trkpt lat="27.528862" lon="98.832099">
<time>2014-08-05T03:28:44Z</time></trkpt>
<trkpt lat="27.528962" lon="98.832129">
<time>2014-08-05T03:28:45Z</time></trkpt>
<trkpt lat="27.529162" lon="98.832169">
<time>2014-08-05T03:28:46Z</time></trkpt>
<trkpt lat="27.529282" lon="98.832199">
<time>2014-08-05T03:28:47Z</time></trkpt>
<trkpt lat="27.529342" lon="98.832219">
<time>2014-08-05T03:28:48Z</time></trkpt>
<trkpt lat="27.529452" lon="98.832279">
<time>2014-08-05T03:28:49Z</time></trkpt>
<trkpt lat="27.529683" lon="98.83243">
<time>2014-08-05T03:28:50Z</time></trkpt>
<trkpt lat="27.529793" lon="98.8325">
<time>2014-08-05T03:28:51Z</time></trkpt>
<trkpt lat="27.529923" lon="98.83255">
<time>2014-08-05T03:28:52Z</time></trkpt>
<trkpt lat="27.530343" lon="98.83271">
<time>2014-08-05T03:28:53Z</time></trkpt>
<trkpt lat="27.532364" lon="98.833511">
<time>2014-08-05T03:28:54Z</time></trkpt>
<trkpt lat="27.532855" lon="98.833641">
<time>2014-08-05T03:28:55Z</time></trkpt>
<trkpt lat="27.533005" lon="98.833671">
<time>2014-08-05T03:28:56Z</time></trkpt>
<trkpt lat="27.533165" lon="98.833681">
<time>2014-08-05T03:28:57Z</time></trkpt>
<trkpt lat="27.533315" lon="98.833661">
<time>2014-08-05T03:28:58Z</time></trkpt>
<trkpt lat="27.533445" lon="98.833621">
<time>2014-08-05T03:28:59Z</time></trkpt>
<trkpt lat="27.533625" lon="98.833581">
<time>2014-08-05T03:29:00Z</time></trkpt>
<trkpt lat="27.533835" lon="98.833591">
<time>2014-08-05T03:29:01Z</time></trkpt>
<trkpt lat="27.534025" lon="98.833591">
<time>2014-08-05T03:29:02Z</time></trkpt>
<trkpt lat="27.534065" lon="98.833581">
<time>2014-08-05T03:29:03Z</time></trkpt>
<trkpt lat="27.534115" lon="98.833561">
<time>2014-08-05T03:29:04Z</time></trkpt>
<trkpt lat="27.534184" lon="98.833521">
<time>2014-08-05T03:29:05Z</time></trkpt>
<trkpt lat="27.534334" lon="98.833371">
<time>2014-08-05T03:29:06Z</time></trkpt>
<trkpt lat="27.534394" lon="98.833331">
<time>2014-08-05T03:29:07Z</time></trkpt>
<trkpt lat="27.534504" lon="98.833261">
<time>2014-08-05T03:29:08Z</time></trkpt>
<trkpt lat="27.534594" lon="98.833211">
<time>2014-08-05T03:29:09Z</time></trkpt>
<trkpt lat="27.534674" lon="98.833181">
<time>2014-08-05T03:29:10Z</time></trkpt>
<trkpt lat="27.534784" lon="98.83315">
<time>2014-08-05T03:29:11Z</time></trkpt>
<trkpt lat="27.534894" lon="98.83315">
<time>2014-08-05T03:29:12Z</time></trkpt>
<trkpt lat="27.535054" lon="98.83314">
<time>2014-08-05T03:29:13Z</time></trkpt>
<trkpt lat="27.535364" lon="98.83314">
<time>2014-08-05T03:29:14Z</time></trkpt>
<trkpt lat="27.535464" lon="98.83312">
<time>2014-08-05T03:29:15Z</time></trkpt>
<trkpt lat="27.535544" lon="98.83309">
<time>2014-08-05T03:29:16Z</time></trkpt>
<trkpt lat="27.535673" lon="98.833">
<time>2014-08-05T03:29:17Z</time></trkpt>
<trkpt lat="27.535823" lon="98.83289">
<time>2014-08-05T03:29:18Z</time></trkpt>
<trkpt lat="27.535953" lon="98.8328">
<time>2014-08-05T03:29:19Z</time></trkpt>
<trkpt lat="27.536033" lon="98.83272">
<time>2014-08-05T03:29:20Z</time></trkpt>
<trkpt lat="27.536163" lon="98.83257">
<time>2014-08-05T03:29:21Z</time></trkpt>
<trkpt lat="27.536312" lon="98.832359">
<time>2014-08-05T03:29:22Z</time></trkpt>
<trkpt lat="27.536532" lon="98.832059">
<time>2014-08-05T03:29:23Z</time></trkpt>
<trkpt lat="27.536691" lon="98.831869">
<time>2014-08-05T03:29:24Z</time></trkpt>
<trkpt lat="27.536841" lon="98.831729">
<time>2014-08-05T03:29:25Z</time></trkpt>
<trkpt lat="27.536961" lon="98.831628">
<time>2014-08-05T03:29:26Z</time></trkpt>
<trkpt lat="27.537101" lon="98.831538">
<time>2014-08-05T03:29:27Z</time></trkpt>
<trkpt lat="27.537301" lon="98.831468">
<time>2014-08-05T03:29:28Z</time></trkpt>
<trkpt lat="27.5375" lon="98.831418">
<time>2014-08-05T03:29:29Z</time></trkpt>
<trkpt lat="27.5376" lon="98.831378">
<time>2014-08-05T03:29:30Z</time></trkpt>
<trkpt lat="27.53769" lon="98.831308">
<time>2014-08-05T03:29:31Z</time></trkpt>
<trkpt lat="27.53773" lon="98.831258">
<time>2014-08-05T03:29:32Z</time></trkpt>
<trkpt lat="27.53778" lon="98.831178">
<time>2014-08-05T03:29:33Z</time></trkpt>
<trkpt lat="27.53782" lon="98.831128">
<time>2014-08-05T03:29:34Z</time></trkpt>
<trkpt lat="27.5379" lon="98.830968">
<time>2014-08-05T03:29:35Z</time></trkpt>
<trkpt lat="27.537959" lon="98.830857">
<time>2014-08-05T03:29:36Z</time></trkpt>
<trkpt lat="27.538009" lon="98.830797">
<time>2014-08-05T03:29:37Z</time></trkpt>
<trkpt lat="27.538089" lon="98.830747">
<time>2014-08-05T03:29:38Z</time></trkpt>
<trkpt lat="27.538129" lon="98.830717">
<time>2014-08-05T03:29:39Z</time></trkpt>
<trkpt lat="27.538479" lon="98.830537">
<time>2014-08-05T03:29:40Z</time></trkpt>
<trkpt lat="27.538719" lon="98.830397">
<time>2014-08-05T03:29:41Z</time></trkpt>
<trkpt lat="27.538838" lon="98.830317">
<time>2014-08-05T03:29:42Z</time></trkpt>
<trkpt lat="27.538978" lon="98.830176">
<time>2014-08-05T03:29:43Z</time></trkpt>
<trkpt lat="27.539098" lon="98.830066">
<time>2014-08-05T03:29:44Z</time></trkpt>
<trkpt lat="27.539228" lon="98.829976">
<time>2014-08-05T03:29:45Z</time></trkpt>
<trkpt lat="27.539577" lon="98.829786">
<time>2014-08-05T03:29:46Z</time></trkpt>
<trkpt lat="27.539727" lon="98.829696">
<time>2014-08-05T03:29:47Z</time></trkpt>
<trkpt lat="27.540067" lon="98.829506">
<time>2014-08-05T03:29:48Z</time></trkpt>
<trkpt lat="27.540177" lon="98.829465">
<time>2014-08-05T03:29:49Z</time></trkpt>
<trkpt lat="27.540267" lon="98.829445">
<time>2014-08-05T03:29:50Z</time></trkpt>
<trkpt lat="27.540387" lon="98.829405">
<time>2014-08-05T03:29:51Z</time></trkpt>
<trkpt lat="27.540537" lon="98.829375">
<time>2014-08-05T03:29:52Z</time></trkpt>
<trkpt lat="27.540657" lon="98.829355">
<time>2014-08-05T03:29:53Z</time></trkpt>
<trkpt lat="27.540727" lon="98.829335">
<time>2014-08-05T03:29:54Z</time></trkpt>
<trkpt lat="27.540816" lon="98.829305">
<time>2014-08-05T03:29:55Z</time></trkpt>
<trkpt lat="27.540926" lon="98.829235">
<time>2014-08-05T03:29:56Z</time></trkpt>
<trkpt lat="27.541156" lon="98.829055">
<time>2014-08-05T03:29:57Z</time></trkpt>
<trkpt lat="27.541725" lon="98.828584">
<time>2014-08-05T03:29:58Z</time></trkpt>
<trkpt lat="27.541875" lon="98.828484">
<time>2014-08-05T03:29:59Z</time></trkpt>
<trkpt lat="27.541945" lon="98.828424">
<time>2014-08-05T03:30:00Z</time></trkpt>
<trkpt lat="27.542015" lon="98.828404">
<time>2014-08-05T03:30:01Z</time></trkpt>
<trkpt lat="27.542075" lon="98.828384">
<time>2014-08-05T03:30:02Z</time></trkpt>
<trkpt lat="27.542125" lon="98.828394">
<time>2014-08-05T03:30:03Z</time></trkpt>
<trkpt lat="27.542195" lon="98.828424">
<time>2014-08-05T03:30:04Z</time></trkpt>
<trkpt lat="27.542285" lon="98.828474">
<time>2014-08-05T03:30:05Z</time></trkpt>
<trkpt lat="27.542385" lon="98.828564">
<time>2014-08-05T03:30:06Z</time></trkpt>
<trkpt lat="27.542405" lon="98.828564">
<time>2014-08-05T03:30:07Z</time></trkpt>
<trkpt lat="27.542475" lon="98.828614">
<time>2014-08-05T03:30:08Z</time></trkpt>
<trkpt lat="27.542555" lon="98.828654">
<time>2014-08-05T03:30:09Z</time></trkpt>
<trkpt lat="27.542615" lon="98.828664">
<time>2014-08-05T03:30:10Z</time></trkpt>
<trkpt lat="27.542725" lon="98.828664">
<time>2014-08-05T03:30:11Z</time></trkpt>
<trkpt lat="27.542885" lon="98.828654">
<time>2014-08-05T03:30:12Z</time></trkpt>
<trkpt lat="27.543365" lon="98.828614">
<time>2014-08-05T03:30:13Z</time></trkpt>
<trkpt lat="27.543495" lon="98.828614">
<time>2014-08-05T03:30:14Z</time></trkpt>
<trkpt lat="27.543565" lon="98.828624">
<time>2014-08-05T03:30:15Z</time></trkpt>
<trkpt lat="27.543595" lon="98.828624">
<time>2014-08-05T03:30:16Z</time></trkpt>
<trkpt lat="27.543615" lon="98.828634">
<time>2014-08-05T03:30:17Z</time></trkpt>
<trkpt lat="27.543645" lon="98.828634">
<time>2014-08-05T03:30:18Z</time></trkpt>
<trkpt lat="27.543705" lon="98.828654">
<time>2014-08-05T03:30:19Z</time></trkpt>
<trkpt lat="27.543765" lon="98.828674">
<time>2014-08-05T03:30:20Z</time></trkpt>
<trkpt lat="27.544085" lon="98.828805">
<time>2014-08-05T03:30:21Z</time></trkpt>
<trkpt lat="27.544096" lon="98.828815">
<time>2014-08-05T03:30:22Z</time></trkpt>
<trkpt lat="27.544106" lon="98.828815">
<time>2014-08-05T03:30:23Z</time></trkpt>
<trkpt lat="27.544146" lon="98.828825">
<time>2014-08-05T03:30:24Z</time></trkpt>
<trkpt lat="27.544186" lon="98.828825">
<time>2014-08-05T03:30:25Z</time></trkpt>
<trkpt lat="27.544286" lon="98.828825">
<time>2014-08-05T03:30:26Z</time></trkpt>
<trkpt lat="27.544386" lon="98.828815">
<time>2014-08-05T03:30:27Z</time></trkpt>
<trkpt lat="27.544515" lon="98.828795">
<time>2014-08-05T03:30:28Z</time></trkpt>
<trkpt lat="27.544855" lon="98.828694">
<time>2014-08-05T03:30:29Z</time></trkpt>
<trkpt lat="27.545805" lon="98.828454">
<time>2014-08-05T03:30:30Z</time></trkpt>
<trkpt lat="27.546215" lon="98.828344">
<time>2014-08-05T03:30:31Z</time></trkpt>
<trkpt lat="27.546614" lon="98.828204">
<time>2014-08-05T03:30:32Z</time></trkpt>
<trkpt lat="27.547904" lon="98.827763">
<time>2014-08-05T03:30:33Z</time></trkpt>
<trkpt lat="27.548373" lon="98.827603">
<time>2014-08-05T03:30:34Z</time></trkpt>
<trkpt lat="27.548553" lon="98.827543">
<time>2014-08-05T03:30:35Z</time></trkpt>
<trkpt lat="27.548813" lon="98.827453">
<time>2014-08-05T03:30:36Z</time></trkpt>
<trkpt lat="27.548983" lon="98.827383">
<time>2014-08-05T03:30:37Z</time></trkpt>
<trkpt lat="27.549193" lon="98.827262">
<time>2014-08-05T03:30:38Z</time></trkpt>
<trkpt lat="27.549203" lon="98.827262">
<time>2014-08-05T03:30:39Z</time></trkpt>
<trkpt lat="27.549492" lon="98.827052">
<time>2014-08-05T03:30:40Z</time></trkpt>
<trkpt lat="27.549782" lon="98.826822">
<time>2014-08-05T03:30:41Z</time></trkpt>
<trkpt lat="27.550091" lon="98.826601">
<time>2014-08-05T03:30:42Z</time></trkpt>
<trkpt lat="27.550351" lon="98.826411">
<time>2014-08-05T03:30:43Z</time></trkpt>
<trkpt lat="27.5508" lon="98.826051">
<time>2014-08-05T03:30:44Z</time></trkpt>
<trkpt lat="27.55092" lon="98.825951">
<time>2014-08-05T03:30:45Z</time></trkpt>
<trkpt lat="27.55104" lon="98.82581">
<time>2014-08-05T03:30:46Z</time></trkpt>
<trkpt lat="27.551199" lon="98.82559">
<time>2014-08-05T03:30:47Z</time></trkpt>
<trkpt lat="27.551319" lon="98.82542">
<time>2014-08-05T03:30:48Z</time></trkpt>
<trkpt lat="27.551429" lon="98.8253">
<time>2014-08-05T03:30:49Z</time></trkpt>
<trkpt lat="27.551459" lon="98.82527">
<time>2014-08-05T03:30:50Z</time></trkpt>
<trkpt lat="27.551499" lon="98.82525">
<time>2014-08-05T03:30:51Z</time></trkpt>
<trkpt lat="27.551549" lon="98.82522">
<time>2014-08-05T03:30:52Z</time></trkpt>
<trkpt lat="27.551619" lon="98.82519">
<time>2014-08-05T03:30:53Z</time></trkpt>
<trkpt lat="27.551978" lon="98.825059">
<time>2014-08-05T03:30:54Z</time></trkpt>
<trkpt lat="27.552158" lon="98.824989">
<time>2014-08-05T03:30:55Z</time></trkpt>
<trkpt lat="27.552298" lon="98.824909">
<time>2014-08-05T03:30:56Z</time></trkpt>
<trkpt lat="27.552488" lon="98.824789">
<time>2014-08-05T03:30:57Z</time></trkpt>
<trkpt lat="27.552917" lon="98.824499">
<time>2014-08-05T03:30:58Z</time></trkpt>
<trkpt lat="27.553427" lon="98.824158">
<time>2014-08-05T03:30:59Z</time></trkpt>
<trkpt lat="27.553706" lon="98.823968">
<time>2014-08-05T03:31:00Z</time></trkpt>
<trkpt lat="27.553786" lon="98.823918">
<time>2014-08-05T03:31:01Z</time></trkpt>
<trkpt lat="27.553896" lon="98.823878">
<time>2014-08-05T03:31:02Z</time></trkpt>
<trkpt lat="27.553976" lon="98.823838">
<time>2014-08-05T03:31:03Z</time></trkpt>
<trkpt lat="27.554126" lon="98.823798">
<time>2014-08-05T03:31:04Z</time></trkpt>
<trkpt lat="27.554556" lon="98.823697">
<time>2014-08-05T03:31:05Z</time></trkpt>
<trkpt lat="27.554956" lon="98.823597">
<time>2014-08-05T03:31:06Z</time></trkpt>
<trkpt lat="27.555785" lon="98.823317">
<time>2014-08-05T03:31:07Z</time></trkpt>
<trkpt lat="27.556235" lon="98.823147">
<time>2014-08-05T03:31:08Z</time></trkpt>
<trkpt lat="27.556325" lon="98.823107">
<time>2014-08-05T03:31:09Z</time></trkpt>
<trkpt lat="27.556395" lon="98.823077">
<time>2014-08-05T03:31:10Z</time></trkpt>
<trkpt lat="27.556505" lon="98.823017">
<time>2014-08-05T03:31:11Z</time></trkpt>
<trkpt lat="27.556674" lon="98.822896">
<time>2014-08-05T03:31:12Z</time></trkpt>
<trkpt lat="27.556874" lon="98.822766">
<time>2014-08-05T03:31:13Z</time></trkpt>
<trkpt lat="27.556954" lon="98.822716">
<time>2014-08-05T03:31:14Z</time></trkpt>
<trkpt lat="27.557054" lon="98.822656">
<time>2014-08-05T03:31:15Z</time></trkpt>
<trkpt lat="27.557114" lon="98.822636">
<time>2014-08-05T03:31:16Z</time></trkpt>
<trkpt lat="27.557194" lon="98.822616">
<time>2014-08-05T03:31:17Z</time></trkpt>
<trkpt lat="27.557544" lon="98.822566">
<time>2014-08-05T03:31:18Z</time></trkpt>
<trkpt lat="27.557574" lon="98.822566">
<time>2014-08-05T03:31:19Z</time></trkpt>
<trkpt lat="27.557614" lon="98.822546">
<time>2014-08-05T03:31:20Z</time></trkpt>
<trkpt lat="27.557644" lon="98.822526">
<time>2014-08-05T03:31:21Z</time></trkpt>
<trkpt lat="27.557714" lon="98.822476">
<time>2014-08-05T03:31:22Z</time></trkpt>
<trkpt lat="27.557803" lon="98.822386">
<time>2014-08-05T03:31:23Z</time></trkpt>
<trkpt lat="27.557893" lon="98.822266">
<time>2014-08-05T03:31:24Z</time></trkpt>
<trkpt lat="27.557973" lon="98.822155">
<time>2014-08-05T03:31:25Z</time></trkpt>
<trkpt lat="27.558043" lon="98.822065">
<time>2014-08-05T03:31:26Z</time></trkpt>
<trkpt lat="27.558103" lon="98.822015">
<time>2014-08-05T03:31:27Z</time></trkpt>
<trkpt lat="27.558153" lon="98.821985">
<time>2014-08-05T03:31:28Z</time></trkpt>
<trkpt lat="27.558203" lon="98.821955">
<time>2014-08-05T03:31:29Z</time></trkpt>
<trkpt lat="27.558263" lon="98.821935">
<time>2014-08-05T03:31:30Z</time></trkpt>
<trkpt lat="27.558322" lon="98.821905">
<time>2014-08-05T03:31:31Z</time></trkpt>
<trkpt lat="27.558352" lon="98.821885">
<time>2014-08-05T03:31:32Z</time></trkpt>
<trkpt lat="27.558382" lon="98.821855">
<time>2014-08-05T03:31:33Z</time></trkpt>
<trkpt lat="27.558412" lon="98.821805">
<time>2014-08-05T03:31:34Z</time></trkpt>
<trkpt lat="27.558452" lon="98.821685">
<time>2014-08-05T03:31:35Z</time></trkpt>
<trkpt lat="27.558492" lon="98.821575">
<time>2014-08-05T03:31:36Z</time></trkpt>
<trkpt lat="27.558532" lon="98.821484">
<time>2014-08-05T03:31:37Z</time></trkpt>
<trkpt lat="27.558611" lon="98.821354">
<time>2014-08-05T03:31:38Z</time></trkpt>
<trkpt lat="27.558821" lon="98.821064">
<time>2014-08-05T03:31:39Z</time></trkpt>
<trkpt lat="27.558951" lon="98.820864">
<time>2014-08-05T03:31:40Z</time></trkpt>
<trkpt lat="27.55907" lon="98.820653">
<time>2014-08-05T03:31:41Z</time></trkpt>
<trkpt lat="27.55915" lon="98.820473">
<time>2014-08-05T03:31:42Z</time></trkpt>
<trkpt lat="27.559309" lon="98.820143">
<time>2014-08-05T03:31:43Z</time></trkpt>
<trkpt lat="27.559369" lon="98.819992">
<time>2014-08-05T03:31:44Z</time></trkpt>
<trkpt lat="27.559419" lon="98.819862">
<time>2014-08-05T03:31:45Z</time></trkpt>
<trkpt lat="27.559468" lon="98.819652">
<time>2014-08-05T03:31:46Z</time></trkpt>
<trkpt lat="27.559607" lon="98.819051">
<time>2014-08-05T03:31:47Z</time></trkpt>
<trkpt lat="27.559637" lon="98.818921">
<time>2014-08-05T03:31:48Z</time></trkpt>
<trkpt lat="27.559667" lon="98.818841">
<time>2014-08-05T03:31:49Z</time></trkpt>
<trkpt lat="27.559707" lon="98.818741">
<time>2014-08-05T03:31:50Z</time></trkpt>
<trkpt lat="27.559746" lon="98.818661">
<time>2014-08-05T03:31:51Z</time></trkpt>
<trkpt lat="27.559786" lon="98.818581">
<time>2014-08-05T03:31:52Z</time></trkpt>
<trkpt lat="27.559826" lon="98.818511">
<time>2014-08-05T03:31:53Z</time></trkpt>
<trkpt lat="27.559876" lon="98.81843">
<time>2014-08-05T03:31:54Z</time></trkpt>
<trkpt lat="27.559976" lon="98.81828">
<time>2014-08-05T03:31:55Z</time></trkpt>
<trkpt lat="27.560095" lon="98.81806">
<time>2014-08-05T03:31:56Z</time></trkpt>
<trkpt lat="27.560225" lon="98.81777">
<time>2014-08-05T03:31:57Z</time></trkpt>
<trkpt lat="27.560324" lon="98.817569">
<time>2014-08-05T03:31:58Z</time></trkpt>
<trkpt lat="27.560394" lon="98.817449">
<time>2014-08-05T03:31:59Z</time></trkpt>
<trkpt lat="27.560444" lon="98.817369">
<time>2014-08-05T03:32:00Z</time></trkpt>
<trkpt lat="27.560494" lon="98.817309">
<time>2014-08-05T03:32:01Z</time></trkpt>
<trkpt lat="27.560544" lon="98.817249">
<time>2014-08-05T03:32:02Z</time></trkpt>
<trkpt lat="27.560654" lon="98.817149">
<time>2014-08-05T03:32:03Z</time></trkpt>
<trkpt lat="27.560714" lon="98.817089">
<time>2014-08-05T03:32:04Z</time></trkpt>
<trkpt lat="27.560763" lon="98.817049">
<time>2014-08-05T03:32:05Z</time></trkpt>
<trkpt lat="27.560793" lon="98.817029">
<time>2014-08-05T03:32:06Z</time></trkpt>
<trkpt lat="27.560833" lon="98.816978">
<time>2014-08-05T03:32:07Z</time></trkpt>
<trkpt lat="27.560873" lon="98.816938">
<time>2014-08-05T03:32:08Z</time></trkpt>
<trkpt lat="27.560943" lon="98.816858">
<time>2014-08-05T03:32:09Z</time></trkpt>
<trkpt lat="27.561023" lon="98.816738">
<time>2014-08-05T03:32:10Z</time></trkpt>
<trkpt lat="27.561083" lon="98.816628">
<time>2014-08-05T03:32:11Z</time></trkpt>
<trkpt lat="27.561212" lon="98.816408">
<time>2014-08-05T03:32:12Z</time></trkpt>
<trkpt lat="27.561322" lon="98.816228">
<time>2014-08-05T03:32:13Z</time></trkpt>
<trkpt lat="27.561442" lon="98.816077">
<time>2014-08-05T03:32:14Z</time></trkpt>
<trkpt lat="27.561581" lon="98.815897">
<time>2014-08-05T03:32:15Z</time></trkpt>
<trkpt lat="27.561691" lon="98.815757">
<time>2014-08-05T03:32:16Z</time></trkpt>
<trkpt lat="27.561771" lon="98.815627">
<time>2014-08-05T03:32:17Z</time></trkpt>
<trkpt lat="27.561841" lon="98.815497">
<time>2014-08-05T03:32:18Z</time></trkpt>
<trkpt lat="27.56196" lon="98.815216">
<time>2014-08-05T03:32:19Z</time></trkpt>
<trkpt lat="27.56208" lon="98.814936">
<time>2014-08-05T03:32:20Z</time></trkpt>
<trkpt lat="27.562159" lon="98.814716">
<time>2014-08-05T03:32:21Z</time></trkpt>
<trkpt lat="27.562318" lon="98.814315">
<time>2014-08-05T03:32:22Z</time></trkpt>
<trkpt lat="27.562378" lon="98.814155">
<time>2014-08-05T03:32:23Z</time></trkpt>
<trkpt lat="27.562428" lon="98.813995">
<time>2014-08-05T03:32:24Z</time></trkpt>
<trkpt lat="27.562468" lon="98.813874">
<time>2014-08-05T03:32:25Z</time></trkpt>
<trkpt lat="27.562488" lon="98.813834">
<time>2014-08-05T03:32:26Z</time></trkpt>
<trkpt lat="27.562508" lon="98.813794">
<time>2014-08-05T03:32:27Z</time></trkpt>
<trkpt lat="27.562537" lon="98.813764">
<time>2014-08-05T03:32:28Z</time></trkpt>
<trkpt lat="27.562577" lon="98.813714">
<time>2014-08-05T03:32:29Z</time></trkpt>
<trkpt lat="27.562607" lon="98.813684">
<time>2014-08-05T03:32:30Z</time></trkpt>
<trkpt lat="27.562697" lon="98.813604">
<time>2014-08-05T03:32:31Z</time></trkpt>
<trkpt lat="27.562847" lon="98.813484">
<time>2014-08-05T03:32:32Z</time></trkpt>
<trkpt lat="27.562987" lon="98.813374">
<time>2014-08-05T03:32:33Z</time></trkpt>
<trkpt lat="27.563117" lon="98.813234">
<time>2014-08-05T03:32:34Z</time></trkpt>
<trkpt lat="27.563196" lon="98.813134">
<time>2014-08-05T03:32:35Z</time></trkpt>
<trkpt lat="27.563326" lon="98.812923">
<time>2014-08-05T03:32:36Z</time></trkpt>
<trkpt lat="27.563685" lon="98.812322">
<time>2014-08-05T03:32:37Z</time></trkpt>
<trkpt lat="27.563725" lon="98.812262">
<time>2014-08-05T03:32:38Z</time></trkpt>
<trkpt lat="27.563765" lon="98.812212">
<time>2014-08-05T03:32:39Z</time></trkpt>
<trkpt lat="27.563815" lon="98.812172">
<time>2014-08-05T03:32:40Z</time></trkpt>
<trkpt lat="27.563895" lon="98.812112">
<time>2014-08-05T03:32:41Z</time></trkpt>
<trkpt lat="27.564154" lon="98.811962">
<time>2014-08-05T03:32:42Z</time></trkpt>
<trkpt lat="27.564354" lon="98.811852">
<time>2014-08-05T03:32:43Z</time></trkpt>
<trkpt lat="27.564604" lon="98.811692">
<time>2014-08-05T03:32:44Z</time></trkpt>
<trkpt lat="27.564664" lon="98.811652">
<time>2014-08-05T03:32:45Z</time></trkpt>
<trkpt lat="27.564744" lon="98.811612">
<time>2014-08-05T03:32:46Z</time></trkpt>
<trkpt lat="27.564854" lon="98.811551">
<time>2014-08-05T03:32:47Z</time></trkpt>
<trkpt lat="27.564983" lon="98.811501">
<time>2014-08-05T03:32:48Z</time></trkpt>
<trkpt lat="27.565063" lon="98.811461">
<time>2014-08-05T03:32:49Z</time></trkpt>
<trkpt lat="27.565163" lon="98.811421">
<time>2014-08-05T03:32:50Z</time></trkpt>
<trkpt lat="27.565393" lon="98.811341">
<time>2014-08-05T03:32:51Z</time></trkpt>
<trkpt lat="27.565523" lon="98.811311">
<time>2014-08-05T03:32:52Z</time></trkpt>
<trkpt lat="27.565693" lon="98.811281">
<time>2014-08-05T03:32:53Z</time></trkpt>
<trkpt lat="27.565883" lon="98.811251">
<time>2014-08-05T03:32:54Z</time></trkpt>
<trkpt lat="27.566043" lon="98.811221">
<time>2014-08-05T03:32:55Z</time></trkpt>
<trkpt lat="27.566243" lon="98.811171">
<time>2014-08-05T03:32:56Z</time></trkpt>
<trkpt lat="27.566483" lon="98.811111">
<time>2014-08-05T03:32:57Z</time></trkpt>
<trkpt lat="27.566613" lon="98.811081">
<time>2014-08-05T03:32:58Z</time></trkpt>
<trkpt lat="27.566753" lon="98.811051">
<time>2014-08-05T03:32:59Z</time></trkpt>
<trkpt lat="27.566833" lon="98.811021">
<time>2014-08-05T03:33:00Z</time></trkpt>
<trkpt lat="27.567032" lon="98.810951">
<time>2014-08-05T03:33:01Z</time></trkpt>
<trkpt lat="27.567222" lon="98.810861">
<time>2014-08-05T03:33:02Z</time></trkpt>
<trkpt lat="27.567442" lon="98.81075">
<time>2014-08-05T03:33:03Z</time></trkpt>
<trkpt lat="27.567722" lon="98.81061">
<time>2014-08-05T03:33:04Z</time></trkpt>
<trkpt lat="27.567892" lon="98.81052">
<time>2014-08-05T03:33:05Z</time></trkpt>
<trkpt lat="27.567972" lon="98.81049">
<time>2014-08-05T03:33:06Z</time></trkpt>
<trkpt lat="27.568072" lon="98.81045">
<time>2014-08-05T03:33:07Z</time></trkpt>
<trkpt lat="27.568172" lon="98.81041">
<time>2014-08-05T03:33:08Z</time></trkpt>
<trkpt lat="27.568271" lon="98.81038">
<time>2014-08-05T03:33:09Z</time></trkpt>
<trkpt lat="27.568321" lon="98.81037">
<time>2014-08-05T03:33:10Z</time></trkpt>
<trkpt lat="27.568461" lon="98.81033">
<time>2014-08-05T03:33:11Z</time></trkpt>
<trkpt lat="27.568671" lon="98.81027">
<time>2014-08-05T03:33:12Z</time></trkpt>
<trkpt lat="27.568771" lon="98.81023">
<time>2014-08-05T03:33:13Z</time></trkpt>
<trkpt lat="27.568861" lon="98.8102">
<time>2014-08-05T03:33:14Z</time></trkpt>
<trkpt lat="27.569061" lon="98.8101">
<time>2014-08-05T03:33:15Z</time></trkpt>
<trkpt lat="27.569431" lon="98.809889">
<time>2014-08-05T03:33:16Z</time></trkpt>
<trkpt lat="27.5696" lon="98.809809">
<time>2014-08-05T03:33:17Z</time></trkpt>
<trkpt lat="27.56972" lon="98.809759">
<time>2014-08-05T03:33:18Z</time></trkpt>
<trkpt lat="27.56981" lon="98.809729">
<time>2014-08-05T03:33:19Z</time></trkpt>
<trkpt lat="27.56987" lon="98.809719">
<time>2014-08-05T03:33:20Z</time></trkpt>
<trkpt lat="27.56994" lon="98.809709">
<time>2014-08-05T03:33:21Z</time></trkpt>
<trkpt lat="27.57002" lon="98.809699">
<time>2014-08-05T03:33:22Z</time></trkpt>
<trkpt lat="27.57013" lon="98.809699">
<time>2014-08-05T03:33:23Z</time></trkpt>
<trkpt lat="27.57015" lon="98.809709">
<time>2014-08-05T03:33:24Z</time></trkpt>
<trkpt lat="27.57025" lon="98.809709">
<time>2014-08-05T03:33:25Z</time></trkpt>
<trkpt lat="27.57035" lon="98.809729">
<time>2014-08-05T03:33:26Z</time></trkpt>
<trkpt lat="27.57052" lon="98.809749">
<time>2014-08-05T03:33:27Z</time></trkpt>
<trkpt lat="27.57066" lon="98.809759">
<time>2014-08-05T03:33:28Z</time></trkpt>
<trkpt lat="27.57081" lon="98.809769">
<time>2014-08-05T03:33:29Z</time></trkpt>
<trkpt lat="27.57089" lon="98.809759">
<time>2014-08-05T03:33:30Z</time></trkpt>
<trkpt lat="27.57096" lon="98.809739">
<time>2014-08-05T03:33:31Z</time></trkpt>
<trkpt lat="27.57106" lon="98.809719">
<time>2014-08-05T03:33:32Z</time></trkpt>
<trkpt lat="27.57121" lon="98.809649">
<time>2014-08-05T03:33:33Z</time></trkpt>
<trkpt lat="27.57134" lon="98.809589">
<time>2014-08-05T03:33:34Z</time></trkpt>
<trkpt lat="27.57158" lon="98.809469">
<time>2014-08-05T03:33:35Z</time></trkpt>
<trkpt lat="27.57167" lon="98.809429">
<time>2014-08-05T03:33:36Z</time></trkpt>
<trkpt lat="27.57176" lon="98.809389">
<time>2014-08-05T03:33:37Z</time></trkpt>
<trkpt lat="27.57186" lon="98.809339">
<time>2014-08-05T03:33:38Z</time></trkpt>
<trkpt lat="27.57202" lon="98.809279">
<time>2014-08-05T03:33:39Z</time></trkpt>
<trkpt lat="27.572169" lon="98.809219">
<time>2014-08-05T03:33:40Z</time></trkpt>
<trkpt lat="27.572269" lon="98.809158">
<time>2014-08-05T03:33:41Z</time></trkpt>
<trkpt lat="27.572369" lon="98.809098">
<time>2014-08-05T03:33:42Z</time></trkpt>
<trkpt lat="27.572539" lon="98.808958">
<time>2014-08-05T03:33:43Z</time></trkpt>
<trkpt lat="27.572669" lon="98.808848">
<time>2014-08-05T03:33:44Z</time></trkpt>
<trkpt lat="27.572709" lon="98.808818">
<time>2014-08-05T03:33:45Z</time></trkpt>
<trkpt lat="27.572829" lon="98.808748">
<time>2014-08-05T03:33:46Z</time></trkpt>
<trkpt lat="27.573068" lon="98.808638">
<time>2014-08-05T03:33:47Z</time></trkpt>
<trkpt lat="27.573158" lon="98.808588">
<time>2014-08-05T03:33:48Z</time></trkpt>
<trkpt lat="27.573248" lon="98.808538">
<time>2014-08-05T03:33:49Z</time></trkpt>
<trkpt lat="27.573298" lon="98.808498">
<time>2014-08-05T03:33:50Z</time></trkpt>
<trkpt lat="27.573568" lon="98.808277">
<time>2014-08-05T03:33:51Z</time></trkpt>
<trkpt lat="27.573887" lon="98.807997">
<time>2014-08-05T03:33:52Z</time></trkpt>
<trkpt lat="27.574107" lon="98.807787">
<time>2014-08-05T03:33:53Z</time></trkpt>
<trkpt lat="27.574167" lon="98.807747">
<time>2014-08-05T03:33:54Z</time></trkpt>
<trkpt lat="27.574207" lon="98.807727">
<time>2014-08-05T03:33:55Z</time></trkpt>
<trkpt lat="27.574247" lon="98.807707">
<time>2014-08-05T03:33:56Z</time></trkpt>
<trkpt lat="27.574257" lon="98.807707">
<time>2014-08-05T03:33:57Z</time></trkpt>
<trkpt lat="27.574297" lon="98.807707">
<time>2014-08-05T03:33:58Z</time></trkpt>
<trkpt lat="27.574317" lon="98.807707">
<time>2014-08-05T03:33:59Z</time></trkpt>
<trkpt lat="27.574337" lon="98.807707">
<time>2014-08-05T03:34:00Z</time></trkpt>
<trkpt lat="27.574357" lon="98.807707">
<time>2014-08-05T03:34:01Z</time></trkpt>
<trkpt lat="27.574367" lon="98.807707">
<time>2014-08-05T03:34:02Z</time></trkpt>
<trkpt lat="27.574397" lon="98.807717">
<time>2014-08-05T03:34:03Z</time></trkpt>
<trkpt lat="27.574427" lon="98.807727">
<time>2014-08-05T03:34:04Z</time></trkpt>
<trkpt lat="27.574447" lon="98.807737">
<time>2014-08-05T03:34:05Z</time></trkpt>
<trkpt lat="27.574467" lon="98.807747">
<time>2014-08-05T03:34:06Z</time></trkpt>
<trkpt lat="27.574497" lon="98.807777">
<time>2014-08-05T03:34:07Z</time></trkpt>
<trkpt lat="27.574527" lon="98.807797">
<time>2014-08-05T03:34:08Z</time></trkpt>
<trkpt lat="27.574557" lon="98.807827">
<time>2014-08-05T03:34:09Z</time></trkpt>
<trkpt lat="27.574597" lon="98.807877">
<time>2014-08-05T03:34:10Z</time></trkpt>
<trkpt lat="27.574637" lon="98.807917">
<time>2014-08-05T03:34:11Z</time></trkpt>
<trkpt lat="27.574667" lon="98.807937">
<time>2014-08-05T03:34:12Z</time></trkpt>
<trkpt lat="27.574707" lon="98.807967">
<time>2014-08-05T03:34:13Z</time></trkpt>
<trkpt lat="27.574747" lon="98.807977">
<time>2014-08-05T03:34:14Z</time></trkpt>
<trkpt lat="27.574777" lon="98.807987">
<time>2014-08-05T03:34:15Z</time></trkpt>
<trkpt lat="27.574807" lon="98.807997">
<time>2014-08-05T03:34:16Z</time></trkpt>
<trkpt lat="27.574837" lon="98.807997">
<time>2014-08-05T03:34:17Z</time></trkpt>
<trkpt lat="27.574977" lon="98.807997">
<time>2014-08-05T03:34:18Z</time></trkpt>
<trkpt lat="27.574987" lon="98.807997">
<time>2014-08-05T03:34:19Z</time></trkpt>
<trkpt lat="27.574997" lon="98.807997">
<time>2014-08-05T03:34:20Z</time></trkpt>
<trkpt lat="27.575047" lon="98.807997">
<time>2014-08-05T03:34:21Z</time></trkpt>
<trkpt lat="27.575087" lon="98.807987">
<time>2014-08-05T03:34:22Z</time></trkpt>
<trkpt lat="27.575097" lon="98.807987">
<time>2014-08-05T03:34:23Z</time></trkpt>
<trkpt lat="27.575107" lon="98.807977">
<time>2014-08-05T03:34:24Z</time></trkpt>
<trkpt lat="27.575117" lon="98.807967">
<time>2014-08-05T03:34:25Z</time></trkpt>
<trkpt lat="27.575137" lon="98.807967">
<time>2014-08-05T03:34:26Z</time></trkpt>
<trkpt lat="27.575147" lon="98.807947">
<time>2014-08-05T03:34:27Z</time></trkpt>
<trkpt lat="27.575167" lon="98.807937">
<time>2014-08-05T03:34:28Z</time></trkpt>
<trkpt lat="27.575177" lon="98.807917">
<time>2014-08-05T03:34:29Z</time></trkpt>
<trkpt lat="27.575197" lon="98.807897">
<time>2014-08-05T03:34:30Z</time></trkpt>
<trkpt lat="27.575207" lon="98.807877">
<time>2014-08-05T03:34:31Z</time></trkpt>
<trkpt lat="27.575207" lon="98.807857">
<time>2014-08-05T03:34:32Z</time></trkpt>
<trkpt lat="27.575217" lon="98.807837">
<time>2014-08-05T03:34:33Z</time></trkpt>
<trkpt lat="27.575227" lon="98.807817">
<time>2014-08-05T03:34:34Z</time></trkpt>
<trkpt lat="27.575227" lon="98.807797">
<time>2014-08-05T03:34:35Z</time></trkpt>
<trkpt lat="27.575237" lon="98.807787">
<time>2014-08-05T03:34:36Z</time></trkpt>
<trkpt lat="27.575237" lon="98.807767">
<time>2014-08-05T03:34:37Z</time></trkpt>
<trkpt lat="27.575237" lon="98.807617">
<time>2014-08-05T03:34:38Z</time></trkpt>
<trkpt lat="27.575216" lon="98.807276">
<time>2014-08-05T03:34:39Z</time></trkpt>
<trkpt lat="27.575206" lon="98.807116">
<time>2014-08-05T03:34:40Z</time></trkpt>
<trkpt lat="27.575175" lon="98.806876">
<time>2014-08-05T03:34:41Z</time></trkpt>
<trkpt lat="27.575135" lon="98.806685">
<time>2014-08-05T03:34:42Z</time></trkpt>
<trkpt lat="27.575085" lon="98.806445">
<time>2014-08-05T03:34:43Z</time></trkpt>
<trkpt lat="27.575075" lon="98.806335">
<time>2014-08-05T03:34:44Z</time></trkpt>
<trkpt lat="27.575074" lon="98.806265">
<time>2014-08-05T03:34:45Z</time></trkpt>
<trkpt lat="27.575084" lon="98.806175">
<time>2014-08-05T03:34:46Z</time></trkpt>
<trkpt lat="27.575104" lon="98.806125">
<time>2014-08-05T03:34:47Z</time></trkpt>
<trkpt lat="27.575124" lon="98.806075">
<time>2014-08-05T03:34:48Z</time></trkpt>
<trkpt lat="27.575144" lon="98.806035">
<time>2014-08-05T03:34:49Z</time></trkpt>
<trkpt lat="27.575164" lon="98.805975">
<time>2014-08-05T03:34:50Z</time></trkpt>
<trkpt lat="27.575194" lon="98.805925">
<time>2014-08-05T03:34:51Z</time></trkpt>
<trkpt lat="27.575254" lon="98.805864">
<time>2014-08-05T03:34:52Z</time></trkpt>
<trkpt lat="27.575354" lon="98.805764">
<time>2014-08-05T03:34:53Z</time></trkpt>
<trkpt lat="27.575443" lon="98.805644">
<time>2014-08-05T03:34:54Z</time></trkpt>
<trkpt lat="27.575493" lon="98.805584">
<time>2014-08-05T03:34:55Z</time></trkpt>
<trkpt lat="27.575523" lon="98.805524">
<time>2014-08-05T03:34:56Z</time></trkpt>
<trkpt lat="27.575563" lon="98.805454">
<time>2014-08-05T03:34:57Z</time></trkpt>
<trkpt lat="27.575593" lon="98.805404">
<time>2014-08-05T03:34:58Z</time></trkpt>
<trkpt lat="27.575702" lon="98.805134">
<time>2014-08-05T03:34:59Z</time></trkpt>
<trkpt lat="27.575882" lon="98.804633">
<time>2014-08-05T03:35:00Z</time></trkpt>
<trkpt lat="27.57618" lon="98.803912">
<time>2014-08-05T03:35:01Z</time></trkpt>
<trkpt lat="27.576519" lon="98.803051">
<time>2014-08-05T03:35:02Z</time></trkpt>
<trkpt lat="27.576678" lon="98.802591">
<time>2014-08-05T03:35:03Z</time></trkpt>
<trkpt lat="27.576788" lon="98.80229">
<time>2014-08-05T03:35:04Z</time></trkpt>
<trkpt lat="27.576917" lon="98.80203">
<time>2014-08-05T03:35:05Z</time></trkpt>
<trkpt lat="27.577027" lon="98.80183">
<time>2014-08-05T03:35:06Z</time></trkpt>
<trkpt lat="27.577366" lon="98.801259">
<time>2014-08-05T03:35:07Z</time></trkpt>
<trkpt lat="27.577566" lon="98.800899">
<time>2014-08-05T03:35:08Z</time></trkpt>
<trkpt lat="27.578054" lon="98.799908">
<time>2014-08-05T03:35:09Z</time></trkpt>
<trkpt lat="27.578154" lon="98.799688">
<time>2014-08-05T03:35:10Z</time></trkpt>
<trkpt lat="27.578283" lon="98.799467">
<time>2014-08-05T03:35:11Z</time></trkpt>
<trkpt lat="27.578363" lon="98.799337">
<time>2014-08-05T03:35:12Z</time></trkpt>
<trkpt lat="27.578463" lon="98.799217">
<time>2014-08-05T03:35:13Z</time></trkpt>
<trkpt lat="27.578533" lon="98.799127">
<time>2014-08-05T03:35:14Z</time></trkpt>
<trkpt lat="27.578662" lon="98.798997">
<time>2014-08-05T03:35:15Z</time></trkpt>
<trkpt lat="27.578722" lon="98.798927">
<time>2014-08-05T03:35:16Z</time></trkpt>
<trkpt lat="27.578812" lon="98.798837">
<time>2014-08-05T03:35:17Z</time></trkpt>
<trkpt lat="27.578902" lon="98.798737">
<time>2014-08-05T03:35:18Z</time></trkpt>
<trkpt lat="27.579042" lon="98.798556">
<time>2014-08-05T03:35:19Z</time></trkpt>
<trkpt lat="27.579112" lon="98.798476">
<time>2014-08-05T03:35:20Z</time></trkpt>
<trkpt lat="27.579192" lon="98.798376">
<time>2014-08-05T03:35:21Z</time></trkpt>
<trkpt lat="27.579351" lon="98.798166">
<time>2014-08-05T03:35:22Z</time></trkpt>
<trkpt lat="27.579491" lon="98.798036">
<time>2014-08-05T03:35:23Z</time></trkpt>
<trkpt lat="27.579641" lon="98.797876">
<time>2014-08-05T03:35:24Z</time></trkpt>
<trkpt lat="27.57982" lon="98.797646">
<time>2014-08-05T03:35:25Z</time></trkpt>
<trkpt lat="27.57997" lon="98.797425">
<time>2014-08-05T03:35:26Z</time></trkpt>
<trkpt lat="27.5801" lon="98.797235">
<time>2014-08-05T03:35:27Z</time></trkpt>
<trkpt lat="27.580229" lon="98.797015">
<time>2014-08-05T03:35:28Z</time></trkpt>
<trkpt lat="27.580299" lon="98.796905">
<time>2014-08-05T03:35:29Z</time></trkpt>
<trkpt lat="27.580439" lon="98.796665">
<time>2014-08-05T03:35:30Z</time></trkpt>
<trkpt lat="27.580599" lon="98.796484">
<time>2014-08-05T03:35:31Z</time></trkpt>
<trkpt lat="27.580778" lon="98.796264">
<time>2014-08-05T03:35:32Z</time></trkpt>
<trkpt lat="27.580878" lon="98.796124">
<time>2014-08-05T03:35:33Z</time></trkpt>
<trkpt lat="27.580968" lon="98.795984">
<time>2014-08-05T03:35:34Z</time></trkpt>
<trkpt lat="27.581028" lon="98.795884">
<time>2014-08-05T03:35:35Z</time></trkpt>
<trkpt lat="27.581108" lon="98.795764">
<time>2014-08-05T03:35:36Z</time></trkpt>
<trkpt lat="27.581217" lon="98.795564">
<time>2014-08-05T03:35:37Z</time></trkpt>
<trkpt lat="27.581397" lon="98.795273">
<time>2014-08-05T03:35:38Z</time></trkpt>
<trkpt lat="27.581537" lon="98.795083">
<time>2014-08-05T03:35:39Z</time></trkpt>
<trkpt lat="27.581666" lon="98.794923">
<time>2014-08-05T03:35:40Z</time></trkpt>
<trkpt lat="27.581786" lon="98.794773">
<time>2014-08-05T03:35:41Z</time></trkpt>
<trkpt lat="27.581876" lon="98.794653">
<time>2014-08-05T03:35:42Z</time></trkpt>
<trkpt lat="27.581956" lon="98.794533">
<time>2014-08-05T03:35:43Z</time></trkpt>
<trkpt lat="27.582046" lon="98.794392">
<time>2014-08-05T03:35:44Z</time></trkpt>
<trkpt lat="27.582185" lon="98.794192">
<time>2014-08-05T03:35:45Z</time></trkpt>
<trkpt lat="27.582405" lon="98.793912">
<time>2014-08-05T03:35:46Z</time></trkpt>
<trkpt lat="27.582744" lon="98.793542">
<time>2014-08-05T03:35:47Z</time></trkpt>
<trkpt lat="27.582814" lon="98.793472">
<time>2014-08-05T03:35:48Z</time></trkpt>
<trkpt lat="27.582874" lon="98.793412">
<time>2014-08-05T03:35:49Z</time></trkpt>
<trkpt lat="27.582964" lon="98.793341">
<time>2014-08-05T03:35:50Z</time></trkpt>
<trkpt lat="27.583074" lon="98.793251">
<time>2014-08-05T03:35:51Z</time></trkpt>
<trkpt lat="27.583144" lon="98.793191">
<time>2014-08-05T03:35:52Z</time></trkpt>
<trkpt lat="27.583194" lon="98.793141">
<time>2014-08-05T03:35:53Z</time></trkpt>
<trkpt lat="27.583214" lon="98.793111">
<time>2014-08-05T03:35:54Z</time></trkpt>
<trkpt lat="27.583244" lon="98.793081">
<time>2014-08-05T03:35:55Z</time></trkpt>
<trkpt lat="27.583254" lon="98.793061">
<time>2014-08-05T03:35:56Z</time></trkpt>
<trkpt lat="27.583264" lon="98.793031">
<time>2014-08-05T03:35:57Z</time></trkpt>
<trkpt lat="27.583294" lon="98.792981">
<time>2014-08-05T03:35:58Z</time></trkpt>
<trkpt lat="27.583313" lon="98.792911">
<time>2014-08-05T03:35:59Z</time></trkpt>
<trkpt lat="27.583353" lon="98.792791">
<time>2014-08-05T03:36:00Z</time></trkpt>
<trkpt lat="27.583443" lon="98.792551">
<time>2014-08-05T03:36:01Z</time></trkpt>
<trkpt lat="27.583463" lon="98.792491">
<time>2014-08-05T03:36:02Z</time></trkpt>
<trkpt lat="27.583493" lon="98.792441">
<time>2014-08-05T03:36:03Z</time></trkpt>
<trkpt lat="27.583523" lon="98.792391">
<time>2014-08-05T03:36:04Z</time></trkpt>
<trkpt lat="27.583952" lon="98.79184">
<time>2014-08-05T03:36:05Z</time></trkpt>
<trkpt lat="27.584221" lon="98.79147">
<time>2014-08-05T03:36:06Z</time></trkpt>
<trkpt lat="27.584291" lon="98.79136">
<time>2014-08-05T03:36:07Z</time></trkpt>
<trkpt lat="27.584351" lon="98.79124">
<time>2014-08-05T03:36:08Z</time></trkpt>
<trkpt lat="27.584421" lon="98.791049">
<time>2014-08-05T03:36:09Z</time></trkpt>
<trkpt lat="27.584471" lon="98.790889">
<time>2014-08-05T03:36:10Z</time></trkpt>
<trkpt lat="27.5845" lon="98.790789">
<time>2014-08-05T03:36:11Z</time></trkpt>
<trkpt lat="27.58452" lon="98.790679">
<time>2014-08-05T03:36:12Z</time></trkpt>
<trkpt lat="27.58454" lon="98.790549">
<time>2014-08-05T03:36:13Z</time></trkpt>
<trkpt lat="27.58456" lon="98.790319">
<time>2014-08-05T03:36:14Z</time></trkpt>
<trkpt lat="27.58459" lon="98.790169">
<time>2014-08-05T03:36:15Z</time></trkpt>
<trkpt lat="27.58459" lon="98.790139">
<time>2014-08-05T03:36:16Z</time></trkpt>
<trkpt lat="27.584609" lon="98.790089">
<time>2014-08-05T03:36:17Z</time></trkpt>
<trkpt lat="27.584629" lon="98.790039">
<time>2014-08-05T03:36:18Z</time></trkpt>
<trkpt lat="27.584659" lon="98.789969">
<time>2014-08-05T03:36:19Z</time></trkpt>
<trkpt lat="27.584739" lon="98.789808">
<time>2014-08-05T03:36:20Z</time></trkpt>
<trkpt lat="27.584829" lon="98.789578">
<time>2014-08-05T03:36:21Z</time></trkpt>
<trkpt lat="27.585128" lon="98.788808">
<time>2014-08-05T03:36:22Z</time></trkpt>
<trkpt lat="27.585287" lon="98.788457">
<time>2014-08-05T03:36:23Z</time></trkpt>
<trkpt lat="27.585387" lon="98.788297">
<time>2014-08-05T03:36:24Z</time></trkpt>
<trkpt lat="27.585796" lon="98.787677">
<time>2014-08-05T03:36:25Z</time></trkpt>
<trkpt lat="27.585876" lon="98.787567">
<time>2014-08-05T03:36:26Z</time></trkpt>
<trkpt lat="27.585956" lon="98.787477">
<time>2014-08-05T03:36:27Z</time></trkpt>
<trkpt lat="27.586116" lon="98.787327">
<time>2014-08-05T03:36:28Z</time></trkpt>
<trkpt lat="27.586296" lon="98.787156">
<time>2014-08-05T03:36:29Z</time></trkpt>
<trkpt lat="27.586406" lon="98.787056">
<time>2014-08-05T03:36:30Z</time></trkpt>
<trkpt lat="27.586465" lon="98.786986">
<time>2014-08-05T03:36:31Z</time></trkpt>
<trkpt lat="27.586515" lon="98.786936">
<time>2014-08-05T03:36:32Z</time></trkpt>
<trkpt lat="27.586575" lon="98.786846">
<time>2014-08-05T03:36:33Z</time></trkpt>
<trkpt lat="27.586655" lon="98.786726">
<time>2014-08-05T03:36:34Z</time></trkpt>
<trkpt lat="27.586905" lon="98.786306">
<time>2014-08-05T03:36:35Z</time></trkpt>
<trkpt lat="27.587024" lon="98.786146">
<time>2014-08-05T03:36:36Z</time></trkpt>
<trkpt lat="27.587154" lon="98.785976">
<time>2014-08-05T03:36:37Z</time></trkpt>
<trkpt lat="27.587284" lon="98.785846">
<time>2014-08-05T03:36:38Z</time></trkpt>
<trkpt lat="27.587484" lon="98.785655">
<time>2014-08-05T03:36:39Z</time></trkpt>
<trkpt lat="27.587893" lon="98.785255">
<time>2014-08-05T03:36:40Z</time></trkpt>
<trkpt lat="27.587983" lon="98.785175">
<time>2014-08-05T03:36:41Z</time></trkpt>
<trkpt lat="27.588043" lon="98.785125">
<time>2014-08-05T03:36:42Z</time></trkpt>
<trkpt lat="27.588093" lon="98.785085">
<time>2014-08-05T03:36:43Z</time></trkpt>
<trkpt lat="27.588133" lon="98.785065">
<time>2014-08-05T03:36:44Z</time></trkpt>
<trkpt lat="27.588163" lon="98.785045">
<time>2014-08-05T03:36:45Z</time></trkpt>
<trkpt lat="27.588213" lon="98.785015">
<time>2014-08-05T03:36:46Z</time></trkpt>
<trkpt lat="27.588243" lon="98.784995">
<time>2014-08-05T03:36:47Z</time></trkpt>
<trkpt lat="27.588283" lon="98.784985">
<time>2014-08-05T03:36:48Z</time></trkpt>
<trkpt lat="27.588323" lon="98.784975">
<time>2014-08-05T03:36:49Z</time></trkpt>
<trkpt lat="27.588433" lon="98.784935">
<time>2014-08-05T03:36:50Z</time></trkpt>
<trkpt lat="27.588823" lon="98.784805">
<time>2014-08-05T03:36:51Z</time></trkpt>
<trkpt lat="27.588963" lon="98.784745">
<time>2014-08-05T03:36:52Z</time></trkpt>
<trkpt lat="27.589143" lon="98.784675">
<time>2014-08-05T03:36:53Z</time></trkpt>
<trkpt lat="27.589233" lon="98.784625">
<time>2014-08-05T03:36:54Z</time></trkpt>
<trkpt lat="27.589352" lon="98.784555">
<time>2014-08-05T03:36:55Z</time></trkpt>
<trkpt lat="27.589712" lon="98.784315">
<time>2014-08-05T03:36:56Z</time></trkpt>
<trkpt lat="27.590192" lon="98.783994">
<time>2014-08-05T03:36:57Z</time></trkpt>
<trkpt lat="27.590482" lon="98.783834">
<time>2014-08-05T03:36:58Z</time></trkpt>
<trkpt lat="27.590731" lon="98.783714">
<time>2014-08-05T03:36:59Z</time></trkpt>
<trkpt lat="27.591191" lon="98.783444">
<time>2014-08-05T03:37:00Z</time></trkpt>
<trkpt lat="27.591561" lon="98.783204">
<time>2014-08-05T03:37:01Z</time></trkpt>
<trkpt lat="27.59245" lon="98.782633">
<time>2014-08-05T03:37:02Z</time></trkpt>
<trkpt lat="27.59266" lon="98.782503">
<time>2014-08-05T03:37:03Z</time></trkpt>
<trkpt lat="27.5929" lon="98.782383">
<time>2014-08-05T03:37:04Z</time></trkpt>
<trkpt lat="27.59336" lon="98.782183">
<time>2014-08-05T03:37:05Z</time></trkpt>
<trkpt lat="27.59349" lon="98.782123">
<time>2014-08-05T03:37:06Z</time></trkpt>
<trkpt lat="27.59362" lon="98.782053">
<time>2014-08-05T03:37:07Z</time></trkpt>
<trkpt lat="27.59373" lon="98.781973">
<time>2014-08-05T03:37:08Z</time></trkpt>
<trkpt lat="27.593829" lon="98.781903">
<time>2014-08-05T03:37:09Z</time></trkpt>
<trkpt lat="27.593989" lon="98.781773">
<time>2014-08-05T03:37:10Z</time></trkpt>
<trkpt lat="27.594139" lon="98.781633">
<time>2014-08-05T03:37:11Z</time></trkpt>
<trkpt lat="27.594289" lon="98.781503">
<time>2014-08-05T03:37:12Z</time></trkpt>
<trkpt lat="27.594409" lon="98.781393">
<time>2014-08-05T03:37:13Z</time></trkpt>
<trkpt lat="27.594809" lon="98.781043">
<time>2014-08-05T03:37:14Z</time></trkpt>
<trkpt lat="27.595208" lon="98.780682">
<time>2014-08-05T03:37:15Z</time></trkpt>
<trkpt lat="27.595648" lon="98.780302">
<time>2014-08-05T03:37:16Z</time></trkpt>
<trkpt lat="27.595758" lon="98.780172">
<time>2014-08-05T03:37:17Z</time></trkpt>
<trkpt lat="27.595917" lon="98.779972">
<time>2014-08-05T03:37:18Z</time></trkpt>
<trkpt lat="27.595987" lon="98.779882">
<time>2014-08-05T03:37:19Z</time></trkpt>
<trkpt lat="27.596097" lon="98.779752">
<time>2014-08-05T03:37:20Z</time></trkpt>
<trkpt lat="27.596237" lon="98.779592">
<time>2014-08-05T03:37:21Z</time></trkpt>
<trkpt lat="27.596517" lon="98.779352">
<time>2014-08-05T03:37:22Z</time></trkpt>
<trkpt lat="27.596637" lon="98.779272">
<time>2014-08-05T03:37:23Z</time></trkpt>
<trkpt lat="27.596747" lon="98.779212">
<time>2014-08-05T03:37:24Z</time></trkpt>
<trkpt lat="27.596847" lon="98.779172">
<time>2014-08-05T03:37:25Z</time></trkpt>
<trkpt lat="27.596937" lon="98.779142">
<time>2014-08-05T03:37:26Z</time></trkpt>
<trkpt lat="27.596977" lon="98.779122">
<time>2014-08-05T03:37:27Z</time></trkpt>
<trkpt lat="27.597027" lon="98.779092">
<time>2014-08-05T03:37:28Z</time></trkpt>
<trkpt lat="27.597057" lon="98.779072">
<time>2014-08-05T03:37:29Z</time></trkpt>
<trkpt lat="27.597086" lon="98.779042">
<time>2014-08-05T03:37:30Z</time></trkpt>
<trkpt lat="27.597136" lon="98.778972">
<time>2014-08-05T03:37:31Z</time></trkpt>
<trkpt lat="27.597186" lon="98.778892">
<time>2014-08-05T03:37:32Z</time></trkpt>
<trkpt lat="27.597366" lon="98.778611">
<time>2014-08-05T03:37:33Z</time></trkpt>
<trkpt lat="27.597416" lon="98.778521">
<time>2014-08-05T03:37:34Z</time></trkpt>
<trkpt lat="27.597506" lon="98.778381">
<time>2014-08-05T03:37:35Z</time></trkpt>
<trkpt lat="27.597795" lon="98.777911">
<time>2014-08-05T03:37:36Z</time></trkpt>
<trkpt lat="27.597845" lon="98.777861">
<time>2014-08-05T03:37:37Z</time></trkpt>
<trkpt lat="27.597915" lon="98.777791">
<time>2014-08-05T03:37:38Z</time></trkpt>
<trkpt lat="27.597975" lon="98.777741">
<time>2014-08-05T03:37:39Z</time></trkpt>
<trkpt lat="27.598165" lon="98.777611">
<time>2014-08-05T03:37:40Z</time></trkpt>
<trkpt lat="27.598365" lon="98.777471">
<time>2014-08-05T03:37:41Z</time></trkpt>
<trkpt lat="27.598605" lon="98.777281">
<time>2014-08-05T03:37:42Z</time></trkpt>
<trkpt lat="27.598635" lon="98.777251">
<time>2014-08-05T03:37:43Z</time></trkpt>
<trkpt lat="27.598705" lon="98.777171">
<time>2014-08-05T03:37:44Z</time></trkpt>
<trkpt lat="27.598824" lon="98.777031">
<time>2014-08-05T03:37:45Z</time></trkpt>
<trkpt lat="27.599094" lon="98.776691">
<time>2014-08-05T03:37:46Z</time></trkpt>
<trkpt lat="27.599364" lon="98.7764">
<time>2014-08-05T03:37:47Z</time></trkpt>
<trkpt lat="27.599784" lon="98.77597">
<time>2014-08-05T03:37:48Z</time></trkpt>
<trkpt lat="27.600113" lon="98.77569">
<time>2014-08-05T03:37:49Z</time></trkpt>
<trkpt lat="27.600463" lon="98.77543">
<time>2014-08-05T03:37:50Z</time></trkpt>
<trkpt lat="27.600693" lon="98.77528">
<time>2014-08-05T03:37:51Z</time></trkpt>
<trkpt lat="27.600913" lon="98.77515">
<time>2014-08-05T03:37:52Z</time></trkpt>
<trkpt lat="27.601093" lon="98.77506">
<time>2014-08-05T03:37:53Z</time></trkpt>
<trkpt lat="27.601253" lon="98.77498">
<time>2014-08-05T03:37:54Z</time></trkpt>
<trkpt lat="27.601543" lon="98.77485">
<time>2014-08-05T03:37:55Z</time></trkpt>
<trkpt lat="27.601593" lon="98.77483">
<time>2014-08-05T03:37:56Z</time></trkpt>
<trkpt lat="27.601622" lon="98.77481">
<time>2014-08-05T03:37:57Z</time></trkpt>
<trkpt lat="27.601702" lon="98.77476">
<time>2014-08-05T03:37:58Z</time></trkpt>
<trkpt lat="27.601842" lon="98.77467">
<time>2014-08-05T03:37:59Z</time></trkpt>
<trkpt lat="27.602152" lon="98.77444">
<time>2014-08-05T03:38:00Z</time></trkpt>
<trkpt lat="27.602242" lon="98.77439">
<time>2014-08-05T03:38:01Z</time></trkpt>
<trkpt lat="27.602282" lon="98.77436">
<time>2014-08-05T03:38:02Z</time></trkpt>
<trkpt lat="27.602312" lon="98.77435">
<time>2014-08-05T03:38:03Z</time></trkpt>
<trkpt lat="27.602342" lon="98.77433">
<time>2014-08-05T03:38:04Z</time></trkpt>
<trkpt lat="27.602372" lon="98.77431">
<time>2014-08-05T03:38:05Z</time></trkpt>
<trkpt lat="27.602442" lon="98.77428">
<time>2014-08-05T03:38:06Z</time></trkpt>
<trkpt lat="27.602512" lon="98.77424">
<time>2014-08-05T03:38:07Z</time></trkpt>
<trkpt lat="27.602552" lon="98.77423">
<time>2014-08-05T03:38:08Z</time></trkpt>
<trkpt lat="27.602602" lon="98.77421">
<time>2014-08-05T03:38:09Z</time></trkpt>
<trkpt lat="27.602682" lon="98.77417">
<time>2014-08-05T03:38:10Z</time></trkpt>
<trkpt lat="27.602772" lon="98.77413">
<time>2014-08-05T03:38:11Z</time></trkpt>
<trkpt lat="27.602832" lon="98.7741">
<time>2014-08-05T03:38:12Z</time></trkpt>
<trkpt lat="27.603192" lon="98.77395">
<time>2014-08-05T03:38:13Z</time></trkpt>
<trkpt lat="27.603312" lon="98.7739">
<time>2014-08-05T03:38:14Z</time></trkpt>
<trkpt lat="27.603412" lon="98.77384">
<time>2014-08-05T03:38:15Z</time></trkpt>
<trkpt lat="27.603482" lon="98.77379">
<time>2014-08-05T03:38:16Z</time></trkpt>
<trkpt lat="27.603602" lon="98.77369">
<time>2014-08-05T03:38:17Z</time></trkpt>
<trkpt lat="27.603682" lon="98.7736">
<time>2014-08-05T03:38:18Z</time></trkpt>
<trkpt lat="27.603771" lon="98.7735">
<time>2014-08-05T03:38:19Z</time></trkpt>
<trkpt lat="27.603851" lon="98.77343">
<time>2014-08-05T03:38:20Z</time></trkpt>
<trkpt lat="27.603881" lon="98.7734">
<time>2014-08-05T03:38:21Z</time></trkpt>
<trkpt lat="27.603921" lon="98.773369">
<time>2014-08-05T03:38:22Z</time></trkpt>
<trkpt lat="27.603981" lon="98.773329">
<time>2014-08-05T03:38:23Z</time></trkpt>
<trkpt lat="27.604061" lon="98.773279">
<time>2014-08-05T03:38:24Z</time></trkpt>
<trkpt lat="27.604071" lon="98.773269">
<time>2014-08-05T03:38:25Z</time></trkpt>
<trkpt lat="27.604081" lon="98.773269">
<time>2014-08-05T03:38:26Z</time></trkpt>
<trkpt lat="27.604091" lon="98.773269">
<time>2014-08-05T03:38:27Z</time></trkpt>
<trkpt lat="27.604121" lon="98.773249">
<time>2014-08-05T03:38:28Z</time></trkpt>
<trkpt lat="27.604161" lon="98.773239">
<time>2014-08-05T03:38:29Z</time></trkpt>
<trkpt lat="27.604171" lon="98.773239">
<time>2014-08-05T03:38:30Z</time></trkpt>
<trkpt lat="27.604181" lon="98.773239">
<time>2014-08-05T03:38:31Z</time></trkpt>
<trkpt lat="27.604181" lon="98.773229">
<time>2014-08-05T03:38:32Z</time></trkpt>
<trkpt lat="27.604231" lon="98.773219">
<time>2014-08-05T03:38:33Z</time></trkpt>
<trkpt lat="27.604291" lon="98.773209">
<time>2014-08-05T03:38:34Z</time></trkpt>
<trkpt lat="27.604351" lon="98.773209">
<time>2014-08-05T03:38:35Z</time></trkpt>
<trkpt lat="27.604561" lon="98.773199">
<time>2014-08-05T03:38:36Z</time></trkpt>
<trkpt lat="27.604641" lon="98.773189">
<time>2014-08-05T03:38:37Z</time></trkpt>
<trkpt lat="27.604761" lon="98.773179">
<time>2014-08-05T03:38:38Z</time></trkpt>
<trkpt lat="27.604821" lon="98.773169">
<time>2014-08-05T03:38:39Z</time></trkpt>
<trkpt lat="27.604921" lon="98.773139">
<time>2014-08-05T03:38:40Z</time></trkpt>
<trkpt lat="27.605011" lon="98.773099">
<time>2014-08-05T03:38:41Z</time></trkpt>
<trkpt lat="27.605151" lon="98.773019">
<time>2014-08-05T03:38:42Z</time></trkpt>
<trkpt lat="27.605301" lon="98.772929">
<time>2014-08-05T03:38:43Z</time></trkpt>
<trkpt lat="27.605441" lon="98.772839">
<time>2014-08-05T03:38:44Z</time></trkpt>
<trkpt lat="27.605841" lon="98.772589">
<time>2014-08-05T03:38:45Z</time></trkpt>
<trkpt lat="27.605991" lon="98.772499">
<time>2014-08-05T03:38:46Z</time></trkpt>
<trkpt lat="27.606131" lon="98.772439">
<time>2014-08-05T03:38:47Z</time></trkpt>
<trkpt lat="27.606281" lon="98.772379">
<time>2014-08-05T03:38:48Z</time></trkpt>
<trkpt lat="27.606431" lon="98.772319">
<time>2014-08-05T03:38:49Z</time></trkpt>
<trkpt lat="27.60657" lon="98.772249">
<time>2014-08-05T03:38:50Z</time></trkpt>
<trkpt lat="27.60671" lon="98.772169">
<time>2014-08-05T03:38:51Z</time></trkpt>
<trkpt lat="27.60701" lon="98.771959">
<time>2014-08-05T03:38:52Z</time></trkpt>
<trkpt lat="27.60718" lon="98.771849">
<time>2014-08-05T03:38:53Z</time></trkpt>
<trkpt lat="27.60729" lon="98.771779">
<time>2014-08-05T03:38:54Z</time></trkpt>
<trkpt lat="27.60757" lon="98.771639">
<time>2014-08-05T03:38:55Z</time></trkpt>
<trkpt lat="27.60781" lon="98.771529">
<time>2014-08-05T03:38:56Z</time></trkpt>
<trkpt lat="27.60816" lon="98.771379">
<time>2014-08-05T03:38:57Z</time></trkpt>
<trkpt lat="27.60836" lon="98.771299">
<time>2014-08-05T03:38:58Z</time></trkpt>
<trkpt lat="27.60852" lon="98.771239">
<time>2014-08-05T03:38:59Z</time></trkpt>
<trkpt lat="27.60865" lon="98.771199">
<time>2014-08-05T03:39:00Z</time></trkpt>
<trkpt lat="27.60872" lon="98.771179">
<time>2014-08-05T03:39:01Z</time></trkpt>
<trkpt lat="27.60896" lon="98.771129">
<time>2014-08-05T03:39:02Z</time></trkpt>
<trkpt lat="27.60909" lon="98.771099">
<time>2014-08-05T03:39:03Z</time></trkpt>
<trkpt lat="27.60933" lon="98.771039">
<time>2014-08-05T03:39:04Z</time></trkpt>
<trkpt lat="27.60964" lon="98.770939">
<time>2014-08-05T03:39:05Z</time></trkpt>
<trkpt lat="27.60979" lon="98.770889">
<time>2014-08-05T03:39:06Z</time></trkpt>
<trkpt lat="27.610019" lon="98.770769">
<time>2014-08-05T03:39:07Z</time></trkpt>
<trkpt lat="27.610289" lon="98.770619">
<time>2014-08-05T03:39:08Z</time></trkpt>
<trkpt lat="27.610429" lon="98.770539">
<time>2014-08-05T03:39:09Z</time></trkpt>
<trkpt lat="27.610599" lon="98.770479">
<time>2014-08-05T03:39:10Z</time></trkpt>
<trkpt lat="27.610749" lon="98.770429">
<time>2014-08-05T03:39:11Z</time></trkpt>
<trkpt lat="27.610859" lon="98.770379">
<time>2014-08-05T03:39:12Z</time></trkpt>
<trkpt lat="27.611459" lon="98.770129">
<time>2014-08-05T03:39:13Z</time></trkpt>
<trkpt lat="27.612049" lon="98.769859">
<time>2014-08-05T03:39:14Z</time></trkpt>
<trkpt lat="27.612229" lon="98.769769">
<time>2014-08-05T03:39:15Z</time></trkpt>
<trkpt lat="27.612669" lon="98.769519">
<time>2014-08-05T03:39:16Z</time></trkpt>
<trkpt lat="27.612899" lon="98.769409">
<time>2014-08-05T03:39:17Z</time></trkpt>
<trkpt lat="27.613129" lon="98.769309">
<time>2014-08-05T03:39:18Z</time></trkpt>
<trkpt lat="27.613358" lon="98.769219">
<time>2014-08-05T03:39:19Z</time></trkpt>
<trkpt lat="27.613728" lon="98.769049">
<time>2014-08-05T03:39:20Z</time></trkpt>
<trkpt lat="27.614968" lon="98.768409">
<time>2014-08-05T03:39:21Z</time></trkpt>
<trkpt lat="27.615218" lon="98.768259">
<time>2014-08-05T03:39:22Z</time></trkpt>
<trkpt lat="27.615408" lon="98.768119">
<time>2014-08-05T03:39:23Z</time></trkpt>
<trkpt lat="27.615648" lon="98.767929">
<time>2014-08-05T03:39:24Z</time></trkpt>
<trkpt lat="27.616177" lon="98.767428">
<time>2014-08-05T03:39:25Z</time></trkpt>
<trkpt lat="27.618666" lon="98.764959">
<time>2014-08-05T03:39:26Z</time></trkpt>
<trkpt lat="27.618826" lon="98.764819">
<time>2014-08-05T03:39:27Z</time></trkpt>
<trkpt lat="27.618926" lon="98.764719">
<time>2014-08-05T03:39:28Z</time></trkpt>
<trkpt lat="27.619026" lon="98.764639">
<time>2014-08-05T03:39:29Z</time></trkpt>
<trkpt lat="27.619146" lon="98.764579">
<time>2014-08-05T03:39:30Z</time></trkpt>
<trkpt lat="27.619216" lon="98.764549">
<time>2014-08-05T03:39:31Z</time></trkpt>
<trkpt lat="27.619296" lon="98.764509">
<time>2014-08-05T03:39:32Z</time></trkpt>
<trkpt lat="27.619406" lon="98.764479">
<time>2014-08-05T03:39:33Z</time></trkpt>
<trkpt lat="27.619736" lon="98.764399">
<time>2014-08-05T03:39:34Z</time></trkpt>
<trkpt lat="27.619916" lon="98.764339">
<time>2014-08-05T03:39:35Z</time></trkpt>
<trkpt lat="27.619996" lon="98.764309">
<time>2014-08-05T03:39:36Z</time></trkpt>
<trkpt lat="27.620096" lon="98.764229">
<time>2014-08-05T03:39:37Z</time></trkpt>
<trkpt lat="27.620156" lon="98.764169">
<time>2014-08-05T03:39:38Z</time></trkpt>
<trkpt lat="27.620306" lon="98.763989">
<time>2014-08-05T03:39:39Z</time></trkpt>
<trkpt lat="27.620915" lon="98.763269">
<time>2014-08-05T03:39:40Z</time></trkpt>
<trkpt lat="27.621065" lon="98.763099">
<time>2014-08-05T03:39:41Z</time></trkpt>
<trkpt lat="27.621115" lon="98.763059">
<time>2014-08-05T03:39:42Z</time></trkpt>
<trkpt lat="27.621195" lon="98.762999">
<time>2014-08-05T03:39:43Z</time></trkpt>
<trkpt lat="27.621305" lon="98.762939">
<time>2014-08-05T03:39:44Z</time></trkpt>
<trkpt lat="27.621425" lon="98.762869">
<time>2014-08-05T03:39:45Z</time></trkpt>
<trkpt lat="27.621655" lon="98.762749">
<time>2014-08-05T03:39:46Z</time></trkpt>
<trkpt lat="27.622915" lon="98.762149">
<time>2014-08-05T03:39:47Z</time></trkpt>
<trkpt lat="27.624435" lon="98.761379">
<time>2014-08-05T03:39:48Z</time></trkpt>
<trkpt lat="27.624514" lon="98.761329">
<time>2014-08-05T03:39:49Z</time></trkpt>
<trkpt lat="27.624574" lon="98.761279">
<time>2014-08-05T03:39:50Z</time></trkpt>
<trkpt lat="27.624614" lon="98.761229">
<time>2014-08-05T03:39:51Z</time></trkpt>
<trkpt lat="27.624664" lon="98.761139">
<time>2014-08-05T03:39:52Z</time></trkpt>
<trkpt lat="27.624704" lon="98.761069">
<time>2014-08-05T03:39:53Z</time></trkpt>
<trkpt lat="27.624994" lon="98.760469">
<time>2014-08-05T03:39:54Z</time></trkpt>
<trkpt lat="27.625044" lon="98.760369">
<time>2014-08-05T03:39:55Z</time></trkpt>
<trkpt lat="27.625104" lon="98.760279">
<time>2014-08-05T03:39:56Z</time></trkpt>
<trkpt lat="27.625224" lon="98.760119">
<time>2014-08-05T03:39:57Z</time></trkpt>
<trkpt lat="27.625334" lon="98.760039">
<time>2014-08-05T03:39:58Z</time></trkpt>
<trkpt lat="27.625514" lon="98.759899">
<time>2014-08-05T03:39:59Z</time></trkpt>
<trkpt lat="27.625884" lon="98.759629">
<time>2014-08-05T03:40:00Z</time></trkpt>
<trkpt lat="27.625944" lon="98.759569">
<time>2014-08-05T03:40:01Z</time></trkpt>
<trkpt lat="27.626004" lon="98.759499">
<time>2014-08-05T03:40:02Z</time></trkpt>
<trkpt lat="27.626064" lon="98.759399">
<time>2014-08-05T03:40:03Z</time></trkpt>
<trkpt lat="27.626104" lon="98.759339">
<time>2014-08-05T03:40:04Z</time></trkpt>
<trkpt lat="27.626144" lon="98.75926">
<time>2014-08-05T03:40:05Z</time></trkpt>
<trkpt lat="27.626194" lon="98.75912">
<time>2014-08-05T03:40:06Z</time></trkpt>
<trkpt lat="27.626234" lon="98.75902">
<time>2014-08-05T03:40:07Z</time></trkpt>
<trkpt lat="27.626304" lon="98.7589">
<time>2014-08-05T03:40:08Z</time></trkpt>
<trkpt lat="27.626374" lon="98.75879">
<time>2014-08-05T03:40:09Z</time></trkpt>
<trkpt lat="27.626464" lon="98.75866">
<time>2014-08-05T03:40:10Z</time></trkpt>
<trkpt lat="27.626614" lon="98.75845">
<time>2014-08-05T03:40:11Z</time></trkpt>
<trkpt lat="27.626743" lon="98.75824">
<time>2014-08-05T03:40:12Z</time></trkpt>
<trkpt lat="27.627033" lon="98.75765">
<time>2014-08-05T03:40:13Z</time></trkpt>
<trkpt lat="27.627073" lon="98.75756">
<time>2014-08-05T03:40:14Z</time></trkpt>
<trkpt lat="27.627113" lon="98.75746">
<time>2014-08-05T03:40:15Z</time></trkpt>
<trkpt lat="27.627123" lon="98.75739">
<time>2014-08-05T03:40:16Z</time></trkpt>
<trkpt lat="27.627123" lon="98.75731">
<time>2014-08-05T03:40:17Z</time></trkpt>
<trkpt lat="27.627123" lon="98.75722">
<time>2014-08-05T03:40:18Z</time></trkpt>
<trkpt lat="27.627093" lon="98.75707">
<time>2014-08-05T03:40:19Z</time></trkpt>
<trkpt lat="27.627083" lon="98.757">
<time>2014-08-05T03:40:20Z</time></trkpt>
<trkpt lat="27.627093" lon="98.75693">
<time>2014-08-05T03:40:21Z</time></trkpt>
<trkpt lat="27.627103" lon="98.75687">
<time>2014-08-05T03:40:22Z</time></trkpt>
<trkpt lat="27.627183" lon="98.75668">
<time>2014-08-05T03:40:23Z</time></trkpt>
<trkpt lat="27.627303" lon="98.756431">
<time>2014-08-05T03:40:24Z</time></trkpt>
<trkpt lat="27.627383" lon="98.756261">
<time>2014-08-05T03:40:25Z</time></trkpt>
<trkpt lat="27.627403" lon="98.756171">
<time>2014-08-05T03:40:26Z</time></trkpt>
<trkpt lat="27.627413" lon="98.756071">
<time>2014-08-05T03:40:27Z</time></trkpt>
<trkpt lat="27.627433" lon="98.755931">
<time>2014-08-05T03:40:28Z</time></trkpt>
<trkpt lat="27.627453" lon="98.755761">
<time>2014-08-05T03:40:29Z</time></trkpt>
<trkpt lat="27.627493" lon="98.755581">
<time>2014-08-05T03:40:30Z</time></trkpt>
<trkpt lat="27.627523" lon="98.755471">
<time>2014-08-05T03:40:31Z</time></trkpt>
<trkpt lat="27.627563" lon="98.755351">
<time>2014-08-05T03:40:32Z</time></trkpt>
<trkpt lat="27.627863" lon="98.754601">
<time>2014-08-05T03:40:33Z</time></trkpt>
<trkpt lat="27.627913" lon="98.754471">
<time>2014-08-05T03:40:34Z</time></trkpt>
<trkpt lat="27.627933" lon="98.754391">
<time>2014-08-05T03:40:35Z</time></trkpt>
<trkpt lat="27.627953" lon="98.754272">
<time>2014-08-05T03:40:36Z</time></trkpt>
<trkpt lat="27.627953" lon="98.754162">
<time>2014-08-05T03:40:37Z</time></trkpt>
<trkpt lat="27.627943" lon="98.754022">
<time>2014-08-05T03:40:38Z</time></trkpt>
<trkpt lat="27.627922" lon="98.753842">
<time>2014-08-05T03:40:39Z</time></trkpt>
<trkpt lat="27.627902" lon="98.753682">
<time>2014-08-05T03:40:40Z</time></trkpt>
<trkpt lat="27.627882" lon="98.753452">
<time>2014-08-05T03:40:41Z</time></trkpt>
<trkpt lat="27.627852" lon="98.753322">
<time>2014-08-05T03:40:42Z</time></trkpt>
<trkpt lat="27.627832" lon="98.753182">
<time>2014-08-05T03:40:43Z</time></trkpt>
<trkpt lat="27.627812" lon="98.753032">
<time>2014-08-05T03:40:44Z</time></trkpt>
<trkpt lat="27.627792" lon="98.752842">
<time>2014-08-05T03:40:45Z</time></trkpt>
<trkpt lat="27.627802" lon="98.752642">
<time>2014-08-05T03:40:46Z</time></trkpt>
<trkpt lat="27.627802" lon="98.752373">
<time>2014-08-05T03:40:47Z</time></trkpt>
<trkpt lat="27.627792" lon="98.752213">
<time>2014-08-05T03:40:48Z</time></trkpt>
<trkpt lat="27.627782" lon="98.752053">
<time>2014-08-05T03:40:49Z</time></trkpt>
<trkpt lat="27.627762" lon="98.751913">
<time>2014-08-05T03:40:50Z</time></trkpt>
<trkpt lat="27.627732" lon="98.751743">
<time>2014-08-05T03:40:51Z</time></trkpt>
<trkpt lat="27.627682" lon="98.751583">
<time>2014-08-05T03:40:52Z</time></trkpt>
<trkpt lat="27.627492" lon="98.751093">
<time>2014-08-05T03:40:53Z</time></trkpt>
<trkpt lat="27.627452" lon="98.751003">
<time>2014-08-05T03:40:54Z</time></trkpt>
<trkpt lat="27.627412" lon="98.750874">
<time>2014-08-05T03:40:55Z</time></trkpt>
<trkpt lat="27.627392" lon="98.750764">
<time>2014-08-05T03:40:56Z</time></trkpt>
<trkpt lat="27.627382" lon="98.750654">
<time>2014-08-05T03:40:57Z</time></trkpt>
<trkpt lat="27.627362" lon="98.750484">
<time>2014-08-05T03:40:58Z</time></trkpt>
<trkpt lat="27.627342" lon="98.750234">
<time>2014-08-05T03:40:59Z</time></trkpt>
<trkpt lat="27.627322" lon="98.750114">
<time>2014-08-05T03:41:00Z</time></trkpt>
<trkpt lat="27.627302" lon="98.750024">
<time>2014-08-05T03:41:01Z</time></trkpt>
<trkpt lat="27.627272" lon="98.749924">
<time>2014-08-05T03:41:02Z</time></trkpt>
<trkpt lat="27.627222" lon="98.749814">
<time>2014-08-05T03:41:03Z</time></trkpt>
<trkpt lat="27.627182" lon="98.749744">
<time>2014-08-05T03:41:04Z</time></trkpt>
<trkpt lat="27.627142" lon="98.749684">
<time>2014-08-05T03:41:05Z</time></trkpt>
<trkpt lat="27.627052" lon="98.749574">
<time>2014-08-05T03:41:06Z</time></trkpt>
<trkpt lat="27.626972" lon="98.749475">
<time>2014-08-05T03:41:07Z</time></trkpt>
<trkpt lat="27.626932" lon="98.749425">
<time>2014-08-05T03:41:08Z</time></trkpt>
<trkpt lat="27.626892" lon="98.749345">
<time>2014-08-05T03:41:09Z</time></trkpt>
<trkpt lat="27.626872" lon="98.749275">
<time>2014-08-05T03:41:10Z</time></trkpt>
<trkpt lat="27.626862" lon="98.749225">
<time>2014-08-05T03:41:11Z</time></trkpt>
<trkpt lat="27.626862" lon="98.749185">
<time>2014-08-05T03:41:12Z</time></trkpt>
<trkpt lat="27.626862" lon="98.749135">
<time>2014-08-05T03:41:13Z</time></trkpt>
<trkpt lat="27.626892" lon="98.749015">
<time>2014-08-05T03:41:14Z</time></trkpt>
<trkpt lat="27.626942" lon="98.748855">
<time>2014-08-05T03:41:15Z</time></trkpt>
<trkpt lat="27.626972" lon="98.748705">
<time>2014-08-05T03:41:16Z</time></trkpt>
<trkpt lat="27.626972" lon="98.748595">
<time>2014-08-05T03:41:17Z</time></trkpt>
<trkpt lat="27.626952" lon="98.748465">
<time>2014-08-05T03:41:18Z</time></trkpt>
<trkpt lat="27.626922" lon="98.748385">
<time>2014-08-05T03:41:19Z</time></trkpt>
<trkpt lat="27.626852" lon="98.748255">
<time>2014-08-05T03:41:20Z</time></trkpt>
<trkpt lat="27.626692" lon="98.748026">
<time>2014-08-05T03:41:21Z</time></trkpt>
<trkpt lat="27.626652" lon="98.747956">
<time>2014-08-05T03:41:22Z</time></trkpt>
<trkpt lat="27.626612" lon="98.747876">
<time>2014-08-05T03:41:23Z</time></trkpt>
<trkpt lat="27.626582" lon="98.747776">
<time>2014-08-05T03:41:24Z</time></trkpt>
<trkpt lat="27.626552" lon="98.747596">
<time>2014-08-05T03:41:25Z</time></trkpt>
<trkpt lat="27.626532" lon="98.747456">
<time>2014-08-05T03:41:26Z</time></trkpt>
<trkpt lat="27.626512" lon="98.747336">
<time>2014-08-05T03:41:27Z</time></trkpt>
<trkpt lat="27.626482" lon="98.747236">
<time>2014-08-05T03:41:28Z</time></trkpt>
<trkpt lat="27.626352" lon="98.746797">
<time>2014-08-05T03:41:29Z</time></trkpt>
<trkpt lat="27.626312" lon="98.746637">
<time>2014-08-05T03:41:30Z</time></trkpt>
<trkpt lat="27.626272" lon="98.746487">
<time>2014-08-05T03:41:31Z</time></trkpt>
<trkpt lat="27.626252" lon="98.746347">
<time>2014-08-05T03:41:32Z</time></trkpt>
<trkpt lat="27.626222" lon="98.746227">
<time>2014-08-05T03:41:33Z</time></trkpt>
<trkpt lat="27.626162" lon="98.746077">
<time>2014-08-05T03:41:34Z</time></trkpt>
<trkpt lat="27.626082" lon="98.745957">
<time>2014-08-05T03:41:35Z</time></trkpt>
<trkpt lat="27.625912" lon="98.745678">
<time>2014-08-05T03:41:36Z</time></trkpt>
<trkpt lat="27.625812" lon="98.745478">
<time>2014-08-05T03:41:37Z</time></trkpt>
<trkpt lat="27.625752" lon="98.745328">
<time>2014-08-05T03:41:38Z</time></trkpt>
<trkpt lat="27.625712" lon="98.745188">
<time>2014-08-05T03:41:39Z</time></trkpt>
<trkpt lat="27.625672" lon="98.744948">
<time>2014-08-05T03:41:40Z</time></trkpt>
<trkpt lat="27.625643" lon="98.744778">
<time>2014-08-05T03:41:41Z</time></trkpt>
<trkpt lat="27.625583" lon="98.744609">
<time>2014-08-05T03:41:42Z</time></trkpt>
<trkpt lat="27.625503" lon="98.744409">
<time>2014-08-05T03:41:43Z</time></trkpt>
<trkpt lat="27.625353" lon="98.744079">
<time>2014-08-05T03:41:44Z</time></trkpt>
<trkpt lat="27.625303" lon="98.743939">
<time>2014-08-05T03:41:45Z</time></trkpt>
<trkpt lat="27.625263" lon="98.743829">
<time>2014-08-05T03:41:46Z</time></trkpt>
<trkpt lat="27.625173" lon="98.74348">
<time>2014-08-05T03:41:47Z</time></trkpt>
<trkpt lat="27.625093" lon="98.74318">
<time>2014-08-05T03:41:48Z</time></trkpt>
<trkpt lat="27.625003" lon="98.74287">
<time>2014-08-05T03:41:49Z</time></trkpt>
<trkpt lat="27.624903" lon="98.74261">
<time>2014-08-05T03:41:50Z</time></trkpt>
<trkpt lat="27.624773" lon="98.742271">
<time>2014-08-05T03:41:51Z</time></trkpt>
<trkpt lat="27.624673" lon="98.741981">
<time>2014-08-05T03:41:52Z</time></trkpt>
<trkpt lat="27.624513" lon="98.741392">
<time>2014-08-05T03:41:53Z</time></trkpt>
<trkpt lat="27.624483" lon="98.741222">
<time>2014-08-05T03:41:54Z</time></trkpt>
<trkpt lat="27.624473" lon="98.741082">
<time>2014-08-05T03:41:55Z</time></trkpt>
<trkpt lat="27.624473" lon="98.740982">
<time>2014-08-05T03:41:56Z</time></trkpt>
<trkpt lat="27.624483" lon="98.740912">
<time>2014-08-05T03:41:57Z</time></trkpt>
<trkpt lat="27.624493" lon="98.740862">
<time>2014-08-05T03:41:58Z</time></trkpt>
<trkpt lat="27.624503" lon="98.740822">
<time>2014-08-05T03:41:59Z</time></trkpt>
<trkpt lat="27.624524" lon="98.740782">
<time>2014-08-05T03:42:00Z</time></trkpt>
<trkpt lat="27.624554" lon="98.740712">
<time>2014-08-05T03:42:01Z</time></trkpt>
<trkpt lat="27.624584" lon="98.740642">
<time>2014-08-05T03:42:02Z</time></trkpt>
<trkpt lat="27.624684" lon="98.740483">
<time>2014-08-05T03:42:03Z</time></trkpt>
<trkpt lat="27.624894" lon="98.740203">
<time>2014-08-05T03:42:04Z</time></trkpt>
<trkpt lat="27.625174" lon="98.739813">
<time>2014-08-05T03:42:05Z</time></trkpt>
<trkpt lat="27.625274" lon="98.739694">
<time>2014-08-05T03:42:06Z</time></trkpt>
<trkpt lat="27.625374" lon="98.739604">
<time>2014-08-05T03:42:07Z</time></trkpt>
<trkpt lat="27.625444" lon="98.739554">
<time>2014-08-05T03:42:08Z</time></trkpt>
<trkpt lat="27.625514" lon="98.739514">
<time>2014-08-05T03:42:09Z</time></trkpt>
<trkpt lat="27.625584" lon="98.739484">
<time>2014-08-05T03:42:10Z</time></trkpt>
<trkpt lat="27.625654" lon="98.739454">
<time>2014-08-05T03:42:11Z</time></trkpt>
<trkpt lat="27.625764" lon="98.739424">
<time>2014-08-05T03:42:12Z</time></trkpt>
<trkpt lat="27.625944" lon="98.739374">
<time>2014-08-05T03:42:13Z</time></trkpt>
<trkpt lat="27.626094" lon="98.739324">
<time>2014-08-05T03:42:14Z</time></trkpt>
<trkpt lat="27.626184" lon="98.739284">
<time>2014-08-05T03:42:15Z</time></trkpt>
<trkpt lat="27.626294" lon="98.739224">
<time>2014-08-05T03:42:16Z</time></trkpt>
<trkpt lat="27.626644" lon="98.739014">
<time>2014-08-05T03:42:17Z</time></trkpt>
<trkpt lat="27.627154" lon="98.738715">
<time>2014-08-05T03:42:18Z</time></trkpt>
<trkpt lat="27.627315" lon="98.738605">
<time>2014-08-05T03:42:19Z</time></trkpt>
<trkpt lat="27.627465" lon="98.738465">
<time>2014-08-05T03:42:20Z</time></trkpt>
<trkpt lat="27.627595" lon="98.738325">
<time>2014-08-05T03:42:21Z</time></trkpt>
<trkpt lat="27.627935" lon="98.737965">
<time>2014-08-05T03:42:22Z</time></trkpt>
<trkpt lat="27.628235" lon="98.737686">
<time>2014-08-05T03:42:23Z</time></trkpt>
<trkpt lat="27.628445" lon="98.737386">
<time>2014-08-05T03:42:24Z</time></trkpt>
<trkpt lat="27.628645" lon="98.737087">
<time>2014-08-05T03:42:25Z</time></trkpt>
<trkpt lat="27.629146" lon="98.736178">
<time>2014-08-05T03:42:26Z</time></trkpt>
<trkpt lat="27.629386" lon="98.735808">
<time>2014-08-05T03:42:27Z</time></trkpt>
<trkpt lat="27.629566" lon="98.735578">
<time>2014-08-05T03:42:28Z</time></trkpt>
<trkpt lat="27.629736" lon="98.735389">
<time>2014-08-05T03:42:29Z</time></trkpt>
<trkpt lat="27.629926" lon="98.735199">
<time>2014-08-05T03:42:30Z</time></trkpt>
<trkpt lat="27.630216" lon="98.734979">
<time>2014-08-05T03:42:31Z</time></trkpt>
<trkpt lat="27.630527" lon="98.734769">
<time>2014-08-05T03:42:32Z</time></trkpt>
<trkpt lat="27.631077" lon="98.73445">
<time>2014-08-05T03:42:33Z</time></trkpt>
<trkpt lat="27.631297" lon="98.73429">
<time>2014-08-05T03:42:34Z</time></trkpt>
<trkpt lat="27.631497" lon="98.73408">
<time>2014-08-05T03:42:35Z</time></trkpt>
<trkpt lat="27.631627" lon="98.733891">
<time>2014-08-05T03:42:36Z</time></trkpt>
<trkpt lat="27.631807" lon="98.733641">
<time>2014-08-05T03:42:37Z</time></trkpt>
<trkpt lat="27.631947" lon="98.733431">
<time>2014-08-05T03:42:38Z</time></trkpt>
<trkpt lat="27.632078" lon="98.733291">
<time>2014-08-05T03:42:39Z</time></trkpt>
<trkpt lat="27.632148" lon="98.733212">
<time>2014-08-05T03:42:40Z</time></trkpt>
<trkpt lat="27.632258" lon="98.733142">
<time>2014-08-05T03:42:41Z</time></trkpt>
<trkpt lat="27.632428" lon="98.733052">
<time>2014-08-05T03:42:42Z</time></trkpt>
<trkpt lat="27.632998" lon="98.732822">
<time>2014-08-05T03:42:43Z</time></trkpt>
<trkpt lat="27.633158" lon="98.732752">
<time>2014-08-05T03:42:44Z</time></trkpt>
<trkpt lat="27.633408" lon="98.732632">
<time>2014-08-05T03:42:45Z</time></trkpt>
<trkpt lat="27.634108" lon="98.732243">
<time>2014-08-05T03:42:46Z</time></trkpt>
<trkpt lat="27.634178" lon="98.732223">
<time>2014-08-05T03:42:47Z</time></trkpt>
<trkpt lat="27.634228" lon="98.732223">
<time>2014-08-05T03:42:48Z</time></trkpt>
<trkpt lat="27.634248" lon="98.732213">
<time>2014-08-05T03:42:49Z</time></trkpt>
<trkpt lat="27.634278" lon="98.732223">
<time>2014-08-05T03:42:50Z</time></trkpt>
<trkpt lat="27.634328" lon="98.732223">
<time>2014-08-05T03:42:51Z</time></trkpt>
<trkpt lat="27.634398" lon="98.732233">
<time>2014-08-05T03:42:52Z</time></trkpt>
<trkpt lat="27.634518" lon="98.732273">
<time>2014-08-05T03:42:53Z</time></trkpt>
<trkpt lat="27.634718" lon="98.732333">
<time>2014-08-05T03:42:54Z</time></trkpt>
<trkpt lat="27.634818" lon="98.732353">
<time>2014-08-05T03:42:55Z</time></trkpt>
<trkpt lat="27.634898" lon="98.732363">
<time>2014-08-05T03:42:56Z</time></trkpt>
<trkpt lat="27.634968" lon="98.732363">
<time>2014-08-05T03:42:57Z</time></trkpt>
<trkpt lat="27.635018" lon="98.732363">
<time>2014-08-05T03:42:58Z</time></trkpt>
<trkpt lat="27.635108" lon="98.732343">
<time>2014-08-05T03:42:59Z</time></trkpt>
<trkpt lat="27.635278" lon="98.732303">
<time>2014-08-05T03:43:00Z</time></trkpt>
<trkpt lat="27.635458" lon="98.732233">
<time>2014-08-05T03:43:01Z</time></trkpt>
<trkpt lat="27.635639" lon="98.732153">
<time>2014-08-05T03:43:02Z</time></trkpt>
<trkpt lat="27.635849" lon="98.732023">
<time>2014-08-05T03:43:03Z</time></trkpt>
<trkpt lat="27.636069" lon="98.731893">
<time>2014-08-05T03:43:04Z</time></trkpt>
<trkpt lat="27.636489" lon="98.731634">
<time>2014-08-05T03:43:05Z</time></trkpt>
<trkpt lat="27.636649" lon="98.731554">
<time>2014-08-05T03:43:06Z</time></trkpt>
<trkpt lat="27.636779" lon="98.731504">
<time>2014-08-05T03:43:07Z</time></trkpt>
<trkpt lat="27.636859" lon="98.731474">
<time>2014-08-05T03:43:08Z</time></trkpt>
<trkpt lat="27.636949" lon="98.731444">
<time>2014-08-05T03:43:09Z</time></trkpt>
<trkpt lat="27.637099" lon="98.731414">
<time>2014-08-05T03:43:10Z</time></trkpt>
<trkpt lat="27.637459" lon="98.731364">
<time>2014-08-05T03:43:11Z</time></trkpt>
<trkpt lat="27.637689" lon="98.731344">
<time>2014-08-05T03:43:12Z</time></trkpt>
<trkpt lat="27.637809" lon="98.731334">
<time>2014-08-05T03:43:13Z</time></trkpt>
<trkpt lat="27.637879" lon="98.731334">
<time>2014-08-05T03:43:14Z</time></trkpt>
<trkpt lat="27.637959" lon="98.731314">
<time>2014-08-05T03:43:15Z</time></trkpt>
<trkpt lat="27.638039" lon="98.731294">
<time>2014-08-05T03:43:16Z</time></trkpt>
<trkpt lat="27.638069" lon="98.731284">
<time>2014-08-05T03:43:17Z</time></trkpt>
<trkpt lat="27.638119" lon="98.731264">
<time>2014-08-05T03:43:18Z</time></trkpt>
<trkpt lat="27.638199" lon="98.731214">
<time>2014-08-05T03:43:19Z</time></trkpt>
<trkpt lat="27.638239" lon="98.731194">
<time>2014-08-05T03:43:20Z</time></trkpt>
<trkpt lat="27.638339" lon="98.731124">
<time>2014-08-05T03:43:21Z</time></trkpt>
<trkpt lat="27.63865" lon="98.730895">
<time>2014-08-05T03:43:22Z</time></trkpt>
<trkpt lat="27.63878" lon="98.730815">
<time>2014-08-05T03:43:23Z</time></trkpt>
<trkpt lat="27.63894" lon="98.730715">
<time>2014-08-05T03:43:24Z</time></trkpt>
<trkpt lat="27.63906" lon="98.730655">
<time>2014-08-05T03:43:25Z</time></trkpt>
<trkpt lat="27.63921" lon="98.730595">
<time>2014-08-05T03:43:26Z</time></trkpt>
<trkpt lat="27.63934" lon="98.730545">
<time>2014-08-05T03:43:27Z</time></trkpt>
<trkpt lat="27.63944" lon="98.730495">
<time>2014-08-05T03:43:28Z</time></trkpt>
<trkpt lat="27.63953" lon="98.730455">
<time>2014-08-05T03:43:29Z</time></trkpt>
<trkpt lat="27.63961" lon="98.730405">
<time>2014-08-05T03:43:30Z</time></trkpt>
<trkpt lat="27.6397" lon="98.730345">
<time>2014-08-05T03:43:31Z</time></trkpt>
<trkpt lat="27.64036" lon="98.729796">
<time>2014-08-05T03:43:32Z</time></trkpt>
<trkpt lat="27.640911" lon="98.729337">
<time>2014-08-05T03:43:33Z</time></trkpt>
<trkpt lat="27.641041" lon="98.729247">
<time>2014-08-05T03:43:34Z</time></trkpt>
<trkpt lat="27.641181" lon="98.729177">
<time>2014-08-05T03:43:35Z</time></trkpt>
<trkpt lat="27.641271" lon="98.729137">
<time>2014-08-05T03:43:36Z</time></trkpt>
<trkpt lat="27.641401" lon="98.729087">
<time>2014-08-05T03:43:37Z</time></trkpt>
<trkpt lat="27.641581" lon="98.729027">
<time>2014-08-05T03:43:38Z</time></trkpt>
<trkpt lat="27.641871" lon="98.728968">
<time>2014-08-05T03:43:39Z</time></trkpt>
<trkpt lat="27.642301" lon="98.728898">
<time>2014-08-05T03:43:40Z</time></trkpt>
<trkpt lat="27.642901" lon="98.728858">
<time>2014-08-05T03:43:41Z</time></trkpt>
<trkpt lat="27.643241" lon="98.728868">
<time>2014-08-05T03:43:42Z</time></trkpt>
<trkpt lat="27.643441" lon="98.728888">
<time>2014-08-05T03:43:43Z</time></trkpt>
<trkpt lat="27.643521" lon="98.728898">
<time>2014-08-05T03:43:44Z</time></trkpt>
<trkpt lat="27.643761" lon="98.728958">
<time>2014-08-05T03:43:45Z</time></trkpt>
<trkpt lat="27.644741" lon="98.729257">
<time>2014-08-05T03:43:46Z</time></trkpt>
<trkpt lat="27.645201" lon="98.729427">
<time>2014-08-05T03:43:47Z</time></trkpt>
<trkpt lat="27.645661" lon="98.729626">
<time>2014-08-05T03:43:48Z</time></trkpt>
<trkpt lat="27.645841" lon="98.729736">
<time>2014-08-05T03:43:49Z</time></trkpt>
<trkpt lat="27.645951" lon="98.729816">
<time>2014-08-05T03:43:50Z</time></trkpt>
<trkpt lat="27.646061" lon="98.729896">
<time>2014-08-05T03:43:51Z</time></trkpt>
<trkpt lat="27.646141" lon="98.729976">
<time>2014-08-05T03:43:52Z</time></trkpt>
<trkpt lat="27.646251" lon="98.730086">
<time>2014-08-05T03:43:53Z</time></trkpt>
<trkpt lat="27.646331" lon="98.730186">
<time>2014-08-05T03:43:54Z</time></trkpt>
<trkpt lat="27.64667" lon="98.730465">
<time>2014-08-05T03:43:55Z</time></trkpt>
<trkpt lat="27.64687" lon="98.730605">
<time>2014-08-05T03:43:56Z</time></trkpt>
<trkpt lat="27.64723" lon="98.730845">
<time>2014-08-05T03:43:57Z</time></trkpt>
<trkpt lat="27.64764" lon="98.731204">
<time>2014-08-05T03:43:58Z</time></trkpt>
<trkpt lat="27.64817" lon="98.731783">
<time>2014-08-05T03:43:59Z</time></trkpt>
<trkpt lat="27.6483" lon="98.731913">
<time>2014-08-05T03:44:00Z</time></trkpt>
<trkpt lat="27.6484" lon="98.731983">
<time>2014-08-05T03:44:01Z</time></trkpt>
<trkpt lat="27.648559" lon="98.732103">
<time>2014-08-05T03:44:02Z</time></trkpt>
<trkpt lat="27.648679" lon="98.732223">
<time>2014-08-05T03:44:03Z</time></trkpt>
<trkpt lat="27.648839" lon="98.732442">
<time>2014-08-05T03:44:04Z</time></trkpt>
<trkpt lat="27.648969" lon="98.732572">
<time>2014-08-05T03:44:05Z</time></trkpt>
<trkpt lat="27.649139" lon="98.732662">
<time>2014-08-05T03:44:06Z</time></trkpt>
<trkpt lat="27.649549" lon="98.732842">
<time>2014-08-05T03:44:07Z</time></trkpt>
<trkpt lat="27.649719" lon="98.732922">
<time>2014-08-05T03:44:08Z</time></trkpt>
<trkpt lat="27.649999" lon="98.733111">
<time>2014-08-05T03:44:09Z</time></trkpt>
<trkpt lat="27.650359" lon="98.733331">
<time>2014-08-05T03:44:10Z</time></trkpt>
<trkpt lat="27.650649" lon="98.733531">
<time>2014-08-05T03:44:11Z</time></trkpt>
<trkpt lat="27.650719" lon="98.733591">
<time>2014-08-05T03:44:12Z</time></trkpt>
<trkpt lat="27.650759" lon="98.733631">
<time>2014-08-05T03:44:13Z</time></trkpt>
<trkpt lat="27.650769" lon="98.733641">
<time>2014-08-05T03:44:14Z</time></trkpt>
<trkpt lat="27.650839" lon="98.73372">
<time>2014-08-05T03:44:15Z</time></trkpt>
<trkpt lat="27.650909" lon="98.73383">
<time>2014-08-05T03:44:16Z</time></trkpt>
<trkpt lat="27.650989" lon="98.73394">
<time>2014-08-05T03:44:17Z</time></trkpt>
<trkpt lat="27.651058" lon="98.73402">
<time>2014-08-05T03:44:18Z</time></trkpt>
<trkpt lat="27.651108" lon="98.73405">
<time>2014-08-05T03:44:19Z</time></trkpt>
<trkpt lat="27.651148" lon="98.73408">
<time>2014-08-05T03:44:20Z</time></trkpt>
<trkpt lat="27.651198" lon="98.7341">
<time>2014-08-05T03:44:21Z</time></trkpt>
<trkpt lat="27.651258" lon="98.73411">
<time>2014-08-05T03:44:22Z</time></trkpt>
<trkpt lat="27.652238" lon="98.73429">
<time>2014-08-05T03:44:23Z</time></trkpt>
<trkpt lat="27.652498" lon="98.73439">
<time>2014-08-05T03:44:24Z</time></trkpt>
<trkpt lat="27.652648" lon="98.734429">
<time>2014-08-05T03:44:25Z</time></trkpt>
<trkpt lat="27.652688" lon="98.734439">
<time>2014-08-05T03:44:26Z</time></trkpt>
<trkpt lat="27.652738" lon="98.734439">
<time>2014-08-05T03:44:27Z</time></trkpt>
<trkpt lat="27.652798" lon="98.734439">
<time>2014-08-05T03:44:28Z</time></trkpt>
<trkpt lat="27.652858" lon="98.734429">
<time>2014-08-05T03:44:29Z</time></trkpt>
<trkpt lat="27.653158" lon="98.73437">
<time>2014-08-05T03:44:30Z</time></trkpt>
<trkpt lat="27.653408" lon="98.7343">
<time>2014-08-05T03:44:31Z</time></trkpt>
<trkpt lat="27.653499" lon="98.73429">
<time>2014-08-05T03:44:32Z</time></trkpt>
<trkpt lat="27.653609" lon="98.73428">
<time>2014-08-05T03:44:33Z</time></trkpt>
<trkpt lat="27.654899" lon="98.73435">
<time>2014-08-05T03:44:34Z</time></trkpt>
<trkpt lat="27.655809" lon="98.734449">
<time>2014-08-05T03:44:35Z</time></trkpt>
<trkpt lat="27.656379" lon="98.734539">
<time>2014-08-05T03:44:36Z</time></trkpt>
<trkpt lat="27.656409" lon="98.734549">
<time>2014-08-05T03:44:37Z</time></trkpt>
<trkpt lat="27.656849" lon="98.734679">
<time>2014-08-05T03:44:38Z</time></trkpt>
<trkpt lat="27.656909" lon="98.734709">
<time>2014-08-05T03:44:39Z</time></trkpt>
<trkpt lat="27.657258" lon="98.734829">
<time>2014-08-05T03:44:40Z</time></trkpt>
<trkpt lat="27.657278" lon="98.734839">
<time>2014-08-05T03:44:41Z</time></trkpt>
<trkpt lat="27.657308" lon="98.734849">
<time>2014-08-05T03:44:42Z</time></trkpt>
<trkpt lat="27.657488" lon="98.734869">
<time>2014-08-05T03:44:43Z</time></trkpt>
<trkpt lat="27.658489" lon="98.734899">
<time>2014-08-05T03:44:44Z</time></trkpt>
<trkpt lat="27.658769" lon="98.734899">
<time>2014-08-05T03:44:45Z</time></trkpt>
<trkpt lat="27.658979" lon="98.734879">
<time>2014-08-05T03:44:46Z</time></trkpt>
<trkpt lat="27.659219" lon="98.734819">
<time>2014-08-05T03:44:47Z</time></trkpt>
<trkpt lat="27.659499" lon="98.734749">
<time>2014-08-05T03:44:48Z</time></trkpt>
<trkpt lat="27.659629" lon="98.734719">
<time>2014-08-05T03:44:49Z</time></trkpt>
<trkpt lat="27.659809" lon="98.734679">
<time>2014-08-05T03:44:50Z</time></trkpt>
<trkpt lat="27.659949" lon="98.734629">
<time>2014-08-05T03:44:51Z</time></trkpt>
<trkpt lat="27.660109" lon="98.734549">
<time>2014-08-05T03:44:52Z</time></trkpt>
<trkpt lat="27.660479" lon="98.734379">
<time>2014-08-05T03:44:53Z</time></trkpt>
<trkpt lat="27.660829" lon="98.73421">
<time>2014-08-05T03:44:54Z</time></trkpt>
<trkpt lat="27.661179" lon="98.73404">
<time>2014-08-05T03:44:55Z</time></trkpt>
<trkpt lat="27.661389" lon="98.73393">
<time>2014-08-05T03:44:56Z</time></trkpt>
<trkpt lat="27.661569" lon="98.73382">
<time>2014-08-05T03:44:57Z</time></trkpt>
<trkpt lat="27.66174" lon="98.7337">
<time>2014-08-05T03:44:58Z</time></trkpt>
<trkpt lat="27.66198" lon="98.73355">
<time>2014-08-05T03:44:59Z</time></trkpt>
<trkpt lat="27.6622" lon="98.733441">
<time>2014-08-05T03:45:00Z</time></trkpt>
<trkpt lat="27.6624" lon="98.733361">
<time>2014-08-05T03:45:01Z</time></trkpt>
<trkpt lat="27.66255" lon="98.733301">
<time>2014-08-05T03:45:02Z</time></trkpt>
<trkpt lat="27.66272" lon="98.733211">
<time>2014-08-05T03:45:03Z</time></trkpt>
<trkpt lat="27.66285" lon="98.733131">
<time>2014-08-05T03:45:04Z</time></trkpt>
<trkpt lat="27.66298" lon="98.733031">
<time>2014-08-05T03:45:05Z</time></trkpt>
<trkpt lat="27.66372" lon="98.732482">
<time>2014-08-05T03:45:06Z</time></trkpt>
<trkpt lat="27.663911" lon="98.732312">
<time>2014-08-05T03:45:07Z</time></trkpt>
<trkpt lat="27.664351" lon="98.731873">
<time>2014-08-05T03:45:08Z</time></trkpt>
<trkpt lat="27.664691" lon="98.731493">
<time>2014-08-05T03:45:09Z</time></trkpt>
<trkpt lat="27.665051" lon="98.731154">
<time>2014-08-05T03:45:10Z</time></trkpt>
<trkpt lat="27.666212" lon="98.730095">
<time>2014-08-05T03:45:11Z</time></trkpt>
<trkpt lat="27.666322" lon="98.729986">
<time>2014-08-05T03:45:12Z</time></trkpt>
<trkpt lat="27.666382" lon="98.729906">
<time>2014-08-05T03:45:13Z</time></trkpt>
<trkpt lat="27.666463" lon="98.729776">
<time>2014-08-05T03:45:14Z</time></trkpt>
<trkpt lat="27.666503" lon="98.729666">
<time>2014-08-05T03:45:15Z</time></trkpt>
<trkpt lat="27.666563" lon="98.729516">
<time>2014-08-05T03:45:16Z</time></trkpt>
<trkpt lat="27.666613" lon="98.729396">
<time>2014-08-05T03:45:17Z</time></trkpt>
<trkpt lat="27.666683" lon="98.729267">
<time>2014-08-05T03:45:18Z</time></trkpt>
<trkpt lat="27.666813" lon="98.729027">
<time>2014-08-05T03:45:19Z</time></trkpt>
<trkpt lat="27.666903" lon="98.728887">
<time>2014-08-05T03:45:20Z</time></trkpt>
<trkpt lat="27.666983" lon="98.728787">
<time>2014-08-05T03:45:21Z</time></trkpt>
<trkpt lat="27.667053" lon="98.728707">
<time>2014-08-05T03:45:22Z</time></trkpt>
<trkpt lat="27.667144" lon="98.728628">
<time>2014-08-05T03:45:23Z</time></trkpt>
<trkpt lat="27.667284" lon="98.728518">
<time>2014-08-05T03:45:24Z</time></trkpt>
<trkpt lat="27.667444" lon="98.728378">
<time>2014-08-05T03:45:25Z</time></trkpt>
<trkpt lat="27.667544" lon="98.728278">
<time>2014-08-05T03:45:26Z</time></trkpt>
<trkpt lat="27.667654" lon="98.728138">
<time>2014-08-05T03:45:27Z</time></trkpt>
<trkpt lat="27.667814" lon="98.727939">
<time>2014-08-05T03:45:28Z</time></trkpt>
<trkpt lat="27.668175" lon="98.727419">
<time>2014-08-05T03:45:29Z</time></trkpt>
<trkpt lat="27.668365" lon="98.72717">
<time>2014-08-05T03:45:30Z</time></trkpt>
<trkpt lat="27.668465" lon="98.72707">
<time>2014-08-05T03:45:31Z</time></trkpt>
<trkpt lat="27.668565" lon="98.72697">
<time>2014-08-05T03:45:32Z</time></trkpt>
<trkpt lat="27.668845" lon="98.726731">
<time>2014-08-05T03:45:33Z</time></trkpt>
<trkpt lat="27.668935" lon="98.726651">
<time>2014-08-05T03:45:34Z</time></trkpt>
<trkpt lat="27.669045" lon="98.726511">
<time>2014-08-05T03:45:35Z</time></trkpt>
<trkpt lat="27.669186" lon="98.726301">
<time>2014-08-05T03:45:36Z</time></trkpt>
<trkpt lat="27.669416" lon="98.725932">
<time>2014-08-05T03:45:37Z</time></trkpt>
<trkpt lat="27.669716" lon="98.725493">
<time>2014-08-05T03:45:38Z</time></trkpt>
<trkpt lat="27.669776" lon="98.725363">
<time>2014-08-05T03:45:39Z</time></trkpt>
<trkpt lat="27.669817" lon="98.725253">
<time>2014-08-05T03:45:40Z</time></trkpt>
<trkpt lat="27.669837" lon="98.725093">
<time>2014-08-05T03:45:41Z</time></trkpt>
<trkpt lat="27.669857" lon="98.724874">
<time>2014-08-05T03:45:42Z</time></trkpt>
<trkpt lat="27.669887" lon="98.724674">
<time>2014-08-05T03:45:43Z</time></trkpt>
<trkpt lat="27.669947" lon="98.724474">
<time>2014-08-05T03:45:44Z</time></trkpt>
<trkpt lat="27.670038" lon="98.724255">
<time>2014-08-05T03:45:45Z</time></trkpt>
<trkpt lat="27.670479" lon="98.723127">
<time>2014-08-05T03:45:46Z</time></trkpt>
<trkpt lat="27.670529" lon="98.722987">
<time>2014-08-05T03:45:47Z</time></trkpt>
<trkpt lat="27.670559" lon="98.722867">
<time>2014-08-05T03:45:48Z</time></trkpt>
<trkpt lat="27.670579" lon="98.722727">
<time>2014-08-05T03:45:49Z</time></trkpt>
<trkpt lat="27.670599" lon="98.722578">
<time>2014-08-05T03:45:50Z</time></trkpt>
<trkpt lat="27.670639" lon="98.722398">
<time>2014-08-05T03:45:51Z</time></trkpt>
<trkpt lat="27.67081" lon="98.721779">
<time>2014-08-05T03:45:52Z</time></trkpt>
<trkpt lat="27.670971" lon="98.72113">
<time>2014-08-05T03:45:53Z</time></trkpt>
<trkpt lat="27.671071" lon="98.720721">
<time>2014-08-05T03:45:54Z</time></trkpt>
<trkpt lat="27.671111" lon="98.720581">
<time>2014-08-05T03:45:55Z</time></trkpt>
<trkpt lat="27.671171" lon="98.720412">
<time>2014-08-05T03:45:56Z</time></trkpt>
<trkpt lat="27.671212" lon="98.720332">
<time>2014-08-05T03:45:57Z</time></trkpt>
<trkpt lat="27.671362" lon="98.720092">
<time>2014-08-05T03:45:58Z</time></trkpt>
<trkpt lat="27.671492" lon="98.719913">
<time>2014-08-05T03:45:59Z</time></trkpt>
<trkpt lat="27.671762" lon="98.719593">
<time>2014-08-05T03:46:00Z</time></trkpt>
<trkpt lat="27.671993" lon="98.719364">
<time>2014-08-05T03:46:01Z</time></trkpt>
<trkpt lat="27.672123" lon="98.719254">
<time>2014-08-05T03:46:02Z</time></trkpt>
<trkpt lat="27.672223" lon="98.719174">
<time>2014-08-05T03:46:03Z</time></trkpt>
<trkpt lat="27.672253" lon="98.719164">
<time>2014-08-05T03:46:04Z</time></trkpt>
<trkpt lat="27.672443" lon="98.719024">
<time>2014-08-05T03:46:05Z</time></trkpt>
<trkpt lat="27.672643" lon="98.718904">
<time>2014-08-05T03:46:06Z</time></trkpt>
<trkpt lat="27.672923" lon="98.718745">
<time>2014-08-05T03:46:07Z</time></trkpt>
<trkpt lat="27.673184" lon="98.718625">
<time>2014-08-05T03:46:08Z</time></trkpt>
<trkpt lat="27.673454" lon="98.718505">
<time>2014-08-05T03:46:09Z</time></trkpt>
<trkpt lat="27.673744" lon="98.718405">
<time>2014-08-05T03:46:10Z</time></trkpt>
<trkpt lat="27.674034" lon="98.718316">
<time>2014-08-05T03:46:11Z</time></trkpt>
<trkpt lat="27.674294" lon="98.718246">
<time>2014-08-05T03:46:12Z</time></trkpt>
<trkpt lat="27.674484" lon="98.718176">
<time>2014-08-05T03:46:13Z</time></trkpt>
<trkpt lat="27.674774" lon="98.718046">
<time>2014-08-05T03:46:14Z</time></trkpt>
<trkpt lat="27.675055" lon="98.717896">
<time>2014-08-05T03:46:15Z</time></trkpt>
<trkpt lat="27.675425" lon="98.717757">
<time>2014-08-05T03:46:16Z</time></trkpt>
<trkpt lat="27.677186" lon="98.717138">
<time>2014-08-05T03:46:17Z</time></trkpt>
<trkpt lat="27.677476" lon="98.717028">
<time>2014-08-05T03:46:18Z</time></trkpt>
<trkpt lat="27.677746" lon="98.716878">
<time>2014-08-05T03:46:19Z</time></trkpt>
<trkpt lat="27.678106" lon="98.716659">
<time>2014-08-05T03:46:20Z</time></trkpt>
<trkpt lat="27.678407" lon="98.716439">
<time>2014-08-05T03:46:21Z</time></trkpt>
<trkpt lat="27.678687" lon="98.71622">
<time>2014-08-05T03:46:22Z</time></trkpt>
<trkpt lat="27.679368" lon="98.715701">
<time>2014-08-05T03:46:23Z</time></trkpt>
<trkpt lat="27.679598" lon="98.715531">
<time>2014-08-05T03:46:24Z</time></trkpt>
<trkpt lat="27.679838" lon="98.715311">
<time>2014-08-05T03:46:25Z</time></trkpt>
<trkpt lat="27.680549" lon="98.714633">
<time>2014-08-05T03:46:26Z</time></trkpt>
<trkpt lat="27.68138" lon="98.713824">
<time>2014-08-05T03:46:27Z</time></trkpt>
<trkpt lat="27.68158" lon="98.713675">
<time>2014-08-05T03:46:28Z</time></trkpt>
<trkpt lat="27.68183" lon="98.713535">
<time>2014-08-05T03:46:29Z</time></trkpt>
<trkpt lat="27.682081" lon="98.713435">
<time>2014-08-05T03:46:30Z</time></trkpt>
<trkpt lat="27.682451" lon="98.713345">
<time>2014-08-05T03:46:31Z</time></trkpt>
<trkpt lat="27.682511" lon="98.713335">
<time>2014-08-05T03:46:32Z</time></trkpt>
<trkpt lat="27.682571" lon="98.713305">
<time>2014-08-05T03:46:33Z</time></trkpt>
<trkpt lat="27.682601" lon="98.713285">
<time>2014-08-05T03:46:34Z</time></trkpt>
<trkpt lat="27.682651" lon="98.713236">
<time>2014-08-05T03:46:35Z</time></trkpt>
<trkpt lat="27.682701" lon="98.713136">
<time>2014-08-05T03:46:36Z</time></trkpt>
<trkpt lat="27.682751" lon="98.713026">
<time>2014-08-05T03:46:37Z</time></trkpt>
<trkpt lat="27.682811" lon="98.712936">
<time>2014-08-05T03:46:38Z</time></trkpt>
<trkpt lat="27.682861" lon="98.712866">
<time>2014-08-05T03:46:39Z</time></trkpt>
<trkpt lat="27.682952" lon="98.712757">
<time>2014-08-05T03:46:40Z</time></trkpt>
<trkpt lat="27.683162" lon="98.712527">
<time>2014-08-05T03:46:41Z</time></trkpt>
<trkpt lat="27.683623" lon="98.712028">
<time>2014-08-05T03:46:42Z</time></trkpt>
<trkpt lat="27.684053" lon="98.711499">
<time>2014-08-05T03:46:43Z</time></trkpt>
<trkpt lat="27.684314" lon="98.71111">
<time>2014-08-05T03:46:44Z</time></trkpt>
<trkpt lat="27.684554" lon="98.710761">
<time>2014-08-05T03:46:45Z</time></trkpt>
<trkpt lat="27.684675" lon="98.710571">
<time>2014-08-05T03:46:46Z</time></trkpt>
<trkpt lat="27.684785" lon="98.710432">
<time>2014-08-05T03:46:47Z</time></trkpt>
<trkpt lat="27.684925" lon="98.710272">
<time>2014-08-05T03:46:48Z</time></trkpt>
<trkpt lat="27.685065" lon="98.710132">
<time>2014-08-05T03:46:49Z</time></trkpt>
<trkpt lat="27.685225" lon="98.709992">
<time>2014-08-05T03:46:50Z</time></trkpt>
<trkpt lat="27.685676" lon="98.709673">
<time>2014-08-05T03:46:51Z</time></trkpt>
<trkpt lat="27.686177" lon="98.709314">
<time>2014-08-05T03:46:52Z</time></trkpt>
<trkpt lat="27.686907" lon="98.708815">
<time>2014-08-05T03:46:53Z</time></trkpt>
<trkpt lat="27.687137" lon="98.708735">
<time>2014-08-05T03:46:54Z</time></trkpt>
<trkpt lat="27.687398" lon="98.708635">
<time>2014-08-05T03:46:55Z</time></trkpt>
<trkpt lat="27.687618" lon="98.708546">
<time>2014-08-05T03:46:56Z</time></trkpt>
<trkpt lat="27.687838" lon="98.708436">
<time>2014-08-05T03:46:57Z</time></trkpt>
<trkpt lat="27.689279" lon="98.707628">
<time>2014-08-05T03:46:58Z</time></trkpt>
<trkpt lat="27.689459" lon="98.707528">
<time>2014-08-05T03:46:59Z</time></trkpt>
<trkpt lat="27.68964" lon="98.707378">
<time>2014-08-05T03:47:00Z</time></trkpt>
<trkpt lat="27.6898" lon="98.707229">
<time>2014-08-05T03:47:01Z</time></trkpt>
<trkpt lat="27.69001" lon="98.707039">
<time>2014-08-05T03:47:02Z</time></trkpt>
<trkpt lat="27.69021" lon="98.706869">
<time>2014-08-05T03:47:03Z</time></trkpt>
<trkpt lat="27.690791" lon="98.70645">
<time>2014-08-05T03:47:04Z</time></trkpt>
<trkpt lat="27.691282" lon="98.706091">
<time>2014-08-05T03:47:05Z</time></trkpt>
<trkpt lat="27.691762" lon="98.705712">
<time>2014-08-05T03:47:06Z</time></trkpt>
<trkpt lat="27.692013" lon="98.705473">
<time>2014-08-05T03:47:07Z</time></trkpt>
<trkpt lat="27.692283" lon="98.705223">
<time>2014-08-05T03:47:08Z</time></trkpt>
<trkpt lat="27.692543" lon="98.705014">
<time>2014-08-05T03:47:09Z</time></trkpt>
<trkpt lat="27.693324" lon="98.704405">
<time>2014-08-05T03:47:10Z</time></trkpt>
<trkpt lat="27.693695" lon="98.704106">
<time>2014-08-05T03:47:11Z</time></trkpt>
<trkpt lat="27.693895" lon="98.703986">
<time>2014-08-05T03:47:12Z</time></trkpt>
<trkpt lat="27.694045" lon="98.703916">
<time>2014-08-05T03:47:13Z</time></trkpt>
<trkpt lat="27.695956" lon="98.703248">
<time>2014-08-05T03:47:14Z</time></trkpt>
<trkpt lat="27.696817" lon="98.702948">
<time>2014-08-05T03:47:15Z</time></trkpt>
<trkpt lat="27.696917" lon="98.702918">
<time>2014-08-05T03:47:16Z</time></trkpt>
<trkpt lat="27.697357" lon="98.702749">
<time>2014-08-05T03:47:17Z</time></trkpt>
<trkpt lat="27.697828" lon="98.702549">
<time>2014-08-05T03:47:18Z</time></trkpt>
<trkpt lat="27.698148" lon="98.70246">
<time>2014-08-05T03:47:19Z</time></trkpt>
<trkpt lat="27.699008" lon="98.70229">
<time>2014-08-05T03:47:20Z</time></trkpt>
<trkpt lat="27.699418" lon="98.70223">
<time>2014-08-05T03:47:21Z</time></trkpt>
<trkpt lat="27.699869" lon="98.70218">
<time>2014-08-05T03:47:22Z</time></trkpt>
<trkpt lat="27.700179" lon="98.70217">
<time>2014-08-05T03:47:23Z</time></trkpt>
<trkpt lat="27.700329" lon="98.70216">
<time>2014-08-05T03:47:24Z</time></trkpt>
<trkpt lat="27.700529" lon="98.70217">
<time>2014-08-05T03:47:25Z</time></trkpt>
<trkpt lat="27.700809" lon="98.70219">
<time>2014-08-05T03:47:26Z</time></trkpt>
<trkpt lat="27.700999" lon="98.70219">
<time>2014-08-05T03:47:27Z</time></trkpt>
<trkpt lat="27.701109" lon="98.70218">
<time>2014-08-05T03:47:28Z</time></trkpt>
<trkpt lat="27.701199" lon="98.70217">
<time>2014-08-05T03:47:29Z</time></trkpt>
<trkpt lat="27.701669" lon="98.7021">
<time>2014-08-05T03:47:30Z</time></trkpt>
<trkpt lat="27.701709" lon="98.70209">
<time>2014-08-05T03:47:31Z</time></trkpt>
<trkpt lat="27.701759" lon="98.70209">
<time>2014-08-05T03:47:32Z</time></trkpt>
<trkpt lat="27.701809" lon="98.70209">
<time>2014-08-05T03:47:33Z</time></trkpt>
<trkpt lat="27.701849" lon="98.7021">
<time>2014-08-05T03:47:34Z</time></trkpt>
<trkpt lat="27.701889" lon="98.70211">
<time>2014-08-05T03:47:35Z</time></trkpt>
<trkpt lat="27.701929" lon="98.70213">
<time>2014-08-05T03:47:36Z</time></trkpt>
<trkpt lat="27.701959" lon="98.70215">
<time>2014-08-05T03:47:37Z</time></trkpt>
<trkpt lat="27.701989" lon="98.70217">
<time>2014-08-05T03:47:38Z</time></trkpt>
<trkpt lat="27.702009" lon="98.7022">
<time>2014-08-05T03:47:39Z</time></trkpt>
<trkpt lat="27.702029" lon="98.70223">
<time>2014-08-05T03:47:40Z</time></trkpt>
<trkpt lat="27.702049" lon="98.70227">
<time>2014-08-05T03:47:41Z</time></trkpt>
<trkpt lat="27.702088" lon="98.70239">
<time>2014-08-05T03:47:42Z</time></trkpt>
<trkpt lat="27.702128" lon="98.702579">
<time>2014-08-05T03:47:43Z</time></trkpt>
<trkpt lat="27.702168" lon="98.702719">
<time>2014-08-05T03:47:44Z</time></trkpt>
<trkpt lat="27.702188" lon="98.702779">
<time>2014-08-05T03:47:45Z</time></trkpt>
<trkpt lat="27.702188" lon="98.702789">
<time>2014-08-05T03:47:46Z</time></trkpt>
<trkpt lat="27.702198" lon="98.702819">
<time>2014-08-05T03:47:47Z</time></trkpt>
<trkpt lat="27.702208" lon="98.702849">
<time>2014-08-05T03:47:48Z</time></trkpt>
<trkpt lat="27.702218" lon="98.702859">
<time>2014-08-05T03:47:49Z</time></trkpt>
<trkpt lat="27.702238" lon="98.702878">
<time>2014-08-05T03:47:50Z</time></trkpt>
<trkpt lat="27.702248" lon="98.702898">
<time>2014-08-05T03:47:51Z</time></trkpt>
<trkpt lat="27.702288" lon="98.702928">
<time>2014-08-05T03:47:52Z</time></trkpt>
<trkpt lat="27.702308" lon="98.702938">
<time>2014-08-05T03:47:53Z</time></trkpt>
<trkpt lat="27.702328" lon="98.702948">
<time>2014-08-05T03:47:54Z</time></trkpt>
<trkpt lat="27.702358" lon="98.702958">
<time>2014-08-05T03:47:55Z</time></trkpt>
<trkpt lat="27.702378" lon="98.702968">
<time>2014-08-05T03:47:56Z</time></trkpt>
<trkpt lat="27.702408" lon="98.702978">
<time>2014-08-05T03:47:57Z</time></trkpt>
<trkpt lat="27.702448" lon="98.702978">
<time>2014-08-05T03:47:58Z</time></trkpt>
<trkpt lat="27.702508" lon="98.702978">
<time>2014-08-05T03:47:59Z</time></trkpt>
<trkpt lat="27.703198" lon="98.702978">
<time>2014-08-05T03:48:00Z</time></trkpt>
<trkpt lat="27.703728" lon="98.702978">
<time>2014-08-05T03:48:01Z</time></trkpt>
<trkpt lat="27.703948" lon="98.702988">
<time>2014-08-05T03:48:02Z</time></trkpt>
<trkpt lat="27.704018" lon="98.702978">
<time>2014-08-05T03:48:03Z</time></trkpt>
<trkpt lat="27.704078" lon="98.702958">
<time>2014-08-05T03:48:04Z</time></trkpt>
<trkpt lat="27.704238" lon="98.702878">
<time>2014-08-05T03:48:05Z</time></trkpt>
<trkpt lat="27.704278" lon="98.702859">
<time>2014-08-05T03:48:06Z</time></trkpt>
<trkpt lat="27.704328" lon="98.702829">
<time>2014-08-05T03:48:07Z</time></trkpt>
<trkpt lat="27.704358" lon="98.702819">
<time>2014-08-05T03:48:08Z</time></trkpt>
<trkpt lat="27.704388" lon="98.702809">
<time>2014-08-05T03:48:09Z</time></trkpt>
<trkpt lat="27.704418" lon="98.702809">
<time>2014-08-05T03:48:10Z</time></trkpt>
<trkpt lat="27.704448" lon="98.702809">
<time>2014-08-05T03:48:11Z</time></trkpt>
<trkpt lat="27.704498" lon="98.702819">
<time>2014-08-05T03:48:12Z</time></trkpt>
<trkpt lat="27.704518" lon="98.702819">
<time>2014-08-05T03:48:13Z</time></trkpt>
<trkpt lat="27.704528" lon="98.702829">
<time>2014-08-05T03:48:14Z</time></trkpt>
<trkpt lat="27.704538" lon="98.702829">
<time>2014-08-05T03:48:15Z</time></trkpt>
<trkpt lat="27.704548" lon="98.702839">
<time>2014-08-05T03:48:16Z</time></trkpt>
<trkpt lat="27.704568" lon="98.702849">
<time>2014-08-05T03:48:17Z</time></trkpt>
<trkpt lat="27.704598" lon="98.702858">
<time>2014-08-05T03:48:18Z</time></trkpt>
<trkpt lat="27.704618" lon="98.702878">
<time>2014-08-05T03:48:19Z</time></trkpt>
<trkpt lat="27.704638" lon="98.702898">
<time>2014-08-05T03:48:20Z</time></trkpt>
<trkpt lat="27.704658" lon="98.702928">
<time>2014-08-05T03:48:21Z</time></trkpt>
<trkpt lat="27.704708" lon="98.703018">
<time>2014-08-05T03:48:22Z</time></trkpt>
<trkpt lat="27.704797" lon="98.703208">
<time>2014-08-05T03:48:23Z</time></trkpt>
<trkpt lat="27.704907" lon="98.703437">
<time>2014-08-05T03:48:24Z</time></trkpt>
<trkpt lat="27.704927" lon="98.703487">
<time>2014-08-05T03:48:25Z</time></trkpt>
<trkpt lat="27.704967" lon="98.703527">
<time>2014-08-05T03:48:26Z</time></trkpt>
<trkpt lat="27.705007" lon="98.703557">
<time>2014-08-05T03:48:27Z</time></trkpt>
<trkpt lat="27.705067" lon="98.703567">
<time>2014-08-05T03:48:28Z</time></trkpt>
<trkpt lat="27.705147" lon="98.703577">
<time>2014-08-05T03:48:29Z</time></trkpt>
<trkpt lat="27.705387" lon="98.703577">
<time>2014-08-05T03:48:30Z</time></trkpt>
<trkpt lat="27.705477" lon="98.703587">
<time>2014-08-05T03:48:31Z</time></trkpt>
<trkpt lat="27.705547" lon="98.703597">
<time>2014-08-05T03:48:32Z</time></trkpt>
<trkpt lat="27.705607" lon="98.703617">
<time>2014-08-05T03:48:33Z</time></trkpt>
<trkpt lat="27.705677" lon="98.703637">
<time>2014-08-05T03:48:34Z</time></trkpt>
<trkpt lat="27.705907" lon="98.703746">
<time>2014-08-05T03:48:35Z</time></trkpt>
<trkpt lat="27.705967" lon="98.703766">
<time>2014-08-05T03:48:36Z</time></trkpt>
<trkpt lat="27.706037" lon="98.703796">
<time>2014-08-05T03:48:37Z</time></trkpt>
<trkpt lat="27.706107" lon="98.703816">
<time>2014-08-05T03:48:38Z</time></trkpt>
<trkpt lat="27.706207" lon="98.703836">
<time>2014-08-05T03:48:39Z</time></trkpt>
<trkpt lat="27.706287" lon="98.703846">
<time>2014-08-05T03:48:40Z</time></trkpt>
<trkpt lat="27.706457" lon="98.703866">
<time>2014-08-05T03:48:41Z</time></trkpt>
<trkpt lat="27.706577" lon="98.703886">
<time>2014-08-05T03:48:42Z</time></trkpt>
<trkpt lat="27.706667" lon="98.703906">
<time>2014-08-05T03:48:43Z</time></trkpt>
<trkpt lat="27.706747" lon="98.703926">
<time>2014-08-05T03:48:44Z</time></trkpt>
<trkpt lat="27.706867" lon="98.703966">
<time>2014-08-05T03:48:45Z</time></trkpt>
<trkpt lat="27.706967" lon="98.703996">
<time>2014-08-05T03:48:46Z</time></trkpt>
<trkpt lat="27.707046" lon="98.704016">
<time>2014-08-05T03:48:47Z</time></trkpt>
<trkpt lat="27.707126" lon="98.704026">
<time>2014-08-05T03:48:48Z</time></trkpt>
<trkpt lat="27.707547" lon="98.704046">
<time>2014-08-05T03:48:49Z</time></trkpt>
<trkpt lat="27.707966" lon="98.704086">
<time>2014-08-05T03:48:50Z</time></trkpt>
<trkpt lat="27.708416" lon="98.704165">
<time>2014-08-05T03:48:51Z</time></trkpt>
<trkpt lat="27.708596" lon="98.704195">
<time>2014-08-05T03:48:52Z</time></trkpt>
<trkpt lat="27.708816" lon="98.704225">
<time>2014-08-05T03:48:53Z</time></trkpt>
<trkpt lat="27.708956" lon="98.704215">
<time>2014-08-05T03:48:54Z</time></trkpt>
<trkpt lat="27.709086" lon="98.704195">
<time>2014-08-05T03:48:55Z</time></trkpt>
<trkpt lat="27.709537" lon="98.704086">
<time>2014-08-05T03:48:56Z</time></trkpt>
<trkpt lat="27.709747" lon="98.704026">
<time>2014-08-05T03:48:57Z</time></trkpt>
<trkpt lat="27.709907" lon="98.703966">
<time>2014-08-05T03:48:58Z</time></trkpt>
<trkpt lat="27.710097" lon="98.703876">
<time>2014-08-05T03:48:59Z</time></trkpt>
<trkpt lat="27.710317" lon="98.703776">
<time>2014-08-05T03:49:00Z</time></trkpt>
<trkpt lat="27.710397" lon="98.703756">
<time>2014-08-05T03:49:01Z</time></trkpt>
<trkpt lat="27.710437" lon="98.703746">
<time>2014-08-05T03:49:02Z</time></trkpt>
<trkpt lat="27.710467" lon="98.703736">
<time>2014-08-05T03:49:03Z</time></trkpt>
<trkpt lat="27.710507" lon="98.703726">
<time>2014-08-05T03:49:04Z</time></trkpt>
<trkpt lat="27.710547" lon="98.703726">
<time>2014-08-05T03:49:05Z</time></trkpt>
<trkpt lat="27.710687" lon="98.703726">
<time>2014-08-05T03:49:06Z</time></trkpt>
<trkpt lat="27.710827" lon="98.703726">
<time>2014-08-05T03:49:07Z</time></trkpt>
<trkpt lat="27.711517" lon="98.703766">
<time>2014-08-05T03:49:08Z</time></trkpt>
<trkpt lat="27.711597" lon="98.703766">
<time>2014-08-05T03:49:09Z</time></trkpt>
<trkpt lat="27.711677" lon="98.703756">
<time>2014-08-05T03:49:10Z</time></trkpt>
<trkpt lat="27.711807" lon="98.703726">
<time>2014-08-05T03:49:11Z</time></trkpt>
<trkpt lat="27.711888" lon="98.703696">
<time>2014-08-05T03:49:12Z</time></trkpt>
<trkpt lat="27.712208" lon="98.703547">
<time>2014-08-05T03:49:13Z</time></trkpt>
<trkpt lat="27.712418" lon="98.703447">
<time>2014-08-05T03:49:14Z</time></trkpt>
<trkpt lat="27.712658" lon="98.703327">
<time>2014-08-05T03:49:15Z</time></trkpt>
<trkpt lat="27.712938" lon="98.703168">
<time>2014-08-05T03:49:16Z</time></trkpt>
<trkpt lat="27.713109" lon="98.703038">
<time>2014-08-05T03:49:17Z</time></trkpt>
<trkpt lat="27.713239" lon="98.702938">
<time>2014-08-05T03:49:18Z</time></trkpt>
<trkpt lat="27.713659" lon="98.702599">
<time>2014-08-05T03:49:19Z</time></trkpt>
<trkpt lat="27.71379" lon="98.702509">
<time>2014-08-05T03:49:20Z</time></trkpt>
<trkpt lat="27.71426" lon="98.70226">
<time>2014-08-05T03:49:21Z</time></trkpt>
<trkpt lat="27.71456" lon="98.7021">
<time>2014-08-05T03:49:22Z</time></trkpt>
<trkpt lat="27.714741" lon="98.70199">
<time>2014-08-05T03:49:23Z</time></trkpt>
<trkpt lat="27.714861" lon="98.701901">
<time>2014-08-05T03:49:24Z</time></trkpt>
<trkpt lat="27.715281" lon="98.701502">
<time>2014-08-05T03:49:25Z</time></trkpt>
<trkpt lat="27.715542" lon="98.701262">
<time>2014-08-05T03:49:26Z</time></trkpt>
<trkpt lat="27.715742" lon="98.701053">
<time>2014-08-05T03:49:27Z</time></trkpt>
<trkpt lat="27.715973" lon="98.700773">
<time>2014-08-05T03:49:28Z</time></trkpt>
<trkpt lat="27.716193" lon="98.700464">
<time>2014-08-05T03:49:29Z</time></trkpt>
<trkpt lat="27.716424" lon="98.700095">
<time>2014-08-05T03:49:30Z</time></trkpt>
<trkpt lat="27.716755" lon="98.699447">
<time>2014-08-05T03:49:31Z</time></trkpt>
<trkpt lat="27.716986" lon="98.698998">
<time>2014-08-05T03:49:32Z</time></trkpt>
<trkpt lat="27.717076" lon="98.698798">
<time>2014-08-05T03:49:33Z</time></trkpt>
<trkpt lat="27.717146" lon="98.698678">
<time>2014-08-05T03:49:34Z</time></trkpt>
<trkpt lat="27.717216" lon="98.698559">
<time>2014-08-05T03:49:35Z</time></trkpt>
<trkpt lat="27.717296" lon="98.698459">
<time>2014-08-05T03:49:36Z</time></trkpt>
<trkpt lat="27.717407" lon="98.698339">
<time>2014-08-05T03:49:37Z</time></trkpt>
<trkpt lat="27.717497" lon="98.69823">
<time>2014-08-05T03:49:38Z</time></trkpt>
<trkpt lat="27.717567" lon="98.69813">
<time>2014-08-05T03:49:39Z</time></trkpt>
<trkpt lat="27.717637" lon="98.69801">
<time>2014-08-05T03:49:40Z</time></trkpt>
<trkpt lat="27.717888" lon="98.697481">
<time>2014-08-05T03:49:41Z</time></trkpt>
<trkpt lat="27.718059" lon="98.697142">
<time>2014-08-05T03:49:42Z</time></trkpt>
<trkpt lat="27.718169" lon="98.696933">
<time>2014-08-05T03:49:43Z</time></trkpt>
<trkpt lat="27.71846" lon="98.696474">
<time>2014-08-05T03:49:44Z</time></trkpt>
<trkpt lat="27.718881" lon="98.695875">
<time>2014-08-05T03:49:45Z</time></trkpt>
<trkpt lat="27.719482" lon="98.695018">
<time>2014-08-05T03:49:46Z</time></trkpt>
<trkpt lat="27.719653" lon="98.694788">
<time>2014-08-05T03:49:47Z</time></trkpt>
<trkpt lat="27.719683" lon="98.694728">
<time>2014-08-05T03:49:48Z</time></trkpt>
<trkpt lat="27.719713" lon="98.694678">
<time>2014-08-05T03:49:49Z</time></trkpt>
<trkpt lat="27.719743" lon="98.694619">
<time>2014-08-05T03:49:50Z</time></trkpt>
<trkpt lat="27.719763" lon="98.694559">
<time>2014-08-05T03:49:51Z</time></trkpt>
<trkpt lat="27.719763" lon="98.694529">
<time>2014-08-05T03:49:52Z</time></trkpt>
<trkpt lat="27.719773" lon="98.694499">
<time>2014-08-05T03:49:53Z</time></trkpt>
<trkpt lat="27.719773" lon="98.694479">
<time>2014-08-05T03:49:54Z</time></trkpt>
<trkpt lat="27.719774" lon="98.694449">
<time>2014-08-05T03:49:55Z</time></trkpt>
<trkpt lat="27.719774" lon="98.694429">
<time>2014-08-05T03:49:56Z</time></trkpt>
<trkpt lat="27.719774" lon="98.694399">
<time>2014-08-05T03:49:57Z</time></trkpt>
<trkpt lat="27.719774" lon="98.694359">
<time>2014-08-05T03:49:58Z</time></trkpt>
<trkpt lat="27.719705" lon="98.693851">
<time>2014-08-05T03:49:59Z</time></trkpt>
<trkpt lat="27.719655" lon="98.693541">
<time>2014-08-05T03:50:00Z</time></trkpt>
<trkpt lat="27.719635" lon="98.693392">
<time>2014-08-05T03:50:01Z</time></trkpt>
<trkpt lat="27.719635" lon="98.693322">
<time>2014-08-05T03:50:02Z</time></trkpt>
<trkpt lat="27.719626" lon="98.693272">
<time>2014-08-05T03:50:03Z</time></trkpt>
<trkpt lat="27.719626" lon="98.693222">
<time>2014-08-05T03:50:04Z</time></trkpt>
<trkpt lat="27.719636" lon="98.693172">
<time>2014-08-05T03:50:05Z</time></trkpt>
<trkpt lat="27.719636" lon="98.693103">
<time>2014-08-05T03:50:06Z</time></trkpt>
<trkpt lat="27.719656" lon="98.693053">
<time>2014-08-05T03:50:07Z</time></trkpt>
<trkpt lat="27.719666" lon="98.693003">
<time>2014-08-05T03:50:08Z</time></trkpt>
<trkpt lat="27.719686" lon="98.692963">
<time>2014-08-05T03:50:09Z</time></trkpt>
<trkpt lat="27.719716" lon="98.692923">
<time>2014-08-05T03:50:10Z</time></trkpt>
<trkpt lat="27.719766" lon="98.692873">
<time>2014-08-05T03:50:11Z</time></trkpt>
<trkpt lat="27.719816" lon="98.692823">
<time>2014-08-05T03:50:12Z</time></trkpt>
<trkpt lat="27.720137" lon="98.692564">
<time>2014-08-05T03:50:13Z</time></trkpt>
<trkpt lat="27.720607" lon="98.692245">
<time>2014-08-05T03:50:14Z</time></trkpt>
<trkpt lat="27.720738" lon="98.692175">
<time>2014-08-05T03:50:15Z</time></trkpt>
<trkpt lat="27.720948" lon="98.692095">
<time>2014-08-05T03:50:16Z</time></trkpt>
<trkpt lat="27.721098" lon="98.692045">
<time>2014-08-05T03:50:17Z</time></trkpt>
<trkpt lat="27.721208" lon="98.691985">
<time>2014-08-05T03:50:18Z</time></trkpt>
<trkpt lat="27.721258" lon="98.691936">
<time>2014-08-05T03:50:19Z</time></trkpt>
<trkpt lat="27.721378" lon="98.691796">
<time>2014-08-05T03:50:20Z</time></trkpt>
<trkpt lat="27.721779" lon="98.691217">
<time>2014-08-05T03:50:21Z</time></trkpt>
<trkpt lat="27.72208" lon="98.690709">
<time>2014-08-05T03:50:22Z</time></trkpt>
<trkpt lat="27.722191" lon="98.690519">
<time>2014-08-05T03:50:23Z</time></trkpt>
<trkpt lat="27.722241" lon="98.69037">
<time>2014-08-05T03:50:24Z</time></trkpt>
<trkpt lat="27.722352" lon="98.689981">
<time>2014-08-05T03:50:25Z</time></trkpt>
<trkpt lat="27.722442" lon="98.689652">
<time>2014-08-05T03:50:26Z</time></trkpt>
<trkpt lat="27.722503" lon="98.689452">
<time>2014-08-05T03:50:27Z</time></trkpt>
<trkpt lat="27.722583" lon="98.689243">
<time>2014-08-05T03:50:28Z</time></trkpt>
<trkpt lat="27.722653" lon="98.689043">
<time>2014-08-05T03:50:29Z</time></trkpt>
<trkpt lat="27.722704" lon="98.688864">
<time>2014-08-05T03:50:30Z</time></trkpt>
<trkpt lat="27.722825" lon="98.688395">
<time>2014-08-05T03:50:31Z</time></trkpt>
<trkpt lat="27.722865" lon="98.688285">
<time>2014-08-05T03:50:32Z</time></trkpt>
<trkpt lat="27.722905" lon="98.688195">
<time>2014-08-05T03:50:33Z</time></trkpt>
<trkpt lat="27.723196" lon="98.687786">
<time>2014-08-05T03:50:34Z</time></trkpt>
<trkpt lat="27.723657" lon="98.687148">
<time>2014-08-05T03:50:35Z</time></trkpt>
<trkpt lat="27.723918" lon="98.686739">
<time>2014-08-05T03:50:36Z</time></trkpt>
<trkpt lat="27.724098" lon="98.68645">
<time>2014-08-05T03:50:37Z</time></trkpt>
<trkpt lat="27.724309" lon="98.686101">
<time>2014-08-05T03:50:38Z</time></trkpt>
<trkpt lat="27.72459" lon="98.685602">
<time>2014-08-05T03:50:39Z</time></trkpt>
<trkpt lat="27.72471" lon="98.685423">
<time>2014-08-05T03:50:40Z</time></trkpt>
<trkpt lat="27.724871" lon="98.685193">
<time>2014-08-05T03:50:41Z</time></trkpt>
<trkpt lat="27.725302" lon="98.684645">
<time>2014-08-05T03:50:42Z</time></trkpt>
<trkpt lat="27.725602" lon="98.684256">
<time>2014-08-05T03:50:43Z</time></trkpt>
<trkpt lat="27.725633" lon="98.684206">
<time>2014-08-05T03:50:44Z</time></trkpt>
<trkpt lat="27.725653" lon="98.684186">
<time>2014-08-05T03:50:45Z</time></trkpt>
<trkpt lat="27.725663" lon="98.684156">
<time>2014-08-05T03:50:46Z</time></trkpt>
<trkpt lat="27.725673" lon="98.684136">
<time>2014-08-05T03:50:47Z</time></trkpt>
<trkpt lat="27.725673" lon="98.684106">
<time>2014-08-05T03:50:48Z</time></trkpt>
<trkpt lat="27.725683" lon="98.684076">
<time>2014-08-05T03:50:49Z</time></trkpt>
<trkpt lat="27.725683" lon="98.684056">
<time>2014-08-05T03:50:50Z</time></trkpt>
<trkpt lat="27.725693" lon="98.684027">
<time>2014-08-05T03:50:51Z</time></trkpt>
<trkpt lat="27.725683" lon="98.683997">
<time>2014-08-05T03:50:52Z</time></trkpt>
<trkpt lat="27.725683" lon="98.683967">
<time>2014-08-05T03:50:53Z</time></trkpt>
<trkpt lat="27.725673" lon="98.683947">
<time>2014-08-05T03:50:54Z</time></trkpt>
<trkpt lat="27.725673" lon="98.683927">
<time>2014-08-05T03:50:55Z</time></trkpt>
<trkpt lat="27.725663" lon="98.683897">
<time>2014-08-05T03:50:56Z</time></trkpt>
<trkpt lat="27.725653" lon="98.683887">
<time>2014-08-05T03:50:57Z</time></trkpt>
<trkpt lat="27.725643" lon="98.683857">
<time>2014-08-05T03:50:58Z</time></trkpt>
<trkpt lat="27.725603" lon="98.683797">
<time>2014-08-05T03:50:59Z</time></trkpt>
<trkpt lat="27.724775" lon="98.68272">
<time>2014-08-05T03:51:00Z</time></trkpt>
<trkpt lat="27.724546" lon="98.682431">
<time>2014-08-05T03:51:01Z</time></trkpt>
<trkpt lat="27.724546" lon="98.682431">
<time>2014-08-05T03:51:02Z</time></trkpt>
<trkpt lat="27.724856" lon="98.682062">
<time>2014-08-05T03:51:03Z</time></trkpt>
<trkpt lat="27.725297" lon="98.681613">
<time>2014-08-05T03:51:04Z</time></trkpt>
<trkpt lat="27.725758" lon="98.681254">
<time>2014-08-05T03:51:05Z</time></trkpt>
<trkpt lat="27.726569" lon="98.680626">
<time>2014-08-05T03:51:06Z</time></trkpt>
<trkpt lat="27.72673" lon="98.680496">
<time>2014-08-05T03:51:07Z</time></trkpt>
<trkpt lat="27.72697" lon="98.680267">
<time>2014-08-05T03:51:08Z</time></trkpt>
<trkpt lat="27.72715" lon="98.680097">
<time>2014-08-05T03:51:09Z</time></trkpt>
<trkpt lat="27.727461" lon="98.679798">
<time>2014-08-05T03:51:10Z</time></trkpt>
<trkpt lat="27.727702" lon="98.679559">
<time>2014-08-05T03:51:11Z</time></trkpt>
<trkpt lat="27.727802" lon="98.679439">
<time>2014-08-05T03:51:12Z</time></trkpt>
<trkpt lat="27.728012" lon="98.67917">
<time>2014-08-05T03:51:13Z</time></trkpt>
<trkpt lat="27.728123" lon="98.67904">
<time>2014-08-05T03:51:14Z</time></trkpt>
<trkpt lat="27.728233" lon="98.67895">
<time>2014-08-05T03:51:15Z</time></trkpt>
<trkpt lat="27.728313" lon="98.6789">
<time>2014-08-05T03:51:16Z</time></trkpt>
<trkpt lat="27.728463" lon="98.678821">
<time>2014-08-05T03:51:17Z</time></trkpt>
<trkpt lat="27.728543" lon="98.678781">
<time>2014-08-05T03:51:18Z</time></trkpt>
<trkpt lat="27.728623" lon="98.678721">
<time>2014-08-05T03:51:19Z</time></trkpt>
<trkpt lat="27.728693" lon="98.678671">
<time>2014-08-05T03:51:20Z</time></trkpt>
<trkpt lat="27.728784" lon="98.678561">
<time>2014-08-05T03:51:21Z</time></trkpt>
<trkpt lat="27.728964" lon="98.678322">
<time>2014-08-05T03:51:22Z</time></trkpt>
<trkpt lat="27.729054" lon="98.678212">
<time>2014-08-05T03:51:23Z</time></trkpt>
<trkpt lat="27.729195" lon="98.678023">
<time>2014-08-05T03:51:24Z</time></trkpt>
<trkpt lat="27.729465" lon="98.677654">
<time>2014-08-05T03:51:25Z</time></trkpt>
<trkpt lat="27.729656" lon="98.677415">
<time>2014-08-05T03:51:26Z</time></trkpt>
<trkpt lat="27.729746" lon="98.677295">
<time>2014-08-05T03:51:27Z</time></trkpt>
<trkpt lat="27.729896" lon="98.677125">
<time>2014-08-05T03:51:28Z</time></trkpt>
<trkpt lat="27.730057" lon="98.676986">
<time>2014-08-05T03:51:29Z</time></trkpt>
<trkpt lat="27.730137" lon="98.676916">
<time>2014-08-05T03:51:30Z</time></trkpt>
<trkpt lat="27.730568" lon="98.676507">
<time>2014-08-05T03:51:31Z</time></trkpt>
<trkpt lat="27.731009" lon="98.676098">
<time>2014-08-05T03:51:32Z</time></trkpt>
<trkpt lat="27.73154" lon="98.67558">
<time>2014-08-05T03:51:33Z</time></trkpt>
<trkpt lat="27.73184" lon="98.67527">
<time>2014-08-05T03:51:34Z</time></trkpt>
<trkpt lat="27.732151" lon="98.674931">
<time>2014-08-05T03:51:35Z</time></trkpt>
<trkpt lat="27.732281" lon="98.674782">
<time>2014-08-05T03:51:36Z</time></trkpt>
<trkpt lat="27.732321" lon="98.674732">
<time>2014-08-05T03:51:37Z</time></trkpt>
<trkpt lat="27.732482" lon="98.674572">
<time>2014-08-05T03:51:38Z</time></trkpt>
<trkpt lat="27.732632" lon="98.674393">
<time>2014-08-05T03:51:39Z</time></trkpt>
<trkpt lat="27.732893" lon="98.674114">
<time>2014-08-05T03:51:40Z</time></trkpt>
<trkpt lat="27.732903" lon="98.674094">
<time>2014-08-05T03:51:41Z</time></trkpt>
<trkpt lat="27.732993" lon="98.674004">
<time>2014-08-05T03:51:42Z</time></trkpt>
<trkpt lat="27.733073" lon="98.673904">
<time>2014-08-05T03:51:43Z</time></trkpt>
<trkpt lat="27.733143" lon="98.673814">
<time>2014-08-05T03:51:44Z</time></trkpt>
<trkpt lat="27.733183" lon="98.673745">
<time>2014-08-05T03:51:45Z</time></trkpt>
<trkpt lat="27.733254" lon="98.673605">
<time>2014-08-05T03:51:46Z</time></trkpt>
<trkpt lat="27.733274" lon="98.673555">
<time>2014-08-05T03:51:47Z</time></trkpt>
<trkpt lat="27.733324" lon="98.673445">
<time>2014-08-05T03:51:48Z</time></trkpt>
<trkpt lat="27.733394" lon="98.673246">
<time>2014-08-05T03:51:49Z</time></trkpt>
<trkpt lat="27.733435" lon="98.673076">
<time>2014-08-05T03:51:50Z</time></trkpt>
<trkpt lat="27.733687" lon="98.672049">
<time>2014-08-05T03:51:51Z</time></trkpt>
<trkpt lat="27.733747" lon="98.67181">
<time>2014-08-05T03:51:52Z</time></trkpt>
<trkpt lat="27.733787" lon="98.67169">
<time>2014-08-05T03:51:53Z</time></trkpt>
<trkpt lat="27.733838" lon="98.671601">
<time>2014-08-05T03:51:54Z</time></trkpt>
<trkpt lat="27.733978" lon="98.671351">
<time>2014-08-05T03:51:55Z</time></trkpt>
<trkpt lat="27.734189" lon="98.670982">
<time>2014-08-05T03:51:56Z</time></trkpt>
<trkpt lat="27.734309" lon="98.670803">
<time>2014-08-05T03:51:57Z</time></trkpt>
<trkpt lat="27.734309" lon="98.670803">
<time>2014-08-05T03:51:58Z</time></trkpt>
<trkpt lat="27.734479" lon="98.670793">
<time>2014-08-05T03:51:59Z</time></trkpt>
<trkpt lat="27.734509" lon="98.670783">
<time>2014-08-05T03:52:00Z</time></trkpt>
<trkpt lat="27.734529" lon="98.670773">
<time>2014-08-05T03:52:01Z</time></trkpt>
<trkpt lat="27.734569" lon="98.670753">
<time>2014-08-05T03:52:02Z</time></trkpt>
<trkpt lat="27.734609" lon="98.670723">
<time>2014-08-05T03:52:03Z</time></trkpt>
<trkpt lat="27.734639" lon="98.670683">
<time>2014-08-05T03:52:04Z</time></trkpt>
<trkpt lat="27.73471" lon="98.670613">
<time>2014-08-05T03:52:05Z</time></trkpt>
<trkpt lat="27.7349" lon="98.670424">
<time>2014-08-05T03:52:06Z</time></trkpt>
<trkpt lat="27.735" lon="98.670344">
<time>2014-08-05T03:52:07Z</time></trkpt>
<trkpt lat="27.73516" lon="98.670204">
<time>2014-08-05T03:52:08Z</time></trkpt>
<trkpt lat="27.735361" lon="98.670045">
<time>2014-08-05T03:52:09Z</time></trkpt>
<trkpt lat="27.735681" lon="98.669795">
<time>2014-08-05T03:52:10Z</time></trkpt>
<trkpt lat="27.735761" lon="98.669736">
<time>2014-08-05T03:52:11Z</time></trkpt>
<trkpt lat="27.735872" lon="98.669656">
<time>2014-08-05T03:52:12Z</time></trkpt>
<trkpt lat="27.736102" lon="98.669486">
<time>2014-08-05T03:52:13Z</time></trkpt>
<trkpt lat="27.736182" lon="98.669407">
<time>2014-08-05T03:52:14Z</time></trkpt>
<trkpt lat="27.736272" lon="98.669337">
<time>2014-08-05T03:52:15Z</time></trkpt>
<trkpt lat="27.736493" lon="98.669157">
<time>2014-08-05T03:52:16Z</time></trkpt>
<trkpt lat="27.736613" lon="98.669077">
<time>2014-08-05T03:52:17Z</time></trkpt>
<trkpt lat="27.736713" lon="98.669008">
<time>2014-08-05T03:52:18Z</time></trkpt>
<trkpt lat="27.736743" lon="98.668998">
<time>2014-08-05T03:52:19Z</time></trkpt>
<trkpt lat="27.736803" lon="98.668968">
<time>2014-08-05T03:52:20Z</time></trkpt>
<trkpt lat="27.737173" lon="98.668788">
<time>2014-08-05T03:52:21Z</time></trkpt>
<trkpt lat="27.737364" lon="98.668708">
<time>2014-08-05T03:52:22Z</time></trkpt>
<trkpt lat="27.737414" lon="98.668689">
<time>2014-08-05T03:52:23Z</time></trkpt>
<trkpt lat="27.737474" lon="98.668679">
<time>2014-08-05T03:52:24Z</time></trkpt>
<trkpt lat="27.737534" lon="98.668669">
<time>2014-08-05T03:52:25Z</time></trkpt>
<trkpt lat="27.737594" lon="98.668669">
<time>2014-08-05T03:52:26Z</time></trkpt>
<trkpt lat="27.737634" lon="98.668679">
<time>2014-08-05T03:52:27Z</time></trkpt>
<trkpt lat="27.737674" lon="98.668679">
<time>2014-08-05T03:52:28Z</time></trkpt>
<trkpt lat="27.737754" lon="98.668708">
<time>2014-08-05T03:52:29Z</time></trkpt>
<trkpt lat="27.737824" lon="98.668728">
<time>2014-08-05T03:52:30Z</time></trkpt>
<trkpt lat="27.737903" lon="98.668758">
<time>2014-08-05T03:52:31Z</time></trkpt>
<trkpt lat="27.737953" lon="98.668768">
<time>2014-08-05T03:52:32Z</time></trkpt>
<trkpt lat="27.737983" lon="98.668778">
<time>2014-08-05T03:52:33Z</time></trkpt>
<trkpt lat="27.738134" lon="98.668768">
<time>2014-08-05T03:52:34Z</time></trkpt>
<trkpt lat="27.738204" lon="98.668758">
<time>2014-08-05T03:52:35Z</time></trkpt>
<trkpt lat="27.738424" lon="98.668708">
<time>2014-08-05T03:52:36Z</time></trkpt>
<trkpt lat="27.738764" lon="98.668629">
<time>2014-08-05T03:52:37Z</time></trkpt>
<trkpt lat="27.738874" lon="98.668599">
<time>2014-08-05T03:52:38Z</time></trkpt>
<trkpt lat="27.738944" lon="98.668579">
<time>2014-08-05T03:52:39Z</time></trkpt>
<trkpt lat="27.738974" lon="98.668559">
<time>2014-08-05T03:52:40Z</time></trkpt>
<trkpt lat="27.739004" lon="98.668539">
<time>2014-08-05T03:52:41Z</time></trkpt>
<trkpt lat="27.739054" lon="98.668509">
<time>2014-08-05T03:52:42Z</time></trkpt>
<trkpt lat="27.739084" lon="98.668479">
<time>2014-08-05T03:52:43Z</time></trkpt>
<trkpt lat="27.739104" lon="98.668459">
<time>2014-08-05T03:52:44Z</time></trkpt>
<trkpt lat="27.739134" lon="98.668429">
<time>2014-08-05T03:52:45Z</time></trkpt>
<trkpt lat="27.739154" lon="98.668399">
<time>2014-08-05T03:52:46Z</time></trkpt>
<trkpt lat="27.739305" lon="98.66812">
<time>2014-08-05T03:52:47Z</time></trkpt>
<trkpt lat="27.739385" lon="98.668">
<time>2014-08-05T03:52:48Z</time></trkpt>
<trkpt lat="27.739385" lon="98.668">
<time>2014-08-05T03:52:49Z</time></trkpt>
<trkpt lat="27.739445" lon="98.667911">
<time>2014-08-05T03:52:50Z</time></trkpt>
<trkpt lat="27.739646" lon="98.667621">
<time>2014-08-05T03:52:51Z</time></trkpt>
<trkpt lat="27.739856" lon="98.667332">
<time>2014-08-05T03:52:52Z</time></trkpt>
<trkpt lat="27.739937" lon="98.667242">
<time>2014-08-05T03:52:53Z</time></trkpt>
<trkpt lat="27.740017" lon="98.667163">
<time>2014-08-05T03:52:54Z</time></trkpt>
<trkpt lat="27.740067" lon="98.667113">
<time>2014-08-05T03:52:55Z</time></trkpt>
<trkpt lat="27.740127" lon="98.667083">
<time>2014-08-05T03:52:56Z</time></trkpt>
<trkpt lat="27.740207" lon="98.667033">
<time>2014-08-05T03:52:57Z</time></trkpt>
<trkpt lat="27.740427" lon="98.666933">
<time>2014-08-05T03:52:58Z</time></trkpt>
<trkpt lat="27.740638" lon="98.666834">
<time>2014-08-05T03:52:59Z</time></trkpt>
<trkpt lat="27.740758" lon="98.666794">
<time>2014-08-05T03:53:00Z</time></trkpt>
<trkpt lat="27.740858" lon="98.666774">
<time>2014-08-05T03:53:01Z</time></trkpt>
<trkpt lat="27.740968" lon="98.666764">
<time>2014-08-05T03:53:02Z</time></trkpt>
<trkpt lat="27.741068" lon="98.666764">
<time>2014-08-05T03:53:03Z</time></trkpt>
<trkpt lat="27.741098" lon="98.666764">
<time>2014-08-05T03:53:04Z</time></trkpt>
<trkpt lat="27.741168" lon="98.666764">
<time>2014-08-05T03:53:05Z</time></trkpt>
<trkpt lat="27.741268" lon="98.666774">
<time>2014-08-05T03:53:06Z</time></trkpt>
<trkpt lat="27.741328" lon="98.666784">
<time>2014-08-05T03:53:07Z</time></trkpt>
<trkpt lat="27.741418" lon="98.666804">
<time>2014-08-05T03:53:08Z</time></trkpt>
<trkpt lat="27.741628" lon="98.666863">
<time>2014-08-05T03:53:09Z</time></trkpt>
<trkpt lat="27.741778" lon="98.666923">
<time>2014-08-05T03:53:10Z</time></trkpt>
<trkpt lat="27.742107" lon="98.667073">
<time>2014-08-05T03:53:11Z</time></trkpt>
<trkpt lat="27.742267" lon="98.667143">
<time>2014-08-05T03:53:12Z</time></trkpt>
<trkpt lat="27.742417" lon="98.667212">
<time>2014-08-05T03:53:13Z</time></trkpt>
<trkpt lat="27.742537" lon="98.667242">
<time>2014-08-05T03:53:14Z</time></trkpt>
<trkpt lat="27.742667" lon="98.667292">
<time>2014-08-05T03:53:15Z</time></trkpt>
<trkpt lat="27.742897" lon="98.667392">
<time>2014-08-05T03:53:16Z</time></trkpt>
<trkpt lat="27.743097" lon="98.667472">
<time>2014-08-05T03:53:17Z</time></trkpt>
<trkpt lat="27.743267" lon="98.667532">
<time>2014-08-05T03:53:18Z</time></trkpt>
<trkpt lat="27.743596" lon="98.667641">
<time>2014-08-05T03:53:19Z</time></trkpt>
<trkpt lat="27.743856" lon="98.667711">
<time>2014-08-05T03:53:20Z</time></trkpt>
<trkpt lat="27.743966" lon="98.667741">
<time>2014-08-05T03:53:21Z</time></trkpt>
<trkpt lat="27.744086" lon="98.667761">
<time>2014-08-05T03:53:22Z</time></trkpt>
<trkpt lat="27.744296" lon="98.667791">
<time>2014-08-05T03:53:23Z</time></trkpt>
<trkpt lat="27.744676" lon="98.667821">
<time>2014-08-05T03:53:24Z</time></trkpt>
<trkpt lat="27.745076" lon="98.667831">
<time>2014-08-05T03:53:25Z</time></trkpt>
<trkpt lat="27.745186" lon="98.667831">
<time>2014-08-05T03:53:26Z</time></trkpt>
<trkpt lat="27.745296" lon="98.667841">
<time>2014-08-05T03:53:27Z</time></trkpt>
<trkpt lat="27.745366" lon="98.667851">
<time>2014-08-05T03:53:28Z</time></trkpt>
<trkpt lat="27.745426" lon="98.667871">
<time>2014-08-05T03:53:29Z</time></trkpt>
<trkpt lat="27.745466" lon="98.667881">
<time>2014-08-05T03:53:30Z</time></trkpt>
<trkpt lat="27.745496" lon="98.667891">
<time>2014-08-05T03:53:31Z</time></trkpt>
<trkpt lat="27.745536" lon="98.667911">
<time>2014-08-05T03:53:32Z</time></trkpt>
<trkpt lat="27.745596" lon="98.66795">
<time>2014-08-05T03:53:33Z</time></trkpt>
<trkpt lat="27.745656" lon="98.66799">
<time>2014-08-05T03:53:34Z</time></trkpt>
<trkpt lat="27.745846" lon="98.66816">
<time>2014-08-05T03:53:35Z</time></trkpt>
<trkpt lat="27.746055" lon="98.668339">
<time>2014-08-05T03:53:36Z</time></trkpt>
<trkpt lat="27.746155" lon="98.668399">
<time>2014-08-05T03:53:37Z</time></trkpt>
<trkpt lat="27.746245" lon="98.668409">
<time>2014-08-05T03:53:38Z</time></trkpt>
<trkpt lat="27.746325" lon="98.668409">
<time>2014-08-05T03:53:39Z</time></trkpt>
<trkpt lat="27.746405" lon="98.668409">
<time>2014-08-05T03:53:40Z</time></trkpt>
<trkpt lat="27.746485" lon="98.668399">
<time>2014-08-05T03:53:41Z</time></trkpt>
<trkpt lat="27.746555" lon="98.668359">
<time>2014-08-05T03:53:42Z</time></trkpt>
<trkpt lat="27.746676" lon="98.668329">
<time>2014-08-05T03:53:43Z</time></trkpt>
<trkpt lat="27.746916" lon="98.66823">
<time>2014-08-05T03:53:44Z</time></trkpt>
<trkpt lat="27.747006" lon="98.66817">
<time>2014-08-05T03:53:45Z</time></trkpt>
<trkpt lat="27.747036" lon="98.66815">
<time>2014-08-05T03:53:46Z</time></trkpt>
<trkpt lat="27.747076" lon="98.66815">
<time>2014-08-05T03:53:47Z</time></trkpt>
<trkpt lat="27.747106" lon="98.66815">
<time>2014-08-05T03:53:48Z</time></trkpt>
<trkpt lat="27.747126" lon="98.66816">
<time>2014-08-05T03:53:49Z</time></trkpt>
<trkpt lat="27.747146" lon="98.66818">
<time>2014-08-05T03:53:50Z</time></trkpt>
<trkpt lat="27.747166" lon="98.6682">
<time>2014-08-05T03:53:51Z</time></trkpt>
<trkpt lat="27.747385" lon="98.668449">
<time>2014-08-05T03:53:52Z</time></trkpt>
<trkpt lat="27.747445" lon="98.668509">
<time>2014-08-05T03:53:53Z</time></trkpt>
<trkpt lat="27.747505" lon="98.668589">
<time>2014-08-05T03:53:54Z</time></trkpt>
<trkpt lat="27.747555" lon="98.668678">
<time>2014-08-05T03:53:55Z</time></trkpt>
<trkpt lat="27.747585" lon="98.668738">
<time>2014-08-05T03:53:56Z</time></trkpt>
<trkpt lat="27.747605" lon="98.668778">
<time>2014-08-05T03:53:57Z</time></trkpt>
<trkpt lat="27.747615" lon="98.668828">
<time>2014-08-05T03:53:58Z</time></trkpt>
<trkpt lat="27.747654" lon="98.669007">
<time>2014-08-05T03:53:59Z</time></trkpt>
<trkpt lat="27.747694" lon="98.669187">
<time>2014-08-05T03:54:00Z</time></trkpt>
<trkpt lat="27.747734" lon="98.669287">
<time>2014-08-05T03:54:01Z</time></trkpt>
<trkpt lat="27.747774" lon="98.669386">
<time>2014-08-05T03:54:02Z</time></trkpt>
<trkpt lat="27.747833" lon="98.669476">
<time>2014-08-05T03:54:03Z</time></trkpt>
<trkpt lat="27.748133" lon="98.669945">
<time>2014-08-05T03:54:04Z</time></trkpt>
<trkpt lat="27.748242" lon="98.670075">
<time>2014-08-05T03:54:05Z</time></trkpt>
<trkpt lat="27.748881" lon="98.670932">
<time>2014-08-05T03:54:06Z</time></trkpt>
<trkpt lat="27.74932" lon="98.671441">
<time>2014-08-05T03:54:07Z</time></trkpt>
<trkpt lat="27.74948" lon="98.67164">
<time>2014-08-05T03:54:08Z</time></trkpt>
<trkpt lat="27.749619" lon="98.67184">
<time>2014-08-05T03:54:09Z</time></trkpt>
<trkpt lat="27.749759" lon="98.672059">
<time>2014-08-05T03:54:10Z</time></trkpt>
<trkpt lat="27.749868" lon="98.672268">
<time>2014-08-05T03:54:11Z</time></trkpt>
<trkpt lat="27.750018" lon="98.672548">
<time>2014-08-05T03:54:12Z</time></trkpt>
<trkpt lat="27.750078" lon="98.672617">
<time>2014-08-05T03:54:13Z</time></trkpt>
<trkpt lat="27.750138" lon="98.672677">
<time>2014-08-05T03:54:14Z</time></trkpt>
<trkpt lat="27.750168" lon="98.672697">
<time>2014-08-05T03:54:15Z</time></trkpt>
<trkpt lat="27.750228" lon="98.672737">
<time>2014-08-05T03:54:16Z</time></trkpt>
<trkpt lat="27.750268" lon="98.672757">
<time>2014-08-05T03:54:17Z</time></trkpt>
<trkpt lat="27.750707" lon="98.672966">
<time>2014-08-05T03:54:18Z</time></trkpt>
<trkpt lat="27.750797" lon="98.673016">
<time>2014-08-05T03:54:19Z</time></trkpt>
<trkpt lat="27.750847" lon="98.673056">
<time>2014-08-05T03:54:20Z</time></trkpt>
<trkpt lat="27.750917" lon="98.673106">
<time>2014-08-05T03:54:21Z</time></trkpt>
<trkpt lat="27.751047" lon="98.673196">
<time>2014-08-05T03:54:22Z</time></trkpt>
<trkpt lat="27.751137" lon="98.673266">
<time>2014-08-05T03:54:23Z</time></trkpt>
<trkpt lat="27.751287" lon="98.673345">
<time>2014-08-05T03:54:24Z</time></trkpt>
<trkpt lat="27.751376" lon="98.673375">
<time>2014-08-05T03:54:25Z</time></trkpt>
<trkpt lat="27.751496" lon="98.673405">
<time>2014-08-05T03:54:26Z</time></trkpt>
<trkpt lat="27.751716" lon="98.673465">
<time>2014-08-05T03:54:27Z</time></trkpt>
<trkpt lat="27.751946" lon="98.673555">
<time>2014-08-05T03:54:28Z</time></trkpt>
<trkpt lat="27.752126" lon="98.673615">
<time>2014-08-05T03:54:29Z</time></trkpt>
<trkpt lat="27.752256" lon="98.673684">
<time>2014-08-05T03:54:30Z</time></trkpt>
<trkpt lat="27.752356" lon="98.673744">
<time>2014-08-05T03:54:31Z</time></trkpt>
<trkpt lat="27.752536" lon="98.673844">
<time>2014-08-05T03:54:32Z</time></trkpt>
<trkpt lat="27.752616" lon="98.673874">
<time>2014-08-05T03:54:33Z</time></trkpt>
<trkpt lat="27.752816" lon="98.673934">
<time>2014-08-05T03:54:34Z</time></trkpt>
<trkpt lat="27.752926" lon="98.673984">
<time>2014-08-05T03:54:35Z</time></trkpt>
<trkpt lat="27.753095" lon="98.674053">
<time>2014-08-05T03:54:36Z</time></trkpt>
<trkpt lat="27.753205" lon="98.674103">
<time>2014-08-05T03:54:37Z</time></trkpt>
<trkpt lat="27.753305" lon="98.674123">
<time>2014-08-05T03:54:38Z</time></trkpt>
<trkpt lat="27.753515" lon="98.674143">
<time>2014-08-05T03:54:39Z</time></trkpt>
<trkpt lat="27.753885" lon="98.674203">
<time>2014-08-05T03:54:40Z</time></trkpt>
<trkpt lat="27.753975" lon="98.674233">
<time>2014-08-05T03:54:41Z</time></trkpt>
<trkpt lat="27.754065" lon="98.674283">
<time>2014-08-05T03:54:42Z</time></trkpt>
<trkpt lat="27.754175" lon="98.674343">
<time>2014-08-05T03:54:43Z</time></trkpt>
<trkpt lat="27.755114" lon="98.674871">
<time>2014-08-05T03:54:44Z</time></trkpt>
<trkpt lat="27.755304" lon="98.674971">
<time>2014-08-05T03:54:45Z</time></trkpt>
<trkpt lat="27.755534" lon="98.675071">
<time>2014-08-05T03:54:46Z</time></trkpt>
<trkpt lat="27.755874" lon="98.6752">
<time>2014-08-05T03:54:47Z</time></trkpt>
<trkpt lat="27.756073" lon="98.67529">
<time>2014-08-05T03:54:48Z</time></trkpt>
<trkpt lat="27.756333" lon="98.6754">
<time>2014-08-05T03:54:49Z</time></trkpt>
<trkpt lat="27.756543" lon="98.675529">
<time>2014-08-05T03:54:50Z</time></trkpt>
<trkpt lat="27.756643" lon="98.675599">
<time>2014-08-05T03:54:51Z</time></trkpt>
<trkpt lat="27.756743" lon="98.675679">
<time>2014-08-05T03:54:52Z</time></trkpt>
<trkpt lat="27.757042" lon="98.675968">
<time>2014-08-05T03:54:53Z</time></trkpt>
<trkpt lat="27.757282" lon="98.676197">
<time>2014-08-05T03:54:54Z</time></trkpt>
<trkpt lat="27.757452" lon="98.676317">
<time>2014-08-05T03:54:55Z</time></trkpt>
<trkpt lat="27.757701" lon="98.676477">
<time>2014-08-05T03:54:56Z</time></trkpt>
<trkpt lat="27.758601" lon="98.676965">
<time>2014-08-05T03:54:57Z</time></trkpt>
<trkpt lat="27.758741" lon="98.677025">
<time>2014-08-05T03:54:58Z</time></trkpt>
<trkpt lat="27.75891" lon="98.677075">
<time>2014-08-05T03:54:59Z</time></trkpt>
<trkpt lat="27.7592" lon="98.677125">
<time>2014-08-05T03:55:00Z</time></trkpt>
<trkpt lat="27.76108" lon="98.677274">
<time>2014-08-05T03:55:01Z</time></trkpt>
<trkpt lat="27.76134" lon="98.677294">
<time>2014-08-05T03:55:02Z</time></trkpt>
<trkpt lat="27.76152" lon="98.677284">
<time>2014-08-05T03:55:03Z</time></trkpt>
<trkpt lat="27.761911" lon="98.677234">
<time>2014-08-05T03:55:04Z</time></trkpt>
<trkpt lat="27.762231" lon="98.677195">
<time>2014-08-05T03:55:05Z</time></trkpt>
<trkpt lat="27.762371" lon="98.677195">
<time>2014-08-05T03:55:06Z</time></trkpt>
<trkpt lat="27.762541" lon="98.677195">
<time>2014-08-05T03:55:07Z</time></trkpt>
<trkpt lat="27.762681" lon="98.677215">
<time>2014-08-05T03:55:08Z</time></trkpt>
<trkpt lat="27.762791" lon="98.677244">
<time>2014-08-05T03:55:09Z</time></trkpt>
<trkpt lat="27.762931" lon="98.677294">
<time>2014-08-05T03:55:10Z</time></trkpt>
<trkpt lat="27.763161" lon="98.677374">
<time>2014-08-05T03:55:11Z</time></trkpt>
<trkpt lat="27.76337" lon="98.677434">
<time>2014-08-05T03:55:12Z</time></trkpt>
<trkpt lat="27.76355" lon="98.677474">
<time>2014-08-05T03:55:13Z</time></trkpt>
<trkpt lat="27.76382" lon="98.677524">
<time>2014-08-05T03:55:14Z</time></trkpt>
<trkpt lat="27.76403" lon="98.677574">
<time>2014-08-05T03:55:15Z</time></trkpt>
<trkpt lat="27.76417" lon="98.677623">
<time>2014-08-05T03:55:16Z</time></trkpt>
<trkpt lat="27.76439" lon="98.677693">
<time>2014-08-05T03:55:17Z</time></trkpt>
<trkpt lat="27.76457" lon="98.677743">
<time>2014-08-05T03:55:18Z</time></trkpt>
<trkpt lat="27.76474" lon="98.677783">
<time>2014-08-05T03:55:19Z</time></trkpt>
<trkpt lat="27.76492" lon="98.677813">
<time>2014-08-05T03:55:20Z</time></trkpt>
<trkpt lat="27.76525" lon="98.677843">
<time>2014-08-05T03:55:21Z</time></trkpt>
<trkpt lat="27.7654" lon="98.677863">
<time>2014-08-05T03:55:22Z</time></trkpt>
<trkpt lat="27.76554" lon="98.677913">
<time>2014-08-05T03:55:23Z</time></trkpt>
<trkpt lat="27.76567" lon="98.678002">
<time>2014-08-05T03:55:24Z</time></trkpt>
<trkpt lat="27.766509" lon="98.678631">
<time>2014-08-05T03:55:25Z</time></trkpt>
<trkpt lat="27.766698" lon="98.67876">
<time>2014-08-05T03:55:26Z</time></trkpt>
<trkpt lat="27.766878" lon="98.67885">
<time>2014-08-05T03:55:27Z</time></trkpt>
<trkpt lat="27.767028" lon="98.6789">
<time>2014-08-05T03:55:28Z</time></trkpt>
<trkpt lat="27.767188" lon="98.67895">
<time>2014-08-05T03:55:29Z</time></trkpt>
<trkpt lat="27.767328" lon="98.67899">
<time>2014-08-05T03:55:30Z</time></trkpt>
<trkpt lat="27.767478" lon="98.67899">
<time>2014-08-05T03:55:31Z</time></trkpt>
<trkpt lat="27.767618" lon="98.67898">
<time>2014-08-05T03:55:32Z</time></trkpt>
<trkpt lat="27.767958" lon="98.67892">
<time>2014-08-05T03:55:33Z</time></trkpt>
<trkpt lat="27.768048" lon="98.67891">
<time>2014-08-05T03:55:34Z</time></trkpt>
<trkpt lat="27.768138" lon="98.6789">
<time>2014-08-05T03:55:35Z</time></trkpt>
<trkpt lat="27.768198" lon="98.6789">
<time>2014-08-05T03:55:36Z</time></trkpt>
<trkpt lat="27.768258" lon="98.67892">
<time>2014-08-05T03:55:37Z</time></trkpt>
<trkpt lat="27.768338" lon="98.67895">
<time>2014-08-05T03:55:38Z</time></trkpt>
<trkpt lat="27.768458" lon="98.679019">
<time>2014-08-05T03:55:39Z</time></trkpt>
<trkpt lat="27.768558" lon="98.679099">
<time>2014-08-05T03:55:40Z</time></trkpt>
<trkpt lat="27.768648" lon="98.679159">
<time>2014-08-05T03:55:41Z</time></trkpt>
<trkpt lat="27.768768" lon="98.679219">
<time>2014-08-05T03:55:42Z</time></trkpt>
<trkpt lat="27.768818" lon="98.679239">
<time>2014-08-05T03:55:43Z</time></trkpt>
<trkpt lat="27.768898" lon="98.679259">
<time>2014-08-05T03:55:44Z</time></trkpt>
<trkpt lat="27.768948" lon="98.679269">
<time>2014-08-05T03:55:45Z</time></trkpt>
<trkpt lat="27.769018" lon="98.679279">
<time>2014-08-05T03:55:46Z</time></trkpt>
<trkpt lat="27.769248" lon="98.679309">
<time>2014-08-05T03:55:47Z</time></trkpt>
<trkpt lat="27.769708" lon="98.679339">
<time>2014-08-05T03:55:48Z</time></trkpt>
<trkpt lat="27.769948" lon="98.679368">
<time>2014-08-05T03:55:49Z</time></trkpt>
<trkpt lat="27.770188" lon="98.679428">
<time>2014-08-05T03:55:50Z</time></trkpt>
<trkpt lat="27.770528" lon="98.679538">
<time>2014-08-05T03:55:51Z</time></trkpt>
<trkpt lat="27.770887" lon="98.679678">
<time>2014-08-05T03:55:52Z</time></trkpt>
<trkpt lat="27.771297" lon="98.679837">
<time>2014-08-05T03:55:53Z</time></trkpt>
<trkpt lat="27.771657" lon="98.679947">
<time>2014-08-05T03:55:54Z</time></trkpt>
<trkpt lat="27.772027" lon="98.680027">
<time>2014-08-05T03:55:55Z</time></trkpt>
<trkpt lat="27.772367" lon="98.680126">
<time>2014-08-05T03:55:56Z</time></trkpt>
<trkpt lat="27.772557" lon="98.680186">
<time>2014-08-05T03:55:57Z</time></trkpt>
<trkpt lat="27.772817" lon="98.680256">
<time>2014-08-05T03:55:58Z</time></trkpt>
<trkpt lat="27.773096" lon="98.680296">
<time>2014-08-05T03:55:59Z</time></trkpt>
<trkpt lat="27.773406" lon="98.680346">
<time>2014-08-05T03:56:00Z</time></trkpt>
<trkpt lat="27.773626" lon="98.680396">
<time>2014-08-05T03:56:01Z</time></trkpt>
<trkpt lat="27.773846" lon="98.680455">
<time>2014-08-05T03:56:02Z</time></trkpt>
<trkpt lat="27.774096" lon="98.680575">
<time>2014-08-05T03:56:03Z</time></trkpt>
<trkpt lat="27.774446" lon="98.680755">
<time>2014-08-05T03:56:04Z</time></trkpt>
<trkpt lat="27.775115" lon="98.681114">
<time>2014-08-05T03:56:05Z</time></trkpt>
<trkpt lat="27.775315" lon="98.681183">
<time>2014-08-05T03:56:06Z</time></trkpt>
<trkpt lat="27.775515" lon="98.681243">
<time>2014-08-05T03:56:07Z</time></trkpt>
<trkpt lat="27.775675" lon="98.681263">
<time>2014-08-05T03:56:08Z</time></trkpt>
<trkpt lat="27.775845" lon="98.681273">
<time>2014-08-05T03:56:09Z</time></trkpt>
<trkpt lat="27.775885" lon="98.681273">
<time>2014-08-05T03:56:10Z</time></trkpt>
<trkpt lat="27.776075" lon="98.681263">
<time>2014-08-05T03:56:11Z</time></trkpt>
<trkpt lat="27.776345" lon="98.681253">
<time>2014-08-05T03:56:12Z</time></trkpt>
<trkpt lat="27.776595" lon="98.681243">
<time>2014-08-05T03:56:13Z</time></trkpt>
<trkpt lat="27.776955" lon="98.681223">
<time>2014-08-05T03:56:14Z</time></trkpt>
<trkpt lat="27.777685" lon="98.681243">
<time>2014-08-05T03:56:15Z</time></trkpt>
<trkpt lat="27.778165" lon="98.681243">
<time>2014-08-05T03:56:16Z</time></trkpt>
<trkpt lat="27.778776" lon="98.681193">
<time>2014-08-05T03:56:17Z</time></trkpt>
<trkpt lat="27.779096" lon="98.681143">
<time>2014-08-05T03:56:18Z</time></trkpt>
<trkpt lat="27.779386" lon="98.681064">
<time>2014-08-05T03:56:19Z</time></trkpt>
<trkpt lat="27.779606" lon="98.680984">
<time>2014-08-05T03:56:20Z</time></trkpt>
<trkpt lat="27.779826" lon="98.680884">
<time>2014-08-05T03:56:21Z</time></trkpt>
<trkpt lat="27.780087" lon="98.680764">
<time>2014-08-05T03:56:22Z</time></trkpt>
<trkpt lat="27.780327" lon="98.680665">
<time>2014-08-05T03:56:23Z</time></trkpt>
<trkpt lat="27.780467" lon="98.680625">
<time>2014-08-05T03:56:24Z</time></trkpt>
<trkpt lat="27.780677" lon="98.680585">
<time>2014-08-05T03:56:25Z</time></trkpt>
<trkpt lat="27.781127" lon="98.680535">
<time>2014-08-05T03:56:26Z</time></trkpt>
<trkpt lat="27.781577" lon="98.680525">
<time>2014-08-05T03:56:27Z</time></trkpt>
<trkpt lat="27.782177" lon="98.680515">
<time>2014-08-05T03:56:28Z</time></trkpt>
<trkpt lat="27.782747" lon="98.680535">
<time>2014-08-05T03:56:29Z</time></trkpt>
<trkpt lat="27.783277" lon="98.680575">
<time>2014-08-05T03:56:30Z</time></trkpt>
<trkpt lat="27.783797" lon="98.680655">
<time>2014-08-05T03:56:31Z</time></trkpt>
<trkpt lat="27.784107" lon="98.680685">
<time>2014-08-05T03:56:32Z</time></trkpt>
<trkpt lat="27.784297" lon="98.680695">
<time>2014-08-05T03:56:33Z</time></trkpt>
<trkpt lat="27.784357" lon="98.680695">
<time>2014-08-05T03:56:34Z</time></trkpt>
<trkpt lat="27.784397" lon="98.680695">
<time>2014-08-05T03:56:35Z</time></trkpt>
<trkpt lat="27.784588" lon="98.680665">
<time>2014-08-05T03:56:36Z</time></trkpt>
<trkpt lat="27.785368" lon="98.680485">
<time>2014-08-05T03:56:37Z</time></trkpt>
<trkpt lat="27.785578" lon="98.680445">
<time>2014-08-05T03:56:38Z</time></trkpt>
<trkpt lat="27.785608" lon="98.680445">
<time>2014-08-05T03:56:39Z</time></trkpt>
<trkpt lat="27.785638" lon="98.680445">
<time>2014-08-05T03:56:40Z</time></trkpt>
<trkpt lat="27.785828" lon="98.680435">
<time>2014-08-05T03:56:41Z</time></trkpt>
<trkpt lat="27.786108" lon="98.680465">
<time>2014-08-05T03:56:42Z</time></trkpt>
<trkpt lat="27.787148" lon="98.680635">
<time>2014-08-05T03:56:43Z</time></trkpt>
<trkpt lat="27.787428" lon="98.680685">
<time>2014-08-05T03:56:44Z</time></trkpt>
<trkpt lat="27.787748" lon="98.680724">
<time>2014-08-05T03:56:45Z</time></trkpt>
<trkpt lat="27.788158" lon="98.680734">
<time>2014-08-05T03:56:46Z</time></trkpt>
<trkpt lat="27.788388" lon="98.680714">
<time>2014-08-05T03:56:47Z</time></trkpt>
<trkpt lat="27.788668" lon="98.680665">
<time>2014-08-05T03:56:48Z</time></trkpt>
<trkpt lat="27.789128" lon="98.680555">
<time>2014-08-05T03:56:49Z</time></trkpt>
<trkpt lat="27.789198" lon="98.680545">
<time>2014-08-05T03:56:50Z</time></trkpt>
<trkpt lat="27.789208" lon="98.680545">
<time>2014-08-05T03:56:51Z</time></trkpt>
<trkpt lat="27.789218" lon="98.680545">
<time>2014-08-05T03:56:52Z</time></trkpt>
<trkpt lat="27.789268" lon="98.680545">
<time>2014-08-05T03:56:53Z</time></trkpt>
<trkpt lat="27.789298" lon="98.680555">
<time>2014-08-05T03:56:54Z</time></trkpt>
<trkpt lat="27.789318" lon="98.680565">
<time>2014-08-05T03:56:55Z</time></trkpt>
<trkpt lat="27.789348" lon="98.680575">
<time>2014-08-05T03:56:56Z</time></trkpt>
<trkpt lat="27.789358" lon="98.680595">
<time>2014-08-05T03:56:57Z</time></trkpt>
<trkpt lat="27.789378" lon="98.680605">
<time>2014-08-05T03:56:58Z</time></trkpt>
<trkpt lat="27.789388" lon="98.680625">
<time>2014-08-05T03:56:59Z</time></trkpt>
<trkpt lat="27.789418" lon="98.680665">
<time>2014-08-05T03:57:00Z</time></trkpt>
<trkpt lat="27.789538" lon="98.680874">
<time>2014-08-05T03:57:01Z</time></trkpt>
<trkpt lat="27.789608" lon="98.680984">
<time>2014-08-05T03:57:02Z</time></trkpt>
<trkpt lat="27.789658" lon="98.681044">
<time>2014-08-05T03:57:03Z</time></trkpt>
<trkpt lat="27.789728" lon="98.681083">
<time>2014-08-05T03:57:04Z</time></trkpt>
<trkpt lat="27.789808" lon="98.681083">
<time>2014-08-05T03:57:05Z</time></trkpt>
<trkpt lat="27.789998" lon="98.681083">
<time>2014-08-05T03:57:06Z</time></trkpt>
<trkpt lat="27.790138" lon="98.681083">
<time>2014-08-05T03:57:07Z</time></trkpt>
<trkpt lat="27.790198" lon="98.681083">
<time>2014-08-05T03:57:08Z</time></trkpt>
<trkpt lat="27.790248" lon="98.681103">
<time>2014-08-05T03:57:09Z</time></trkpt>
<trkpt lat="27.790298" lon="98.681113">
<time>2014-08-05T03:57:10Z</time></trkpt>
<trkpt lat="27.790358" lon="98.681133">
<time>2014-08-05T03:57:11Z</time></trkpt>
<trkpt lat="27.790477" lon="98.681193">
<time>2014-08-05T03:57:12Z</time></trkpt>
<trkpt lat="27.790577" lon="98.681243">
<time>2014-08-05T03:57:13Z</time></trkpt>
<trkpt lat="27.790687" lon="98.681283">
<time>2014-08-05T03:57:14Z</time></trkpt>
<trkpt lat="27.790807" lon="98.681313">
<time>2014-08-05T03:57:15Z</time></trkpt>
<trkpt lat="27.790907" lon="98.681353">
<time>2014-08-05T03:57:16Z</time></trkpt>
<trkpt lat="27.790987" lon="98.681383">
<time>2014-08-05T03:57:17Z</time></trkpt>
<trkpt lat="27.791037" lon="98.681413">
<time>2014-08-05T03:57:18Z</time></trkpt>
<trkpt lat="27.791107" lon="98.681492">
<time>2014-08-05T03:57:19Z</time></trkpt>
<trkpt lat="27.791187" lon="98.681602">
<time>2014-08-05T03:57:20Z</time></trkpt>
<trkpt lat="27.791277" lon="98.681732">
<time>2014-08-05T03:57:21Z</time></trkpt>
<trkpt lat="27.791326" lon="98.681811">
<time>2014-08-05T03:57:22Z</time></trkpt>
<trkpt lat="27.791376" lon="98.681861">
<time>2014-08-05T03:57:23Z</time></trkpt>
<trkpt lat="27.791416" lon="98.681891">
<time>2014-08-05T03:57:24Z</time></trkpt>
<trkpt lat="27.791456" lon="98.681901">
<time>2014-08-05T03:57:25Z</time></trkpt>
<trkpt lat="27.791516" lon="98.681921">
<time>2014-08-05T03:57:26Z</time></trkpt>
<trkpt lat="27.791606" lon="98.681931">
<time>2014-08-05T03:57:27Z</time></trkpt>
<trkpt lat="27.791866" lon="98.681921">
<time>2014-08-05T03:57:28Z</time></trkpt>
<trkpt lat="27.791966" lon="98.681931">
<time>2014-08-05T03:57:29Z</time></trkpt>
<trkpt lat="27.792066" lon="98.681951">
<time>2014-08-05T03:57:30Z</time></trkpt>
<trkpt lat="27.792176" lon="98.681991">
<time>2014-08-05T03:57:31Z</time></trkpt>
<trkpt lat="27.792266" lon="98.682041">
<time>2014-08-05T03:57:32Z</time></trkpt>
<trkpt lat="27.792376" lon="98.682111">
<time>2014-08-05T03:57:33Z</time></trkpt>
<trkpt lat="27.792486" lon="98.68219">
<time>2014-08-05T03:57:34Z</time></trkpt>
<trkpt lat="27.792606" lon="98.68233">
<time>2014-08-05T03:57:35Z</time></trkpt>
<trkpt lat="27.792695" lon="98.68243">
<time>2014-08-05T03:57:36Z</time></trkpt>
<trkpt lat="27.793334" lon="98.683297">
<time>2014-08-05T03:57:37Z</time></trkpt>
<trkpt lat="27.793434" lon="98.683427">
<time>2014-08-05T03:57:38Z</time></trkpt>
<trkpt lat="27.793504" lon="98.683497">
<time>2014-08-05T03:57:39Z</time></trkpt>
<trkpt lat="27.793534" lon="98.683537">
<time>2014-08-05T03:57:40Z</time></trkpt>
<trkpt lat="27.793574" lon="98.683557">
<time>2014-08-05T03:57:41Z</time></trkpt>
<trkpt lat="27.793594" lon="98.683567">
<time>2014-08-05T03:57:42Z</time></trkpt>
<trkpt lat="27.793683" lon="98.683606">
<time>2014-08-05T03:57:43Z</time></trkpt>
<trkpt lat="27.793833" lon="98.683666">
<time>2014-08-05T03:57:44Z</time></trkpt>
<trkpt lat="27.793883" lon="98.683686">
<time>2014-08-05T03:57:45Z</time></trkpt>
<trkpt lat="27.793933" lon="98.683706">
<time>2014-08-05T03:57:46Z</time></trkpt>
<trkpt lat="27.794043" lon="98.683816">
<time>2014-08-05T03:57:47Z</time></trkpt>
<trkpt lat="27.794153" lon="98.683916">
<time>2014-08-05T03:57:48Z</time></trkpt>
<trkpt lat="27.794293" lon="98.684035">
<time>2014-08-05T03:57:49Z</time></trkpt>
<trkpt lat="27.794473" lon="98.684175">
<time>2014-08-05T03:57:50Z</time></trkpt>
<trkpt lat="27.794662" lon="98.684295">
<time>2014-08-05T03:57:51Z</time></trkpt>
<trkpt lat="27.794812" lon="98.684394">
<time>2014-08-05T03:57:52Z</time></trkpt>
<trkpt lat="27.794982" lon="98.684484">
<time>2014-08-05T03:57:53Z</time></trkpt>
<trkpt lat="27.795172" lon="98.684544">
<time>2014-08-05T03:57:54Z</time></trkpt>
<trkpt lat="27.795292" lon="98.684574">
<time>2014-08-05T03:57:55Z</time></trkpt>
<trkpt lat="27.795422" lon="98.684594">
<time>2014-08-05T03:57:56Z</time></trkpt>
<trkpt lat="27.795662" lon="98.684614">
<time>2014-08-05T03:57:57Z</time></trkpt>
<trkpt lat="27.795862" lon="98.684644">
<time>2014-08-05T03:57:58Z</time></trkpt>
<trkpt lat="27.796052" lon="98.684684">
<time>2014-08-05T03:57:59Z</time></trkpt>
<trkpt lat="27.796382" lon="98.684793">
<time>2014-08-05T03:58:00Z</time></trkpt>
<trkpt lat="27.796752" lon="98.684923">
<time>2014-08-05T03:58:01Z</time></trkpt>
<trkpt lat="27.796871" lon="98.684953">
<time>2014-08-05T03:58:02Z</time></trkpt>
<trkpt lat="27.797001" lon="98.684963">
<time>2014-08-05T03:58:03Z</time></trkpt>
<trkpt lat="27.797091" lon="98.684963">
<time>2014-08-05T03:58:04Z</time></trkpt>
<trkpt lat="27.797232" lon="98.684943">
<time>2014-08-05T03:58:05Z</time></trkpt>
<trkpt lat="27.797422" lon="98.684913">
<time>2014-08-05T03:58:06Z</time></trkpt>
<trkpt lat="27.797562" lon="98.684913">
<time>2014-08-05T03:58:07Z</time></trkpt>
<trkpt lat="27.797702" lon="98.684913">
<time>2014-08-05T03:58:08Z</time></trkpt>
<trkpt lat="27.797872" lon="98.684903">
<time>2014-08-05T03:58:09Z</time></trkpt>
<trkpt lat="27.798022" lon="98.684873">
<time>2014-08-05T03:58:10Z</time></trkpt>
<trkpt lat="27.798192" lon="98.684823">
<time>2014-08-05T03:58:11Z</time></trkpt>
<trkpt lat="27.798302" lon="98.684783">
<time>2014-08-05T03:58:12Z</time></trkpt>
<trkpt lat="27.798923" lon="98.684564">
<time>2014-08-05T03:58:13Z</time></trkpt>
<trkpt lat="27.799203" lon="98.684464">
<time>2014-08-05T03:58:14Z</time></trkpt>
<trkpt lat="27.799453" lon="98.684364">
<time>2014-08-05T03:58:15Z</time></trkpt>
<trkpt lat="27.799653" lon="98.684285">
<time>2014-08-05T03:58:16Z</time></trkpt>
<trkpt lat="27.799883" lon="98.684205">
<time>2014-08-05T03:58:17Z</time></trkpt>
<trkpt lat="27.800264" lon="98.684095">
<time>2014-08-05T03:58:18Z</time></trkpt>
<trkpt lat="27.800404" lon="98.684065">
<time>2014-08-05T03:58:19Z</time></trkpt>
<trkpt lat="27.800624" lon="98.684015">
<time>2014-08-05T03:58:20Z</time></trkpt>
<trkpt lat="27.800744" lon="98.683995">
<time>2014-08-05T03:58:21Z</time></trkpt>
<trkpt lat="27.800904" lon="98.683975">
<time>2014-08-05T03:58:22Z</time></trkpt>
<trkpt lat="27.801204" lon="98.683965">
<time>2014-08-05T03:58:23Z</time></trkpt>
<trkpt lat="27.801474" lon="98.683955">
<time>2014-08-05T03:58:24Z</time></trkpt>
<trkpt lat="27.801674" lon="98.683935">
<time>2014-08-05T03:58:25Z</time></trkpt>
<trkpt lat="27.801834" lon="98.683896">
<time>2014-08-05T03:58:26Z</time></trkpt>
<trkpt lat="27.801984" lon="98.683856">
<time>2014-08-05T03:58:27Z</time></trkpt>
<trkpt lat="27.802165" lon="98.683766">
<time>2014-08-05T03:58:28Z</time></trkpt>
<trkpt lat="27.802255" lon="98.683736">
<time>2014-08-05T03:58:29Z</time></trkpt>
<trkpt lat="27.802375" lon="98.683696">
<time>2014-08-05T03:58:30Z</time></trkpt>
<trkpt lat="27.802495" lon="98.683676">
<time>2014-08-05T03:58:31Z</time></trkpt>
<trkpt lat="27.802735" lon="98.683666">
<time>2014-08-05T03:58:32Z</time></trkpt>
<trkpt lat="27.803075" lon="98.683656">
<time>2014-08-05T03:58:33Z</time></trkpt>
<trkpt lat="27.803195" lon="98.683676">
<time>2014-08-05T03:58:34Z</time></trkpt>
<trkpt lat="27.803255" lon="98.683686">
<time>2014-08-05T03:58:35Z</time></trkpt>
<trkpt lat="27.803295" lon="98.683696">
<time>2014-08-05T03:58:36Z</time></trkpt>
<trkpt lat="27.803395" lon="98.683746">
<time>2014-08-05T03:58:37Z</time></trkpt>
<trkpt lat="27.803495" lon="98.683796">
<time>2014-08-05T03:58:38Z</time></trkpt>
<trkpt lat="27.803575" lon="98.683846">
<time>2014-08-05T03:58:39Z</time></trkpt>
<trkpt lat="27.803645" lon="98.683886">
<time>2014-08-05T03:58:40Z</time></trkpt>
<trkpt lat="27.803685" lon="98.683896">
<time>2014-08-05T03:58:41Z</time></trkpt>
<trkpt lat="27.803725" lon="98.683905">
<time>2014-08-05T03:58:42Z</time></trkpt>
<trkpt lat="27.803745" lon="98.683915">
<time>2014-08-05T03:58:43Z</time></trkpt>
<trkpt lat="27.803775" lon="98.683915">
<time>2014-08-05T03:58:44Z</time></trkpt>
<trkpt lat="27.803795" lon="98.683905">
<time>2014-08-05T03:58:45Z</time></trkpt>
<trkpt lat="27.803825" lon="98.683905">
<time>2014-08-05T03:58:46Z</time></trkpt>
<trkpt lat="27.803885" lon="98.683896">
<time>2014-08-05T03:58:47Z</time></trkpt>
<trkpt lat="27.803965" lon="98.683866">
<time>2014-08-05T03:58:48Z</time></trkpt>
<trkpt lat="27.803975" lon="98.683856">
<time>2014-08-05T03:58:49Z</time></trkpt>
<trkpt lat="27.804205" lon="98.683736">
<time>2014-08-05T03:58:50Z</time></trkpt>
<trkpt lat="27.804395" lon="98.683656">
<time>2014-08-05T03:58:51Z</time></trkpt>
<trkpt lat="27.804445" lon="98.683646">
<time>2014-08-05T03:58:52Z</time></trkpt>
<trkpt lat="27.804495" lon="98.683646">
<time>2014-08-05T03:58:53Z</time></trkpt>
<trkpt lat="27.804535" lon="98.683646">
<time>2014-08-05T03:58:54Z</time></trkpt>
<trkpt lat="27.804575" lon="98.683656">
<time>2014-08-05T03:58:55Z</time></trkpt>
<trkpt lat="27.804725" lon="98.683696">
<time>2014-08-05T03:58:56Z</time></trkpt>
<trkpt lat="27.804945" lon="98.683756">
<time>2014-08-05T03:58:57Z</time></trkpt>
<trkpt lat="27.805205" lon="98.683836">
<time>2014-08-05T03:58:58Z</time></trkpt>
<trkpt lat="27.805355" lon="98.683895">
<time>2014-08-05T03:58:59Z</time></trkpt>
<trkpt lat="27.805465" lon="98.683965">
<time>2014-08-05T03:59:00Z</time></trkpt>
<trkpt lat="27.805565" lon="98.684035">
<time>2014-08-05T03:59:01Z</time></trkpt>
<trkpt lat="27.805664" lon="98.684125">
<time>2014-08-05T03:59:02Z</time></trkpt>
<trkpt lat="27.805784" lon="98.684245">
<time>2014-08-05T03:59:03Z</time></trkpt>
<trkpt lat="27.805914" lon="98.684324">
<time>2014-08-05T03:59:04Z</time></trkpt>
<trkpt lat="27.806034" lon="98.684394">
<time>2014-08-05T03:59:05Z</time></trkpt>
<trkpt lat="27.806254" lon="98.684474">
<time>2014-08-05T03:59:06Z</time></trkpt>
<trkpt lat="27.806464" lon="98.684544">
<time>2014-08-05T03:59:07Z</time></trkpt>
<trkpt lat="27.806674" lon="98.684594">
<time>2014-08-05T03:59:08Z</time></trkpt>
<trkpt lat="27.806894" lon="98.684643">
<time>2014-08-05T03:59:09Z</time></trkpt>
<trkpt lat="27.807114" lon="98.684683">
<time>2014-08-05T03:59:10Z</time></trkpt>
<trkpt lat="27.807734" lon="98.684793">
<time>2014-08-05T03:59:11Z</time></trkpt>
<trkpt lat="27.807894" lon="98.684823">
<time>2014-08-05T03:59:12Z</time></trkpt>
<trkpt lat="27.808003" lon="98.684853">
<time>2014-08-05T03:59:13Z</time></trkpt>
<trkpt lat="27.808073" lon="98.684893">
<time>2014-08-05T03:59:14Z</time></trkpt>
<trkpt lat="27.808163" lon="98.684933">
<time>2014-08-05T03:59:15Z</time></trkpt>
<trkpt lat="27.808363" lon="98.685042">
<time>2014-08-05T03:59:16Z</time></trkpt>
<trkpt lat="27.808553" lon="98.685142">
<time>2014-08-05T03:59:17Z</time></trkpt>
<trkpt lat="27.809103" lon="98.685401">
<time>2014-08-05T03:59:18Z</time></trkpt>
<trkpt lat="27.809542" lon="98.685641">
<time>2014-08-05T03:59:19Z</time></trkpt>
<trkpt lat="27.809792" lon="98.68579">
<time>2014-08-05T03:59:20Z</time></trkpt>
<trkpt lat="27.810022" lon="98.68595">
<time>2014-08-05T03:59:21Z</time></trkpt>
<trkpt lat="27.810411" lon="98.686239">
<time>2014-08-05T03:59:22Z</time></trkpt>
<trkpt lat="27.810591" lon="98.686369">
<time>2014-08-05T03:59:23Z</time></trkpt>
<trkpt lat="27.810661" lon="98.686429">
<time>2014-08-05T03:59:24Z</time></trkpt>
<trkpt lat="27.810741" lon="98.686468">
<time>2014-08-05T03:59:25Z</time></trkpt>
<trkpt lat="27.810861" lon="98.686528">
<time>2014-08-05T03:59:26Z</time></trkpt>
<trkpt lat="27.810981" lon="98.686578">
<time>2014-08-05T03:59:27Z</time></trkpt>
<trkpt lat="27.811141" lon="98.686638">
<time>2014-08-05T03:59:28Z</time></trkpt>
<trkpt lat="27.811271" lon="98.686688">
<time>2014-08-05T03:59:29Z</time></trkpt>
<trkpt lat="27.811391" lon="98.686748">
<time>2014-08-05T03:59:30Z</time></trkpt>
<trkpt lat="27.8115" lon="98.686827">
<time>2014-08-05T03:59:31Z</time></trkpt>
<trkpt lat="27.81163" lon="98.686927">
<time>2014-08-05T03:59:32Z</time></trkpt>
<trkpt lat="27.81176" lon="98.687037">
<time>2014-08-05T03:59:33Z</time></trkpt>
<trkpt lat="27.812129" lon="98.687396">
<time>2014-08-05T03:59:34Z</time></trkpt>
<trkpt lat="27.812299" lon="98.687556">
<time>2014-08-05T03:59:35Z</time></trkpt>
<trkpt lat="27.812419" lon="98.687645">
<time>2014-08-05T03:59:36Z</time></trkpt>
<trkpt lat="27.812519" lon="98.687705">
<time>2014-08-05T03:59:37Z</time></trkpt>
<trkpt lat="27.812639" lon="98.687785">
<time>2014-08-05T03:59:38Z</time></trkpt>
<trkpt lat="27.812749" lon="98.687855">
<time>2014-08-05T03:59:39Z</time></trkpt>
<trkpt lat="27.812869" lon="98.687954">
<time>2014-08-05T03:59:40Z</time></trkpt>
<trkpt lat="27.813008" lon="98.688114">
<time>2014-08-05T03:59:41Z</time></trkpt>
<trkpt lat="27.813158" lon="98.688284">
<time>2014-08-05T03:59:42Z</time></trkpt>
<trkpt lat="27.813338" lon="98.688463">
<time>2014-08-05T03:59:43Z</time></trkpt>
<trkpt lat="27.813488" lon="98.688603">
<time>2014-08-05T03:59:44Z</time></trkpt>
<trkpt lat="27.813647" lon="98.688772">
<time>2014-08-05T03:59:45Z</time></trkpt>
<trkpt lat="27.813887" lon="98.689071">
<time>2014-08-05T03:59:46Z</time></trkpt>
<trkpt lat="27.814027" lon="98.689191">
<time>2014-08-05T03:59:47Z</time></trkpt>
<trkpt lat="27.814246" lon="98.689421">
<time>2014-08-05T03:59:48Z</time></trkpt>
<trkpt lat="27.814326" lon="98.68951">
<time>2014-08-05T03:59:49Z</time></trkpt>
<trkpt lat="27.814386" lon="98.68961">
<time>2014-08-05T03:59:50Z</time></trkpt>
<trkpt lat="27.814496" lon="98.6898">
<time>2014-08-05T03:59:51Z</time></trkpt>
<trkpt lat="27.814585" lon="98.689929">
<time>2014-08-05T03:59:52Z</time></trkpt>
<trkpt lat="27.814645" lon="98.690019">
<time>2014-08-05T03:59:53Z</time></trkpt>
<trkpt lat="27.814755" lon="98.690149">
<time>2014-08-05T03:59:54Z</time></trkpt>
<trkpt lat="27.814845" lon="98.690288">
<time>2014-08-05T03:59:55Z</time></trkpt>
<trkpt lat="27.814935" lon="98.690408">
<time>2014-08-05T03:59:56Z</time></trkpt>
<trkpt lat="27.815014" lon="98.690518">
<time>2014-08-05T03:59:57Z</time></trkpt>
<trkpt lat="27.815094" lon="98.690607">
<time>2014-08-05T03:59:58Z</time></trkpt>
<trkpt lat="27.815214" lon="98.690727">
<time>2014-08-05T03:59:59Z</time></trkpt>
<trkpt lat="27.815903" lon="98.691315">
<time>2014-08-05T04:00:00Z</time></trkpt>
<trkpt lat="27.816382" lon="98.691764">
<time>2014-08-05T04:00:01Z</time></trkpt>
<trkpt lat="27.816582" lon="98.691924">
<time>2014-08-05T04:00:02Z</time></trkpt>
<trkpt lat="27.816762" lon="98.692074">
<time>2014-08-05T04:00:03Z</time></trkpt>
<trkpt lat="27.816912" lon="98.692163">
<time>2014-08-05T04:00:04Z</time></trkpt>
<trkpt lat="27.817062" lon="98.692253">
<time>2014-08-05T04:00:05Z</time></trkpt>
<trkpt lat="27.817242" lon="98.692333">
<time>2014-08-05T04:00:06Z</time></trkpt>
<trkpt lat="27.817401" lon="98.692383">
<time>2014-08-05T04:00:07Z</time></trkpt>
<trkpt lat="27.817771" lon="98.692502">
<time>2014-08-05T04:00:08Z</time></trkpt>
<trkpt lat="27.817861" lon="98.692522">
<time>2014-08-05T04:00:09Z</time></trkpt>
<trkpt lat="27.817951" lon="98.692542">
<time>2014-08-05T04:00:10Z</time></trkpt>
<trkpt lat="27.817991" lon="98.692532">
<time>2014-08-05T04:00:11Z</time></trkpt>
<trkpt lat="27.818031" lon="98.692532">
<time>2014-08-05T04:00:12Z</time></trkpt>
<trkpt lat="27.818051" lon="98.692532">
<time>2014-08-05T04:00:13Z</time></trkpt>
<trkpt lat="27.818061" lon="98.692532">
<time>2014-08-05T04:00:14Z</time></trkpt>
<trkpt lat="27.818291" lon="98.692462">
<time>2014-08-05T04:00:15Z</time></trkpt>
<trkpt lat="27.818382" lon="98.692443">
<time>2014-08-05T04:00:16Z</time></trkpt>
<trkpt lat="27.818482" lon="98.692423">
<time>2014-08-05T04:00:17Z</time></trkpt>
<trkpt lat="27.818992" lon="98.692333">
<time>2014-08-05T04:00:18Z</time></trkpt>
<trkpt lat="27.819112" lon="98.692313">
<time>2014-08-05T04:00:19Z</time></trkpt>
<trkpt lat="27.819262" lon="98.692243">
<time>2014-08-05T04:00:20Z</time></trkpt>
<trkpt lat="27.819362" lon="98.692193">
<time>2014-08-05T04:00:21Z</time></trkpt>
<trkpt lat="27.819462" lon="98.692133">
<time>2014-08-05T04:00:22Z</time></trkpt>
<trkpt lat="27.819743" lon="98.691944">
<time>2014-08-05T04:00:23Z</time></trkpt>
<trkpt lat="27.819923" lon="98.691834">
<time>2014-08-05T04:00:24Z</time></trkpt>
<trkpt lat="27.819983" lon="98.691784">
<time>2014-08-05T04:00:25Z</time></trkpt>
<trkpt lat="27.820003" lon="98.691774">
<time>2014-08-05T04:00:26Z</time></trkpt>
<trkpt lat="27.820033" lon="98.691754">
<time>2014-08-05T04:00:27Z</time></trkpt>
<trkpt lat="27.820193" lon="98.691645">
<time>2014-08-05T04:00:28Z</time></trkpt>
<trkpt lat="27.820223" lon="98.691625">
<time>2014-08-05T04:00:29Z</time></trkpt>
<trkpt lat="27.820253" lon="98.691605">
<time>2014-08-05T04:00:30Z</time></trkpt>
<trkpt lat="27.820273" lon="98.691595">
<time>2014-08-05T04:00:31Z</time></trkpt>
<trkpt lat="27.820293" lon="98.691585">
<time>2014-08-05T04:00:32Z</time></trkpt>
<trkpt lat="27.820303" lon="98.691565">
<time>2014-08-05T04:00:33Z</time></trkpt>
<trkpt lat="27.820313" lon="98.691565">
<time>2014-08-05T04:00:34Z</time></trkpt>
<trkpt lat="27.820333" lon="98.691545">
<time>2014-08-05T04:00:35Z</time></trkpt>
<trkpt lat="27.820454" lon="98.691455">
<time>2014-08-05T04:00:36Z</time></trkpt>
<trkpt lat="27.820464" lon="98.691455">
<time>2014-08-05T04:00:37Z</time></trkpt>
<trkpt lat="27.821265" lon="98.690906">
<time>2014-08-05T04:00:38Z</time></trkpt>
<trkpt lat="27.821395" lon="98.690817">
<time>2014-08-05T04:00:39Z</time></trkpt>
<trkpt lat="27.821495" lon="98.690737">
<time>2014-08-05T04:00:40Z</time></trkpt>
<trkpt lat="27.821535" lon="98.690707">
<time>2014-08-05T04:00:41Z</time></trkpt>
<trkpt lat="27.821605" lon="98.690657">
<time>2014-08-05T04:00:42Z</time></trkpt>
<trkpt lat="27.821695" lon="98.690587">
<time>2014-08-05T04:00:43Z</time></trkpt>
<trkpt lat="27.821806" lon="98.690508">
<time>2014-08-05T04:00:44Z</time></trkpt>
<trkpt lat="27.821876" lon="98.690458">
<time>2014-08-05T04:00:45Z</time></trkpt>
<trkpt lat="27.821926" lon="98.690418">
<time>2014-08-05T04:00:46Z</time></trkpt>
<trkpt lat="27.822106" lon="98.690318">
<time>2014-08-05T04:00:47Z</time></trkpt>
<trkpt lat="27.822286" lon="98.690228">
<time>2014-08-05T04:00:48Z</time></trkpt>
<trkpt lat="27.822506" lon="98.690129">
<time>2014-08-05T04:00:49Z</time></trkpt>
<trkpt lat="27.822767" lon="98.690039">
<time>2014-08-05T04:00:50Z</time></trkpt>
<trkpt lat="27.823047" lon="98.689959">
<time>2014-08-05T04:00:51Z</time></trkpt>
<trkpt lat="27.823217" lon="98.689889">
<time>2014-08-05T04:00:52Z</time></trkpt>
<trkpt lat="27.823357" lon="98.689799">
<time>2014-08-05T04:00:53Z</time></trkpt>
<trkpt lat="27.823537" lon="98.68969">
<time>2014-08-05T04:00:54Z</time></trkpt>
<trkpt lat="27.823988" lon="98.6894">
<time>2014-08-05T04:00:55Z</time></trkpt>
<trkpt lat="27.824118" lon="98.689311">
<time>2014-08-05T04:00:56Z</time></trkpt>
<trkpt lat="27.824298" lon="98.689231">
<time>2014-08-05T04:00:57Z</time></trkpt>
<trkpt lat="27.824458" lon="98.689151">
<time>2014-08-05T04:00:58Z</time></trkpt>
<trkpt lat="27.824629" lon="98.689081">
<time>2014-08-05T04:00:59Z</time></trkpt>
<trkpt lat="27.824979" lon="98.688972">
<time>2014-08-05T04:01:00Z</time></trkpt>
<trkpt lat="27.82632" lon="98.688672">
<time>2014-08-05T04:01:01Z</time></trkpt>
<trkpt lat="27.82658" lon="98.688632">
<time>2014-08-05T04:01:02Z</time></trkpt>
<trkpt lat="27.82741" lon="98.688563">
<time>2014-08-05T04:01:03Z</time></trkpt>
<trkpt lat="27.82749" lon="98.688563">
<time>2014-08-05T04:01:04Z</time></trkpt>
<trkpt lat="27.82754" lon="98.688573">
<time>2014-08-05T04:01:05Z</time></trkpt>
<trkpt lat="27.82758" lon="98.688583">
<time>2014-08-05T04:01:06Z</time></trkpt>
<trkpt lat="27.8276" lon="98.688583">
<time>2014-08-05T04:01:07Z</time></trkpt>
<trkpt lat="27.82762" lon="98.688602">
<time>2014-08-05T04:01:08Z</time></trkpt>
<trkpt lat="27.82793" lon="98.688762">
<time>2014-08-05T04:01:09Z</time></trkpt>
<trkpt lat="27.82806" lon="98.688822">
<time>2014-08-05T04:01:10Z</time></trkpt>
<trkpt lat="27.82817" lon="98.688862">
<time>2014-08-05T04:01:11Z</time></trkpt>
<trkpt lat="27.82824" lon="98.688882">
<time>2014-08-05T04:01:12Z</time></trkpt>
<trkpt lat="27.828979" lon="98.689051">
<time>2014-08-05T04:01:13Z</time></trkpt>
<trkpt lat="27.829129" lon="98.689071">
<time>2014-08-05T04:01:14Z</time></trkpt>
<trkpt lat="27.829279" lon="98.689081">
<time>2014-08-05T04:01:15Z</time></trkpt>
<trkpt lat="27.829549" lon="98.689101">
<time>2014-08-05T04:01:16Z</time></trkpt>
<trkpt lat="27.829719" lon="98.689121">
<time>2014-08-05T04:01:17Z</time></trkpt>
<trkpt lat="27.829879" lon="98.689131">
<time>2014-08-05T04:01:18Z</time></trkpt>
<trkpt lat="27.830009" lon="98.689121">
<time>2014-08-05T04:01:19Z</time></trkpt>
<trkpt lat="27.830089" lon="98.689111">
<time>2014-08-05T04:01:20Z</time></trkpt>
<trkpt lat="27.830209" lon="98.689081">
<time>2014-08-05T04:01:21Z</time></trkpt>
<trkpt lat="27.83028" lon="98.689061">
<time>2014-08-05T04:01:22Z</time></trkpt>
<trkpt lat="27.83032" lon="98.689051">
<time>2014-08-05T04:01:23Z</time></trkpt>
<trkpt lat="27.83036" lon="98.689041">
<time>2014-08-05T04:01:24Z</time></trkpt>
<trkpt lat="27.83041" lon="98.689031">
<time>2014-08-05T04:01:25Z</time></trkpt>
<trkpt lat="27.83059" lon="98.688971">
<time>2014-08-05T04:01:26Z</time></trkpt>
<trkpt lat="27.8308" lon="98.688912">
<time>2014-08-05T04:01:27Z</time></trkpt>
<trkpt lat="27.83087" lon="98.688892">
<time>2014-08-05T04:01:28Z</time></trkpt>
<trkpt lat="27.83092" lon="98.688882">
<time>2014-08-05T04:01:29Z</time></trkpt>
<trkpt lat="27.83095" lon="98.688872">
<time>2014-08-05T04:01:30Z</time></trkpt>
<trkpt lat="27.83098" lon="98.688862">
<time>2014-08-05T04:01:31Z</time></trkpt>
<trkpt lat="27.831691" lon="98.688553">
<time>2014-08-05T04:01:32Z</time></trkpt>
<trkpt lat="27.831821" lon="98.688503">
<time>2014-08-05T04:01:33Z</time></trkpt>
<trkpt lat="27.831921" lon="98.688463">
<time>2014-08-05T04:01:34Z</time></trkpt>
<trkpt lat="27.831991" lon="98.688443">
<time>2014-08-05T04:01:35Z</time></trkpt>
<trkpt lat="27.832061" lon="98.688413">
<time>2014-08-05T04:01:36Z</time></trkpt>
<trkpt lat="27.832301" lon="98.688323">
<time>2014-08-05T04:01:37Z</time></trkpt>
<trkpt lat="27.832341" lon="98.688303">
<time>2014-08-05T04:01:38Z</time></trkpt>
<trkpt lat="27.832371" lon="98.688293">
<time>2014-08-05T04:01:39Z</time></trkpt>
<trkpt lat="27.832401" lon="98.688273">
<time>2014-08-05T04:01:40Z</time></trkpt>
<trkpt lat="27.832431" lon="98.688263">
<time>2014-08-05T04:01:41Z</time></trkpt>
<trkpt lat="27.832471" lon="98.688243">
<time>2014-08-05T04:01:42Z</time></trkpt>
<trkpt lat="27.832491" lon="98.688233">
<time>2014-08-05T04:01:43Z</time></trkpt>
<trkpt lat="27.832622" lon="98.688164">
<time>2014-08-05T04:01:44Z</time></trkpt>
<trkpt lat="27.833012" lon="98.687944">
<time>2014-08-05T04:01:45Z</time></trkpt>
<trkpt lat="27.833062" lon="98.687914">
<time>2014-08-05T04:01:46Z</time></trkpt>
<trkpt lat="27.833102" lon="98.687894">
<time>2014-08-05T04:01:47Z</time></trkpt>
<trkpt lat="27.833122" lon="98.687884">
<time>2014-08-05T04:01:48Z</time></trkpt>
<trkpt lat="27.833172" lon="98.687864">
<time>2014-08-05T04:01:49Z</time></trkpt>
<trkpt lat="27.833232" lon="98.687824">
<time>2014-08-05T04:01:50Z</time></trkpt>
<trkpt lat="27.833352" lon="98.687765">
<time>2014-08-05T04:01:51Z</time></trkpt>
<trkpt lat="27.833443" lon="98.687715">
<time>2014-08-05T04:01:52Z</time></trkpt>
<trkpt lat="27.833513" lon="98.687675">
<time>2014-08-05T04:01:53Z</time></trkpt>
<trkpt lat="27.833653" lon="98.687595">
<time>2014-08-05T04:01:54Z</time></trkpt>
<trkpt lat="27.833733" lon="98.687535">
<time>2014-08-05T04:01:55Z</time></trkpt>
<trkpt lat="27.833853" lon="98.687425">
<time>2014-08-05T04:01:56Z</time></trkpt>
<trkpt lat="27.833933" lon="98.687346">
<time>2014-08-05T04:01:57Z</time></trkpt>
<trkpt lat="27.834224" lon="98.687027">
<time>2014-08-05T04:01:58Z</time></trkpt>
<trkpt lat="27.834444" lon="98.686787">
<time>2014-08-05T04:01:59Z</time></trkpt>
<trkpt lat="27.834595" lon="98.686598">
<time>2014-08-05T04:02:00Z</time></trkpt>
<trkpt lat="27.834665" lon="98.686498">
<time>2014-08-05T04:02:01Z</time></trkpt>
<trkpt lat="27.834725" lon="98.686388">
<time>2014-08-05T04:02:02Z</time></trkpt>
<trkpt lat="27.834745" lon="98.686338">
<time>2014-08-05T04:02:03Z</time></trkpt>
<trkpt lat="27.834775" lon="98.686279">
<time>2014-08-05T04:02:04Z</time></trkpt>
<trkpt lat="27.834805" lon="98.686209">
<time>2014-08-05T04:02:05Z</time></trkpt>
<trkpt lat="27.834866" lon="98.686039">
<time>2014-08-05T04:02:06Z</time></trkpt>
<trkpt lat="27.834976" lon="98.68574">
<time>2014-08-05T04:02:07Z</time></trkpt>
<trkpt lat="27.835006" lon="98.68569">
<time>2014-08-05T04:02:08Z</time></trkpt>
<trkpt lat="27.835027" lon="98.68563">
<time>2014-08-05T04:02:09Z</time></trkpt>
<trkpt lat="27.835057" lon="98.68559">
<time>2014-08-05T04:02:10Z</time></trkpt>
<trkpt lat="27.835087" lon="98.68555">
<time>2014-08-05T04:02:11Z</time></trkpt>
<trkpt lat="27.835117" lon="98.685531">
<time>2014-08-05T04:02:12Z</time></trkpt>
<trkpt lat="27.835137" lon="98.685521">
<time>2014-08-05T04:02:13Z</time></trkpt>
<trkpt lat="27.835177" lon="98.685501">
<time>2014-08-05T04:02:14Z</time></trkpt>
<trkpt lat="27.835227" lon="98.685471">
<time>2014-08-05T04:02:15Z</time></trkpt>
<trkpt lat="27.835457" lon="98.685401">
<time>2014-08-05T04:02:16Z</time></trkpt>
<trkpt lat="27.835577" lon="98.685361">
<time>2014-08-05T04:02:17Z</time></trkpt>
<trkpt lat="27.835657" lon="98.685321">
<time>2014-08-05T04:02:18Z</time></trkpt>
<trkpt lat="27.835747" lon="98.685281">
<time>2014-08-05T04:02:19Z</time></trkpt>
<trkpt lat="27.835837" lon="98.685221">
<time>2014-08-05T04:02:20Z</time></trkpt>
<trkpt lat="27.835918" lon="98.685172">
<time>2014-08-05T04:02:21Z</time></trkpt>
<trkpt lat="27.836138" lon="98.684992">
<time>2014-08-05T04:02:22Z</time></trkpt>
<trkpt lat="27.836268" lon="98.684912">
<time>2014-08-05T04:02:23Z</time></trkpt>
<trkpt lat="27.836378" lon="98.684852">
<time>2014-08-05T04:02:24Z</time></trkpt>
<trkpt lat="27.836919" lon="98.684563">
<time>2014-08-05T04:02:25Z</time></trkpt>
<trkpt lat="27.837349" lon="98.684294">
<time>2014-08-05T04:02:26Z</time></trkpt>
<trkpt lat="27.83746" lon="98.684224">
<time>2014-08-05T04:02:27Z</time></trkpt>
<trkpt lat="27.83765" lon="98.684114">
<time>2014-08-05T04:02:28Z</time></trkpt>
<trkpt lat="27.83778" lon="98.684035">
<time>2014-08-05T04:02:29Z</time></trkpt>
<trkpt lat="27.83791" lon="98.683975">
<time>2014-08-05T04:02:30Z</time></trkpt>
<trkpt lat="27.83809" lon="98.683905">
<time>2014-08-05T04:02:31Z</time></trkpt>
<trkpt lat="27.83818" lon="98.683875">
<time>2014-08-05T04:02:32Z</time></trkpt>
<trkpt lat="27.83826" lon="98.683855">
<time>2014-08-05T04:02:33Z</time></trkpt>
<trkpt lat="27.83836" lon="98.683835">
<time>2014-08-05T04:02:34Z</time></trkpt>
<trkpt lat="27.838481" lon="98.683825">
<time>2014-08-05T04:02:35Z</time></trkpt>
<trkpt lat="27.838811" lon="98.683775">
<time>2014-08-05T04:02:36Z</time></trkpt>
<trkpt lat="27.838981" lon="98.683755">
<time>2014-08-05T04:02:37Z</time></trkpt>
<trkpt lat="27.839111" lon="98.683735">
<time>2014-08-05T04:02:38Z</time></trkpt>
<trkpt lat="27.839271" lon="98.683676">
<time>2014-08-05T04:02:39Z</time></trkpt>
<trkpt lat="27.839391" lon="98.683636">
<time>2014-08-05T04:02:40Z</time></trkpt>
<trkpt lat="27.839882" lon="98.683396">
<time>2014-08-05T04:02:41Z</time></trkpt>
<trkpt lat="27.840002" lon="98.683346">
<time>2014-08-05T04:02:42Z</time></trkpt>
<trkpt lat="27.840102" lon="98.683297">
<time>2014-08-05T04:02:43Z</time></trkpt>
<trkpt lat="27.840222" lon="98.683267">
<time>2014-08-05T04:02:44Z</time></trkpt>
<trkpt lat="27.840292" lon="98.683257">
<time>2014-08-05T04:02:45Z</time></trkpt>
<trkpt lat="27.840362" lon="98.683247">
<time>2014-08-05T04:02:46Z</time></trkpt>
<trkpt lat="27.840402" lon="98.683247">
<time>2014-08-05T04:02:47Z</time></trkpt>
<trkpt lat="27.840482" lon="98.683247">
<time>2014-08-05T04:02:48Z</time></trkpt>
<trkpt lat="27.840602" lon="98.683257">
<time>2014-08-05T04:02:49Z</time></trkpt>
<trkpt lat="27.840692" lon="98.683257">
<time>2014-08-05T04:02:50Z</time></trkpt>
<trkpt lat="27.840712" lon="98.683257">
<time>2014-08-05T04:02:51Z</time></trkpt>
<trkpt lat="27.840802" lon="98.683257">
<time>2014-08-05T04:02:52Z</time></trkpt>
<trkpt lat="27.841042" lon="98.683277">
<time>2014-08-05T04:02:53Z</time></trkpt>
<trkpt lat="27.841192" lon="98.683296">
<time>2014-08-05T04:02:54Z</time></trkpt>
<trkpt lat="27.841392" lon="98.683316">
<time>2014-08-05T04:02:55Z</time></trkpt>
<trkpt lat="27.841692" lon="98.683366">
<time>2014-08-05T04:02:56Z</time></trkpt>
<trkpt lat="27.841872" lon="98.683396">
<time>2014-08-05T04:02:57Z</time></trkpt>
<trkpt lat="27.842102" lon="98.683456">
<time>2014-08-05T04:02:58Z</time></trkpt>
<trkpt lat="27.842312" lon="98.683506">
<time>2014-08-05T04:02:59Z</time></trkpt>
<trkpt lat="27.842362" lon="98.683516">
<time>2014-08-05T04:03:00Z</time></trkpt>
<trkpt lat="27.842412" lon="98.683536">
<time>2014-08-05T04:03:01Z</time></trkpt>
<trkpt lat="27.842462" lon="98.683546">
<time>2014-08-05T04:03:02Z</time></trkpt>
<trkpt lat="27.842502" lon="98.683556">
<time>2014-08-05T04:03:03Z</time></trkpt>
<trkpt lat="27.842542" lon="98.683566">
<time>2014-08-05T04:03:04Z</time></trkpt>
<trkpt lat="27.842602" lon="98.683576">
<time>2014-08-05T04:03:05Z</time></trkpt>
<trkpt lat="27.842642" lon="98.683576">
<time>2014-08-05T04:03:06Z</time></trkpt>
<trkpt lat="27.842682" lon="98.683586">
<time>2014-08-05T04:03:07Z</time></trkpt>
<trkpt lat="27.842742" lon="98.683596">
<time>2014-08-05T04:03:08Z</time></trkpt>
<trkpt lat="27.842802" lon="98.683606">
<time>2014-08-05T04:03:09Z</time></trkpt>
<trkpt lat="27.842912" lon="98.683606">
<time>2014-08-05T04:03:10Z</time></trkpt>
<trkpt lat="27.843002" lon="98.683616">
<time>2014-08-05T04:03:11Z</time></trkpt>
<trkpt lat="27.843082" lon="98.683616">
<time>2014-08-05T04:03:12Z</time></trkpt>
<trkpt lat="27.843212" lon="98.683616">
<time>2014-08-05T04:03:13Z</time></trkpt>
<trkpt lat="27.843422" lon="98.683626">
<time>2014-08-05T04:03:14Z</time></trkpt>
<trkpt lat="27.843602" lon="98.683646">
<time>2014-08-05T04:03:15Z</time></trkpt>
<trkpt lat="27.843632" lon="98.683646">
<time>2014-08-05T04:03:16Z</time></trkpt>
<trkpt lat="27.843652" lon="98.683646">
<time>2014-08-05T04:03:17Z</time></trkpt>
<trkpt lat="27.843742" lon="98.683655">
<time>2014-08-05T04:03:18Z</time></trkpt>
<trkpt lat="27.843762" lon="98.683655">
<time>2014-08-05T04:03:19Z</time></trkpt>
<trkpt lat="27.843832" lon="98.683665">
<time>2014-08-05T04:03:20Z</time></trkpt>
<trkpt lat="27.843872" lon="98.683675">
<time>2014-08-05T04:03:21Z</time></trkpt>
<trkpt lat="27.843882" lon="98.683675">
<time>2014-08-05T04:03:22Z</time></trkpt>
<trkpt lat="27.843902" lon="98.683675">
<time>2014-08-05T04:03:23Z</time></trkpt>
<trkpt lat="27.843992" lon="98.683685">
<time>2014-08-05T04:03:24Z</time></trkpt>
<trkpt lat="27.844162" lon="98.683715">
<time>2014-08-05T04:03:25Z</time></trkpt>
<trkpt lat="27.844182" lon="98.683715">
<time>2014-08-05T04:03:26Z</time></trkpt>
<trkpt lat="27.844212" lon="98.683715">
<time>2014-08-05T04:03:27Z</time></trkpt>
<trkpt lat="27.844262" lon="98.683725">
<time>2014-08-05T04:03:28Z</time></trkpt>
<trkpt lat="27.844342" lon="98.683735">
<time>2014-08-05T04:03:29Z</time></trkpt>
<trkpt lat="27.844422" lon="98.683745">
<time>2014-08-05T04:03:30Z</time></trkpt>
<trkpt lat="27.844542" lon="98.683755">
<time>2014-08-05T04:03:31Z</time></trkpt>
<trkpt lat="27.844612" lon="98.683765">
<time>2014-08-05T04:03:32Z</time></trkpt>
<trkpt lat="27.844682" lon="98.683765">
<time>2014-08-05T04:03:33Z</time></trkpt>
<trkpt lat="27.844752" lon="98.683775">
<time>2014-08-05T04:03:34Z</time></trkpt>
<trkpt lat="27.844972" lon="98.683775">
<time>2014-08-05T04:03:35Z</time></trkpt>
<trkpt lat="27.845092" lon="98.683775">
<time>2014-08-05T04:03:36Z</time></trkpt>
<trkpt lat="27.845202" lon="98.683785">
<time>2014-08-05T04:03:37Z</time></trkpt>
<trkpt lat="27.845372" lon="98.683815">
<time>2014-08-05T04:03:38Z</time></trkpt>
<trkpt lat="27.845892" lon="98.683875">
<time>2014-08-05T04:03:39Z</time></trkpt>
<trkpt lat="27.846022" lon="98.683895">
<time>2014-08-05T04:03:40Z</time></trkpt>
<trkpt lat="27.846182" lon="98.683935">
<time>2014-08-05T04:03:41Z</time></trkpt>
<trkpt lat="27.846702" lon="98.684064">
<time>2014-08-05T04:03:42Z</time></trkpt>
<trkpt lat="27.846941" lon="98.684144">
<time>2014-08-05T04:03:43Z</time></trkpt>
<trkpt lat="27.847031" lon="98.684184">
<time>2014-08-05T04:03:44Z</time></trkpt>
<trkpt lat="27.847081" lon="98.684214">
<time>2014-08-05T04:03:45Z</time></trkpt>
<trkpt lat="27.847141" lon="98.684254">
<time>2014-08-05T04:03:46Z</time></trkpt>
<trkpt lat="27.847301" lon="98.684383">
<time>2014-08-05T04:03:47Z</time></trkpt>
<trkpt lat="27.847351" lon="98.684423">
<time>2014-08-05T04:03:48Z</time></trkpt>
<trkpt lat="27.847411" lon="98.684453">
<time>2014-08-05T04:03:49Z</time></trkpt>
<trkpt lat="27.847461" lon="98.684473">
<time>2014-08-05T04:03:50Z</time></trkpt>
<trkpt lat="27.847561" lon="98.684503">
<time>2014-08-05T04:03:51Z</time></trkpt>
<trkpt lat="27.847731" lon="98.684543">
<time>2014-08-05T04:03:52Z</time></trkpt>
<trkpt lat="27.847921" lon="98.684583">
<time>2014-08-05T04:03:53Z</time></trkpt>
<trkpt lat="27.848021" lon="98.684593">
<time>2014-08-05T04:03:54Z</time></trkpt>
<trkpt lat="27.848131" lon="98.684593">
<time>2014-08-05T04:03:55Z</time></trkpt>
<trkpt lat="27.848281" lon="98.684593">
<time>2014-08-05T04:03:56Z</time></trkpt>
<trkpt lat="27.848421" lon="98.684603">
<time>2014-08-05T04:03:57Z</time></trkpt>
<trkpt lat="27.848511" lon="98.684613">
<time>2014-08-05T04:03:58Z</time></trkpt>
<trkpt lat="27.848601" lon="98.684633">
<time>2014-08-05T04:03:59Z</time></trkpt>
<trkpt lat="27.848701" lon="98.684663">
<time>2014-08-05T04:04:00Z</time></trkpt>
<trkpt lat="27.849001" lon="98.684752">
<time>2014-08-05T04:04:01Z</time></trkpt>
<trkpt lat="27.849161" lon="98.684802">
<time>2014-08-05T04:04:02Z</time></trkpt>
<trkpt lat="27.849241" lon="98.684832">
<time>2014-08-05T04:04:03Z</time></trkpt>
<trkpt lat="27.84931" lon="98.684872">
<time>2014-08-05T04:04:04Z</time></trkpt>
<trkpt lat="27.84937" lon="98.684932">
<time>2014-08-05T04:04:05Z</time></trkpt>
<trkpt lat="27.84943" lon="98.685002">
<time>2014-08-05T04:04:06Z</time></trkpt>
<trkpt lat="27.84949" lon="98.685121">
<time>2014-08-05T04:04:07Z</time></trkpt>
<trkpt lat="27.84954" lon="98.685201">
<time>2014-08-05T04:04:08Z</time></trkpt>
<trkpt lat="27.84958" lon="98.685251">
<time>2014-08-05T04:04:09Z</time></trkpt>
<trkpt lat="27.84962" lon="98.685291">
<time>2014-08-05T04:04:10Z</time></trkpt>
<trkpt lat="27.84967" lon="98.685331">
<time>2014-08-05T04:04:11Z</time></trkpt>
<trkpt lat="27.84972" lon="98.685361">
<time>2014-08-05T04:04:12Z</time></trkpt>
<trkpt lat="27.84979" lon="98.685381">
<time>2014-08-05T04:04:13Z</time></trkpt>
<trkpt lat="27.84984" lon="98.685391">
<time>2014-08-05T04:04:14Z</time></trkpt>
<trkpt lat="27.84994" lon="98.685401">
<time>2014-08-05T04:04:15Z</time></trkpt>
<trkpt lat="27.84999" lon="98.685401">
<time>2014-08-05T04:04:16Z</time></trkpt>
<trkpt lat="27.85005" lon="98.685401">
<time>2014-08-05T04:04:17Z</time></trkpt>
<trkpt lat="27.85016" lon="98.685371">
<time>2014-08-05T04:04:18Z</time></trkpt>
<trkpt lat="27.85034" lon="98.685311">
<time>2014-08-05T04:04:19Z</time></trkpt>
<trkpt lat="27.85054" lon="98.685221">
<time>2014-08-05T04:04:20Z</time></trkpt>
<trkpt lat="27.85058" lon="98.685201">
<time>2014-08-05T04:04:21Z</time></trkpt>
<trkpt lat="27.85065" lon="98.685181">
<time>2014-08-05T04:04:22Z</time></trkpt>
<trkpt lat="27.85071" lon="98.685161">
<time>2014-08-05T04:04:23Z</time></trkpt>
<trkpt lat="27.85076" lon="98.685151">
<time>2014-08-05T04:04:24Z</time></trkpt>
<trkpt lat="27.85084" lon="98.685151">
<time>2014-08-05T04:04:25Z</time></trkpt>
<trkpt lat="27.85091" lon="98.685161">
<time>2014-08-05T04:04:26Z</time></trkpt>
<trkpt lat="27.85098" lon="98.685171">
<time>2014-08-05T04:04:27Z</time></trkpt>
<trkpt lat="27.85106" lon="98.685201">
<time>2014-08-05T04:04:28Z</time></trkpt>
<trkpt lat="27.85122" lon="98.685291">
<time>2014-08-05T04:04:29Z</time></trkpt>
<trkpt lat="27.85155" lon="98.6855">
<time>2014-08-05T04:04:30Z</time></trkpt>
<trkpt lat="27.85169" lon="98.68558">
<time>2014-08-05T04:04:31Z</time></trkpt>
<trkpt lat="27.85176" lon="98.68563">
<time>2014-08-05T04:04:32Z</time></trkpt>
<trkpt lat="27.851829" lon="98.68569">
<time>2014-08-05T04:04:33Z</time></trkpt>
<trkpt lat="27.851929" lon="98.68579">
<time>2014-08-05T04:04:34Z</time></trkpt>
<trkpt lat="27.852029" lon="98.685909">
<time>2014-08-05T04:04:35Z</time></trkpt>
<trkpt lat="27.852129" lon="98.686009">
<time>2014-08-05T04:04:36Z</time></trkpt>
<trkpt lat="27.852209" lon="98.686089">
<time>2014-08-05T04:04:37Z</time></trkpt>
<trkpt lat="27.852289" lon="98.686139">
<time>2014-08-05T04:04:38Z</time></trkpt>
<trkpt lat="27.852379" lon="98.686179">
<time>2014-08-05T04:04:39Z</time></trkpt>
<trkpt lat="27.852469" lon="98.686198">
<time>2014-08-05T04:04:40Z</time></trkpt>
<trkpt lat="27.852659" lon="98.686238">
<time>2014-08-05T04:04:41Z</time></trkpt>
<trkpt lat="27.852839" lon="98.686268">
<time>2014-08-05T04:04:42Z</time></trkpt>
<trkpt lat="27.853009" lon="98.686288">
<time>2014-08-05T04:04:43Z</time></trkpt>
<trkpt lat="27.853129" lon="98.686288">
<time>2014-08-05T04:04:44Z</time></trkpt>
<trkpt lat="27.853289" lon="98.686288">
<time>2014-08-05T04:04:45Z</time></trkpt>
<trkpt lat="27.854089" lon="98.686218">
<time>2014-08-05T04:04:46Z</time></trkpt>
<trkpt lat="27.854289" lon="98.686198">
<time>2014-08-05T04:04:47Z</time></trkpt>
<trkpt lat="27.854389" lon="98.686188">
<time>2014-08-05T04:04:48Z</time></trkpt>
<trkpt lat="27.854529" lon="98.686139">
<time>2014-08-05T04:04:49Z</time></trkpt>
<trkpt lat="27.854579" lon="98.686119">
<time>2014-08-05T04:04:50Z</time></trkpt>
<trkpt lat="27.854619" lon="98.686099">
<time>2014-08-05T04:04:51Z</time></trkpt>
<trkpt lat="27.854669" lon="98.686069">
<time>2014-08-05T04:04:52Z</time></trkpt>
<trkpt lat="27.854729" lon="98.686009">
<time>2014-08-05T04:04:53Z</time></trkpt>
<trkpt lat="27.854789" lon="98.685949">
<time>2014-08-05T04:04:54Z</time></trkpt>
<trkpt lat="27.85483" lon="98.685889">
<time>2014-08-05T04:04:55Z</time></trkpt>
<trkpt lat="27.85489" lon="98.685799">
<time>2014-08-05T04:04:56Z</time></trkpt>
<trkpt lat="27.8551" lon="98.68546">
<time>2014-08-05T04:04:57Z</time></trkpt>
<trkpt lat="27.855181" lon="98.685301">
<time>2014-08-05T04:04:58Z</time></trkpt>
<trkpt lat="27.855241" lon="98.685161">
<time>2014-08-05T04:04:59Z</time></trkpt>
<trkpt lat="27.855281" lon="98.685032">
<time>2014-08-05T04:05:00Z</time></trkpt>
<trkpt lat="27.855331" lon="98.684912">
<time>2014-08-05T04:05:01Z</time></trkpt>
<trkpt lat="27.855382" lon="98.684812">
<time>2014-08-05T04:05:02Z</time></trkpt>
<trkpt lat="27.855432" lon="98.684752">
<time>2014-08-05T04:05:03Z</time></trkpt>
<trkpt lat="27.855502" lon="98.684673">
<time>2014-08-05T04:05:04Z</time></trkpt>
<trkpt lat="27.855592" lon="98.684613">
<time>2014-08-05T04:05:05Z</time></trkpt>
<trkpt lat="27.855682" lon="98.684563">
<time>2014-08-05T04:05:06Z</time></trkpt>
<trkpt lat="27.855872" lon="98.684473">
<time>2014-08-05T04:05:07Z</time></trkpt>
<trkpt lat="27.855942" lon="98.684443">
<time>2014-08-05T04:05:08Z</time></trkpt>
<trkpt lat="27.855972" lon="98.684443">
<time>2014-08-05T04:05:09Z</time></trkpt>
<trkpt lat="27.855992" lon="98.684433">
<time>2014-08-05T04:05:10Z</time></trkpt>
<trkpt lat="27.856002" lon="98.684433">
<time>2014-08-05T04:05:11Z</time></trkpt>
<trkpt lat="27.856023" lon="98.684423">
<time>2014-08-05T04:05:12Z</time></trkpt>
<trkpt lat="27.856033" lon="98.684423">
<time>2014-08-05T04:05:13Z</time></trkpt>
<trkpt lat="27.856053" lon="98.684423">
<time>2014-08-05T04:05:14Z</time></trkpt>
<trkpt lat="27.856072" lon="98.684433">
<time>2014-08-05T04:05:15Z</time></trkpt>
<trkpt lat="27.856083" lon="98.684433">
<time>2014-08-05T04:05:16Z</time></trkpt>
<trkpt lat="27.856102" lon="98.684443">
<time>2014-08-05T04:05:17Z</time></trkpt>
<trkpt lat="27.856132" lon="98.684463">
<time>2014-08-05T04:05:18Z</time></trkpt>
<trkpt lat="27.856142" lon="98.684483">
<time>2014-08-05T04:05:19Z</time></trkpt>
<trkpt lat="27.856172" lon="98.684513">
<time>2014-08-05T04:05:20Z</time></trkpt>
<trkpt lat="27.856202" lon="98.684543">
<time>2014-08-05T04:05:21Z</time></trkpt>
<trkpt lat="27.856212" lon="98.684553">
<time>2014-08-05T04:05:22Z</time></trkpt>
<trkpt lat="27.856222" lon="98.684573">
<time>2014-08-05T04:05:23Z</time></trkpt>
<trkpt lat="27.856272" lon="98.684643">
<time>2014-08-05T04:05:24Z</time></trkpt>
<trkpt lat="27.856342" lon="98.684732">
<time>2014-08-05T04:05:25Z</time></trkpt>
<trkpt lat="27.856452" lon="98.684922">
<time>2014-08-05T04:05:26Z</time></trkpt>
<trkpt lat="27.856512" lon="98.685012">
<time>2014-08-05T04:05:27Z</time></trkpt>
<trkpt lat="27.856601" lon="98.685191">
<time>2014-08-05T04:05:28Z</time></trkpt>
<trkpt lat="27.856631" lon="98.685261">
<time>2014-08-05T04:05:29Z</time></trkpt>
<trkpt lat="27.856661" lon="98.685291">
<time>2014-08-05T04:05:30Z</time></trkpt>
<trkpt lat="27.856681" lon="98.685321">
<time>2014-08-05T04:05:31Z</time></trkpt>
<trkpt lat="27.856711" lon="98.685351">
<time>2014-08-05T04:05:32Z</time></trkpt>
<trkpt lat="27.856731" lon="98.685361">
<time>2014-08-05T04:05:33Z</time></trkpt>
<trkpt lat="27.856801" lon="98.685401">
<time>2014-08-05T04:05:34Z</time></trkpt>
<trkpt lat="27.856851" lon="98.68541">
<time>2014-08-05T04:05:35Z</time></trkpt>
<trkpt lat="27.856901" lon="98.68541">
<time>2014-08-05T04:05:36Z</time></trkpt>
<trkpt lat="27.856971" lon="98.685401">
<time>2014-08-05T04:05:37Z</time></trkpt>
<trkpt lat="27.857041" lon="98.685371">
<time>2014-08-05T04:05:38Z</time></trkpt>
<trkpt lat="27.857131" lon="98.685321">
<time>2014-08-05T04:05:39Z</time></trkpt>
<trkpt lat="27.857191" lon="98.685251">
<time>2014-08-05T04:05:40Z</time></trkpt>
<trkpt lat="27.857352" lon="98.685061">
<time>2014-08-05T04:05:41Z</time></trkpt>
<trkpt lat="27.857452" lon="98.684992">
<time>2014-08-05T04:05:42Z</time></trkpt>
<trkpt lat="27.857552" lon="98.684942">
<time>2014-08-05T04:05:43Z</time></trkpt>
<trkpt lat="27.857662" lon="98.684912">
<time>2014-08-05T04:05:44Z</time></trkpt>
<trkpt lat="27.857722" lon="98.684892">
<time>2014-08-05T04:05:45Z</time></trkpt>
<trkpt lat="27.857762" lon="98.684892">
<time>2014-08-05T04:05:46Z</time></trkpt>
<trkpt lat="27.857772" lon="98.684882">
<time>2014-08-05T04:05:47Z</time></trkpt>
<trkpt lat="27.857812" lon="98.684882">
<time>2014-08-05T04:05:48Z</time></trkpt>
<trkpt lat="27.857882" lon="98.684882">
<time>2014-08-05T04:05:49Z</time></trkpt>
<trkpt lat="27.858002" lon="98.684892">
<time>2014-08-05T04:05:50Z</time></trkpt>
<trkpt lat="27.858112" lon="98.684922">
<time>2014-08-05T04:05:51Z</time></trkpt>
<trkpt lat="27.858332" lon="98.685002">
<time>2014-08-05T04:05:52Z</time></trkpt>
<trkpt lat="27.858402" lon="98.685022">
<time>2014-08-05T04:05:53Z</time></trkpt>
<trkpt lat="27.858412" lon="98.685031">
<time>2014-08-05T04:05:54Z</time></trkpt>
<trkpt lat="27.858432" lon="98.685031">
<time>2014-08-05T04:05:55Z</time></trkpt>
<trkpt lat="27.858472" lon="98.685031">
<time>2014-08-05T04:05:56Z</time></trkpt>
<trkpt lat="27.858702" lon="98.685031">
<time>2014-08-05T04:05:57Z</time></trkpt>
<trkpt lat="27.859032" lon="98.684992">
<time>2014-08-05T04:05:58Z</time></trkpt>
<trkpt lat="27.859202" lon="98.684962">
<time>2014-08-05T04:05:59Z</time></trkpt>
<trkpt lat="27.859382" lon="98.684922">
<time>2014-08-05T04:06:00Z</time></trkpt>
<trkpt lat="27.859422" lon="98.684902">
<time>2014-08-05T04:06:01Z</time></trkpt>
<trkpt lat="27.859462" lon="98.684882">
<time>2014-08-05T04:06:02Z</time></trkpt>
<trkpt lat="27.859502" lon="98.684862">
<time>2014-08-05T04:06:03Z</time></trkpt>
<trkpt lat="27.859532" lon="98.684832">
<time>2014-08-05T04:06:04Z</time></trkpt>
<trkpt lat="27.859693" lon="98.684692">
<time>2014-08-05T04:06:05Z</time></trkpt>
<trkpt lat="27.859713" lon="98.684672">
<time>2014-08-05T04:06:06Z</time></trkpt>
<trkpt lat="27.859753" lon="98.684643">
<time>2014-08-05T04:06:07Z</time></trkpt>
<trkpt lat="27.859763" lon="98.684643">
<time>2014-08-05T04:06:08Z</time></trkpt>
<trkpt lat="27.859773" lon="98.684643">
<time>2014-08-05T04:06:09Z</time></trkpt>
<trkpt lat="27.859793" lon="98.684633">
<time>2014-08-05T04:06:10Z</time></trkpt>
<trkpt lat="27.859813" lon="98.684633">
<time>2014-08-05T04:06:11Z</time></trkpt>
<trkpt lat="27.859833" lon="98.684623">
<time>2014-08-05T04:06:12Z</time></trkpt>
<trkpt lat="27.859853" lon="98.684623">
<time>2014-08-05T04:06:13Z</time></trkpt>
<trkpt lat="27.859873" lon="98.684633">
<time>2014-08-05T04:06:14Z</time></trkpt>
<trkpt lat="27.859893" lon="98.684633">
<time>2014-08-05T04:06:15Z</time></trkpt>
<trkpt lat="27.859903" lon="98.684633">
<time>2014-08-05T04:06:16Z</time></trkpt>
<trkpt lat="27.859923" lon="98.684643">
<time>2014-08-05T04:06:17Z</time></trkpt>
<trkpt lat="27.859973" lon="98.684672">
<time>2014-08-05T04:06:18Z</time></trkpt>
<trkpt lat="27.860113" lon="98.684742">
<time>2014-08-05T04:06:19Z</time></trkpt>
<trkpt lat="27.860213" lon="98.684772">
<time>2014-08-05T04:06:20Z</time></trkpt>
<trkpt lat="27.860303" lon="98.684782">
<time>2014-08-05T04:06:21Z</time></trkpt>
<trkpt lat="27.860403" lon="98.684782">
<time>2014-08-05T04:06:22Z</time></trkpt>
<trkpt lat="27.860493" lon="98.684772">
<time>2014-08-05T04:06:23Z</time></trkpt>
<trkpt lat="27.860753" lon="98.684702">
<time>2014-08-05T04:06:24Z</time></trkpt>
<trkpt lat="27.861073" lon="98.684662">
<time>2014-08-05T04:06:25Z</time></trkpt>
<trkpt lat="27.861253" lon="98.684613">
<time>2014-08-05T04:06:26Z</time></trkpt>
<trkpt lat="27.861343" lon="98.684583">
<time>2014-08-05T04:06:27Z</time></trkpt>
<trkpt lat="27.861393" lon="98.684583">
<time>2014-08-05T04:06:28Z</time></trkpt>
<trkpt lat="27.861433" lon="98.684583">
<time>2014-08-05T04:06:29Z</time></trkpt>
<trkpt lat="27.861513" lon="98.684603">
<time>2014-08-05T04:06:30Z</time></trkpt>
<trkpt lat="27.861843" lon="98.684692">
<time>2014-08-05T04:06:31Z</time></trkpt>
<trkpt lat="27.862003" lon="98.684742">
<time>2014-08-05T04:06:32Z</time></trkpt>
<trkpt lat="27.862193" lon="98.684772">
<time>2014-08-05T04:06:33Z</time></trkpt>
<trkpt lat="27.862333" lon="98.684772">
<time>2014-08-05T04:06:34Z</time></trkpt>
<trkpt lat="27.862463" lon="98.684762">
<time>2014-08-05T04:06:35Z</time></trkpt>
<trkpt lat="27.862573" lon="98.684732">
<time>2014-08-05T04:06:36Z</time></trkpt>
<trkpt lat="27.862813" lon="98.684682">
<time>2014-08-05T04:06:37Z</time></trkpt>
<trkpt lat="27.862933" lon="98.684672">
<time>2014-08-05T04:06:38Z</time></trkpt>
<trkpt lat="27.862993" lon="98.684672">
<time>2014-08-05T04:06:39Z</time></trkpt>
<trkpt lat="27.863053" lon="98.684692">
<time>2014-08-05T04:06:40Z</time></trkpt>
<trkpt lat="27.863123" lon="98.684712">
<time>2014-08-05T04:06:41Z</time></trkpt>
<trkpt lat="27.863163" lon="98.684722">
<time>2014-08-05T04:06:42Z</time></trkpt>
<trkpt lat="27.863383" lon="98.684832">
<time>2014-08-05T04:06:43Z</time></trkpt>
<trkpt lat="27.863593" lon="98.684922">
<time>2014-08-05T04:06:44Z</time></trkpt>
<trkpt lat="27.863753" lon="98.684952">
<time>2014-08-05T04:06:45Z</time></trkpt>
<trkpt lat="27.863913" lon="98.684982">
<time>2014-08-05T04:06:46Z</time></trkpt>
<trkpt lat="27.864423" lon="98.685011">
<time>2014-08-05T04:06:47Z</time></trkpt>
<trkpt lat="27.864583" lon="98.685021">
<time>2014-08-05T04:06:48Z</time></trkpt>
<trkpt lat="27.864693" lon="98.685041">
<time>2014-08-05T04:06:49Z</time></trkpt>
<trkpt lat="27.864813" lon="98.685071">
<time>2014-08-05T04:06:50Z</time></trkpt>
<trkpt lat="27.865013" lon="98.685141">
<time>2014-08-05T04:06:51Z</time></trkpt>
<trkpt lat="27.865163" lon="98.685181">
<time>2014-08-05T04:06:52Z</time></trkpt>
<trkpt lat="27.865253" lon="98.685191">
<time>2014-08-05T04:06:53Z</time></trkpt>
<trkpt lat="27.865383" lon="98.685201">
<time>2014-08-05T04:06:54Z</time></trkpt>
<trkpt lat="27.865533" lon="98.685201">
<time>2014-08-05T04:06:55Z</time></trkpt>
<trkpt lat="27.866303" lon="98.685211">
<time>2014-08-05T04:06:56Z</time></trkpt>
<trkpt lat="27.866743" lon="98.685201">
<time>2014-08-05T04:06:57Z</time></trkpt>
<trkpt lat="27.866853" lon="98.685191">
<time>2014-08-05T04:06:58Z</time></trkpt>
<trkpt lat="27.866953" lon="98.685171">
<time>2014-08-05T04:06:59Z</time></trkpt>
<trkpt lat="27.867033" lon="98.685131">
<time>2014-08-05T04:07:00Z</time></trkpt>
<trkpt lat="27.867283" lon="98.684981">
<time>2014-08-05T04:07:01Z</time></trkpt>
<trkpt lat="27.867414" lon="98.684912">
<time>2014-08-05T04:07:02Z</time></trkpt>
<trkpt lat="27.867514" lon="98.684882">
<time>2014-08-05T04:07:03Z</time></trkpt>
<trkpt lat="27.867644" lon="98.684842">
<time>2014-08-05T04:07:04Z</time></trkpt>
<trkpt lat="27.867864" lon="98.684792">
<time>2014-08-05T04:07:05Z</time></trkpt>
<trkpt lat="27.868264" lon="98.684712">
<time>2014-08-05T04:07:06Z</time></trkpt>
<trkpt lat="27.869035" lon="98.684583">
<time>2014-08-05T04:07:07Z</time></trkpt>
<trkpt lat="27.869645" lon="98.684473">
<time>2014-08-05T04:07:08Z</time></trkpt>
<trkpt lat="27.870195" lon="98.684383">
<time>2014-08-05T04:07:09Z</time></trkpt>
<trkpt lat="27.870315" lon="98.684353">
<time>2014-08-05T04:07:10Z</time></trkpt>
<trkpt lat="27.871066" lon="98.684114">
<time>2014-08-05T04:07:11Z</time></trkpt>
<trkpt lat="27.871816" lon="98.683844">
<time>2014-08-05T04:07:12Z</time></trkpt>
<trkpt lat="27.872527" lon="98.683555">
<time>2014-08-05T04:07:13Z</time></trkpt>
<trkpt lat="27.873028" lon="98.683316">
<time>2014-08-05T04:07:14Z</time></trkpt>
<trkpt lat="27.873188" lon="98.683226">
<time>2014-08-05T04:07:15Z</time></trkpt>
<trkpt lat="27.873318" lon="98.683126">
<time>2014-08-05T04:07:16Z</time></trkpt>
<trkpt lat="27.873599" lon="98.682887">
<time>2014-08-05T04:07:17Z</time></trkpt>
<trkpt lat="27.87412" lon="98.682408">
<time>2014-08-05T04:07:18Z</time></trkpt>
<trkpt lat="27.874561" lon="98.68192">
<time>2014-08-05T04:07:19Z</time></trkpt>
<trkpt lat="27.874721" lon="98.68174">
<time>2014-08-05T04:07:20Z</time></trkpt>
<trkpt lat="27.875012" lon="98.681411">
<time>2014-08-05T04:07:21Z</time></trkpt>
<trkpt lat="27.875152" lon="98.681291">
<time>2014-08-05T04:07:22Z</time></trkpt>
<trkpt lat="27.875392" lon="98.681092">
<time>2014-08-05T04:07:23Z</time></trkpt>
<trkpt lat="27.875532" lon="98.680972">
<time>2014-08-05T04:07:24Z</time></trkpt>
<trkpt lat="27.875663" lon="98.680843">
<time>2014-08-05T04:07:25Z</time></trkpt>
<trkpt lat="27.875693" lon="98.680803">
<time>2014-08-05T04:07:26Z</time></trkpt>
<trkpt lat="27.875723" lon="98.680753">
<time>2014-08-05T04:07:27Z</time></trkpt>
<trkpt lat="27.875743" lon="98.680703">
<time>2014-08-05T04:07:28Z</time></trkpt>
<trkpt lat="27.875813" lon="98.680553">
<time>2014-08-05T04:07:29Z</time></trkpt>
<trkpt lat="27.875894" lon="98.680334">
<time>2014-08-05T04:07:30Z</time></trkpt>
<trkpt lat="27.875994" lon="98.680115">
<time>2014-08-05T04:07:31Z</time></trkpt>
<trkpt lat="27.876004" lon="98.680095">
<time>2014-08-05T04:07:32Z</time></trkpt>
<trkpt lat="27.876004" lon="98.680075">
<time>2014-08-05T04:07:33Z</time></trkpt>
<trkpt lat="27.876014" lon="98.680065">
<time>2014-08-05T04:07:34Z</time></trkpt>
<trkpt lat="27.876014" lon="98.680045">
<time>2014-08-05T04:07:35Z</time></trkpt>
<trkpt lat="27.876014" lon="98.680025">
<time>2014-08-05T04:07:36Z</time></trkpt>
<trkpt lat="27.876014" lon="98.680015">
<time>2014-08-05T04:07:37Z</time></trkpt>
<trkpt lat="27.876014" lon="98.679995">
<time>2014-08-05T04:07:38Z</time></trkpt>
<trkpt lat="27.876014" lon="98.679975">
<time>2014-08-05T04:07:39Z</time></trkpt>
<trkpt lat="27.876014" lon="98.679965">
<time>2014-08-05T04:07:40Z</time></trkpt>
<trkpt lat="27.876014" lon="98.679945">
<time>2014-08-05T04:07:41Z</time></trkpt>
<trkpt lat="27.876015" lon="98.679935">
<time>2014-08-05T04:07:42Z</time></trkpt>
<trkpt lat="27.876005" lon="98.679925">
<time>2014-08-05T04:07:43Z</time></trkpt>
<trkpt lat="27.875965" lon="98.679805">
<time>2014-08-05T04:07:44Z</time></trkpt>
<trkpt lat="27.875925" lon="98.679716">
<time>2014-08-05T04:07:45Z</time></trkpt>
<trkpt lat="27.875875" lon="98.679626">
<time>2014-08-05T04:07:46Z</time></trkpt>
<trkpt lat="27.875845" lon="98.679536">
<time>2014-08-05T04:07:47Z</time></trkpt>
<trkpt lat="27.875835" lon="98.679516">
<time>2014-08-05T04:07:48Z</time></trkpt>
<trkpt lat="27.875835" lon="98.679496">
<time>2014-08-05T04:07:49Z</time></trkpt>
<trkpt lat="27.875825" lon="98.679476">
<time>2014-08-05T04:07:50Z</time></trkpt>
<trkpt lat="27.875825" lon="98.679456">
<time>2014-08-05T04:07:51Z</time></trkpt>
<trkpt lat="27.875825" lon="98.679446">
<time>2014-08-05T04:07:52Z</time></trkpt>
<trkpt lat="27.875825" lon="98.679426">
<time>2014-08-05T04:07:53Z</time></trkpt>
<trkpt lat="27.875835" lon="98.679407">
<time>2014-08-05T04:07:54Z</time></trkpt>
<trkpt lat="27.875836" lon="98.679387">
<time>2014-08-05T04:07:55Z</time></trkpt>
<trkpt lat="27.875856" lon="98.679347">
<time>2014-08-05T04:07:56Z</time></trkpt>
<trkpt lat="27.875926" lon="98.679227">
<time>2014-08-05T04:07:57Z</time></trkpt>
<trkpt lat="27.876016" lon="98.679077">
<time>2014-08-05T04:07:58Z</time></trkpt>
<trkpt lat="27.876076" lon="98.679008">
<time>2014-08-05T04:07:59Z</time></trkpt>
<trkpt lat="27.876096" lon="98.678978">
<time>2014-08-05T04:08:00Z</time></trkpt>
<trkpt lat="27.876116" lon="98.678968">
<time>2014-08-05T04:08:01Z</time></trkpt>
<trkpt lat="27.876126" lon="98.678958">
<time>2014-08-05T04:08:02Z</time></trkpt>
<trkpt lat="27.876146" lon="98.678948">
<time>2014-08-05T04:08:03Z</time></trkpt>
<trkpt lat="27.876176" lon="98.678948">
<time>2014-08-05T04:08:04Z</time></trkpt>
<trkpt lat="27.876226" lon="98.678938">
<time>2014-08-05T04:08:05Z</time></trkpt>
<trkpt lat="27.876276" lon="98.678938">
<time>2014-08-05T04:08:06Z</time></trkpt>
<trkpt lat="27.876356" lon="98.678958">
<time>2014-08-05T04:08:07Z</time></trkpt>
<trkpt lat="27.876446" lon="98.678978">
<time>2014-08-05T04:08:08Z</time></trkpt>
<trkpt lat="27.876526" lon="98.678998">
<time>2014-08-05T04:08:09Z</time></trkpt>
<trkpt lat="27.876586" lon="98.679008">
<time>2014-08-05T04:08:10Z</time></trkpt>
<trkpt lat="27.876646" lon="98.679018">
<time>2014-08-05T04:08:11Z</time></trkpt>
<trkpt lat="27.876726" lon="98.679018">
<time>2014-08-05T04:08:12Z</time></trkpt>
<trkpt lat="27.876796" lon="98.678998">
<time>2014-08-05T04:08:13Z</time></trkpt>
<trkpt lat="27.876987" lon="98.678938">
<time>2014-08-05T04:08:14Z</time></trkpt>
<trkpt lat="27.877057" lon="98.678908">
<time>2014-08-05T04:08:15Z</time></trkpt>
<trkpt lat="27.877087" lon="98.678888">
<time>2014-08-05T04:08:16Z</time></trkpt>
<trkpt lat="27.877127" lon="98.678868">
<time>2014-08-05T04:08:17Z</time></trkpt>
<trkpt lat="27.877157" lon="98.678838">
<time>2014-08-05T04:08:18Z</time></trkpt>
<trkpt lat="27.877187" lon="98.678808">
<time>2014-08-05T04:08:19Z</time></trkpt>
<trkpt lat="27.877267" lon="98.678718">
<time>2014-08-05T04:08:20Z</time></trkpt>
<trkpt lat="27.877357" lon="98.678599">
<time>2014-08-05T04:08:21Z</time></trkpt>
<trkpt lat="27.877468" lon="98.678469">
<time>2014-08-05T04:08:22Z</time></trkpt>
<trkpt lat="27.877568" lon="98.678359">
<time>2014-08-05T04:08:23Z</time></trkpt>
<trkpt lat="27.877768" lon="98.67817">
<time>2014-08-05T04:08:24Z</time></trkpt>
<trkpt lat="27.878199" lon="98.677801">
<time>2014-08-05T04:08:25Z</time></trkpt>
<trkpt lat="27.878339" lon="98.677661">
<time>2014-08-05T04:08:26Z</time></trkpt>
<trkpt lat="27.878399" lon="98.677601">
<time>2014-08-05T04:08:27Z</time></trkpt>
<trkpt lat="27.87847" lon="98.677522">
<time>2014-08-05T04:08:28Z</time></trkpt>
<trkpt lat="27.87857" lon="98.677342">
<time>2014-08-05T04:08:29Z</time></trkpt>
<trkpt lat="27.878791" lon="98.676913">
<time>2014-08-05T04:08:30Z</time></trkpt>
<trkpt lat="27.878881" lon="98.676764">
<time>2014-08-05T04:08:31Z</time></trkpt>
<trkpt lat="27.878931" lon="98.676654">
<time>2014-08-05T04:08:32Z</time></trkpt>
<trkpt lat="27.878941" lon="98.676644">
<time>2014-08-05T04:08:33Z</time></trkpt>
<trkpt lat="27.878991" lon="98.676544">
<time>2014-08-05T04:08:34Z</time></trkpt>
<trkpt lat="27.879162" lon="98.676245">
<time>2014-08-05T04:08:35Z</time></trkpt>
<trkpt lat="27.879333" lon="98.675946">
<time>2014-08-05T04:08:36Z</time></trkpt>
<trkpt lat="27.879423" lon="98.675786">
<time>2014-08-05T04:08:37Z</time></trkpt>
<trkpt lat="27.879473" lon="98.675667">
<time>2014-08-05T04:08:38Z</time></trkpt>
<trkpt lat="27.879523" lon="98.675557">
<time>2014-08-05T04:08:39Z</time></trkpt>
<trkpt lat="27.879624" lon="98.675228">
<time>2014-08-05T04:08:40Z</time></trkpt>
<trkpt lat="27.879684" lon="98.675068">
<time>2014-08-05T04:08:41Z</time></trkpt>
<trkpt lat="27.879694" lon="98.675039">
<time>2014-08-05T04:08:42Z</time></trkpt>
<trkpt lat="27.879715" lon="98.675009">
<time>2014-08-05T04:08:43Z</time></trkpt>
<trkpt lat="27.879745" lon="98.674969">
<time>2014-08-05T04:08:44Z</time></trkpt>
<trkpt lat="27.879765" lon="98.674949">
<time>2014-08-05T04:08:45Z</time></trkpt>
<trkpt lat="27.879785" lon="98.674929">
<time>2014-08-05T04:08:46Z</time></trkpt>
<trkpt lat="27.879815" lon="98.674919">
<time>2014-08-05T04:08:47Z</time></trkpt>
<trkpt lat="27.879855" lon="98.674899">
<time>2014-08-05T04:08:48Z</time></trkpt>
<trkpt lat="27.879935" lon="98.674869">
<time>2014-08-05T04:08:49Z</time></trkpt>
<trkpt lat="27.880075" lon="98.674849">
<time>2014-08-05T04:08:50Z</time></trkpt>
<trkpt lat="27.880145" lon="98.674819">
<time>2014-08-05T04:08:51Z</time></trkpt>
<trkpt lat="27.880215" lon="98.674789">
<time>2014-08-05T04:08:52Z</time></trkpt>
<trkpt lat="27.880245" lon="98.674769">
<time>2014-08-05T04:08:53Z</time></trkpt>
<trkpt lat="27.880295" lon="98.674739">
<time>2014-08-05T04:08:54Z</time></trkpt>
<trkpt lat="27.880385" lon="98.67467">
<time>2014-08-05T04:08:55Z</time></trkpt>
<trkpt lat="27.880465" lon="98.67461">
<time>2014-08-05T04:08:56Z</time></trkpt>
<trkpt lat="27.880516" lon="98.67457">
<time>2014-08-05T04:08:57Z</time></trkpt>
<trkpt lat="27.880576" lon="98.67452">
<time>2014-08-05T04:08:58Z</time></trkpt>
<trkpt lat="27.880596" lon="98.67449">
<time>2014-08-05T04:08:59Z</time></trkpt>
<trkpt lat="27.880636" lon="98.67445">
<time>2014-08-05T04:09:00Z</time></trkpt>
<trkpt lat="27.880676" lon="98.6744">
<time>2014-08-05T04:09:01Z</time></trkpt>
<trkpt lat="27.880706" lon="98.67435">
<time>2014-08-05T04:09:02Z</time></trkpt>
<trkpt lat="27.880786" lon="98.674201">
<time>2014-08-05T04:09:03Z</time></trkpt>
<trkpt lat="27.880826" lon="98.674131">
<time>2014-08-05T04:09:04Z</time></trkpt>
<trkpt lat="27.880867" lon="98.674061">
<time>2014-08-05T04:09:05Z</time></trkpt>
<trkpt lat="27.880907" lon="98.674011">
<time>2014-08-05T04:09:06Z</time></trkpt>
<trkpt lat="27.880957" lon="98.673971">
<time>2014-08-05T04:09:07Z</time></trkpt>
<trkpt lat="27.880987" lon="98.673942">
<time>2014-08-05T04:09:08Z</time></trkpt>
<trkpt lat="27.881047" lon="98.673902">
<time>2014-08-05T04:09:09Z</time></trkpt>
<trkpt lat="27.881177" lon="98.673832">
<time>2014-08-05T04:09:10Z</time></trkpt>
<trkpt lat="27.881257" lon="98.673792">
<time>2014-08-05T04:09:11Z</time></trkpt>
<trkpt lat="27.881588" lon="98.673632">
<time>2014-08-05T04:09:12Z</time></trkpt>
<trkpt lat="27.882128" lon="98.673403">
<time>2014-08-05T04:09:13Z</time></trkpt>
<trkpt lat="27.883169" lon="98.672944">
<time>2014-08-05T04:09:14Z</time></trkpt>
<trkpt lat="27.883469" lon="98.672815">
<time>2014-08-05T04:09:15Z</time></trkpt>
<trkpt lat="27.88361" lon="98.672765">
<time>2014-08-05T04:09:16Z</time></trkpt>
<trkpt lat="27.88373" lon="98.672725">
<time>2014-08-05T04:09:17Z</time></trkpt>
<trkpt lat="27.88381" lon="98.672715">
<time>2014-08-05T04:09:18Z</time></trkpt>
<trkpt lat="27.88397" lon="98.672695">
<time>2014-08-05T04:09:19Z</time></trkpt>
<trkpt lat="27.88409" lon="98.672695">
<time>2014-08-05T04:09:20Z</time></trkpt>
<trkpt lat="27.88419" lon="98.672705">
<time>2014-08-05T04:09:21Z</time></trkpt>
<trkpt lat="27.88422" lon="98.672715">
<time>2014-08-05T04:09:22Z</time></trkpt>
<trkpt lat="27.88429" lon="98.672725">
<time>2014-08-05T04:09:23Z</time></trkpt>
<trkpt lat="27.88445" lon="98.672765">
<time>2014-08-05T04:09:24Z</time></trkpt>
<trkpt lat="27.88467" lon="98.672815">
<time>2014-08-05T04:09:25Z</time></trkpt>
<trkpt lat="27.88476" lon="98.672825">
<time>2014-08-05T04:09:26Z</time></trkpt>
<trkpt lat="27.88502" lon="98.672845">
<time>2014-08-05T04:09:27Z</time></trkpt>
<trkpt lat="27.8854" lon="98.672844">
<time>2014-08-05T04:09:28Z</time></trkpt>
<trkpt lat="27.88578" lon="98.672854">
<time>2014-08-05T04:09:29Z</time></trkpt>
<trkpt lat="27.88581" lon="98.672854">
<time>2014-08-05T04:09:30Z</time></trkpt>
<trkpt lat="27.8859" lon="98.672854">
<time>2014-08-05T04:09:31Z</time></trkpt>
<trkpt lat="27.88615" lon="98.672864">
<time>2014-08-05T04:09:32Z</time></trkpt>
<trkpt lat="27.88634" lon="98.672864">
<time>2014-08-05T04:09:33Z</time></trkpt>
<trkpt lat="27.88653" lon="98.672874">
<time>2014-08-05T04:09:34Z</time></trkpt>
<trkpt lat="27.88691" lon="98.672894">
<time>2014-08-05T04:09:35Z</time></trkpt>
<trkpt lat="27.88727" lon="98.672914">
<time>2014-08-05T04:09:36Z</time></trkpt>
<trkpt lat="27.8874" lon="98.672924">
<time>2014-08-05T04:09:37Z</time></trkpt>
<trkpt lat="27.88751" lon="98.672944">
<time>2014-08-05T04:09:38Z</time></trkpt>
<trkpt lat="27.88763" lon="98.672984">
<time>2014-08-05T04:09:39Z</time></trkpt>
<trkpt lat="27.88776" lon="98.673034">
<time>2014-08-05T04:09:40Z</time></trkpt>
<trkpt lat="27.888199" lon="98.673243">
<time>2014-08-05T04:09:41Z</time></trkpt>
<trkpt lat="27.890018" lon="98.674121">
<time>2014-08-05T04:09:42Z</time></trkpt>
<trkpt lat="27.890208" lon="98.674211">
<time>2014-08-05T04:09:43Z</time></trkpt>
<trkpt lat="27.890328" lon="98.67427">
<time>2014-08-05T04:09:44Z</time></trkpt>
<trkpt lat="27.890498" lon="98.6744">
<time>2014-08-05T04:09:45Z</time></trkpt>
<trkpt lat="27.890757" lon="98.674619">
<time>2014-08-05T04:09:46Z</time></trkpt>
<trkpt lat="27.890897" lon="98.674739">
<time>2014-08-05T04:09:47Z</time></trkpt>
<trkpt lat="27.890977" lon="98.674809">
<time>2014-08-05T04:09:48Z</time></trkpt>
<trkpt lat="27.891057" lon="98.674859">
<time>2014-08-05T04:09:49Z</time></trkpt>
<trkpt lat="27.891107" lon="98.674899">
<time>2014-08-05T04:09:50Z</time></trkpt>
<trkpt lat="27.891157" lon="98.674929">
<time>2014-08-05T04:09:51Z</time></trkpt>
<trkpt lat="27.891187" lon="98.674939">
<time>2014-08-05T04:09:52Z</time></trkpt>
<trkpt lat="27.891217" lon="98.674949">
<time>2014-08-05T04:09:53Z</time></trkpt>
<trkpt lat="27.891247" lon="98.674949">
<time>2014-08-05T04:09:54Z</time></trkpt>
<trkpt lat="27.891277" lon="98.674949">
<time>2014-08-05T04:09:55Z</time></trkpt>
<trkpt lat="27.891307" lon="98.674949">
<time>2014-08-05T04:09:56Z</time></trkpt>
<trkpt lat="27.891347" lon="98.674939">
<time>2014-08-05T04:09:57Z</time></trkpt>
<trkpt lat="27.891387" lon="98.674929">
<time>2014-08-05T04:09:58Z</time></trkpt>
<trkpt lat="27.891427" lon="98.674919">
<time>2014-08-05T04:09:59Z</time></trkpt>
<trkpt lat="27.891437" lon="98.674909">
<time>2014-08-05T04:10:00Z</time></trkpt>
<trkpt lat="27.891457" lon="98.674899">
<time>2014-08-05T04:10:01Z</time></trkpt>
<trkpt lat="27.891487" lon="98.674889">
<time>2014-08-05T04:10:02Z</time></trkpt>
<trkpt lat="27.891507" lon="98.674869">
<time>2014-08-05T04:10:03Z</time></trkpt>
<trkpt lat="27.891547" lon="98.674839">
<time>2014-08-05T04:10:04Z</time></trkpt>
<trkpt lat="27.891577" lon="98.674819">
<time>2014-08-05T04:10:05Z</time></trkpt>
<trkpt lat="27.891657" lon="98.674749">
<time>2014-08-05T04:10:06Z</time></trkpt>
<trkpt lat="27.891737" lon="98.674679">
<time>2014-08-05T04:10:07Z</time></trkpt>
<trkpt lat="27.891828" lon="98.67459">
<time>2014-08-05T04:10:08Z</time></trkpt>
<trkpt lat="27.891908" lon="98.67449">
<time>2014-08-05T04:10:09Z</time></trkpt>
<trkpt lat="27.891928" lon="98.67447">
<time>2014-08-05T04:10:10Z</time></trkpt>
<trkpt lat="27.891958" lon="98.67443">
<time>2014-08-05T04:10:11Z</time></trkpt>
<trkpt lat="27.892038" lon="98.67433">
<time>2014-08-05T04:10:12Z</time></trkpt>
<trkpt lat="27.892098" lon="98.67425">
<time>2014-08-05T04:10:13Z</time></trkpt>
<trkpt lat="27.892259" lon="98.674031">
<time>2014-08-05T04:10:14Z</time></trkpt>
<trkpt lat="27.892469" lon="98.673762">
<time>2014-08-05T04:10:15Z</time></trkpt>
<trkpt lat="27.89262" lon="98.673522">
<time>2014-08-05T04:10:16Z</time></trkpt>
<trkpt lat="27.89275" lon="98.673363">
<time>2014-08-05T04:10:17Z</time></trkpt>
<trkpt lat="27.89285" lon="98.673223">
<time>2014-08-05T04:10:18Z</time></trkpt>
<trkpt lat="27.892911" lon="98.673144">
<time>2014-08-05T04:10:19Z</time></trkpt>
<trkpt lat="27.892961" lon="98.673064">
<time>2014-08-05T04:10:20Z</time></trkpt>
<trkpt lat="27.893051" lon="98.672944">
<time>2014-08-05T04:10:21Z</time></trkpt>
<trkpt lat="27.893101" lon="98.672874">
<time>2014-08-05T04:10:22Z</time></trkpt>
<trkpt lat="27.893171" lon="98.672775">
<time>2014-08-05T04:10:23Z</time></trkpt>
<trkpt lat="27.893292" lon="98.672595">
<time>2014-08-05T04:10:24Z</time></trkpt>
<trkpt lat="27.893382" lon="98.672445">
<time>2014-08-05T04:10:25Z</time></trkpt>
<trkpt lat="27.893442" lon="98.672306">
<time>2014-08-05T04:10:26Z</time></trkpt>
<trkpt lat="27.893512" lon="98.672186">
<time>2014-08-05T04:10:27Z</time></trkpt>
<trkpt lat="27.893573" lon="98.672096">
<time>2014-08-05T04:10:28Z</time></trkpt>
<trkpt lat="27.893583" lon="98.672086">
<time>2014-08-05T04:10:29Z</time></trkpt>
<trkpt lat="27.893643" lon="98.671957">
<time>2014-08-05T04:10:30Z</time></trkpt>
<trkpt lat="27.893713" lon="98.671797">
<time>2014-08-05T04:10:31Z</time></trkpt>
<trkpt lat="27.893764" lon="98.671658">
<time>2014-08-05T04:10:32Z</time></trkpt>
<trkpt lat="27.893824" lon="98.671488">
<time>2014-08-05T04:10:33Z</time></trkpt>
<trkpt lat="27.893834" lon="98.671468">
<time>2014-08-05T04:10:34Z</time></trkpt>
<trkpt lat="27.893884" lon="98.671299">
<time>2014-08-05T04:10:35Z</time></trkpt>
<trkpt lat="27.893945" lon="98.671089">
<time>2014-08-05T04:10:36Z</time></trkpt>
<trkpt lat="27.894045" lon="98.67072">
<time>2014-08-05T04:10:37Z</time></trkpt>
<trkpt lat="27.894096" lon="98.670491">
<time>2014-08-05T04:10:38Z</time></trkpt>
<trkpt lat="27.894116" lon="98.670391">
<time>2014-08-05T04:10:39Z</time></trkpt>
<trkpt lat="27.894177" lon="98.669972">
<time>2014-08-05T04:10:40Z</time></trkpt>
<trkpt lat="27.894238" lon="98.669563">
<time>2014-08-05T04:10:41Z</time></trkpt>
<trkpt lat="27.894369" lon="98.668606">
<time>2014-08-05T04:10:42Z</time></trkpt>
<trkpt lat="27.89443" lon="98.668157">
<time>2014-08-05T04:10:43Z</time></trkpt>
<trkpt lat="27.894471" lon="98.667768">
<time>2014-08-05T04:10:44Z</time></trkpt>
<trkpt lat="27.894501" lon="98.667599">
<time>2014-08-05T04:10:45Z</time></trkpt>
<trkpt lat="27.894562" lon="98.667439">
<time>2014-08-05T04:10:46Z</time></trkpt>
<trkpt lat="27.894672" lon="98.6672">
<time>2014-08-05T04:10:47Z</time></trkpt>
<trkpt lat="27.894783" lon="98.666991">
<time>2014-08-05T04:10:48Z</time></trkpt>
<trkpt lat="27.894893" lon="98.666791">
<time>2014-08-05T04:10:49Z</time></trkpt>
<trkpt lat="27.894973" lon="98.666681">
<time>2014-08-05T04:10:50Z</time></trkpt>
<trkpt lat="27.895063" lon="98.666572">
<time>2014-08-05T04:10:51Z</time></trkpt>
<trkpt lat="27.895224" lon="98.666442">
<time>2014-08-05T04:10:52Z</time></trkpt>
<trkpt lat="27.895314" lon="98.666362">
<time>2014-08-05T04:10:53Z</time></trkpt>
<trkpt lat="27.895414" lon="98.666282">
<time>2014-08-05T04:10:54Z</time></trkpt>
<trkpt lat="27.895614" lon="98.666123">
<time>2014-08-05T04:10:55Z</time></trkpt>
<trkpt lat="27.895685" lon="98.666073">
<time>2014-08-05T04:10:56Z</time></trkpt>
<trkpt lat="27.895765" lon="98.666003">
<time>2014-08-05T04:10:57Z</time></trkpt>
<trkpt lat="27.895855" lon="98.665943">
<time>2014-08-05T04:10:58Z</time></trkpt>
<trkpt lat="27.896005" lon="98.665834">
<time>2014-08-05T04:10:59Z</time></trkpt>
<trkpt lat="27.896245" lon="98.665644">
<time>2014-08-05T04:11:00Z</time></trkpt>
<trkpt lat="27.896446" lon="98.665485">
<time>2014-08-05T04:11:01Z</time></trkpt>
<trkpt lat="27.896726" lon="98.665245">
<time>2014-08-05T04:11:02Z</time></trkpt>
<trkpt lat="27.896826" lon="98.665165">
<time>2014-08-05T04:11:03Z</time></trkpt>
<trkpt lat="27.896937" lon="98.665066">
<time>2014-08-05T04:11:04Z</time></trkpt>
<trkpt lat="27.897047" lon="98.664956">
<time>2014-08-05T04:11:05Z</time></trkpt>
<trkpt lat="27.897187" lon="98.664806">
<time>2014-08-05T04:11:06Z</time></trkpt>
<trkpt lat="27.897348" lon="98.664617">
<time>2014-08-05T04:11:07Z</time></trkpt>
<trkpt lat="27.897418" lon="98.664537">
<time>2014-08-05T04:11:08Z</time></trkpt>
<trkpt lat="27.897538" lon="98.664388">
<time>2014-08-05T04:11:09Z</time></trkpt>
<trkpt lat="27.897578" lon="98.664328">
<time>2014-08-05T04:11:10Z</time></trkpt>
<trkpt lat="27.897588" lon="98.664318">
<time>2014-08-05T04:11:11Z</time></trkpt>
<trkpt lat="27.897638" lon="98.664248">
<time>2014-08-05T04:11:12Z</time></trkpt>
<trkpt lat="27.897689" lon="98.664168">
<time>2014-08-05T04:11:13Z</time></trkpt>
<trkpt lat="27.897749" lon="98.664078">
<time>2014-08-05T04:11:14Z</time></trkpt>
<trkpt lat="27.897819" lon="98.663949">
<time>2014-08-05T04:11:15Z</time></trkpt>
<trkpt lat="27.897869" lon="98.663839">
<time>2014-08-05T04:11:16Z</time></trkpt>
<trkpt lat="27.89794" lon="98.66366">
<time>2014-08-05T04:11:17Z</time></trkpt>
<trkpt lat="27.898" lon="98.66348">
<time>2014-08-05T04:11:18Z</time></trkpt>
<trkpt lat="27.89804" lon="98.66336">
<time>2014-08-05T04:11:19Z</time></trkpt>
<trkpt lat="27.89807" lon="98.663251">
<time>2014-08-05T04:11:20Z</time></trkpt>
<trkpt lat="27.898101" lon="98.663151">
<time>2014-08-05T04:11:21Z</time></trkpt>
<trkpt lat="27.898141" lon="98.662981">
<time>2014-08-05T04:11:22Z</time></trkpt>
<trkpt lat="27.898171" lon="98.662842">
<time>2014-08-05T04:11:23Z</time></trkpt>
<trkpt lat="27.898201" lon="98.662722">
<time>2014-08-05T04:11:24Z</time></trkpt>
<trkpt lat="27.898292" lon="98.662293">
<time>2014-08-05T04:11:25Z</time></trkpt>
<trkpt lat="27.898322" lon="98.662164">
<time>2014-08-05T04:11:26Z</time></trkpt>
<trkpt lat="27.898393" lon="98.661984">
<time>2014-08-05T04:11:27Z</time></trkpt>
<trkpt lat="27.898443" lon="98.661884">
<time>2014-08-05T04:11:28Z</time></trkpt>
<trkpt lat="27.898503" lon="98.661805">
<time>2014-08-05T04:11:29Z</time></trkpt>
<trkpt lat="27.898543" lon="98.661775">
<time>2014-08-05T04:11:30Z</time></trkpt>
<trkpt lat="27.898573" lon="98.661755">
<time>2014-08-05T04:11:31Z</time></trkpt>
<trkpt lat="27.898603" lon="98.661725">
<time>2014-08-05T04:11:32Z</time></trkpt>
<trkpt lat="27.898643" lon="98.661705">
<time>2014-08-05T04:11:33Z</time></trkpt>
<trkpt lat="27.898733" lon="98.661675">
<time>2014-08-05T04:11:34Z</time></trkpt>
<trkpt lat="27.898904" lon="98.661625">
<time>2014-08-05T04:11:35Z</time></trkpt>
<trkpt lat="27.899104" lon="98.661555">
<time>2014-08-05T04:11:36Z</time></trkpt>
<trkpt lat="27.899274" lon="98.661476">
<time>2014-08-05T04:11:37Z</time></trkpt>
<trkpt lat="27.899484" lon="98.661356">
<time>2014-08-05T04:11:38Z</time></trkpt>
<trkpt lat="27.899694" lon="98.661236">
<time>2014-08-05T04:11:39Z</time></trkpt>
<trkpt lat="27.899765" lon="98.661206">
<time>2014-08-05T04:11:40Z</time></trkpt>
<trkpt lat="27.899845" lon="98.661166">
<time>2014-08-05T04:11:41Z</time></trkpt>
<trkpt lat="27.899955" lon="98.661136">
<time>2014-08-05T04:11:42Z</time></trkpt>
<trkpt lat="27.900065" lon="98.661126">
<time>2014-08-05T04:11:43Z</time></trkpt>
<trkpt lat="27.900145" lon="98.661116">
<time>2014-08-05T04:11:44Z</time></trkpt>
<trkpt lat="27.900195" lon="98.661116">
<time>2014-08-05T04:11:45Z</time></trkpt>
<trkpt lat="27.900205" lon="98.661116">
<time>2014-08-05T04:11:46Z</time></trkpt>
<trkpt lat="27.900235" lon="98.661126">
<time>2014-08-05T04:11:47Z</time></trkpt>
<trkpt lat="27.900245" lon="98.661126">
<time>2014-08-05T04:11:48Z</time></trkpt>
<trkpt lat="27.900245" lon="98.661136">
<time>2014-08-05T04:11:49Z</time></trkpt>
<trkpt lat="27.900305" lon="98.661166">
<time>2014-08-05T04:11:50Z</time></trkpt>
<trkpt lat="27.900365" lon="98.661216">
<time>2014-08-05T04:11:51Z</time></trkpt>
<trkpt lat="27.900425" lon="98.661246">
<time>2014-08-05T04:11:52Z</time></trkpt>
<trkpt lat="27.900445" lon="98.661256">
<time>2014-08-05T04:11:53Z</time></trkpt>
<trkpt lat="27.900465" lon="98.661266">
<time>2014-08-05T04:11:54Z</time></trkpt>
<trkpt lat="27.900475" lon="98.661266">
<time>2014-08-05T04:11:55Z</time></trkpt>
<trkpt lat="27.900545" lon="98.661286">
<time>2014-08-05T04:11:56Z</time></trkpt>
<trkpt lat="27.900615" lon="98.661286">
<time>2014-08-05T04:11:57Z</time></trkpt>
<trkpt lat="27.900695" lon="98.661276">
<time>2014-08-05T04:11:58Z</time></trkpt>
<trkpt lat="27.900925" lon="98.661246">
<time>2014-08-05T04:11:59Z</time></trkpt>
<trkpt lat="27.900995" lon="98.661226">
<time>2014-08-05T04:12:00Z</time></trkpt>
<trkpt lat="27.901035" lon="98.661216">
<time>2014-08-05T04:12:01Z</time></trkpt>
<trkpt lat="27.901055" lon="98.661206">
<time>2014-08-05T04:12:02Z</time></trkpt>
<trkpt lat="27.901065" lon="98.661206">
<time>2014-08-05T04:12:03Z</time></trkpt>
<trkpt lat="27.901085" lon="98.661186">
<time>2014-08-05T04:12:04Z</time></trkpt>
<trkpt lat="27.901135" lon="98.661156">
<time>2014-08-05T04:12:05Z</time></trkpt>
<trkpt lat="27.901235" lon="98.661077">
<time>2014-08-05T04:12:06Z</time></trkpt>
<trkpt lat="27.901425" lon="98.660917">
<time>2014-08-05T04:12:07Z</time></trkpt>
<trkpt lat="27.901676" lon="98.660678">
<time>2014-08-05T04:12:08Z</time></trkpt>
<trkpt lat="27.901866" lon="98.660508">
<time>2014-08-05T04:12:09Z</time></trkpt>
<trkpt lat="27.901876" lon="98.660508">
<time>2014-08-05T04:12:10Z</time></trkpt>
<trkpt lat="27.902096" lon="98.660378">
<time>2014-08-05T04:12:11Z</time></trkpt>
<trkpt lat="27.902257" lon="98.660299">
<time>2014-08-05T04:12:12Z</time></trkpt>
<trkpt lat="27.902407" lon="98.660239">
<time>2014-08-05T04:12:13Z</time></trkpt>
<trkpt lat="27.902547" lon="98.660199">
<time>2014-08-05T04:12:14Z</time></trkpt>
<trkpt lat="27.902667" lon="98.660159">
<time>2014-08-05T04:12:15Z</time></trkpt>
<trkpt lat="27.902777" lon="98.660129">
<time>2014-08-05T04:12:16Z</time></trkpt>
<trkpt lat="27.902887" lon="98.660079">
<time>2014-08-05T04:12:17Z</time></trkpt>
<trkpt lat="27.903057" lon="98.659999">
<time>2014-08-05T04:12:18Z</time></trkpt>
<trkpt lat="27.903568" lon="98.65975">
<time>2014-08-05T04:12:19Z</time></trkpt>
<trkpt lat="27.903858" lon="98.659591">
<time>2014-08-05T04:12:20Z</time></trkpt>
<trkpt lat="27.904079" lon="98.659471">
<time>2014-08-05T04:12:21Z</time></trkpt>
<trkpt lat="27.904189" lon="98.659431">
<time>2014-08-05T04:12:22Z</time></trkpt>
<trkpt lat="27.904319" lon="98.659401">
<time>2014-08-05T04:12:23Z</time></trkpt>
<trkpt lat="27.904489" lon="98.659381">
<time>2014-08-05T04:12:24Z</time></trkpt>
<trkpt lat="27.904739" lon="98.659361">
<time>2014-08-05T04:12:25Z</time></trkpt>
<trkpt lat="27.905009" lon="98.659361">
<time>2014-08-05T04:12:26Z</time></trkpt>
<trkpt lat="27.905079" lon="98.659361">
<time>2014-08-05T04:12:27Z</time></trkpt>
<trkpt lat="27.905129" lon="98.659361">
<time>2014-08-05T04:12:28Z</time></trkpt>
<trkpt lat="27.905169" lon="98.659361">
<time>2014-08-05T04:12:29Z</time></trkpt>
<trkpt lat="27.905199" lon="98.659371">
<time>2014-08-05T04:12:30Z</time></trkpt>
<trkpt lat="27.905259" lon="98.659381">
<time>2014-08-05T04:12:31Z</time></trkpt>
<trkpt lat="27.905309" lon="98.659391">
<time>2014-08-05T04:12:32Z</time></trkpt>
<trkpt lat="27.905359" lon="98.659401">
<time>2014-08-05T04:12:33Z</time></trkpt>
<trkpt lat="27.905449" lon="98.659441">
<time>2014-08-05T04:12:34Z</time></trkpt>
<trkpt lat="27.905519" lon="98.659471">
<time>2014-08-05T04:12:35Z</time></trkpt>
<trkpt lat="27.905589" lon="98.659501">
<time>2014-08-05T04:12:36Z</time></trkpt>
<trkpt lat="27.905679" lon="98.659521">
<time>2014-08-05T04:12:37Z</time></trkpt>
<trkpt lat="27.905759" lon="98.659541">
<time>2014-08-05T04:12:38Z</time></trkpt>
<trkpt lat="27.905849" lon="98.659551">
<time>2014-08-05T04:12:39Z</time></trkpt>
<trkpt lat="27.905929" lon="98.659551">
<time>2014-08-05T04:12:40Z</time></trkpt>
<trkpt lat="27.906009" lon="98.659541">
<time>2014-08-05T04:12:41Z</time></trkpt>
<trkpt lat="27.906079" lon="98.659531">
<time>2014-08-05T04:12:42Z</time></trkpt>
<trkpt lat="27.906219" lon="98.659491">
<time>2014-08-05T04:12:43Z</time></trkpt>
<trkpt lat="27.906289" lon="98.659461">
<time>2014-08-05T04:12:44Z</time></trkpt>
<trkpt lat="27.906339" lon="98.659441">
<time>2014-08-05T04:12:45Z</time></trkpt>
<trkpt lat="27.906429" lon="98.659381">
<time>2014-08-05T04:12:46Z</time></trkpt>
<trkpt lat="27.906539" lon="98.659321">
<time>2014-08-05T04:12:47Z</time></trkpt>
<trkpt lat="27.906649" lon="98.659251">
<time>2014-08-05T04:12:48Z</time></trkpt>
<trkpt lat="27.906699" lon="98.659221">
<time>2014-08-05T04:12:49Z</time></trkpt>
<trkpt lat="27.90679" lon="98.659202">
<time>2014-08-05T04:12:50Z</time></trkpt>
<trkpt lat="27.90686" lon="98.659192">
<time>2014-08-05T04:12:51Z</time></trkpt>
<trkpt lat="27.90692" lon="98.659192">
<time>2014-08-05T04:12:52Z</time></trkpt>
<trkpt lat="27.90697" lon="98.659192">
<time>2014-08-05T04:12:53Z</time></trkpt>
<trkpt lat="27.90704" lon="98.659202">
<time>2014-08-05T04:12:54Z</time></trkpt>
<trkpt lat="27.90712" lon="98.659221">
<time>2014-08-05T04:12:55Z</time></trkpt>
<trkpt lat="27.90725" lon="98.659261">
<time>2014-08-05T04:12:56Z</time></trkpt>
<trkpt lat="27.907419" lon="98.659311">
<time>2014-08-05T04:12:57Z</time></trkpt>
<trkpt lat="27.907549" lon="98.659371">
<time>2014-08-05T04:12:58Z</time></trkpt>
<trkpt lat="27.907649" lon="98.659421">
<time>2014-08-05T04:12:59Z</time></trkpt>
<trkpt lat="27.907719" lon="98.659471">
<time>2014-08-05T04:13:00Z</time></trkpt>
<trkpt lat="27.907859" lon="98.65959">
<time>2014-08-05T04:13:01Z</time></trkpt>
<trkpt lat="27.908119" lon="98.65981">
<time>2014-08-05T04:13:02Z</time></trkpt>
<trkpt lat="27.908318" lon="98.659939">
<time>2014-08-05T04:13:03Z</time></trkpt>
<trkpt lat="27.908458" lon="98.659989">
<time>2014-08-05T04:13:04Z</time></trkpt>
<trkpt lat="27.908628" lon="98.660019">
<time>2014-08-05T04:13:05Z</time></trkpt>
<trkpt lat="27.908938" lon="98.660059">
<time>2014-08-05T04:13:06Z</time></trkpt>
<trkpt lat="27.909098" lon="98.660069">
<time>2014-08-05T04:13:07Z</time></trkpt>
<trkpt lat="27.909258" lon="98.660089">
<time>2014-08-05T04:13:08Z</time></trkpt>
<trkpt lat="27.909338" lon="98.660119">
<time>2014-08-05T04:13:09Z</time></trkpt>
<trkpt lat="27.909468" lon="98.660169">
<time>2014-08-05T04:13:10Z</time></trkpt>
<trkpt lat="27.909708" lon="98.660299">
<time>2014-08-05T04:13:11Z</time></trkpt>
<trkpt lat="27.909888" lon="98.660428">
<time>2014-08-05T04:13:12Z</time></trkpt>
<trkpt lat="27.910038" lon="98.660548">
<time>2014-08-05T04:13:13Z</time></trkpt>
<trkpt lat="27.910207" lon="98.660727">
<time>2014-08-05T04:13:14Z</time></trkpt>
<trkpt lat="27.910647" lon="98.661156">
<time>2014-08-05T04:13:15Z</time></trkpt>
<trkpt lat="27.910746" lon="98.661276">
<time>2014-08-05T04:13:16Z</time></trkpt>
<trkpt lat="27.911085" lon="98.661834">
<time>2014-08-05T04:13:17Z</time></trkpt>
<trkpt lat="27.911415" lon="98.662173">
<time>2014-08-05T04:13:18Z</time></trkpt>
<trkpt lat="27.911505" lon="98.662293">
<time>2014-08-05T04:13:19Z</time></trkpt>
<trkpt lat="27.911604" lon="98.662483">
<time>2014-08-05T04:13:20Z</time></trkpt>
<trkpt lat="27.911724" lon="98.662752">
<time>2014-08-05T04:13:21Z</time></trkpt>
<trkpt lat="27.911823" lon="98.662961">
<time>2014-08-05T04:13:22Z</time></trkpt>
<trkpt lat="27.911863" lon="98.663031">
<time>2014-08-05T04:13:23Z</time></trkpt>
<trkpt lat="27.911893" lon="98.663101">
<time>2014-08-05T04:13:24Z</time></trkpt>
<trkpt lat="27.911963" lon="98.663211">
<time>2014-08-05T04:13:25Z</time></trkpt>
<trkpt lat="27.912053" lon="98.66337">
<time>2014-08-05T04:13:26Z</time></trkpt>
<trkpt lat="27.912122" lon="98.6635">
<time>2014-08-05T04:13:27Z</time></trkpt>
<trkpt lat="27.912162" lon="98.663609">
<time>2014-08-05T04:13:28Z</time></trkpt>
<trkpt lat="27.912192" lon="98.663799">
<time>2014-08-05T04:13:29Z</time></trkpt>
<trkpt lat="27.912222" lon="98.663939">
<time>2014-08-05T04:13:30Z</time></trkpt>
<trkpt lat="27.912241" lon="98.664098">
<time>2014-08-05T04:13:31Z</time></trkpt>
<trkpt lat="27.912291" lon="98.664337">
<time>2014-08-05T04:13:32Z</time></trkpt>
<trkpt lat="27.91239" lon="98.664597">
<time>2014-08-05T04:13:33Z</time></trkpt>
<trkpt lat="27.91257" lon="98.665026">
<time>2014-08-05T04:13:34Z</time></trkpt>
<trkpt lat="27.912679" lon="98.665235">
<time>2014-08-05T04:13:35Z</time></trkpt>
<trkpt lat="27.912789" lon="98.665415">
<time>2014-08-05T04:13:36Z</time></trkpt>
<trkpt lat="27.912859" lon="98.665594">
<time>2014-08-05T04:13:37Z</time></trkpt>
<trkpt lat="27.912908" lon="98.665813">
<time>2014-08-05T04:13:38Z</time></trkpt>
<trkpt lat="27.912978" lon="98.666073">
<time>2014-08-05T04:13:39Z</time></trkpt>
<trkpt lat="27.913067" lon="98.666302">
<time>2014-08-05T04:13:40Z</time></trkpt>
<trkpt lat="27.913855" lon="98.667828">
<time>2014-08-05T04:13:41Z</time></trkpt>
<trkpt lat="27.914064" lon="98.668167">
<time>2014-08-05T04:13:42Z</time></trkpt>
<trkpt lat="27.914333" lon="98.668576">
<time>2014-08-05T04:13:43Z</time></trkpt>
<trkpt lat="27.914762" lon="98.669104">
<time>2014-08-05T04:13:44Z</time></trkpt>
<trkpt lat="27.915002" lon="98.669404">
<time>2014-08-05T04:13:45Z</time></trkpt>
<trkpt lat="27.915121" lon="98.669563">
<time>2014-08-05T04:13:46Z</time></trkpt>
<trkpt lat="27.915251" lon="98.669713">
<time>2014-08-05T04:13:47Z</time></trkpt>
<trkpt lat="27.915401" lon="98.669892">
<time>2014-08-05T04:13:48Z</time></trkpt>
<trkpt lat="27.915611" lon="98.670102">
<time>2014-08-05T04:13:49Z</time></trkpt>
<trkpt lat="27.91578" lon="98.670251">
<time>2014-08-05T04:13:50Z</time></trkpt>
<trkpt lat="27.91594" lon="98.670381">
<time>2014-08-05T04:13:51Z</time></trkpt>
<trkpt lat="27.9161" lon="98.67053">
<time>2014-08-05T04:13:52Z</time></trkpt>
<trkpt lat="27.916329" lon="98.67074">
<time>2014-08-05T04:13:53Z</time></trkpt>
<trkpt lat="27.916699" lon="98.671129">
<time>2014-08-05T04:13:54Z</time></trkpt>
<trkpt lat="27.917168" lon="98.671647">
<time>2014-08-05T04:13:55Z</time></trkpt>
<trkpt lat="27.917208" lon="98.671697">
<time>2014-08-05T04:13:56Z</time></trkpt>
<trkpt lat="27.917298" lon="98.671797">
<time>2014-08-05T04:13:57Z</time></trkpt>
<trkpt lat="27.917437" lon="98.671926">
<time>2014-08-05T04:13:58Z</time></trkpt>
<trkpt lat="27.917567" lon="98.672046">
<time>2014-08-05T04:13:59Z</time></trkpt>
<trkpt lat="27.917717" lon="98.672186">
<time>2014-08-05T04:14:00Z</time></trkpt>
<trkpt lat="27.917847" lon="98.672345">
<time>2014-08-05T04:14:01Z</time></trkpt>
<trkpt lat="27.917946" lon="98.672445">
<time>2014-08-05T04:14:02Z</time></trkpt>
<trkpt lat="27.918046" lon="98.672525">
<time>2014-08-05T04:14:03Z</time></trkpt>
<trkpt lat="27.918356" lon="98.672734">
<time>2014-08-05T04:14:04Z</time></trkpt>
<trkpt lat="27.918506" lon="98.672854">
<time>2014-08-05T04:14:05Z</time></trkpt>
<trkpt lat="27.918715" lon="98.673043">
<time>2014-08-05T04:14:06Z</time></trkpt>
<trkpt lat="27.918815" lon="98.673133">
<time>2014-08-05T04:14:07Z</time></trkpt>
<trkpt lat="27.918955" lon="98.673223">
<time>2014-08-05T04:14:08Z</time></trkpt>
<trkpt lat="27.919245" lon="98.673382">
<time>2014-08-05T04:14:09Z</time></trkpt>
<trkpt lat="27.919475" lon="98.673512">
<time>2014-08-05T04:14:10Z</time></trkpt>
<trkpt lat="27.919635" lon="98.673622">
<time>2014-08-05T04:14:11Z</time></trkpt>
<trkpt lat="27.919794" lon="98.673731">
<time>2014-08-05T04:14:12Z</time></trkpt>
<trkpt lat="27.919954" lon="98.673871">
<time>2014-08-05T04:14:13Z</time></trkpt>
<trkpt lat="27.920104" lon="98.673991">
<time>2014-08-05T04:14:14Z</time></trkpt>
<trkpt lat="27.920254" lon="98.67409">
<time>2014-08-05T04:14:15Z</time></trkpt>
<trkpt lat="27.920434" lon="98.67419">
<time>2014-08-05T04:14:16Z</time></trkpt>
<trkpt lat="27.920593" lon="98.67427">
<time>2014-08-05T04:14:17Z</time></trkpt>
<trkpt lat="27.920723" lon="98.67435">
<time>2014-08-05T04:14:18Z</time></trkpt>
<trkpt lat="27.920853" lon="98.674449">
<time>2014-08-05T04:14:19Z</time></trkpt>
<trkpt lat="27.920993" lon="98.674559">
<time>2014-08-05T04:14:20Z</time></trkpt>
<trkpt lat="27.921163" lon="98.674719">
<time>2014-08-05T04:14:21Z</time></trkpt>
<trkpt lat="27.921332" lon="98.674858">
<time>2014-08-05T04:14:22Z</time></trkpt>
<trkpt lat="27.921702" lon="98.675138">
<time>2014-08-05T04:14:23Z</time></trkpt>
<trkpt lat="27.922052" lon="98.675367">
<time>2014-08-05T04:14:24Z</time></trkpt>
<trkpt lat="27.922261" lon="98.675526">
<time>2014-08-05T04:14:25Z</time></trkpt>
<trkpt lat="27.922471" lon="98.675676">
<time>2014-08-05T04:14:26Z</time></trkpt>
<trkpt lat="27.922711" lon="98.675846">
<time>2014-08-05T04:14:27Z</time></trkpt>
<trkpt lat="27.922881" lon="98.675955">
<time>2014-08-05T04:14:28Z</time></trkpt>
<trkpt lat="27.92307" lon="98.676065">
<time>2014-08-05T04:14:29Z</time></trkpt>
<trkpt lat="27.92349" lon="98.676334">
<time>2014-08-05T04:14:30Z</time></trkpt>
<trkpt lat="27.92364" lon="98.676434">
<time>2014-08-05T04:14:31Z</time></trkpt>
<trkpt lat="27.92381" lon="98.676564">
<time>2014-08-05T04:14:32Z</time></trkpt>
<trkpt lat="27.923939" lon="98.676683">
<time>2014-08-05T04:14:33Z</time></trkpt>
<trkpt lat="27.924019" lon="98.676773">
<time>2014-08-05T04:14:34Z</time></trkpt>
<trkpt lat="27.924099" lon="98.676863">
<time>2014-08-05T04:14:35Z</time></trkpt>
<trkpt lat="27.924189" lon="98.676972">
<time>2014-08-05T04:14:36Z</time></trkpt>
<trkpt lat="27.924289" lon="98.677072">
<time>2014-08-05T04:14:37Z</time></trkpt>
<trkpt lat="27.924389" lon="98.677142">
<time>2014-08-05T04:14:38Z</time></trkpt>
<trkpt lat="27.924499" lon="98.677202">
<time>2014-08-05T04:14:39Z</time></trkpt>
<trkpt lat="27.924838" lon="98.677371">
<time>2014-08-05T04:14:40Z</time></trkpt>
<trkpt lat="27.925238" lon="98.677551">
<time>2014-08-05T04:14:41Z</time></trkpt>
<trkpt lat="27.925498" lon="98.677641">
<time>2014-08-05T04:14:42Z</time></trkpt>
<trkpt lat="27.925748" lon="98.67773">
<time>2014-08-05T04:14:43Z</time></trkpt>
<trkpt lat="27.925868" lon="98.67776">
<time>2014-08-05T04:14:44Z</time></trkpt>
<trkpt lat="27.926008" lon="98.67778">
<time>2014-08-05T04:14:45Z</time></trkpt>
<trkpt lat="27.926118" lon="98.67779">
<time>2014-08-05T04:14:46Z</time></trkpt>
<trkpt lat="27.926228" lon="98.67778">
<time>2014-08-05T04:14:47Z</time></trkpt>
<trkpt lat="27.926358" lon="98.67776">
<time>2014-08-05T04:14:48Z</time></trkpt>
<trkpt lat="27.926448" lon="98.67774">
<time>2014-08-05T04:14:49Z</time></trkpt>
<trkpt lat="27.926588" lon="98.67769">
<time>2014-08-05T04:14:50Z</time></trkpt>
<trkpt lat="27.926738" lon="98.677611">
<time>2014-08-05T04:14:51Z</time></trkpt>
<trkpt lat="27.927049" lon="98.677401">
<time>2014-08-05T04:14:52Z</time></trkpt>
<trkpt lat="27.927339" lon="98.677192">
<time>2014-08-05T04:14:53Z</time></trkpt>
<trkpt lat="27.927549" lon="98.677022">
<time>2014-08-05T04:14:54Z</time></trkpt>
<trkpt lat="27.92766" lon="98.676922">
<time>2014-08-05T04:14:55Z</time></trkpt>
<trkpt lat="27.92774" lon="98.676823">
<time>2014-08-05T04:14:56Z</time></trkpt>
<trkpt lat="27.92794" lon="98.676554">
<time>2014-08-05T04:14:57Z</time></trkpt>
<trkpt lat="27.928101" lon="98.676334">
<time>2014-08-05T04:14:58Z</time></trkpt>
<trkpt lat="27.928221" lon="98.676165">
<time>2014-08-05T04:14:59Z</time></trkpt>
<trkpt lat="27.928562" lon="98.675726">
<time>2014-08-05T04:15:00Z</time></trkpt>
<trkpt lat="27.928682" lon="98.675556">
<time>2014-08-05T04:15:01Z</time></trkpt>
<trkpt lat="27.928823" lon="98.675317">
<time>2014-08-05T04:15:02Z</time></trkpt>
<trkpt lat="27.929104" lon="98.674918">
<time>2014-08-05T04:15:03Z</time></trkpt>
<trkpt lat="27.929415" lon="98.674499">
<time>2014-08-05T04:15:04Z</time></trkpt>
<trkpt lat="27.929525" lon="98.6743">
<time>2014-08-05T04:15:05Z</time></trkpt>
<trkpt lat="27.929676" lon="98.673901">
<time>2014-08-05T04:15:06Z</time></trkpt>
<trkpt lat="27.929968" lon="98.672884">
<time>2014-08-05T04:15:07Z</time></trkpt>
<trkpt lat="27.930149" lon="98.672166">
<time>2014-08-05T04:15:08Z</time></trkpt>
<trkpt lat="27.93024" lon="98.671876">
<time>2014-08-05T04:15:09Z</time></trkpt>
<trkpt lat="27.93031" lon="98.671677">
<time>2014-08-05T04:15:10Z</time></trkpt>
<trkpt lat="27.930371" lon="98.671527">
<time>2014-08-05T04:15:11Z</time></trkpt>
<trkpt lat="27.930471" lon="98.671258">
<time>2014-08-05T04:15:12Z</time></trkpt>
<trkpt lat="27.930501" lon="98.671148">
<time>2014-08-05T04:15:13Z</time></trkpt>
<trkpt lat="27.930511" lon="98.671069">
<time>2014-08-05T04:15:14Z</time></trkpt>
<trkpt lat="27.930522" lon="98.670989">
<time>2014-08-05T04:15:15Z</time></trkpt>
<trkpt lat="27.930532" lon="98.67072">
<time>2014-08-05T04:15:16Z</time></trkpt>
<trkpt lat="27.930532" lon="98.67059">
<time>2014-08-05T04:15:17Z</time></trkpt>
<trkpt lat="27.930513" lon="98.67047">
<time>2014-08-05T04:15:18Z</time></trkpt>
<trkpt lat="27.930493" lon="98.670371">
<time>2014-08-05T04:15:19Z</time></trkpt>
<trkpt lat="27.930423" lon="98.670081">
<time>2014-08-05T04:15:20Z</time></trkpt>
<trkpt lat="27.930394" lon="98.669882">
<time>2014-08-05T04:15:21Z</time></trkpt>
<trkpt lat="27.930384" lon="98.669682">
<time>2014-08-05T04:15:22Z</time></trkpt>
<trkpt lat="27.930374" lon="98.669593">
<time>2014-08-05T04:15:23Z</time></trkpt>
<trkpt lat="27.930354" lon="98.669513">
<time>2014-08-05T04:15:24Z</time></trkpt>
<trkpt lat="27.930325" lon="98.669423">
<time>2014-08-05T04:15:25Z</time></trkpt>
<trkpt lat="27.930275" lon="98.669343">
<time>2014-08-05T04:15:26Z</time></trkpt>
<trkpt lat="27.930255" lon="98.669313">
<time>2014-08-05T04:15:27Z</time></trkpt>
<trkpt lat="27.930215" lon="98.669284">
<time>2014-08-05T04:15:28Z</time></trkpt>
<trkpt lat="27.930165" lon="98.669244">
<time>2014-08-05T04:15:29Z</time></trkpt>
<trkpt lat="27.930125" lon="98.669224">
<time>2014-08-05T04:15:30Z</time></trkpt>
<trkpt lat="27.930075" lon="98.669194">
<time>2014-08-05T04:15:31Z</time></trkpt>
<trkpt lat="27.929815" lon="98.669144">
<time>2014-08-05T04:15:32Z</time></trkpt>
<trkpt lat="27.929575" lon="98.669064">
<time>2014-08-05T04:15:33Z</time></trkpt>
<trkpt lat="27.928995" lon="98.668825">
<time>2014-08-05T04:15:34Z</time></trkpt>
<trkpt lat="27.928776" lon="98.668725">
<time>2014-08-05T04:15:35Z</time></trkpt>
<trkpt lat="27.928466" lon="98.668556">
<time>2014-08-05T04:15:36Z</time></trkpt>
<trkpt lat="27.927996" lon="98.668286">
<time>2014-08-05T04:15:37Z</time></trkpt>
<trkpt lat="27.927517" lon="98.667997">
<time>2014-08-05T04:15:38Z</time></trkpt>
<trkpt lat="27.927217" lon="98.667768">
<time>2014-08-05T04:15:39Z</time></trkpt>
<trkpt lat="27.927037" lon="98.667638">
<time>2014-08-05T04:15:40Z</time></trkpt>
<trkpt lat="27.926928" lon="98.667538">
<time>2014-08-05T04:15:41Z</time></trkpt>
<trkpt lat="27.926818" lon="98.667419">
<time>2014-08-05T04:15:42Z</time></trkpt>
<trkpt lat="27.926668" lon="98.667229">
<time>2014-08-05T04:15:43Z</time></trkpt>
<trkpt lat="27.926538" lon="98.66704">
<time>2014-08-05T04:15:44Z</time></trkpt>
<trkpt lat="27.926349" lon="98.666721">
<time>2014-08-05T04:15:45Z</time></trkpt>
<trkpt lat="27.92592" lon="98.665973">
<time>2014-08-05T04:15:46Z</time></trkpt>
<trkpt lat="27.925741" lon="98.665624">
<time>2014-08-05T04:15:47Z</time></trkpt>
<trkpt lat="27.925711" lon="98.665564">
<time>2014-08-05T04:15:48Z</time></trkpt>
<trkpt lat="27.925691" lon="98.665504">
<time>2014-08-05T04:15:49Z</time></trkpt>
<trkpt lat="27.925671" lon="98.665424">
<time>2014-08-05T04:15:50Z</time></trkpt>
<trkpt lat="27.925661" lon="98.665354">
<time>2014-08-05T04:15:51Z</time></trkpt>
<trkpt lat="27.925652" lon="98.665255">
<time>2014-08-05T04:15:52Z</time></trkpt>
<trkpt lat="27.925663" lon="98.664776">
<time>2014-08-05T04:15:53Z</time></trkpt>
<trkpt lat="27.925683" lon="98.664307">
<time>2014-08-05T04:15:54Z</time></trkpt>
<trkpt lat="27.925715" lon="98.663659">
<time>2014-08-05T04:15:55Z</time></trkpt>
<trkpt lat="27.925705" lon="98.66328">
<time>2014-08-05T04:15:56Z</time></trkpt>
<trkpt lat="27.925686" lon="98.663051">
<time>2014-08-05T04:15:57Z</time></trkpt>
<trkpt lat="27.925656" lon="98.662861">
<time>2014-08-05T04:15:58Z</time></trkpt>
<trkpt lat="27.925597" lon="98.662572">
<time>2014-08-05T04:15:59Z</time></trkpt>
<trkpt lat="27.925547" lon="98.662373">
<time>2014-08-05T04:16:00Z</time></trkpt>
<trkpt lat="27.925488" lon="98.662123">
<time>2014-08-05T04:16:01Z</time></trkpt>
<trkpt lat="27.925448" lon="98.661974">
<time>2014-08-05T04:16:02Z</time></trkpt>
<trkpt lat="27.925438" lon="98.661844">
<time>2014-08-05T04:16:03Z</time></trkpt>
<trkpt lat="27.925438" lon="98.661734">
<time>2014-08-05T04:16:04Z</time></trkpt>
<trkpt lat="27.925479" lon="98.661465">
<time>2014-08-05T04:16:05Z</time></trkpt>
<trkpt lat="27.925519" lon="98.661126">
<time>2014-08-05T04:16:06Z</time></trkpt>
<trkpt lat="27.92555" lon="98.660757">
<time>2014-08-05T04:16:07Z</time></trkpt>
<trkpt lat="27.925561" lon="98.660358">
<time>2014-08-05T04:16:08Z</time></trkpt>
<trkpt lat="27.925541" lon="98.660059">
<time>2014-08-05T04:16:09Z</time></trkpt>
<trkpt lat="27.925542" lon="98.659859">
<time>2014-08-05T04:16:10Z</time></trkpt>
<trkpt lat="27.925562" lon="98.65971">
<time>2014-08-05T04:16:11Z</time></trkpt>
<trkpt lat="27.925572" lon="98.65953">
<time>2014-08-05T04:16:12Z</time></trkpt>
<trkpt lat="27.925573" lon="98.659351">
<time>2014-08-05T04:16:13Z</time></trkpt>
<trkpt lat="27.925553" lon="98.658992">
<time>2014-08-05T04:16:14Z</time></trkpt>
<trkpt lat="27.925534" lon="98.658653">
<time>2014-08-05T04:16:15Z</time></trkpt>
<trkpt lat="27.925514" lon="98.658443">
<time>2014-08-05T04:16:16Z</time></trkpt>
<trkpt lat="27.925505" lon="98.658264">
<time>2014-08-05T04:16:17Z</time></trkpt>
<trkpt lat="27.925505" lon="98.658064">
<time>2014-08-05T04:16:18Z</time></trkpt>
<trkpt lat="27.925525" lon="98.657895">
<time>2014-08-05T04:16:19Z</time></trkpt>
<trkpt lat="27.925546" lon="98.657695">
<time>2014-08-05T04:16:20Z</time></trkpt>
<trkpt lat="27.925526" lon="98.657516">
<time>2014-08-05T04:16:21Z</time></trkpt>
<trkpt lat="27.925487" lon="98.657286">
<time>2014-08-05T04:16:22Z</time></trkpt>
<trkpt lat="27.925457" lon="98.657117">
<time>2014-08-05T04:16:23Z</time></trkpt>
<trkpt lat="27.925447" lon="98.656977">
<time>2014-08-05T04:16:24Z</time></trkpt>
<trkpt lat="27.925447" lon="98.656907">
<time>2014-08-05T04:16:25Z</time></trkpt>
<trkpt lat="27.925457" lon="98.656837">
<time>2014-08-05T04:16:26Z</time></trkpt>
<trkpt lat="27.925478" lon="98.656688">
<time>2014-08-05T04:16:27Z</time></trkpt>
<trkpt lat="27.925528" lon="98.656459">
<time>2014-08-05T04:16:28Z</time></trkpt>
<trkpt lat="27.925619" lon="98.65607">
<time>2014-08-05T04:16:29Z</time></trkpt>
<trkpt lat="27.925669" lon="98.65583">
<time>2014-08-05T04:16:30Z</time></trkpt>
<trkpt lat="27.925699" lon="98.655701">
<time>2014-08-05T04:16:31Z</time></trkpt>
<trkpt lat="27.92571" lon="98.655601">
<time>2014-08-05T04:16:32Z</time></trkpt>
<trkpt lat="27.92573" lon="98.655341">
<time>2014-08-05T04:16:33Z</time></trkpt>
<trkpt lat="27.92575" lon="98.655182">
<time>2014-08-05T04:16:34Z</time></trkpt>
<trkpt lat="27.925771" lon="98.655082">
<time>2014-08-05T04:16:35Z</time></trkpt>
<trkpt lat="27.925791" lon="98.655032">
<time>2014-08-05T04:16:36Z</time></trkpt>
<trkpt lat="27.925811" lon="98.654972">
<time>2014-08-05T04:16:37Z</time></trkpt>
<trkpt lat="27.925851" lon="98.654913">
<time>2014-08-05T04:16:38Z</time></trkpt>
<trkpt lat="27.925891" lon="98.654843">
<time>2014-08-05T04:16:39Z</time></trkpt>
<trkpt lat="27.925941" lon="98.654783">
<time>2014-08-05T04:16:40Z</time></trkpt>
<trkpt lat="27.925991" lon="98.654693">
<time>2014-08-05T04:16:41Z</time></trkpt>
<trkpt lat="27.926042" lon="98.654593">
<time>2014-08-05T04:16:42Z</time></trkpt>
<trkpt lat="27.926062" lon="98.654474">
<time>2014-08-05T04:16:43Z</time></trkpt>
<trkpt lat="27.926092" lon="98.654234">
<time>2014-08-05T04:16:44Z</time></trkpt>
<trkpt lat="27.926103" lon="98.653925">
<time>2014-08-05T04:16:45Z</time></trkpt>
<trkpt lat="27.926103" lon="98.653696">
<time>2014-08-05T04:16:46Z</time></trkpt>
<trkpt lat="27.926104" lon="98.653466">
<time>2014-08-05T04:16:47Z</time></trkpt>
<trkpt lat="27.926074" lon="98.653267">
<time>2014-08-05T04:16:48Z</time></trkpt>
<trkpt lat="27.926044" lon="98.653087">
<time>2014-08-05T04:16:49Z</time></trkpt>
<trkpt lat="27.926044" lon="98.652988">
<time>2014-08-05T04:16:50Z</time></trkpt>
<trkpt lat="27.926065" lon="98.652858">
<time>2014-08-05T04:16:51Z</time></trkpt>
<trkpt lat="27.926105" lon="98.652718">
<time>2014-08-05T04:16:52Z</time></trkpt>
<trkpt lat="27.926186" lon="98.652349">
<time>2014-08-05T04:16:53Z</time></trkpt>
<trkpt lat="27.926256" lon="98.65204">
<time>2014-08-05T04:16:54Z</time></trkpt>
<trkpt lat="27.926316" lon="98.65186">
<time>2014-08-05T04:16:55Z</time></trkpt>
<trkpt lat="27.926367" lon="98.651711">
<time>2014-08-05T04:16:56Z</time></trkpt>
<trkpt lat="27.926397" lon="98.651621">
<time>2014-08-05T04:16:57Z</time></trkpt>
<trkpt lat="27.926437" lon="98.651541">
<time>2014-08-05T04:16:58Z</time></trkpt>
<trkpt lat="27.926477" lon="98.651471">
<time>2014-08-05T04:16:59Z</time></trkpt>
<trkpt lat="27.926517" lon="98.651432">
<time>2014-08-05T04:17:00Z</time></trkpt>
<trkpt lat="27.926567" lon="98.651382">
<time>2014-08-05T04:17:01Z</time></trkpt>
<trkpt lat="27.926617" lon="98.651352">
<time>2014-08-05T04:17:02Z</time></trkpt>
<trkpt lat="27.926718" lon="98.651302">
<time>2014-08-05T04:17:03Z</time></trkpt>
<trkpt lat="27.926798" lon="98.651262">
<time>2014-08-05T04:17:04Z</time></trkpt>
<trkpt lat="27.927088" lon="98.651132">
<time>2014-08-05T04:17:05Z</time></trkpt>
<trkpt lat="27.927238" lon="98.651063">
<time>2014-08-05T04:17:06Z</time></trkpt>
<trkpt lat="27.927328" lon="98.651003">
<time>2014-08-05T04:17:07Z</time></trkpt>
<trkpt lat="27.927498" lon="98.650893">
<time>2014-08-05T04:17:08Z</time></trkpt>
<trkpt lat="27.927639" lon="98.650793">
<time>2014-08-05T04:17:09Z</time></trkpt>
<trkpt lat="27.928049" lon="98.650504">
<time>2014-08-05T04:17:10Z</time></trkpt>
<trkpt lat="27.92834" lon="98.650294">
<time>2014-08-05T04:17:11Z</time></trkpt>
<trkpt lat="27.92857" lon="98.650145">
<time>2014-08-05T04:17:12Z</time></trkpt>
<trkpt lat="27.92877" lon="98.649995">
<time>2014-08-05T04:17:13Z</time></trkpt>
<trkpt lat="27.9289" lon="98.649885">
<time>2014-08-05T04:17:14Z</time></trkpt>
<trkpt lat="27.929051" lon="98.649786">
<time>2014-08-05T04:17:15Z</time></trkpt>
<trkpt lat="27.929161" lon="98.649726">
<time>2014-08-05T04:17:16Z</time></trkpt>
<trkpt lat="27.929251" lon="98.649706">
<time>2014-08-05T04:17:17Z</time></trkpt>
<trkpt lat="27.929361" lon="98.649686">
<time>2014-08-05T04:17:18Z</time></trkpt>
<trkpt lat="27.929481" lon="98.649676">
<time>2014-08-05T04:17:19Z</time></trkpt>
<trkpt lat="27.929641" lon="98.649676">
<time>2014-08-05T04:17:20Z</time></trkpt>
<trkpt lat="27.930041" lon="98.649686">
<time>2014-08-05T04:17:21Z</time></trkpt>
<trkpt lat="27.930161" lon="98.649696">
<time>2014-08-05T04:17:22Z</time></trkpt>
<trkpt lat="27.930251" lon="98.649706">
<time>2014-08-05T04:17:23Z</time></trkpt>
<trkpt lat="27.930371" lon="98.649726">
<time>2014-08-05T04:17:24Z</time></trkpt>
<trkpt lat="27.930791" lon="98.649816">
<time>2014-08-05T04:17:25Z</time></trkpt>
<trkpt lat="27.931111" lon="98.649925">
<time>2014-08-05T04:17:26Z</time></trkpt>
<trkpt lat="27.931301" lon="98.649995">
<time>2014-08-05T04:17:27Z</time></trkpt>
<trkpt lat="27.9319" lon="98.650274">
<time>2014-08-05T04:17:28Z</time></trkpt>
<trkpt lat="27.93219" lon="98.650414">
<time>2014-08-05T04:17:29Z</time></trkpt>
<trkpt lat="27.9328" lon="98.650773">
<time>2014-08-05T04:17:30Z</time></trkpt>
<trkpt lat="27.933039" lon="98.650903">
<time>2014-08-05T04:17:31Z</time></trkpt>
<trkpt lat="27.933579" lon="98.651162">
<time>2014-08-05T04:17:32Z</time></trkpt>
<trkpt lat="27.934079" lon="98.651352">
<time>2014-08-05T04:17:33Z</time></trkpt>
<trkpt lat="27.934329" lon="98.651491">
<time>2014-08-05T04:17:34Z</time></trkpt>
<trkpt lat="27.934598" lon="98.651641">
<time>2014-08-05T04:17:35Z</time></trkpt>
<trkpt lat="27.934838" lon="98.651791">
<time>2014-08-05T04:17:36Z</time></trkpt>
<trkpt lat="27.935138" lon="98.65198">
<time>2014-08-05T04:17:37Z</time></trkpt>
<trkpt lat="27.935318" lon="98.65208">
<time>2014-08-05T04:17:38Z</time></trkpt>
<trkpt lat="27.935458" lon="98.65213">
<time>2014-08-05T04:17:39Z</time></trkpt>
<trkpt lat="27.935628" lon="98.65217">
<time>2014-08-05T04:17:40Z</time></trkpt>
<trkpt lat="27.935738" lon="98.652199">
<time>2014-08-05T04:17:41Z</time></trkpt>
<trkpt lat="27.935978" lon="98.652269">
<time>2014-08-05T04:17:42Z</time></trkpt>
<trkpt lat="27.936377" lon="98.652379">
<time>2014-08-05T04:17:43Z</time></trkpt>
<trkpt lat="27.936547" lon="98.652419">
<time>2014-08-05T04:17:44Z</time></trkpt>
<trkpt lat="27.936757" lon="98.652449">
<time>2014-08-05T04:17:45Z</time></trkpt>
<trkpt lat="27.936907" lon="98.652469">
<time>2014-08-05T04:17:46Z</time></trkpt>
<trkpt lat="27.937137" lon="98.652459">
<time>2014-08-05T04:17:47Z</time></trkpt>
<trkpt lat="27.937237" lon="98.652449">
<time>2014-08-05T04:17:48Z</time></trkpt>
<trkpt lat="27.937367" lon="98.652449">
<time>2014-08-05T04:17:49Z</time></trkpt>
<trkpt lat="27.937537" lon="98.652459">
<time>2014-08-05T04:17:50Z</time></trkpt>
<trkpt lat="27.937767" lon="98.652479">
<time>2014-08-05T04:17:51Z</time></trkpt>
<trkpt lat="27.938067" lon="98.652529">
<time>2014-08-05T04:17:52Z</time></trkpt>
<trkpt lat="27.938527" lon="98.652578">
<time>2014-08-05T04:17:53Z</time></trkpt>
<trkpt lat="27.938627" lon="98.652598">
<time>2014-08-05T04:17:54Z</time></trkpt>
<trkpt lat="27.938827" lon="98.652628">
<time>2014-08-05T04:17:55Z</time></trkpt>
<trkpt lat="27.938967" lon="98.652668">
<time>2014-08-05T04:17:56Z</time></trkpt>
<trkpt lat="27.939087" lon="98.652698">
<time>2014-08-05T04:17:57Z</time></trkpt>
<trkpt lat="27.939257" lon="98.652718">
<time>2014-08-05T04:17:58Z</time></trkpt>
<trkpt lat="27.939407" lon="98.652738">
<time>2014-08-05T04:17:59Z</time></trkpt>
<trkpt lat="27.939567" lon="98.652758">
<time>2014-08-05T04:18:00Z</time></trkpt>
<trkpt lat="27.939657" lon="98.652778">
<time>2014-08-05T04:18:01Z</time></trkpt>
<trkpt lat="27.939777" lon="98.652818">
<time>2014-08-05T04:18:02Z</time></trkpt>
<trkpt lat="27.940097" lon="98.652937">
<time>2014-08-05T04:18:03Z</time></trkpt>
<trkpt lat="27.940367" lon="98.653027">
<time>2014-08-05T04:18:04Z</time></trkpt>
<trkpt lat="27.940607" lon="98.653067">
<time>2014-08-05T04:18:05Z</time></trkpt>
<trkpt lat="27.940807" lon="98.653087">
<time>2014-08-05T04:18:06Z</time></trkpt>
<trkpt lat="27.940887" lon="98.653097">
<time>2014-08-05T04:18:07Z</time></trkpt>
<trkpt lat="27.941017" lon="98.653127">
<time>2014-08-05T04:18:08Z</time></trkpt>
<trkpt lat="27.941057" lon="98.653137">
<time>2014-08-05T04:18:09Z</time></trkpt>
<trkpt lat="27.941357" lon="98.653187">
<time>2014-08-05T04:18:10Z</time></trkpt>
<trkpt lat="27.941867" lon="98.653287">
<time>2014-08-05T04:18:11Z</time></trkpt>
<trkpt lat="27.942147" lon="98.653316">
<time>2014-08-05T04:18:12Z</time></trkpt>
<trkpt lat="27.942277" lon="98.653326">
<time>2014-08-05T04:18:13Z</time></trkpt>
<trkpt lat="27.942417" lon="98.653336">
<time>2014-08-05T04:18:14Z</time></trkpt>
<trkpt lat="27.942557" lon="98.653326">
<time>2014-08-05T04:18:15Z</time></trkpt>
<trkpt lat="27.942667" lon="98.653306">
<time>2014-08-05T04:18:16Z</time></trkpt>
<trkpt lat="27.942797" lon="98.653277">
<time>2014-08-05T04:18:17Z</time></trkpt>
<trkpt lat="27.942907" lon="98.653247">
<time>2014-08-05T04:18:18Z</time></trkpt>
<trkpt lat="27.943337" lon="98.653107">
<time>2014-08-05T04:18:19Z</time></trkpt>
<trkpt lat="27.943798" lon="98.652957">
<time>2014-08-05T04:18:20Z</time></trkpt>
<trkpt lat="27.944068" lon="98.652868">
<time>2014-08-05T04:18:21Z</time></trkpt>
<trkpt lat="27.944608" lon="98.652718">
<time>2014-08-05T04:18:22Z</time></trkpt>
<trkpt lat="27.944878" lon="98.652658">
<time>2014-08-05T04:18:23Z</time></trkpt>
<trkpt lat="27.945309" lon="98.652548">
<time>2014-08-05T04:18:24Z</time></trkpt>
<trkpt lat="27.945609" lon="98.652479">
<time>2014-08-05T04:18:25Z</time></trkpt>
<trkpt lat="27.945889" lon="98.652419">
<time>2014-08-05T04:18:26Z</time></trkpt>
<trkpt lat="27.946349" lon="98.652279">
<time>2014-08-05T04:18:27Z</time></trkpt>
<trkpt lat="27.94657" lon="98.652199">
<time>2014-08-05T04:18:28Z</time></trkpt>
<trkpt lat="27.94677" lon="98.65211">
<time>2014-08-05T04:18:29Z</time></trkpt>
<trkpt lat="27.94707" lon="98.65196">
<time>2014-08-05T04:18:30Z</time></trkpt>
<trkpt lat="27.94724" lon="98.65188">
<time>2014-08-05T04:18:31Z</time></trkpt>
<trkpt lat="27.9474" lon="98.65181">
<time>2014-08-05T04:18:32Z</time></trkpt>
<trkpt lat="27.947541" lon="98.65175">
<time>2014-08-05T04:18:33Z</time></trkpt>
<trkpt lat="27.947671" lon="98.651711">
<time>2014-08-05T04:18:34Z</time></trkpt>
<trkpt lat="27.947791" lon="98.651681">
<time>2014-08-05T04:18:35Z</time></trkpt>
<trkpt lat="27.948221" lon="98.651641">
<time>2014-08-05T04:18:36Z</time></trkpt>
<trkpt lat="27.948711" lon="98.651611">
<time>2014-08-05T04:18:37Z</time></trkpt>
<trkpt lat="27.949121" lon="98.651581">
<time>2014-08-05T04:18:38Z</time></trkpt>
<trkpt lat="27.949411" lon="98.651571">
<time>2014-08-05T04:18:39Z</time></trkpt>
<trkpt lat="27.949771" lon="98.651601">
<time>2014-08-05T04:18:40Z</time></trkpt>
<trkpt lat="27.950011" lon="98.651641">
<time>2014-08-05T04:18:41Z</time></trkpt>
<trkpt lat="27.950371" lon="98.65172">
<time>2014-08-05T04:18:42Z</time></trkpt>
<trkpt lat="27.950811" lon="98.65188">
<time>2014-08-05T04:18:43Z</time></trkpt>
<trkpt lat="27.951221" lon="98.65207">
<time>2014-08-05T04:18:44Z</time></trkpt>
<trkpt lat="27.95145" lon="98.652189">
<time>2014-08-05T04:18:45Z</time></trkpt>
<trkpt lat="27.95182" lon="98.652359">
<time>2014-08-05T04:18:46Z</time></trkpt>
<trkpt lat="27.95215" lon="98.652488">
<time>2014-08-05T04:18:47Z</time></trkpt>
<trkpt lat="27.95226" lon="98.652538">
<time>2014-08-05T04:18:48Z</time></trkpt>
<trkpt lat="27.95236" lon="98.652588">
<time>2014-08-05T04:18:49Z</time></trkpt>
<trkpt lat="27.95247" lon="98.652688">
<time>2014-08-05T04:18:50Z</time></trkpt>
<trkpt lat="27.95255" lon="98.652798">
<time>2014-08-05T04:18:51Z</time></trkpt>
<trkpt lat="27.952709" lon="98.652977">
<time>2014-08-05T04:18:52Z</time></trkpt>
<trkpt lat="27.952839" lon="98.653097">
<time>2014-08-05T04:18:53Z</time></trkpt>
<trkpt lat="27.953049" lon="98.653246">
<time>2014-08-05T04:18:54Z</time></trkpt>
<trkpt lat="27.953419" lon="98.653456">
<time>2014-08-05T04:18:55Z</time></trkpt>
<trkpt lat="27.953688" lon="98.653586">
<time>2014-08-05T04:18:56Z</time></trkpt>
<trkpt lat="27.953938" lon="98.653685">
<time>2014-08-05T04:18:57Z</time></trkpt>
<trkpt lat="27.954098" lon="98.653745">
<time>2014-08-05T04:18:58Z</time></trkpt>
<trkpt lat="27.954288" lon="98.653805">
<time>2014-08-05T04:18:59Z</time></trkpt>
<trkpt lat="27.954518" lon="98.653895">
<time>2014-08-05T04:19:00Z</time></trkpt>
<trkpt lat="27.954738" lon="98.654014">
<time>2014-08-05T04:19:01Z</time></trkpt>
<trkpt lat="27.954968" lon="98.654124">
<time>2014-08-05T04:19:02Z</time></trkpt>
<trkpt lat="27.955088" lon="98.654194">
<time>2014-08-05T04:19:03Z</time></trkpt>
<trkpt lat="27.955207" lon="98.654264">
<time>2014-08-05T04:19:04Z</time></trkpt>
<trkpt lat="27.955427" lon="98.654433">
<time>2014-08-05T04:19:05Z</time></trkpt>
<trkpt lat="27.955677" lon="98.654633">
<time>2014-08-05T04:19:06Z</time></trkpt>
<trkpt lat="27.955717" lon="98.654673">
<time>2014-08-05T04:19:07Z</time></trkpt>
<trkpt lat="27.955847" lon="98.654832">
<time>2014-08-05T04:19:08Z</time></trkpt>
<trkpt lat="27.956116" lon="98.655102">
<time>2014-08-05T04:19:09Z</time></trkpt>
<trkpt lat="27.956266" lon="98.655241">
<time>2014-08-05T04:19:10Z</time></trkpt>
<trkpt lat="27.956396" lon="98.655331">
<time>2014-08-05T04:19:11Z</time></trkpt>
<trkpt lat="27.956576" lon="98.655431">
<time>2014-08-05T04:19:12Z</time></trkpt>
<trkpt lat="27.956805" lon="98.65556">
<time>2014-08-05T04:19:13Z</time></trkpt>
<trkpt lat="27.957025" lon="98.65565">
<time>2014-08-05T04:19:14Z</time></trkpt>
<trkpt lat="27.957255" lon="98.65576">
<time>2014-08-05T04:19:15Z</time></trkpt>
<trkpt lat="27.957485" lon="98.655879">
<time>2014-08-05T04:19:16Z</time></trkpt>
<trkpt lat="27.957675" lon="98.655959">
<time>2014-08-05T04:19:17Z</time></trkpt>
<trkpt lat="27.957895" lon="98.656059">
<time>2014-08-05T04:19:18Z</time></trkpt>
<trkpt lat="27.958075" lon="98.656139">
<time>2014-08-05T04:19:19Z</time></trkpt>
<trkpt lat="27.958155" lon="98.656179">
<time>2014-08-05T04:19:20Z</time></trkpt>
<trkpt lat="27.958254" lon="98.656239">
<time>2014-08-05T04:19:21Z</time></trkpt>
<trkpt lat="27.958324" lon="98.656298">
<time>2014-08-05T04:19:22Z</time></trkpt>
<trkpt lat="27.958374" lon="98.656348">
<time>2014-08-05T04:19:23Z</time></trkpt>
<trkpt lat="27.958414" lon="98.656388">
<time>2014-08-05T04:19:24Z</time></trkpt>
<trkpt lat="27.958454" lon="98.656428">
<time>2014-08-05T04:19:25Z</time></trkpt>
<trkpt lat="27.958544" lon="98.656578">
<time>2014-08-05T04:19:26Z</time></trkpt>
<trkpt lat="27.958673" lon="98.656807">
<time>2014-08-05T04:19:27Z</time></trkpt>
<trkpt lat="27.958713" lon="98.656887">
<time>2014-08-05T04:19:28Z</time></trkpt>
<trkpt lat="27.958743" lon="98.656917">
<time>2014-08-05T04:19:29Z</time></trkpt>
<trkpt lat="27.958783" lon="98.656967">
<time>2014-08-05T04:19:30Z</time></trkpt>
<trkpt lat="27.958883" lon="98.657056">
<time>2014-08-05T04:19:31Z</time></trkpt>
<trkpt lat="27.958953" lon="98.657136">
<time>2014-08-05T04:19:32Z</time></trkpt>
<trkpt lat="27.959053" lon="98.657246">
<time>2014-08-05T04:19:33Z</time></trkpt>
<trkpt lat="27.959182" lon="98.657405">
<time>2014-08-05T04:19:34Z</time></trkpt>
<trkpt lat="27.959322" lon="98.657545">
<time>2014-08-05T04:19:35Z</time></trkpt>
<trkpt lat="27.959512" lon="98.657745">
<time>2014-08-05T04:19:36Z</time></trkpt>
<trkpt lat="27.959612" lon="98.657864">
<time>2014-08-05T04:19:37Z</time></trkpt>
<trkpt lat="27.959741" lon="98.658024">
<time>2014-08-05T04:19:38Z</time></trkpt>
<trkpt lat="27.959851" lon="98.658173">
<time>2014-08-05T04:19:39Z</time></trkpt>
<trkpt lat="27.959921" lon="98.658263">
<time>2014-08-05T04:19:40Z</time></trkpt>
<trkpt lat="27.959991" lon="98.658363">
<time>2014-08-05T04:19:41Z</time></trkpt>
<trkpt lat="27.960131" lon="98.658532">
<time>2014-08-05T04:19:42Z</time></trkpt>
<trkpt lat="27.96021" lon="98.658642">
<time>2014-08-05T04:19:43Z</time></trkpt>
<trkpt lat="27.96027" lon="98.658732">
<time>2014-08-05T04:19:44Z</time></trkpt>
<trkpt lat="27.96035" lon="98.658862">
<time>2014-08-05T04:19:45Z</time></trkpt>
<trkpt lat="27.96048" lon="98.659011">
<time>2014-08-05T04:19:46Z</time></trkpt>
<trkpt lat="27.96056" lon="98.659101">
<time>2014-08-05T04:19:47Z</time></trkpt>
<trkpt lat="27.960619" lon="98.659171">
<time>2014-08-05T04:19:48Z</time></trkpt>
<trkpt lat="27.960669" lon="98.65924">
<time>2014-08-05T04:19:49Z</time></trkpt>
<trkpt lat="27.960729" lon="98.65934">
<time>2014-08-05T04:19:50Z</time></trkpt>
<trkpt lat="27.960829" lon="98.65946">
<time>2014-08-05T04:19:51Z</time></trkpt>
<trkpt lat="27.960909" lon="98.65956">
<time>2014-08-05T04:19:52Z</time></trkpt>
<trkpt lat="27.960939" lon="98.659609">
<time>2014-08-05T04:19:53Z</time></trkpt>
<trkpt lat="27.960989" lon="98.659699">
<time>2014-08-05T04:19:54Z</time></trkpt>
<trkpt lat="27.961068" lon="98.659879">
<time>2014-08-05T04:19:55Z</time></trkpt>
<trkpt lat="27.961098" lon="98.659969">
<time>2014-08-05T04:19:56Z</time></trkpt>
<trkpt lat="27.961138" lon="98.660068">
<time>2014-08-05T04:19:57Z</time></trkpt>
<trkpt lat="27.961178" lon="98.660148">
<time>2014-08-05T04:19:58Z</time></trkpt>
<trkpt lat="27.961238" lon="98.660268">
<time>2014-08-05T04:19:59Z</time></trkpt>
<trkpt lat="27.961397" lon="98.660527">
<time>2014-08-05T04:20:00Z</time></trkpt>
<trkpt lat="27.961547" lon="98.660776">
<time>2014-08-05T04:20:01Z</time></trkpt>
<trkpt lat="27.961686" lon="98.660986">
<time>2014-08-05T04:20:02Z</time></trkpt>
<trkpt lat="27.961856" lon="98.661255">
<time>2014-08-05T04:20:03Z</time></trkpt>
<trkpt lat="27.961955" lon="98.661425">
<time>2014-08-05T04:20:04Z</time></trkpt>
<trkpt lat="27.962025" lon="98.661544">
<time>2014-08-05T04:20:05Z</time></trkpt>
<trkpt lat="27.962145" lon="98.661734">
<time>2014-08-05T04:20:06Z</time></trkpt>
<trkpt lat="27.962195" lon="98.661823">
<time>2014-08-05T04:20:07Z</time></trkpt>
<trkpt lat="27.962235" lon="98.661893">
<time>2014-08-05T04:20:08Z</time></trkpt>
<trkpt lat="27.962344" lon="98.662113">
<time>2014-08-05T04:20:09Z</time></trkpt>
<trkpt lat="27.962404" lon="98.662242">
<time>2014-08-05T04:20:10Z</time></trkpt>
<trkpt lat="27.962464" lon="98.662352">
<time>2014-08-05T04:20:11Z</time></trkpt>
<trkpt lat="27.962504" lon="98.662422">
<time>2014-08-05T04:20:12Z</time></trkpt>
<trkpt lat="27.962574" lon="98.662522">
<time>2014-08-05T04:20:13Z</time></trkpt>
<trkpt lat="27.962623" lon="98.662591">
<time>2014-08-05T04:20:14Z</time></trkpt>
<trkpt lat="27.962733" lon="98.662741">
<time>2014-08-05T04:20:15Z</time></trkpt>
<trkpt lat="27.962873" lon="98.662921">
<time>2014-08-05T04:20:16Z</time></trkpt>
<trkpt lat="27.963013" lon="98.66308">
<time>2014-08-05T04:20:17Z</time></trkpt>
<trkpt lat="27.963202" lon="98.66327">
<time>2014-08-05T04:20:18Z</time></trkpt>
<trkpt lat="27.963282" lon="98.663359">
<time>2014-08-05T04:20:19Z</time></trkpt>
<trkpt lat="27.963442" lon="98.663539">
<time>2014-08-05T04:20:20Z</time></trkpt>
<trkpt lat="27.963562" lon="98.663668">
<time>2014-08-05T04:20:21Z</time></trkpt>
<trkpt lat="27.963671" lon="98.663798">
<time>2014-08-05T04:20:22Z</time></trkpt>
<trkpt lat="27.963881" lon="98.664017">
<time>2014-08-05T04:20:23Z</time></trkpt>
<trkpt lat="27.963931" lon="98.664077">
<time>2014-08-05T04:20:24Z</time></trkpt>
<trkpt lat="27.964021" lon="98.664207">
<time>2014-08-05T04:20:25Z</time></trkpt>
<trkpt lat="27.96419" lon="98.664466">
<time>2014-08-05T04:20:26Z</time></trkpt>
<trkpt lat="27.96424" lon="98.664536">
<time>2014-08-05T04:20:27Z</time></trkpt>
<trkpt lat="27.96434" lon="98.664676">
<time>2014-08-05T04:20:28Z</time></trkpt>
<trkpt lat="27.96448" lon="98.664815">
<time>2014-08-05T04:20:29Z</time></trkpt>
<trkpt lat="27.964749" lon="98.665055">
<time>2014-08-05T04:20:30Z</time></trkpt>
<trkpt lat="27.964939" lon="98.665174">
<time>2014-08-05T04:20:31Z</time></trkpt>
<trkpt lat="27.965119" lon="98.665284">
<time>2014-08-05T04:20:32Z</time></trkpt>
<trkpt lat="27.965289" lon="98.665354">
<time>2014-08-05T04:20:33Z</time></trkpt>
<trkpt lat="27.965329" lon="98.665374">
<time>2014-08-05T04:20:34Z</time></trkpt>
<trkpt lat="27.965389" lon="98.665374">
<time>2014-08-05T04:20:35Z</time></trkpt>
<trkpt lat="27.965439" lon="98.665384">
<time>2014-08-05T04:20:36Z</time></trkpt>
<trkpt lat="27.965479" lon="98.665384">
<time>2014-08-05T04:20:37Z</time></trkpt>
<trkpt lat="27.965529" lon="98.665374">
<time>2014-08-05T04:20:38Z</time></trkpt>
<trkpt lat="27.965619" lon="98.665344">
<time>2014-08-05T04:20:39Z</time></trkpt>
<trkpt lat="27.965669" lon="98.665334">
<time>2014-08-05T04:20:40Z</time></trkpt>
<trkpt lat="27.965819" lon="98.665274">
<time>2014-08-05T04:20:41Z</time></trkpt>
<trkpt lat="27.965859" lon="98.665254">
<time>2014-08-05T04:20:42Z</time></trkpt>
<trkpt lat="27.965909" lon="98.665234">
<time>2014-08-05T04:20:43Z</time></trkpt>
<trkpt lat="27.965949" lon="98.665214">
<time>2014-08-05T04:20:44Z</time></trkpt>
<trkpt lat="27.965979" lon="98.665204">
<time>2014-08-05T04:20:45Z</time></trkpt>
<trkpt lat="27.966029" lon="98.665174">
<time>2014-08-05T04:20:46Z</time></trkpt>
<trkpt lat="27.966069" lon="98.665144">
<time>2014-08-05T04:20:47Z</time></trkpt>
<trkpt lat="27.966139" lon="98.665104">
<time>2014-08-05T04:20:48Z</time></trkpt>
<trkpt lat="27.966179" lon="98.665085">
<time>2014-08-05T04:20:49Z</time></trkpt>
<trkpt lat="27.966219" lon="98.665075">
<time>2014-08-05T04:20:50Z</time></trkpt>
<trkpt lat="27.966259" lon="98.665055">
<time>2014-08-05T04:20:51Z</time></trkpt>
<trkpt lat="27.966309" lon="98.665045">
<time>2014-08-05T04:20:52Z</time></trkpt>
<trkpt lat="27.966369" lon="98.665045">
<time>2014-08-05T04:20:53Z</time></trkpt>
<trkpt lat="27.966449" lon="98.665035">
<time>2014-08-05T04:20:54Z</time></trkpt>
<trkpt lat="27.96659" lon="98.665035">
<time>2014-08-05T04:20:55Z</time></trkpt>
<trkpt lat="27.96682" lon="98.665025">
<time>2014-08-05T04:20:56Z</time></trkpt>
<trkpt lat="27.9669" lon="98.665015">
<time>2014-08-05T04:20:57Z</time></trkpt>
<trkpt lat="27.96697" lon="98.664995">
<time>2014-08-05T04:20:58Z</time></trkpt>
<trkpt lat="27.96707" lon="98.664955">
<time>2014-08-05T04:20:59Z</time></trkpt>
<trkpt lat="27.96714" lon="98.664925">
<time>2014-08-05T04:21:00Z</time></trkpt>
<trkpt lat="27.96733" lon="98.664825">
<time>2014-08-05T04:21:01Z</time></trkpt>
<trkpt lat="27.96748" lon="98.664745">
<time>2014-08-05T04:21:02Z</time></trkpt>
<trkpt lat="27.96762" lon="98.664666">
<time>2014-08-05T04:21:03Z</time></trkpt>
<trkpt lat="27.967731" lon="98.664576">
<time>2014-08-05T04:21:04Z</time></trkpt>
<trkpt lat="27.967861" lon="98.664476">
<time>2014-08-05T04:21:05Z</time></trkpt>
<trkpt lat="27.967951" lon="98.664396">
<time>2014-08-05T04:21:06Z</time></trkpt>
<trkpt lat="27.968071" lon="98.664307">
<time>2014-08-05T04:21:07Z</time></trkpt>
<trkpt lat="27.968161" lon="98.664227">
<time>2014-08-05T04:21:08Z</time></trkpt>
<trkpt lat="27.968201" lon="98.664177">
<time>2014-08-05T04:21:09Z</time></trkpt>
<trkpt lat="27.968252" lon="98.664107">
<time>2014-08-05T04:21:10Z</time></trkpt>
<trkpt lat="27.968352" lon="98.663918">
<time>2014-08-05T04:21:11Z</time></trkpt>
<trkpt lat="27.968412" lon="98.663818">
<time>2014-08-05T04:21:12Z</time></trkpt>
<trkpt lat="27.968502" lon="98.663678">
<time>2014-08-05T04:21:13Z</time></trkpt>
<trkpt lat="27.968583" lon="98.663559">
<time>2014-08-05T04:21:14Z</time></trkpt>
<trkpt lat="27.968653" lon="98.663439">
<time>2014-08-05T04:21:15Z</time></trkpt>
<trkpt lat="27.968693" lon="98.663339">
<time>2014-08-05T04:21:16Z</time></trkpt>
<trkpt lat="27.968703" lon="98.663319">
<time>2014-08-05T04:21:17Z</time></trkpt>
<trkpt lat="27.968713" lon="98.663279">
<time>2014-08-05T04:21:18Z</time></trkpt>
<trkpt lat="27.968723" lon="98.66323">
<time>2014-08-05T04:21:19Z</time></trkpt>
<trkpt lat="27.968733" lon="98.6632">
<time>2014-08-05T04:21:20Z</time></trkpt>
<trkpt lat="27.968733" lon="98.66318">
<time>2014-08-05T04:21:21Z</time></trkpt>
<trkpt lat="27.968733" lon="98.66315">
<time>2014-08-05T04:21:22Z</time></trkpt>
<trkpt lat="27.968734" lon="98.66312">
<time>2014-08-05T04:21:23Z</time></trkpt>
<trkpt lat="27.968724" lon="98.66309">
<time>2014-08-05T04:21:24Z</time></trkpt>
<trkpt lat="27.968724" lon="98.66307">
<time>2014-08-05T04:21:25Z</time></trkpt>
<trkpt lat="27.968714" lon="98.66304">
<time>2014-08-05T04:21:26Z</time></trkpt>
<trkpt lat="27.968704" lon="98.66302">
<time>2014-08-05T04:21:27Z</time></trkpt>
<trkpt lat="27.968694" lon="98.663">
<time>2014-08-05T04:21:28Z</time></trkpt>
<trkpt lat="27.968684" lon="98.66298">
<time>2014-08-05T04:21:29Z</time></trkpt>
<trkpt lat="27.968674" lon="98.66296">
<time>2014-08-05T04:21:30Z</time></trkpt>
<trkpt lat="27.968654" lon="98.66294">
<time>2014-08-05T04:21:31Z</time></trkpt>
<trkpt lat="27.968624" lon="98.6629">
<time>2014-08-05T04:21:32Z</time></trkpt>
<trkpt lat="27.968584" lon="98.662871">
<time>2014-08-05T04:21:33Z</time></trkpt>
<trkpt lat="27.968524" lon="98.662831">
<time>2014-08-05T04:21:34Z</time></trkpt>
<trkpt lat="27.968464" lon="98.662791">
<time>2014-08-05T04:21:35Z</time></trkpt>
<trkpt lat="27.968404" lon="98.662761">
<time>2014-08-05T04:21:36Z</time></trkpt>
<trkpt lat="27.968344" lon="98.662731">
<time>2014-08-05T04:21:37Z</time></trkpt>
<trkpt lat="27.968254" lon="98.662671">
<time>2014-08-05T04:21:38Z</time></trkpt>
<trkpt lat="27.968204" lon="98.662641">
<time>2014-08-05T04:21:39Z</time></trkpt>
<trkpt lat="27.968124" lon="98.662591">
<time>2014-08-05T04:21:40Z</time></trkpt>
<trkpt lat="27.968045" lon="98.662522">
<time>2014-08-05T04:21:41Z</time></trkpt>
<trkpt lat="27.967965" lon="98.662442">
<time>2014-08-05T04:21:42Z</time></trkpt>
<trkpt lat="27.967925" lon="98.662402">
<time>2014-08-05T04:21:43Z</time></trkpt>
<trkpt lat="27.967905" lon="98.662372">
<time>2014-08-05T04:21:44Z</time></trkpt>
<trkpt lat="27.967875" lon="98.662312">
<time>2014-08-05T04:21:45Z</time></trkpt>
<trkpt lat="27.967865" lon="98.662272">
<time>2014-08-05T04:21:46Z</time></trkpt>
<trkpt lat="27.967855" lon="98.662222">
<time>2014-08-05T04:21:47Z</time></trkpt>
<trkpt lat="27.967865" lon="98.662162">
<time>2014-08-05T04:21:48Z</time></trkpt>
<trkpt lat="27.967865" lon="98.662113">
<time>2014-08-05T04:21:49Z</time></trkpt>
<trkpt lat="27.967885" lon="98.662053">
<time>2014-08-05T04:21:50Z</time></trkpt>
<trkpt lat="27.967936" lon="98.661903">
<time>2014-08-05T04:21:51Z</time></trkpt>
<trkpt lat="27.967996" lon="98.661744">
<time>2014-08-05T04:21:52Z</time></trkpt>
<trkpt lat="27.968056" lon="98.661574">
<time>2014-08-05T04:21:53Z</time></trkpt>
<trkpt lat="27.968117" lon="98.661444">
<time>2014-08-05T04:21:54Z</time></trkpt>
<trkpt lat="27.968137" lon="98.661395">
<time>2014-08-05T04:21:55Z</time></trkpt>
<trkpt lat="27.968157" lon="98.661355">
<time>2014-08-05T04:21:56Z</time></trkpt>
<trkpt lat="27.968187" lon="98.661325">
<time>2014-08-05T04:21:57Z</time></trkpt>
<trkpt lat="27.968227" lon="98.661275">
<time>2014-08-05T04:21:58Z</time></trkpt>
<trkpt lat="27.968257" lon="98.661255">
<time>2014-08-05T04:21:59Z</time></trkpt>
<trkpt lat="27.968327" lon="98.661215">
<time>2014-08-05T04:22:00Z</time></trkpt>
<trkpt lat="27.968517" lon="98.661125">
<time>2014-08-05T04:22:01Z</time></trkpt>
<trkpt lat="27.968677" lon="98.661045">
<time>2014-08-05T04:22:02Z</time></trkpt>
<trkpt lat="27.968868" lon="98.660946">
<time>2014-08-05T04:22:03Z</time></trkpt>
<trkpt lat="27.969008" lon="98.660876">
<time>2014-08-05T04:22:04Z</time></trkpt>
<trkpt lat="27.969088" lon="98.660816">
<time>2014-08-05T04:22:05Z</time></trkpt>
<trkpt lat="27.969158" lon="98.660736">
<time>2014-08-05T04:22:06Z</time></trkpt>
<trkpt lat="27.969198" lon="98.660686">
<time>2014-08-05T04:22:07Z</time></trkpt>
<trkpt lat="27.969238" lon="98.660617">
<time>2014-08-05T04:22:08Z</time></trkpt>
<trkpt lat="27.969379" lon="98.660397">
<time>2014-08-05T04:22:09Z</time></trkpt>
<trkpt lat="27.969499" lon="98.660188">
<time>2014-08-05T04:22:10Z</time></trkpt>
<trkpt lat="27.96969" lon="98.659909">
<time>2014-08-05T04:22:11Z</time></trkpt>
<trkpt lat="27.96983" lon="98.659719">
<time>2014-08-05T04:22:12Z</time></trkpt>
<trkpt lat="27.96996" lon="98.65953">
<time>2014-08-05T04:22:13Z</time></trkpt>
<trkpt lat="27.970011" lon="98.65945">
<time>2014-08-05T04:22:14Z</time></trkpt>
<trkpt lat="27.970061" lon="98.65935">
<time>2014-08-05T04:22:15Z</time></trkpt>
<trkpt lat="27.970081" lon="98.65928">
<time>2014-08-05T04:22:16Z</time></trkpt>
<trkpt lat="27.970131" lon="98.659141">
<time>2014-08-05T04:22:17Z</time></trkpt>
<trkpt lat="27.970212" lon="98.658802">
<time>2014-08-05T04:22:18Z</time></trkpt>
<trkpt lat="27.970262" lon="98.658542">
<time>2014-08-05T04:22:19Z</time></trkpt>
<trkpt lat="27.970333" lon="98.658273">
<time>2014-08-05T04:22:20Z</time></trkpt>
<trkpt lat="27.970373" lon="98.658073">
<time>2014-08-05T04:22:21Z</time></trkpt>
<trkpt lat="27.970414" lon="98.657854">
<time>2014-08-05T04:22:22Z</time></trkpt>
<trkpt lat="27.970454" lon="98.657684">
<time>2014-08-05T04:22:23Z</time></trkpt>
<trkpt lat="27.970484" lon="98.657565">
<time>2014-08-05T04:22:24Z</time></trkpt>
<trkpt lat="27.970514" lon="98.657465">
<time>2014-08-05T04:22:25Z</time></trkpt>
<trkpt lat="27.970545" lon="98.657405">
<time>2014-08-05T04:22:26Z</time></trkpt>
<trkpt lat="27.970575" lon="98.657345">
<time>2014-08-05T04:22:27Z</time></trkpt>
<trkpt lat="27.970605" lon="98.657276">
<time>2014-08-05T04:22:28Z</time></trkpt>
<trkpt lat="27.970665" lon="98.657176">
<time>2014-08-05T04:22:29Z</time></trkpt>
<trkpt lat="27.970755" lon="98.657006">
<time>2014-08-05T04:22:30Z</time></trkpt>
<trkpt lat="27.970836" lon="98.656867">
<time>2014-08-05T04:22:31Z</time></trkpt>
<trkpt lat="27.970926" lon="98.656717">
<time>2014-08-05T04:22:32Z</time></trkpt>
<trkpt lat="27.970966" lon="98.656647">
<time>2014-08-05T04:22:33Z</time></trkpt>
<trkpt lat="27.971016" lon="98.656587">
<time>2014-08-05T04:22:34Z</time></trkpt>
<trkpt lat="27.971106" lon="98.656468">
<time>2014-08-05T04:22:35Z</time></trkpt>
<trkpt lat="27.971207" lon="98.656358">
<time>2014-08-05T04:22:36Z</time></trkpt>
<trkpt lat="27.971297" lon="98.656268">
<time>2014-08-05T04:22:37Z</time></trkpt>
<trkpt lat="27.971387" lon="98.656208">
<time>2014-08-05T04:22:38Z</time></trkpt>
<trkpt lat="27.971577" lon="98.656119">
<time>2014-08-05T04:22:39Z</time></trkpt>
<trkpt lat="27.971787" lon="98.656029">
<time>2014-08-05T04:22:40Z</time></trkpt>
<trkpt lat="27.971947" lon="98.655959">
<time>2014-08-05T04:22:41Z</time></trkpt>
<trkpt lat="27.972108" lon="98.655889">
<time>2014-08-05T04:22:42Z</time></trkpt>
<trkpt lat="27.972298" lon="98.655789">
<time>2014-08-05T04:22:43Z</time></trkpt>
<trkpt lat="27.972418" lon="98.65572">
<time>2014-08-05T04:22:44Z</time></trkpt>
<trkpt lat="27.972508" lon="98.65568">
<time>2014-08-05T04:22:45Z</time></trkpt>
<trkpt lat="27.972578" lon="98.65567">
<time>2014-08-05T04:22:46Z</time></trkpt>
<trkpt lat="27.972708" lon="98.65566">
<time>2014-08-05T04:22:47Z</time></trkpt>
<trkpt lat="27.972878" lon="98.65564">
<time>2014-08-05T04:22:48Z</time></trkpt>
<trkpt lat="27.972958" lon="98.65562">
<time>2014-08-05T04:22:49Z</time></trkpt>
<trkpt lat="27.973028" lon="98.6556">
<time>2014-08-05T04:22:50Z</time></trkpt>
<trkpt lat="27.973419" lon="98.65546">
<time>2014-08-05T04:22:51Z</time></trkpt>
<trkpt lat="27.973419" lon="98.65546">
<time>2014-08-05T04:22:52Z</time></trkpt>
<trkpt lat="27.974179" lon="98.655221">
<time>2014-08-05T04:22:53Z</time></trkpt>
<trkpt lat="27.974369" lon="98.655151">
<time>2014-08-05T04:22:54Z</time></trkpt>
<trkpt lat="27.974529" lon="98.655101">
<time>2014-08-05T04:22:55Z</time></trkpt>
<trkpt lat="27.974609" lon="98.655081">
<time>2014-08-05T04:22:56Z</time></trkpt>
<trkpt lat="27.97472" lon="98.655061">
<time>2014-08-05T04:22:57Z</time></trkpt>
<trkpt lat="27.9749" lon="98.655041">
<time>2014-08-05T04:22:58Z</time></trkpt>
<trkpt lat="27.97498" lon="98.655041">
<time>2014-08-05T04:22:59Z</time></trkpt>
<trkpt lat="27.97536" lon="98.655031">
<time>2014-08-05T04:23:00Z</time></trkpt>
<trkpt lat="27.97563" lon="98.655031">
<time>2014-08-05T04:23:01Z</time></trkpt>
<trkpt lat="27.97582" lon="98.655031">
<time>2014-08-05T04:23:02Z</time></trkpt>
<trkpt lat="27.97596" lon="98.655021">
<time>2014-08-05T04:23:03Z</time></trkpt>
<trkpt lat="27.97611" lon="98.655011">
<time>2014-08-05T04:23:04Z</time></trkpt>
<trkpt lat="27.97623" lon="98.654992">
<time>2014-08-05T04:23:05Z</time></trkpt>
<trkpt lat="27.97649" lon="98.654932">
<time>2014-08-05T04:23:06Z</time></trkpt>
<trkpt lat="27.97672" lon="98.654872">
<time>2014-08-05T04:23:07Z</time></trkpt>
<trkpt lat="27.97691" lon="98.654832">
<time>2014-08-05T04:23:08Z</time></trkpt>
<trkpt lat="27.97704" lon="98.654812">
<time>2014-08-05T04:23:09Z</time></trkpt>
<trkpt lat="27.97717" lon="98.654802">
<time>2014-08-05T04:23:10Z</time></trkpt>
<trkpt lat="27.9772" lon="98.654802">
<time>2014-08-05T04:23:11Z</time></trkpt>
<trkpt lat="27.97733" lon="98.654792">
<time>2014-08-05T04:23:12Z</time></trkpt>
<trkpt lat="27.977421" lon="98.654782">
<time>2014-08-05T04:23:13Z</time></trkpt>
<trkpt lat="27.977501" lon="98.654772">
<time>2014-08-05T04:23:14Z</time></trkpt>
<trkpt lat="27.977591" lon="98.654752">
<time>2014-08-05T04:23:15Z</time></trkpt>
<trkpt lat="27.977721" lon="98.654742">
<time>2014-08-05T04:23:16Z</time></trkpt>
<trkpt lat="27.977791" lon="98.654732">
<time>2014-08-05T04:23:17Z</time></trkpt>
<trkpt lat="27.977871" lon="98.654732">
<time>2014-08-05T04:23:18Z</time></trkpt>
<trkpt lat="27.977911" lon="98.654742">
<time>2014-08-05T04:23:19Z</time></trkpt>
<trkpt lat="27.977961" lon="98.654742">
<time>2014-08-05T04:23:20Z</time></trkpt>
<trkpt lat="27.978071" lon="98.654762">
<time>2014-08-05T04:23:21Z</time></trkpt>
<trkpt lat="27.978181" lon="98.654792">
<time>2014-08-05T04:23:22Z</time></trkpt>
<trkpt lat="27.978211" lon="98.654802">
<time>2014-08-05T04:23:23Z</time></trkpt>
<trkpt lat="27.978311" lon="98.654842">
<time>2014-08-05T04:23:24Z</time></trkpt>
<trkpt lat="27.978361" lon="98.654872">
<time>2014-08-05T04:23:25Z</time></trkpt>
<trkpt lat="27.97851" lon="98.654952">
<time>2014-08-05T04:23:26Z</time></trkpt>
<trkpt lat="27.97877" lon="98.655131">
<time>2014-08-05T04:23:27Z</time></trkpt>
<trkpt lat="27.97892" lon="98.655221">
<time>2014-08-05T04:23:28Z</time></trkpt>
<trkpt lat="27.97906" lon="98.655291">
<time>2014-08-05T04:23:29Z</time></trkpt>
<trkpt lat="27.97923" lon="98.655351">
<time>2014-08-05T04:23:30Z</time></trkpt>
<trkpt lat="27.97941" lon="98.65541">
<time>2014-08-05T04:23:31Z</time></trkpt>
<trkpt lat="27.97948" lon="98.65543">
<time>2014-08-05T04:23:32Z</time></trkpt>
<trkpt lat="27.97959" lon="98.65544">
<time>2014-08-05T04:23:33Z</time></trkpt>
<trkpt lat="27.97968" lon="98.65544">
<time>2014-08-05T04:23:34Z</time></trkpt>
<trkpt lat="27.97978" lon="98.65544">
<time>2014-08-05T04:23:35Z</time></trkpt>
<trkpt lat="27.97985" lon="98.65542">
<time>2014-08-05T04:23:36Z</time></trkpt>
<trkpt lat="27.97994" lon="98.6554">
<time>2014-08-05T04:23:37Z</time></trkpt>
<trkpt lat="27.98009" lon="98.655351">
<time>2014-08-05T04:23:38Z</time></trkpt>
<trkpt lat="27.98022" lon="98.655301">
<time>2014-08-05T04:23:39Z</time></trkpt>
<trkpt lat="27.98038" lon="98.655241">
<time>2014-08-05T04:23:40Z</time></trkpt>
<trkpt lat="27.98048" lon="98.655191">
<time>2014-08-05T04:23:41Z</time></trkpt>
<trkpt lat="27.98057" lon="98.655151">
<time>2014-08-05T04:23:42Z</time></trkpt>
<trkpt lat="27.980661" lon="98.655101">
<time>2014-08-05T04:23:43Z</time></trkpt>
<trkpt lat="27.980701" lon="98.655091">
<time>2014-08-05T04:23:44Z</time></trkpt>
<trkpt lat="27.980771" lon="98.655061">
<time>2014-08-05T04:23:45Z</time></trkpt>
<trkpt lat="27.980881" lon="98.655011">
<time>2014-08-05T04:23:46Z</time></trkpt>
<trkpt lat="27.980951" lon="98.654981">
<time>2014-08-05T04:23:47Z</time></trkpt>
<trkpt lat="27.981051" lon="98.654952">
<time>2014-08-05T04:23:48Z</time></trkpt>
<trkpt lat="27.981111" lon="98.654942">
<time>2014-08-05T04:23:49Z</time></trkpt>
<trkpt lat="27.981261" lon="98.654922">
<time>2014-08-05T04:23:50Z</time></trkpt>
<trkpt lat="27.981441" lon="98.654902">
<time>2014-08-05T04:23:51Z</time></trkpt>
<trkpt lat="27.981621" lon="98.654892">
<time>2014-08-05T04:23:52Z</time></trkpt>
<trkpt lat="27.981711" lon="98.654892">
<time>2014-08-05T04:23:53Z</time></trkpt>
<trkpt lat="27.981821" lon="98.654892">
<time>2014-08-05T04:23:54Z</time></trkpt>
<trkpt lat="27.981911" lon="98.654902">
<time>2014-08-05T04:23:55Z</time></trkpt>
<trkpt lat="27.981991" lon="98.654912">
<time>2014-08-05T04:23:56Z</time></trkpt>
<trkpt lat="27.982061" lon="98.654912">
<time>2014-08-05T04:23:57Z</time></trkpt>
<trkpt lat="27.982121" lon="98.654902">
<time>2014-08-05T04:23:58Z</time></trkpt>
<trkpt lat="27.982161" lon="98.654902">
<time>2014-08-05T04:23:59Z</time></trkpt>
<trkpt lat="27.982201" lon="98.654892">
<time>2014-08-05T04:24:00Z</time></trkpt>
<trkpt lat="27.982251" lon="98.654862">
<time>2014-08-05T04:24:01Z</time></trkpt>
<trkpt lat="27.982301" lon="98.654832">
<time>2014-08-05T04:24:02Z</time></trkpt>
<trkpt lat="27.982351" lon="98.654802">
<time>2014-08-05T04:24:03Z</time></trkpt>
<trkpt lat="27.982452" lon="98.654722">
<time>2014-08-05T04:24:04Z</time></trkpt>
<trkpt lat="27.982572" lon="98.654622">
<time>2014-08-05T04:24:05Z</time></trkpt>
<trkpt lat="27.982702" lon="98.654513">
<time>2014-08-05T04:24:06Z</time></trkpt>
<trkpt lat="27.982762" lon="98.654463">
<time>2014-08-05T04:24:07Z</time></trkpt>
<trkpt lat="27.982842" lon="98.654363">
<time>2014-08-05T04:24:08Z</time></trkpt>
<trkpt lat="27.982882" lon="98.654313">
<time>2014-08-05T04:24:09Z</time></trkpt>
<trkpt lat="27.982973" lon="98.654164">
<time>2014-08-05T04:24:10Z</time></trkpt>
<trkpt lat="27.983063" lon="98.654014">
<time>2014-08-05T04:24:11Z</time></trkpt>
<trkpt lat="27.983133" lon="98.653904">
<time>2014-08-05T04:24:12Z</time></trkpt>
<trkpt lat="27.983183" lon="98.653824">
<time>2014-08-05T04:24:13Z</time></trkpt>
<trkpt lat="27.983213" lon="98.653755">
<time>2014-08-05T04:24:14Z</time></trkpt>
<trkpt lat="27.983233" lon="98.653705">
<time>2014-08-05T04:24:15Z</time></trkpt>
<trkpt lat="27.983244" lon="98.653655">
<time>2014-08-05T04:24:16Z</time></trkpt>
<trkpt lat="27.983244" lon="98.653615">
<time>2014-08-05T04:24:17Z</time></trkpt>
<trkpt lat="27.983244" lon="98.653575">
<time>2014-08-05T04:24:18Z</time></trkpt>
<trkpt lat="27.983234" lon="98.653535">
<time>2014-08-05T04:24:19Z</time></trkpt>
<trkpt lat="27.983224" lon="98.653495">
<time>2014-08-05T04:24:20Z</time></trkpt>
<trkpt lat="27.983154" lon="98.653356">
<time>2014-08-05T04:24:21Z</time></trkpt>
<trkpt lat="27.983124" lon="98.653286">
<time>2014-08-05T04:24:22Z</time></trkpt>
<trkpt lat="27.983044" lon="98.653116">
<time>2014-08-05T04:24:23Z</time></trkpt>
<trkpt lat="27.982905" lon="98.652877">
<time>2014-08-05T04:24:24Z</time></trkpt>
<trkpt lat="27.982875" lon="98.652817">
<time>2014-08-05T04:24:25Z</time></trkpt>
<trkpt lat="27.982825" lon="98.652707">
<time>2014-08-05T04:24:26Z</time></trkpt>
<trkpt lat="27.982775" lon="98.652598">
<time>2014-08-05T04:24:27Z</time></trkpt>
<trkpt lat="27.982716" lon="98.652478">
<time>2014-08-05T04:24:28Z</time></trkpt>
<trkpt lat="27.982516" lon="98.652029">
<time>2014-08-05T04:24:29Z</time></trkpt>
<trkpt lat="27.982387" lon="98.65173">
<time>2014-08-05T04:24:30Z</time></trkpt>
<trkpt lat="27.982357" lon="98.65166">
<time>2014-08-05T04:24:31Z</time></trkpt>
<trkpt lat="27.982337" lon="98.65158">
<time>2014-08-05T04:24:32Z</time></trkpt>
<trkpt lat="27.982317" lon="98.651471">
<time>2014-08-05T04:24:33Z</time></trkpt>
<trkpt lat="27.982327" lon="98.651411">
<time>2014-08-05T04:24:34Z</time></trkpt>
<trkpt lat="27.982328" lon="98.651341">
<time>2014-08-05T04:24:35Z</time></trkpt>
<trkpt lat="27.982338" lon="98.651271">
<time>2014-08-05T04:24:36Z</time></trkpt>
<trkpt lat="27.982358" lon="98.651191">
<time>2014-08-05T04:24:37Z</time></trkpt>
<trkpt lat="27.982388" lon="98.651072">
<time>2014-08-05T04:24:38Z</time></trkpt>
<trkpt lat="27.982418" lon="98.650902">
<time>2014-08-05T04:24:39Z</time></trkpt>
<trkpt lat="27.982449" lon="98.650762">
<time>2014-08-05T04:24:40Z</time></trkpt>
<trkpt lat="27.982469" lon="98.650683">
<time>2014-08-05T04:24:41Z</time></trkpt>
<trkpt lat="27.982489" lon="98.650623">
<time>2014-08-05T04:24:42Z</time></trkpt>
<trkpt lat="27.982549" lon="98.650453">
<time>2014-08-05T04:24:43Z</time></trkpt>
<trkpt lat="27.982569" lon="98.650393">
<time>2014-08-05T04:24:44Z</time></trkpt>
<trkpt lat="27.982579" lon="98.650363">
<time>2014-08-05T04:24:45Z</time></trkpt>
<trkpt lat="27.982599" lon="98.650294">
<time>2014-08-05T04:24:46Z</time></trkpt>
<trkpt lat="27.98265" lon="98.650134">
<time>2014-08-05T04:24:47Z</time></trkpt>
<trkpt lat="27.98267" lon="98.650054">
<time>2014-08-05T04:24:48Z</time></trkpt>
<trkpt lat="27.98267" lon="98.650024">
<time>2014-08-05T04:24:49Z</time></trkpt>
<trkpt lat="27.9827" lon="98.649944">
<time>2014-08-05T04:24:50Z</time></trkpt>
<trkpt lat="27.98272" lon="98.649855">
<time>2014-08-05T04:24:51Z</time></trkpt>
<trkpt lat="27.98276" lon="98.649745">
<time>2014-08-05T04:24:52Z</time></trkpt>
<trkpt lat="27.98278" lon="98.649685">
<time>2014-08-05T04:24:53Z</time></trkpt>
<trkpt lat="27.982811" lon="98.649595">
<time>2014-08-05T04:24:54Z</time></trkpt>
<trkpt lat="27.982851" lon="98.649506">
<time>2014-08-05T04:24:55Z</time></trkpt>
<trkpt lat="27.982901" lon="98.649406">
<time>2014-08-05T04:24:56Z</time></trkpt>
<trkpt lat="27.982951" lon="98.649316">
<time>2014-08-05T04:24:57Z</time></trkpt>
<trkpt lat="27.982971" lon="98.649256">
<time>2014-08-05T04:24:58Z</time></trkpt>
<trkpt lat="27.983021" lon="98.649166">
<time>2014-08-05T04:24:59Z</time></trkpt>
<trkpt lat="27.983102" lon="98.649017">
<time>2014-08-05T04:25:00Z</time></trkpt>
<trkpt lat="27.983132" lon="98.648947">
<time>2014-08-05T04:25:01Z</time></trkpt>
<trkpt lat="27.983182" lon="98.648837">
<time>2014-08-05T04:25:02Z</time></trkpt>
<trkpt lat="27.983262" lon="98.648588">
<time>2014-08-05T04:25:03Z</time></trkpt>
<trkpt lat="27.983293" lon="98.648488">
<time>2014-08-05T04:25:04Z</time></trkpt>
<trkpt lat="27.983353" lon="98.648348">
<time>2014-08-05T04:25:05Z</time></trkpt>
<trkpt lat="27.983443" lon="98.648139">
<time>2014-08-05T04:25:06Z</time></trkpt>
<trkpt lat="27.983463" lon="98.648079">
<time>2014-08-05T04:25:07Z</time></trkpt>
<trkpt lat="27.983494" lon="98.647949">
<time>2014-08-05T04:25:08Z</time></trkpt>
<trkpt lat="27.983544" lon="98.6477">
<time>2014-08-05T04:25:09Z</time></trkpt>
<trkpt lat="27.983574" lon="98.6476">
<time>2014-08-05T04:25:10Z</time></trkpt>
<trkpt lat="27.983604" lon="98.64753">
<time>2014-08-05T04:25:11Z</time></trkpt>
<trkpt lat="27.983644" lon="98.647451">
<time>2014-08-05T04:25:12Z</time></trkpt>
<trkpt lat="27.983695" lon="98.647381">
<time>2014-08-05T04:25:13Z</time></trkpt>
<trkpt lat="27.983725" lon="98.647351">
<time>2014-08-05T04:25:14Z</time></trkpt>
<trkpt lat="27.983785" lon="98.647291">
<time>2014-08-05T04:25:15Z</time></trkpt>
<trkpt lat="27.983935" lon="98.647161">
<time>2014-08-05T04:25:16Z</time></trkpt>
<trkpt lat="27.984005" lon="98.647102">
<time>2014-08-05T04:25:17Z</time></trkpt>
<trkpt lat="27.984165" lon="98.646962">
<time>2014-08-05T04:25:18Z</time></trkpt>
<trkpt lat="27.984356" lon="98.646782">
<time>2014-08-05T04:25:19Z</time></trkpt>
<trkpt lat="27.984476" lon="98.646663">
<time>2014-08-05T04:25:20Z</time></trkpt>
<trkpt lat="27.984556" lon="98.646603">
<time>2014-08-05T04:25:21Z</time></trkpt>
<trkpt lat="27.984676" lon="98.646503">
<time>2014-08-05T04:25:22Z</time></trkpt>
<trkpt lat="27.984826" lon="98.646403">
<time>2014-08-05T04:25:23Z</time></trkpt>
<trkpt lat="27.984987" lon="98.646293">
<time>2014-08-05T04:25:24Z</time></trkpt>
<trkpt lat="27.985067" lon="98.646234">
<time>2014-08-05T04:25:25Z</time></trkpt>
<trkpt lat="27.985137" lon="98.646184">
<time>2014-08-05T04:25:26Z</time></trkpt>
<trkpt lat="27.985317" lon="98.646074">
<time>2014-08-05T04:25:27Z</time></trkpt>
<trkpt lat="27.985437" lon="98.645994">
<time>2014-08-05T04:25:28Z</time></trkpt>
<trkpt lat="27.985527" lon="98.645934">
<time>2014-08-05T04:25:29Z</time></trkpt>
<trkpt lat="27.985607" lon="98.645875">
<time>2014-08-05T04:25:30Z</time></trkpt>
<trkpt lat="27.985718" lon="98.645785">
<time>2014-08-05T04:25:31Z</time></trkpt>
<trkpt lat="27.985828" lon="98.645675">
<time>2014-08-05T04:25:32Z</time></trkpt>
<trkpt lat="27.985958" lon="98.645545">
<time>2014-08-05T04:25:33Z</time></trkpt>
<trkpt lat="27.986138" lon="98.645346">
<time>2014-08-05T04:25:34Z</time></trkpt>
<trkpt lat="27.986279" lon="98.645196">
<time>2014-08-05T04:25:35Z</time></trkpt>
<trkpt lat="27.986409" lon="98.645056">
<time>2014-08-05T04:25:36Z</time></trkpt>
<trkpt lat="27.986479" lon="98.644977">
<time>2014-08-05T04:25:37Z</time></trkpt>
<trkpt lat="27.986549" lon="98.644917">
<time>2014-08-05T04:25:38Z</time></trkpt>
<trkpt lat="27.986569" lon="98.644907">
<time>2014-08-05T04:25:39Z</time></trkpt>
<trkpt lat="27.986629" lon="98.644857">
<time>2014-08-05T04:25:40Z</time></trkpt>
<trkpt lat="27.986669" lon="98.644837">
<time>2014-08-05T04:25:41Z</time></trkpt>
<trkpt lat="27.986769" lon="98.644787">
<time>2014-08-05T04:25:42Z</time></trkpt>
<trkpt lat="27.986839" lon="98.644757">
<time>2014-08-05T04:25:43Z</time></trkpt>
<trkpt lat="27.986859" lon="98.644757">
<time>2014-08-05T04:25:44Z</time></trkpt>
<trkpt lat="27.98693" lon="98.644737">
<time>2014-08-05T04:25:45Z</time></trkpt>
<trkpt lat="27.98698" lon="98.644737">
<time>2014-08-05T04:25:46Z</time></trkpt>
<trkpt lat="27.98706" lon="98.644737">
<time>2014-08-05T04:25:47Z</time></trkpt>
<trkpt lat="27.98716" lon="98.644747">
<time>2014-08-05T04:25:48Z</time></trkpt>
<trkpt lat="27.9875" lon="98.644807">
<time>2014-08-05T04:25:49Z</time></trkpt>
<trkpt lat="27.987679" lon="98.644847">
<time>2014-08-05T04:25:50Z</time></trkpt>
<trkpt lat="27.987879" lon="98.644877">
<time>2014-08-05T04:25:51Z</time></trkpt>
<trkpt lat="27.988039" lon="98.644887">
<time>2014-08-05T04:25:52Z</time></trkpt>
<trkpt lat="27.988079" lon="98.644887">
<time>2014-08-05T04:25:53Z</time></trkpt>
<trkpt lat="27.98827" lon="98.644887">
<time>2014-08-05T04:25:54Z</time></trkpt>
<trkpt lat="27.9885" lon="98.644877">
<time>2014-08-05T04:25:55Z</time></trkpt>
<trkpt lat="27.98858" lon="98.644867">
<time>2014-08-05T04:25:56Z</time></trkpt>
<trkpt lat="27.98881" lon="98.644847">
<time>2014-08-05T04:25:57Z</time></trkpt>
<trkpt lat="27.989" lon="98.644817">
<time>2014-08-05T04:25:58Z</time></trkpt>
<trkpt lat="27.98916" lon="98.644797">
<time>2014-08-05T04:25:59Z</time></trkpt>
<trkpt lat="27.98931" lon="98.644767">
<time>2014-08-05T04:26:00Z</time></trkpt>
<trkpt lat="27.98941" lon="98.644747">
<time>2014-08-05T04:26:01Z</time></trkpt>
<trkpt lat="27.98947" lon="98.644747">
<time>2014-08-05T04:26:02Z</time></trkpt>
<trkpt lat="27.98955" lon="98.644737">
<time>2014-08-05T04:26:03Z</time></trkpt>
<trkpt lat="27.98958" lon="98.644747">
<time>2014-08-05T04:26:04Z</time></trkpt>
<trkpt lat="27.98962" lon="98.644757">
<time>2014-08-05T04:26:05Z</time></trkpt>
<trkpt lat="27.98968" lon="98.644777">
<time>2014-08-05T04:26:06Z</time></trkpt>
<trkpt lat="27.98973" lon="98.644797">
<time>2014-08-05T04:26:07Z</time></trkpt>
<trkpt lat="27.98976" lon="98.644827">
<time>2014-08-05T04:26:08Z</time></trkpt>
<trkpt lat="27.98979" lon="98.644847">
<time>2014-08-05T04:26:09Z</time></trkpt>
<trkpt lat="27.98993" lon="98.644957">
<time>2014-08-05T04:26:10Z</time></trkpt>
<trkpt lat="27.98998" lon="98.644987">
<time>2014-08-05T04:26:11Z</time></trkpt>
<trkpt lat="27.9901" lon="98.645046">
<time>2014-08-05T04:26:12Z</time></trkpt>
<trkpt lat="27.990259" lon="98.645126">
<time>2014-08-05T04:26:13Z</time></trkpt>
<trkpt lat="27.990399" lon="98.645196">
<time>2014-08-05T04:26:14Z</time></trkpt>
<trkpt lat="27.990489" lon="98.645256">
<time>2014-08-05T04:26:15Z</time></trkpt>
<trkpt lat="27.990649" lon="98.645386">
<time>2014-08-05T04:26:16Z</time></trkpt>
<trkpt lat="27.990859" lon="98.645585">
<time>2014-08-05T04:26:17Z</time></trkpt>
<trkpt lat="27.990949" lon="98.645675">
<time>2014-08-05T04:26:18Z</time></trkpt>
<trkpt lat="27.991078" lon="98.645815">
<time>2014-08-05T04:26:19Z</time></trkpt>
<trkpt lat="27.991138" lon="98.645884">
<time>2014-08-05T04:26:20Z</time></trkpt>
<trkpt lat="27.991198" lon="98.645964">
<time>2014-08-05T04:26:21Z</time></trkpt>
<trkpt lat="27.991218" lon="98.645994">
<time>2014-08-05T04:26:22Z</time></trkpt>
<trkpt lat="27.991228" lon="98.646014">
<time>2014-08-05T04:26:23Z</time></trkpt>
<trkpt lat="27.991238" lon="98.646044">
<time>2014-08-05T04:26:24Z</time></trkpt>
<trkpt lat="27.991248" lon="98.646074">
<time>2014-08-05T04:26:25Z</time></trkpt>
<trkpt lat="27.991268" lon="98.646114">
<time>2014-08-05T04:26:26Z</time></trkpt>
<trkpt lat="27.991278" lon="98.646174">
<time>2014-08-05T04:26:27Z</time></trkpt>
<trkpt lat="27.991288" lon="98.646253">
<time>2014-08-05T04:26:28Z</time></trkpt>
<trkpt lat="27.991297" lon="98.646593">
<time>2014-08-05T04:26:29Z</time></trkpt>
<trkpt lat="27.991307" lon="98.646653">
<time>2014-08-05T04:26:30Z</time></trkpt>
<trkpt lat="27.991317" lon="98.646692">
<time>2014-08-05T04:26:31Z</time></trkpt>
<trkpt lat="27.991327" lon="98.646722">
<time>2014-08-05T04:26:32Z</time></trkpt>
<trkpt lat="27.991347" lon="98.646772">
<time>2014-08-05T04:26:33Z</time></trkpt>
<trkpt lat="27.991367" lon="98.646812">
<time>2014-08-05T04:26:34Z</time></trkpt>
<trkpt lat="27.991377" lon="98.646832">
<time>2014-08-05T04:26:35Z</time></trkpt>
<trkpt lat="27.991407" lon="98.646852">
<time>2014-08-05T04:26:36Z</time></trkpt>
<trkpt lat="27.991427" lon="98.646862">
<time>2014-08-05T04:26:37Z</time></trkpt>
<trkpt lat="27.991447" lon="98.646882">
<time>2014-08-05T04:26:38Z</time></trkpt>
<trkpt lat="27.991477" lon="98.646882">
<time>2014-08-05T04:26:39Z</time></trkpt>
<trkpt lat="27.991497" lon="98.646892">
<time>2014-08-05T04:26:40Z</time></trkpt>
<trkpt lat="27.991527" lon="98.646892">
<time>2014-08-05T04:26:41Z</time></trkpt>
<trkpt lat="27.991587" lon="98.646892">
<time>2014-08-05T04:26:42Z</time></trkpt>
<trkpt lat="27.991747" lon="98.646882">
<time>2014-08-05T04:26:43Z</time></trkpt>
<trkpt lat="27.992017" lon="98.646852">
<time>2014-08-05T04:26:44Z</time></trkpt>
<trkpt lat="27.992077" lon="98.646852">
<time>2014-08-05T04:26:45Z</time></trkpt>
<trkpt lat="27.992247" lon="98.646842">
<time>2014-08-05T04:26:46Z</time></trkpt>
<trkpt lat="27.992437" lon="98.646822">
<time>2014-08-05T04:26:47Z</time></trkpt>
<trkpt lat="27.992637" lon="98.646802">
<time>2014-08-05T04:26:48Z</time></trkpt>
<trkpt lat="27.992757" lon="98.646792">
<time>2014-08-05T04:26:49Z</time></trkpt>
<trkpt lat="27.992837" lon="98.646782">
<time>2014-08-05T04:26:50Z</time></trkpt>
<trkpt lat="27.992897" lon="98.646772">
<time>2014-08-05T04:26:51Z</time></trkpt>
<trkpt lat="27.992947" lon="98.646762">
<time>2014-08-05T04:26:52Z</time></trkpt>
<trkpt lat="27.993067" lon="98.646712">
<time>2014-08-05T04:26:53Z</time></trkpt>
<trkpt lat="27.993207" lon="98.646652">
<time>2014-08-05T04:26:54Z</time></trkpt>
<trkpt lat="27.993258" lon="98.646623">
<time>2014-08-05T04:26:55Z</time></trkpt>
<trkpt lat="27.993308" lon="98.646603">
<time>2014-08-05T04:26:56Z</time></trkpt>
<trkpt lat="27.993378" lon="98.646543">
<time>2014-08-05T04:26:57Z</time></trkpt>
<trkpt lat="27.993418" lon="98.646513">
<time>2014-08-05T04:26:58Z</time></trkpt>
<trkpt lat="27.993448" lon="98.646473">
<time>2014-08-05T04:26:59Z</time></trkpt>
<trkpt lat="27.993478" lon="98.646433">
<time>2014-08-05T04:27:00Z</time></trkpt>
<trkpt lat="27.993518" lon="98.646373">
<time>2014-08-05T04:27:01Z</time></trkpt>
<trkpt lat="27.993538" lon="98.646323">
<time>2014-08-05T04:27:02Z</time></trkpt>
<trkpt lat="27.993679" lon="98.646044">
<time>2014-08-05T04:27:03Z</time></trkpt>
<trkpt lat="27.993799" lon="98.645775">
<time>2014-08-05T04:27:04Z</time></trkpt>
<trkpt lat="27.993849" lon="98.645665">
<time>2014-08-05T04:27:05Z</time></trkpt>
<trkpt lat="27.99394" lon="98.645495">
<time>2014-08-05T04:27:06Z</time></trkpt>
<trkpt lat="27.99409" lon="98.645216">
<time>2014-08-05T04:27:07Z</time></trkpt>
<trkpt lat="27.99413" lon="98.645146">
<time>2014-08-05T04:27:08Z</time></trkpt>
<trkpt lat="27.99423" lon="98.644987">
<time>2014-08-05T04:27:09Z</time></trkpt>
<trkpt lat="27.99426" lon="98.644937">
<time>2014-08-05T04:27:10Z</time></trkpt>
<trkpt lat="27.994321" lon="98.644847">
<time>2014-08-05T04:27:11Z</time></trkpt>
<trkpt lat="27.994371" lon="98.644777">
<time>2014-08-05T04:27:12Z</time></trkpt>
<trkpt lat="27.994451" lon="98.644667">
<time>2014-08-05T04:27:13Z</time></trkpt>
<trkpt lat="27.994481" lon="98.644617">
<time>2014-08-05T04:27:14Z</time></trkpt>
<trkpt lat="27.994581" lon="98.644448">
<time>2014-08-05T04:27:15Z</time></trkpt>
<trkpt lat="27.994672" lon="98.644258">
<time>2014-08-05T04:27:16Z</time></trkpt>
<trkpt lat="27.994762" lon="98.644069">
<time>2014-08-05T04:27:17Z</time></trkpt>
<trkpt lat="27.994862" lon="98.643889">
<time>2014-08-05T04:27:18Z</time></trkpt>
<trkpt lat="27.994912" lon="98.643809">
<time>2014-08-05T04:27:19Z</time></trkpt>
<trkpt lat="27.994963" lon="98.643749">
<time>2014-08-05T04:27:20Z</time></trkpt>
<trkpt lat="27.994993" lon="98.64373">
<time>2014-08-05T04:27:21Z</time></trkpt>
<trkpt lat="27.995043" lon="98.64369">
<time>2014-08-05T04:27:22Z</time></trkpt>
<trkpt lat="27.995093" lon="98.64367">
<time>2014-08-05T04:27:23Z</time></trkpt>
<trkpt lat="27.995133" lon="98.64366">
<time>2014-08-05T04:27:24Z</time></trkpt>
<trkpt lat="27.995183" lon="98.64365">
<time>2014-08-05T04:27:25Z</time></trkpt>
<trkpt lat="27.995373" lon="98.64361">
<time>2014-08-05T04:27:26Z</time></trkpt>
<trkpt lat="27.995553" lon="98.64358">
<time>2014-08-05T04:27:27Z</time></trkpt>
<trkpt lat="27.995603" lon="98.64357">
<time>2014-08-05T04:27:28Z</time></trkpt>
<trkpt lat="27.995623" lon="98.64356">
<time>2014-08-05T04:27:29Z</time></trkpt>
<trkpt lat="27.995643" lon="98.64356">
<time>2014-08-05T04:27:30Z</time></trkpt>
<trkpt lat="27.995663" lon="98.64356">
<time>2014-08-05T04:27:31Z</time></trkpt>
<trkpt lat="27.995693" lon="98.64357">
<time>2014-08-05T04:27:32Z</time></trkpt>
<trkpt lat="27.995703" lon="98.64357">
<time>2014-08-05T04:27:33Z</time></trkpt>
<trkpt lat="27.995723" lon="98.64358">
<time>2014-08-05T04:27:34Z</time></trkpt>
<trkpt lat="27.995743" lon="98.64358">
<time>2014-08-05T04:27:35Z</time></trkpt>
<trkpt lat="27.995763" lon="98.6436">
<time>2014-08-05T04:27:36Z</time></trkpt>
<trkpt lat="27.995783" lon="98.64362">
<time>2014-08-05T04:27:37Z</time></trkpt>
<trkpt lat="27.995793" lon="98.64363">
<time>2014-08-05T04:27:38Z</time></trkpt>
<trkpt lat="27.995803" lon="98.64365">
<time>2014-08-05T04:27:39Z</time></trkpt>
<trkpt lat="27.995823" lon="98.64368">
<time>2014-08-05T04:27:40Z</time></trkpt>
<trkpt lat="27.995823" lon="98.6437">
<time>2014-08-05T04:27:41Z</time></trkpt>
<trkpt lat="27.995833" lon="98.64372">
<time>2014-08-05T04:27:42Z</time></trkpt>
<trkpt lat="27.995843" lon="98.643779">
<time>2014-08-05T04:27:43Z</time></trkpt>
<trkpt lat="27.995852" lon="98.644019">
<time>2014-08-05T04:27:44Z</time></trkpt>
<trkpt lat="27.995892" lon="98.644288">
<time>2014-08-05T04:27:45Z</time></trkpt>
<trkpt lat="27.995892" lon="98.644328">
<time>2014-08-05T04:27:46Z</time></trkpt>
<trkpt lat="27.995902" lon="98.644428">
<time>2014-08-05T04:27:47Z</time></trkpt>
<trkpt lat="27.995891" lon="98.644508">
<time>2014-08-05T04:27:48Z</time></trkpt>
<trkpt lat="27.995881" lon="98.644607">
<time>2014-08-05T04:27:49Z</time></trkpt>
<trkpt lat="27.995871" lon="98.644667">
<time>2014-08-05T04:27:50Z</time></trkpt>
<trkpt lat="27.995871" lon="98.644707">
<time>2014-08-05T04:27:51Z</time></trkpt>
<trkpt lat="27.995881" lon="98.644787">
<time>2014-08-05T04:27:52Z</time></trkpt>
<trkpt lat="27.995891" lon="98.644827">
<time>2014-08-05T04:27:53Z</time></trkpt>
<trkpt lat="27.995901" lon="98.644857">
<time>2014-08-05T04:27:54Z</time></trkpt>
<trkpt lat="27.995911" lon="98.644887">
<time>2014-08-05T04:27:55Z</time></trkpt>
<trkpt lat="27.995931" lon="98.644907">
<time>2014-08-05T04:27:56Z</time></trkpt>
<trkpt lat="27.995961" lon="98.644947">
<time>2014-08-05T04:27:57Z</time></trkpt>
<trkpt lat="27.995991" lon="98.644967">
<time>2014-08-05T04:27:58Z</time></trkpt>
<trkpt lat="27.996011" lon="98.644977">
<time>2014-08-05T04:27:59Z</time></trkpt>
<trkpt lat="27.996031" lon="98.644986">
<time>2014-08-05T04:28:00Z</time></trkpt>
<trkpt lat="27.996041" lon="98.644986">
<time>2014-08-05T04:28:01Z</time></trkpt>
<trkpt lat="27.996071" lon="98.644986">
<time>2014-08-05T04:28:02Z</time></trkpt>
<trkpt lat="27.996111" lon="98.644986">
<time>2014-08-05T04:28:03Z</time></trkpt>
<trkpt lat="27.996141" lon="98.644977">
<time>2014-08-05T04:28:04Z</time></trkpt>
<trkpt lat="27.996181" lon="98.644957">
<time>2014-08-05T04:28:05Z</time></trkpt>
<trkpt lat="27.996201" lon="98.644947">
<time>2014-08-05T04:28:06Z</time></trkpt>
<trkpt lat="27.996341" lon="98.644857">
<time>2014-08-05T04:28:07Z</time></trkpt>
<trkpt lat="27.996431" lon="98.644797">
<time>2014-08-05T04:28:08Z</time></trkpt>
<trkpt lat="27.996511" lon="98.644747">
<time>2014-08-05T04:28:09Z</time></trkpt>
<trkpt lat="27.996621" lon="98.644677">
<time>2014-08-05T04:28:10Z</time></trkpt>
<trkpt lat="27.996741" lon="98.644587">
<time>2014-08-05T04:28:11Z</time></trkpt>
<trkpt lat="27.996762" lon="98.644577">
<time>2014-08-05T04:28:12Z</time></trkpt>
<trkpt lat="27.996832" lon="98.644508">
<time>2014-08-05T04:28:13Z</time></trkpt>
<trkpt lat="27.996862" lon="98.644488">
<time>2014-08-05T04:28:14Z</time></trkpt>
<trkpt lat="27.996922" lon="98.644408">
<time>2014-08-05T04:28:15Z</time></trkpt>
<trkpt lat="27.996972" lon="98.644358">
<time>2014-08-05T04:28:16Z</time></trkpt>
<trkpt lat="27.997042" lon="98.644258">
<time>2014-08-05T04:28:17Z</time></trkpt>
<trkpt lat="27.997092" lon="98.644198">
<time>2014-08-05T04:28:18Z</time></trkpt>
<trkpt lat="27.997202" lon="98.644089">
<time>2014-08-05T04:28:19Z</time></trkpt>
<trkpt lat="27.997242" lon="98.644049">
<time>2014-08-05T04:28:20Z</time></trkpt>
<trkpt lat="27.997262" lon="98.644029">
<time>2014-08-05T04:28:21Z</time></trkpt>
<trkpt lat="27.997293" lon="98.644019">
<time>2014-08-05T04:28:22Z</time></trkpt>
<trkpt lat="27.997383" lon="98.643979">
<time>2014-08-05T04:28:23Z</time></trkpt>
<trkpt lat="27.997453" lon="98.643949">
<time>2014-08-05T04:28:24Z</time></trkpt>
<trkpt lat="27.997523" lon="98.643929">
<time>2014-08-05T04:28:25Z</time></trkpt>
<trkpt lat="27.997633" lon="98.643899">
<time>2014-08-05T04:28:26Z</time></trkpt>
<trkpt lat="27.997733" lon="98.643869">
<time>2014-08-05T04:28:27Z</time></trkpt>
<trkpt lat="27.997753" lon="98.643859">
<time>2014-08-05T04:28:28Z</time></trkpt>
<trkpt lat="27.997833" lon="98.643829">
<time>2014-08-05T04:28:29Z</time></trkpt>
<trkpt lat="27.997933" lon="98.643769">
<time>2014-08-05T04:28:30Z</time></trkpt>
<trkpt lat="27.997983" lon="98.643739">
<time>2014-08-05T04:28:31Z</time></trkpt>
<trkpt lat="27.998043" lon="98.6437">
<time>2014-08-05T04:28:32Z</time></trkpt>
<trkpt lat="27.998093" lon="98.64365">
<time>2014-08-05T04:28:33Z</time></trkpt>
<trkpt lat="27.998133" lon="98.64363">
<time>2014-08-05T04:28:34Z</time></trkpt>
<trkpt lat="27.998213" lon="98.64355">
<time>2014-08-05T04:28:35Z</time></trkpt>
<trkpt lat="27.998304" lon="98.64347">
<time>2014-08-05T04:28:36Z</time></trkpt>
<trkpt lat="27.998364" lon="98.64341">
<time>2014-08-05T04:28:37Z</time></trkpt>
<trkpt lat="27.998414" lon="98.64337">
<time>2014-08-05T04:28:38Z</time></trkpt>
<trkpt lat="27.998484" lon="98.64331">
<time>2014-08-05T04:28:39Z</time></trkpt>
<trkpt lat="27.998524" lon="98.643281">
<time>2014-08-05T04:28:40Z</time></trkpt>
<trkpt lat="27.998584" lon="98.643231">
<time>2014-08-05T04:28:41Z</time></trkpt>
<trkpt lat="27.998664" lon="98.643161">
<time>2014-08-05T04:28:42Z</time></trkpt>
<trkpt lat="27.998674" lon="98.643151">
<time>2014-08-05T04:28:43Z</time></trkpt>
<trkpt lat="27.998734" lon="98.643111">
<time>2014-08-05T04:28:44Z</time></trkpt>
<trkpt lat="27.998784" lon="98.643061">
<time>2014-08-05T04:28:45Z</time></trkpt>
<trkpt lat="27.998824" lon="98.643021">
<time>2014-08-05T04:28:46Z</time></trkpt>
<trkpt lat="27.998904" lon="98.642961">
<time>2014-08-05T04:28:47Z</time></trkpt>
<trkpt lat="27.999005" lon="98.642881">
<time>2014-08-05T04:28:48Z</time></trkpt>
<trkpt lat="27.999055" lon="98.642852">
<time>2014-08-05T04:28:49Z</time></trkpt>
<trkpt lat="27.999075" lon="98.642842">
<time>2014-08-05T04:28:50Z</time></trkpt>
<trkpt lat="27.999105" lon="98.642822">
<time>2014-08-05T04:28:51Z</time></trkpt>
<trkpt lat="27.999165" lon="98.642782">
<time>2014-08-05T04:28:52Z</time></trkpt>
<trkpt lat="27.999225" lon="98.642752">
<time>2014-08-05T04:28:53Z</time></trkpt>
<trkpt lat="27.999275" lon="98.642722">
<time>2014-08-05T04:28:54Z</time></trkpt>
<trkpt lat="27.999315" lon="98.642702">
<time>2014-08-05T04:28:55Z</time></trkpt>
<trkpt lat="27.999475" lon="98.642642">
<time>2014-08-05T04:28:56Z</time></trkpt>
<trkpt lat="27.999525" lon="98.642622">
<time>2014-08-05T04:28:57Z</time></trkpt>
<trkpt lat="27.999595" lon="98.642592">
<time>2014-08-05T04:28:58Z</time></trkpt>
<trkpt lat="27.999735" lon="98.642522">
<time>2014-08-05T04:28:59Z</time></trkpt>
<trkpt lat="27.999825" lon="98.642472">
<time>2014-08-05T04:29:00Z</time></trkpt>
<trkpt lat="27.999865" lon="98.642443">
<time>2014-08-05T04:29:01Z</time></trkpt>
<trkpt lat="27.999916" lon="98.642413">
<time>2014-08-05T04:29:02Z</time></trkpt>
<trkpt lat="27.999946" lon="98.642393">
<time>2014-08-05T04:29:03Z</time></trkpt>
<trkpt lat="27.999946" lon="98.642383">
<time>2014-08-05T04:29:04Z</time></trkpt>
<trkpt lat="27.999956" lon="98.642383">
<time>2014-08-05T04:29:05Z</time></trkpt>
<trkpt lat="27.999986" lon="98.642343">
<time>2014-08-05T04:29:06Z</time></trkpt>
<trkpt lat="28.000036" lon="98.642303">
<time>2014-08-05T04:29:07Z</time></trkpt>
<trkpt lat="28.000046" lon="98.642293">
<time>2014-08-05T04:29:08Z</time></trkpt>
<trkpt lat="28.000076" lon="98.642263">
<time>2014-08-05T04:29:09Z</time></trkpt>
<trkpt lat="28.000136" lon="98.642203">
<time>2014-08-05T04:29:10Z</time></trkpt>
<trkpt lat="28.000246" lon="98.642073">
<time>2014-08-05T04:29:11Z</time></trkpt>
<trkpt lat="28.000316" lon="98.642004">
<time>2014-08-05T04:29:12Z</time></trkpt>
<trkpt lat="28.000376" lon="98.641934">
<time>2014-08-05T04:29:13Z</time></trkpt>
<trkpt lat="28.000426" lon="98.641894">
<time>2014-08-05T04:29:14Z</time></trkpt>
<trkpt lat="28.000436" lon="98.641884">
<time>2014-08-05T04:29:15Z</time></trkpt>
<trkpt lat="28.000446" lon="98.641874">
<time>2014-08-05T04:29:16Z</time></trkpt>
<trkpt lat="28.000466" lon="98.641864">
<time>2014-08-05T04:29:17Z</time></trkpt>
<trkpt lat="28.000466" lon="98.641854">
<time>2014-08-05T04:29:18Z</time></trkpt>
<trkpt lat="28.000487" lon="98.641844">
<time>2014-08-05T04:29:19Z</time></trkpt>
<trkpt lat="28.000507" lon="98.641824">
<time>2014-08-05T04:29:20Z</time></trkpt>
<trkpt lat="28.000547" lon="98.641804">
<time>2014-08-05T04:29:21Z</time></trkpt>
<trkpt lat="28.000557" lon="98.641794">
<time>2014-08-05T04:29:22Z</time></trkpt>
<trkpt lat="28.000567" lon="98.641794">
<time>2014-08-05T04:29:23Z</time></trkpt>
<trkpt lat="28.000577" lon="98.641784">
<time>2014-08-05T04:29:24Z</time></trkpt>
<trkpt lat="28.000597" lon="98.641784">
<time>2014-08-05T04:29:25Z</time></trkpt>
<trkpt lat="28.000617" lon="98.641774">
<time>2014-08-05T04:29:26Z</time></trkpt>
<trkpt lat="28.000637" lon="98.641774">
<time>2014-08-05T04:29:27Z</time></trkpt>
<trkpt lat="28.000677" lon="98.641764">
<time>2014-08-05T04:29:28Z</time></trkpt>
<trkpt lat="28.000707" lon="98.641764">
<time>2014-08-05T04:29:29Z</time></trkpt>
<trkpt lat="28.000857" lon="98.641764">
<time>2014-08-05T04:29:30Z</time></trkpt>
<trkpt lat="28.000887" lon="98.641754">
<time>2014-08-05T04:29:31Z</time></trkpt>
<trkpt lat="28.000907" lon="98.641754">
<time>2014-08-05T04:29:32Z</time></trkpt>
<trkpt lat="28.000927" lon="98.641744">
<time>2014-08-05T04:29:33Z</time></trkpt>
<trkpt lat="28.000937" lon="98.641744">
<time>2014-08-05T04:29:34Z</time></trkpt>
<trkpt lat="28.000947" lon="98.641744">
<time>2014-08-05T04:29:35Z</time></trkpt>
<trkpt lat="28.000957" lon="98.641734">
<time>2014-08-05T04:29:36Z</time></trkpt>
<trkpt lat="28.000967" lon="98.641734">
<time>2014-08-05T04:29:37Z</time></trkpt>
<trkpt lat="28.000977" lon="98.641724">
<time>2014-08-05T04:29:38Z</time></trkpt>
<trkpt lat="28.000987" lon="98.641724">
<time>2014-08-05T04:29:39Z</time></trkpt>
<trkpt lat="28.000997" lon="98.641714">
<time>2014-08-05T04:29:40Z</time></trkpt>
<trkpt lat="28.001017" lon="98.641704">
<time>2014-08-05T04:29:41Z</time></trkpt>
<trkpt lat="28.001027" lon="98.641694">
<time>2014-08-05T04:29:42Z</time></trkpt>
<trkpt lat="28.001037" lon="98.641684">
<time>2014-08-05T04:29:43Z</time></trkpt>
<trkpt lat="28.001047" lon="98.641674">
<time>2014-08-05T04:29:44Z</time></trkpt>
<trkpt lat="28.001067" lon="98.641644">
<time>2014-08-05T04:29:45Z</time></trkpt>
<trkpt lat="28.001077" lon="98.641624">
<time>2014-08-05T04:29:46Z</time></trkpt>
<trkpt lat="28.001087" lon="98.641614">
<time>2014-08-05T04:29:47Z</time></trkpt>
<trkpt lat="28.001107" lon="98.641584">
<time>2014-08-05T04:29:48Z</time></trkpt>
<trkpt lat="28.001107" lon="98.641575">
<time>2014-08-05T04:29:49Z</time></trkpt>
<trkpt lat="28.001117" lon="98.641555">
<time>2014-08-05T04:29:50Z</time></trkpt>
<trkpt lat="28.001127" lon="98.641535">
<time>2014-08-05T04:29:51Z</time></trkpt>
<trkpt lat="28.001147" lon="98.641495">
<time>2014-08-05T04:29:52Z</time></trkpt>
<trkpt lat="28.001157" lon="98.641475">
<time>2014-08-05T04:29:53Z</time></trkpt>
<trkpt lat="28.001157" lon="98.641445">
<time>2014-08-05T04:29:54Z</time></trkpt>
<trkpt lat="28.001167" lon="98.641425">
<time>2014-08-05T04:29:55Z</time></trkpt>
<trkpt lat="28.001177" lon="98.641415">
<time>2014-08-05T04:29:56Z</time></trkpt>
<trkpt lat="28.001187" lon="98.641385">
<time>2014-08-05T04:29:57Z</time></trkpt>
<trkpt lat="28.001217" lon="98.641325">
<time>2014-08-05T04:29:58Z</time></trkpt>
<trkpt lat="28.001238" lon="98.641285">
<time>2014-08-05T04:29:59Z</time></trkpt>
<trkpt lat="28.001288" lon="98.641195">
<time>2014-08-05T04:30:00Z</time></trkpt>
<trkpt lat="28.001318" lon="98.641146">
<time>2014-08-05T04:30:01Z</time></trkpt>
<trkpt lat="28.001348" lon="98.641096">
<time>2014-08-05T04:30:02Z</time></trkpt>
<trkpt lat="28.001388" lon="98.641036">
<time>2014-08-05T04:30:03Z</time></trkpt>
<trkpt lat="28.001468" lon="98.640946">
<time>2014-08-05T04:30:04Z</time></trkpt>
<trkpt lat="28.001498" lon="98.640906">
<time>2014-08-05T04:30:05Z</time></trkpt>
<trkpt lat="28.001518" lon="98.640876">
<time>2014-08-05T04:30:06Z</time></trkpt>
<trkpt lat="28.001558" lon="98.640816">
<time>2014-08-05T04:30:07Z</time></trkpt>
<trkpt lat="28.001588" lon="98.640766">
<time>2014-08-05T04:30:08Z</time></trkpt>
<trkpt lat="28.001608" lon="98.640736">
<time>2014-08-05T04:30:09Z</time></trkpt>
<trkpt lat="28.001679" lon="98.640617">
<time>2014-08-05T04:30:10Z</time></trkpt>
<trkpt lat="28.001749" lon="98.640467">
<time>2014-08-05T04:30:11Z</time></trkpt>
<trkpt lat="28.001819" lon="98.640327">
<time>2014-08-05T04:30:12Z</time></trkpt>
<trkpt lat="28.001879" lon="98.640218">
<time>2014-08-05T04:30:13Z</time></trkpt>
<trkpt lat="28.001929" lon="98.640138">
<time>2014-08-05T04:30:14Z</time></trkpt>
<trkpt lat="28.00201" lon="98.640028">
<time>2014-08-05T04:30:15Z</time></trkpt>
<trkpt lat="28.00209" lon="98.639918">
<time>2014-08-05T04:30:16Z</time></trkpt>
<trkpt lat="28.00222" lon="98.639769">
<time>2014-08-05T04:30:17Z</time></trkpt>
<trkpt lat="28.00228" lon="98.639679">
<time>2014-08-05T04:30:18Z</time></trkpt>
<trkpt lat="28.00232" lon="98.639629">
<time>2014-08-05T04:30:19Z</time></trkpt>
<trkpt lat="28.00235" lon="98.639589">
<time>2014-08-05T04:30:20Z</time></trkpt>
<trkpt lat="28.00237" lon="98.639539">
<time>2014-08-05T04:30:21Z</time></trkpt>
<trkpt lat="28.002411" lon="98.639469">
<time>2014-08-05T04:30:22Z</time></trkpt>
<trkpt lat="28.002411" lon="98.639439">
<time>2014-08-05T04:30:23Z</time></trkpt>
<trkpt lat="28.002421" lon="98.639419">
<time>2014-08-05T04:30:24Z</time></trkpt>
<trkpt lat="28.002421" lon="98.639399">
<time>2014-08-05T04:30:25Z</time></trkpt>
<trkpt lat="28.002431" lon="98.63938">
<time>2014-08-05T04:30:26Z</time></trkpt>
<trkpt lat="28.002431" lon="98.63935">
<time>2014-08-05T04:30:27Z</time></trkpt>
<trkpt lat="28.002431" lon="98.63933">
<time>2014-08-05T04:30:28Z</time></trkpt>
<trkpt lat="28.002431" lon="98.63931">
<time>2014-08-05T04:30:29Z</time></trkpt>
<trkpt lat="28.002431" lon="98.63929">
<time>2014-08-05T04:30:30Z</time></trkpt>
<trkpt lat="28.002431" lon="98.63926">
<time>2014-08-05T04:30:31Z</time></trkpt>
<trkpt lat="28.002431" lon="98.63924">
<time>2014-08-05T04:30:32Z</time></trkpt>
<trkpt lat="28.002421" lon="98.63919">
<time>2014-08-05T04:30:33Z</time></trkpt>
<trkpt lat="28.002381" lon="98.63907">
<time>2014-08-05T04:30:34Z</time></trkpt>
<trkpt lat="28.002361" lon="98.639">
<time>2014-08-05T04:30:35Z</time></trkpt>
<trkpt lat="28.002331" lon="98.638911">
<time>2014-08-05T04:30:36Z</time></trkpt>
<trkpt lat="28.002291" lon="98.638831">
<time>2014-08-05T04:30:37Z</time></trkpt>
<trkpt lat="28.002272" lon="98.638781">
<time>2014-08-05T04:30:38Z</time></trkpt>
<trkpt lat="28.002232" lon="98.638721">
<time>2014-08-05T04:30:39Z</time></trkpt>
<trkpt lat="28.002192" lon="98.638661">
<time>2014-08-05T04:30:40Z</time></trkpt>
<trkpt lat="28.002162" lon="98.638631">
<time>2014-08-05T04:30:41Z</time></trkpt>
<trkpt lat="28.002132" lon="98.638591">
<time>2014-08-05T04:30:42Z</time></trkpt>
<trkpt lat="28.002022" lon="98.638442">
<time>2014-08-05T04:30:43Z</time></trkpt>
<trkpt lat="28.001982" lon="98.638372">
<time>2014-08-05T04:30:44Z</time></trkpt>
<trkpt lat="28.001952" lon="98.638332">
<time>2014-08-05T04:30:45Z</time></trkpt>
<trkpt lat="28.001932" lon="98.638272">
<time>2014-08-05T04:30:46Z</time></trkpt>
<trkpt lat="28.001902" lon="98.638192">
<time>2014-08-05T04:30:47Z</time></trkpt>
<trkpt lat="28.001863" lon="98.638043">
<time>2014-08-05T04:30:48Z</time></trkpt>
<trkpt lat="28.001843" lon="98.637973">
<time>2014-08-05T04:30:49Z</time></trkpt>
<trkpt lat="28.001823" lon="98.637913">
<time>2014-08-05T04:30:50Z</time></trkpt>
<trkpt lat="28.001803" lon="98.637883">
<time>2014-08-05T04:30:51Z</time></trkpt>
<trkpt lat="28.001783" lon="98.637853">
<time>2014-08-05T04:30:52Z</time></trkpt>
<trkpt lat="28.001773" lon="98.637833">
<time>2014-08-05T04:30:53Z</time></trkpt>
<trkpt lat="28.001753" lon="98.637813">
<time>2014-08-05T04:30:54Z</time></trkpt>
<trkpt lat="28.001743" lon="98.637803">
<time>2014-08-05T04:30:55Z</time></trkpt>
<trkpt lat="28.001723" lon="98.637783">
<time>2014-08-05T04:30:56Z</time></trkpt>
<trkpt lat="28.001703" lon="98.637763">
<time>2014-08-05T04:30:57Z</time></trkpt>
<trkpt lat="28.001673" lon="98.637743">
<time>2014-08-05T04:30:58Z</time></trkpt>
<trkpt lat="28.001653" lon="98.637733">
<time>2014-08-05T04:30:59Z</time></trkpt>
<trkpt lat="28.001583" lon="98.637703">
<time>2014-08-05T04:31:00Z</time></trkpt>
<trkpt lat="28.001523" lon="98.637663">
<time>2014-08-05T04:31:01Z</time></trkpt>
<trkpt lat="28.001443" lon="98.637614">
<time>2014-08-05T04:31:02Z</time></trkpt>
<trkpt lat="28.001373" lon="98.637564">
<time>2014-08-05T04:31:03Z</time></trkpt>
<trkpt lat="28.001323" lon="98.637514">
<time>2014-08-05T04:31:04Z</time></trkpt>
<trkpt lat="28.001263" lon="98.637454">
<time>2014-08-05T04:31:05Z</time></trkpt>
<trkpt lat="28.001213" lon="98.637384">
<time>2014-08-05T04:31:06Z</time></trkpt>
<trkpt lat="28.001183" lon="98.637334">
<time>2014-08-05T04:31:07Z</time></trkpt>
<trkpt lat="28.001164" lon="98.637274">
<time>2014-08-05T04:31:08Z</time></trkpt>
<trkpt lat="28.001134" lon="98.637214">
<time>2014-08-05T04:31:09Z</time></trkpt>
<trkpt lat="28.001094" lon="98.637115">
<time>2014-08-05T04:31:10Z</time></trkpt>
<trkpt lat="28.001054" lon="98.637025">
<time>2014-08-05T04:31:11Z</time></trkpt>
<trkpt lat="28.001014" lon="98.636935">
<time>2014-08-05T04:31:12Z</time></trkpt>
<trkpt lat="28.000944" lon="98.636815">
<time>2014-08-05T04:31:13Z</time></trkpt>
<trkpt lat="28.000894" lon="98.636725">
<time>2014-08-05T04:31:14Z</time></trkpt>
<trkpt lat="28.000834" lon="98.636636">
<time>2014-08-05T04:31:15Z</time></trkpt>
<trkpt lat="28.000805" lon="98.636576">
<time>2014-08-05T04:31:16Z</time></trkpt>
<trkpt lat="28.000765" lon="98.636506">
<time>2014-08-05T04:31:17Z</time></trkpt>
<trkpt lat="28.000745" lon="98.636446">
<time>2014-08-05T04:31:18Z</time></trkpt>
<trkpt lat="28.000685" lon="98.636247">
<time>2014-08-05T04:31:19Z</time></trkpt>
<trkpt lat="28.000595" lon="98.635917">
<time>2014-08-05T04:31:20Z</time></trkpt>
<trkpt lat="28.000566" lon="98.635778">
<time>2014-08-05T04:31:21Z</time></trkpt>
<trkpt lat="28.000546" lon="98.635658">
<time>2014-08-05T04:31:22Z</time></trkpt>
<trkpt lat="28.000526" lon="98.635588">
<time>2014-08-05T04:31:23Z</time></trkpt>
<trkpt lat="28.000506" lon="98.635468">
<time>2014-08-05T04:31:24Z</time></trkpt>
<trkpt lat="28.000476" lon="98.635269">
<time>2014-08-05T04:31:25Z</time></trkpt>
<trkpt lat="28.000437" lon="98.635079">
<time>2014-08-05T04:31:26Z</time></trkpt>
<trkpt lat="28.000417" lon="98.634879">
<time>2014-08-05T04:31:27Z</time></trkpt>
<trkpt lat="28.000387" lon="98.63465">
<time>2014-08-05T04:31:28Z</time></trkpt>
<trkpt lat="28.000387" lon="98.63447">
<time>2014-08-05T04:31:29Z</time></trkpt>
<trkpt lat="28.000398" lon="98.634281">
<time>2014-08-05T04:31:30Z</time></trkpt>
<trkpt lat="28.000428" lon="98.634071">
<time>2014-08-05T04:31:31Z</time></trkpt>
<trkpt lat="28.000458" lon="98.633892">
<time>2014-08-05T04:31:32Z</time></trkpt>
<trkpt lat="28.000488" lon="98.633782">
<time>2014-08-05T04:31:33Z</time></trkpt>
<trkpt lat="28.000518" lon="98.633692">
<time>2014-08-05T04:31:34Z</time></trkpt>
<trkpt lat="28.000549" lon="98.633602">
<time>2014-08-05T04:31:35Z</time></trkpt>
<trkpt lat="28.000619" lon="98.633413">
<time>2014-08-05T04:31:36Z</time></trkpt>
<trkpt lat="28.000719" lon="98.633143">
<time>2014-08-05T04:31:37Z</time></trkpt>
<trkpt lat="28.00081" lon="98.632904">
<time>2014-08-05T04:31:38Z</time></trkpt>
<trkpt lat="28.00087" lon="98.632814">
<time>2014-08-05T04:31:39Z</time></trkpt>
<trkpt lat="28.00096" lon="98.632714">
<time>2014-08-05T04:31:40Z</time></trkpt>
<trkpt lat="28.00114" lon="98.632584">
<time>2014-08-05T04:31:41Z</time></trkpt>
<trkpt lat="28.00122" lon="98.632524">
<time>2014-08-05T04:31:42Z</time></trkpt>
<trkpt lat="28.0014" lon="98.632375">
<time>2014-08-05T04:31:43Z</time></trkpt>
<trkpt lat="28.001541" lon="98.632265">
<time>2014-08-05T04:31:44Z</time></trkpt>
<trkpt lat="28.001631" lon="98.632165">
<time>2014-08-05T04:31:45Z</time></trkpt>
<trkpt lat="28.001691" lon="98.632115">
<time>2014-08-05T04:31:46Z</time></trkpt>
<trkpt lat="28.001721" lon="98.632085">
<time>2014-08-05T04:31:47Z</time></trkpt>
<trkpt lat="28.001801" lon="98.632015">
<time>2014-08-05T04:31:48Z</time></trkpt>
<trkpt lat="28.001851" lon="98.631975">
<time>2014-08-05T04:31:49Z</time></trkpt>
<trkpt lat="28.001911" lon="98.631916">
<time>2014-08-05T04:31:50Z</time></trkpt>
<trkpt lat="28.001941" lon="98.631886">
<time>2014-08-05T04:31:51Z</time></trkpt>
<trkpt lat="28.001971" lon="98.631846">
<time>2014-08-05T04:31:52Z</time></trkpt>
<trkpt lat="28.002001" lon="98.631826">
<time>2014-08-05T04:31:53Z</time></trkpt>
<trkpt lat="28.002051" lon="98.631806">
<time>2014-08-05T04:31:54Z</time></trkpt>
<trkpt lat="28.002091" lon="98.631796">
<time>2014-08-05T04:31:55Z</time></trkpt>
<trkpt lat="28.002161" lon="98.631796">
<time>2014-08-05T04:31:56Z</time></trkpt>
<trkpt lat="28.002231" lon="98.631816">
<time>2014-08-05T04:31:57Z</time></trkpt>
<trkpt lat="28.002351" lon="98.631866">
<time>2014-08-05T04:31:58Z</time></trkpt>
<trkpt lat="28.002401" lon="98.631886">
<time>2014-08-05T04:31:59Z</time></trkpt>
<trkpt lat="28.002441" lon="98.631896">
<time>2014-08-05T04:32:00Z</time></trkpt>
<trkpt lat="28.002471" lon="98.631896">
<time>2014-08-05T04:32:01Z</time></trkpt>
<trkpt lat="28.002501" lon="98.631896">
<time>2014-08-05T04:32:02Z</time></trkpt>
<trkpt lat="28.002531" lon="98.631886">
<time>2014-08-05T04:32:03Z</time></trkpt>
<trkpt lat="28.002661" lon="98.631876">
<time>2014-08-05T04:32:04Z</time></trkpt>
<trkpt lat="28.002731" lon="98.631866">
<time>2014-08-05T04:32:05Z</time></trkpt>
<trkpt lat="28.002761" lon="98.631856">
<time>2014-08-05T04:32:06Z</time></trkpt>
<trkpt lat="28.002791" lon="98.631856">
<time>2014-08-05T04:32:07Z</time></trkpt>
<trkpt lat="28.002911" lon="98.631836">
<time>2014-08-05T04:32:08Z</time></trkpt>
<trkpt lat="28.002961" lon="98.631816">
<time>2014-08-05T04:32:09Z</time></trkpt>
<trkpt lat="28.003161" lon="98.631786">
<time>2014-08-05T04:32:10Z</time></trkpt>
<trkpt lat="28.003322" lon="98.631766">
<time>2014-08-05T04:32:11Z</time></trkpt>
<trkpt lat="28.003352" lon="98.631766">
<time>2014-08-05T04:32:12Z</time></trkpt>
<trkpt lat="28.003412" lon="98.631766">
<time>2014-08-05T04:32:13Z</time></trkpt>
<trkpt lat="28.003522" lon="98.631776">
<time>2014-08-05T04:32:14Z</time></trkpt>
<trkpt lat="28.003582" lon="98.631776">
<time>2014-08-05T04:32:15Z</time></trkpt>
<trkpt lat="28.003622" lon="98.631786">
<time>2014-08-05T04:32:16Z</time></trkpt>
<trkpt lat="28.003652" lon="98.631786">
<time>2014-08-05T04:32:17Z</time></trkpt>
<trkpt lat="28.003742" lon="98.631776">
<time>2014-08-05T04:32:18Z</time></trkpt>
<trkpt lat="28.003792" lon="98.631776">
<time>2014-08-05T04:32:19Z</time></trkpt>
<trkpt lat="28.003832" lon="98.631766">
<time>2014-08-05T04:32:20Z</time></trkpt>
<trkpt lat="28.003862" lon="98.631756">
<time>2014-08-05T04:32:21Z</time></trkpt>
<trkpt lat="28.003902" lon="98.631736">
<time>2014-08-05T04:32:22Z</time></trkpt>
<trkpt lat="28.003942" lon="98.631716">
<time>2014-08-05T04:32:23Z</time></trkpt>
<trkpt lat="28.004042" lon="98.631646">
<time>2014-08-05T04:32:24Z</time></trkpt>
<trkpt lat="28.004062" lon="98.631636">
<time>2014-08-05T04:32:25Z</time></trkpt>
<trkpt lat="28.004072" lon="98.631636">
<time>2014-08-05T04:32:26Z</time></trkpt>
<trkpt lat="28.004102" lon="98.631626">
<time>2014-08-05T04:32:27Z</time></trkpt>
<trkpt lat="28.004112" lon="98.631616">
<time>2014-08-05T04:32:28Z</time></trkpt>
<trkpt lat="28.004132" lon="98.631606">
<time>2014-08-05T04:32:29Z</time></trkpt>
<trkpt lat="28.004152" lon="98.631606">
<time>2014-08-05T04:32:30Z</time></trkpt>
<trkpt lat="28.004162" lon="98.631606">
<time>2014-08-05T04:32:31Z</time></trkpt>
<trkpt lat="28.004182" lon="98.631606">
<time>2014-08-05T04:32:32Z</time></trkpt>
<trkpt lat="28.004212" lon="98.631606">
<time>2014-08-05T04:32:33Z</time></trkpt>
<trkpt lat="28.004222" lon="98.631606">
<time>2014-08-05T04:32:34Z</time></trkpt>
<trkpt lat="28.004232" lon="98.631606">
<time>2014-08-05T04:32:35Z</time></trkpt>
<trkpt lat="28.004262" lon="98.631616">
<time>2014-08-05T04:32:36Z</time></trkpt>
<trkpt lat="28.004282" lon="98.631616">
<time>2014-08-05T04:32:37Z</time></trkpt>
<trkpt lat="28.004402" lon="98.631666">
<time>2014-08-05T04:32:38Z</time></trkpt>
<trkpt lat="28.004452" lon="98.631676">
<time>2014-08-05T04:32:39Z</time></trkpt>
<trkpt lat="28.004482" lon="98.631686">
<time>2014-08-05T04:32:40Z</time></trkpt>
<trkpt lat="28.004512" lon="98.631686">
<time>2014-08-05T04:32:41Z</time></trkpt>
<trkpt lat="28.004582" lon="98.631686">
<time>2014-08-05T04:32:42Z</time></trkpt>
<trkpt lat="28.004682" lon="98.631686">
<time>2014-08-05T04:32:43Z</time></trkpt>
<trkpt lat="28.004742" lon="98.631676">
<time>2014-08-05T04:32:44Z</time></trkpt>
<trkpt lat="28.004782" lon="98.631686">
<time>2014-08-05T04:32:45Z</time></trkpt>
<trkpt lat="28.004812" lon="98.631686">
<time>2014-08-05T04:32:46Z</time></trkpt>
<trkpt lat="28.004872" lon="98.631696">
<time>2014-08-05T04:32:47Z</time></trkpt>
<trkpt lat="28.005072" lon="98.631756">
<time>2014-08-05T04:32:48Z</time></trkpt>
<trkpt lat="28.005122" lon="98.631756">
<time>2014-08-05T04:32:49Z</time></trkpt>
<trkpt lat="28.005152" lon="98.631766">
<time>2014-08-05T04:32:50Z</time></trkpt>
<trkpt lat="28.005192" lon="98.631766">
<time>2014-08-05T04:32:51Z</time></trkpt>
<trkpt lat="28.005212" lon="98.631766">
<time>2014-08-05T04:32:52Z</time></trkpt>
<trkpt lat="28.005342" lon="98.631736">
<time>2014-08-05T04:32:53Z</time></trkpt>
<trkpt lat="28.005432" lon="98.631716">
<time>2014-08-05T04:32:54Z</time></trkpt>
<trkpt lat="28.005512" lon="98.631706">
<time>2014-08-05T04:32:55Z</time></trkpt>
<trkpt lat="28.005722" lon="98.631736">
<time>2014-08-05T04:32:56Z</time></trkpt>
<trkpt lat="28.005892" lon="98.631746">
<time>2014-08-05T04:32:57Z</time></trkpt>
<trkpt lat="28.006012" lon="98.631746">
<time>2014-08-05T04:32:58Z</time></trkpt>
<trkpt lat="28.006072" lon="98.631756">
<time>2014-08-05T04:32:59Z</time></trkpt>
<trkpt lat="28.006122" lon="98.631766">
<time>2014-08-05T04:33:00Z</time></trkpt>
<trkpt lat="28.006152" lon="98.631776">
<time>2014-08-05T04:33:01Z</time></trkpt>
<trkpt lat="28.006202" lon="98.631796">
<time>2014-08-05T04:33:02Z</time></trkpt>
<trkpt lat="28.006242" lon="98.631826">
<time>2014-08-05T04:33:03Z</time></trkpt>
<trkpt lat="28.006312" lon="98.631886">
<time>2014-08-05T04:33:04Z</time></trkpt>
<trkpt lat="28.006402" lon="98.631955">
<time>2014-08-05T04:33:05Z</time></trkpt>
<trkpt lat="28.006472" lon="98.632005">
<time>2014-08-05T04:33:06Z</time></trkpt>
<trkpt lat="28.006512" lon="98.632035">
<time>2014-08-05T04:33:07Z</time></trkpt>
<trkpt lat="28.006542" lon="98.632055">
<time>2014-08-05T04:33:08Z</time></trkpt>
<trkpt lat="28.006562" lon="98.632075">
<time>2014-08-05T04:33:09Z</time></trkpt>
<trkpt lat="28.006612" lon="98.632085">
<time>2014-08-05T04:33:10Z</time></trkpt>
<trkpt lat="28.006672" lon="98.632105">
<time>2014-08-05T04:33:11Z</time></trkpt>
<trkpt lat="28.006712" lon="98.632105">
<time>2014-08-05T04:33:12Z</time></trkpt>
<trkpt lat="28.006782" lon="98.632115">
<time>2014-08-05T04:33:13Z</time></trkpt>
<trkpt lat="28.006832" lon="98.632115">
<time>2014-08-05T04:33:14Z</time></trkpt>
<trkpt lat="28.006872" lon="98.632105">
<time>2014-08-05T04:33:15Z</time></trkpt>
<trkpt lat="28.006912" lon="98.632085">
<time>2014-08-05T04:33:16Z</time></trkpt>
<trkpt lat="28.006972" lon="98.632065">
<time>2014-08-05T04:33:17Z</time></trkpt>
<trkpt lat="28.007112" lon="98.631995">
<time>2014-08-05T04:33:18Z</time></trkpt>
<trkpt lat="28.007232" lon="98.631945">
<time>2014-08-05T04:33:19Z</time></trkpt>
<trkpt lat="28.007282" lon="98.631935">
<time>2014-08-05T04:33:20Z</time></trkpt>
<trkpt lat="28.007302" lon="98.631926">
<time>2014-08-05T04:33:21Z</time></trkpt>
<trkpt lat="28.007352" lon="98.631926">
<time>2014-08-05T04:33:22Z</time></trkpt>
<trkpt lat="28.007372" lon="98.631916">
<time>2014-08-05T04:33:23Z</time></trkpt>
<trkpt lat="28.007392" lon="98.631916">
<time>2014-08-05T04:33:24Z</time></trkpt>
<trkpt lat="28.007412" lon="98.631916">
<time>2014-08-05T04:33:25Z</time></trkpt>
<trkpt lat="28.007442" lon="98.631926">
<time>2014-08-05T04:33:26Z</time></trkpt>
<trkpt lat="28.007462" lon="98.631926">
<time>2014-08-05T04:33:27Z</time></trkpt>
<trkpt lat="28.007492" lon="98.631935">
<time>2014-08-05T04:33:28Z</time></trkpt>
<trkpt lat="28.007512" lon="98.631945">
<time>2014-08-05T04:33:29Z</time></trkpt>
<trkpt lat="28.007522" lon="98.631955">
<time>2014-08-05T04:33:30Z</time></trkpt>
<trkpt lat="28.007552" lon="98.631965">
<time>2014-08-05T04:33:31Z</time></trkpt>
<trkpt lat="28.007572" lon="98.631975">
<time>2014-08-05T04:33:32Z</time></trkpt>
<trkpt lat="28.007602" lon="98.632005">
<time>2014-08-05T04:33:33Z</time></trkpt>
<trkpt lat="28.007652" lon="98.632055">
<time>2014-08-05T04:33:34Z</time></trkpt>
<trkpt lat="28.007792" lon="98.632215">
<time>2014-08-05T04:33:35Z</time></trkpt>
<trkpt lat="28.007882" lon="98.632315">
<time>2014-08-05T04:33:36Z</time></trkpt>
<trkpt lat="28.007952" lon="98.632385">
<time>2014-08-05T04:33:37Z</time></trkpt>
<trkpt lat="28.008021" lon="98.632444">
<time>2014-08-05T04:33:38Z</time></trkpt>
<trkpt lat="28.008051" lon="98.632474">
<time>2014-08-05T04:33:39Z</time></trkpt>
<trkpt lat="28.008131" lon="98.632504">
<time>2014-08-05T04:33:40Z</time></trkpt>
<trkpt lat="28.008201" lon="98.632534">
<time>2014-08-05T04:33:41Z</time></trkpt>
<trkpt lat="28.008251" lon="98.632554">
<time>2014-08-05T04:33:42Z</time></trkpt>
<trkpt lat="28.008291" lon="98.632554">
<time>2014-08-05T04:33:43Z</time></trkpt>
<trkpt lat="28.008411" lon="98.632574">
<time>2014-08-05T04:33:44Z</time></trkpt>
<trkpt lat="28.008481" lon="98.632584">
<time>2014-08-05T04:33:45Z</time></trkpt>
<trkpt lat="28.008551" lon="98.632614">
<time>2014-08-05T04:33:46Z</time></trkpt>
<trkpt lat="28.008611" lon="98.632644">
<time>2014-08-05T04:33:47Z</time></trkpt>
<trkpt lat="28.008671" lon="98.632674">
<time>2014-08-05T04:33:48Z</time></trkpt>
<trkpt lat="28.008721" lon="98.632724">
<time>2014-08-05T04:33:49Z</time></trkpt>
<trkpt lat="28.008821" lon="98.632814">
<time>2014-08-05T04:33:50Z</time></trkpt>
<trkpt lat="28.008991" lon="98.633013">
<time>2014-08-05T04:33:51Z</time></trkpt>
<trkpt lat="28.009151" lon="98.633213">
<time>2014-08-05T04:33:52Z</time></trkpt>
<trkpt lat="28.00927" lon="98.633392">
<time>2014-08-05T04:33:53Z</time></trkpt>
<trkpt lat="28.00936" lon="98.633562">
<time>2014-08-05T04:33:54Z</time></trkpt>
<trkpt lat="28.00938" lon="98.633592">
<time>2014-08-05T04:33:55Z</time></trkpt>
<trkpt lat="28.0094" lon="98.633642">
<time>2014-08-05T04:33:56Z</time></trkpt>
<trkpt lat="28.00941" lon="98.633662">
<time>2014-08-05T04:33:57Z</time></trkpt>
<trkpt lat="28.00942" lon="98.633702">
<time>2014-08-05T04:33:58Z</time></trkpt>
<trkpt lat="28.00943" lon="98.633732">
<time>2014-08-05T04:33:59Z</time></trkpt>
<trkpt lat="28.00944" lon="98.633762">
<time>2014-08-05T04:34:00Z</time></trkpt>
<trkpt lat="28.00947" lon="98.633871">
<time>2014-08-05T04:34:01Z</time></trkpt>
<trkpt lat="28.009519" lon="98.634101">
<time>2014-08-05T04:34:02Z</time></trkpt>
<trkpt lat="28.009539" lon="98.634161">
<time>2014-08-05T04:34:03Z</time></trkpt>
<trkpt lat="28.009559" lon="98.634211">
<time>2014-08-05T04:34:04Z</time></trkpt>
<trkpt lat="28.009569" lon="98.634241">
<time>2014-08-05T04:34:05Z</time></trkpt>
<trkpt lat="28.009579" lon="98.634281">
<time>2014-08-05T04:34:06Z</time></trkpt>
<trkpt lat="28.009609" lon="98.634321">
<time>2014-08-05T04:34:07Z</time></trkpt>
<trkpt lat="28.009629" lon="98.63436">
<time>2014-08-05T04:34:08Z</time></trkpt>
<trkpt lat="28.009669" lon="98.63441">
<time>2014-08-05T04:34:09Z</time></trkpt>
<trkpt lat="28.009799" lon="98.63456">
<time>2014-08-05T04:34:10Z</time></trkpt>
<trkpt lat="28.009979" lon="98.63475">
<time>2014-08-05T04:34:11Z</time></trkpt>
<trkpt lat="28.010029" lon="98.634809">
<time>2014-08-05T04:34:12Z</time></trkpt>
<trkpt lat="28.010108" lon="98.634879">
<time>2014-08-05T04:34:13Z</time></trkpt>
<trkpt lat="28.010138" lon="98.634909">
<time>2014-08-05T04:34:14Z</time></trkpt>
<trkpt lat="28.010298" lon="98.635009">
<time>2014-08-05T04:34:15Z</time></trkpt>
<trkpt lat="28.010408" lon="98.635059">
<time>2014-08-05T04:34:16Z</time></trkpt>
<trkpt lat="28.010468" lon="98.635099">
<time>2014-08-05T04:34:17Z</time></trkpt>
<trkpt lat="28.010498" lon="98.635129">
<time>2014-08-05T04:34:18Z</time></trkpt>
<trkpt lat="28.010528" lon="98.635159">
<time>2014-08-05T04:34:19Z</time></trkpt>
<trkpt lat="28.010548" lon="98.635179">
<time>2014-08-05T04:34:20Z</time></trkpt>
<trkpt lat="28.010588" lon="98.635249">
<time>2014-08-05T04:34:21Z</time></trkpt>
<trkpt lat="28.010618" lon="98.635318">
<time>2014-08-05T04:34:22Z</time></trkpt>
<trkpt lat="28.010638" lon="98.635348">
<time>2014-08-05T04:34:23Z</time></trkpt>
<trkpt lat="28.010658" lon="98.635388">
<time>2014-08-05T04:34:24Z</time></trkpt>
<trkpt lat="28.010678" lon="98.635418">
<time>2014-08-05T04:34:25Z</time></trkpt>
<trkpt lat="28.010708" lon="98.635458">
<time>2014-08-05T04:34:26Z</time></trkpt>
<trkpt lat="28.010718" lon="98.635468">
<time>2014-08-05T04:34:27Z</time></trkpt>
<trkpt lat="28.010738" lon="98.635488">
<time>2014-08-05T04:34:28Z</time></trkpt>
<trkpt lat="28.010748" lon="98.635498">
<time>2014-08-05T04:34:29Z</time></trkpt>
<trkpt lat="28.010768" lon="98.635508">
<time>2014-08-05T04:34:30Z</time></trkpt>
<trkpt lat="28.010788" lon="98.635518">
<time>2014-08-05T04:34:31Z</time></trkpt>
<trkpt lat="28.010808" lon="98.635528">
<time>2014-08-05T04:34:32Z</time></trkpt>
<trkpt lat="28.010828" lon="98.635538">
<time>2014-08-05T04:34:33Z</time></trkpt>
<trkpt lat="28.010848" lon="98.635538">
<time>2014-08-05T04:34:34Z</time></trkpt>
<trkpt lat="28.010868" lon="98.635538">
<time>2014-08-05T04:34:35Z</time></trkpt>
<trkpt lat="28.010898" lon="98.635538">
<time>2014-08-05T04:34:36Z</time></trkpt>
<trkpt lat="28.010908" lon="98.635538">
<time>2014-08-05T04:34:37Z</time></trkpt>
<trkpt lat="28.010928" lon="98.635538">
<time>2014-08-05T04:34:38Z</time></trkpt>
<trkpt lat="28.010948" lon="98.635528">
<time>2014-08-05T04:34:39Z</time></trkpt>
<trkpt lat="28.010978" lon="98.635518">
<time>2014-08-05T04:34:40Z</time></trkpt>
<trkpt lat="28.011018" lon="98.635488">
<time>2014-08-05T04:34:41Z</time></trkpt>
<trkpt lat="28.011058" lon="98.635458">
<time>2014-08-05T04:34:42Z</time></trkpt>
<trkpt lat="28.011098" lon="98.635418">
<time>2014-08-05T04:34:43Z</time></trkpt>
<trkpt lat="28.011158" lon="98.635348">
<time>2014-08-05T04:34:44Z</time></trkpt>
<trkpt lat="28.011268" lon="98.635209">
<time>2014-08-05T04:34:45Z</time></trkpt>
<trkpt lat="28.011358" lon="98.635089">
<time>2014-08-05T04:34:46Z</time></trkpt>
<trkpt lat="28.011419" lon="98.635029">
<time>2014-08-05T04:34:47Z</time></trkpt>
<trkpt lat="28.011469" lon="98.634989">
<time>2014-08-05T04:34:48Z</time></trkpt>
<trkpt lat="28.011659" lon="98.634839">
<time>2014-08-05T04:34:49Z</time></trkpt>
<trkpt lat="28.011819" lon="98.63474">
<time>2014-08-05T04:34:50Z</time></trkpt>
<trkpt lat="28.012029" lon="98.6346">
<time>2014-08-05T04:34:51Z</time></trkpt>
<trkpt lat="28.012109" lon="98.63454">
<time>2014-08-05T04:34:52Z</time></trkpt>
<trkpt lat="28.012179" lon="98.63449">
<time>2014-08-05T04:34:53Z</time></trkpt>
<trkpt lat="28.01244" lon="98.634281">
<time>2014-08-05T04:34:54Z</time></trkpt>
<trkpt lat="28.01269" lon="98.634061">
<time>2014-08-05T04:34:55Z</time></trkpt>
<trkpt lat="28.013051" lon="98.633712">
<time>2014-08-05T04:34:56Z</time></trkpt>
<trkpt lat="28.013221" lon="98.633542">
<time>2014-08-05T04:34:57Z</time></trkpt>
<trkpt lat="28.013351" lon="98.633402">
<time>2014-08-05T04:34:58Z</time></trkpt>
<trkpt lat="28.013451" lon="98.633293">
<time>2014-08-05T04:34:59Z</time></trkpt>
<trkpt lat="28.013491" lon="98.633243">
<time>2014-08-05T04:35:00Z</time></trkpt>
<trkpt lat="28.013591" lon="98.633123">
<time>2014-08-05T04:35:01Z</time></trkpt>
<trkpt lat="28.013642" lon="98.633053">
<time>2014-08-05T04:35:02Z</time></trkpt>
<trkpt lat="28.013742" lon="98.632943">
<time>2014-08-05T04:35:03Z</time></trkpt>
<trkpt lat="28.013772" lon="98.632913">
<time>2014-08-05T04:35:04Z</time></trkpt>
<trkpt lat="28.013892" lon="98.632814">
<time>2014-08-05T04:35:05Z</time></trkpt>
<trkpt lat="28.014022" lon="98.632704">
<time>2014-08-05T04:35:06Z</time></trkpt>
<trkpt lat="28.014082" lon="98.632644">
<time>2014-08-05T04:35:07Z</time></trkpt>
<trkpt lat="28.014152" lon="98.632574">
<time>2014-08-05T04:35:08Z</time></trkpt>
<trkpt lat="28.014222" lon="98.632474">
<time>2014-08-05T04:35:09Z</time></trkpt>
<trkpt lat="28.014253" lon="98.632424">
<time>2014-08-05T04:35:10Z</time></trkpt>
<trkpt lat="28.014263" lon="98.632394">
<time>2014-08-05T04:35:11Z</time></trkpt>
<trkpt lat="28.014273" lon="98.632374">
<time>2014-08-05T04:35:12Z</time></trkpt>
<trkpt lat="28.014283" lon="98.632345">
<time>2014-08-05T04:35:13Z</time></trkpt>
<trkpt lat="28.014283" lon="98.632315">
<time>2014-08-05T04:35:14Z</time></trkpt>
<trkpt lat="28.014293" lon="98.632275">
<time>2014-08-05T04:35:15Z</time></trkpt>
<trkpt lat="28.014293" lon="98.632245">
<time>2014-08-05T04:35:16Z</time></trkpt>
<trkpt lat="28.014273" lon="98.632125">
<time>2014-08-05T04:35:17Z</time></trkpt>
<trkpt lat="28.014223" lon="98.632005">
<time>2014-08-05T04:35:18Z</time></trkpt>
<trkpt lat="28.014213" lon="98.631955">
<time>2014-08-05T04:35:19Z</time></trkpt>
<trkpt lat="28.014193" lon="98.631925">
<time>2014-08-05T04:35:20Z</time></trkpt>
<trkpt lat="28.014193" lon="98.631905">
<time>2014-08-05T04:35:21Z</time></trkpt>
<trkpt lat="28.014183" lon="98.631885">
<time>2014-08-05T04:35:22Z</time></trkpt>
<trkpt lat="28.014183" lon="98.631866">
<time>2014-08-05T04:35:23Z</time></trkpt>
<trkpt lat="28.014173" lon="98.631836">
<time>2014-08-05T04:35:24Z</time></trkpt>
<trkpt lat="28.014173" lon="98.631816">
<time>2014-08-05T04:35:25Z</time></trkpt>
<trkpt lat="28.014173" lon="98.631796">
<time>2014-08-05T04:35:26Z</time></trkpt>
<trkpt lat="28.014173" lon="98.631766">
<time>2014-08-05T04:35:27Z</time></trkpt>
<trkpt lat="28.014173" lon="98.631736">
<time>2014-08-05T04:35:28Z</time></trkpt>
<trkpt lat="28.014173" lon="98.631706">
<time>2014-08-05T04:35:29Z</time></trkpt>
<trkpt lat="28.014184" lon="98.631636">
<time>2014-08-05T04:35:30Z</time></trkpt>
<trkpt lat="28.014204" lon="98.631546">
<time>2014-08-05T04:35:31Z</time></trkpt>
<trkpt lat="28.014264" lon="98.631367">
<time>2014-08-05T04:35:32Z</time></trkpt>
<trkpt lat="28.014324" lon="98.631187">
<time>2014-08-05T04:35:33Z</time></trkpt>
<trkpt lat="28.014344" lon="98.631107">
<time>2014-08-05T04:35:34Z</time></trkpt>
<trkpt lat="28.014364" lon="98.631047">
<time>2014-08-05T04:35:35Z</time></trkpt>
<trkpt lat="28.014374" lon="98.630967">
<time>2014-08-05T04:35:36Z</time></trkpt>
<trkpt lat="28.014374" lon="98.630937">
<time>2014-08-05T04:35:37Z</time></trkpt>
<trkpt lat="28.014375" lon="98.630917">
<time>2014-08-05T04:35:38Z</time></trkpt>
<trkpt lat="28.014375" lon="98.630897">
<time>2014-08-05T04:35:39Z</time></trkpt>
<trkpt lat="28.014365" lon="98.630878">
<time>2014-08-05T04:35:40Z</time></trkpt>
<trkpt lat="28.014365" lon="98.630858">
<time>2014-08-05T04:35:41Z</time></trkpt>
<trkpt lat="28.014355" lon="98.630828">
<time>2014-08-05T04:35:42Z</time></trkpt>
<trkpt lat="28.014345" lon="98.630808">
<time>2014-08-05T04:35:43Z</time></trkpt>
<trkpt lat="28.014335" lon="98.630788">
<time>2014-08-05T04:35:44Z</time></trkpt>
<trkpt lat="28.014325" lon="98.630768">
<time>2014-08-05T04:35:45Z</time></trkpt>
<trkpt lat="28.014305" lon="98.630748">
<time>2014-08-05T04:35:46Z</time></trkpt>
<trkpt lat="28.014155" lon="98.630618">
<time>2014-08-05T04:35:47Z</time></trkpt>
<trkpt lat="28.014095" lon="98.630558">
<time>2014-08-05T04:35:48Z</time></trkpt>
<trkpt lat="28.014005" lon="98.630448">
<time>2014-08-05T04:35:49Z</time></trkpt>
<trkpt lat="28.013865" lon="98.630219">
<time>2014-08-05T04:35:50Z</time></trkpt>
<trkpt lat="28.013756" lon="98.630039">
<time>2014-08-05T04:35:51Z</time></trkpt>
<trkpt lat="28.013636" lon="98.62984">
<time>2014-08-05T04:35:52Z</time></trkpt>
<trkpt lat="28.013546" lon="98.6297">
<time>2014-08-05T04:35:53Z</time></trkpt>
<trkpt lat="28.013516" lon="98.62965">
<time>2014-08-05T04:35:54Z</time></trkpt>
<trkpt lat="28.013486" lon="98.62959">
<time>2014-08-05T04:35:55Z</time></trkpt>
<trkpt lat="28.013456" lon="98.62953">
<time>2014-08-05T04:35:56Z</time></trkpt>
<trkpt lat="28.013436" lon="98.62945">
<time>2014-08-05T04:35:57Z</time></trkpt>
<trkpt lat="28.013406" lon="98.629341">
<time>2014-08-05T04:35:58Z</time></trkpt>
<trkpt lat="28.013357" lon="98.629121">
<time>2014-08-05T04:35:59Z</time></trkpt>
<trkpt lat="28.013327" lon="98.628971">
<time>2014-08-05T04:36:00Z</time></trkpt>
<trkpt lat="28.013317" lon="98.628851">
<time>2014-08-05T04:36:01Z</time></trkpt>
<trkpt lat="28.013307" lon="98.628622">
<time>2014-08-05T04:36:02Z</time></trkpt>
<trkpt lat="28.013297" lon="98.628492">
<time>2014-08-05T04:36:03Z</time></trkpt>
<trkpt lat="28.013268" lon="98.628352">
<time>2014-08-05T04:36:04Z</time></trkpt>
<trkpt lat="28.013238" lon="98.628213">
<time>2014-08-05T04:36:05Z</time></trkpt>
<trkpt lat="28.013198" lon="98.628083">
<time>2014-08-05T04:36:06Z</time></trkpt>
<trkpt lat="28.013138" lon="98.627903">
<time>2014-08-05T04:36:07Z</time></trkpt>
<trkpt lat="28.013118" lon="98.627833">
<time>2014-08-05T04:36:08Z</time></trkpt>
<trkpt lat="28.013108" lon="98.627803">
<time>2014-08-05T04:36:09Z</time></trkpt>
<trkpt lat="28.013048" lon="98.627674">
<time>2014-08-05T04:36:10Z</time></trkpt>
<trkpt lat="28.013028" lon="98.627624">
<time>2014-08-05T04:36:11Z</time></trkpt>
<trkpt lat="28.012978" lon="98.627534">
<time>2014-08-05T04:36:12Z</time></trkpt>
<trkpt lat="28.012968" lon="98.627484">
<time>2014-08-05T04:36:13Z</time></trkpt>
<trkpt lat="28.012939" lon="98.627434">
<time>2014-08-05T04:36:14Z</time></trkpt>
<trkpt lat="28.012939" lon="98.627424">
<time>2014-08-05T04:36:15Z</time></trkpt>
<trkpt lat="28.012919" lon="98.627394">
<time>2014-08-05T04:36:16Z</time></trkpt>
<trkpt lat="28.012899" lon="98.627334">
<time>2014-08-05T04:36:17Z</time></trkpt>
<trkpt lat="28.012879" lon="98.627294">
<time>2014-08-05T04:36:18Z</time></trkpt>
<trkpt lat="28.012869" lon="98.627255">
<time>2014-08-05T04:36:19Z</time></trkpt>
<trkpt lat="28.012849" lon="98.627205">
<time>2014-08-05T04:36:20Z</time></trkpt>
<trkpt lat="28.012809" lon="98.627105">
<time>2014-08-05T04:36:21Z</time></trkpt>
<trkpt lat="28.012789" lon="98.627045">
<time>2014-08-05T04:36:22Z</time></trkpt>
<trkpt lat="28.012779" lon="98.626995">
<time>2014-08-05T04:36:23Z</time></trkpt>
<trkpt lat="28.012759" lon="98.626865">
<time>2014-08-05T04:36:24Z</time></trkpt>
<trkpt lat="28.012749" lon="98.626735">
<time>2014-08-05T04:36:25Z</time></trkpt>
<trkpt lat="28.012739" lon="98.626696">
<time>2014-08-05T04:36:26Z</time></trkpt>
<trkpt lat="28.012739" lon="98.626646">
<time>2014-08-05T04:36:27Z</time></trkpt>
<trkpt lat="28.01274" lon="98.626566">
<time>2014-08-05T04:36:28Z</time></trkpt>
<trkpt lat="28.01273" lon="98.626526">
<time>2014-08-05T04:36:29Z</time></trkpt>
<trkpt lat="28.01273" lon="98.626476">
<time>2014-08-05T04:36:30Z</time></trkpt>
<trkpt lat="28.01272" lon="98.626386">
<time>2014-08-05T04:36:31Z</time></trkpt>
<trkpt lat="28.01271" lon="98.626336">
<time>2014-08-05T04:36:32Z</time></trkpt>
<trkpt lat="28.0127" lon="98.626206">
<time>2014-08-05T04:36:33Z</time></trkpt>
<trkpt lat="28.01268" lon="98.626077">
<time>2014-08-05T04:36:34Z</time></trkpt>
<trkpt lat="28.01268" lon="98.626067">
<time>2014-08-05T04:36:35Z</time></trkpt>
<trkpt lat="28.01268" lon="98.626017">
<time>2014-08-05T04:36:36Z</time></trkpt>
<trkpt lat="28.01269" lon="98.625947">
<time>2014-08-05T04:36:37Z</time></trkpt>
<trkpt lat="28.0127" lon="98.625907">
<time>2014-08-05T04:36:38Z</time></trkpt>
<trkpt lat="28.0127" lon="98.625867">
<time>2014-08-05T04:36:39Z</time></trkpt>
<trkpt lat="28.01272" lon="98.625817">
<time>2014-08-05T04:36:40Z</time></trkpt>
<trkpt lat="28.01274" lon="98.625777">
<time>2014-08-05T04:36:41Z</time></trkpt>
<trkpt lat="28.01276" lon="98.625757">
<time>2014-08-05T04:36:42Z</time></trkpt>
<trkpt lat="28.01278" lon="98.625717">
<time>2014-08-05T04:36:43Z</time></trkpt>
<trkpt lat="28.012821" lon="98.625677">
<time>2014-08-05T04:36:44Z</time></trkpt>
<trkpt lat="28.012871" lon="98.625627">
<time>2014-08-05T04:36:45Z</time></trkpt>
<trkpt lat="28.013041" lon="98.625488">
<time>2014-08-05T04:36:46Z</time></trkpt>
<trkpt lat="28.013201" lon="98.625368">
<time>2014-08-05T04:36:47Z</time></trkpt>
<trkpt lat="28.013291" lon="98.625298">
<time>2014-08-05T04:36:48Z</time></trkpt>
<trkpt lat="28.013331" lon="98.625258">
<time>2014-08-05T04:36:49Z</time></trkpt>
<trkpt lat="28.013381" lon="98.625218">
<time>2014-08-05T04:36:50Z</time></trkpt>
<trkpt lat="28.013401" lon="98.625208">
<time>2014-08-05T04:36:51Z</time></trkpt>
<trkpt lat="28.013421" lon="98.625188">
<time>2014-08-05T04:36:52Z</time></trkpt>
<trkpt lat="28.013441" lon="98.625168">
<time>2014-08-05T04:36:53Z</time></trkpt>
<trkpt lat="28.013491" lon="98.625118">
<time>2014-08-05T04:36:54Z</time></trkpt>
<trkpt lat="28.013541" lon="98.625078">
<time>2014-08-05T04:36:55Z</time></trkpt>
<trkpt lat="28.013601" lon="98.625039">
<time>2014-08-05T04:36:56Z</time></trkpt>
<trkpt lat="28.013661" lon="98.624979">
<time>2014-08-05T04:36:57Z</time></trkpt>
<trkpt lat="28.013752" lon="98.624899">
<time>2014-08-05T04:36:58Z</time></trkpt>
<trkpt lat="28.013822" lon="98.624829">
<time>2014-08-05T04:36:59Z</time></trkpt>
<trkpt lat="28.013922" lon="98.624729">
<time>2014-08-05T04:37:00Z</time></trkpt>
<trkpt lat="28.014052" lon="98.624579">
<time>2014-08-05T04:37:01Z</time></trkpt>
<trkpt lat="28.014102" lon="98.624529">
<time>2014-08-05T04:37:02Z</time></trkpt>
<trkpt lat="28.014232" lon="98.6244">
<time>2014-08-05T04:37:03Z</time></trkpt>
<trkpt lat="28.014262" lon="98.62436">
<time>2014-08-05T04:37:04Z</time></trkpt>
<trkpt lat="28.014312" lon="98.6243">
<time>2014-08-05T04:37:05Z</time></trkpt>
<trkpt lat="28.014322" lon="98.6243">
<time>2014-08-05T04:37:06Z</time></trkpt>
<trkpt lat="28.014322" lon="98.62429">
<time>2014-08-05T04:37:07Z</time></trkpt>
<trkpt lat="28.014332" lon="98.62429">
<time>2014-08-05T04:37:08Z</time></trkpt>
<trkpt lat="28.014342" lon="98.62428">
<time>2014-08-05T04:37:09Z</time></trkpt>
<trkpt lat="28.014362" lon="98.62425">
<time>2014-08-05T04:37:10Z</time></trkpt>
<trkpt lat="28.014422" lon="98.62419">
<time>2014-08-05T04:37:11Z</time></trkpt>
<trkpt lat="28.014442" lon="98.62416">
<time>2014-08-05T04:37:12Z</time></trkpt>
<trkpt lat="28.014452" lon="98.62416">
<time>2014-08-05T04:37:13Z</time></trkpt>
<trkpt lat="28.014452" lon="98.62415">
<time>2014-08-05T04:37:14Z</time></trkpt>
<trkpt lat="28.014472" lon="98.62413">
<time>2014-08-05T04:37:15Z</time></trkpt>
<trkpt lat="28.014503" lon="98.6241">
<time>2014-08-05T04:37:16Z</time></trkpt>
<trkpt lat="28.014533" lon="98.62407">
<time>2014-08-05T04:37:17Z</time></trkpt>
<trkpt lat="28.014573" lon="98.62402">
<time>2014-08-05T04:37:18Z</time></trkpt>
<trkpt lat="28.014673" lon="98.62393">
<time>2014-08-05T04:37:19Z</time></trkpt>
<trkpt lat="28.014803" lon="98.623831">
<time>2014-08-05T04:37:20Z</time></trkpt>
<trkpt lat="28.014943" lon="98.623731">
<time>2014-08-05T04:37:21Z</time></trkpt>
<trkpt lat="28.015203" lon="98.623581">
<time>2014-08-05T04:37:22Z</time></trkpt>
<trkpt lat="28.015403" lon="98.623471">
<time>2014-08-05T04:37:23Z</time></trkpt>
<trkpt lat="28.015563" lon="98.623381">
<time>2014-08-05T04:37:24Z</time></trkpt>
<trkpt lat="28.015583" lon="98.623371">
<time>2014-08-05T04:37:25Z</time></trkpt>
<trkpt lat="28.015593" lon="98.623361">
<time>2014-08-05T04:37:26Z</time></trkpt>
<trkpt lat="28.015613" lon="98.623351">
<time>2014-08-05T04:37:27Z</time></trkpt>
<trkpt lat="28.015654" lon="98.623321">
<time>2014-08-05T04:37:28Z</time></trkpt>
<trkpt lat="28.015774" lon="98.623252">
<time>2014-08-05T04:37:29Z</time></trkpt>
<trkpt lat="28.015904" lon="98.623182">
<time>2014-08-05T04:37:30Z</time></trkpt>
<trkpt lat="28.016044" lon="98.623112">
<time>2014-08-05T04:37:31Z</time></trkpt>
<trkpt lat="28.016184" lon="98.623032">
<time>2014-08-05T04:37:32Z</time></trkpt>
<trkpt lat="28.016334" lon="98.622952">
<time>2014-08-05T04:37:33Z</time></trkpt>
<trkpt lat="28.016534" lon="98.622822">
<time>2014-08-05T04:37:34Z</time></trkpt>
<trkpt lat="28.016734" lon="98.622713">
<time>2014-08-05T04:37:35Z</time></trkpt>
<trkpt lat="28.016874" lon="98.622623">
<time>2014-08-05T04:37:36Z</time></trkpt>
<trkpt lat="28.017015" lon="98.622523">
<time>2014-08-05T04:37:37Z</time></trkpt>
<trkpt lat="28.017215" lon="98.622403">
<time>2014-08-05T04:37:38Z</time></trkpt>
<trkpt lat="28.017315" lon="98.622343">
<time>2014-08-05T04:37:39Z</time></trkpt>
<trkpt lat="28.017415" lon="98.622283">
<time>2014-08-05T04:37:40Z</time></trkpt>
<trkpt lat="28.017485" lon="98.622223">
<time>2014-08-05T04:37:41Z</time></trkpt>
<trkpt lat="28.017575" lon="98.622183">
<time>2014-08-05T04:37:42Z</time></trkpt>
<trkpt lat="28.017735" lon="98.622094">
<time>2014-08-05T04:37:43Z</time></trkpt>
<trkpt lat="28.017885" lon="98.622004">
<time>2014-08-05T04:37:44Z</time></trkpt>
<trkpt lat="28.018005" lon="98.621944">
<time>2014-08-05T04:37:45Z</time></trkpt>
<trkpt lat="28.018065" lon="98.621904">
<time>2014-08-05T04:37:46Z</time></trkpt>
<trkpt lat="28.018346" lon="98.621744">
<time>2014-08-05T04:37:47Z</time></trkpt>
<trkpt lat="28.018606" lon="98.621604">
<time>2014-08-05T04:37:48Z</time></trkpt>
<trkpt lat="28.018736" lon="98.621524">
<time>2014-08-05T04:37:49Z</time></trkpt>
<trkpt lat="28.018806" lon="98.621485">
<time>2014-08-05T04:37:50Z</time></trkpt>
<trkpt lat="28.018896" lon="98.621445">
<time>2014-08-05T04:37:51Z</time></trkpt>
<trkpt lat="28.018926" lon="98.621435">
<time>2014-08-05T04:37:52Z</time></trkpt>
<trkpt lat="28.018946" lon="98.621415">
<time>2014-08-05T04:37:53Z</time></trkpt>
<trkpt lat="28.018946" lon="98.621415">
<time>2014-08-05T04:37:54Z</time></trkpt>
<trkpt lat="28.020394" lon="98.62397">
<time>2014-08-05T04:37:55Z</time></trkpt>
<trkpt lat="28.020523" lon="98.62416">
<time>2014-08-05T04:37:56Z</time></trkpt>
<trkpt lat="28.020563" lon="98.6242">
<time>2014-08-05T04:37:57Z</time></trkpt>
<trkpt lat="28.020613" lon="98.6242">
<time>2014-08-05T04:37:58Z</time></trkpt>
<trkpt lat="28.020673" lon="98.62419">
<time>2014-08-05T04:37:59Z</time></trkpt>
<trkpt lat="28.020774" lon="98.62413">
<time>2014-08-05T04:38:00Z</time></trkpt>
<trkpt lat="28.020924" lon="98.62399">
<time>2014-08-05T04:38:01Z</time></trkpt>
<trkpt lat="28.021014" lon="98.62391">
<time>2014-08-05T04:38:02Z</time></trkpt>
<trkpt lat="28.021074" lon="98.62392">
<time>2014-08-05T04:38:03Z</time></trkpt>
<trkpt lat="28.021134" lon="98.62396">
<time>2014-08-05T04:38:04Z</time></trkpt>
<trkpt lat="28.021254" lon="98.62417">
<time>2014-08-05T04:38:05Z</time></trkpt>
<trkpt lat="28.021324" lon="98.62421">
<time>2014-08-05T04:38:06Z</time></trkpt>
<trkpt lat="28.021364" lon="98.62422">
<time>2014-08-05T04:38:07Z</time></trkpt>
<trkpt lat="28.021414" lon="98.62421">
<time>2014-08-05T04:38:08Z</time></trkpt>
<trkpt lat="28.021464" lon="98.62418">
<time>2014-08-05T04:38:09Z</time></trkpt>
<trkpt lat="28.021514" lon="98.62414">
<time>2014-08-05T04:38:10Z</time></trkpt>
<trkpt lat="28.021644" lon="98.623801">
<time>2014-08-05T04:38:11Z</time></trkpt>
<trkpt lat="28.021785" lon="98.623232">
<time>2014-08-05T04:38:12Z</time></trkpt>
<trkpt lat="28.021765" lon="98.622692">
<time>2014-08-05T04:38:13Z</time></trkpt>
<trkpt lat="28.021815" lon="98.622623">
<time>2014-08-05T04:38:14Z</time></trkpt>
<trkpt lat="28.021875" lon="98.622573">
<time>2014-08-05T04:38:15Z</time></trkpt>
<trkpt lat="28.022015" lon="98.622792">
<time>2014-08-05T04:38:16Z</time></trkpt>
<trkpt lat="28.022154" lon="98.623451">
<time>2014-08-05T04:38:17Z</time></trkpt>
<trkpt lat="28.022144" lon="98.6241">
<time>2014-08-05T04:38:18Z</time></trkpt>
<trkpt lat="28.021943" lon="98.624559">
<time>2014-08-05T04:38:19Z</time></trkpt>
<trkpt lat="28.021073" lon="98.625038">
<time>2014-08-05T04:38:20Z</time></trkpt>
<trkpt lat="28.020572" lon="98.625308">
<time>2014-08-05T04:38:21Z</time></trkpt>
<trkpt lat="28.019602" lon="98.625767">
<time>2014-08-05T04:38:22Z</time></trkpt>
<trkpt lat="28.019021" lon="98.625977">
<time>2014-08-05T04:38:23Z</time></trkpt>
<trkpt lat="28.019041" lon="98.626087">
<time>2014-08-05T04:38:24Z</time></trkpt>
<trkpt lat="28.019431" lon="98.626107">
<time>2014-08-05T04:38:25Z</time></trkpt>
<trkpt lat="28.019951" lon="98.626067">
<time>2014-08-05T04:38:26Z</time></trkpt>
<trkpt lat="28.020171" lon="98.626246">
<time>2014-08-05T04:38:27Z</time></trkpt>
<trkpt lat="28.020611" lon="98.626626">
<time>2014-08-05T04:38:28Z</time></trkpt>
<trkpt lat="28.021071" lon="98.626835">
<time>2014-08-05T04:38:29Z</time></trkpt>
<trkpt lat="28.02147" lon="98.627155">
<time>2014-08-05T04:38:30Z</time></trkpt>
<trkpt lat="28.02156" lon="98.627454">
<time>2014-08-05T04:38:31Z</time></trkpt>
<trkpt lat="28.02171" lon="98.627723">
<time>2014-08-05T04:38:32Z</time></trkpt>
<trkpt lat="28.02254" lon="98.627723">
<time>2014-08-05T04:38:33Z</time></trkpt>
<trkpt lat="28.02338" lon="98.627444">
<time>2014-08-05T04:38:34Z</time></trkpt>
<trkpt lat="28.02353" lon="98.627374">
<time>2014-08-05T04:38:35Z</time></trkpt>
<trkpt lat="28.02362" lon="98.627314">
<time>2014-08-05T04:38:36Z</time></trkpt>
<trkpt lat="28.023701" lon="98.627234">
<time>2014-08-05T04:38:37Z</time></trkpt>
<trkpt lat="28.023801" lon="98.627115">
<time>2014-08-05T04:38:38Z</time></trkpt>
<trkpt lat="28.023911" lon="98.626915">
<time>2014-08-05T04:38:39Z</time></trkpt>
<trkpt lat="28.023931" lon="98.626825">
<time>2014-08-05T04:38:40Z</time></trkpt>
<trkpt lat="28.023931" lon="98.626725">
<time>2014-08-05T04:38:41Z</time></trkpt>
<trkpt lat="28.023891" lon="98.626576">
<time>2014-08-05T04:38:42Z</time></trkpt>
<trkpt lat="28.023871" lon="98.626496">
<time>2014-08-05T04:38:43Z</time></trkpt>
<trkpt lat="28.023862" lon="98.626386">
<time>2014-08-05T04:38:44Z</time></trkpt>
<trkpt lat="28.023902" lon="98.626236">
<time>2014-08-05T04:38:45Z</time></trkpt>
<trkpt lat="28.023952" lon="98.626096">
<time>2014-08-05T04:38:46Z</time></trkpt>
<trkpt lat="28.023962" lon="98.625957">
<time>2014-08-05T04:38:47Z</time></trkpt>
<trkpt lat="28.023932" lon="98.625867">
<time>2014-08-05T04:38:48Z</time></trkpt>
<trkpt lat="28.023772" lon="98.625667">
<time>2014-08-05T04:38:49Z</time></trkpt>
<trkpt lat="28.023603" lon="98.625418">
<time>2014-08-05T04:38:50Z</time></trkpt>
<trkpt lat="28.023503" lon="98.625238">
<time>2014-08-05T04:38:51Z</time></trkpt>
<trkpt lat="28.023453" lon="98.625038">
<time>2014-08-05T04:38:52Z</time></trkpt>
<trkpt lat="28.023254" lon="98.624499">
<time>2014-08-05T04:38:53Z</time></trkpt>
<trkpt lat="28.023254" lon="98.62406">
<time>2014-08-05T04:38:54Z</time></trkpt>
<trkpt lat="28.023344" lon="98.623651">
<time>2014-08-05T04:38:55Z</time></trkpt>
<trkpt lat="28.023595" lon="98.623431">
<time>2014-08-05T04:38:56Z</time></trkpt>
<trkpt lat="28.023895" lon="98.623371">
<time>2014-08-05T04:38:57Z</time></trkpt>
<trkpt lat="28.024025" lon="98.623671">
<time>2014-08-05T04:38:58Z</time></trkpt>
<trkpt lat="28.023894" lon="98.624449">
<time>2014-08-05T04:38:59Z</time></trkpt>
<trkpt lat="28.024033" lon="98.624839">
<time>2014-08-05T04:39:00Z</time></trkpt>
<trkpt lat="28.024283" lon="98.625038">
<time>2014-08-05T04:39:01Z</time></trkpt>
<trkpt lat="28.024333" lon="98.625078">
<time>2014-08-05T04:39:02Z</time></trkpt>
<trkpt lat="28.024853" lon="98.625208">
<time>2014-08-05T04:39:03Z</time></trkpt>
<trkpt lat="28.025413" lon="98.625388">
<time>2014-08-05T04:39:04Z</time></trkpt>
<trkpt lat="28.026452" lon="98.626146">
<time>2014-08-05T04:39:05Z</time></trkpt>
<trkpt lat="28.026712" lon="98.626466">
<time>2014-08-05T04:39:06Z</time></trkpt>
<trkpt lat="28.026972" lon="98.626206">
<time>2014-08-05T04:39:07Z</time></trkpt>
<trkpt lat="28.027273" lon="98.625567">
<time>2014-08-05T04:39:08Z</time></trkpt>
<trkpt lat="28.027474" lon="98.625038">
<time>2014-08-05T04:39:09Z</time></trkpt>
<trkpt lat="28.027534" lon="98.624869">
<time>2014-08-05T04:39:10Z</time></trkpt>
<trkpt lat="28.027624" lon="98.6243">
<time>2014-08-05T04:39:11Z</time></trkpt>
<trkpt lat="28.027875" lon="98.623441">
<time>2014-08-05T04:39:12Z</time></trkpt>
<trkpt lat="28.027906" lon="98.622792">
<time>2014-08-05T04:39:13Z</time></trkpt>
<trkpt lat="28.027797" lon="98.622303">
<time>2014-08-05T04:39:14Z</time></trkpt>
<trkpt lat="28.027837" lon="98.621994">
<time>2014-08-05T04:39:15Z</time></trkpt>
<trkpt lat="28.027897" lon="98.621644">
<time>2014-08-05T04:39:16Z</time></trkpt>
<trkpt lat="28.027757" lon="98.621424">
<time>2014-08-05T04:39:17Z</time></trkpt>
<trkpt lat="28.027668" lon="98.621195">
<time>2014-08-05T04:39:18Z</time></trkpt>
<trkpt lat="28.027858" lon="98.621045">
<time>2014-08-05T04:39:19Z</time></trkpt>
<trkpt lat="28.028208" lon="98.620775">
<time>2014-08-05T04:39:20Z</time></trkpt>
<trkpt lat="28.028308" lon="98.620526">
<time>2014-08-05T04:39:21Z</time></trkpt>
<trkpt lat="28.028269" lon="98.620216">
<time>2014-08-05T04:39:22Z</time></trkpt>
<trkpt lat="28.028239" lon="98.619637">
<time>2014-08-05T04:39:23Z</time></trkpt>
<trkpt lat="28.028439" lon="98.619408">
<time>2014-08-05T04:39:24Z</time></trkpt>
<trkpt lat="28.02912" lon="98.619188">
<time>2014-08-05T04:39:25Z</time></trkpt>
<trkpt lat="28.02949" lon="98.618998">
<time>2014-08-05T04:39:26Z</time></trkpt>
<trkpt lat="28.02967" lon="98.618918">
<time>2014-08-05T04:39:27Z</time></trkpt>
<trkpt lat="28.02991" lon="98.618629">
<time>2014-08-05T04:39:28Z</time></trkpt>
<trkpt lat="28.030521" lon="98.61807">
<time>2014-08-05T04:39:29Z</time></trkpt>
<trkpt lat="28.031072" lon="98.617381">
<time>2014-08-05T04:39:30Z</time></trkpt>
<trkpt lat="28.031592" lon="98.616941">
<time>2014-08-05T04:39:31Z</time></trkpt>
<trkpt lat="28.031902" lon="98.616492">
<time>2014-08-05T04:39:32Z</time></trkpt>
<trkpt lat="28.032153" lon="98.616122">
<time>2014-08-05T04:39:33Z</time></trkpt>
<trkpt lat="28.032333" lon="98.615583">
<time>2014-08-05T04:39:34Z</time></trkpt>
<trkpt lat="28.032303" lon="98.615204">
<time>2014-08-05T04:39:35Z</time></trkpt>
<trkpt lat="28.032294" lon="98.615004">
<time>2014-08-05T04:39:36Z</time></trkpt>
<trkpt lat="28.032464" lon="98.615034">
<time>2014-08-05T04:39:37Z</time></trkpt>
<trkpt lat="28.032633" lon="98.615304">
<time>2014-08-05T04:39:38Z</time></trkpt>
<trkpt lat="28.032793" lon="98.615453">
<time>2014-08-05T04:39:39Z</time></trkpt>
<trkpt lat="28.033214" lon="98.614395">
<time>2014-08-05T04:39:40Z</time></trkpt>
<trkpt lat="28.033955" lon="98.612667">
<time>2014-08-05T04:39:41Z</time></trkpt>
<trkpt lat="28.034807" lon="98.610759">
<time>2014-08-05T04:39:42Z</time></trkpt>
<trkpt lat="28.035297" lon="98.60987">
<time>2014-08-05T04:39:43Z</time></trkpt>
<trkpt lat="28.036218" lon="98.608602">
<time>2014-08-05T04:39:44Z</time></trkpt>
<trkpt lat="28.036298" lon="98.608352">
<time>2014-08-05T04:39:45Z</time></trkpt>
<trkpt lat="28.036258" lon="98.608002">
<time>2014-08-05T04:39:46Z</time></trkpt>
<trkpt lat="28.036949" lon="98.606634">
<time>2014-08-05T04:39:47Z</time></trkpt>
<trkpt lat="28.037" lon="98.605405">
<time>2014-08-05T04:39:48Z</time></trkpt>
<trkpt lat="28.03687" lon="98.605015">
<time>2014-08-05T04:39:49Z</time></trkpt>
<trkpt lat="28.03545" lon="98.603446">
<time>2014-08-05T04:39:50Z</time></trkpt>
<trkpt lat="28.03476" lon="98.602527">
<time>2014-08-05T04:39:51Z</time></trkpt>
<trkpt lat="28.03431" lon="98.601838">
<time>2014-08-05T04:39:52Z</time></trkpt>
<trkpt lat="28.03421" lon="98.601788">
<time>2014-08-05T04:39:53Z</time></trkpt>
<trkpt lat="28.03414" lon="98.601758">
<time>2014-08-05T04:39:54Z</time></trkpt>
<trkpt lat="28.03409" lon="98.601708">
<time>2014-08-05T04:39:55Z</time></trkpt>
<trkpt lat="28.03402" lon="98.601638">
<time>2014-08-05T04:39:56Z</time></trkpt>
<trkpt lat="28.03395" lon="98.601538">
<time>2014-08-05T04:39:57Z</time></trkpt>
<trkpt lat="28.03391" lon="98.601448">
<time>2014-08-05T04:39:58Z</time></trkpt>
<trkpt lat="28.03387" lon="98.601318">
<time>2014-08-05T04:39:59Z</time></trkpt>
<trkpt lat="28.03384" lon="98.601128">
<time>2014-08-05T04:40:00Z</time></trkpt>
<trkpt lat="28.03382" lon="98.600978">
<time>2014-08-05T04:40:01Z</time></trkpt>
<trkpt lat="28.03382" lon="98.600928">
<time>2014-08-05T04:40:02Z</time></trkpt>
<trkpt lat="28.03381" lon="98.600888">
<time>2014-08-05T04:40:03Z</time></trkpt>
<trkpt lat="28.0338" lon="98.600838">
<time>2014-08-05T04:40:04Z</time></trkpt>
<trkpt lat="28.03379" lon="98.600808">
<time>2014-08-05T04:40:05Z</time></trkpt>
<trkpt lat="28.03377" lon="98.600768">
<time>2014-08-05T04:40:06Z</time></trkpt>
<trkpt lat="28.03374" lon="98.600718">
<time>2014-08-05T04:40:07Z</time></trkpt>
<trkpt lat="28.03371" lon="98.600668">
<time>2014-08-05T04:40:08Z</time></trkpt>
<trkpt lat="28.03369" lon="98.600619">
<time>2014-08-05T04:40:09Z</time></trkpt>
<trkpt lat="28.03366" lon="98.600559">
<time>2014-08-05T04:40:10Z</time></trkpt>
<trkpt lat="28.03363" lon="98.600449">
<time>2014-08-05T04:40:11Z</time></trkpt>
<trkpt lat="28.03362" lon="98.600369">
<time>2014-08-05T04:40:12Z</time></trkpt>
<trkpt lat="28.03361" lon="98.600299">
<time>2014-08-05T04:40:13Z</time></trkpt>
<trkpt lat="28.03362" lon="98.600189">
<time>2014-08-05T04:40:14Z</time></trkpt>
<trkpt lat="28.03362" lon="98.600099">
<time>2014-08-05T04:40:15Z</time></trkpt>
<trkpt lat="28.03361" lon="98.600029">
<time>2014-08-05T04:40:16Z</time></trkpt>
<trkpt lat="28.03359" lon="98.599959">
<time>2014-08-05T04:40:17Z</time></trkpt>
<trkpt lat="28.03357" lon="98.599879">
<time>2014-08-05T04:40:18Z</time></trkpt>
<trkpt lat="28.03355" lon="98.599819">
<time>2014-08-05T04:40:19Z</time></trkpt>
<trkpt lat="28.03353" lon="98.599779">
<time>2014-08-05T04:40:20Z</time></trkpt>
<trkpt lat="28.03351" lon="98.599699">
<time>2014-08-05T04:40:21Z</time></trkpt>
<trkpt lat="28.0335" lon="98.599649">
<time>2014-08-05T04:40:22Z</time></trkpt>
<trkpt lat="28.03349" lon="98.599599">
<time>2014-08-05T04:40:23Z</time></trkpt>
<trkpt lat="28.03349" lon="98.599539">
<time>2014-08-05T04:40:24Z</time></trkpt>
<trkpt lat="28.0337" lon="98.59893">
<time>2014-08-05T04:40:25Z</time></trkpt>
<trkpt lat="28.03378" lon="98.59843">
<time>2014-08-05T04:40:26Z</time></trkpt>
<trkpt lat="28.03402" lon="98.59806">
<time>2014-08-05T04:40:27Z</time></trkpt>
<trkpt lat="28.03445" lon="98.59768">
<time>2014-08-05T04:40:28Z</time></trkpt>
<trkpt lat="28.03455" lon="98.59763">
<time>2014-08-05T04:40:29Z</time></trkpt>
<trkpt lat="28.034731" lon="98.5975">
<time>2014-08-05T04:40:30Z</time></trkpt>
<trkpt lat="28.035201" lon="98.59732">
<time>2014-08-05T04:40:31Z</time></trkpt>
<trkpt lat="28.035771" lon="98.596901">
<time>2014-08-05T04:40:32Z</time></trkpt>
<trkpt lat="28.036011" lon="98.596831">
<time>2014-08-05T04:40:33Z</time></trkpt>
<trkpt lat="28.036681" lon="98.596491">
<time>2014-08-05T04:40:34Z</time></trkpt>
<trkpt lat="28.036871" lon="98.596401">
<time>2014-08-05T04:40:35Z</time></trkpt>
<trkpt lat="28.037071" lon="98.596241">
<time>2014-08-05T04:40:36Z</time></trkpt>
<trkpt lat="28.037441" lon="98.596371">
<time>2014-08-05T04:40:37Z</time></trkpt>
<trkpt lat="28.037631" lon="98.596401">
<time>2014-08-05T04:40:38Z</time></trkpt>
<trkpt lat="28.037811" lon="98.596391">
<time>2014-08-05T04:40:39Z</time></trkpt>
<trkpt lat="28.038581" lon="98.596451">
<time>2014-08-05T04:40:40Z</time></trkpt>
<trkpt lat="28.038811" lon="98.596431">
<time>2014-08-05T04:40:41Z</time></trkpt>
<trkpt lat="28.039151" lon="98.596141">
<time>2014-08-05T04:40:42Z</time></trkpt>
<trkpt lat="28.039331" lon="98.596121">
<time>2014-08-05T04:40:43Z</time></trkpt>
<trkpt lat="28.039701" lon="98.596171">
<time>2014-08-05T04:40:44Z</time></trkpt>
<trkpt lat="28.040041" lon="98.596131">
<time>2014-08-05T04:40:45Z</time></trkpt>
<trkpt lat="28.040301" lon="98.595831">
<time>2014-08-05T04:40:46Z</time></trkpt>
<trkpt lat="28.040451" lon="98.595721">
<time>2014-08-05T04:40:47Z</time></trkpt>
<trkpt lat="28.040521" lon="98.595531">
<time>2014-08-05T04:40:48Z</time></trkpt>
<trkpt lat="28.040681" lon="98.595381">
<time>2014-08-05T04:40:49Z</time></trkpt>
<trkpt lat="28.040821" lon="98.595281">
<time>2014-08-05T04:40:50Z</time></trkpt>
<trkpt lat="28.041041" lon="98.594861">
<time>2014-08-05T04:40:51Z</time></trkpt>
<trkpt lat="28.041161" lon="98.594691">
<time>2014-08-05T04:40:52Z</time></trkpt>
<trkpt lat="28.041271" lon="98.594611">
<time>2014-08-05T04:40:53Z</time></trkpt>
<trkpt lat="28.041431" lon="98.594412">
<time>2014-08-05T04:40:54Z</time></trkpt>
<trkpt lat="28.041511" lon="98.594192">
<time>2014-08-05T04:40:55Z</time></trkpt>
<trkpt lat="28.041571" lon="98.593922">
<time>2014-08-05T04:40:56Z</time></trkpt>
<trkpt lat="28.041731" lon="98.593722">
<time>2014-08-05T04:40:57Z</time></trkpt>
<trkpt lat="28.042171" lon="98.593562">
<time>2014-08-05T04:40:58Z</time></trkpt>
<trkpt lat="28.042341" lon="98.593432">
<time>2014-08-05T04:40:59Z</time></trkpt>
<trkpt lat="28.042421" lon="98.593272">
<time>2014-08-05T04:41:00Z</time></trkpt>
<trkpt lat="28.042611" lon="98.593052">
<time>2014-08-05T04:41:01Z</time></trkpt>
<trkpt lat="28.042911" lon="98.592982">
<time>2014-08-05T04:41:02Z</time></trkpt>
<trkpt lat="28.043161" lon="98.592812">
<time>2014-08-05T04:41:03Z</time></trkpt>
<trkpt lat="28.043731" lon="98.592702">
<time>2014-08-05T04:41:04Z</time></trkpt>
<trkpt lat="28.044031" lon="98.592512">
<time>2014-08-05T04:41:05Z</time></trkpt>
<trkpt lat="28.044641" lon="98.592122">
<time>2014-08-05T04:41:06Z</time></trkpt>
<trkpt lat="28.044801" lon="98.591942">
<time>2014-08-05T04:41:07Z</time></trkpt>
<trkpt lat="28.045111" lon="98.591762">
<time>2014-08-05T04:41:08Z</time></trkpt>
<trkpt lat="28.045341" lon="98.591702">
<time>2014-08-05T04:41:09Z</time></trkpt>
<trkpt lat="28.045992" lon="98.591732">
<time>2014-08-05T04:41:10Z</time></trkpt>
<trkpt lat="28.046292" lon="98.591732">
<time>2014-08-05T04:41:11Z</time></trkpt>
<trkpt lat="28.046762" lon="98.591582">
<time>2014-08-05T04:41:12Z</time></trkpt>
<trkpt lat="28.047112" lon="98.591572">
<time>2014-08-05T04:41:13Z</time></trkpt>
<trkpt lat="28.047442" lon="98.591652">
<time>2014-08-05T04:41:14Z</time></trkpt>
<trkpt lat="28.047902" lon="98.591982">
<time>2014-08-05T04:41:15Z</time></trkpt>
<trkpt lat="28.048252" lon="98.591982">
<time>2014-08-05T04:41:16Z</time></trkpt>
<trkpt lat="28.048892" lon="98.592082">
<time>2014-08-05T04:41:17Z</time></trkpt>
<trkpt lat="28.049322" lon="98.592352">
<time>2014-08-05T04:41:18Z</time></trkpt>
<trkpt lat="28.049652" lon="98.592562">
<time>2014-08-05T04:41:19Z</time></trkpt>
<trkpt lat="28.049902" lon="98.592662">
<time>2014-08-05T04:41:20Z</time></trkpt>
<trkpt lat="28.050552" lon="98.592752">
<time>2014-08-05T04:41:21Z</time></trkpt>
<trkpt lat="28.050863" lon="98.592882">
<time>2014-08-05T04:41:22Z</time></trkpt>
<trkpt lat="28.051263" lon="98.593102">
<time>2014-08-05T04:41:23Z</time></trkpt>
<trkpt lat="28.051673" lon="98.593472">
<time>2014-08-05T04:41:24Z</time></trkpt>
<trkpt lat="28.052043" lon="98.593742">
<time>2014-08-05T04:41:25Z</time></trkpt>
<trkpt lat="28.052493" lon="98.594201">
<time>2014-08-05T04:41:26Z</time></trkpt>
<trkpt lat="28.052713" lon="98.594651">
<time>2014-08-05T04:41:27Z</time></trkpt>
<trkpt lat="28.052953" lon="98.594981">
<time>2014-08-05T04:41:28Z</time></trkpt>
<trkpt lat="28.053543" lon="98.595561">
<time>2014-08-05T04:41:29Z</time></trkpt>
<trkpt lat="28.053893" lon="98.596181">
<time>2014-08-05T04:41:30Z</time></trkpt>
<trkpt lat="28.054464" lon="98.597">
<time>2014-08-05T04:41:31Z</time></trkpt>
<trkpt lat="28.054634" lon="98.59738">
<time>2014-08-05T04:41:32Z</time></trkpt>
<trkpt lat="28.054984" lon="98.59766">
<time>2014-08-05T04:41:33Z</time></trkpt>
<trkpt lat="28.055894" lon="98.59775">
<time>2014-08-05T04:41:34Z</time></trkpt>
<trkpt lat="28.056094" lon="98.5978">
<time>2014-08-05T04:41:35Z</time></trkpt>
<trkpt lat="28.056304" lon="98.59779">
<time>2014-08-05T04:41:36Z</time></trkpt>
<trkpt lat="28.056804" lon="98.59763">
<time>2014-08-05T04:41:37Z</time></trkpt>
<trkpt lat="28.057024" lon="98.59765">
<time>2014-08-05T04:41:38Z</time></trkpt>
<trkpt lat="28.057434" lon="98.59772">
<time>2014-08-05T04:41:39Z</time></trkpt>
<trkpt lat="28.057644" lon="98.59781">
<time>2014-08-05T04:41:40Z</time></trkpt>
<trkpt lat="28.058014" lon="98.59787">
<time>2014-08-05T04:41:41Z</time></trkpt>
<trkpt lat="28.058224" lon="98.59781">
<time>2014-08-05T04:41:42Z</time></trkpt>
<trkpt lat="28.058324" lon="98.59768">
<time>2014-08-05T04:41:43Z</time></trkpt>
<trkpt lat="28.058964" lon="98.5973">
<time>2014-08-05T04:41:44Z</time></trkpt>
<trkpt lat="28.059254" lon="98.59722">
<time>2014-08-05T04:41:45Z</time></trkpt>
<trkpt lat="28.059564" lon="98.59703">
<time>2014-08-05T04:41:46Z</time></trkpt>
<trkpt lat="28.060304" lon="98.59691">
<time>2014-08-05T04:41:47Z</time></trkpt>
<trkpt lat="28.060574" lon="98.59699">
<time>2014-08-05T04:41:48Z</time></trkpt>
<trkpt lat="28.061125" lon="98.59705">
<time>2014-08-05T04:41:49Z</time></trkpt>
<trkpt lat="28.061515" lon="98.59714">
<time>2014-08-05T04:41:50Z</time></trkpt>
<trkpt lat="28.061865" lon="98.59732">
<time>2014-08-05T04:41:51Z</time></trkpt>
<trkpt lat="28.062075" lon="98.59753">
<time>2014-08-05T04:41:52Z</time></trkpt>
<trkpt lat="28.062335" lon="98.59765">
<time>2014-08-05T04:41:53Z</time></trkpt>
<trkpt lat="28.062645" lon="98.59766">
<time>2014-08-05T04:41:54Z</time></trkpt>
<trkpt lat="28.062995" lon="98.5975">
<time>2014-08-05T04:41:55Z</time></trkpt>
<trkpt lat="28.063125" lon="98.59738">
<time>2014-08-05T04:41:56Z</time></trkpt>
<trkpt lat="28.063585" lon="98.59719">
<time>2014-08-05T04:41:57Z</time></trkpt>
<trkpt lat="28.063805" lon="98.59693">
<time>2014-08-05T04:41:58Z</time></trkpt>
<trkpt lat="28.064195" lon="98.596041">
<time>2014-08-05T04:41:59Z</time></trkpt>
<trkpt lat="28.064365" lon="98.595211">
<time>2014-08-05T04:42:00Z</time></trkpt>
<trkpt lat="28.064415" lon="98.594321">
<time>2014-08-05T04:42:01Z</time></trkpt>
<trkpt lat="28.064615" lon="98.593661">
<time>2014-08-05T04:42:02Z</time></trkpt>
<trkpt lat="28.064565" lon="98.593441">
<time>2014-08-05T04:42:03Z</time></trkpt>
<trkpt lat="28.064665" lon="98.592932">
<time>2014-08-05T04:42:04Z</time></trkpt>
<trkpt lat="28.064685" lon="98.592512">
<time>2014-08-05T04:42:05Z</time></trkpt>
<trkpt lat="28.064644" lon="98.592232">
<time>2014-08-05T04:42:06Z</time></trkpt>
<trkpt lat="28.064684" lon="98.591432">
<time>2014-08-05T04:42:07Z</time></trkpt>
<trkpt lat="28.064914" lon="98.590812">
<time>2014-08-05T04:42:08Z</time></trkpt>
<trkpt lat="28.064904" lon="98.590622">
<time>2014-08-05T04:42:09Z</time></trkpt>
<trkpt lat="28.064964" lon="98.590382">
<time>2014-08-05T04:42:10Z</time></trkpt>
<trkpt lat="28.065054" lon="98.590292">
<time>2014-08-05T04:42:11Z</time></trkpt>
<trkpt lat="28.065844" lon="98.590142">
<time>2014-08-05T04:42:12Z</time></trkpt>
<trkpt lat="28.065994" lon="98.589972">
<time>2014-08-05T04:42:13Z</time></trkpt>
<trkpt lat="28.066104" lon="98.589632">
<time>2014-08-05T04:42:14Z</time></trkpt>
<trkpt lat="28.066164" lon="98.589272">
<time>2014-08-05T04:42:15Z</time></trkpt>
<trkpt lat="28.066084" lon="98.588862">
<time>2014-08-05T04:42:16Z</time></trkpt>
<trkpt lat="28.066143" lon="98.588422">
<time>2014-08-05T04:42:17Z</time></trkpt>
<trkpt lat="28.066323" lon="98.588062">
<time>2014-08-05T04:42:18Z</time></trkpt>
<trkpt lat="28.066463" lon="98.587592">
<time>2014-08-05T04:42:19Z</time></trkpt>
<trkpt lat="28.066403" lon="98.587422">
<time>2014-08-05T04:42:20Z</time></trkpt>
<trkpt lat="28.066393" lon="98.587272">
<time>2014-08-05T04:42:21Z</time></trkpt>
<trkpt lat="28.066493" lon="98.587052">
<time>2014-08-05T04:42:22Z</time></trkpt>
<trkpt lat="28.066703" lon="98.586962">
<time>2014-08-05T04:42:23Z</time></trkpt>
<trkpt lat="28.066883" lon="98.586582">
<time>2014-08-05T04:42:24Z</time></trkpt>
<trkpt lat="28.066933" lon="98.586222">
<time>2014-08-05T04:42:25Z</time></trkpt>
<trkpt lat="28.066882" lon="98.585942">
<time>2014-08-05T04:42:26Z</time></trkpt>
<trkpt lat="28.067082" lon="98.585262">
<time>2014-08-05T04:42:27Z</time></trkpt>
<trkpt lat="28.067592" lon="98.584672">
<time>2014-08-05T04:42:28Z</time></trkpt>
<trkpt lat="28.067792" lon="98.584532">
<time>2014-08-05T04:42:29Z</time></trkpt>
<trkpt lat="28.068032" lon="98.584502">
<time>2014-08-05T04:42:30Z</time></trkpt>
<trkpt lat="28.068292" lon="98.584352">
<time>2014-08-05T04:42:31Z</time></trkpt>
<trkpt lat="28.068462" lon="98.584052">
<time>2014-08-05T04:42:32Z</time></trkpt>
<trkpt lat="28.068632" lon="98.583922">
<time>2014-08-05T04:42:33Z</time></trkpt>
<trkpt lat="28.068861" lon="98.583582">
<time>2014-08-05T04:42:34Z</time></trkpt>
<trkpt lat="28.069441" lon="98.583222">
<time>2014-08-05T04:42:35Z</time></trkpt>
<trkpt lat="28.069741" lon="98.582922">
<time>2014-08-05T04:42:36Z</time></trkpt>
<trkpt lat="28.070031" lon="98.582892">
<time>2014-08-05T04:42:37Z</time></trkpt>
<trkpt lat="28.070261" lon="98.582922">
<time>2014-08-05T04:42:38Z</time></trkpt>
<trkpt lat="28.070581" lon="98.583132">
<time>2014-08-05T04:42:39Z</time></trkpt>
<trkpt lat="28.070781" lon="98.583172">
<time>2014-08-05T04:42:40Z</time></trkpt>
<trkpt lat="28.070921" lon="98.583102">
<time>2014-08-05T04:42:41Z</time></trkpt>
<trkpt lat="28.071011" lon="98.582942">
<time>2014-08-05T04:42:42Z</time></trkpt>
<trkpt lat="28.071021" lon="98.582722">
<time>2014-08-05T04:42:43Z</time></trkpt>
<trkpt lat="28.070951" lon="98.582461">
<time>2014-08-05T04:42:44Z</time></trkpt>
<trkpt lat="28.070711" lon="98.582361">
<time>2014-08-05T04:42:45Z</time></trkpt>
<trkpt lat="28.070521" lon="98.582201">
<time>2014-08-05T04:42:46Z</time></trkpt>
<trkpt lat="28.070561" lon="98.581901">
<time>2014-08-05T04:42:47Z</time></trkpt>
<trkpt lat="28.07098" lon="98.581431">
<time>2014-08-05T04:42:48Z</time></trkpt>
<trkpt lat="28.07121" lon="98.581021">
<time>2014-08-05T04:42:49Z</time></trkpt>
<trkpt lat="28.07158" lon="98.580841">
<time>2014-08-05T04:42:50Z</time></trkpt>
<trkpt lat="28.07177" lon="98.580681">
<time>2014-08-05T04:42:51Z</time></trkpt>
<trkpt lat="28.07207" lon="98.580341">
<time>2014-08-05T04:42:52Z</time></trkpt>
<trkpt lat="28.07257" lon="98.580151">
<time>2014-08-05T04:42:53Z</time></trkpt>
<trkpt lat="28.072719" lon="98.580011">
<time>2014-08-05T04:42:54Z</time></trkpt>
<trkpt lat="28.073039" lon="98.579831">
<time>2014-08-05T04:42:55Z</time></trkpt>
<trkpt lat="28.074149" lon="98.57931">
<time>2014-08-05T04:42:56Z</time></trkpt>
<trkpt lat="28.074729" lon="98.57925">
<time>2014-08-05T04:42:57Z</time></trkpt>
<trkpt lat="28.075119" lon="98.5794">
<time>2014-08-05T04:42:58Z</time></trkpt>
<trkpt lat="28.075209" lon="98.57951">
<time>2014-08-05T04:42:59Z</time></trkpt>
<trkpt lat="28.075379" lon="98.57962">
<time>2014-08-05T04:43:00Z</time></trkpt>
<trkpt lat="28.075899" lon="98.57946">
<time>2014-08-05T04:43:01Z</time></trkpt>
<trkpt lat="28.07616" lon="98.57956">
<time>2014-08-05T04:43:02Z</time></trkpt>
<trkpt lat="28.07641" lon="98.57954">
<time>2014-08-05T04:43:03Z</time></trkpt>
<trkpt lat="28.07665" lon="98.57943">
<time>2014-08-05T04:43:04Z</time></trkpt>
<trkpt lat="28.076879" lon="98.57926">
<time>2014-08-05T04:43:05Z</time></trkpt>
<trkpt lat="28.077069" lon="98.57922">
<time>2014-08-05T04:43:06Z</time></trkpt>
<trkpt lat="28.07734" lon="98.57938">
<time>2014-08-05T04:43:07Z</time></trkpt>
<trkpt lat="28.07748" lon="98.57959">
<time>2014-08-05T04:43:08Z</time></trkpt>
<trkpt lat="28.07753" lon="98.57983">
<time>2014-08-05T04:43:09Z</time></trkpt>
<trkpt lat="28.07776" lon="98.580041">
<time>2014-08-05T04:43:10Z</time></trkpt>
<trkpt lat="28.07806" lon="98.579951">
<time>2014-08-05T04:43:11Z</time></trkpt>
<trkpt lat="28.07822" lon="98.57957">
<time>2014-08-05T04:43:12Z</time></trkpt>
<trkpt lat="28.07842" lon="98.57926">
<time>2014-08-05T04:43:13Z</time></trkpt>
<trkpt lat="28.07859" lon="98.5792">
<time>2014-08-05T04:43:14Z</time></trkpt>
<trkpt lat="28.07877" lon="98.57918">
<time>2014-08-05T04:43:15Z</time></trkpt>
<trkpt lat="28.0793" lon="98.57941">
<time>2014-08-05T04:43:16Z</time></trkpt>
<trkpt lat="28.0796" lon="98.57981">
<time>2014-08-05T04:43:17Z</time></trkpt>
<trkpt lat="28.079751" lon="98.580531">
<time>2014-08-05T04:43:18Z</time></trkpt>
<trkpt lat="28.080011" lon="98.580671">
<time>2014-08-05T04:43:19Z</time></trkpt>
<trkpt lat="28.080301" lon="98.580671">
<time>2014-08-05T04:43:20Z</time></trkpt>
<trkpt lat="28.080781" lon="98.580621">
<time>2014-08-05T04:43:21Z</time></trkpt>
<trkpt lat="28.081021" lon="98.580731">
<time>2014-08-05T04:43:22Z</time></trkpt>
<trkpt lat="28.081151" lon="98.580991">
<time>2014-08-05T04:43:23Z</time></trkpt>
<trkpt lat="28.081142" lon="98.581461">
<time>2014-08-05T04:43:24Z</time></trkpt>
<trkpt lat="28.081262" lon="98.581701">
<time>2014-08-05T04:43:25Z</time></trkpt>
<trkpt lat="28.081522" lon="98.581771">
<time>2014-08-05T04:43:26Z</time></trkpt>
<trkpt lat="28.081832" lon="98.581691">
<time>2014-08-05T04:43:27Z</time></trkpt>
<trkpt lat="28.081992" lon="98.581531">
<time>2014-08-05T04:43:28Z</time></trkpt>
<trkpt lat="28.082122" lon="98.581281">
<time>2014-08-05T04:43:29Z</time></trkpt>
<trkpt lat="28.082342" lon="98.581121">
<time>2014-08-05T04:43:30Z</time></trkpt>
<trkpt lat="28.082602" lon="98.581211">
<time>2014-08-05T04:43:31Z</time></trkpt>
<trkpt lat="28.082792" lon="98.581321">
<time>2014-08-05T04:43:32Z</time></trkpt>
<trkpt lat="28.083022" lon="98.581391">
<time>2014-08-05T04:43:33Z</time></trkpt>
<trkpt lat="28.083342" lon="98.581341">
<time>2014-08-05T04:43:34Z</time></trkpt>
<trkpt lat="28.083362" lon="98.581331">
<time>2014-08-05T04:43:35Z</time></trkpt>
<trkpt lat="28.083562" lon="98.581221">
<time>2014-08-05T04:43:36Z</time></trkpt>
<trkpt lat="28.083852" lon="98.580911">
<time>2014-08-05T04:43:37Z</time></trkpt>
<trkpt lat="28.084021" lon="98.580611">
<time>2014-08-05T04:43:38Z</time></trkpt>
<trkpt lat="28.084091" lon="98.580241">
<time>2014-08-05T04:43:39Z</time></trkpt>
<trkpt lat="28.084091" lon="98.57983">
<time>2014-08-05T04:43:40Z</time></trkpt>
<trkpt lat="28.08374" lon="98.57934">
<time>2014-08-05T04:43:41Z</time></trkpt>
<trkpt lat="28.08358" lon="98.57893">
<time>2014-08-05T04:43:42Z</time></trkpt>
<trkpt lat="28.08356" lon="98.57865">
<time>2014-08-05T04:43:43Z</time></trkpt>
<trkpt lat="28.08367" lon="98.57842">
<time>2014-08-05T04:43:44Z</time></trkpt>
<trkpt lat="28.083949" lon="98.5781">
<time>2014-08-05T04:43:45Z</time></trkpt>
<trkpt lat="28.084039" lon="98.577719">
<time>2014-08-05T04:43:46Z</time></trkpt>
<trkpt lat="28.084079" lon="98.577329">
<time>2014-08-05T04:43:47Z</time></trkpt>
<trkpt lat="28.084368" lon="98.577019">
<time>2014-08-05T04:43:48Z</time></trkpt>
<trkpt lat="28.084488" lon="98.576829">
<time>2014-08-05T04:43:49Z</time></trkpt>
<trkpt lat="28.084788" lon="98.576619">
<time>2014-08-05T04:43:50Z</time></trkpt>
<trkpt lat="28.084988" lon="98.576559">
<time>2014-08-05T04:43:51Z</time></trkpt>
<trkpt lat="28.085378" lon="98.576569">
<time>2014-08-05T04:43:52Z</time></trkpt>
<trkpt lat="28.085698" lon="98.576459">
<time>2014-08-05T04:43:53Z</time></trkpt>
<trkpt lat="28.085848" lon="98.576209">
<time>2014-08-05T04:43:54Z</time></trkpt>
<trkpt lat="28.085918" lon="98.575928">
<time>2014-08-05T04:43:55Z</time></trkpt>
<trkpt lat="28.085878" lon="98.575788">
<time>2014-08-05T04:43:56Z</time></trkpt>
<trkpt lat="28.085697" lon="98.575598">
<time>2014-08-05T04:43:57Z</time></trkpt>
<trkpt lat="28.085377" lon="98.575438">
<time>2014-08-05T04:43:58Z</time></trkpt>
<trkpt lat="28.084997" lon="98.575438">
<time>2014-08-05T04:43:59Z</time></trkpt>
<trkpt lat="28.084757" lon="98.575578">
<time>2014-08-05T04:44:00Z</time></trkpt>
<trkpt lat="28.084617" lon="98.575748">
<time>2014-08-05T04:44:01Z</time></trkpt>
<trkpt lat="28.084447" lon="98.575848">
<time>2014-08-05T04:44:02Z</time></trkpt>
<trkpt lat="28.084257" lon="98.575858">
<time>2014-08-05T04:44:03Z</time></trkpt>
<trkpt lat="28.083907" lon="98.575948">
<time>2014-08-05T04:44:04Z</time></trkpt>
<trkpt lat="28.083647" lon="98.575958">
<time>2014-08-05T04:44:05Z</time></trkpt>
<trkpt lat="28.083407" lon="98.575788">
<time>2014-08-05T04:44:06Z</time></trkpt>
<trkpt lat="28.083367" lon="98.575748">
<time>2014-08-05T04:44:07Z</time></trkpt>
<trkpt lat="28.083207" lon="98.575598">
<time>2014-08-05T04:44:08Z</time></trkpt>
<trkpt lat="28.083147" lon="98.575358">
<time>2014-08-05T04:44:09Z</time></trkpt>
<trkpt lat="28.083147" lon="98.575188">
<time>2014-08-05T04:44:10Z</time></trkpt>
<trkpt lat="28.083366" lon="98.574738">
<time>2014-08-05T04:44:11Z</time></trkpt>
<trkpt lat="28.083296" lon="98.574487">
<time>2014-08-05T04:44:12Z</time></trkpt>
<trkpt lat="28.083066" lon="98.574367">
<time>2014-08-05T04:44:13Z</time></trkpt>
<trkpt lat="28.082916" lon="98.574347">
<time>2014-08-05T04:44:14Z</time></trkpt>
<trkpt lat="28.082635" lon="98.574207">
<time>2014-08-05T04:44:15Z</time></trkpt>
<trkpt lat="28.082505" lon="98.574007">
<time>2014-08-05T04:44:16Z</time></trkpt>
<trkpt lat="28.082435" lon="98.573747">
<time>2014-08-05T04:44:17Z</time></trkpt>
<trkpt lat="28.082585" lon="98.573557">
<time>2014-08-05T04:44:18Z</time></trkpt>
<trkpt lat="28.082695" lon="98.573447">
<time>2014-08-05T04:44:19Z</time></trkpt>
<trkpt lat="28.082724" lon="98.573217">
<time>2014-08-05T04:44:20Z</time></trkpt>
<trkpt lat="28.082834" lon="98.572966">
<time>2014-08-05T04:44:21Z</time></trkpt>
<trkpt lat="28.082964" lon="98.572856">
<time>2014-08-05T04:44:22Z</time></trkpt>
<trkpt lat="28.083134" lon="98.572736">
<time>2014-08-05T04:44:23Z</time></trkpt>
<trkpt lat="28.083364" lon="98.572786">
<time>2014-08-05T04:44:24Z</time></trkpt>
<trkpt lat="28.083414" lon="98.572796">
<time>2014-08-05T04:44:25Z</time></trkpt>
<trkpt lat="28.083604" lon="98.572796">
<time>2014-08-05T04:44:26Z</time></trkpt>
<trkpt lat="28.083754" lon="98.572606">
<time>2014-08-05T04:44:27Z</time></trkpt>
<trkpt lat="28.084124" lon="98.572546">
<time>2014-08-05T04:44:28Z</time></trkpt>
<trkpt lat="28.084334" lon="98.572566">
<time>2014-08-05T04:44:29Z</time></trkpt>
<trkpt lat="28.084464" lon="98.572496">
<time>2014-08-05T04:44:30Z</time></trkpt>
<trkpt lat="28.084534" lon="98.572406">
<time>2014-08-05T04:44:31Z</time></trkpt>
<trkpt lat="28.084524" lon="98.572146">
<time>2014-08-05T04:44:32Z</time></trkpt>
<trkpt lat="28.084463" lon="98.571925">
<time>2014-08-05T04:44:33Z</time></trkpt>
<trkpt lat="28.084333" lon="98.571655">
<time>2014-08-05T04:44:34Z</time></trkpt>
<trkpt lat="28.084163" lon="98.571525">
<time>2014-08-05T04:44:35Z</time></trkpt>
<trkpt lat="28.083943" lon="98.571495">
<time>2014-08-05T04:44:36Z</time></trkpt>
<trkpt lat="28.083783" lon="98.571675">
<time>2014-08-05T04:44:37Z</time></trkpt>
<trkpt lat="28.083363" lon="98.571715">
<time>2014-08-05T04:44:38Z</time></trkpt>
<trkpt lat="28.083213" lon="98.571735">
<time>2014-08-05T04:44:39Z</time></trkpt>
<trkpt lat="28.083033" lon="98.571675">
<time>2014-08-05T04:44:40Z</time></trkpt>
<trkpt lat="28.082633" lon="98.571705">
<time>2014-08-05T04:44:41Z</time></trkpt>
<trkpt lat="28.082443" lon="98.571835">
<time>2014-08-05T04:44:42Z</time></trkpt>
<trkpt lat="28.082253" lon="98.571805">
<time>2014-08-05T04:44:43Z</time></trkpt>
<trkpt lat="28.082093" lon="98.571645">
<time>2014-08-05T04:44:44Z</time></trkpt>
<trkpt lat="28.081992" lon="98.571425">
<time>2014-08-05T04:44:45Z</time></trkpt>
<trkpt lat="28.082162" lon="98.570825">
<time>2014-08-05T04:44:46Z</time></trkpt>
<trkpt lat="28.081941" lon="98.570674">
<time>2014-08-05T04:44:47Z</time></trkpt>
<trkpt lat="28.081681" lon="98.570694">
<time>2014-08-05T04:44:48Z</time></trkpt>
<trkpt lat="28.081331" lon="98.570564">
<time>2014-08-05T04:44:49Z</time></trkpt>
<trkpt lat="28.081191" lon="98.570334">
<time>2014-08-05T04:44:50Z</time></trkpt>
<trkpt lat="28.081091" lon="98.570064">
<time>2014-08-05T04:44:51Z</time></trkpt>
<trkpt lat="28.0811" lon="98.569844">
<time>2014-08-05T04:44:52Z</time></trkpt>
<trkpt lat="28.08097" lon="98.569563">
<time>2014-08-05T04:44:53Z</time></trkpt>
<trkpt lat="28.08101" lon="98.569363">
<time>2014-08-05T04:44:54Z</time></trkpt>
<trkpt lat="28.081179" lon="98.569113">
<time>2014-08-05T04:44:55Z</time></trkpt>
<trkpt lat="28.081339" lon="98.569053">
<time>2014-08-05T04:44:56Z</time></trkpt>
<trkpt lat="28.08155" lon="98.569143">
<time>2014-08-05T04:44:57Z</time></trkpt>
<trkpt lat="28.08164" lon="98.569303">
<time>2014-08-05T04:44:58Z</time></trkpt>
<trkpt lat="28.08191" lon="98.569573">
<time>2014-08-05T04:44:59Z</time></trkpt>
<trkpt lat="28.08222" lon="98.569483">
<time>2014-08-05T04:45:00Z</time></trkpt>
<trkpt lat="28.0823" lon="98.569243">
<time>2014-08-05T04:45:01Z</time></trkpt>
<trkpt lat="28.082259" lon="98.568973">
<time>2014-08-05T04:45:02Z</time></trkpt>
<trkpt lat="28.082099" lon="98.568723">
<time>2014-08-05T04:45:03Z</time></trkpt>
<trkpt lat="28.081769" lon="98.568572">
<time>2014-08-05T04:45:04Z</time></trkpt>
<trkpt lat="28.081789" lon="98.568362">
<time>2014-08-05T04:45:05Z</time></trkpt>
<trkpt lat="28.081999" lon="98.568322">
<time>2014-08-05T04:45:06Z</time></trkpt>
<trkpt lat="28.082208" lon="98.568232">
<time>2014-08-05T04:45:07Z</time></trkpt>
<trkpt lat="28.082218" lon="98.568112">
<time>2014-08-05T04:45:08Z</time></trkpt>
<trkpt lat="28.082088" lon="98.567962">
<time>2014-08-05T04:45:09Z</time></trkpt>
<trkpt lat="28.081918" lon="98.567912">
<time>2014-08-05T04:45:10Z</time></trkpt>
<trkpt lat="28.081848" lon="98.567752">
<time>2014-08-05T04:45:11Z</time></trkpt>
<trkpt lat="28.081978" lon="98.567672">
<time>2014-08-05T04:45:12Z</time></trkpt>
<trkpt lat="28.082138" lon="98.567782">
<time>2014-08-05T04:45:13Z</time></trkpt>
<trkpt lat="28.082618" lon="98.567742">
<time>2014-08-05T04:45:14Z</time></trkpt>
<trkpt lat="28.082827" lon="98.567461">
<time>2014-08-05T04:45:15Z</time></trkpt>
<trkpt lat="28.082947" lon="98.567061">
<time>2014-08-05T04:45:16Z</time></trkpt>
<trkpt lat="28.082757" lon="98.566791">
<time>2014-08-05T04:45:17Z</time></trkpt>
<trkpt lat="28.082466" lon="98.566711">
<time>2014-08-05T04:45:18Z</time></trkpt>
<trkpt lat="28.082266" lon="98.56653">
<time>2014-08-05T04:45:19Z</time></trkpt>
<trkpt lat="28.082236" lon="98.56617">
<time>2014-08-05T04:45:20Z</time></trkpt>
<trkpt lat="28.082455" lon="98.56595">
<time>2014-08-05T04:45:21Z</time></trkpt>
<trkpt lat="28.083095" lon="98.56583">
<time>2014-08-05T04:45:22Z</time></trkpt>
<trkpt lat="28.083255" lon="98.565699">
<time>2014-08-05T04:45:23Z</time></trkpt>
<trkpt lat="28.083195" lon="98.565409">
<time>2014-08-05T04:45:24Z</time></trkpt>
<trkpt lat="28.082894" lon="98.565199">
<time>2014-08-05T04:45:25Z</time></trkpt>
<trkpt lat="28.082674" lon="98.564929">
<time>2014-08-05T04:45:26Z</time></trkpt>
<trkpt lat="28.082614" lon="98.564688">
<time>2014-08-05T04:45:27Z</time></trkpt>
<trkpt lat="28.083043" lon="98.564468">
<time>2014-08-05T04:45:28Z</time></trkpt>
<trkpt lat="28.083324" lon="98.564618">
<time>2014-08-05T04:45:29Z</time></trkpt>
<trkpt lat="28.083364" lon="98.564598">
<time>2014-08-05T04:45:30Z</time></trkpt>
<trkpt lat="28.083673" lon="98.564478">
<time>2014-08-05T04:45:31Z</time></trkpt>
<trkpt lat="28.083693" lon="98.564108">
<time>2014-08-05T04:45:32Z</time></trkpt>
<trkpt lat="28.083363" lon="98.563917">
<time>2014-08-05T04:45:33Z</time></trkpt>
<trkpt lat="28.083303" lon="98.563887">
<time>2014-08-05T04:45:34Z</time></trkpt>
<trkpt lat="28.083152" lon="98.563637">
<time>2014-08-05T04:45:35Z</time></trkpt>
<trkpt lat="28.083322" lon="98.563447">
<time>2014-08-05T04:45:36Z</time></trkpt>
<trkpt lat="28.083362" lon="98.563447">
<time>2014-08-05T04:45:37Z</time></trkpt>
<trkpt lat="28.083642" lon="98.563417">
<time>2014-08-05T04:45:38Z</time></trkpt>
<trkpt lat="28.083932" lon="98.563487">
<time>2014-08-05T04:45:39Z</time></trkpt>
<trkpt lat="28.084162" lon="98.563297">
<time>2014-08-05T04:45:40Z</time></trkpt>
<trkpt lat="28.084161" lon="98.562926">
<time>2014-08-05T04:45:41Z</time></trkpt>
<trkpt lat="28.083691" lon="98.562756">
<time>2014-08-05T04:45:42Z</time></trkpt>
<trkpt lat="28.08366" lon="98.562445">
<time>2014-08-05T04:45:43Z</time></trkpt>
<trkpt lat="28.08379" lon="98.562225">
<time>2014-08-05T04:45:44Z</time></trkpt>
<trkpt lat="28.08408" lon="98.562305">
<time>2014-08-05T04:45:45Z</time></trkpt>
<trkpt lat="28.08426" lon="98.562195">
<time>2014-08-05T04:45:46Z</time></trkpt>
<trkpt lat="28.08413" lon="98.561915">
<time>2014-08-05T04:45:47Z</time></trkpt>
<trkpt lat="28.084199" lon="98.561614">
<time>2014-08-05T04:45:48Z</time></trkpt>
<trkpt lat="28.084459" lon="98.561775">
<time>2014-08-05T04:45:49Z</time></trkpt>
<trkpt lat="28.084779" lon="98.561734">
<time>2014-08-05T04:45:50Z</time></trkpt>
<trkpt lat="28.084859" lon="98.561414">
<time>2014-08-05T04:45:51Z</time></trkpt>
<trkpt lat="28.084608" lon="98.561134">
<time>2014-08-05T04:45:52Z</time></trkpt>
<trkpt lat="28.084668" lon="98.560873">
<time>2014-08-05T04:45:53Z</time></trkpt>
<trkpt lat="28.084888" lon="98.560853">
<time>2014-08-05T04:45:54Z</time></trkpt>
<trkpt lat="28.085028" lon="98.561114">
<time>2014-08-05T04:45:55Z</time></trkpt>
<trkpt lat="28.085319" lon="98.561264">
<time>2014-08-05T04:45:56Z</time></trkpt>
<trkpt lat="28.085438" lon="98.560993">
<time>2014-08-05T04:45:57Z</time></trkpt>
<trkpt lat="28.085398" lon="98.560593">
<time>2014-08-05T04:45:58Z</time></trkpt>
<trkpt lat="28.085468" lon="98.560513">
<time>2014-08-05T04:45:59Z</time></trkpt>
<trkpt lat="28.085698" lon="98.560503">
<time>2014-08-05T04:46:00Z</time></trkpt>
<trkpt lat="28.085707" lon="98.560283">
<time>2014-08-05T04:46:01Z</time></trkpt>
<trkpt lat="28.085567" lon="98.559972">
<time>2014-08-05T04:46:02Z</time></trkpt>
<trkpt lat="28.085566" lon="98.559852">
<time>2014-08-05T04:46:03Z</time></trkpt>
<trkpt lat="28.085776" lon="98.559782">
<time>2014-08-05T04:46:04Z</time></trkpt>
<trkpt lat="28.086067" lon="98.559822">
<time>2014-08-05T04:46:05Z</time></trkpt>
<trkpt lat="28.086326" lon="98.559682">
<time>2014-08-05T04:46:06Z</time></trkpt>
<trkpt lat="28.086466" lon="98.559371">
<time>2014-08-05T04:46:07Z</time></trkpt>
<trkpt lat="28.086375" lon="98.559041">
<time>2014-08-05T04:46:08Z</time></trkpt>
<trkpt lat="28.086115" lon="98.55876">
<time>2014-08-05T04:46:09Z</time></trkpt>
<trkpt lat="28.086184" lon="98.5585">
<time>2014-08-05T04:46:10Z</time></trkpt>
<trkpt lat="28.086404" lon="98.55838">
<time>2014-08-05T04:46:11Z</time></trkpt>
<trkpt lat="28.086724" lon="98.55839">
<time>2014-08-05T04:46:12Z</time></trkpt>
<trkpt lat="28.087054" lon="98.55831">
<time>2014-08-05T04:46:13Z</time></trkpt>
<trkpt lat="28.087164" lon="98.558099">
<time>2014-08-05T04:46:14Z</time></trkpt>
<trkpt lat="28.087153" lon="98.557799">
<time>2014-08-05T04:46:15Z</time></trkpt>
<trkpt lat="28.087223" lon="98.557589">
<time>2014-08-05T04:46:16Z</time></trkpt>
<trkpt lat="28.087473" lon="98.557538">
<time>2014-08-05T04:46:17Z</time></trkpt>
<trkpt lat="28.087663" lon="98.557709">
<time>2014-08-05T04:46:18Z</time></trkpt>
<trkpt lat="28.087913" lon="98.557719">
<time>2014-08-05T04:46:19Z</time></trkpt>
<trkpt lat="28.088063" lon="98.557488">
<time>2014-08-05T04:46:20Z</time></trkpt>
<trkpt lat="28.088042" lon="98.557118">
<time>2014-08-05T04:46:21Z</time></trkpt>
<trkpt lat="28.088132" lon="98.556988">
<time>2014-08-05T04:46:22Z</time></trkpt>
<trkpt lat="28.088422" lon="98.556968">
<time>2014-08-05T04:46:23Z</time></trkpt>
<trkpt lat="28.088602" lon="98.556837">
<time>2014-08-05T04:46:24Z</time></trkpt>
<trkpt lat="28.088711" lon="98.556367">
<time>2014-08-05T04:46:25Z</time></trkpt>
<trkpt lat="28.088861" lon="98.556186">
<time>2014-08-05T04:46:26Z</time></trkpt>
<trkpt lat="28.08915" lon="98.555916">
<time>2014-08-05T04:46:27Z</time></trkpt>
<trkpt lat="28.08925" lon="98.555736">
<time>2014-08-05T04:46:28Z</time></trkpt>
<trkpt lat="28.08927" lon="98.555585">
<time>2014-08-05T04:46:29Z</time></trkpt>
<trkpt lat="28.089219" lon="98.555445">
<time>2014-08-05T04:46:30Z</time></trkpt>
<trkpt lat="28.089269" lon="98.555235">
<time>2014-08-05T04:46:31Z</time></trkpt>
<trkpt lat="28.089449" lon="98.555195">
<time>2014-08-05T04:46:32Z</time></trkpt>
<trkpt lat="28.089738" lon="98.554654">
<time>2014-08-05T04:46:33Z</time></trkpt>
<trkpt lat="28.089878" lon="98.554614">
<time>2014-08-05T04:46:34Z</time></trkpt>
<trkpt lat="28.090058" lon="98.554744">
<time>2014-08-05T04:46:35Z</time></trkpt>
<trkpt lat="28.090238" lon="98.554684">
<time>2014-08-05T04:46:36Z</time></trkpt>
<trkpt lat="28.090347" lon="98.554323">
<time>2014-08-05T04:46:37Z</time></trkpt>
<trkpt lat="28.090707" lon="98.554193">
<time>2014-08-05T04:46:38Z</time></trkpt>
<trkpt lat="28.090827" lon="98.553923">
<time>2014-08-05T04:46:39Z</time></trkpt>
<trkpt lat="28.090626" lon="98.553442">
<time>2014-08-05T04:46:40Z</time></trkpt>
<trkpt lat="28.090695" lon="98.553181">
<time>2014-08-05T04:46:41Z</time></trkpt>
<trkpt lat="28.090875" lon="98.552951">
<time>2014-08-05T04:46:42Z</time></trkpt>
<trkpt lat="28.091175" lon="98.552821">
<time>2014-08-05T04:46:43Z</time></trkpt>
<trkpt lat="28.091705" lon="98.552901">
<time>2014-08-05T04:46:44Z</time></trkpt>
<trkpt lat="28.091915" lon="98.552831">
<time>2014-08-05T04:46:45Z</time></trkpt>
<trkpt lat="28.092094" lon="98.55266">
<time>2014-08-05T04:46:46Z</time></trkpt>
<trkpt lat="28.092094" lon="98.55253">
<time>2014-08-05T04:46:47Z</time></trkpt>
<trkpt lat="28.092194" lon="98.55241">
<time>2014-08-05T04:46:48Z</time></trkpt>
<trkpt lat="28.092293" lon="98.55215">
<time>2014-08-05T04:46:49Z</time></trkpt>
<trkpt lat="28.092303" lon="98.551889">
<time>2014-08-05T04:46:50Z</time></trkpt>
<trkpt lat="28.092433" lon="98.551699">
<time>2014-08-05T04:46:51Z</time></trkpt>
<trkpt lat="28.092522" lon="98.551478">
<time>2014-08-05T04:46:52Z</time></trkpt>
<trkpt lat="28.092512" lon="98.551308">
<time>2014-08-05T04:46:53Z</time></trkpt>
<trkpt lat="28.092291" lon="98.551007">
<time>2014-08-05T04:46:54Z</time></trkpt>
<trkpt lat="28.092321" lon="98.550857">
<time>2014-08-05T04:46:55Z</time></trkpt>
<trkpt lat="28.09243" lon="98.550617">
<time>2014-08-05T04:46:56Z</time></trkpt>
<trkpt lat="28.09263" lon="98.550466">
<time>2014-08-05T04:46:57Z</time></trkpt>
<trkpt lat="28.0929" lon="98.550366">
<time>2014-08-05T04:46:58Z</time></trkpt>
<trkpt lat="28.09328" lon="98.550306">
<time>2014-08-05T04:46:59Z</time></trkpt>
<trkpt lat="28.093579" lon="98.550026">
<time>2014-08-05T04:47:00Z</time></trkpt>
<trkpt lat="28.093659" lon="98.549795">
<time>2014-08-05T04:47:01Z</time></trkpt>
<trkpt lat="28.093708" lon="98.549465">
<time>2014-08-05T04:47:02Z</time></trkpt>
<trkpt lat="28.093708" lon="98.549084">
<time>2014-08-05T04:47:03Z</time></trkpt>
<trkpt lat="28.093447" lon="98.548823">
<time>2014-08-05T04:47:04Z</time></trkpt>
<trkpt lat="28.093356" lon="98.548543">
<time>2014-08-05T04:47:05Z</time></trkpt>
<trkpt lat="28.093466" lon="98.548282">
<time>2014-08-05T04:47:06Z</time></trkpt>
<trkpt lat="28.093646" lon="98.548232">
<time>2014-08-05T04:47:07Z</time></trkpt>
<trkpt lat="28.093986" lon="98.548292">
<time>2014-08-05T04:47:08Z</time></trkpt>
<trkpt lat="28.094256" lon="98.548192">
<time>2014-08-05T04:47:09Z</time></trkpt>
<trkpt lat="28.094375" lon="98.547892">
<time>2014-08-05T04:47:10Z</time></trkpt>
<trkpt lat="28.094264" lon="98.547391">
<time>2014-08-05T04:47:11Z</time></trkpt>
<trkpt lat="28.094423" lon="98.547">
<time>2014-08-05T04:47:12Z</time></trkpt>
<trkpt lat="28.094753" lon="98.546769">
<time>2014-08-05T04:47:13Z</time></trkpt>
<trkpt lat="28.094812" lon="98.546569">
<time>2014-08-05T04:47:14Z</time></trkpt>
<trkpt lat="28.094711" lon="98.545938">
<time>2014-08-05T04:47:15Z</time></trkpt>
<trkpt lat="28.09476" lon="98.545677">
<time>2014-08-05T04:47:16Z</time></trkpt>
<trkpt lat="28.095" lon="98.545377">
<time>2014-08-05T04:47:17Z</time></trkpt>
<trkpt lat="28.095109" lon="98.545136">
<time>2014-08-05T04:47:18Z</time></trkpt>
<trkpt lat="28.095089" lon="98.544966">
<time>2014-08-05T04:47:19Z</time></trkpt>
<trkpt lat="28.095197" lon="98.544034">
<time>2014-08-05T04:47:20Z</time></trkpt>
<trkpt lat="28.095276" lon="98.543523">
<time>2014-08-05T04:47:21Z</time></trkpt>
<trkpt lat="28.095224" lon="98.542861">
<time>2014-08-05T04:47:22Z</time></trkpt>
<trkpt lat="28.095412" lon="98.54203">
<time>2014-08-05T04:47:23Z</time></trkpt>
<trkpt lat="28.095412" lon="98.541799">
<time>2014-08-05T04:47:24Z</time></trkpt>
<trkpt lat="28.095501" lon="98.541528">
<time>2014-08-05T04:47:25Z</time></trkpt>
<trkpt lat="28.09553" lon="98.541067">
<time>2014-08-05T04:47:26Z</time></trkpt>
<trkpt lat="28.095739" lon="98.540737">
<time>2014-08-05T04:47:27Z</time></trkpt>
<trkpt lat="28.096059" lon="98.540536">
<time>2014-08-05T04:47:28Z</time></trkpt>
<trkpt lat="28.096279" lon="98.540416">
<time>2014-08-05T04:47:29Z</time></trkpt>
<trkpt lat="28.096469" lon="98.540426">
<time>2014-08-05T04:47:30Z</time></trkpt>
<trkpt lat="28.096759" lon="98.540366">
<time>2014-08-05T04:47:31Z</time></trkpt>
<trkpt lat="28.096938" lon="98.540005">
<time>2014-08-05T04:47:32Z</time></trkpt>
<trkpt lat="28.096857" lon="98.539524">
<time>2014-08-05T04:47:33Z</time></trkpt>
<trkpt lat="28.096456" lon="98.539313">
<time>2014-08-05T04:47:34Z</time></trkpt>
<trkpt lat="28.095946" lon="98.539293">
<time>2014-08-05T04:47:35Z</time></trkpt>
<trkpt lat="28.095667" lon="98.539744">
<time>2014-08-05T04:47:36Z</time></trkpt>
<trkpt lat="28.095167" lon="98.539644">
<time>2014-08-05T04:47:37Z</time></trkpt>
<trkpt lat="28.095006" lon="98.539283">
<time>2014-08-05T04:47:38Z</time></trkpt>
<trkpt lat="28.094975" lon="98.538913">
<time>2014-08-05T04:47:39Z</time></trkpt>
<trkpt lat="28.095115" lon="98.538762">
<time>2014-08-05T04:47:40Z</time></trkpt>
<trkpt lat="28.095264" lon="98.538391">
<time>2014-08-05T04:47:41Z</time></trkpt>
<trkpt lat="28.095163" lon="98.53797">
<time>2014-08-05T04:47:42Z</time></trkpt>
<trkpt lat="28.095012" lon="98.53773">
<time>2014-08-05T04:47:43Z</time></trkpt>
<trkpt lat="28.095021" lon="98.537249">
<time>2014-08-05T04:47:44Z</time></trkpt>
<trkpt lat="28.095191" lon="98.537098">
<time>2014-08-05T04:47:45Z</time></trkpt>
<trkpt lat="28.09519" lon="98.536848">
<time>2014-08-05T04:47:46Z</time></trkpt>
<trkpt lat="28.095169" lon="98.536587">
<time>2014-08-05T04:47:47Z</time></trkpt>
<trkpt lat="28.094999" lon="98.536286">
<time>2014-08-05T04:47:48Z</time></trkpt>
<trkpt lat="28.094788" lon="98.536016">
<time>2014-08-05T04:47:49Z</time></trkpt>
<trkpt lat="28.094847" lon="98.535735">
<time>2014-08-05T04:47:50Z</time></trkpt>
<trkpt lat="28.095107" lon="98.535645">
<time>2014-08-05T04:47:51Z</time></trkpt>
<trkpt lat="28.095286" lon="98.535354">
<time>2014-08-05T04:47:52Z</time></trkpt>
<trkpt lat="28.095316" lon="98.535033">
<time>2014-08-05T04:47:53Z</time></trkpt>
<trkpt lat="28.095225" lon="98.534833">
<time>2014-08-05T04:47:54Z</time></trkpt>
<trkpt lat="28.094965" lon="98.534663">
<time>2014-08-05T04:47:55Z</time></trkpt>
<trkpt lat="28.094784" lon="98.534552">
<time>2014-08-05T04:47:56Z</time></trkpt>
<trkpt lat="28.094763" lon="98.534031">
<time>2014-08-05T04:47:57Z</time></trkpt>
<trkpt lat="28.094952" lon="98.53355">
<time>2014-08-05T04:47:58Z</time></trkpt>
<trkpt lat="28.095111" lon="98.533339">
<time>2014-08-05T04:47:59Z</time></trkpt>
<trkpt lat="28.095351" lon="98.533119">
<time>2014-08-05T04:48:00Z</time></trkpt>
<trkpt lat="28.09542" lon="98.532868">
<time>2014-08-05T04:48:01Z</time></trkpt>
<trkpt lat="28.095299" lon="98.532587">
<time>2014-08-05T04:48:02Z</time></trkpt>
<trkpt lat="28.095109" lon="98.532357">
<time>2014-08-05T04:48:03Z</time></trkpt>
<trkpt lat="28.095078" lon="98.532096">
<time>2014-08-05T04:48:04Z</time></trkpt>
<trkpt lat="28.095108" lon="98.531906">
<time>2014-08-05T04:48:05Z</time></trkpt>
<trkpt lat="28.095457" lon="98.531715">
<time>2014-08-05T04:48:06Z</time></trkpt>
<trkpt lat="28.095567" lon="98.531485">
<time>2014-08-05T04:48:07Z</time></trkpt>
<trkpt lat="28.095496" lon="98.531144">
<time>2014-08-05T04:48:08Z</time></trkpt>
<trkpt lat="28.095285" lon="98.531034">
<time>2014-08-05T04:48:09Z</time></trkpt>
<trkpt lat="28.095245" lon="98.530853">
<time>2014-08-05T04:48:10Z</time></trkpt>
<trkpt lat="28.095294" lon="98.530572">
<time>2014-08-05T04:48:11Z</time></trkpt>
<trkpt lat="28.095933" lon="98.530041">
<time>2014-08-05T04:48:12Z</time></trkpt>
<trkpt lat="28.096042" lon="98.52975">
<time>2014-08-05T04:48:13Z</time></trkpt>
<trkpt lat="28.095991" lon="98.529419">
<time>2014-08-05T04:48:14Z</time></trkpt>
<trkpt lat="28.09561" lon="98.529018">
<time>2014-08-05T04:48:15Z</time></trkpt>
<trkpt lat="28.095539" lon="98.528788">
<time>2014-08-05T04:48:16Z</time></trkpt>
<trkpt lat="28.095559" lon="98.528567">
<time>2014-08-05T04:48:17Z</time></trkpt>
<trkpt lat="28.095649" lon="98.528457">
<time>2014-08-05T04:48:18Z</time></trkpt>
<trkpt lat="28.095738" lon="98.528186">
<time>2014-08-05T04:48:19Z</time></trkpt>
<trkpt lat="28.095627" lon="98.527845">
<time>2014-08-05T04:48:20Z</time></trkpt>
<trkpt lat="28.095706" lon="98.527555">
<time>2014-08-05T04:48:21Z</time></trkpt>
<trkpt lat="28.096095" lon="98.527214">
<time>2014-08-05T04:48:22Z</time></trkpt>
<trkpt lat="28.096235" lon="98.527184">
<time>2014-08-05T04:48:23Z</time></trkpt>
<trkpt lat="28.096455" lon="98.527053">
<time>2014-08-05T04:48:24Z</time></trkpt>
<trkpt lat="28.096564" lon="98.526782">
<time>2014-08-05T04:48:25Z</time></trkpt>
<trkpt lat="28.096604" lon="98.526542">
<time>2014-08-05T04:48:26Z</time></trkpt>
<trkpt lat="28.096502" lon="98.526121">
<time>2014-08-05T04:48:27Z</time></trkpt>
<trkpt lat="28.096591" lon="98.525619">
<time>2014-08-05T04:48:28Z</time></trkpt>
<trkpt lat="28.09674" lon="98.525419">
<time>2014-08-05T04:48:29Z</time></trkpt>
<trkpt lat="28.09711" lon="98.525228">
<time>2014-08-05T04:48:30Z</time></trkpt>
<trkpt lat="28.09732" lon="98.525228">
<time>2014-08-05T04:48:31Z</time></trkpt>
<trkpt lat="28.09757" lon="98.525188">
<time>2014-08-05T04:48:32Z</time></trkpt>
<trkpt lat="28.097689" lon="98.524927">
<time>2014-08-05T04:48:33Z</time></trkpt>
<trkpt lat="28.097708" lon="98.524376">
<time>2014-08-05T04:48:34Z</time></trkpt>
<trkpt lat="28.098025" lon="98.523484">
<time>2014-08-05T04:48:35Z</time></trkpt>
<trkpt lat="28.098324" lon="98.522922">
<time>2014-08-05T04:48:36Z</time></trkpt>
<trkpt lat="28.098722" lon="98.52237">
<time>2014-08-05T04:48:37Z</time></trkpt>
<trkpt lat="28.099012" lon="98.52219">
<time>2014-08-05T04:48:38Z</time></trkpt>
<trkpt lat="28.099222" lon="98.52229">
<time>2014-08-05T04:48:39Z</time></trkpt>
<trkpt lat="28.099343" lon="98.522601">
<time>2014-08-05T04:48:40Z</time></trkpt>
<trkpt lat="28.099664" lon="98.522762">
<time>2014-08-05T04:48:41Z</time></trkpt>
<trkpt lat="28.100023" lon="98.522731">
<time>2014-08-05T04:48:42Z</time></trkpt>
<trkpt lat="28.100163" lon="98.522391">
<time>2014-08-05T04:48:43Z</time></trkpt>
<trkpt lat="28.100062" lon="98.52206">
<time>2014-08-05T04:48:44Z</time></trkpt>
<trkpt lat="28.099632" lon="98.52207">
<time>2014-08-05T04:48:45Z</time></trkpt>
<trkpt lat="28.099521" lon="98.521809">
<time>2014-08-05T04:48:46Z</time></trkpt>
<trkpt lat="28.09989" lon="98.521348">
<time>2014-08-05T04:48:47Z</time></trkpt>
<trkpt lat="28.100098" lon="98.520916">
<time>2014-08-05T04:48:48Z</time></trkpt>
<trkpt lat="28.100128" lon="98.520736">
<time>2014-08-05T04:48:49Z</time></trkpt>
<trkpt lat="28.100447" lon="98.520345">
<time>2014-08-05T04:48:50Z</time></trkpt>
<trkpt lat="28.100596" lon="98.519964">
<time>2014-08-05T04:48:51Z</time></trkpt>
<trkpt lat="28.100755" lon="98.519763">
<time>2014-08-05T04:48:52Z</time></trkpt>
<trkpt lat="28.100955" lon="98.519653">
<time>2014-08-05T04:48:53Z</time></trkpt>
<trkpt lat="28.101064" lon="98.519432">
<time>2014-08-05T04:48:54Z</time></trkpt>
<trkpt lat="28.101094" lon="98.519151">
<time>2014-08-05T04:48:55Z</time></trkpt>
<trkpt lat="28.101073" lon="98.518911">
<time>2014-08-05T04:48:56Z</time></trkpt>
<trkpt lat="28.101102" lon="98.51857">
<time>2014-08-05T04:48:57Z</time></trkpt>
<trkpt lat="28.101331" lon="98.518199">
<time>2014-08-05T04:48:58Z</time></trkpt>
<trkpt lat="28.10151" lon="98.518038">
<time>2014-08-05T04:48:59Z</time></trkpt>
<trkpt lat="28.10172" lon="98.517918">
<time>2014-08-05T04:49:00Z</time></trkpt>
<trkpt lat="28.101859" lon="98.517657">
<time>2014-08-05T04:49:01Z</time></trkpt>
<trkpt lat="28.101849" lon="98.517376">
<time>2014-08-05T04:49:02Z</time></trkpt>
<trkpt lat="28.101788" lon="98.517216">
<time>2014-08-05T04:49:03Z</time></trkpt>
<trkpt lat="28.101837" lon="98.516975">
<time>2014-08-05T04:49:04Z</time></trkpt>
<trkpt lat="28.101997" lon="98.516775">
<time>2014-08-05T04:49:05Z</time></trkpt>
<trkpt lat="28.102227" lon="98.516684">
<time>2014-08-05T04:49:06Z</time></trkpt>
<trkpt lat="28.102366" lon="98.516524">
<time>2014-08-05T04:49:07Z</time></trkpt>
<trkpt lat="28.102345" lon="98.516263">
<time>2014-08-05T04:49:08Z</time></trkpt>
<trkpt lat="28.102455" lon="98.516103">
<time>2014-08-05T04:49:09Z</time></trkpt>
<trkpt lat="28.102794" lon="98.515822">
<time>2014-08-05T04:49:10Z</time></trkpt>
<trkpt lat="28.102843" lon="98.515581">
<time>2014-08-05T04:49:11Z</time></trkpt>
<trkpt lat="28.102732" lon="98.51519">
<time>2014-08-05T04:49:12Z</time></trkpt>
<trkpt lat="28.102971" lon="98.514769">
<time>2014-08-05T04:49:13Z</time></trkpt>
<trkpt lat="28.10305" lon="98.514388">
<time>2014-08-05T04:49:14Z</time></trkpt>
<trkpt lat="28.103678" lon="98.513656">
<time>2014-08-05T04:49:15Z</time></trkpt>
<trkpt lat="28.104125" lon="98.512773">
<time>2014-08-05T04:49:16Z</time></trkpt>
<trkpt lat="28.104135" lon="98.512532">
<time>2014-08-05T04:49:17Z</time></trkpt>
<trkpt lat="28.104474" lon="98.512111">
<time>2014-08-05T04:49:18Z</time></trkpt>
<trkpt lat="28.104903" lon="98.512011">
<time>2014-08-05T04:49:19Z</time></trkpt>
<trkpt lat="28.105083" lon="98.51188">
<time>2014-08-05T04:49:20Z</time></trkpt>
<trkpt lat="28.105142" lon="98.511549">
<time>2014-08-05T04:49:21Z</time></trkpt>
<trkpt lat="28.105131" lon="98.511248">
<time>2014-08-05T04:49:22Z</time></trkpt>
<trkpt lat="28.10504" lon="98.510807">
<time>2014-08-05T04:49:23Z</time></trkpt>
<trkpt lat="28.105069" lon="98.510396">
<time>2014-08-05T04:49:24Z</time></trkpt>
<trkpt lat="28.105267" lon="98.509995">
<time>2014-08-05T04:49:25Z</time></trkpt>
<trkpt lat="28.105707" lon="98.509744">
<time>2014-08-05T04:49:26Z</time></trkpt>
<trkpt lat="28.105806" lon="98.509493">
<time>2014-08-05T04:49:27Z</time></trkpt>
<trkpt lat="28.105855" lon="98.509202">
<time>2014-08-05T04:49:28Z</time></trkpt>
<trkpt lat="28.105925" lon="98.509072">
<time>2014-08-05T04:49:29Z</time></trkpt>
<trkpt lat="28.106134" lon="98.508942">
<time>2014-08-05T04:49:30Z</time></trkpt>
<trkpt lat="28.106184" lon="98.508671">
<time>2014-08-05T04:49:31Z</time></trkpt>
<trkpt lat="28.106163" lon="98.50844">
<time>2014-08-05T04:49:32Z</time></trkpt>
<trkpt lat="28.106242" lon="98.508169">
<time>2014-08-05T04:49:33Z</time></trkpt>
<trkpt lat="28.106442" lon="98.508049">
<time>2014-08-05T04:49:34Z</time></trkpt>
<trkpt lat="28.106491" lon="98.507808">
<time>2014-08-05T04:49:35Z</time></trkpt>
<trkpt lat="28.10647" lon="98.507578">
<time>2014-08-05T04:49:36Z</time></trkpt>
<trkpt lat="28.10649" lon="98.507447">
<time>2014-08-05T04:49:37Z</time></trkpt>
<trkpt lat="28.106649" lon="98.507176">
<time>2014-08-05T04:49:38Z</time></trkpt>
<trkpt lat="28.107007" lon="98.506534">
<time>2014-08-05T04:49:39Z</time></trkpt>
<trkpt lat="28.107077" lon="98.506334">
<time>2014-08-05T04:49:40Z</time></trkpt>
<trkpt lat="28.107206" lon="98.506093">
<time>2014-08-05T04:49:41Z</time></trkpt>
<trkpt lat="28.107475" lon="98.505782">
<time>2014-08-05T04:49:42Z</time></trkpt>
<trkpt lat="28.107803" lon="98.5052">
<time>2014-08-05T04:49:43Z</time></trkpt>
<trkpt lat="28.108082" lon="98.504839">
<time>2014-08-05T04:49:44Z</time></trkpt>
<trkpt lat="28.108172" lon="98.504649">
<time>2014-08-05T04:49:45Z</time></trkpt>
<trkpt lat="28.108091" lon="98.504488">
<time>2014-08-05T04:49:46Z</time></trkpt>
<trkpt lat="28.108151" lon="98.504268">
<time>2014-08-05T04:49:47Z</time></trkpt>
<trkpt lat="28.10857" lon="98.503987">
<time>2014-08-05T04:49:48Z</time></trkpt>
<trkpt lat="28.10891" lon="98.503906">
<time>2014-08-05T04:49:49Z</time></trkpt>
<trkpt lat="28.108939" lon="98.503816">
<time>2014-08-05T04:49:50Z</time></trkpt>
<trkpt lat="28.108949" lon="98.503586">
<time>2014-08-05T04:49:51Z</time></trkpt>
<trkpt lat="28.109108" lon="98.503335">
<time>2014-08-05T04:49:52Z</time></trkpt>
<trkpt lat="28.109438" lon="98.503164">
<time>2014-08-05T04:49:53Z</time></trkpt>
<trkpt lat="28.109676" lon="98.502753">
<time>2014-08-05T04:49:54Z</time></trkpt>
<trkpt lat="28.110036" lon="98.502592">
<time>2014-08-05T04:49:55Z</time></trkpt>
<trkpt lat="28.110285" lon="98.502261">
<time>2014-08-05T04:49:56Z</time></trkpt>
<trkpt lat="28.110654" lon="98.502021">
<time>2014-08-05T04:49:57Z</time></trkpt>
<trkpt lat="28.110714" lon="98.50186">
<time>2014-08-05T04:49:58Z</time></trkpt>
<trkpt lat="28.110964" lon="98.5018">
<time>2014-08-05T04:49:59Z</time></trkpt>
<trkpt lat="28.111194" lon="98.50193">
<time>2014-08-05T04:50:00Z</time></trkpt>
<trkpt lat="28.111394" lon="98.501991">
<time>2014-08-05T04:50:01Z</time></trkpt>
<trkpt lat="28.111544" lon="98.5018">
<time>2014-08-05T04:50:02Z</time></trkpt>
<trkpt lat="28.111543" lon="98.501519">
<time>2014-08-05T04:50:03Z</time></trkpt>
<trkpt lat="28.111672" lon="98.501339">
<time>2014-08-05T04:50:04Z</time></trkpt>
<trkpt lat="28.112002" lon="98.501268">
<time>2014-08-05T04:50:05Z</time></trkpt>
<trkpt lat="28.112152" lon="98.501118">
<time>2014-08-05T04:50:06Z</time></trkpt>
<trkpt lat="28.112241" lon="98.500927">
<time>2014-08-05T04:50:07Z</time></trkpt>
<trkpt lat="28.112511" lon="98.500897">
<time>2014-08-05T04:50:08Z</time></trkpt>
<trkpt lat="28.112711" lon="98.500947">
<time>2014-08-05T04:50:09Z</time></trkpt>
<trkpt lat="28.112891" lon="98.500857">
<time>2014-08-05T04:50:10Z</time></trkpt>
<trkpt lat="28.11292" lon="98.500626">
<time>2014-08-05T04:50:11Z</time></trkpt>
<trkpt lat="28.11312" lon="98.500446">
<time>2014-08-05T04:50:12Z</time></trkpt>
<trkpt lat="28.11332" lon="98.500526">
<time>2014-08-05T04:50:13Z</time></trkpt>
<trkpt lat="28.11363" lon="98.500546">
<time>2014-08-05T04:50:14Z</time></trkpt>
<trkpt lat="28.11378" lon="98.500426">
<time>2014-08-05T04:50:15Z</time></trkpt>
<trkpt lat="28.11448" lon="98.500305">
<time>2014-08-05T04:50:16Z</time></trkpt>
<trkpt lat="28.11505" lon="98.500275">
<time>2014-08-05T04:50:17Z</time></trkpt>
<trkpt lat="28.11527" lon="98.500315">
<time>2014-08-05T04:50:18Z</time></trkpt>
<trkpt lat="28.11565" lon="98.500295">
<time>2014-08-05T04:50:19Z</time></trkpt>
<trkpt lat="28.116019" lon="98.500205">
<time>2014-08-05T04:50:20Z</time></trkpt>
<trkpt lat="28.116379" lon="98.500055">
<time>2014-08-05T04:50:21Z</time></trkpt>
<trkpt lat="28.116699" lon="98.500115">
<time>2014-08-05T04:50:22Z</time></trkpt>
<trkpt lat="28.117119" lon="98.500085">
<time>2014-08-05T04:50:23Z</time></trkpt>
<trkpt lat="28.1175" lon="98.500305">
<time>2014-08-05T04:50:24Z</time></trkpt>
<trkpt lat="28.11801" lon="98.500215">
<time>2014-08-05T04:50:25Z</time></trkpt>
<trkpt lat="28.118239" lon="98.500035">
<time>2014-08-05T04:50:26Z</time></trkpt>
<trkpt lat="28.118688" lon="98.499694">
<time>2014-08-05T04:50:27Z</time></trkpt>
<trkpt lat="28.118986" lon="98.499052">
<time>2014-08-05T04:50:28Z</time></trkpt>
<trkpt lat="28.119495" lon="98.498721">
<time>2014-08-05T04:50:29Z</time></trkpt>
<trkpt lat="28.120046" lon="98.498911">
<time>2014-08-05T04:50:30Z</time></trkpt>
<trkpt lat="28.120467" lon="98.499152">
<time>2014-08-05T04:50:31Z</time></trkpt>
<trkpt lat="28.120947" lon="98.499312">
<time>2014-08-05T04:50:32Z</time></trkpt>
<trkpt lat="28.121667" lon="98.499202">
<time>2014-08-05T04:50:33Z</time></trkpt>
<trkpt lat="28.122428" lon="98.499383">
<time>2014-08-05T04:50:34Z</time></trkpt>
<trkpt lat="28.122647" lon="98.499262">
<time>2014-08-05T04:50:35Z</time></trkpt>
<trkpt lat="28.122726" lon="98.498941">
<time>2014-08-05T04:50:36Z</time></trkpt>
<trkpt lat="28.122856" lon="98.498821">
<time>2014-08-05T04:50:37Z</time></trkpt>
<trkpt lat="28.123066" lon="98.498821">
<time>2014-08-05T04:50:38Z</time></trkpt>
<trkpt lat="28.123556" lon="98.498881">
<time>2014-08-05T04:50:39Z</time></trkpt>
<trkpt lat="28.123966" lon="98.498821">
<time>2014-08-05T04:50:40Z</time></trkpt>
<trkpt lat="28.124186" lon="98.49868">
<time>2014-08-05T04:50:41Z</time></trkpt>
<trkpt lat="28.124346" lon="98.498741">
<time>2014-08-05T04:50:42Z</time></trkpt>
<trkpt lat="28.124577" lon="98.498971">
<time>2014-08-05T04:50:43Z</time></trkpt>
<trkpt lat="28.124777" lon="98.499021">
<time>2014-08-05T04:50:44Z</time></trkpt>
<trkpt lat="28.124986" lon="98.498881">
<time>2014-08-05T04:50:45Z</time></trkpt>
<trkpt lat="28.125315" lon="98.498299">
<time>2014-08-05T04:50:46Z</time></trkpt>
<trkpt lat="28.125574" lon="98.498199">
<time>2014-08-05T04:50:47Z</time></trkpt>
<trkpt lat="28.125825" lon="98.4984">
<time>2014-08-05T04:50:48Z</time></trkpt>
<trkpt lat="28.125716" lon="98.498811">
<time>2014-08-05T04:50:49Z</time></trkpt>
<trkpt lat="28.125847" lon="98.499011">
<time>2014-08-05T04:50:50Z</time></trkpt>
<trkpt lat="28.126157" lon="98.498961">
<time>2014-08-05T04:50:51Z</time></trkpt>
<trkpt lat="28.126336" lon="98.49867">
<time>2014-08-05T04:50:52Z</time></trkpt>
<trkpt lat="28.126365" lon="98.49845">
<time>2014-08-05T04:50:53Z</time></trkpt>
<trkpt lat="28.126315" lon="98.498199">
<time>2014-08-05T04:50:54Z</time></trkpt>
<trkpt lat="28.126394" lon="98.497998">
<time>2014-08-05T04:50:55Z</time></trkpt>
<trkpt lat="28.126593" lon="98.497768">
<time>2014-08-05T04:50:56Z</time></trkpt>
<trkpt lat="28.126843" lon="98.497687">
<time>2014-08-05T04:50:57Z</time></trkpt>
<trkpt lat="28.127133" lon="98.497727">
<time>2014-08-05T04:50:58Z</time></trkpt>
<trkpt lat="28.127283" lon="98.497637">
<time>2014-08-05T04:50:59Z</time></trkpt>
<trkpt lat="28.127372" lon="98.497406">
<time>2014-08-05T04:51:00Z</time></trkpt>
<trkpt lat="28.127391" lon="98.497065">
<time>2014-08-05T04:51:01Z</time></trkpt>
<trkpt lat="28.127599" lon="98.496413">
<time>2014-08-05T04:51:02Z</time></trkpt>
<trkpt lat="28.127828" lon="98.496022">
<time>2014-08-05T04:51:03Z</time></trkpt>
<trkpt lat="28.128107" lon="98.495591">
<time>2014-08-05T04:51:04Z</time></trkpt>
<trkpt lat="28.128595" lon="98.495049">
<time>2014-08-05T04:51:05Z</time></trkpt>
<trkpt lat="28.128654" lon="98.494768">
<time>2014-08-05T04:51:06Z</time></trkpt>
<trkpt lat="28.128754" lon="98.494568">
<time>2014-08-05T04:51:07Z</time></trkpt>
<trkpt lat="28.129123" lon="98.494377">
<time>2014-08-05T04:51:08Z</time></trkpt>
<trkpt lat="28.129364" lon="98.494417">
<time>2014-08-05T04:51:09Z</time></trkpt>
<trkpt lat="28.129684" lon="98.494568">
<time>2014-08-05T04:51:10Z</time></trkpt>
<trkpt lat="28.130014" lon="98.494538">
<time>2014-08-05T04:51:11Z</time></trkpt>
<trkpt lat="28.130123" lon="98.494247">
<time>2014-08-05T04:51:12Z</time></trkpt>
<trkpt lat="28.130012" lon="98.493785">
<time>2014-08-05T04:51:13Z</time></trkpt>
<trkpt lat="28.130111" lon="98.493565">
<time>2014-08-05T04:51:14Z</time></trkpt>
<trkpt lat="28.130381" lon="98.493464">
<time>2014-08-05T04:51:15Z</time></trkpt>
<trkpt lat="28.13053" lon="98.493294">
<time>2014-08-05T04:51:16Z</time></trkpt>
<trkpt lat="28.130569" lon="98.492722">
<time>2014-08-05T04:51:17Z</time></trkpt>
<trkpt lat="28.130718" lon="98.492532">
<time>2014-08-05T04:51:18Z</time></trkpt>
<trkpt lat="28.130898" lon="98.492502">
<time>2014-08-05T04:51:19Z</time></trkpt>
<trkpt lat="28.131098" lon="98.492421">
<time>2014-08-05T04:51:20Z</time></trkpt>
<trkpt lat="28.131197" lon="98.492231">
<time>2014-08-05T04:51:21Z</time></trkpt>
<trkpt lat="28.131636" lon="98.49184">
<time>2014-08-05T04:51:22Z</time></trkpt>
<trkpt lat="28.131806" lon="98.491659">
<time>2014-08-05T04:51:23Z</time></trkpt>
<trkpt lat="28.131875" lon="98.491488">
<time>2014-08-05T04:51:24Z</time></trkpt>
<trkpt lat="28.132024" lon="98.491298">
<time>2014-08-05T04:51:25Z</time></trkpt>
<trkpt lat="28.132194" lon="98.491198">
<time>2014-08-05T04:51:26Z</time></trkpt>
<trkpt lat="28.132374" lon="98.491027">
<time>2014-08-05T04:51:27Z</time></trkpt>
<trkpt lat="28.132881" lon="98.490245">
<time>2014-08-05T04:51:28Z</time></trkpt>
<trkpt lat="28.133251" lon="98.489964">
<time>2014-08-05T04:51:29Z</time></trkpt>
<trkpt lat="28.13339" lon="98.489723">
<time>2014-08-05T04:51:30Z</time></trkpt>
<trkpt lat="28.13354" lon="98.489623">
<time>2014-08-05T04:51:31Z</time></trkpt>
<trkpt lat="28.133819" lon="98.489342">
<time>2014-08-05T04:51:32Z</time></trkpt>
<trkpt lat="28.133868" lon="98.489111">
<time>2014-08-05T04:51:33Z</time></trkpt>
<trkpt lat="28.134028" lon="98.488921">
<time>2014-08-05T04:51:34Z</time></trkpt>
<trkpt lat="28.134107" lon="98.48869">
<time>2014-08-05T04:51:35Z</time></trkpt>
<trkpt lat="28.134426" lon="98.488339">
<time>2014-08-05T04:51:36Z</time></trkpt>
<trkpt lat="28.134575" lon="98.488128">
<time>2014-08-05T04:51:37Z</time></trkpt>
<trkpt lat="28.134565" lon="98.487988">
<time>2014-08-05T04:51:38Z</time></trkpt>
<trkpt lat="28.134594" lon="98.487577">
<time>2014-08-05T04:51:39Z</time></trkpt>
<trkpt lat="28.134873" lon="98.487306">
<time>2014-08-05T04:51:40Z</time></trkpt>
<trkpt lat="28.135133" lon="98.487246">
<time>2014-08-05T04:51:41Z</time></trkpt>
<trkpt lat="28.135262" lon="98.487065">
<time>2014-08-05T04:51:42Z</time></trkpt>
<trkpt lat="28.135422" lon="98.487075">
<time>2014-08-05T04:51:43Z</time></trkpt>
<trkpt lat="28.135662" lon="98.486945">
<time>2014-08-05T04:51:44Z</time></trkpt>
<trkpt lat="28.13582" lon="98.486313">
<time>2014-08-05T04:51:45Z</time></trkpt>
<trkpt lat="28.136149" lon="98.486032">
<time>2014-08-05T04:51:46Z</time></trkpt>
<trkpt lat="28.136168" lon="98.485731">
<time>2014-08-05T04:51:47Z</time></trkpt>
<trkpt lat="28.136128" lon="98.485591">
<time>2014-08-05T04:51:48Z</time></trkpt>
<trkpt lat="28.136227" lon="98.48519">
<time>2014-08-05T04:51:49Z</time></trkpt>
<trkpt lat="28.136377" lon="98.485079">
<time>2014-08-05T04:51:50Z</time></trkpt>
<trkpt lat="28.136806" lon="98.485029">
<time>2014-08-05T04:51:51Z</time></trkpt>
<trkpt lat="28.137026" lon="98.484818">
<time>2014-08-05T04:51:52Z</time></trkpt>
<trkpt lat="28.137064" lon="98.484257">
<time>2014-08-05T04:51:53Z</time></trkpt>
<trkpt lat="28.137183" lon="98.483876">
<time>2014-08-05T04:51:54Z</time></trkpt>
<trkpt lat="28.137333" lon="98.483705">
<time>2014-08-05T04:51:55Z</time></trkpt>
<trkpt lat="28.137483" lon="98.483645">
<time>2014-08-05T04:51:56Z</time></trkpt>
<trkpt lat="28.137673" lon="98.483675">
<time>2014-08-05T04:51:57Z</time></trkpt>
<trkpt lat="28.137972" lon="98.483535">
<time>2014-08-05T04:51:58Z</time></trkpt>
<trkpt lat="28.13836" lon="98.482662">
<time>2014-08-05T04:51:59Z</time></trkpt>
<trkpt lat="28.138649" lon="98.482401">
<time>2014-08-05T04:52:00Z</time></trkpt>
<trkpt lat="28.138919" lon="98.482281">
<time>2014-08-05T04:52:01Z</time></trkpt>
<trkpt lat="28.139579" lon="98.482451">
<time>2014-08-05T04:52:02Z</time></trkpt>
<trkpt lat="28.139799" lon="98.482341">
<time>2014-08-05T04:52:03Z</time></trkpt>
<trkpt lat="28.140227" lon="98.481769">
<time>2014-08-05T04:52:04Z</time></trkpt>
<trkpt lat="28.140747" lon="98.481539">
<time>2014-08-05T04:52:05Z</time></trkpt>
<trkpt lat="28.141557" lon="98.481689">
<time>2014-08-05T04:52:06Z</time></trkpt>
<trkpt lat="28.142629" lon="98.48215">
<time>2014-08-05T04:52:07Z</time></trkpt>
<trkpt lat="28.143119" lon="98.48213">
<time>2014-08-05T04:52:08Z</time></trkpt>
<trkpt lat="28.143698" lon="98.48195">
<time>2014-08-05T04:52:09Z</time></trkpt>
<trkpt lat="28.144197" lon="98.481609">
<time>2014-08-05T04:52:10Z</time></trkpt>
<trkpt lat="28.144817" lon="98.481529">
<time>2014-08-05T04:52:11Z</time></trkpt>
<trkpt lat="28.145938" lon="98.481819">
<time>2014-08-05T04:52:12Z</time></trkpt>
<trkpt lat="28.146368" lon="98.48187">
<time>2014-08-05T04:52:13Z</time></trkpt>
<trkpt lat="28.147438" lon="98.481789">
<time>2014-08-05T04:52:14Z</time></trkpt>
<trkpt lat="28.148028" lon="98.481789">
<time>2014-08-05T04:52:15Z</time></trkpt>
<trkpt lat="28.149218" lon="98.481679">
<time>2014-08-05T04:52:16Z</time></trkpt>
<trkpt lat="28.149368" lon="98.481759">
<time>2014-08-05T04:52:17Z</time></trkpt></trkseg></trk></gpx>